<?xml version='1.0' encoding='UTF-8'?><gpx version="1.1" creator="JPX - https://github.com/jenetics/jpx" xmlns="http://www.topografix.com/GPX/1/1"><trk><trkseg><trkpt lat="45.68573453158749" lon="9.76121649282103"><ele>243.99999999999997</ele><time>2026-05-01T02:03:22Z</time></trkpt><trkpt lat="45.6857266683996" lon="9.761125542181688"><ele>244.0</ele><time>2026-05-01T02:03:44Z</time></trkpt><trkpt lat="45.685728273424864" lon="9.76102979356553"><ele>244.0</ele><time>2026-05-01T02:09:08Z</time></trkpt><trkpt lat="45.68573183492585" lon="9.760900318952208"><ele>244.0</ele><time>2026-05-01T02:09:10Z</time></trkpt><trkpt lat="45.68568699294959" lon="9.760835186202703"><ele>243.99999999999997</ele><time>2026-05-01T02:09:12Z</time></trkpt><trkpt lat="45.68561076133958" lon="9.760910975217088"><ele>244.0</ele><time>2026-05-01T02:09:22Z</time></trkpt><trkpt lat="45.685596882799366" lon="9.761014737093463"><ele>244.0</ele><time>2026-05-01T02:09:23Z</time></trkpt><trkpt lat="45.68558067215236" lon="9.761132028240656"><ele>243.99999999999997</ele><time>2026-05-01T02:09:24Z</time></trkpt><trkpt lat="45.68556304018148" lon="9.76125961158176"><ele>243.99999999999997</ele><time>2026-05-01T02:09:25Z</time></trkpt><trkpt lat="45.68554196496403" lon="9.761377881013042"><ele>244.0</ele><time>2026-05-01T02:09:26Z</time></trkpt><trkpt lat="45.6855232452914" lon="9.761496050493179"><ele>244.0</ele><time>2026-05-01T02:09:27Z</time></trkpt><trkpt lat="45.68550324921203" lon="9.76165924020613"><ele>244.0</ele><time>2026-05-01T02:09:28Z</time></trkpt><trkpt lat="45.685481756353134" lon="9.761818077282875"><ele>244.0</ele><time>2026-05-01T02:09:29Z</time></trkpt><trkpt lat="45.685461483281074" lon="9.761975856805662"><ele>244.0</ele><time>2026-05-01T02:09:30Z</time></trkpt><trkpt lat="45.68543494084736" lon="9.76214469446536"><ele>244.0</ele><time>2026-05-01T02:09:31Z</time></trkpt><trkpt lat="45.68541061110371" lon="9.762318240710437"><ele>243.75</ele><time>2026-05-01T02:09:32Z</time></trkpt><trkpt lat="45.68538652302075" lon="9.762489672706923"><ele>243.5</ele><time>2026-05-01T02:09:33Z</time></trkpt><trkpt lat="45.685341256228945" lon="9.7626541375992"><ele>243.25</ele><time>2026-05-01T02:09:34Z</time></trkpt><trkpt lat="45.685315886858696" lon="9.762822609926674"><ele>243.0</ele><time>2026-05-01T02:09:35Z</time></trkpt><trkpt lat="45.68528976554366" lon="9.762996075733561"><ele>242.75</ele><time>2026-05-01T02:09:36Z</time></trkpt><trkpt lat="45.68526382546454" lon="9.76316281072561"><ele>242.5</ele><time>2026-05-01T02:09:37Z</time></trkpt><trkpt lat="45.68523749166247" lon="9.76333041615191"><ele>242.25</ele><time>2026-05-01T02:09:38Z</time></trkpt><trkpt lat="45.68521075553871" lon="9.763495460987466"><ele>242.0</ele><time>2026-05-01T02:09:39Z</time></trkpt><trkpt lat="45.68519763361069" lon="9.763668409007293"><ele>241.75</ele><time>2026-05-01T02:09:40Z</time></trkpt><trkpt lat="45.68515478469064" lon="9.763823963561864"><ele>241.5</ele><time>2026-05-01T02:09:41Z</time></trkpt><trkpt lat="45.68512611835422" lon="9.763986209413199"><ele>241.25</ele><time>2026-05-01T02:09:42Z</time></trkpt><trkpt lat="45.685097406360974" lon="9.764146482922898"><ele>241.0</ele><time>2026-05-01T02:09:43Z</time></trkpt><trkpt lat="45.685068711019056" lon="9.764309833588136"><ele>240.8</ele><time>2026-05-01T02:09:44Z</time></trkpt><trkpt lat="45.68503973730075" lon="9.764470414273966"><ele>240.60000000000002</ele><time>2026-05-01T02:09:45Z</time></trkpt><trkpt lat="45.68501251193683" lon="9.764621078899834"><ele>240.4</ele><time>2026-05-01T02:09:46Z</time></trkpt><trkpt lat="45.68498795843663" lon="9.764753667287517"><ele>240.2</ele><time>2026-05-01T02:09:47Z</time></trkpt><trkpt lat="45.684961947293594" lon="9.764888578302932"><ele>240.0</ele><time>2026-05-01T02:09:48Z</time></trkpt><trkpt lat="45.68495394319547" lon="9.765026905192048"><ele>240.0</ele><time>2026-05-01T02:09:49Z</time></trkpt><trkpt lat="45.68493129632084" lon="9.765154831514241"><ele>240.0</ele><time>2026-05-01T02:09:50Z</time></trkpt><trkpt lat="45.68491409588229" lon="9.765281108060467"><ele>240.0</ele><time>2026-05-01T02:09:51Z</time></trkpt><trkpt lat="45.68489214732898" lon="9.765404850136056"><ele>240.0</ele><time>2026-05-01T02:09:52Z</time></trkpt><trkpt lat="45.68486468612235" lon="9.765525797648369"><ele>240.0</ele><time>2026-05-01T02:09:53Z</time></trkpt><trkpt lat="45.6848095182389" lon="9.765620737528309"><ele>240.0</ele><time>2026-05-01T02:09:54Z</time></trkpt><trkpt lat="45.684790693720224" lon="9.765757929221634"><ele>240.2</ele><time>2026-05-01T02:09:55Z</time></trkpt><trkpt lat="45.684796103574946" lon="9.76589985085656"><ele>240.4</ele><time>2026-05-01T02:09:56Z</time></trkpt><trkpt lat="45.684777177022085" lon="9.766037884767583"><ele>240.60000000000002</ele><time>2026-05-01T02:09:57Z</time></trkpt><trkpt lat="45.684746652316335" lon="9.766185188522227"><ele>240.8</ele><time>2026-05-01T02:09:58Z</time></trkpt><trkpt lat="45.68471600419786" lon="9.766339332642982"><ele>241.0</ele><time>2026-05-01T02:09:59Z</time></trkpt><trkpt lat="45.68468716218235" lon="9.766499672409118"><ele>241.5</ele><time>2026-05-01T02:10:00Z</time></trkpt><trkpt lat="45.68465928460861" lon="9.766663349655474"><ele>242.0</ele><time>2026-05-01T02:10:01Z</time></trkpt><trkpt lat="45.6846320033545" lon="9.766827268107619"><ele>242.5</ele><time>2026-05-01T02:10:02Z</time></trkpt><trkpt lat="45.68460521167584" lon="9.766993631003904"><ele>243.0</ele><time>2026-05-01T02:10:03Z</time></trkpt><trkpt lat="45.68455405710805" lon="9.76715249926402"><ele>243.25</ele><time>2026-05-01T02:10:04Z</time></trkpt><trkpt lat="45.68452424666606" lon="9.767316646302739"><ele>243.5</ele><time>2026-05-01T02:10:05Z</time></trkpt><trkpt lat="45.68449499738129" lon="9.767477922002382"><ele>243.75</ele><time>2026-05-01T02:10:06Z</time></trkpt><trkpt lat="45.6844651056166" lon="9.767645667540341"><ele>244.0</ele><time>2026-05-01T02:10:07Z</time></trkpt><trkpt lat="45.684435760730125" lon="9.767812332909552"><ele>243.0</ele><time>2026-05-01T02:10:08Z</time></trkpt><trkpt lat="45.6844066766407" lon="9.767977517067026"><ele>242.0</ele><time>2026-05-01T02:10:09Z</time></trkpt><trkpt lat="45.6843766822234" lon="9.768143844021774"><ele>241.0</ele><time>2026-05-01T02:10:10Z</time></trkpt><trkpt lat="45.68434714283652" lon="9.768314394853984"><ele>240.0</ele><time>2026-05-01T02:10:11Z</time></trkpt><trkpt lat="45.68432031919625" lon="9.768485487374495"><ele>240.0</ele><time>2026-05-01T02:10:12Z</time></trkpt><trkpt lat="45.684296726580136" lon="9.768660259705147"><ele>240.0</ele><time>2026-05-01T02:10:13Z</time></trkpt><trkpt lat="45.6842801783168" lon="9.768839634776661"><ele>240.0</ele><time>2026-05-01T02:10:14Z</time></trkpt><trkpt lat="45.68427446866121" lon="9.769026482906725"><ele>240.0</ele><time>2026-05-01T02:10:15Z</time></trkpt><trkpt lat="45.68428848739232" lon="9.769212908230763"><ele>240.0</ele><time>2026-05-01T02:10:16Z</time></trkpt><trkpt lat="45.684313580519884" lon="9.769394022396018"><ele>240.0</ele><time>2026-05-01T02:10:17Z</time></trkpt><trkpt lat="45.684342869598126" lon="9.769569122666743"><ele>240.0</ele><time>2026-05-01T02:10:18Z</time></trkpt><trkpt lat="45.684374061909466" lon="9.76974026092744"><ele>240.0</ele><time>2026-05-01T02:10:19Z</time></trkpt><trkpt lat="45.68440646270982" lon="9.76990718985075"><ele>240.25</ele><time>2026-05-01T02:10:20Z</time></trkpt><trkpt lat="45.684436664170605" lon="9.770071881592271"><ele>240.5</ele><time>2026-05-01T02:10:21Z</time></trkpt><trkpt lat="45.684466206220456" lon="9.770236068303356"><ele>240.75</ele><time>2026-05-01T02:10:22Z</time></trkpt><trkpt lat="45.684490791580814" lon="9.770399220975397"><ele>241.0</ele><time>2026-05-01T02:10:23Z</time></trkpt><trkpt lat="45.68450782371037" lon="9.7705667391349"><ele>241.0</ele><time>2026-05-01T02:10:24Z</time></trkpt><trkpt lat="45.68451726749171" lon="9.770739271667276"><ele>241.0</ele><time>2026-05-01T02:10:25Z</time></trkpt><trkpt lat="45.68451975573537" lon="9.770912189215467"><ele>241.0</ele><time>2026-05-01T02:10:26Z</time></trkpt><trkpt lat="45.684517582955564" lon="9.771086672586456"><ele>241.0</ele><time>2026-05-01T02:10:27Z</time></trkpt><trkpt lat="45.68451071140494" lon="9.771262306008284"><ele>241.0</ele><time>2026-05-01T02:10:28Z</time></trkpt><trkpt lat="45.68449792268187" lon="9.771439166295815"><ele>241.0</ele><time>2026-05-01T02:10:29Z</time></trkpt><trkpt lat="45.68447754738311" lon="9.771617372605814"><ele>241.0</ele><time>2026-05-01T02:10:30Z</time></trkpt><trkpt lat="45.684448405206886" lon="9.771793158567375"><ele>241.0</ele><time>2026-05-01T02:10:31Z</time></trkpt><trkpt lat="45.68441155139926" lon="9.771960445311185"><ele>240.25</ele><time>2026-05-01T02:10:32Z</time></trkpt><trkpt lat="45.68437077982521" lon="9.772128611566586"><ele>239.5</ele><time>2026-05-01T02:10:33Z</time></trkpt><trkpt lat="45.684327891464264" lon="9.77229376402944"><ele>238.75</ele><time>2026-05-01T02:10:34Z</time></trkpt><trkpt lat="45.6843050371794" lon="9.772470933426952"><ele>238.0</ele><time>2026-05-01T02:10:35Z</time></trkpt><trkpt lat="45.684257079175765" lon="9.772632643484197"><ele>238.25</ele><time>2026-05-01T02:10:36Z</time></trkpt><trkpt lat="45.68420821560079" lon="9.772794512206529"><ele>238.5</ele><time>2026-05-01T02:10:37Z</time></trkpt><trkpt lat="45.68416338412136" lon="9.772959672218112"><ele>238.75</ele><time>2026-05-01T02:10:38Z</time></trkpt><trkpt lat="45.684119356014506" lon="9.773124437181515"><ele>239.0</ele><time>2026-05-01T02:10:39Z</time></trkpt><trkpt lat="45.68407870525589" lon="9.773290493348657"><ele>239.0</ele><time>2026-05-01T02:10:40Z</time></trkpt><trkpt lat="45.684039572650484" lon="9.773457236820047"><ele>239.0</ele><time>2026-05-01T02:10:41Z</time></trkpt><trkpt lat="45.68400078571209" lon="9.77362506770304"><ele>239.0</ele><time>2026-05-01T02:10:42Z</time></trkpt><trkpt lat="45.68396352748224" lon="9.77379271596247"><ele>239.0</ele><time>2026-05-01T02:10:43Z</time></trkpt><trkpt lat="45.683893636488584" lon="9.773945232606522"><ele>238.75</ele><time>2026-05-01T02:10:44Z</time></trkpt><trkpt lat="45.68385447318381" lon="9.774114299567971"><ele>238.5</ele><time>2026-05-01T02:10:45Z</time></trkpt><trkpt lat="45.68381679434916" lon="9.774278001469241"><ele>238.25</ele><time>2026-05-01T02:10:46Z</time></trkpt><trkpt lat="45.68377984111537" lon="9.774438550879175"><ele>238.0</ele><time>2026-05-01T02:10:47Z</time></trkpt><trkpt lat="45.68374348274325" lon="9.774599233603896"><ele>237.75</ele><time>2026-05-01T02:10:48Z</time></trkpt><trkpt lat="45.68370691723636" lon="9.774761101754677"><ele>237.5</ele><time>2026-05-01T02:10:49Z</time></trkpt><trkpt lat="45.68367014539033" lon="9.774921128664845"><ele>237.25</ele><time>2026-05-01T02:10:50Z</time></trkpt><trkpt lat="45.6836329954281" lon="9.775081622374726"><ele>237.0</ele><time>2026-05-01T02:10:51Z</time></trkpt><trkpt lat="45.68359565101804" lon="9.775242956130697"><ele>236.75</ele><time>2026-05-01T02:10:52Z</time></trkpt><trkpt lat="45.683562245375796" lon="9.775409640290063"><ele>236.5</ele><time>2026-05-01T02:10:53Z</time></trkpt><trkpt lat="45.683534195164924" lon="9.775576270808932"><ele>236.25</ele><time>2026-05-01T02:10:54Z</time></trkpt><trkpt lat="45.6835084703053" lon="9.775739308881025"><ele>236.0</ele><time>2026-05-01T02:10:55Z</time></trkpt><trkpt lat="45.683485989225076" lon="9.775887644957226"><ele>236.00000000000003</ele><time>2026-05-01T02:10:56Z</time></trkpt><trkpt lat="45.6834667691158" lon="9.776023174988389"><ele>236.0</ele><time>2026-05-01T02:10:57Z</time></trkpt><trkpt lat="45.683450752600855" lon="9.776145622566082"><ele>236.0</ele><time>2026-05-01T02:10:58Z</time></trkpt><trkpt lat="45.68342304482894" lon="9.776254669151715"><ele>236.0</ele><time>2026-05-01T02:10:59Z</time></trkpt><trkpt lat="45.683358094367954" lon="9.776343720268885"><ele>236.00000000000003</ele><time>2026-05-01T02:11:00Z</time></trkpt><trkpt lat="45.68331554574282" lon="9.776443961389118"><ele>236.0</ele><time>2026-05-01T02:11:01Z</time></trkpt><trkpt lat="45.683309540831864" lon="9.776556930950777"><ele>236.0</ele><time>2026-05-01T02:11:02Z</time></trkpt><trkpt lat="45.683333233102424" lon="9.776673208390422"><ele>236.00000000000003</ele><time>2026-05-01T02:11:03Z</time></trkpt><trkpt lat="45.683367104881704" lon="9.776799978122137"><ele>236.00000000000003</ele><time>2026-05-01T02:11:04Z</time></trkpt><trkpt lat="45.683354350826406" lon="9.776937704837582"><ele>236.0</ele><time>2026-05-01T02:11:05Z</time></trkpt><trkpt lat="45.68333742621718" lon="9.77708476220228"><ele>236.0</ele><time>2026-05-01T02:11:06Z</time></trkpt><trkpt lat="45.68331718564026" lon="9.777243728584352"><ele>236.0</ele><time>2026-05-01T02:11:07Z</time></trkpt><trkpt lat="45.68329541797918" lon="9.777414688445752"><ele>236.0</ele><time>2026-05-01T02:11:08Z</time></trkpt><trkpt lat="45.683272546154164" lon="9.777594320239848"><ele>236.0</ele><time>2026-05-01T02:11:09Z</time></trkpt><trkpt lat="45.6832500470696" lon="9.777771024594633"><ele>236.0</ele><time>2026-05-01T02:11:10Z</time></trkpt><trkpt lat="45.68322801556688" lon="9.777944532538413"><ele>236.0</ele><time>2026-05-01T02:11:11Z</time></trkpt><trkpt lat="45.683206139192556" lon="9.778120477766523"><ele>236.0</ele><time>2026-05-01T02:11:12Z</time></trkpt><trkpt lat="45.68318392917825" lon="9.778299106345024"><ele>236.0</ele><time>2026-05-01T02:11:13Z</time></trkpt><trkpt lat="45.68316050710937" lon="9.778478530870519"><ele>236.0</ele><time>2026-05-01T02:11:14Z</time></trkpt><trkpt lat="45.68313671499945" lon="9.7786585592184"><ele>236.0</ele><time>2026-05-01T02:11:15Z</time></trkpt><trkpt lat="45.68311310242447" lon="9.778841622311143"><ele>236.0</ele><time>2026-05-01T02:11:16Z</time></trkpt><trkpt lat="45.683089925872295" lon="9.779022189630385"><ele>236.0</ele><time>2026-05-01T02:11:17Z</time></trkpt><trkpt lat="45.683067126345684" lon="9.779199819558848"><ele>236.0</ele><time>2026-05-01T02:11:18Z</time></trkpt><trkpt lat="45.68304444784911" lon="9.779376506555261"><ele>236.0</ele><time>2026-05-01T02:11:19Z</time></trkpt><trkpt lat="45.683021850422925" lon="9.779553222165992"><ele>236.0</ele><time>2026-05-01T02:11:20Z</time></trkpt><trkpt lat="45.68300012414332" lon="9.779723191008104"><ele>236.0</ele><time>2026-05-01T02:11:21Z</time></trkpt><trkpt lat="45.682977930577515" lon="9.779896815533169"><ele>236.0</ele><time>2026-05-01T02:11:22Z</time></trkpt><trkpt lat="45.6829559074952" lon="9.780069106329034"><ele>236.0</ele><time>2026-05-01T02:11:23Z</time></trkpt><trkpt lat="45.68293370883659" lon="9.780239752320353"><ele>236.0</ele><time>2026-05-01T02:11:24Z</time></trkpt><trkpt lat="45.682911737064195" lon="9.780410711317312"><ele>236.0</ele><time>2026-05-01T02:11:25Z</time></trkpt><trkpt lat="45.68288966282909" lon="9.780582467564738"><ele>236.0</ele><time>2026-05-01T02:11:26Z</time></trkpt><trkpt lat="45.682868454982035" lon="9.780754881946539"><ele>236.0</ele><time>2026-05-01T02:11:27Z</time></trkpt><trkpt lat="45.682847343698015" lon="9.780927255729969"><ele>236.0</ele><time>2026-05-01T02:11:28Z</time></trkpt><trkpt lat="45.682826111005525" lon="9.781100620811108"><ele>236.0</ele><time>2026-05-01T02:11:29Z</time></trkpt><trkpt lat="45.682806980187486" lon="9.781275159156188"><ele>236.0</ele><time>2026-05-01T02:11:30Z</time></trkpt><trkpt lat="45.68278969742866" lon="9.78145123175856"><ele>236.0</ele><time>2026-05-01T02:11:31Z</time></trkpt><trkpt lat="45.68277670850288" lon="9.781621745864093"><ele>236.00000000000003</ele><time>2026-05-01T02:11:32Z</time></trkpt><trkpt lat="45.68276963227968" lon="9.781788311595376"><ele>236.00000000000003</ele><time>2026-05-01T02:11:33Z</time></trkpt><trkpt lat="45.682763798148756" lon="9.781933643770984"><ele>236.0</ele><time>2026-05-01T02:11:34Z</time></trkpt><trkpt lat="45.68276468889633" lon="9.782060440629706"><ele>236.0</ele><time>2026-05-01T02:11:35Z</time></trkpt><trkpt lat="45.68275286270257" lon="9.782164129291775"><ele>235.50000000000003</ele><time>2026-05-01T02:11:36Z</time></trkpt><trkpt lat="45.682746861628985" lon="9.782258098222387"><ele>235.0</ele><time>2026-05-01T02:11:37Z</time></trkpt><trkpt lat="45.68269633926865" lon="9.782321585741856"><ele>234.5</ele><time>2026-05-01T02:11:38Z</time></trkpt><trkpt lat="45.68262327943905" lon="9.782355570335822"><ele>234.0</ele><time>2026-05-01T02:11:39Z</time></trkpt><trkpt lat="45.68254256579667" lon="9.782372958052488"><ele>233.50000000000003</ele><time>2026-05-01T02:11:40Z</time></trkpt><trkpt lat="45.68245790499021" lon="9.78240993459555"><ele>233.0</ele><time>2026-05-01T02:11:41Z</time></trkpt><trkpt lat="45.68237780506407" lon="9.782482529850272"><ele>233.0</ele><time>2026-05-01T02:11:42Z</time></trkpt><trkpt lat="45.682318848409246" lon="9.782590086948872"><ele>233.0</ele><time>2026-05-01T02:11:43Z</time></trkpt><trkpt lat="45.68227663392697" lon="9.782721482057324"><ele>233.0</ele><time>2026-05-01T02:11:44Z</time></trkpt><trkpt lat="45.68221190223458" lon="9.782840405236739"><ele>233.0</ele><time>2026-05-01T02:11:45Z</time></trkpt><trkpt lat="45.682125861732246" lon="9.782937195120896"><ele>233.0</ele><time>2026-05-01T02:11:46Z</time></trkpt><trkpt lat="45.682023556219036" lon="9.783007550108998"><ele>233.5</ele><time>2026-05-01T02:11:47Z</time></trkpt><trkpt lat="45.68190552585069" lon="9.7830429856506"><ele>234.0</ele><time>2026-05-01T02:11:48Z</time></trkpt><trkpt lat="45.68179433398652" lon="9.783098761250246"><ele>234.5</ele><time>2026-05-01T02:11:49Z</time></trkpt><trkpt lat="45.68169367414742" lon="9.783173576687814"><ele>235.0</ele><time>2026-05-01T02:11:50Z</time></trkpt><trkpt lat="45.68159372807435" lon="9.78320501860664"><ele>235.0</ele><time>2026-05-01T02:11:51Z</time></trkpt><trkpt lat="45.6814973217179" lon="9.783208211210827"><ele>235.0</ele><time>2026-05-01T02:11:52Z</time></trkpt><trkpt lat="45.68140999751374" lon="9.783168892852869"><ele>235.0</ele><time>2026-05-01T02:11:53Z</time></trkpt><trkpt lat="45.681338646850996" lon="9.78310770603088"><ele>235.0</ele><time>2026-05-01T02:11:54Z</time></trkpt><trkpt lat="45.68128272675163" lon="9.782986271755851"><ele>235.0</ele><time>2026-05-01T02:11:55Z</time></trkpt><trkpt lat="45.68129235810907" lon="9.78280705055755"><ele>234.75</ele><time>2026-05-01T02:11:56Z</time></trkpt><trkpt lat="45.68128393067875" lon="9.782646607314582"><ele>234.5</ele><time>2026-05-01T02:11:57Z</time></trkpt><trkpt lat="45.681277881794244" lon="9.78247214537455"><ele>234.25</ele><time>2026-05-01T02:11:58Z</time></trkpt><trkpt lat="45.6812407981255" lon="9.782296597934746"><ele>234.0</ele><time>2026-05-01T02:11:59Z</time></trkpt><trkpt lat="45.68119572992794" lon="9.78211824816033"><ele>234.0</ele><time>2026-05-01T02:12:00Z</time></trkpt><trkpt lat="45.681147187641855" lon="9.781945789471388"><ele>234.0</ele><time>2026-05-01T02:12:01Z</time></trkpt><trkpt lat="45.681097228264875" lon="9.781788738253644"><ele>234.0</ele><time>2026-05-01T02:12:02Z</time></trkpt><trkpt lat="45.68104940157641" lon="9.781640117620949"><ele>234.0</ele><time>2026-05-01T02:12:03Z</time></trkpt><trkpt lat="45.68099966724601" lon="9.781496245790573"><ele>233.75</ele><time>2026-05-01T02:12:04Z</time></trkpt><trkpt lat="45.68094642772837" lon="9.781355607827601"><ele>233.5</ele><time>2026-05-01T02:12:05Z</time></trkpt><trkpt lat="45.68089269069085" lon="9.781213835041216"><ele>233.25</ele><time>2026-05-01T02:12:06Z</time></trkpt><trkpt lat="45.68083693594569" lon="9.781072518428916"><ele>233.0</ele><time>2026-05-01T02:12:07Z</time></trkpt><trkpt lat="45.68077773341673" lon="9.78093050979722"><ele>233.0</ele><time>2026-05-01T02:12:08Z</time></trkpt><trkpt lat="45.68071842961366" lon="9.780784832029397"><ele>233.0</ele><time>2026-05-01T02:12:09Z</time></trkpt><trkpt lat="45.68065811639902" lon="9.780632688706707"><ele>233.0</ele><time>2026-05-01T02:12:10Z</time></trkpt><trkpt lat="45.680597554472534" lon="9.78047646768639"><ele>233.0</ele><time>2026-05-01T02:12:11Z</time></trkpt><trkpt lat="45.680534762716015" lon="9.780313600620671"><ele>233.5</ele><time>2026-05-01T02:12:12Z</time></trkpt><trkpt lat="45.680474676992226" lon="9.78014533768399"><ele>234.0</ele><time>2026-05-01T02:12:13Z</time></trkpt><trkpt lat="45.68039217165348" lon="9.780004085507768"><ele>234.5</ele><time>2026-05-01T02:12:14Z</time></trkpt><trkpt lat="45.680352276065264" lon="9.779795046289337"><ele>235.0</ele><time>2026-05-01T02:12:15Z</time></trkpt><trkpt lat="45.680283883661915" lon="9.779607185803608"><ele>234.33333333333331</ele><time>2026-05-01T02:12:16Z</time></trkpt><trkpt lat="45.68021116917513" lon="9.779413864652321"><ele>233.66666666666669</ele><time>2026-05-01T02:12:17Z</time></trkpt><trkpt lat="45.68013446569662" lon="9.77920937535311"><ele>233.0</ele><time>2026-05-01T02:12:18Z</time></trkpt><trkpt lat="45.680055772755104" lon="9.778987254781015"><ele>233.0</ele><time>2026-05-01T02:12:19Z</time></trkpt><trkpt lat="45.679976638453354" lon="9.778750032852022"><ele>233.0</ele><time>2026-05-01T02:12:20Z</time></trkpt><trkpt lat="45.67989402446802" lon="9.778499492614047"><ele>233.0</ele><time>2026-05-01T02:12:21Z</time></trkpt><trkpt lat="45.67981694508619" lon="9.778252632822223"><ele>233.0</ele><time>2026-05-01T02:12:22Z</time></trkpt><trkpt lat="45.67974414660299" lon="9.778001027352314"><ele>233.0</ele><time>2026-05-01T02:12:23Z</time></trkpt><trkpt lat="45.679673698769044" lon="9.777734116548425"><ele>233.0</ele><time>2026-05-01T02:12:24Z</time></trkpt><trkpt lat="45.67960821073589" lon="9.77745486667424"><ele>233.0</ele><time>2026-05-01T02:12:25Z</time></trkpt><trkpt lat="45.679553682154854" lon="9.7771639813516"><ele>233.0</ele><time>2026-05-01T02:12:26Z</time></trkpt><trkpt lat="45.679508051874585" lon="9.77688240714967"><ele>233.0</ele><time>2026-05-01T02:12:27Z</time></trkpt><trkpt lat="45.67947328949652" lon="9.776589051846763"><ele>233.33333333333334</ele><time>2026-05-01T02:12:28Z</time></trkpt><trkpt lat="45.679446681954055" lon="9.776294522200223"><ele>233.66666666666669</ele><time>2026-05-01T02:12:29Z</time></trkpt><trkpt lat="45.67942681374975" lon="9.775996376388697"><ele>234.0</ele><time>2026-05-01T02:12:30Z</time></trkpt><trkpt lat="45.6794159328168" lon="9.775706873710451"><ele>234.33333333333331</ele><time>2026-05-01T02:12:31Z</time></trkpt><trkpt lat="45.67941194653824" lon="9.775419256489977"><ele>234.66666666666666</ele><time>2026-05-01T02:12:32Z</time></trkpt><trkpt lat="45.67942190093801" lon="9.775129126303082"><ele>235.0</ele><time>2026-05-01T02:12:33Z</time></trkpt><trkpt lat="45.67944242738149" lon="9.77483971339643"><ele>235.0</ele><time>2026-05-01T02:12:34Z</time></trkpt><trkpt lat="45.67947202149067" lon="9.774551758613551"><ele>235.0</ele><time>2026-05-01T02:12:35Z</time></trkpt><trkpt lat="45.67950999405799" lon="9.774266569272077"><ele>235.0</ele><time>2026-05-01T02:12:36Z</time></trkpt><trkpt lat="45.67955646895282" lon="9.773982420533628"><ele>235.66666666666666</ele><time>2026-05-01T02:12:37Z</time></trkpt><trkpt lat="45.67961155598708" lon="9.773701709180346"><ele>236.33333333333331</ele><time>2026-05-01T02:12:38Z</time></trkpt><trkpt lat="45.6796703318771" lon="9.773421083519441"><ele>237.0</ele><time>2026-05-01T02:12:39Z</time></trkpt><trkpt lat="45.67972964358952" lon="9.773140801404947"><ele>237.0</ele><time>2026-05-01T02:12:40Z</time></trkpt><trkpt lat="45.6797886516662" lon="9.77285836981648"><ele>237.0</ele><time>2026-05-01T02:12:41Z</time></trkpt><trkpt lat="45.679847673813725" lon="9.772578743667312"><ele>237.0</ele><time>2026-05-01T02:12:42Z</time></trkpt><trkpt lat="45.67990687136426" lon="9.772300310040915"><ele>239.0</ele><time>2026-05-01T02:12:43Z</time></trkpt><trkpt lat="45.679965030099254" lon="9.772023339715409"><ele>241.0</ele><time>2026-05-01T02:12:44Z</time></trkpt><trkpt lat="45.68002417427014" lon="9.771747146996674"><ele>243.0</ele><time>2026-05-01T02:12:45Z</time></trkpt><trkpt lat="45.68008421950865" lon="9.77146844564653"><ele>245.33333333333331</ele><time>2026-05-01T02:12:46Z</time></trkpt><trkpt lat="45.68014513642712" lon="9.771186630646579"><ele>247.66666666666666</ele><time>2026-05-01T02:12:47Z</time></trkpt><trkpt lat="45.68020496968406" lon="9.770906018794518"><ele>250.0</ele><time>2026-05-01T02:12:48Z</time></trkpt><trkpt lat="45.6802649478086" lon="9.770625096519858"><ele>247.0</ele><time>2026-05-01T02:12:49Z</time></trkpt><trkpt lat="45.6803265017423" lon="9.770348626756048"><ele>244.0</ele><time>2026-05-01T02:12:50Z</time></trkpt><trkpt lat="45.680390415809576" lon="9.770073118134608"><ele>241.0</ele><time>2026-05-01T02:12:51Z</time></trkpt><trkpt lat="45.68045157220006" lon="9.769796975887319"><ele>241.0</ele><time>2026-05-01T02:12:52Z</time></trkpt><trkpt lat="45.680509607035376" lon="9.769520093968008"><ele>241.0</ele><time>2026-05-01T02:12:53Z</time></trkpt><trkpt lat="45.68056763450405" lon="9.769241567291651"><ele>241.0</ele><time>2026-05-01T02:12:54Z</time></trkpt><trkpt lat="45.68062941888699" lon="9.768962632712322"><ele>242.66666666666666</ele><time>2026-05-01T02:12:55Z</time></trkpt><trkpt lat="45.680691147195475" lon="9.768683047485785"><ele>244.33333333333331</ele><time>2026-05-01T02:12:56Z</time></trkpt><trkpt lat="45.68075025650869" lon="9.768402586811563"><ele>246.0</ele><time>2026-05-01T02:12:57Z</time></trkpt><trkpt lat="45.68080763945219" lon="9.76811979575148"><ele>246.66666666666669</ele><time>2026-05-01T02:12:58Z</time></trkpt><trkpt lat="45.68086764806328" lon="9.767838054324779"><ele>247.33333333333334</ele><time>2026-05-01T02:12:59Z</time></trkpt><trkpt lat="45.680928353008575" lon="9.767557625302818"><ele>248.0</ele><time>2026-05-01T02:13:00Z</time></trkpt><trkpt lat="45.68098703124944" lon="9.767278860645057"><ele>249.66666666666669</ele><time>2026-05-01T02:13:01Z</time></trkpt><trkpt lat="45.681046951965975" lon="9.766999587262049"><ele>251.33333333333331</ele><time>2026-05-01T02:13:02Z</time></trkpt><trkpt lat="45.68110593592307" lon="9.766720811754332"><ele>253.0</ele><time>2026-05-01T02:13:03Z</time></trkpt><trkpt lat="45.6811660041008" lon="9.766440411092287"><ele>249.66666666666666</ele><time>2026-05-01T02:13:04Z</time></trkpt><trkpt lat="45.68122885765083" lon="9.766161901526784"><ele>246.33333333333331</ele><time>2026-05-01T02:13:05Z</time></trkpt><trkpt lat="45.68129007752633" lon="9.765882067199582"><ele>243.0</ele><time>2026-05-01T02:13:06Z</time></trkpt><trkpt lat="45.68134938527744" lon="9.76560201687208"><ele>243.0</ele><time>2026-05-01T02:13:07Z</time></trkpt><trkpt lat="45.68140996651675" lon="9.765320888994939"><ele>243.0</ele><time>2026-05-01T02:13:08Z</time></trkpt><trkpt lat="45.68147138110229" lon="9.765040382219427"><ele>243.0</ele><time>2026-05-01T02:13:09Z</time></trkpt><trkpt lat="45.681530989425596" lon="9.76475892848337"><ele>243.33333333333331</ele><time>2026-05-01T02:13:10Z</time></trkpt><trkpt lat="45.68158751698769" lon="9.76448262681981"><ele>243.66666666666666</ele><time>2026-05-01T02:13:11Z</time></trkpt><trkpt lat="45.68165019965229" lon="9.764200259338526"><ele>244.0</ele><time>2026-05-01T02:13:12Z</time></trkpt><trkpt lat="45.68170968589724" lon="9.763919770838523"><ele>244.0</ele><time>2026-05-01T02:13:13Z</time></trkpt><trkpt lat="45.68176888512837" lon="9.763638852361023"><ele>244.0</ele><time>2026-05-01T02:13:14Z</time></trkpt><trkpt lat="45.68182767478751" lon="9.76335769934723"><ele>244.0</ele><time>2026-05-01T02:13:15Z</time></trkpt><trkpt lat="45.68188917749465" lon="9.763075370304708"><ele>244.0</ele><time>2026-05-01T02:13:16Z</time></trkpt><trkpt lat="45.681948021254335" lon="9.762798624192168"><ele>244.0</ele><time>2026-05-01T02:13:17Z</time></trkpt><trkpt lat="45.68200572285253" lon="9.762529041900152"><ele>244.0</ele><time>2026-05-01T02:13:18Z</time></trkpt><trkpt lat="45.68206036426995" lon="9.762248370050596"><ele>244.0</ele><time>2026-05-01T02:13:19Z</time></trkpt><trkpt lat="45.68210973567785" lon="9.761959805547395"><ele>244.0</ele><time>2026-05-01T02:13:20Z</time></trkpt><trkpt lat="45.6821529482614" lon="9.76166649235785"><ele>244.0</ele><time>2026-05-01T02:13:21Z</time></trkpt><trkpt lat="45.682179409168164" lon="9.761362511496184"><ele>244.0</ele><time>2026-05-01T02:13:22Z</time></trkpt><trkpt lat="45.68219794399624" lon="9.761053471677604"><ele>244.0</ele><time>2026-05-01T02:13:23Z</time></trkpt><trkpt lat="45.68220987813919" lon="9.760743180126038"><ele>244.0</ele><time>2026-05-01T02:13:24Z</time></trkpt><trkpt lat="45.682215464148825" lon="9.760432719324276"><ele>244.33333333333331</ele><time>2026-05-01T02:13:25Z</time></trkpt><trkpt lat="45.68220755244526" lon="9.760127207940718"><ele>244.66666666666669</ele><time>2026-05-01T02:13:26Z</time></trkpt><trkpt lat="45.68218723155267" lon="9.759828889891796"><ele>245.0</ele><time>2026-05-01T02:13:27Z</time></trkpt><trkpt lat="45.682155008548705" lon="9.75953689193293"><ele>244.66666666666669</ele><time>2026-05-01T02:13:28Z</time></trkpt><trkpt lat="45.68211169352998" lon="9.759244949552729"><ele>244.33333333333331</ele><time>2026-05-01T02:13:29Z</time></trkpt><trkpt lat="45.682064660402574" lon="9.758951170115667"><ele>244.0</ele><time>2026-05-01T02:13:30Z</time></trkpt><trkpt lat="45.682003089933396" lon="9.758662833648216"><ele>243.66666666666666</ele><time>2026-05-01T02:13:31Z</time></trkpt><trkpt lat="45.681938791463025" lon="9.75837245371896"><ele>243.33333333333331</ele><time>2026-05-01T02:13:32Z</time></trkpt><trkpt lat="45.68187613991871" lon="9.758080560366624"><ele>243.0</ele><time>2026-05-01T02:13:33Z</time></trkpt><trkpt lat="45.681816131363945" lon="9.757789125848651"><ele>244.0</ele><time>2026-05-01T02:13:34Z</time></trkpt><trkpt lat="45.681758559712776" lon="9.757497722969907"><ele>245.0</ele><time>2026-05-01T02:13:35Z</time></trkpt><trkpt lat="45.681697286920546" lon="9.757203834774947"><ele>246.0</ele><time>2026-05-01T02:13:36Z</time></trkpt><trkpt lat="45.681636407017045" lon="9.7569249236751"><ele>245.66666666666669</ele><time>2026-05-01T02:13:37Z</time></trkpt><trkpt lat="45.681575743167144" lon="9.756643103813845"><ele>245.33333333333334</ele><time>2026-05-01T02:13:38Z</time></trkpt><trkpt lat="45.68151662687751" lon="9.756358927396247"><ele>245.0</ele><time>2026-05-01T02:13:39Z</time></trkpt><trkpt lat="45.681456810359265" lon="9.756071912509196"><ele>245.33333333333334</ele><time>2026-05-01T02:13:40Z</time></trkpt><trkpt lat="45.681400687971426" lon="9.75578330840966"><ele>245.66666666666669</ele><time>2026-05-01T02:13:41Z</time></trkpt><trkpt lat="45.68135092369373" lon="9.75549264330327"><ele>246.0</ele><time>2026-05-01T02:13:42Z</time></trkpt><trkpt lat="45.68130044929221" lon="9.75520221455159"><ele>245.33333333333331</ele><time>2026-05-01T02:13:43Z</time></trkpt><trkpt lat="45.681243156829694" lon="9.754913639573916"><ele>244.66666666666666</ele><time>2026-05-01T02:13:44Z</time></trkpt><trkpt lat="45.68118030762085" lon="9.754628787046551"><ele>244.0</ele><time>2026-05-01T02:13:45Z</time></trkpt><trkpt lat="45.6811173267278" lon="9.754343992090456"><ele>244.0</ele><time>2026-05-01T02:13:46Z</time></trkpt><trkpt lat="45.681056055448494" lon="9.754056087824146"><ele>244.0</ele><time>2026-05-01T02:13:47Z</time></trkpt><trkpt lat="45.68099391982551" lon="9.753772745086877"><ele>244.0</ele><time>2026-05-01T02:13:48Z</time></trkpt><trkpt lat="45.68093036262429" lon="9.753489192158403"><ele>244.0</ele><time>2026-05-01T02:13:49Z</time></trkpt><trkpt lat="45.68086943324355" lon="9.753205662099477"><ele>244.0</ele><time>2026-05-01T02:13:50Z</time></trkpt><trkpt lat="45.680810400153405" lon="9.752922341756618"><ele>244.0</ele><time>2026-05-01T02:13:51Z</time></trkpt><trkpt lat="45.680750260531454" lon="9.752639388285582"><ele>243.66666666666666</ele><time>2026-05-01T02:13:52Z</time></trkpt><trkpt lat="45.68069071256169" lon="9.752358266758359"><ele>243.33333333333331</ele><time>2026-05-01T02:13:53Z</time></trkpt><trkpt lat="45.68063532276299" lon="9.75207720993656"><ele>243.0</ele><time>2026-05-01T02:13:54Z</time></trkpt><trkpt lat="45.68057845836412" lon="9.751797557045492"><ele>243.66666666666669</ele><time>2026-05-01T02:13:55Z</time></trkpt><trkpt lat="45.68052041574116" lon="9.751518655612916"><ele>244.33333333333334</ele><time>2026-05-01T02:13:56Z</time></trkpt><trkpt lat="45.68046141328503" lon="9.751240796769704"><ele>245.0</ele><time>2026-05-01T02:13:57Z</time></trkpt><trkpt lat="45.68039979501652" lon="9.750964241322263"><ele>245.0</ele><time>2026-05-01T02:13:58Z</time></trkpt><trkpt lat="45.68033344500896" lon="9.750689801991056"><ele>245.0</ele><time>2026-05-01T02:13:59Z</time></trkpt><trkpt lat="45.68025983342871" lon="9.750419146330511"><ele>245.0</ele><time>2026-05-01T02:14:00Z</time></trkpt><trkpt lat="45.68018028866711" lon="9.75015036952624"><ele>245.0</ele><time>2026-05-01T02:14:01Z</time></trkpt><trkpt lat="45.680095960132036" lon="9.749886054430041"><ele>245.0</ele><time>2026-05-01T02:14:02Z</time></trkpt><trkpt lat="45.68000484791586" lon="9.749625065938423"><ele>245.0</ele><time>2026-05-01T02:14:03Z</time></trkpt><trkpt lat="45.67990678411982" lon="9.749369310130076"><ele>245.0</ele><time>2026-05-01T02:14:04Z</time></trkpt><trkpt lat="45.67980066918107" lon="9.749119976219284"><ele>245.0</ele><time>2026-05-01T02:14:05Z</time></trkpt><trkpt lat="45.67968636626538" lon="9.748877937138184"><ele>245.0</ele><time>2026-05-01T02:14:06Z</time></trkpt><trkpt lat="45.67956264540608" lon="9.748643775161572"><ele>245.33333333333334</ele><time>2026-05-01T02:14:07Z</time></trkpt><trkpt lat="45.67942998762707" lon="9.748417792808954"><ele>245.66666666666669</ele><time>2026-05-01T02:14:08Z</time></trkpt><trkpt lat="45.67928988913081" lon="9.748198720711889"><ele>246.0</ele><time>2026-05-01T02:14:09Z</time></trkpt><trkpt lat="45.679144383889806" lon="9.747985591944637"><ele>246.0</ele><time>2026-05-01T02:14:10Z</time></trkpt><trkpt lat="45.67899162416195" lon="9.747781325661613"><ele>246.0</ele><time>2026-05-01T02:14:11Z</time></trkpt><trkpt lat="45.678832704422476" lon="9.747585555602756"><ele>246.0</ele><time>2026-05-01T02:14:12Z</time></trkpt><trkpt lat="45.67866405582834" lon="9.747406405646029"><ele>246.0</ele><time>2026-05-01T02:14:13Z</time></trkpt><trkpt lat="45.67849038295439" lon="9.747237194210724"><ele>246.0</ele><time>2026-05-01T02:14:14Z</time></trkpt><trkpt lat="45.678311262190576" lon="9.7470770874737"><ele>246.0</ele><time>2026-05-01T02:14:15Z</time></trkpt><trkpt lat="45.67812656183497" lon="9.746926597090004"><ele>246.0</ele><time>2026-05-01T02:14:16Z</time></trkpt><trkpt lat="45.677935470074615" lon="9.746788870743437"><ele>246.0</ele><time>2026-05-01T02:14:17Z</time></trkpt><trkpt lat="45.67773949411696" lon="9.746664322473526"><ele>246.0</ele><time>2026-05-01T02:14:18Z</time></trkpt><trkpt lat="45.677538527893724" lon="9.746551705646807"><ele>245.66666666666669</ele><time>2026-05-01T02:14:19Z</time></trkpt><trkpt lat="45.67733288293769" lon="9.746454655784282"><ele>245.33333333333334</ele><time>2026-05-01T02:14:20Z</time></trkpt><trkpt lat="45.67712323858692" lon="9.74637330608041"><ele>245.0</ele><time>2026-05-01T02:14:21Z</time></trkpt><trkpt lat="45.67691238203697" lon="9.746303464187813"><ele>245.0</ele><time>2026-05-01T02:14:22Z</time></trkpt><trkpt lat="45.676702594116115" lon="9.746238031261138"><ele>245.0</ele><time>2026-05-01T02:14:23Z</time></trkpt><trkpt lat="45.676492173669615" lon="9.746175256754837"><ele>245.0</ele><time>2026-05-01T02:14:24Z</time></trkpt><trkpt lat="45.67628325177188" lon="9.7461089329119"><ele>244.0</ele><time>2026-05-01T02:14:25Z</time></trkpt><trkpt lat="45.67607522870917" lon="9.746040745728887"><ele>243.0</ele><time>2026-05-01T02:14:26Z</time></trkpt><trkpt lat="45.675867197491236" lon="9.745969962264418"><ele>242.0</ele><time>2026-05-01T02:14:27Z</time></trkpt><trkpt lat="45.675662137452825" lon="9.745893869262305"><ele>242.0</ele><time>2026-05-01T02:14:28Z</time></trkpt><trkpt lat="45.67546537138806" lon="9.745810286486845"><ele>242.0</ele><time>2026-05-01T02:14:29Z</time></trkpt><trkpt lat="45.67526582414085" lon="9.74571254018715"><ele>242.0</ele><time>2026-05-01T02:14:30Z</time></trkpt><trkpt lat="45.675066318056984" lon="9.745598934166635"><ele>241.66666666666669</ele><time>2026-05-01T02:14:31Z</time></trkpt><trkpt lat="45.674869520102106" lon="9.745469237222567"><ele>241.33333333333331</ele><time>2026-05-01T02:14:32Z</time></trkpt><trkpt lat="45.674674955270426" lon="9.745326918031706"><ele>241.0</ele><time>2026-05-01T02:14:33Z</time></trkpt><trkpt lat="45.674485121779576" lon="9.745170148281586"><ele>241.33333333333331</ele><time>2026-05-01T02:14:34Z</time></trkpt><trkpt lat="45.674300698585654" lon="9.74500151531688"><ele>241.66666666666669</ele><time>2026-05-01T02:14:35Z</time></trkpt><trkpt lat="45.674119814659946" lon="9.744823449361558"><ele>242.0</ele><time>2026-05-01T02:14:36Z</time></trkpt><trkpt lat="45.67394230628516" lon="9.74464209416407"><ele>242.0</ele><time>2026-05-01T02:14:37Z</time></trkpt><trkpt lat="45.6737701595507" lon="9.74445896111437"><ele>242.0</ele><time>2026-05-01T02:14:38Z</time></trkpt><trkpt lat="45.673598586151975" lon="9.744276664101454"><ele>242.0</ele><time>2026-05-01T02:14:39Z</time></trkpt><trkpt lat="45.67342764564141" lon="9.744095255022426"><ele>241.33333333333334</ele><time>2026-05-01T02:14:40Z</time></trkpt><trkpt lat="45.67325610302041" lon="9.74391665523526"><ele>240.66666666666669</ele><time>2026-05-01T02:14:41Z</time></trkpt><trkpt lat="45.67308365625253" lon="9.743739761576233"><ele>240.0</ele><time>2026-05-01T02:14:42Z</time></trkpt><trkpt lat="45.6729104533457" lon="9.743565810160137"><ele>239.66666666666669</ele><time>2026-05-01T02:14:43Z</time></trkpt><trkpt lat="45.67273418465199" lon="9.743399013778873"><ele>239.33333333333334</ele><time>2026-05-01T02:14:44Z</time></trkpt><trkpt lat="45.67255276695359" lon="9.743241724341098"><ele>239.0</ele><time>2026-05-01T02:14:45Z</time></trkpt><trkpt lat="45.672367160190866" lon="9.74308990364955"><ele>239.0</ele><time>2026-05-01T02:14:46Z</time></trkpt><trkpt lat="45.67217894390904" lon="9.742946928418409"><ele>239.0</ele><time>2026-05-01T02:14:47Z</time></trkpt><trkpt lat="45.67198631544438" lon="9.742810126761364"><ele>239.0</ele><time>2026-05-01T02:14:48Z</time></trkpt><trkpt lat="45.67179133774502" lon="9.742678970991639"><ele>238.66666666666669</ele><time>2026-05-01T02:14:49Z</time></trkpt><trkpt lat="45.67159558348148" lon="9.742555458798536"><ele>238.33333333333331</ele><time>2026-05-01T02:14:50Z</time></trkpt><trkpt lat="45.67139814984498" lon="9.742437354046906"><ele>238.0</ele><time>2026-05-01T02:14:51Z</time></trkpt><trkpt lat="45.67120081829699" lon="9.742323108383554"><ele>238.33333333333331</ele><time>2026-05-01T02:14:52Z</time></trkpt><trkpt lat="45.67100395565017" lon="9.74220986442799"><ele>238.66666666666669</ele><time>2026-05-01T02:14:53Z</time></trkpt><trkpt lat="45.67080939236072" lon="9.742095482094753"><ele>239.0</ele><time>2026-05-01T02:14:54Z</time></trkpt><trkpt lat="45.670614997087554" lon="9.741981125378976"><ele>239.0</ele><time>2026-05-01T02:14:55Z</time></trkpt><trkpt lat="45.67042070466969" lon="9.741867195690732"><ele>239.0</ele><time>2026-05-01T02:14:56Z</time></trkpt><trkpt lat="45.67022694519545" lon="9.741753667040674"><ele>239.0</ele><time>2026-05-01T02:14:57Z</time></trkpt><trkpt lat="45.6700341743226" lon="9.741640632408776"><ele>239.0</ele><time>2026-05-01T02:14:58Z</time></trkpt><trkpt lat="45.66984318715206" lon="9.741528324808955"><ele>239.0</ele><time>2026-05-01T02:14:59Z</time></trkpt><trkpt lat="45.66965284377694" lon="9.74141712064116"><ele>239.0</ele><time>2026-05-01T02:15:00Z</time></trkpt><trkpt lat="45.66946314407861" lon="9.741305319387127"><ele>238.66666666666669</ele><time>2026-05-01T02:15:01Z</time></trkpt><trkpt lat="45.66927416382649" lon="9.741189795622676"><ele>238.33333333333331</ele><time>2026-05-01T02:15:02Z</time></trkpt><trkpt lat="45.66908661312172" lon="9.741063497340164"><ele>238.0</ele><time>2026-05-01T02:15:03Z</time></trkpt><trkpt lat="45.66890382792887" lon="9.740922847627136"><ele>237.33333333333331</ele><time>2026-05-01T02:15:04Z</time></trkpt><trkpt lat="45.66873354522962" lon="9.740757758757077"><ele>236.66666666666669</ele><time>2026-05-01T02:15:05Z</time></trkpt><trkpt lat="45.66858080086698" lon="9.74058756413162"><ele>236.0</ele><time>2026-05-01T02:15:06Z</time></trkpt><trkpt lat="45.668444173966314" lon="9.740405588828438"><ele>234.33333333333334</ele><time>2026-05-01T02:15:07Z</time></trkpt><trkpt lat="45.66831512684855" lon="9.740210773207513"><ele>232.66666666666669</ele><time>2026-05-01T02:15:08Z</time></trkpt><trkpt lat="45.66819025737933" lon="9.74000119055067"><ele>231.0</ele><time>2026-05-01T02:15:09Z</time></trkpt><trkpt lat="45.6680763630222" lon="9.739787507315874"><ele>231.0</ele><time>2026-05-01T02:15:10Z</time></trkpt><trkpt lat="45.66797020311541" lon="9.739574053343333"><ele>231.0</ele><time>2026-05-01T02:15:11Z</time></trkpt><trkpt lat="45.66786007624495" lon="9.73936742720786"><ele>231.0</ele><time>2026-05-01T02:15:12Z</time></trkpt><trkpt lat="45.66773609285432" lon="9.739185783079149"><ele>231.0</ele><time>2026-05-01T02:15:13Z</time></trkpt><trkpt lat="45.66759414375452" lon="9.7390285428512"><ele>231.0</ele><time>2026-05-01T02:15:14Z</time></trkpt><trkpt lat="45.667444380258594" lon="9.738886527266994"><ele>231.0</ele><time>2026-05-01T02:15:15Z</time></trkpt><trkpt lat="45.66728852053891" lon="9.738756456307113"><ele>231.0</ele><time>2026-05-01T02:15:16Z</time></trkpt><trkpt lat="45.66713441358369" lon="9.7386378288321"><ele>231.0</ele><time>2026-05-01T02:15:17Z</time></trkpt><trkpt lat="45.66697392976115" lon="9.738546517792845"><ele>231.0</ele><time>2026-05-01T02:15:18Z</time></trkpt><trkpt lat="45.66679752259785" lon="9.738480223078232"><ele>228.66666666666669</ele><time>2026-05-01T02:15:19Z</time></trkpt><trkpt lat="45.66662229863533" lon="9.738408898362387"><ele>226.33333333333334</ele><time>2026-05-01T02:15:20Z</time></trkpt><trkpt lat="45.66645031308388" lon="9.738328961507213"><ele>224.0</ele><time>2026-05-01T02:15:21Z</time></trkpt><trkpt lat="45.66628073413394" lon="9.738246919744965"><ele>224.0</ele><time>2026-05-01T02:15:22Z</time></trkpt><trkpt lat="45.66611411255665" lon="9.738162911737806"><ele>224.0</ele><time>2026-05-01T02:15:23Z</time></trkpt><trkpt lat="45.66594790280173" lon="9.738082669135697"><ele>224.0</ele><time>2026-05-01T02:15:24Z</time></trkpt><trkpt lat="45.66578249937624" lon="9.73800487055548"><ele>223.66666666666669</ele><time>2026-05-01T02:15:25Z</time></trkpt><trkpt lat="45.665618377183335" lon="9.7379268810665"><ele>223.33333333333331</ele><time>2026-05-01T02:15:26Z</time></trkpt><trkpt lat="45.66545316057319" lon="9.737850019153505"><ele>223.0</ele><time>2026-05-01T02:15:27Z</time></trkpt><trkpt lat="45.66528749629802" lon="9.737774055864499"><ele>225.0</ele><time>2026-05-01T02:15:28Z</time></trkpt><trkpt lat="45.66512231785438" lon="9.737699420273783"><ele>227.0</ele><time>2026-05-01T02:15:29Z</time></trkpt><trkpt lat="45.664955241783844" lon="9.737624495258874"><ele>229.0</ele><time>2026-05-01T02:15:30Z</time></trkpt><trkpt lat="45.66478944105942" lon="9.737547356363253"><ele>229.0</ele><time>2026-05-01T02:15:31Z</time></trkpt><trkpt lat="45.66462313416322" lon="9.737465037312312"><ele>229.0</ele><time>2026-05-01T02:15:32Z</time></trkpt><trkpt lat="45.66445242278208" lon="9.737380908505214"><ele>229.0</ele><time>2026-05-01T02:15:33Z</time></trkpt><trkpt lat="45.664275443360985" lon="9.737297032160097"><ele>228.66666666666666</ele><time>2026-05-01T02:15:34Z</time></trkpt><trkpt lat="45.66409224185655" lon="9.737214013729139"><ele>228.33333333333331</ele><time>2026-05-01T02:15:35Z</time></trkpt><trkpt lat="45.66390429217749" lon="9.737134221965622"><ele>228.0</ele><time>2026-05-01T02:15:36Z</time></trkpt><trkpt lat="45.66371170401341" lon="9.73705592957161"><ele>226.66666666666669</ele><time>2026-05-01T02:15:37Z</time></trkpt><trkpt lat="45.663511942550265" lon="9.736996448803795"><ele>225.33333333333334</ele><time>2026-05-01T02:15:38Z</time></trkpt><trkpt lat="45.66330802422831" lon="9.736956957559885"><ele>224.0</ele><time>2026-05-01T02:15:39Z</time></trkpt><trkpt lat="45.66310411703144" lon="9.73693446136272"><ele>224.0</ele><time>2026-05-01T02:15:40Z</time></trkpt><trkpt lat="45.662903483559376" lon="9.73692413898879"><ele>224.0</ele><time>2026-05-01T02:15:41Z</time></trkpt><trkpt lat="45.66269688694411" lon="9.736923599187492"><ele>224.0</ele><time>2026-05-01T02:15:42Z</time></trkpt><trkpt lat="45.66248897465721" lon="9.736928171786632"><ele>223.33333333333334</ele><time>2026-05-01T02:15:43Z</time></trkpt><trkpt lat="45.66228094755558" lon="9.736927645785086"><ele>222.66666666666669</ele><time>2026-05-01T02:15:44Z</time></trkpt><trkpt lat="45.662072801093814" lon="9.736919612296695"><ele>222.0</ele><time>2026-05-01T02:15:45Z</time></trkpt><trkpt lat="45.661865516071764" lon="9.736907192187752"><ele>222.0</ele><time>2026-05-01T02:15:46Z</time></trkpt><trkpt lat="45.66165939760248" lon="9.736890167301182"><ele>222.0</ele><time>2026-05-01T02:15:47Z</time></trkpt><trkpt lat="45.66145469805706" lon="9.73686665420364"><ele>222.0</ele><time>2026-05-01T02:15:48Z</time></trkpt><trkpt lat="45.661250823704705" lon="9.736837170015825"><ele>221.66666666666669</ele><time>2026-05-01T02:15:49Z</time></trkpt><trkpt lat="45.66104707640276" lon="9.736802688232768"><ele>221.33333333333334</ele><time>2026-05-01T02:15:50Z</time></trkpt><trkpt lat="45.66084240730936" lon="9.736764654099048"><ele>221.0</ele><time>2026-05-01T02:15:51Z</time></trkpt><trkpt lat="45.66063631373967" lon="9.73672556210279"><ele>221.0</ele><time>2026-05-01T02:15:52Z</time></trkpt><trkpt lat="45.660430362027654" lon="9.736680301649454"><ele>221.0</ele><time>2026-05-01T02:15:53Z</time></trkpt><trkpt lat="45.66022509573151" lon="9.736628332386006"><ele>221.0</ele><time>2026-05-01T02:15:54Z</time></trkpt><trkpt lat="45.660019313747746" lon="9.73657015834635"><ele>220.66666666666669</ele><time>2026-05-01T02:15:55Z</time></trkpt><trkpt lat="45.65981397548616" lon="9.736507396172588"><ele>220.33333333333331</ele><time>2026-05-01T02:15:56Z</time></trkpt><trkpt lat="45.659609103030746" lon="9.736439371177608"><ele>220.0</ele><time>2026-05-01T02:15:57Z</time></trkpt><trkpt lat="45.65940560702928" lon="9.736371237225738"><ele>219.33333333333331</ele><time>2026-05-01T02:15:58Z</time></trkpt><trkpt lat="45.65920439592602" lon="9.73629953566328"><ele>218.66666666666669</ele><time>2026-05-01T02:15:59Z</time></trkpt><trkpt lat="45.65900274529118" lon="9.736226182546249"><ele>218.0</ele><time>2026-05-01T02:16:00Z</time></trkpt><trkpt lat="45.6588041460039" lon="9.736148043444029"><ele>219.0</ele><time>2026-05-01T02:16:01Z</time></trkpt><trkpt lat="45.658607013370634" lon="9.736072193585718"><ele>220.0</ele><time>2026-05-01T02:16:02Z</time></trkpt><trkpt lat="45.658411311563434" lon="9.735997416008969"><ele>221.0</ele><time>2026-05-01T02:16:03Z</time></trkpt><trkpt lat="45.658223911838434" lon="9.735925655015324"><ele>221.0</ele><time>2026-05-01T02:16:04Z</time></trkpt><trkpt lat="45.658044552064844" lon="9.73585799663604"><ele>221.0</ele><time>2026-05-01T02:16:05Z</time></trkpt><trkpt lat="45.65787685881265" lon="9.735791979200341"><ele>221.0</ele><time>2026-05-01T02:16:06Z</time></trkpt><trkpt lat="45.657718004663174" lon="9.735725193277988"><ele>220.5</ele><time>2026-05-01T02:16:07Z</time></trkpt><trkpt lat="45.65757274689398" lon="9.73565634441489"><ele>220.0</ele><time>2026-05-01T02:16:08Z</time></trkpt><trkpt lat="45.65744068655777" lon="9.735566549586954"><ele>219.5</ele><time>2026-05-01T02:16:09Z</time></trkpt><trkpt lat="45.65733097801818" lon="9.73545321547527"><ele>219.0</ele><time>2026-05-01T02:16:10Z</time></trkpt><trkpt lat="45.65725419902469" lon="9.735315789483813"><ele>218.79999999999998</ele><time>2026-05-01T02:16:11Z</time></trkpt><trkpt lat="45.65719751950015" lon="9.73518434128595"><ele>218.59999999999997</ele><time>2026-05-01T02:16:12Z</time></trkpt><trkpt lat="45.65716793092952" lon="9.735035717883013"><ele>218.4</ele><time>2026-05-01T02:16:13Z</time></trkpt><trkpt lat="45.657157223342324" lon="9.734886761302985"><ele>218.2</ele><time>2026-05-01T02:16:14Z</time></trkpt><trkpt lat="45.65714701212826" lon="9.734746445613986"><ele>218.0</ele><time>2026-05-01T02:16:15Z</time></trkpt><trkpt lat="45.65711852780226" lon="9.734613778960906"><ele>218.0</ele><time>2026-05-01T02:16:16Z</time></trkpt><trkpt lat="45.657064331174546" lon="9.734495874096055"><ele>218.0</ele><time>2026-05-01T02:16:17Z</time></trkpt><trkpt lat="45.6569871493653" lon="9.73440744645964"><ele>218.0</ele><time>2026-05-01T02:16:18Z</time></trkpt><trkpt lat="45.656892817241555" lon="9.734349423995042"><ele>218.0</ele><time>2026-05-01T02:16:19Z</time></trkpt><trkpt lat="45.65679450641805" lon="9.734306716306007"><ele>218.0</ele><time>2026-05-01T02:16:20Z</time></trkpt><trkpt lat="45.65669104470149" lon="9.734348654761805"><ele>217.8</ele><time>2026-05-01T02:16:21Z</time></trkpt><trkpt lat="45.65659835339442" lon="9.734399694718789"><ele>217.60000000000002</ele><time>2026-05-01T02:16:22Z</time></trkpt><trkpt lat="45.65651943351703" lon="9.734481543518887"><ele>217.39999999999998</ele><time>2026-05-01T02:16:23Z</time></trkpt><trkpt lat="45.6564611461614" lon="9.734594131476054"><ele>217.2</ele><time>2026-05-01T02:16:24Z</time></trkpt><trkpt lat="45.656419750298475" lon="9.734717169559346"><ele>217.0</ele><time>2026-05-01T02:16:25Z</time></trkpt><trkpt lat="45.65639073734418" lon="9.73485627381735"><ele>217.0</ele><time>2026-05-01T02:16:26Z</time></trkpt><trkpt lat="45.656369298895214" lon="9.735002040051484"><ele>217.0</ele><time>2026-05-01T02:16:27Z</time></trkpt><trkpt lat="45.656344684265115" lon="9.735150615603455"><ele>217.0</ele><time>2026-05-01T02:16:28Z</time></trkpt><trkpt lat="45.65631910656824" lon="9.735307718996447"><ele>217.0</ele><time>2026-05-01T02:16:29Z</time></trkpt><trkpt lat="45.65629081478529" lon="9.735469040221718"><ele>217.0</ele><time>2026-05-01T02:16:30Z</time></trkpt><trkpt lat="45.65626018136813" lon="9.735630333993797"><ele>217.0</ele><time>2026-05-01T02:16:31Z</time></trkpt><trkpt lat="45.656221544736475" lon="9.735792160348998"><ele>217.0</ele><time>2026-05-01T02:16:32Z</time></trkpt><trkpt lat="45.6561726998163" lon="9.735950418851989"><ele>217.0</ele><time>2026-05-01T02:16:33Z</time></trkpt><trkpt lat="45.65611135406317" lon="9.73610551114775"><ele>217.0</ele><time>2026-05-01T02:16:34Z</time></trkpt><trkpt lat="45.65601952863472" lon="9.736239312320546"><ele>217.75</ele><time>2026-05-01T02:16:35Z</time></trkpt><trkpt lat="45.655923043906135" lon="9.736379617821248"><ele>218.5</ele><time>2026-05-01T02:16:36Z</time></trkpt><trkpt lat="45.65580832567064" lon="9.736511441847439"><ele>219.25</ele><time>2026-05-01T02:16:37Z</time></trkpt><trkpt lat="45.65568062745073" lon="9.736653144823096"><ele>220.0</ele><time>2026-05-01T02:16:38Z</time></trkpt><trkpt lat="45.65554879343447" lon="9.736797673744546"><ele>219.33333333333331</ele><time>2026-05-01T02:16:39Z</time></trkpt><trkpt lat="45.6554161338441" lon="9.73694094593422"><ele>218.66666666666669</ele><time>2026-05-01T02:16:40Z</time></trkpt><trkpt lat="45.65527635149661" lon="9.737092910621259"><ele>218.0</ele><time>2026-05-01T02:16:41Z</time></trkpt><trkpt lat="45.65514228229855" lon="9.737262519627345"><ele>217.66666666666669</ele><time>2026-05-01T02:16:42Z</time></trkpt><trkpt lat="45.654993962771826" lon="9.737405427139102"><ele>217.33333333333331</ele><time>2026-05-01T02:16:43Z</time></trkpt><trkpt lat="45.654850178071406" lon="9.737548631574496"><ele>217.0</ele><time>2026-05-01T02:16:44Z</time></trkpt><trkpt lat="45.65470533859796" lon="9.737696800954637"><ele>217.0</ele><time>2026-05-01T02:16:45Z</time></trkpt><trkpt lat="45.65457165302638" lon="9.737839128747654"><ele>217.0</ele><time>2026-05-01T02:16:46Z</time></trkpt><trkpt lat="45.654439033039935" lon="9.737981971893912"><ele>217.0</ele><time>2026-05-01T02:16:47Z</time></trkpt><trkpt lat="45.65430262587123" lon="9.73812829642492"><ele>217.33333333333331</ele><time>2026-05-01T02:16:48Z</time></trkpt><trkpt lat="45.654165727150726" lon="9.738275886933259"><ele>217.66666666666669</ele><time>2026-05-01T02:16:49Z</time></trkpt><trkpt lat="45.65402817548922" lon="9.738426006952093"><ele>218.0</ele><time>2026-05-01T02:16:50Z</time></trkpt><trkpt lat="45.65389036183993" lon="9.738576088971262"><ele>218.0</ele><time>2026-05-01T02:16:51Z</time></trkpt><trkpt lat="45.65375370492949" lon="9.7387273754931"><ele>218.0</ele><time>2026-05-01T02:16:52Z</time></trkpt><trkpt lat="45.65361642262517" lon="9.738877028649489"><ele>218.0</ele><time>2026-05-01T02:16:53Z</time></trkpt><trkpt lat="45.65347793446922" lon="9.739025623995198"><ele>217.66666666666669</ele><time>2026-05-01T02:16:54Z</time></trkpt><trkpt lat="45.65334105575694" lon="9.739173367272594"><ele>217.33333333333331</ele><time>2026-05-01T02:16:55Z</time></trkpt><trkpt lat="45.65320516283084" lon="9.739321001609277"><ele>217.0</ele><time>2026-05-01T02:16:56Z</time></trkpt><trkpt lat="45.65307026578718" lon="9.739466176152298"><ele>217.0</ele><time>2026-05-01T02:16:57Z</time></trkpt><trkpt lat="45.65293842565236" lon="9.739603048814338"><ele>217.0</ele><time>2026-05-01T02:16:58Z</time></trkpt><trkpt lat="45.65280740005771" lon="9.739726668359333"><ele>217.0</ele><time>2026-05-01T02:16:59Z</time></trkpt><trkpt lat="45.65266400020403" lon="9.739796758200047"><ele>217.0</ele><time>2026-05-01T02:17:00Z</time></trkpt><trkpt lat="45.652519733884795" lon="9.739865205964763"><ele>217.0</ele><time>2026-05-01T02:17:01Z</time></trkpt><trkpt lat="45.652383742459925" lon="9.739916270076462"><ele>217.0</ele><time>2026-05-01T02:17:02Z</time></trkpt><trkpt lat="45.6522560864907" lon="9.73992594994213"><ele>217.0</ele><time>2026-05-01T02:17:03.001Z</time></trkpt><trkpt lat="45.65213816528861" lon="9.739898913676662"><ele>217.0</ele><time>2026-05-01T02:17:04.001Z</time></trkpt><trkpt lat="45.6520314170411" lon="9.739838507470905"><ele>217.0</ele><time>2026-05-01T02:17:05.001Z</time></trkpt><trkpt lat="45.65194316605346" lon="9.739745739347113"><ele>217.0</ele><time>2026-05-01T02:17:06.001Z</time></trkpt><trkpt lat="45.651875770936854" lon="9.73962704631576"><ele>217.0</ele><time>2026-05-01T02:17:07.001Z</time></trkpt><trkpt lat="45.65183111306695" lon="9.739489725065532"><ele>217.0</ele><time>2026-05-01T02:17:08.001Z</time></trkpt><trkpt lat="45.651810364514816" lon="9.739342056556945"><ele>216.8</ele><time>2026-05-01T02:17:09.001Z</time></trkpt><trkpt lat="45.65180872067182" lon="9.739191373166985"><ele>216.6</ele><time>2026-05-01T02:17:10.001Z</time></trkpt><trkpt lat="45.651824914184196" lon="9.739047524043439"><ele>216.40000000000003</ele><time>2026-05-01T02:17:11.001Z</time></trkpt><trkpt lat="45.65186558665172" lon="9.738911411143162"><ele>216.20000000000002</ele><time>2026-05-01T02:17:12.001Z</time></trkpt><trkpt lat="45.651927027735915" lon="9.738791136266723"><ele>216.0</ele><time>2026-05-01T02:17:13.001Z</time></trkpt><trkpt lat="45.652005680621755" lon="9.738691612703631"><ele>216.0</ele><time>2026-05-01T02:17:14.001Z</time></trkpt><trkpt lat="45.65209624710443" lon="9.73861478508394"><ele>216.00000000000003</ele><time>2026-05-01T02:17:15.001Z</time></trkpt><trkpt lat="45.65219653079125" lon="9.738567753780464"><ele>216.00000000000003</ele><time>2026-05-01T02:17:16.001Z</time></trkpt><trkpt lat="45.65230197065184" lon="9.738556316468204"><ele>216.0</ele><time>2026-05-01T02:17:17.001Z</time></trkpt><trkpt lat="45.65240701222474" lon="9.73858089294252"><ele>216.0</ele><time>2026-05-01T02:17:18.001Z</time></trkpt><trkpt lat="45.65250805952271" lon="9.738636424949073"><ele>216.0</ele><time>2026-05-01T02:17:19.001Z</time></trkpt><trkpt lat="45.65259736602544" lon="9.7387218424214"><ele>216.00000000000003</ele><time>2026-05-01T02:17:20.001Z</time></trkpt><trkpt lat="45.65267151231649" lon="9.738835852563943"><ele>216.00000000000003</ele><time>2026-05-01T02:17:21.001Z</time></trkpt><trkpt lat="45.65272619190987" lon="9.738972799992787"><ele>216.0</ele><time>2026-05-01T02:17:22.001Z</time></trkpt><trkpt lat="45.652767752711284" lon="9.739125853854782"><ele>216.0</ele><time>2026-05-01T02:17:23.001Z</time></trkpt><trkpt lat="45.65279914897924" lon="9.739291171563764"><ele>216.25</ele><time>2026-05-01T02:17:24.001Z</time></trkpt><trkpt lat="45.652826403841864" lon="9.739468355354383"><ele>216.5</ele><time>2026-05-01T02:17:25.001Z</time></trkpt><trkpt lat="45.65285209902347" lon="9.739650298358363"><ele>216.75</ele><time>2026-05-01T02:17:26.001Z</time></trkpt><trkpt lat="45.65287772970184" lon="9.739834026445086"><ele>217.0</ele><time>2026-05-01T02:17:27.001Z</time></trkpt><trkpt lat="45.65290270260907" lon="9.74000542649302"><ele>217.0</ele><time>2026-05-01T02:17:28.001Z</time></trkpt><trkpt lat="45.6529257303479" lon="9.740171415913423"><ele>217.0</ele><time>2026-05-01T02:17:29.001Z</time></trkpt><trkpt lat="45.6529515836423" lon="9.74034644250349"><ele>217.0</ele><time>2026-05-01T02:17:30.001Z</time></trkpt><trkpt lat="45.65297642907854" lon="9.740520558277646"><ele>217.0</ele><time>2026-05-01T02:17:31.001Z</time></trkpt><trkpt lat="45.65300111449644" lon="9.74069780454343"><ele>216.75</ele><time>2026-05-01T02:17:32.001Z</time></trkpt><trkpt lat="45.65302613899097" lon="9.740875587624467"><ele>216.5</ele><time>2026-05-01T02:17:33.001Z</time></trkpt><trkpt lat="45.65305219808511" lon="9.741054156831376"><ele>216.25</ele><time>2026-05-01T02:17:34.001Z</time></trkpt><trkpt lat="45.653077775883574" lon="9.741233406234269"><ele>216.0</ele><time>2026-05-01T02:17:35.001Z</time></trkpt><trkpt lat="45.65310238713558" lon="9.741412800952071"><ele>215.75</ele><time>2026-05-01T02:17:36.001Z</time></trkpt><trkpt lat="45.65312589511348" lon="9.741590411207504"><ele>215.5</ele><time>2026-05-01T02:17:37.001Z</time></trkpt><trkpt lat="45.653146550865316" lon="9.741764349975444"><ele>215.25</ele><time>2026-05-01T02:17:38.001Z</time></trkpt><trkpt lat="45.653165905590114" lon="9.741934680855255"><ele>215.0</ele><time>2026-05-01T02:17:39.001Z</time></trkpt><trkpt lat="45.65318647247769" lon="9.742101202780768"><ele>215.0</ele><time>2026-05-01T02:17:40.001Z</time></trkpt><trkpt lat="45.65320631416114" lon="9.742266534416373"><ele>215.0</ele><time>2026-05-01T02:17:41.001Z</time></trkpt><trkpt lat="45.653224444214544" lon="9.742428680470866"><ele>215.0</ele><time>2026-05-01T02:17:42.001Z</time></trkpt><trkpt lat="45.653240868014294" lon="9.742587491588457"><ele>215.0</ele><time>2026-05-01T02:17:43.001Z</time></trkpt><trkpt lat="45.65325568758145" lon="9.742743932222934"><ele>215.2</ele><time>2026-05-01T02:17:44.001Z</time></trkpt><trkpt lat="45.653248807714725" lon="9.742897104987676"><ele>215.4</ele><time>2026-05-01T02:17:45.001Z</time></trkpt><trkpt lat="45.653246882383826" lon="9.743048682126561"><ele>215.60000000000002</ele><time>2026-05-01T02:17:46.001Z</time></trkpt><trkpt lat="45.65324860088897" lon="9.743204835374739"><ele>215.8</ele><time>2026-05-01T02:17:47.001Z</time></trkpt><trkpt lat="45.65326333291857" lon="9.743349853812868"><ele>216.0</ele><time>2026-05-01T02:17:48.001Z</time></trkpt><trkpt lat="45.65327890619885" lon="9.743471513062012"><ele>216.0</ele><time>2026-05-01T02:17:49.001Z</time></trkpt><trkpt lat="45.65329275872583" lon="9.743579729946429"><ele>216.0</ele><time>2026-05-01T02:17:50.001Z</time></trkpt><trkpt lat="45.65330546321735" lon="9.743675458281302"><ele>216.0</ele><time>2026-05-01T02:17:51.001Z</time></trkpt><trkpt lat="45.653327333939664" lon="9.743825086979761"><ele>216.0</ele><time>2026-05-01T02:17:53.001Z</time></trkpt><trkpt lat="45.65334209977103" lon="9.743933535575342"><ele>216.0</ele><time>2026-05-01T02:17:55.001Z</time></trkpt><trkpt lat="45.65335444722747" lon="9.744034537687574"><ele>216.0</ele><time>2026-05-01T02:17:58.001Z</time></trkpt><trkpt lat="45.65336538106042" lon="9.744123976480989"><ele>216.0</ele><time>2026-05-01T02:18:07.001Z</time></trkpt><trkpt lat="45.65338004124416" lon="9.744245112262368"><ele>216.0</ele><time>2026-05-01T02:18:46.001Z</time></trkpt><trkpt lat="45.65339404912648" lon="9.744363700677816"><ele>216.0</ele><time>2026-05-01T02:18:50.001Z</time></trkpt><trkpt lat="45.65340738818153" lon="9.74447854304484"><ele>216.0</ele><time>2026-05-01T02:19:20Z</time></trkpt><trkpt lat="45.65342454486543" lon="9.744629017795635"><ele>216.0</ele><time>2026-05-01T02:19:22Z</time></trkpt><trkpt lat="45.653437572763515" lon="9.744743280670965"><ele>216.0</ele><time>2026-05-01T02:19:23Z</time></trkpt><trkpt lat="45.65345411408272" lon="9.744885784465758"><ele>215.8</ele><time>2026-05-01T02:19:24Z</time></trkpt><trkpt lat="45.65347222359052" lon="9.745023668028587"><ele>215.60000000000002</ele><time>2026-05-01T02:19:25Z</time></trkpt><trkpt lat="45.65349460584201" lon="9.745181329701559"><ele>215.4</ele><time>2026-05-01T02:19:26Z</time></trkpt><trkpt lat="45.653523689908546" lon="9.745341295898113"><ele>215.2</ele><time>2026-05-01T02:19:27Z</time></trkpt><trkpt lat="45.653572029113484" lon="9.745493501508294"><ele>215.0</ele><time>2026-05-01T02:19:28Z</time></trkpt><trkpt lat="45.653594127538206" lon="9.74565757008859"><ele>214.8</ele><time>2026-05-01T02:19:29Z</time></trkpt><trkpt lat="45.65361766445852" lon="9.745817825842936"><ele>214.6</ele><time>2026-05-01T02:19:30Z</time></trkpt><trkpt lat="45.65364030752683" lon="9.74597241192977"><ele>214.39999999999998</ele><time>2026-05-01T02:19:31Z</time></trkpt><trkpt lat="45.653659994248855" lon="9.746120171534484"><ele>214.2</ele><time>2026-05-01T02:19:32Z</time></trkpt><trkpt lat="45.65367668352788" lon="9.746263380270198"><ele>214.0</ele><time>2026-05-01T02:19:33Z</time></trkpt><trkpt lat="45.653693301873126" lon="9.746401598833907"><ele>215.6</ele><time>2026-05-01T02:19:34Z</time></trkpt><trkpt lat="45.65370958589374" lon="9.746538765040265"><ele>217.2</ele><time>2026-05-01T02:19:35Z</time></trkpt><trkpt lat="45.6537233366753" lon="9.746671139459982"><ele>218.79999999999998</ele><time>2026-05-01T02:19:36Z</time></trkpt><trkpt lat="45.65373851865845" lon="9.746797794475624"><ele>220.39999999999998</ele><time>2026-05-01T02:19:37Z</time></trkpt><trkpt lat="45.65375228112024" lon="9.74692139190592"><ele>222.0</ele><time>2026-05-01T02:19:38Z</time></trkpt><trkpt lat="45.653768003097994" lon="9.747038892170405"><ele>222.0</ele><time>2026-05-01T02:19:39Z</time></trkpt><trkpt lat="45.65378798069687" lon="9.747162599290553"><ele>222.0</ele><time>2026-05-01T02:19:40Z</time></trkpt><trkpt lat="45.65380222552572" lon="9.747276413396605"><ele>222.0</ele><time>2026-05-01T02:19:41Z</time></trkpt><trkpt lat="45.65381537172646" lon="9.74738342774219"><ele>222.0</ele><time>2026-05-01T02:19:42Z</time></trkpt><trkpt lat="45.65383022099449" lon="9.747478082712837"><ele>222.0</ele><time>2026-05-01T02:19:43Z</time></trkpt><trkpt lat="45.65385346020071" lon="9.747637169235713"><ele>222.0</ele><time>2026-05-01T02:19:45.001Z</time></trkpt><trkpt lat="45.653867748384556" lon="9.747756457996832"><ele>221.83333333333334</ele><time>2026-05-01T02:19:47.001Z</time></trkpt><trkpt lat="45.653881607441335" lon="9.74787145253825"><ele>221.66666666666669</ele><time>2026-05-01T02:19:50.001Z</time></trkpt><trkpt lat="45.65389920621821" lon="9.747968431329182"><ele>221.5</ele><time>2026-05-01T02:19:55.001Z</time></trkpt><trkpt lat="45.6539180676968" lon="9.748067295528891"><ele>221.33333333333334</ele><time>2026-05-01T02:19:57.001Z</time></trkpt><trkpt lat="45.653938883387994" lon="9.748195829787576"><ele>221.16666666666669</ele><time>2026-05-01T02:19:59.001Z</time></trkpt><trkpt lat="45.653979240301126" lon="9.7483715885618"><ele>221.0</ele><time>2026-05-01T02:20:01.001Z</time></trkpt><trkpt lat="45.65401151075246" lon="9.748487079364596"><ele>221.0</ele><time>2026-05-01T02:20:02.001Z</time></trkpt><trkpt lat="45.654059558709434" lon="9.748615002212803"><ele>221.00000000000003</ele><time>2026-05-01T02:20:03.001Z</time></trkpt><trkpt lat="45.654109016004476" lon="9.748735547564376"><ele>221.00000000000003</ele><time>2026-05-01T02:20:04.001Z</time></trkpt><trkpt lat="45.654171233908" lon="9.74886709308726"><ele>221.0</ele><time>2026-05-01T02:20:05.001Z</time></trkpt><trkpt lat="45.654240827040475" lon="9.749004796789745"><ele>221.0</ele><time>2026-05-01T02:20:06.001Z</time></trkpt><trkpt lat="45.6543191782607" lon="9.749146987613626"><ele>221.0</ele><time>2026-05-01T02:20:07.001Z</time></trkpt><trkpt lat="45.654400383004564" lon="9.749293989473987"><ele>221.0</ele><time>2026-05-01T02:20:08.001Z</time></trkpt><trkpt lat="45.65448220675696" lon="9.74944428499"><ele>221.0</ele><time>2026-05-01T02:20:09.001Z</time></trkpt><trkpt lat="45.65456376952535" lon="9.749610190379025"><ele>221.0</ele><time>2026-05-01T02:20:10.001Z</time></trkpt><trkpt lat="45.65464297757292" lon="9.749793017120641"><ele>221.66666666666669</ele><time>2026-05-01T02:20:11.001Z</time></trkpt><trkpt lat="45.65471750279735" lon="9.749988342352543"><ele>222.33333333333331</ele><time>2026-05-01T02:20:12.001Z</time></trkpt><trkpt lat="45.654775543672415" lon="9.750209550213853"><ele>223.0</ele><time>2026-05-01T02:20:13.001Z</time></trkpt><trkpt lat="45.65481399420587" lon="9.750448817775112"><ele>223.0</ele><time>2026-05-01T02:20:14.001Z</time></trkpt><trkpt lat="45.65483235905864" lon="9.750707154791769"><ele>223.0</ele><time>2026-05-01T02:20:15.001Z</time></trkpt><trkpt lat="45.65482903760225" lon="9.750959020578403"><ele>223.0</ele><time>2026-05-01T02:20:16.001Z</time></trkpt><trkpt lat="45.65480502644094" lon="9.751218089572873"><ele>222.66666666666666</ele><time>2026-05-01T02:20:17.001Z</time></trkpt><trkpt lat="45.654764891551096" lon="9.751493400099735"><ele>222.33333333333331</ele><time>2026-05-01T02:20:18.001Z</time></trkpt><trkpt lat="45.654716537928245" lon="9.751781736108025"><ele>222.0</ele><time>2026-05-01T02:20:19.001Z</time></trkpt><trkpt lat="45.65467018306278" lon="9.752085216288965"><ele>221.5</ele><time>2026-05-01T02:20:20.001Z</time></trkpt><trkpt lat="45.65462586585089" lon="9.752403356846166"><ele>221.0</ele><time>2026-05-01T02:20:21.001Z</time></trkpt><trkpt lat="45.65457979719253" lon="9.752732222376014"><ele>220.5</ele><time>2026-05-01T02:20:22.001Z</time></trkpt><trkpt lat="45.65453273189166" lon="9.753051249187061"><ele>220.0</ele><time>2026-05-01T02:20:23.001Z</time></trkpt><trkpt lat="45.654481909815026" lon="9.753385361821067"><ele>220.0</ele><time>2026-05-01T02:20:24.001Z</time></trkpt><trkpt lat="45.654425693863864" lon="9.753729041854573"><ele>220.0</ele><time>2026-05-01T02:20:25.001Z</time></trkpt><trkpt lat="45.65436724457712" lon="9.754080394198162"><ele>220.0</ele><time>2026-05-01T02:20:26.001Z</time></trkpt><trkpt lat="45.65430663020802" lon="9.754440778867997"><ele>220.0</ele><time>2026-05-01T02:20:27.001Z</time></trkpt><trkpt lat="45.65424345243" lon="9.75481055483336"><ele>220.0</ele><time>2026-05-01T02:20:28.001Z</time></trkpt><trkpt lat="45.65418134721029" lon="9.755171323268893"><ele>220.0</ele><time>2026-05-01T02:20:29.001Z</time></trkpt><trkpt lat="45.65411841189615" lon="9.75554195807516"><ele>220.0</ele><time>2026-05-01T02:20:30.001Z</time></trkpt><trkpt lat="45.654056200841715" lon="9.755927513647531"><ele>220.0</ele><time>2026-05-01T02:20:31.001Z</time></trkpt><trkpt lat="45.653996791641916" lon="9.75632379678459"><ele>220.0</ele><time>2026-05-01T02:20:32.001Z</time></trkpt><trkpt lat="45.65393786450005" lon="9.756728360680206"><ele>220.0</ele><time>2026-05-01T02:20:33.001Z</time></trkpt><trkpt lat="45.6538777900088" lon="9.757137488727183"><ele>219.5</ele><time>2026-05-01T02:20:34.001Z</time></trkpt><trkpt lat="45.65381394832433" lon="9.757548448660662"><ele>219.0</ele><time>2026-05-01T02:20:35.001Z</time></trkpt><trkpt lat="45.65374490783258" lon="9.757961939539296"><ele>219.5</ele><time>2026-05-01T02:20:36.001Z</time></trkpt><trkpt lat="45.65367560271412" lon="9.75837912453032"><ele>220.0</ele><time>2026-05-01T02:20:37.001Z</time></trkpt><trkpt lat="45.65360629470345" lon="9.758800973859893"><ele>220.0</ele><time>2026-05-01T02:20:38.001Z</time></trkpt><trkpt lat="45.65353648979441" lon="9.759225556491302"><ele>220.0</ele><time>2026-05-01T02:20:39.001Z</time></trkpt><trkpt lat="45.65346626939679" lon="9.75965175876688"><ele>220.5</ele><time>2026-05-01T02:20:40.001Z</time></trkpt><trkpt lat="45.65339689053912" lon="9.760078107888694"><ele>221.0</ele><time>2026-05-01T02:20:41.001Z</time></trkpt><trkpt lat="45.6533259866762" lon="9.760506201769536"><ele>220.0</ele><time>2026-05-01T02:20:42.001Z</time></trkpt><trkpt lat="45.65325300211701" lon="9.760935282228287"><ele>219.0</ele><time>2026-05-01T02:20:43.001Z</time></trkpt><trkpt lat="45.65317942048678" lon="9.761365276601614"><ele>219.0</ele><time>2026-05-01T02:20:44.001Z</time></trkpt><trkpt lat="45.65310531139978" lon="9.761796109270243"><ele>219.0</ele><time>2026-05-01T02:20:45.001Z</time></trkpt><trkpt lat="45.653029646775366" lon="9.762228457797525"><ele>219.0</ele><time>2026-05-01T02:20:46.001Z</time></trkpt><trkpt lat="45.65295627139092" lon="9.762660015471994"><ele>219.0</ele><time>2026-05-01T02:20:47.001Z</time></trkpt><trkpt lat="45.65288460634269" lon="9.763091319821326"><ele>218.5</ele><time>2026-05-01T02:20:48.001Z</time></trkpt><trkpt lat="45.652810892319614" lon="9.763523181480814"><ele>218.0</ele><time>2026-05-01T02:20:49.001Z</time></trkpt><trkpt lat="45.65273791321692" lon="9.763955211626172"><ele>217.0</ele><time>2026-05-01T02:20:50.001Z</time></trkpt><trkpt lat="45.65266651861957" lon="9.764386802487905"><ele>216.0</ele><time>2026-05-01T02:20:51.001Z</time></trkpt><trkpt lat="45.65259433412841" lon="9.764818131927829"><ele>216.5</ele><time>2026-05-01T02:20:52.001Z</time></trkpt><trkpt lat="45.65252090468048" lon="9.765247319578313"><ele>217.0</ele><time>2026-05-01T02:20:53.001Z</time></trkpt><trkpt lat="45.65244790406601" lon="9.765673945439298"><ele>216.0</ele><time>2026-05-01T02:20:54.001Z</time></trkpt><trkpt lat="45.652376193856945" lon="9.7660996803649"><ele>215.0</ele><time>2026-05-01T02:20:55.001Z</time></trkpt><trkpt lat="45.65230472876884" lon="9.766523576597326"><ele>215.0</ele><time>2026-05-01T02:20:56.001Z</time></trkpt><trkpt lat="45.65223207480001" lon="9.766946246310717"><ele>215.0</ele><time>2026-05-01T02:20:57.001Z</time></trkpt><trkpt lat="45.65215866372617" lon="9.767368173385394"><ele>215.0</ele><time>2026-05-01T02:20:58.001Z</time></trkpt><trkpt lat="45.65208464363791" lon="9.76778902406666"><ele>215.0</ele><time>2026-05-01T02:20:59.001Z</time></trkpt><trkpt lat="45.65200646285294" lon="9.768209510136476"><ele>213.5</ele><time>2026-05-01T02:21:00.001Z</time></trkpt><trkpt lat="45.651927296003215" lon="9.768631045394166"><ele>212.0</ele><time>2026-05-01T02:21:01.001Z</time></trkpt><trkpt lat="45.651848566996875" lon="9.769051641041223"><ele>213.0</ele><time>2026-05-01T02:21:02.001Z</time></trkpt><trkpt lat="45.651768653948736" lon="9.769473088202759"><ele>214.0</ele><time>2026-05-01T02:21:03.001Z</time></trkpt><trkpt lat="45.651686313291755" lon="9.769893192762952"><ele>213.5</ele><time>2026-05-01T02:21:04.001Z</time></trkpt><trkpt lat="45.65160225246942" lon="9.77031186576393"><ele>213.0</ele><time>2026-05-01T02:21:05.001Z</time></trkpt><trkpt lat="45.651509904406765" lon="9.770728819566974"><ele>213.0</ele><time>2026-05-01T02:21:06.001Z</time></trkpt><trkpt lat="45.651411687286945" lon="9.771141864379857"><ele>213.0</ele><time>2026-05-01T02:21:07.001Z</time></trkpt><trkpt lat="45.651313336921866" lon="9.771555770270016"><ele>213.0</ele><time>2026-05-01T02:21:08.001Z</time></trkpt><trkpt lat="45.651221274484584" lon="9.771971580472224"><ele>213.0</ele><time>2026-05-01T02:21:09.001Z</time></trkpt><trkpt lat="45.65113290818288" lon="9.7723915229518"><ele>212.5</ele><time>2026-05-01T02:21:10.001Z</time></trkpt><trkpt lat="45.65104422732706" lon="9.772811052258334"><ele>212.0</ele><time>2026-05-01T02:21:11.001Z</time></trkpt><trkpt lat="45.65095313262104" lon="9.77323223517147"><ele>211.5</ele><time>2026-05-01T02:21:12.001Z</time></trkpt><trkpt lat="45.650861157274456" lon="9.773652903284242"><ele>211.0</ele><time>2026-05-01T02:21:13.001Z</time></trkpt><trkpt lat="45.65076929916862" lon="9.774073035687747"><ele>211.5</ele><time>2026-05-01T02:21:14.001Z</time></trkpt><trkpt lat="45.65067607859814" lon="9.774493217727459"><ele>212.0</ele><time>2026-05-01T02:21:15.001Z</time></trkpt><trkpt lat="45.65058398037751" lon="9.774913154402885"><ele>211.5</ele><time>2026-05-01T02:21:16.001Z</time></trkpt><trkpt lat="45.650492543599846" lon="9.775334491972796"><ele>211.0</ele><time>2026-05-01T02:21:17.001Z</time></trkpt><trkpt lat="45.65040024693391" lon="9.775754196984332"><ele>211.0</ele><time>2026-05-01T02:21:18.001Z</time></trkpt><trkpt lat="45.650308531404654" lon="9.776172975210875"><ele>211.0</ele><time>2026-05-01T02:21:19.001Z</time></trkpt><trkpt lat="45.65021684296546" lon="9.776591590230177"><ele>211.0</ele><time>2026-05-01T02:21:20.001Z</time></trkpt><trkpt lat="45.65012594440814" lon="9.777009781433472"><ele>211.0</ele><time>2026-05-01T02:21:21.001Z</time></trkpt><trkpt lat="45.650035495325085" lon="9.77742643798983"><ele>209.5</ele><time>2026-05-01T02:21:22.001Z</time></trkpt><trkpt lat="45.64994379220279" lon="9.777840394938837"><ele>208.0</ele><time>2026-05-01T02:21:23Z</time></trkpt><trkpt lat="45.64985036055781" lon="9.778254113007257"><ele>208.5</ele><time>2026-05-01T02:21:24Z</time></trkpt><trkpt lat="45.649759642876546" lon="9.778667750456421"><ele>209.0</ele><time>2026-05-01T02:21:25Z</time></trkpt><trkpt lat="45.649668579148475" lon="9.77908229518353"><ele>209.0</ele><time>2026-05-01T02:21:26Z</time></trkpt><trkpt lat="45.649578432593735" lon="9.779495889340602"><ele>209.0</ele><time>2026-05-01T02:21:27Z</time></trkpt><trkpt lat="45.64948810181643" lon="9.77990898789425"><ele>207.0</ele><time>2026-05-01T02:21:28Z</time></trkpt><trkpt lat="45.64939892505867" lon="9.780321560470192"><ele>205.0</ele><time>2026-05-01T02:21:29Z</time></trkpt><trkpt lat="45.649309462424405" lon="9.780732834159865"><ele>206.5</ele><time>2026-05-01T02:21:30Z</time></trkpt><trkpt lat="45.64921931308953" lon="9.781142483624174"><ele>208.0</ele><time>2026-05-01T02:21:31Z</time></trkpt><trkpt lat="45.649129005460274" lon="9.78155444543106"><ele>209.0</ele><time>2026-05-01T02:21:32Z</time></trkpt><trkpt lat="45.649039318019895" lon="9.781966353294836"><ele>210.0</ele><time>2026-05-01T02:21:33Z</time></trkpt><trkpt lat="45.64894941913186" lon="9.782380236645832"><ele>210.0</ele><time>2026-05-01T02:21:34Z</time></trkpt><trkpt lat="45.64885844402163" lon="9.782794334189008"><ele>210.0</ele><time>2026-05-01T02:21:35Z</time></trkpt><trkpt lat="45.64876652478313" lon="9.783207937992874"><ele>209.5</ele><time>2026-05-01T02:21:36Z</time></trkpt><trkpt lat="45.64867928701019" lon="9.783610481548834"><ele>209.0</ele><time>2026-05-01T02:21:37Z</time></trkpt><trkpt lat="45.64858836504797" lon="9.784013043016955"><ele>208.0</ele><time>2026-05-01T02:21:38Z</time></trkpt><trkpt lat="45.648498575198595" lon="9.784423040497005"><ele>207.0</ele><time>2026-05-01T02:21:39Z</time></trkpt><trkpt lat="45.648406461594845" lon="9.784837747980676"><ele>206.5</ele><time>2026-05-01T02:21:40Z</time></trkpt><trkpt lat="45.648314841135274" lon="9.78525390781039"><ele>206.0</ele><time>2026-05-01T02:21:41Z</time></trkpt><trkpt lat="45.64822525324722" lon="9.78566988938158"><ele>206.5</ele><time>2026-05-01T02:21:42Z</time></trkpt><trkpt lat="45.648135245357295" lon="9.786086981885065"><ele>207.0</ele><time>2026-05-01T02:21:43Z</time></trkpt><trkpt lat="45.648045976239956" lon="9.78650345443352"><ele>206.5</ele><time>2026-05-01T02:21:44Z</time></trkpt><trkpt lat="45.64795564285633" lon="9.786919042371194"><ele>206.0</ele><time>2026-05-01T02:21:45Z</time></trkpt><trkpt lat="45.64786879110481" lon="9.787334344877312"><ele>206.0</ele><time>2026-05-01T02:21:46Z</time></trkpt><trkpt lat="45.6477854955034" lon="9.787749442030165"><ele>206.0</ele><time>2026-05-01T02:21:47Z</time></trkpt><trkpt lat="45.647702654595186" lon="9.788166356977706"><ele>206.0</ele><time>2026-05-01T02:21:48Z</time></trkpt><trkpt lat="45.647619066217686" lon="9.788583502181693"><ele>206.0</ele><time>2026-05-01T02:21:49Z</time></trkpt><trkpt lat="45.64753360973207" lon="9.7889979768548"><ele>205.5</ele><time>2026-05-01T02:21:50Z</time></trkpt><trkpt lat="45.64744438512154" lon="9.78940942774286"><ele>205.0</ele><time>2026-05-01T02:21:51Z</time></trkpt><trkpt lat="45.64735536958817" lon="9.789819038377455"><ele>205.5</ele><time>2026-05-01T02:21:52Z</time></trkpt><trkpt lat="45.64726603484269" lon="9.790227085681645"><ele>206.0</ele><time>2026-05-01T02:21:53Z</time></trkpt><trkpt lat="45.64717637582641" lon="9.790634502209695"><ele>206.5</ele><time>2026-05-01T02:21:54Z</time></trkpt><trkpt lat="45.64708673853796" lon="9.791040518446652"><ele>207.0</ele><time>2026-05-01T02:21:55Z</time></trkpt><trkpt lat="45.64699716868167" lon="9.79144794999419"><ele>207.0</ele><time>2026-05-01T02:21:56Z</time></trkpt><trkpt lat="45.64690781791414" lon="9.79185636290416"><ele>207.0</ele><time>2026-05-01T02:21:57Z</time></trkpt><trkpt lat="45.64681951513139" lon="9.792265682065633"><ele>208.0</ele><time>2026-05-01T02:21:58Z</time></trkpt><trkpt lat="45.64672969726058" lon="9.792675514123204"><ele>209.0</ele><time>2026-05-01T02:21:59Z</time></trkpt><trkpt lat="45.64663976314977" lon="9.79308394755523"><ele>209.0</ele><time>2026-05-01T02:22:00Z</time></trkpt><trkpt lat="45.64655009014762" lon="9.793492152067511"><ele>209.0</ele><time>2026-05-01T02:22:01Z</time></trkpt><trkpt lat="45.64646107578343" lon="9.793898957082167"><ele>208.5</ele><time>2026-05-01T02:22:02.001Z</time></trkpt><trkpt lat="45.646372330245796" lon="9.794305405719781"><ele>208.0</ele><time>2026-05-01T02:22:03.001Z</time></trkpt><trkpt lat="45.64628287506049" lon="9.794713213255639"><ele>208.0</ele><time>2026-05-01T02:22:04.001Z</time></trkpt><trkpt lat="45.64619278422053" lon="9.795123684485963"><ele>208.0</ele><time>2026-05-01T02:22:05.001Z</time></trkpt><trkpt lat="45.646103336006945" lon="9.7955351750591"><ele>207.0</ele><time>2026-05-01T02:22:06.001Z</time></trkpt><trkpt lat="45.64601315537541" lon="9.795946361406902"><ele>206.0</ele><time>2026-05-01T02:22:07.001Z</time></trkpt><trkpt lat="45.64592259012169" lon="9.796356034488664"><ele>206.0</ele><time>2026-05-01T02:22:08.001Z</time></trkpt><trkpt lat="45.64583388133223" lon="9.796767029510505"><ele>206.0</ele><time>2026-05-01T02:22:09.001Z</time></trkpt><trkpt lat="45.645744618677014" lon="9.797177906227317"><ele>206.0</ele><time>2026-05-01T02:22:10.001Z</time></trkpt><trkpt lat="45.64565646199257" lon="9.797587526599472"><ele>206.0</ele><time>2026-05-01T02:22:11.001Z</time></trkpt><trkpt lat="45.64556938158808" lon="9.79799564049271"><ele>206.5</ele><time>2026-05-01T02:22:12.001Z</time></trkpt><trkpt lat="45.64548142385891" lon="9.798405434089037"><ele>207.0</ele><time>2026-05-01T02:22:13.001Z</time></trkpt><trkpt lat="45.64539454892043" lon="9.798814884016645"><ele>207.0</ele><time>2026-05-01T02:22:14.001Z</time></trkpt><trkpt lat="45.645305830450525" lon="9.799220499741965"><ele>207.0</ele><time>2026-05-01T02:22:15.001Z</time></trkpt><trkpt lat="45.645216855613825" lon="9.799625012658032"><ele>206.5</ele><time>2026-05-01T02:22:16.001Z</time></trkpt><trkpt lat="45.645129108778214" lon="9.8000292923981"><ele>206.0</ele><time>2026-05-01T02:22:17.001Z</time></trkpt><trkpt lat="45.64504116040808" lon="9.800432899258032"><ele>206.0</ele><time>2026-05-01T02:22:18.001Z</time></trkpt><trkpt lat="45.64495312423178" lon="9.800835711954287"><ele>206.0</ele><time>2026-05-01T02:22:19.001Z</time></trkpt><trkpt lat="45.644865880844016" lon="9.80123847120023"><ele>206.0</ele><time>2026-05-01T02:22:20.001Z</time></trkpt><trkpt lat="45.644778610639484" lon="9.801640135132992"><ele>206.0</ele><time>2026-05-01T02:22:21.001Z</time></trkpt><trkpt lat="45.64469097602672" lon="9.802041994761023"><ele>206.0</ele><time>2026-05-01T02:22:22.001Z</time></trkpt><trkpt lat="45.644603580025205" lon="9.802445226838934"><ele>206.0</ele><time>2026-05-01T02:22:23.001Z</time></trkpt><trkpt lat="45.64451629556552" lon="9.802850039294459"><ele>205.0</ele><time>2026-05-01T02:22:24.001Z</time></trkpt><trkpt lat="45.64442584617485" lon="9.80325501772469"><ele>204.0</ele><time>2026-05-01T02:22:25.001Z</time></trkpt><trkpt lat="45.64433275030055" lon="9.803659975929344"><ele>204.0</ele><time>2026-05-01T02:22:26.001Z</time></trkpt><trkpt lat="45.64424089463858" lon="9.804067957335349"><ele>204.0</ele><time>2026-05-01T02:22:27.001Z</time></trkpt><trkpt lat="45.64415324765396" lon="9.80448019657711"><ele>204.0</ele><time>2026-05-01T02:22:28.001Z</time></trkpt><trkpt lat="45.64406269548218" lon="9.80489278762233"><ele>204.0</ele><time>2026-05-01T02:22:29.001Z</time></trkpt><trkpt lat="45.64397131666868" lon="9.805306047115153"><ele>204.0</ele><time>2026-05-01T02:22:30.001Z</time></trkpt><trkpt lat="45.643878355407246" lon="9.805719157043283"><ele>204.0</ele><time>2026-05-01T02:22:31.001Z</time></trkpt><trkpt lat="45.64378698894888" lon="9.806132417381875"><ele>205.5</ele><time>2026-05-01T02:22:32.001Z</time></trkpt><trkpt lat="45.643697784338215" lon="9.80654654331611"><ele>207.0</ele><time>2026-05-01T02:22:33.001Z</time></trkpt><trkpt lat="45.64360871344564" lon="9.806960241765506"><ele>207.0</ele><time>2026-05-01T02:22:34.001Z</time></trkpt><trkpt lat="45.64352197596457" lon="9.807374575125161"><ele>207.0</ele><time>2026-05-01T02:22:35.001Z</time></trkpt><trkpt lat="45.64343273618397" lon="9.80778693835816"><ele>207.0</ele><time>2026-05-01T02:22:36.001Z</time></trkpt><trkpt lat="45.64334311438812" lon="9.808197566400318"><ele>207.0</ele><time>2026-05-01T02:22:37.001Z</time></trkpt><trkpt lat="45.643253867574074" lon="9.808609170855492"><ele>207.0</ele><time>2026-05-01T02:22:38.001Z</time></trkpt><trkpt lat="45.64316373488884" lon="9.809019149365866"><ele>207.0</ele><time>2026-05-01T02:22:39.001Z</time></trkpt><trkpt lat="45.64307335756854" lon="9.809424842695128"><ele>206.5</ele><time>2026-05-01T02:22:40.001Z</time></trkpt><trkpt lat="45.642986130041464" lon="9.809833544231429"><ele>206.0</ele><time>2026-05-01T02:22:41.001Z</time></trkpt><trkpt lat="45.642897861268374" lon="9.810242603301035"><ele>205.5</ele><time>2026-05-01T02:22:42.001Z</time></trkpt><trkpt lat="45.64280937021365" lon="9.810652681736974"><ele>205.0</ele><time>2026-05-01T02:22:43.001Z</time></trkpt><trkpt lat="45.64271995411974" lon="9.811061995037536"><ele>203.5</ele><time>2026-05-01T02:22:44.001Z</time></trkpt><trkpt lat="45.64262892789438" lon="9.811471092479259"><ele>202.0</ele><time>2026-05-01T02:22:45.001Z</time></trkpt><trkpt lat="45.642536891835924" lon="9.811879660795377"><ele>202.0</ele><time>2026-05-01T02:22:46.001Z</time></trkpt><trkpt lat="45.64244512000881" lon="9.812288960646248"><ele>202.0</ele><time>2026-05-01T02:22:47.001Z</time></trkpt><trkpt lat="45.64235358601025" lon="9.812700091790928"><ele>202.0</ele><time>2026-05-01T02:22:48.001Z</time></trkpt><trkpt lat="45.64226285303733" lon="9.813112194382777"><ele>202.0</ele><time>2026-05-01T02:22:49.001Z</time></trkpt><trkpt lat="45.64217261493655" lon="9.81352559203674"><ele>202.0</ele><time>2026-05-01T02:22:50.001Z</time></trkpt><trkpt lat="45.6420824859574" lon="9.813939913872337"><ele>202.0</ele><time>2026-05-01T02:22:51.001Z</time></trkpt><trkpt lat="45.64198988094062" lon="9.814355361902338"><ele>203.0</ele><time>2026-05-01T02:22:52.001Z</time></trkpt><trkpt lat="45.641897793585336" lon="9.814771379773996"><ele>204.0</ele><time>2026-05-01T02:22:53.001Z</time></trkpt><trkpt lat="45.64180632154526" lon="9.815188274326967"><ele>204.0</ele><time>2026-05-01T02:22:54.001Z</time></trkpt><trkpt lat="45.641714553997474" lon="9.81560498416297"><ele>204.0</ele><time>2026-05-01T02:22:55.001Z</time></trkpt><trkpt lat="45.64162397676674" lon="9.816019846553074"><ele>204.0</ele><time>2026-05-01T02:22:56.001Z</time></trkpt><trkpt lat="45.641535111112056" lon="9.816427218769151"><ele>204.0</ele><time>2026-05-01T02:22:57.001Z</time></trkpt><trkpt lat="45.64144875532812" lon="9.816818997488346"><ele>204.0</ele><time>2026-05-01T02:22:58.001Z</time></trkpt><trkpt lat="45.64135993514753" lon="9.817224737838758"><ele>204.0</ele><time>2026-05-01T02:22:59.001Z</time></trkpt><trkpt lat="45.641268727073886" lon="9.817636959826123"><ele>203.5</ele><time>2026-05-01T02:23:00.001Z</time></trkpt><trkpt lat="45.64117773828825" lon="9.818053396051555"><ele>203.0</ele><time>2026-05-01T02:23:01.001Z</time></trkpt><trkpt lat="45.641086209502994" lon="9.818472000288955"><ele>202.5</ele><time>2026-05-01T02:23:02.001Z</time></trkpt><trkpt lat="45.64099413961868" lon="9.818889738733219"><ele>202.0</ele><time>2026-05-01T02:23:03.001Z</time></trkpt><trkpt lat="45.64090190497281" lon="9.819304970366597"><ele>202.0</ele><time>2026-05-01T02:23:04.001Z</time></trkpt><trkpt lat="45.64081052262738" lon="9.819720252503858"><ele>202.0</ele><time>2026-05-01T02:23:05.001Z</time></trkpt><trkpt lat="45.64072010745925" lon="9.820133235503034"><ele>202.0</ele><time>2026-05-01T02:23:06.001Z</time></trkpt><trkpt lat="45.64063055727228" lon="9.82054651632579"><ele>202.0</ele><time>2026-05-01T02:23:07.001Z</time></trkpt><trkpt lat="45.64053993224842" lon="9.820960862062472"><ele>202.5</ele><time>2026-05-01T02:23:08.001Z</time></trkpt><trkpt lat="45.64044730171547" lon="9.821375096765825"><ele>203.0</ele><time>2026-05-01T02:23:09.001Z</time></trkpt><trkpt lat="45.64035510781091" lon="9.821790224610668"><ele>203.0</ele><time>2026-05-01T02:23:10.001Z</time></trkpt><trkpt lat="45.64026316282809" lon="9.822207155742932"><ele>203.0</ele><time>2026-05-01T02:23:11.001Z</time></trkpt><trkpt lat="45.64017140873934" lon="9.822625623084875"><ele>202.0</ele><time>2026-05-01T02:23:12.001Z</time></trkpt><trkpt lat="45.64007952314784" lon="9.823046041701712"><ele>201.0</ele><time>2026-05-01T02:23:13.001Z</time></trkpt><trkpt lat="45.63998835926794" lon="9.823467335605335"><ele>201.5</ele><time>2026-05-01T02:23:14.001Z</time></trkpt><trkpt lat="45.63989752249982" lon="9.823888468917518"><ele>202.0</ele><time>2026-05-01T02:23:15.001Z</time></trkpt><trkpt lat="45.639806919055154" lon="9.824310636407082"><ele>203.0</ele><time>2026-05-01T02:23:16.001Z</time></trkpt><trkpt lat="45.639714440071074" lon="9.824728240075208"><ele>204.0</ele><time>2026-05-01T02:23:17.001Z</time></trkpt><trkpt lat="45.639621402315065" lon="9.825142193973637"><ele>203.5</ele><time>2026-05-01T02:23:18.001Z</time></trkpt><trkpt lat="45.63952887607985" lon="9.825554385576414"><ele>203.0</ele><time>2026-05-01T02:23:19.001Z</time></trkpt><trkpt lat="45.63943686354761" lon="9.825963809635574"><ele>202.5</ele><time>2026-05-01T02:23:20.001Z</time></trkpt><trkpt lat="45.63934726223937" lon="9.82637391578303"><ele>202.0</ele><time>2026-05-01T02:23:21.001Z</time></trkpt><trkpt lat="45.639259001997665" lon="9.826784257425027"><ele>203.0</ele><time>2026-05-01T02:23:22.001Z</time></trkpt><trkpt lat="45.63917097094932" lon="9.827194968705356"><ele>204.0</ele><time>2026-05-01T02:23:23.001Z</time></trkpt><trkpt lat="45.63908367582344" lon="9.827605280235877"><ele>204.0</ele><time>2026-05-01T02:23:24.001Z</time></trkpt><trkpt lat="45.63899555205617" lon="9.828015717544359"><ele>204.0</ele><time>2026-05-01T02:23:25.001Z</time></trkpt><trkpt lat="45.63890725802347" lon="9.828426197981415"><ele>204.0</ele><time>2026-05-01T02:23:26.001Z</time></trkpt><trkpt lat="45.638818995881635" lon="9.82883585010307"><ele>204.0</ele><time>2026-05-01T02:23:27.001Z</time></trkpt><trkpt lat="45.638729347870836" lon="9.829244134836475"><ele>203.0</ele><time>2026-05-01T02:23:28.001Z</time></trkpt><trkpt lat="45.63863917553536" lon="9.829651842609"><ele>202.0</ele><time>2026-05-01T02:23:29Z</time></trkpt><trkpt lat="45.63854993219689" lon="9.830058972964178"><ele>201.0</ele><time>2026-05-01T02:23:30Z</time></trkpt><trkpt lat="45.63846153262975" lon="9.830465957595733"><ele>200.0</ele><time>2026-05-01T02:23:31Z</time></trkpt><trkpt lat="45.63837210014076" lon="9.830871764317958"><ele>199.5</ele><time>2026-05-01T02:23:32Z</time></trkpt><trkpt lat="45.638282615500636" lon="9.831275604144745"><ele>199.0</ele><time>2026-05-01T02:23:33Z</time></trkpt><trkpt lat="45.63819395915382" lon="9.831681507517457"><ele>199.5</ele><time>2026-05-01T02:23:34Z</time></trkpt><trkpt lat="45.638105184806214" lon="9.832089952791966"><ele>200.0</ele><time>2026-05-01T02:23:35Z</time></trkpt><trkpt lat="45.63801581719491" lon="9.832498096005716"><ele>200.5</ele><time>2026-05-01T02:23:36Z</time></trkpt><trkpt lat="45.63792032370932" lon="9.832903204325229"><ele>201.0</ele><time>2026-05-01T02:23:37Z</time></trkpt><trkpt lat="45.63781860618004" lon="9.8333057847959"><ele>199.5</ele><time>2026-05-01T02:23:38Z</time></trkpt><trkpt lat="45.63771710784522" lon="9.833708892366966"><ele>198.0</ele><time>2026-05-01T02:23:39Z</time></trkpt><trkpt lat="45.63762108451631" lon="9.83411433685295"><ele>198.0</ele><time>2026-05-01T02:23:40Z</time></trkpt><trkpt lat="45.63753207203263" lon="9.834523502740247"><ele>198.0</ele><time>2026-05-01T02:23:41Z</time></trkpt><trkpt lat="45.6374430108734" lon="9.834933509185397"><ele>199.5</ele><time>2026-05-01T02:23:42Z</time></trkpt><trkpt lat="45.63735314007874" lon="9.835340711119132"><ele>201.0</ele><time>2026-05-01T02:23:43Z</time></trkpt><trkpt lat="45.63726394075168" lon="9.835746171200103"><ele>200.5</ele><time>2026-05-01T02:23:44Z</time></trkpt><trkpt lat="45.63717399988204" lon="9.836150806095084"><ele>200.0</ele><time>2026-05-01T02:23:45Z</time></trkpt><trkpt lat="45.637083131864316" lon="9.836559007767828"><ele>199.5</ele><time>2026-05-01T02:23:46Z</time></trkpt><trkpt lat="45.636992885583076" lon="9.836968257105351"><ele>199.0</ele><time>2026-05-01T02:23:47Z</time></trkpt><trkpt lat="45.63690313619298" lon="9.83738040785902"><ele>198.0</ele><time>2026-05-01T02:23:48Z</time></trkpt><trkpt lat="45.63681324099409" lon="9.83779217023632"><ele>197.0</ele><time>2026-05-01T02:23:49Z</time></trkpt><trkpt lat="45.63672251752907" lon="9.83820392455192"><ele>197.5</ele><time>2026-05-01T02:23:50Z</time></trkpt><trkpt lat="45.63663185872072" lon="9.838615499651251"><ele>198.0</ele><time>2026-05-01T02:23:51Z</time></trkpt><trkpt lat="45.636540690186635" lon="9.839026586260891"><ele>198.5</ele><time>2026-05-01T02:23:52Z</time></trkpt><trkpt lat="45.636449890110306" lon="9.839438262096378"><ele>199.0</ele><time>2026-05-01T02:23:53Z</time></trkpt><trkpt lat="45.63636145662844" lon="9.839847578510504"><ele>199.5</ele><time>2026-05-01T02:23:54Z</time></trkpt><trkpt lat="45.63627419183905" lon="9.840252853600134"><ele>200.0</ele><time>2026-05-01T02:23:55Z</time></trkpt><trkpt lat="45.63618610495092" lon="9.84065813911514"><ele>199.0</ele><time>2026-05-01T02:23:56Z</time></trkpt><trkpt lat="45.63609705234734" lon="9.84106410564864"><ele>198.0</ele><time>2026-05-01T02:23:57Z</time></trkpt><trkpt lat="45.636007015741264" lon="9.841472233626858"><ele>197.0</ele><time>2026-05-01T02:23:58Z</time></trkpt><trkpt lat="45.63591747276808" lon="9.841880086510782"><ele>196.0</ele><time>2026-05-01T02:23:59Z</time></trkpt><trkpt lat="45.63582694241467" lon="9.842290100608096"><ele>195.5</ele><time>2026-05-01T02:24:00Z</time></trkpt><trkpt lat="45.63573184528098" lon="9.842711899709462"><ele>195.0</ele><time>2026-05-01T02:24:01Z</time></trkpt><trkpt lat="45.63563527041358" lon="9.843142928825037"><ele>196.0</ele><time>2026-05-01T02:24:02Z</time></trkpt><trkpt lat="45.63554188258676" lon="9.84357449926417"><ele>197.0</ele><time>2026-05-01T02:24:03Z</time></trkpt><trkpt lat="45.635449535956965" lon="9.844003046883149"><ele>197.0</ele><time>2026-05-01T02:24:04Z</time></trkpt><trkpt lat="45.63535584967631" lon="9.844429910448435"><ele>197.0</ele><time>2026-05-01T02:24:05Z</time></trkpt><trkpt lat="45.635262237053986" lon="9.844855685598533"><ele>197.5</ele><time>2026-05-01T02:24:06Z</time></trkpt><trkpt lat="45.6351694547085" lon="9.845279027724745"><ele>198.0</ele><time>2026-05-01T02:24:07Z</time></trkpt><trkpt lat="45.635077348641964" lon="9.845699878150256"><ele>197.5</ele><time>2026-05-01T02:24:08Z</time></trkpt><trkpt lat="45.634985384803244" lon="9.846115585691217"><ele>197.0</ele><time>2026-05-01T02:24:09Z</time></trkpt><trkpt lat="45.63489327783313" lon="9.846526437120438"><ele>196.5</ele><time>2026-05-01T02:24:10Z</time></trkpt><trkpt lat="45.634801025756865" lon="9.846938828739265"><ele>196.0</ele><time>2026-05-01T02:24:11Z</time></trkpt><trkpt lat="45.63471041315971" lon="9.847351459570008"><ele>195.0</ele><time>2026-05-01T02:24:12Z</time></trkpt><trkpt lat="45.63461868194437" lon="9.847763669795524"><ele>194.0</ele><time>2026-05-01T02:24:13Z</time></trkpt><trkpt lat="45.634531062360466" lon="9.848173479191123"><ele>194.0</ele><time>2026-05-01T02:24:14Z</time></trkpt><trkpt lat="45.634444481101546" lon="9.848584535342848"><ele>194.0</ele><time>2026-05-01T02:24:15Z</time></trkpt><trkpt lat="45.63435645671545" lon="9.848997180289842"><ele>194.5</ele><time>2026-05-01T02:24:16Z</time></trkpt><trkpt lat="45.63426728655551" lon="9.849411623467786"><ele>195.0</ele><time>2026-05-01T02:24:17Z</time></trkpt><trkpt lat="45.634176101285696" lon="9.849826574282257"><ele>195.0</ele><time>2026-05-01T02:24:18.001Z</time></trkpt><trkpt lat="45.63408324128984" lon="9.850240340466206"><ele>195.0</ele><time>2026-05-01T02:24:19.001Z</time></trkpt><trkpt lat="45.63399165007979" lon="9.85065409849021"><ele>194.0</ele><time>2026-05-01T02:24:20.001Z</time></trkpt><trkpt lat="45.6339007956444" lon="9.85106739328817"><ele>193.0</ele><time>2026-05-01T02:24:21.001Z</time></trkpt><trkpt lat="45.63381062333165" lon="9.85148114673356"><ele>193.0</ele><time>2026-05-01T02:24:22.001Z</time></trkpt><trkpt lat="45.63372087644205" lon="9.851896059953294"><ele>193.0</ele><time>2026-05-01T02:24:23.001Z</time></trkpt><trkpt lat="45.6336304260996" lon="9.852311130193593"><ele>192.5</ele><time>2026-05-01T02:24:24.001Z</time></trkpt><trkpt lat="45.633539633565135" lon="9.852725906350075"><ele>192.0</ele><time>2026-05-01T02:24:25.001Z</time></trkpt><trkpt lat="45.63344906421667" lon="9.853141290516968"><ele>193.5</ele><time>2026-05-01T02:24:26.001Z</time></trkpt><trkpt lat="45.63335986920376" lon="9.853556472462074"><ele>195.0</ele><time>2026-05-01T02:24:27.001Z</time></trkpt><trkpt lat="45.63324535742399" lon="9.853954592378932"><ele>195.5</ele><time>2026-05-01T02:24:28.001Z</time></trkpt><trkpt lat="45.633177411029145" lon="9.854384685161076"><ele>196.0</ele><time>2026-05-01T02:24:29.001Z</time></trkpt><trkpt lat="45.633086106589055" lon="9.854798389030815"><ele>196.5</ele><time>2026-05-01T02:24:30.001Z</time></trkpt><trkpt lat="45.6329951595379" lon="9.855213415015427"><ele>197.0</ele><time>2026-05-01T02:24:31.001Z</time></trkpt><trkpt lat="45.63290578828836" lon="9.855629101933703"><ele>196.0</ele><time>2026-05-01T02:24:32.001Z</time></trkpt><trkpt lat="45.63281510604768" lon="9.856043724189817"><ele>195.0</ele><time>2026-05-01T02:24:33.001Z</time></trkpt><trkpt lat="45.632726229488284" lon="9.85645825778206"><ele>194.5</ele><time>2026-05-01T02:24:34.001Z</time></trkpt><trkpt lat="45.63264187444686" lon="9.856873992120262"><ele>194.0</ele><time>2026-05-01T02:24:35.001Z</time></trkpt><trkpt lat="45.63255756242004" lon="9.85728832636586"><ele>195.5</ele><time>2026-05-01T02:24:36.001Z</time></trkpt><trkpt lat="45.63247191552926" lon="9.857701972576981"><ele>197.0</ele><time>2026-05-01T02:24:37.001Z</time></trkpt><trkpt lat="45.63238499108636" lon="9.858117904774161"><ele>197.0</ele><time>2026-05-01T02:24:38.001Z</time></trkpt><trkpt lat="45.63229786207664" lon="9.858534515652664"><ele>197.0</ele><time>2026-05-01T02:24:39.001Z</time></trkpt><trkpt lat="45.63221016878093" lon="9.858949866231507"><ele>197.5</ele><time>2026-05-01T02:24:40.001Z</time></trkpt><trkpt lat="45.63212119242395" lon="9.859364826157806"><ele>198.0</ele><time>2026-05-01T02:24:41.001Z</time></trkpt><trkpt lat="45.63203101966137" lon="9.859779209634304"><ele>197.5</ele><time>2026-05-01T02:24:42.001Z</time></trkpt><trkpt lat="45.63193888895541" lon="9.860193290898795"><ele>197.0</ele><time>2026-05-01T02:24:43.001Z</time></trkpt><trkpt lat="45.6318468232803" lon="9.860609964452392"><ele>197.5</ele><time>2026-05-01T02:24:44.001Z</time></trkpt><trkpt lat="45.631752533631676" lon="9.861025975930534"><ele>198.0</ele><time>2026-05-01T02:24:45.001Z</time></trkpt><trkpt lat="45.631656127527805" lon="9.861440999743328"><ele>198.0</ele><time>2026-05-01T02:24:46.001Z</time></trkpt><trkpt lat="45.631561688946825" lon="9.861858950305562"><ele>198.0</ele><time>2026-05-01T02:24:47.001Z</time></trkpt><trkpt lat="45.6314675564704" lon="9.86227663157309"><ele>199.0</ele><time>2026-05-01T02:24:48.001Z</time></trkpt><trkpt lat="45.63137214091273" lon="9.86269312584136"><ele>200.0</ele><time>2026-05-01T02:24:49.001Z</time></trkpt><trkpt lat="45.63127691692989" lon="9.863108344552066"><ele>200.0</ele><time>2026-05-01T02:24:50.001Z</time></trkpt><trkpt lat="45.63118518421146" lon="9.863522783404726"><ele>200.0</ele><time>2026-05-01T02:24:51.001Z</time></trkpt><trkpt lat="45.6311013202688" lon="9.863935641462325"><ele>201.0</ele><time>2026-05-01T02:24:52.001Z</time></trkpt><trkpt lat="45.631018283464364" lon="9.86434334329509"><ele>202.0</ele><time>2026-05-01T02:24:53.001Z</time></trkpt><trkpt lat="45.63093234951096" lon="9.864747150230123"><ele>202.0</ele><time>2026-05-01T02:24:54.001Z</time></trkpt><trkpt lat="45.63084282829308" lon="9.865157327739722"><ele>202.0</ele><time>2026-05-01T02:24:55.001Z</time></trkpt><trkpt lat="45.63075337926805" lon="9.86557403964013"><ele>202.0</ele><time>2026-05-01T02:24:56.001Z</time></trkpt><trkpt lat="45.63066416279425" lon="9.865991110665448"><ele>202.0</ele><time>2026-05-01T02:24:57.001Z</time></trkpt><trkpt lat="45.63057487307794" lon="9.866399903026545"><ele>202.5</ele><time>2026-05-01T02:24:58.001Z</time></trkpt><trkpt lat="45.63048871935342" lon="9.866791264259666"><ele>203.0</ele><time>2026-05-01T02:24:59.001Z</time></trkpt><trkpt lat="45.63039913958093" lon="9.867191252297488"><ele>201.5</ele><time>2026-05-01T02:25:00.001Z</time></trkpt><trkpt lat="45.63030752459866" lon="9.867600939722053"><ele>200.0</ele><time>2026-05-01T02:25:01.001Z</time></trkpt><trkpt lat="45.63021477392093" lon="9.86801813536694"><ele>199.5</ele><time>2026-05-01T02:25:02.001Z</time></trkpt><trkpt lat="45.63012166525329" lon="9.868440391270438"><ele>199.0</ele><time>2026-05-01T02:25:03.001Z</time></trkpt><trkpt lat="45.6300319735584" lon="9.868865875596123"><ele>200.5</ele><time>2026-05-01T02:25:04.001Z</time></trkpt><trkpt lat="45.62994967648705" lon="9.869295686115455"><ele>202.0</ele><time>2026-05-01T02:25:05.001Z</time></trkpt><trkpt lat="45.62986464808133" lon="9.869727338908742"><ele>201.0</ele><time>2026-05-01T02:25:06.001Z</time></trkpt><trkpt lat="45.62977484762967" lon="9.870156804225342"><ele>200.0</ele><time>2026-05-01T02:25:07.001Z</time></trkpt><trkpt lat="45.62968101954364" lon="9.870584048070295"><ele>200.5</ele><time>2026-05-01T02:25:08.001Z</time></trkpt><trkpt lat="45.62958717756527" lon="9.871008877094622"><ele>201.0</ele><time>2026-05-01T02:25:09.001Z</time></trkpt><trkpt lat="45.6294940094535" lon="9.871433123847375"><ele>200.0</ele><time>2026-05-01T02:25:10.001Z</time></trkpt><trkpt lat="45.62940030339652" lon="9.871855198438764"><ele>199.0</ele><time>2026-05-01T02:25:11.001Z</time></trkpt><trkpt lat="45.62930700255295" lon="9.872275113307724"><ele>200.0</ele><time>2026-05-01T02:25:12.001Z</time></trkpt><trkpt lat="45.62921538460981" lon="9.872693754771273"><ele>201.0</ele><time>2026-05-01T02:25:13.001Z</time></trkpt><trkpt lat="45.629124150164635" lon="9.873111701841658"><ele>201.0</ele><time>2026-05-01T02:25:14.001Z</time></trkpt><trkpt lat="45.629032048439974" lon="9.873528441732065"><ele>201.0</ele><time>2026-05-01T02:25:15.001Z</time></trkpt><trkpt lat="45.62894093717877" lon="9.873944238306676"><ele>201.5</ele><time>2026-05-01T02:25:16.001Z</time></trkpt><trkpt lat="45.6288506272171" lon="9.874361368352066"><ele>202.0</ele><time>2026-05-01T02:25:17.001Z</time></trkpt><trkpt lat="45.628759913066204" lon="9.874779390996329"><ele>202.5</ele><time>2026-05-01T02:25:18.001Z</time></trkpt><trkpt lat="45.62866730147179" lon="9.875196901933732"><ele>203.0</ele><time>2026-05-01T02:25:19.001Z</time></trkpt><trkpt lat="45.62857418008517" lon="9.875613818801293"><ele>203.0</ele><time>2026-05-01T02:25:20.001Z</time></trkpt><trkpt lat="45.62848340476105" lon="9.87603142039305"><ele>203.0</ele><time>2026-05-01T02:25:21.001Z</time></trkpt><trkpt lat="45.62839275344835" lon="9.87644857084449"><ele>202.0</ele><time>2026-05-01T02:25:22.001Z</time></trkpt><trkpt lat="45.62830223202382" lon="9.876863552068182"><ele>201.0</ele><time>2026-05-01T02:25:23.001Z</time></trkpt><trkpt lat="45.628210643344474" lon="9.877276993101022"><ele>202.0</ele><time>2026-05-01T02:25:24.001Z</time></trkpt><trkpt lat="45.628119114723624" lon="9.877688564359907"><ele>203.0</ele><time>2026-05-01T02:25:25.001Z</time></trkpt><trkpt lat="45.628029125641646" lon="9.87810207130131"><ele>203.5</ele><time>2026-05-01T02:25:26.001Z</time></trkpt><trkpt lat="45.627938662746" lon="9.878515112526735"><ele>204.0</ele><time>2026-05-01T02:25:27.001Z</time></trkpt><trkpt lat="45.62784764199493" lon="9.878927483556156"><ele>205.0</ele><time>2026-05-01T02:25:28.001Z</time></trkpt><trkpt lat="45.627756481961555" lon="9.879341803485998"><ele>206.0</ele><time>2026-05-01T02:25:29.001Z</time></trkpt><trkpt lat="45.62766530555136" lon="9.879758044206978"><ele>205.5</ele><time>2026-05-01T02:25:30.001Z</time></trkpt><trkpt lat="45.627573351116176" lon="9.880173073659638"><ele>205.0</ele><time>2026-05-01T02:25:31.001Z</time></trkpt><trkpt lat="45.62747778185593" lon="9.880587940431196"><ele>206.5</ele><time>2026-05-01T02:25:32.001Z</time></trkpt><trkpt lat="45.62737857269603" lon="9.881001028974392"><ele>208.0</ele><time>2026-05-01T02:25:33.001Z</time></trkpt><trkpt lat="45.62727950983583" lon="9.881415882705133"><ele>207.5</ele><time>2026-05-01T02:25:34.001Z</time></trkpt><trkpt lat="45.62718375947185" lon="9.88183153178836"><ele>207.0</ele><time>2026-05-01T02:25:35Z</time></trkpt><trkpt lat="45.6270897391784" lon="9.882247173545718"><ele>207.5</ele><time>2026-05-01T02:25:36Z</time></trkpt><trkpt lat="45.62699748522975" lon="9.882659390183282"><ele>208.0</ele><time>2026-05-01T02:25:37Z</time></trkpt><trkpt lat="45.62690695802969" lon="9.883067911184005"><ele>207.0</ele><time>2026-05-01T02:25:38Z</time></trkpt><trkpt lat="45.62681984436831" lon="9.883476071479985"><ele>206.0</ele><time>2026-05-01T02:25:39Z</time></trkpt><trkpt lat="45.62672881950502" lon="9.883887294181095"><ele>207.5</ele><time>2026-05-01T02:25:40Z</time></trkpt><trkpt lat="45.62663618513844" lon="9.884301215095034"><ele>209.0</ele><time>2026-05-01T02:25:41Z</time></trkpt><trkpt lat="45.6265437343289" lon="9.884718383316764"><ele>208.5</ele><time>2026-05-01T02:25:42Z</time></trkpt><trkpt lat="45.62645281930563" lon="9.885139835338213"><ele>208.0</ele><time>2026-05-01T02:25:43Z</time></trkpt><trkpt lat="45.626360683088386" lon="9.88556196331587"><ele>208.0</ele><time>2026-05-01T02:25:44Z</time></trkpt><trkpt lat="45.626267919966544" lon="9.885984519337395"><ele>208.0</ele><time>2026-05-01T02:25:45Z</time></trkpt><trkpt lat="45.626175929412234" lon="9.886406998481673"><ele>207.0</ele><time>2026-05-01T02:25:46Z</time></trkpt><trkpt lat="45.62608317224254" lon="9.886829670044145"><ele>206.0</ele><time>2026-05-01T02:25:47Z</time></trkpt><trkpt lat="45.625992304157336" lon="9.887243869440995"><ele>206.5</ele><time>2026-05-01T02:25:48Z</time></trkpt><trkpt lat="45.62590328381493" lon="9.887642585037192"><ele>207.0</ele><time>2026-05-01T02:25:49Z</time></trkpt><trkpt lat="45.6258122176999" lon="9.888054810156474"><ele>207.0</ele><time>2026-05-01T02:25:50Z</time></trkpt><trkpt lat="45.62571799751372" lon="9.888474356411418"><ele>207.0</ele><time>2026-05-01T02:25:51Z</time></trkpt><trkpt lat="45.62562448841784" lon="9.888895125788741"><ele>206.5</ele><time>2026-05-01T02:25:52Z</time></trkpt><trkpt lat="45.625532093917236" lon="9.889317644380021"><ele>206.0</ele><time>2026-05-01T02:25:53Z</time></trkpt><trkpt lat="45.62544157833418" lon="9.889734902831592"><ele>206.0</ele><time>2026-05-01T02:25:54Z</time></trkpt><trkpt lat="45.62535147377278" lon="9.89015052963152"><ele>206.0</ele><time>2026-05-01T02:25:55Z</time></trkpt><trkpt lat="45.6252608256535" lon="9.890565266652274"><ele>207.0</ele><time>2026-05-01T02:25:56Z</time></trkpt><trkpt lat="45.625166912038665" lon="9.890978745103519"><ele>208.0</ele><time>2026-05-01T02:25:57Z</time></trkpt><trkpt lat="45.62506970079253" lon="9.891394413940885"><ele>208.0</ele><time>2026-05-01T02:25:58Z</time></trkpt><trkpt lat="45.624971368824" lon="9.891813204726374"><ele>208.0</ele><time>2026-05-01T02:25:59Z</time></trkpt><trkpt lat="45.62486917528671" lon="9.892234787552125"><ele>208.5</ele><time>2026-05-01T02:26:00Z</time></trkpt><trkpt lat="45.62476399252333" lon="9.892660060407623"><ele>209.0</ele><time>2026-05-01T02:26:01Z</time></trkpt><trkpt lat="45.62465848681185" lon="9.893088830413545"><ele>207.5</ele><time>2026-05-01T02:26:02Z</time></trkpt><trkpt lat="45.62455225832753" lon="9.893520274212127"><ele>206.0</ele><time>2026-05-01T02:26:03Z</time></trkpt><trkpt lat="45.624448000986085" lon="9.893953223824187"><ele>204.0</ele><time>2026-05-01T02:26:04Z</time></trkpt><trkpt lat="45.62435013622148" lon="9.894388354129521"><ele>202.0</ele><time>2026-05-01T02:26:05Z</time></trkpt><trkpt lat="45.624252852011644" lon="9.894821817904074"><ele>201.5</ele><time>2026-05-01T02:26:06Z</time></trkpt><trkpt lat="45.62415630326206" lon="9.895241108430904"><ele>201.0</ele><time>2026-05-01T02:26:07Z</time></trkpt><trkpt lat="45.62406176271742" lon="9.895651656143288"><ele>200.5</ele><time>2026-05-01T02:26:08Z</time></trkpt><trkpt lat="45.62396910183523" lon="9.8960623151964"><ele>200.0</ele><time>2026-05-01T02:26:09Z</time></trkpt><trkpt lat="45.6238780104949" lon="9.896469767092212"><ele>201.0</ele><time>2026-05-01T02:26:10Z</time></trkpt><trkpt lat="45.62378524406736" lon="9.896875645511138"><ele>202.0</ele><time>2026-05-01T02:26:11Z</time></trkpt><trkpt lat="45.62369481853156" lon="9.89728145655735"><ele>201.5</ele><time>2026-05-01T02:26:12Z</time></trkpt><trkpt lat="45.62360532775126" lon="9.897688475314764"><ele>201.0</ele><time>2026-05-01T02:26:13Z</time></trkpt><trkpt lat="45.6235126372914" lon="9.89809495156977"><ele>201.0</ele><time>2026-05-01T02:26:14Z</time></trkpt><trkpt lat="45.62341352199529" lon="9.898501360632636"><ele>201.0</ele><time>2026-05-01T02:26:15Z</time></trkpt><trkpt lat="45.62330978267176" lon="9.898903678150319"><ele>198.5</ele><time>2026-05-01T02:26:16Z</time></trkpt><trkpt lat="45.62320705491159" lon="9.899307807521405"><ele>196.0</ele><time>2026-05-01T02:26:17Z</time></trkpt><trkpt lat="45.623105996812036" lon="9.899712053025812"><ele>188.0</ele><time>2026-05-01T02:26:18Z</time></trkpt><trkpt lat="45.623008812844404" lon="9.90011567953616"><ele>180.0</ele><time>2026-05-01T02:26:19Z</time></trkpt><trkpt lat="45.62291780058508" lon="9.900520693184209"><ele>168.0</ele><time>2026-05-01T02:26:20Z</time></trkpt><trkpt lat="45.62282862857623" lon="9.900925135825341"><ele>156.0</ele><time>2026-05-01T02:26:21Z</time></trkpt><trkpt lat="45.62273813036346" lon="9.901330031064168"><ele>155.0</ele><time>2026-05-01T02:26:22Z</time></trkpt><trkpt lat="45.622648683404115" lon="9.90173783211665"><ele>154.0</ele><time>2026-05-01T02:26:23Z</time></trkpt><trkpt lat="45.62255965531977" lon="9.902144698964772"><ele>154.0</ele><time>2026-05-01T02:26:24Z</time></trkpt><trkpt lat="45.622469193665765" lon="9.90255010225323"><ele>154.0</ele><time>2026-05-01T02:26:25Z</time></trkpt><trkpt lat="45.62237911448891" lon="9.902956412714447"><ele>164.5</ele><time>2026-05-01T02:26:26Z</time></trkpt><trkpt lat="45.6222889192547" lon="9.903361349670101"><ele>175.0</ele><time>2026-05-01T02:26:27Z</time></trkpt><trkpt lat="45.6222009905485" lon="9.903769443368232"><ele>182.5</ele><time>2026-05-01T02:26:28Z</time></trkpt><trkpt lat="45.62211478011227" lon="9.904176892032227"><ele>190.0</ele><time>2026-05-01T02:26:29.001Z</time></trkpt><trkpt lat="45.6220276216743" lon="9.904584691949347"><ele>190.0</ele><time>2026-05-01T02:26:30.001Z</time></trkpt><trkpt lat="45.62194080760632" lon="9.904991284823964"><ele>190.0</ele><time>2026-05-01T02:26:31.001Z</time></trkpt><trkpt lat="45.621853603452166" lon="9.905398050911206"><ele>190.5</ele><time>2026-05-01T02:26:32.001Z</time></trkpt><trkpt lat="45.621765662185936" lon="9.905804349943095"><ele>191.0</ele><time>2026-05-01T02:26:33.001Z</time></trkpt><trkpt lat="45.621677656230084" lon="9.906210765272556"><ele>191.0</ele><time>2026-05-01T02:26:34.001Z</time></trkpt><trkpt lat="45.621589469947864" lon="9.906617696553896"><ele>191.0</ele><time>2026-05-01T02:26:35.001Z</time></trkpt><trkpt lat="45.621500115346784" lon="9.907024008755643"><ele>191.0</ele><time>2026-05-01T02:26:36.001Z</time></trkpt><trkpt lat="45.62141062941828" lon="9.907430454270422"><ele>191.0</ele><time>2026-05-01T02:26:37.001Z</time></trkpt><trkpt lat="45.621321589979" lon="9.90783845942157"><ele>191.0</ele><time>2026-05-01T02:26:38.001Z</time></trkpt><trkpt lat="45.621234117333934" lon="9.908248198889796"><ele>191.0</ele><time>2026-05-01T02:26:39.001Z</time></trkpt><trkpt lat="45.62114751286771" lon="9.908658669228792"><ele>191.0</ele><time>2026-05-01T02:26:40.001Z</time></trkpt><trkpt lat="45.621062858111635" lon="9.909069759618577"><ele>191.0</ele><time>2026-05-01T02:26:41.001Z</time></trkpt><trkpt lat="45.620980761872474" lon="9.909480990898972"><ele>191.0</ele><time>2026-05-01T02:26:42.001Z</time></trkpt><trkpt lat="45.62090125286306" lon="9.909891926924912"><ele>191.0</ele><time>2026-05-01T02:26:43.001Z</time></trkpt><trkpt lat="45.620822937079346" lon="9.91030192028587"><ele>191.0</ele><time>2026-05-01T02:26:44.001Z</time></trkpt><trkpt lat="45.62074483304139" lon="9.910709248507668"><ele>191.0</ele><time>2026-05-01T02:26:45.001Z</time></trkpt><trkpt lat="45.620666572231606" lon="9.911114588605415"><ele>193.5</ele><time>2026-05-01T02:26:46.001Z</time></trkpt><trkpt lat="45.62058838710126" lon="9.911515938406838"><ele>196.0</ele><time>2026-05-01T02:26:47.001Z</time></trkpt><trkpt lat="45.62050665278558" lon="9.911917606552018"><ele>197.5</ele><time>2026-05-01T02:26:48.001Z</time></trkpt><trkpt lat="45.62042268345603" lon="9.912318976537428"><ele>199.0</ele><time>2026-05-01T02:26:49.001Z</time></trkpt><trkpt lat="45.62033711450589" lon="9.912717429505467"><ele>199.5</ele><time>2026-05-01T02:26:50.001Z</time></trkpt><trkpt lat="45.620253117396345" lon="9.913114461355558"><ele>200.0</ele><time>2026-05-01T02:26:51.001Z</time></trkpt><trkpt lat="45.62017154891155" lon="9.91351097498302"><ele>200.0</ele><time>2026-05-01T02:26:52.001Z</time></trkpt><trkpt lat="45.62009342425811" lon="9.913882256805818"><ele>200.0</ele><time>2026-05-01T02:26:53.001Z</time></trkpt><trkpt lat="45.620020356501186" lon="9.914245364053034"><ele>199.0</ele><time>2026-05-01T02:26:54.001Z</time></trkpt><trkpt lat="45.61996242947253" lon="9.914616955344544"><ele>198.0</ele><time>2026-05-01T02:26:55.001Z</time></trkpt><trkpt lat="45.61989608980804" lon="9.915003721156694"><ele>198.0</ele><time>2026-05-01T02:26:56.001Z</time></trkpt><trkpt lat="45.6198162439139" lon="9.91540249726687"><ele>198.0</ele><time>2026-05-01T02:26:57.001Z</time></trkpt><trkpt lat="45.619725852401196" lon="9.915811642771356"><ele>198.5</ele><time>2026-05-01T02:26:58.001Z</time></trkpt><trkpt lat="45.61962597780728" lon="9.916222820873259"><ele>199.0</ele><time>2026-05-01T02:26:59.001Z</time></trkpt><trkpt lat="45.61952138798528" lon="9.916632418936283"><ele>197.0</ele><time>2026-05-01T02:27:00.001Z</time></trkpt><trkpt lat="45.61941506353323" lon="9.91703858454664"><ele>195.0</ele><time>2026-05-01T02:27:01.001Z</time></trkpt><trkpt lat="45.61931558228343" lon="9.91744118284675"><ele>196.5</ele><time>2026-05-01T02:27:02.001Z</time></trkpt><trkpt lat="45.61922074874663" lon="9.917845170207972"><ele>198.0</ele><time>2026-05-01T02:27:03.001Z</time></trkpt><trkpt lat="45.61912621121504" lon="9.918253308856283"><ele>198.0</ele><time>2026-05-01T02:27:04.001Z</time></trkpt><trkpt lat="45.619032305804275" lon="9.918662642477878"><ele>198.0</ele><time>2026-05-01T02:27:05.001Z</time></trkpt><trkpt lat="45.61893690800936" lon="9.919071139631239"><ele>197.5</ele><time>2026-05-01T02:27:06.001Z</time></trkpt><trkpt lat="45.61883538846912" lon="9.919477215110424"><ele>197.0</ele><time>2026-05-01T02:27:07.001Z</time></trkpt><trkpt lat="45.61872644140476" lon="9.919881064858192"><ele>196.5</ele><time>2026-05-01T02:27:08.001Z</time></trkpt><trkpt lat="45.61861198036259" lon="9.920283438563693"><ele>196.0</ele><time>2026-05-01T02:27:09.001Z</time></trkpt><trkpt lat="45.61849259009656" lon="9.920686394813739"><ele>195.5</ele><time>2026-05-01T02:27:10.001Z</time></trkpt><trkpt lat="45.61836983840484" lon="9.921088248855828"><ele>195.0</ele><time>2026-05-01T02:27:11.001Z</time></trkpt><trkpt lat="45.618241718794145" lon="9.921488279503047"><ele>196.5</ele><time>2026-05-01T02:27:12.001Z</time></trkpt><trkpt lat="45.61811036417842" lon="9.921885771556894"><ele>198.0</ele><time>2026-05-01T02:27:13.001Z</time></trkpt><trkpt lat="45.617975555049966" lon="9.922282608318657"><ele>198.0</ele><time>2026-05-01T02:27:14.001Z</time></trkpt><trkpt lat="45.61783708893921" lon="9.9226760717028"><ele>198.0</ele><time>2026-05-01T02:27:15.001Z</time></trkpt><trkpt lat="45.61769335765753" lon="9.923066769682967"><ele>197.5</ele><time>2026-05-01T02:27:16.001Z</time></trkpt><trkpt lat="45.61754851550636" lon="9.923454820876882"><ele>197.0</ele><time>2026-05-01T02:27:17.001Z</time></trkpt><trkpt lat="45.61740237328906" lon="9.92384051423656"><ele>197.0</ele><time>2026-05-01T02:27:18.001Z</time></trkpt><trkpt lat="45.6172520508795" lon="9.924221043254224"><ele>197.0</ele><time>2026-05-01T02:27:19.001Z</time></trkpt><trkpt lat="45.61709834291954" lon="9.924595365895907"><ele>197.0</ele><time>2026-05-01T02:27:20.001Z</time></trkpt><trkpt lat="45.61694052973109" lon="9.924967950815137"><ele>197.0</ele><time>2026-05-01T02:27:21.001Z</time></trkpt><trkpt lat="45.616777478886256" lon="9.925336476642787"><ele>197.0</ele><time>2026-05-01T02:27:22.001Z</time></trkpt><trkpt lat="45.61661020633608" lon="9.92570221003812"><ele>197.0</ele><time>2026-05-01T02:27:23.001Z</time></trkpt><trkpt lat="45.61644011883449" lon="9.926063112315761"><ele>197.0</ele><time>2026-05-01T02:27:24.001Z</time></trkpt><trkpt lat="45.61626532568392" lon="9.926421863145604"><ele>197.0</ele><time>2026-05-01T02:27:25.001Z</time></trkpt><trkpt lat="45.616088897096425" lon="9.92677881727739"><ele>197.0</ele><time>2026-05-01T02:27:26.001Z</time></trkpt><trkpt lat="45.61590935448802" lon="9.927132179623493"><ele>197.0</ele><time>2026-05-01T02:27:27.001Z</time></trkpt><trkpt lat="45.61572610131844" lon="9.927480035279943"><ele>196.5</ele><time>2026-05-01T02:27:28.001Z</time></trkpt><trkpt lat="45.61553921926024" lon="9.92782359733122"><ele>196.0</ele><time>2026-05-01T02:27:29.001Z</time></trkpt><trkpt lat="45.615349671786255" lon="9.928164860522624"><ele>197.0</ele><time>2026-05-01T02:27:30.001Z</time></trkpt><trkpt lat="45.61515748629049" lon="9.928503141814744"><ele>198.0</ele><time>2026-05-01T02:27:31.001Z</time></trkpt><trkpt lat="45.61496368081689" lon="9.928840624228886"><ele>198.0</ele><time>2026-05-01T02:27:32.001Z</time></trkpt><trkpt lat="45.6147683387716" lon="9.929175776422666"><ele>198.0</ele><time>2026-05-01T02:27:33.001Z</time></trkpt><trkpt lat="45.61457185909262" lon="9.929510201483176"><ele>197.5</ele><time>2026-05-01T02:27:34.001Z</time></trkpt><trkpt lat="45.614375323707655" lon="9.929845677053029"><ele>197.0</ele><time>2026-05-01T02:27:35.001Z</time></trkpt><trkpt lat="45.61417975901988" lon="9.930182348867216"><ele>198.0</ele><time>2026-05-01T02:27:36.001Z</time></trkpt><trkpt lat="45.61398671426045" lon="9.9305227681703"><ele>199.0</ele><time>2026-05-01T02:27:37.001Z</time></trkpt><trkpt lat="45.61379526232061" lon="9.9308588506255"><ele>199.0</ele><time>2026-05-01T02:27:38.001Z</time></trkpt><trkpt lat="45.61361239534383" lon="9.931178298907952"><ele>199.0</ele><time>2026-05-01T02:27:39.001Z</time></trkpt><trkpt lat="45.613424855973555" lon="9.931504724426887"><ele>201.0</ele><time>2026-05-01T02:27:40.001Z</time></trkpt><trkpt lat="45.61323274297901" lon="9.931838124654801"><ele>203.0</ele><time>2026-05-01T02:27:41Z</time></trkpt><trkpt lat="45.61303829976639" lon="9.932175375995557"><ele>203.0</ele><time>2026-05-01T02:27:42Z</time></trkpt><trkpt lat="45.61284270131945" lon="9.932513292928888"><ele>203.0</ele><time>2026-05-01T02:27:43Z</time></trkpt><trkpt lat="45.612646660982364" lon="9.932851010606536"><ele>203.0</ele><time>2026-05-01T02:27:44Z</time></trkpt><trkpt lat="45.61245278967496" lon="9.933187419587215"><ele>203.0</ele><time>2026-05-01T02:27:45Z</time></trkpt><trkpt lat="45.61226084906692" lon="9.93352227909477"><ele>203.0</ele><time>2026-05-01T02:27:46Z</time></trkpt><trkpt lat="45.61206909477545" lon="9.933855722915851"><ele>203.0</ele><time>2026-05-01T02:27:47Z</time></trkpt><trkpt lat="45.61187904353311" lon="9.93418853417882"><ele>202.5</ele><time>2026-05-01T02:27:48Z</time></trkpt><trkpt lat="45.61168912323405" lon="9.93452004142499"><ele>202.0</ele><time>2026-05-01T02:27:49Z</time></trkpt><trkpt lat="45.61149928125466" lon="9.93485077832436"><ele>202.5</ele><time>2026-05-01T02:27:50Z</time></trkpt><trkpt lat="45.611308994788935" lon="9.935182587875945"><ele>203.0</ele><time>2026-05-01T02:27:51Z</time></trkpt><trkpt lat="45.61111789538643" lon="9.935513442304208"><ele>202.0</ele><time>2026-05-01T02:27:52Z</time></trkpt><trkpt lat="45.61092612611792" lon="9.935842893730209"><ele>201.0</ele><time>2026-05-01T02:27:53Z</time></trkpt><trkpt lat="45.61073442150033" lon="9.93617485944401"><ele>201.0</ele><time>2026-05-01T02:27:54Z</time></trkpt><trkpt lat="45.61054317494135" lon="9.936508004969706"><ele>201.0</ele><time>2026-05-01T02:27:55Z</time></trkpt><trkpt lat="45.610351829554375" lon="9.93684169279496"><ele>201.0</ele><time>2026-05-01T02:27:56Z</time></trkpt><trkpt lat="45.61015993582405" lon="9.937175080027664"><ele>201.0</ele><time>2026-05-01T02:27:57Z</time></trkpt><trkpt lat="45.609967781586256" lon="9.937507962526265"><ele>202.5</ele><time>2026-05-01T02:27:58Z</time></trkpt><trkpt lat="45.60977461813538" lon="9.937840500873909"><ele>204.0</ele><time>2026-05-01T02:27:59Z</time></trkpt><trkpt lat="45.60958248941937" lon="9.938174435676476"><ele>204.0</ele><time>2026-05-01T02:28:00Z</time></trkpt><trkpt lat="45.60939098688287" lon="9.938510224647311"><ele>204.0</ele><time>2026-05-01T02:28:01Z</time></trkpt><trkpt lat="45.60919939010599" lon="9.93884485429168"><ele>204.0</ele><time>2026-05-01T02:28:02Z</time></trkpt><trkpt lat="45.60900749071081" lon="9.93917944982519"><ele>204.0</ele><time>2026-05-01T02:28:03Z</time></trkpt><trkpt lat="45.60881656403964" lon="9.939514066337845"><ele>204.0</ele><time>2026-05-01T02:28:04Z</time></trkpt><trkpt lat="45.60862481070904" lon="9.939846115341703"><ele>204.0</ele><time>2026-05-01T02:28:05Z</time></trkpt><trkpt lat="45.60843277748197" lon="9.940178751854194"><ele>204.0</ele><time>2026-05-01T02:28:06Z</time></trkpt><trkpt lat="45.60824066737441" lon="9.9405114193014"><ele>204.0</ele><time>2026-05-01T02:28:07Z</time></trkpt><trkpt lat="45.60804730029981" lon="9.940844110693988"><ele>203.5</ele><time>2026-05-01T02:28:08Z</time></trkpt><trkpt lat="45.607853763695935" lon="9.941176034302151"><ele>203.0</ele><time>2026-05-01T02:28:09Z</time></trkpt><trkpt lat="45.60766108436475" lon="9.941508940618366"><ele>204.0</ele><time>2026-05-01T02:28:10Z</time></trkpt><trkpt lat="45.60746986432287" lon="9.94184232577501"><ele>205.0</ele><time>2026-05-01T02:28:11Z</time></trkpt><trkpt lat="45.607277800612394" lon="9.942175720875843"><ele>205.0</ele><time>2026-05-01T02:28:12Z</time></trkpt><trkpt lat="45.607085714495646" lon="9.942508994230693"><ele>205.0</ele><time>2026-05-01T02:28:13Z</time></trkpt><trkpt lat="45.606893605757556" lon="9.942841788854594"><ele>205.5</ele><time>2026-05-01T02:28:14Z</time></trkpt><trkpt lat="45.60670112384511" lon="9.943173985781481"><ele>206.0</ele><time>2026-05-01T02:28:15Z</time></trkpt><trkpt lat="45.60650889845393" lon="9.943506778424586"><ele>206.0</ele><time>2026-05-01T02:28:16Z</time></trkpt><trkpt lat="45.60631731164014" lon="9.943840605943818"><ele>206.0</ele><time>2026-05-01T02:28:17Z</time></trkpt><trkpt lat="45.60612645094351" lon="9.944173488025804"><ele>206.0</ele><time>2026-05-01T02:28:18Z</time></trkpt><trkpt lat="45.60593510996312" lon="9.944506881637851"><ele>206.0</ele><time>2026-05-01T02:28:19Z</time></trkpt><trkpt lat="45.6057428474696" lon="9.944839213161083"><ele>206.0</ele><time>2026-05-01T02:28:20Z</time></trkpt><trkpt lat="45.6055502597804" lon="9.945170482031514"><ele>206.0</ele><time>2026-05-01T02:28:21Z</time></trkpt><trkpt lat="45.605358297321466" lon="9.945504234091548"><ele>205.0</ele><time>2026-05-01T02:28:22Z</time></trkpt><trkpt lat="45.605167482671725" lon="9.945838329293025"><ele>204.0</ele><time>2026-05-01T02:28:23Z</time></trkpt><trkpt lat="45.60497593430183" lon="9.946172365306808"><ele>204.0</ele><time>2026-05-01T02:28:24Z</time></trkpt><trkpt lat="45.60478313401132" lon="9.946505619519526"><ele>204.0</ele><time>2026-05-01T02:28:25Z</time></trkpt><trkpt lat="45.60458995578908" lon="9.946837229777408"><ele>206.0</ele><time>2026-05-01T02:28:26Z</time></trkpt><trkpt lat="45.60439765243321" lon="9.947170273309709"><ele>208.0</ele><time>2026-05-01T02:28:27Z</time></trkpt><trkpt lat="45.604206821871344" lon="9.947502509986847"><ele>209.0</ele><time>2026-05-01T02:28:28Z</time></trkpt><trkpt lat="45.60401691190502" lon="9.947835824908443"><ele>210.0</ele><time>2026-05-01T02:28:29Z</time></trkpt><trkpt lat="45.603826487322145" lon="9.948167018303455"><ele>211.5</ele><time>2026-05-01T02:28:30Z</time></trkpt><trkpt lat="45.60363433391007" lon="9.94849820694091"><ele>213.0</ele><time>2026-05-01T02:28:31Z</time></trkpt><trkpt lat="45.60344414078427" lon="9.948827502540393"><ele>213.0</ele><time>2026-05-01T02:28:32Z</time></trkpt><trkpt lat="45.60325347871116" lon="9.949157583981181"><ele>213.0</ele><time>2026-05-01T02:28:33Z</time></trkpt><trkpt lat="45.603062559208844" lon="9.949487809293446"><ele>213.0</ele><time>2026-05-01T02:28:34Z</time></trkpt><trkpt lat="45.60287028010824" lon="9.949819340198456"><ele>213.0</ele><time>2026-05-01T02:28:35Z</time></trkpt><trkpt lat="45.6026776614268" lon="9.950152567807939"><ele>212.0</ele><time>2026-05-01T02:28:36Z</time></trkpt><trkpt lat="45.60248621506471" lon="9.950487375554168"><ele>211.0</ele><time>2026-05-01T02:28:37.001Z</time></trkpt><trkpt lat="45.60229362472282" lon="9.950822722241096"><ele>211.0</ele><time>2026-05-01T02:28:38.001Z</time></trkpt><trkpt lat="45.602101843132886" lon="9.95115982002667"><ele>211.0</ele><time>2026-05-01T02:28:39.001Z</time></trkpt><trkpt lat="45.601907796829636" lon="9.951495115975389"><ele>210.0</ele><time>2026-05-01T02:28:40.001Z</time></trkpt><trkpt lat="45.60171266814688" lon="9.951830220453687"><ele>209.0</ele><time>2026-05-01T02:28:41.001Z</time></trkpt><trkpt lat="45.60151871594459" lon="9.952165212527504"><ele>209.0</ele><time>2026-05-01T02:28:42.001Z</time></trkpt><trkpt lat="45.60132539873212" lon="9.952502481416618"><ele>209.0</ele><time>2026-05-01T02:28:43.001Z</time></trkpt><trkpt lat="45.601132919199976" lon="9.952839053949479"><ele>208.5</ele><time>2026-05-01T02:28:44.001Z</time></trkpt><trkpt lat="45.60093883535827" lon="9.953174027693505"><ele>208.0</ele><time>2026-05-01T02:28:45.001Z</time></trkpt><trkpt lat="45.600745752664416" lon="9.95351030980202"><ele>208.0</ele><time>2026-05-01T02:28:46.001Z</time></trkpt><trkpt lat="45.600553680761095" lon="9.953847810295931"><ele>208.0</ele><time>2026-05-01T02:28:47.001Z</time></trkpt><trkpt lat="45.60036147849443" lon="9.954184817831885"><ele>209.0</ele><time>2026-05-01T02:28:48.001Z</time></trkpt><trkpt lat="45.600168440473475" lon="9.954520360053776"><ele>210.0</ele><time>2026-05-01T02:28:49.001Z</time></trkpt><trkpt lat="45.59997427789999" lon="9.954855397625174"><ele>209.5</ele><time>2026-05-01T02:28:50.001Z</time></trkpt><trkpt lat="45.59978123867806" lon="9.955189589881526"><ele>209.0</ele><time>2026-05-01T02:28:51.001Z</time></trkpt><trkpt lat="45.59958814731983" lon="9.95552380268718"><ele>208.5</ele><time>2026-05-01T02:28:52.001Z</time></trkpt><trkpt lat="45.599395389422085" lon="9.95585735368204"><ele>208.0</ele><time>2026-05-01T02:28:53.001Z</time></trkpt><trkpt lat="45.599203650398" lon="9.956190590578277"><ele>208.0</ele><time>2026-05-01T02:28:54.001Z</time></trkpt><trkpt lat="45.59901102193471" lon="9.95652312703198"><ele>208.0</ele><time>2026-05-01T02:28:55.001Z</time></trkpt><trkpt lat="45.59881929794426" lon="9.956858478795267"><ele>208.5</ele><time>2026-05-01T02:28:56.001Z</time></trkpt><trkpt lat="45.598626799042336" lon="9.957192118590035"><ele>209.0</ele><time>2026-05-01T02:28:57.001Z</time></trkpt><trkpt lat="45.59843562554074" lon="9.957529283358694"><ele>210.0</ele><time>2026-05-01T02:28:58.001Z</time></trkpt><trkpt lat="45.598243668249985" lon="9.957867196602503"><ele>211.0</ele><time>2026-05-01T02:28:59.001Z</time></trkpt><trkpt lat="45.598051301066135" lon="9.958205555724962"><ele>210.5</ele><time>2026-05-01T02:29:00.001Z</time></trkpt><trkpt lat="45.597858785454854" lon="9.958545441587738"><ele>210.0</ele><time>2026-05-01T02:29:01.001Z</time></trkpt><trkpt lat="45.59766311495021" lon="9.958882203615149"><ele>211.0</ele><time>2026-05-01T02:29:02.001Z</time></trkpt><trkpt lat="45.59746734349717" lon="9.959218111311921"><ele>212.0</ele><time>2026-05-01T02:29:03.001Z</time></trkpt><trkpt lat="45.59727290626297" lon="9.95955603119152"><ele>212.0</ele><time>2026-05-01T02:29:04.001Z</time></trkpt><trkpt lat="45.59707860668759" lon="9.959892984324307"><ele>212.0</ele><time>2026-05-01T02:29:05.001Z</time></trkpt><trkpt lat="45.596884530062816" lon="9.960231164779929"><ele>212.0</ele><time>2026-05-01T02:29:06.001Z</time></trkpt><trkpt lat="45.5966966813364" lon="9.960570894418138"><ele>212.0</ele><time>2026-05-01T02:29:07.001Z</time></trkpt><trkpt lat="45.59650834216595" lon="9.960908737725665"><ele>212.5</ele><time>2026-05-01T02:29:08.001Z</time></trkpt><trkpt lat="45.5963227948449" lon="9.961248949654072"><ele>213.0</ele><time>2026-05-01T02:29:09.001Z</time></trkpt><trkpt lat="45.5961361367443" lon="9.961586928688787"><ele>212.5</ele><time>2026-05-01T02:29:10.001Z</time></trkpt><trkpt lat="45.59594681531863" lon="9.961920911867836"><ele>212.0</ele><time>2026-05-01T02:29:11.001Z</time></trkpt><trkpt lat="45.5957546065293" lon="9.962254850821791"><ele>213.0</ele><time>2026-05-01T02:29:12.001Z</time></trkpt><trkpt lat="45.59556147545505" lon="9.962590004850448"><ele>214.0</ele><time>2026-05-01T02:29:13.001Z</time></trkpt><trkpt lat="45.595374231454336" lon="9.962918321474655"><ele>213.5</ele><time>2026-05-01T02:29:14.001Z</time></trkpt><trkpt lat="45.595193457031215" lon="9.963238440218786"><ele>213.0</ele><time>2026-05-01T02:29:15.001Z</time></trkpt><trkpt lat="45.595004457435785" lon="9.96357215913903"><ele>214.0</ele><time>2026-05-01T02:29:16.001Z</time></trkpt><trkpt lat="45.59481122626258" lon="9.963908806093137"><ele>215.0</ele><time>2026-05-01T02:29:17.001Z</time></trkpt><trkpt lat="45.594616108480146" lon="9.964245001023915"><ele>215.0</ele><time>2026-05-01T02:29:18.001Z</time></trkpt><trkpt lat="45.59442120852756" lon="9.964579653530311"><ele>215.0</ele><time>2026-05-01T02:29:19.001Z</time></trkpt><trkpt lat="45.59422417347622" lon="9.964914680724151"><ele>215.0</ele><time>2026-05-01T02:29:20.001Z</time></trkpt><trkpt lat="45.59402821046785" lon="9.96525249371581"><ele>215.0</ele><time>2026-05-01T02:29:21.001Z</time></trkpt><trkpt lat="45.59383438430702" lon="9.965592585374743"><ele>214.5</ele><time>2026-05-01T02:29:22.001Z</time></trkpt><trkpt lat="45.59363871699441" lon="9.965930167998273"><ele>214.0</ele><time>2026-05-01T02:29:23.001Z</time></trkpt><trkpt lat="45.59344568604297" lon="9.96626714795058"><ele>214.0</ele><time>2026-05-01T02:29:24.001Z</time></trkpt><trkpt lat="45.59325469683173" lon="9.96660380725654"><ele>214.0</ele><time>2026-05-01T02:29:25.001Z</time></trkpt><trkpt lat="45.59306397804096" lon="9.966937704940275"><ele>213.5</ele><time>2026-05-01T02:29:26.001Z</time></trkpt><trkpt lat="45.59287348336942" lon="9.967270156146897"><ele>213.0</ele><time>2026-05-01T02:29:27.001Z</time></trkpt><trkpt lat="45.59268139189678" lon="9.967601134629705"><ele>212.5</ele><time>2026-05-01T02:29:28.001Z</time></trkpt><trkpt lat="45.59248811622824" lon="9.967930850787146"><ele>212.0</ele><time>2026-05-01T02:29:29.001Z</time></trkpt><trkpt lat="45.592294780799875" lon="9.968264975702157"><ele>212.0</ele><time>2026-05-01T02:29:30.001Z</time></trkpt><trkpt lat="45.59210243035966" lon="9.968598819257627"><ele>212.0</ele><time>2026-05-01T02:29:31.001Z</time></trkpt><trkpt lat="45.59190973836229" lon="9.968932650432665"><ele>212.0</ele><time>2026-05-01T02:29:32.001Z</time></trkpt><trkpt lat="45.59171692154529" lon="9.969266185020746"><ele>212.0</ele><time>2026-05-01T02:29:33.001Z</time></trkpt><trkpt lat="45.591525812072256" lon="9.969600410636728"><ele>212.0</ele><time>2026-05-01T02:29:34.001Z</time></trkpt><trkpt lat="45.59133390508109" lon="9.969933663212668"><ele>212.0</ele><time>2026-05-01T02:29:35.001Z</time></trkpt><trkpt lat="45.59114180836406" lon="9.970264636355736"><ele>212.0</ele><time>2026-05-01T02:29:36.001Z</time></trkpt><trkpt lat="45.59094981643077" lon="9.970596035243656"><ele>212.0</ele><time>2026-05-01T02:29:37.001Z</time></trkpt><trkpt lat="45.590759445921954" lon="9.97092900635937"><ele>212.0</ele><time>2026-05-01T02:29:38.001Z</time></trkpt><trkpt lat="45.590568861376504" lon="9.971261131037835"><ele>212.0</ele><time>2026-05-01T02:29:39.001Z</time></trkpt><trkpt lat="45.59037717734396" lon="9.971593853409656"><ele>212.5</ele><time>2026-05-01T02:29:40.001Z</time></trkpt><trkpt lat="45.59018394914436" lon="9.971925620226408"><ele>213.0</ele><time>2026-05-01T02:29:41.001Z</time></trkpt><trkpt lat="45.589990940266865" lon="9.972260022688676"><ele>212.5</ele><time>2026-05-01T02:29:42.001Z</time></trkpt><trkpt lat="45.58979757958841" lon="9.972596197570743"><ele>212.0</ele><time>2026-05-01T02:29:43.001Z</time></trkpt><trkpt lat="45.58960343255624" lon="9.972932489937625"><ele>211.0</ele><time>2026-05-01T02:29:44.001Z</time></trkpt><trkpt lat="45.58940938888955" lon="9.973270084291508"><ele>210.0</ele><time>2026-05-01T02:29:45.001Z</time></trkpt><trkpt lat="45.58921539649453" lon="9.973606952214297"><ele>210.0</ele><time>2026-05-01T02:29:46.001Z</time></trkpt><trkpt lat="45.58902184012437" lon="9.973942459568054"><ele>210.0</ele><time>2026-05-01T02:29:47Z</time></trkpt><trkpt lat="45.58882800591905" lon="9.974279838632517"><ele>210.5</ele><time>2026-05-01T02:29:48Z</time></trkpt><trkpt lat="45.58863414558314" lon="9.974617295179348"><ele>211.0</ele><time>2026-05-01T02:29:49Z</time></trkpt><trkpt lat="45.588438920450315" lon="9.97495415048867"><ele>210.5</ele><time>2026-05-01T02:29:50Z</time></trkpt><trkpt lat="45.5882427412725" lon="9.97529170397419"><ele>210.0</ele><time>2026-05-01T02:29:51Z</time></trkpt><trkpt lat="45.58804467437736" lon="9.975627469234208"><ele>210.0</ele><time>2026-05-01T02:29:52Z</time></trkpt><trkpt lat="45.58784785588236" lon="9.975964310513968"><ele>210.0</ele><time>2026-05-01T02:29:53Z</time></trkpt><trkpt lat="45.58765265970699" lon="9.976303227168778"><ele>208.5</ele><time>2026-05-01T02:29:54Z</time></trkpt><trkpt lat="45.587459534442765" lon="9.976642935899262"><ele>207.0</ele><time>2026-05-01T02:29:55Z</time></trkpt><trkpt lat="45.5872678705714" lon="9.976982894331428"><ele>207.0</ele><time>2026-05-01T02:29:56Z</time></trkpt><trkpt lat="45.58707457608467" lon="9.977320435454693"><ele>207.0</ele><time>2026-05-01T02:29:57Z</time></trkpt><trkpt lat="45.58687904377312" lon="9.977657949196141"><ele>207.5</ele><time>2026-05-01T02:29:58Z</time></trkpt><trkpt lat="45.58668318048828" lon="9.977996945693542"><ele>208.0</ele><time>2026-05-01T02:29:59Z</time></trkpt><trkpt lat="45.586488290398705" lon="9.978337472584288"><ele>207.5</ele><time>2026-05-01T02:30:00Z</time></trkpt><trkpt lat="45.586293124543616" lon="9.978680040778164"><ele>207.0</ele><time>2026-05-01T02:30:01Z</time></trkpt><trkpt lat="45.58609681228032" lon="9.97902072175367"><ele>206.5</ele><time>2026-05-01T02:30:02Z</time></trkpt><trkpt lat="45.58589938476819" lon="9.979362182909375"><ele>206.0</ele><time>2026-05-01T02:30:03Z</time></trkpt><trkpt lat="45.58570093897851" lon="9.97970263270651"><ele>205.5</ele><time>2026-05-01T02:30:04Z</time></trkpt><trkpt lat="45.585502124093914" lon="9.980043892376212"><ele>205.0</ele><time>2026-05-01T02:30:05Z</time></trkpt><trkpt lat="45.58530354236263" lon="9.980385398072588"><ele>204.0</ele><time>2026-05-01T02:30:06Z</time></trkpt><trkpt lat="45.585105057236454" lon="9.980728008607965"><ele>203.0</ele><time>2026-05-01T02:30:07Z</time></trkpt><trkpt lat="45.58490615545753" lon="9.981073105773886"><ele>203.0</ele><time>2026-05-01T02:30:08Z</time></trkpt><trkpt lat="45.58470902409681" lon="9.981419269999673"><ele>203.0</ele><time>2026-05-01T02:30:09Z</time></trkpt><trkpt lat="45.58451160652272" lon="9.98176606497999"><ele>202.5</ele><time>2026-05-01T02:30:10Z</time></trkpt><trkpt lat="45.58431460525592" lon="9.982112271649216"><ele>202.0</ele><time>2026-05-01T02:30:11Z</time></trkpt><trkpt lat="45.58411621914118" lon="9.982455418208678"><ele>202.5</ele><time>2026-05-01T02:30:12Z</time></trkpt><trkpt lat="45.58391682208381" lon="9.982797486621777"><ele>203.0</ele><time>2026-05-01T02:30:13Z</time></trkpt><trkpt lat="45.5837169951896" lon="9.983141254286279"><ele>202.0</ele><time>2026-05-01T02:30:14Z</time></trkpt><trkpt lat="45.58351760467934" lon="9.983485270923968"><ele>201.0</ele><time>2026-05-01T02:30:15Z</time></trkpt><trkpt lat="45.58331859445787" lon="9.983828897465331"><ele>201.0</ele><time>2026-05-01T02:30:16Z</time></trkpt><trkpt lat="45.58312154571347" lon="9.984173604683056"><ele>201.0</ele><time>2026-05-01T02:30:17Z</time></trkpt><trkpt lat="45.58292619117631" lon="9.984517307922443"><ele>201.0</ele><time>2026-05-01T02:30:18Z</time></trkpt><trkpt lat="45.58273394953343" lon="9.984860904875582"><ele>201.0</ele><time>2026-05-01T02:30:19Z</time></trkpt><trkpt lat="45.5825441323666" lon="9.985205973775201"><ele>201.0</ele><time>2026-05-01T02:30:20Z</time></trkpt><trkpt lat="45.58235883493583" lon="9.985551511039045"><ele>201.0</ele><time>2026-05-01T02:30:21Z</time></trkpt><trkpt lat="45.58217845954196" lon="9.985899371534376"><ele>200.0</ele><time>2026-05-01T02:30:22Z</time></trkpt><trkpt lat="45.58200624534351" lon="9.986252408323189"><ele>199.0</ele><time>2026-05-01T02:30:23Z</time></trkpt><trkpt lat="45.581836230015874" lon="9.986606638795022"><ele>201.5</ele><time>2026-05-01T02:30:24Z</time></trkpt><trkpt lat="45.58167185442984" lon="9.986962219260592"><ele>204.0</ele><time>2026-05-01T02:30:25Z</time></trkpt><trkpt lat="45.58151212895509" lon="9.987317244885194"><ele>205.5</ele><time>2026-05-01T02:30:26Z</time></trkpt><trkpt lat="45.581362385728994" lon="9.987666729255045"><ele>207.0</ele><time>2026-05-01T02:30:27Z</time></trkpt><trkpt lat="45.58122592885447" lon="9.988001058168416"><ele>205.5</ele><time>2026-05-01T02:30:28Z</time></trkpt><trkpt lat="45.58109510071703" lon="9.988355031783573"><ele>204.0</ele><time>2026-05-01T02:30:29Z</time></trkpt><trkpt lat="45.580968227885364" lon="9.988729507610115"><ele>204.0</ele><time>2026-05-01T02:30:30Z</time></trkpt><trkpt lat="45.58083892685345" lon="9.98911642402639"><ele>204.0</ele><time>2026-05-01T02:30:31Z</time></trkpt><trkpt lat="45.58070477678889" lon="9.989513315843476"><ele>202.5</ele><time>2026-05-01T02:30:32Z</time></trkpt><trkpt lat="45.580568935816736" lon="9.989916936536995"><ele>201.0</ele><time>2026-05-01T02:30:33Z</time></trkpt><trkpt lat="45.580432938342575" lon="9.99032491562071"><ele>202.0</ele><time>2026-05-01T02:30:34Z</time></trkpt><trkpt lat="45.58029411743275" lon="9.990732745736224"><ele>203.0</ele><time>2026-05-01T02:30:35Z</time></trkpt><trkpt lat="45.58015922318278" lon="9.991142748688848"><ele>201.0</ele><time>2026-05-01T02:30:36Z</time></trkpt><trkpt lat="45.58002764548061" lon="9.991556950100517"><ele>199.0</ele><time>2026-05-01T02:30:37Z</time></trkpt><trkpt lat="45.57990469340519" lon="9.991977945744058"><ele>198.5</ele><time>2026-05-01T02:30:38Z</time></trkpt><trkpt lat="45.57979229772189" lon="9.992405409283935"><ele>198.0</ele><time>2026-05-01T02:30:39Z</time></trkpt><trkpt lat="45.57968999898328" lon="9.992832874508846"><ele>198.0</ele><time>2026-05-01T02:30:40Z</time></trkpt><trkpt lat="45.57959463560463" lon="9.993259609021532"><ele>198.0</ele><time>2026-05-01T02:30:41Z</time></trkpt><trkpt lat="45.57950658049644" lon="9.993685661867577"><ele>196.5</ele><time>2026-05-01T02:30:42Z</time></trkpt><trkpt lat="45.57942614177413" lon="9.994111960134427"><ele>195.0</ele><time>2026-05-01T02:30:43Z</time></trkpt><trkpt lat="45.5793480283886" lon="9.994537975715884"><ele>195.0</ele><time>2026-05-01T02:30:44Z</time></trkpt><trkpt lat="45.57927211371145" lon="9.994962486259741"><ele>195.0</ele><time>2026-05-01T02:30:45Z</time></trkpt><trkpt lat="45.57919708887494" lon="9.995385394719346"><ele>195.0</ele><time>2026-05-01T02:30:46Z</time></trkpt><trkpt lat="45.579119507805466" lon="9.995805216522898"><ele>195.0</ele><time>2026-05-01T02:30:47Z</time></trkpt><trkpt lat="45.5790408742763" lon="9.996224870811425"><ele>194.5</ele><time>2026-05-01T02:30:48Z</time></trkpt><trkpt lat="45.5789614361556" lon="9.996646175646136"><ele>194.0</ele><time>2026-05-01T02:30:49Z</time></trkpt><trkpt lat="45.57888251458128" lon="9.997069188310437"><ele>194.0</ele><time>2026-05-01T02:30:50Z</time></trkpt><trkpt lat="45.578802266732396" lon="9.997492885195586"><ele>194.0</ele><time>2026-05-01T02:30:51.001Z</time></trkpt><trkpt lat="45.578723735517016" lon="9.997915705176752"><ele>192.0</ele><time>2026-05-01T02:30:52.001Z</time></trkpt><trkpt lat="45.5786450024176" lon="9.998339052640397"><ele>190.0</ele><time>2026-05-01T02:30:53.001Z</time></trkpt><trkpt lat="45.578568186958854" lon="9.998762595537881"><ele>190.0</ele><time>2026-05-01T02:30:54.001Z</time></trkpt><trkpt lat="45.57849110688143" lon="9.99918423051936"><ele>190.0</ele><time>2026-05-01T02:30:55.001Z</time></trkpt><trkpt lat="45.57841509026955" lon="9.999604498239941"><ele>190.0</ele><time>2026-05-01T02:30:56.001Z</time></trkpt><trkpt lat="45.57833947591987" lon="10.000024763152384"><ele>190.0</ele><time>2026-05-01T02:30:57.001Z</time></trkpt><trkpt lat="45.57826351181111" lon="10.000445676744343"><ele>189.5</ele><time>2026-05-01T02:30:58.001Z</time></trkpt><trkpt lat="45.57818758813761" lon="10.000866990177578"><ele>189.0</ele><time>2026-05-01T02:30:59.001Z</time></trkpt><trkpt lat="45.5781093334751" lon="10.001287529710392"><ele>189.0</ele><time>2026-05-01T02:31:00.001Z</time></trkpt><trkpt lat="45.57803043203154" lon="10.001710978953607"><ele>189.0</ele><time>2026-05-01T02:31:01.001Z</time></trkpt><trkpt lat="45.57795084510997" lon="10.002136217402473"><ele>188.5</ele><time>2026-05-01T02:31:02.001Z</time></trkpt><trkpt lat="45.577872015098855" lon="10.002561939135372"><ele>188.0</ele><time>2026-05-01T02:31:03.001Z</time></trkpt><trkpt lat="45.57779250553863" lon="10.002988064024917"><ele>187.0</ele><time>2026-05-01T02:31:04.001Z</time></trkpt><trkpt lat="45.577715189936285" lon="10.003415237024964"><ele>186.0</ele><time>2026-05-01T02:31:05.001Z</time></trkpt><trkpt lat="45.57763793217068" lon="10.003841624576378"><ele>186.5</ele><time>2026-05-01T02:31:06.001Z</time></trkpt><trkpt lat="45.57755900052371" lon="10.00426556711827"><ele>187.0</ele><time>2026-05-01T02:31:07.001Z</time></trkpt><trkpt lat="45.57748244140166" lon="10.00469018405332"><ele>186.0</ele><time>2026-05-01T02:31:08.001Z</time></trkpt><trkpt lat="45.57740573874623" lon="10.00511284607484"><ele>185.0</ele><time>2026-05-01T02:31:09.001Z</time></trkpt><trkpt lat="45.5773299275514" lon="10.005535128370207"><ele>184.5</ele><time>2026-05-01T02:31:10.001Z</time></trkpt><trkpt lat="45.57725357829135" lon="10.005954567090281"><ele>184.0</ele><time>2026-05-01T02:31:11.001Z</time></trkpt><trkpt lat="45.57717619288649" lon="10.006372217018763"><ele>184.5</ele><time>2026-05-01T02:31:12.001Z</time></trkpt><trkpt lat="45.577099500387106" lon="10.006788891238614"><ele>185.0</ele><time>2026-05-01T02:31:13.001Z</time></trkpt><trkpt lat="45.57702205554325" lon="10.00720905557928"><ele>183.0</ele><time>2026-05-01T02:31:14.001Z</time></trkpt><trkpt lat="45.57694490555004" lon="10.007628702350392"><ele>181.0</ele><time>2026-05-01T02:31:15.001Z</time></trkpt><trkpt lat="45.57686753633319" lon="10.008049269509996"><ele>182.0</ele><time>2026-05-01T02:31:16.001Z</time></trkpt><trkpt lat="45.57678892888482" lon="10.0084702732836"><ele>183.0</ele><time>2026-05-01T02:31:17.001Z</time></trkpt><trkpt lat="45.57671128690978" lon="10.008892313556615"><ele>183.5</ele><time>2026-05-01T02:31:18.001Z</time></trkpt><trkpt lat="45.57663494804261" lon="10.009310784124608"><ele>184.0</ele><time>2026-05-01T02:31:19.001Z</time></trkpt><trkpt lat="45.57655992199101" lon="10.009728951333908"><ele>184.5</ele><time>2026-05-01T02:31:20.001Z</time></trkpt><trkpt lat="45.576489757928556" lon="10.010150766431286"><ele>185.0</ele><time>2026-05-01T02:31:21.001Z</time></trkpt><trkpt lat="45.576420724847104" lon="10.010572629656261"><ele>184.0</ele><time>2026-05-01T02:31:22.001Z</time></trkpt><trkpt lat="45.5763511043631" lon="10.010994712287513"><ele>183.0</ele><time>2026-05-01T02:31:23.001Z</time></trkpt><trkpt lat="45.57627553700867" lon="10.01141552257173"><ele>182.0</ele><time>2026-05-01T02:31:24.001Z</time></trkpt><trkpt lat="45.576198565612806" lon="10.011831923803108"><ele>181.0</ele><time>2026-05-01T02:31:25.001Z</time></trkpt><trkpt lat="45.576120576475454" lon="10.012245846611185"><ele>180.5</ele><time>2026-05-01T02:31:26.001Z</time></trkpt><trkpt lat="45.576043419308846" lon="10.01265884176416"><ele>180.0</ele><time>2026-05-01T02:31:27.001Z</time></trkpt><trkpt lat="45.57596727238329" lon="10.013069989686022"><ele>179.5</ele><time>2026-05-01T02:31:28.001Z</time></trkpt><trkpt lat="45.57589020989865" lon="10.013480848380782"><ele>179.0</ele><time>2026-05-01T02:31:29.001Z</time></trkpt><trkpt lat="45.57581229508818" lon="10.01389433373511"><ele>179.5</ele><time>2026-05-01T02:31:30.001Z</time></trkpt><trkpt lat="45.57573458327762" lon="10.01430951180559"><ele>180.0</ele><time>2026-05-01T02:31:31.001Z</time></trkpt><trkpt lat="45.57565676863736" lon="10.014727256439551"><ele>180.5</ele><time>2026-05-01T02:31:32.001Z</time></trkpt><trkpt lat="45.57557840661969" lon="10.015146769530467"><ele>181.0</ele><time>2026-05-01T02:31:33.001Z</time></trkpt><trkpt lat="45.57550087442514" lon="10.015567376227436"><ele>181.0</ele><time>2026-05-01T02:31:34.001Z</time></trkpt><trkpt lat="45.57542271109567" lon="10.015974214521194"><ele>181.0</ele><time>2026-05-01T02:31:35.001Z</time></trkpt><trkpt lat="45.57534585865396" lon="10.016365741403446"><ele>180.5</ele><time>2026-05-01T02:31:36.001Z</time></trkpt><trkpt lat="45.57526442737034" lon="10.016771682300718"><ele>180.0</ele><time>2026-05-01T02:31:37.001Z</time></trkpt><trkpt lat="45.57517961927548" lon="10.017180481103743"><ele>179.5</ele><time>2026-05-01T02:31:38.001Z</time></trkpt><trkpt lat="45.57509324315698" lon="10.017589891174929"><ele>179.0</ele><time>2026-05-01T02:31:39.001Z</time></trkpt><trkpt lat="45.57500420107078" lon="10.018000731398015"><ele>179.0</ele><time>2026-05-01T02:31:40.001Z</time></trkpt><trkpt lat="45.57491648217134" lon="10.018413668655088"><ele>179.0</ele><time>2026-05-01T02:31:41.001Z</time></trkpt><trkpt lat="45.57482949004542" lon="10.01882784099291"><ele>179.0</ele><time>2026-05-01T02:31:42.001Z</time></trkpt><trkpt lat="45.57474303036405" lon="10.019242731960167"><ele>179.0</ele><time>2026-05-01T02:31:43.001Z</time></trkpt><trkpt lat="45.574655552003634" lon="10.019656742919718"><ele>180.0</ele><time>2026-05-01T02:31:44.001Z</time></trkpt><trkpt lat="45.574568670214454" lon="10.02007136617351"><ele>181.0</ele><time>2026-05-01T02:31:45.001Z</time></trkpt><trkpt lat="45.57448393018735" lon="10.020485545458431"><ele>180.0</ele><time>2026-05-01T02:31:46.001Z</time></trkpt><trkpt lat="45.574400443486105" lon="10.020899680493892"><ele>179.0</ele><time>2026-05-01T02:31:47.001Z</time></trkpt><trkpt lat="45.57431758529322" lon="10.021313574214812"><ele>178.5</ele><time>2026-05-01T02:31:48.001Z</time></trkpt><trkpt lat="45.574236604623025" lon="10.021728480755844"><ele>178.0</ele><time>2026-05-01T02:31:49.001Z</time></trkpt><trkpt lat="45.574157537640644" lon="10.0221437373784"><ele>178.0</ele><time>2026-05-01T02:31:50.001Z</time></trkpt><trkpt lat="45.5740768373673" lon="10.022558445575378"><ele>178.0</ele><time>2026-05-01T02:31:51.001Z</time></trkpt><trkpt lat="45.573993541460524" lon="10.022970346287186"><ele>178.5</ele><time>2026-05-01T02:31:52.001Z</time></trkpt><trkpt lat="45.573910654214146" lon="10.023382303898362"><ele>179.0</ele><time>2026-05-01T02:31:53Z</time></trkpt><trkpt lat="45.57382823150034" lon="10.023796924994752"><ele>179.0</ele><time>2026-05-01T02:31:54Z</time></trkpt><trkpt lat="45.57374611419215" lon="10.024214076640007"><ele>179.0</ele><time>2026-05-01T02:31:55Z</time></trkpt><trkpt lat="45.57366701523221" lon="10.02463508733387"><ele>179.0</ele><time>2026-05-01T02:31:56Z</time></trkpt><trkpt lat="45.57358929431903" lon="10.025059148753162"><ele>179.0</ele><time>2026-05-01T02:31:57Z</time></trkpt><trkpt lat="45.57351303784974" lon="10.025485053017698"><ele>178.5</ele><time>2026-05-01T02:31:58Z</time></trkpt><trkpt lat="45.57343625268026" lon="10.025911716566617"><ele>178.0</ele><time>2026-05-01T02:31:59Z</time></trkpt><trkpt lat="45.57335937437858" lon="10.026337724385026"><ele>178.0</ele><time>2026-05-01T02:32:00Z</time></trkpt><trkpt lat="45.57328236035438" lon="10.02676254084365"><ele>178.0</ele><time>2026-05-01T02:32:01Z</time></trkpt><trkpt lat="45.57320417096332" lon="10.027183845564549"><ele>177.5</ele><time>2026-05-01T02:32:02Z</time></trkpt><trkpt lat="45.57312764923018" lon="10.027604713393412"><ele>177.0</ele><time>2026-05-01T02:32:03Z</time></trkpt><trkpt lat="45.57305090246046" lon="10.028026562766597"><ele>177.0</ele><time>2026-05-01T02:32:04Z</time></trkpt><trkpt lat="45.57297199618943" lon="10.028447234876726"><ele>177.0</ele><time>2026-05-01T02:32:05Z</time></trkpt><trkpt lat="45.572892309503125" lon="10.028867635237734"><ele>177.5</ele><time>2026-05-01T02:32:06Z</time></trkpt><trkpt lat="45.57281231920355" lon="10.02929120830765"><ele>178.0</ele><time>2026-05-01T02:32:07Z</time></trkpt><trkpt lat="45.57273480335908" lon="10.029714439612686"><ele>178.5</ele><time>2026-05-01T02:32:08Z</time></trkpt><trkpt lat="45.57265826231182" lon="10.030139077410604"><ele>179.0</ele><time>2026-05-01T02:32:09Z</time></trkpt><trkpt lat="45.57258062652765" lon="10.03056546013711"><ele>178.5</ele><time>2026-05-01T02:32:10Z</time></trkpt><trkpt lat="45.57250314605724" lon="10.030990511723367"><ele>178.0</ele><time>2026-05-01T02:32:11Z</time></trkpt><trkpt lat="45.57242593053219" lon="10.031415163705674"><ele>177.0</ele><time>2026-05-01T02:32:12Z</time></trkpt><trkpt lat="45.57234844735465" lon="10.031839766120381"><ele>176.0</ele><time>2026-05-01T02:32:13Z</time></trkpt><trkpt lat="45.572275092620075" lon="10.03226554486243"><ele>176.0</ele><time>2026-05-01T02:32:14Z</time></trkpt><trkpt lat="45.57220540361159" lon="10.03269261659974"><ele>176.0</ele><time>2026-05-01T02:32:15Z</time></trkpt><trkpt lat="45.572135513566224" lon="10.033119092881565"><ele>176.0</ele><time>2026-05-01T02:32:16Z</time></trkpt><trkpt lat="45.572062473631796" lon="10.033545054088483"><ele>176.0</ele><time>2026-05-01T02:32:17Z</time></trkpt><trkpt lat="45.57198724752045" lon="10.033968398544694"><ele>175.5</ele><time>2026-05-01T02:32:18Z</time></trkpt><trkpt lat="45.57190887282073" lon="10.0343908952739"><ele>175.0</ele><time>2026-05-01T02:32:19Z</time></trkpt><trkpt lat="45.57183058868041" lon="10.034812157290904"><ele>174.5</ele><time>2026-05-01T02:32:20Z</time></trkpt><trkpt lat="45.57175208645072" lon="10.035233417194641"><ele>174.0</ele><time>2026-05-01T02:32:21Z</time></trkpt><trkpt lat="45.57166974223275" lon="10.035654678371277"><ele>173.5</ele><time>2026-05-01T02:32:22Z</time></trkpt><trkpt lat="45.57158867361263" lon="10.036077296393483"><ele>173.0</ele><time>2026-05-01T02:32:23Z</time></trkpt><trkpt lat="45.571510080768924" lon="10.036499244408148"><ele>174.5</ele><time>2026-05-01T02:32:24Z</time></trkpt><trkpt lat="45.571433516625746" lon="10.036921611967895"><ele>176.0</ele><time>2026-05-01T02:32:25Z</time></trkpt><trkpt lat="45.57135836847021" lon="10.037344958606175"><ele>176.0</ele><time>2026-05-01T02:32:26Z</time></trkpt><trkpt lat="45.57128403464982" lon="10.037767490689632"><ele>176.0</ele><time>2026-05-01T02:32:27Z</time></trkpt><trkpt lat="45.571208421971896" lon="10.038189884559182"><ele>175.0</ele><time>2026-05-01T02:32:28Z</time></trkpt><trkpt lat="45.571131823427706" lon="10.038611157986223"><ele>174.0</ele><time>2026-05-01T02:32:29Z</time></trkpt><trkpt lat="45.57105339047221" lon="10.039032183327619"><ele>175.0</ele><time>2026-05-01T02:32:30Z</time></trkpt><trkpt lat="45.570975695874296" lon="10.039450987566246"><ele>176.0</ele><time>2026-05-01T02:32:31Z</time></trkpt><trkpt lat="45.57089963088746" lon="10.039871017280545"><ele>176.0</ele><time>2026-05-01T02:32:32Z</time></trkpt><trkpt lat="45.57082172748622" lon="10.040292762602082"><ele>176.0</ele><time>2026-05-01T02:32:33Z</time></trkpt><trkpt lat="45.570740625650934" lon="10.040713908678264"><ele>175.5</ele><time>2026-05-01T02:32:34Z</time></trkpt><trkpt lat="45.57065452287045" lon="10.041132561324796"><ele>175.0</ele><time>2026-05-01T02:32:35Z</time></trkpt><trkpt lat="45.570565303921185" lon="10.04155190609655"><ele>174.0</ele><time>2026-05-01T02:32:36Z</time></trkpt><trkpt lat="45.57047645234331" lon="10.041971389388541"><ele>173.0</ele><time>2026-05-01T02:32:37Z</time></trkpt><trkpt lat="45.570394187788004" lon="10.042393659395199"><ele>173.5</ele><time>2026-05-01T02:32:38Z</time></trkpt><trkpt lat="45.57031863932554" lon="10.042818675053566"><ele>174.0</ele><time>2026-05-01T02:32:39Z</time></trkpt><trkpt lat="45.57024270265675" lon="10.043243712912176"><ele>173.0</ele><time>2026-05-01T02:32:40Z</time></trkpt><trkpt lat="45.5701672743073" lon="10.043661027509106"><ele>172.0</ele><time>2026-05-01T02:32:41Z</time></trkpt><trkpt lat="45.570094067617504" lon="10.044058896311627"><ele>172.5</ele><time>2026-05-01T02:32:42Z</time></trkpt><trkpt lat="45.570016994270205" lon="10.044471561729466"><ele>173.0</ele><time>2026-05-01T02:32:43Z</time></trkpt><trkpt lat="45.569937980874485" lon="10.044889799628926"><ele>172.5</ele><time>2026-05-01T02:32:44Z</time></trkpt><trkpt lat="45.569860086799956" lon="10.045309962695866"><ele>172.0</ele><time>2026-05-01T02:32:45Z</time></trkpt><trkpt lat="45.56978189131336" lon="10.045731936916413"><ele>172.0</ele><time>2026-05-01T02:32:46Z</time></trkpt><trkpt lat="45.56970298179602" lon="10.046153388751303"><ele>172.0</ele><time>2026-05-01T02:32:47Z</time></trkpt><trkpt lat="45.56962387829737" lon="10.0465736638637"><ele>172.5</ele><time>2026-05-01T02:32:48Z</time></trkpt><trkpt lat="45.56954576754928" lon="10.046994259056966"><ele>173.0</ele><time>2026-05-01T02:32:49Z</time></trkpt><trkpt lat="45.569470869560185" lon="10.047416779261322"><ele>172.5</ele><time>2026-05-01T02:32:50Z</time></trkpt><trkpt lat="45.569397776773826" lon="10.047842686780626"><ele>172.0</ele><time>2026-05-01T02:32:51Z</time></trkpt><trkpt lat="45.569328612111576" lon="10.0482708455652"><ele>172.0</ele><time>2026-05-01T02:32:52Z</time></trkpt><trkpt lat="45.56926000463374" lon="10.048698721471988"><ele>172.0</ele><time>2026-05-01T02:32:53Z</time></trkpt><trkpt lat="45.569190276653245" lon="10.04912673681869"><ele>171.5</ele><time>2026-05-01T02:32:54Z</time></trkpt><trkpt lat="45.56911885319685" lon="10.049553646964336"><ele>171.0</ele><time>2026-05-01T02:32:55Z</time></trkpt><trkpt lat="45.56904222155128" lon="10.049979139257074"><ele>171.0</ele><time>2026-05-01T02:32:56Z</time></trkpt><trkpt lat="45.56895914706863" lon="10.050401380358002"><ele>171.0</ele><time>2026-05-01T02:32:57Z</time></trkpt><trkpt lat="45.568871162005046" lon="10.050821375056353"><ele>171.0</ele><time>2026-05-01T02:32:58Z</time></trkpt><trkpt lat="45.568779672432306" lon="10.051240437219628"><ele>171.0</ele><time>2026-05-01T02:32:59Z</time></trkpt><trkpt lat="45.56869082216686" lon="10.051659024042625"><ele>171.5</ele><time>2026-05-01T02:33:00Z</time></trkpt><trkpt lat="45.56860818704159" lon="10.052079980906239"><ele>172.0</ele><time>2026-05-01T02:33:01.001Z</time></trkpt><trkpt lat="45.568531920596676" lon="10.052502047987725"><ele>171.0</ele><time>2026-05-01T02:33:02.001Z</time></trkpt><trkpt lat="45.56845679620335" lon="10.052924752680463"><ele>170.0</ele><time>2026-05-01T02:33:03.001Z</time></trkpt><trkpt lat="45.56837953814765" lon="10.053344987888805"><ele>169.5</ele><time>2026-05-01T02:33:04.001Z</time></trkpt><trkpt lat="45.56830155890274" lon="10.05376569588599"><ele>169.0</ele><time>2026-05-01T02:33:05.001Z</time></trkpt><trkpt lat="45.56822371835623" lon="10.054185969855478"><ele>169.0</ele><time>2026-05-01T02:33:06.001Z</time></trkpt><trkpt lat="45.568145662110695" lon="10.054607135937085"><ele>169.0</ele><time>2026-05-01T02:33:07.001Z</time></trkpt><trkpt lat="45.56806840504405" lon="10.0550288305027"><ele>169.5</ele><time>2026-05-01T02:33:08.001Z</time></trkpt><trkpt lat="45.56799101663389" lon="10.055449953848226"><ele>170.0</ele><time>2026-05-01T02:33:09.001Z</time></trkpt><trkpt lat="45.56791296983022" lon="10.05587137092578"><ele>168.0</ele><time>2026-05-01T02:33:10.001Z</time></trkpt><trkpt lat="45.56783613017364" lon="10.05629455022756"><ele>166.0</ele><time>2026-05-01T02:33:11.001Z</time></trkpt><trkpt lat="45.5677591779027" lon="10.056716841761242"><ele>166.0</ele><time>2026-05-01T02:33:12.001Z</time></trkpt><trkpt lat="45.56768227311405" lon="10.057139737579403"><ele>166.0</ele><time>2026-05-01T02:33:13.001Z</time></trkpt><trkpt lat="45.5676053647077" lon="10.057563241112323"><ele>166.5</ele><time>2026-05-01T02:33:14.001Z</time></trkpt><trkpt lat="45.56752763310103" lon="10.057986301287093"><ele>167.0</ele><time>2026-05-01T02:33:15.001Z</time></trkpt><trkpt lat="45.56744869335254" lon="10.058408162918601"><ele>167.5</ele><time>2026-05-01T02:33:16.001Z</time></trkpt><trkpt lat="45.56736881270806" lon="10.05883060799218"><ele>168.0</ele><time>2026-05-01T02:33:17.001Z</time></trkpt><trkpt lat="45.5672882986819" lon="10.059249512680042"><ele>167.0</ele><time>2026-05-01T02:33:18.001Z</time></trkpt><trkpt lat="45.56720781131639" lon="10.059667901852325"><ele>166.0</ele><time>2026-05-01T02:33:19.001Z</time></trkpt><trkpt lat="45.567127883782625" lon="10.06008632907146"><ele>166.0</ele><time>2026-05-01T02:33:20.001Z</time></trkpt><trkpt lat="45.56705023908137" lon="10.060506269641007"><ele>166.0</ele><time>2026-05-01T02:33:21.001Z</time></trkpt><trkpt lat="45.56697361667085" lon="10.060927081297182"><ele>166.0</ele><time>2026-05-01T02:33:22.001Z</time></trkpt><trkpt lat="45.566897740381116" lon="10.061348176398328"><ele>166.0</ele><time>2026-05-01T02:33:23.001Z</time></trkpt><trkpt lat="45.56682197372848" lon="10.061770361328874"><ele>165.5</ele><time>2026-05-01T02:33:24.001Z</time></trkpt><trkpt lat="45.56674518586212" lon="10.062191908791334"><ele>165.0</ele><time>2026-05-01T02:33:25.001Z</time></trkpt><trkpt lat="45.56666730875701" lon="10.06261349572917"><ele>164.5</ele><time>2026-05-01T02:33:26.001Z</time></trkpt><trkpt lat="45.56659008195776" lon="10.063033600172577"><ele>164.0</ele><time>2026-05-01T02:33:27.001Z</time></trkpt><trkpt lat="45.566513068522475" lon="10.063454214076138"><ele>164.0</ele><time>2026-05-01T02:33:28.001Z</time></trkpt><trkpt lat="45.566435986384654" lon="10.063874674994958"><ele>164.0</ele><time>2026-05-01T02:33:29.001Z</time></trkpt><trkpt lat="45.56635871194507" lon="10.064293711863236"><ele>164.0</ele><time>2026-05-01T02:33:30.001Z</time></trkpt><trkpt lat="45.56628298319526" lon="10.064703634447909"><ele>164.0</ele><time>2026-05-01T02:33:31.001Z</time></trkpt><trkpt lat="45.56620993121813" lon="10.06510186790366"><ele>164.5</ele><time>2026-05-01T02:33:32.001Z</time></trkpt><trkpt lat="45.56613671489826" lon="10.065493576511008"><ele>165.0</ele><time>2026-05-01T02:33:33.001Z</time></trkpt><trkpt lat="45.5660603949141" lon="10.065897199681558"><ele>165.0</ele><time>2026-05-01T02:33:34.001Z</time></trkpt><trkpt lat="45.565982370719816" lon="10.066304840355484"><ele>165.0</ele><time>2026-05-01T02:33:35.001Z</time></trkpt><trkpt lat="45.56590468973788" lon="10.066719940134963"><ele>164.0</ele><time>2026-05-01T02:33:36.001Z</time></trkpt><trkpt lat="45.565827032751926" lon="10.067137926240708"><ele>163.0</ele><time>2026-05-01T02:33:37.001Z</time></trkpt><trkpt lat="45.565749526308224" lon="10.067556658833478"><ele>163.0</ele><time>2026-05-01T02:33:38.001Z</time></trkpt><trkpt lat="45.56567173835038" lon="10.067978033836187"><ele>163.0</ele><time>2026-05-01T02:33:39.001Z</time></trkpt><trkpt lat="45.56559346980797" lon="10.068398666998112"><ele>163.0</ele><time>2026-05-01T02:33:40.001Z</time></trkpt><trkpt lat="45.565516411855285" lon="10.068822277149101"><ele>163.0</ele><time>2026-05-01T02:33:41.001Z</time></trkpt><trkpt lat="45.565439047979474" lon="10.069246776512387"><ele>163.5</ele><time>2026-05-01T02:33:42.001Z</time></trkpt><trkpt lat="45.5653623770443" lon="10.06967117471062"><ele>164.0</ele><time>2026-05-01T02:33:43.001Z</time></trkpt><trkpt lat="45.565284788391274" lon="10.070094400706152"><ele>163.0</ele><time>2026-05-01T02:33:44.001Z</time></trkpt><trkpt lat="45.56520838909347" lon="10.070517337985846"><ele>162.0</ele><time>2026-05-01T02:33:45.001Z</time></trkpt><trkpt lat="45.565130216700744" lon="10.070940987321869"><ele>162.0</ele><time>2026-05-01T02:33:46.001Z</time></trkpt><trkpt lat="45.565052188124476" lon="10.071363032112744"><ele>162.0</ele><time>2026-05-01T02:33:47.001Z</time></trkpt><trkpt lat="45.56497311017357" lon="10.071786920079376"><ele>162.0</ele><time>2026-05-01T02:33:48.001Z</time></trkpt><trkpt lat="45.564895582802365" lon="10.072213364360257"><ele>162.0</ele><time>2026-05-01T02:33:49.001Z</time></trkpt><trkpt lat="45.56481542089451" lon="10.072638906216994"><ele>161.5</ele><time>2026-05-01T02:33:50.001Z</time></trkpt><trkpt lat="45.56473899700723" lon="10.073065076153998"><ele>161.0</ele><time>2026-05-01T02:33:51.001Z</time></trkpt><trkpt lat="45.56466126279105" lon="10.073490438036107"><ele>160.5</ele><time>2026-05-01T02:33:52.001Z</time></trkpt><trkpt lat="45.56458289971662" lon="10.07391517510846"><ele>160.0</ele><time>2026-05-01T02:33:53.001Z</time></trkpt><trkpt lat="45.564504421439835" lon="10.074336945198915"><ele>160.0</ele><time>2026-05-01T02:33:54.001Z</time></trkpt><trkpt lat="45.564425698047366" lon="10.074757663419721"><ele>160.0</ele><time>2026-05-01T02:33:55.001Z</time></trkpt><trkpt lat="45.56434749962763" lon="10.075177440550032"><ele>159.5</ele><time>2026-05-01T02:33:56.001Z</time></trkpt><trkpt lat="45.56427085937257" lon="10.075596968384117"><ele>159.0</ele><time>2026-05-01T02:33:57.001Z</time></trkpt><trkpt lat="45.56419263428316" lon="10.076016177790434"><ele>158.5</ele><time>2026-05-01T02:33:58.001Z</time></trkpt><trkpt lat="45.56411542851202" lon="10.07643384881875"><ele>158.0</ele><time>2026-05-01T02:33:59Z</time></trkpt><trkpt lat="45.5640369171421" lon="10.076851734297648"><ele>159.0</ele><time>2026-05-01T02:34:00Z</time></trkpt><trkpt lat="45.563958467573954" lon="10.077270863253323"><ele>160.0</ele><time>2026-05-01T02:34:01Z</time></trkpt><trkpt lat="45.563880426785495" lon="10.07769223681138"><ele>160.0</ele><time>2026-05-01T02:34:02Z</time></trkpt><trkpt lat="45.56380047877211" lon="10.078114410029777"><ele>160.0</ele><time>2026-05-01T02:34:03Z</time></trkpt><trkpt lat="45.56372187485814" lon="10.078538243031577"><ele>157.5</ele><time>2026-05-01T02:34:04Z</time></trkpt><trkpt lat="45.56364310337972" lon="10.07896297287992"><ele>155.0</ele><time>2026-05-01T02:34:05Z</time></trkpt><trkpt lat="45.563564815366256" lon="10.079389547833625"><ele>155.0</ele><time>2026-05-01T02:34:06Z</time></trkpt><trkpt lat="45.56348670436583" lon="10.079816814916471"><ele>155.0</ele><time>2026-05-01T02:34:07Z</time></trkpt><trkpt lat="45.56341061308345" lon="10.080242581906049"><ele>155.0</ele><time>2026-05-01T02:34:08Z</time></trkpt><trkpt lat="45.56333208443741" lon="10.080668741122148"><ele>155.0</ele><time>2026-05-01T02:34:09Z</time></trkpt><trkpt lat="45.56325109215988" lon="10.081092020592553"><ele>155.5</ele><time>2026-05-01T02:34:10Z</time></trkpt><trkpt lat="45.56317305467187" lon="10.081515708161483"><ele>156.0</ele><time>2026-05-01T02:34:11Z</time></trkpt><trkpt lat="45.563094892150175" lon="10.081938851898915"><ele>156.0</ele><time>2026-05-01T02:34:12Z</time></trkpt><trkpt lat="45.56301544483281" lon="10.08236227925726"><ele>156.0</ele><time>2026-05-01T02:34:13Z</time></trkpt><trkpt lat="45.56293729968091" lon="10.08278672794133"><ele>156.0</ele><time>2026-05-01T02:34:14Z</time></trkpt><trkpt lat="45.562856030271554" lon="10.083209297443803"><ele>156.0</ele><time>2026-05-01T02:34:15Z</time></trkpt><trkpt lat="45.56277017618343" lon="10.083630611073213"><ele>156.0</ele><time>2026-05-01T02:34:16Z</time></trkpt><trkpt lat="45.56268229883626" lon="10.08405007582667"><ele>156.0</ele><time>2026-05-01T02:34:17Z</time></trkpt><trkpt lat="45.56259554384778" lon="10.084469835229777"><ele>156.0</ele><time>2026-05-01T02:34:18Z</time></trkpt><trkpt lat="45.56250580138687" lon="10.08488753282559"><ele>156.0</ele><time>2026-05-01T02:34:19Z</time></trkpt><trkpt lat="45.56241245549626" lon="10.085304652524675"><ele>155.0</ele><time>2026-05-01T02:34:20Z</time></trkpt><trkpt lat="45.562318621563854" lon="10.085722862081159"><ele>154.0</ele><time>2026-05-01T02:34:21Z</time></trkpt><trkpt lat="45.56221709340993" lon="10.086136455999169"><ele>152.5</ele><time>2026-05-01T02:34:22Z</time></trkpt><trkpt lat="45.56211296179331" lon="10.086549885502198"><ele>151.0</ele><time>2026-05-01T02:34:23Z</time></trkpt><trkpt lat="45.56200681804446" lon="10.08696178249906"><ele>151.0</ele><time>2026-05-01T02:34:24Z</time></trkpt><trkpt lat="45.56189708038646" lon="10.087371677295327"><ele>151.0</ele><time>2026-05-01T02:34:25Z</time></trkpt><trkpt lat="45.5617823915291" lon="10.087777898523935"><ele>151.5</ele><time>2026-05-01T02:34:26Z</time></trkpt><trkpt lat="45.5616658731296" lon="10.088183696820806"><ele>152.0</ele><time>2026-05-01T02:34:27Z</time></trkpt><trkpt lat="45.56154495315975" lon="10.088587267796074"><ele>152.0</ele><time>2026-05-01T02:34:28Z</time></trkpt><trkpt lat="45.561420142643826" lon="10.08898938567451"><ele>152.0</ele><time>2026-05-01T02:34:29Z</time></trkpt><trkpt lat="45.56129265473245" lon="10.089390427975577"><ele>151.0</ele><time>2026-05-01T02:34:30Z</time></trkpt><trkpt lat="45.56116061942223" lon="10.089789105609004"><ele>150.0</ele><time>2026-05-01T02:34:31Z</time></trkpt><trkpt lat="45.5610275841674" lon="10.090185182937757"><ele>149.0</ele><time>2026-05-01T02:34:32Z</time></trkpt><trkpt lat="45.5608887991211" lon="10.090579156759448"><ele>148.0</ele><time>2026-05-01T02:34:33Z</time></trkpt><trkpt lat="45.56075214178791" lon="10.09097291548058"><ele>148.0</ele><time>2026-05-01T02:34:34Z</time></trkpt><trkpt lat="45.560607606667354" lon="10.09136099383843"><ele>148.0</ele><time>2026-05-01T02:34:35Z</time></trkpt><trkpt lat="45.56046766302297" lon="10.091747964842796"><ele>148.0</ele><time>2026-05-01T02:34:36Z</time></trkpt><trkpt lat="45.56032842465607" lon="10.092135749933407"><ele>148.0</ele><time>2026-05-01T02:34:37Z</time></trkpt><trkpt lat="45.56018361867515" lon="10.092523659538424"><ele>146.5</ele><time>2026-05-01T02:34:38Z</time></trkpt><trkpt lat="45.560032735620844" lon="10.092908660355063"><ele>145.0</ele><time>2026-05-01T02:34:39Z</time></trkpt><trkpt lat="45.559877446687835" lon="10.093290505178654"><ele>144.5</ele><time>2026-05-01T02:34:40Z</time></trkpt><trkpt lat="45.55971539816074" lon="10.093668817079994"><ele>144.0</ele><time>2026-05-01T02:34:41Z</time></trkpt><trkpt lat="45.55954595434261" lon="10.09403916095453"><ele>144.5</ele><time>2026-05-01T02:34:42Z</time></trkpt><trkpt lat="45.55937001281318" lon="10.094404918695782"><ele>145.0</ele><time>2026-05-01T02:34:43Z</time></trkpt><trkpt lat="45.559190183349074" lon="10.094766760187854"><ele>145.0</ele><time>2026-05-01T02:34:44Z</time></trkpt><trkpt lat="45.55900853118554" lon="10.095127032986296"><ele>145.0</ele><time>2026-05-01T02:34:45Z</time></trkpt><trkpt lat="45.558828853183186" lon="10.095488520071674"><ele>144.5</ele><time>2026-05-01T02:34:46Z</time></trkpt><trkpt lat="45.55865068090869" lon="10.09584950780619"><ele>144.0</ele><time>2026-05-01T02:34:47Z</time></trkpt><trkpt lat="45.55847509206229" lon="10.096209305180714"><ele>144.0</ele><time>2026-05-01T02:34:48Z</time></trkpt><trkpt lat="45.55829799999503" lon="10.09656815553924"><ele>144.0</ele><time>2026-05-01T02:34:49Z</time></trkpt><trkpt lat="45.558126538435836" lon="10.096916006479608"><ele>143.0</ele><time>2026-05-01T02:34:50Z</time></trkpt><trkpt lat="45.557958393250864" lon="10.09725651410672"><ele>142.0</ele><time>2026-05-01T02:34:51Z</time></trkpt><trkpt lat="45.557783798896914" lon="10.097614057470468"><ele>142.0</ele><time>2026-05-01T02:34:52Z</time></trkpt><trkpt lat="45.55760849495842" lon="10.09797826411832"><ele>142.0</ele><time>2026-05-01T02:34:53Z</time></trkpt><trkpt lat="45.55743269686612" lon="10.098345781463735"><ele>141.5</ele><time>2026-05-01T02:34:54Z</time></trkpt><trkpt lat="45.55725566143887" lon="10.098713770978907"><ele>141.0</ele><time>2026-05-01T02:34:55Z</time></trkpt><trkpt lat="45.557078878606134" lon="10.09907913083257"><ele>140.0</ele><time>2026-05-01T02:34:56Z</time></trkpt><trkpt lat="45.55690234360935" lon="10.09944278145323"><ele>139.0</ele><time>2026-05-01T02:34:57Z</time></trkpt><trkpt lat="45.55672652425151" lon="10.099805266972874"><ele>140.0</ele><time>2026-05-01T02:34:58Z</time></trkpt><trkpt lat="45.55655191403323" lon="10.100167270030003"><ele>141.0</ele><time>2026-05-01T02:34:59Z</time></trkpt><trkpt lat="45.55637665219534" lon="10.100527383023284"><ele>139.0</ele><time>2026-05-01T02:35:00Z</time></trkpt><trkpt lat="45.556201490686114" lon="10.100886876761562"><ele>137.0</ele><time>2026-05-01T02:35:01Z</time></trkpt><trkpt lat="45.55602693107493" lon="10.101248514620794"><ele>137.0</ele><time>2026-05-01T02:35:02Z</time></trkpt><trkpt lat="45.555852311661994" lon="10.101610148256897"><ele>137.0</ele><time>2026-05-01T02:35:03Z</time></trkpt><trkpt lat="45.5556774276305" lon="10.101971918172692"><ele>137.0</ele><time>2026-05-01T02:35:04Z</time></trkpt><trkpt lat="45.555500574875346" lon="10.102333706928837"><ele>137.0</ele><time>2026-05-01T02:35:05Z</time></trkpt><trkpt lat="45.55532287626676" lon="10.102695893209543"><ele>138.0</ele><time>2026-05-01T02:35:06Z</time></trkpt><trkpt lat="45.55514416565197" lon="10.103059439380011"><ele>139.0</ele><time>2026-05-01T02:35:07Z</time></trkpt><trkpt lat="45.554966350140205" lon="10.103424653337285"><ele>139.0</ele><time>2026-05-01T02:35:08Z</time></trkpt><trkpt lat="45.55479012143788" lon="10.103792160362625"><ele>139.0</ele><time>2026-05-01T02:35:09Z</time></trkpt><trkpt lat="45.55461289502543" lon="10.104160006721738"><ele>138.0</ele><time>2026-05-01T02:35:10Z</time></trkpt><trkpt lat="45.55443479341008" lon="10.10452899744694"><ele>137.0</ele><time>2026-05-01T02:35:11Z</time></trkpt><trkpt lat="45.554254318330244" lon="10.104898245820925"><ele>137.5</ele><time>2026-05-01T02:35:12.001Z</time></trkpt><trkpt lat="45.55407339289273" lon="10.105266091046632"><ele>138.0</ele><time>2026-05-01T02:35:13.001Z</time></trkpt><trkpt lat="45.55389099172931" lon="10.10563514189373"><ele>138.0</ele><time>2026-05-01T02:35:14.001Z</time></trkpt><trkpt lat="45.55370860911909" lon="10.106006613998753"><ele>138.0</ele><time>2026-05-01T02:35:15.001Z</time></trkpt><trkpt lat="45.55352475778295" lon="10.106378282010924"><ele>137.5</ele><time>2026-05-01T02:35:16.001Z</time></trkpt><trkpt lat="45.55333769494309" lon="10.106750126567213"><ele>137.0</ele><time>2026-05-01T02:35:17.001Z</time></trkpt><trkpt lat="45.55315014666061" lon="10.107119813259937"><ele>137.0</ele><time>2026-05-01T02:35:18.001Z</time></trkpt><trkpt lat="45.55296084428281" lon="10.107489959971755"><ele>137.0</ele><time>2026-05-01T02:35:19.001Z</time></trkpt><trkpt lat="45.55277108154516" lon="10.107860426632879"><ele>137.0</ele><time>2026-05-01T02:35:20.001Z</time></trkpt><trkpt lat="45.552581485181385" lon="10.108231740553512"><ele>137.0</ele><time>2026-05-01T02:35:21.001Z</time></trkpt><trkpt lat="45.55239366579172" lon="10.108601939188556"><ele>137.5</ele><time>2026-05-01T02:35:22.001Z</time></trkpt><trkpt lat="45.55220678157172" lon="10.108969901529745"><ele>138.0</ele><time>2026-05-01T02:35:23.001Z</time></trkpt><trkpt lat="45.552020115488325" lon="10.109338253489698"><ele>137.0</ele><time>2026-05-01T02:35:24.001Z</time></trkpt><trkpt lat="45.55183232621922" lon="10.109706201724974"><ele>136.0</ele><time>2026-05-01T02:35:25.001Z</time></trkpt><trkpt lat="45.5516444300422" lon="10.110072268784801"><ele>136.0</ele><time>2026-05-01T02:35:26.001Z</time></trkpt><trkpt lat="45.551456640188796" lon="10.11043856950611"><ele>136.0</ele><time>2026-05-01T02:35:27.001Z</time></trkpt><trkpt lat="45.55127035766398" lon="10.110806332950196"><ele>134.5</ele><time>2026-05-01T02:35:28.001Z</time></trkpt><trkpt lat="45.55108431900635" lon="10.111172971878517"><ele>133.0</ele><time>2026-05-01T02:35:29.001Z</time></trkpt><trkpt lat="45.55089877505838" lon="10.111537422764945"><ele>133.5</ele><time>2026-05-01T02:35:30.001Z</time></trkpt><trkpt lat="45.55071318685162" lon="10.111901773299216"><ele>134.0</ele><time>2026-05-01T02:35:31.001Z</time></trkpt><trkpt lat="45.55052753977983" lon="10.112263638909297"><ele>134.0</ele><time>2026-05-01T02:35:32.001Z</time></trkpt><trkpt lat="45.550342168352834" lon="10.112623577593803"><ele>134.0</ele><time>2026-05-01T02:35:33.001Z</time></trkpt><trkpt lat="45.550158024099964" lon="10.112983198867935"><ele>134.5</ele><time>2026-05-01T02:35:34.001Z</time></trkpt><trkpt lat="45.54997647542477" lon="10.113343668541921"><ele>135.0</ele><time>2026-05-01T02:35:35.001Z</time></trkpt><trkpt lat="45.549795445319965" lon="10.113704932208547"><ele>135.0</ele><time>2026-05-01T02:35:36.001Z</time></trkpt><trkpt lat="45.54961517079225" lon="10.114063307259004"><ele>135.0</ele><time>2026-05-01T02:35:37.001Z</time></trkpt><trkpt lat="45.54943490588767" lon="10.114419361651693"><ele>135.0</ele><time>2026-05-01T02:35:38.001Z</time></trkpt><trkpt lat="45.549253291264506" lon="10.11477344962055"><ele>135.0</ele><time>2026-05-01T02:35:39.001Z</time></trkpt><trkpt lat="45.5490716833704" lon="10.115125733598001"><ele>134.5</ele><time>2026-05-01T02:35:40.001Z</time></trkpt><trkpt lat="45.54889001632646" lon="10.115477912106345"><ele>134.0</ele><time>2026-05-01T02:35:41.001Z</time></trkpt><trkpt lat="45.54870973029613" lon="10.115829751343604"><ele>133.0</ele><time>2026-05-01T02:35:42.001Z</time></trkpt><trkpt lat="45.54853017413316" lon="10.116183740982736"><ele>132.0</ele><time>2026-05-01T02:35:43.001Z</time></trkpt><trkpt lat="45.548350647011226" lon="10.116538111832432"><ele>133.0</ele><time>2026-05-01T02:35:44.001Z</time></trkpt><trkpt lat="45.54817138712244" lon="10.116890745209759"><ele>134.0</ele><time>2026-05-01T02:35:45.001Z</time></trkpt><trkpt lat="45.547990478811926" lon="10.117243214432984"><ele>133.5</ele><time>2026-05-01T02:35:46.001Z</time></trkpt><trkpt lat="45.54780833634038" lon="10.117596558331895"><ele>133.0</ele><time>2026-05-01T02:35:47.001Z</time></trkpt><trkpt lat="45.54762596946648" lon="10.117951434328608"><ele>133.5</ele><time>2026-05-01T02:35:48.001Z</time></trkpt><trkpt lat="45.54744295136739" lon="10.118308758686295"><ele>134.0</ele><time>2026-05-01T02:35:49.001Z</time></trkpt><trkpt lat="45.547261678768166" lon="10.118669264566035"><ele>134.0</ele><time>2026-05-01T02:35:50.001Z</time></trkpt><trkpt lat="45.54708154725255" lon="10.119032760271912"><ele>134.0</ele><time>2026-05-01T02:35:51.001Z</time></trkpt><trkpt lat="45.54690102889867" lon="10.11939806709047"><ele>132.5</ele><time>2026-05-01T02:35:52.001Z</time></trkpt><trkpt lat="45.546722060922065" lon="10.119765640908518"><ele>131.0</ele><time>2026-05-01T02:35:53.001Z</time></trkpt><trkpt lat="45.546545832493614" lon="10.12013851261824"><ele>130.5</ele><time>2026-05-01T02:35:54.001Z</time></trkpt><trkpt lat="45.54637243672862" lon="10.120514294996212"><ele>130.0</ele><time>2026-05-01T02:35:55.001Z</time></trkpt><trkpt lat="45.54620381857276" lon="10.120893921015961"><ele>129.0</ele><time>2026-05-01T02:35:56.001Z</time></trkpt><trkpt lat="45.546039076487915" lon="10.121275729492949"><ele>128.0</ele><time>2026-05-01T02:35:57.001Z</time></trkpt><trkpt lat="45.54587459343575" lon="10.121657663910685"><ele>127.5</ele><time>2026-05-01T02:35:58.001Z</time></trkpt><trkpt lat="45.54571031096903" lon="10.122039401699583"><ele>127.0</ele><time>2026-05-01T02:35:59.001Z</time></trkpt><trkpt lat="45.54554649933496" lon="10.122412394016308"><ele>127.0</ele><time>2026-05-01T02:36:00.001Z</time></trkpt><trkpt lat="45.54538537982924" lon="10.1227726146295"><ele>127.0</ele><time>2026-05-01T02:36:01.001Z</time></trkpt><trkpt lat="45.54521642932872" lon="10.123146251476376"><ele>126.0</ele><time>2026-05-01T02:36:02.001Z</time></trkpt><trkpt lat="45.54504541103237" lon="10.123524529570757"><ele>125.0</ele><time>2026-05-01T02:36:03.001Z</time></trkpt><trkpt lat="45.54487357674037" lon="10.123904156688546"><ele>125.0</ele><time>2026-05-01T02:36:04.001Z</time></trkpt><trkpt lat="45.54469912287168" lon="10.124282358637139"><ele>125.0</ele><time>2026-05-01T02:36:05Z</time></trkpt><trkpt lat="45.54452469769125" lon="10.124656864047603"><ele>124.5</ele><time>2026-05-01T02:36:06Z</time></trkpt><trkpt lat="45.54435012783959" lon="10.125029642562994"><ele>124.0</ele><time>2026-05-01T02:36:07Z</time></trkpt><trkpt lat="45.544176336005414" lon="10.125401753334513"><ele>123.5</ele><time>2026-05-01T02:36:08Z</time></trkpt><trkpt lat="45.544000838870254" lon="10.12577129008474"><ele>123.0</ele><time>2026-05-01T02:36:09Z</time></trkpt><trkpt lat="45.54382293698194" lon="10.126138469221203"><ele>124.5</ele><time>2026-05-01T02:36:10Z</time></trkpt><trkpt lat="45.543644266389556" lon="10.12650568068379"><ele>126.0</ele><time>2026-05-01T02:36:11Z</time></trkpt><trkpt lat="45.54346689210278" lon="10.126875883988907"><ele>126.0</ele><time>2026-05-01T02:36:12Z</time></trkpt><trkpt lat="45.5432877771538" lon="10.12724442615921"><ele>126.0</ele><time>2026-05-01T02:36:13Z</time></trkpt><trkpt lat="45.54310806797063" lon="10.127611170416674"><ele>125.0</ele><time>2026-05-01T02:36:14Z</time></trkpt><trkpt lat="45.542926556290205" lon="10.127976530838449"><ele>124.0</ele><time>2026-05-01T02:36:15Z</time></trkpt><trkpt lat="45.54274341644972" lon="10.128343974982174"><ele>123.5</ele><time>2026-05-01T02:36:16Z</time></trkpt><trkpt lat="45.54256109557354" lon="10.128711166089895"><ele>123.0</ele><time>2026-05-01T02:36:17Z</time></trkpt><trkpt lat="45.54237962620251" lon="10.129077692029718"><ele>123.0</ele><time>2026-05-01T02:36:18Z</time></trkpt><trkpt lat="45.54219768978837" lon="10.129444205189058"><ele>123.0</ele><time>2026-05-01T02:36:19Z</time></trkpt><trkpt lat="45.54201644851161" lon="10.129810047109306"><ele>123.0</ele><time>2026-05-01T02:36:20Z</time></trkpt><trkpt lat="45.54183698165584" lon="10.13017468222843"><ele>123.0</ele><time>2026-05-01T02:36:21Z</time></trkpt><trkpt lat="45.54165963390903" lon="10.130538808444376"><ele>122.0</ele><time>2026-05-01T02:36:22Z</time></trkpt><trkpt lat="45.54148244075386" lon="10.130900344924129"><ele>121.0</ele><time>2026-05-01T02:36:23Z</time></trkpt><trkpt lat="45.541306015078504" lon="10.131258463220318"><ele>122.0</ele><time>2026-05-01T02:36:24Z</time></trkpt><trkpt lat="45.54113147054626" lon="10.131615585657228"><ele>123.0</ele><time>2026-05-01T02:36:25Z</time></trkpt><trkpt lat="45.54095736079524" lon="10.131973597463652"><ele>123.0</ele><time>2026-05-01T02:36:26Z</time></trkpt><trkpt lat="45.5407837810864" lon="10.1323309152803"><ele>123.0</ele><time>2026-05-01T02:36:27Z</time></trkpt><trkpt lat="45.540609020715245" lon="10.132688481094288"><ele>123.0</ele><time>2026-05-01T02:36:28Z</time></trkpt><trkpt lat="45.54043336591484" lon="10.133045306161764"><ele>123.0</ele><time>2026-05-01T02:36:29Z</time></trkpt><trkpt lat="45.5402536025901" lon="10.133398374695881"><ele>122.0</ele><time>2026-05-01T02:36:30Z</time></trkpt><trkpt lat="45.54006733804627" lon="10.133745896982013"><ele>121.0</ele><time>2026-05-01T02:36:31Z</time></trkpt><trkpt lat="45.5398791023426" lon="10.134093511367656"><ele>121.0</ele><time>2026-05-01T02:36:32Z</time></trkpt><trkpt lat="45.53969658889531" lon="10.134446619480679"><ele>121.0</ele><time>2026-05-01T02:36:33Z</time></trkpt><trkpt lat="45.53951798490232" lon="10.134803765196885"><ele>122.0</ele><time>2026-05-01T02:36:34Z</time></trkpt><trkpt lat="45.53934294910044" lon="10.135162989492995"><ele>123.0</ele><time>2026-05-01T02:36:35Z</time></trkpt><trkpt lat="45.539169271467536" lon="10.135522034856967"><ele>122.5</ele><time>2026-05-01T02:36:36Z</time></trkpt><trkpt lat="45.5389954761864" lon="10.135879847908683"><ele>122.0</ele><time>2026-05-01T02:36:37Z</time></trkpt><trkpt lat="45.53882183054729" lon="10.13623494858043"><ele>121.5</ele><time>2026-05-01T02:36:38Z</time></trkpt><trkpt lat="45.53864633246467" lon="10.136584663685358"><ele>121.0</ele><time>2026-05-01T02:36:39Z</time></trkpt><trkpt lat="45.53847234008191" lon="10.136933240590123"><ele>121.0</ele><time>2026-05-01T02:36:40Z</time></trkpt><trkpt lat="45.53830059823087" lon="10.137282480286316"><ele>121.0</ele><time>2026-05-01T02:36:41Z</time></trkpt><trkpt lat="45.5381284233401" lon="10.13762992936133"><ele>120.0</ele><time>2026-05-01T02:36:42Z</time></trkpt><trkpt lat="45.53795566687586" lon="10.137977524312687"><ele>119.0</ele><time>2026-05-01T02:36:43Z</time></trkpt><trkpt lat="45.537784030697395" lon="10.138323992702897"><ele>118.5</ele><time>2026-05-01T02:36:44Z</time></trkpt><trkpt lat="45.5376120570178" lon="10.138669423909723"><ele>118.0</ele><time>2026-05-01T02:36:45Z</time></trkpt><trkpt lat="45.537440072609854" lon="10.13901424995258"><ele>118.0</ele><time>2026-05-01T02:36:46Z</time></trkpt><trkpt lat="45.53727027823601" lon="10.139357629330377"><ele>118.0</ele><time>2026-05-01T02:36:47Z</time></trkpt><trkpt lat="45.537102317169236" lon="10.139700685421484"><ele>118.5</ele><time>2026-05-01T02:36:48Z</time></trkpt><trkpt lat="45.53693478014543" lon="10.140042333824981"><ele>119.0</ele><time>2026-05-01T02:36:49Z</time></trkpt><trkpt lat="45.53677486513859" lon="10.140371054734045"><ele>119.0</ele><time>2026-05-01T02:36:50Z</time></trkpt><trkpt lat="45.53661334455891" lon="10.140713991591351"><ele>119.0</ele><time>2026-05-01T02:36:51Z</time></trkpt><trkpt lat="45.53645537002386" lon="10.141072288905745"><ele>118.5</ele><time>2026-05-01T02:36:52Z</time></trkpt><trkpt lat="45.53629844405458" lon="10.141440747430522"><ele>118.0</ele><time>2026-05-01T02:36:53Z</time></trkpt><trkpt lat="45.53613229309015" lon="10.141814553404782"><ele>118.0</ele><time>2026-05-01T02:36:54Z</time></trkpt><trkpt lat="45.53595671629674" lon="10.14218369033535"><ele>118.0</ele><time>2026-05-01T02:36:55Z</time></trkpt><trkpt lat="45.535773565377454" lon="10.142552103237815"><ele>119.0</ele><time>2026-05-01T02:36:56Z</time></trkpt><trkpt lat="45.53559091599422" lon="10.14292200599318"><ele>120.0</ele><time>2026-05-01T02:36:57Z</time></trkpt><trkpt lat="45.53541051244434" lon="10.143293858542107"><ele>119.5</ele><time>2026-05-01T02:36:58Z</time></trkpt><trkpt lat="45.53522935931865" lon="10.143663282944335"><ele>119.0</ele><time>2026-05-01T02:36:59Z</time></trkpt><trkpt lat="45.53505078042148" lon="10.144032583426348"><ele>119.5</ele><time>2026-05-01T02:37:00Z</time></trkpt><trkpt lat="45.53487410928772" lon="10.144403132281827"><ele>120.0</ele><time>2026-05-01T02:37:01Z</time></trkpt><trkpt lat="45.53469934557405" lon="10.144775495658108"><ele>120.5</ele><time>2026-05-01T02:37:02Z</time></trkpt><trkpt lat="45.53452648450883" lon="10.145149744261483"><ele>121.0</ele><time>2026-05-01T02:37:03Z</time></trkpt><trkpt lat="45.53435301035977" lon="10.145521704280302"><ele>121.0</ele><time>2026-05-01T02:37:04Z</time></trkpt><trkpt lat="45.53417863775123" lon="10.14589162955433"><ele>121.0</ele><time>2026-05-01T02:37:05Z</time></trkpt><trkpt lat="45.53400831959773" lon="10.14626355239159"><ele>121.0</ele><time>2026-05-01T02:37:06Z</time></trkpt><trkpt lat="45.5338404591606" lon="10.146637912812354"><ele>121.0</ele><time>2026-05-01T02:37:07Z</time></trkpt><trkpt lat="45.53367420719001" lon="10.147013063532839"><ele>120.5</ele><time>2026-05-01T02:37:08Z</time></trkpt><trkpt lat="45.5335072313163" lon="10.147387034456445"><ele>120.0</ele><time>2026-05-01T02:37:09Z</time></trkpt><trkpt lat="45.53333946116689" lon="10.147758188799799"><ele>120.0</ele><time>2026-05-01T02:37:10Z</time></trkpt><trkpt lat="45.53317275741389" lon="10.148127640240057"><ele>120.0</ele><time>2026-05-01T02:37:11Z</time></trkpt><trkpt lat="45.5330071659208" lon="10.148497132799934"><ele>120.0</ele><time>2026-05-01T02:37:12Z</time></trkpt><trkpt lat="45.53284091263394" lon="10.148864394583851"><ele>120.0</ele><time>2026-05-01T02:37:13Z</time></trkpt><trkpt lat="45.532674180839265" lon="10.149233516158565"><ele>120.0</ele><time>2026-05-01T02:37:14Z</time></trkpt><trkpt lat="45.532506349759046" lon="10.14960282522107"><ele>120.0</ele><time>2026-05-01T02:37:15Z</time></trkpt><trkpt lat="45.532339199376665" lon="10.149971953172598"><ele>120.5</ele><time>2026-05-01T02:37:16Z</time></trkpt><trkpt lat="45.532173406477646" lon="10.150342361813303"><ele>121.0</ele><time>2026-05-01T02:37:17Z</time></trkpt><trkpt lat="45.53200770776372" lon="10.150714143251408"><ele>121.0</ele><time>2026-05-01T02:37:18Z</time></trkpt><trkpt lat="45.53184158343451" lon="10.151085425473525"><ele>121.0</ele><time>2026-05-01T02:37:19.001Z</time></trkpt><trkpt lat="45.53167508376348" lon="10.151456871757377"><ele>120.5</ele><time>2026-05-01T02:37:20.001Z</time></trkpt><trkpt lat="45.53150845624834" lon="10.151826787786755"><ele>120.0</ele><time>2026-05-01T02:37:21.001Z</time></trkpt><trkpt lat="45.53134274830851" lon="10.152197392215275"><ele>121.0</ele><time>2026-05-01T02:37:22.001Z</time></trkpt><trkpt lat="45.531175684707954" lon="10.152569015567993"><ele>122.0</ele><time>2026-05-01T02:37:23.001Z</time></trkpt><trkpt lat="45.53100898541586" lon="10.152941093645007"><ele>122.5</ele><time>2026-05-01T02:37:24.001Z</time></trkpt><trkpt lat="45.530843257772055" lon="10.1533153572409"><ele>123.0</ele><time>2026-05-01T02:37:25.001Z</time></trkpt><trkpt lat="45.530674278971624" lon="10.153688517005543"><ele>122.5</ele><time>2026-05-01T02:37:26.001Z</time></trkpt><trkpt lat="45.53050004204868" lon="10.154058692733143"><ele>122.0</ele><time>2026-05-01T02:37:27.001Z</time></trkpt><trkpt lat="45.530324417815144" lon="10.154427833770168"><ele>122.0</ele><time>2026-05-01T02:37:28.001Z</time></trkpt><trkpt lat="45.53014818104851" lon="10.154798542995445"><ele>122.0</ele><time>2026-05-01T02:37:29.001Z</time></trkpt><trkpt lat="45.52997338199124" lon="10.155170723849823"><ele>123.0</ele><time>2026-05-01T02:37:30.001Z</time></trkpt><trkpt lat="45.52980135033326" lon="10.155544103936766"><ele>124.0</ele><time>2026-05-01T02:37:31.001Z</time></trkpt><trkpt lat="45.529629818604874" lon="10.15591783127054"><ele>123.5</ele><time>2026-05-01T02:37:32.001Z</time></trkpt><trkpt lat="45.52946029730046" lon="10.156293444155779"><ele>123.0</ele><time>2026-05-01T02:37:33.001Z</time></trkpt><trkpt lat="45.529290556952134" lon="10.156669275645852"><ele>123.0</ele><time>2026-05-01T02:37:34.001Z</time></trkpt><trkpt lat="45.529119358868876" lon="10.157043927497103"><ele>123.0</ele><time>2026-05-01T02:37:35.001Z</time></trkpt><trkpt lat="45.52894767746753" lon="10.157419066271022"><ele>123.0</ele><time>2026-05-01T02:37:36.001Z</time></trkpt><trkpt lat="45.52877503623235" lon="10.157795109532444"><ele>123.0</ele><time>2026-05-01T02:37:37.001Z</time></trkpt><trkpt lat="45.52860136408876" lon="10.158171903584602"><ele>123.0</ele><time>2026-05-01T02:37:38.001Z</time></trkpt><trkpt lat="45.52842856896567" lon="10.158548826985932"><ele>123.0</ele><time>2026-05-01T02:37:39.001Z</time></trkpt><trkpt lat="45.52825446601463" lon="10.158924688344351"><ele>122.5</ele><time>2026-05-01T02:37:40.001Z</time></trkpt><trkpt lat="45.5280787413177" lon="10.159299727881695"><ele>122.0</ele><time>2026-05-01T02:37:41.001Z</time></trkpt><trkpt lat="45.52790155885151" lon="10.159675425027684"><ele>121.0</ele><time>2026-05-01T02:37:42.001Z</time></trkpt><trkpt lat="45.5277244277685" lon="10.160052291063602"><ele>120.0</ele><time>2026-05-01T02:37:43.001Z</time></trkpt><trkpt lat="45.52754663822049" lon="10.16042972942979"><ele>121.0</ele><time>2026-05-01T02:37:44.001Z</time></trkpt><trkpt lat="45.5273692196366" lon="10.160807120027235"><ele>122.0</ele><time>2026-05-01T02:37:45.001Z</time></trkpt><trkpt lat="45.52719332509446" lon="10.161185334805191"><ele>122.0</ele><time>2026-05-01T02:37:46.001Z</time></trkpt><trkpt lat="45.52701820019305" lon="10.161564032706558"><ele>122.0</ele><time>2026-05-01T02:37:47.001Z</time></trkpt><trkpt lat="45.526843520354255" lon="10.161943991020776"><ele>122.0</ele><time>2026-05-01T02:37:48.001Z</time></trkpt><trkpt lat="45.526668978543505" lon="10.162322572265436"><ele>122.0</ele><time>2026-05-01T02:37:49.001Z</time></trkpt><trkpt lat="45.52649300853469" lon="10.162700734123735"><ele>122.0</ele><time>2026-05-01T02:37:50.001Z</time></trkpt><trkpt lat="45.526315995798335" lon="10.163079543653682"><ele>122.0</ele><time>2026-05-01T02:37:51.001Z</time></trkpt><trkpt lat="45.52614083694082" lon="10.163458338291003"><ele>122.0</ele><time>2026-05-01T02:37:52.001Z</time></trkpt><trkpt lat="45.525967659988225" lon="10.163838124905885"><ele>122.0</ele><time>2026-05-01T02:37:53.001Z</time></trkpt><trkpt lat="45.52579756718053" lon="10.16421347088278"><ele>122.0</ele><time>2026-05-01T02:37:54.001Z</time></trkpt><trkpt lat="45.525630374854785" lon="10.16458707324376"><ele>122.0</ele><time>2026-05-01T02:37:55.001Z</time></trkpt><trkpt lat="45.52546519353858" lon="10.16496134198942"><ele>121.5</ele><time>2026-05-01T02:37:56.001Z</time></trkpt><trkpt lat="45.52530041802273" lon="10.165335176658797"><ele>121.0</ele><time>2026-05-01T02:37:57.001Z</time></trkpt><trkpt lat="45.525133643095" lon="10.16570734593572"><ele>122.0</ele><time>2026-05-01T02:37:58.001Z</time></trkpt><trkpt lat="45.524966250433565" lon="10.166079658690064"><ele>123.0</ele><time>2026-05-01T02:37:59.001Z</time></trkpt><trkpt lat="45.52479939031521" lon="10.16645154904052"><ele>123.0</ele><time>2026-05-01T02:38:00.001Z</time></trkpt><trkpt lat="45.52463444837034" lon="10.166826059849832"><ele>123.0</ele><time>2026-05-01T02:38:01.001Z</time></trkpt><trkpt lat="45.524469993521876" lon="10.167202440429147"><ele>123.5</ele><time>2026-05-01T02:38:02.001Z</time></trkpt><trkpt lat="45.52430668430753" lon="10.167577854601165"><ele>124.0</ele><time>2026-05-01T02:38:03.001Z</time></trkpt><trkpt lat="45.524142963511046" lon="10.167955347578738"><ele>123.0</ele><time>2026-05-01T02:38:04.001Z</time></trkpt><trkpt lat="45.523979501122064" lon="10.168333874626654"><ele>122.0</ele><time>2026-05-01T02:38:05.001Z</time></trkpt><trkpt lat="45.523816565427076" lon="10.16871185607155"><ele>120.5</ele><time>2026-05-01T02:38:06.001Z</time></trkpt><trkpt lat="45.52365375700447" lon="10.169088099775454"><ele>119.0</ele><time>2026-05-01T02:38:07.001Z</time></trkpt><trkpt lat="45.5234904754788" lon="10.16946604548784"><ele>119.0</ele><time>2026-05-01T02:38:08.001Z</time></trkpt><trkpt lat="45.523327833415415" lon="10.169845342210218"><ele>119.0</ele><time>2026-05-01T02:38:09.001Z</time></trkpt><trkpt lat="45.523166697285646" lon="10.170224807176432"><ele>118.5</ele><time>2026-05-01T02:38:10.001Z</time></trkpt><trkpt lat="45.523006953696566" lon="10.170606583851281"><ele>118.0</ele><time>2026-05-01T02:38:11Z</time></trkpt><trkpt lat="45.52284930427675" lon="10.170989692017265"><ele>118.0</ele><time>2026-05-01T02:38:12Z</time></trkpt><trkpt lat="45.52269557763795" lon="10.171376431695496"><ele>118.0</ele><time>2026-05-01T02:38:13Z</time></trkpt><trkpt lat="45.52254918852984" lon="10.171768018197668"><ele>117.5</ele><time>2026-05-01T02:38:14Z</time></trkpt><trkpt lat="45.522406879118726" lon="10.172163129843952"><ele>117.0</ele><time>2026-05-01T02:38:15Z</time></trkpt><trkpt lat="45.52226744426657" lon="10.172562529849106"><ele>117.0</ele><time>2026-05-01T02:38:16Z</time></trkpt><trkpt lat="45.52213322200687" lon="10.172966954477927"><ele>117.0</ele><time>2026-05-01T02:38:17Z</time></trkpt><trkpt lat="45.5220049440458" lon="10.17337458403706"><ele>119.5</ele><time>2026-05-01T02:38:18Z</time></trkpt><trkpt lat="45.52188027490374" lon="10.173790309281793"><ele>122.0</ele><time>2026-05-01T02:38:19Z</time></trkpt><trkpt lat="45.52176103812924" lon="10.174204402835107"><ele>122.0</ele><time>2026-05-01T02:38:20Z</time></trkpt><trkpt lat="45.52164837453721" lon="10.174620524024048"><ele>122.0</ele><time>2026-05-01T02:38:21Z</time></trkpt><trkpt lat="45.52154434463108" lon="10.175024158333745"><ele>122.0</ele><time>2026-05-01T02:38:22Z</time></trkpt><trkpt lat="45.52144447725012" lon="10.175431679908336"><ele>122.0</ele><time>2026-05-01T02:38:23Z</time></trkpt><trkpt lat="45.521346575507216" lon="10.175856607320277"><ele>122.0</ele><time>2026-05-01T02:38:24Z</time></trkpt><trkpt lat="45.52125364310942" lon="10.176288732813227"><ele>122.0</ele><time>2026-05-01T02:38:25Z</time></trkpt><trkpt lat="45.52116447356986" lon="10.176723698683007"><ele>121.0</ele><time>2026-05-01T02:38:26Z</time></trkpt><trkpt lat="45.521081055577625" lon="10.177160944344992"><ele>120.0</ele><time>2026-05-01T02:38:27Z</time></trkpt><trkpt lat="45.52100496147889" lon="10.177597237919379"><ele>120.0</ele><time>2026-05-01T02:38:28Z</time></trkpt><trkpt lat="45.520935171828555" lon="10.178030051220391"><ele>120.0</ele><time>2026-05-01T02:38:29Z</time></trkpt><trkpt lat="45.520868110927125" lon="10.17846224631902"><ele>120.0</ele><time>2026-05-01T02:38:30Z</time></trkpt><trkpt lat="45.52079998699741" lon="10.178890780987517"><ele>120.0</ele><time>2026-05-01T02:38:31Z</time></trkpt><trkpt lat="45.52073726048749" lon="10.179316318892184"><ele>120.5</ele><time>2026-05-01T02:38:32Z</time></trkpt><trkpt lat="45.52067924063069" lon="10.179742588640798"><ele>121.0</ele><time>2026-05-01T02:38:33Z</time></trkpt><trkpt lat="45.52062542416837" lon="10.180170658174085"><ele>121.0</ele><time>2026-05-01T02:38:34Z</time></trkpt><trkpt lat="45.520576590689714" lon="10.180599950024263"><ele>121.0</ele><time>2026-05-01T02:38:35Z</time></trkpt><trkpt lat="45.520526268235514" lon="10.181030600612624"><ele>121.5</ele><time>2026-05-01T02:38:36Z</time></trkpt><trkpt lat="45.5204773909271" lon="10.181460859736802"><ele>122.0</ele><time>2026-05-01T02:38:37Z</time></trkpt><trkpt lat="45.52042780442742" lon="10.18189003428011"><ele>121.5</ele><time>2026-05-01T02:38:38Z</time></trkpt><trkpt lat="45.52037938068425" lon="10.182319856019706"><ele>121.0</ele><time>2026-05-01T02:38:39Z</time></trkpt><trkpt lat="45.520331794736116" lon="10.182749959339835"><ele>122.0</ele><time>2026-05-01T02:38:40Z</time></trkpt><trkpt lat="45.520285356285974" lon="10.18318202525411"><ele>123.0</ele><time>2026-05-01T02:38:41Z</time></trkpt><trkpt lat="45.5202384444222" lon="10.183613628497467"><ele>122.5</ele><time>2026-05-01T02:38:42Z</time></trkpt><trkpt lat="45.52019106437862" lon="10.184045550094352"><ele>122.0</ele><time>2026-05-01T02:38:43Z</time></trkpt><trkpt lat="45.52014181773158" lon="10.184475825037792"><ele>122.5</ele><time>2026-05-01T02:38:44Z</time></trkpt><trkpt lat="45.520091074334715" lon="10.184905593887391"><ele>123.0</ele><time>2026-05-01T02:38:45Z</time></trkpt><trkpt lat="45.52004101078114" lon="10.18533633911564"><ele>122.5</ele><time>2026-05-01T02:38:46Z</time></trkpt><trkpt lat="45.51999115527757" lon="10.185765991825349"><ele>122.0</ele><time>2026-05-01T02:38:47Z</time></trkpt><trkpt lat="45.51994315466687" lon="10.186194844988728"><ele>122.0</ele><time>2026-05-01T02:38:48Z</time></trkpt><trkpt lat="45.519896817603296" lon="10.186622939740174"><ele>122.0</ele><time>2026-05-01T02:38:49Z</time></trkpt><trkpt lat="45.519851091126625" lon="10.187049692317652"><ele>122.5</ele><time>2026-05-01T02:38:50Z</time></trkpt><trkpt lat="45.51980366831844" lon="10.187477471932688"><ele>123.0</ele><time>2026-05-01T02:38:51Z</time></trkpt><trkpt lat="45.51975409552873" lon="10.187905929736306"><ele>122.5</ele><time>2026-05-01T02:38:52Z</time></trkpt><trkpt lat="45.519705912277644" lon="10.188336229466014"><ele>122.0</ele><time>2026-05-01T02:38:53Z</time></trkpt><trkpt lat="45.51965831991167" lon="10.188766168453403"><ele>121.5</ele><time>2026-05-01T02:38:54Z</time></trkpt><trkpt lat="45.51961076617695" lon="10.189195504836363"><ele>121.0</ele><time>2026-05-01T02:38:55Z</time></trkpt><trkpt lat="45.51956277228444" lon="10.189626483652535"><ele>120.5</ele><time>2026-05-01T02:38:56Z</time></trkpt><trkpt lat="45.519513387870944" lon="10.19005773473735"><ele>120.0</ele><time>2026-05-01T02:38:57Z</time></trkpt><trkpt lat="45.519464737927215" lon="10.190490621400025"><ele>121.5</ele><time>2026-05-01T02:38:58Z</time></trkpt><trkpt lat="45.51942276032491" lon="10.190925048574313"><ele>123.0</ele><time>2026-05-01T02:38:59Z</time></trkpt><trkpt lat="45.51938305534424" lon="10.191361218591801"><ele>123.0</ele><time>2026-05-01T02:39:00Z</time></trkpt><trkpt lat="45.519343682958706" lon="10.19179259348701"><ele>123.0</ele><time>2026-05-01T02:39:01Z</time></trkpt><trkpt lat="45.519298116759906" lon="10.192222653851937"><ele>122.5</ele><time>2026-05-01T02:39:02Z</time></trkpt><trkpt lat="45.51925082589197" lon="10.192655758366616"><ele>122.0</ele><time>2026-05-01T02:39:03Z</time></trkpt><trkpt lat="45.519201963016386" lon="10.193087213711642"><ele>122.5</ele><time>2026-05-01T02:39:04Z</time></trkpt><trkpt lat="45.51915483730796" lon="10.193519418226227"><ele>123.0</ele><time>2026-05-01T02:39:05Z</time></trkpt><trkpt lat="45.51910615226961" lon="10.193952941146238"><ele>123.0</ele><time>2026-05-01T02:39:06Z</time></trkpt><trkpt lat="45.51905855922415" lon="10.194386752258927"><ele>123.0</ele><time>2026-05-01T02:39:07Z</time></trkpt><trkpt lat="45.5190088585374" lon="10.19482040617542"><ele>122.5</ele><time>2026-05-01T02:39:08Z</time></trkpt><trkpt lat="45.51895937732982" lon="10.195252957613588"><ele>122.0</ele><time>2026-05-01T02:39:09Z</time></trkpt><trkpt lat="45.51890883169462" lon="10.195686974124332"><ele>122.0</ele><time>2026-05-01T02:39:10Z</time></trkpt><trkpt lat="45.5188543014698" lon="10.196121354729314"><ele>122.0</ele><time>2026-05-01T02:39:11Z</time></trkpt><trkpt lat="45.51879571738263" lon="10.196554049024423"><ele>122.0</ele><time>2026-05-01T02:39:12Z</time></trkpt><trkpt lat="45.51873771466326" lon="10.196987575687453"><ele>122.0</ele><time>2026-05-01T02:39:13Z</time></trkpt><trkpt lat="45.51867481006434" lon="10.197419088700709"><ele>122.0</ele><time>2026-05-01T02:39:14Z</time></trkpt><trkpt lat="45.518603739378115" lon="10.197848920195373"><ele>122.0</ele><time>2026-05-01T02:39:15Z</time></trkpt><trkpt lat="45.518524463038" lon="10.198272243631816"><ele>122.0</ele><time>2026-05-01T02:39:16Z</time></trkpt><trkpt lat="45.518431765167094" lon="10.198689015210403"><ele>122.0</ele><time>2026-05-01T02:39:17Z</time></trkpt><trkpt lat="45.51832802994058" lon="10.19910054579076"><ele>122.0</ele><time>2026-05-01T02:39:18Z</time></trkpt><trkpt lat="45.51821438617361" lon="10.19950730421799"><ele>122.0</ele><time>2026-05-01T02:39:19Z</time></trkpt><trkpt lat="45.51809230088451" lon="10.199909363720177"><ele>122.0</ele><time>2026-05-01T02:39:20Z</time></trkpt><trkpt lat="45.51795887211584" lon="10.200305760143625"><ele>122.0</ele><time>2026-05-01T02:39:21Z</time></trkpt><trkpt lat="45.51781713570243" lon="10.200695097671742"><ele>121.5</ele><time>2026-05-01T02:39:22Z</time></trkpt><trkpt lat="45.51766746889168" lon="10.20107961692541"><ele>121.0</ele><time>2026-05-01T02:39:23Z</time></trkpt><trkpt lat="45.517510149641055" lon="10.201459298034292"><ele>121.0</ele><time>2026-05-01T02:39:24Z</time></trkpt><trkpt lat="45.51734377503571" lon="10.20183199363949"><ele>121.0</ele><time>2026-05-01T02:39:25.001Z</time></trkpt><trkpt lat="45.51717140560891" lon="10.202199822780779"><ele>120.0</ele><time>2026-05-01T02:39:26.001Z</time></trkpt><trkpt lat="45.51699969275178" lon="10.202569905313318"><ele>119.0</ele><time>2026-05-01T02:39:27.001Z</time></trkpt><trkpt lat="45.51682603927796" lon="10.202942030843323"><ele>120.0</ele><time>2026-05-01T02:39:28.001Z</time></trkpt><trkpt lat="45.516657908025834" lon="10.203312007942888"><ele>121.0</ele><time>2026-05-01T02:39:29.001Z</time></trkpt><trkpt lat="45.51649568992527" lon="10.203666400026975"><ele>121.0</ele><time>2026-05-01T02:39:30.001Z</time></trkpt><trkpt lat="45.51632612970306" lon="10.204034685153331"><ele>121.0</ele><time>2026-05-01T02:39:31.001Z</time></trkpt><trkpt lat="45.51615496448424" lon="10.204408057652014"><ele>121.0</ele><time>2026-05-01T02:39:32.001Z</time></trkpt><trkpt lat="45.51598166943215" lon="10.204781598500539"><ele>121.0</ele><time>2026-05-01T02:39:33.001Z</time></trkpt><trkpt lat="45.51580894972572" lon="10.205158552982514"><ele>121.0</ele><time>2026-05-01T02:39:34.001Z</time></trkpt><trkpt lat="45.51563554022663" lon="10.205535326914308"><ele>121.0</ele><time>2026-05-01T02:39:35.001Z</time></trkpt><trkpt lat="45.51546124345941" lon="10.205911424378895"><ele>121.5</ele><time>2026-05-01T02:39:36.001Z</time></trkpt><trkpt lat="45.51528861499404" lon="10.20628831384524"><ele>122.0</ele><time>2026-05-01T02:39:37.001Z</time></trkpt><trkpt lat="45.515116869944805" lon="10.206662584976224"><ele>122.0</ele><time>2026-05-01T02:39:38.001Z</time></trkpt><trkpt lat="45.514947504014685" lon="10.20703942730959"><ele>122.0</ele><time>2026-05-01T02:39:39.001Z</time></trkpt><trkpt lat="45.51477681341908" lon="10.207416889964346"><ele>120.5</ele><time>2026-05-01T02:39:40.001Z</time></trkpt><trkpt lat="45.5146048126951" lon="10.20779371855927"><ele>119.0</ele><time>2026-05-01T02:39:41.001Z</time></trkpt><trkpt lat="45.51443063594746" lon="10.208169881752529"><ele>118.0</ele><time>2026-05-01T02:39:42.001Z</time></trkpt><trkpt lat="45.514256801620974" lon="10.20854626224578"><ele>117.0</ele><time>2026-05-01T02:39:43.001Z</time></trkpt><trkpt lat="45.51408265589644" lon="10.208921070424555"><ele>118.0</ele><time>2026-05-01T02:39:44.001Z</time></trkpt><trkpt lat="45.513911096712555" lon="10.209290724461129"><ele>119.0</ele><time>2026-05-01T02:39:45.001Z</time></trkpt><trkpt lat="45.51373952388635" lon="10.209660332415273"><ele>122.0</ele><time>2026-05-01T02:39:46.001Z</time></trkpt><trkpt lat="45.513567762114576" lon="10.210028643649407"><ele>125.0</ele><time>2026-05-01T02:39:47.001Z</time></trkpt><trkpt lat="45.51339654702455" lon="10.210396549136632"><ele>123.0</ele><time>2026-05-01T02:39:48.001Z</time></trkpt><trkpt lat="45.51322805701513" lon="10.210764764715472"><ele>121.0</ele><time>2026-05-01T02:39:49.001Z</time></trkpt><trkpt lat="45.51306010980078" lon="10.211132466689113"><ele>122.0</ele><time>2026-05-01T02:39:50.001Z</time></trkpt><trkpt lat="45.51289181346587" lon="10.211497158239698"><ele>123.0</ele><time>2026-05-01T02:39:51.001Z</time></trkpt><trkpt lat="45.512722914356594" lon="10.211862085158641"><ele>123.0</ele><time>2026-05-01T02:39:52.001Z</time></trkpt><trkpt lat="45.51255442684689" lon="10.212226857801605"><ele>123.0</ele><time>2026-05-01T02:39:53.001Z</time></trkpt><trkpt lat="45.512385428386324" lon="10.212591753199277"><ele>122.0</ele><time>2026-05-01T02:39:54.001Z</time></trkpt><trkpt lat="45.51221590265704" lon="10.212954963016992"><ele>121.0</ele><time>2026-05-01T02:39:55.001Z</time></trkpt><trkpt lat="45.51204801286403" lon="10.213319180612492"><ele>119.5</ele><time>2026-05-01T02:39:56.001Z</time></trkpt><trkpt lat="45.511880439784065" lon="10.213683103492887"><ele>118.0</ele><time>2026-05-01T02:39:57.001Z</time></trkpt><trkpt lat="45.51171340118025" lon="10.214048495057229"><ele>118.0</ele><time>2026-05-01T02:39:58.001Z</time></trkpt><trkpt lat="45.511546817268055" lon="10.214414042402119"><ele>118.0</ele><time>2026-05-01T02:39:59.001Z</time></trkpt><trkpt lat="45.51137822120797" lon="10.214779280410614"><ele>118.5</ele><time>2026-05-01T02:40:00.001Z</time></trkpt><trkpt lat="45.51120826757992" lon="10.215145866468413"><ele>119.0</ele><time>2026-05-01T02:40:01.001Z</time></trkpt><trkpt lat="45.51103883082161" lon="10.215513757773287"><ele>119.0</ele><time>2026-05-01T02:40:02.001Z</time></trkpt><trkpt lat="45.510868427664285" lon="10.215882945169646"><ele>119.0</ele><time>2026-05-01T02:40:03.001Z</time></trkpt><trkpt lat="45.51069900061423" lon="10.216253606145207"><ele>119.5</ele><time>2026-05-01T02:40:04.001Z</time></trkpt><trkpt lat="45.51052893221389" lon="10.216623083638948"><ele>120.0</ele><time>2026-05-01T02:40:05.001Z</time></trkpt><trkpt lat="45.5103582451119" lon="10.21699439587013"><ele>120.0</ele><time>2026-05-01T02:40:06.001Z</time></trkpt><trkpt lat="45.510186620756656" lon="10.217365111660579"><ele>120.0</ele><time>2026-05-01T02:40:07.001Z</time></trkpt><trkpt lat="45.510015645028666" lon="10.217735841814624"><ele>120.0</ele><time>2026-05-01T02:40:08.001Z</time></trkpt><trkpt lat="45.50984617106116" lon="10.21810937056716"><ele>120.0</ele><time>2026-05-01T02:40:09.001Z</time></trkpt><trkpt lat="45.5096786360653" lon="10.218485676715082"><ele>119.0</ele><time>2026-05-01T02:40:10.001Z</time></trkpt><trkpt lat="45.509507235574716" lon="10.218859070509414"><ele>118.0</ele><time>2026-05-01T02:40:11.001Z</time></trkpt><trkpt lat="45.509334465734845" lon="10.219233188309918"><ele>117.5</ele><time>2026-05-01T02:40:12.001Z</time></trkpt><trkpt lat="45.50916388635202" lon="10.219611435726897"><ele>117.0</ele><time>2026-05-01T02:40:13.001Z</time></trkpt><trkpt lat="45.50899237389511" lon="10.21998838211972"><ele>117.0</ele><time>2026-05-01T02:40:14.001Z</time></trkpt><trkpt lat="45.5088218668773" lon="10.220366828188006"><ele>117.0</ele><time>2026-05-01T02:40:15.001Z</time></trkpt><trkpt lat="45.50865139706169" lon="10.220751094797773"><ele>117.0</ele><time>2026-05-01T02:40:16.001Z</time></trkpt><trkpt lat="45.50849244034836" lon="10.221137340195437"><ele>117.0</ele><time>2026-05-01T02:40:17Z</time></trkpt><trkpt lat="45.508340442158236" lon="10.221523928208713"><ele>117.0</ele><time>2026-05-01T02:40:18Z</time></trkpt><trkpt lat="45.50819437907974" lon="10.221912333773759"><ele>117.0</ele><time>2026-05-01T02:40:19Z</time></trkpt><trkpt lat="45.508051220470506" lon="10.222305308520317"><ele>116.5</ele><time>2026-05-01T02:40:20Z</time></trkpt><trkpt lat="45.507912431804534" lon="10.222700419789865"><ele>116.0</ele><time>2026-05-01T02:40:21Z</time></trkpt><trkpt lat="45.50777953562491" lon="10.223099019252146"><ele>118.0</ele><time>2026-05-01T02:40:22Z</time></trkpt><trkpt lat="45.507657786558" lon="10.223506437970542"><ele>120.0</ele><time>2026-05-01T02:40:23Z</time></trkpt><trkpt lat="45.507543842266365" lon="10.22392223109988"><ele>120.5</ele><time>2026-05-01T02:40:24Z</time></trkpt><trkpt lat="45.507433424466036" lon="10.224343348130706"><ele>121.0</ele><time>2026-05-01T02:40:25Z</time></trkpt><trkpt lat="45.50732311274006" lon="10.224767889388549"><ele>120.0</ele><time>2026-05-01T02:40:26Z</time></trkpt><trkpt lat="45.50720953135538" lon="10.225189893350437"><ele>119.0</ele><time>2026-05-01T02:40:27Z</time></trkpt><trkpt lat="45.50710137977153" lon="10.22561228437058"><ele>117.5</ele><time>2026-05-01T02:40:28Z</time></trkpt><trkpt lat="45.506997804683856" lon="10.226039582120324"><ele>116.0</ele><time>2026-05-01T02:40:29Z</time></trkpt><trkpt lat="45.50689992446124" lon="10.226467471673212"><ele>115.0</ele><time>2026-05-01T02:40:30Z</time></trkpt><trkpt lat="45.506814191988035" lon="10.226898578496057"><ele>114.0</ele><time>2026-05-01T02:40:31Z</time></trkpt><trkpt lat="45.506732619095644" lon="10.227331395729548"><ele>113.0</ele><time>2026-05-01T02:40:32Z</time></trkpt><trkpt lat="45.50665433536469" lon="10.227763996382476"><ele>112.0</ele><time>2026-05-01T02:40:33Z</time></trkpt><trkpt lat="45.506581887615646" lon="10.228196468483581"><ele>112.0</ele><time>2026-05-01T02:40:34Z</time></trkpt><trkpt lat="45.50651772848662" lon="10.228613048299556"><ele>112.0</ele><time>2026-05-01T02:40:35Z</time></trkpt><trkpt lat="45.506458894656625" lon="10.229028405026927"><ele>112.5</ele><time>2026-05-01T02:40:36Z</time></trkpt><trkpt lat="45.50640286176442" lon="10.229457470783471"><ele>113.0</ele><time>2026-05-01T02:40:37Z</time></trkpt><trkpt lat="45.50635702270114" lon="10.229893493532106"><ele>113.5</ele><time>2026-05-01T02:40:38Z</time></trkpt><trkpt lat="45.50631531358627" lon="10.230335490823888"><ele>114.0</ele><time>2026-05-01T02:40:39Z</time></trkpt><trkpt lat="45.50626976029751" lon="10.230778957138467"><ele>114.0</ele><time>2026-05-01T02:40:40Z</time></trkpt><trkpt lat="45.506216689529175" lon="10.231222569728699"><ele>114.0</ele><time>2026-05-01T02:40:41Z</time></trkpt><trkpt lat="45.5061374461105" lon="10.231659588298442"><ele>114.0</ele><time>2026-05-01T02:40:42Z</time></trkpt><trkpt lat="45.506093070251715" lon="10.23210551962565"><ele>114.0</ele><time>2026-05-01T02:40:43Z</time></trkpt><trkpt lat="45.506021899589925" lon="10.232543874068316"><ele>114.0</ele><time>2026-05-01T02:40:44Z</time></trkpt><trkpt lat="45.50594863104413" lon="10.23297989496144"><ele>114.0</ele><time>2026-05-01T02:40:45Z</time></trkpt><trkpt lat="45.50587431080782" lon="10.233416308330131"><ele>114.0</ele><time>2026-05-01T02:40:46Z</time></trkpt><trkpt lat="45.5057980066894" lon="10.23384981926731"><ele>114.0</ele><time>2026-05-01T02:40:47Z</time></trkpt><trkpt lat="45.505715864678926" lon="10.234279006422145"><ele>114.0</ele><time>2026-05-01T02:40:48Z</time></trkpt><trkpt lat="45.50562739229908" lon="10.234704964438142"><ele>114.0</ele><time>2026-05-01T02:40:49Z</time></trkpt><trkpt lat="45.505535561614785" lon="10.235130644802352"><ele>113.5</ele><time>2026-05-01T02:40:50Z</time></trkpt><trkpt lat="45.5054436458775" lon="10.235555149480573"><ele>113.0</ele><time>2026-05-01T02:40:51Z</time></trkpt><trkpt lat="45.50535452432492" lon="10.235979650576045"><ele>114.5</ele><time>2026-05-01T02:40:52Z</time></trkpt><trkpt lat="45.50526534603925" lon="10.23640288872933"><ele>116.0</ele><time>2026-05-01T02:40:53Z</time></trkpt><trkpt lat="45.50517323699765" lon="10.236823618080157"><ele>116.0</ele><time>2026-05-01T02:40:54Z</time></trkpt><trkpt lat="45.50507938533477" lon="10.237241954630198"><ele>116.0</ele><time>2026-05-01T02:40:55Z</time></trkpt><trkpt lat="45.50498220228085" lon="10.237656341381648"><ele>115.5</ele><time>2026-05-01T02:40:56Z</time></trkpt><trkpt lat="45.504889323567284" lon="10.238067766352879"><ele>115.0</ele><time>2026-05-01T02:40:57Z</time></trkpt><trkpt lat="45.50479684408774" lon="10.238480787460071"><ele>116.5</ele><time>2026-05-01T02:40:58Z</time></trkpt><trkpt lat="45.504703922995134" lon="10.238894069822521"><ele>118.0</ele><time>2026-05-01T02:40:59Z</time></trkpt><trkpt lat="45.50459319918906" lon="10.239299274119606"><ele>119.0</ele><time>2026-05-01T02:41:00Z</time></trkpt><trkpt lat="45.50449764478698" lon="10.239716764597492"><ele>120.0</ele><time>2026-05-01T02:41:01Z</time></trkpt><trkpt lat="45.5044192647664" lon="10.240139010176897"><ele>120.0</ele><time>2026-05-01T02:41:02Z</time></trkpt><trkpt lat="45.5043246336573" lon="10.240553804931826"><ele>120.0</ele><time>2026-05-01T02:41:03Z</time></trkpt><trkpt lat="45.50422956641311" lon="10.240971254801185"><ele>119.5</ele><time>2026-05-01T02:41:04Z</time></trkpt><trkpt lat="45.50413337207855" lon="10.241391929109124"><ele>119.0</ele><time>2026-05-01T02:41:05Z</time></trkpt><trkpt lat="45.50403586442279" lon="10.241814027411113"><ele>117.0</ele><time>2026-05-01T02:41:06Z</time></trkpt><trkpt lat="45.50393913662228" lon="10.242238089198773"><ele>115.0</ele><time>2026-05-01T02:41:07Z</time></trkpt><trkpt lat="45.50384333207089" lon="10.242664270913792"><ele>116.5</ele><time>2026-05-01T02:41:08Z</time></trkpt><trkpt lat="45.503746736883336" lon="10.243092005272645"><ele>118.0</ele><time>2026-05-01T02:41:09Z</time></trkpt><trkpt lat="45.503647131132155" lon="10.243522488865773"><ele>118.5</ele><time>2026-05-01T02:41:10Z</time></trkpt><trkpt lat="45.5035486100967" lon="10.243955323928567"><ele>119.0</ele><time>2026-05-01T02:41:11Z</time></trkpt><trkpt lat="45.50344632809518" lon="10.244388668525028"><ele>118.5</ele><time>2026-05-01T02:41:12Z</time></trkpt><trkpt lat="45.503347415852424" lon="10.244822258645213"><ele>118.0</ele><time>2026-05-01T02:41:13Z</time></trkpt><trkpt lat="45.50324762324944" lon="10.245254906972297"><ele>118.5</ele><time>2026-05-01T02:41:14Z</time></trkpt><trkpt lat="45.503148016525294" lon="10.245685463460912"><ele>119.0</ele><time>2026-05-01T02:41:15Z</time></trkpt><trkpt lat="45.503050304688216" lon="10.246114919126985"><ele>119.5</ele><time>2026-05-01T02:41:16Z</time></trkpt><trkpt lat="45.502954294360805" lon="10.246541120412024"><ele>120.0</ele><time>2026-05-01T02:41:17Z</time></trkpt><trkpt lat="45.502858983349945" lon="10.246964855642425"><ele>118.0</ele><time>2026-05-01T02:41:18Z</time></trkpt><trkpt lat="45.502763143931006" lon="10.247389199710794"><ele>116.0</ele><time>2026-05-01T02:41:19Z</time></trkpt><trkpt lat="45.502667399660346" lon="10.247813093477538"><ele>116.0</ele><time>2026-05-01T02:41:20Z</time></trkpt><trkpt lat="45.50257137892122" lon="10.248235937111307"><ele>116.0</ele><time>2026-05-01T02:41:21Z</time></trkpt><trkpt lat="45.502476315363054" lon="10.248660091527855"><ele>117.0</ele><time>2026-05-01T02:41:22Z</time></trkpt><trkpt lat="45.50237847552439" lon="10.249085516344575"><ele>118.0</ele><time>2026-05-01T02:41:23Z</time></trkpt><trkpt lat="45.50227761445801" lon="10.249508792756748"><ele>118.0</ele><time>2026-05-01T02:41:24Z</time></trkpt><trkpt lat="45.50217126168692" lon="10.249929800257167"><ele>118.0</ele><time>2026-05-01T02:41:25Z</time></trkpt><trkpt lat="45.50205851580381" lon="10.250346434409952"><ele>117.5</ele><time>2026-05-01T02:41:26Z</time></trkpt><trkpt lat="45.501942079183756" lon="10.25075945903921"><ele>117.0</ele><time>2026-05-01T02:41:27Z</time></trkpt><trkpt lat="45.501825031062445" lon="10.251170876984995"><ele>117.0</ele><time>2026-05-01T02:41:28Z</time></trkpt><trkpt lat="45.501704265700546" lon="10.251578709328852"><ele>117.0</ele><time>2026-05-01T02:41:29Z</time></trkpt><trkpt lat="45.50157782162193" lon="10.251984325379933"><ele>117.0</ele><time>2026-05-01T02:41:30Z</time></trkpt><trkpt lat="45.50145327597806" lon="10.252389336198684"><ele>117.0</ele><time>2026-05-01T02:41:31Z</time></trkpt><trkpt lat="45.50133446173272" lon="10.25279559139534"><ele>116.5</ele><time>2026-05-01T02:41:32.001Z</time></trkpt><trkpt lat="45.50121835897176" lon="10.253203163693074"><ele>116.0</ele><time>2026-05-01T02:41:33.001Z</time></trkpt><trkpt lat="45.50109805680668" lon="10.253602316151936"><ele>116.5</ele><time>2026-05-01T02:41:34.001Z</time></trkpt><trkpt lat="45.500973357780204" lon="10.253998890796872"><ele>117.0</ele><time>2026-05-01T02:41:35.001Z</time></trkpt><trkpt lat="45.50085188679587" lon="10.254395953103552"><ele>117.5</ele><time>2026-05-01T02:41:36.001Z</time></trkpt><trkpt lat="45.50073573917468" lon="10.254794749440793"><ele>118.0</ele><time>2026-05-01T02:41:37.001Z</time></trkpt><trkpt lat="45.50062413153491" lon="10.255197731047014"><ele>118.0</ele><time>2026-05-01T02:41:38.001Z</time></trkpt><trkpt lat="45.500513545739416" lon="10.255601985539402"><ele>118.0</ele><time>2026-05-01T02:41:39.001Z</time></trkpt><trkpt lat="45.50040115218111" lon="10.256005778533464"><ele>117.5</ele><time>2026-05-01T02:41:40.001Z</time></trkpt><trkpt lat="45.500287967103" lon="10.256408082779712"><ele>117.0</ele><time>2026-05-01T02:41:41.001Z</time></trkpt><trkpt lat="45.50017467528367" lon="10.256809637282643"><ele>118.5</ele><time>2026-05-01T02:41:42.001Z</time></trkpt><trkpt lat="45.50006283658117" lon="10.257211926124501"><ele>120.0</ele><time>2026-05-01T02:41:43.001Z</time></trkpt><trkpt lat="45.499950783136825" lon="10.257614296514083"><ele>121.0</ele><time>2026-05-01T02:41:44.001Z</time></trkpt><trkpt lat="45.49983972251439" lon="10.25801695909367"><ele>122.0</ele><time>2026-05-01T02:41:45.001Z</time></trkpt><trkpt lat="45.49972702557478" lon="10.258419221413405"><ele>122.0</ele><time>2026-05-01T02:41:46.001Z</time></trkpt><trkpt lat="45.499612997675435" lon="10.258824307314777"><ele>122.0</ele><time>2026-05-01T02:41:47.001Z</time></trkpt><trkpt lat="45.499498531098745" lon="10.259230788354161"><ele>122.0</ele><time>2026-05-01T02:41:48.001Z</time></trkpt><trkpt lat="45.49938479173665" lon="10.259636762226922"><ele>122.0</ele><time>2026-05-01T02:41:49.001Z</time></trkpt><trkpt lat="45.49927027293244" lon="10.260042889307995"><ele>121.0</ele><time>2026-05-01T02:41:50.001Z</time></trkpt><trkpt lat="45.49915428811011" lon="10.260449616491242"><ele>120.0</ele><time>2026-05-01T02:41:51.001Z</time></trkpt><trkpt lat="45.49903859089634" lon="10.260857738888447"><ele>119.5</ele><time>2026-05-01T02:41:52.001Z</time></trkpt><trkpt lat="45.49892442135538" lon="10.26126661589417"><ele>119.0</ele><time>2026-05-01T02:41:53.001Z</time></trkpt><trkpt lat="45.49881107629115" lon="10.261675631515217"><ele>118.5</ele><time>2026-05-01T02:41:54.001Z</time></trkpt><trkpt lat="45.498698532715125" lon="10.262084355417496"><ele>118.0</ele><time>2026-05-01T02:41:55.001Z</time></trkpt><trkpt lat="45.49858498999244" lon="10.262492140632903"><ele>118.0</ele><time>2026-05-01T02:41:56.001Z</time></trkpt><trkpt lat="45.498471711427136" lon="10.262899018739482"><ele>118.0</ele><time>2026-05-01T02:41:57.001Z</time></trkpt><trkpt lat="45.498355546722294" lon="10.263305899811193"><ele>119.0</ele><time>2026-05-01T02:41:58.001Z</time></trkpt><trkpt lat="45.49824187256548" lon="10.26371274473142"><ele>120.0</ele><time>2026-05-01T02:41:59.001Z</time></trkpt><trkpt lat="45.49812610269231" lon="10.264119181501009"><ele>120.0</ele><time>2026-05-01T02:42:00.001Z</time></trkpt><trkpt lat="45.49801043653096" lon="10.264524460145525"><ele>120.0</ele><time>2026-05-01T02:42:01.001Z</time></trkpt><trkpt lat="45.4978968143918" lon="10.264930641900914"><ele>120.0</ele><time>2026-05-01T02:42:02.001Z</time></trkpt><trkpt lat="45.49778271261441" lon="10.265337186818904"><ele>120.0</ele><time>2026-05-01T02:42:03.001Z</time></trkpt><trkpt lat="45.49766879387848" lon="10.265742651492745"><ele>120.0</ele><time>2026-05-01T02:42:04.001Z</time></trkpt><trkpt lat="45.49755385807119" lon="10.266147128578046"><ele>120.0</ele><time>2026-05-01T02:42:05.001Z</time></trkpt><trkpt lat="45.497438484439115" lon="10.266553215770875"><ele>121.0</ele><time>2026-05-01T02:42:06.001Z</time></trkpt><trkpt lat="45.49732496455503" lon="10.266961732670413"><ele>122.0</ele><time>2026-05-01T02:42:07.001Z</time></trkpt><trkpt lat="45.49720972761413" lon="10.267371340037444"><ele>122.5</ele><time>2026-05-01T02:42:08.001Z</time></trkpt><trkpt lat="45.49709942048711" lon="10.267783793446533"><ele>123.0</ele><time>2026-05-01T02:42:09.001Z</time></trkpt><trkpt lat="45.49698457141716" lon="10.268194883294408"><ele>122.5</ele><time>2026-05-01T02:42:10.001Z</time></trkpt><trkpt lat="45.496873924407716" lon="10.268603871069745"><ele>122.0</ele><time>2026-05-01T02:42:11.001Z</time></trkpt><trkpt lat="45.49676481714017" lon="10.268995948844287"><ele>122.0</ele><time>2026-05-01T02:42:12.001Z</time></trkpt><trkpt lat="45.49664679990949" lon="10.269392894985337"><ele>122.0</ele><time>2026-05-01T02:42:13.001Z</time></trkpt><trkpt lat="45.4965312250805" lon="10.269793254483528"><ele>123.5</ele><time>2026-05-01T02:42:14.001Z</time></trkpt><trkpt lat="45.49641639227478" lon="10.270199970885814"><ele>125.0</ele><time>2026-05-01T02:42:15.001Z</time></trkpt><trkpt lat="45.496302258214904" lon="10.270607642796445"><ele>124.5</ele><time>2026-05-01T02:42:16.001Z</time></trkpt><trkpt lat="45.496187476092004" lon="10.271014852059395"><ele>124.0</ele><time>2026-05-01T02:42:17.001Z</time></trkpt><trkpt lat="45.496072969830855" lon="10.271422487569158"><ele>124.0</ele><time>2026-05-01T02:42:18.001Z</time></trkpt><trkpt lat="45.495957490534884" lon="10.271831223194608"><ele>124.0</ele><time>2026-05-01T02:42:19.001Z</time></trkpt><trkpt lat="45.49584114457593" lon="10.272242502592116"><ele>124.5</ele><time>2026-05-01T02:42:20.001Z</time></trkpt><trkpt lat="45.49572543930506" lon="10.272654205890587"><ele>125.0</ele><time>2026-05-01T02:42:21.001Z</time></trkpt><trkpt lat="45.49561170477377" lon="10.273065236107069"><ele>126.0</ele><time>2026-05-01T02:42:22Z</time></trkpt><trkpt lat="45.49550762722904" lon="10.273471837252258"><ele>127.0</ele><time>2026-05-01T02:42:23Z</time></trkpt><trkpt lat="45.49540864509322" lon="10.273887137395775"><ele>127.0</ele><time>2026-05-01T02:42:24Z</time></trkpt><trkpt lat="45.49530790576848" lon="10.2743040396909"><ele>127.0</ele><time>2026-05-01T02:42:25Z</time></trkpt><trkpt lat="45.49519895925334" lon="10.274720523377283"><ele>127.5</ele><time>2026-05-01T02:42:26Z</time></trkpt><trkpt lat="45.495082618863606" lon="10.275134985539413"><ele>128.0</ele><time>2026-05-01T02:42:27Z</time></trkpt><trkpt lat="45.49495734536098" lon="10.275546803370888"><ele>128.0</ele><time>2026-05-01T02:42:28Z</time></trkpt><trkpt lat="45.494824029084604" lon="10.275954975573539"><ele>128.0</ele><time>2026-05-01T02:42:29Z</time></trkpt><trkpt lat="45.494686415040455" lon="10.276363835056706"><ele>127.5</ele><time>2026-05-01T02:42:30Z</time></trkpt><trkpt lat="45.49454875777592" lon="10.276774084492512"><ele>127.0</ele><time>2026-05-01T02:42:31Z</time></trkpt><trkpt lat="45.494413218849004" lon="10.277186068117464"><ele>128.0</ele><time>2026-05-01T02:42:32Z</time></trkpt><trkpt lat="45.49427901262508" lon="10.27759760221291"><ele>129.0</ele><time>2026-05-01T02:42:33Z</time></trkpt><trkpt lat="45.49414184552298" lon="10.278007154501344"><ele>128.5</ele><time>2026-05-01T02:42:34Z</time></trkpt><trkpt lat="45.49400555980724" lon="10.278416159239352"><ele>128.0</ele><time>2026-05-01T02:42:35Z</time></trkpt><trkpt lat="45.493870200217735" lon="10.27882460319802"><ele>128.0</ele><time>2026-05-01T02:42:36Z</time></trkpt><trkpt lat="45.49373471023134" lon="10.279230596456491"><ele>128.0</ele><time>2026-05-01T02:42:37Z</time></trkpt><trkpt lat="45.49360356238554" lon="10.279632015539013"><ele>128.5</ele><time>2026-05-01T02:42:38Z</time></trkpt><trkpt lat="45.49347681043368" lon="10.280025177323319"><ele>129.0</ele><time>2026-05-01T02:42:39Z</time></trkpt><trkpt lat="45.49334989951632" lon="10.280416005968952"><ele>129.0</ele><time>2026-05-01T02:42:40Z</time></trkpt><trkpt lat="45.49322338124865" lon="10.280804049843834"><ele>129.0</ele><time>2026-05-01T02:42:41Z</time></trkpt><trkpt lat="45.49309676815252" lon="10.281190764073163"><ele>129.5</ele><time>2026-05-01T02:42:42Z</time></trkpt><trkpt lat="45.49296831752026" lon="10.281574179225647"><ele>130.0</ele><time>2026-05-01T02:42:43Z</time></trkpt><trkpt lat="45.4928362615454" lon="10.281954967136409"><ele>128.5</ele><time>2026-05-01T02:42:44Z</time></trkpt><trkpt lat="45.49270197813565" lon="10.28233873474486"><ele>127.0</ele><time>2026-05-01T02:42:45Z</time></trkpt><trkpt lat="45.49257104132515" lon="10.28272442690842"><ele>127.0</ele><time>2026-05-01T02:42:46Z</time></trkpt><trkpt lat="45.492444283927064" lon="10.28311104376121"><ele>127.0</ele><time>2026-05-01T02:42:47Z</time></trkpt><trkpt lat="45.49231574189985" lon="10.28349798096061"><ele>127.0</ele><time>2026-05-01T02:42:48Z</time></trkpt><trkpt lat="45.492186802772565" lon="10.283884918372936"><ele>127.0</ele><time>2026-05-01T02:42:49Z</time></trkpt><trkpt lat="45.492058784935374" lon="10.28427443716533"><ele>127.5</ele><time>2026-05-01T02:42:50Z</time></trkpt><trkpt lat="45.491931599253135" lon="10.284663914732564"><ele>128.0</ele><time>2026-05-01T02:42:51Z</time></trkpt><trkpt lat="45.49180589571271" lon="10.285053349156913"><ele>128.0</ele><time>2026-05-01T02:42:52Z</time></trkpt><trkpt lat="45.49167983167308" lon="10.285444119489272"><ele>128.0</ele><time>2026-05-01T02:42:53Z</time></trkpt><trkpt lat="45.49155328101492" lon="10.28583390449"><ele>127.5</ele><time>2026-05-01T02:42:54Z</time></trkpt><trkpt lat="45.491427746996784" lon="10.286224360600343"><ele>127.0</ele><time>2026-05-01T02:42:55Z</time></trkpt><trkpt lat="45.491301928047974" lon="10.286615416870848"><ele>127.5</ele><time>2026-05-01T02:42:56Z</time></trkpt><trkpt lat="45.491175512749656" lon="10.287006192699682"><ele>128.0</ele><time>2026-05-01T02:42:57Z</time></trkpt><trkpt lat="45.49104706305088" lon="10.287395995174744"><ele>128.0</ele><time>2026-05-01T02:42:58Z</time></trkpt><trkpt lat="45.49092030313165" lon="10.287784080538051"><ele>128.0</ele><time>2026-05-01T02:42:59Z</time></trkpt><trkpt lat="45.490797038471264" lon="10.28817186955317"><ele>128.0</ele><time>2026-05-01T02:43:00Z</time></trkpt><trkpt lat="45.490678213803214" lon="10.288563096080974"><ele>128.0</ele><time>2026-05-01T02:43:01Z</time></trkpt><trkpt lat="45.490556463788955" lon="10.288956887886128"><ele>127.5</ele><time>2026-05-01T02:43:02Z</time></trkpt><trkpt lat="45.490431808221345" lon="10.289332205476923"><ele>127.0</ele><time>2026-05-01T02:43:03Z</time></trkpt><trkpt lat="45.49030420171191" lon="10.28972408557549"><ele>128.5</ele><time>2026-05-01T02:43:04Z</time></trkpt><trkpt lat="45.49017985535237" lon="10.29012635406708"><ele>130.0</ele><time>2026-05-01T02:43:05Z</time></trkpt><trkpt lat="45.49005741280547" lon="10.290532094179246"><ele>129.5</ele><time>2026-05-01T02:43:06Z</time></trkpt><trkpt lat="45.48994172777542" lon="10.29094199459265"><ele>129.0</ele><time>2026-05-01T02:43:07Z</time></trkpt><trkpt lat="45.48983042711923" lon="10.2913543994887"><ele>129.0</ele><time>2026-05-01T02:43:08Z</time></trkpt><trkpt lat="45.489725020272886" lon="10.291769957528626"><ele>129.0</ele><time>2026-05-01T02:43:09Z</time></trkpt><trkpt lat="45.489621442649145" lon="10.29218502169789"><ele>129.0</ele><time>2026-05-01T02:43:10Z</time></trkpt><trkpt lat="45.48951855376751" lon="10.292600201432293"><ele>129.0</ele><time>2026-05-01T02:43:11Z</time></trkpt><trkpt lat="45.489416330975516" lon="10.293012524947747"><ele>130.0</ele><time>2026-05-01T02:43:12Z</time></trkpt><trkpt lat="45.489315023647414" lon="10.293424942146023"><ele>131.0</ele><time>2026-05-01T02:43:13Z</time></trkpt><trkpt lat="45.48921016473836" lon="10.293833884266405"><ele>130.5</ele><time>2026-05-01T02:43:14Z</time></trkpt><trkpt lat="45.489104978171696" lon="10.294240010836441"><ele>130.0</ele><time>2026-05-01T02:43:15Z</time></trkpt><trkpt lat="45.48899187580029" lon="10.294641361434657"><ele>131.0</ele><time>2026-05-01T02:43:16Z</time></trkpt><trkpt lat="45.48888063592044" lon="10.295045144835992"><ele>132.0</ele><time>2026-05-01T02:43:17Z</time></trkpt><trkpt lat="45.488773230039946" lon="10.295452105808142"><ele>131.0</ele><time>2026-05-01T02:43:18Z</time></trkpt><trkpt lat="45.48867126968419" lon="10.29586454072855"><ele>130.0</ele><time>2026-05-01T02:43:19Z</time></trkpt><trkpt lat="45.48857035172768" lon="10.296280126336804"><ele>130.5</ele><time>2026-05-01T02:43:20Z</time></trkpt><trkpt lat="45.48846824737521" lon="10.296696486984176"><ele>131.0</ele><time>2026-05-01T02:43:21Z</time></trkpt><trkpt lat="45.488364148258995" lon="10.297113997677142"><ele>130.0</ele><time>2026-05-01T02:43:22Z</time></trkpt><trkpt lat="45.488258565358954" lon="10.297531004764735"><ele>129.0</ele><time>2026-05-01T02:43:23Z</time></trkpt><trkpt lat="45.48815173498716" lon="10.297948277953019"><ele>130.0</ele><time>2026-05-01T02:43:24Z</time></trkpt><trkpt lat="45.48804783709784" lon="10.298367020573922"><ele>131.0</ele><time>2026-05-01T02:43:25Z</time></trkpt><trkpt lat="45.48794513451822" lon="10.298788169697614"><ele>132.0</ele><time>2026-05-01T02:43:26Z</time></trkpt><trkpt lat="45.48784290621077" lon="10.299210087763338"><ele>133.0</ele><time>2026-05-01T02:43:27Z</time></trkpt><trkpt lat="45.48773985341355" lon="10.299631248659407"><ele>132.0</ele><time>2026-05-01T02:43:28Z</time></trkpt><trkpt lat="45.48763653123371" lon="10.30005256948746"><ele>131.0</ele><time>2026-05-01T02:43:29Z</time></trkpt><trkpt lat="45.487531731391265" lon="10.300467912610749"><ele>131.0</ele><time>2026-05-01T02:43:30Z</time></trkpt><trkpt lat="45.487430958388416" lon="10.300866165573385"><ele>131.0</ele><time>2026-05-01T02:43:31Z</time></trkpt><trkpt lat="45.48732604033346" lon="10.301280518331856"><ele>132.0</ele><time>2026-05-01T02:43:32Z</time></trkpt><trkpt lat="45.487221963043126" lon="10.301701951136993"><ele>133.0</ele><time>2026-05-01T02:43:33Z</time></trkpt><trkpt lat="45.4871184442961" lon="10.30212319070411"><ele>132.0</ele><time>2026-05-01T02:43:34Z</time></trkpt><trkpt lat="45.48701506305934" lon="10.302544719905152"><ele>131.0</ele><time>2026-05-01T02:43:35Z</time></trkpt><trkpt lat="45.48690905878722" lon="10.302966412141332"><ele>131.5</ele><time>2026-05-01T02:43:36.001Z</time></trkpt><trkpt lat="45.4868011036635" lon="10.30338931670304"><ele>132.0</ele><time>2026-05-01T02:43:37.001Z</time></trkpt><trkpt lat="45.48669562951219" lon="10.303812121677902"><ele>132.5</ele><time>2026-05-01T02:43:38.001Z</time></trkpt><trkpt lat="45.486590775312195" lon="10.30423557802523"><ele>133.0</ele><time>2026-05-01T02:43:39.001Z</time></trkpt><trkpt lat="45.486484596557574" lon="10.304657671621168"><ele>133.0</ele><time>2026-05-01T02:43:40.001Z</time></trkpt><trkpt lat="45.48638073688835" lon="10.305080219923868"><ele>133.0</ele><time>2026-05-01T02:43:41.001Z</time></trkpt><trkpt lat="45.48627660842563" lon="10.305502723578083"><ele>133.0</ele><time>2026-05-01T02:43:42.001Z</time></trkpt><trkpt lat="45.48617275860855" lon="10.30592251215264"><ele>133.0</ele><time>2026-05-01T02:43:43.001Z</time></trkpt><trkpt lat="45.48606704304372" lon="10.306340659514902"><ele>132.5</ele><time>2026-05-01T02:43:44.001Z</time></trkpt><trkpt lat="45.4859622107914" lon="10.306755261745927"><ele>132.0</ele><time>2026-05-01T02:43:45.001Z</time></trkpt><trkpt lat="45.485857054916" lon="10.307167342874784"><ele>132.5</ele><time>2026-05-01T02:43:46.001Z</time></trkpt><trkpt lat="45.48575474753101" lon="10.307580993908234"><ele>133.0</ele><time>2026-05-01T02:43:47.001Z</time></trkpt><trkpt lat="45.48565405484477" lon="10.308000142104488"><ele>133.5</ele><time>2026-05-01T02:43:48.001Z</time></trkpt><trkpt lat="45.485550954070725" lon="10.308419897637203"><ele>134.0</ele><time>2026-05-01T02:43:49.001Z</time></trkpt><trkpt lat="45.485448497326516" lon="10.308838905745732"><ele>134.5</ele><time>2026-05-01T02:43:50.001Z</time></trkpt><trkpt lat="45.48534463412508" lon="10.309256778234332"><ele>135.0</ele><time>2026-05-01T02:43:51.001Z</time></trkpt><trkpt lat="45.48523935554614" lon="10.30967434443276"><ele>135.5</ele><time>2026-05-01T02:43:52.001Z</time></trkpt><trkpt lat="45.48513434270804" lon="10.310092211220779"><ele>136.0</ele><time>2026-05-01T02:43:53.001Z</time></trkpt><trkpt lat="45.485030032449664" lon="10.310510893081164"><ele>136.5</ele><time>2026-05-01T02:43:54.001Z</time></trkpt><trkpt lat="45.48492587159909" lon="10.310930848776856"><ele>137.0</ele><time>2026-05-01T02:43:55.001Z</time></trkpt><trkpt lat="45.48481925068647" lon="10.311349496664965"><ele>136.5</ele><time>2026-05-01T02:43:56.001Z</time></trkpt><trkpt lat="45.484713874127316" lon="10.311766252176177"><ele>136.0</ele><time>2026-05-01T02:43:57.001Z</time></trkpt><trkpt lat="45.48460717408207" lon="10.312181552320853"><ele>135.0</ele><time>2026-05-01T02:43:58.001Z</time></trkpt><trkpt lat="45.484499431134196" lon="10.312596197512503"><ele>134.0</ele><time>2026-05-01T02:43:59.001Z</time></trkpt><trkpt lat="45.484393732319184" lon="10.313012321994941"><ele>134.5</ele><time>2026-05-01T02:44:00.001Z</time></trkpt><trkpt lat="45.484289056760865" lon="10.313428384684716"><ele>135.0</ele><time>2026-05-01T02:44:01.001Z</time></trkpt><trkpt lat="45.48418636396536" lon="10.313844792130041"><ele>135.5</ele><time>2026-05-01T02:44:02.001Z</time></trkpt><trkpt lat="45.48408335770001" lon="10.314258295526766"><ele>136.0</ele><time>2026-05-01T02:44:03.001Z</time></trkpt><trkpt lat="45.48398124834444" lon="10.314671832724548"><ele>136.5</ele><time>2026-05-01T02:44:04.001Z</time></trkpt><trkpt lat="45.48387983518636" lon="10.315084574492204"><ele>137.0</ele><time>2026-05-01T02:44:05.001Z</time></trkpt><trkpt lat="45.483781419919275" lon="10.315498612633474"><ele>135.5</ele><time>2026-05-01T02:44:06.001Z</time></trkpt><trkpt lat="45.48368601373713" lon="10.31591404205978"><ele>134.0</ele><time>2026-05-01T02:44:07.001Z</time></trkpt><trkpt lat="45.483594627187095" lon="10.316328227135307"><ele>134.0</ele><time>2026-05-01T02:44:08.001Z</time></trkpt><trkpt lat="45.48350749039858" lon="10.31674345914442"><ele>134.0</ele><time>2026-05-01T02:44:09.001Z</time></trkpt><trkpt lat="45.48342350558433" lon="10.317160298023452"><ele>134.0</ele><time>2026-05-01T02:44:10.001Z</time></trkpt><trkpt lat="45.483336750681126" lon="10.317576764000618"><ele>134.0</ele><time>2026-05-01T02:44:11.001Z</time></trkpt><trkpt lat="45.48324660806104" lon="10.31799391741555"><ele>135.5</ele><time>2026-05-01T02:44:12.001Z</time></trkpt><trkpt lat="45.483155592490235" lon="10.318412615260316"><ele>137.0</ele><time>2026-05-01T02:44:13.001Z</time></trkpt><trkpt lat="45.48306304336099" lon="10.318833352982281"><ele>136.5</ele><time>2026-05-01T02:44:14.001Z</time></trkpt><trkpt lat="45.48297073377405" lon="10.319251832156318"><ele>136.0</ele><time>2026-05-01T02:44:15.001Z</time></trkpt><trkpt lat="45.482875734581064" lon="10.319670033344996"><ele>135.5</ele><time>2026-05-01T02:44:16.001Z</time></trkpt><trkpt lat="45.482779629338765" lon="10.320088337811859"><ele>135.0</ele><time>2026-05-01T02:44:17.001Z</time></trkpt><trkpt lat="45.48268348880169" lon="10.32050704304467"><ele>135.0</ele><time>2026-05-01T02:44:18.001Z</time></trkpt><trkpt lat="45.48258810974314" lon="10.320926300289871"><ele>135.0</ele><time>2026-05-01T02:44:19.001Z</time></trkpt><trkpt lat="45.48249394663097" lon="10.321344818209514"><ele>134.0</ele><time>2026-05-01T02:44:20.001Z</time></trkpt><trkpt lat="45.48240023393166" lon="10.321762923649798"><ele>133.0</ele><time>2026-05-01T02:44:21.001Z</time></trkpt><trkpt lat="45.482306214453416" lon="10.322180470638845"><ele>134.0</ele><time>2026-05-01T02:44:22.001Z</time></trkpt><trkpt lat="45.48221268903133" lon="10.322598539558712"><ele>135.0</ele><time>2026-05-01T02:44:23.001Z</time></trkpt><trkpt lat="45.48211668681092" lon="10.323016136365425"><ele>135.0</ele><time>2026-05-01T02:44:24.001Z</time></trkpt><trkpt lat="45.48202224794578" lon="10.32343315155585"><ele>135.0</ele><time>2026-05-01T02:44:25.001Z</time></trkpt><trkpt lat="45.4819289886351" lon="10.323851041948513"><ele>135.0</ele><time>2026-05-01T02:44:26.001Z</time></trkpt><trkpt lat="45.481835674647485" lon="10.324269036924688"><ele>135.0</ele><time>2026-05-01T02:44:27.001Z</time></trkpt><trkpt lat="45.481742531312726" lon="10.32468571694261"><ele>135.5</ele><time>2026-05-01T02:44:28Z</time></trkpt><trkpt lat="45.48164881600154" lon="10.325101844887152"><ele>136.0</ele><time>2026-05-01T02:44:29Z</time></trkpt><trkpt lat="45.481554652026695" lon="10.325516525255827"><ele>136.5</ele><time>2026-05-01T02:44:30Z</time></trkpt><trkpt lat="45.48145947977343" lon="10.325934023585834"><ele>137.0</ele><time>2026-05-01T02:44:31Z</time></trkpt><trkpt lat="45.48136584628519" lon="10.326350315260179"><ele>136.0</ele><time>2026-05-01T02:44:32Z</time></trkpt><trkpt lat="45.48127232654821" lon="10.326767644887743"><ele>135.0</ele><time>2026-05-01T02:44:33Z</time></trkpt><trkpt lat="45.48117843691279" lon="10.327185198857547"><ele>135.5</ele><time>2026-05-01T02:44:34Z</time></trkpt><trkpt lat="45.48108362778267" lon="10.32760148556747"><ele>136.0</ele><time>2026-05-01T02:44:35Z</time></trkpt><trkpt lat="45.48098842851242" lon="10.32801828100796"><ele>136.0</ele><time>2026-05-01T02:44:36Z</time></trkpt><trkpt lat="45.48089452417092" lon="10.328436570375239"><ele>136.0</ele><time>2026-05-01T02:44:37Z</time></trkpt><trkpt lat="45.480800477260814" lon="10.328853780006078"><ele>136.0</ele><time>2026-05-01T02:44:38Z</time></trkpt><trkpt lat="45.48070675009883" lon="10.329270820227856"><ele>136.0</ele><time>2026-05-01T02:44:39Z</time></trkpt><trkpt lat="45.48061378328956" lon="10.329686952547677"><ele>136.0</ele><time>2026-05-01T02:44:40Z</time></trkpt><trkpt lat="45.48052010750939" lon="10.330104618831097"><ele>136.0</ele><time>2026-05-01T02:44:41Z</time></trkpt><trkpt lat="45.48042545265627" lon="10.330522494060709"><ele>137.0</ele><time>2026-05-01T02:44:42Z</time></trkpt><trkpt lat="45.48033213074773" lon="10.330938430592738"><ele>138.0</ele><time>2026-05-01T02:44:43Z</time></trkpt><trkpt lat="45.48023817460584" lon="10.331355315100796"><ele>137.0</ele><time>2026-05-01T02:44:44Z</time></trkpt><trkpt lat="45.48014430810155" lon="10.33177191524747"><ele>136.0</ele><time>2026-05-01T02:44:45Z</time></trkpt><trkpt lat="45.4800497745769" lon="10.332187413948379"><ele>135.0</ele><time>2026-05-01T02:44:46Z</time></trkpt><trkpt lat="45.47995578261706" lon="10.332601990094755"><ele>134.0</ele><time>2026-05-01T02:44:47Z</time></trkpt><trkpt lat="45.479863864670655" lon="10.333015583708669"><ele>135.5</ele><time>2026-05-01T02:44:48Z</time></trkpt><trkpt lat="45.47977144814316" lon="10.333429168579743"><ele>137.0</ele><time>2026-05-01T02:44:49Z</time></trkpt><trkpt lat="45.47967888181142" lon="10.333842848805851"><ele>137.0</ele><time>2026-05-01T02:44:50Z</time></trkpt><trkpt lat="45.479582403907195" lon="10.334255530477696"><ele>137.0</ele><time>2026-05-01T02:44:51Z</time></trkpt><trkpt lat="45.479479151035015" lon="10.334665151891857"><ele>137.0</ele><time>2026-05-01T02:44:52Z</time></trkpt><trkpt lat="45.47937632212343" lon="10.3350748739683"><ele>137.0</ele><time>2026-05-01T02:44:53Z</time></trkpt><trkpt lat="45.47927657783853" lon="10.3354874846888"><ele>136.5</ele><time>2026-05-01T02:44:54Z</time></trkpt><trkpt lat="45.47918499675593" lon="10.33588141643856"><ele>136.0</ele><time>2026-05-01T02:44:55Z</time></trkpt><trkpt lat="45.479093813692685" lon="10.336288544240317"><ele>136.0</ele><time>2026-05-01T02:44:56Z</time></trkpt><trkpt lat="45.47900124450254" lon="10.336705827468434"><ele>136.0</ele><time>2026-05-01T02:44:57Z</time></trkpt><trkpt lat="45.47890841581294" lon="10.337124504632186"><ele>135.5</ele><time>2026-05-01T02:44:58Z</time></trkpt><trkpt lat="45.47881419336671" lon="10.337543252037575"><ele>135.0</ele><time>2026-05-01T02:44:59Z</time></trkpt><trkpt lat="45.47871915167379" lon="10.33796095965005"><ele>135.5</ele><time>2026-05-01T02:45:00Z</time></trkpt><trkpt lat="45.47862278336555" lon="10.338376528024575"><ele>136.0</ele><time>2026-05-01T02:45:01Z</time></trkpt><trkpt lat="45.47852951524082" lon="10.338790826796126"><ele>137.0</ele><time>2026-05-01T02:45:02Z</time></trkpt><trkpt lat="45.478438980541135" lon="10.339204787930026"><ele>138.0</ele><time>2026-05-01T02:45:03Z</time></trkpt><trkpt lat="45.47834709078184" lon="10.339618946318794"><ele>137.0</ele><time>2026-05-01T02:45:04Z</time></trkpt><trkpt lat="45.47825557181453" lon="10.340031250206938"><ele>136.0</ele><time>2026-05-01T02:45:05Z</time></trkpt><trkpt lat="45.47816508345198" lon="10.340442357079048"><ele>136.0</ele><time>2026-05-01T02:45:06Z</time></trkpt><trkpt lat="45.47807342373653" lon="10.340854972981715"><ele>136.0</ele><time>2026-05-01T02:45:07Z</time></trkpt><trkpt lat="45.47798095728194" lon="10.341266412313004"><ele>136.0</ele><time>2026-05-01T02:45:08Z</time></trkpt><trkpt lat="45.47788897757071" lon="10.34167838026916"><ele>136.0</ele><time>2026-05-01T02:45:09Z</time></trkpt><trkpt lat="45.47779615956732" lon="10.342091142446833"><ele>135.5</ele><time>2026-05-01T02:45:10Z</time></trkpt><trkpt lat="45.47770281149796" lon="10.342503368780237"><ele>135.0</ele><time>2026-05-01T02:45:11Z</time></trkpt><trkpt lat="45.47761009438259" lon="10.34291516509331"><ele>135.0</ele><time>2026-05-01T02:45:12Z</time></trkpt><trkpt lat="45.47751835804802" lon="10.343327409128225"><ele>135.0</ele><time>2026-05-01T02:45:13Z</time></trkpt><trkpt lat="45.477425541342214" lon="10.343739736412042"><ele>136.0</ele><time>2026-05-01T02:45:14Z</time></trkpt><trkpt lat="45.477334036441476" lon="10.344152168009535"><ele>137.0</ele><time>2026-05-01T02:45:15Z</time></trkpt><trkpt lat="45.4772419911115" lon="10.34456188983364"><ele>136.5</ele><time>2026-05-01T02:45:16Z</time></trkpt><trkpt lat="45.47714819551495" lon="10.344968978456786"><ele>136.0</ele><time>2026-05-01T02:45:17Z</time></trkpt><trkpt lat="45.477049147685214" lon="10.345373418777077"><ele>135.5</ele><time>2026-05-01T02:45:18Z</time></trkpt><trkpt lat="45.47694491847798" lon="10.345774889927142"><ele>135.0</ele><time>2026-05-01T02:45:19Z</time></trkpt><trkpt lat="45.47684228063709" lon="10.346177738500055"><ele>135.5</ele><time>2026-05-01T02:45:20Z</time></trkpt><trkpt lat="45.476745324802245" lon="10.346584456961034"><ele>136.0</ele><time>2026-05-01T02:45:21Z</time></trkpt><trkpt lat="45.47665431737111" lon="10.346996987356107"><ele>137.0</ele><time>2026-05-01T02:45:22Z</time></trkpt><trkpt lat="45.47656373067642" lon="10.347412435645106"><ele>138.0</ele><time>2026-05-01T02:45:23Z</time></trkpt><trkpt lat="45.47647056442711" lon="10.347826289256448"><ele>137.5</ele><time>2026-05-01T02:45:24Z</time></trkpt><trkpt lat="45.476375399471515" lon="10.348240945272188"><ele>137.0</ele><time>2026-05-01T02:45:25Z</time></trkpt><trkpt lat="45.476279214794396" lon="10.348653615772207"><ele>136.5</ele><time>2026-05-01T02:45:26Z</time></trkpt><trkpt lat="45.47618531135543" lon="10.349068268063432"><ele>136.0</ele><time>2026-05-01T02:45:27Z</time></trkpt><trkpt lat="45.47609325746226" lon="10.349483807827998"><ele>136.5</ele><time>2026-05-01T02:45:28Z</time></trkpt><trkpt lat="45.475999787190695" lon="10.349898584191246"><ele>137.0</ele><time>2026-05-01T02:45:29Z</time></trkpt><trkpt lat="45.475905265922464" lon="10.350313429670909"><ele>136.5</ele><time>2026-05-01T02:45:30Z</time></trkpt><trkpt lat="45.475810445389456" lon="10.350727078068546"><ele>136.0</ele><time>2026-05-01T02:45:31Z</time></trkpt><trkpt lat="45.47571608990522" lon="10.351141957530954"><ele>136.5</ele><time>2026-05-01T02:45:32Z</time></trkpt><trkpt lat="45.47562216293027" lon="10.351557968199304"><ele>137.0</ele><time>2026-05-01T02:45:33Z</time></trkpt><trkpt lat="45.475528576439864" lon="10.351974448464313"><ele>136.5</ele><time>2026-05-01T02:45:34Z</time></trkpt><trkpt lat="45.47543505575643" lon="10.352390248455213"><ele>136.0</ele><time>2026-05-01T02:45:35Z</time></trkpt><trkpt lat="45.47534150230243" lon="10.35280698599154"><ele>136.5</ele><time>2026-05-01T02:45:36Z</time></trkpt><trkpt lat="45.475249957916205" lon="10.353224778324492"><ele>137.0</ele><time>2026-05-01T02:45:37Z</time></trkpt><trkpt lat="45.47515761122571" lon="10.353642038672325"><ele>137.0</ele><time>2026-05-01T02:45:38Z</time></trkpt><trkpt lat="45.47506503120921" lon="10.354059210549737"><ele>137.0</ele><time>2026-05-01T02:45:39Z</time></trkpt><trkpt lat="45.47497045943575" lon="10.354474288074845"><ele>136.5</ele><time>2026-05-01T02:45:40Z</time></trkpt><trkpt lat="45.474877257861564" lon="10.354889269670595"><ele>136.0</ele><time>2026-05-01T02:45:41Z</time></trkpt><trkpt lat="45.474783899379084" lon="10.355304446678979"><ele>136.5</ele><time>2026-05-01T02:45:42Z</time></trkpt><trkpt lat="45.474689283747026" lon="10.355717841027987"><ele>137.0</ele><time>2026-05-01T02:45:43Z</time></trkpt><trkpt lat="45.47459510558449" lon="10.356130495939624"><ele>136.0</ele><time>2026-05-01T02:45:44Z</time></trkpt><trkpt lat="45.47450179416407" lon="10.356544201337403"><ele>135.0</ele><time>2026-05-01T02:45:45Z</time></trkpt><trkpt lat="45.47440936672665" lon="10.356958957828558"><ele>134.5</ele><time>2026-05-01T02:45:46Z</time></trkpt><trkpt lat="45.47431744399107" lon="10.357373634951255"><ele>134.0</ele><time>2026-05-01T02:45:47.001Z</time></trkpt><trkpt lat="45.474225419187455" lon="10.357787501224589"><ele>134.5</ele><time>2026-05-01T02:45:48.001Z</time></trkpt><trkpt lat="45.47413144397256" lon="10.358201269648951"><ele>135.0</ele><time>2026-05-01T02:45:49.001Z</time></trkpt><trkpt lat="45.47403756291762" lon="10.358614495837873"><ele>135.5</ele><time>2026-05-01T02:45:50.001Z</time></trkpt><trkpt lat="45.47394486554806" lon="10.359028161566812"><ele>136.0</ele><time>2026-05-01T02:45:51.001Z</time></trkpt><trkpt lat="45.473852296120356" lon="10.359442712192578"><ele>136.0</ele><time>2026-05-01T02:45:52.001Z</time></trkpt><trkpt lat="45.47375953603365" lon="10.359857806676894"><ele>136.0</ele><time>2026-05-01T02:45:53.001Z</time></trkpt><trkpt lat="45.47366701827091" lon="10.360274232153714"><ele>135.5</ele><time>2026-05-01T02:45:54.001Z</time></trkpt><trkpt lat="45.47357554860908" lon="10.360691089399591"><ele>135.0</ele><time>2026-05-01T02:45:55.001Z</time></trkpt><trkpt lat="45.47348377645322" lon="10.361109777303172"><ele>135.0</ele><time>2026-05-01T02:45:56.001Z</time></trkpt><trkpt lat="45.47339655678338" lon="10.361531625618687"><ele>135.0</ele><time>2026-05-01T02:45:57.001Z</time></trkpt><trkpt lat="45.47330864613928" lon="10.361953350006466"><ele>135.0</ele><time>2026-05-01T02:45:58.001Z</time></trkpt><trkpt lat="45.473221038612934" lon="10.362375352067618"><ele>135.0</ele><time>2026-05-01T02:45:59.001Z</time></trkpt><trkpt lat="45.47312922993957" lon="10.362796841360858"><ele>134.5</ele><time>2026-05-01T02:46:00.001Z</time></trkpt><trkpt lat="45.473036224658856" lon="10.363217452774984"><ele>134.0</ele><time>2026-05-01T02:46:01.001Z</time></trkpt><trkpt lat="45.47294180757258" lon="10.363636464389314"><ele>134.5</ele><time>2026-05-01T02:46:02.001Z</time></trkpt><trkpt lat="45.47284554270449" lon="10.3640540830081"><ele>135.0</ele><time>2026-05-01T02:46:03.001Z</time></trkpt><trkpt lat="45.472749603886534" lon="10.364472081897711"><ele>135.0</ele><time>2026-05-01T02:46:04.001Z</time></trkpt><trkpt lat="45.47264967216661" lon="10.364890026406785"><ele>135.0</ele><time>2026-05-01T02:46:05.001Z</time></trkpt><trkpt lat="45.47254921608633" lon="10.365305537374342"><ele>135.5</ele><time>2026-05-01T02:46:06.001Z</time></trkpt><trkpt lat="45.472444157614504" lon="10.365721042667323"><ele>136.0</ele><time>2026-05-01T02:46:07.001Z</time></trkpt><trkpt lat="45.47234409050977" lon="10.366137759795334"><ele>136.0</ele><time>2026-05-01T02:46:08.001Z</time></trkpt><trkpt lat="45.47224757683605" lon="10.366555725159406"><ele>136.0</ele><time>2026-05-01T02:46:09.001Z</time></trkpt><trkpt lat="45.47215183345856" lon="10.3669748703922"><ele>135.5</ele><time>2026-05-01T02:46:10.001Z</time></trkpt><trkpt lat="45.472057992192894" lon="10.36739422917467"><ele>135.0</ele><time>2026-05-01T02:46:11.001Z</time></trkpt><trkpt lat="45.47196369866583" lon="10.367813745819317"><ele>135.5</ele><time>2026-05-01T02:46:12.001Z</time></trkpt><trkpt lat="45.471869688692834" lon="10.368233367063244"><ele>136.0</ele><time>2026-05-01T02:46:13.001Z</time></trkpt><trkpt lat="45.47177402596068" lon="10.36865261186627"><ele>136.0</ele><time>2026-05-01T02:46:14.001Z</time></trkpt><trkpt lat="45.47168046928967" lon="10.36907164508184"><ele>136.0</ele><time>2026-05-01T02:46:15.001Z</time></trkpt><trkpt lat="45.47158678471719" lon="10.369490008752209"><ele>136.5</ele><time>2026-05-01T02:46:16.001Z</time></trkpt><trkpt lat="45.47149274917804" lon="10.369908568713326"><ele>137.0</ele><time>2026-05-01T02:46:17.001Z</time></trkpt><trkpt lat="45.4713994681154" lon="10.370327076779414"><ele>136.5</ele><time>2026-05-01T02:46:18.001Z</time></trkpt><trkpt lat="45.47130641537071" lon="10.37074487108831"><ele>136.0</ele><time>2026-05-01T02:46:19.001Z</time></trkpt><trkpt lat="45.47121539276359" lon="10.371163678760906"><ele>135.5</ele><time>2026-05-01T02:46:20.001Z</time></trkpt><trkpt lat="45.471123913733685" lon="10.371581171001935"><ele>135.0</ele><time>2026-05-01T02:46:21.001Z</time></trkpt><trkpt lat="45.4710297942682" lon="10.371997019188388"><ele>134.5</ele><time>2026-05-01T02:46:22.001Z</time></trkpt><trkpt lat="45.47093611067784" lon="10.3724113916783"><ele>134.0</ele><time>2026-05-01T02:46:23.001Z</time></trkpt><trkpt lat="45.47084277673341" lon="10.372826902790617"><ele>134.5</ele><time>2026-05-01T02:46:24.001Z</time></trkpt><trkpt lat="45.470750636841856" lon="10.373240089583158"><ele>135.0</ele><time>2026-05-01T02:46:25.001Z</time></trkpt><trkpt lat="45.4706602452972" lon="10.373654987169992"><ele>135.0</ele><time>2026-05-01T02:46:26.001Z</time></trkpt><trkpt lat="45.47057420212682" lon="10.374070740239148"><ele>135.0</ele><time>2026-05-01T02:46:27.001Z</time></trkpt><trkpt lat="45.4704885127521" lon="10.374487736092611"><ele>135.0</ele><time>2026-05-01T02:46:28.001Z</time></trkpt><trkpt lat="45.470400771447" lon="10.374904340793858"><ele>135.0</ele><time>2026-05-01T02:46:29.001Z</time></trkpt><trkpt lat="45.470312158154904" lon="10.37532113282104"><ele>135.0</ele><time>2026-05-01T02:46:30.001Z</time></trkpt><trkpt lat="45.47021981398724" lon="10.375735400269644"><ele>135.0</ele><time>2026-05-01T02:46:31.001Z</time></trkpt><trkpt lat="45.470127889213124" lon="10.376150893799073"><ele>135.0</ele><time>2026-05-01T02:46:32.001Z</time></trkpt><trkpt lat="45.470035491300436" lon="10.376565685490574"><ele>135.0</ele><time>2026-05-01T02:46:33.001Z</time></trkpt><trkpt lat="45.46994171564239" lon="10.376978158361027"><ele>135.5</ele><time>2026-05-01T02:46:34Z</time></trkpt><trkpt lat="45.469846637695454" lon="10.377387088335237"><ele>136.0</ele><time>2026-05-01T02:46:35Z</time></trkpt><trkpt lat="45.46974668408934" lon="10.377793390217587"><ele>136.0</ele><time>2026-05-01T02:46:36Z</time></trkpt><trkpt lat="45.469641550353444" lon="10.378200205914796"><ele>136.0</ele><time>2026-05-01T02:46:37Z</time></trkpt><trkpt lat="45.469537269286576" lon="10.37861045237031"><ele>136.0</ele><time>2026-05-01T02:46:38Z</time></trkpt><trkpt lat="45.46943830765514" lon="10.379025715917106"><ele>136.0</ele><time>2026-05-01T02:46:39Z</time></trkpt><trkpt lat="45.46934447326132" lon="10.379446484523665"><ele>135.0</ele><time>2026-05-01T02:46:40Z</time></trkpt><trkpt lat="45.46925231687801" lon="10.379867913166498"><ele>134.0</ele><time>2026-05-01T02:46:41Z</time></trkpt><trkpt lat="45.46915740722741" lon="10.38028247928853"><ele>134.5</ele><time>2026-05-01T02:46:42Z</time></trkpt><trkpt lat="45.46906768231983" lon="10.38067533529167"><ele>135.0</ele><time>2026-05-01T02:46:43Z</time></trkpt><trkpt lat="45.468974201585375" lon="10.381088893227167"><ele>135.5</ele><time>2026-05-01T02:46:44Z</time></trkpt><trkpt lat="45.4688811169757" lon="10.381504043140588"><ele>136.0</ele><time>2026-05-01T02:46:45Z</time></trkpt><trkpt lat="45.46878650174276" lon="10.38192106196648"><ele>135.5</ele><time>2026-05-01T02:46:46Z</time></trkpt><trkpt lat="45.468691871737974" lon="10.382340243917579"><ele>135.0</ele><time>2026-05-01T02:46:47Z</time></trkpt><trkpt lat="45.46859703818458" lon="10.382761469192506"><ele>135.0</ele><time>2026-05-01T02:46:48Z</time></trkpt><trkpt lat="45.468503990452724" lon="10.383184052353442"><ele>135.0</ele><time>2026-05-01T02:46:49Z</time></trkpt><trkpt lat="45.468409867856735" lon="10.383606340125485"><ele>134.5</ele><time>2026-05-01T02:46:50Z</time></trkpt><trkpt lat="45.46831951393068" lon="10.384029332152664"><ele>134.0</ele><time>2026-05-01T02:46:51Z</time></trkpt><trkpt lat="45.4682345207232" lon="10.38445202936157"><ele>133.5</ele><time>2026-05-01T02:46:52Z</time></trkpt><trkpt lat="45.468155033542416" lon="10.384874749430267"><ele>133.0</ele><time>2026-05-01T02:46:53Z</time></trkpt><trkpt lat="45.468081473275376" lon="10.385298290534905"><ele>133.5</ele><time>2026-05-01T02:46:54Z</time></trkpt><trkpt lat="45.4680121898063" lon="10.3857210786087"><ele>134.0</ele><time>2026-05-01T02:46:55Z</time></trkpt><trkpt lat="45.467944522655884" lon="10.38614220383981"><ele>133.5</ele><time>2026-05-01T02:46:56Z</time></trkpt><trkpt lat="45.46787790895673" lon="10.386563616202183"><ele>133.0</ele><time>2026-05-01T02:46:57Z</time></trkpt><trkpt lat="45.46780974881953" lon="10.386986211037174"><ele>133.0</ele><time>2026-05-01T02:46:58Z</time></trkpt><trkpt lat="45.46773806756872" lon="10.387408387976716"><ele>133.0</ele><time>2026-05-01T02:46:59Z</time></trkpt><trkpt lat="45.46766611822043" lon="10.387830414256317"><ele>132.5</ele><time>2026-05-01T02:47:00Z</time></trkpt><trkpt lat="45.4675944488737" lon="10.38825233496804"><ele>132.0</ele><time>2026-05-01T02:47:01Z</time></trkpt><trkpt lat="45.46752378654006" lon="10.388673937552987"><ele>133.0</ele><time>2026-05-01T02:47:02Z</time></trkpt><trkpt lat="45.46745235580858" lon="10.389095969669661"><ele>134.0</ele><time>2026-05-01T02:47:03Z</time></trkpt><trkpt lat="45.467381098878676" lon="10.389518284751865"><ele>133.0</ele><time>2026-05-01T02:47:04Z</time></trkpt><trkpt lat="45.46731016159954" lon="10.389940031280032"><ele>132.0</ele><time>2026-05-01T02:47:05Z</time></trkpt><trkpt lat="45.467238952441335" lon="10.390361593491319"><ele>131.0</ele><time>2026-05-01T02:47:06Z</time></trkpt><trkpt lat="45.467167240186114" lon="10.390783739856511"><ele>130.0</ele><time>2026-05-01T02:47:07Z</time></trkpt><trkpt lat="45.46709537977364" lon="10.391205877909027"><ele>130.5</ele><time>2026-05-01T02:47:08Z</time></trkpt><trkpt lat="45.46702444442911" lon="10.391629205755143"><ele>131.0</ele><time>2026-05-01T02:47:09Z</time></trkpt><trkpt lat="45.46695472345238" lon="10.392054086557506"><ele>130.5</ele><time>2026-05-01T02:47:10Z</time></trkpt><trkpt lat="45.466884557034646" lon="10.392479330639308"><ele>130.0</ele><time>2026-05-01T02:47:11Z</time></trkpt><trkpt lat="45.466814710444524" lon="10.39290418879637"><ele>129.5</ele><time>2026-05-01T02:47:12Z</time></trkpt><trkpt lat="45.466744895402705" lon="10.393328587598335"><ele>129.0</ele><time>2026-05-01T02:47:13Z</time></trkpt><trkpt lat="45.46667382839432" lon="10.39375255071728"><ele>129.5</ele><time>2026-05-01T02:47:14Z</time></trkpt><trkpt lat="45.46660310646548" lon="10.394175967351947"><ele>130.0</ele><time>2026-05-01T02:47:15Z</time></trkpt><trkpt lat="45.46653278120204" lon="10.394600704380986"><ele>129.5</ele><time>2026-05-01T02:47:16Z</time></trkpt><trkpt lat="45.46646205874671" lon="10.395024779779733"><ele>129.0</ele><time>2026-05-01T02:47:17Z</time></trkpt><trkpt lat="45.46639053312934" lon="10.395448738207664"><ele>129.0</ele><time>2026-05-01T02:47:18Z</time></trkpt><trkpt lat="45.46631925173679" lon="10.395872509228932"><ele>129.0</ele><time>2026-05-01T02:47:19Z</time></trkpt><trkpt lat="45.466249965261504" lon="10.396297197016853"><ele>129.5</ele><time>2026-05-01T02:47:20Z</time></trkpt><trkpt lat="45.46617906786405" lon="10.396722009061426"><ele>130.0</ele><time>2026-05-01T02:47:21Z</time></trkpt><trkpt lat="45.46610837792539" lon="10.39714651067186"><ele>131.0</ele><time>2026-05-01T02:47:22Z</time></trkpt><trkpt lat="45.46603828562678" lon="10.39757094455201"><ele>132.0</ele><time>2026-05-01T02:47:23Z</time></trkpt><trkpt lat="45.46596741771841" lon="10.39799689633146"><ele>131.0</ele><time>2026-05-01T02:47:24Z</time></trkpt><trkpt lat="45.46589620789339" lon="10.398422137793835"><ele>130.0</ele><time>2026-05-01T02:47:25Z</time></trkpt><trkpt lat="45.465826558289535" lon="10.398847502366905"><ele>130.0</ele><time>2026-05-01T02:47:26Z</time></trkpt><trkpt lat="45.465760429700595" lon="10.399273468736055"><ele>130.0</ele><time>2026-05-01T02:47:27Z</time></trkpt><trkpt lat="45.46570081718264" lon="10.399701371781141"><ele>130.5</ele><time>2026-05-01T02:47:28Z</time></trkpt><trkpt lat="45.465650244711235" lon="10.400131561025566"><ele>131.0</ele><time>2026-05-01T02:47:29Z</time></trkpt><trkpt lat="45.465602657943016" lon="10.400563603192785"><ele>131.5</ele><time>2026-05-01T02:47:30Z</time></trkpt><trkpt lat="45.4655581978983" lon="10.400998621526938"><ele>132.0</ele><time>2026-05-01T02:47:31Z</time></trkpt><trkpt lat="45.46551827782751" lon="10.401437136865406"><ele>131.0</ele><time>2026-05-01T02:47:32Z</time></trkpt><trkpt lat="45.46548265317946" lon="10.401874351410138"><ele>130.0</ele><time>2026-05-01T02:47:33Z</time></trkpt><trkpt lat="45.46544794251228" lon="10.402313674026377"><ele>128.5</ele><time>2026-05-01T02:47:34Z</time></trkpt><trkpt lat="45.46540929109292" lon="10.402749931681194"><ele>127.0</ele><time>2026-05-01T02:47:35Z</time></trkpt><trkpt lat="45.46537719944537" lon="10.40318515507855"><ele>127.0</ele><time>2026-05-01T02:47:36Z</time></trkpt><trkpt lat="45.465340161421345" lon="10.403618464016091"><ele>127.0</ele><time>2026-05-01T02:47:37Z</time></trkpt><trkpt lat="45.465302817478424" lon="10.404051223602288"><ele>126.5</ele><time>2026-05-01T02:47:38Z</time></trkpt><trkpt lat="45.465268999025504" lon="10.40448265282065"><ele>126.0</ele><time>2026-05-01T02:47:39Z</time></trkpt><trkpt lat="45.465234689044216" lon="10.404912858573779"><ele>126.0</ele><time>2026-05-01T02:47:40Z</time></trkpt><trkpt lat="45.46519964028563" lon="10.405344034552218"><ele>126.0</ele><time>2026-05-01T02:47:41Z</time></trkpt><trkpt lat="45.465164150278255" lon="10.405775264869103"><ele>126.0</ele><time>2026-05-01T02:47:42Z</time></trkpt><trkpt lat="45.46512823327461" lon="10.406206010982372"><ele>126.0</ele><time>2026-05-01T02:47:43Z</time></trkpt><trkpt lat="45.46509357254851" lon="10.406636148538775"><ele>126.5</ele><time>2026-05-01T02:47:44Z</time></trkpt><trkpt lat="45.465060118434906" lon="10.407066012908857"><ele>127.0</ele><time>2026-05-01T02:47:45Z</time></trkpt><trkpt lat="45.465024853450565" lon="10.407496865276176"><ele>128.5</ele><time>2026-05-01T02:47:46Z</time></trkpt><trkpt lat="45.46498797746058" lon="10.4079282436145"><ele>130.0</ele><time>2026-05-01T02:47:47Z</time></trkpt><trkpt lat="45.46495161268128" lon="10.408360393887127"><ele>130.0</ele><time>2026-05-01T02:47:48Z</time></trkpt><trkpt lat="45.464915216430946" lon="10.408793234328021"><ele>130.0</ele><time>2026-05-01T02:47:49.001Z</time></trkpt><trkpt lat="45.464879028764" lon="10.409229465862193"><ele>131.5</ele><time>2026-05-01T02:47:50.001Z</time></trkpt><trkpt lat="45.46484354775009" lon="10.409665457158264"><ele>133.0</ele><time>2026-05-01T02:47:51.001Z</time></trkpt><trkpt lat="45.46480715656477" lon="10.410101945261694"><ele>134.5</ele><time>2026-05-01T02:47:52.001Z</time></trkpt><trkpt lat="45.46477122909619" lon="10.410538767134424"><ele>136.0</ele><time>2026-05-01T02:47:53.001Z</time></trkpt><trkpt lat="45.4647371673551" lon="10.410975306608288"><ele>137.0</ele><time>2026-05-01T02:47:54.001Z</time></trkpt><trkpt lat="45.46470200442685" lon="10.411412269465627"><ele>138.0</ele><time>2026-05-01T02:47:55.001Z</time></trkpt><trkpt lat="45.464663956435324" lon="10.411850046325775"><ele>138.0</ele><time>2026-05-01T02:47:56.001Z</time></trkpt><trkpt lat="45.46462844122455" lon="10.412287655081592"><ele>138.0</ele><time>2026-05-01T02:47:57.001Z</time></trkpt><trkpt lat="45.46459144709152" lon="10.412721569587129"><ele>137.0</ele><time>2026-05-01T02:47:58.001Z</time></trkpt><trkpt lat="45.46455717607631" lon="10.413155733552651"><ele>136.0</ele><time>2026-05-01T02:47:59.001Z</time></trkpt><trkpt lat="45.46452243466815" lon="10.41359187743587"><ele>137.0</ele><time>2026-05-01T02:48:00.001Z</time></trkpt><trkpt lat="45.46448792219243" lon="10.414027633361448"><ele>138.0</ele><time>2026-05-01T02:48:01.001Z</time></trkpt><trkpt lat="45.46445351629639" lon="10.414463182253687"><ele>140.0</ele><time>2026-05-01T02:48:02.001Z</time></trkpt><trkpt lat="45.46441603046076" lon="10.414899822384658"><ele>142.0</ele><time>2026-05-01T02:48:03.001Z</time></trkpt><trkpt lat="45.46437952706975" lon="10.415341653144976"><ele>144.5</ele><time>2026-05-01T02:48:04.001Z</time></trkpt><trkpt lat="45.464342192112106" lon="10.415787416613371"><ele>147.0</ele><time>2026-05-01T02:48:05.001Z</time></trkpt><trkpt lat="45.46430304581285" lon="10.416233391814052"><ele>148.0</ele><time>2026-05-01T02:48:06.001Z</time></trkpt><trkpt lat="45.464266050358574" lon="10.416678726018686"><ele>149.0</ele><time>2026-05-01T02:48:07.001Z</time></trkpt><trkpt lat="45.464229204757466" lon="10.41712457836525"><ele>149.0</ele><time>2026-05-01T02:48:08.001Z</time></trkpt><trkpt lat="45.4641915955474" lon="10.417572301678172"><ele>149.0</ele><time>2026-05-01T02:48:09.001Z</time></trkpt><trkpt lat="45.46415414564478" lon="10.418020295236444"><ele>150.0</ele><time>2026-05-01T02:48:10.001Z</time></trkpt><trkpt lat="45.46411696853396" lon="10.418469020193479"><ele>151.0</ele><time>2026-05-01T02:48:11.001Z</time></trkpt><trkpt lat="45.46408107176696" lon="10.418913615254086"><ele>153.5</ele><time>2026-05-01T02:48:12.001Z</time></trkpt><trkpt lat="45.464046690382354" lon="10.419352579334772"><ele>156.0</ele><time>2026-05-01T02:48:13.001Z</time></trkpt><trkpt lat="45.46401073234831" lon="10.41979140344009"><ele>157.5</ele><time>2026-05-01T02:48:14.001Z</time></trkpt><trkpt lat="45.46397442951928" lon="10.420230409435776"><ele>159.0</ele><time>2026-05-01T02:48:15.001Z</time></trkpt><trkpt lat="45.463937347357735" lon="10.42067011720555"><ele>155.5</ele><time>2026-05-01T02:48:16.001Z</time></trkpt><trkpt lat="45.463900237392004" lon="10.42111069256185"><ele>152.0</ele><time>2026-05-01T02:48:17.001Z</time></trkpt><trkpt lat="45.46386545280382" lon="10.421552074094123"><ele>148.5</ele><time>2026-05-01T02:48:18.001Z</time></trkpt><trkpt lat="45.463830303268274" lon="10.421993290633257"><ele>145.0</ele><time>2026-05-01T02:48:19.001Z</time></trkpt><trkpt lat="45.463793777140104" lon="10.422435588367986"><ele>142.5</ele><time>2026-05-01T02:48:20.001Z</time></trkpt><trkpt lat="45.46375681968603" lon="10.422878923274876"><ele>140.0</ele><time>2026-05-01T02:48:21.001Z</time></trkpt><trkpt lat="45.463721311044054" lon="10.423322650031162"><ele>138.0</ele><time>2026-05-01T02:48:22.001Z</time></trkpt><trkpt lat="45.46368710004588" lon="10.423765418031532"><ele>136.0</ele><time>2026-05-01T02:48:23.001Z</time></trkpt><trkpt lat="45.46365693290803" lon="10.42420882250347"><ele>133.0</ele><time>2026-05-01T02:48:24.001Z</time></trkpt><trkpt lat="45.46362761819471" lon="10.424655342106457"><ele>130.0</ele><time>2026-05-01T02:48:25.001Z</time></trkpt><trkpt lat="45.46359510781515" lon="10.425102573751335"><ele>130.0</ele><time>2026-05-01T02:48:26.001Z</time></trkpt><trkpt lat="45.463560765124164" lon="10.425550836881447"><ele>130.0</ele><time>2026-05-01T02:48:27.001Z</time></trkpt><trkpt lat="45.463527734931404" lon="10.425989726908833"><ele>130.5</ele><time>2026-05-01T02:48:28.001Z</time></trkpt><trkpt lat="45.46349331738268" lon="10.426412520063508"><ele>131.0</ele><time>2026-05-01T02:48:29.001Z</time></trkpt><trkpt lat="45.46345884283992" lon="10.426847193512414"><ele>132.0</ele><time>2026-05-01T02:48:30.001Z</time></trkpt><trkpt lat="45.463423207322435" lon="10.427287512554628"><ele>133.0</ele><time>2026-05-01T02:48:31.001Z</time></trkpt><trkpt lat="45.4633871673028" lon="10.427729929282775"><ele>132.5</ele><time>2026-05-01T02:48:32.001Z</time></trkpt><trkpt lat="45.46335423559799" lon="10.428172361014633"><ele>132.0</ele><time>2026-05-01T02:48:33.001Z</time></trkpt><trkpt lat="45.46331845913263" lon="10.428612431233761"><ele>131.0</ele><time>2026-05-01T02:48:34.001Z</time></trkpt><trkpt lat="45.46328086335397" lon="10.429050009331288"><ele>130.0</ele><time>2026-05-01T02:48:35.001Z</time></trkpt><trkpt lat="45.46324037960829" lon="10.42948349247886"><ele>131.0</ele><time>2026-05-01T02:48:36.001Z</time></trkpt><trkpt lat="45.46319093049077" lon="10.42991222206301"><ele>132.0</ele><time>2026-05-01T02:48:37.001Z</time></trkpt><trkpt lat="45.46313120656919" lon="10.4303377476708"><ele>132.0</ele><time>2026-05-01T02:48:38.001Z</time></trkpt><trkpt lat="45.4630655245041" lon="10.430764993291257"><ele>132.0</ele><time>2026-05-01T02:48:39.001Z</time></trkpt><trkpt lat="45.46299947774767" lon="10.431193756634146"><ele>132.5</ele><time>2026-05-01T02:48:40Z</time></trkpt><trkpt lat="45.462933512132274" lon="10.431623821157851"><ele>133.0</ele><time>2026-05-01T02:48:41Z</time></trkpt><trkpt lat="45.46286383535981" lon="10.432053914002575"><ele>133.0</ele><time>2026-05-01T02:48:42Z</time></trkpt><trkpt lat="45.46278966635231" lon="10.432481101076972"><ele>133.0</ele><time>2026-05-01T02:48:43Z</time></trkpt><trkpt lat="45.46270889540351" lon="10.432907899580302"><ele>132.0</ele><time>2026-05-01T02:48:44Z</time></trkpt><trkpt lat="45.462623960973815" lon="10.433331883765648"><ele>131.0</ele><time>2026-05-01T02:48:45Z</time></trkpt><trkpt lat="45.46253446367464" lon="10.433755931276778"><ele>131.5</ele><time>2026-05-01T02:48:46Z</time></trkpt><trkpt lat="45.46244704287473" lon="10.434180183687292"><ele>132.0</ele><time>2026-05-01T02:48:47Z</time></trkpt><trkpt lat="45.46236032084293" lon="10.434604590038907"><ele>132.0</ele><time>2026-05-01T02:48:48Z</time></trkpt><trkpt lat="45.46227436396557" lon="10.435028197871878"><ele>132.0</ele><time>2026-05-01T02:48:49Z</time></trkpt><trkpt lat="45.462186893145585" lon="10.435450564719476"><ele>130.5</ele><time>2026-05-01T02:48:50Z</time></trkpt><trkpt lat="45.46209894391126" lon="10.435871660177348"><ele>129.0</ele><time>2026-05-01T02:48:51Z</time></trkpt><trkpt lat="45.46201090349357" lon="10.436291146469882"><ele>130.0</ele><time>2026-05-01T02:48:52Z</time></trkpt><trkpt lat="45.46192420441773" lon="10.436710914906564"><ele>131.0</ele><time>2026-05-01T02:48:53Z</time></trkpt><trkpt lat="45.461838968350136" lon="10.437130624150628"><ele>131.0</ele><time>2026-05-01T02:48:54Z</time></trkpt><trkpt lat="45.46175182167054" lon="10.437549408128032"><ele>131.0</ele><time>2026-05-01T02:48:55Z</time></trkpt><trkpt lat="45.46166374309909" lon="10.437966189262678"><ele>131.0</ele><time>2026-05-01T02:48:56Z</time></trkpt><trkpt lat="45.461577183702765" lon="10.438383680731844"><ele>131.0</ele><time>2026-05-01T02:48:57Z</time></trkpt><trkpt lat="45.461491294364805" lon="10.4388014635838"><ele>131.0</ele><time>2026-05-01T02:48:58Z</time></trkpt><trkpt lat="45.46140517276584" lon="10.439219023800053"><ele>131.0</ele><time>2026-05-01T02:48:59Z</time></trkpt><trkpt lat="45.461318226692306" lon="10.439637311400602"><ele>131.0</ele><time>2026-05-01T02:49:00Z</time></trkpt><trkpt lat="45.461231923715346" lon="10.4400565910996"><ele>131.0</ele><time>2026-05-01T02:49:01Z</time></trkpt><trkpt lat="45.46114650096161" lon="10.44047551033186"><ele>132.0</ele><time>2026-05-01T02:49:02Z</time></trkpt><trkpt lat="45.46105982894855" lon="10.440894065116634"><ele>133.0</ele><time>2026-05-01T02:49:03Z</time></trkpt><trkpt lat="45.46097321366233" lon="10.44131223771165"><ele>133.0</ele><time>2026-05-01T02:49:04Z</time></trkpt><trkpt lat="45.460886269577365" lon="10.44172949492735"><ele>133.0</ele><time>2026-05-01T02:49:05Z</time></trkpt><trkpt lat="45.460799589835396" lon="10.442148114054275"><ele>133.5</ele><time>2026-05-01T02:49:06Z</time></trkpt><trkpt lat="45.460712921851524" lon="10.442567665153545"><ele>134.0</ele><time>2026-05-01T02:49:07Z</time></trkpt><trkpt lat="45.46062519332103" lon="10.442986458168315"><ele>134.0</ele><time>2026-05-01T02:49:08Z</time></trkpt><trkpt lat="45.46053815395512" lon="10.4434070584881"><ele>134.0</ele><time>2026-05-01T02:49:09Z</time></trkpt><trkpt lat="45.4604486208158" lon="10.443828600849201"><ele>133.5</ele><time>2026-05-01T02:49:10Z</time></trkpt><trkpt lat="45.46035878354772" lon="10.444249163317531"><ele>133.0</ele><time>2026-05-01T02:49:11Z</time></trkpt><trkpt lat="45.460268455433166" lon="10.444670510561597"><ele>133.0</ele><time>2026-05-01T02:49:12Z</time></trkpt><trkpt lat="45.46018317543293" lon="10.445093840799553"><ele>133.0</ele><time>2026-05-01T02:49:13Z</time></trkpt><trkpt lat="45.46009427752092" lon="10.445518181313235"><ele>132.5</ele><time>2026-05-01T02:49:14Z</time></trkpt><trkpt lat="45.460006641325855" lon="10.445943575060626"><ele>132.0</ele><time>2026-05-01T02:49:15Z</time></trkpt><trkpt lat="45.45991790061138" lon="10.446369568731622"><ele>132.0</ele><time>2026-05-01T02:49:16Z</time></trkpt><trkpt lat="45.45983027155906" lon="10.446795690944098"><ele>132.0</ele><time>2026-05-01T02:49:17Z</time></trkpt><trkpt lat="45.459740190210525" lon="10.44722210166086"><ele>132.0</ele><time>2026-05-01T02:49:18Z</time></trkpt><trkpt lat="45.459652218491065" lon="10.447650360624136"><ele>132.0</ele><time>2026-05-01T02:49:19Z</time></trkpt><trkpt lat="45.45956311468189" lon="10.448077379807634"><ele>132.5</ele><time>2026-05-01T02:49:20Z</time></trkpt><trkpt lat="45.45947355867911" lon="10.448504407910495"><ele>133.0</ele><time>2026-05-01T02:49:21Z</time></trkpt><trkpt lat="45.45938505510239" lon="10.448931960206787"><ele>133.5</ele><time>2026-05-01T02:49:22Z</time></trkpt><trkpt lat="45.45929785337396" lon="10.44935979534088"><ele>134.0</ele><time>2026-05-01T02:49:23Z</time></trkpt><trkpt lat="45.45921108777164" lon="10.449786624426409"><ele>134.5</ele><time>2026-05-01T02:49:24Z</time></trkpt><trkpt lat="45.459124120222214" lon="10.450213946241728"><ele>135.0</ele><time>2026-05-01T02:49:25Z</time></trkpt><trkpt lat="45.45903433271138" lon="10.450642323899258"><ele>135.0</ele><time>2026-05-01T02:49:26Z</time></trkpt><trkpt lat="45.458944744537646" lon="10.4510701012706"><ele>135.0</ele><time>2026-05-01T02:49:27Z</time></trkpt><trkpt lat="45.458854572078266" lon="10.451498850832262"><ele>134.5</ele><time>2026-05-01T02:49:28Z</time></trkpt><trkpt lat="45.458766580229366" lon="10.451928265899538"><ele>134.0</ele><time>2026-05-01T02:49:29Z</time></trkpt><trkpt lat="45.45868012327542" lon="10.452360181837825"><ele>135.0</ele><time>2026-05-01T02:49:30Z</time></trkpt><trkpt lat="45.458605936107695" lon="10.45279141925431"><ele>136.0</ele><time>2026-05-01T02:49:31Z</time></trkpt><trkpt lat="45.45851535055145" lon="10.453222591045257"><ele>136.5</ele><time>2026-05-01T02:49:32Z</time></trkpt><trkpt lat="45.45842451910866" lon="10.453654920113177"><ele>137.0</ele><time>2026-05-01T02:49:33Z</time></trkpt><trkpt lat="45.458330034461504" lon="10.454082670555694"><ele>137.5</ele><time>2026-05-01T02:49:34Z</time></trkpt><trkpt lat="45.4582270477083" lon="10.454510819753509"><ele>138.0</ele><time>2026-05-01T02:49:35Z</time></trkpt><trkpt lat="45.458118358569266" lon="10.454933973504374"><ele>138.5</ele><time>2026-05-01T02:49:36Z</time></trkpt><trkpt lat="45.458011485453326" lon="10.455356866480413"><ele>139.0</ele><time>2026-05-01T02:49:37Z</time></trkpt><trkpt lat="45.45790346858011" lon="10.455780233463168"><ele>139.0</ele><time>2026-05-01T02:49:38Z</time></trkpt><trkpt lat="45.457801146941165" lon="10.456203817277403"><ele>139.0</ele><time>2026-05-01T02:49:39Z</time></trkpt><trkpt lat="45.457697848879405" lon="10.456619460385195"><ele>139.0</ele><time>2026-05-01T02:49:40Z</time></trkpt><trkpt lat="45.4576000963096" lon="10.457014437721684"><ele>139.0</ele><time>2026-05-01T02:49:41Z</time></trkpt><trkpt lat="45.457496821047926" lon="10.457423952090814"><ele>140.0</ele><time>2026-05-01T02:49:42Z</time></trkpt><trkpt lat="45.45739175300139" lon="10.457839134655943"><ele>141.0</ele><time>2026-05-01T02:49:43Z</time></trkpt><trkpt lat="45.45728729000012" lon="10.45825463753192"><ele>141.5</ele><time>2026-05-01T02:49:44Z</time></trkpt><trkpt lat="45.45718416633015" lon="10.458669845353043"><ele>142.0</ele><time>2026-05-01T02:49:45Z</time></trkpt><trkpt lat="45.45708176093742" lon="10.459085061114328"><ele>142.0</ele><time>2026-05-01T02:49:46Z</time></trkpt><trkpt lat="45.45698071161356" lon="10.459499647404712"><ele>142.0</ele><time>2026-05-01T02:49:47Z</time></trkpt><trkpt lat="45.45688049011506" lon="10.459913000951554"><ele>141.0</ele><time>2026-05-01T02:49:48Z</time></trkpt><trkpt lat="45.456779762847425" lon="10.46032449167064"><ele>140.0</ele><time>2026-05-01T02:49:49Z</time></trkpt><trkpt lat="45.45667834802891" lon="10.460733305221714"><ele>139.5</ele><time>2026-05-01T02:49:50Z</time></trkpt><trkpt lat="45.456575510077094" lon="10.461141669482945"><ele>139.0</ele><time>2026-05-01T02:49:51Z</time></trkpt><trkpt lat="45.456471465046135" lon="10.461551468234466"><ele>139.5</ele><time>2026-05-01T02:49:52Z</time></trkpt><trkpt lat="45.4563675812834" lon="10.461960893659539"><ele>140.0</ele><time>2026-05-01T02:49:53Z</time></trkpt><trkpt lat="45.456261762639905" lon="10.462372503707293"><ele>140.0</ele><time>2026-05-01T02:49:54Z</time></trkpt><trkpt lat="45.456158233203325" lon="10.462787001652481"><ele>140.0</ele><time>2026-05-01T02:49:55Z</time></trkpt><trkpt lat="45.45605741894426" lon="10.463202682451255"><ele>140.5</ele><time>2026-05-01T02:49:56Z</time></trkpt><trkpt lat="45.45595625988594" lon="10.463619026849937"><ele>141.0</ele><time>2026-05-01T02:49:57Z</time></trkpt><trkpt lat="45.45585509813237" lon="10.464036041691466"><ele>142.0</ele><time>2026-05-01T02:49:58Z</time></trkpt><trkpt lat="45.45574997433897" lon="10.464451168201093"><ele>143.0</ele><time>2026-05-01T02:49:59.001Z</time></trkpt><trkpt lat="45.455643917498534" lon="10.464866544213171"><ele>143.0</ele><time>2026-05-01T02:50:00.001Z</time></trkpt><trkpt lat="45.455536848772944" lon="10.465281691425645"><ele>143.0</ele><time>2026-05-01T02:50:01.001Z</time></trkpt><trkpt lat="45.4554317761746" lon="10.465697442416229"><ele>143.5</ele><time>2026-05-01T02:50:02.001Z</time></trkpt><trkpt lat="45.455329494608705" lon="10.466112952297314"><ele>144.0</ele><time>2026-05-01T02:50:03.001Z</time></trkpt><trkpt lat="45.455228630545314" lon="10.466530860399523"><ele>144.0</ele><time>2026-05-01T02:50:04.001Z</time></trkpt><trkpt lat="45.455127425541185" lon="10.466949204485791"><ele>144.0</ele><time>2026-05-01T02:50:05.001Z</time></trkpt><trkpt lat="45.45502362032939" lon="10.467365855065704"><ele>143.5</ele><time>2026-05-01T02:50:06.001Z</time></trkpt><trkpt lat="45.45491931502415" lon="10.467781996992569"><ele>143.0</ele><time>2026-05-01T02:50:07.001Z</time></trkpt><trkpt lat="45.45481730195869" lon="10.46819773432633"><ele>143.0</ele><time>2026-05-01T02:50:08.001Z</time></trkpt><trkpt lat="45.45472119459711" lon="10.46861431535327"><ele>143.0</ele><time>2026-05-01T02:50:09.001Z</time></trkpt><trkpt lat="45.45463181996941" lon="10.469031213343495"><ele>144.0</ele><time>2026-05-01T02:50:10.001Z</time></trkpt><trkpt lat="45.45454870994837" lon="10.469450179840884"><ele>145.0</ele><time>2026-05-01T02:50:11.001Z</time></trkpt><trkpt lat="45.45447208295844" lon="10.469870118093096"><ele>145.0</ele><time>2026-05-01T02:50:12.001Z</time></trkpt><trkpt lat="45.454403794642566" lon="10.470292256447305"><ele>145.0</ele><time>2026-05-01T02:50:13.001Z</time></trkpt><trkpt lat="45.454345648095234" lon="10.470716298898454"><ele>145.0</ele><time>2026-05-01T02:50:14.001Z</time></trkpt><trkpt lat="45.45429096098994" lon="10.471139832394197"><ele>145.0</ele><time>2026-05-01T02:50:15.001Z</time></trkpt><trkpt lat="45.45423416757355" lon="10.47156330295972"><ele>145.0</ele><time>2026-05-01T02:50:16.001Z</time></trkpt><trkpt lat="45.45417827100651" lon="10.471985954620822"><ele>145.0</ele><time>2026-05-01T02:50:17.001Z</time></trkpt><trkpt lat="45.454129312728696" lon="10.472409192988351"><ele>145.0</ele><time>2026-05-01T02:50:18.001Z</time></trkpt><trkpt lat="45.454086889551576" lon="10.472839358310546"><ele>145.0</ele><time>2026-05-01T02:50:19.001Z</time></trkpt><trkpt lat="45.45404513572083" lon="10.47327288499675"><ele>146.0</ele><time>2026-05-01T02:50:20.001Z</time></trkpt><trkpt lat="45.45400528768219" lon="10.473706279701782"><ele>147.0</ele><time>2026-05-01T02:50:21.001Z</time></trkpt><trkpt lat="45.45396424417149" lon="10.474141745151346"><ele>147.0</ele><time>2026-05-01T02:50:22.001Z</time></trkpt><trkpt lat="45.45392413086988" lon="10.474577317632251"><ele>147.0</ele><time>2026-05-01T02:50:23.001Z</time></trkpt><trkpt lat="45.45388552912492" lon="10.475013420126869"><ele>148.5</ele><time>2026-05-01T02:50:24.001Z</time></trkpt><trkpt lat="45.4538487912402" lon="10.475449208594338"><ele>150.0</ele><time>2026-05-01T02:50:25.001Z</time></trkpt><trkpt lat="45.45381295958743" lon="10.475885192771923"><ele>150.0</ele><time>2026-05-01T02:50:26.001Z</time></trkpt><trkpt lat="45.45378081053809" lon="10.47632189042279"><ele>150.0</ele><time>2026-05-01T02:50:27.001Z</time></trkpt><trkpt lat="45.453747031007616" lon="10.476756836613424"><ele>150.0</ele><time>2026-05-01T02:50:28.001Z</time></trkpt><trkpt lat="45.45371448341104" lon="10.477191933468475"><ele>150.0</ele><time>2026-05-01T02:50:29.001Z</time></trkpt><trkpt lat="45.45368384224591" lon="10.47762660896008"><ele>149.5</ele><time>2026-05-01T02:50:30.001Z</time></trkpt><trkpt lat="45.45365403956418" lon="10.478061454686987"><ele>149.0</ele><time>2026-05-01T02:50:31.001Z</time></trkpt><trkpt lat="45.45363014815418" lon="10.478496919398927"><ele>148.5</ele><time>2026-05-01T02:50:32.001Z</time></trkpt><trkpt lat="45.4536131427005" lon="10.478932754857007"><ele>148.0</ele><time>2026-05-01T02:50:33.001Z</time></trkpt><trkpt lat="45.4535981734312" lon="10.479368648084105"><ele>147.0</ele><time>2026-05-01T02:50:34.001Z</time></trkpt><trkpt lat="45.45357737501811" lon="10.479804128302572"><ele>146.0</ele><time>2026-05-01T02:50:35.001Z</time></trkpt><trkpt lat="45.4535585637547" lon="10.480239638445486"><ele>146.0</ele><time>2026-05-01T02:50:36.001Z</time></trkpt><trkpt lat="45.45353833726916" lon="10.480677418876464"><ele>146.0</ele><time>2026-05-01T02:50:37.001Z</time></trkpt><trkpt lat="45.4535216288678" lon="10.481113626604813"><ele>146.5</ele><time>2026-05-01T02:50:38.001Z</time></trkpt><trkpt lat="45.45350306010269" lon="10.481550893063734"><ele>147.0</ele><time>2026-05-01T02:50:39.001Z</time></trkpt><trkpt lat="45.453483213007864" lon="10.481986925606895"><ele>147.0</ele><time>2026-05-01T02:50:40.001Z</time></trkpt><trkpt lat="45.45345891187334" lon="10.482423303238942"><ele>147.0</ele><time>2026-05-01T02:50:41.001Z</time></trkpt><trkpt lat="45.45342885444563" lon="10.482857410473587"><ele>148.0</ele><time>2026-05-01T02:50:42.001Z</time></trkpt><trkpt lat="45.45339332649172" lon="10.48329133156007"><ele>149.0</ele><time>2026-05-01T02:50:43.001Z</time></trkpt><trkpt lat="45.45335268898597" lon="10.483723250493915"><ele>150.5</ele><time>2026-05-01T02:50:44.001Z</time></trkpt><trkpt lat="45.4533051368983" lon="10.484151838650348"><ele>152.0</ele><time>2026-05-01T02:50:45.001Z</time></trkpt><trkpt lat="45.453254809223544" lon="10.484578221775905"><ele>153.0</ele><time>2026-05-01T02:50:46Z</time></trkpt><trkpt lat="45.453202359081004" lon="10.485004284815489"><ele>154.0</ele><time>2026-05-01T02:50:47Z</time></trkpt><trkpt lat="45.45315242971898" lon="10.485429994980414"><ele>157.0</ele><time>2026-05-01T02:50:48Z</time></trkpt><trkpt lat="45.45310669431671" lon="10.4858568491834"><ele>160.0</ele><time>2026-05-01T02:50:49Z</time></trkpt><trkpt lat="45.4530611086782" lon="10.486284703814645"><ele>162.0</ele><time>2026-05-01T02:50:50Z</time></trkpt><trkpt lat="45.45301428710247" lon="10.486712989960974"><ele>164.0</ele><time>2026-05-01T02:50:51Z</time></trkpt><trkpt lat="45.452963900920516" lon="10.487141998948672"><ele>164.5</ele><time>2026-05-01T02:50:52Z</time></trkpt><trkpt lat="45.452911699668256" lon="10.487570426475335"><ele>165.0</ele><time>2026-05-01T02:50:53Z</time></trkpt><trkpt lat="45.452862282928486" lon="10.487999748167617"><ele>165.0</ele><time>2026-05-01T02:50:54Z</time></trkpt><trkpt lat="45.45281359008462" lon="10.488429542777657"><ele>165.0</ele><time>2026-05-01T02:50:55Z</time></trkpt><trkpt lat="45.45276566772037" lon="10.488859545884074"><ele>165.0</ele><time>2026-05-01T02:50:56Z</time></trkpt><trkpt lat="45.452715094753366" lon="10.48928965780685"><ele>165.0</ele><time>2026-05-01T02:50:57Z</time></trkpt><trkpt lat="45.45266497794774" lon="10.48971887708242"><ele>166.5</ele><time>2026-05-01T02:50:58Z</time></trkpt><trkpt lat="45.452615972263345" lon="10.490147715652778"><ele>168.0</ele><time>2026-05-01T02:50:59Z</time></trkpt><trkpt lat="45.45256683074839" lon="10.490576163992797"><ele>169.0</ele><time>2026-05-01T02:51:00Z</time></trkpt><trkpt lat="45.452518112115065" lon="10.491004128369095"><ele>170.0</ele><time>2026-05-01T02:51:01Z</time></trkpt><trkpt lat="45.452467282642566" lon="10.491432478309754"><ele>170.0</ele><time>2026-05-01T02:51:02Z</time></trkpt><trkpt lat="45.45241902602085" lon="10.491862258359596"><ele>170.0</ele><time>2026-05-01T02:51:03Z</time></trkpt><trkpt lat="45.45237229180007" lon="10.492292232595476"><ele>170.5</ele><time>2026-05-01T02:51:04Z</time></trkpt><trkpt lat="45.452322935256426" lon="10.492721208909032"><ele>171.0</ele><time>2026-05-01T02:51:05Z</time></trkpt><trkpt lat="45.45227354974204" lon="10.4931504484443"><ele>173.0</ele><time>2026-05-01T02:51:06Z</time></trkpt><trkpt lat="45.45222225793999" lon="10.49358034029568"><ele>175.0</ele><time>2026-05-01T02:51:07Z</time></trkpt><trkpt lat="45.4521721169635" lon="10.494011487590143"><ele>176.5</ele><time>2026-05-01T02:51:08Z</time></trkpt><trkpt lat="45.452120801865036" lon="10.494442983289822"><ele>178.0</ele><time>2026-05-01T02:51:09Z</time></trkpt><trkpt lat="45.45207127030999" lon="10.494875384368692"><ele>178.0</ele><time>2026-05-01T02:51:10Z</time></trkpt><trkpt lat="45.45202122516273" lon="10.495309231851401"><ele>178.0</ele><time>2026-05-01T02:51:11Z</time></trkpt><trkpt lat="45.45197135799988" lon="10.495743852330754"><ele>180.0</ele><time>2026-05-01T02:51:12Z</time></trkpt><trkpt lat="45.45191986795861" lon="10.496172684395274"><ele>182.0</ele><time>2026-05-01T02:51:13Z</time></trkpt><trkpt lat="45.45186995697516" lon="10.496590097748182"><ele>185.0</ele><time>2026-05-01T02:51:14Z</time></trkpt><trkpt lat="45.451817055372985" lon="10.49702473254599"><ele>188.0</ele><time>2026-05-01T02:51:15Z</time></trkpt><trkpt lat="45.4517674884734" lon="10.497466241656534"><ele>189.0</ele><time>2026-05-01T02:51:16Z</time></trkpt><trkpt lat="45.45172029680223" lon="10.49791291909048"><ele>190.0</ele><time>2026-05-01T02:51:17Z</time></trkpt><trkpt lat="45.45167575890191" lon="10.498362214683757"><ele>186.5</ele><time>2026-05-01T02:51:18Z</time></trkpt><trkpt lat="45.45163001925399" lon="10.498813689980338"><ele>183.0</ele><time>2026-05-01T02:51:19Z</time></trkpt><trkpt lat="45.451584944197876" lon="10.499267497940028"><ele>180.5</ele><time>2026-05-01T02:51:20Z</time></trkpt><trkpt lat="45.451542434598366" lon="10.4997247133969"><ele>178.0</ele><time>2026-05-01T02:51:21Z</time></trkpt><trkpt lat="45.45150050579814" lon="10.500183813742506"><ele>177.0</ele><time>2026-05-01T02:51:22Z</time></trkpt><trkpt lat="45.45145696939587" lon="10.50063797176124"><ele>176.0</ele><time>2026-05-01T02:51:23Z</time></trkpt><trkpt lat="45.45141361138556" lon="10.50108767747408"><ele>178.0</ele><time>2026-05-01T02:51:24Z</time></trkpt><trkpt lat="45.451369615238654" lon="10.50153580073077"><ele>180.0</ele><time>2026-05-01T02:51:25Z</time></trkpt><trkpt lat="45.45132719355996" lon="10.50198118275861"><ele>175.0</ele><time>2026-05-01T02:51:26Z</time></trkpt><trkpt lat="45.451285030559795" lon="10.502428539768912"><ele>170.0</ele><time>2026-05-01T02:51:27Z</time></trkpt><trkpt lat="45.4512428245865" lon="10.502878766408882"><ele>170.0</ele><time>2026-05-01T02:51:28Z</time></trkpt><trkpt lat="45.45120071178179" lon="10.503326693535392"><ele>170.0</ele><time>2026-05-01T02:51:29Z</time></trkpt><trkpt lat="45.45115791064001" lon="10.503768829474145"><ele>170.0</ele><time>2026-05-01T02:51:30Z</time></trkpt><trkpt lat="45.45111648024402" lon="10.504211209221426"><ele>170.0</ele><time>2026-05-01T02:51:31Z</time></trkpt><trkpt lat="45.45107696583894" lon="10.504655115626862"><ele>168.5</ele><time>2026-05-01T02:51:32Z</time></trkpt><trkpt lat="45.45104054255395" lon="10.505099930944247"><ele>167.0</ele><time>2026-05-01T02:51:33Z</time></trkpt><trkpt lat="45.451004657153824" lon="10.505547550050611"><ele>166.5</ele><time>2026-05-01T02:51:34Z</time></trkpt><trkpt lat="45.450970797760576" lon="10.505995657878238"><ele>166.0</ele><time>2026-05-01T02:51:35Z</time></trkpt><trkpt lat="45.45093486748998" lon="10.506443038617974"><ele>165.5</ele><time>2026-05-01T02:51:36Z</time></trkpt><trkpt lat="45.450896010682335" lon="10.506886153530267"><ele>165.0</ele><time>2026-05-01T02:51:37Z</time></trkpt><trkpt lat="45.45085454217305" lon="10.507326490406852"><ele>164.5</ele><time>2026-05-01T02:51:38Z</time></trkpt><trkpt lat="45.450811911715256" lon="10.507764587262804"><ele>164.0</ele><time>2026-05-01T02:51:39Z</time></trkpt><trkpt lat="45.45076989199652" lon="10.50820087745615"><ele>163.5</ele><time>2026-05-01T02:51:40Z</time></trkpt><trkpt lat="45.4507293131777" lon="10.508635499064258"><ele>163.0</ele><time>2026-05-01T02:51:41Z</time></trkpt><trkpt lat="45.450690391204894" lon="10.509053520005553"><ele>162.0</ele><time>2026-05-01T02:51:42Z</time></trkpt><trkpt lat="45.450650331026516" lon="10.509465728749984"><ele>161.0</ele><time>2026-05-01T02:51:43Z</time></trkpt><trkpt lat="45.450609822678274" lon="10.509891299078376"><ele>159.0</ele><time>2026-05-01T02:51:44Z</time></trkpt><trkpt lat="45.45056631476326" lon="10.510321020159559"><ele>157.0</ele><time>2026-05-01T02:51:45Z</time></trkpt><trkpt lat="45.450517002608365" lon="10.510753204732573"><ele>153.5</ele><time>2026-05-01T02:51:46Z</time></trkpt><trkpt lat="45.45046323023081" lon="10.511189378445799"><ele>150.0</ele><time>2026-05-01T02:51:47Z</time></trkpt><trkpt lat="45.45041098821592" lon="10.51162827852143"><ele>147.5</ele><time>2026-05-01T02:51:48Z</time></trkpt><trkpt lat="45.45036425011606" lon="10.51206746270411"><ele>145.0</ele><time>2026-05-01T02:51:49Z</time></trkpt><trkpt lat="45.4503223645221" lon="10.51250481698782"><ele>142.0</ele><time>2026-05-01T02:51:50Z</time></trkpt><trkpt lat="45.45028361851702" lon="10.512938673686888"><ele>139.0</ele><time>2026-05-01T02:51:51Z</time></trkpt><trkpt lat="45.45024381114949" lon="10.513370140476233"><ele>137.5</ele><time>2026-05-01T02:51:52Z</time></trkpt><trkpt lat="45.450203149834145" lon="10.51379889040972"><ele>136.0</ele><time>2026-05-01T02:51:53Z</time></trkpt><trkpt lat="45.45016371405523" lon="10.514226587399024"><ele>135.5</ele><time>2026-05-01T02:51:54Z</time></trkpt><trkpt lat="45.450123321720305" lon="10.514652569728874"><ele>135.0</ele><time>2026-05-01T02:51:55Z</time></trkpt><trkpt lat="45.45008289090209" lon="10.515077952098174"><ele>135.0</ele><time>2026-05-01T02:51:56Z</time></trkpt><trkpt lat="45.45004312624092" lon="10.515504334282708"><ele>135.0</ele><time>2026-05-01T02:51:57Z</time></trkpt><trkpt lat="45.45000242493987" lon="10.515932456841618"><ele>134.5</ele><time>2026-05-01T02:51:58Z</time></trkpt><trkpt lat="45.4499608104546" lon="10.516361995313689"><ele>134.0</ele><time>2026-05-01T02:51:59Z</time></trkpt><trkpt lat="45.44991937484511" lon="10.51679166731049"><ele>133.5</ele><time>2026-05-01T02:52:00Z</time></trkpt><trkpt lat="45.44987809668783" lon="10.517220597310901"><ele>133.0</ele><time>2026-05-01T02:52:01Z</time></trkpt><trkpt lat="45.44983712407329" lon="10.517650249102122"><ele>133.0</ele><time>2026-05-01T02:52:02Z</time></trkpt><trkpt lat="45.449794395172795" lon="10.51807855379061"><ele>133.0</ele><time>2026-05-01T02:52:03Z</time></trkpt><trkpt lat="45.449754005576395" lon="10.518504810115482"><ele>134.0</ele><time>2026-05-01T02:52:04Z</time></trkpt><trkpt lat="45.44971421886154" lon="10.518930245030514"><ele>135.0</ele><time>2026-05-01T02:52:05Z</time></trkpt><trkpt lat="45.44967463960691" lon="10.519354394735153"><ele>135.0</ele><time>2026-05-01T02:52:06.001Z</time></trkpt><trkpt lat="45.44963261464718" lon="10.519784282641622"><ele>135.0</ele><time>2026-05-01T02:52:07.001Z</time></trkpt><trkpt lat="45.44958969947139" lon="10.520213406742199"><ele>136.0</ele><time>2026-05-01T02:52:08.001Z</time></trkpt><trkpt lat="45.449548779136656" lon="10.520645227599434"><ele>137.0</ele><time>2026-05-01T02:52:09.001Z</time></trkpt><trkpt lat="45.44950910060617" lon="10.521079063933257"><ele>136.0</ele><time>2026-05-01T02:52:10.001Z</time></trkpt><trkpt lat="45.44947105805458" lon="10.521516840549754"><ele>135.0</ele><time>2026-05-01T02:52:11.001Z</time></trkpt><trkpt lat="45.44942816132685" lon="10.521952424447267"><ele>134.0</ele><time>2026-05-01T02:52:12.001Z</time></trkpt><trkpt lat="45.44938177268916" lon="10.52238892037429"><ele>133.0</ele><time>2026-05-01T02:52:13.001Z</time></trkpt><trkpt lat="45.44933301903372" lon="10.522827616725163"><ele>133.5</ele><time>2026-05-01T02:52:14.001Z</time></trkpt><trkpt lat="45.4492809899792" lon="10.523265428364812"><ele>134.0</ele><time>2026-05-01T02:52:15.001Z</time></trkpt><trkpt lat="45.44922539243466" lon="10.523703311962645"><ele>135.5</ele><time>2026-05-01T02:52:16.001Z</time></trkpt><trkpt lat="45.44916503620664" lon="10.524139984692466"><ele>137.0</ele><time>2026-05-01T02:52:17.001Z</time></trkpt><trkpt lat="45.44910006260735" lon="10.524577183802426"><ele>137.0</ele><time>2026-05-01T02:52:18.001Z</time></trkpt><trkpt lat="45.44903428561718" lon="10.525014295369983"><ele>137.0</ele><time>2026-05-01T02:52:19.001Z</time></trkpt><trkpt lat="45.44896561834796" lon="10.525449246158733"><ele>132.0</ele><time>2026-05-01T02:52:20.001Z</time></trkpt><trkpt lat="45.44889327554516" lon="10.525882232025372"><ele>127.0</ele><time>2026-05-01T02:52:21.001Z</time></trkpt><trkpt lat="45.448817895208286" lon="10.52631309755585"><ele>123.5</ele><time>2026-05-01T02:52:22.001Z</time></trkpt><trkpt lat="45.448738930400786" lon="10.526739965186268"><ele>120.0</ele><time>2026-05-01T02:52:23.001Z</time></trkpt><trkpt lat="45.44865669079462" lon="10.527163524204084"><ele>119.0</ele><time>2026-05-01T02:52:24.001Z</time></trkpt><trkpt lat="45.44857382330852" lon="10.527578122937195"><ele>118.0</ele><time>2026-05-01T02:52:25.001Z</time></trkpt><trkpt lat="45.44848709255755" lon="10.527989295523152"><ele>117.5</ele><time>2026-05-01T02:52:26.001Z</time></trkpt><trkpt lat="45.44839527984279" lon="10.528401063590106"><ele>117.0</ele><time>2026-05-01T02:52:27.001Z</time></trkpt><trkpt lat="45.44830076927745" lon="10.528813660686284"><ele>116.0</ele><time>2026-05-01T02:52:28.001Z</time></trkpt><trkpt lat="45.44820514932126" lon="10.529228953999056"><ele>115.0</ele><time>2026-05-01T02:52:29.001Z</time></trkpt><trkpt lat="45.44810040053222" lon="10.529641999517596"><ele>115.0</ele><time>2026-05-01T02:52:30.001Z</time></trkpt><trkpt lat="45.447992322943996" lon="10.530055091496234"><ele>115.0</ele><time>2026-05-01T02:52:31.001Z</time></trkpt><trkpt lat="45.44788226503813" lon="10.530468295995261"><ele>115.0</ele><time>2026-05-01T02:52:32.001Z</time></trkpt><trkpt lat="45.4477695276944" lon="10.530881681464288"><ele>115.0</ele><time>2026-05-01T02:52:33.001Z</time></trkpt><trkpt lat="45.44765268655554" lon="10.53129505337359"><ele>115.0</ele><time>2026-05-01T02:52:34.001Z</time></trkpt><trkpt lat="45.447533765839445" lon="10.531707984732906"><ele>115.0</ele><time>2026-05-01T02:52:35.001Z</time></trkpt><trkpt lat="45.44741050563062" lon="10.532115879345831"><ele>115.5</ele><time>2026-05-01T02:52:36.001Z</time></trkpt><trkpt lat="45.44728652660275" lon="10.532524370564623"><ele>116.0</ele><time>2026-05-01T02:52:37.001Z</time></trkpt><trkpt lat="45.447165618069214" lon="10.5329317174779"><ele>114.5</ele><time>2026-05-01T02:52:38.001Z</time></trkpt><trkpt lat="45.447046626113085" lon="10.533339594976802"><ele>113.0</ele><time>2026-05-01T02:52:39.001Z</time></trkpt><trkpt lat="45.446928315936546" lon="10.533745790071837"><ele>113.0</ele><time>2026-05-01T02:52:40.001Z</time></trkpt><trkpt lat="45.446811588819784" lon="10.534148226320006"><ele>113.0</ele><time>2026-05-01T02:52:41.001Z</time></trkpt><trkpt lat="45.44669224313283" lon="10.534544854195936"><ele>114.0</ele><time>2026-05-01T02:52:42.001Z</time></trkpt><trkpt lat="45.44657110526017" lon="10.534942485797202"><ele>115.0</ele><time>2026-05-01T02:52:43.001Z</time></trkpt><trkpt lat="45.446453355714816" lon="10.53534308049924"><ele>115.5</ele><time>2026-05-01T02:52:44.001Z</time></trkpt><trkpt lat="45.4463409337453" lon="10.535744610615613"><ele>116.0</ele><time>2026-05-01T02:52:45.001Z</time></trkpt><trkpt lat="45.44622906310435" lon="10.536148137966089"><ele>115.5</ele><time>2026-05-01T02:52:46.001Z</time></trkpt><trkpt lat="45.44611469590347" lon="10.5365511232139"><ele>115.0</ele><time>2026-05-01T02:52:47.001Z</time></trkpt><trkpt lat="45.44599694052866" lon="10.536955489325353"><ele>114.0</ele><time>2026-05-01T02:52:48.001Z</time></trkpt><trkpt lat="45.44588331383744" lon="10.537361464236547"><ele>113.0</ele><time>2026-05-01T02:52:49.001Z</time></trkpt><trkpt lat="45.44578082547128" lon="10.537774804209581"><ele>111.5</ele><time>2026-05-01T02:52:50.001Z</time></trkpt><trkpt lat="45.44568829029368" lon="10.538193759676085"><ele>110.0</ele><time>2026-05-01T02:52:51.001Z</time></trkpt><trkpt lat="45.44560002176009" lon="10.538617185885288"><ele>111.0</ele><time>2026-05-01T02:52:52Z</time></trkpt><trkpt lat="45.44551433243375" lon="10.539045002290147"><ele>112.0</ele><time>2026-05-01T02:52:53Z</time></trkpt><trkpt lat="45.44543179973004" lon="10.539474795432458"><ele>110.0</ele><time>2026-05-01T02:52:54Z</time></trkpt><trkpt lat="45.44535026089154" lon="10.539893690889606"><ele>108.0</ele><time>2026-05-01T02:52:55Z</time></trkpt><trkpt lat="45.44527643900761" lon="10.540294938124037"><ele>106.0</ele><time>2026-05-01T02:52:56Z</time></trkpt><trkpt lat="45.44520165438779" lon="10.540711271437916"><ele>104.0</ele><time>2026-05-01T02:52:57Z</time></trkpt><trkpt lat="45.445123254249324" lon="10.541129371255138"><ele>103.0</ele><time>2026-05-01T02:52:58Z</time></trkpt><trkpt lat="45.44504310150862" lon="10.54154851725603"><ele>102.0</ele><time>2026-05-01T02:52:59Z</time></trkpt><trkpt lat="45.44496258462268" lon="10.54197043600648"><ele>102.5</ele><time>2026-05-01T02:53:00Z</time></trkpt><trkpt lat="45.4448832087199" lon="10.542394076228101"><ele>103.0</ele><time>2026-05-01T02:53:01Z</time></trkpt><trkpt lat="45.44480441654262" lon="10.54281913326748"><ele>102.0</ele><time>2026-05-01T02:53:02Z</time></trkpt><trkpt lat="45.44472627569884" lon="10.543244611606388"><ele>101.0</ele><time>2026-05-01T02:53:03Z</time></trkpt><trkpt lat="45.44464951221792" lon="10.543671227827131"><ele>102.0</ele><time>2026-05-01T02:53:04Z</time></trkpt><trkpt lat="45.44457186389398" lon="10.544096670954904"><ele>103.0</ele><time>2026-05-01T02:53:05Z</time></trkpt><trkpt lat="45.44449482255552" lon="10.544519417280016"><ele>103.5</ele><time>2026-05-01T02:53:06Z</time></trkpt><trkpt lat="45.44441628898516" lon="10.54494168622885"><ele>104.0</ele><time>2026-05-01T02:53:07Z</time></trkpt><trkpt lat="45.44433717352257" lon="10.545361489433812"><ele>103.5</ele><time>2026-05-01T02:53:08Z</time></trkpt><trkpt lat="45.444258626026084" lon="10.545780458352644"><ele>103.0</ele><time>2026-05-01T02:53:09Z</time></trkpt><trkpt lat="45.444180106511446" lon="10.546197400783056"><ele>101.0</ele><time>2026-05-01T02:53:10Z</time></trkpt><trkpt lat="45.44410076013893" lon="10.546615724001102"><ele>99.0</ele><time>2026-05-01T02:53:11Z</time></trkpt><trkpt lat="45.44402157814898" lon="10.547037088095603"><ele>97.0</ele><time>2026-05-01T02:53:12Z</time></trkpt><trkpt lat="45.44394553987192" lon="10.547459344016552"><ele>95.0</ele><time>2026-05-01T02:53:13Z</time></trkpt><trkpt lat="45.44386957187343" lon="10.547883727098665"><ele>93.0</ele><time>2026-05-01T02:53:14Z</time></trkpt><trkpt lat="45.44379143558604" lon="10.54830934737819"><ele>91.0</ele><time>2026-05-01T02:53:15Z</time></trkpt><trkpt lat="45.44371176591142" lon="10.548734926167063"><ele>90.5</ele><time>2026-05-01T02:53:16Z</time></trkpt><trkpt lat="45.443632709587995" lon="10.54916314322082"><ele>90.0</ele><time>2026-05-01T02:53:17Z</time></trkpt><trkpt lat="45.44355500608535" lon="10.54958949940551"><ele>89.5</ele><time>2026-05-01T02:53:18Z</time></trkpt><trkpt lat="45.44347739738594" lon="10.550017414870215"><ele>89.0</ele><time>2026-05-01T02:53:19Z</time></trkpt><trkpt lat="45.443399650321005" lon="10.5504454648406"><ele>89.0</ele><time>2026-05-01T02:53:20Z</time></trkpt><trkpt lat="45.4433219804641" lon="10.550872792339435"><ele>89.0</ele><time>2026-05-01T02:53:21Z</time></trkpt><trkpt lat="45.44324246169375" lon="10.551297638408002"><ele>89.0</ele><time>2026-05-01T02:53:22Z</time></trkpt><trkpt lat="45.443163244382085" lon="10.55172106065348"><ele>89.0</ele><time>2026-05-01T02:53:23Z</time></trkpt><trkpt lat="45.44308461818876" lon="10.552142802630057"><ele>89.0</ele><time>2026-05-01T02:53:24Z</time></trkpt><trkpt lat="45.44300593870904" lon="10.552565235515669"><ele>89.0</ele><time>2026-05-01T02:53:25Z</time></trkpt><trkpt lat="45.442926047691" lon="10.552989774146365"><ele>88.5</ele><time>2026-05-01T02:53:26Z</time></trkpt><trkpt lat="45.44284727710545" lon="10.553414482740742"><ele>88.0</ele><time>2026-05-01T02:53:27Z</time></trkpt><trkpt lat="45.44276932907758" lon="10.553840266934404"><ele>88.0</ele><time>2026-05-01T02:53:28Z</time></trkpt><trkpt lat="45.44269076161079" lon="10.554266948153977"><ele>88.0</ele><time>2026-05-01T02:53:29Z</time></trkpt><trkpt lat="45.4426109362035" lon="10.554694611140961"><ele>88.0</ele><time>2026-05-01T02:53:30Z</time></trkpt><trkpt lat="45.442532766053695" lon="10.555123729814895"><ele>88.0</ele><time>2026-05-01T02:53:31Z</time></trkpt><trkpt lat="45.44245656511201" lon="10.55555290635211"><ele>88.0</ele><time>2026-05-01T02:53:32Z</time></trkpt><trkpt lat="45.442382426096586" lon="10.555982700282547"><ele>88.0</ele><time>2026-05-01T02:53:33Z</time></trkpt><trkpt lat="45.442308666649666" lon="10.556411632784314"><ele>87.0</ele><time>2026-05-01T02:53:34Z</time></trkpt><trkpt lat="45.44223541170182" lon="10.556841598649797"><ele>86.0</ele><time>2026-05-01T02:53:35Z</time></trkpt><trkpt lat="45.442162989124924" lon="10.557270386566419"><ele>85.5</ele><time>2026-05-01T02:53:36Z</time></trkpt><trkpt lat="45.442090515739025" lon="10.557698749760922"><ele>85.0</ele><time>2026-05-01T02:53:37Z</time></trkpt><trkpt lat="45.44201379986205" lon="10.55812497677138"><ele>85.0</ele><time>2026-05-01T02:53:38Z</time></trkpt><trkpt lat="45.44193509697199" lon="10.558548438294217"><ele>85.0</ele><time>2026-05-01T02:53:39Z</time></trkpt><trkpt lat="45.44185523062839" lon="10.558970988704836"><ele>86.0</ele><time>2026-05-01T02:53:40Z</time></trkpt><trkpt lat="45.44177568720321" lon="10.559393107284613"><ele>87.0</ele><time>2026-05-01T02:53:41Z</time></trkpt><trkpt lat="45.44169706295453" lon="10.5598163832916"><ele>87.0</ele><time>2026-05-01T02:53:42Z</time></trkpt><trkpt lat="45.44161751922299" lon="10.560237990841083"><ele>87.0</ele><time>2026-05-01T02:53:43Z</time></trkpt><trkpt lat="45.4415321978388" lon="10.56065679404985"><ele>87.0</ele><time>2026-05-01T02:53:44Z</time></trkpt><trkpt lat="45.441441347684574" lon="10.561074672031875"><ele>87.0</ele><time>2026-05-01T02:53:45Z</time></trkpt><trkpt lat="45.44134907682492" lon="10.5614933543179"><ele>88.5</ele><time>2026-05-01T02:53:46Z</time></trkpt><trkpt lat="45.4412629834553" lon="10.561917069692893"><ele>90.0</ele><time>2026-05-01T02:53:47Z</time></trkpt><trkpt lat="45.441185102988285" lon="10.562345535483763"><ele>90.0</ele><time>2026-05-01T02:53:48Z</time></trkpt><trkpt lat="45.44111081460219" lon="10.56277696190662"><ele>90.0</ele><time>2026-05-01T02:53:49Z</time></trkpt><trkpt lat="45.44103572602716" lon="10.563209248812246"><ele>89.5</ele><time>2026-05-01T02:53:50Z</time></trkpt><trkpt lat="45.44095592668272" lon="10.56363966027276"><ele>89.0</ele><time>2026-05-01T02:53:51Z</time></trkpt><trkpt lat="45.440875065094204" lon="10.564064688062603"><ele>88.5</ele><time>2026-05-01T02:53:52Z</time></trkpt><trkpt lat="45.44080031369503" lon="10.564467457001621"><ele>88.0</ele><time>2026-05-01T02:53:53Z</time></trkpt><trkpt lat="45.44071903098216" lon="10.564889981496227"><ele>88.0</ele><time>2026-05-01T02:53:54Z</time></trkpt><trkpt lat="45.440640637403504" lon="10.565323878194814"><ele>88.0</ele><time>2026-05-01T02:53:55Z</time></trkpt><trkpt lat="45.44056078371677" lon="10.565761096164605"><ele>87.0</ele><time>2026-05-01T02:53:56Z</time></trkpt><trkpt lat="45.44047794968242" lon="10.5661985522706"><ele>86.0</ele><time>2026-05-01T02:53:57Z</time></trkpt><trkpt lat="45.44039570088945" lon="10.566635699423594"><ele>86.5</ele><time>2026-05-01T02:53:58Z</time></trkpt><trkpt lat="45.44031617224964" lon="10.567073513057991"><ele>87.0</ele><time>2026-05-01T02:53:59Z</time></trkpt><trkpt lat="45.44023662204398" lon="10.567512021725264"><ele>88.0</ele><time>2026-05-01T02:54:00Z</time></trkpt><trkpt lat="45.44015618694533" lon="10.567948877642758"><ele>89.0</ele><time>2026-05-01T02:54:01Z</time></trkpt><trkpt lat="45.44007524316285" lon="10.568384105506771"><ele>88.5</ele><time>2026-05-01T02:54:02Z</time></trkpt><trkpt lat="45.43999516285736" lon="10.568819123507277"><ele>88.0</ele><time>2026-05-01T02:54:03Z</time></trkpt><trkpt lat="45.43991699520129" lon="10.569252561630083"><ele>88.0</ele><time>2026-05-01T02:54:04Z</time></trkpt><trkpt lat="45.43984126345884" lon="10.56968458119252"><ele>88.0</ele><time>2026-05-01T02:54:05Z</time></trkpt><trkpt lat="45.439768436446506" lon="10.570115905235328"><ele>87.5</ele><time>2026-05-01T02:54:06Z</time></trkpt><trkpt lat="45.43969564860224" lon="10.570548217350787"><ele>87.0</ele><time>2026-05-01T02:54:07Z</time></trkpt><trkpt lat="45.43962389026007" lon="10.570979164371675"><ele>86.0</ele><time>2026-05-01T02:54:08Z</time></trkpt><trkpt lat="45.43954690484507" lon="10.571409338596164"><ele>85.0</ele><time>2026-05-01T02:54:09Z</time></trkpt><trkpt lat="45.439467450109504" lon="10.571837188327407"><ele>85.0</ele><time>2026-05-01T02:54:10Z</time></trkpt><trkpt lat="45.439386726991266" lon="10.572261514135068"><ele>85.0</ele><time>2026-05-01T02:54:11.001Z</time></trkpt><trkpt lat="45.43930813333452" lon="10.572682215347726"><ele>86.0</ele><time>2026-05-01T02:54:12.001Z</time></trkpt><trkpt lat="45.43922699628753" lon="10.573100278942418"><ele>87.0</ele><time>2026-05-01T02:54:13.001Z</time></trkpt><trkpt lat="45.43914410433975" lon="10.573520100917461"><ele>86.5</ele><time>2026-05-01T02:54:14.001Z</time></trkpt><trkpt lat="45.439062940841794" lon="10.573940855997613"><ele>86.0</ele><time>2026-05-01T02:54:15.001Z</time></trkpt><trkpt lat="45.43898450826382" lon="10.574362082815338"><ele>86.0</ele><time>2026-05-01T02:54:16.001Z</time></trkpt><trkpt lat="45.43890645731634" lon="10.574783920758765"><ele>86.0</ele><time>2026-05-01T02:54:17.001Z</time></trkpt><trkpt lat="45.43882780118319" lon="10.575205279272442"><ele>87.0</ele><time>2026-05-01T02:54:18.001Z</time></trkpt><trkpt lat="45.438749735799036" lon="10.575626160334586"><ele>88.0</ele><time>2026-05-01T02:54:19.001Z</time></trkpt><trkpt lat="45.43867318196871" lon="10.576046486128911"><ele>87.5</ele><time>2026-05-01T02:54:20.001Z</time></trkpt><trkpt lat="45.43859777712064" lon="10.576468502600147"><ele>87.0</ele><time>2026-05-01T02:54:21.001Z</time></trkpt><trkpt lat="45.43852061398299" lon="10.576890611728459"><ele>86.5</ele><time>2026-05-01T02:54:22.001Z</time></trkpt><trkpt lat="45.43844103831817" lon="10.577312357433362"><ele>86.0</ele><time>2026-05-01T02:54:23.001Z</time></trkpt><trkpt lat="45.4383612933851" lon="10.577734785511732"><ele>86.0</ele><time>2026-05-01T02:54:24.001Z</time></trkpt><trkpt lat="45.43828278537369" lon="10.578156555631935"><ele>86.0</ele><time>2026-05-01T02:54:25.001Z</time></trkpt><trkpt lat="45.43820380034403" lon="10.578577905808576"><ele>86.5</ele><time>2026-05-01T02:54:26.001Z</time></trkpt><trkpt lat="45.43812355450737" lon="10.579001699467936"><ele>87.0</ele><time>2026-05-01T02:54:27.001Z</time></trkpt><trkpt lat="45.43804436218048" lon="10.579425704208678"><ele>85.0</ele><time>2026-05-01T02:54:28.001Z</time></trkpt><trkpt lat="45.43796497608604" lon="10.579850956483645"><ele>83.0</ele><time>2026-05-01T02:54:29.001Z</time></trkpt><trkpt lat="45.43788483196368" lon="10.58027744763014"><ele>83.0</ele><time>2026-05-01T02:54:30.001Z</time></trkpt><trkpt lat="45.43780620013765" lon="10.580705452312218"><ele>83.0</ele><time>2026-05-01T02:54:31.001Z</time></trkpt><trkpt lat="45.43773032820586" lon="10.581136426205479"><ele>83.0</ele><time>2026-05-01T02:54:32.001Z</time></trkpt><trkpt lat="45.43765634625676" lon="10.581567049013143"><ele>83.0</ele><time>2026-05-01T02:54:33.001Z</time></trkpt><trkpt lat="45.43758222561737" lon="10.581997893424017"><ele>83.0</ele><time>2026-05-01T02:54:34.001Z</time></trkpt><trkpt lat="45.4375071803511" lon="10.582427671861744"><ele>83.0</ele><time>2026-05-01T02:54:35.001Z</time></trkpt><trkpt lat="45.437429621557584" lon="10.5828571555722"><ele>83.0</ele><time>2026-05-01T02:54:36.001Z</time></trkpt><trkpt lat="45.43734975336735" lon="10.58328524881498"><ele>83.0</ele><time>2026-05-01T02:54:37.001Z</time></trkpt><trkpt lat="45.437271391556294" lon="10.583711825824803"><ele>83.0</ele><time>2026-05-01T02:54:38.001Z</time></trkpt><trkpt lat="45.43719154580825" lon="10.584138800958968"><ele>83.0</ele><time>2026-05-01T02:54:39.001Z</time></trkpt><trkpt lat="45.43711144705443" lon="10.584565371982398"><ele>83.0</ele><time>2026-05-01T02:54:40.001Z</time></trkpt><trkpt lat="45.43703118204158" lon="10.584991237703452"><ele>83.0</ele><time>2026-05-01T02:54:41.001Z</time></trkpt><trkpt lat="45.436952565305546" lon="10.585416852416921"><ele>83.0</ele><time>2026-05-01T02:54:42.001Z</time></trkpt><trkpt lat="45.43687342081491" lon="10.58584023182795"><ele>83.0</ele><time>2026-05-01T02:54:43.001Z</time></trkpt><trkpt lat="45.436792975147966" lon="10.586263321424653"><ele>83.0</ele><time>2026-05-01T02:54:44.001Z</time></trkpt><trkpt lat="45.43671347542755" lon="10.586685363996734"><ele>83.0</ele><time>2026-05-01T02:54:45.001Z</time></trkpt><trkpt lat="45.436635258993114" lon="10.587107484634696"><ele>82.0</ele><time>2026-05-01T02:54:46.001Z</time></trkpt><trkpt lat="45.436562171384715" lon="10.587525698439052"><ele>81.0</ele><time>2026-05-01T02:54:47.001Z</time></trkpt><trkpt lat="45.436480818644505" lon="10.587950789935997"><ele>81.0</ele><time>2026-05-01T02:54:48.001Z</time></trkpt><trkpt lat="45.43639662571599" lon="10.58837355614207"><ele>81.0</ele><time>2026-05-01T02:54:49.001Z</time></trkpt><trkpt lat="45.436315366410994" lon="10.588797094517002"><ele>82.0</ele><time>2026-05-01T02:54:50.001Z</time></trkpt><trkpt lat="45.4362365011788" lon="10.589220658534009"><ele>83.0</ele><time>2026-05-01T02:54:51.001Z</time></trkpt><trkpt lat="45.436158156248126" lon="10.589645386422033"><ele>84.0</ele><time>2026-05-01T02:54:52.001Z</time></trkpt><trkpt lat="45.43607917521928" lon="10.590070934703924"><ele>85.0</ele><time>2026-05-01T02:54:53.001Z</time></trkpt><trkpt lat="45.43600052706285" lon="10.590498954534718"><ele>85.5</ele><time>2026-05-01T02:54:54.001Z</time></trkpt><trkpt lat="45.43592017866336" lon="10.590928911784252"><ele>86.0</ele><time>2026-05-01T02:54:55.001Z</time></trkpt><trkpt lat="45.43583978704289" lon="10.591356026096156"><ele>84.5</ele><time>2026-05-01T02:54:56.001Z</time></trkpt><trkpt lat="45.43576031921129" lon="10.591784889995822"><ele>83.0</ele><time>2026-05-01T02:54:57.001Z</time></trkpt><trkpt lat="45.435680305282055" lon="10.59221272399784"><ele>83.0</ele><time>2026-05-01T02:54:58Z</time></trkpt><trkpt lat="45.43560007690658" lon="10.592640510150154"><ele>83.0</ele><time>2026-05-01T02:54:59Z</time></trkpt><trkpt lat="45.43552090871037" lon="10.593071045158837"><ele>83.5</ele><time>2026-05-01T02:55:00Z</time></trkpt><trkpt lat="45.435442132488184" lon="10.593500488380519"><ele>84.0</ele><time>2026-05-01T02:55:01Z</time></trkpt><trkpt lat="45.43536328122059" lon="10.593929496579534"><ele>84.5</ele><time>2026-05-01T02:55:02Z</time></trkpt><trkpt lat="45.43528273368022" lon="10.594355498962125"><ele>85.0</ele><time>2026-05-01T02:55:03Z</time></trkpt><trkpt lat="45.435206045148824" lon="10.59477144962405"><ele>85.0</ele><time>2026-05-01T02:55:04Z</time></trkpt><trkpt lat="45.43513000695263" lon="10.595177870907156"><ele>85.0</ele><time>2026-05-01T02:55:05Z</time></trkpt><trkpt lat="45.435052016518334" lon="10.595598831217908"><ele>85.0</ele><time>2026-05-01T02:55:06Z</time></trkpt><trkpt lat="45.43497597169488" lon="10.596019847504381"><ele>85.0</ele><time>2026-05-01T02:55:07Z</time></trkpt><trkpt lat="45.43489963682534" lon="10.596440504513138"><ele>85.0</ele><time>2026-05-01T02:55:08Z</time></trkpt><trkpt lat="45.434824519133144" lon="10.59686222986888"><ele>85.0</ele><time>2026-05-01T02:55:09Z</time></trkpt><trkpt lat="45.43475411280337" lon="10.5972859582169"><ele>85.0</ele><time>2026-05-01T02:55:10Z</time></trkpt><trkpt lat="45.43468991470423" lon="10.597713160606675"><ele>85.0</ele><time>2026-05-01T02:55:11Z</time></trkpt><trkpt lat="45.434628448977094" lon="10.598142220869818"><ele>84.0</ele><time>2026-05-01T02:55:12Z</time></trkpt><trkpt lat="45.434572003132764" lon="10.598572810943061"><ele>83.0</ele><time>2026-05-01T02:55:13Z</time></trkpt><trkpt lat="45.43451594717946" lon="10.599005358130327"><ele>83.0</ele><time>2026-05-01T02:55:14Z</time></trkpt><trkpt lat="45.43446323933009" lon="10.59943845738746"><ele>83.0</ele><time>2026-05-01T02:55:15Z</time></trkpt><trkpt lat="45.43441570960182" lon="10.599873753717125"><ele>82.5</ele><time>2026-05-01T02:55:16Z</time></trkpt><trkpt lat="45.434369168382474" lon="10.600309431817777"><ele>82.0</ele><time>2026-05-01T02:55:17Z</time></trkpt><trkpt lat="45.434327129568175" lon="10.60074728105562"><ele>83.0</ele><time>2026-05-01T02:55:18Z</time></trkpt><trkpt lat="45.43428446435291" lon="10.60118390302228"><ele>84.0</ele><time>2026-05-01T02:55:19Z</time></trkpt><trkpt lat="45.43424582052478" lon="10.60162062921123"><ele>84.5</ele><time>2026-05-01T02:55:20Z</time></trkpt><trkpt lat="45.434211046496756" lon="10.602058436754481"><ele>85.0</ele><time>2026-05-01T02:55:21Z</time></trkpt><trkpt lat="45.43417995182637" lon="10.602498770598071"><ele>84.5</ele><time>2026-05-01T02:55:22Z</time></trkpt><trkpt lat="45.434155001832394" lon="10.602939356219785"><ele>84.0</ele><time>2026-05-01T02:55:23Z</time></trkpt><trkpt lat="45.434131053061094" lon="10.60338054747723"><ele>85.0</ele><time>2026-05-01T02:55:24Z</time></trkpt><trkpt lat="45.434106323348466" lon="10.603822083417716"><ele>86.0</ele><time>2026-05-01T02:55:25Z</time></trkpt><trkpt lat="45.43407629921012" lon="10.604264015488644"><ele>86.0</ele><time>2026-05-01T02:55:26Z</time></trkpt><trkpt lat="45.43404707602256" lon="10.604704208242573"><ele>86.0</ele><time>2026-05-01T02:55:27Z</time></trkpt><trkpt lat="45.43402069112514" lon="10.605145382435394"><ele>86.5</ele><time>2026-05-01T02:55:28Z</time></trkpt><trkpt lat="45.43399805236038" lon="10.605587415832227"><ele>87.0</ele><time>2026-05-01T02:55:29Z</time></trkpt><trkpt lat="45.43397797620684" lon="10.606028764994667"><ele>85.5</ele><time>2026-05-01T02:55:30Z</time></trkpt><trkpt lat="45.433958985494705" lon="10.606470211840653"><ele>84.0</ele><time>2026-05-01T02:55:31Z</time></trkpt><trkpt lat="45.43393987936886" lon="10.606911289683161"><ele>84.0</ele><time>2026-05-01T02:55:32Z</time></trkpt><trkpt lat="45.43391788063093" lon="10.607350741864595"><ele>84.0</ele><time>2026-05-01T02:55:33Z</time></trkpt><trkpt lat="45.43389342501364" lon="10.607789945222388"><ele>83.5</ele><time>2026-05-01T02:55:34Z</time></trkpt><trkpt lat="45.433871848670115" lon="10.608228110554139"><ele>83.0</ele><time>2026-05-01T02:55:35Z</time></trkpt><trkpt lat="45.4338505004377" lon="10.608665244759608"><ele>83.0</ele><time>2026-05-01T02:55:36Z</time></trkpt><trkpt lat="45.43382994308248" lon="10.609100709437843"><ele>83.0</ele><time>2026-05-01T02:55:37Z</time></trkpt><trkpt lat="45.43380918572856" lon="10.609535749255357"><ele>83.5</ele><time>2026-05-01T02:55:38Z</time></trkpt><trkpt lat="45.43378801399956" lon="10.60997012698633"><ele>84.0</ele><time>2026-05-01T02:55:39Z</time></trkpt><trkpt lat="45.433766550098476" lon="10.61040280783039"><ele>84.0</ele><time>2026-05-01T02:55:40Z</time></trkpt><trkpt lat="45.433745345442894" lon="10.610836041752824"><ele>84.0</ele><time>2026-05-01T02:55:41Z</time></trkpt><trkpt lat="45.43372380782779" lon="10.61126769412089"><ele>84.0</ele><time>2026-05-01T02:55:42Z</time></trkpt><trkpt lat="45.43370324301606" lon="10.611699491828109"><ele>84.0</ele><time>2026-05-01T02:55:43Z</time></trkpt><trkpt lat="45.433681695848236" lon="10.612132730139209"><ele>83.5</ele><time>2026-05-01T02:55:44Z</time></trkpt><trkpt lat="45.43365983618617" lon="10.612565773742487"><ele>83.0</ele><time>2026-05-01T02:55:45Z</time></trkpt><trkpt lat="45.433641047457655" lon="10.613000009081626"><ele>83.0</ele><time>2026-05-01T02:55:46Z</time></trkpt><trkpt lat="45.433627894123006" lon="10.61343308723657"><ele>83.0</ele><time>2026-05-01T02:55:47Z</time></trkpt><trkpt lat="45.43361657126025" lon="10.613866525791368"><ele>83.0</ele><time>2026-05-01T02:55:48Z</time></trkpt><trkpt lat="45.43360233675558" lon="10.614300174129845"><ele>83.0</ele><time>2026-05-01T02:55:49Z</time></trkpt><trkpt lat="45.43358568472313" lon="10.614735433643387"><ele>83.0</ele><time>2026-05-01T02:55:50Z</time></trkpt><trkpt lat="45.43356455191932" lon="10.61517060946452"><ele>83.0</ele><time>2026-05-01T02:55:51Z</time></trkpt><trkpt lat="45.4335417156303" lon="10.615606562541245"><ele>83.0</ele><time>2026-05-01T02:55:52Z</time></trkpt><trkpt lat="45.43351979499121" lon="10.616041996794777"><ele>83.0</ele><time>2026-05-01T02:55:53Z</time></trkpt><trkpt lat="45.43349876300113" lon="10.61647806587137"><ele>83.0</ele><time>2026-05-01T02:55:54Z</time></trkpt><trkpt lat="45.433477475948685" lon="10.61691503276978"><ele>83.0</ele><time>2026-05-01T02:55:55Z</time></trkpt><trkpt lat="45.43345359305617" lon="10.61735220641908"><ele>82.0</ele><time>2026-05-01T02:55:56Z</time></trkpt><trkpt lat="45.433430423477226" lon="10.617791227914525"><ele>81.0</ele><time>2026-05-01T02:55:57Z</time></trkpt><trkpt lat="45.43340660307531" lon="10.618230621070351"><ele>79.5</ele><time>2026-05-01T02:55:58Z</time></trkpt><trkpt lat="45.43338547774387" lon="10.618669966233234"><ele>78.0</ele><time>2026-05-01T02:55:59Z</time></trkpt><trkpt lat="45.43336423951124" lon="10.619108851435179"><ele>77.5</ele><time>2026-05-01T02:56:00Z</time></trkpt><trkpt lat="45.4333432873303" lon="10.619547423689719"><ele>77.0</ele><time>2026-05-01T02:56:01Z</time></trkpt><trkpt lat="45.43332356401997" lon="10.619983445518857"><ele>76.5</ele><time>2026-05-01T02:56:02Z</time></trkpt><trkpt lat="45.43330450770762" lon="10.620415242644826"><ele>76.0</ele><time>2026-05-01T02:56:03Z</time></trkpt><trkpt lat="45.43328561810451" lon="10.62084365707004"><ele>77.0</ele><time>2026-05-01T02:56:04Z</time></trkpt><trkpt lat="45.43326532443002" lon="10.62127182601989"><ele>78.0</ele><time>2026-05-01T02:56:05Z</time></trkpt><trkpt lat="45.43324527739999" lon="10.621700538058615"><ele>78.5</ele><time>2026-05-01T02:56:06Z</time></trkpt><trkpt lat="45.433224129135645" lon="10.622129281428363"><ele>79.0</ele><time>2026-05-01T02:56:07Z</time></trkpt><trkpt lat="45.4332038801456" lon="10.622560464320419"><ele>78.5</ele><time>2026-05-01T02:56:08Z</time></trkpt><trkpt lat="45.43318000714925" lon="10.622997881226874"><ele>78.0</ele><time>2026-05-01T02:56:09Z</time></trkpt><trkpt lat="45.43315873268917" lon="10.623431756312117"><ele>78.0</ele><time>2026-05-01T02:56:10Z</time></trkpt><trkpt lat="45.433136463684626" lon="10.623866969257323"><ele>78.0</ele><time>2026-05-01T02:56:11Z</time></trkpt><trkpt lat="45.433114138239226" lon="10.624303428097955"><ele>77.0</ele><time>2026-05-01T02:56:12Z</time></trkpt><trkpt lat="45.43309284215854" lon="10.624740778955909"><ele>76.0</ele><time>2026-05-01T02:56:13Z</time></trkpt><trkpt lat="45.43307223790374" lon="10.625178398680575"><ele>75.5</ele><time>2026-05-01T02:56:14Z</time></trkpt><trkpt lat="45.433052584671024" lon="10.625616010322254"><ele>75.0</ele><time>2026-05-01T02:56:15Z</time></trkpt><trkpt lat="45.43303202667428" lon="10.626053731122202"><ele>74.5</ele><time>2026-05-01T02:56:16Z</time></trkpt><trkpt lat="45.43300883014103" lon="10.626490329809894"><ele>74.0</ele><time>2026-05-01T02:56:17Z</time></trkpt><trkpt lat="45.43298648571542" lon="10.626926665483014"><ele>75.5</ele><time>2026-05-01T02:56:18Z</time></trkpt><trkpt lat="45.43296353868836" lon="10.627363595090326"><ele>77.0</ele><time>2026-05-01T02:56:19Z</time></trkpt><trkpt lat="45.43294262663998" lon="10.627800500489778"><ele>77.0</ele><time>2026-05-01T02:56:20Z</time></trkpt><trkpt lat="45.43292216484556" lon="10.62823613984049"><ele>77.0</ele><time>2026-05-01T02:56:21Z</time></trkpt><trkpt lat="45.43290151012657" lon="10.628660394131238"><ele>77.0</ele><time>2026-05-01T02:56:22.001Z</time></trkpt><trkpt lat="45.432882015290694" lon="10.629070684610788"><ele>77.0</ele><time>2026-05-01T02:56:23.001Z</time></trkpt><trkpt lat="45.432861858992744" lon="10.629501204648967"><ele>77.0</ele><time>2026-05-01T02:56:24.001Z</time></trkpt><trkpt lat="45.43283997124286" lon="10.629935023571809"><ele>77.0</ele><time>2026-05-01T02:56:25.001Z</time></trkpt><trkpt lat="45.43281827347697" lon="10.630371702174218"><ele>76.5</ele><time>2026-05-01T02:56:26.001Z</time></trkpt><trkpt lat="45.432796461416395" lon="10.63080814901912"><ele>76.0</ele><time>2026-05-01T02:56:27.001Z</time></trkpt><trkpt lat="45.43277357982105" lon="10.631246541994601"><ele>75.5</ele><time>2026-05-01T02:56:28.001Z</time></trkpt><trkpt lat="45.432751587530845" lon="10.631685385933967"><ele>75.0</ele><time>2026-05-01T02:56:29.001Z</time></trkpt><trkpt lat="45.43273100545827" lon="10.632124353662821"><ele>75.0</ele><time>2026-05-01T02:56:30.001Z</time></trkpt><trkpt lat="45.43271001060064" lon="10.632563458782302"><ele>75.0</ele><time>2026-05-01T02:56:31.001Z</time></trkpt><trkpt lat="45.432688865296754" lon="10.633001919815001"><ele>75.5</ele><time>2026-05-01T02:56:32.001Z</time></trkpt><trkpt lat="45.43266721228706" lon="10.633438670768367"><ele>76.0</ele><time>2026-05-01T02:56:33.001Z</time></trkpt><trkpt lat="45.432645010595664" lon="10.633873625739875"><ele>77.5</ele><time>2026-05-01T02:56:34.001Z</time></trkpt><trkpt lat="45.43262247070002" lon="10.634308645120491"><ele>79.0</ele><time>2026-05-01T02:56:35.001Z</time></trkpt><trkpt lat="45.432599646384084" lon="10.634743914732374"><ele>79.0</ele><time>2026-05-01T02:56:36.001Z</time></trkpt><trkpt lat="45.432576881090625" lon="10.635179889634168"><ele>79.0</ele><time>2026-05-01T02:56:37.001Z</time></trkpt><trkpt lat="45.43255563441" lon="10.635614974644414"><ele>78.5</ele><time>2026-05-01T02:56:38.001Z</time></trkpt><trkpt lat="45.43253576171303" lon="10.636049790978175"><ele>78.0</ele><time>2026-05-01T02:56:39.001Z</time></trkpt><trkpt lat="45.43251639701207" lon="10.6364860023467"><ele>79.5</ele><time>2026-05-01T02:56:40.001Z</time></trkpt><trkpt lat="45.432496394993635" lon="10.636922126469205"><ele>81.0</ele><time>2026-05-01T02:56:41.001Z</time></trkpt><trkpt lat="45.43247384777742" lon="10.63735615211158"><ele>81.0</ele><time>2026-05-01T02:56:42.001Z</time></trkpt><trkpt lat="45.43245146093945" lon="10.637791238157165"><ele>81.0</ele><time>2026-05-01T02:56:43.001Z</time></trkpt><trkpt lat="45.43242996556332" lon="10.638223845482651"><ele>78.0</ele><time>2026-05-01T02:56:44.001Z</time></trkpt><trkpt lat="45.43240985424839" lon="10.638656774628014"><ele>75.0</ele><time>2026-05-01T02:56:45.001Z</time></trkpt><trkpt lat="45.43238801410977" lon="10.639090363743584"><ele>75.5</ele><time>2026-05-01T02:56:46.001Z</time></trkpt><trkpt lat="45.43236438440834" lon="10.63952677808592"><ele>76.0</ele><time>2026-05-01T02:56:47.001Z</time></trkpt><trkpt lat="45.43233750170245" lon="10.639961771243625"><ele>75.5</ele><time>2026-05-01T02:56:48.001Z</time></trkpt><trkpt lat="45.4323079150487" lon="10.640394710010897"><ele>75.0</ele><time>2026-05-01T02:56:49.001Z</time></trkpt><trkpt lat="45.432272972857135" lon="10.640825253094283"><ele>75.5</ele><time>2026-05-01T02:56:50.001Z</time></trkpt><trkpt lat="45.4322323615311" lon="10.641257458072543"><ele>76.0</ele><time>2026-05-01T02:56:51.001Z</time></trkpt><trkpt lat="45.43219677239797" lon="10.641691001043936"><ele>76.0</ele><time>2026-05-01T02:56:52.001Z</time></trkpt><trkpt lat="45.43216637342602" lon="10.642126471029066"><ele>76.0</ele><time>2026-05-01T02:56:53.001Z</time></trkpt><trkpt lat="45.432138080825816" lon="10.64256228227977"><ele>76.5</ele><time>2026-05-01T02:56:54.001Z</time></trkpt><trkpt lat="45.43211133122835" lon="10.642997773809542"><ele>77.0</ele><time>2026-05-01T02:56:55.001Z</time></trkpt><trkpt lat="45.432080966678406" lon="10.643431642278133"><ele>77.0</ele><time>2026-05-01T02:56:56.001Z</time></trkpt><trkpt lat="45.432050494847594" lon="10.64386584581907"><ele>77.0</ele><time>2026-05-01T02:56:57.001Z</time></trkpt><trkpt lat="45.43202439906215" lon="10.644300431972468"><ele>76.0</ele><time>2026-05-01T02:56:58.001Z</time></trkpt><trkpt lat="45.431997913225786" lon="10.644733159299186"><ele>75.0</ele><time>2026-05-01T02:56:59.001Z</time></trkpt><trkpt lat="45.43197004856132" lon="10.645164768896839"><ele>74.5</ele><time>2026-05-01T02:57:00.001Z</time></trkpt><trkpt lat="45.43194300079398" lon="10.645596159878272"><ele>74.0</ele><time>2026-05-01T02:57:01.001Z</time></trkpt><trkpt lat="45.43191483792313" lon="10.646028158645883"><ele>74.5</ele><time>2026-05-01T02:57:02.001Z</time></trkpt><trkpt lat="45.43188604046041" lon="10.646460831750668"><ele>75.0</ele><time>2026-05-01T02:57:03.001Z</time></trkpt><trkpt lat="45.4318589396978" lon="10.646894075135297"><ele>75.0</ele><time>2026-05-01T02:57:04Z</time></trkpt><trkpt lat="45.43183087735529" lon="10.647328424595633"><ele>75.0</ele><time>2026-05-01T02:57:05Z</time></trkpt><trkpt lat="45.431802773265645" lon="10.647763613459926"><ele>75.0</ele><time>2026-05-01T02:57:06Z</time></trkpt><trkpt lat="45.431774758060236" lon="10.648199952034979"><ele>75.0</ele><time>2026-05-01T02:57:07Z</time></trkpt><trkpt lat="45.43174697644247" lon="10.648636194065672"><ele>75.0</ele><time>2026-05-01T02:57:08Z</time></trkpt><trkpt lat="45.43171857338194" lon="10.649072819934442"><ele>75.0</ele><time>2026-05-01T02:57:09Z</time></trkpt><trkpt lat="45.43169057248762" lon="10.64951071585611"><ele>75.5</ele><time>2026-05-01T02:57:10Z</time></trkpt><trkpt lat="45.43166229956529" lon="10.649946292086875"><ele>76.0</ele><time>2026-05-01T02:57:11Z</time></trkpt><trkpt lat="45.431635000923194" lon="10.650381507692956"><ele>76.0</ele><time>2026-05-01T02:57:12Z</time></trkpt><trkpt lat="45.43160725613213" lon="10.650815163984957"><ele>76.0</ele><time>2026-05-01T02:57:13Z</time></trkpt><trkpt lat="45.43157928636568" lon="10.65124833759866"><ele>76.0</ele><time>2026-05-01T02:57:14Z</time></trkpt><trkpt lat="45.43155170193448" lon="10.65168152202371"><ele>76.0</ele><time>2026-05-01T02:57:15Z</time></trkpt><trkpt lat="45.431522807748365" lon="10.652115320634758"><ele>76.0</ele><time>2026-05-01T02:57:16Z</time></trkpt><trkpt lat="45.431495004701446" lon="10.652548147818944"><ele>76.0</ele><time>2026-05-01T02:57:17Z</time></trkpt><trkpt lat="45.43146829759407" lon="10.65298040184283"><ele>76.0</ele><time>2026-05-01T02:57:18Z</time></trkpt><trkpt lat="45.43143941623565" lon="10.653413112894373"><ele>76.0</ele><time>2026-05-01T02:57:19Z</time></trkpt><trkpt lat="45.431409871090516" lon="10.653846427940127"><ele>76.0</ele><time>2026-05-01T02:57:20Z</time></trkpt><trkpt lat="45.43138094149098" lon="10.65427730211304"><ele>76.0</ele><time>2026-05-01T02:57:21Z</time></trkpt><trkpt lat="45.431353197829225" lon="10.65470773816907"><ele>77.0</ele><time>2026-05-01T02:57:22Z</time></trkpt><trkpt lat="45.43132530223791" lon="10.655138430531704"><ele>78.0</ele><time>2026-05-01T02:57:23Z</time></trkpt><trkpt lat="45.43129597768394" lon="10.655569109268713"><ele>79.5</ele><time>2026-05-01T02:57:24Z</time></trkpt><trkpt lat="45.43126813108904" lon="10.656001212716259"><ele>81.0</ele><time>2026-05-01T02:57:25Z</time></trkpt><trkpt lat="45.431239865327335" lon="10.656434441375316"><ele>81.0</ele><time>2026-05-01T02:57:26Z</time></trkpt><trkpt lat="45.4312111417964" lon="10.65686871371477"><ele>81.0</ele><time>2026-05-01T02:57:27Z</time></trkpt><trkpt lat="45.43118391227391" lon="10.657305002772114"><ele>82.5</ele><time>2026-05-01T02:57:28Z</time></trkpt><trkpt lat="45.43115801925273" lon="10.65774252063449"><ele>84.0</ele><time>2026-05-01T02:57:29Z</time></trkpt><trkpt lat="45.431132956226925" lon="10.658178700397182"><ele>85.0</ele><time>2026-05-01T02:57:30Z</time></trkpt><trkpt lat="45.43110479932743" lon="10.658616650200797"><ele>86.0</ele><time>2026-05-01T02:57:31Z</time></trkpt><trkpt lat="45.43107479896653" lon="10.659053726175884"><ele>84.5</ele><time>2026-05-01T02:57:32Z</time></trkpt><trkpt lat="45.431046064500784" lon="10.659493440703692"><ele>83.0</ele><time>2026-05-01T02:57:33Z</time></trkpt><trkpt lat="45.43101635026995" lon="10.659935765987225"><ele>81.0</ele><time>2026-05-01T02:57:34Z</time></trkpt><trkpt lat="45.430986031516674" lon="10.660379747766056"><ele>79.0</ele><time>2026-05-01T02:57:35Z</time></trkpt><trkpt lat="45.43095863405851" lon="10.660820541597785"><ele>77.5</ele><time>2026-05-01T02:57:36Z</time></trkpt><trkpt lat="45.430929814827586" lon="10.661259729720546"><ele>76.0</ele><time>2026-05-01T02:57:37Z</time></trkpt><trkpt lat="45.43090022158721" lon="10.661698032608035"><ele>76.0</ele><time>2026-05-01T02:57:38Z</time></trkpt><trkpt lat="45.430872621086564" lon="10.66213640778688"><ele>76.0</ele><time>2026-05-01T02:57:39Z</time></trkpt><trkpt lat="45.430843974347795" lon="10.662573181372458"><ele>75.5</ele><time>2026-05-01T02:57:40Z</time></trkpt><trkpt lat="45.43081726096517" lon="10.66300749631696"><ele>75.0</ele><time>2026-05-01T02:57:41Z</time></trkpt><trkpt lat="45.43078904566501" lon="10.663439348923683"><ele>75.0</ele><time>2026-05-01T02:57:42Z</time></trkpt><trkpt lat="45.43076199460738" lon="10.66387075117315"><ele>75.0</ele><time>2026-05-01T02:57:43Z</time></trkpt><trkpt lat="45.4307335635263" lon="10.66429830780788"><ele>75.5</ele><time>2026-05-01T02:57:44Z</time></trkpt><trkpt lat="45.43070725918145" lon="10.664721363661643"><ele>76.0</ele><time>2026-05-01T02:57:45Z</time></trkpt><trkpt lat="45.43067862209974" lon="10.665120096256224"><ele>77.0</ele><time>2026-05-01T02:57:46Z</time></trkpt><trkpt lat="45.430651329046626" lon="10.665512529166412"><ele>78.0</ele><time>2026-05-01T02:57:47Z</time></trkpt><trkpt lat="45.4306406390202" lon="10.665909934315293"><ele>80.0</ele><time>2026-05-01T02:57:48Z</time></trkpt><trkpt lat="45.43063128681304" lon="10.66632303513977"><ele>82.0</ele><time>2026-05-01T02:57:49Z</time></trkpt><trkpt lat="45.43061818592215" lon="10.666748427443405"><ele>83.5</ele><time>2026-05-01T02:57:50Z</time></trkpt><trkpt lat="45.430599339289394" lon="10.667184528463807"><ele>85.0</ele><time>2026-05-01T02:57:51Z</time></trkpt><trkpt lat="45.430573666428764" lon="10.667626902496808"><ele>86.0</ele><time>2026-05-01T02:57:52Z</time></trkpt><trkpt lat="45.43054133815234" lon="10.668072337081554"><ele>87.0</ele><time>2026-05-01T02:57:53Z</time></trkpt><trkpt lat="45.430509499952535" lon="10.66851772667213"><ele>86.0</ele><time>2026-05-01T02:57:54Z</time></trkpt><trkpt lat="45.43048144851198" lon="10.66896030048287"><ele>85.0</ele><time>2026-05-01T02:57:55Z</time></trkpt><trkpt lat="45.430451190198475" lon="10.66939929735833"><ele>86.5</ele><time>2026-05-01T02:57:56Z</time></trkpt><trkpt lat="45.430421746795886" lon="10.669830695734378"><ele>88.0</ele><time>2026-05-01T02:57:57Z</time></trkpt><trkpt lat="45.430394819913154" lon="10.670255933817959"><ele>86.0</ele><time>2026-05-01T02:57:58Z</time></trkpt><trkpt lat="45.430368231241026" lon="10.670676521115798"><ele>84.0</ele><time>2026-05-01T02:57:59Z</time></trkpt><trkpt lat="45.430338588839085" lon="10.671101070590707"><ele>83.0</ele><time>2026-05-01T02:58:00Z</time></trkpt><trkpt lat="45.430310033124854" lon="10.671527808143999"><ele>82.0</ele><time>2026-05-01T02:58:01Z</time></trkpt><trkpt lat="45.430282752941544" lon="10.671955110570964"><ele>82.0</ele><time>2026-05-01T02:58:02Z</time></trkpt><trkpt lat="45.43025566297588" lon="10.672385392188453"><ele>82.0</ele><time>2026-05-01T02:58:03Z</time></trkpt><trkpt lat="45.430227821873224" lon="10.672817177944815"><ele>82.5</ele><time>2026-05-01T02:58:04Z</time></trkpt><trkpt lat="45.43019992742512" lon="10.673249064764004"><ele>83.0</ele><time>2026-05-01T02:58:05Z</time></trkpt><trkpt lat="45.43017079258794" lon="10.673681651564461"><ele>84.0</ele><time>2026-05-01T02:58:06Z</time></trkpt><trkpt lat="45.43014149563364" lon="10.674113791203025"><ele>85.0</ele><time>2026-05-01T02:58:07Z</time></trkpt><trkpt lat="45.430113916125" lon="10.674547908218974"><ele>85.0</ele><time>2026-05-01T02:58:08Z</time></trkpt><trkpt lat="45.43008721817522" lon="10.674982947484201"><ele>85.0</ele><time>2026-05-01T02:58:09Z</time></trkpt><trkpt lat="45.43005911192331" lon="10.675418003610508"><ele>84.5</ele><time>2026-05-01T02:58:10Z</time></trkpt><trkpt lat="45.43003075334822" lon="10.675853847086548"><ele>84.0</ele><time>2026-05-01T02:58:11Z</time></trkpt><trkpt lat="45.43000214358202" lon="10.67629044699865"><ele>83.5</ele><time>2026-05-01T02:58:12Z</time></trkpt><trkpt lat="45.42997300821549" lon="10.676727295668117"><ele>83.0</ele><time>2026-05-01T02:58:13Z</time></trkpt><trkpt lat="45.429944215881584" lon="10.677165717194141"><ele>83.0</ele><time>2026-05-01T02:58:14Z</time></trkpt><trkpt lat="45.429916874731624" lon="10.677602757847257"><ele>83.0</ele><time>2026-05-01T02:58:15Z</time></trkpt><trkpt lat="45.42988731267038" lon="10.67803894767769"><ele>84.0</ele><time>2026-05-01T02:58:16Z</time></trkpt><trkpt lat="45.429859477939345" lon="10.678475180316502"><ele>85.0</ele><time>2026-05-01T02:58:17Z</time></trkpt><trkpt lat="45.429830697475985" lon="10.678912386154678"><ele>85.0</ele><time>2026-05-01T02:58:18Z</time></trkpt><trkpt lat="45.42980177400561" lon="10.67935030239213"><ele>85.0</ele><time>2026-05-01T02:58:19Z</time></trkpt><trkpt lat="45.429773190919875" lon="10.679787803998206"><ele>85.5</ele><time>2026-05-01T02:58:20Z</time></trkpt><trkpt lat="45.42974640874545" lon="10.68022538578385"><ele>86.0</ele><time>2026-05-01T02:58:21Z</time></trkpt><trkpt lat="45.42971737637067" lon="10.680663108635603"><ele>86.5</ele><time>2026-05-01T02:58:22Z</time></trkpt><trkpt lat="45.429685436384275" lon="10.68110085177796"><ele>87.0</ele><time>2026-05-01T02:58:23Z</time></trkpt><trkpt lat="45.4296487061192" lon="10.681540642476055"><ele>90.5</ele><time>2026-05-01T02:58:24Z</time></trkpt><trkpt lat="45.429610526545346" lon="10.68198021620809"><ele>94.0</ele><time>2026-05-01T02:58:25Z</time></trkpt><trkpt lat="45.42957551704666" lon="10.68242136880733"><ele>95.5</ele><time>2026-05-01T02:58:26Z</time></trkpt><trkpt lat="45.42954314427134" lon="10.682862668954044"><ele>97.0</ele><time>2026-05-01T02:58:27Z</time></trkpt><trkpt lat="45.429514572476734" lon="10.683303473831847"><ele>94.5</ele><time>2026-05-01T02:58:28Z</time></trkpt><trkpt lat="45.429484892297424" lon="10.683744864581241"><ele>92.0</ele><time>2026-05-01T02:58:29Z</time></trkpt><trkpt lat="45.429454376724806" lon="10.684186857897965"><ele>90.0</ele><time>2026-05-01T02:58:30Z</time></trkpt><trkpt lat="45.42942482960942" lon="10.684628488810102"><ele>88.0</ele><time>2026-05-01T02:58:31Z</time></trkpt><trkpt lat="45.42939770912013" lon="10.685069311879388"><ele>86.5</ele><time>2026-05-01T02:58:32Z</time></trkpt><trkpt lat="45.42936997806658" lon="10.685509605948933"><ele>85.0</ele><time>2026-05-01T02:58:33.001Z</time></trkpt><trkpt lat="45.42934349851353" lon="10.685949481051786"><ele>84.5</ele><time>2026-05-01T02:58:34.001Z</time></trkpt><trkpt lat="45.42932185183106" lon="10.686392144626968"><ele>84.0</ele><time>2026-05-01T02:58:35.001Z</time></trkpt><trkpt lat="45.42929977706729" lon="10.686831921761145"><ele>84.5</ele><time>2026-05-01T02:58:36.001Z</time></trkpt><trkpt lat="45.42928025918564" lon="10.687270723651286"><ele>85.0</ele><time>2026-05-01T02:58:37.001Z</time></trkpt><trkpt lat="45.42926347704917" lon="10.687710643076828"><ele>84.5</ele><time>2026-05-01T02:58:38.001Z</time></trkpt><trkpt lat="45.42924911865919" lon="10.688148900442267"><ele>84.0</ele><time>2026-05-01T02:58:39.001Z</time></trkpt><trkpt lat="45.42923641300469" lon="10.688586844437465"><ele>83.0</ele><time>2026-05-01T02:58:40.001Z</time></trkpt><trkpt lat="45.429227238574576" lon="10.68902297761401"><ele>82.0</ele><time>2026-05-01T02:58:41.001Z</time></trkpt><trkpt lat="45.429220244915484" lon="10.689456814464034"><ele>82.0</ele><time>2026-05-01T02:58:42.001Z</time></trkpt><trkpt lat="45.42921570150164" lon="10.689889164469596"><ele>82.0</ele><time>2026-05-01T02:58:43.001Z</time></trkpt><trkpt lat="45.42921329187986" lon="10.690322033270899"><ele>82.5</ele><time>2026-05-01T02:58:44.001Z</time></trkpt><trkpt lat="45.429214877995534" lon="10.690755870323372"><ele>83.0</ele><time>2026-05-01T02:58:45.001Z</time></trkpt><trkpt lat="45.42921768953704" lon="10.691189318091768"><ele>82.5</ele><time>2026-05-01T02:58:46.001Z</time></trkpt><trkpt lat="45.429222420995266" lon="10.691621410718234"><ele>82.0</ele><time>2026-05-01T02:58:47.001Z</time></trkpt><trkpt lat="45.42922448996189" lon="10.69205206236896"><ele>82.0</ele><time>2026-05-01T02:58:48.001Z</time></trkpt><trkpt lat="45.429219179816315" lon="10.692483702293913"><ele>82.0</ele><time>2026-05-01T02:58:49.001Z</time></trkpt><trkpt lat="45.4292104411879" lon="10.692916042020055"><ele>82.0</ele><time>2026-05-01T02:58:50.001Z</time></trkpt><trkpt lat="45.42920202790715" lon="10.693347987742609"><ele>82.0</ele><time>2026-05-01T02:58:51.001Z</time></trkpt><trkpt lat="45.42919765337318" lon="10.693779257496137"><ele>82.0</ele><time>2026-05-01T02:58:52.001Z</time></trkpt><trkpt lat="45.42920117975851" lon="10.694209893169546"><ele>82.0</ele><time>2026-05-01T02:58:53.001Z</time></trkpt><trkpt lat="45.429206414480134" lon="10.694640698046754"><ele>81.5</ele><time>2026-05-01T02:58:54.001Z</time></trkpt><trkpt lat="45.42921189716816" lon="10.695071408508309"><ele>81.0</ele><time>2026-05-01T02:58:55.001Z</time></trkpt><trkpt lat="45.42921389040181" lon="10.69550181993618"><ele>80.5</ele><time>2026-05-01T02:58:56.001Z</time></trkpt><trkpt lat="45.42921669641156" lon="10.695931949432543"><ele>80.0</ele><time>2026-05-01T02:58:57.001Z</time></trkpt><trkpt lat="45.4292188181418" lon="10.69636105519141"><ele>78.5</ele><time>2026-05-01T02:58:58.001Z</time></trkpt><trkpt lat="45.42922258613834" lon="10.696787672103383"><ele>77.0</ele><time>2026-05-01T02:58:59.001Z</time></trkpt><trkpt lat="45.42922814672643" lon="10.69721257859921"><ele>76.0</ele><time>2026-05-01T02:59:00.001Z</time></trkpt><trkpt lat="45.42923219074278" lon="10.697635949438444"><ele>75.0</ele><time>2026-05-01T02:59:01.001Z</time></trkpt><trkpt lat="45.429235997393214" lon="10.698056694205071"><ele>74.0</ele><time>2026-05-01T02:59:02.001Z</time></trkpt><trkpt lat="45.42923964281857" lon="10.698473788830112"><ele>73.0</ele><time>2026-05-01T02:59:03.001Z</time></trkpt><trkpt lat="45.4292426847788" lon="10.698888156357743"><ele>72.5</ele><time>2026-05-01T02:59:04.001Z</time></trkpt><trkpt lat="45.429244062358194" lon="10.699300532695968"><ele>72.0</ele><time>2026-05-01T02:59:05.001Z</time></trkpt><trkpt lat="45.42924685915225" lon="10.699710298566876"><ele>70.0</ele><time>2026-05-01T02:59:06.001Z</time></trkpt><trkpt lat="45.42924951652574" lon="10.70011929353518"><ele>68.0</ele><time>2026-05-01T02:59:07.001Z</time></trkpt><trkpt lat="45.429251186916204" lon="10.700528297749372"><ele>67.0</ele><time>2026-05-01T02:59:08.001Z</time></trkpt><trkpt lat="45.429252230328714" lon="10.700937142922559"><ele>66.0</ele><time>2026-05-01T02:59:09.001Z</time></trkpt><trkpt lat="45.42925420057277" lon="10.701344032704256"><ele>66.0</ele><time>2026-05-01T02:59:10Z</time></trkpt><trkpt lat="45.429253889101915" lon="10.70173570532321"><ele>66.0</ele><time>2026-05-01T02:59:11Z</time></trkpt><trkpt lat="45.429249388995984" lon="10.702100287569866"><ele>68.0</ele><time>2026-05-01T02:59:12Z</time></trkpt><trkpt lat="45.42923950571595" lon="10.70244494950928"><ele>70.0</ele><time>2026-05-01T02:59:13Z</time></trkpt><trkpt lat="45.429228223160386" lon="10.702769361713479"><ele>71.33333333333333</ele><time>2026-05-01T02:59:14Z</time></trkpt><trkpt lat="45.4292174940859" lon="10.703078002126928"><ele>72.66666666666667</ele><time>2026-05-01T02:59:15Z</time></trkpt><trkpt lat="45.42920995314223" lon="10.703369404908464"><ele>74.0</ele><time>2026-05-01T02:59:16Z</time></trkpt><trkpt lat="45.42920298994994" lon="10.70364475111267"><ele>75.0</ele><time>2026-05-01T02:59:17Z</time></trkpt><trkpt lat="45.42919608634027" lon="10.703912617961437"><ele>76.0</ele><time>2026-05-01T02:59:18Z</time></trkpt><trkpt lat="45.42918892581138" lon="10.704177208818104"><ele>77.0</ele><time>2026-05-01T02:59:19Z</time></trkpt><trkpt lat="45.42918391593004" lon="10.704425526230622"><ele>78.0</ele><time>2026-05-01T02:59:20Z</time></trkpt><trkpt lat="45.429177599019916" lon="10.704655448092772"><ele>79.0</ele><time>2026-05-01T02:59:21Z</time></trkpt><trkpt lat="45.42917112477324" lon="10.704882825692751"><ele>80.0</ele><time>2026-05-01T02:59:22Z</time></trkpt><trkpt lat="45.42916460908186" lon="10.705107258114895"><ele>80.75</ele><time>2026-05-01T02:59:23Z</time></trkpt><trkpt lat="45.4291584532986" lon="10.705316635581486"><ele>81.5</ele><time>2026-05-01T02:59:24Z</time></trkpt><trkpt lat="45.42914503098831" lon="10.705513438544422"><ele>82.25</ele><time>2026-05-01T02:59:25Z</time></trkpt><trkpt lat="45.42912090254603" lon="10.70569525186277"><ele>83.0</ele><time>2026-05-01T02:59:26Z</time></trkpt><trkpt lat="45.42908641485927" lon="10.705870730702012"><ele>83.0</ele><time>2026-05-01T02:59:27Z</time></trkpt><trkpt lat="45.42902806262359" lon="10.706037288626783"><ele>83.0</ele><time>2026-05-01T02:59:28Z</time></trkpt><trkpt lat="45.42895493755823" lon="10.706191181842783"><ele>83.0</ele><time>2026-05-01T02:59:29Z</time></trkpt><trkpt lat="45.42886299871724" lon="10.706325462731888"><ele>83.0</ele><time>2026-05-01T02:59:30Z</time></trkpt><trkpt lat="45.42874993323922" lon="10.70643875208762"><ele>82.75</ele><time>2026-05-01T02:59:31Z</time></trkpt><trkpt lat="45.428629085713716" lon="10.706505783001216"><ele>82.5</ele><time>2026-05-01T02:59:32Z</time></trkpt><trkpt lat="45.42849374823242" lon="10.706515350282276"><ele>82.25</ele><time>2026-05-01T02:59:33Z</time></trkpt><trkpt lat="45.42835792254338" lon="10.706494646040298"><ele>82.0</ele><time>2026-05-01T02:59:34Z</time></trkpt><trkpt lat="45.428225435244606" lon="10.706442808845964"><ele>82.0</ele><time>2026-05-01T02:59:35Z</time></trkpt><trkpt lat="45.42810188761059" lon="10.706363275352727"><ele>82.0</ele><time>2026-05-01T02:59:36Z</time></trkpt><trkpt lat="45.42799602149525" lon="10.706255651604591"><ele>82.0</ele><time>2026-05-01T02:59:37Z</time></trkpt><trkpt lat="45.42790298034212" lon="10.706121143032608"><ele>82.0</ele><time>2026-05-01T02:59:38Z</time></trkpt><trkpt lat="45.427828519765" lon="10.70596299919672"><ele>81.5</ele><time>2026-05-01T02:59:39Z</time></trkpt><trkpt lat="45.427770396696815" lon="10.70579119081463"><ele>81.0</ele><time>2026-05-01T02:59:40Z</time></trkpt><trkpt lat="45.427733207070965" lon="10.70560414439772"><ele>80.5</ele><time>2026-05-01T02:59:41Z</time></trkpt><trkpt lat="45.427714261978004" lon="10.70541080173431"><ele>80.0</ele><time>2026-05-01T02:59:42Z</time></trkpt><trkpt lat="45.42771072501183" lon="10.705213866370284"><ele>79.75</ele><time>2026-05-01T02:59:43Z</time></trkpt><trkpt lat="45.42772131832803" lon="10.705013855479345"><ele>79.5</ele><time>2026-05-01T02:59:44Z</time></trkpt><trkpt lat="45.427740872390714" lon="10.704812979112027"><ele>79.25</ele><time>2026-05-01T02:59:45Z</time></trkpt><trkpt lat="45.42776258809841" lon="10.704608440200563"><ele>79.0</ele><time>2026-05-01T02:59:46Z</time></trkpt><trkpt lat="45.427782825682286" lon="10.704399984646665"><ele>78.5</ele><time>2026-05-01T02:59:47Z</time></trkpt><trkpt lat="45.42780328453846" lon="10.704189443880637"><ele>78.0</ele><time>2026-05-01T02:59:48Z</time></trkpt><trkpt lat="45.427825878024876" lon="10.703979509917323"><ele>77.5</ele><time>2026-05-01T02:59:49Z</time></trkpt><trkpt lat="45.42784780361037" lon="10.70377009711099"><ele>77.0</ele><time>2026-05-01T02:59:50Z</time></trkpt><trkpt lat="45.427870768368685" lon="10.703559211063169"><ele>76.0</ele><time>2026-05-01T02:59:51Z</time></trkpt><trkpt lat="45.42789220897742" lon="10.703348431626548"><ele>75.0</ele><time>2026-05-01T02:59:52Z</time></trkpt><trkpt lat="45.427911875110205" lon="10.703142668518977"><ele>74.0</ele><time>2026-05-01T02:59:53Z</time></trkpt><trkpt lat="45.42793019868263" lon="10.702948622303351"><ele>73.0</ele><time>2026-05-01T02:59:54Z</time></trkpt><trkpt lat="45.427947028932344" lon="10.702762112405809"><ele>72.25</ele><time>2026-05-01T02:59:55Z</time></trkpt><trkpt lat="45.42796219968541" lon="10.702577378610865"><ele>71.5</ele><time>2026-05-01T02:59:56Z</time></trkpt><trkpt lat="45.427976930384126" lon="10.702406823880205"><ele>70.75</ele><time>2026-05-01T02:59:57Z</time></trkpt><trkpt lat="45.42799937081833" lon="10.702255048508075"><ele>70.0</ele><time>2026-05-01T02:59:58Z</time></trkpt><trkpt lat="45.428037320406894" lon="10.70212595211295"><ele>69.8</ele><time>2026-05-01T02:59:59Z</time></trkpt><trkpt lat="45.428093770086235" lon="10.702010353360462"><ele>69.6</ele><time>2026-05-01T03:00:00Z</time></trkpt><trkpt lat="45.42816725174047" lon="10.701904857951481"><ele>69.4</ele><time>2026-05-01T03:00:01Z</time></trkpt><trkpt lat="45.42825462494479" lon="10.701821784929766"><ele>69.2</ele><time>2026-05-01T03:00:02Z</time></trkpt><trkpt lat="45.42835498261583" lon="10.701764064123886"><ele>69.0</ele><time>2026-05-01T03:00:03Z</time></trkpt><trkpt lat="45.428461377069844" lon="10.701731172121765"><ele>68.60000000000001</ele><time>2026-05-01T03:00:04Z</time></trkpt><trkpt lat="45.42857174866473" lon="10.701718615122365"><ele>68.2</ele><time>2026-05-01T03:00:05Z</time></trkpt><trkpt lat="45.42868307524839" lon="10.701717161411725"><ele>67.80000000000001</ele><time>2026-05-01T03:00:06Z</time></trkpt><trkpt lat="45.428794122566025" lon="10.701715524025435"><ele>67.4</ele><time>2026-05-01T03:00:07Z</time></trkpt><trkpt lat="45.42890335453987" lon="10.701713494329306"><ele>67.0</ele><time>2026-05-01T03:00:08Z</time></trkpt><trkpt lat="45.42901571341326" lon="10.70171536483369"><ele>66.8</ele><time>2026-05-01T03:00:09Z</time></trkpt><trkpt lat="45.429125092919875" lon="10.7017156013044"><ele>66.6</ele><time>2026-05-01T03:00:10Z</time></trkpt><trkpt lat="45.42922689558223" lon="10.701712344414036"><ele>66.39999999999999</ele><time>2026-05-01T03:00:11Z</time></trkpt><trkpt lat="45.42932366509493" lon="10.701716581546751"><ele>66.2</ele><time>2026-05-01T03:00:12Z</time></trkpt><trkpt lat="45.4294074432699" lon="10.701720815676522"><ele>66.0</ele><time>2026-05-01T03:00:13Z</time></trkpt><trkpt lat="45.42948219307183" lon="10.70172884129921"><ele>66.0</ele><time>2026-05-01T03:00:14Z</time></trkpt><trkpt lat="45.42955731933452" lon="10.701731323850758"><ele>66.0</ele><time>2026-05-01T03:00:15Z</time></trkpt><trkpt lat="45.42966653281592" lon="10.701739651760539"><ele>66.0</ele><time>2026-05-01T03:00:17Z</time></trkpt><trkpt lat="45.42972826745321" lon="10.701762834241693"><ele>66.0</ele><time>2026-05-01T03:00:18Z</time></trkpt><trkpt lat="45.42979384980444" lon="10.701786698138903"><ele>66.0</ele><time>2026-05-01T03:00:19Z</time></trkpt><trkpt lat="45.42986213613369" lon="10.701813830278136"><ele>66.0</ele><time>2026-05-01T03:00:20Z</time></trkpt><trkpt lat="45.42993292014858" lon="10.701842853316522"><ele>66.0</ele><time>2026-05-01T03:00:21Z</time></trkpt><trkpt lat="45.42999747135551" lon="10.701896725041768"><ele>66.0</ele><time>2026-05-01T03:00:22Z</time></trkpt><trkpt lat="45.430063628534995" lon="10.701933855117545"><ele>66.0</ele><time>2026-05-01T03:00:23Z</time></trkpt><trkpt lat="45.4301668133494" lon="10.701988612008506"><ele>66.0</ele><time>2026-05-01T03:00:25Z</time></trkpt><trkpt lat="45.430227126344185" lon="10.70201957796079"><ele>66.0</ele><time>2026-05-01T03:00:27Z</time></trkpt><trkpt lat="45.43038869345208" lon="10.702096679423722"><ele>66.66666666666667</ele><time>2026-05-01T03:01:29Z</time></trkpt><trkpt lat="45.43049429792332" lon="10.702133799529951"><ele>67.33333333333333</ele><time>2026-05-01T03:01:31Z</time></trkpt><trkpt lat="45.430609689754114" lon="10.702186441072753"><ele>68.0</ele><time>2026-05-01T03:01:33Z</time></trkpt><trkpt lat="45.4306575854618" lon="10.702261014357353"><ele>68.66666666666666</ele><time>2026-05-01T03:01:34Z</time></trkpt><trkpt lat="45.430721275055845" lon="10.702306308877382"><ele>69.33333333333333</ele><time>2026-05-01T03:01:35Z</time></trkpt><trkpt lat="45.43078116153717" lon="10.702351527837985"><ele>70.0</ele><time>2026-05-01T03:01:36Z</time></trkpt><trkpt lat="45.430839141893316" lon="10.702401287891036"><ele>70.0</ele><time>2026-05-01T03:01:37Z</time></trkpt><trkpt lat="45.43089604582836" lon="10.702452818070748"><ele>70.0</ele><time>2026-05-01T03:01:38Z</time></trkpt><trkpt lat="45.430957657451614" lon="10.70252660654987"><ele>70.0</ele><time>2026-05-01T03:01:40Z</time></trkpt><trkpt lat="45.43100984932452" lon="10.702606124902301"><ele>70.0</ele><time>2026-05-01T03:01:44Z</time></trkpt><trkpt lat="45.43108084407197" lon="10.702691518777574"><ele>70.0</ele><time>2026-05-01T03:08:16Z</time></trkpt><trkpt lat="45.43114203158596" lon="10.702818600790161"><ele>70.0</ele><time>2026-05-01T03:08:18Z</time></trkpt><trkpt lat="45.43127656135116" lon="10.702852116690174"><ele>70.0</ele><time>2026-05-01T03:08:20Z</time></trkpt><trkpt lat="45.43134522841589" lon="10.702877584857319"><ele>70.0</ele><time>2026-05-01T03:08:21Z</time></trkpt><trkpt lat="45.431416297874904" lon="10.702899943528228"><ele>70.0</ele><time>2026-05-01T03:08:22Z</time></trkpt><trkpt lat="45.43147918197533" lon="10.702915294391946"><ele>70.0</ele><time>2026-05-01T03:08:23Z</time></trkpt><trkpt lat="45.43154331508401" lon="10.702936985512956"><ele>70.0</ele><time>2026-05-01T03:08:24Z</time></trkpt><trkpt lat="45.4316528357067" lon="10.703053797720102"><ele>70.0</ele><time>2026-05-01T03:08:26Z</time></trkpt><trkpt lat="45.43172236390838" lon="10.703130341395006"><ele>70.0</ele><time>2026-05-01T03:08:27Z</time></trkpt><trkpt lat="45.431783815960785" lon="10.70324752986494"><ele>70.0</ele><time>2026-05-01T03:08:28Z</time></trkpt><trkpt lat="45.43182820232833" lon="10.703380810290346"><ele>70.0</ele><time>2026-05-01T03:08:29Z</time></trkpt><trkpt lat="45.431885334867346" lon="10.703508107067618"><ele>70.0</ele><time>2026-05-01T03:08:30Z</time></trkpt><trkpt lat="45.43194146096428" lon="10.703636689286942"><ele>70.0</ele><time>2026-05-01T03:08:31Z</time></trkpt><trkpt lat="45.43200055412374" lon="10.703771581959868"><ele>70.0</ele><time>2026-05-01T03:08:32Z</time></trkpt><trkpt lat="45.43206093218034" lon="10.703908411163018"><ele>70.0</ele><time>2026-05-01T03:08:33Z</time></trkpt><trkpt lat="45.43212219599135" lon="10.704046399720127"><ele>70.0</ele><time>2026-05-01T03:08:34Z</time></trkpt><trkpt lat="45.43218423492843" lon="10.704186799193554"><ele>70.0</ele><time>2026-05-01T03:08:35Z</time></trkpt><trkpt lat="45.432245307384825" lon="10.704327792569513"><ele>69.8</ele><time>2026-05-01T03:08:36Z</time></trkpt><trkpt lat="45.432307112218986" lon="10.704464807313123"><ele>69.6</ele><time>2026-05-01T03:08:37Z</time></trkpt><trkpt lat="45.432368330892125" lon="10.704597339363659"><ele>69.4</ele><time>2026-05-01T03:08:38Z</time></trkpt><trkpt lat="45.43242953481616" lon="10.704728669906153"><ele>69.2</ele><time>2026-05-01T03:08:39Z</time></trkpt><trkpt lat="45.432487895937996" lon="10.704862320835922"><ele>69.0</ele><time>2026-05-01T03:08:40Z</time></trkpt><trkpt lat="45.4325410411523" lon="10.704993105879034"><ele>69.0</ele><time>2026-05-01T03:08:41Z</time></trkpt><trkpt lat="45.43258428743743" lon="10.705116363891605"><ele>69.0</ele><time>2026-05-01T03:08:42Z</time></trkpt><trkpt lat="45.43262003671693" lon="10.705239744686978"><ele>69.0</ele><time>2026-05-01T03:08:43Z</time></trkpt><trkpt lat="45.432639188973646" lon="10.705366628366138"><ele>69.0</ele><time>2026-05-01T03:08:44Z</time></trkpt><trkpt lat="45.432637866557606" lon="10.705492289134218"><ele>69.0</ele><time>2026-05-01T03:08:45Z</time></trkpt><trkpt lat="45.43261430249127" lon="10.70560474877939"><ele>69.16666666666667</ele><time>2026-05-01T03:08:46Z</time></trkpt><trkpt lat="45.432571630546114" lon="10.70570225886358"><ele>69.33333333333333</ele><time>2026-05-01T03:08:47Z</time></trkpt><trkpt lat="45.43251090193526" lon="10.70578083435261"><ele>69.5</ele><time>2026-05-01T03:08:48Z</time></trkpt><trkpt lat="45.432438022020726" lon="10.705835508853038"><ele>69.66666666666666</ele><time>2026-05-01T03:08:49Z</time></trkpt><trkpt lat="45.43236103022844" lon="10.705861821614448"><ele>69.83333333333333</ele><time>2026-05-01T03:08:50Z</time></trkpt><trkpt lat="45.4322813543481" lon="10.705853303612301"><ele>70.0</ele><time>2026-05-01T03:08:51Z</time></trkpt><trkpt lat="45.43220017120719" lon="10.705812226674908"><ele>69.8</ele><time>2026-05-01T03:08:52Z</time></trkpt><trkpt lat="45.432123814923166" lon="10.705753392323889"><ele>69.6</ele><time>2026-05-01T03:08:53Z</time></trkpt><trkpt lat="45.432039224044516" lon="10.705689183999409"><ele>69.4</ele><time>2026-05-01T03:08:54Z</time></trkpt><trkpt lat="45.43194566493411" lon="10.705636074034226"><ele>69.2</ele><time>2026-05-01T03:08:55Z</time></trkpt><trkpt lat="45.431849102384355" lon="10.705606396960558"><ele>69.0</ele><time>2026-05-01T03:08:56Z</time></trkpt><trkpt lat="45.43175043653977" lon="10.705598496201464"><ele>69.0</ele><time>2026-05-01T03:08:57Z</time></trkpt><trkpt lat="45.43165577778749" lon="10.705625689358724"><ele>69.0</ele><time>2026-05-01T03:08:58Z</time></trkpt><trkpt lat="45.431560426630675" lon="10.705687282050377"><ele>69.0</ele><time>2026-05-01T03:08:59Z</time></trkpt><trkpt lat="45.43147374634503" lon="10.705758873627456"><ele>69.0</ele><time>2026-05-01T03:09:00Z</time></trkpt><trkpt lat="45.43139707296869" lon="10.705852394353695"><ele>69.0</ele><time>2026-05-01T03:09:01Z</time></trkpt><trkpt lat="45.43133861230118" lon="10.705970006566687"><ele>70.0</ele><time>2026-05-01T03:09:02Z</time></trkpt><trkpt lat="45.43129276339413" lon="10.70610052892785"><ele>71.0</ele><time>2026-05-01T03:09:03Z</time></trkpt><trkpt lat="45.431256783223446" lon="10.706243286839712"><ele>72.0</ele><time>2026-05-01T03:09:04Z</time></trkpt><trkpt lat="45.4312284724759" lon="10.70639144179133"><ele>73.0</ele><time>2026-05-01T03:09:05Z</time></trkpt><trkpt lat="45.431212452922054" lon="10.706542458628105"><ele>74.0</ele><time>2026-05-01T03:09:06Z</time></trkpt><trkpt lat="45.43121589373983" lon="10.70669768644535"><ele>74.0</ele><time>2026-05-01T03:09:07Z</time></trkpt><trkpt lat="45.43123929648055" lon="10.706843958455785"><ele>74.0</ele><time>2026-05-01T03:09:08Z</time></trkpt><trkpt lat="45.43128559450805" lon="10.706977608067536"><ele>74.0</ele><time>2026-05-01T03:09:09Z</time></trkpt><trkpt lat="45.431354078260625" lon="10.70709382355451"><ele>74.0</ele><time>2026-05-01T03:09:10Z</time></trkpt><trkpt lat="45.431436825617126" lon="10.707188884005284"><ele>74.0</ele><time>2026-05-01T03:09:11Z</time></trkpt><trkpt lat="45.43153433974884" lon="10.707254358162634"><ele>74.0</ele><time>2026-05-01T03:09:12Z</time></trkpt><trkpt lat="45.431643741665944" lon="10.70729359140097"><ele>74.0</ele><time>2026-05-01T03:09:13Z</time></trkpt><trkpt lat="45.431759083702566" lon="10.70729408167155"><ele>74.0</ele><time>2026-05-01T03:09:14Z</time></trkpt><trkpt lat="45.43187616611301" lon="10.707261141048038"><ele>74.0</ele><time>2026-05-01T03:09:15Z</time></trkpt><trkpt lat="45.431976669763294" lon="10.707233568467235"><ele>74.0</ele><time>2026-05-01T03:09:16Z</time></trkpt><trkpt lat="45.43209129883178" lon="10.707196164737022"><ele>74.0</ele><time>2026-05-01T03:09:17Z</time></trkpt><trkpt lat="45.43221127615547" lon="10.707186997278864"><ele>74.0</ele><time>2026-05-01T03:09:18Z</time></trkpt><trkpt lat="45.4323346023613" lon="10.707213493357425"><ele>74.0</ele><time>2026-05-01T03:09:19Z</time></trkpt><trkpt lat="45.43245170506585" lon="10.707277160012163"><ele>72.75</ele><time>2026-05-01T03:09:20Z</time></trkpt><trkpt lat="45.432560421466356" lon="10.707372059207184"><ele>71.5</ele><time>2026-05-01T03:09:21Z</time></trkpt><trkpt lat="45.43266363995856" lon="10.707485730702622"><ele>70.25</ele><time>2026-05-01T03:09:22Z</time></trkpt><trkpt lat="45.43275949963044" lon="10.707604925043189"><ele>69.0</ele><time>2026-05-01T03:09:23.001Z</time></trkpt><trkpt lat="45.43285111745146" lon="10.70772248181013"><ele>69.5</ele><time>2026-05-01T03:09:24.001Z</time></trkpt><trkpt lat="45.432945103450656" lon="10.707836062992339"><ele>70.0</ele><time>2026-05-01T03:09:25.001Z</time></trkpt><trkpt lat="45.433034221868986" lon="10.70794179904932"><ele>70.5</ele><time>2026-05-01T03:09:26.001Z</time></trkpt><trkpt lat="45.433117350503466" lon="10.708043357505034"><ele>71.0</ele><time>2026-05-01T03:09:27.001Z</time></trkpt><trkpt lat="45.4332031129619" lon="10.708147145075127"><ele>71.0</ele><time>2026-05-01T03:09:28.001Z</time></trkpt><trkpt lat="45.43329191464732" lon="10.708250318242237"><ele>71.0</ele><time>2026-05-01T03:09:29.001Z</time></trkpt><trkpt lat="45.43338228070133" lon="10.708352823780492"><ele>71.0</ele><time>2026-05-01T03:09:30.001Z</time></trkpt><trkpt lat="45.433477202124905" lon="10.708452407711544"><ele>71.0</ele><time>2026-05-01T03:09:31.001Z</time></trkpt><trkpt lat="45.43357510922884" lon="10.708546272144579"><ele>70.75</ele><time>2026-05-01T03:09:32.001Z</time></trkpt><trkpt lat="45.43367178240979" lon="10.70863299013166"><ele>70.5</ele><time>2026-05-01T03:09:33.001Z</time></trkpt><trkpt lat="45.4337730666688" lon="10.708717417276016"><ele>70.25</ele><time>2026-05-01T03:09:34.001Z</time></trkpt><trkpt lat="45.43387577044579" lon="10.708801016503816"><ele>70.0</ele><time>2026-05-01T03:09:35.001Z</time></trkpt><trkpt lat="45.433970879366115" lon="10.708882953269708"><ele>70.4</ele><time>2026-05-01T03:09:36.001Z</time></trkpt><trkpt lat="45.43405092985458" lon="10.708959575452324"><ele>70.8</ele><time>2026-05-01T03:09:37.001Z</time></trkpt><trkpt lat="45.43411746943462" lon="10.709044398813841"><ele>71.2</ele><time>2026-05-01T03:09:38.001Z</time></trkpt><trkpt lat="45.43417733397371" lon="10.70913709708349"><ele>71.6</ele><time>2026-05-01T03:09:39.001Z</time></trkpt><trkpt lat="45.43424540948356" lon="10.709217808682546"><ele>72.0</ele><time>2026-05-01T03:09:40Z</time></trkpt><trkpt lat="45.43432542807944" lon="10.709279121810672"><ele>72.0</ele><time>2026-05-01T03:09:41Z</time></trkpt><trkpt lat="45.434419206375665" lon="10.709312198645108"><ele>72.0</ele><time>2026-05-01T03:09:42Z</time></trkpt><trkpt lat="45.434523623945715" lon="10.709332874961445"><ele>72.0</ele><time>2026-05-01T03:09:43Z</time></trkpt><trkpt lat="45.43462435593651" lon="10.709372474759785"><ele>72.0</ele><time>2026-05-01T03:09:44Z</time></trkpt><trkpt lat="45.43472850009453" lon="10.709425166841744"><ele>72.0</ele><time>2026-05-01T03:09:45Z</time></trkpt><trkpt lat="45.434837752518874" lon="10.709479003228468"><ele>72.5</ele><time>2026-05-01T03:09:46Z</time></trkpt><trkpt lat="45.43495128078021" lon="10.709527494330423"><ele>73.0</ele><time>2026-05-01T03:09:47Z</time></trkpt><trkpt lat="45.435065803961635" lon="10.709578315908066"><ele>73.5</ele><time>2026-05-01T03:09:48Z</time></trkpt><trkpt lat="45.43517755245232" lon="10.709633906594432"><ele>74.0</ele><time>2026-05-01T03:09:49Z</time></trkpt><trkpt lat="45.435288227642836" lon="10.709692702152196"><ele>74.0</ele><time>2026-05-01T03:09:50Z</time></trkpt><trkpt lat="45.43540203405268" lon="10.709754667935504"><ele>74.0</ele><time>2026-05-01T03:09:51Z</time></trkpt><trkpt lat="45.435513844176654" lon="10.70981388201402"><ele>74.0</ele><time>2026-05-01T03:09:52Z</time></trkpt><trkpt lat="45.4356257121637" lon="10.709874328927857"><ele>74.0</ele><time>2026-05-01T03:09:53Z</time></trkpt><trkpt lat="45.43573635079142" lon="10.709936064934302"><ele>73.75</ele><time>2026-05-01T03:09:54Z</time></trkpt><trkpt lat="45.435847234648996" lon="10.709996584240203"><ele>73.5</ele><time>2026-05-01T03:09:55Z</time></trkpt><trkpt lat="45.4359570686478" lon="10.71005708918495"><ele>73.25</ele><time>2026-05-01T03:09:56Z</time></trkpt><trkpt lat="45.4360688214338" lon="10.710116438216156"><ele>73.0</ele><time>2026-05-01T03:09:57Z</time></trkpt><trkpt lat="45.43617707293842" lon="10.710173937124356"><ele>73.0</ele><time>2026-05-01T03:09:58Z</time></trkpt><trkpt lat="45.43628566194399" lon="10.71023033066201"><ele>73.0</ele><time>2026-05-01T03:09:59Z</time></trkpt><trkpt lat="45.43639460365272" lon="10.710287544227743"><ele>73.0</ele><time>2026-05-01T03:10:00Z</time></trkpt><trkpt lat="45.436505872755845" lon="10.71034827123591"><ele>73.0</ele><time>2026-05-01T03:10:01Z</time></trkpt><trkpt lat="45.436615592854196" lon="10.710408148269062"><ele>73.25</ele><time>2026-05-01T03:10:02Z</time></trkpt><trkpt lat="45.43672657235175" lon="10.710468862161626"><ele>73.5</ele><time>2026-05-01T03:10:03Z</time></trkpt><trkpt lat="45.43683556034914" lon="10.710532320216943"><ele>73.75</ele><time>2026-05-01T03:10:04Z</time></trkpt><trkpt lat="45.43694382172675" lon="10.710604078381735"><ele>74.0</ele><time>2026-05-01T03:10:05Z</time></trkpt><trkpt lat="45.43705235103317" lon="10.71068362430211"><ele>74.0</ele><time>2026-05-01T03:10:06Z</time></trkpt><trkpt lat="45.43715892181301" lon="10.710764326670317"><ele>74.0</ele><time>2026-05-01T03:10:07Z</time></trkpt><trkpt lat="45.43726380411838" lon="10.71084664583134"><ele>74.0</ele><time>2026-05-01T03:10:08Z</time></trkpt><trkpt lat="45.43736665413178" lon="10.710932910036103"><ele>74.0</ele><time>2026-05-01T03:10:09Z</time></trkpt><trkpt lat="45.43746861490588" lon="10.711026057805924"><ele>73.5</ele><time>2026-05-01T03:10:10Z</time></trkpt><trkpt lat="45.43756828956625" lon="10.711123547626176"><ele>73.0</ele><time>2026-05-01T03:10:11Z</time></trkpt><trkpt lat="45.43766654792748" lon="10.711224310955261"><ele>72.5</ele><time>2026-05-01T03:10:12Z</time></trkpt><trkpt lat="45.43776081164612" lon="10.711331462605495"><ele>72.0</ele><time>2026-05-01T03:10:13Z</time></trkpt><trkpt lat="45.43785202080806" lon="10.711441194657079"><ele>72.0</ele><time>2026-05-01T03:10:14Z</time></trkpt><trkpt lat="45.4379386034186" lon="10.711555820643268"><ele>72.0</ele><time>2026-05-01T03:10:15Z</time></trkpt><trkpt lat="45.43801998716371" lon="10.711676160032884"><ele>72.0</ele><time>2026-05-01T03:10:16Z</time></trkpt><trkpt lat="45.438098950072316" lon="10.711804057731541"><ele>72.0</ele><time>2026-05-01T03:10:17Z</time></trkpt><trkpt lat="45.43817023179483" lon="10.711932971963545"><ele>73.4</ele><time>2026-05-01T03:10:18Z</time></trkpt><trkpt lat="45.4382337647565" lon="10.712064887271259"><ele>74.80000000000001</ele><time>2026-05-01T03:10:19Z</time></trkpt><trkpt lat="45.43828777207759" lon="10.71219799999099"><ele>76.2</ele><time>2026-05-01T03:10:20Z</time></trkpt><trkpt lat="45.43832790056872" lon="10.712332391155835"><ele>77.60000000000001</ele><time>2026-05-01T03:10:21Z</time></trkpt><trkpt lat="45.438353965476146" lon="10.712465401799983"><ele>79.0</ele><time>2026-05-01T03:10:22Z</time></trkpt><trkpt lat="45.43836812649146" lon="10.71259776225595"><ele>79.0</ele><time>2026-05-01T03:10:23Z</time></trkpt><trkpt lat="45.43838063224177" lon="10.712729413697005"><ele>79.0</ele><time>2026-05-01T03:10:24Z</time></trkpt><trkpt lat="45.43841420636442" lon="10.712856367646916"><ele>79.0</ele><time>2026-05-01T03:10:25Z</time></trkpt><trkpt lat="45.43846527383826" lon="10.712972147288005"><ele>79.0</ele><time>2026-05-01T03:10:26Z</time></trkpt><trkpt lat="45.43852220696628" lon="10.713089097155114"><ele>79.0</ele><time>2026-05-01T03:10:27Z</time></trkpt><trkpt lat="45.4385707934471" lon="10.713215801233721"><ele>80.2</ele><time>2026-05-01T03:10:28Z</time></trkpt><trkpt lat="45.438607942559806" lon="10.713354943524065"><ele>81.4</ele><time>2026-05-01T03:10:29Z</time></trkpt><trkpt lat="45.43863647638988" lon="10.713503990810828"><ele>82.6</ele><time>2026-05-01T03:10:30Z</time></trkpt><trkpt lat="45.4386573080333" lon="10.713657930440506"><ele>83.8</ele><time>2026-05-01T03:10:31Z</time></trkpt><trkpt lat="45.43867413798774" lon="10.713816700634737"><ele>85.0</ele><time>2026-05-01T03:10:32Z</time></trkpt><trkpt lat="45.43868654262266" lon="10.71397380490869"><ele>85.6</ele><time>2026-05-01T03:10:33Z</time></trkpt><trkpt lat="45.438695846164066" lon="10.71412670755431"><ele>86.2</ele><time>2026-05-01T03:10:34Z</time></trkpt><trkpt lat="45.43870095497714" lon="10.71428073858518"><ele>86.80000000000001</ele><time>2026-05-01T03:10:35Z</time></trkpt><trkpt lat="45.438699269299725" lon="10.714438873657157"><ele>87.4</ele><time>2026-05-01T03:10:36Z</time></trkpt><trkpt lat="45.43869265076824" lon="10.71460079610317"><ele>88.0</ele><time>2026-05-01T03:10:37Z</time></trkpt><trkpt lat="45.438683672602274" lon="10.714765466900229"><ele>88.75</ele><time>2026-05-01T03:10:38Z</time></trkpt><trkpt lat="45.43867253055636" lon="10.71493266559308"><ele>89.5</ele><time>2026-05-01T03:10:39Z</time></trkpt><trkpt lat="45.43866357088646" lon="10.715102094596208"><ele>90.25</ele><time>2026-05-01T03:10:40Z</time></trkpt><trkpt lat="45.43865016895863" lon="10.715271887314762"><ele>91.0</ele><time>2026-05-01T03:10:41Z</time></trkpt><trkpt lat="45.43864034398748" lon="10.715443064290932"><ele>91.0</ele><time>2026-05-01T03:10:42Z</time></trkpt><trkpt lat="45.4386306201817" lon="10.715615489132814"><ele>91.0</ele><time>2026-05-01T03:10:43Z</time></trkpt><trkpt lat="45.43861965090727" lon="10.715788829800212"><ele>91.0</ele><time>2026-05-01T03:10:44Z</time></trkpt><trkpt lat="45.43861014024983" lon="10.715961745649235"><ele>91.0</ele><time>2026-05-01T03:10:45Z</time></trkpt><trkpt lat="45.438600204856755" lon="10.716134359385686"><ele>90.75</ele><time>2026-05-01T03:10:46Z</time></trkpt><trkpt lat="45.438589389711304" lon="10.71630533772486"><ele>90.5</ele><time>2026-05-01T03:10:47Z</time></trkpt><trkpt lat="45.438577708332225" lon="10.716475271418618"><ele>90.25</ele><time>2026-05-01T03:10:48Z</time></trkpt><trkpt lat="45.43856536680034" lon="10.716643593587877"><ele>90.0</ele><time>2026-05-01T03:10:49Z</time></trkpt><trkpt lat="45.438554491306014" lon="10.716813387853998"><ele>89.75</ele><time>2026-05-01T03:10:50Z</time></trkpt><trkpt lat="45.438545189130224" lon="10.716982263935403"><ele>89.5</ele><time>2026-05-01T03:10:51Z</time></trkpt><trkpt lat="45.43853674592014" lon="10.717148000474815"><ele>89.25</ele><time>2026-05-01T03:10:52Z</time></trkpt><trkpt lat="45.43852939530578" lon="10.717314937764225"><ele>89.0</ele><time>2026-05-01T03:10:53Z</time></trkpt><trkpt lat="45.43852061497439" lon="10.717483002755012"><ele>89.0</ele><time>2026-05-01T03:10:54Z</time></trkpt><trkpt lat="45.438512209020544" lon="10.717650551058032"><ele>89.0</ele><time>2026-05-01T03:10:55Z</time></trkpt><trkpt lat="45.438502960100735" lon="10.717818807601752"><ele>89.0</ele><time>2026-05-01T03:10:56Z</time></trkpt><trkpt lat="45.43849525950734" lon="10.717985186260577"><ele>89.0</ele><time>2026-05-01T03:10:57Z</time></trkpt><trkpt lat="45.43848799775021" lon="10.71815049006706"><ele>88.75</ele><time>2026-05-01T03:10:58Z</time></trkpt><trkpt lat="45.43848119681485" lon="10.718317245030017"><ele>88.5</ele><time>2026-05-01T03:10:59Z</time></trkpt><trkpt lat="45.438474372236875" lon="10.718483329329024"><ele>88.25</ele><time>2026-05-01T03:11:00Z</time></trkpt><trkpt lat="45.438467943468794" lon="10.718651493319474"><ele>88.0</ele><time>2026-05-01T03:11:01Z</time></trkpt><trkpt lat="45.43846085255305" lon="10.718819581759684"><ele>88.25</ele><time>2026-05-01T03:11:02Z</time></trkpt><trkpt lat="45.438453554326" lon="10.718987823100393"><ele>88.5</ele><time>2026-05-01T03:11:03Z</time></trkpt><trkpt lat="45.438446330886364" lon="10.71915503874861"><ele>88.75</ele><time>2026-05-01T03:11:04Z</time></trkpt><trkpt lat="45.438437838889726" lon="10.719323245985665"><ele>89.0</ele><time>2026-05-01T03:11:05Z</time></trkpt><trkpt lat="45.438430052397834" lon="10.719492508526535"><ele>89.0</ele><time>2026-05-01T03:11:06Z</time></trkpt><trkpt lat="45.438422105546174" lon="10.719662616694139"><ele>89.0</ele><time>2026-05-01T03:11:07Z</time></trkpt><trkpt lat="45.438415001419756" lon="10.71983069541545"><ele>89.0</ele><time>2026-05-01T03:11:08Z</time></trkpt><trkpt lat="45.438407623227526" lon="10.719998540713876"><ele>89.0</ele><time>2026-05-01T03:11:09Z</time></trkpt><trkpt lat="45.43840165473365" lon="10.72016676296538"><ele>89.5</ele><time>2026-05-01T03:11:10Z</time></trkpt><trkpt lat="45.43839582701055" lon="10.720336104116939"><ele>90.0</ele><time>2026-05-01T03:11:11Z</time></trkpt><trkpt lat="45.438391154042336" lon="10.720503386076693"><ele>90.5</ele><time>2026-05-01T03:11:12Z</time></trkpt><trkpt lat="45.43838929164479" lon="10.720669749003228"><ele>91.0</ele><time>2026-05-01T03:11:13Z</time></trkpt><trkpt lat="45.43839110377355" lon="10.720834833990978"><ele>91.0</ele><time>2026-05-01T03:11:14Z</time></trkpt><trkpt lat="45.438396472234366" lon="10.721000284544386"><ele>91.0</ele><time>2026-05-01T03:11:15Z</time></trkpt><trkpt lat="45.43840433636519" lon="10.721162815487645"><ele>91.0</ele><time>2026-05-01T03:11:16Z</time></trkpt><trkpt lat="45.43841496854309" lon="10.721322269877495"><ele>91.0</ele><time>2026-05-01T03:11:17Z</time></trkpt><trkpt lat="45.438424038511464" lon="10.721481544058777"><ele>91.75</ele><time>2026-05-01T03:11:18Z</time></trkpt><trkpt lat="45.43843272518729" lon="10.721641057798758"><ele>92.5</ele><time>2026-05-01T03:11:19Z</time></trkpt><trkpt lat="45.43844025254265" lon="10.721803120271867"><ele>93.25</ele><time>2026-05-01T03:11:20Z</time></trkpt><trkpt lat="45.438447347375636" lon="10.72196409037198"><ele>94.0</ele><time>2026-05-01T03:11:21Z</time></trkpt><trkpt lat="45.43845331131625" lon="10.72212452493575"><ele>94.25</ele><time>2026-05-01T03:11:22Z</time></trkpt><trkpt lat="45.438459326042064" lon="10.722285604823698"><ele>94.5</ele><time>2026-05-01T03:11:23Z</time></trkpt><trkpt lat="45.438465409259294" lon="10.722444821497962"><ele>94.75</ele><time>2026-05-01T03:11:24Z</time></trkpt><trkpt lat="45.43846974108929" lon="10.722605206499042"><ele>95.0</ele><time>2026-05-01T03:11:25Z</time></trkpt><trkpt lat="45.43847268192317" lon="10.722769215912844"><ele>96.0</ele><time>2026-05-01T03:11:26Z</time></trkpt><trkpt lat="45.438472369825" lon="10.722935693166097"><ele>97.0</ele><time>2026-05-01T03:11:27Z</time></trkpt><trkpt lat="45.438468765224606" lon="10.723102956899044"><ele>98.0</ele><time>2026-05-01T03:11:28Z</time></trkpt><trkpt lat="45.43846137457659" lon="10.723271693924392"><ele>99.0</ele><time>2026-05-01T03:11:29Z</time></trkpt><trkpt lat="45.43845011569263" lon="10.723443126458193"><ele>98.5</ele><time>2026-05-01T03:11:30Z</time></trkpt><trkpt lat="45.43843418154441" lon="10.723614347247269"><ele>98.0</ele><time>2026-05-01T03:11:31Z</time></trkpt><trkpt lat="45.43841576530872" lon="10.723785494714148"><ele>97.5</ele><time>2026-05-01T03:11:32Z</time></trkpt><trkpt lat="45.43839478109099" lon="10.723954733905797"><ele>97.0</ele><time>2026-05-01T03:11:33Z</time></trkpt><trkpt lat="45.43837201164573" lon="10.724123909079506"><ele>97.0</ele><time>2026-05-01T03:11:34Z</time></trkpt><trkpt lat="45.43834743068263" lon="10.724291874724234"><ele>97.0</ele><time>2026-05-01T03:11:35Z</time></trkpt><trkpt lat="45.438321532573895" lon="10.724456236251369"><ele>97.0</ele><time>2026-05-01T03:11:36Z</time></trkpt><trkpt lat="45.438295472144894" lon="10.724620805365449"><ele>97.0</ele><time>2026-05-01T03:11:37Z</time></trkpt><trkpt lat="45.438269608139734" lon="10.72478634592788"><ele>96.5</ele><time>2026-05-01T03:11:38Z</time></trkpt><trkpt lat="45.43824342016864" lon="10.7249493394643"><ele>96.0</ele><time>2026-05-01T03:11:39Z</time></trkpt><trkpt lat="45.438218972482154" lon="10.725110883338862"><ele>95.5</ele><time>2026-05-01T03:11:40Z</time></trkpt><trkpt lat="45.4381950612379" lon="10.725274505270509"><ele>95.0</ele><time>2026-05-01T03:11:41Z</time></trkpt><trkpt lat="45.43817072861878" lon="10.725438478576688"><ele>94.5</ele><time>2026-05-01T03:11:42Z</time></trkpt><trkpt lat="45.43814259686042" lon="10.725602216374527"><ele>94.0</ele><time>2026-05-01T03:11:43Z</time></trkpt><trkpt lat="45.438111365938234" lon="10.725764334573327"><ele>93.5</ele><time>2026-05-01T03:11:44Z</time></trkpt><trkpt lat="45.43808138551141" lon="10.725927754358132"><ele>93.0</ele><time>2026-05-01T03:11:45.001Z</time></trkpt><trkpt lat="45.43805207544805" lon="10.726088951627885"><ele>92.5</ele><time>2026-05-01T03:11:46Z</time></trkpt><trkpt lat="45.43802412320598" lon="10.726248238164938"><ele>92.0</ele><time>2026-05-01T03:11:47Z</time></trkpt><trkpt lat="45.43799752350073" lon="10.726406909596836"><ele>91.5</ele><time>2026-05-01T03:11:48Z</time></trkpt><trkpt lat="45.437970651390934" lon="10.726563513005862"><ele>91.0</ele><time>2026-05-01T03:11:49Z</time></trkpt><trkpt lat="45.437945723438446" lon="10.726718731972715"><ele>93.0</ele><time>2026-05-01T03:11:50Z</time></trkpt><trkpt lat="45.437921022363156" lon="10.726871836839006"><ele>95.0</ele><time>2026-05-01T03:11:51Z</time></trkpt><trkpt lat="45.43789453209797" lon="10.727028068771668"><ele>97.0</ele><time>2026-05-01T03:11:52Z</time></trkpt><trkpt lat="45.43786840102079" lon="10.72718423389121"><ele>99.0</ele><time>2026-05-01T03:11:53Z</time></trkpt><trkpt lat="45.43784282377009" lon="10.727341579056695"><ele>101.0</ele><time>2026-05-01T03:11:54Z</time></trkpt><trkpt lat="45.43781693171472" lon="10.727498308369116"><ele>101.0</ele><time>2026-05-01T03:11:55Z</time></trkpt><trkpt lat="45.43779094087392" lon="10.727657318597775"><ele>101.0</ele><time>2026-05-01T03:11:56Z</time></trkpt><trkpt lat="45.4377663665741" lon="10.727820090597525"><ele>101.0</ele><time>2026-05-01T03:11:57Z</time></trkpt><trkpt lat="45.437743583559985" lon="10.727980997100996"><ele>101.0</ele><time>2026-05-01T03:11:58Z</time></trkpt><trkpt lat="45.43772215880464" lon="10.728143099862368"><ele>101.0</ele><time>2026-05-01T03:11:59Z</time></trkpt><trkpt lat="45.437702059164316" lon="10.72830255532826"><ele>101.0</ele><time>2026-05-01T03:12:00Z</time></trkpt><trkpt lat="45.43768273105057" lon="10.728463204139636"><ele>101.0</ele><time>2026-05-01T03:12:01Z</time></trkpt><trkpt lat="45.437663581326625" lon="10.728621721260998"><ele>101.0</ele><time>2026-05-01T03:12:02Z</time></trkpt><trkpt lat="45.437645854585455" lon="10.72878263616866"><ele>101.0</ele><time>2026-05-01T03:12:03Z</time></trkpt><trkpt lat="45.4376297646412" lon="10.728946117104448"><ele>101.0</ele><time>2026-05-01T03:12:04Z</time></trkpt><trkpt lat="45.43761431070681" lon="10.729109624614345"><ele>101.0</ele><time>2026-05-01T03:12:05Z</time></trkpt><trkpt lat="45.43760022500777" lon="10.729273801105288"><ele>101.0</ele><time>2026-05-01T03:12:06Z</time></trkpt><trkpt lat="45.437587118140485" lon="10.729440769851951"><ele>100.75</ele><time>2026-05-01T03:12:07Z</time></trkpt><trkpt lat="45.43757597374688" lon="10.729609344855497"><ele>100.5</ele><time>2026-05-01T03:12:08Z</time></trkpt><trkpt lat="45.43756621729707" lon="10.729780153993765"><ele>100.25</ele><time>2026-05-01T03:12:09Z</time></trkpt><trkpt lat="45.437558335602986" lon="10.729950834507749"><ele>100.0</ele><time>2026-05-01T03:12:10Z</time></trkpt><trkpt lat="45.43755316453496" lon="10.730120204458917"><ele>99.5</ele><time>2026-05-01T03:12:11Z</time></trkpt><trkpt lat="45.43755295935046" lon="10.730292871474894"><ele>99.0</ele><time>2026-05-01T03:12:12Z</time></trkpt><trkpt lat="45.43755393940567" lon="10.730467520992642"><ele>98.5</ele><time>2026-05-01T03:12:13Z</time></trkpt><trkpt lat="45.43755425226676" lon="10.73064028947494"><ele>98.0</ele><time>2026-05-01T03:12:14Z</time></trkpt><trkpt lat="45.43755553619011" lon="10.73080888259061"><ele>98.0</ele><time>2026-05-01T03:12:15Z</time></trkpt><trkpt lat="45.43755706882013" lon="10.730975445177211"><ele>98.0</ele><time>2026-05-01T03:12:16Z</time></trkpt><trkpt lat="45.43756120359095" lon="10.731141421482036"><ele>98.0</ele><time>2026-05-01T03:12:17Z</time></trkpt><trkpt lat="45.437562905603464" lon="10.731307712327515"><ele>98.0</ele><time>2026-05-01T03:12:18Z</time></trkpt><trkpt lat="45.43756522834604" lon="10.731475917165417"><ele>97.0</ele><time>2026-05-01T03:12:19Z</time></trkpt><trkpt lat="45.437567090156186" lon="10.731644229275584"><ele>96.0</ele><time>2026-05-01T03:12:20Z</time></trkpt><trkpt lat="45.43756983450295" lon="10.731816405292602"><ele>95.0</ele><time>2026-05-01T03:12:21Z</time></trkpt><trkpt lat="45.437570227023976" lon="10.731986787232174"><ele>94.0</ele><time>2026-05-01T03:12:22Z</time></trkpt><trkpt lat="45.437571342711614" lon="10.732159501483606"><ele>93.25</ele><time>2026-05-01T03:12:23Z</time></trkpt><trkpt lat="45.437573397103975" lon="10.732332374375124"><ele>92.5</ele><time>2026-05-01T03:12:24Z</time></trkpt><trkpt lat="45.43757593285892" lon="10.732507110021096"><ele>91.75</ele><time>2026-05-01T03:12:25Z</time></trkpt><trkpt lat="45.437577118537945" lon="10.732682418590345"><ele>91.0</ele><time>2026-05-01T03:12:26Z</time></trkpt><trkpt lat="45.4375766551648" lon="10.732858068512758"><ele>91.0</ele><time>2026-05-01T03:12:27Z</time></trkpt><trkpt lat="45.437575912454044" lon="10.73303384795363"><ele>91.0</ele><time>2026-05-01T03:12:28Z</time></trkpt><trkpt lat="45.437575459204915" lon="10.733205938565115"><ele>91.0</ele><time>2026-05-01T03:12:29Z</time></trkpt><trkpt lat="45.43757686673576" lon="10.733380189965576"><ele>91.0</ele><time>2026-05-01T03:12:30Z</time></trkpt><trkpt lat="45.43757906865062" lon="10.733553073481668"><ele>91.75</ele><time>2026-05-01T03:12:31Z</time></trkpt><trkpt lat="45.4375791418809" lon="10.733726522889746"><ele>92.5</ele><time>2026-05-01T03:12:32Z</time></trkpt><trkpt lat="45.437580666595416" lon="10.733900355098069"><ele>93.25</ele><time>2026-05-01T03:12:33Z</time></trkpt><trkpt lat="45.437584727707275" lon="10.734078648703894"><ele>94.0</ele><time>2026-05-01T03:12:34Z</time></trkpt><trkpt lat="45.437584977620276" lon="10.734261425194559"><ele>94.25</ele><time>2026-05-01T03:12:35Z</time></trkpt><trkpt lat="45.43758777194426" lon="10.734447720788973"><ele>94.5</ele><time>2026-05-01T03:12:36Z</time></trkpt><trkpt lat="45.43758534694731" lon="10.734636213018995"><ele>94.75</ele><time>2026-05-01T03:12:37Z</time></trkpt><trkpt lat="45.437585741055045" lon="10.7348301669677"><ele>95.0</ele><time>2026-05-01T03:12:38Z</time></trkpt><trkpt lat="45.43758596381645" lon="10.735029521239346"><ele>95.75</ele><time>2026-05-01T03:12:39Z</time></trkpt><trkpt lat="45.43758774201189" lon="10.735234510253653"><ele>96.5</ele><time>2026-05-01T03:12:40Z</time></trkpt><trkpt lat="45.437591095255016" lon="10.735437406120028"><ele>97.25</ele><time>2026-05-01T03:12:41Z</time></trkpt><trkpt lat="45.43759270601474" lon="10.735641722862667"><ele>98.0</ele><time>2026-05-01T03:12:42Z</time></trkpt><trkpt lat="45.437595645090575" lon="10.735840763812485"><ele>98.0</ele><time>2026-05-01T03:12:43Z</time></trkpt><trkpt lat="45.437598010925996" lon="10.736048380220625"><ele>98.0</ele><time>2026-05-01T03:12:44Z</time></trkpt><trkpt lat="45.43759915484338" lon="10.736256814460074"><ele>98.0</ele><time>2026-05-01T03:12:45Z</time></trkpt><trkpt lat="45.437599661313016" lon="10.736463073448467"><ele>98.0</ele><time>2026-05-01T03:12:46Z</time></trkpt><trkpt lat="45.43760140046411" lon="10.736664095167693"><ele>98.0</ele><time>2026-05-01T03:12:47Z</time></trkpt><trkpt lat="45.43760822081082" lon="10.736859014046273"><ele>98.0</ele><time>2026-05-01T03:12:48Z</time></trkpt><trkpt lat="45.437613514284635" lon="10.737054646630051"><ele>98.0</ele><time>2026-05-01T03:12:49Z</time></trkpt><trkpt lat="45.437617890287854" lon="10.737251675795727"><ele>98.0</ele><time>2026-05-01T03:12:50Z</time></trkpt><trkpt lat="45.43762229840202" lon="10.737444812016268"><ele>98.25</ele><time>2026-05-01T03:12:51Z</time></trkpt><trkpt lat="45.437627529672866" lon="10.737636674788451"><ele>98.5</ele><time>2026-05-01T03:12:52Z</time></trkpt><trkpt lat="45.43763406171246" lon="10.737825223743318"><ele>98.75</ele><time>2026-05-01T03:12:53Z</time></trkpt><trkpt lat="45.437641673429866" lon="10.738010480833358"><ele>99.0</ele><time>2026-05-01T03:12:54Z</time></trkpt><trkpt lat="45.4376473378669" lon="10.73819624156779"><ele>99.5</ele><time>2026-05-01T03:12:55Z</time></trkpt><trkpt lat="45.437653173405415" lon="10.738381415533155"><ele>100.0</ele><time>2026-05-01T03:12:56Z</time></trkpt><trkpt lat="45.43766057543864" lon="10.738566061293877"><ele>100.5</ele><time>2026-05-01T03:12:57Z</time></trkpt><trkpt lat="45.437669808509355" lon="10.738748933600291"><ele>101.0</ele><time>2026-05-01T03:12:58Z</time></trkpt><trkpt lat="45.437678475625354" lon="10.738933389834344"><ele>101.0</ele><time>2026-05-01T03:12:59Z</time></trkpt><trkpt lat="45.437686365303016" lon="10.739113775414127"><ele>101.0</ele><time>2026-05-01T03:13:00Z</time></trkpt><trkpt lat="45.43769543203582" lon="10.739297421924752"><ele>101.0</ele><time>2026-05-01T03:13:01Z</time></trkpt><trkpt lat="45.43770234797747" lon="10.739478830706702"><ele>101.0</ele><time>2026-05-01T03:13:02Z</time></trkpt><trkpt lat="45.437710752057455" lon="10.739661887271"><ele>100.75</ele><time>2026-05-01T03:13:03Z</time></trkpt><trkpt lat="45.43772000067168" lon="10.739846647998489"><ele>100.5</ele><time>2026-05-01T03:13:04Z</time></trkpt><trkpt lat="45.43772973857605" lon="10.740034808552059"><ele>100.25</ele><time>2026-05-01T03:13:05Z</time></trkpt><trkpt lat="45.43773864498278" lon="10.740223030597798"><ele>100.0</ele><time>2026-05-01T03:13:06Z</time></trkpt><trkpt lat="45.43774744831641" lon="10.740405905079482"><ele>100.0</ele><time>2026-05-01T03:13:07Z</time></trkpt><trkpt lat="45.43775488235849" lon="10.74058888878277"><ele>100.0</ele><time>2026-05-01T03:13:08Z</time></trkpt><trkpt lat="45.4377622264193" lon="10.74076882767885"><ele>100.0</ele><time>2026-05-01T03:13:09Z</time></trkpt><trkpt lat="45.437769506046955" lon="10.74094249487025"><ele>100.0</ele><time>2026-05-01T03:13:10Z</time></trkpt><trkpt lat="45.437775817493225" lon="10.741109904970699"><ele>100.0</ele><time>2026-05-01T03:13:11Z</time></trkpt><trkpt lat="45.43778197194421" lon="10.741283448882932"><ele>100.0</ele><time>2026-05-01T03:13:12Z</time></trkpt><trkpt lat="45.4377815763258" lon="10.741455092934357"><ele>100.0</ele><time>2026-05-01T03:13:13Z</time></trkpt><trkpt lat="45.43777341033877" lon="10.74162464569551"><ele>100.0</ele><time>2026-05-01T03:13:14Z</time></trkpt><trkpt lat="45.43774989536394" lon="10.741778463252352"><ele>100.0</ele><time>2026-05-01T03:13:15Z</time></trkpt><trkpt lat="45.43770745849067" lon="10.741905149125595"><ele>100.0</ele><time>2026-05-01T03:13:16Z</time></trkpt><trkpt lat="45.43764973874364" lon="10.742022154335368"><ele>100.0</ele><time>2026-05-01T03:13:17Z</time></trkpt><trkpt lat="45.43758405831015" lon="10.742136593018266"><ele>100.0</ele><time>2026-05-01T03:13:18Z</time></trkpt><trkpt lat="45.43752074155942" lon="10.742255868975388"><ele>100.0</ele><time>2026-05-01T03:13:19Z</time></trkpt><trkpt lat="45.43746715468561" lon="10.742378576189198"><ele>100.0</ele><time>2026-05-01T03:13:20Z</time></trkpt><trkpt lat="45.43742619224583" lon="10.742506215167387"><ele>100.0</ele><time>2026-05-01T03:13:21Z</time></trkpt><trkpt lat="45.43740454449003" lon="10.742640065293418"><ele>100.0</ele><time>2026-05-01T03:13:22Z</time></trkpt><trkpt lat="45.43740534661201" lon="10.742776257941706"><ele>100.0</ele><time>2026-05-01T03:13:23Z</time></trkpt><trkpt lat="45.43743107934964" lon="10.742917247276289"><ele>100.0</ele><time>2026-05-01T03:13:24Z</time></trkpt><trkpt lat="45.437476213882356" lon="10.743039337382125"><ele>100.4</ele><time>2026-05-01T03:13:25Z</time></trkpt><trkpt lat="45.43754119257643" lon="10.743145650873313"><ele>100.8</ele><time>2026-05-01T03:13:26Z</time></trkpt><trkpt lat="45.43762396504617" lon="10.743231029583848"><ele>101.19999999999999</ele><time>2026-05-01T03:13:27Z</time></trkpt><trkpt lat="45.43771605708195" lon="10.743293486963594"><ele>101.6</ele><time>2026-05-01T03:13:28Z</time></trkpt><trkpt lat="45.43781203181965" lon="10.743331373794803"><ele>102.0</ele><time>2026-05-01T03:13:29Z</time></trkpt><trkpt lat="45.43791254735734" lon="10.743340791201208"><ele>102.5</ele><time>2026-05-01T03:13:30Z</time></trkpt><trkpt lat="45.43802041479835" lon="10.743328118920275"><ele>103.0</ele><time>2026-05-01T03:13:31Z</time></trkpt><trkpt lat="45.43813396766794" lon="10.74331634210969"><ele>103.5</ele><time>2026-05-01T03:13:32Z</time></trkpt><trkpt lat="45.43825088585641" lon="10.743316618206137"><ele>104.0</ele><time>2026-05-01T03:13:33Z</time></trkpt><trkpt lat="45.43837380619002" lon="10.743338690255742"><ele>104.0</ele><time>2026-05-01T03:13:34Z</time></trkpt><trkpt lat="45.43849820499856" lon="10.743379349326757"><ele>104.0</ele><time>2026-05-01T03:13:35Z</time></trkpt><trkpt lat="45.438630802796226" lon="10.74342873593996"><ele>104.0</ele><time>2026-05-01T03:13:36Z</time></trkpt><trkpt lat="45.43876710022565" lon="10.743484222364053"><ele>104.0</ele><time>2026-05-01T03:13:37Z</time></trkpt><trkpt lat="45.4389018941492" lon="10.743539360091146"><ele>103.75</ele><time>2026-05-01T03:13:38Z</time></trkpt><trkpt lat="45.43903505724553" lon="10.743594253989052"><ele>103.5</ele><time>2026-05-01T03:13:39Z</time></trkpt><trkpt lat="45.43916728443883" lon="10.743647484923384"><ele>103.25</ele><time>2026-05-01T03:13:40Z</time></trkpt><trkpt lat="45.439298883093066" lon="10.743696826465778"><ele>103.0</ele><time>2026-05-01T03:13:41Z</time></trkpt><trkpt lat="45.439431232949964" lon="10.743745062535465"><ele>103.0</ele><time>2026-05-01T03:13:42Z</time></trkpt><trkpt lat="45.439566030016664" lon="10.743794364478893"><ele>103.0</ele><time>2026-05-01T03:13:43Z</time></trkpt><trkpt lat="45.43970126282498" lon="10.743845408164965"><ele>103.0</ele><time>2026-05-01T03:13:44Z</time></trkpt><trkpt lat="45.43984045818273" lon="10.743897951394853"><ele>103.0</ele><time>2026-05-01T03:13:45Z</time></trkpt><trkpt lat="45.43998238550314" lon="10.743951327947244"><ele>102.66666666666667</ele><time>2026-05-01T03:13:46Z</time></trkpt><trkpt lat="45.4401277260089" lon="10.744005043786306"><ele>102.33333333333334</ele><time>2026-05-01T03:13:47Z</time></trkpt><trkpt lat="45.440279937628546" lon="10.744060725436155"><ele>102.0</ele><time>2026-05-01T03:13:48Z</time></trkpt><trkpt lat="45.44043952046662" lon="10.744120532124226"><ele>103.0</ele><time>2026-05-01T03:13:49Z</time></trkpt><trkpt lat="45.44060639433887" lon="10.744185117171167"><ele>104.0</ele><time>2026-05-01T03:13:50Z</time></trkpt><trkpt lat="45.440768384492806" lon="10.744251455990293"><ele>105.0</ele><time>2026-05-01T03:13:51Z</time></trkpt><trkpt lat="45.440934953951974" lon="10.744324093764964"><ele>105.33333333333334</ele><time>2026-05-01T03:13:52Z</time></trkpt><trkpt lat="45.44110924829995" lon="10.744399812559285"><ele>105.66666666666667</ele><time>2026-05-01T03:13:53Z</time></trkpt><trkpt lat="45.44128623807497" lon="10.744481892885046"><ele>106.0</ele><time>2026-05-01T03:13:54Z</time></trkpt><trkpt lat="45.441469579075076" lon="10.744568721255327"><ele>106.0</ele><time>2026-05-01T03:13:55Z</time></trkpt><trkpt lat="45.44165932719294" lon="10.744659436042125"><ele>106.0</ele><time>2026-05-01T03:13:56Z</time></trkpt><trkpt lat="45.44185411408448" lon="10.744751515404797"><ele>106.0</ele><time>2026-05-01T03:13:57Z</time></trkpt><trkpt lat="45.44205678869693" lon="10.744850804419498"><ele>105.5</ele><time>2026-05-01T03:13:58Z</time></trkpt><trkpt lat="45.44226910303691" lon="10.744954284162015"><ele>105.0</ele><time>2026-05-01T03:13:59Z</time></trkpt><trkpt lat="45.442486566009386" lon="10.745062896536085"><ele>105.0</ele><time>2026-05-01T03:14:00Z</time></trkpt><trkpt lat="45.442702959907905" lon="10.745171103509472"><ele>105.0</ele><time>2026-05-01T03:14:01Z</time></trkpt><trkpt lat="45.4429192525732" lon="10.745279729550724"><ele>106.0</ele><time>2026-05-01T03:14:02Z</time></trkpt><trkpt lat="45.44314305757036" lon="10.745391611694636"><ele>107.0</ele><time>2026-05-01T03:14:03Z</time></trkpt><trkpt lat="45.44337232291474" lon="10.745508159729182"><ele>107.0</ele><time>2026-05-01T03:14:04Z</time></trkpt><trkpt lat="45.44360667860243" lon="10.745627231855384"><ele>107.0</ele><time>2026-05-01T03:14:05Z</time></trkpt><trkpt lat="45.44384873730464" lon="10.745748787090289"><ele>106.5</ele><time>2026-05-01T03:14:06Z</time></trkpt><trkpt lat="45.44408667116499" lon="10.7458641715109"><ele>106.0</ele><time>2026-05-01T03:14:07Z</time></trkpt><trkpt lat="45.44431965396033" lon="10.745973199205123"><ele>106.0</ele><time>2026-05-01T03:14:08Z</time></trkpt><trkpt lat="45.44455565627679" lon="10.7460854168345"><ele>106.0</ele><time>2026-05-01T03:14:09Z</time></trkpt><trkpt lat="45.444795764909365" lon="10.746200891900514"><ele>106.0</ele><time>2026-05-01T03:14:10Z</time></trkpt><trkpt lat="45.44503844084236" lon="10.746318840111863"><ele>106.0</ele><time>2026-05-01T03:14:11Z</time></trkpt><trkpt lat="45.44527965319775" lon="10.746435423788872"><ele>106.0</ele><time>2026-05-01T03:14:12Z</time></trkpt><trkpt lat="45.44552372035138" lon="10.746550902073558"><ele>106.0</ele><time>2026-05-01T03:14:13Z</time></trkpt><trkpt lat="45.44576441279659" lon="10.746666676137004"><ele>106.0</ele><time>2026-05-01T03:14:14Z</time></trkpt><trkpt lat="45.4460033397275" lon="10.746784144962445"><ele>106.0</ele><time>2026-05-01T03:14:15Z</time></trkpt><trkpt lat="45.44623977115944" lon="10.746900531605554"><ele>104.5</ele><time>2026-05-01T03:14:16Z</time></trkpt><trkpt lat="45.44647746674122" lon="10.747014720312793"><ele>103.0</ele><time>2026-05-01T03:14:17Z</time></trkpt><trkpt lat="45.44671652080716" lon="10.747130408164715"><ele>103.0</ele><time>2026-05-01T03:14:18Z</time></trkpt><trkpt lat="45.44695514214075" lon="10.747247727383442"><ele>103.0</ele><time>2026-05-01T03:14:19Z</time></trkpt><trkpt lat="45.447191849506034" lon="10.747365327433096"><ele>103.5</ele><time>2026-05-01T03:14:20Z</time></trkpt><trkpt lat="45.44742877145544" lon="10.747484434309468"><ele>104.0</ele><time>2026-05-01T03:14:21Z</time></trkpt><trkpt lat="45.44766702525738" lon="10.747600304206093"><ele>103.5</ele><time>2026-05-01T03:14:22Z</time></trkpt><trkpt lat="45.44790575681784" lon="10.74771570454004"><ele>103.0</ele><time>2026-05-01T03:14:23Z</time></trkpt><trkpt lat="45.44814697506349" lon="10.747833826336175"><ele>102.5</ele><time>2026-05-01T03:14:24Z</time></trkpt><trkpt lat="45.44838944865517" lon="10.747952660195294"><ele>102.0</ele><time>2026-05-01T03:14:25Z</time></trkpt><trkpt lat="45.44863306738652" lon="10.74806850256685"><ele>102.0</ele><time>2026-05-01T03:14:26Z</time></trkpt><trkpt lat="45.4488769650492" lon="10.74818073874745"><ele>102.0</ele><time>2026-05-01T03:14:27Z</time></trkpt><trkpt lat="45.44911958141118" lon="10.74828521433161"><ele>102.0</ele><time>2026-05-01T03:14:28Z</time></trkpt><trkpt lat="45.449363438920145" lon="10.748394206632085"><ele>102.0</ele><time>2026-05-01T03:14:29Z</time></trkpt><trkpt lat="45.44960409585405" lon="10.74850688368518"><ele>102.5</ele><time>2026-05-01T03:14:30Z</time></trkpt><trkpt lat="45.44984378945501" lon="10.748622335566568"><ele>103.0</ele><time>2026-05-01T03:14:31Z</time></trkpt><trkpt lat="45.45008083816123" lon="10.748737537335415"><ele>103.0</ele><time>2026-05-01T03:14:32Z</time></trkpt><trkpt lat="45.45031637751996" lon="10.748851372305896"><ele>103.0</ele><time>2026-05-01T03:14:33Z</time></trkpt><trkpt lat="45.45055238244686" lon="10.74896631007219"><ele>103.0</ele><time>2026-05-01T03:14:34Z</time></trkpt><trkpt lat="45.450783831593206" lon="10.749081510889429"><ele>103.0</ele><time>2026-05-01T03:14:35Z</time></trkpt><trkpt lat="45.45101649265675" lon="10.749200857177506"><ele>103.0</ele><time>2026-05-01T03:14:36Z</time></trkpt><trkpt lat="45.45124534777168" lon="10.749326558948207"><ele>103.0</ele><time>2026-05-01T03:14:37Z</time></trkpt><trkpt lat="45.45147233493341" lon="10.749457350218778"><ele>103.0</ele><time>2026-05-01T03:14:38Z</time></trkpt><trkpt lat="45.451702880620324" lon="10.749583213783307"><ele>103.0</ele><time>2026-05-01T03:14:39Z</time></trkpt><trkpt lat="45.451935277547236" lon="10.749710651274482"><ele>102.5</ele><time>2026-05-01T03:14:40Z</time></trkpt><trkpt lat="45.452167043390645" lon="10.74983976045637"><ele>102.0</ele><time>2026-05-01T03:14:41Z</time></trkpt><trkpt lat="45.45239917007381" lon="10.749972434018014"><ele>102.0</ele><time>2026-05-01T03:14:42Z</time></trkpt><trkpt lat="45.452633112117994" lon="10.75010701791066"><ele>102.0</ele><time>2026-05-01T03:14:43Z</time></trkpt><trkpt lat="45.45286228494521" lon="10.750251140804934"><ele>102.0</ele><time>2026-05-01T03:14:44Z</time></trkpt><trkpt lat="45.45309249833708" lon="10.750399120011808"><ele>102.0</ele><time>2026-05-01T03:14:45Z</time></trkpt><trkpt lat="45.45331943403584" lon="10.750550606768487"><ele>102.0</ele><time>2026-05-01T03:14:46Z</time></trkpt><trkpt lat="45.45354113768295" lon="10.750710067304327"><ele>102.0</ele><time>2026-05-01T03:14:47Z</time></trkpt><trkpt lat="45.45376270170643" lon="10.750878035081607"><ele>102.0</ele><time>2026-05-01T03:14:48Z</time></trkpt><trkpt lat="45.45398075336738" lon="10.751051210372806"><ele>102.0</ele><time>2026-05-01T03:14:49Z</time></trkpt><trkpt lat="45.45419591921175" lon="10.751225376060534"><ele>102.0</ele><time>2026-05-01T03:14:50Z</time></trkpt><trkpt lat="45.45441045820566" lon="10.751404111949677"><ele>102.0</ele><time>2026-05-01T03:14:51Z</time></trkpt><trkpt lat="45.45462633699247" lon="10.751572662776011"><ele>102.5</ele><time>2026-05-01T03:14:52Z</time></trkpt><trkpt lat="45.454841782346584" lon="10.751737345848783"><ele>103.0</ele><time>2026-05-01T03:14:53Z</time></trkpt><trkpt lat="45.45505598465884" lon="10.7519033916138"><ele>103.5</ele><time>2026-05-01T03:14:54Z</time></trkpt><trkpt lat="45.455266497957425" lon="10.752070103479772"><ele>104.0</ele><time>2026-05-01T03:14:55Z</time></trkpt><trkpt lat="45.45547623560824" lon="10.752237793048762"><ele>104.5</ele><time>2026-05-01T03:14:56Z</time></trkpt><trkpt lat="45.455686468084245" lon="10.752405900438625"><ele>105.0</ele><time>2026-05-01T03:14:57Z</time></trkpt><trkpt lat="45.45589471515462" lon="10.752573629648303"><ele>105.0</ele><time>2026-05-01T03:14:58Z</time></trkpt><trkpt lat="45.45610424360894" lon="10.752740720392586"><ele>105.0</ele><time>2026-05-01T03:14:59Z</time></trkpt><trkpt lat="45.45631517250527" lon="10.752908406336875"><ele>104.5</ele><time>2026-05-01T03:15:00Z</time></trkpt><trkpt lat="45.45652821745002" lon="10.753077812585584"><ele>104.0</ele><time>2026-05-01T03:15:01Z</time></trkpt><trkpt lat="45.45674116176932" lon="10.753245793998264"><ele>104.0</ele><time>2026-05-01T03:15:02Z</time></trkpt><trkpt lat="45.456953162041756" lon="10.753415607466842"><ele>104.0</ele><time>2026-05-01T03:15:03Z</time></trkpt><trkpt lat="45.45716731731341" lon="10.753586402780051"><ele>105.5</ele><time>2026-05-01T03:15:04Z</time></trkpt><trkpt lat="45.457382068887746" lon="10.753757776423146"><ele>107.0</ele><time>2026-05-01T03:15:05Z</time></trkpt><trkpt lat="45.457598832356865" lon="10.753929824578144"><ele>107.0</ele><time>2026-05-01T03:15:06Z</time></trkpt><trkpt lat="45.457815106748505" lon="10.754101953007558"><ele>107.0</ele><time>2026-05-01T03:15:07Z</time></trkpt><trkpt lat="45.4580330791318" lon="10.754275580569681"><ele>106.5</ele><time>2026-05-01T03:15:08Z</time></trkpt><trkpt lat="45.45824888664546" lon="10.754448234233669"><ele>106.0</ele><time>2026-05-01T03:15:09Z</time></trkpt><trkpt lat="45.45846558527661" lon="10.754619421570695"><ele>106.0</ele><time>2026-05-01T03:15:10Z</time></trkpt><trkpt lat="45.45868065628926" lon="10.754788976985457"><ele>106.0</ele><time>2026-05-01T03:15:11Z</time></trkpt><trkpt lat="45.4588983965828" lon="10.754963194877686"><ele>107.0</ele><time>2026-05-01T03:15:12Z</time></trkpt><trkpt lat="45.45911401016342" lon="10.755135242879222"><ele>108.0</ele><time>2026-05-01T03:15:13Z</time></trkpt><trkpt lat="45.459330040988455" lon="10.755308004775681"><ele>109.0</ele><time>2026-05-01T03:15:14Z</time></trkpt><trkpt lat="45.459545022729834" lon="10.755482641981787"><ele>110.0</ele><time>2026-05-01T03:15:15Z</time></trkpt><trkpt lat="45.45976265764683" lon="10.755657633888033"><ele>111.0</ele><time>2026-05-01T03:15:16Z</time></trkpt><trkpt lat="45.4599781376776" lon="10.755826029612818"><ele>112.0</ele><time>2026-05-01T03:15:17Z</time></trkpt><trkpt lat="45.4601943845794" lon="10.755995505839584"><ele>112.0</ele><time>2026-05-01T03:15:18Z</time></trkpt><trkpt lat="45.4604130874734" lon="10.756166190303114"><ele>112.0</ele><time>2026-05-01T03:15:19Z</time></trkpt><trkpt lat="45.4606326986927" lon="10.756338893993695"><ele>112.0</ele><time>2026-05-01T03:15:20Z</time></trkpt><trkpt lat="45.46085179079041" lon="10.756513945212138"><ele>112.0</ele><time>2026-05-01T03:15:21Z</time></trkpt><trkpt lat="45.46107462767497" lon="10.756688393162122"><ele>112.0</ele><time>2026-05-01T03:15:22Z</time></trkpt><trkpt lat="45.46129665696288" lon="10.756864690646802"><ele>112.0</ele><time>2026-05-01T03:15:23Z</time></trkpt><trkpt lat="45.46151929759075" lon="10.757040855265291"><ele>112.0</ele><time>2026-05-01T03:15:24Z</time></trkpt><trkpt lat="45.461742565468185" lon="10.75721776719454"><ele>112.0</ele><time>2026-05-01T03:15:25Z</time></trkpt><trkpt lat="45.46196708284281" lon="10.757395461603712"><ele>113.0</ele><time>2026-05-01T03:15:26Z</time></trkpt><trkpt lat="45.46219103689793" lon="10.75757320122469"><ele>114.0</ele><time>2026-05-01T03:15:27Z</time></trkpt><trkpt lat="45.46240844158813" lon="10.757749155984882"><ele>114.5</ele><time>2026-05-01T03:15:28Z</time></trkpt><trkpt lat="45.462623549061085" lon="10.757926686501568"><ele>115.0</ele><time>2026-05-01T03:15:29Z</time></trkpt><trkpt lat="45.46283913757887" lon="10.758100774338997"><ele>116.0</ele><time>2026-05-01T03:15:30Z</time></trkpt><trkpt lat="45.46305594330064" lon="10.758271971445518"><ele>117.0</ele><time>2026-05-01T03:15:31Z</time></trkpt><trkpt lat="45.4632731546928" lon="10.758447015265936"><ele>116.0</ele><time>2026-05-01T03:15:32Z</time></trkpt><trkpt lat="45.463490641799154" lon="10.758618504651878"><ele>115.0</ele><time>2026-05-01T03:15:33Z</time></trkpt><trkpt lat="45.46370765293132" lon="10.758787953553552"><ele>116.0</ele><time>2026-05-01T03:15:34Z</time></trkpt><trkpt lat="45.463922720887574" lon="10.758956257612006"><ele>117.0</ele><time>2026-05-01T03:15:35Z</time></trkpt><trkpt lat="45.46413924995006" lon="10.759125250397581"><ele>117.0</ele><time>2026-05-01T03:15:36Z</time></trkpt><trkpt lat="45.46435347318786" lon="10.759292042300203"><ele>117.0</ele><time>2026-05-01T03:15:37Z</time></trkpt><trkpt lat="45.46457193345488" lon="10.759443521826471"><ele>117.5</ele><time>2026-05-01T03:15:38Z</time></trkpt><trkpt lat="45.46479420380921" lon="10.759584720776889"><ele>118.0</ele><time>2026-05-01T03:15:39Z</time></trkpt><trkpt lat="45.46501882611008" lon="10.759721886578033"><ele>118.0</ele><time>2026-05-01T03:15:40Z</time></trkpt><trkpt lat="45.46524648855094" lon="10.759854876205532"><ele>118.0</ele><time>2026-05-01T03:15:41Z</time></trkpt><trkpt lat="45.46547668012879" lon="10.759979561330878"><ele>120.0</ele><time>2026-05-01T03:15:42Z</time></trkpt><trkpt lat="45.465711031141" lon="10.760092083731612"><ele>122.0</ele><time>2026-05-01T03:15:43Z</time></trkpt><trkpt lat="45.4659490573591" lon="10.760191864071238"><ele>122.5</ele><time>2026-05-01T03:15:44Z</time></trkpt><trkpt lat="45.46618951285835" lon="10.760282477873291"><ele>123.0</ele><time>2026-05-01T03:15:45Z</time></trkpt><trkpt lat="45.46643477110139" lon="10.760367645603536"><ele>123.0</ele><time>2026-05-01T03:15:46Z</time></trkpt><trkpt lat="45.466680257065796" lon="10.760446581796714"><ele>123.0</ele><time>2026-05-01T03:15:47Z</time></trkpt><trkpt lat="45.46692618199203" lon="10.760515754795826"><ele>121.0</ele><time>2026-05-01T03:15:48Z</time></trkpt><trkpt lat="45.467179095684315" lon="10.760578196306456"><ele>119.0</ele><time>2026-05-01T03:15:49Z</time></trkpt><trkpt lat="45.46743417170402" lon="10.760640774840283"><ele>119.0</ele><time>2026-05-01T03:15:50Z</time></trkpt><trkpt lat="45.467688434098704" lon="10.760704168801764"><ele>119.0</ele><time>2026-05-01T03:15:51Z</time></trkpt><trkpt lat="45.46794161648111" lon="10.76076933354192"><ele>116.5</ele><time>2026-05-01T03:15:52Z</time></trkpt><trkpt lat="45.46818662839102" lon="10.760835782580038"><ele>114.0</ele><time>2026-05-01T03:15:53Z</time></trkpt><trkpt lat="45.46842514803959" lon="10.760900458223732"><ele>114.0</ele><time>2026-05-01T03:15:54Z</time></trkpt><trkpt lat="45.46866741509641" lon="10.760963194694858"><ele>114.0</ele><time>2026-05-01T03:15:55Z</time></trkpt><trkpt lat="45.468916262921525" lon="10.761031499618309"><ele>113.5</ele><time>2026-05-01T03:15:56Z</time></trkpt><trkpt lat="45.4691682126209" lon="10.761099995770431"><ele>113.0</ele><time>2026-05-01T03:15:57Z</time></trkpt><trkpt lat="45.4694185009026" lon="10.761166614333593"><ele>112.5</ele><time>2026-05-01T03:15:58Z</time></trkpt><trkpt lat="45.46967219493782" lon="10.761231674954033"><ele>112.0</ele><time>2026-05-01T03:15:59Z</time></trkpt><trkpt lat="45.46992604024783" lon="10.761296365699492"><ele>112.0</ele><time>2026-05-01T03:16:00Z</time></trkpt><trkpt lat="45.470181016294134" lon="10.761360648351813"><ele>112.0</ele><time>2026-05-01T03:16:01Z</time></trkpt><trkpt lat="45.47043161156314" lon="10.761429588654016"><ele>114.0</ele><time>2026-05-01T03:16:02Z</time></trkpt><trkpt lat="45.470677677933544" lon="10.761504466607985"><ele>116.0</ele><time>2026-05-01T03:16:03Z</time></trkpt><trkpt lat="45.47092189289889" lon="10.761581265549257"><ele>116.0</ele><time>2026-05-01T03:16:04Z</time></trkpt><trkpt lat="45.47116759848195" lon="10.761658835750541"><ele>116.0</ele><time>2026-05-01T03:16:05Z</time></trkpt><trkpt lat="45.47140934902101" lon="10.761742936487284"><ele>117.0</ele><time>2026-05-01T03:16:06Z</time></trkpt><trkpt lat="45.47165107519852" lon="10.761831243712091"><ele>118.0</ele><time>2026-05-01T03:16:07Z</time></trkpt><trkpt lat="45.471893128591866" lon="10.761920422321422"><ele>119.5</ele><time>2026-05-01T03:16:08Z</time></trkpt><trkpt lat="45.47213354855886" lon="10.762005627192618"><ele>121.0</ele><time>2026-05-01T03:16:09Z</time></trkpt><trkpt lat="45.4723727461579" lon="10.762090982247763"><ele>121.0</ele><time>2026-05-01T03:16:10Z</time></trkpt><trkpt lat="45.47261198516791" lon="10.76218094061884"><ele>121.0</ele><time>2026-05-01T03:16:11Z</time></trkpt><trkpt lat="45.47285297442119" lon="10.762268490383672"><ele>121.0</ele><time>2026-05-01T03:16:12Z</time></trkpt><trkpt lat="45.473096007727435" lon="10.762356422809026"><ele>121.0</ele><time>2026-05-01T03:16:13Z</time></trkpt><trkpt lat="45.47334032661014" lon="10.762445252744936"><ele>121.0</ele><time>2026-05-01T03:16:14Z</time></trkpt><trkpt lat="45.473586451107614" lon="10.762533131997733"><ele>121.0</ele><time>2026-05-01T03:16:15Z</time></trkpt><trkpt lat="45.47383018718111" lon="10.762620642121163"><ele>123.5</ele><time>2026-05-01T03:16:16Z</time></trkpt><trkpt lat="45.4740736114243" lon="10.762707221207137"><ele>126.0</ele><time>2026-05-01T03:16:17Z</time></trkpt><trkpt lat="45.474318057112406" lon="10.762794005571731"><ele>126.0</ele><time>2026-05-01T03:16:18Z</time></trkpt><trkpt lat="45.474562775758436" lon="10.762881616466975"><ele>126.0</ele><time>2026-05-01T03:16:19Z</time></trkpt><trkpt lat="45.47480660593025" lon="10.762971178711684"><ele>125.0</ele><time>2026-05-01T03:16:20Z</time></trkpt><trkpt lat="45.47505001191812" lon="10.763059283047047"><ele>124.0</ele><time>2026-05-01T03:16:21Z</time></trkpt><trkpt lat="45.475292956618375" lon="10.763148308405405"><ele>123.5</ele><time>2026-05-01T03:16:22Z</time></trkpt><trkpt lat="45.475536287545026" lon="10.763235557819975"><ele>123.0</ele><time>2026-05-01T03:16:23Z</time></trkpt><trkpt lat="45.47578101622431" lon="10.763324059466626"><ele>123.0</ele><time>2026-05-01T03:16:24Z</time></trkpt><trkpt lat="45.47602094659666" lon="10.763404898384378"><ele>123.0</ele><time>2026-05-01T03:16:25Z</time></trkpt><trkpt lat="45.476262282256386" lon="10.763489868868792"><ele>121.0</ele><time>2026-05-01T03:16:26Z</time></trkpt><trkpt lat="45.47650088021578" lon="10.763574650478276"><ele>119.0</ele><time>2026-05-01T03:16:27Z</time></trkpt><trkpt lat="45.47674097119427" lon="10.763656646928917"><ele>119.0</ele><time>2026-05-01T03:16:28Z</time></trkpt><trkpt lat="45.47698268989713" lon="10.763733780389174"><ele>119.0</ele><time>2026-05-01T03:16:29Z</time></trkpt><trkpt lat="45.47722403412778" lon="10.763800366030772"><ele>119.0</ele><time>2026-05-01T03:16:30Z</time></trkpt><trkpt lat="45.4774660749766" lon="10.763866044173094"><ele>119.0</ele><time>2026-05-01T03:16:31Z</time></trkpt><trkpt lat="45.47771171836185" lon="10.763932110900818"><ele>117.5</ele><time>2026-05-01T03:16:32Z</time></trkpt><trkpt lat="45.477954474148085" lon="10.763998856102496"><ele>116.0</ele><time>2026-05-01T03:16:33Z</time></trkpt><trkpt lat="45.478198705493284" lon="10.764065018361137"><ele>116.0</ele><time>2026-05-01T03:16:34Z</time></trkpt><trkpt lat="45.47844361811331" lon="10.764130348941423"><ele>116.0</ele><time>2026-05-01T03:16:35Z</time></trkpt><trkpt lat="45.47868752827093" lon="10.764196177013336"><ele>116.5</ele><time>2026-05-01T03:16:36Z</time></trkpt><trkpt lat="45.47893014353359" lon="10.764260048814212"><ele>117.0</ele><time>2026-05-01T03:16:37Z</time></trkpt><trkpt lat="45.47917500974157" lon="10.764323556173608"><ele>118.0</ele><time>2026-05-01T03:16:38Z</time></trkpt><trkpt lat="45.479418659888395" lon="10.764385350891875"><ele>119.0</ele><time>2026-05-01T03:16:39Z</time></trkpt><trkpt lat="45.47965921412127" lon="10.764447714827755"><ele>120.0</ele><time>2026-05-01T03:16:40Z</time></trkpt><trkpt lat="45.47989933347137" lon="10.7645105131258"><ele>121.0</ele><time>2026-05-01T03:16:41Z</time></trkpt><trkpt lat="45.48013961872532" lon="10.764574625699966"><ele>121.0</ele><time>2026-05-01T03:16:42Z</time></trkpt><trkpt lat="45.48038220930107" lon="10.764637939638867"><ele>121.0</ele><time>2026-05-01T03:16:43Z</time></trkpt><trkpt lat="45.48062335787389" lon="10.764702110346475"><ele>119.5</ele><time>2026-05-01T03:16:44Z</time></trkpt><trkpt lat="45.48086786878009" lon="10.76476733605694"><ele>118.0</ele><time>2026-05-01T03:16:45Z</time></trkpt><trkpt lat="45.481111092629384" lon="10.764831168853766"><ele>120.0</ele><time>2026-05-01T03:16:46Z</time></trkpt><trkpt lat="45.48135789274539" lon="10.764895653270926"><ele>122.0</ele><time>2026-05-01T03:16:47Z</time></trkpt><trkpt lat="45.48160425184381" lon="10.764961596025238"><ele>122.0</ele><time>2026-05-01T03:16:48Z</time></trkpt><trkpt lat="45.481849923099084" lon="10.765030428873779"><ele>122.0</ele><time>2026-05-01T03:16:49Z</time></trkpt><trkpt lat="45.482096031890386" lon="10.765096806467621"><ele>121.0</ele><time>2026-05-01T03:16:50Z</time></trkpt><trkpt lat="45.48234347595693" lon="10.765163296383895"><ele>120.0</ele><time>2026-05-01T03:16:51Z</time></trkpt><trkpt lat="45.482589626301895" lon="10.765226382369216"><ele>120.0</ele><time>2026-05-01T03:16:52Z</time></trkpt><trkpt lat="45.48283765939595" lon="10.765292353760003"><ele>120.0</ele><time>2026-05-01T03:16:53Z</time></trkpt><trkpt lat="45.48308763329975" lon="10.765357909156677"><ele>121.0</ele><time>2026-05-01T03:16:54Z</time></trkpt><trkpt lat="45.48333732456533" lon="10.76542328777831"><ele>122.0</ele><time>2026-05-01T03:16:55Z</time></trkpt><trkpt lat="45.483584816177085" lon="10.76548852163802"><ele>122.0</ele><time>2026-05-01T03:16:56Z</time></trkpt><trkpt lat="45.48383326350988" lon="10.76555454812571"><ele>122.0</ele><time>2026-05-01T03:16:57Z</time></trkpt><trkpt lat="45.48408388341019" lon="10.765622430682026"><ele>122.0</ele><time>2026-05-01T03:16:58Z</time></trkpt><trkpt lat="45.484332212756186" lon="10.765687318957436"><ele>122.0</ele><time>2026-05-01T03:16:59Z</time></trkpt><trkpt lat="45.48458038839455" lon="10.765751553039145"><ele>122.0</ele><time>2026-05-01T03:17:00Z</time></trkpt><trkpt lat="45.4848263919624" lon="10.765817383446493"><ele>122.0</ele><time>2026-05-01T03:17:01Z</time></trkpt><trkpt lat="45.48507437305779" lon="10.765881088617173"><ele>122.0</ele><time>2026-05-01T03:17:02Z</time></trkpt><trkpt lat="45.485324221548986" lon="10.765945006070375"><ele>122.0</ele><time>2026-05-01T03:17:03Z</time></trkpt><trkpt lat="45.4855721087055" lon="10.766009826948336"><ele>124.0</ele><time>2026-05-01T03:17:04Z</time></trkpt><trkpt lat="45.485822610996536" lon="10.766075040087742"><ele>126.0</ele><time>2026-05-01T03:17:05Z</time></trkpt><trkpt lat="45.48606846835315" lon="10.766142959113129"><ele>128.0</ele><time>2026-05-01T03:17:06Z</time></trkpt><trkpt lat="45.48631348212097" lon="10.76620612806164"><ele>130.0</ele><time>2026-05-01T03:17:07Z</time></trkpt><trkpt lat="45.48656169376581" lon="10.766270956392718"><ele>130.0</ele><time>2026-05-01T03:17:08Z</time></trkpt><trkpt lat="45.48680646190901" lon="10.766334270493974"><ele>130.0</ele><time>2026-05-01T03:17:09Z</time></trkpt><trkpt lat="45.487052451356725" lon="10.766399105969894"><ele>130.5</ele><time>2026-05-01T03:17:10Z</time></trkpt><trkpt lat="45.48729989424347" lon="10.76646464218191"><ele>131.0</ele><time>2026-05-01T03:17:11Z</time></trkpt><trkpt lat="45.487542601189574" lon="10.76653033407728"><ele>131.0</ele><time>2026-05-01T03:17:12Z</time></trkpt><trkpt lat="45.48778674975158" lon="10.766596117385308"><ele>131.0</ele><time>2026-05-01T03:17:13Z</time></trkpt><trkpt lat="45.48803167827538" lon="10.766662025006491"><ele>129.0</ele><time>2026-05-01T03:17:14Z</time></trkpt><trkpt lat="45.488277366103745" lon="10.766727909182247"><ele>127.0</ele><time>2026-05-01T03:17:15Z</time></trkpt><trkpt lat="45.48852341141238" lon="10.766792071844115"><ele>127.5</ele><time>2026-05-01T03:17:16Z</time></trkpt><trkpt lat="45.48877019542893" lon="10.766856077717263"><ele>128.0</ele><time>2026-05-01T03:17:17Z</time></trkpt><trkpt lat="45.48901665834738" lon="10.76692058803185"><ele>130.0</ele><time>2026-05-01T03:17:18Z</time></trkpt><trkpt lat="45.489263019417194" lon="10.766981756672171"><ele>132.0</ele><time>2026-05-01T03:17:19Z</time></trkpt><trkpt lat="45.489510641281484" lon="10.767045344611017"><ele>132.0</ele><time>2026-05-01T03:17:20Z</time></trkpt><trkpt lat="45.48975598126332" lon="10.767111949760588"><ele>132.0</ele><time>2026-05-01T03:17:21Z</time></trkpt><trkpt lat="45.490004618826774" lon="10.767175326710394"><ele>132.0</ele><time>2026-05-01T03:17:22Z</time></trkpt><trkpt lat="45.49025113428305" lon="10.7672389990064"><ele>132.0</ele><time>2026-05-01T03:17:23Z</time></trkpt><trkpt lat="45.49049721817217" lon="10.767305366423619"><ele>131.5</ele><time>2026-05-01T03:17:24Z</time></trkpt><trkpt lat="45.49074692785561" lon="10.767371877674544"><ele>131.0</ele><time>2026-05-01T03:17:25Z</time></trkpt><trkpt lat="45.490991597640104" lon="10.767437500731218"><ele>131.0</ele><time>2026-05-01T03:17:26Z</time></trkpt><trkpt lat="45.49124079293764" lon="10.767503856306588"><ele>131.0</ele><time>2026-05-01T03:17:27Z</time></trkpt><trkpt lat="45.491488506576" lon="10.767564735463681"><ele>128.5</ele><time>2026-05-01T03:17:28Z</time></trkpt><trkpt lat="45.49173780141226" lon="10.767628936235043"><ele>126.0</ele><time>2026-05-01T03:17:29Z</time></trkpt><trkpt lat="45.49198834347678" lon="10.767690752064581"><ele>126.5</ele><time>2026-05-01T03:17:30Z</time></trkpt><trkpt lat="45.4922398359616" lon="10.767754956354928"><ele>127.0</ele><time>2026-05-01T03:17:31Z</time></trkpt><trkpt lat="45.492489634702196" lon="10.767823742157763"><ele>127.0</ele><time>2026-05-01T03:17:32Z</time></trkpt><trkpt lat="45.49274032282745" lon="10.767890566836376"><ele>127.0</ele><time>2026-05-01T03:17:33Z</time></trkpt><trkpt lat="45.49299017686159" lon="10.767956414802715"><ele>126.5</ele><time>2026-05-01T03:17:34Z</time></trkpt><trkpt lat="45.493239042572284" lon="10.768021453187906"><ele>126.0</ele><time>2026-05-01T03:17:35Z</time></trkpt><trkpt lat="45.49348896271464" lon="10.768085861811922"><ele>126.0</ele><time>2026-05-01T03:17:36Z</time></trkpt><trkpt lat="45.49373911449565" lon="10.76815200525318"><ele>126.0</ele><time>2026-05-01T03:17:37Z</time></trkpt><trkpt lat="45.49398941263794" lon="10.768220831976832"><ele>126.5</ele><time>2026-05-01T03:17:38Z</time></trkpt><trkpt lat="45.49423672192547" lon="10.768291703994763"><ele>127.0</ele><time>2026-05-01T03:17:39Z</time></trkpt><trkpt lat="45.494484143843465" lon="10.768351915251117"><ele>128.0</ele><time>2026-05-01T03:17:40Z</time></trkpt><trkpt lat="45.49473498179357" lon="10.768416870931377"><ele>129.0</ele><time>2026-05-01T03:17:41Z</time></trkpt><trkpt lat="45.49498729656985" lon="10.768471325204706"><ele>129.0</ele><time>2026-05-01T03:17:42Z</time></trkpt><trkpt lat="45.495241524368055" lon="10.76850468455204"><ele>129.0</ele><time>2026-05-01T03:17:43Z</time></trkpt><trkpt lat="45.495499038110324" lon="10.768527755185875"><ele>128.0</ele><time>2026-05-01T03:17:44Z</time></trkpt><trkpt lat="45.49575746302377" lon="10.768533093213504"><ele>127.0</ele><time>2026-05-01T03:17:45Z</time></trkpt><trkpt lat="45.49601620912171" lon="10.768528755536128"><ele>128.0</ele><time>2026-05-01T03:17:46Z</time></trkpt><trkpt lat="45.496275185300256" lon="10.768517303593354"><ele>129.0</ele><time>2026-05-01T03:17:47Z</time></trkpt><trkpt lat="45.49653328910437" lon="10.7685063019111"><ele>129.0</ele><time>2026-05-01T03:17:48Z</time></trkpt><trkpt lat="45.49679560287202" lon="10.768490446642042"><ele>129.0</ele><time>2026-05-01T03:17:49Z</time></trkpt><trkpt lat="45.49705336380248" lon="10.768490519155081"><ele>128.0</ele><time>2026-05-01T03:17:50Z</time></trkpt><trkpt lat="45.497307834751986" lon="10.768486027324311"><ele>127.0</ele><time>2026-05-01T03:17:51Z</time></trkpt><trkpt lat="45.497563958863495" lon="10.768474323227647"><ele>127.0</ele><time>2026-05-01T03:17:52Z</time></trkpt><trkpt lat="45.49781762358113" lon="10.768464293954636"><ele>127.0</ele><time>2026-05-01T03:17:53Z</time></trkpt><trkpt lat="45.49807167667801" lon="10.768455731781337"><ele>129.0</ele><time>2026-05-01T03:17:54Z</time></trkpt><trkpt lat="45.4983258079852" lon="10.768447381654264"><ele>131.0</ele><time>2026-05-01T03:17:55Z</time></trkpt><trkpt lat="45.49857774845601" lon="10.768436615377565"><ele>130.0</ele><time>2026-05-01T03:17:56Z</time></trkpt><trkpt lat="45.49882929173551" lon="10.768424518833951"><ele>129.0</ele><time>2026-05-01T03:17:57Z</time></trkpt><trkpt lat="45.49908206485714" lon="10.768413162572509"><ele>129.0</ele><time>2026-05-01T03:17:58Z</time></trkpt><trkpt lat="45.4993318644981" lon="10.768405407154923"><ele>129.0</ele><time>2026-05-01T03:17:59Z</time></trkpt><trkpt lat="45.49958235013469" lon="10.768398430048167"><ele>130.5</ele><time>2026-05-01T03:18:00Z</time></trkpt><trkpt lat="45.499835462807106" lon="10.768389714983728"><ele>132.0</ele><time>2026-05-01T03:18:01Z</time></trkpt><trkpt lat="45.50008268322154" lon="10.768383024535328"><ele>132.0</ele><time>2026-05-01T03:18:02Z</time></trkpt><trkpt lat="45.50032199728095" lon="10.768373926664484"><ele>132.0</ele><time>2026-05-01T03:18:03Z</time></trkpt><trkpt lat="45.500567831879394" lon="10.76836583916129"><ele>132.5</ele><time>2026-05-01T03:18:04Z</time></trkpt><trkpt lat="45.50082007577174" lon="10.768357363143696"><ele>133.0</ele><time>2026-05-01T03:18:05Z</time></trkpt><trkpt lat="45.50107520204855" lon="10.768348594236794"><ele>133.0</ele><time>2026-05-01T03:18:06Z</time></trkpt><trkpt lat="45.50133122886889" lon="10.768338867510327"><ele>133.0</ele><time>2026-05-01T03:18:07Z</time></trkpt><trkpt lat="45.50158578925616" lon="10.768329463203905"><ele>133.0</ele><time>2026-05-01T03:18:08Z</time></trkpt><trkpt lat="45.501840813233" lon="10.76832165548824"><ele>133.0</ele><time>2026-05-01T03:18:09Z</time></trkpt><trkpt lat="45.50209445494726" lon="10.768314509680309"><ele>135.5</ele><time>2026-05-01T03:18:10Z</time></trkpt><trkpt lat="45.502345198170104" lon="10.768307392293249"><ele>138.0</ele><time>2026-05-01T03:18:11Z</time></trkpt><trkpt lat="45.50259651957454" lon="10.768299426733702"><ele>138.0</ele><time>2026-05-01T03:18:12Z</time></trkpt><trkpt lat="45.50284623170717" lon="10.76829143377384"><ele>138.0</ele><time>2026-05-01T03:18:13Z</time></trkpt><trkpt lat="45.50309627149624" lon="10.768285004318516"><ele>139.5</ele><time>2026-05-01T03:18:14Z</time></trkpt><trkpt lat="45.503345342709515" lon="10.768279163004363"><ele>141.0</ele><time>2026-05-01T03:18:15Z</time></trkpt><trkpt lat="45.50359289318229" lon="10.768270414057225"><ele>142.0</ele><time>2026-05-01T03:18:16Z</time></trkpt><trkpt lat="45.50384124135354" lon="10.768259815976297"><ele>143.0</ele><time>2026-05-01T03:18:17Z</time></trkpt><trkpt lat="45.50409044517675" lon="10.768248350684384"><ele>143.0</ele><time>2026-05-01T03:18:18Z</time></trkpt><trkpt lat="45.5043415636158" lon="10.768237201540085"><ele>143.0</ele><time>2026-05-01T03:18:19Z</time></trkpt><trkpt lat="45.50459198989458" lon="10.768225038150408"><ele>141.0</ele><time>2026-05-01T03:18:20Z</time></trkpt><trkpt lat="45.504842949213504" lon="10.768216322782816"><ele>139.0</ele><time>2026-05-01T03:18:21Z</time></trkpt><trkpt lat="45.50509270415013" lon="10.768208546416405"><ele>139.0</ele><time>2026-05-01T03:18:22Z</time></trkpt><trkpt lat="45.50534829913383" lon="10.768198448077658"><ele>139.0</ele><time>2026-05-01T03:18:23Z</time></trkpt><trkpt lat="45.50560246846747" lon="10.768190646380068"><ele>137.0</ele><time>2026-05-01T03:18:24Z</time></trkpt><trkpt lat="45.505855547706375" lon="10.76818413537056"><ele>135.0</ele><time>2026-05-01T03:18:25Z</time></trkpt><trkpt lat="45.50610987983745" lon="10.768174559738988"><ele>135.0</ele><time>2026-05-01T03:18:26Z</time></trkpt><trkpt lat="45.506361850488446" lon="10.76816576720201"><ele>135.0</ele><time>2026-05-01T03:18:27Z</time></trkpt><trkpt lat="45.5066128777073" lon="10.768155676482106"><ele>135.0</ele><time>2026-05-01T03:18:28Z</time></trkpt><trkpt lat="45.5068626248958" lon="10.768146673292708"><ele>135.0</ele><time>2026-05-01T03:18:29Z</time></trkpt><trkpt lat="45.507116520789005" lon="10.7681388169217"><ele>135.0</ele><time>2026-05-01T03:18:30Z</time></trkpt><trkpt lat="45.50736909190631" lon="10.768131735819537"><ele>135.0</ele><time>2026-05-01T03:18:31Z</time></trkpt><trkpt lat="45.50762262584056" lon="10.768124140103502"><ele>135.0</ele><time>2026-05-01T03:18:32Z</time></trkpt><trkpt lat="45.50787442894744" lon="10.76811817408139"><ele>135.0</ele><time>2026-05-01T03:18:33Z</time></trkpt><trkpt lat="45.50812398962895" lon="10.768121708979065"><ele>135.5</ele><time>2026-05-01T03:18:34Z</time></trkpt><trkpt lat="45.50837542167807" lon="10.768134162462802"><ele>136.0</ele><time>2026-05-01T03:18:35Z</time></trkpt><trkpt lat="45.508624962344875" lon="10.768161541263856"><ele>136.0</ele><time>2026-05-01T03:18:36Z</time></trkpt><trkpt lat="45.50887514546708" lon="10.768194073106386"><ele>136.0</ele><time>2026-05-01T03:18:37Z</time></trkpt><trkpt lat="45.50912667097801" lon="10.768234822869209"><ele>136.0</ele><time>2026-05-01T03:18:38Z</time></trkpt><trkpt lat="45.50937455392827" lon="10.768278278563773"><ele>136.0</ele><time>2026-05-01T03:18:39Z</time></trkpt><trkpt lat="45.50962546919858" lon="10.768322962884895"><ele>137.5</ele><time>2026-05-01T03:18:40Z</time></trkpt><trkpt lat="45.509877022544224" lon="10.768360038517192"><ele>139.0</ele><time>2026-05-01T03:18:41Z</time></trkpt><trkpt lat="45.510127522795266" lon="10.768399186415383"><ele>139.0</ele><time>2026-05-01T03:18:42Z</time></trkpt><trkpt lat="45.51037873624172" lon="10.768442052975992"><ele>139.0</ele><time>2026-05-01T03:18:43Z</time></trkpt><trkpt lat="45.510630239104096" lon="10.768484872026963"><ele>141.0</ele><time>2026-05-01T03:18:44Z</time></trkpt><trkpt lat="45.51088482688759" lon="10.768524792777718"><ele>143.0</ele><time>2026-05-01T03:18:45Z</time></trkpt><trkpt lat="45.51113511651161" lon="10.768568454168605"><ele>150.5</ele><time>2026-05-01T03:18:46Z</time></trkpt><trkpt lat="45.511387718197874" lon="10.76861085666031"><ele>158.0</ele><time>2026-05-01T03:18:47Z</time></trkpt><trkpt lat="45.511638948010734" lon="10.768653183226771"><ele>158.0</ele><time>2026-05-01T03:18:48Z</time></trkpt><trkpt lat="45.51188905811384" lon="10.768694878317161"><ele>158.0</ele><time>2026-05-01T03:18:49Z</time></trkpt><trkpt lat="45.512140173167346" lon="10.768738763018563"><ele>157.5</ele><time>2026-05-01T03:18:50Z</time></trkpt><trkpt lat="45.512390045002206" lon="10.768781217921527"><ele>157.0</ele><time>2026-05-01T03:18:51Z</time></trkpt><trkpt lat="45.512641444405915" lon="10.768822091133906"><ele>157.0</ele><time>2026-05-01T03:18:52Z</time></trkpt><trkpt lat="45.51289360349166" lon="10.76886561131082"><ele>157.0</ele><time>2026-05-01T03:18:53Z</time></trkpt><trkpt lat="45.51314493820088" lon="10.76890782761735"><ele>155.5</ele><time>2026-05-01T03:18:54Z</time></trkpt><trkpt lat="45.51339678116912" lon="10.768951603814635"><ele>154.0</ele><time>2026-05-01T03:18:55Z</time></trkpt><trkpt lat="45.51364859585288" lon="10.768990865327602"><ele>154.5</ele><time>2026-05-01T03:18:56Z</time></trkpt><trkpt lat="45.51389617004366" lon="10.769029944082806"><ele>155.0</ele><time>2026-05-01T03:18:57Z</time></trkpt><trkpt lat="45.514143628708204" lon="10.769070407176825"><ele>155.0</ele><time>2026-05-01T03:18:58Z</time></trkpt><trkpt lat="45.5143920161196" lon="10.769112252615704"><ele>155.0</ele><time>2026-05-01T03:18:59Z</time></trkpt><trkpt lat="45.51463732404058" lon="10.769155585154573"><ele>154.5</ele><time>2026-05-01T03:19:00Z</time></trkpt><trkpt lat="45.514882860597076" lon="10.769195628632076"><ele>154.0</ele><time>2026-05-01T03:19:01Z</time></trkpt><trkpt lat="45.51512987615164" lon="10.769236431991011"><ele>154.0</ele><time>2026-05-01T03:19:02Z</time></trkpt><trkpt lat="45.5153777506565" lon="10.76927887370653"><ele>154.0</ele><time>2026-05-01T03:19:03Z</time></trkpt><trkpt lat="45.51562377582868" lon="10.769320464086716"><ele>155.0</ele><time>2026-05-01T03:19:04Z</time></trkpt><trkpt lat="45.51586975148764" lon="10.769361549417411"><ele>156.0</ele><time>2026-05-01T03:19:05Z</time></trkpt><trkpt lat="45.516115984827245" lon="10.769401605872334"><ele>158.0</ele><time>2026-05-01T03:19:06Z</time></trkpt><trkpt lat="45.51636125667919" lon="10.769442606634925"><ele>160.0</ele><time>2026-05-01T03:19:07Z</time></trkpt><trkpt lat="45.51660497109202" lon="10.769485009707289"><ele>160.0</ele><time>2026-05-01T03:19:08Z</time></trkpt><trkpt lat="45.5168507502459" lon="10.769526631640497"><ele>160.0</ele><time>2026-05-01T03:19:09Z</time></trkpt><trkpt lat="45.5170970848842" lon="10.76957201207915"><ele>160.5</ele><time>2026-05-01T03:19:10Z</time></trkpt><trkpt lat="45.517341076257274" lon="10.769618388169759"><ele>161.0</ele><time>2026-05-01T03:19:11Z</time></trkpt><trkpt lat="45.517583263234286" lon="10.769666554045703"><ele>161.0</ele><time>2026-05-01T03:19:12Z</time></trkpt><trkpt lat="45.51783012164348" lon="10.76971857687477"><ele>161.0</ele><time>2026-05-01T03:19:13Z</time></trkpt><trkpt lat="45.51807477434932" lon="10.769779589276553"><ele>161.0</ele><time>2026-05-01T03:19:14Z</time></trkpt><trkpt lat="45.518321611770844" lon="10.769844228098448"><ele>161.0</ele><time>2026-05-01T03:19:15Z</time></trkpt><trkpt lat="45.518564227597956" lon="10.769932222141245"><ele>161.0</ele><time>2026-05-01T03:19:16Z</time></trkpt><trkpt lat="45.5188042062487" lon="10.770030328994627"><ele>161.0</ele><time>2026-05-01T03:19:17Z</time></trkpt><trkpt lat="45.519041200934566" lon="10.770139706948653"><ele>162.0</ele><time>2026-05-01T03:19:18Z</time></trkpt><trkpt lat="45.51927900684806" lon="10.770249508210293"><ele>163.0</ele><time>2026-05-01T03:19:19Z</time></trkpt><trkpt lat="45.51951956994536" lon="10.770361410160499"><ele>165.0</ele><time>2026-05-01T03:19:20Z</time></trkpt><trkpt lat="45.51976036656652" lon="10.770470550623168"><ele>167.0</ele><time>2026-05-01T03:19:21Z</time></trkpt><trkpt lat="45.52000154514066" lon="10.770577239976415"><ele>167.0</ele><time>2026-05-01T03:19:22Z</time></trkpt><trkpt lat="45.5202429205971" lon="10.770685583336565"><ele>167.0</ele><time>2026-05-01T03:19:23Z</time></trkpt><trkpt lat="45.520484078743365" lon="10.770795427305561"><ele>165.5</ele><time>2026-05-01T03:19:24Z</time></trkpt><trkpt lat="45.52072476142825" lon="10.770906037061557"><ele>164.0</ele><time>2026-05-01T03:19:25Z</time></trkpt><trkpt lat="45.52096629785154" lon="10.771015823866795"><ele>164.0</ele><time>2026-05-01T03:19:26Z</time></trkpt><trkpt lat="45.521207427043215" lon="10.771124180356383"><ele>164.0</ele><time>2026-05-01T03:19:27Z</time></trkpt><trkpt lat="45.52144856458697" lon="10.771231660702375"><ele>164.0</ele><time>2026-05-01T03:19:28Z</time></trkpt><trkpt lat="45.52169093146641" lon="10.771342056280933"><ele>164.0</ele><time>2026-05-01T03:19:29Z</time></trkpt><trkpt lat="45.5219300825329" lon="10.771452759065218"><ele>162.0</ele><time>2026-05-01T03:19:30Z</time></trkpt><trkpt lat="45.52217017584195" lon="10.771565097063185"><ele>160.0</ele><time>2026-05-01T03:19:31Z</time></trkpt><trkpt lat="45.52241077862442" lon="10.771675286278867"><ele>160.0</ele><time>2026-05-01T03:19:32Z</time></trkpt><trkpt lat="45.52265371173054" lon="10.7717858928813"><ele>160.0</ele><time>2026-05-01T03:19:33Z</time></trkpt><trkpt lat="45.522899063066376" lon="10.771896660630647"><ele>159.0</ele><time>2026-05-01T03:19:34Z</time></trkpt><trkpt lat="45.523143439164464" lon="10.77200763826129"><ele>158.0</ele><time>2026-05-01T03:19:35Z</time></trkpt><trkpt lat="45.52338769083243" lon="10.772121540218606"><ele>158.0</ele><time>2026-05-01T03:19:36Z</time></trkpt><trkpt lat="45.52363090621111" lon="10.772235558312149"><ele>158.0</ele><time>2026-05-01T03:19:37Z</time></trkpt><trkpt lat="45.52386950434662" lon="10.772347977837102"><ele>157.5</ele><time>2026-05-01T03:19:38Z</time></trkpt><trkpt lat="45.52409660731915" lon="10.77245231507609"><ele>157.0</ele><time>2026-05-01T03:19:39Z</time></trkpt><trkpt lat="45.52431190749717" lon="10.772550461271388"><ele>157.0</ele><time>2026-05-01T03:19:40Z</time></trkpt><trkpt lat="45.524528564146465" lon="10.77264726472659"><ele>157.0</ele><time>2026-05-01T03:19:41Z</time></trkpt><trkpt lat="45.52475099886611" lon="10.772748939629404"><ele>156.0</ele><time>2026-05-01T03:19:42Z</time></trkpt><trkpt lat="45.52497580699595" lon="10.772853362145812"><ele>155.0</ele><time>2026-05-01T03:19:43Z</time></trkpt><trkpt lat="45.52520514666616" lon="10.772957216904798"><ele>155.0</ele><time>2026-05-01T03:19:44Z</time></trkpt><trkpt lat="45.52543603783911" lon="10.773062300720877"><ele>155.0</ele><time>2026-05-01T03:19:45Z</time></trkpt><trkpt lat="45.525664953640316" lon="10.773166705793718"><ele>155.0</ele><time>2026-05-01T03:19:46Z</time></trkpt><trkpt lat="45.52589359007462" lon="10.773271100764662"><ele>155.0</ele><time>2026-05-01T03:19:47Z</time></trkpt><trkpt lat="45.52612634878285" lon="10.773373846523016"><ele>156.0</ele><time>2026-05-01T03:19:48Z</time></trkpt><trkpt lat="45.52636304417256" lon="10.773476255573895"><ele>157.0</ele><time>2026-05-01T03:19:49Z</time></trkpt><trkpt lat="45.526604090502715" lon="10.773575161895325"><ele>157.5</ele><time>2026-05-01T03:19:50Z</time></trkpt><trkpt lat="45.526851325327385" lon="10.773677866695696"><ele>158.0</ele><time>2026-05-01T03:19:51Z</time></trkpt><trkpt lat="45.52709715915716" lon="10.773783704594994"><ele>158.5</ele><time>2026-05-01T03:19:52Z</time></trkpt><trkpt lat="45.52734051775723" lon="10.773894191419437"><ele>159.0</ele><time>2026-05-01T03:19:53Z</time></trkpt><trkpt lat="45.52758721272499" lon="10.77400475495951"><ele>159.0</ele><time>2026-05-01T03:19:54Z</time></trkpt><trkpt lat="45.52783267001852" lon="10.774116786411861"><ele>159.0</ele><time>2026-05-01T03:19:55Z</time></trkpt><trkpt lat="45.52807586380578" lon="10.774228515267357"><ele>158.5</ele><time>2026-05-01T03:19:56Z</time></trkpt><trkpt lat="45.528320257477695" lon="10.774341151999922"><ele>158.0</ele><time>2026-05-01T03:19:57Z</time></trkpt><trkpt lat="45.52856091794427" lon="10.774455808236596"><ele>159.0</ele><time>2026-05-01T03:19:58Z</time></trkpt><trkpt lat="45.52880042584616" lon="10.774576677351003"><ele>160.0</ele><time>2026-05-01T03:19:59Z</time></trkpt><trkpt lat="45.52903759899228" lon="10.774699182486655"><ele>160.0</ele><time>2026-05-01T03:20:00Z</time></trkpt><trkpt lat="45.52927644352463" lon="10.774818407439533"><ele>160.0</ele><time>2026-05-01T03:20:01Z</time></trkpt><trkpt lat="45.529513200356384" lon="10.774933464452555"><ele>160.0</ele><time>2026-05-01T03:20:02Z</time></trkpt><trkpt lat="45.529749396185025" lon="10.77504757381481"><ele>160.0</ele><time>2026-05-01T03:20:03Z</time></trkpt><trkpt lat="45.529985392889756" lon="10.775157518688065"><ele>160.5</ele><time>2026-05-01T03:20:04Z</time></trkpt><trkpt lat="45.53022091086588" lon="10.775266696718473"><ele>161.0</ele><time>2026-05-01T03:20:05Z</time></trkpt><trkpt lat="45.53045868353148" lon="10.775373628500239"><ele>161.0</ele><time>2026-05-01T03:20:06Z</time></trkpt><trkpt lat="45.530694027004934" lon="10.775477458254374"><ele>161.0</ele><time>2026-05-01T03:20:07Z</time></trkpt><trkpt lat="45.53092852403952" lon="10.775581727999224"><ele>161.0</ele><time>2026-05-01T03:20:08Z</time></trkpt><trkpt lat="45.53116178812025" lon="10.775686358694927"><ele>161.0</ele><time>2026-05-01T03:20:09Z</time></trkpt><trkpt lat="45.53139492170667" lon="10.775789804418277"><ele>161.0</ele><time>2026-05-01T03:20:10Z</time></trkpt><trkpt lat="45.531626742562956" lon="10.775892338359128"><ele>161.0</ele><time>2026-05-01T03:20:11Z</time></trkpt><trkpt lat="45.53185706687787" lon="10.775993150708546"><ele>163.0</ele><time>2026-05-01T03:20:12Z</time></trkpt><trkpt lat="45.53208852107842" lon="10.776091778645032"><ele>165.0</ele><time>2026-05-01T03:20:13Z</time></trkpt><trkpt lat="45.532319840247105" lon="10.776184272074188"><ele>165.0</ele><time>2026-05-01T03:20:14Z</time></trkpt><trkpt lat="45.53255341718215" lon="10.776274213654565"><ele>165.0</ele><time>2026-05-01T03:20:15Z</time></trkpt><trkpt lat="45.53278506305198" lon="10.776357984474062"><ele>165.5</ele><time>2026-05-01T03:20:16Z</time></trkpt><trkpt lat="45.5330191732346" lon="10.776434613369647"><ele>166.0</ele><time>2026-05-01T03:20:17Z</time></trkpt><trkpt lat="45.53325713389324" lon="10.77649994543021"><ele>166.0</ele><time>2026-05-01T03:20:18Z</time></trkpt><trkpt lat="45.533498634083315" lon="10.776547324688217"><ele>166.0</ele><time>2026-05-01T03:20:19Z</time></trkpt><trkpt lat="45.533739610839966" lon="10.776573192453961"><ele>166.5</ele><time>2026-05-01T03:20:20Z</time></trkpt><trkpt lat="45.53398204740805" lon="10.776593502492998"><ele>167.0</ele><time>2026-05-01T03:20:21Z</time></trkpt><trkpt lat="45.534225984971826" lon="10.77660933483305"><ele>167.0</ele><time>2026-05-01T03:20:22Z</time></trkpt><trkpt lat="45.53447016713367" lon="10.776627626384625"><ele>167.0</ele><time>2026-05-01T03:20:23Z</time></trkpt><trkpt lat="45.53471560967916" lon="10.776648122929595"><ele>168.5</ele><time>2026-05-01T03:20:24Z</time></trkpt><trkpt lat="45.53496175439915" lon="10.776673489809621"><ele>170.0</ele><time>2026-05-01T03:20:25Z</time></trkpt><trkpt lat="45.53520854482799" lon="10.776707871168496"><ele>171.0</ele><time>2026-05-01T03:20:26Z</time></trkpt><trkpt lat="45.53545557680965" lon="10.776751430505879"><ele>172.0</ele><time>2026-05-01T03:20:27Z</time></trkpt><trkpt lat="45.535704320944035" lon="10.776805558050798"><ele>170.0</ele><time>2026-05-01T03:20:28Z</time></trkpt><trkpt lat="45.535951017932746" lon="10.77686821776531"><ele>168.0</ele><time>2026-05-01T03:20:29Z</time></trkpt><trkpt lat="45.53619637483365" lon="10.776937902724262"><ele>169.0</ele><time>2026-05-01T03:20:30Z</time></trkpt><trkpt lat="45.536440834003756" lon="10.777021366113374"><ele>170.0</ele><time>2026-05-01T03:20:31Z</time></trkpt><trkpt lat="45.53668172357358" lon="10.777116848020237"><ele>170.0</ele><time>2026-05-01T03:20:32Z</time></trkpt><trkpt lat="45.53692164301319" lon="10.77722237994361"><ele>170.0</ele><time>2026-05-01T03:20:33Z</time></trkpt><trkpt lat="45.537158960702534" lon="10.777335414014882"><ele>173.0</ele><time>2026-05-01T03:20:34Z</time></trkpt><trkpt lat="45.53739353232006" lon="10.777453731644982"><ele>176.0</ele><time>2026-05-01T03:20:35Z</time></trkpt><trkpt lat="45.53762139687515" lon="10.777573002304226"><ele>176.0</ele><time>2026-05-01T03:20:36Z</time></trkpt><trkpt lat="45.53783366102298" lon="10.77768503396914"><ele>176.0</ele><time>2026-05-01T03:20:37Z</time></trkpt><trkpt lat="45.538026997538914" lon="10.777788980283134"><ele>176.0</ele><time>2026-05-01T03:20:38Z</time></trkpt><trkpt lat="45.538211017674456" lon="10.77789107184529"><ele>177.0</ele><time>2026-05-01T03:20:39Z</time></trkpt><trkpt lat="45.53839509340966" lon="10.777992133015509"><ele>178.0</ele><time>2026-05-01T03:20:40Z</time></trkpt><trkpt lat="45.538583530849856" lon="10.778093721792587"><ele>179.0</ele><time>2026-05-01T03:20:41Z</time></trkpt><trkpt lat="45.538773953808736" lon="10.778192870370662"><ele>183.0</ele><time>2026-05-01T03:20:42Z</time></trkpt><trkpt lat="45.53896665006158" lon="10.778291407598967"><ele>187.0</ele><time>2026-05-01T03:20:43Z</time></trkpt><trkpt lat="45.53916310217043" lon="10.778381044825807"><ele>191.0</ele><time>2026-05-01T03:20:44Z</time></trkpt><trkpt lat="45.539362546755534" lon="10.778462963860713"><ele>190.0</ele><time>2026-05-01T03:20:45Z</time></trkpt><trkpt lat="45.53956402874752" lon="10.778540579637102"><ele>189.0</ele><time>2026-05-01T03:20:46Z</time></trkpt><trkpt lat="45.53976527627023" lon="10.778612571111056"><ele>188.0</ele><time>2026-05-01T03:20:47Z</time></trkpt><trkpt lat="45.53996850437313" lon="10.778675909296043"><ele>188.0</ele><time>2026-05-01T03:20:48Z</time></trkpt><trkpt lat="45.54017509268966" lon="10.778733530838915"><ele>188.0</ele><time>2026-05-01T03:20:49Z</time></trkpt><trkpt lat="45.540382396408795" lon="10.778784447409443"><ele>188.0</ele><time>2026-05-01T03:20:50Z</time></trkpt><trkpt lat="45.54059168111365" lon="10.778835595672266"><ele>187.33333333333331</ele><time>2026-05-01T03:20:51Z</time></trkpt><trkpt lat="45.540798767899304" lon="10.778888637313068"><ele>186.66666666666666</ele><time>2026-05-01T03:20:52Z</time></trkpt><trkpt lat="45.54100599233653" lon="10.778942411803461"><ele>186.0</ele><time>2026-05-01T03:20:53Z</time></trkpt><trkpt lat="45.54120907619519" lon="10.778996834354988"><ele>187.0</ele><time>2026-05-01T03:20:54Z</time></trkpt><trkpt lat="45.54141219203644" lon="10.779052755447829"><ele>188.0</ele><time>2026-05-01T03:20:55Z</time></trkpt><trkpt lat="45.541613007716414" lon="10.779112035699884"><ele>189.0</ele><time>2026-05-01T03:20:56Z</time></trkpt><trkpt lat="45.5418108988941" lon="10.77917476298066"><ele>189.0</ele><time>2026-05-01T03:20:57Z</time></trkpt><trkpt lat="45.54201071045564" lon="10.77924336259813"><ele>189.0</ele><time>2026-05-01T03:20:58Z</time></trkpt><trkpt lat="45.54221041829781" lon="10.779319520684913"><ele>189.0</ele><time>2026-05-01T03:20:59Z</time></trkpt><trkpt lat="45.542410329435036" lon="10.77940182929296"><ele>189.33333333333334</ele><time>2026-05-01T03:21:00Z</time></trkpt><trkpt lat="45.54260973072153" lon="10.779488759846284"><ele>189.66666666666669</ele><time>2026-05-01T03:21:01Z</time></trkpt><trkpt lat="45.54280796560074" lon="10.779573681360345"><ele>190.0</ele><time>2026-05-01T03:21:02Z</time></trkpt><trkpt lat="45.54300901491175" lon="10.779659536625825"><ele>190.0</ele><time>2026-05-01T03:21:03Z</time></trkpt><trkpt lat="45.54320508844945" lon="10.779742467315584"><ele>190.0</ele><time>2026-05-01T03:21:04Z</time></trkpt><trkpt lat="45.543391340416676" lon="10.779822828528637"><ele>190.0</ele><time>2026-05-01T03:21:05Z</time></trkpt><trkpt lat="45.54357062765159" lon="10.77989705667302"><ele>190.66666666666669</ele><time>2026-05-01T03:21:06Z</time></trkpt><trkpt lat="45.54374576069972" lon="10.779967298023804"><ele>191.33333333333334</ele><time>2026-05-01T03:21:07Z</time></trkpt><trkpt lat="45.54392028569079" lon="10.78003759431572"><ele>192.0</ele><time>2026-05-01T03:21:08Z</time></trkpt><trkpt lat="45.54409061727654" lon="10.780108811075104"><ele>192.0</ele><time>2026-05-01T03:21:09Z</time></trkpt><trkpt lat="45.54426027594605" lon="10.780174523088897"><ele>192.0</ele><time>2026-05-01T03:21:10Z</time></trkpt><trkpt lat="45.54442292123287" lon="10.780234766871514"><ele>192.0</ele><time>2026-05-01T03:21:11Z</time></trkpt><trkpt lat="45.54458403775046" lon="10.780289454221322"><ele>193.66666666666669</ele><time>2026-05-01T03:21:12Z</time></trkpt><trkpt lat="45.544741705098126" lon="10.78033632518378"><ele>195.33333333333334</ele><time>2026-05-01T03:21:13Z</time></trkpt><trkpt lat="45.544899607234264" lon="10.780376591734314"><ele>197.0</ele><time>2026-05-01T03:21:14Z</time></trkpt><trkpt lat="45.54505412519826" lon="10.780412372917155"><ele>197.0</ele><time>2026-05-01T03:21:15Z</time></trkpt><trkpt lat="45.54520850055525" lon="10.780444629620197"><ele>197.0</ele><time>2026-05-01T03:21:16Z</time></trkpt><trkpt lat="45.545362915825365" lon="10.780474352081926"><ele>197.0</ele><time>2026-05-01T03:21:17Z</time></trkpt><trkpt lat="45.545514915481945" lon="10.780501098721038"><ele>195.0</ele><time>2026-05-01T03:21:18Z</time></trkpt><trkpt lat="45.54566441705558" lon="10.780529666931772"><ele>193.0</ele><time>2026-05-01T03:21:19Z</time></trkpt><trkpt lat="45.54581535500014" lon="10.780557211721678"><ele>191.0</ele><time>2026-05-01T03:21:20Z</time></trkpt><trkpt lat="45.54596213630694" lon="10.780586889927347"><ele>191.0</ele><time>2026-05-01T03:21:21Z</time></trkpt><trkpt lat="45.54611530710565" lon="10.780620416249416"><ele>191.0</ele><time>2026-05-01T03:21:22Z</time></trkpt><trkpt lat="45.54626605940465" lon="10.780656155266877"><ele>191.0</ele><time>2026-05-01T03:21:23Z</time></trkpt><trkpt lat="45.546414881527106" lon="10.780694620941915"><ele>189.33333333333331</ele><time>2026-05-01T03:21:24Z</time></trkpt><trkpt lat="45.54656311666388" lon="10.78073570819437"><ele>187.66666666666666</ele><time>2026-05-01T03:21:25Z</time></trkpt><trkpt lat="45.54671143149764" lon="10.780779936465798"><ele>186.0</ele><time>2026-05-01T03:21:26Z</time></trkpt><trkpt lat="45.546860747821036" lon="10.780828656616313"><ele>186.0</ele><time>2026-05-01T03:21:27Z</time></trkpt><trkpt lat="45.54701300159924" lon="10.780880573931105"><ele>186.0</ele><time>2026-05-01T03:21:28Z</time></trkpt><trkpt lat="45.547167938218124" lon="10.78093711376519"><ele>186.0</ele><time>2026-05-01T03:21:29Z</time></trkpt><trkpt lat="45.54732679849914" lon="10.781001663107235"><ele>185.33333333333334</ele><time>2026-05-01T03:21:30Z</time></trkpt><trkpt lat="45.54748733269909" lon="10.781069160905336"><ele>184.66666666666669</ele><time>2026-05-01T03:21:31Z</time></trkpt><trkpt lat="45.54765042357646" lon="10.78113841624095"><ele>184.0</ele><time>2026-05-01T03:21:32Z</time></trkpt><trkpt lat="45.54781641301706" lon="10.781208058976064"><ele>186.0</ele><time>2026-05-01T03:21:33Z</time></trkpt><trkpt lat="45.54798099814964" lon="10.781277898908655"><ele>188.0</ele><time>2026-05-01T03:21:34Z</time></trkpt><trkpt lat="45.54814562040373" lon="10.781347814837632"><ele>190.0</ele><time>2026-05-01T03:21:35Z</time></trkpt><trkpt lat="45.54830842450066" lon="10.781417406748261"><ele>190.0</ele><time>2026-05-01T03:21:36Z</time></trkpt><trkpt lat="45.54846595820957" lon="10.781484289604823"><ele>190.0</ele><time>2026-05-01T03:21:37Z</time></trkpt><trkpt lat="45.54862033969079" lon="10.781548928732821"><ele>190.0</ele><time>2026-05-01T03:21:38Z</time></trkpt><trkpt lat="45.54877134882429" lon="10.78161194073845"><ele>189.66666666666669</ele><time>2026-05-01T03:21:39Z</time></trkpt><trkpt lat="45.54891848075395" lon="10.781674385652348"><ele>189.33333333333334</ele><time>2026-05-01T03:21:40Z</time></trkpt><trkpt lat="45.54906521597421" lon="10.78173696572568"><ele>189.0</ele><time>2026-05-01T03:21:41Z</time></trkpt><trkpt lat="45.549202977934996" lon="10.781797589012042"><ele>188.2</ele><time>2026-05-01T03:21:42Z</time></trkpt><trkpt lat="45.549329770667015" lon="10.781858036375008"><ele>187.39999999999998</ele><time>2026-05-01T03:21:43Z</time></trkpt><trkpt lat="45.549436636085446" lon="10.781924220663587"><ele>186.6</ele><time>2026-05-01T03:21:44Z</time></trkpt><trkpt lat="45.54952132997582" lon="10.782003125824435"><ele>185.8</ele><time>2026-05-01T03:21:45Z</time></trkpt><trkpt lat="45.54959054366948" lon="10.78210061599361"><ele>185.0</ele><time>2026-05-01T03:21:46Z</time></trkpt><trkpt lat="45.54963847775128" lon="10.782215045537308"><ele>184.4</ele><time>2026-05-01T03:21:47Z</time></trkpt><trkpt lat="45.54969454378653" lon="10.782337422380404"><ele>183.8</ele><time>2026-05-01T03:21:48Z</time></trkpt><trkpt lat="45.54973882973969" lon="10.782480755902021"><ele>183.2</ele><time>2026-05-01T03:21:49Z</time></trkpt><trkpt lat="45.54980260353585" lon="10.782617090725743"><ele>182.6</ele><time>2026-05-01T03:21:50Z</time></trkpt><trkpt lat="45.54988042590175" lon="10.782739298274272"><ele>182.0</ele><time>2026-05-01T03:21:51Z</time></trkpt><trkpt lat="45.5499675722126" lon="10.782849720015665"><ele>181.5</ele><time>2026-05-01T03:21:52Z</time></trkpt><trkpt lat="45.550064337452866" lon="10.782943932911182"><ele>181.0</ele><time>2026-05-01T03:21:53Z</time></trkpt><trkpt lat="45.55016908416467" lon="10.783019108862021"><ele>180.5</ele><time>2026-05-01T03:21:54Z</time></trkpt><trkpt lat="45.550277876410505" lon="10.783077716614818"><ele>180.0</ele><time>2026-05-01T03:21:55Z</time></trkpt><trkpt lat="45.550387440639916" lon="10.783116536494004"><ele>181.4</ele><time>2026-05-01T03:21:56Z</time></trkpt><trkpt lat="45.550484372557236" lon="10.783139412009765"><ele>182.8</ele><time>2026-05-01T03:21:57Z</time></trkpt><trkpt lat="45.55057357662515" lon="10.783169918017233"><ele>184.2</ele><time>2026-05-01T03:21:58Z</time></trkpt><trkpt lat="45.550654981386174" lon="10.783219899412703"><ele>185.6</ele><time>2026-05-01T03:21:59Z</time></trkpt><trkpt lat="45.55072241000849" lon="10.783303554329992"><ele>187.0</ele><time>2026-05-01T03:22:00Z</time></trkpt><trkpt lat="45.55077689086756" lon="10.78341582643468"><ele>187.25</ele><time>2026-05-01T03:22:01Z</time></trkpt><trkpt lat="45.55082030669143" lon="10.783545291909112"><ele>187.5</ele><time>2026-05-01T03:22:02Z</time></trkpt><trkpt lat="45.55086226382188" lon="10.783694326091195"><ele>187.75</ele><time>2026-05-01T03:22:03Z</time></trkpt><trkpt lat="45.55090627189527" lon="10.783853768451397"><ele>188.0</ele><time>2026-05-01T03:22:04Z</time></trkpt><trkpt lat="45.55095233377175" lon="10.784016666068338"><ele>188.0</ele><time>2026-05-01T03:22:05Z</time></trkpt><trkpt lat="45.550999157359975" lon="10.78417973035446"><ele>188.0</ele><time>2026-05-01T03:22:06Z</time></trkpt><trkpt lat="45.5510481414279" lon="10.784345016980197"><ele>188.0</ele><time>2026-05-01T03:22:07Z</time></trkpt><trkpt lat="45.55109784809824" lon="10.784512966915596"><ele>188.0</ele><time>2026-05-01T03:22:08Z</time></trkpt><trkpt lat="45.55114609606688" lon="10.784680437583608"><ele>187.60000000000002</ele><time>2026-05-01T03:22:09Z</time></trkpt><trkpt lat="45.55119133073909" lon="10.784843240288517"><ele>187.20000000000002</ele><time>2026-05-01T03:22:10Z</time></trkpt><trkpt lat="45.55123008905145" lon="10.784995853693736"><ele>186.8</ele><time>2026-05-01T03:22:11Z</time></trkpt><trkpt lat="45.55126059039065" lon="10.785137597789701"><ele>186.4</ele><time>2026-05-01T03:22:12Z</time></trkpt><trkpt lat="45.551282103698604" lon="10.785273276468018"><ele>186.0</ele><time>2026-05-01T03:22:13Z</time></trkpt><trkpt lat="45.551285268408826" lon="10.785397567343683"><ele>186.33333333333334</ele><time>2026-05-01T03:22:14Z</time></trkpt><trkpt lat="45.55126124617334" lon="10.78550789093586"><ele>186.66666666666666</ele><time>2026-05-01T03:22:15Z</time></trkpt><trkpt lat="45.55120995867759" lon="10.78558937088963"><ele>187.0</ele><time>2026-05-01T03:22:16Z</time></trkpt><trkpt lat="45.55113851701734" lon="10.785646068661384"><ele>187.33333333333331</ele><time>2026-05-01T03:22:17Z</time></trkpt><trkpt lat="45.55105088786414" lon="10.785687257726714"><ele>187.66666666666666</ele><time>2026-05-01T03:22:18Z</time></trkpt><trkpt lat="45.55096770109534" lon="10.785748370726578"><ele>188.0</ele><time>2026-05-01T03:22:19Z</time></trkpt><trkpt lat="45.550895314123906" lon="10.785837624251407"><ele>188.0</ele><time>2026-05-01T03:22:20Z</time></trkpt><trkpt lat="45.550840738248525" lon="10.785949191928356"><ele>188.0</ele><time>2026-05-01T03:22:21Z</time></trkpt><trkpt lat="45.550804002095106" lon="10.786076786429675"><ele>188.0</ele><time>2026-05-01T03:22:22Z</time></trkpt><trkpt lat="45.55078480304914" lon="10.786212282627375"><ele>188.0</ele><time>2026-05-01T03:22:23Z</time></trkpt><trkpt lat="45.550791155959175" lon="10.786344808979859"><ele>188.0</ele><time>2026-05-01T03:22:24Z</time></trkpt><trkpt lat="45.55082167094536" lon="10.786473958464862"><ele>188.2</ele><time>2026-05-01T03:22:25Z</time></trkpt><trkpt lat="45.55087865312553" lon="10.78659043338595"><ele>188.4</ele><time>2026-05-01T03:22:26Z</time></trkpt><trkpt lat="45.550941205379914" lon="10.786695021183078"><ele>188.6</ele><time>2026-05-01T03:22:27Z</time></trkpt><trkpt lat="45.550923844385366" lon="10.78688584293834"><ele>188.79999999999998</ele><time>2026-05-01T03:22:28Z</time></trkpt><trkpt lat="45.5509165898712" lon="10.78703345786195"><ele>189.0</ele><time>2026-05-01T03:22:29Z</time></trkpt><trkpt lat="45.55088813025527" lon="10.787173009439222"><ele>189.0</ele><time>2026-05-01T03:22:30Z</time></trkpt><trkpt lat="45.550869212551405" lon="10.787314997019974"><ele>189.0</ele><time>2026-05-01T03:22:31Z</time></trkpt><trkpt lat="45.55082270837078" lon="10.787430359274387"><ele>189.0</ele><time>2026-05-01T03:22:32Z</time></trkpt><trkpt lat="45.55076702837777" lon="10.787520572774893"><ele>189.0</ele><time>2026-05-01T03:22:33Z</time></trkpt><trkpt lat="45.55073148760359" lon="10.78761444836988"><ele>189.0</ele><time>2026-05-01T03:22:34Z</time></trkpt><trkpt lat="45.55069747590397" lon="10.787693798761236"><ele>189.0</ele><time>2026-05-01T03:22:35Z</time></trkpt><trkpt lat="45.55060475428657" lon="10.787820727097198"><ele>189.14285714285714</ele><time>2026-05-01T03:22:37Z</time></trkpt><trkpt lat="45.55055427013698" lon="10.787877219671515"><ele>189.28571428571428</ele><time>2026-05-01T03:22:38Z</time></trkpt><trkpt lat="45.55048226625517" lon="10.787958508361307"><ele>189.42857142857144</ele><time>2026-05-01T03:22:40Z</time></trkpt><trkpt lat="45.55041384842897" lon="10.788016380477899"><ele>189.57142857142856</ele><time>2026-05-01T03:23:08Z</time></trkpt><trkpt lat="45.55035503321911" lon="10.788081773327002"><ele>189.71428571428572</ele><time>2026-05-01T03:23:10Z</time></trkpt><trkpt lat="45.55030341187337" lon="10.788135103868756"><ele>189.85714285714286</ele><time>2026-05-01T03:23:12Z</time></trkpt><trkpt lat="45.55025317222771" lon="10.788199037239192"><ele>190.0</ele><time>2026-05-01T03:23:46Z</time></trkpt><trkpt lat="45.55018503639219" lon="10.788284000276407"><ele>189.66666666666669</ele><time>2026-05-01T03:23:48Z</time></trkpt><trkpt lat="45.55013742835949" lon="10.788343384229215"><ele>189.33333333333334</ele><time>2026-05-01T03:23:49Z</time></trkpt><trkpt lat="45.550077561573396" lon="10.788416259074245"><ele>189.0</ele><time>2026-05-01T03:23:50Z</time></trkpt><trkpt lat="45.55000888573776" lon="10.788500392436736"><ele>188.66666666666666</ele><time>2026-05-01T03:23:51Z</time></trkpt><trkpt lat="45.54993576948672" lon="10.788595857772911"><ele>188.33333333333331</ele><time>2026-05-01T03:23:52Z</time></trkpt><trkpt lat="45.54986788233034" lon="10.788689581027588"><ele>188.0</ele><time>2026-05-01T03:23:53Z</time></trkpt><trkpt lat="45.54979282767477" lon="10.788787443421649"><ele>188.0</ele><time>2026-05-01T03:23:54Z</time></trkpt><trkpt lat="45.54971994201568" lon="10.78887237949138"><ele>188.0</ele><time>2026-05-01T03:23:55Z</time></trkpt><trkpt lat="45.54964803842369" lon="10.78894669133995"><ele>188.0</ele><time>2026-05-01T03:23:56Z</time></trkpt><trkpt lat="45.54957968918824" lon="10.78901432570408"><ele>188.0</ele><time>2026-05-01T03:23:57Z</time></trkpt><trkpt lat="45.54951915138538" lon="10.789075492987116"><ele>188.0</ele><time>2026-05-01T03:23:58Z</time></trkpt><trkpt lat="45.54946446426183" lon="10.78913223215379"><ele>188.0</ele><time>2026-05-01T03:23:59Z</time></trkpt><trkpt lat="45.54937165606616" lon="10.789237341939797"><ele>187.66666666666666</ele><time>2026-05-01T03:24:01Z</time></trkpt><trkpt lat="45.54929524040356" lon="10.789316559572752"><ele>187.33333333333331</ele><time>2026-05-01T03:24:03Z</time></trkpt><trkpt lat="45.54923364329826" lon="10.789377422455157"><ele>187.0</ele><time>2026-05-01T03:24:05Z</time></trkpt><trkpt lat="45.54917782813304" lon="10.789436423624204"><ele>186.66666666666666</ele><time>2026-05-01T03:24:07Z</time></trkpt><trkpt lat="45.54911421604169" lon="10.789499632809523"><ele>186.33333333333334</ele><time>2026-05-01T03:24:09Z</time></trkpt><trkpt lat="45.54904570521198" lon="10.789568240554456"><ele>186.0</ele><time>2026-05-01T03:24:11Z</time></trkpt><trkpt lat="45.548979628399294" lon="10.78963149181375"><ele>186.00000000000003</ele><time>2026-05-01T03:24:13Z</time></trkpt><trkpt lat="45.54891026086338" lon="10.789702779272089"><ele>186.0</ele><time>2026-05-01T03:24:16Z</time></trkpt><trkpt lat="45.548850812433066" lon="10.789761513119004"><ele>186.0</ele><time>2026-05-01T03:24:19Z</time></trkpt><trkpt lat="45.54878635475091" lon="10.789829428342244"><ele>186.0</ele><time>2026-05-01T03:24:22Z</time></trkpt><trkpt lat="45.548729777937496" lon="10.789892394044607"><ele>186.0</ele><time>2026-05-01T03:24:24Z</time></trkpt><trkpt lat="45.54867965136842" lon="10.789947946205036"><ele>186.00000000000003</ele><time>2026-05-01T03:24:26Z</time></trkpt><trkpt lat="45.54862330274744" lon="10.790007602418406"><ele>186.0</ele><time>2026-05-01T03:24:28Z</time></trkpt><trkpt lat="45.548561050417035" lon="10.790072280523967"><ele>185.8</ele><time>2026-05-01T03:24:30Z</time></trkpt><trkpt lat="45.548503811903565" lon="10.790134704168329"><ele>185.60000000000002</ele><time>2026-05-01T03:24:32Z</time></trkpt><trkpt lat="45.54844124322142" lon="10.790205989867294"><ele>185.4</ele><time>2026-05-01T03:24:34Z</time></trkpt><trkpt lat="45.54836021520273" lon="10.790294949323366"><ele>185.2</ele><time>2026-05-01T03:24:36Z</time></trkpt><trkpt lat="45.54826061487543" lon="10.790404334775875"><ele>185.0</ele><time>2026-05-01T03:24:38Z</time></trkpt><trkpt lat="45.54820342801336" lon="10.790470821106375"><ele>185.0</ele><time>2026-05-01T03:24:39Z</time></trkpt><trkpt lat="45.54813557176172" lon="10.790548053226876"><ele>185.0</ele><time>2026-05-01T03:24:40Z</time></trkpt><trkpt lat="45.54806271222133" lon="10.790636886004684"><ele>185.0</ele><time>2026-05-01T03:24:41Z</time></trkpt><trkpt lat="45.5479937546691" lon="10.790731454455917"><ele>185.0</ele><time>2026-05-01T03:24:42Z</time></trkpt><trkpt lat="45.54792349996855" lon="10.790846638066308"><ele>185.0</ele><time>2026-05-01T03:24:43Z</time></trkpt><trkpt lat="45.547861091750754" lon="10.790986953802452"><ele>184.5</ele><time>2026-05-01T03:24:44Z</time></trkpt><trkpt lat="45.547807383249534" lon="10.791148900827343"><ele>184.0</ele><time>2026-05-01T03:24:45Z</time></trkpt><trkpt lat="45.54777415141975" lon="10.791326722480422"><ele>183.5</ele><time>2026-05-01T03:24:46Z</time></trkpt><trkpt lat="45.54776012417208" lon="10.791519669327307"><ele>183.0</ele><time>2026-05-01T03:24:47Z</time></trkpt><trkpt lat="45.54776976932179" lon="10.7917127692435"><ele>183.0</ele><time>2026-05-01T03:24:48Z</time></trkpt><trkpt lat="45.54780252740703" lon="10.791906567590921"><ele>183.0</ele><time>2026-05-01T03:24:49Z</time></trkpt><trkpt lat="45.547861119868486" lon="10.792091251751797"><ele>183.0</ele><time>2026-05-01T03:24:50Z</time></trkpt><trkpt lat="45.54794222728846" lon="10.792257161696787"><ele>183.0</ele><time>2026-05-01T03:24:51Z</time></trkpt><trkpt lat="45.54804536217504" lon="10.792398977033052"><ele>183.0</ele><time>2026-05-01T03:24:52Z</time></trkpt><trkpt lat="45.54816500986075" lon="10.792509400911928"><ele>183.0</ele><time>2026-05-01T03:24:53Z</time></trkpt><trkpt lat="45.54829787511447" lon="10.792586748573909"><ele>183.0</ele><time>2026-05-01T03:24:54Z</time></trkpt><trkpt lat="45.54843569757122" lon="10.792622444114555"><ele>183.0</ele><time>2026-05-01T03:24:55Z</time></trkpt><trkpt lat="45.54858314110647" lon="10.792620529670538"><ele>183.66666666666666</ele><time>2026-05-01T03:24:56Z</time></trkpt><trkpt lat="45.548729928234685" lon="10.792593698816814"><ele>184.33333333333331</ele><time>2026-05-01T03:24:57Z</time></trkpt><trkpt lat="45.548888804435165" lon="10.792566066573004"><ele>185.0</ele><time>2026-05-01T03:24:58Z</time></trkpt><trkpt lat="45.54904590247859" lon="10.792544578892377"><ele>185.0</ele><time>2026-05-01T03:24:59Z</time></trkpt><trkpt lat="45.54920224318043" lon="10.79253260486992"><ele>185.0</ele><time>2026-05-01T03:25:00Z</time></trkpt><trkpt lat="45.54936208030009" lon="10.792536141480257"><ele>185.0</ele><time>2026-05-01T03:25:01Z</time></trkpt><trkpt lat="45.54952397319698" lon="10.792560302957979"><ele>185.33333333333331</ele><time>2026-05-01T03:25:02Z</time></trkpt><trkpt lat="45.54968164540756" lon="10.792618358022134"><ele>185.66666666666666</ele><time>2026-05-01T03:25:03Z</time></trkpt><trkpt lat="45.549831571700444" lon="10.792717085629283"><ele>186.0</ele><time>2026-05-01T03:25:04Z</time></trkpt><trkpt lat="45.54997544121961" lon="10.792853242036509"><ele>186.0</ele><time>2026-05-01T03:25:05Z</time></trkpt><trkpt lat="45.550108580917126" lon="10.793025043800233"><ele>186.0</ele><time>2026-05-01T03:25:06Z</time></trkpt><trkpt lat="45.55023590981567" lon="10.793226439257996"><ele>186.0</ele><time>2026-05-01T03:25:07Z</time></trkpt><trkpt lat="45.5503668371885" lon="10.793452332938408"><ele>186.33333333333334</ele><time>2026-05-01T03:25:08Z</time></trkpt><trkpt lat="45.55050158655148" lon="10.7936863660207"><ele>186.66666666666669</ele><time>2026-05-01T03:25:09Z</time></trkpt><trkpt lat="45.55064620215026" lon="10.793929937860835"><ele>187.0</ele><time>2026-05-01T03:25:10Z</time></trkpt><trkpt lat="45.55078513219816" lon="10.79416917448198"><ele>186.5</ele><time>2026-05-01T03:25:11Z</time></trkpt><trkpt lat="45.550927427446226" lon="10.794412729342882"><ele>186.0</ele><time>2026-05-01T03:25:12Z</time></trkpt><trkpt lat="45.55107499737449" lon="10.79466393652962"><ele>186.5</ele><time>2026-05-01T03:25:13Z</time></trkpt><trkpt lat="45.55122345532871" lon="10.794922756432529"><ele>187.0</ele><time>2026-05-01T03:25:14Z</time></trkpt><trkpt lat="45.551371884280954" lon="10.79518526843792"><ele>187.0</ele><time>2026-05-01T03:25:15Z</time></trkpt><trkpt lat="45.5515149652479" lon="10.795443891591388"><ele>187.0</ele><time>2026-05-01T03:25:16Z</time></trkpt><trkpt lat="45.55166649070522" lon="10.795706988064934"><ele>187.0</ele><time>2026-05-01T03:25:17Z</time></trkpt><trkpt lat="45.55182642396162" lon="10.795966711977284"><ele>187.0</ele><time>2026-05-01T03:25:18Z</time></trkpt><trkpt lat="45.55199590103389" lon="10.796221437600899"><ele>188.0</ele><time>2026-05-01T03:25:19Z</time></trkpt><trkpt lat="45.55217760610105" lon="10.796475135652383"><ele>189.0</ele><time>2026-05-01T03:25:20Z</time></trkpt><trkpt lat="45.55236968146141" lon="10.796724318142154"><ele>189.5</ele><time>2026-05-01T03:25:21Z</time></trkpt><trkpt lat="45.552571610770315" lon="10.796970288808769"><ele>190.0</ele><time>2026-05-01T03:25:22Z</time></trkpt><trkpt lat="45.5527825802573" lon="10.797212674616034"><ele>189.0</ele><time>2026-05-01T03:25:23Z</time></trkpt><trkpt lat="45.55299674936495" lon="10.797452842186853"><ele>188.0</ele><time>2026-05-01T03:25:24Z</time></trkpt><trkpt lat="45.55321726267969" lon="10.797689745483092"><ele>188.0</ele><time>2026-05-01T03:25:25Z</time></trkpt><trkpt lat="45.553448947623025" lon="10.797921743766084"><ele>188.0</ele><time>2026-05-01T03:25:26Z</time></trkpt><trkpt lat="45.55368828804397" lon="10.798150109829056"><ele>188.0</ele><time>2026-05-01T03:25:27Z</time></trkpt><trkpt lat="45.55392648947076" lon="10.798365719450226"><ele>188.0</ele><time>2026-05-01T03:25:28Z</time></trkpt><trkpt lat="45.55416692415207" lon="10.798562626450913"><ele>188.0</ele><time>2026-05-01T03:25:29Z</time></trkpt><trkpt lat="45.554420715244625" lon="10.798751499437557"><ele>188.0</ele><time>2026-05-01T03:25:30Z</time></trkpt><trkpt lat="45.55467969434473" lon="10.798937173606511"><ele>191.0</ele><time>2026-05-01T03:25:31Z</time></trkpt><trkpt lat="45.55494252576571" lon="10.799117091806847"><ele>194.0</ele><time>2026-05-01T03:25:32Z</time></trkpt><trkpt lat="45.55520881288229" lon="10.79928617853091"><ele>193.0</ele><time>2026-05-01T03:25:33Z</time></trkpt><trkpt lat="45.555480976991284" lon="10.799438183383831"><ele>192.0</ele><time>2026-05-01T03:25:34Z</time></trkpt><trkpt lat="45.55575586316339" lon="10.799569347754403"><ele>192.0</ele><time>2026-05-01T03:25:35Z</time></trkpt><trkpt lat="45.556030701743" lon="10.799689674254857"><ele>192.0</ele><time>2026-05-01T03:25:36Z</time></trkpt><trkpt lat="45.556307257175995" lon="10.799800287347246"><ele>189.5</ele><time>2026-05-01T03:25:37Z</time></trkpt><trkpt lat="45.556587024775304" lon="10.799897272054276"><ele>187.0</ele><time>2026-05-01T03:25:38Z</time></trkpt><trkpt lat="45.556869249322496" lon="10.799986112472455"><ele>184.0</ele><time>2026-05-01T03:25:39Z</time></trkpt><trkpt lat="45.557152763958904" lon="10.800072789737332"><ele>181.0</ele><time>2026-05-01T03:25:40Z</time></trkpt><trkpt lat="45.55744064696092" lon="10.80015505348927"><ele>181.5</ele><time>2026-05-01T03:25:41Z</time></trkpt><trkpt lat="45.557726777704055" lon="10.800233929500129"><ele>182.0</ele><time>2026-05-01T03:25:42Z</time></trkpt><trkpt lat="45.55801587434753" lon="10.800310585257707"><ele>183.5</ele><time>2026-05-01T03:25:43Z</time></trkpt><trkpt lat="45.55830601065664" lon="10.800386976060944"><ele>185.0</ele><time>2026-05-01T03:25:44Z</time></trkpt><trkpt lat="45.558596124922026" lon="10.800458250444448"><ele>186.5</ele><time>2026-05-01T03:25:45Z</time></trkpt><trkpt lat="45.55888920256119" lon="10.800523396796876"><ele>188.0</ele><time>2026-05-01T03:25:46Z</time></trkpt><trkpt lat="45.559181973106014" lon="10.80058904364255"><ele>188.0</ele><time>2026-05-01T03:25:47Z</time></trkpt><trkpt lat="45.55947389671613" lon="10.800659819340943"><ele>188.0</ele><time>2026-05-01T03:25:48Z</time></trkpt><trkpt lat="45.55976481949964" lon="10.800736015451234"><ele>187.5</ele><time>2026-05-01T03:25:49Z</time></trkpt><trkpt lat="45.56005345398725" lon="10.800821576936485"><ele>187.0</ele><time>2026-05-01T03:25:50Z</time></trkpt><trkpt lat="45.56034255122797" lon="10.800914237431464"><ele>187.5</ele><time>2026-05-01T03:25:51Z</time></trkpt><trkpt lat="45.56063353398239" lon="10.80100601398875"><ele>188.0</ele><time>2026-05-01T03:25:52Z</time></trkpt><trkpt lat="45.56092775449273" lon="10.80109303781728"><ele>189.0</ele><time>2026-05-01T03:25:53Z</time></trkpt><trkpt lat="45.56122424120235" lon="10.801172006546205"><ele>190.0</ele><time>2026-05-01T03:25:54Z</time></trkpt><trkpt lat="45.56152037294731" lon="10.801247783282108"><ele>190.0</ele><time>2026-05-01T03:25:55Z</time></trkpt><trkpt lat="45.56181614424883" lon="10.801326507445392"><ele>190.0</ele><time>2026-05-01T03:25:56Z</time></trkpt><trkpt lat="45.562110726943594" lon="10.801404922997024"><ele>189.5</ele><time>2026-05-01T03:25:57Z</time></trkpt><trkpt lat="45.56240295732156" lon="10.801483281472155"><ele>189.0</ele><time>2026-05-01T03:25:58Z</time></trkpt><trkpt lat="45.56269449517754" lon="10.801566252433974"><ele>189.0</ele><time>2026-05-01T03:25:59Z</time></trkpt><trkpt lat="45.56298535065567" lon="10.801651807161475"><ele>189.0</ele><time>2026-05-01T03:26:00Z</time></trkpt><trkpt lat="45.56327690698567" lon="10.801735764196742"><ele>189.0</ele><time>2026-05-01T03:26:01Z</time></trkpt><trkpt lat="45.563570296296845" lon="10.801815716016542"><ele>189.0</ele><time>2026-05-01T03:26:02Z</time></trkpt><trkpt lat="45.56386641832533" lon="10.80189411416458"><ele>189.0</ele><time>2026-05-01T03:26:03Z</time></trkpt><trkpt lat="45.564163362202194" lon="10.801974760707683"><ele>189.0</ele><time>2026-05-01T03:26:04Z</time></trkpt><trkpt lat="45.56446115197328" lon="10.802056978366933"><ele>189.5</ele><time>2026-05-01T03:26:05Z</time></trkpt><trkpt lat="45.56475970345773" lon="10.802138753876092"><ele>190.0</ele><time>2026-05-01T03:26:06Z</time></trkpt><trkpt lat="45.565059801947086" lon="10.802215374810183"><ele>190.0</ele><time>2026-05-01T03:26:07Z</time></trkpt><trkpt lat="45.565359859793915" lon="10.802282512825848"><ele>190.0</ele><time>2026-05-01T03:26:08Z</time></trkpt><trkpt lat="45.565660911097574" lon="10.802345675705805"><ele>190.0</ele><time>2026-05-01T03:26:09Z</time></trkpt><trkpt lat="45.565963678394205" lon="10.802408224048229"><ele>190.0</ele><time>2026-05-01T03:26:10Z</time></trkpt><trkpt lat="45.56626630125758" lon="10.802466927002847"><ele>190.0</ele><time>2026-05-01T03:26:11Z</time></trkpt><trkpt lat="45.56656677525835" lon="10.802529593481264"><ele>190.0</ele><time>2026-05-01T03:26:12Z</time></trkpt><trkpt lat="45.566868603530985" lon="10.802591971243775"><ele>190.5</ele><time>2026-05-01T03:26:13Z</time></trkpt><trkpt lat="45.567169737948184" lon="10.802653623678058"><ele>191.0</ele><time>2026-05-01T03:26:14Z</time></trkpt><trkpt lat="45.56746995790503" lon="10.802713575335158"><ele>191.0</ele><time>2026-05-01T03:26:15Z</time></trkpt><trkpt lat="45.56776929069113" lon="10.80277370921836"><ele>191.0</ele><time>2026-05-01T03:26:16Z</time></trkpt><trkpt lat="45.568066833925975" lon="10.802833289854389"><ele>190.5</ele><time>2026-05-01T03:26:17Z</time></trkpt><trkpt lat="45.568364725592374" lon="10.802891198901722"><ele>190.0</ele><time>2026-05-01T03:26:18Z</time></trkpt><trkpt lat="45.56866272201781" lon="10.80295033762788"><ele>191.0</ele><time>2026-05-01T03:26:19Z</time></trkpt><trkpt lat="45.568959759983755" lon="10.803006541228044"><ele>192.0</ele><time>2026-05-01T03:26:20Z</time></trkpt><trkpt lat="45.569255185465146" lon="10.803065423369521"><ele>193.5</ele><time>2026-05-01T03:26:21Z</time></trkpt><trkpt lat="45.56954890402252" lon="10.8031274803698"><ele>195.0</ele><time>2026-05-01T03:26:22Z</time></trkpt><trkpt lat="45.569842597583666" lon="10.803188670093233"><ele>195.0</ele><time>2026-05-01T03:26:23Z</time></trkpt><trkpt lat="45.570136486612384" lon="10.803249294659457"><ele>195.0</ele><time>2026-05-01T03:26:24Z</time></trkpt><trkpt lat="45.5704288636086" lon="10.803311947574132"><ele>193.5</ele><time>2026-05-01T03:26:25Z</time></trkpt><trkpt lat="45.57072086373647" lon="10.8033787265193"><ele>192.0</ele><time>2026-05-01T03:26:26Z</time></trkpt><trkpt lat="45.571013664949454" lon="10.803453690902437"><ele>192.5</ele><time>2026-05-01T03:26:27Z</time></trkpt><trkpt lat="45.57130643617895" lon="10.80353549715685"><ele>193.0</ele><time>2026-05-01T03:26:28Z</time></trkpt><trkpt lat="45.57159720805925" lon="10.803631972183677"><ele>193.0</ele><time>2026-05-01T03:26:29Z</time></trkpt><trkpt lat="45.57189111671013" lon="10.803733433178046"><ele>193.0</ele><time>2026-05-01T03:26:30Z</time></trkpt><trkpt lat="45.572182938965994" lon="10.803846520632128"><ele>192.5</ele><time>2026-05-01T03:26:31Z</time></trkpt><trkpt lat="45.57247411862895" lon="10.80396688815751"><ele>192.0</ele><time>2026-05-01T03:26:32Z</time></trkpt><trkpt lat="45.57276499784681" lon="10.804096570246122"><ele>192.5</ele><time>2026-05-01T03:26:33Z</time></trkpt><trkpt lat="45.57305277456929" lon="10.804236687823579"><ele>193.0</ele><time>2026-05-01T03:26:34Z</time></trkpt><trkpt lat="45.57334058961533" lon="10.804386974731326"><ele>194.0</ele><time>2026-05-01T03:26:35Z</time></trkpt><trkpt lat="45.57362641082769" lon="10.804547059495665"><ele>195.0</ele><time>2026-05-01T03:26:36Z</time></trkpt><trkpt lat="45.57391122122867" lon="10.804717245621955"><ele>193.0</ele><time>2026-05-01T03:26:37Z</time></trkpt><trkpt lat="45.57419206295695" lon="10.804897127193243"><ele>191.0</ele><time>2026-05-01T03:26:38Z</time></trkpt><trkpt lat="45.57447324211037" lon="10.805082015890966"><ele>187.5</ele><time>2026-05-01T03:26:39Z</time></trkpt><trkpt lat="45.574750246885486" lon="10.805276264276785"><ele>184.0</ele><time>2026-05-01T03:26:40Z</time></trkpt><trkpt lat="45.57502529771728" lon="10.805480018811746"><ele>184.0</ele><time>2026-05-01T03:26:41Z</time></trkpt><trkpt lat="45.57529599649006" lon="10.80569002437302"><ele>184.0</ele><time>2026-05-01T03:26:42Z</time></trkpt><trkpt lat="45.57556421066869" lon="10.80591024238612"><ele>180.0</ele><time>2026-05-01T03:26:43Z</time></trkpt><trkpt lat="45.575830041900865" lon="10.806137777530475"><ele>176.0</ele><time>2026-05-01T03:26:44Z</time></trkpt><trkpt lat="45.5760905405824" lon="10.806371074332137"><ele>175.5</ele><time>2026-05-01T03:26:45Z</time></trkpt><trkpt lat="45.57634658794942" lon="10.806610480331662"><ele>175.0</ele><time>2026-05-01T03:26:46Z</time></trkpt><trkpt lat="45.5765996696057" lon="10.806856814033177"><ele>175.0</ele><time>2026-05-01T03:26:47Z</time></trkpt><trkpt lat="45.576846304767464" lon="10.807111609448599"><ele>175.0</ele><time>2026-05-01T03:26:48Z</time></trkpt><trkpt lat="45.577088408967214" lon="10.80737385920968"><ele>175.5</ele><time>2026-05-01T03:26:49Z</time></trkpt><trkpt lat="45.577325879893635" lon="10.807645846710889"><ele>176.0</ele><time>2026-05-01T03:26:50Z</time></trkpt><trkpt lat="45.57755626880511" lon="10.807923976016433"><ele>176.0</ele><time>2026-05-01T03:26:51Z</time></trkpt><trkpt lat="45.577784095973826" lon="10.808208665614497"><ele>176.0</ele><time>2026-05-01T03:26:52Z</time></trkpt><trkpt lat="45.578008142213555" lon="10.808498142507709"><ele>175.0</ele><time>2026-05-01T03:26:53Z</time></trkpt><trkpt lat="45.57822920594135" lon="10.80879643201983"><ele>174.0</ele><time>2026-05-01T03:26:54Z</time></trkpt><trkpt lat="45.57844710777372" lon="10.809095638391389"><ele>175.5</ele><time>2026-05-01T03:26:55Z</time></trkpt><trkpt lat="45.578661113130096" lon="10.80940318995371"><ele>177.0</ele><time>2026-05-01T03:26:56Z</time></trkpt><trkpt lat="45.578870729214806" lon="10.809715922734256"><ele>173.0</ele><time>2026-05-01T03:26:57Z</time></trkpt><trkpt lat="45.57907215977061" lon="10.810036267239884"><ele>169.0</ele><time>2026-05-01T03:26:58Z</time></trkpt><trkpt lat="45.57926851151093" lon="10.810363303824575"><ele>168.5</ele><time>2026-05-01T03:26:59Z</time></trkpt><trkpt lat="45.579461475284155" lon="10.810694660596637"><ele>168.0</ele><time>2026-05-01T03:27:00Z</time></trkpt><trkpt lat="45.579650681965" lon="10.811031380169526"><ele>165.0</ele><time>2026-05-01T03:27:01Z</time></trkpt><trkpt lat="45.579834491172434" lon="10.811372501541577"><ele>162.0</ele><time>2026-05-01T03:27:02Z</time></trkpt><trkpt lat="45.58001296331667" lon="10.811719315266997"><ele>161.0</ele><time>2026-05-01T03:27:03Z</time></trkpt><trkpt lat="45.5801864587553" lon="10.812072201691278"><ele>160.0</ele><time>2026-05-01T03:27:04Z</time></trkpt><trkpt lat="45.580354723163516" lon="10.81243104124533"><ele>157.5</ele><time>2026-05-01T03:27:05Z</time></trkpt><trkpt lat="45.58052010941456" lon="10.812796848661986"><ele>155.0</ele><time>2026-05-01T03:27:06Z</time></trkpt><trkpt lat="45.58068188550918" lon="10.813167514038277"><ele>155.0</ele><time>2026-05-01T03:27:07Z</time></trkpt><trkpt lat="45.580833025294815" lon="10.813548074715998"><ele>155.0</ele><time>2026-05-01T03:27:08Z</time></trkpt><trkpt lat="45.58098170994215" lon="10.813931035830917"><ele>155.0</ele><time>2026-05-01T03:27:09Z</time></trkpt><trkpt lat="45.581122461293624" lon="10.814320729780032"><ele>155.0</ele><time>2026-05-01T03:27:10Z</time></trkpt><trkpt lat="45.58125767386071" lon="10.814715437500741"><ele>154.0</ele><time>2026-05-01T03:27:11Z</time></trkpt><trkpt lat="45.581386414283216" lon="10.815116317026511"><ele>153.0</ele><time>2026-05-01T03:27:12Z</time></trkpt><trkpt lat="45.58150928553285" lon="10.815519974950075"><ele>151.5</ele><time>2026-05-01T03:27:13Z</time></trkpt><trkpt lat="45.58162932132953" lon="10.815923421022221"><ele>150.0</ele><time>2026-05-01T03:27:14Z</time></trkpt><trkpt lat="45.581740289410185" lon="10.816337433479514"><ele>147.0</ele><time>2026-05-01T03:27:15Z</time></trkpt><trkpt lat="45.581846216654775" lon="10.816752843385451"><ele>144.0</ele><time>2026-05-01T03:27:16Z</time></trkpt><trkpt lat="45.58194512919195" lon="10.817172124470448"><ele>141.0</ele><time>2026-05-01T03:27:17Z</time></trkpt><trkpt lat="45.582035317923776" lon="10.817594694622032"><ele>138.0</ele><time>2026-05-01T03:27:18Z</time></trkpt><trkpt lat="45.582121528663194" lon="10.818018912571373"><ele>136.5</ele><time>2026-05-01T03:27:19Z</time></trkpt><trkpt lat="45.582207795421716" lon="10.818439301179017"><ele>135.0</ele><time>2026-05-01T03:27:20Z</time></trkpt><trkpt lat="45.58228452719524" lon="10.818864849240551"><ele>135.0</ele><time>2026-05-01T03:27:21Z</time></trkpt><trkpt lat="45.582360105120294" lon="10.81928988614462"><ele>135.0</ele><time>2026-05-01T03:27:22Z</time></trkpt><trkpt lat="45.58242753954376" lon="10.819713395129105"><ele>133.5</ele><time>2026-05-01T03:27:23Z</time></trkpt><trkpt lat="45.58248803416281" lon="10.820134151869462"><ele>132.0</ele><time>2026-05-01T03:27:24Z</time></trkpt><trkpt lat="45.58254891517444" lon="10.82055410579692"><ele>132.0</ele><time>2026-05-01T03:27:25Z</time></trkpt><trkpt lat="45.5826100100874" lon="10.820969787826307"><ele>132.0</ele><time>2026-05-01T03:27:26Z</time></trkpt><trkpt lat="45.582665787760625" lon="10.821389072232185"><ele>132.0</ele><time>2026-05-01T03:27:27Z</time></trkpt><trkpt lat="45.582716774665855" lon="10.821808914773422"><ele>132.0</ele><time>2026-05-01T03:27:28Z</time></trkpt><trkpt lat="45.58276657444715" lon="10.82223071493094"><ele>128.0</ele><time>2026-05-01T03:27:29Z</time></trkpt><trkpt lat="45.58281665096147" lon="10.82265687265738"><ele>124.0</ele><time>2026-05-01T03:27:30Z</time></trkpt><trkpt lat="45.58286910047121" lon="10.823082644771846"><ele>117.5</ele><time>2026-05-01T03:27:31Z</time></trkpt><trkpt lat="45.582922443129426" lon="10.823513337173768"><ele>111.0</ele><time>2026-05-01T03:27:32Z</time></trkpt><trkpt lat="45.58298013276686" lon="10.823946799261922"><ele>111.5</ele><time>2026-05-01T03:27:33Z</time></trkpt><trkpt lat="45.58304239264513" lon="10.824371945235189"><ele>112.0</ele><time>2026-05-01T03:27:34Z</time></trkpt><trkpt lat="45.58310341757939" lon="10.824783325750868"><ele>108.5</ele><time>2026-05-01T03:27:35Z</time></trkpt><trkpt lat="45.58317196250756" lon="10.82519643229891"><ele>105.0</ele><time>2026-05-01T03:27:36Z</time></trkpt><trkpt lat="45.58324771313288" lon="10.825616685866665"><ele>102.0</ele><time>2026-05-01T03:27:37Z</time></trkpt><trkpt lat="45.58333457260872" lon="10.826036920930811"><ele>99.0</ele><time>2026-05-01T03:27:38Z</time></trkpt><trkpt lat="45.583427649422866" lon="10.826458757664888"><ele>97.0</ele><time>2026-05-01T03:27:39Z</time></trkpt><trkpt lat="45.58353104177015" lon="10.826874448798867"><ele>95.0</ele><time>2026-05-01T03:27:40Z</time></trkpt><trkpt lat="45.58364231731902" lon="10.827287331710737"><ele>98.0</ele><time>2026-05-01T03:27:41Z</time></trkpt><trkpt lat="45.58376234559901" lon="10.827693229105195"><ele>101.0</ele><time>2026-05-01T03:27:42Z</time></trkpt><trkpt lat="45.58389318513505" lon="10.828088600400777"><ele>101.0</ele><time>2026-05-01T03:27:43Z</time></trkpt><trkpt lat="45.58402968376795" lon="10.828475568702048"><ele>101.0</ele><time>2026-05-01T03:27:44Z</time></trkpt><trkpt lat="45.584173661285895" lon="10.828852825395131"><ele>101.0</ele><time>2026-05-01T03:27:45Z</time></trkpt><trkpt lat="45.584325702661395" lon="10.829220577996628"><ele>101.0</ele><time>2026-05-01T03:27:46Z</time></trkpt><trkpt lat="45.58448352516659" lon="10.829575620278026"><ele>101.5</ele><time>2026-05-01T03:27:47Z</time></trkpt><trkpt lat="45.584644949351166" lon="10.829921069077583"><ele>102.0</ele><time>2026-05-01T03:27:48Z</time></trkpt><trkpt lat="45.58480970738619" lon="10.83025991285204"><ele>102.0</ele><time>2026-05-01T03:27:49Z</time></trkpt><trkpt lat="45.58498222122663" lon="10.830591728776344"><ele>102.0</ele><time>2026-05-01T03:27:50Z</time></trkpt><trkpt lat="45.58515587401573" lon="10.830918807755225"><ele>102.0</ele><time>2026-05-01T03:27:51Z</time></trkpt><trkpt lat="45.58533462630783" lon="10.831241333249194"><ele>102.0</ele><time>2026-05-01T03:27:52Z</time></trkpt><trkpt lat="45.58552053316367" lon="10.831561936778826"><ele>102.5</ele><time>2026-05-01T03:27:53Z</time></trkpt><trkpt lat="45.58571318235438" lon="10.831871842091019"><ele>103.0</ele><time>2026-05-01T03:27:54Z</time></trkpt><trkpt lat="45.58590707435007" lon="10.83218205963396"><ele>103.0</ele><time>2026-05-01T03:27:55Z</time></trkpt><trkpt lat="45.586105345421906" lon="10.83248945917137"><ele>103.0</ele><time>2026-05-01T03:27:56Z</time></trkpt><trkpt lat="45.586305802575" lon="10.83278688319789"><ele>103.0</ele><time>2026-05-01T03:27:57Z</time></trkpt><trkpt lat="45.586516889214984" lon="10.8330731903244"><ele>103.0</ele><time>2026-05-01T03:27:58Z</time></trkpt><trkpt lat="45.58673469868045" lon="10.833349887014407"><ele>103.5</ele><time>2026-05-01T03:27:59Z</time></trkpt><trkpt lat="45.58696008812124" lon="10.833617351637917"><ele>104.0</ele><time>2026-05-01T03:28:00Z</time></trkpt><trkpt lat="45.58719097946295" lon="10.833873243926817"><ele>103.0</ele><time>2026-05-01T03:28:01Z</time></trkpt><trkpt lat="45.5874283794588" lon="10.834120211585551"><ele>102.0</ele><time>2026-05-01T03:28:02Z</time></trkpt><trkpt lat="45.58767303709353" lon="10.83435750986607"><ele>103.0</ele><time>2026-05-01T03:28:03Z</time></trkpt><trkpt lat="45.58792139393689" lon="10.834583266519326"><ele>104.0</ele><time>2026-05-01T03:28:04Z</time></trkpt><trkpt lat="45.58817400477516" lon="10.834800949885665"><ele>104.0</ele><time>2026-05-01T03:28:05Z</time></trkpt><trkpt lat="45.58843062382553" lon="10.835009602009746"><ele>104.0</ele><time>2026-05-01T03:28:06Z</time></trkpt><trkpt lat="45.58868889764948" lon="10.835208186949965"><ele>103.5</ele><time>2026-05-01T03:28:07Z</time></trkpt><trkpt lat="45.588949555978324" lon="10.835394834572606"><ele>103.0</ele><time>2026-05-01T03:28:08Z</time></trkpt><trkpt lat="45.58921507198912" lon="10.835573256854957"><ele>103.0</ele><time>2026-05-01T03:28:09Z</time></trkpt><trkpt lat="45.58948369847962" lon="10.835742510044252"><ele>103.0</ele><time>2026-05-01T03:28:10Z</time></trkpt><trkpt lat="45.58975596382556" lon="10.83590436968768"><ele>103.5</ele><time>2026-05-01T03:28:11Z</time></trkpt><trkpt lat="45.59003095530694" lon="10.836060579928146"><ele>104.0</ele><time>2026-05-01T03:28:12Z</time></trkpt><trkpt lat="45.59030848072758" lon="10.83621864488802"><ele>106.0</ele><time>2026-05-01T03:28:13Z</time></trkpt><trkpt lat="45.59058690374262" lon="10.836375941734454"><ele>108.0</ele><time>2026-05-01T03:28:14Z</time></trkpt><trkpt lat="45.590866898587656" lon="10.83653292431429"><ele>108.0</ele><time>2026-05-01T03:28:15Z</time></trkpt><trkpt lat="45.591148371024076" lon="10.836691140014986"><ele>108.0</ele><time>2026-05-01T03:28:16Z</time></trkpt><trkpt lat="45.591431408424654" lon="10.836847408295444"><ele>113.0</ele><time>2026-05-01T03:28:17Z</time></trkpt><trkpt lat="45.59171474612694" lon="10.837005284132806"><ele>118.0</ele><time>2026-05-01T03:28:18Z</time></trkpt><trkpt lat="45.59199649269396" lon="10.837165557754991"><ele>121.5</ele><time>2026-05-01T03:28:19Z</time></trkpt><trkpt lat="45.59227787023588" lon="10.837323196275435"><ele>125.0</ele><time>2026-05-01T03:28:20Z</time></trkpt><trkpt lat="45.59255863108143" lon="10.837478660052776"><ele>125.5</ele><time>2026-05-01T03:28:21Z</time></trkpt><trkpt lat="45.59283912888908" lon="10.83763725097813"><ele>126.0</ele><time>2026-05-01T03:28:22Z</time></trkpt><trkpt lat="45.59311957616707" lon="10.837795372591817"><ele>126.0</ele><time>2026-05-01T03:28:23Z</time></trkpt><trkpt lat="45.59339763008211" lon="10.837952295794604"><ele>126.0</ele><time>2026-05-01T03:28:24Z</time></trkpt><trkpt lat="45.59367353599644" lon="10.838109704179281"><ele>126.0</ele><time>2026-05-01T03:28:25Z</time></trkpt><trkpt lat="45.59394152555353" lon="10.838266125589112"><ele>126.0</ele><time>2026-05-01T03:28:26Z</time></trkpt><trkpt lat="45.594191993731656" lon="10.838417361799019"><ele>126.5</ele><time>2026-05-01T03:28:27Z</time></trkpt><trkpt lat="45.594425932182595" lon="10.83856546373816"><ele>127.0</ele><time>2026-05-01T03:28:28Z</time></trkpt><trkpt lat="45.594651060449365" lon="10.838716192092884"><ele>127.0</ele><time>2026-05-01T03:28:29Z</time></trkpt><trkpt lat="45.59487783307514" lon="10.838880003728095"><ele>127.0</ele><time>2026-05-01T03:28:30Z</time></trkpt><trkpt lat="45.5951059784921" lon="10.839059067542975"><ele>127.0</ele><time>2026-05-01T03:28:31Z</time></trkpt><trkpt lat="45.59533684094154" lon="10.839252972596125"><ele>127.0</ele><time>2026-05-01T03:28:32Z</time></trkpt><trkpt lat="45.5955679533357" lon="10.839454882495193"><ele>127.5</ele><time>2026-05-01T03:28:33Z</time></trkpt><trkpt lat="45.595803462171666" lon="10.839670042253829"><ele>128.0</ele><time>2026-05-01T03:28:34Z</time></trkpt><trkpt lat="45.596040968186976" lon="10.839885853112712"><ele>127.5</ele><time>2026-05-01T03:28:35Z</time></trkpt><trkpt lat="45.59628196328652" lon="10.840102225804904"><ele>127.0</ele><time>2026-05-01T03:28:36Z</time></trkpt><trkpt lat="45.59652505499392" lon="10.840317369772508"><ele>127.0</ele><time>2026-05-01T03:28:37Z</time></trkpt><trkpt lat="45.596767807667575" lon="10.840535556964074"><ele>127.0</ele><time>2026-05-01T03:28:38Z</time></trkpt><trkpt lat="45.59701403378139" lon="10.840758197299222"><ele>127.0</ele><time>2026-05-01T03:28:39Z</time></trkpt><trkpt lat="45.597261215041435" lon="10.840984319962361"><ele>127.0</ele><time>2026-05-01T03:28:40Z</time></trkpt><trkpt lat="45.59751054650501" lon="10.841212056898918"><ele>127.0</ele><time>2026-05-01T03:28:41Z</time></trkpt><trkpt lat="45.59776177090607" lon="10.84144083272448"><ele>127.0</ele><time>2026-05-01T03:28:42Z</time></trkpt><trkpt lat="45.59801452436842" lon="10.841668894268883"><ele>126.0</ele><time>2026-05-01T03:28:43Z</time></trkpt><trkpt lat="45.59826763964972" lon="10.841898264724582"><ele>125.0</ele><time>2026-05-01T03:28:44Z</time></trkpt><trkpt lat="45.59852147575952" lon="10.84212867398191"><ele>125.0</ele><time>2026-05-01T03:28:45Z</time></trkpt><trkpt lat="45.59877434483193" lon="10.84235978735854"><ele>125.0</ele><time>2026-05-01T03:28:46Z</time></trkpt><trkpt lat="45.59902597804129" lon="10.842592078796589"><ele>124.5</ele><time>2026-05-01T03:28:47Z</time></trkpt><trkpt lat="45.599279891270804" lon="10.842826213951636"><ele>124.0</ele><time>2026-05-01T03:28:48Z</time></trkpt><trkpt lat="45.599532697932965" lon="10.843057491007132"><ele>123.0</ele><time>2026-05-01T03:28:49Z</time></trkpt><trkpt lat="45.599783609322294" lon="10.843288388154214"><ele>122.0</ele><time>2026-05-01T03:28:50Z</time></trkpt><trkpt lat="45.6000339827991" lon="10.843517998299294"><ele>122.0</ele><time>2026-05-01T03:28:51Z</time></trkpt><trkpt lat="45.600284305133236" lon="10.84374711678809"><ele>122.0</ele><time>2026-05-01T03:28:52Z</time></trkpt><trkpt lat="45.600532023552844" lon="10.843975643623656"><ele>123.5</ele><time>2026-05-01T03:28:53Z</time></trkpt><trkpt lat="45.60077974398521" lon="10.844201662376776"><ele>125.0</ele><time>2026-05-01T03:28:54Z</time></trkpt><trkpt lat="45.6010262409574" lon="10.844426355973784"><ele>125.0</ele><time>2026-05-01T03:28:55Z</time></trkpt><trkpt lat="45.60127239668525" lon="10.844649118211292"><ele>125.0</ele><time>2026-05-01T03:28:56Z</time></trkpt><trkpt lat="45.60151922739603" lon="10.844870431573574"><ele>125.0</ele><time>2026-05-01T03:28:57Z</time></trkpt><trkpt lat="45.60176622791192" lon="10.845089537013783"><ele>125.0</ele><time>2026-05-01T03:28:58Z</time></trkpt><trkpt lat="45.602016622403596" lon="10.84530307139865"><ele>125.0</ele><time>2026-05-01T03:28:59Z</time></trkpt><trkpt lat="45.602267194931976" lon="10.84551929930919"><ele>125.0</ele><time>2026-05-01T03:29:00Z</time></trkpt><trkpt lat="45.60251967296652" lon="10.84573789423388"><ele>121.5</ele><time>2026-05-01T03:29:01Z</time></trkpt><trkpt lat="45.602767981086934" lon="10.845963463056089"><ele>118.0</ele><time>2026-05-01T03:29:02Z</time></trkpt><trkpt lat="45.60301595313615" lon="10.846190849923806"><ele>117.0</ele><time>2026-05-01T03:29:03Z</time></trkpt><trkpt lat="45.603264750667755" lon="10.84641944728958"><ele>116.0</ele><time>2026-05-01T03:29:04Z</time></trkpt><trkpt lat="45.603512377167384" lon="10.846647242630459"><ele>116.5</ele><time>2026-05-01T03:29:05Z</time></trkpt><trkpt lat="45.603761512910324" lon="10.846871610639608"><ele>117.0</ele><time>2026-05-01T03:29:06Z</time></trkpt><trkpt lat="45.60401062241086" lon="10.847095926573203"><ele>117.0</ele><time>2026-05-01T03:29:07Z</time></trkpt><trkpt lat="45.6042589371558" lon="10.847316658271996"><ele>117.0</ele><time>2026-05-01T03:29:08Z</time></trkpt><trkpt lat="45.60451024124788" lon="10.847534183436428"><ele>116.5</ele><time>2026-05-01T03:29:09Z</time></trkpt><trkpt lat="45.60476192633253" lon="10.847742255904414"><ele>116.0</ele><time>2026-05-01T03:29:10Z</time></trkpt><trkpt lat="45.60501540432198" lon="10.847952743148625"><ele>116.0</ele><time>2026-05-01T03:29:11Z</time></trkpt><trkpt lat="45.605269128579906" lon="10.848156975948267"><ele>116.0</ele><time>2026-05-01T03:29:12Z</time></trkpt><trkpt lat="45.60552381584035" lon="10.848360756431894"><ele>115.0</ele><time>2026-05-01T03:29:13Z</time></trkpt><trkpt lat="45.60578050797309" lon="10.848559124711013"><ele>114.0</ele><time>2026-05-01T03:29:14Z</time></trkpt><trkpt lat="45.60604004226439" lon="10.84875324390866"><ele>115.5</ele><time>2026-05-01T03:29:15Z</time></trkpt><trkpt lat="45.60630549593355" lon="10.848948175379105"><ele>117.0</ele><time>2026-05-01T03:29:16Z</time></trkpt><trkpt lat="45.60657471936223" lon="10.849138350394174"><ele>117.0</ele><time>2026-05-01T03:29:17Z</time></trkpt><trkpt lat="45.606845329139816" lon="10.849329972302437"><ele>117.0</ele><time>2026-05-01T03:29:18Z</time></trkpt><trkpt lat="45.60712102924278" lon="10.849515611715011"><ele>117.0</ele><time>2026-05-01T03:29:19Z</time></trkpt><trkpt lat="45.60739920361729" lon="10.849696448358246"><ele>117.0</ele><time>2026-05-01T03:29:20Z</time></trkpt><trkpt lat="45.60767926571281" lon="10.84987029216935"><ele>118.5</ele><time>2026-05-01T03:29:21Z</time></trkpt><trkpt lat="45.60795871609452" lon="10.850038635662782"><ele>120.0</ele><time>2026-05-01T03:29:22Z</time></trkpt><trkpt lat="45.60823899997506" lon="10.850200473998827"><ele>119.0</ele><time>2026-05-01T03:29:23Z</time></trkpt><trkpt lat="45.60851715793033" lon="10.850358846467994"><ele>118.0</ele><time>2026-05-01T03:29:24Z</time></trkpt><trkpt lat="45.608794559819984" lon="10.85051415943892"><ele>118.0</ele><time>2026-05-01T03:29:25Z</time></trkpt><trkpt lat="45.609069673451" lon="10.850671453065441"><ele>118.0</ele><time>2026-05-01T03:29:26Z</time></trkpt><trkpt lat="45.60934369955332" lon="10.850830366258018"><ele>115.0</ele><time>2026-05-01T03:29:27Z</time></trkpt><trkpt lat="45.609619600739414" lon="10.850984529524847"><ele>112.0</ele><time>2026-05-01T03:29:28Z</time></trkpt><trkpt lat="45.60989739779585" lon="10.851129376916921"><ele>112.0</ele><time>2026-05-01T03:29:29Z</time></trkpt><trkpt lat="45.61017312443233" lon="10.851273562279363"><ele>112.0</ele><time>2026-05-01T03:29:30Z</time></trkpt><trkpt lat="45.61044759859268" lon="10.851421364366619"><ele>111.0</ele><time>2026-05-01T03:29:31Z</time></trkpt><trkpt lat="45.61070794325087" lon="10.851570390005175"><ele>110.0</ele><time>2026-05-01T03:29:32Z</time></trkpt><trkpt lat="45.61097336925543" lon="10.851730849188348"><ele>109.0</ele><time>2026-05-01T03:29:33Z</time></trkpt><trkpt lat="45.61124263780126" lon="10.85190094016082"><ele>108.0</ele><time>2026-05-01T03:29:34Z</time></trkpt><trkpt lat="45.61151271721982" lon="10.85208717965627"><ele>108.0</ele><time>2026-05-01T03:29:35Z</time></trkpt><trkpt lat="45.61177740336963" lon="10.852292757708724"><ele>108.0</ele><time>2026-05-01T03:29:36Z</time></trkpt><trkpt lat="45.61203839143197" lon="10.852509744431204"><ele>106.0</ele><time>2026-05-01T03:29:37Z</time></trkpt><trkpt lat="45.61229580728303" lon="10.852734917131736"><ele>104.0</ele><time>2026-05-01T03:29:38Z</time></trkpt><trkpt lat="45.61255124400548" lon="10.852970234529035"><ele>104.0</ele><time>2026-05-01T03:29:39Z</time></trkpt><trkpt lat="45.612803066609" lon="10.853206527134853"><ele>104.0</ele><time>2026-05-01T03:29:40Z</time></trkpt><trkpt lat="45.61305152478846" lon="10.853446358202364"><ele>104.5</ele><time>2026-05-01T03:29:41Z</time></trkpt><trkpt lat="45.61329840131696" lon="10.853692463742556"><ele>105.0</ele><time>2026-05-01T03:29:42Z</time></trkpt><trkpt lat="45.61354488564941" lon="10.853939212343612"><ele>107.0</ele><time>2026-05-01T03:29:43Z</time></trkpt><trkpt lat="45.61379179901712" lon="10.854177617532471"><ele>109.0</ele><time>2026-05-01T03:29:44Z</time></trkpt><trkpt lat="45.61403556578907" lon="10.854418606761307"><ele>113.0</ele><time>2026-05-01T03:29:45Z</time></trkpt><trkpt lat="45.61427703402243" lon="10.854656355070883"><ele>117.0</ele><time>2026-05-01T03:29:46Z</time></trkpt><trkpt lat="45.61451786992435" lon="10.854895931079122"><ele>118.5</ele><time>2026-05-01T03:29:47Z</time></trkpt><trkpt lat="45.61475761137316" lon="10.855135870186338"><ele>120.0</ele><time>2026-05-01T03:29:48Z</time></trkpt><trkpt lat="45.614996152980524" lon="10.855378460771217"><ele>120.0</ele><time>2026-05-01T03:29:49Z</time></trkpt><trkpt lat="45.6152354441095" lon="10.855616166278931"><ele>120.0</ele><time>2026-05-01T03:29:50Z</time></trkpt><trkpt lat="45.6154757612053" lon="10.855853256469777"><ele>119.5</ele><time>2026-05-01T03:29:51Z</time></trkpt><trkpt lat="45.61571534347484" lon="10.856088026764052"><ele>119.0</ele><time>2026-05-01T03:29:52Z</time></trkpt><trkpt lat="45.61595536195216" lon="10.856323015498386"><ele>119.5</ele><time>2026-05-01T03:29:53Z</time></trkpt><trkpt lat="45.616193817567506" lon="10.856556787819965"><ele>120.0</ele><time>2026-05-01T03:29:54Z</time></trkpt><trkpt lat="45.616434404003805" lon="10.856791028986503"><ele>120.0</ele><time>2026-05-01T03:29:55Z</time></trkpt><trkpt lat="45.61667434546375" lon="10.857023871018841"><ele>120.0</ele><time>2026-05-01T03:29:56Z</time></trkpt><trkpt lat="45.616911777612295" lon="10.85726169880487"><ele>120.0</ele><time>2026-05-01T03:29:57Z</time></trkpt><trkpt lat="45.617150333633425" lon="10.857500181630977"><ele>120.0</ele><time>2026-05-01T03:29:58Z</time></trkpt><trkpt lat="45.61739048302259" lon="10.857738527917821"><ele>120.0</ele><time>2026-05-01T03:29:59Z</time></trkpt><trkpt lat="45.61763178666313" lon="10.857975493009603"><ele>120.0</ele><time>2026-05-01T03:30:00Z</time></trkpt><trkpt lat="45.61787594139474" lon="10.858213179573216"><ele>118.5</ele><time>2026-05-01T03:30:01Z</time></trkpt><trkpt lat="45.6181193261642" lon="10.858448748610318"><ele>117.0</ele><time>2026-05-01T03:30:02Z</time></trkpt><trkpt lat="45.61836446077007" lon="10.858688169219626"><ele>114.5</ele><time>2026-05-01T03:30:03Z</time></trkpt><trkpt lat="45.618610672891414" lon="10.858930787429045"><ele>112.0</ele><time>2026-05-01T03:30:04Z</time></trkpt><trkpt lat="45.61885861365864" lon="10.85917112958332"><ele>109.0</ele><time>2026-05-01T03:30:05Z</time></trkpt><trkpt lat="45.619106300445246" lon="10.859415174958727"><ele>106.0</ele><time>2026-05-01T03:30:06Z</time></trkpt><trkpt lat="45.61935485598473" lon="10.859657868149544"><ele>106.5</ele><time>2026-05-01T03:30:07Z</time></trkpt><trkpt lat="45.619602977058356" lon="10.859902512868562"><ele>107.0</ele><time>2026-05-01T03:30:08Z</time></trkpt><trkpt lat="45.61985039585713" lon="10.860143404873845"><ele>107.5</ele><time>2026-05-01T03:30:09Z</time></trkpt><trkpt lat="45.62009877825681" lon="10.860389320000413"><ele>108.0</ele><time>2026-05-01T03:30:10Z</time></trkpt><trkpt lat="45.62034556834375" lon="10.86063489143659"><ele>108.5</ele><time>2026-05-01T03:30:11Z</time></trkpt><trkpt lat="45.620593346811916" lon="10.860879171975705"><ele>109.0</ele><time>2026-05-01T03:30:12Z</time></trkpt><trkpt lat="45.620842333793775" lon="10.86112259115808"><ele>109.0</ele><time>2026-05-01T03:30:13Z</time></trkpt><trkpt lat="45.621093065618254" lon="10.861359202553722"><ele>109.0</ele><time>2026-05-01T03:30:14Z</time></trkpt><trkpt lat="45.621346401980375" lon="10.861592404857786"><ele>110.5</ele><time>2026-05-01T03:30:15Z</time></trkpt><trkpt lat="45.62160314669077" lon="10.861819368838043"><ele>112.0</ele><time>2026-05-01T03:30:16Z</time></trkpt><trkpt lat="45.62186086440535" lon="10.862038935076587"><ele>114.0</ele><time>2026-05-01T03:30:17Z</time></trkpt><trkpt lat="45.622120350677804" lon="10.86225717510338"><ele>116.0</ele><time>2026-05-01T03:30:18Z</time></trkpt><trkpt lat="45.622376377775105" lon="10.862477815953856"><ele>115.5</ele><time>2026-05-01T03:30:19Z</time></trkpt><trkpt lat="45.62263217946368" lon="10.862699514573487"><ele>115.0</ele><time>2026-05-01T03:30:20Z</time></trkpt><trkpt lat="45.62288678692239" lon="10.862921816565635"><ele>118.0</ele><time>2026-05-01T03:30:21Z</time></trkpt><trkpt lat="45.62314005221405" lon="10.863140177977478"><ele>121.0</ele><time>2026-05-01T03:30:22Z</time></trkpt><trkpt lat="45.62339410161484" lon="10.863354251058995"><ele>122.5</ele><time>2026-05-01T03:30:23Z</time></trkpt><trkpt lat="45.62364855525045" lon="10.863567661521511"><ele>124.0</ele><time>2026-05-01T03:30:24Z</time></trkpt><trkpt lat="45.623902541179255" lon="10.863782276260226"><ele>124.0</ele><time>2026-05-01T03:30:25Z</time></trkpt><trkpt lat="45.62415835797181" lon="10.86399571968717"><ele>124.0</ele><time>2026-05-01T03:30:26Z</time></trkpt><trkpt lat="45.62441273370136" lon="10.864208993360283"><ele>124.0</ele><time>2026-05-01T03:30:27Z</time></trkpt><trkpt lat="45.62466352056776" lon="10.864422285762592"><ele>124.0</ele><time>2026-05-01T03:30:28Z</time></trkpt><trkpt lat="45.62491543837502" lon="10.864636900491758"><ele>124.0</ele><time>2026-05-01T03:30:29Z</time></trkpt><trkpt lat="45.625167369538794" lon="10.864855358665805"><ele>124.0</ele><time>2026-05-01T03:30:30Z</time></trkpt><trkpt lat="45.62541961515012" lon="10.865068410076846"><ele>124.0</ele><time>2026-05-01T03:30:31Z</time></trkpt><trkpt lat="45.625672766145506" lon="10.86528257658374"><ele>124.0</ele><time>2026-05-01T03:30:32Z</time></trkpt><trkpt lat="45.62592582581677" lon="10.865497940782326"><ele>124.5</ele><time>2026-05-01T03:30:33Z</time></trkpt><trkpt lat="45.626180276097784" lon="10.865717453725622"><ele>125.0</ele><time>2026-05-01T03:30:34Z</time></trkpt><trkpt lat="45.6264336773857" lon="10.865938389354897"><ele>124.0</ele><time>2026-05-01T03:30:35Z</time></trkpt><trkpt lat="45.62668844854091" lon="10.866158735804056"><ele>123.0</ele><time>2026-05-01T03:30:36Z</time></trkpt><trkpt lat="45.62694621509329" lon="10.866372258669543"><ele>122.5</ele><time>2026-05-01T03:30:37Z</time></trkpt><trkpt lat="45.6272039546302" lon="10.866586211874285"><ele>122.0</ele><time>2026-05-01T03:30:38Z</time></trkpt><trkpt lat="45.62746181661833" lon="10.866808066663648"><ele>121.5</ele><time>2026-05-01T03:30:39Z</time></trkpt><trkpt lat="45.62772094271072" lon="10.867027130104509"><ele>121.0</ele><time>2026-05-01T03:30:40Z</time></trkpt><trkpt lat="45.62798104587844" lon="10.867246548757876"><ele>122.0</ele><time>2026-05-01T03:30:41Z</time></trkpt><trkpt lat="45.62824059846093" lon="10.86746736563595"><ele>123.0</ele><time>2026-05-01T03:30:42Z</time></trkpt><trkpt lat="45.62849869012465" lon="10.867689199565769"><ele>124.0</ele><time>2026-05-01T03:30:43Z</time></trkpt><trkpt lat="45.628748880371454" lon="10.867903891329933"><ele>125.0</ele><time>2026-05-01T03:30:44Z</time></trkpt><trkpt lat="45.62899765119621" lon="10.868113761413662"><ele>125.0</ele><time>2026-05-01T03:30:45Z</time></trkpt><trkpt lat="45.629251565817476" lon="10.868332188570196"><ele>125.0</ele><time>2026-05-01T03:30:46Z</time></trkpt><trkpt lat="45.629509224014264" lon="10.868551892171716"><ele>124.5</ele><time>2026-05-01T03:30:47Z</time></trkpt><trkpt lat="45.629770999386885" lon="10.868779123561405"><ele>124.0</ele><time>2026-05-01T03:30:48Z</time></trkpt><trkpt lat="45.63003414287166" lon="10.869003735655813"><ele>124.0</ele><time>2026-05-01T03:30:49Z</time></trkpt><trkpt lat="45.63029700951495" lon="10.86922917852576"><ele>124.0</ele><time>2026-05-01T03:30:50Z</time></trkpt><trkpt lat="45.630561371404674" lon="10.869453287018157"><ele>123.0</ele><time>2026-05-01T03:30:51Z</time></trkpt><trkpt lat="45.630823026576124" lon="10.86967330592393"><ele>122.0</ele><time>2026-05-01T03:30:52Z</time></trkpt><trkpt lat="45.631082886082154" lon="10.869892738352899"><ele>122.0</ele><time>2026-05-01T03:30:53Z</time></trkpt><trkpt lat="45.63134198185443" lon="10.870110931875638"><ele>122.0</ele><time>2026-05-01T03:30:54Z</time></trkpt><trkpt lat="45.6316006481134" lon="10.87033035953795"><ele>122.0</ele><time>2026-05-01T03:30:55Z</time></trkpt><trkpt lat="45.63185846232939" lon="10.870548750664177"><ele>122.0</ele><time>2026-05-01T03:30:56Z</time></trkpt><trkpt lat="45.63211750377401" lon="10.870769474848055"><ele>123.5</ele><time>2026-05-01T03:30:57Z</time></trkpt><trkpt lat="45.63237595849781" lon="10.870990735074225"><ele>125.0</ele><time>2026-05-01T03:30:58Z</time></trkpt><trkpt lat="45.632640169766745" lon="10.871213542024917"><ele>124.0</ele><time>2026-05-01T03:30:59Z</time></trkpt><trkpt lat="45.63290308250436" lon="10.871437066850358"><ele>123.0</ele><time>2026-05-01T03:31:00Z</time></trkpt><trkpt lat="45.63316494640443" lon="10.871660346424616"><ele>123.0</ele><time>2026-05-01T03:31:01Z</time></trkpt><trkpt lat="45.633427381680846" lon="10.871885082989051"><ele>123.0</ele><time>2026-05-01T03:31:02Z</time></trkpt><trkpt lat="45.63368822621712" lon="10.872107686535932"><ele>123.0</ele><time>2026-05-01T03:31:03Z</time></trkpt><trkpt lat="45.63394796467009" lon="10.872328798643721"><ele>123.0</ele><time>2026-05-01T03:31:04Z</time></trkpt><trkpt lat="45.63420556094572" lon="10.872548508594386"><ele>122.5</ele><time>2026-05-01T03:31:05Z</time></trkpt><trkpt lat="45.63446245070247" lon="10.872768819278857"><ele>122.0</ele><time>2026-05-01T03:31:06Z</time></trkpt><trkpt lat="45.63471873178556" lon="10.8729842879832"><ele>121.0</ele><time>2026-05-01T03:31:07Z</time></trkpt><trkpt lat="45.634974818143924" lon="10.873197885648706"><ele>120.0</ele><time>2026-05-01T03:31:08Z</time></trkpt><trkpt lat="45.63523100457615" lon="10.873413523203224"><ele>121.0</ele><time>2026-05-01T03:31:09Z</time></trkpt><trkpt lat="45.635487057436904" lon="10.87363126710553"><ele>122.0</ele><time>2026-05-01T03:31:10Z</time></trkpt><trkpt lat="45.635741347889265" lon="10.873854558669988"><ele>122.0</ele><time>2026-05-01T03:31:11Z</time></trkpt><trkpt lat="45.63599268159868" lon="10.87408401042411"><ele>122.0</ele><time>2026-05-01T03:31:12Z</time></trkpt><trkpt lat="45.63624101456569" lon="10.874321267285511"><ele>121.5</ele><time>2026-05-01T03:31:13Z</time></trkpt><trkpt lat="45.63648892052404" lon="10.874557424809783"><ele>121.0</ele><time>2026-05-01T03:31:14Z</time></trkpt><trkpt lat="45.63673891037517" lon="10.8747893720209"><ele>121.0</ele><time>2026-05-01T03:31:15Z</time></trkpt><trkpt lat="45.63698893835061" lon="10.875018139958945"><ele>121.0</ele><time>2026-05-01T03:31:16Z</time></trkpt><trkpt lat="45.6372382045927" lon="10.875257014553537"><ele>121.0</ele><time>2026-05-01T03:31:17Z</time></trkpt><trkpt lat="45.637483632490884" lon="10.875496335905352"><ele>121.0</ele><time>2026-05-01T03:31:18Z</time></trkpt><trkpt lat="45.6377301378429" lon="10.87573732678724"><ele>120.5</ele><time>2026-05-01T03:31:19Z</time></trkpt><trkpt lat="45.63797701018157" lon="10.875984702300935"><ele>120.0</ele><time>2026-05-01T03:31:20Z</time></trkpt><trkpt lat="45.63822054038121" lon="10.876242486072465"><ele>120.0</ele><time>2026-05-01T03:31:21Z</time></trkpt><trkpt lat="45.638454585013605" lon="10.876513315564726"><ele>120.0</ele><time>2026-05-01T03:31:22Z</time></trkpt><trkpt lat="45.638680775010656" lon="10.876802503630788"><ele>120.5</ele><time>2026-05-01T03:31:23Z</time></trkpt><trkpt lat="45.638904455660004" lon="10.877098735848184"><ele>121.0</ele><time>2026-05-01T03:31:24Z</time></trkpt><trkpt lat="45.63913254149579" lon="10.877392351768028"><ele>120.5</ele><time>2026-05-01T03:31:25Z</time></trkpt><trkpt lat="45.63936353901142" lon="10.87767839499621"><ele>120.0</ele><time>2026-05-01T03:31:26Z</time></trkpt><trkpt lat="45.63959696611741" lon="10.877950449509028"><ele>120.0</ele><time>2026-05-01T03:31:27Z</time></trkpt><trkpt lat="45.63983694672236" lon="10.878204782145422"><ele>120.0</ele><time>2026-05-01T03:31:28Z</time></trkpt><trkpt lat="45.640086522984234" lon="10.878442310605031"><ele>118.5</ele><time>2026-05-01T03:31:29Z</time></trkpt><trkpt lat="45.64034191142366" lon="10.878667514671175"><ele>117.0</ele><time>2026-05-01T03:31:30Z</time></trkpt><trkpt lat="45.640602547738226" lon="10.878878575773038"><ele>117.0</ele><time>2026-05-01T03:31:31Z</time></trkpt><trkpt lat="45.64086797905343" lon="10.879082132053881"><ele>117.0</ele><time>2026-05-01T03:31:32Z</time></trkpt><trkpt lat="45.641134853289806" lon="10.879281305370656"><ele>116.5</ele><time>2026-05-01T03:31:33Z</time></trkpt><trkpt lat="45.64140495293776" lon="10.879478563250348"><ele>116.0</ele><time>2026-05-01T03:31:34Z</time></trkpt><trkpt lat="45.64167223198337" lon="10.879677544305766"><ele>116.0</ele><time>2026-05-01T03:31:35Z</time></trkpt><trkpt lat="45.641934373419204" lon="10.879889020020153"><ele>116.0</ele><time>2026-05-01T03:31:36Z</time></trkpt><trkpt lat="45.642189083690525" lon="10.880113035247632"><ele>113.0</ele><time>2026-05-01T03:31:37Z</time></trkpt><trkpt lat="45.64244059203787" lon="10.880351212085456"><ele>110.0</ele><time>2026-05-01T03:31:38Z</time></trkpt><trkpt lat="45.64268958820164" lon="10.880598264930956"><ele>109.0</ele><time>2026-05-01T03:31:39Z</time></trkpt><trkpt lat="45.64294129812833" lon="10.880843936404109"><ele>108.0</ele><time>2026-05-01T03:31:40Z</time></trkpt><trkpt lat="45.64319510863665" lon="10.88109006493939"><ele>110.5</ele><time>2026-05-01T03:31:41Z</time></trkpt><trkpt lat="45.64345001151197" lon="10.881338124165257"><ele>113.0</ele><time>2026-05-01T03:31:42Z</time></trkpt><trkpt lat="45.643704667029525" lon="10.88158886485414"><ele>117.0</ele><time>2026-05-01T03:31:43Z</time></trkpt><trkpt lat="45.64396154042842" lon="10.881841401635004"><ele>121.0</ele><time>2026-05-01T03:31:44Z</time></trkpt><trkpt lat="45.644215435632766" lon="10.88208736585555"><ele>121.0</ele><time>2026-05-01T03:31:45Z</time></trkpt><trkpt lat="45.64446043718897" lon="10.882320358683286"><ele>121.0</ele><time>2026-05-01T03:31:46Z</time></trkpt><trkpt lat="45.644714896962576" lon="10.882558792116921"><ele>121.0</ele><time>2026-05-01T03:31:47Z</time></trkpt><trkpt lat="45.64497465123001" lon="10.882797466663149"><ele>121.0</ele><time>2026-05-01T03:31:48Z</time></trkpt><trkpt lat="45.645237760447095" lon="10.883028641272823"><ele>119.0</ele><time>2026-05-01T03:31:49Z</time></trkpt><trkpt lat="45.64550570290787" lon="10.88325033869257"><ele>117.0</ele><time>2026-05-01T03:31:50Z</time></trkpt><trkpt lat="45.645775449266914" lon="10.883468548181662"><ele>117.0</ele><time>2026-05-01T03:31:51Z</time></trkpt><trkpt lat="45.64604502385325" lon="10.883683487532343"><ele>117.0</ele><time>2026-05-01T03:31:52Z</time></trkpt><trkpt lat="45.64631492773974" lon="10.883894892854153"><ele>115.5</ele><time>2026-05-01T03:31:53Z</time></trkpt><trkpt lat="45.64658666101103" lon="10.884102484900477"><ele>114.0</ele><time>2026-05-01T03:31:54Z</time></trkpt><trkpt lat="45.646857772506145" lon="10.884307968164872"><ele>112.0</ele><time>2026-05-01T03:31:55Z</time></trkpt><trkpt lat="45.647129485108536" lon="10.88451034917288"><ele>110.0</ele><time>2026-05-01T03:31:56Z</time></trkpt><trkpt lat="45.64740033008411" lon="10.884713368998982"><ele>110.0</ele><time>2026-05-01T03:31:57Z</time></trkpt><trkpt lat="45.64767282549418" lon="10.884916147906248"><ele>110.0</ele><time>2026-05-01T03:31:58Z</time></trkpt><trkpt lat="45.647944951915235" lon="10.885119037982298"><ele>112.5</ele><time>2026-05-01T03:31:59Z</time></trkpt><trkpt lat="45.64821755705887" lon="10.885321646983222"><ele>115.0</ele><time>2026-05-01T03:32:00Z</time></trkpt><trkpt lat="45.648489529213926" lon="10.885525158764246"><ele>118.0</ele><time>2026-05-01T03:32:01Z</time></trkpt><trkpt lat="45.64876027688983" lon="10.885727592060386"><ele>121.0</ele><time>2026-05-01T03:32:02Z</time></trkpt><trkpt lat="45.649029306181646" lon="10.885929722278808"><ele>121.0</ele><time>2026-05-01T03:32:03Z</time></trkpt><trkpt lat="45.64929648815956" lon="10.886130927610246"><ele>121.0</ele><time>2026-05-01T03:32:04Z</time></trkpt><trkpt lat="45.6495637688906" lon="10.886330113486782"><ele>122.0</ele><time>2026-05-01T03:32:05Z</time></trkpt><trkpt lat="45.64983175036064" lon="10.886528714292744"><ele>123.0</ele><time>2026-05-01T03:32:06Z</time></trkpt><trkpt lat="45.65009919913044" lon="10.886725829847318"><ele>123.0</ele><time>2026-05-01T03:32:07Z</time></trkpt><trkpt lat="45.65036847799912" lon="10.886925632137082"><ele>123.0</ele><time>2026-05-01T03:32:08Z</time></trkpt><trkpt lat="45.65063709802307" lon="10.88712625645215"><ele>123.0</ele><time>2026-05-01T03:32:09Z</time></trkpt><trkpt lat="45.65090402865851" lon="10.887329520343673"><ele>123.0</ele><time>2026-05-01T03:32:10Z</time></trkpt><trkpt lat="45.6511687998935" lon="10.887533113837524"><ele>123.5</ele><time>2026-05-01T03:32:11Z</time></trkpt><trkpt lat="45.65143456734391" lon="10.887734382264693"><ele>124.0</ele><time>2026-05-01T03:32:12Z</time></trkpt><trkpt lat="45.6517014443499" lon="10.887934676050678"><ele>128.0</ele><time>2026-05-01T03:32:13Z</time></trkpt><trkpt lat="45.65196853874868" lon="10.888137219020555"><ele>132.0</ele><time>2026-05-01T03:32:14Z</time></trkpt><trkpt lat="45.65223556235585" lon="10.88833561275799"><ele>131.0</ele><time>2026-05-01T03:32:15Z</time></trkpt><trkpt lat="45.65250068923543" lon="10.888532314300951"><ele>130.0</ele><time>2026-05-01T03:32:16Z</time></trkpt><trkpt lat="45.65276664245234" lon="10.888729917700772"><ele>130.5</ele><time>2026-05-01T03:32:17Z</time></trkpt><trkpt lat="45.65303247555403" lon="10.888926001970242"><ele>131.0</ele><time>2026-05-01T03:32:18Z</time></trkpt><trkpt lat="45.65329693436968" lon="10.88911957188663"><ele>131.0</ele><time>2026-05-01T03:32:19Z</time></trkpt><trkpt lat="45.65356033556381" lon="10.889315805690533"><ele>131.0</ele><time>2026-05-01T03:32:20Z</time></trkpt><trkpt lat="45.65382400303589" lon="10.889509801766032"><ele>131.0</ele><time>2026-05-01T03:32:21Z</time></trkpt><trkpt lat="45.65408521497877" lon="10.889703281452245"><ele>131.0</ele><time>2026-05-01T03:32:22Z</time></trkpt><trkpt lat="45.654345142012" lon="10.889898559127488"><ele>131.5</ele><time>2026-05-01T03:32:23Z</time></trkpt><trkpt lat="45.65460199600173" lon="10.89009776699193"><ele>132.0</ele><time>2026-05-01T03:32:24Z</time></trkpt><trkpt lat="45.654855600412866" lon="10.890304874305562"><ele>132.0</ele><time>2026-05-01T03:32:25Z</time></trkpt><trkpt lat="45.65511074490153" lon="10.89051208044605"><ele>132.0</ele><time>2026-05-01T03:32:26Z</time></trkpt><trkpt lat="45.65536931376164" lon="10.890721968886256"><ele>132.5</ele><time>2026-05-01T03:32:27Z</time></trkpt><trkpt lat="45.655634157396506" lon="10.890908736658634"><ele>133.0</ele><time>2026-05-01T03:32:28Z</time></trkpt><trkpt lat="45.65589427825723" lon="10.891132098391964"><ele>133.0</ele><time>2026-05-01T03:32:29Z</time></trkpt><trkpt lat="45.656161696608564" lon="10.891332123967212"><ele>133.0</ele><time>2026-05-01T03:32:30Z</time></trkpt><trkpt lat="45.65643188161723" lon="10.891527662731262"><ele>133.0</ele><time>2026-05-01T03:32:31Z</time></trkpt><trkpt lat="45.65670671430299" lon="10.89171983508842"><ele>133.0</ele><time>2026-05-01T03:32:32Z</time></trkpt><trkpt lat="45.656981639779325" lon="10.891906094604225"><ele>133.0</ele><time>2026-05-01T03:32:33Z</time></trkpt><trkpt lat="45.657259059530936" lon="10.892084595448072"><ele>133.0</ele><time>2026-05-01T03:32:34Z</time></trkpt><trkpt lat="45.65753872150658" lon="10.89225233911491"><ele>132.5</ele><time>2026-05-01T03:32:35Z</time></trkpt><trkpt lat="45.65781709187654" lon="10.892412028311275"><ele>132.0</ele><time>2026-05-01T03:32:36Z</time></trkpt><trkpt lat="45.658099317942415" lon="10.892565666179266"><ele>131.0</ele><time>2026-05-01T03:32:37Z</time></trkpt><trkpt lat="45.65838234882207" lon="10.892709571886446"><ele>130.0</ele><time>2026-05-01T03:32:38Z</time></trkpt><trkpt lat="45.65866691193832" lon="10.892845571011152"><ele>130.0</ele><time>2026-05-01T03:32:39Z</time></trkpt><trkpt lat="45.658953158245254" lon="10.89297364229965"><ele>130.0</ele><time>2026-05-01T03:32:40Z</time></trkpt><trkpt lat="45.65924181897461" lon="10.89309535380426"><ele>131.0</ele><time>2026-05-01T03:32:41Z</time></trkpt><trkpt lat="45.659527543496125" lon="10.89321166110492"><ele>132.0</ele><time>2026-05-01T03:32:42Z</time></trkpt><trkpt lat="45.6598155266112" lon="10.893321395735716"><ele>130.0</ele><time>2026-05-01T03:32:43Z</time></trkpt><trkpt lat="45.6601079037611" lon="10.893430152757"><ele>128.0</ele><time>2026-05-01T03:32:44Z</time></trkpt><trkpt lat="45.6603968246732" lon="10.893541346942273"><ele>127.0</ele><time>2026-05-01T03:32:45Z</time></trkpt><trkpt lat="45.66068832307548" lon="10.893652420785967"><ele>126.0</ele><time>2026-05-01T03:32:46Z</time></trkpt><trkpt lat="45.66098049011151" lon="10.893764596882328"><ele>126.5</ele><time>2026-05-01T03:32:47Z</time></trkpt><trkpt lat="45.66127206961759" lon="10.893873123973911"><ele>127.0</ele><time>2026-05-01T03:32:48Z</time></trkpt><trkpt lat="45.661565666032196" lon="10.893980012850966"><ele>127.0</ele><time>2026-05-01T03:32:49Z</time></trkpt><trkpt lat="45.66185627364529" lon="10.894088341519828"><ele>127.0</ele><time>2026-05-01T03:32:50Z</time></trkpt><trkpt lat="45.66214835015549" lon="10.894200174323156"><ele>125.5</ele><time>2026-05-01T03:32:51Z</time></trkpt><trkpt lat="45.66243876005348" lon="10.894312334289017"><ele>124.0</ele><time>2026-05-01T03:32:52Z</time></trkpt><trkpt lat="45.66273010516971" lon="10.894424804303162"><ele>124.0</ele><time>2026-05-01T03:32:53Z</time></trkpt><trkpt lat="45.66301988673574" lon="10.894543947349366"><ele>124.0</ele><time>2026-05-01T03:32:54Z</time></trkpt><trkpt lat="45.663307363089196" lon="10.894668631443583"><ele>124.0</ele><time>2026-05-01T03:32:55Z</time></trkpt><trkpt lat="45.66359553736801" lon="10.894800102391851"><ele>124.0</ele><time>2026-05-01T03:32:56Z</time></trkpt><trkpt lat="45.66388236630808" lon="10.894938941488242"><ele>123.5</ele><time>2026-05-01T03:32:57Z</time></trkpt><trkpt lat="45.66416963759382" lon="10.89507920194203"><ele>123.0</ele><time>2026-05-01T03:32:58Z</time></trkpt><trkpt lat="45.66445571379458" lon="10.895224301093519"><ele>121.5</ele><time>2026-05-01T03:32:59Z</time></trkpt><trkpt lat="45.66474143899288" lon="10.895372582285518"><ele>120.0</ele><time>2026-05-01T03:33:00Z</time></trkpt><trkpt lat="45.66502696528829" lon="10.895522294696118"><ele>120.0</ele><time>2026-05-01T03:33:01Z</time></trkpt><trkpt lat="45.665309493438336" lon="10.895677970371516"><ele>120.0</ele><time>2026-05-01T03:33:02Z</time></trkpt><trkpt lat="45.66559133870023" lon="10.895841784038971"><ele>119.0</ele><time>2026-05-01T03:33:03Z</time></trkpt><trkpt lat="45.66586696341654" lon="10.896015175500862"><ele>118.0</ele><time>2026-05-01T03:33:04Z</time></trkpt><trkpt lat="45.66613882121649" lon="10.896197381696776"><ele>118.0</ele><time>2026-05-01T03:33:05Z</time></trkpt><trkpt lat="45.66640904476382" lon="10.896386053394176"><ele>118.0</ele><time>2026-05-01T03:33:06Z</time></trkpt><trkpt lat="45.66667838803361" lon="10.8965801591005"><ele>117.5</ele><time>2026-05-01T03:33:07Z</time></trkpt><trkpt lat="45.66694618471829" lon="10.896770459568302"><ele>117.0</ele><time>2026-05-01T03:33:08Z</time></trkpt><trkpt lat="45.66721411637403" lon="10.896962140193779"><ele>117.0</ele><time>2026-05-01T03:33:09Z</time></trkpt><trkpt lat="45.667484173582125" lon="10.8971454866463"><ele>117.0</ele><time>2026-05-01T03:33:10Z</time></trkpt><trkpt lat="45.66775207463438" lon="10.89732332160085"><ele>118.0</ele><time>2026-05-01T03:33:11Z</time></trkpt><trkpt lat="45.66801543686546" lon="10.897511510580982"><ele>119.0</ele><time>2026-05-01T03:33:12Z</time></trkpt><trkpt lat="45.66827547541303" lon="10.897703605585995"><ele>117.0</ele><time>2026-05-01T03:33:13Z</time></trkpt><trkpt lat="45.66852925690559" lon="10.897887038552831"><ele>115.0</ele><time>2026-05-01T03:33:14Z</time></trkpt><trkpt lat="45.6687826091249" lon="10.898067847580336"><ele>114.0</ele><time>2026-05-01T03:33:15Z</time></trkpt><trkpt lat="45.66904107850245" lon="10.898247124639187"><ele>113.0</ele><time>2026-05-01T03:33:16Z</time></trkpt><trkpt lat="45.66930371385688" lon="10.898431467180435"><ele>114.0</ele><time>2026-05-01T03:33:17Z</time></trkpt><trkpt lat="45.66956995824074" lon="10.898615383486774"><ele>115.0</ele><time>2026-05-01T03:33:18Z</time></trkpt><trkpt lat="45.66984008460043" lon="10.898801650586494"><ele>115.0</ele><time>2026-05-01T03:33:19Z</time></trkpt><trkpt lat="45.67011053815709" lon="10.898991514805001"><ele>115.0</ele><time>2026-05-01T03:33:20Z</time></trkpt><trkpt lat="45.67038017473473" lon="10.899181045807813"><ele>118.5</ele><time>2026-05-01T03:33:21Z</time></trkpt><trkpt lat="45.6706532812134" lon="10.899366484615909"><ele>122.0</ele><time>2026-05-01T03:33:22Z</time></trkpt><trkpt lat="45.67092528398983" lon="10.899551807828999"><ele>123.0</ele><time>2026-05-01T03:33:23Z</time></trkpt><trkpt lat="45.67119854374253" lon="10.899738060575338"><ele>124.0</ele><time>2026-05-01T03:33:24Z</time></trkpt><trkpt lat="45.6714721591336" lon="10.899925787466682"><ele>125.0</ele><time>2026-05-01T03:33:25Z</time></trkpt><trkpt lat="45.671745882665675" lon="10.900115159811293"><ele>126.0</ele><time>2026-05-01T03:33:26Z</time></trkpt><trkpt lat="45.6720185060148" lon="10.900305546963732"><ele>126.0</ele><time>2026-05-01T03:33:27Z</time></trkpt><trkpt lat="45.672291481273305" lon="10.90049642483433"><ele>126.0</ele><time>2026-05-01T03:33:28Z</time></trkpt><trkpt lat="45.67256401546246" lon="10.900685709888418"><ele>125.5</ele><time>2026-05-01T03:33:29Z</time></trkpt><trkpt lat="45.67283661681009" lon="10.900873367663317"><ele>125.0</ele><time>2026-05-01T03:33:30Z</time></trkpt><trkpt lat="45.673108201291726" lon="10.901060667503138"><ele>127.0</ele><time>2026-05-01T03:33:31Z</time></trkpt><trkpt lat="45.673382389093724" lon="10.901250986695008"><ele>129.0</ele><time>2026-05-01T03:33:32Z</time></trkpt><trkpt lat="45.6736569728151" lon="10.901439486586426"><ele>129.0</ele><time>2026-05-01T03:33:33Z</time></trkpt><trkpt lat="45.67392878222866" lon="10.901629438343425"><ele>129.0</ele><time>2026-05-01T03:33:34Z</time></trkpt><trkpt lat="45.67420160829167" lon="10.901816000534927"><ele>129.5</ele><time>2026-05-01T03:33:35Z</time></trkpt><trkpt lat="45.67447332574907" lon="10.902002183212328"><ele>130.0</ele><time>2026-05-01T03:33:36Z</time></trkpt><trkpt lat="45.67474660649782" lon="10.902189654137477"><ele>130.0</ele><time>2026-05-01T03:33:37Z</time></trkpt><trkpt lat="45.67501931203144" lon="10.902378264506133"><ele>130.0</ele><time>2026-05-01T03:33:38Z</time></trkpt><trkpt lat="45.6752920667831" lon="10.902563593142094"><ele>128.0</ele><time>2026-05-01T03:33:39Z</time></trkpt><trkpt lat="45.67556621027287" lon="10.902745280769118"><ele>126.0</ele><time>2026-05-01T03:33:40Z</time></trkpt><trkpt lat="45.67584232021592" lon="10.902921393911619"><ele>123.5</ele><time>2026-05-01T03:33:41Z</time></trkpt><trkpt lat="45.676119958868895" lon="10.903092133515726"><ele>121.0</ele><time>2026-05-01T03:33:42Z</time></trkpt><trkpt lat="45.67639910476722" lon="10.90325887356301"><ele>120.5</ele><time>2026-05-01T03:33:43Z</time></trkpt><trkpt lat="45.67668219547967" lon="10.903416328930621"><ele>120.0</ele><time>2026-05-01T03:33:44Z</time></trkpt><trkpt lat="45.67696620750095" lon="10.903565992692647"><ele>120.0</ele><time>2026-05-01T03:33:45Z</time></trkpt><trkpt lat="45.677252014956764" lon="10.903709637879333"><ele>120.0</ele><time>2026-05-01T03:33:46Z</time></trkpt><trkpt lat="45.67753872396108" lon="10.90384970414522"><ele>119.5</ele><time>2026-05-01T03:33:47Z</time></trkpt><trkpt lat="45.67782575753575" lon="10.903986985604885"><ele>119.0</ele><time>2026-05-01T03:33:48Z</time></trkpt><trkpt lat="45.678112078532536" lon="10.904121810309805"><ele>121.0</ele><time>2026-05-01T03:33:49Z</time></trkpt><trkpt lat="45.6783963285023" lon="10.904255717544066"><ele>123.0</ele><time>2026-05-01T03:33:50Z</time></trkpt><trkpt lat="45.678679797474736" lon="10.904389967752529"><ele>124.5</ele><time>2026-05-01T03:33:51Z</time></trkpt><trkpt lat="45.678963199848745" lon="10.904525145296141"><ele>126.0</ele><time>2026-05-01T03:33:52Z</time></trkpt><trkpt lat="45.67924561268017" lon="10.904660099102733"><ele>125.0</ele><time>2026-05-01T03:33:53Z</time></trkpt><trkpt lat="45.679530357800644" lon="10.904787847233068"><ele>124.0</ele><time>2026-05-01T03:33:54Z</time></trkpt><trkpt lat="45.679816171236105" lon="10.904903179189967"><ele>124.0</ele><time>2026-05-01T03:33:55Z</time></trkpt><trkpt lat="45.68010414630559" lon="10.905007653542473"><ele>124.0</ele><time>2026-05-01T03:33:56Z</time></trkpt><trkpt lat="45.68039439678323" lon="10.905111766910446"><ele>124.5</ele><time>2026-05-01T03:33:57Z</time></trkpt><trkpt lat="45.68068729603147" lon="10.905210023972318"><ele>125.0</ele><time>2026-05-01T03:33:58Z</time></trkpt><trkpt lat="45.68097851189151" lon="10.9053030283655"><ele>124.5</ele><time>2026-05-01T03:33:59Z</time></trkpt><trkpt lat="45.681272534836936" lon="10.905390776178084"><ele>124.0</ele><time>2026-05-01T03:34:00Z</time></trkpt><trkpt lat="45.681567942865286" lon="10.905475147090808"><ele>124.0</ele><time>2026-05-01T03:34:01Z</time></trkpt><trkpt lat="45.6818621711648" lon="10.905553905367865"><ele>124.0</ele><time>2026-05-01T03:34:02Z</time></trkpt><trkpt lat="45.682159844720864" lon="10.905628035986396"><ele>124.5</ele><time>2026-05-01T03:34:03Z</time></trkpt><trkpt lat="45.68245584040966" lon="10.905698761658442"><ele>125.0</ele><time>2026-05-01T03:34:04Z</time></trkpt><trkpt lat="45.68275309531323" lon="10.90576630125089"><ele>123.5</ele><time>2026-05-01T03:34:05Z</time></trkpt><trkpt lat="45.68305101148394" lon="10.905832126393166"><ele>122.0</ele><time>2026-05-01T03:34:06Z</time></trkpt><trkpt lat="45.68334949844946" lon="10.90589393101078"><ele>121.0</ele><time>2026-05-01T03:34:07Z</time></trkpt><trkpt lat="45.683648529680994" lon="10.905956409921943"><ele>120.0</ele><time>2026-05-01T03:34:08Z</time></trkpt><trkpt lat="45.68394735074092" lon="10.906020292083626"><ele>120.0</ele><time>2026-05-01T03:34:09Z</time></trkpt><trkpt lat="45.684243861504356" lon="10.90609016622221"><ele>120.0</ele><time>2026-05-01T03:34:10Z</time></trkpt><trkpt lat="45.68454142400159" lon="10.906158205379167"><ele>121.0</ele><time>2026-05-01T03:34:11Z</time></trkpt><trkpt lat="45.68483782753245" lon="10.906225211035787"><ele>122.0</ele><time>2026-05-01T03:34:12Z</time></trkpt><trkpt lat="45.68513814049106" lon="10.906297098806565"><ele>122.0</ele><time>2026-05-01T03:34:13Z</time></trkpt><trkpt lat="45.68543325534637" lon="10.906370654438327"><ele>122.0</ele><time>2026-05-01T03:34:14Z</time></trkpt><trkpt lat="45.68573132098992" lon="10.906447890210314"><ele>122.0</ele><time>2026-05-01T03:34:15Z</time></trkpt><trkpt lat="45.686028259353" lon="10.906534046440173"><ele>122.0</ele><time>2026-05-01T03:34:16Z</time></trkpt><trkpt lat="45.68632439220462" lon="10.906629418412384"><ele>121.5</ele><time>2026-05-01T03:34:17Z</time></trkpt><trkpt lat="45.68661692157953" lon="10.906738848626942"><ele>121.0</ele><time>2026-05-01T03:34:18Z</time></trkpt><trkpt lat="45.686906611454845" lon="10.906858524465262"><ele>120.0</ele><time>2026-05-01T03:34:19Z</time></trkpt><trkpt lat="45.68719140960133" lon="10.906989291468816"><ele>119.0</ele><time>2026-05-01T03:34:20Z</time></trkpt><trkpt lat="45.687465821735394" lon="10.907129039606989"><ele>119.0</ele><time>2026-05-01T03:34:21Z</time></trkpt><trkpt lat="45.68773252085184" lon="10.90728258920051"><ele>119.0</ele><time>2026-05-01T03:34:22Z</time></trkpt><trkpt lat="45.68800641541647" lon="10.907445571145477"><ele>119.0</ele><time>2026-05-01T03:34:23Z</time></trkpt><trkpt lat="45.68828092569968" lon="10.907624826618893"><ele>119.0</ele><time>2026-05-01T03:34:24Z</time></trkpt><trkpt lat="45.68855403744587" lon="10.90781140825287"><ele>119.0</ele><time>2026-05-01T03:34:25Z</time></trkpt><trkpt lat="45.688822492481464" lon="10.908008369664952"><ele>119.0</ele><time>2026-05-01T03:34:26Z</time></trkpt><trkpt lat="45.68908792483654" lon="10.908215167918582"><ele>120.0</ele><time>2026-05-01T03:34:27Z</time></trkpt><trkpt lat="45.6893487888101" lon="10.908432078765783"><ele>121.0</ele><time>2026-05-01T03:34:28Z</time></trkpt><trkpt lat="45.68960652974594" lon="10.908661755515887"><ele>122.0</ele><time>2026-05-01T03:34:29Z</time></trkpt><trkpt lat="45.68985945634591" lon="10.90889964121079"><ele>123.0</ele><time>2026-05-01T03:34:30Z</time></trkpt><trkpt lat="45.690106286374245" lon="10.909147540980243"><ele>122.5</ele><time>2026-05-01T03:34:31Z</time></trkpt><trkpt lat="45.6903485217771" lon="10.909408085854851"><ele>122.0</ele><time>2026-05-01T03:34:32Z</time></trkpt><trkpt lat="45.69058403911967" lon="10.909677921788694"><ele>122.0</ele><time>2026-05-01T03:34:33Z</time></trkpt><trkpt lat="45.69081378886463" lon="10.909955393234416"><ele>122.0</ele><time>2026-05-01T03:34:34Z</time></trkpt><trkpt lat="45.69103980250863" lon="10.91024259520217"><ele>122.0</ele><time>2026-05-01T03:34:35Z</time></trkpt><trkpt lat="45.69125902710365" lon="10.910538201201208"><ele>122.0</ele><time>2026-05-01T03:34:36Z</time></trkpt><trkpt lat="45.69147407356182" lon="10.910840815804862"><ele>122.0</ele><time>2026-05-01T03:34:37Z</time></trkpt><trkpt lat="45.69168735904884" lon="10.911148389592046"><ele>122.0</ele><time>2026-05-01T03:34:38Z</time></trkpt><trkpt lat="45.69190067155068" lon="10.91145891986597"><ele>121.5</ele><time>2026-05-01T03:34:39Z</time></trkpt><trkpt lat="45.69211247287754" lon="10.911767176900007"><ele>121.0</ele><time>2026-05-01T03:34:40Z</time></trkpt><trkpt lat="45.69232389930605" lon="10.912079546488183"><ele>121.0</ele><time>2026-05-01T03:34:41Z</time></trkpt><trkpt lat="45.69253577171023" lon="10.912386467335173"><ele>121.0</ele><time>2026-05-01T03:34:42Z</time></trkpt><trkpt lat="45.69274670297338" lon="10.912697177384597"><ele>120.5</ele><time>2026-05-01T03:34:43Z</time></trkpt><trkpt lat="45.69295399246274" lon="10.913001286653545"><ele>120.0</ele><time>2026-05-01T03:34:44Z</time></trkpt><trkpt lat="45.6931585189132" lon="10.913304307964472"><ele>119.5</ele><time>2026-05-01T03:34:45Z</time></trkpt><trkpt lat="45.693365735547225" lon="10.913605690975384"><ele>119.0</ele><time>2026-05-01T03:34:46Z</time></trkpt><trkpt lat="45.69357098661998" lon="10.913907407043869"><ele>119.5</ele><time>2026-05-01T03:34:47Z</time></trkpt><trkpt lat="45.693778170315994" lon="10.914211833309043"><ele>120.0</ele><time>2026-05-01T03:34:48Z</time></trkpt><trkpt lat="45.693984492976384" lon="10.91451725245516"><ele>121.5</ele><time>2026-05-01T03:34:49Z</time></trkpt><trkpt lat="45.69418919740004" lon="10.914824426206327"><ele>123.0</ele><time>2026-05-01T03:34:50Z</time></trkpt><trkpt lat="45.69439483108411" lon="10.915131160432619"><ele>123.0</ele><time>2026-05-01T03:34:51Z</time></trkpt><trkpt lat="45.694601828945515" lon="10.915434725449947"><ele>123.0</ele><time>2026-05-01T03:34:52Z</time></trkpt><trkpt lat="45.69480911269985" lon="10.91574061956612"><ele>124.0</ele><time>2026-05-01T03:34:53Z</time></trkpt><trkpt lat="45.695016966287895" lon="10.916045477104563"><ele>125.0</ele><time>2026-05-01T03:34:54Z</time></trkpt><trkpt lat="45.69522374511897" lon="10.916350247115853"><ele>123.5</ele><time>2026-05-01T03:34:55Z</time></trkpt><trkpt lat="45.69543023929768" lon="10.91665359757108"><ele>122.0</ele><time>2026-05-01T03:34:56Z</time></trkpt><trkpt lat="45.69563755400658" lon="10.916957378154185"><ele>121.5</ele><time>2026-05-01T03:34:57Z</time></trkpt><trkpt lat="45.69584302750604" lon="10.917260251383768"><ele>121.0</ele><time>2026-05-01T03:34:58Z</time></trkpt><trkpt lat="45.69604790182072" lon="10.91756499254867"><ele>121.0</ele><time>2026-05-01T03:34:59Z</time></trkpt><trkpt lat="45.696253022981814" lon="10.917869777859885"><ele>121.0</ele><time>2026-05-01T03:35:00Z</time></trkpt><trkpt lat="45.69646031877258" lon="10.918170946546478"><ele>121.0</ele><time>2026-05-01T03:35:01Z</time></trkpt><trkpt lat="45.69667006673393" lon="10.918468918382862"><ele>121.0</ele><time>2026-05-01T03:35:02Z</time></trkpt><trkpt lat="45.69688510433374" lon="10.91876474095024"><ele>121.5</ele><time>2026-05-01T03:35:03Z</time></trkpt><trkpt lat="45.69710723842943" lon="10.919054818900273"><ele>122.0</ele><time>2026-05-01T03:35:04Z</time></trkpt><trkpt lat="45.697335296129346" lon="10.919331718914"><ele>122.5</ele><time>2026-05-01T03:35:05Z</time></trkpt><trkpt lat="45.69756920363376" lon="10.919601555026064"><ele>123.0</ele><time>2026-05-01T03:35:06Z</time></trkpt><trkpt lat="45.69780897696513" lon="10.91986229674301"><ele>123.5</ele><time>2026-05-01T03:35:07Z</time></trkpt><trkpt lat="45.69805769647332" lon="10.92011184197952"><ele>124.0</ele><time>2026-05-01T03:35:08Z</time></trkpt><trkpt lat="45.698311714986176" lon="10.920351281684008"><ele>124.0</ele><time>2026-05-01T03:35:09Z</time></trkpt><trkpt lat="45.69856847427479" lon="10.920585000079987"><ele>124.0</ele><time>2026-05-01T03:35:10Z</time></trkpt><trkpt lat="45.69882944202888" lon="10.920811080735518"><ele>124.5</ele><time>2026-05-01T03:35:11Z</time></trkpt><trkpt lat="45.69909481931487" lon="10.921026891885921"><ele>125.0</ele><time>2026-05-01T03:35:12Z</time></trkpt><trkpt lat="45.69936418277067" lon="10.921230440769225"><ele>124.0</ele><time>2026-05-01T03:35:13Z</time></trkpt><trkpt lat="45.699635302080594" lon="10.921424790127823"><ele>123.0</ele><time>2026-05-01T03:35:14Z</time></trkpt><trkpt lat="45.69991098104286" lon="10.921605326175154"><ele>122.0</ele><time>2026-05-01T03:35:15Z</time></trkpt><trkpt lat="45.7001920533774" lon="10.921773818090642"><ele>121.0</ele><time>2026-05-01T03:35:16Z</time></trkpt><trkpt lat="45.70047276748057" lon="10.921930949921835"><ele>121.0</ele><time>2026-05-01T03:35:17Z</time></trkpt><trkpt lat="45.70075688412722" lon="10.922083827221108"><ele>121.0</ele><time>2026-05-01T03:35:18Z</time></trkpt><trkpt lat="45.70103869980764" lon="10.922237185970495"><ele>121.0</ele><time>2026-05-01T03:35:19Z</time></trkpt><trkpt lat="45.701322091721" lon="10.922388790012763"><ele>121.0</ele><time>2026-05-01T03:35:20Z</time></trkpt><trkpt lat="45.701606094587426" lon="10.922537734556533"><ele>121.0</ele><time>2026-05-01T03:35:21Z</time></trkpt><trkpt lat="45.7018879920656" lon="10.92268783846299"><ele>121.0</ele><time>2026-05-01T03:35:22Z</time></trkpt><trkpt lat="45.702172021576374" lon="10.922837650330056"><ele>122.5</ele><time>2026-05-01T03:35:23Z</time></trkpt><trkpt lat="45.702455995228064" lon="10.92298651347978"><ele>124.0</ele><time>2026-05-01T03:35:24Z</time></trkpt><trkpt lat="45.702741161021805" lon="10.923136684952171"><ele>124.0</ele><time>2026-05-01T03:35:25Z</time></trkpt><trkpt lat="45.703025786341385" lon="10.923286028303252"><ele>124.0</ele><time>2026-05-01T03:35:26Z</time></trkpt><trkpt lat="45.70331261933411" lon="10.923436535697613"><ele>124.0</ele><time>2026-05-01T03:35:27Z</time></trkpt><trkpt lat="45.703598931207424" lon="10.923587740548"><ele>124.0</ele><time>2026-05-01T03:35:28Z</time></trkpt><trkpt lat="45.70388532869339" lon="10.92373966670259"><ele>124.0</ele><time>2026-05-01T03:35:29Z</time></trkpt><trkpt lat="45.70417250268487" lon="10.923891984142996"><ele>124.0</ele><time>2026-05-01T03:35:30Z</time></trkpt><trkpt lat="45.70446037717568" lon="10.924045874272785"><ele>124.0</ele><time>2026-05-01T03:35:31Z</time></trkpt><trkpt lat="45.70474690749075" lon="10.924198365799116"><ele>124.0</ele><time>2026-05-01T03:35:32Z</time></trkpt><trkpt lat="45.705035021495526" lon="10.924350508282972"><ele>123.5</ele><time>2026-05-01T03:35:33Z</time></trkpt><trkpt lat="45.70532407795124" lon="10.924500772583865"><ele>123.0</ele><time>2026-05-01T03:35:34Z</time></trkpt><trkpt lat="45.70561150253379" lon="10.924653243140899"><ele>123.0</ele><time>2026-05-01T03:35:35Z</time></trkpt><trkpt lat="45.70589948532037" lon="10.924798673074195"><ele>123.0</ele><time>2026-05-01T03:35:36Z</time></trkpt><trkpt lat="45.7061795793046" lon="10.924942993594495"><ele>123.5</ele><time>2026-05-01T03:35:37Z</time></trkpt><trkpt lat="45.70645452655016" lon="10.925084677258566"><ele>124.0</ele><time>2026-05-01T03:35:38Z</time></trkpt><trkpt lat="45.706735156892265" lon="10.925234057942165"><ele>124.5</ele><time>2026-05-01T03:35:39Z</time></trkpt><trkpt lat="45.70702080719726" lon="10.925387927575278"><ele>125.0</ele><time>2026-05-01T03:35:40Z</time></trkpt><trkpt lat="45.70730973253828" lon="10.925540330655329"><ele>125.0</ele><time>2026-05-01T03:35:41Z</time></trkpt><trkpt lat="45.70759857601606" lon="10.925693737411663"><ele>125.0</ele><time>2026-05-01T03:35:42Z</time></trkpt><trkpt lat="45.70788494287261" lon="10.92584840575295"><ele>125.0</ele><time>2026-05-01T03:35:43Z</time></trkpt><trkpt lat="45.70817057782659" lon="10.926003885386097"><ele>125.0</ele><time>2026-05-01T03:35:44Z</time></trkpt><trkpt lat="45.70845299915923" lon="10.926163665218116"><ele>125.0</ele><time>2026-05-01T03:35:45Z</time></trkpt><trkpt lat="45.7087330909896" lon="10.926329811100246"><ele>125.0</ele><time>2026-05-01T03:35:46Z</time></trkpt><trkpt lat="45.70901403608069" lon="10.926502121292307"><ele>125.0</ele><time>2026-05-01T03:35:47Z</time></trkpt><trkpt lat="45.709291910376436" lon="10.926683837215771"><ele>125.0</ele><time>2026-05-01T03:35:48Z</time></trkpt><trkpt lat="45.70956831032281" lon="10.926873239651709"><ele>125.0</ele><time>2026-05-01T03:35:49Z</time></trkpt><trkpt lat="45.70984047175044" lon="10.927068431759361"><ele>125.0</ele><time>2026-05-01T03:35:50Z</time></trkpt><trkpt lat="45.710111025694914" lon="10.92727430778823"><ele>125.0</ele><time>2026-05-01T03:35:51Z</time></trkpt><trkpt lat="45.71037771540303" lon="10.92748949227499"><ele>125.0</ele><time>2026-05-01T03:35:52Z</time></trkpt><trkpt lat="45.710643099129314" lon="10.927706604246186"><ele>125.0</ele><time>2026-05-01T03:35:53Z</time></trkpt><trkpt lat="45.710905957536234" lon="10.927936137169045"><ele>125.0</ele><time>2026-05-01T03:35:54Z</time></trkpt><trkpt lat="45.71116616781081" lon="10.928164671359914"><ele>124.5</ele><time>2026-05-01T03:35:55Z</time></trkpt><trkpt lat="45.711424216916086" lon="10.928400131160458"><ele>124.0</ele><time>2026-05-01T03:35:56Z</time></trkpt><trkpt lat="45.7116819247026" lon="10.92863968719443"><ele>124.5</ele><time>2026-05-01T03:35:57Z</time></trkpt><trkpt lat="45.71193890387592" lon="10.928879401988201"><ele>125.0</ele><time>2026-05-01T03:35:58Z</time></trkpt><trkpt lat="45.71219595428118" lon="10.929115783465512"><ele>125.5</ele><time>2026-05-01T03:35:59Z</time></trkpt><trkpt lat="45.712453712080865" lon="10.929357715738242"><ele>126.0</ele><time>2026-05-01T03:36:00Z</time></trkpt><trkpt lat="45.71270801638548" lon="10.929595411886591"><ele>125.5</ele><time>2026-05-01T03:36:01Z</time></trkpt><trkpt lat="45.71296176029458" lon="10.929836214998346"><ele>125.0</ele><time>2026-05-01T03:36:02Z</time></trkpt><trkpt lat="45.713215533284064" lon="10.930077176925234"><ele>125.0</ele><time>2026-05-01T03:36:03Z</time></trkpt><trkpt lat="45.71346771321888" lon="10.930314215632967"><ele>125.0</ele><time>2026-05-01T03:36:04Z</time></trkpt><trkpt lat="45.713721789935875" lon="10.930550013129027"><ele>125.5</ele><time>2026-05-01T03:36:05Z</time></trkpt><trkpt lat="45.71397794061297" lon="10.93077968297644"><ele>126.0</ele><time>2026-05-01T03:36:06Z</time></trkpt><trkpt lat="45.71423423723252" lon="10.931008341196174"><ele>126.0</ele><time>2026-05-01T03:36:07Z</time></trkpt><trkpt lat="45.714491329671866" lon="10.931238347510808"><ele>126.0</ele><time>2026-05-01T03:36:08Z</time></trkpt><trkpt lat="45.71475087916457" lon="10.931463463208924"><ele>126.0</ele><time>2026-05-01T03:36:09Z</time></trkpt><trkpt lat="45.71501084004321" lon="10.931686439934921"><ele>126.0</ele><time>2026-05-01T03:36:10Z</time></trkpt><trkpt lat="45.715268787577735" lon="10.931909712428773"><ele>126.0</ele><time>2026-05-01T03:36:11Z</time></trkpt><trkpt lat="45.71552561603684" lon="10.932128947462818"><ele>126.0</ele><time>2026-05-01T03:36:12Z</time></trkpt><trkpt lat="45.71578734793191" lon="10.932342588646343"><ele>126.0</ele><time>2026-05-01T03:36:13Z</time></trkpt><trkpt lat="45.716050795336955" lon="10.932542608290982"><ele>126.0</ele><time>2026-05-01T03:36:14Z</time></trkpt><trkpt lat="45.716316136269874" lon="10.93274382845236"><ele>126.0</ele><time>2026-05-01T03:36:15Z</time></trkpt><trkpt lat="45.71658499312971" lon="10.932941267671962"><ele>126.0</ele><time>2026-05-01T03:36:16Z</time></trkpt><trkpt lat="45.716853627150584" lon="10.93313038212251"><ele>125.5</ele><time>2026-05-01T03:36:17Z</time></trkpt><trkpt lat="45.717122177395815" lon="10.933315666647937"><ele>125.0</ele><time>2026-05-01T03:36:18Z</time></trkpt><trkpt lat="45.717390111935615" lon="10.933497539406009"><ele>125.0</ele><time>2026-05-01T03:36:19Z</time></trkpt><trkpt lat="45.717656588423615" lon="10.933679321623377"><ele>125.0</ele><time>2026-05-01T03:36:20Z</time></trkpt><trkpt lat="45.7179245522229" lon="10.933858813076414"><ele>125.5</ele><time>2026-05-01T03:36:21Z</time></trkpt><trkpt lat="45.71818883624186" lon="10.934038270500928"><ele>126.0</ele><time>2026-05-01T03:36:22Z</time></trkpt><trkpt lat="45.71845340206946" lon="10.934219339403455"><ele>125.5</ele><time>2026-05-01T03:36:23Z</time></trkpt><trkpt lat="45.718713913215915" lon="10.934403896437427"><ele>125.0</ele><time>2026-05-01T03:36:24Z</time></trkpt><trkpt lat="45.71897297642174" lon="10.934594782761716"><ele>125.0</ele><time>2026-05-01T03:36:25Z</time></trkpt><trkpt lat="45.719234971396816" lon="10.934788450332825"><ele>125.0</ele><time>2026-05-01T03:36:26Z</time></trkpt><trkpt lat="45.71949748785097" lon="10.934980247836316"><ele>124.5</ele><time>2026-05-01T03:36:27Z</time></trkpt><trkpt lat="45.71976343173142" lon="10.935163277619173"><ele>124.0</ele><time>2026-05-01T03:36:28Z</time></trkpt><trkpt lat="45.72003271895775" lon="10.935346365527234"><ele>126.0</ele><time>2026-05-01T03:36:29Z</time></trkpt><trkpt lat="45.72030236390463" lon="10.93553390341943"><ele>128.0</ele><time>2026-05-01T03:36:30Z</time></trkpt><trkpt lat="45.7205738826145" lon="10.935723452480337"><ele>127.5</ele><time>2026-05-01T03:36:31Z</time></trkpt><trkpt lat="45.72084564839843" lon="10.935913433489475"><ele>127.0</ele><time>2026-05-01T03:36:32Z</time></trkpt><trkpt lat="45.721119097851705" lon="10.936100439263324"><ele>127.0</ele><time>2026-05-01T03:36:33Z</time></trkpt><trkpt lat="45.72139442597454" lon="10.93628689702857"><ele>127.0</ele><time>2026-05-01T03:36:34Z</time></trkpt><trkpt lat="45.721670470971624" lon="10.936475107089297"><ele>127.0</ele><time>2026-05-01T03:36:35Z</time></trkpt><trkpt lat="45.72194600732818" lon="10.936663721999892"><ele>127.0</ele><time>2026-05-01T03:36:36Z</time></trkpt><trkpt lat="45.72222078977384" lon="10.936852010024783"><ele>127.0</ele><time>2026-05-01T03:36:37Z</time></trkpt><trkpt lat="45.722497322294274" lon="10.937043630994953"><ele>127.0</ele><time>2026-05-01T03:36:38Z</time></trkpt><trkpt lat="45.72277363014492" lon="10.937233971880866"><ele>127.0</ele><time>2026-05-01T03:36:39Z</time></trkpt><trkpt lat="45.72304959743222" lon="10.93742305505201"><ele>127.0</ele><time>2026-05-01T03:36:40Z</time></trkpt><trkpt lat="45.723325207593" lon="10.937612164608227"><ele>127.0</ele><time>2026-05-01T03:36:41Z</time></trkpt><trkpt lat="45.72360058222811" lon="10.937802416799576"><ele>127.0</ele><time>2026-05-01T03:36:42Z</time></trkpt><trkpt lat="45.723874077836136" lon="10.937990953207883"><ele>127.0</ele><time>2026-05-01T03:36:43Z</time></trkpt><trkpt lat="45.72414903523094" lon="10.938179457410431"><ele>127.0</ele><time>2026-05-01T03:36:44Z</time></trkpt><trkpt lat="45.72434361798123" lon="10.938629612790425"><ele>127.0</ele><time>2026-05-01T03:36:45Z</time></trkpt><trkpt lat="45.72462197144112" lon="10.9388000034703"><ele>127.0</ele><time>2026-05-01T03:36:46Z</time></trkpt><trkpt lat="45.72490109034328" lon="10.93897086333497"><ele>127.0</ele><time>2026-05-01T03:36:47Z</time></trkpt><trkpt lat="45.72517805895059" lon="10.939141540973978"><ele>127.0</ele><time>2026-05-01T03:36:48Z</time></trkpt><trkpt lat="45.72545634808071" lon="10.939315032778323"><ele>127.5</ele><time>2026-05-01T03:36:49Z</time></trkpt><trkpt lat="45.7257410682443" lon="10.939482875443224"><ele>128.0</ele><time>2026-05-01T03:36:50Z</time></trkpt><trkpt lat="45.72601487530065" lon="10.939645255770412"><ele>128.0</ele><time>2026-05-01T03:36:51Z</time></trkpt><trkpt lat="45.726283310201964" lon="10.939823306857468"><ele>128.0</ele><time>2026-05-01T03:36:52Z</time></trkpt><trkpt lat="45.726533901796294" lon="10.940028269881171"><ele>128.5</ele><time>2026-05-01T03:36:53Z</time></trkpt><trkpt lat="45.72677086349823" lon="10.940263098586147"><ele>129.0</ele><time>2026-05-01T03:36:54Z</time></trkpt><trkpt lat="45.727014662329175" lon="10.940513734223732"><ele>128.0</ele><time>2026-05-01T03:36:55Z</time></trkpt><trkpt lat="45.72726930244876" lon="10.940765193826593"><ele>127.0</ele><time>2026-05-01T03:36:56Z</time></trkpt><trkpt lat="45.72750625616839" lon="10.941006915611668"><ele>128.5</ele><time>2026-05-01T03:36:57Z</time></trkpt><trkpt lat="45.72775279543108" lon="10.941267409224746"><ele>130.0</ele><time>2026-05-01T03:36:58Z</time></trkpt><trkpt lat="45.727983933888694" lon="10.941514167326433"><ele>130.5</ele><time>2026-05-01T03:36:59Z</time></trkpt><trkpt lat="45.728203707826" lon="10.94178170458688"><ele>131.0</ele><time>2026-05-01T03:37:00Z</time></trkpt><trkpt lat="45.72845464882704" lon="10.942083172010259"><ele>130.5</ele><time>2026-05-01T03:37:01Z</time></trkpt><trkpt lat="45.72869716527401" lon="10.942353878432877"><ele>130.0</ele><time>2026-05-01T03:37:02Z</time></trkpt><trkpt lat="45.728913462779744" lon="10.942607287715724"><ele>130.0</ele><time>2026-05-01T03:37:03Z</time></trkpt><trkpt lat="45.72918353019156" lon="10.942914101289007"><ele>130.0</ele><time>2026-05-01T03:37:04Z</time></trkpt><trkpt lat="45.729444568986885" lon="10.94318818369589"><ele>129.0</ele><time>2026-05-01T03:37:05Z</time></trkpt><trkpt lat="45.72965067997003" lon="10.943417798901478"><ele>128.0</ele><time>2026-05-01T03:37:06Z</time></trkpt><trkpt lat="45.72987465981863" lon="10.943702985803279"><ele>128.0</ele><time>2026-05-01T03:37:07Z</time></trkpt><trkpt lat="45.73008131791709" lon="10.943977506636982"><ele>128.0</ele><time>2026-05-01T03:37:08Z</time></trkpt><trkpt lat="45.73027553571212" lon="10.944270353949378"><ele>128.5</ele><time>2026-05-01T03:37:09Z</time></trkpt><trkpt lat="45.730480504919804" lon="10.94459452914287"><ele>129.0</ele><time>2026-05-01T03:37:10Z</time></trkpt><trkpt lat="45.730694601958234" lon="10.944922352011016"><ele>129.5</ele><time>2026-05-01T03:37:11Z</time></trkpt><trkpt lat="45.73088629507571" lon="10.945220188098794"><ele>130.0</ele><time>2026-05-01T03:37:12Z</time></trkpt><trkpt lat="45.73106915689482" lon="10.945529700416332"><ele>130.0</ele><time>2026-05-01T03:37:13Z</time></trkpt><trkpt lat="45.73171692533947" lon="10.945324658284845"><ele>130.0</ele><time>2026-05-01T03:37:14Z</time></trkpt><trkpt lat="45.731915778224455" lon="10.945651506220162"><ele>130.0</ele><time>2026-05-01T03:37:15Z</time></trkpt><trkpt lat="45.73210323094931" lon="10.945989191947808"><ele>130.0</ele><time>2026-05-01T03:37:16Z</time></trkpt><trkpt lat="45.73229427836228" lon="10.946336710156407"><ele>130.0</ele><time>2026-05-01T03:37:17Z</time></trkpt><trkpt lat="45.73246806938242" lon="10.94667687241097"><ele>130.0</ele><time>2026-05-01T03:37:18Z</time></trkpt><trkpt lat="45.73265885354889" lon="10.947018173152655"><ele>130.0</ele><time>2026-05-01T03:37:19Z</time></trkpt><trkpt lat="45.73284501476581" lon="10.947358577822863"><ele>130.5</ele><time>2026-05-01T03:37:20Z</time></trkpt><trkpt lat="45.733021177469126" lon="10.947693517832729"><ele>131.0</ele><time>2026-05-01T03:37:21Z</time></trkpt><trkpt lat="45.7331926145334" lon="10.948028056758995"><ele>131.0</ele><time>2026-05-01T03:37:22Z</time></trkpt><trkpt lat="45.733365692971795" lon="10.948372918026314"><ele>131.0</ele><time>2026-05-01T03:37:23Z</time></trkpt><trkpt lat="45.73353963364638" lon="10.948720972390138"><ele>131.0</ele><time>2026-05-01T03:37:24Z</time></trkpt><trkpt lat="45.733714820278784" lon="10.949068350636557"><ele>131.0</ele><time>2026-05-01T03:37:25Z</time></trkpt><trkpt lat="45.73389044440122" lon="10.949412366274764"><ele>131.0</ele><time>2026-05-01T03:37:26Z</time></trkpt><trkpt lat="45.734067828033574" lon="10.949753846007773"><ele>131.0</ele><time>2026-05-01T03:37:27Z</time></trkpt><trkpt lat="45.734247409360606" lon="10.950095033142668"><ele>130.5</ele><time>2026-05-01T03:37:28Z</time></trkpt><trkpt lat="45.73442651541885" lon="10.950436335917905"><ele>130.0</ele><time>2026-05-01T03:37:29Z</time></trkpt><trkpt lat="45.734604912377115" lon="10.950777793027287"><ele>130.0</ele><time>2026-05-01T03:37:30Z</time></trkpt><trkpt lat="45.734783493521526" lon="10.951123090590716"><ele>130.0</ele><time>2026-05-01T03:37:31Z</time></trkpt><trkpt lat="45.734962191258596" lon="10.951470888448073"><ele>129.5</ele><time>2026-05-01T03:37:32Z</time></trkpt><trkpt lat="45.73513949786178" lon="10.951818232918464"><ele>129.0</ele><time>2026-05-01T03:37:33Z</time></trkpt><trkpt lat="45.73531933757008" lon="10.952170209749855"><ele>129.0</ele><time>2026-05-01T03:37:34Z</time></trkpt><trkpt lat="45.73549715228156" lon="10.952517828426956"><ele>129.0</ele><time>2026-05-01T03:37:35Z</time></trkpt><trkpt lat="45.73567561951304" lon="10.952865420084853"><ele>129.5</ele><time>2026-05-01T03:37:36Z</time></trkpt><trkpt lat="45.73585579043292" lon="10.953216278094482"><ele>130.0</ele><time>2026-05-01T03:37:37Z</time></trkpt><trkpt lat="45.73603386357559" lon="10.953570272244043"><ele>131.0</ele><time>2026-05-01T03:37:38Z</time></trkpt><trkpt lat="45.73621054954995" lon="10.953926846888045"><ele>132.0</ele><time>2026-05-01T03:37:39Z</time></trkpt><trkpt lat="45.736385538472106" lon="10.954286397518556"><ele>133.0</ele><time>2026-05-01T03:37:40Z</time></trkpt><trkpt lat="45.73655712339073" lon="10.954652362884604"><ele>134.0</ele><time>2026-05-01T03:37:41Z</time></trkpt><trkpt lat="45.73672206390746" lon="10.955025960882242"><ele>134.0</ele><time>2026-05-01T03:37:42Z</time></trkpt><trkpt lat="45.736874889046476" lon="10.955408146965418"><ele>134.0</ele><time>2026-05-01T03:37:43Z</time></trkpt><trkpt lat="45.737017614111544" lon="10.955799339010161"><ele>133.5</ele><time>2026-05-01T03:37:44Z</time></trkpt><trkpt lat="45.73715424462249" lon="10.956199596906945"><ele>133.0</ele><time>2026-05-01T03:37:45Z</time></trkpt><trkpt lat="45.737286623617365" lon="10.956601730194024"><ele>133.5</ele><time>2026-05-01T03:37:46Z</time></trkpt><trkpt lat="45.73741336613844" lon="10.95700822052142"><ele>134.0</ele><time>2026-05-01T03:37:47Z</time></trkpt><trkpt lat="45.73752800269789" lon="10.957420473501722"><ele>133.5</ele><time>2026-05-01T03:37:48Z</time></trkpt><trkpt lat="45.737636964623185" lon="10.957838817341772"><ele>133.0</ele><time>2026-05-01T03:37:49Z</time></trkpt><trkpt lat="45.737734191932184" lon="10.958262820871193"><ele>133.5</ele><time>2026-05-01T03:37:50Z</time></trkpt><trkpt lat="45.73782164470399" lon="10.958688111792235"><ele>134.0</ele><time>2026-05-01T03:37:51Z</time></trkpt><trkpt lat="45.73790239879572" lon="10.95911625153006"><ele>134.5</ele><time>2026-05-01T03:37:52Z</time></trkpt><trkpt lat="45.73797750795087" lon="10.959546020193656"><ele>135.0</ele><time>2026-05-01T03:37:53Z</time></trkpt><trkpt lat="45.73804715462213" lon="10.959976853226339"><ele>135.0</ele><time>2026-05-01T03:37:54Z</time></trkpt><trkpt lat="45.73811393785747" lon="10.960408568939288"><ele>135.0</ele><time>2026-05-01T03:37:55Z</time></trkpt><trkpt lat="45.738178627437385" lon="10.960841007259607"><ele>134.5</ele><time>2026-05-01T03:37:56Z</time></trkpt><trkpt lat="45.73825203872898" lon="10.961265405593167"><ele>134.0</ele><time>2026-05-01T03:37:57Z</time></trkpt><trkpt lat="45.73832350615858" lon="10.96168899143175"><ele>134.5</ele><time>2026-05-01T03:37:58Z</time></trkpt><trkpt lat="45.738395599443784" lon="10.962113563424273"><ele>135.0</ele><time>2026-05-01T03:37:59Z</time></trkpt><trkpt lat="45.73847461824228" lon="10.962534639501548"><ele>135.5</ele><time>2026-05-01T03:38:00Z</time></trkpt><trkpt lat="45.73855832918026" lon="10.962955516827764"><ele>136.0</ele><time>2026-05-01T03:38:01Z</time></trkpt><trkpt lat="45.73865320643552" lon="10.963371298258757"><ele>136.0</ele><time>2026-05-01T03:38:02Z</time></trkpt><trkpt lat="45.738757632824786" lon="10.963786600054105"><ele>136.0</ele><time>2026-05-01T03:38:03Z</time></trkpt><trkpt lat="45.73887854084709" lon="10.964192489387049"><ele>136.5</ele><time>2026-05-01T03:38:04Z</time></trkpt><trkpt lat="45.73900612889521" lon="10.964596078683575"><ele>137.0</ele><time>2026-05-01T03:38:05Z</time></trkpt><trkpt lat="45.739144827840896" lon="10.964992499819223"><ele>136.5</ele><time>2026-05-01T03:38:06Z</time></trkpt><trkpt lat="45.739293032524074" lon="10.965385117367106"><ele>136.0</ele><time>2026-05-01T03:38:07Z</time></trkpt><trkpt lat="45.7394464992656" lon="10.965769683913276"><ele>137.0</ele><time>2026-05-01T03:38:08Z</time></trkpt><trkpt lat="45.73961524517675" lon="10.966147358056645"><ele>138.0</ele><time>2026-05-01T03:38:09Z</time></trkpt><trkpt lat="45.73978858770741" lon="10.96651727007627"><ele>137.5</ele><time>2026-05-01T03:38:10Z</time></trkpt><trkpt lat="45.73997010329785" lon="10.966880501383203"><ele>137.0</ele><time>2026-05-01T03:38:11Z</time></trkpt><trkpt lat="45.74015453777824" lon="10.967243585812207"><ele>135.5</ele><time>2026-05-01T03:38:12Z</time></trkpt><trkpt lat="45.74033860858507" lon="10.967607230673087"><ele>134.0</ele><time>2026-05-01T03:38:13Z</time></trkpt><trkpt lat="45.74051900125432" lon="10.967973055518037"><ele>134.0</ele><time>2026-05-01T03:38:14Z</time></trkpt><trkpt lat="45.740702828995516" lon="10.968336315755304"><ele>134.0</ele><time>2026-05-01T03:38:15Z</time></trkpt><trkpt lat="45.740885690664285" lon="10.96869913976746"><ele>134.0</ele><time>2026-05-01T03:38:16Z</time></trkpt><trkpt lat="45.74107040094207" lon="10.969060380124313"><ele>134.0</ele><time>2026-05-01T03:38:17Z</time></trkpt><trkpt lat="45.74125665974812" lon="10.969421757767275"><ele>134.0</ele><time>2026-05-01T03:38:18Z</time></trkpt><trkpt lat="45.74144160661125" lon="10.969779262832349"><ele>134.0</ele><time>2026-05-01T03:38:19Z</time></trkpt><trkpt lat="45.741626583479615" lon="10.970140475559102"><ele>133.0</ele><time>2026-05-01T03:38:20Z</time></trkpt><trkpt lat="45.741813258489195" lon="10.970502154653051"><ele>132.0</ele><time>2026-05-01T03:38:21Z</time></trkpt><trkpt lat="45.741998463159526" lon="10.97086185372518"><ele>134.0</ele><time>2026-05-01T03:38:22Z</time></trkpt><trkpt lat="45.74218453900335" lon="10.971224764356597"><ele>136.0</ele><time>2026-05-01T03:38:23Z</time></trkpt><trkpt lat="45.7423655244522" lon="10.97158687733894"><ele>135.5</ele><time>2026-05-01T03:38:24Z</time></trkpt><trkpt lat="45.74254193337088" lon="10.971953500928198"><ele>135.0</ele><time>2026-05-01T03:38:25Z</time></trkpt><trkpt lat="45.74271235210407" lon="10.972324002425319"><ele>135.0</ele><time>2026-05-01T03:38:26Z</time></trkpt><trkpt lat="45.742874286091485" lon="10.972697541609044"><ele>135.0</ele><time>2026-05-01T03:38:27Z</time></trkpt><trkpt lat="45.74303623890223" lon="10.973071389124629"><ele>135.5</ele><time>2026-05-01T03:38:28Z</time></trkpt><trkpt lat="45.743196433140334" lon="10.973446909992186"><ele>136.0</ele><time>2026-05-01T03:38:29Z</time></trkpt><trkpt lat="45.74335506582146" lon="10.973822994248989"><ele>135.5</ele><time>2026-05-01T03:38:30Z</time></trkpt><trkpt lat="45.743512413238165" lon="10.97419921282658"><ele>135.0</ele><time>2026-05-01T03:38:31Z</time></trkpt><trkpt lat="45.74366880211072" lon="10.974575483411147"><ele>135.0</ele><time>2026-05-01T03:38:32Z</time></trkpt><trkpt lat="45.74382529730094" lon="10.974952231842051"><ele>135.0</ele><time>2026-05-01T03:38:33Z</time></trkpt><trkpt lat="45.743982238240456" lon="10.975324944081976"><ele>136.0</ele><time>2026-05-01T03:38:34Z</time></trkpt><trkpt lat="45.7441399078753" lon="10.975698333554233"><ele>137.0</ele><time>2026-05-01T03:38:35Z</time></trkpt><trkpt lat="45.74429726655107" lon="10.976071519161426"><ele>137.0</ele><time>2026-05-01T03:38:36Z</time></trkpt><trkpt lat="45.74445475343229" lon="10.976447757917965"><ele>137.0</ele><time>2026-05-01T03:38:37Z</time></trkpt><trkpt lat="45.74461046809213" lon="10.976822513100922"><ele>138.0</ele><time>2026-05-01T03:38:38Z</time></trkpt><trkpt lat="45.7447635529292" lon="10.977198840777985"><ele>139.0</ele><time>2026-05-01T03:38:39Z</time></trkpt><trkpt lat="45.744921786867366" lon="10.977577267527733"><ele>139.0</ele><time>2026-05-01T03:38:40Z</time></trkpt><trkpt lat="45.74507975401166" lon="10.977957310860015"><ele>139.0</ele><time>2026-05-01T03:38:41Z</time></trkpt><trkpt lat="45.74524777149408" lon="10.978323041557868"><ele>139.5</ele><time>2026-05-01T03:38:42Z</time></trkpt><trkpt lat="45.745410614396924" lon="10.978695143804032"><ele>140.0</ele><time>2026-05-01T03:38:43Z</time></trkpt><trkpt lat="45.74557323230433" lon="10.979069274815142"><ele>140.5</ele><time>2026-05-01T03:38:44Z</time></trkpt><trkpt lat="45.745734744540115" lon="10.979444593041094"><ele>141.0</ele><time>2026-05-01T03:38:45Z</time></trkpt><trkpt lat="45.74589425461836" lon="10.979822933771839"><ele>139.5</ele><time>2026-05-01T03:38:46Z</time></trkpt><trkpt lat="45.74604941742225" lon="10.980202606178253"><ele>138.0</ele><time>2026-05-01T03:38:47Z</time></trkpt><trkpt lat="45.7462087604956" lon="10.98058015109749"><ele>139.5</ele><time>2026-05-01T03:38:48Z</time></trkpt><trkpt lat="45.74636681194665" lon="10.980958154396705"><ele>141.0</ele><time>2026-05-01T03:38:49Z</time></trkpt><trkpt lat="45.746525533350585" lon="10.981332691381892"><ele>140.0</ele><time>2026-05-01T03:38:50Z</time></trkpt><trkpt lat="45.746682766904435" lon="10.981709169860242"><ele>139.0</ele><time>2026-05-01T03:38:51Z</time></trkpt><trkpt lat="45.7468385002379" lon="10.982084653808956"><ele>138.0</ele><time>2026-05-01T03:38:52Z</time></trkpt><trkpt lat="45.74699606691515" lon="10.982458788472524"><ele>137.0</ele><time>2026-05-01T03:38:53Z</time></trkpt><trkpt lat="45.74714929399587" lon="10.982831359976954"><ele>135.5</ele><time>2026-05-01T03:38:54Z</time></trkpt><trkpt lat="45.74730317067827" lon="10.98320326153365"><ele>134.0</ele><time>2026-05-01T03:38:55Z</time></trkpt><trkpt lat="45.7474556263165" lon="10.983566577186238"><ele>134.0</ele><time>2026-05-01T03:38:56Z</time></trkpt><trkpt lat="45.74760515585374" lon="10.983919439694448"><ele>134.0</ele><time>2026-05-01T03:38:57Z</time></trkpt><trkpt lat="45.747760225623296" lon="10.9842780474826"><ele>135.0</ele><time>2026-05-01T03:38:58Z</time></trkpt><trkpt lat="45.74792501355745" lon="10.984636440867495"><ele>136.0</ele><time>2026-05-01T03:38:59Z</time></trkpt><trkpt lat="45.7480973245487" lon="10.984989056101279"><ele>137.5</ele><time>2026-05-01T03:39:00Z</time></trkpt><trkpt lat="45.748274686014" lon="10.985337062926046"><ele>139.0</ele><time>2026-05-01T03:39:01Z</time></trkpt><trkpt lat="45.748460924912095" lon="10.985679087536141"><ele>139.0</ele><time>2026-05-01T03:39:02Z</time></trkpt><trkpt lat="45.74865580642608" lon="10.98601325430686"><ele>139.0</ele><time>2026-05-01T03:39:03Z</time></trkpt><trkpt lat="45.74886068945124" lon="10.98633591850511"><ele>139.0</ele><time>2026-05-01T03:39:04Z</time></trkpt><trkpt lat="45.74907467093169" lon="10.986646657739449"><ele>139.0</ele><time>2026-05-01T03:39:05Z</time></trkpt><trkpt lat="45.749293577189114" lon="10.986951189546552"><ele>139.5</ele><time>2026-05-01T03:39:06Z</time></trkpt><trkpt lat="45.749519679695716" lon="10.987244577545637"><ele>140.0</ele><time>2026-05-01T03:39:07Z</time></trkpt><trkpt lat="45.749752661526124" lon="10.987529751484763"><ele>140.0</ele><time>2026-05-01T03:39:08Z</time></trkpt><trkpt lat="45.74999253031316" lon="10.987809885875302"><ele>140.0</ele><time>2026-05-01T03:39:09Z</time></trkpt><trkpt lat="45.75023524073012" lon="10.988078809696171"><ele>140.5</ele><time>2026-05-01T03:39:10Z</time></trkpt><trkpt lat="45.750484308001994" lon="10.988335720323787"><ele>141.0</ele><time>2026-05-01T03:39:11Z</time></trkpt><trkpt lat="45.750740183036896" lon="10.988583189069926"><ele>141.0</ele><time>2026-05-01T03:39:12Z</time></trkpt><trkpt lat="45.751002215428265" lon="10.98881448665616"><ele>141.0</ele><time>2026-05-01T03:39:13Z</time></trkpt><trkpt lat="45.751270616710684" lon="10.989038254091609"><ele>142.5</ele><time>2026-05-01T03:39:14Z</time></trkpt><trkpt lat="45.75154134531589" lon="10.989253588310232"><ele>144.0</ele><time>2026-05-01T03:39:15Z</time></trkpt><trkpt lat="45.751819458017614" lon="10.989456839367879"><ele>143.5</ele><time>2026-05-01T03:39:16Z</time></trkpt><trkpt lat="45.752092257031634" lon="10.989666969246509"><ele>143.0</ele><time>2026-05-01T03:39:17Z</time></trkpt><trkpt lat="45.752362980767884" lon="10.989879210329018"><ele>144.0</ele><time>2026-05-01T03:39:18Z</time></trkpt><trkpt lat="45.75263995289863" lon="10.990086898673255"><ele>145.0</ele><time>2026-05-01T03:39:19Z</time></trkpt><trkpt lat="45.75290881943228" lon="10.990296683154764"><ele>145.0</ele><time>2026-05-01T03:39:20Z</time></trkpt><trkpt lat="45.75318180319441" lon="10.990505007111864"><ele>145.0</ele><time>2026-05-01T03:39:21Z</time></trkpt><trkpt lat="45.75345889970839" lon="10.990709733526977"><ele>145.0</ele><time>2026-05-01T03:39:22Z</time></trkpt><trkpt lat="45.75373593936076" lon="10.99090906824771"><ele>145.0</ele><time>2026-05-01T03:39:23Z</time></trkpt><trkpt lat="45.75401247166426" lon="10.991106368453766"><ele>145.0</ele><time>2026-05-01T03:39:24Z</time></trkpt><trkpt lat="45.75428598543435" lon="10.991304290447975"><ele>145.0</ele><time>2026-05-01T03:39:25Z</time></trkpt><trkpt lat="45.75456085778566" lon="10.99150518359084"><ele>145.5</ele><time>2026-05-01T03:39:26Z</time></trkpt><trkpt lat="45.754834755348945" lon="10.991709236823139"><ele>146.0</ele><time>2026-05-01T03:39:27Z</time></trkpt><trkpt lat="45.75510658653973" lon="10.99191444507944"><ele>144.5</ele><time>2026-05-01T03:39:28Z</time></trkpt><trkpt lat="45.75537762820229" lon="10.992123023766792"><ele>143.0</ele><time>2026-05-01T03:39:29Z</time></trkpt><trkpt lat="45.75564875692925" lon="10.992331514200409"><ele>143.0</ele><time>2026-05-01T03:39:30Z</time></trkpt><trkpt lat="45.75591985293487" lon="10.992538610515135"><ele>143.0</ele><time>2026-05-01T03:39:31Z</time></trkpt><trkpt lat="45.75618901470927" lon="10.992744469160076"><ele>143.0</ele><time>2026-05-01T03:39:32Z</time></trkpt><trkpt lat="45.75645846412759" lon="10.992945842294159"><ele>143.0</ele><time>2026-05-01T03:39:33Z</time></trkpt><trkpt lat="45.75672460909915" lon="10.993149726108657"><ele>144.5</ele><time>2026-05-01T03:39:34Z</time></trkpt><trkpt lat="45.756991134654136" lon="10.993355190579235"><ele>146.0</ele><time>2026-05-01T03:39:35Z</time></trkpt><trkpt lat="45.75725716583791" lon="10.993556222564088"><ele>146.0</ele><time>2026-05-01T03:39:36Z</time></trkpt><trkpt lat="45.757522580801535" lon="10.993754051762865"><ele>146.0</ele><time>2026-05-01T03:39:37Z</time></trkpt><trkpt lat="45.75778619644378" lon="10.993956599774044"><ele>145.5</ele><time>2026-05-01T03:39:38Z</time></trkpt><trkpt lat="45.758046886609186" lon="10.994162382162347"><ele>145.0</ele><time>2026-05-01T03:39:39Z</time></trkpt><trkpt lat="45.75830844658392" lon="10.994372900594165"><ele>144.5</ele><time>2026-05-01T03:39:40Z</time></trkpt><trkpt lat="45.75856687188035" lon="10.994591201114137"><ele>144.0</ele><time>2026-05-01T03:39:41Z</time></trkpt><trkpt lat="45.758830995939" lon="10.99481014262726"><ele>146.0</ele><time>2026-05-01T03:39:42Z</time></trkpt><trkpt lat="45.759098613204145" lon="10.995018937076638"><ele>148.0</ele><time>2026-05-01T03:39:43Z</time></trkpt><trkpt lat="45.75936965711726" lon="10.995221018542917"><ele>148.0</ele><time>2026-05-01T03:39:44Z</time></trkpt><trkpt lat="45.759641380049494" lon="10.995428558306468"><ele>148.0</ele><time>2026-05-01T03:39:45Z</time></trkpt><trkpt lat="45.75991360289158" lon="10.99563440225287"><ele>148.5</ele><time>2026-05-01T03:39:46Z</time></trkpt><trkpt lat="45.76018728662099" lon="10.995841967017618"><ele>149.0</ele><time>2026-05-01T03:39:47Z</time></trkpt><trkpt lat="45.76046009739381" lon="10.996050787737822"><ele>146.5</ele><time>2026-05-01T03:39:48Z</time></trkpt><trkpt lat="45.76073378387451" lon="10.9962571837476"><ele>144.0</ele><time>2026-05-01T03:39:49Z</time></trkpt><trkpt lat="45.76100591037965" lon="10.996461693582626"><ele>145.0</ele><time>2026-05-01T03:39:50Z</time></trkpt><trkpt lat="45.76127777760862" lon="10.996664249165656"><ele>146.0</ele><time>2026-05-01T03:39:51Z</time></trkpt><trkpt lat="45.76154565122844" lon="10.996867606934268"><ele>146.0</ele><time>2026-05-01T03:39:52Z</time></trkpt><trkpt lat="45.76181583990152" lon="10.997072353552284"><ele>146.0</ele><time>2026-05-01T03:39:53Z</time></trkpt><trkpt lat="45.762080809313034" lon="10.997275025139006"><ele>146.5</ele><time>2026-05-01T03:39:54Z</time></trkpt><trkpt lat="45.76234709112235" lon="10.997480899746547"><ele>147.0</ele><time>2026-05-01T03:39:55Z</time></trkpt><trkpt lat="45.762610146961734" lon="10.997687042604197"><ele>147.0</ele><time>2026-05-01T03:39:56Z</time></trkpt><trkpt lat="45.7628746449672" lon="10.997898966675551"><ele>147.0</ele><time>2026-05-01T03:39:57Z</time></trkpt><trkpt lat="45.76312300653905" lon="10.998125895753308"><ele>147.5</ele><time>2026-05-01T03:39:58Z</time></trkpt><trkpt lat="45.76336407684295" lon="10.99837014646024"><ele>148.0</ele><time>2026-05-01T03:39:59Z</time></trkpt><trkpt lat="45.76359192864558" lon="10.998637582911837"><ele>147.5</ele><time>2026-05-01T03:40:00Z</time></trkpt><trkpt lat="45.76381061494865" lon="10.998921918391485"><ele>147.0</ele><time>2026-05-01T03:40:01Z</time></trkpt><trkpt lat="45.76402173127753" lon="10.999216577997727"><ele>147.0</ele><time>2026-05-01T03:40:02Z</time></trkpt><trkpt lat="45.76421867304547" lon="10.999527236266804"><ele>147.0</ele><time>2026-05-01T03:40:03Z</time></trkpt><trkpt lat="45.76440207327554" lon="10.999855680835687"><ele>144.0</ele><time>2026-05-01T03:40:04Z</time></trkpt><trkpt lat="45.76457621141869" lon="11.000200943240134"><ele>141.0</ele><time>2026-05-01T03:40:05Z</time></trkpt><trkpt lat="45.764753037846745" lon="11.000549963703868"><ele>143.5</ele><time>2026-05-01T03:40:06Z</time></trkpt><trkpt lat="45.76493613135218" lon="11.000900191567274"><ele>146.0</ele><time>2026-05-01T03:40:07Z</time></trkpt><trkpt lat="45.765120965036516" lon="11.001248373156667"><ele>144.5</ele><time>2026-05-01T03:40:08Z</time></trkpt><trkpt lat="45.76531021198696" lon="11.001599244634628"><ele>143.0</ele><time>2026-05-01T03:40:09Z</time></trkpt><trkpt lat="45.76549847706015" lon="11.001951889612469"><ele>143.0</ele><time>2026-05-01T03:40:10Z</time></trkpt><trkpt lat="45.76568460275026" lon="11.002303339255814"><ele>143.0</ele><time>2026-05-01T03:40:11Z</time></trkpt><trkpt lat="45.76586093334953" lon="11.002636942739704"><ele>141.5</ele><time>2026-05-01T03:40:12Z</time></trkpt><trkpt lat="45.76604014914801" lon="11.002977186099564"><ele>140.0</ele><time>2026-05-01T03:40:13Z</time></trkpt><trkpt lat="45.76622246551219" lon="11.003324339757123"><ele>140.5</ele><time>2026-05-01T03:40:14Z</time></trkpt><trkpt lat="45.76640569584068" lon="11.003671839424335"><ele>141.0</ele><time>2026-05-01T03:40:15Z</time></trkpt><trkpt lat="45.76659003604461" lon="11.004017691682545"><ele>140.5</ele><time>2026-05-01T03:40:16Z</time></trkpt><trkpt lat="45.76677376656855" lon="11.004361353310559"><ele>140.0</ele><time>2026-05-01T03:40:17Z</time></trkpt><trkpt lat="45.76695748994943" lon="11.00470505215604"><ele>141.5</ele><time>2026-05-01T03:40:18Z</time></trkpt><trkpt lat="45.76713897766256" lon="11.005051382505286"><ele>143.0</ele><time>2026-05-01T03:40:19Z</time></trkpt><trkpt lat="45.76731902016633" lon="11.00539800979041"><ele>143.0</ele><time>2026-05-01T03:40:20Z</time></trkpt><trkpt lat="45.76749968853076" lon="11.005743691848174"><ele>143.0</ele><time>2026-05-01T03:40:21Z</time></trkpt><trkpt lat="45.767682398266736" lon="11.00608967329841"><ele>142.0</ele><time>2026-05-01T03:40:22Z</time></trkpt><trkpt lat="45.76786558808321" lon="11.006435183204754"><ele>141.0</ele><time>2026-05-01T03:40:23Z</time></trkpt><trkpt lat="45.768049534228226" lon="11.006781196411204"><ele>141.0</ele><time>2026-05-01T03:40:24Z</time></trkpt><trkpt lat="45.768234031960716" lon="11.007124508090962"><ele>141.0</ele><time>2026-05-01T03:40:25Z</time></trkpt><trkpt lat="45.768421245693716" lon="11.007463091589926"><ele>140.5</ele><time>2026-05-01T03:40:26Z</time></trkpt><trkpt lat="45.768613624147406" lon="11.007792979023261"><ele>140.0</ele><time>2026-05-01T03:40:27Z</time></trkpt><trkpt lat="45.7688136076237" lon="11.008115672005372"><ele>142.5</ele><time>2026-05-01T03:40:28Z</time></trkpt><trkpt lat="45.769020694793205" lon="11.00843108461851"><ele>145.0</ele><time>2026-05-01T03:40:29Z</time></trkpt><trkpt lat="45.769234353110825" lon="11.008735918169755"><ele>143.5</ele><time>2026-05-01T03:40:30Z</time></trkpt><trkpt lat="45.76945663331004" lon="11.009031309672126"><ele>142.0</ele><time>2026-05-01T03:40:31Z</time></trkpt><trkpt lat="45.7696860623767" lon="11.009315989124683"><ele>142.0</ele><time>2026-05-01T03:40:32Z</time></trkpt><trkpt lat="45.769923184487446" lon="11.009585655998073"><ele>142.0</ele><time>2026-05-01T03:40:33Z</time></trkpt><trkpt lat="45.77016842372888" lon="11.00984445231011"><ele>140.5</ele><time>2026-05-01T03:40:34Z</time></trkpt><trkpt lat="45.77041925948146" lon="11.010091241640808"><ele>139.0</ele><time>2026-05-01T03:40:35Z</time></trkpt><trkpt lat="45.77067576263969" lon="11.010326823856865"><ele>139.0</ele><time>2026-05-01T03:40:36Z</time></trkpt><trkpt lat="45.7709385361895" lon="11.010551362510652"><ele>139.0</ele><time>2026-05-01T03:40:37Z</time></trkpt><trkpt lat="45.77120638598623" lon="11.01076491057225"><ele>140.5</ele><time>2026-05-01T03:40:38Z</time></trkpt><trkpt lat="45.77147728173606" lon="11.01096813084568"><ele>142.0</ele><time>2026-05-01T03:40:39Z</time></trkpt><trkpt lat="45.771753208487155" lon="11.011157234034227"><ele>140.5</ele><time>2026-05-01T03:40:40Z</time></trkpt><trkpt lat="45.772033010575676" lon="11.011329350902077"><ele>139.0</ele><time>2026-05-01T03:40:41Z</time></trkpt><trkpt lat="45.772318166410265" lon="11.011492649671428"><ele>139.0</ele><time>2026-05-01T03:40:42Z</time></trkpt><trkpt lat="45.772605222861046" lon="11.011641336591515"><ele>139.0</ele><time>2026-05-01T03:40:43Z</time></trkpt><trkpt lat="45.7728963925013" lon="11.011777354591313"><ele>141.0</ele><time>2026-05-01T03:40:44Z</time></trkpt><trkpt lat="45.773189763559294" lon="11.011906623283839"><ele>143.0</ele><time>2026-05-01T03:40:45Z</time></trkpt><trkpt lat="45.77348361315429" lon="11.01203708027975"><ele>143.0</ele><time>2026-05-01T03:40:46Z</time></trkpt><trkpt lat="45.773775512085294" lon="11.012171117108286"><ele>143.0</ele><time>2026-05-01T03:40:47Z</time></trkpt><trkpt lat="45.77406672196579" lon="11.01230647071172"><ele>142.5</ele><time>2026-05-01T03:40:48Z</time></trkpt><trkpt lat="45.77435904842751" lon="11.01243634429751"><ele>142.0</ele><time>2026-05-01T03:40:49Z</time></trkpt><trkpt lat="45.77465261596204" lon="11.012566387772779"><ele>143.0</ele><time>2026-05-01T03:40:50Z</time></trkpt><trkpt lat="45.77494564929231" lon="11.01269545641553"><ele>144.0</ele><time>2026-05-01T03:40:51Z</time></trkpt><trkpt lat="45.775238208057324" lon="11.012823561867668"><ele>144.0</ele><time>2026-05-01T03:40:52Z</time></trkpt><trkpt lat="45.77553137051212" lon="11.012954106152208"><ele>144.0</ele><time>2026-05-01T03:40:53Z</time></trkpt><trkpt lat="45.77582416964933" lon="11.013082656961698"><ele>143.5</ele><time>2026-05-01T03:40:54Z</time></trkpt><trkpt lat="45.77611809195989" lon="11.013213044497546"><ele>143.0</ele><time>2026-05-01T03:40:55Z</time></trkpt><trkpt lat="45.77641144168855" lon="11.013340902216314"><ele>143.5</ele><time>2026-05-01T03:40:56Z</time></trkpt><trkpt lat="45.77670499440371" lon="11.013468782584498"><ele>144.0</ele><time>2026-05-01T03:40:57Z</time></trkpt><trkpt lat="45.7769989492466" lon="11.013599710587938"><ele>144.0</ele><time>2026-05-01T03:40:58Z</time></trkpt><trkpt lat="45.77729372544486" lon="11.01372905096829"><ele>144.0</ele><time>2026-05-01T03:40:59Z</time></trkpt><trkpt lat="45.77758887244503" lon="11.01385793419901"><ele>144.0</ele><time>2026-05-01T03:41:00Z</time></trkpt><trkpt lat="45.77788347413921" lon="11.013986446273758"><ele>144.0</ele><time>2026-05-01T03:41:01Z</time></trkpt><trkpt lat="45.778179221345034" lon="11.014113996654634"><ele>144.5</ele><time>2026-05-01T03:41:02Z</time></trkpt><trkpt lat="45.77847560863243" lon="11.014242625184346"><ele>145.0</ele><time>2026-05-01T03:41:03Z</time></trkpt><trkpt lat="45.77877124852125" lon="11.014371687082146"><ele>145.0</ele><time>2026-05-01T03:41:04Z</time></trkpt><trkpt lat="45.77906682171157" lon="11.014500264011097"><ele>145.0</ele><time>2026-05-01T03:41:05Z</time></trkpt><trkpt lat="45.77936262751165" lon="11.014627295729273"><ele>144.0</ele><time>2026-05-01T03:41:06Z</time></trkpt><trkpt lat="45.779658121337356" lon="11.014755479454069"><ele>143.0</ele><time>2026-05-01T03:41:07Z</time></trkpt><trkpt lat="45.7799552361089" lon="11.014883447522044"><ele>144.5</ele><time>2026-05-01T03:41:08Z</time></trkpt><trkpt lat="45.780252622953554" lon="11.015011031670499"><ele>146.0</ele><time>2026-05-01T03:41:09Z</time></trkpt><trkpt lat="45.780551148625285" lon="11.015137387958742"><ele>146.0</ele><time>2026-05-01T03:41:10Z</time></trkpt><trkpt lat="45.78084691367936" lon="11.015265071455119"><ele>146.0</ele><time>2026-05-01T03:41:11Z</time></trkpt><trkpt lat="45.781143975597885" lon="11.015394576350058"><ele>145.0</ele><time>2026-05-01T03:41:12Z</time></trkpt><trkpt lat="45.78143859693623" lon="11.01552863780424"><ele>144.0</ele><time>2026-05-01T03:41:13Z</time></trkpt><trkpt lat="45.78173476511394" lon="11.015658056959776"><ele>144.5</ele><time>2026-05-01T03:41:14Z</time></trkpt><trkpt lat="45.782030223082195" lon="11.015791083014586"><ele>145.0</ele><time>2026-05-01T03:41:15Z</time></trkpt><trkpt lat="45.78232839772327" lon="11.015926235207484"><ele>145.5</ele><time>2026-05-01T03:41:16Z</time></trkpt><trkpt lat="45.78262658666074" lon="11.01606053998248"><ele>146.0</ele><time>2026-05-01T03:41:17Z</time></trkpt><trkpt lat="45.78292361140506" lon="11.01619320761269"><ele>146.0</ele><time>2026-05-01T03:41:18Z</time></trkpt><trkpt lat="45.78322027378276" lon="11.016334557972844"><ele>146.0</ele><time>2026-05-01T03:41:19Z</time></trkpt><trkpt lat="45.78350873374915" lon="11.016497375242395"><ele>146.0</ele><time>2026-05-01T03:41:20Z</time></trkpt><trkpt lat="45.783793627634694" lon="11.016670672022618"><ele>146.0</ele><time>2026-05-01T03:41:21Z</time></trkpt><trkpt lat="45.78407457230544" lon="11.016854885627449"><ele>146.0</ele><time>2026-05-01T03:41:22Z</time></trkpt><trkpt lat="45.78434759398234" lon="11.017054224601562"><ele>146.0</ele><time>2026-05-01T03:41:23Z</time></trkpt><trkpt lat="45.78461997711993" lon="11.017263315254766"><ele>146.0</ele><time>2026-05-01T03:41:24Z</time></trkpt><trkpt lat="45.78488656043409" lon="11.017484933193884"><ele>146.0</ele><time>2026-05-01T03:41:25Z</time></trkpt><trkpt lat="45.785153359834574" lon="11.017711888118072"><ele>146.5</ele><time>2026-05-01T03:41:26Z</time></trkpt><trkpt lat="45.78542136685189" lon="11.017937702336223"><ele>147.0</ele><time>2026-05-01T03:41:27Z</time></trkpt><trkpt lat="45.785688279524564" lon="11.018161974719463"><ele>147.5</ele><time>2026-05-01T03:41:28Z</time></trkpt><trkpt lat="45.785952186375226" lon="11.018396250052852"><ele>148.0</ele><time>2026-05-01T03:41:29Z</time></trkpt><trkpt lat="45.78622096965452" lon="11.01862624670638"><ele>148.0</ele><time>2026-05-01T03:41:30Z</time></trkpt><trkpt lat="45.78649649949498" lon="11.018839127714534"><ele>148.0</ele><time>2026-05-01T03:41:31Z</time></trkpt><trkpt lat="45.78677563501639" lon="11.019036415512817"><ele>148.5</ele><time>2026-05-01T03:41:32Z</time></trkpt><trkpt lat="45.78705724258101" lon="11.019223264429908"><ele>149.0</ele><time>2026-05-01T03:41:33Z</time></trkpt><trkpt lat="45.787341775010646" lon="11.019398603816235"><ele>149.0</ele><time>2026-05-01T03:41:34Z</time></trkpt><trkpt lat="45.78762765972987" lon="11.01955979135069"><ele>149.0</ele><time>2026-05-01T03:41:35Z</time></trkpt><trkpt lat="45.78791725334466" lon="11.019704037870993"><ele>149.0</ele><time>2026-05-01T03:41:36Z</time></trkpt><trkpt lat="45.788209325217295" lon="11.019830545102543"><ele>149.0</ele><time>2026-05-01T03:41:37Z</time></trkpt><trkpt lat="45.78850318891109" lon="11.019939893184052"><ele>148.5</ele><time>2026-05-01T03:41:38Z</time></trkpt><trkpt lat="45.78879957742401" lon="11.02003035335356"><ele>148.0</ele><time>2026-05-01T03:41:39Z</time></trkpt><trkpt lat="45.789097497484676" lon="11.020102888935055"><ele>147.5</ele><time>2026-05-01T03:41:40Z</time></trkpt><trkpt lat="45.789397630416204" lon="11.020162659481029"><ele>147.0</ele><time>2026-05-01T03:41:41Z</time></trkpt><trkpt lat="45.789698174231674" lon="11.020217853758846"><ele>147.0</ele><time>2026-05-01T03:41:42Z</time></trkpt><trkpt lat="45.78999692174605" lon="11.02027571403849"><ele>147.0</ele><time>2026-05-01T03:41:43Z</time></trkpt><trkpt lat="45.79029698584401" lon="11.02033030553291"><ele>147.5</ele><time>2026-05-01T03:41:44Z</time></trkpt><trkpt lat="45.79059513746241" lon="11.020389624249256"><ele>148.0</ele><time>2026-05-01T03:41:45Z</time></trkpt><trkpt lat="45.7908923864909" lon="11.020455970907644"><ele>146.5</ele><time>2026-05-01T03:41:46Z</time></trkpt><trkpt lat="45.791190247787206" lon="11.02052821358905"><ele>145.0</ele><time>2026-05-01T03:41:47Z</time></trkpt><trkpt lat="45.79149316020913" lon="11.020603195371747"><ele>145.0</ele><time>2026-05-01T03:41:48Z</time></trkpt><trkpt lat="45.79179431694544" lon="11.020677135416042"><ele>145.0</ele><time>2026-05-01T03:41:49Z</time></trkpt><trkpt lat="45.79209714647214" lon="11.020749543077555"><ele>146.0</ele><time>2026-05-01T03:41:50Z</time></trkpt><trkpt lat="45.79240281861256" lon="11.020816182290721"><ele>147.0</ele><time>2026-05-01T03:41:51Z</time></trkpt><trkpt lat="45.79270903695043" lon="11.02088244377755"><ele>147.0</ele><time>2026-05-01T03:41:52Z</time></trkpt><trkpt lat="45.79301310033786" lon="11.020945178777328"><ele>147.0</ele><time>2026-05-01T03:41:53Z</time></trkpt><trkpt lat="45.79331099229742" lon="11.021007834568659"><ele>146.5</ele><time>2026-05-01T03:41:54Z</time></trkpt><trkpt lat="45.7936035174714" lon="11.021067051867051"><ele>146.0</ele><time>2026-05-01T03:41:55Z</time></trkpt><trkpt lat="45.79390384610088" lon="11.021124759160813"><ele>146.0</ele><time>2026-05-01T03:41:56Z</time></trkpt><trkpt lat="45.794209713716675" lon="11.021177125120408"><ele>146.0</ele><time>2026-05-01T03:41:57Z</time></trkpt><trkpt lat="45.79451807081762" lon="11.02121947720272"><ele>146.5</ele><time>2026-05-01T03:41:58Z</time></trkpt><trkpt lat="45.79482914843431" lon="11.021250790138973"><ele>147.0</ele><time>2026-05-01T03:41:59Z</time></trkpt><trkpt lat="45.79514023396151" lon="11.021264153176121"><ele>147.0</ele><time>2026-05-01T03:42:00Z</time></trkpt><trkpt lat="45.79545291719267" lon="11.02126231883947"><ele>147.0</ele><time>2026-05-01T03:42:01Z</time></trkpt><trkpt lat="45.79576731359203" lon="11.021244822976618"><ele>147.5</ele><time>2026-05-01T03:42:02Z</time></trkpt><trkpt lat="45.796078635041894" lon="11.021210259394524"><ele>148.0</ele><time>2026-05-01T03:42:03Z</time></trkpt><trkpt lat="45.79638972375095" lon="11.021164582424845"><ele>148.0</ele><time>2026-05-01T03:42:04Z</time></trkpt><trkpt lat="45.79669898798759" lon="11.02110158166711"><ele>148.0</ele><time>2026-05-01T03:42:05Z</time></trkpt><trkpt lat="45.79700712844407" lon="11.021022760878184"><ele>148.5</ele><time>2026-05-01T03:42:06Z</time></trkpt><trkpt lat="45.7973121516378" lon="11.020930649580679"><ele>149.0</ele><time>2026-05-01T03:42:07Z</time></trkpt><trkpt lat="45.79761559707847" lon="11.020826673338938"><ele>148.5</ele><time>2026-05-01T03:42:08Z</time></trkpt><trkpt lat="45.79791756595643" lon="11.020705036969954"><ele>148.0</ele><time>2026-05-01T03:42:09Z</time></trkpt><trkpt lat="45.79821458380793" lon="11.020569184465542"><ele>148.0</ele><time>2026-05-01T03:42:10Z</time></trkpt><trkpt lat="45.79850897275742" lon="11.020417592612105"><ele>148.0</ele><time>2026-05-01T03:42:11Z</time></trkpt><trkpt lat="45.79880042398196" lon="11.020257232382242"><ele>148.0</ele><time>2026-05-01T03:42:12Z</time></trkpt><trkpt lat="45.79909223828394" lon="11.020086620653181"><ele>148.0</ele><time>2026-05-01T03:42:13Z</time></trkpt><trkpt lat="45.799383897780594" lon="11.019907203153736"><ele>147.0</ele><time>2026-05-01T03:42:14Z</time></trkpt><trkpt lat="45.799677215738036" lon="11.019728219519603"><ele>146.0</ele><time>2026-05-01T03:42:15Z</time></trkpt><trkpt lat="45.799971684082465" lon="11.0195509486143"><ele>146.5</ele><time>2026-05-01T03:42:16Z</time></trkpt><trkpt lat="45.800267115136535" lon="11.019377133634928"><ele>147.0</ele><time>2026-05-01T03:42:17Z</time></trkpt><trkpt lat="45.80056072491479" lon="11.019202947400835"><ele>147.0</ele><time>2026-05-01T03:42:18Z</time></trkpt><trkpt lat="45.800855934619165" lon="11.01902817913636"><ele>147.0</ele><time>2026-05-01T03:42:19Z</time></trkpt><trkpt lat="45.80114773796284" lon="11.018858994757103"><ele>147.0</ele><time>2026-05-01T03:42:20Z</time></trkpt><trkpt lat="45.8014387709504" lon="11.018689868624753"><ele>147.0</ele><time>2026-05-01T03:42:21Z</time></trkpt><trkpt lat="45.80172928365938" lon="11.018516893785133"><ele>146.5</ele><time>2026-05-01T03:42:22Z</time></trkpt><trkpt lat="45.802017122662924" lon="11.018339347857394"><ele>146.0</ele><time>2026-05-01T03:42:23Z</time></trkpt><trkpt lat="45.802302827641945" lon="11.01816350479084"><ele>146.0</ele><time>2026-05-01T03:42:24Z</time></trkpt><trkpt lat="45.802586032698585" lon="11.017989320226393"><ele>146.0</ele><time>2026-05-01T03:42:25Z</time></trkpt><trkpt lat="45.802868499753565" lon="11.017817485145377"><ele>146.5</ele><time>2026-05-01T03:42:26Z</time></trkpt><trkpt lat="45.80314725101336" lon="11.01764887923285"><ele>147.0</ele><time>2026-05-01T03:42:27Z</time></trkpt><trkpt lat="45.80342382330214" lon="11.017482385718813"><ele>147.0</ele><time>2026-05-01T03:42:28Z</time></trkpt><trkpt lat="45.803701042141086" lon="11.017316912726326"><ele>147.0</ele><time>2026-05-01T03:42:29Z</time></trkpt><trkpt lat="45.803978266455175" lon="11.017151610784941"><ele>147.0</ele><time>2026-05-01T03:42:30Z</time></trkpt><trkpt lat="45.80425488705426" lon="11.016986766765898"><ele>147.0</ele><time>2026-05-01T03:42:31Z</time></trkpt><trkpt lat="45.80453299822876" lon="11.016820821742433"><ele>147.5</ele><time>2026-05-01T03:42:32Z</time></trkpt><trkpt lat="45.80481160881185" lon="11.016654376515682"><ele>148.0</ele><time>2026-05-01T03:42:33Z</time></trkpt><trkpt lat="45.80508999707393" lon="11.016485423741655"><ele>148.5</ele><time>2026-05-01T03:42:34Z</time></trkpt><trkpt lat="45.80536810789733" lon="11.016313702595793"><ele>149.0</ele><time>2026-05-01T03:42:35Z</time></trkpt><trkpt lat="45.80564220312836" lon="11.016133118915718"><ele>149.0</ele><time>2026-05-01T03:42:36Z</time></trkpt><trkpt lat="45.80591060100533" lon="11.015948623858659"><ele>149.0</ele><time>2026-05-01T03:42:37Z</time></trkpt><trkpt lat="45.80617984129207" lon="11.015765092869547"><ele>149.0</ele><time>2026-05-01T03:42:38Z</time></trkpt><trkpt lat="45.80644493074132" lon="11.015576060239976"><ele>149.0</ele><time>2026-05-01T03:42:39Z</time></trkpt><trkpt lat="45.80670496564911" lon="11.015384740500055"><ele>149.0</ele><time>2026-05-01T03:42:40Z</time></trkpt><trkpt lat="45.80695585298519" lon="11.015181890471652"><ele>149.0</ele><time>2026-05-01T03:42:41.001Z</time></trkpt><trkpt lat="45.80720218517203" lon="11.014968001161828"><ele>149.0</ele><time>2026-05-01T03:42:42.001Z</time></trkpt><trkpt lat="45.80744420396399" lon="11.014741167343633"><ele>149.0</ele><time>2026-05-01T03:42:43.001Z</time></trkpt><trkpt lat="45.80768574888521" lon="11.014505620035623"><ele>150.0</ele><time>2026-05-01T03:42:44.001Z</time></trkpt><trkpt lat="45.80792833408478" lon="11.014265765249947"><ele>151.0</ele><time>2026-05-01T03:42:45.001Z</time></trkpt><trkpt lat="45.8081687383059" lon="11.014017126593163"><ele>151.0</ele><time>2026-05-01T03:42:46.001Z</time></trkpt><trkpt lat="45.8084101531077" lon="11.01376764790803"><ele>151.0</ele><time>2026-05-01T03:42:47.001Z</time></trkpt><trkpt lat="45.80865366131867" lon="11.013514918647273"><ele>149.5</ele><time>2026-05-01T03:42:48.001Z</time></trkpt><trkpt lat="45.80889962077313" lon="11.013260120980956"><ele>148.0</ele><time>2026-05-01T03:42:49.001Z</time></trkpt><trkpt lat="45.80914886514997" lon="11.01301182550706"><ele>148.0</ele><time>2026-05-01T03:42:50.001Z</time></trkpt><trkpt lat="45.80939908976468" lon="11.012767315641158"><ele>148.0</ele><time>2026-05-01T03:42:51.001Z</time></trkpt><trkpt lat="45.80965234804643" lon="11.012525179224841"><ele>147.5</ele><time>2026-05-01T03:42:52.001Z</time></trkpt><trkpt lat="45.80991108953534" lon="11.012288695037329"><ele>147.0</ele><time>2026-05-01T03:42:53.001Z</time></trkpt><trkpt lat="45.810174355209504" lon="11.012059726710566"><ele>147.0</ele><time>2026-05-01T03:42:54.001Z</time></trkpt><trkpt lat="45.81044267038529" lon="11.011842768520161"><ele>147.0</ele><time>2026-05-01T03:42:55.001Z</time></trkpt><trkpt lat="45.81071570640348" lon="11.011635042444722"><ele>150.0</ele><time>2026-05-01T03:42:56.001Z</time></trkpt><trkpt lat="45.810991662804206" lon="11.011432528889284"><ele>153.0</ele><time>2026-05-01T03:42:57.001Z</time></trkpt><trkpt lat="45.81127169418638" lon="11.011238285219894"><ele>153.0</ele><time>2026-05-01T03:42:58.001Z</time></trkpt><trkpt lat="45.81155652850739" lon="11.011052005684574"><ele>153.0</ele><time>2026-05-01T03:42:59.001Z</time></trkpt><trkpt lat="45.81184480896532" lon="11.010877330909487"><ele>154.5</ele><time>2026-05-01T03:43:00.001Z</time></trkpt><trkpt lat="45.81213225569083" lon="11.01071290903041"><ele>156.0</ele><time>2026-05-01T03:43:01.001Z</time></trkpt><trkpt lat="45.81242051504599" lon="11.010553045362002"><ele>155.5</ele><time>2026-05-01T03:43:02.001Z</time></trkpt><trkpt lat="45.81270785910497" lon="11.01039642050899"><ele>155.0</ele><time>2026-05-01T03:43:03.001Z</time></trkpt><trkpt lat="45.8129942160316" lon="11.01024664162126"><ele>155.0</ele><time>2026-05-01T03:43:04.001Z</time></trkpt><trkpt lat="45.81328296027352" lon="11.01010407163287"><ele>155.0</ele><time>2026-05-01T03:43:05.001Z</time></trkpt><trkpt lat="45.81356821744229" lon="11.009962007699556"><ele>155.0</ele><time>2026-05-01T03:43:06.001Z</time></trkpt><trkpt lat="45.81385263335706" lon="11.009817950881938"><ele>155.0</ele><time>2026-05-01T03:43:07.001Z</time></trkpt><trkpt lat="45.81413579461906" lon="11.009666639856562"><ele>155.0</ele><time>2026-05-01T03:43:08.001Z</time></trkpt><trkpt lat="45.81441676961869" lon="11.009499356854382"><ele>155.0</ele><time>2026-05-01T03:43:09.001Z</time></trkpt><trkpt lat="45.81469283210505" lon="11.009314418310547"><ele>156.0</ele><time>2026-05-01T03:43:10.001Z</time></trkpt><trkpt lat="45.81496258815349" lon="11.009113064173116"><ele>157.0</ele><time>2026-05-01T03:43:11.001Z</time></trkpt><trkpt lat="45.8152312593109" lon="11.008900467943683"><ele>157.0</ele><time>2026-05-01T03:43:12.001Z</time></trkpt><trkpt lat="45.815494397232975" lon="11.00867269442417"><ele>157.0</ele><time>2026-05-01T03:43:13.001Z</time></trkpt><trkpt lat="45.815757346684165" lon="11.008438149938971"><ele>157.5</ele><time>2026-05-01T03:43:14.001Z</time></trkpt><trkpt lat="45.81601966300479" lon="11.008198062095481"><ele>158.0</ele><time>2026-05-01T03:43:15.001Z</time></trkpt><trkpt lat="45.81628130933842" lon="11.00795537855215"><ele>158.0</ele><time>2026-05-01T03:43:16Z</time></trkpt><trkpt lat="45.81654276789361" lon="11.00771826129408"><ele>158.0</ele><time>2026-05-01T03:43:17Z</time></trkpt><trkpt lat="45.81680540607791" lon="11.007474021399792"><ele>158.0</ele><time>2026-05-01T03:43:18Z</time></trkpt><trkpt lat="45.81706066217237" lon="11.00724368379876"><ele>158.0</ele><time>2026-05-01T03:43:19Z</time></trkpt><trkpt lat="45.817309346430406" lon="11.007018153576656"><ele>158.0</ele><time>2026-05-01T03:43:20Z</time></trkpt><trkpt lat="45.81756650116585" lon="11.006785112876553"><ele>158.0</ele><time>2026-05-01T03:43:21Z</time></trkpt><trkpt lat="45.817824243306056" lon="11.006549183998953"><ele>157.0</ele><time>2026-05-01T03:43:22Z</time></trkpt><trkpt lat="45.81809034122482" lon="11.006311481852777"><ele>156.0</ele><time>2026-05-01T03:43:23Z</time></trkpt><trkpt lat="45.818359683907" lon="11.006080981193472"><ele>155.5</ele><time>2026-05-01T03:43:24Z</time></trkpt><trkpt lat="45.8186342232654" lon="11.005858526880743"><ele>155.0</ele><time>2026-05-01T03:43:25Z</time></trkpt><trkpt lat="45.81891457588621" lon="11.005650772764815"><ele>155.0</ele><time>2026-05-01T03:43:26Z</time></trkpt><trkpt lat="45.81920280898904" lon="11.005448577100397"><ele>155.0</ele><time>2026-05-01T03:43:27Z</time></trkpt><trkpt lat="45.81949655731634" lon="11.005259222113517"><ele>155.0</ele><time>2026-05-01T03:43:28Z</time></trkpt><trkpt lat="45.819793834646845" lon="11.005086868797932"><ele>155.0</ele><time>2026-05-01T03:43:29Z</time></trkpt><trkpt lat="45.82008755721357" lon="11.004929134199969"><ele>155.0</ele><time>2026-05-01T03:43:30Z</time></trkpt><trkpt lat="45.82038100556911" lon="11.0047890943295"><ele>155.0</ele><time>2026-05-01T03:43:31Z</time></trkpt><trkpt lat="45.820676420491125" lon="11.00466627124498"><ele>155.0</ele><time>2026-05-01T03:43:32Z</time></trkpt><trkpt lat="45.82097570950487" lon="11.00456073215191"><ele>155.0</ele><time>2026-05-01T03:43:33.001Z</time></trkpt><trkpt lat="45.82127813385777" lon="11.00447102997488"><ele>154.5</ele><time>2026-05-01T03:43:34.001Z</time></trkpt><trkpt lat="45.82158120348014" lon="11.004393249007437"><ele>154.0</ele><time>2026-05-01T03:43:35.001Z</time></trkpt><trkpt lat="45.821886944003666" lon="11.004331528280883"><ele>153.0</ele><time>2026-05-01T03:43:36.001Z</time></trkpt><trkpt lat="45.822192058027994" lon="11.004279793060622"><ele>152.0</ele><time>2026-05-01T03:43:37.001Z</time></trkpt><trkpt lat="45.822501508990094" lon="11.004236770368088"><ele>152.0</ele><time>2026-05-01T03:43:38.001Z</time></trkpt><trkpt lat="45.822808232207386" lon="11.004198246067165"><ele>152.0</ele><time>2026-05-01T03:43:39.001Z</time></trkpt><trkpt lat="45.82311714689227" lon="11.004166016326288"><ele>152.5</ele><time>2026-05-01T03:43:40.001Z</time></trkpt><trkpt lat="45.823426443998635" lon="11.004139060571012"><ele>153.0</ele><time>2026-05-01T03:43:41.001Z</time></trkpt><trkpt lat="45.8237344536618" lon="11.004115791889264"><ele>151.5</ele><time>2026-05-01T03:43:42.001Z</time></trkpt><trkpt lat="45.824042501416635" lon="11.004095047960476"><ele>150.0</ele><time>2026-05-01T03:43:43.001Z</time></trkpt><trkpt lat="45.824347215241666" lon="11.004076316780385"><ele>149.0</ele><time>2026-05-01T03:43:44.001Z</time></trkpt><trkpt lat="45.82465441325276" lon="11.00406284355248"><ele>148.0</ele><time>2026-05-01T03:43:45.001Z</time></trkpt><trkpt lat="45.82496165710791" lon="11.00405348516082"><ele>150.0</ele><time>2026-05-01T03:43:46.001Z</time></trkpt><trkpt lat="45.82526737885646" lon="11.004049273732038"><ele>152.0</ele><time>2026-05-01T03:43:47.001Z</time></trkpt><trkpt lat="45.82557111088874" lon="11.00403913309741"><ele>152.0</ele><time>2026-05-01T03:43:48.001Z</time></trkpt><trkpt lat="45.8258769779351" lon="11.004017444932614"><ele>152.0</ele><time>2026-05-01T03:43:49.001Z</time></trkpt><trkpt lat="45.82618097982751" lon="11.003978490107679"><ele>153.5</ele><time>2026-05-01T03:43:50.001Z</time></trkpt><trkpt lat="45.82648576772142" lon="11.003925324167271"><ele>155.0</ele><time>2026-05-01T03:43:51.001Z</time></trkpt><trkpt lat="45.82679217853817" lon="11.003855985734464"><ele>155.5</ele><time>2026-05-01T03:43:52.001Z</time></trkpt><trkpt lat="45.827094783618065" lon="11.003776384993126"><ele>156.0</ele><time>2026-05-01T03:43:53.001Z</time></trkpt><trkpt lat="45.827396949536826" lon="11.003688002961288"><ele>156.5</ele><time>2026-05-01T03:43:54.001Z</time></trkpt><trkpt lat="45.82770038462998" lon="11.003596057111526"><ele>157.0</ele><time>2026-05-01T03:43:55.001Z</time></trkpt><trkpt lat="45.82800485676127" lon="11.003506260425352"><ele>157.0</ele><time>2026-05-01T03:43:56.001Z</time></trkpt><trkpt lat="45.82830753773363" lon="11.003423141277452"><ele>157.0</ele><time>2026-05-01T03:43:57.001Z</time></trkpt><trkpt lat="45.82861088504919" lon="11.003352002530413"><ele>156.5</ele><time>2026-05-01T03:43:58.001Z</time></trkpt><trkpt lat="45.82891459327495" lon="11.003291067630132"><ele>156.0</ele><time>2026-05-01T03:43:59.001Z</time></trkpt><trkpt lat="45.829217272419704" lon="11.003239266975196"><ele>157.0</ele><time>2026-05-01T03:44:00.001Z</time></trkpt><trkpt lat="45.82952366110768" lon="11.003197859569635"><ele>158.0</ele><time>2026-05-01T03:44:01.001Z</time></trkpt><trkpt lat="45.82982912513418" lon="11.003169414800572"><ele>158.0</ele><time>2026-05-01T03:44:02.001Z</time></trkpt><trkpt lat="45.83013782909308" lon="11.003149781483529"><ele>158.0</ele><time>2026-05-01T03:44:03.001Z</time></trkpt><trkpt lat="45.83044643338413" lon="11.003133490201412"><ele>157.0</ele><time>2026-05-01T03:44:04.001Z</time></trkpt><trkpt lat="45.830756842938406" lon="11.003117616732437"><ele>156.0</ele><time>2026-05-01T03:44:05.001Z</time></trkpt><trkpt lat="45.83106868190303" lon="11.003105402168496"><ele>156.0</ele><time>2026-05-01T03:44:06.001Z</time></trkpt><trkpt lat="45.83138135565146" lon="11.003095161761392"><ele>156.0</ele><time>2026-05-01T03:44:07.001Z</time></trkpt><trkpt lat="45.83169400007359" lon="11.003087193319123"><ele>155.0</ele><time>2026-05-01T03:44:08.001Z</time></trkpt><trkpt lat="45.83200396703069" lon="11.003078368609863"><ele>154.0</ele><time>2026-05-01T03:44:09.001Z</time></trkpt><trkpt lat="45.832297324369" lon="11.003069547737901"><ele>154.0</ele><time>2026-05-01T03:44:10.001Z</time></trkpt><trkpt lat="45.83259717076319" lon="11.003062198882448"><ele>154.0</ele><time>2026-05-01T03:44:11.001Z</time></trkpt><trkpt lat="45.83290066547064" lon="11.00305131775492"><ele>154.5</ele><time>2026-05-01T03:44:12.001Z</time></trkpt><trkpt lat="45.83320779397119" lon="11.003038795015499"><ele>155.0</ele><time>2026-05-01T03:44:13.001Z</time></trkpt><trkpt lat="45.83351638669814" lon="11.003025971845865"><ele>155.5</ele><time>2026-05-01T03:44:14.001Z</time></trkpt><trkpt lat="45.83382408312241" lon="11.003014775790792"><ele>156.0</ele><time>2026-05-01T03:44:15.001Z</time></trkpt><trkpt lat="45.83413227077381" lon="11.00300321249239"><ele>155.5</ele><time>2026-05-01T03:44:16.001Z</time></trkpt><trkpt lat="45.834440088693846" lon="11.00299166099374"><ele>155.0</ele><time>2026-05-01T03:44:17.001Z</time></trkpt><trkpt lat="45.83474979044953" lon="11.002981738147119"><ele>155.0</ele><time>2026-05-01T03:44:18.001Z</time></trkpt><trkpt lat="45.8350593936572" lon="11.002972345575339"><ele>155.0</ele><time>2026-05-01T03:44:19.001Z</time></trkpt><trkpt lat="45.83536985394096" lon="11.00296269698917"><ele>154.5</ele><time>2026-05-01T03:44:20.001Z</time></trkpt><trkpt lat="45.83567867930767" lon="11.002953583581354"><ele>154.0</ele><time>2026-05-01T03:44:21.001Z</time></trkpt><trkpt lat="45.83598627324844" lon="11.002942822715724"><ele>154.0</ele><time>2026-05-01T03:44:22.001Z</time></trkpt><trkpt lat="45.83629344101978" lon="11.002931597527853"><ele>154.0</ele><time>2026-05-01T03:44:23.001Z</time></trkpt><trkpt lat="45.836597695670626" lon="11.002918409047348"><ele>154.0</ele><time>2026-05-01T03:44:24.001Z</time></trkpt><trkpt lat="45.83690277906264" lon="11.002907233384011"><ele>154.0</ele><time>2026-05-01T03:44:25.001Z</time></trkpt><trkpt lat="45.83720490229571" lon="11.00289677394041"><ele>154.0</ele><time>2026-05-01T03:44:26.001Z</time></trkpt><trkpt lat="45.837507307478404" lon="11.002884605696376"><ele>154.0</ele><time>2026-05-01T03:44:27.001Z</time></trkpt><trkpt lat="45.837806068988066" lon="11.002871819544218"><ele>155.5</ele><time>2026-05-01T03:44:28.001Z</time></trkpt><trkpt lat="45.83810640165571" lon="11.00285711306853"><ele>157.0</ele><time>2026-05-01T03:44:29.001Z</time></trkpt><trkpt lat="45.8384078460623" lon="11.002837391255209"><ele>157.0</ele><time>2026-05-01T03:44:30.001Z</time></trkpt><trkpt lat="45.83870813649278" lon="11.002805610600774"><ele>157.0</ele><time>2026-05-01T03:44:31.001Z</time></trkpt><trkpt lat="45.83901019544736" lon="11.002766189428176"><ele>156.5</ele><time>2026-05-01T03:44:32.001Z</time></trkpt><trkpt lat="45.83931040414294" lon="11.002701369176345"><ele>156.0</ele><time>2026-05-01T03:44:33.001Z</time></trkpt><trkpt lat="45.83960794912522" lon="11.00261790169205"><ele>156.0</ele><time>2026-05-01T03:44:34.001Z</time></trkpt><trkpt lat="45.839907348774446" lon="11.002523222868446"><ele>156.0</ele><time>2026-05-01T03:44:35.001Z</time></trkpt><trkpt lat="45.840203172124234" lon="11.002414058101474"><ele>155.5</ele><time>2026-05-01T03:44:36.001Z</time></trkpt><trkpt lat="45.840500745247965" lon="11.002293528389755"><ele>155.0</ele><time>2026-05-01T03:44:37.001Z</time></trkpt><trkpt lat="45.84079392674059" lon="11.002150613863053"><ele>156.5</ele><time>2026-05-01T03:44:38.001Z</time></trkpt><trkpt lat="45.84108440464724" lon="11.002003034479616"><ele>158.0</ele><time>2026-05-01T03:44:39.001Z</time></trkpt><trkpt lat="45.841371434968686" lon="11.001840398203985"><ele>158.0</ele><time>2026-05-01T03:44:40.001Z</time></trkpt><trkpt lat="45.84165793764053" lon="11.001666659810471"><ele>158.0</ele><time>2026-05-01T03:44:41.001Z</time></trkpt><trkpt lat="45.84194300625854" lon="11.001494049823432"><ele>158.0</ele><time>2026-05-01T03:44:42.001Z</time></trkpt><trkpt lat="45.84222875285356" lon="11.00131612132323"><ele>158.0</ele><time>2026-05-01T03:44:43.001Z</time></trkpt><trkpt lat="45.84251467492176" lon="11.001143818874908"><ele>156.5</ele><time>2026-05-01T03:44:44.001Z</time></trkpt><trkpt lat="45.84280095733406" lon="11.000981153460362"><ele>155.0</ele><time>2026-05-01T03:44:45.001Z</time></trkpt><trkpt lat="45.843087839600535" lon="11.000818677311969"><ele>155.0</ele><time>2026-05-01T03:44:46.001Z</time></trkpt><trkpt lat="45.84337700193047" lon="11.000665082221472"><ele>155.0</ele><time>2026-05-01T03:44:47.001Z</time></trkpt><trkpt lat="45.843667492709486" lon="11.000524571570852"><ele>156.5</ele><time>2026-05-01T03:44:48.001Z</time></trkpt><trkpt lat="45.84396169721934" lon="11.000396467338556"><ele>158.0</ele><time>2026-05-01T03:44:49.001Z</time></trkpt><trkpt lat="45.844257708687046" lon="11.000286426472035"><ele>158.0</ele><time>2026-05-01T03:44:50.001Z</time></trkpt><trkpt lat="45.84455228832593" lon="11.00018759486899"><ele>158.0</ele><time>2026-05-01T03:44:51.001Z</time></trkpt><trkpt lat="45.84485356671804" lon="11.00009668231001"><ele>158.0</ele><time>2026-05-01T03:44:52.001Z</time></trkpt><trkpt lat="45.84515527800622" lon="11.00001357342997"><ele>158.0</ele><time>2026-05-01T03:44:53.001Z</time></trkpt><trkpt lat="45.84546050627717" lon="10.999946152128537"><ele>158.0</ele><time>2026-05-01T03:44:54.001Z</time></trkpt><trkpt lat="45.84576275364112" lon="10.99989107385723"><ele>158.0</ele><time>2026-05-01T03:44:55.001Z</time></trkpt><trkpt lat="45.8460685626564" lon="10.999850448992184"><ele>157.5</ele><time>2026-05-01T03:44:56.001Z</time></trkpt><trkpt lat="45.8463744101117" lon="10.999823496101973"><ele>157.0</ele><time>2026-05-01T03:44:57.001Z</time></trkpt><trkpt lat="45.84667955538808" lon="10.999803024811293"><ele>157.0</ele><time>2026-05-01T03:44:58.001Z</time></trkpt><trkpt lat="45.846983999623944" lon="10.99979236134625"><ele>157.0</ele><time>2026-05-01T03:44:59.001Z</time></trkpt><trkpt lat="45.847282923449015" lon="10.9997952615719"><ele>157.0</ele><time>2026-05-01T03:45:00.001Z</time></trkpt><trkpt lat="45.84756897018509" lon="10.999801356032943"><ele>157.0</ele><time>2026-05-01T03:45:01.001Z</time></trkpt><trkpt lat="45.84785755668014" lon="10.999819035368517"><ele>157.0</ele><time>2026-05-01T03:45:02.001Z</time></trkpt><trkpt lat="45.84815060346222" lon="10.999855008553915"><ele>157.0</ele><time>2026-05-01T03:45:03.001Z</time></trkpt><trkpt lat="45.84844334971967" lon="10.99990142193155"><ele>158.5</ele><time>2026-05-01T03:45:04.001Z</time></trkpt><trkpt lat="45.84873436022586" lon="10.999961901160473"><ele>160.0</ele><time>2026-05-01T03:45:05.001Z</time></trkpt><trkpt lat="45.84902600893422" lon="11.000042159000124"><ele>159.0</ele><time>2026-05-01T03:45:06.001Z</time></trkpt><trkpt lat="45.84931561433775" lon="11.000132489695147"><ele>158.0</ele><time>2026-05-01T03:45:07.001Z</time></trkpt><trkpt lat="45.84960174279261" lon="11.000239175743419"><ele>158.0</ele><time>2026-05-01T03:45:08.001Z</time></trkpt><trkpt lat="45.849887588372965" lon="11.000361463065094"><ele>158.0</ele><time>2026-05-01T03:45:09.001Z</time></trkpt><trkpt lat="45.85017014176653" lon="11.000488693041365"><ele>158.0</ele><time>2026-05-01T03:45:10.001Z</time></trkpt><trkpt lat="45.850465446500124" lon="11.000618458675648"><ele>158.0</ele><time>2026-05-01T03:45:11.001Z</time></trkpt><trkpt lat="45.85076082966609" lon="11.000748565951607"><ele>158.0</ele><time>2026-05-01T03:45:12.001Z</time></trkpt><trkpt lat="45.85105794096675" lon="11.000875883850542"><ele>158.0</ele><time>2026-05-01T03:45:13.001Z</time></trkpt><trkpt lat="45.851352420491494" lon="11.001001561899072"><ele>158.0</ele><time>2026-05-01T03:45:14.001Z</time></trkpt><trkpt lat="45.85165167111025" lon="11.001118784832137"><ele>158.0</ele><time>2026-05-01T03:45:15.001Z</time></trkpt><trkpt lat="45.851952180273784" lon="11.001223559661804"><ele>157.5</ele><time>2026-05-01T03:45:16.001Z</time></trkpt><trkpt lat="45.85225607283366" lon="11.00131260702597"><ele>157.0</ele><time>2026-05-01T03:45:17.001Z</time></trkpt><trkpt lat="45.852561276013276" lon="11.001383715774413"><ele>157.5</ele><time>2026-05-01T03:45:18.001Z</time></trkpt><trkpt lat="45.85286937596471" lon="11.001439780195417"><ele>158.0</ele><time>2026-05-01T03:45:19.001Z</time></trkpt><trkpt lat="45.85317656497303" lon="11.001479281205535"><ele>157.0</ele><time>2026-05-01T03:45:20.001Z</time></trkpt><trkpt lat="45.85348654289103" lon="11.001499759229752"><ele>156.0</ele><time>2026-05-01T03:45:21.001Z</time></trkpt><trkpt lat="45.853794637600956" lon="11.001502445697744"><ele>156.0</ele><time>2026-05-01T03:45:22Z</time></trkpt><trkpt lat="45.8541006460483" lon="11.001488015738783"><ele>156.0</ele><time>2026-05-01T03:45:23Z</time></trkpt><trkpt lat="45.854404732658004" lon="11.001460037868872"><ele>157.5</ele><time>2026-05-01T03:45:24Z</time></trkpt><trkpt lat="45.85470785767837" lon="11.001416651556422"><ele>159.0</ele><time>2026-05-01T03:45:25Z</time></trkpt><trkpt lat="45.85501035737547" lon="11.001359247915131"><ele>160.0</ele><time>2026-05-01T03:45:26Z</time></trkpt><trkpt lat="45.85531025764218" lon="11.001287527066939"><ele>161.0</ele><time>2026-05-01T03:45:27Z</time></trkpt><trkpt lat="45.85560973233673" lon="11.001202626233292"><ele>161.0</ele><time>2026-05-01T03:45:28Z</time></trkpt><trkpt lat="45.855906666911665" lon="11.00111096868523"><ele>161.0</ele><time>2026-05-01T03:45:29Z</time></trkpt><trkpt lat="45.856202637791455" lon="11.001017760941542"><ele>162.5</ele><time>2026-05-01T03:45:30Z</time></trkpt><trkpt lat="45.85650018483123" lon="11.000925580357057"><ele>164.0</ele><time>2026-05-01T03:45:31Z</time></trkpt><trkpt lat="45.85679919158642" lon="11.000835171920826"><ele>162.5</ele><time>2026-05-01T03:45:32Z</time></trkpt><trkpt lat="45.85709840478457" lon="11.000748762076284"><ele>161.0</ele><time>2026-05-01T03:45:33Z</time></trkpt><trkpt lat="45.85739846863865" lon="11.000670594434611"><ele>162.5</ele><time>2026-05-01T03:45:34Z</time></trkpt><trkpt lat="45.857699995195546" lon="11.000606193111848"><ele>164.0</ele><time>2026-05-01T03:45:35Z</time></trkpt><trkpt lat="45.858005121962115" lon="11.000558803689767"><ele>164.0</ele><time>2026-05-01T03:45:36Z</time></trkpt><trkpt lat="45.85831079825678" lon="11.000531040427925"><ele>164.0</ele><time>2026-05-01T03:45:37Z</time></trkpt><trkpt lat="45.85861741866067" lon="11.000517618544633"><ele>165.0</ele><time>2026-05-01T03:45:38Z</time></trkpt><trkpt lat="45.85892328349895" lon="11.00052163775774"><ele>166.0</ele><time>2026-05-01T03:45:39Z</time></trkpt><trkpt lat="45.85922943118985" lon="11.000542865992845"><ele>169.0</ele><time>2026-05-01T03:45:40Z</time></trkpt><trkpt lat="45.859536368115165" lon="11.000571922671273"><ele>172.0</ele><time>2026-05-01T03:45:41Z</time></trkpt><trkpt lat="45.85984153353866" lon="11.000612482089409"><ele>172.5</ele><time>2026-05-01T03:45:42.001Z</time></trkpt><trkpt lat="45.86014517039002" lon="11.000668944327709"><ele>173.0</ele><time>2026-05-01T03:45:43.001Z</time></trkpt><trkpt lat="45.86044857398983" lon="11.00074285952762"><ele>173.0</ele><time>2026-05-01T03:45:44.001Z</time></trkpt><trkpt lat="45.86074883219997" lon="11.00083258687389"><ele>173.0</ele><time>2026-05-01T03:45:45.001Z</time></trkpt><trkpt lat="45.861045802041936" lon="11.000940184904467"><ele>171.5</ele><time>2026-05-01T03:45:46.001Z</time></trkpt><trkpt lat="45.86133819016664" lon="11.001069366965844"><ele>170.0</ele><time>2026-05-01T03:45:47.001Z</time></trkpt><trkpt lat="45.86162822231317" lon="11.001216877043861"><ele>169.5</ele><time>2026-05-01T03:45:48.001Z</time></trkpt><trkpt lat="45.861914069303324" lon="11.001380204820677"><ele>169.0</ele><time>2026-05-01T03:45:49.001Z</time></trkpt><trkpt lat="45.86219254416122" lon="11.001553764812355"><ele>168.5</ele><time>2026-05-01T03:45:50.001Z</time></trkpt><trkpt lat="45.862467967264976" lon="11.00174405833685"><ele>168.0</ele><time>2026-05-01T03:45:51.001Z</time></trkpt><trkpt lat="45.86274264916972" lon="11.001945339855656"><ele>168.0</ele><time>2026-05-01T03:45:52.001Z</time></trkpt><trkpt lat="45.86301650422012" lon="11.002153745884232"><ele>168.0</ele><time>2026-05-01T03:45:53.001Z</time></trkpt><trkpt lat="45.86329092981718" lon="11.002353784041608"><ele>169.0</ele><time>2026-05-01T03:45:54.001Z</time></trkpt><trkpt lat="45.86356541345612" lon="11.002559061085863"><ele>170.0</ele><time>2026-05-01T03:45:55.001Z</time></trkpt><trkpt lat="45.8638409435877" lon="11.002759790253307"><ele>170.0</ele><time>2026-05-01T03:45:56.001Z</time></trkpt><trkpt lat="45.86411609011944" lon="11.00295857420837"><ele>170.0</ele><time>2026-05-01T03:45:57.001Z</time></trkpt><trkpt lat="45.86439270523272" lon="11.003152953718308"><ele>172.0</ele><time>2026-05-01T03:45:58.001Z</time></trkpt><trkpt lat="45.864659207736686" lon="11.003340912944529"><ele>174.0</ele><time>2026-05-01T03:45:59.001Z</time></trkpt><trkpt lat="45.86491032788877" lon="11.00352434182832"><ele>172.5</ele><time>2026-05-01T03:46:00.001Z</time></trkpt><trkpt lat="45.86516985094935" lon="11.003708059308892"><ele>171.0</ele><time>2026-05-01T03:46:01.001Z</time></trkpt><trkpt lat="45.86543692863025" lon="11.003895329219526"><ele>171.0</ele><time>2026-05-01T03:46:02.001Z</time></trkpt><trkpt lat="45.86570610132363" lon="11.004084567586789"><ele>171.0</ele><time>2026-05-01T03:46:03.001Z</time></trkpt><trkpt lat="45.86597851978705" lon="11.004275337757704"><ele>170.0</ele><time>2026-05-01T03:46:04.001Z</time></trkpt><trkpt lat="45.86625680824809" lon="11.004464081100785"><ele>169.0</ele><time>2026-05-01T03:46:05.001Z</time></trkpt><trkpt lat="45.86653587190047" lon="11.004652331920402"><ele>170.5</ele><time>2026-05-01T03:46:06.001Z</time></trkpt><trkpt lat="45.86681644318129" lon="11.004841895934186"><ele>172.0</ele><time>2026-05-01T03:46:07.001Z</time></trkpt><trkpt lat="45.867094506607025" lon="11.005034554046674"><ele>172.0</ele><time>2026-05-01T03:46:08.001Z</time></trkpt><trkpt lat="45.867370548606495" lon="11.005229323165464"><ele>172.0</ele><time>2026-05-01T03:46:09.001Z</time></trkpt><trkpt lat="45.86764329758557" lon="11.005423352570995"><ele>175.0</ele><time>2026-05-01T03:46:10.001Z</time></trkpt><trkpt lat="45.86791617060321" lon="11.005614388352418"><ele>178.0</ele><time>2026-05-01T03:46:11.001Z</time></trkpt><trkpt lat="45.86818920122971" lon="11.005805573558561"><ele>179.0</ele><time>2026-05-01T03:46:12.001Z</time></trkpt><trkpt lat="45.86846117137225" lon="11.005997304465694"><ele>180.0</ele><time>2026-05-01T03:46:13.001Z</time></trkpt><trkpt lat="45.868733610808285" lon="11.006189189542631"><ele>180.0</ele><time>2026-05-01T03:46:14.001Z</time></trkpt><trkpt lat="45.86900798231937" lon="11.00637471765032"><ele>180.0</ele><time>2026-05-01T03:46:15.001Z</time></trkpt><trkpt lat="45.869282934707755" lon="11.006550081998139"><ele>180.5</ele><time>2026-05-01T03:46:16.001Z</time></trkpt><trkpt lat="45.86955926810614" lon="11.006712921225647"><ele>181.0</ele><time>2026-05-01T03:46:17.001Z</time></trkpt><trkpt lat="45.869836710706146" lon="11.006864928936652"><ele>190.0</ele><time>2026-05-01T03:46:18.001Z</time></trkpt><trkpt lat="45.87011702993048" lon="11.007009044686733"><ele>199.0</ele><time>2026-05-01T03:46:19.001Z</time></trkpt><trkpt lat="45.87039939102673" lon="11.007144988650905"><ele>199.0</ele><time>2026-05-01T03:46:20.001Z</time></trkpt><trkpt lat="45.870684859140255" lon="11.007271532739484"><ele>199.0</ele><time>2026-05-01T03:46:21.001Z</time></trkpt><trkpt lat="45.870974902501224" lon="11.007382631102002"><ele>202.0</ele><time>2026-05-01T03:46:22.001Z</time></trkpt><trkpt lat="45.87126705308614" lon="11.007469136598717"><ele>205.0</ele><time>2026-05-01T03:46:23.001Z</time></trkpt><trkpt lat="45.87156119568379" lon="11.00754517624137"><ele>199.5</ele><time>2026-05-01T03:46:24.001Z</time></trkpt><trkpt lat="45.8718598668945" lon="11.007617250206414"><ele>194.0</ele><time>2026-05-01T03:46:25.001Z</time></trkpt><trkpt lat="45.87216173176072" lon="11.00768519885962"><ele>194.0</ele><time>2026-05-01T03:46:26.001Z</time></trkpt><trkpt lat="45.87246671740222" lon="11.007745160963665"><ele>194.0</ele><time>2026-05-01T03:46:27.001Z</time></trkpt><trkpt lat="45.87277165655797" lon="11.00780604135644"><ele>199.0</ele><time>2026-05-01T03:46:28.001Z</time></trkpt><trkpt lat="45.873077711157585" lon="11.007869202937634"><ele>204.0</ele><time>2026-05-01T03:46:29.001Z</time></trkpt><trkpt lat="45.87338288634871" lon="11.007935758299862"><ele>202.5</ele><time>2026-05-01T03:46:30.001Z</time></trkpt><trkpt lat="45.873688748114986" lon="11.00800061136517"><ele>201.0</ele><time>2026-05-01T03:46:31.001Z</time></trkpt><trkpt lat="45.87399997152133" lon="11.00806738942287"><ele>202.0</ele><time>2026-05-01T03:46:32.001Z</time></trkpt><trkpt lat="45.874306546241655" lon="11.008133305138843"><ele>203.0</ele><time>2026-05-01T03:46:33.001Z</time></trkpt><trkpt lat="45.87461282182089" lon="11.008195167833096"><ele>203.0</ele><time>2026-05-01T03:46:34.001Z</time></trkpt><trkpt lat="45.87492000494786" lon="11.008256375010847"><ele>203.0</ele><time>2026-05-01T03:46:35.001Z</time></trkpt><trkpt lat="45.875229120340975" lon="11.008317784944088"><ele>203.5</ele><time>2026-05-01T03:46:36.001Z</time></trkpt><trkpt lat="45.875540805687656" lon="11.008379239719813"><ele>204.0</ele><time>2026-05-01T03:46:37.001Z</time></trkpt><trkpt lat="45.87584809893441" lon="11.008441109364576"><ele>205.0</ele><time>2026-05-01T03:46:38.001Z</time></trkpt><trkpt lat="45.876158087153264" lon="11.00850447645017"><ele>206.0</ele><time>2026-05-01T03:46:39.001Z</time></trkpt><trkpt lat="45.87646587238321" lon="11.008570147216911"><ele>208.0</ele><time>2026-05-01T03:46:40.001Z</time></trkpt><trkpt lat="45.876771930737945" lon="11.008637667310772"><ele>210.0</ele><time>2026-05-01T03:46:41.001Z</time></trkpt><trkpt lat="45.87708146325327" lon="11.008702119526605"><ele>210.0</ele><time>2026-05-01T03:46:42.001Z</time></trkpt><trkpt lat="45.87738883227083" lon="11.008764511827017"><ele>210.0</ele><time>2026-05-01T03:46:43.001Z</time></trkpt><trkpt lat="45.87769390041324" lon="11.008826717424792"><ele>211.0</ele><time>2026-05-01T03:46:44.001Z</time></trkpt><trkpt lat="45.87800187186502" lon="11.008890025963288"><ele>212.0</ele><time>2026-05-01T03:46:45.001Z</time></trkpt><trkpt lat="45.87830741969894" lon="11.008955455172146"><ele>211.0</ele><time>2026-05-01T03:46:46.001Z</time></trkpt><trkpt lat="45.87861657510213" lon="11.009021286861987"><ele>210.0</ele><time>2026-05-01T03:46:47.001Z</time></trkpt><trkpt lat="45.87892370002159" lon="11.00908955286701"><ele>210.0</ele><time>2026-05-01T03:46:48.001Z</time></trkpt><trkpt lat="45.87923181806121" lon="11.009158110083328"><ele>210.0</ele><time>2026-05-01T03:46:49.001Z</time></trkpt><trkpt lat="45.879540075962524" lon="11.009227294316094"><ele>209.5</ele><time>2026-05-01T03:46:50.001Z</time></trkpt><trkpt lat="45.879849559841084" lon="11.009298339961008"><ele>209.0</ele><time>2026-05-01T03:46:51.001Z</time></trkpt><trkpt lat="45.880156500945255" lon="11.009376535971633"><ele>209.0</ele><time>2026-05-01T03:46:52.001Z</time></trkpt><trkpt lat="45.88046338472085" lon="11.009462370060428"><ele>209.0</ele><time>2026-05-01T03:46:53.001Z</time></trkpt><trkpt lat="45.88076792079408" lon="11.009562927306652"><ele>207.5</ele><time>2026-05-01T03:46:54.001Z</time></trkpt><trkpt lat="45.88107515898793" lon="11.00966661136421"><ele>206.0</ele><time>2026-05-01T03:46:55.001Z</time></trkpt><trkpt lat="45.881379236083134" lon="11.009787545308471"><ele>206.0</ele><time>2026-05-01T03:46:56.001Z</time></trkpt><trkpt lat="45.88167892127823" lon="11.00992228512623"><ele>206.0</ele><time>2026-05-01T03:46:57.001Z</time></trkpt><trkpt lat="45.881976112754096" lon="11.010068746211711"><ele>207.0</ele><time>2026-05-01T03:46:58.001Z</time></trkpt><trkpt lat="45.8822780269592" lon="11.010220444578394"><ele>208.0</ele><time>2026-05-01T03:46:59.001Z</time></trkpt><trkpt lat="45.88258164946302" lon="11.010382369796911"><ele>209.5</ele><time>2026-05-01T03:47:00.001Z</time></trkpt><trkpt lat="45.88288600806301" lon="11.01053569966829"><ele>211.0</ele><time>2026-05-01T03:47:01.001Z</time></trkpt><trkpt lat="45.88319064997378" lon="11.010693344921728"><ele>210.0</ele><time>2026-05-01T03:47:02.001Z</time></trkpt><trkpt lat="45.883494498949354" lon="11.0108452032683"><ele>209.0</ele><time>2026-05-01T03:47:03.001Z</time></trkpt><trkpt lat="45.88379732334046" lon="11.011002797869342"><ele>209.0</ele><time>2026-05-01T03:47:04.001Z</time></trkpt><trkpt lat="45.88410097734656" lon="11.01116101788069"><ele>209.0</ele><time>2026-05-01T03:47:05.001Z</time></trkpt><trkpt lat="45.88440624399353" lon="11.011314773278098"><ele>211.0</ele><time>2026-05-01T03:47:06.001Z</time></trkpt><trkpt lat="45.884708389394525" lon="11.011464367349243"><ele>213.0</ele><time>2026-05-01T03:47:07.001Z</time></trkpt><trkpt lat="45.88501039839407" lon="11.011615573184674"><ele>209.5</ele><time>2026-05-01T03:47:08.001Z</time></trkpt><trkpt lat="45.88531148777432" lon="11.011768028514538"><ele>206.0</ele><time>2026-05-01T03:47:09.001Z</time></trkpt><trkpt lat="45.88560914397135" lon="11.011921492773867"><ele>206.0</ele><time>2026-05-01T03:47:10.001Z</time></trkpt><trkpt lat="45.88590638410951" lon="11.012072061136088"><ele>206.0</ele><time>2026-05-01T03:47:11.001Z</time></trkpt><trkpt lat="45.88620397284945" lon="11.012221858865777"><ele>206.5</ele><time>2026-05-01T03:47:12.001Z</time></trkpt><trkpt lat="45.886504108778766" lon="11.012373866034416"><ele>207.0</ele><time>2026-05-01T03:47:13.001Z</time></trkpt><trkpt lat="45.886804286940134" lon="11.01252609140329"><ele>202.0</ele><time>2026-05-01T03:47:14.001Z</time></trkpt><trkpt lat="45.88710213727508" lon="11.01268182785606"><ele>197.0</ele><time>2026-05-01T03:47:15.001Z</time></trkpt><trkpt lat="45.887400804939965" lon="11.012838235662842"><ele>199.0</ele><time>2026-05-01T03:47:16.001Z</time></trkpt><trkpt lat="45.887701381721605" lon="11.012994586386478"><ele>201.0</ele><time>2026-05-01T03:47:17.001Z</time></trkpt><trkpt lat="45.88800057539688" lon="11.013149543804897"><ele>201.0</ele><time>2026-05-01T03:47:18.001Z</time></trkpt><trkpt lat="45.88830072014128" lon="11.01330111114212"><ele>201.0</ele><time>2026-05-01T03:47:19.001Z</time></trkpt><trkpt lat="45.88860166889356" lon="11.013450914501433"><ele>196.0</ele><time>2026-05-01T03:47:20.001Z</time></trkpt><trkpt lat="45.888903442876234" lon="11.013603108124842"><ele>191.0</ele><time>2026-05-01T03:47:21.001Z</time></trkpt><trkpt lat="45.88920234058968" lon="11.013756580691771"><ele>198.0</ele><time>2026-05-01T03:47:22.001Z</time></trkpt><trkpt lat="45.889492172610495" lon="11.013899634892304"><ele>205.0</ele><time>2026-05-01T03:47:23.001Z</time></trkpt><trkpt lat="45.88977407789913" lon="11.014037697243081"><ele>197.0</ele><time>2026-05-01T03:47:24.001Z</time></trkpt><trkpt lat="45.89006200188028" lon="11.014186608138147"><ele>189.0</ele><time>2026-05-01T03:47:25.001Z</time></trkpt><trkpt lat="45.89034982149212" lon="11.014334179039741"><ele>189.0</ele><time>2026-05-01T03:47:26.001Z</time></trkpt><trkpt lat="45.89063979392482" lon="11.014486158096023"><ele>189.0</ele><time>2026-05-01T03:47:27.001Z</time></trkpt><trkpt lat="45.890930882252356" lon="11.014643826438663"><ele>193.0</ele><time>2026-05-01T03:47:28Z</time></trkpt><trkpt lat="45.89121975488098" lon="11.014811886984093"><ele>197.0</ele><time>2026-05-01T03:47:29Z</time></trkpt><trkpt lat="45.89150505076658" lon="11.014992029307848"><ele>193.0</ele><time>2026-05-01T03:47:30Z</time></trkpt><trkpt lat="45.89179020878589" lon="11.015182990799438"><ele>189.0</ele><time>2026-05-01T03:47:31Z</time></trkpt><trkpt lat="45.89206968892377" lon="11.015390064005473"><ele>189.0</ele><time>2026-05-01T03:47:32Z</time></trkpt><trkpt lat="45.8923454741791" lon="11.015607174036903"><ele>189.0</ele><time>2026-05-01T03:47:33Z</time></trkpt><trkpt lat="45.892615604191995" lon="11.015833363901603"><ele>184.5</ele><time>2026-05-01T03:47:34Z</time></trkpt><trkpt lat="45.89288453071392" lon="11.01606901779393"><ele>180.0</ele><time>2026-05-01T03:47:35Z</time></trkpt><trkpt lat="45.893149662582445" lon="11.016312360674624"><ele>180.0</ele><time>2026-05-01T03:47:36Z</time></trkpt><trkpt lat="45.89341036763676" lon="11.016565392710648"><ele>180.0</ele><time>2026-05-01T03:47:37Z</time></trkpt><trkpt lat="45.893665811399536" lon="11.016830484986354"><ele>180.5</ele><time>2026-05-01T03:47:38Z</time></trkpt><trkpt lat="45.89391295489346" lon="11.017108128608918"><ele>181.0</ele><time>2026-05-01T03:47:39Z</time></trkpt><trkpt lat="45.89414984828849" lon="11.017399955626923"><ele>180.0</ele><time>2026-05-01T03:47:40Z</time></trkpt><trkpt lat="45.89437830206276" lon="11.01770483084949"><ele>179.0</ele><time>2026-05-01T03:47:41Z</time></trkpt><trkpt lat="45.89459844853803" lon="11.018017732520063"><ele>176.0</ele><time>2026-05-01T03:47:42Z</time></trkpt><trkpt lat="45.89483194710881" lon="11.018338797497819"><ele>173.0</ele><time>2026-05-01T03:47:43Z</time></trkpt><trkpt lat="45.89505688510509" lon="11.01865873285964"><ele>174.0</ele><time>2026-05-01T03:47:44Z</time></trkpt><trkpt lat="45.8952858137571" lon="11.01897242099594"><ele>175.0</ele><time>2026-05-01T03:47:45Z</time></trkpt><trkpt lat="45.89551887952527" lon="11.019284393085494"><ele>175.0</ele><time>2026-05-01T03:47:46Z</time></trkpt><trkpt lat="45.89575004882869" lon="11.019594419077505"><ele>175.0</ele><time>2026-05-01T03:47:47Z</time></trkpt><trkpt lat="45.89597893437303" lon="11.019904998765925"><ele>174.0</ele><time>2026-05-01T03:47:48Z</time></trkpt><trkpt lat="45.896203250182985" lon="11.02021395563871"><ele>173.0</ele><time>2026-05-01T03:47:49.001Z</time></trkpt><trkpt lat="45.89642650854681" lon="11.020522109867297"><ele>171.5</ele><time>2026-05-01T03:47:50.001Z</time></trkpt><trkpt lat="45.89664737796628" lon="11.020825788965666"><ele>170.0</ele><time>2026-05-01T03:47:51.001Z</time></trkpt><trkpt lat="45.89686876443965" lon="11.02112776292747"><ele>170.0</ele><time>2026-05-01T03:47:52.001Z</time></trkpt><trkpt lat="45.89708940150051" lon="11.021425586215026"><ele>170.0</ele><time>2026-05-01T03:47:53.001Z</time></trkpt><trkpt lat="45.89730949938999" lon="11.021725846376405"><ele>170.0</ele><time>2026-05-01T03:47:54.001Z</time></trkpt><trkpt lat="45.89753013531585" lon="11.022027024934049"><ele>170.0</ele><time>2026-05-01T03:47:55.001Z</time></trkpt><trkpt lat="45.89774982758961" lon="11.022327502141335"><ele>171.0</ele><time>2026-05-01T03:47:56.001Z</time></trkpt><trkpt lat="45.897968815053424" lon="11.022628041082482"><ele>172.0</ele><time>2026-05-01T03:47:57.001Z</time></trkpt><trkpt lat="45.89819002542886" lon="11.02292718704718"><ele>172.0</ele><time>2026-05-01T03:47:58.001Z</time></trkpt><trkpt lat="45.89841671207643" lon="11.023224130056231"><ele>172.0</ele><time>2026-05-01T03:47:59.001Z</time></trkpt><trkpt lat="45.898643189121415" lon="11.023510653168298"><ele>171.0</ele><time>2026-05-01T03:48:00.001Z</time></trkpt><trkpt lat="45.898873808848485" lon="11.023797824101987"><ele>170.0</ele><time>2026-05-01T03:48:01.001Z</time></trkpt><trkpt lat="45.89910635727145" lon="11.024078663458896"><ele>170.5</ele><time>2026-05-01T03:48:02.001Z</time></trkpt><trkpt lat="45.89934627196731" lon="11.024357603421713"><ele>171.0</ele><time>2026-05-01T03:48:03.001Z</time></trkpt><trkpt lat="45.89958954748342" lon="11.02462828272838"><ele>171.0</ele><time>2026-05-01T03:48:04.001Z</time></trkpt><trkpt lat="45.899834786663924" lon="11.024889973936647"><ele>171.0</ele><time>2026-05-01T03:48:05.001Z</time></trkpt><trkpt lat="45.90008444204005" lon="11.025145623888537"><ele>171.5</ele><time>2026-05-01T03:48:06.001Z</time></trkpt><trkpt lat="45.9003362781002" lon="11.025394918162487"><ele>172.0</ele><time>2026-05-01T03:48:07.001Z</time></trkpt><trkpt lat="45.90059146058331" lon="11.02563980529798"><ele>171.5</ele><time>2026-05-01T03:48:08.001Z</time></trkpt><trkpt lat="45.900850039801796" lon="11.025875822233232"><ele>171.0</ele><time>2026-05-01T03:48:09.001Z</time></trkpt><trkpt lat="45.90110744735861" lon="11.026103609629844"><ele>172.0</ele><time>2026-05-01T03:48:10.001Z</time></trkpt><trkpt lat="45.90136754721245" lon="11.026329763718813"><ele>173.0</ele><time>2026-05-01T03:48:11.001Z</time></trkpt><trkpt lat="45.901628318327006" lon="11.02655148401177"><ele>173.5</ele><time>2026-05-01T03:48:12.001Z</time></trkpt><trkpt lat="45.90189150549823" lon="11.02676695815367"><ele>174.0</ele><time>2026-05-01T03:48:13.001Z</time></trkpt><trkpt lat="45.90215890187745" lon="11.02697074193233"><ele>174.0</ele><time>2026-05-01T03:48:14.001Z</time></trkpt><trkpt lat="45.90242689149575" lon="11.027173044708263"><ele>174.0</ele><time>2026-05-01T03:48:15.001Z</time></trkpt><trkpt lat="45.902697801459524" lon="11.027370534987949"><ele>173.5</ele><time>2026-05-01T03:48:16.001Z</time></trkpt><trkpt lat="45.90297141660219" lon="11.02756512452822"><ele>173.0</ele><time>2026-05-01T03:48:17.001Z</time></trkpt><trkpt lat="45.90324495627149" lon="11.027761176070047"><ele>173.0</ele><time>2026-05-01T03:48:18.001Z</time></trkpt><trkpt lat="45.90351303795643" lon="11.027968877756768"><ele>173.0</ele><time>2026-05-01T03:48:19.001Z</time></trkpt><trkpt lat="45.903784829614985" lon="11.028171676803616"><ele>172.5</ele><time>2026-05-01T03:48:20.001Z</time></trkpt><trkpt lat="45.9040581601056" lon="11.028377850070394"><ele>172.0</ele><time>2026-05-01T03:48:21.001Z</time></trkpt><trkpt lat="45.90433138125072" lon="11.02858220302336"><ele>172.0</ele><time>2026-05-01T03:48:22.001Z</time></trkpt><trkpt lat="45.90460485551957" lon="11.028789990660064"><ele>172.0</ele><time>2026-05-01T03:48:23.001Z</time></trkpt><trkpt lat="45.90487827375403" lon="11.028998816261106"><ele>172.5</ele><time>2026-05-01T03:48:24.001Z</time></trkpt><trkpt lat="45.90515191295021" lon="11.029210808242263"><ele>173.0</ele><time>2026-05-01T03:48:25.001Z</time></trkpt><trkpt lat="45.90542213069849" lon="11.029420457212671"><ele>173.0</ele><time>2026-05-01T03:48:26.001Z</time></trkpt><trkpt lat="45.90568387130423" lon="11.029621996388553"><ele>173.0</ele><time>2026-05-01T03:48:27.001Z</time></trkpt><trkpt lat="45.90594810088927" lon="11.029825246043472"><ele>172.5</ele><time>2026-05-01T03:48:28.001Z</time></trkpt><trkpt lat="45.90621712389274" lon="11.030030916914093"><ele>172.0</ele><time>2026-05-01T03:48:29.001Z</time></trkpt><trkpt lat="45.906487308974526" lon="11.030246465674004"><ele>172.5</ele><time>2026-05-01T03:48:30.001Z</time></trkpt><trkpt lat="45.90676241631189" lon="11.030455581138995"><ele>173.0</ele><time>2026-05-01T03:48:31.001Z</time></trkpt><trkpt lat="45.90703857810189" lon="11.03066140477951"><ele>172.5</ele><time>2026-05-01T03:48:32.001Z</time></trkpt><trkpt lat="45.90731483318233" lon="11.030868529290434"><ele>172.0</ele><time>2026-05-01T03:48:33.001Z</time></trkpt><trkpt lat="45.907590590956524" lon="11.031075517028043"><ele>173.0</ele><time>2026-05-01T03:48:34.001Z</time></trkpt><trkpt lat="45.90786786703885" lon="11.031282806518833"><ele>174.0</ele><time>2026-05-01T03:48:35.001Z</time></trkpt><trkpt lat="45.90814504949606" lon="11.031487874573925"><ele>173.5</ele><time>2026-05-01T03:48:36.001Z</time></trkpt><trkpt lat="45.908419371759095" lon="11.031695317686793"><ele>173.0</ele><time>2026-05-01T03:48:37.001Z</time></trkpt><trkpt lat="45.90869413787483" lon="11.03190443325752"><ele>173.0</ele><time>2026-05-01T03:48:38.001Z</time></trkpt><trkpt lat="45.908969349722554" lon="11.032114018977897"><ele>173.0</ele><time>2026-05-01T03:48:39.001Z</time></trkpt><trkpt lat="45.90924482818302" lon="11.032324139598101"><ele>173.5</ele><time>2026-05-01T03:48:40.001Z</time></trkpt><trkpt lat="45.909520001878064" lon="11.032531596743308"><ele>174.0</ele><time>2026-05-01T03:48:41.001Z</time></trkpt><trkpt lat="45.90979555231448" lon="11.032740003705566"><ele>174.0</ele><time>2026-05-01T03:48:42.001Z</time></trkpt><trkpt lat="45.91007002525845" lon="11.032947528048387"><ele>174.0</ele><time>2026-05-01T03:48:43.001Z</time></trkpt><trkpt lat="45.910343564611864" lon="11.033154871961884"><ele>173.5</ele><time>2026-05-01T03:48:44.001Z</time></trkpt><trkpt lat="45.91061882146247" lon="11.033361898990284"><ele>173.0</ele><time>2026-05-01T03:48:45.001Z</time></trkpt><trkpt lat="45.91089289240658" lon="11.033569733315566"><ele>173.5</ele><time>2026-05-01T03:48:46.001Z</time></trkpt><trkpt lat="45.91116816586121" lon="11.033777745101684"><ele>174.0</ele><time>2026-05-01T03:48:47.001Z</time></trkpt><trkpt lat="45.91144246583436" lon="11.033985240684194"><ele>173.5</ele><time>2026-05-01T03:48:48.001Z</time></trkpt><trkpt lat="45.91171492991565" lon="11.034193701800229"><ele>173.0</ele><time>2026-05-01T03:48:49.001Z</time></trkpt><trkpt lat="45.911987657626895" lon="11.034404725926436"><ele>174.0</ele><time>2026-05-01T03:48:50.001Z</time></trkpt><trkpt lat="45.9122600521091" lon="11.034616188550915"><ele>175.0</ele><time>2026-05-01T03:48:51.001Z</time></trkpt><trkpt lat="45.91253223789296" lon="11.034833498219573"><ele>175.5</ele><time>2026-05-01T03:48:52.001Z</time></trkpt><trkpt lat="45.9127990556723" lon="11.035060711716376"><ele>176.0</ele><time>2026-05-01T03:48:53.001Z</time></trkpt><trkpt lat="45.91306524310167" lon="11.035292920142595"><ele>176.0</ele><time>2026-05-01T03:48:54.001Z</time></trkpt><trkpt lat="45.91333349714267" lon="11.035528996120522"><ele>176.0</ele><time>2026-05-01T03:48:55.001Z</time></trkpt><trkpt lat="45.91359359445706" lon="11.03578420050854"><ele>177.0</ele><time>2026-05-01T03:48:56.001Z</time></trkpt><trkpt lat="45.9138523152326" lon="11.03604704945791"><ele>178.0</ele><time>2026-05-01T03:48:57.001Z</time></trkpt><trkpt lat="45.914107568253144" lon="11.036309513695917"><ele>178.0</ele><time>2026-05-01T03:48:58.001Z</time></trkpt><trkpt lat="45.91436049195452" lon="11.036583142923057"><ele>178.0</ele><time>2026-05-01T03:48:59.001Z</time></trkpt><trkpt lat="45.91460995903803" lon="11.036861032327355"><ele>178.0</ele><time>2026-05-01T03:49:00.001Z</time></trkpt><trkpt lat="45.91485637400296" lon="11.037147772946462"><ele>178.0</ele><time>2026-05-01T03:49:01.001Z</time></trkpt><trkpt lat="45.91509698465204" lon="11.03743462254899"><ele>178.5</ele><time>2026-05-01T03:49:02.001Z</time></trkpt><trkpt lat="45.91533211604641" lon="11.03772878524819"><ele>179.0</ele><time>2026-05-01T03:49:03.001Z</time></trkpt><trkpt lat="45.915563803775036" lon="11.038025513159852"><ele>178.5</ele><time>2026-05-01T03:49:04.001Z</time></trkpt><trkpt lat="45.9157921786856" lon="11.038326916250497"><ele>178.0</ele><time>2026-05-01T03:49:05.001Z</time></trkpt><trkpt lat="45.91601596499022" lon="11.038634306364564"><ele>177.0</ele><time>2026-05-01T03:49:06.001Z</time></trkpt><trkpt lat="45.916233923389676" lon="11.03894727716069"><ele>176.0</ele><time>2026-05-01T03:49:07.001Z</time></trkpt><trkpt lat="45.916449261334336" lon="11.039263865869891"><ele>176.0</ele><time>2026-05-01T03:49:08.001Z</time></trkpt><trkpt lat="45.916660190567" lon="11.039587217280939"><ele>176.0</ele><time>2026-05-01T03:49:09.001Z</time></trkpt><trkpt lat="45.91686728174035" lon="11.03991193501956"><ele>175.0</ele><time>2026-05-01T03:49:10.001Z</time></trkpt><trkpt lat="45.917071343735316" lon="11.040246985361994"><ele>174.0</ele><time>2026-05-01T03:49:11.001Z</time></trkpt><trkpt lat="45.91727310505246" lon="11.040581179866665"><ele>174.0</ele><time>2026-05-01T03:49:12.001Z</time></trkpt><trkpt lat="45.91747215677173" lon="11.040917017581307"><ele>174.0</ele><time>2026-05-01T03:49:13.001Z</time></trkpt><trkpt lat="45.91767192318829" lon="11.041253029370273"><ele>174.0</ele><time>2026-05-01T03:49:14.001Z</time></trkpt><trkpt lat="45.91786771508572" lon="11.041595923818786"><ele>174.0</ele><time>2026-05-01T03:49:15.001Z</time></trkpt><trkpt lat="45.91806309048907" lon="11.04194179756121"><ele>174.0</ele><time>2026-05-01T03:49:16.001Z</time></trkpt><trkpt lat="45.9182599421417" lon="11.042288293554403"><ele>174.0</ele><time>2026-05-01T03:49:17.001Z</time></trkpt><trkpt lat="45.918456414198495" lon="11.042632784242393"><ele>174.0</ele><time>2026-05-01T03:49:18.001Z</time></trkpt><trkpt lat="45.91865474977261" lon="11.042979087364074"><ele>174.0</ele><time>2026-05-01T03:49:19.001Z</time></trkpt><trkpt lat="45.918855759649034" lon="11.043318638704411"><ele>174.0</ele><time>2026-05-01T03:49:20.001Z</time></trkpt><trkpt lat="45.91905515329201" lon="11.0436619113097"><ele>174.0</ele><time>2026-05-01T03:49:21.001Z</time></trkpt><trkpt lat="45.91925818057845" lon="11.04400377520638"><ele>174.0</ele><time>2026-05-01T03:49:22.001Z</time></trkpt><trkpt lat="45.91945944081401" lon="11.044346058210449"><ele>174.0</ele><time>2026-05-01T03:49:23.001Z</time></trkpt><trkpt lat="45.91965537826407" lon="11.044691066866662"><ele>174.0</ele><time>2026-05-01T03:49:24.001Z</time></trkpt><trkpt lat="45.91984866375397" lon="11.045037375397039"><ele>174.0</ele><time>2026-05-01T03:49:25.001Z</time></trkpt><trkpt lat="45.92004393033318" lon="11.045380802482082"><ele>173.5</ele><time>2026-05-01T03:49:26.001Z</time></trkpt><trkpt lat="45.92023810874654" lon="11.045724336608659"><ele>173.0</ele><time>2026-05-01T03:49:27.001Z</time></trkpt><trkpt lat="45.92043027579971" lon="11.046064008591971"><ele>173.0</ele><time>2026-05-01T03:49:28.001Z</time></trkpt><trkpt lat="45.920615612702484" lon="11.046393529927292"><ele>173.0</ele><time>2026-05-01T03:49:29.001Z</time></trkpt><trkpt lat="45.92079664747131" lon="11.046714679176711"><ele>172.5</ele><time>2026-05-01T03:49:30.001Z</time></trkpt><trkpt lat="45.92098386500702" lon="11.047043123250672"><ele>172.0</ele><time>2026-05-01T03:49:31.001Z</time></trkpt><trkpt lat="45.9211707341807" lon="11.047380332322884"><ele>173.0</ele><time>2026-05-01T03:49:32.001Z</time></trkpt><trkpt lat="45.92136158065296" lon="11.047714624582964"><ele>174.0</ele><time>2026-05-01T03:49:33Z</time></trkpt><trkpt lat="45.92155271590287" lon="11.048051662829536"><ele>174.5</ele><time>2026-05-01T03:49:34Z</time></trkpt><trkpt lat="45.92174473331221" lon="11.048387162176668"><ele>175.0</ele><time>2026-05-01T03:49:35Z</time></trkpt><trkpt lat="45.921932615056015" lon="11.048720152096841"><ele>175.0</ele><time>2026-05-01T03:49:36Z</time></trkpt><trkpt lat="45.92212174292335" lon="11.049050070221744"><ele>175.0</ele><time>2026-05-01T03:49:37Z</time></trkpt><trkpt lat="45.922308957956936" lon="11.049377931733359"><ele>174.5</ele><time>2026-05-01T03:49:38Z</time></trkpt><trkpt lat="45.92249623322278" lon="11.04970679967479"><ele>174.0</ele><time>2026-05-01T03:49:39Z</time></trkpt><trkpt lat="45.92268240032298" lon="11.050031325814796"><ele>175.0</ele><time>2026-05-01T03:49:40Z</time></trkpt><trkpt lat="45.92286980381911" lon="11.050363509750403"><ele>176.0</ele><time>2026-05-01T03:49:41Z</time></trkpt><trkpt lat="45.923056626069375" lon="11.050695792824513"><ele>175.5</ele><time>2026-05-01T03:49:42Z</time></trkpt><trkpt lat="45.92324447124928" lon="11.051029761076911"><ele>175.0</ele><time>2026-05-01T03:49:43Z</time></trkpt><trkpt lat="45.923433613108365" lon="11.051362222588006"><ele>174.5</ele><time>2026-05-01T03:49:44Z</time></trkpt><trkpt lat="45.92362204635557" lon="11.051691095271273"><ele>174.0</ele><time>2026-05-01T03:49:45Z</time></trkpt><trkpt lat="45.92380961601459" lon="11.052016286629362"><ele>174.0</ele><time>2026-05-01T03:49:46Z</time></trkpt><trkpt lat="45.923994004252364" lon="11.052338737249379"><ele>174.0</ele><time>2026-05-01T03:49:47Z</time></trkpt><trkpt lat="45.92417841477469" lon="11.052658657629598"><ele>176.5</ele><time>2026-05-01T03:49:48Z</time></trkpt><trkpt lat="45.92436135217225" lon="11.05297818894652"><ele>179.0</ele><time>2026-05-01T03:49:49Z</time></trkpt><trkpt lat="45.92454075730045" lon="11.053294750800514"><ele>179.0</ele><time>2026-05-01T03:49:50Z</time></trkpt><trkpt lat="45.92471860627286" lon="11.053608827408446"><ele>179.0</ele><time>2026-05-01T03:49:51Z</time></trkpt><trkpt lat="45.924896758688455" lon="11.053922829733743"><ele>184.0</ele><time>2026-05-01T03:49:52Z</time></trkpt><trkpt lat="45.92507305366554" lon="11.054232437531082"><ele>189.0</ele><time>2026-05-01T03:49:53Z</time></trkpt><trkpt lat="45.92524858111203" lon="11.054542715364178"><ele>189.0</ele><time>2026-05-01T03:49:54Z</time></trkpt><trkpt lat="45.92542902490404" lon="11.05485593845684"><ele>189.0</ele><time>2026-05-01T03:49:55Z</time></trkpt><trkpt lat="45.925613810503656" lon="11.055177153595121"><ele>187.5</ele><time>2026-05-01T03:49:56.001Z</time></trkpt><trkpt lat="45.925798281234506" lon="11.055513178658753"><ele>186.0</ele><time>2026-05-01T03:49:57.001Z</time></trkpt><trkpt lat="45.925988678145025" lon="11.055851853274698"><ele>197.0</ele><time>2026-05-01T03:49:58.001Z</time></trkpt><trkpt lat="45.926178947052726" lon="11.056194111250107"><ele>208.0</ele><time>2026-05-01T03:49:59.001Z</time></trkpt><trkpt lat="45.92636632851868" lon="11.056539738017799"><ele>203.0</ele><time>2026-05-01T03:50:00.001Z</time></trkpt><trkpt lat="45.926551923695385" lon="11.05688819556788"><ele>198.0</ele><time>2026-05-01T03:50:01.001Z</time></trkpt><trkpt lat="45.92673142084423" lon="11.057244079221404"><ele>209.5</ele><time>2026-05-01T03:50:02.001Z</time></trkpt><trkpt lat="45.92690243954091" lon="11.05761037371459"><ele>221.0</ele><time>2026-05-01T03:50:03.001Z</time></trkpt><trkpt lat="45.92706052428467" lon="11.057988142232507"><ele>209.0</ele><time>2026-05-01T03:50:04.001Z</time></trkpt><trkpt lat="45.92720295892018" lon="11.058378893764004"><ele>197.0</ele><time>2026-05-01T03:50:05.001Z</time></trkpt><trkpt lat="45.92732976219199" lon="11.058781023695373"><ele>189.0</ele><time>2026-05-01T03:50:06.001Z</time></trkpt><trkpt lat="45.92744762567288" lon="11.0591950206165"><ele>181.0</ele><time>2026-05-01T03:50:07.001Z</time></trkpt><trkpt lat="45.9275577094396" lon="11.059617175014406"><ele>188.5</ele><time>2026-05-01T03:50:08.001Z</time></trkpt><trkpt lat="45.92766026430659" lon="11.060046921998815"><ele>196.0</ele><time>2026-05-01T03:50:09.001Z</time></trkpt><trkpt lat="45.92775480462064" lon="11.060476438270866"><ele>188.5</ele><time>2026-05-01T03:50:10.001Z</time></trkpt><trkpt lat="45.92783454379758" lon="11.060911444797965"><ele>181.0</ele><time>2026-05-01T03:50:11.001Z</time></trkpt><trkpt lat="45.92790206181246" lon="11.061351321616986"><ele>179.0</ele><time>2026-05-01T03:50:12.001Z</time></trkpt><trkpt lat="45.92795825461769" lon="11.061794794914075"><ele>177.0</ele><time>2026-05-01T03:50:13.001Z</time></trkpt><trkpt lat="45.92799926063335" lon="11.062239051698516"><ele>177.0</ele><time>2026-05-01T03:50:14.001Z</time></trkpt><trkpt lat="45.92802560101562" lon="11.062686537325078"><ele>177.0</ele><time>2026-05-01T03:50:15.001Z</time></trkpt><trkpt lat="45.92803742412508" lon="11.063133839111142"><ele>177.0</ele><time>2026-05-01T03:50:16.001Z</time></trkpt><trkpt lat="45.92803665604902" lon="11.06358148273586"><ele>177.0</ele><time>2026-05-01T03:50:17.001Z</time></trkpt><trkpt lat="45.92802712965008" lon="11.064029458701523"><ele>177.5</ele><time>2026-05-01T03:50:18.001Z</time></trkpt><trkpt lat="45.92800367032347" lon="11.064482998569265"><ele>178.0</ele><time>2026-05-01T03:50:19.001Z</time></trkpt><trkpt lat="45.9279701131008" lon="11.064931245086232"><ele>178.0</ele><time>2026-05-01T03:50:20.001Z</time></trkpt><trkpt lat="45.927921139700985" lon="11.065380099419553"><ele>178.0</ele><time>2026-05-01T03:50:21.001Z</time></trkpt><trkpt lat="45.927859051992954" lon="11.065824629058834"><ele>178.0</ele><time>2026-05-01T03:50:22.001Z</time></trkpt><trkpt lat="45.927787122113166" lon="11.06627082359712"><ele>178.0</ele><time>2026-05-01T03:50:23.001Z</time></trkpt><trkpt lat="45.927706231445136" lon="11.066708544270073"><ele>178.0</ele><time>2026-05-01T03:50:24.001Z</time></trkpt><trkpt lat="45.92761582396058" lon="11.067146575769705"><ele>178.0</ele><time>2026-05-01T03:50:25.001Z</time></trkpt><trkpt lat="45.92752324489258" lon="11.067581090957006"><ele>177.5</ele><time>2026-05-01T03:50:26.001Z</time></trkpt><trkpt lat="45.92743184296323" lon="11.068010364461673"><ele>177.0</ele><time>2026-05-01T03:50:27.001Z</time></trkpt><trkpt lat="45.927346790645174" lon="11.068420199332763"><ele>177.0</ele><time>2026-05-01T03:50:28.001Z</time></trkpt><trkpt lat="45.927261836611244" lon="11.06883732663231"><ele>177.0</ele><time>2026-05-01T03:50:29.001Z</time></trkpt><trkpt lat="45.927174810597684" lon="11.069261077043352"><ele>176.5</ele><time>2026-05-01T03:50:30.001Z</time></trkpt><trkpt lat="45.92708813950624" lon="11.069690577030588"><ele>176.0</ele><time>2026-05-01T03:50:31.001Z</time></trkpt><trkpt lat="45.92700478614165" lon="11.07012340745046"><ele>176.0</ele><time>2026-05-01T03:50:32.001Z</time></trkpt><trkpt lat="45.92692966824683" lon="11.070554635482717"><ele>176.0</ele><time>2026-05-01T03:50:33.001Z</time></trkpt><trkpt lat="45.926864649366024" lon="11.070986204941027"><ele>176.5</ele><time>2026-05-01T03:50:34.001Z</time></trkpt><trkpt lat="45.92680632775572" lon="11.071413297404394"><ele>177.0</ele><time>2026-05-01T03:50:35.001Z</time></trkpt><trkpt lat="45.926758856834276" lon="11.071833027302034"><ele>176.0</ele><time>2026-05-01T03:50:36.001Z</time></trkpt><trkpt lat="45.926720977095655" lon="11.072248957599975"><ele>175.0</ele><time>2026-05-01T03:50:37.001Z</time></trkpt><trkpt lat="45.92669310897155" lon="11.072664588207747"><ele>174.5</ele><time>2026-05-01T03:50:38.001Z</time></trkpt><trkpt lat="45.92667740883744" lon="11.07308050539455"><ele>174.0</ele><time>2026-05-01T03:50:39.001Z</time></trkpt><trkpt lat="45.92667439471401" lon="11.073503978308883"><ele>175.0</ele><time>2026-05-01T03:50:40.001Z</time></trkpt><trkpt lat="45.926679553553285" lon="11.073933813352944"><ele>176.0</ele><time>2026-05-01T03:50:41.001Z</time></trkpt><trkpt lat="45.926695301970604" lon="11.074371514226632"><ele>176.5</ele><time>2026-05-01T03:50:42.001Z</time></trkpt><trkpt lat="45.92672596686399" lon="11.07481238838846"><ele>177.0</ele><time>2026-05-01T03:50:43.001Z</time></trkpt><trkpt lat="45.92676935772295" lon="11.075248485460648"><ele>177.0</ele><time>2026-05-01T03:50:44.001Z</time></trkpt><trkpt lat="45.926824381393786" lon="11.075686143761622"><ele>177.0</ele><time>2026-05-01T03:50:45.001Z</time></trkpt><trkpt lat="45.92689307675531" lon="11.076117551496512"><ele>178.0</ele><time>2026-05-01T03:50:46.001Z</time></trkpt><trkpt lat="45.926973422607254" lon="11.076543488699933"><ele>179.0</ele><time>2026-05-01T03:50:47.001Z</time></trkpt><trkpt lat="45.92706357390635" lon="11.076967139558013"><ele>179.0</ele><time>2026-05-01T03:50:48.001Z</time></trkpt><trkpt lat="45.927161509100856" lon="11.077386286860886"><ele>179.0</ele><time>2026-05-01T03:50:49.001Z</time></trkpt><trkpt lat="45.92727071784448" lon="11.077803655512085"><ele>179.5</ele><time>2026-05-01T03:50:50.001Z</time></trkpt><trkpt lat="45.92738697298295" lon="11.078211314894787"><ele>180.0</ele><time>2026-05-01T03:50:51.001Z</time></trkpt><trkpt lat="45.92751723374111" lon="11.078612884589187"><ele>184.5</ele><time>2026-05-01T03:50:52.001Z</time></trkpt><trkpt lat="45.927661389555716" lon="11.079003307440763"><ele>189.0</ele><time>2026-05-01T03:50:53.001Z</time></trkpt><trkpt lat="45.92781969868527" lon="11.079378631942259"><ele>189.0</ele><time>2026-05-01T03:50:54.001Z</time></trkpt><trkpt lat="45.92798856512485" lon="11.079747092759554"><ele>189.0</ele><time>2026-05-01T03:50:55.001Z</time></trkpt><trkpt lat="45.928168106302245" lon="11.080104712168147"><ele>188.0</ele><time>2026-05-01T03:50:56.001Z</time></trkpt><trkpt lat="45.928357812401835" lon="11.080453996824438"><ele>187.0</ele><time>2026-05-01T03:50:57.001Z</time></trkpt><trkpt lat="45.92855382520895" lon="11.080793610612528"><ele>187.0</ele><time>2026-05-01T03:50:58.001Z</time></trkpt><trkpt lat="45.928761292421825" lon="11.081119114746803"><ele>187.0</ele><time>2026-05-01T03:50:59.001Z</time></trkpt><trkpt lat="45.9289789776471" lon="11.081433623524198"><ele>186.5</ele><time>2026-05-01T03:51:00.001Z</time></trkpt><trkpt lat="45.92920523365578" lon="11.081735156881704"><ele>186.0</ele><time>2026-05-01T03:51:01.001Z</time></trkpt><trkpt lat="45.92943923688947" lon="11.082026163773836"><ele>186.0</ele><time>2026-05-01T03:51:02.001Z</time></trkpt><trkpt lat="45.92968140769343" lon="11.082305150590201"><ele>186.0</ele><time>2026-05-01T03:51:03.001Z</time></trkpt><trkpt lat="45.929933118875475" lon="11.08257204507314"><ele>186.0</ele><time>2026-05-01T03:51:04.001Z</time></trkpt><trkpt lat="45.930189450051024" lon="11.08283244584136"><ele>186.0</ele><time>2026-05-01T03:51:05.001Z</time></trkpt><trkpt lat="45.930450860445625" lon="11.083077748677544"><ele>184.5</ele><time>2026-05-01T03:51:06.001Z</time></trkpt><trkpt lat="45.93071944779212" lon="11.083331890690312"><ele>183.0</ele><time>2026-05-01T03:51:07.001Z</time></trkpt><trkpt lat="45.93097720581143" lon="11.083590900768769"><ele>183.5</ele><time>2026-05-01T03:51:08.001Z</time></trkpt><trkpt lat="45.9312350862018" lon="11.083851765823923"><ele>184.0</ele><time>2026-05-01T03:51:09.001Z</time></trkpt><trkpt lat="45.93149331739884" lon="11.084114142213812"><ele>185.0</ele><time>2026-05-01T03:51:10.001Z</time></trkpt><trkpt lat="45.93174919814912" lon="11.084377178403017"><ele>186.0</ele><time>2026-05-01T03:51:11.001Z</time></trkpt><trkpt lat="45.93200361145449" lon="11.084639980259459"><ele>186.0</ele><time>2026-05-01T03:51:12.001Z</time></trkpt><trkpt lat="45.93225614259039" lon="11.08490222086185"><ele>186.0</ele><time>2026-05-01T03:51:13.001Z</time></trkpt><trkpt lat="45.93250334546861" lon="11.085169694333723"><ele>185.5</ele><time>2026-05-01T03:51:14.001Z</time></trkpt><trkpt lat="45.93274876588766" lon="11.085445123545592"><ele>185.0</ele><time>2026-05-01T03:51:15.001Z</time></trkpt><trkpt lat="45.93299733455978" lon="11.085719452930665"><ele>183.5</ele><time>2026-05-01T03:51:16.001Z</time></trkpt><trkpt lat="45.93324994561485" lon="11.085987352940656"><ele>182.0</ele><time>2026-05-01T03:51:17.001Z</time></trkpt><trkpt lat="45.93350563286452" lon="11.08624974709234"><ele>183.0</ele><time>2026-05-01T03:51:18.001Z</time></trkpt><trkpt lat="45.93376271104736" lon="11.08651127006148"><ele>184.0</ele><time>2026-05-01T03:51:19.001Z</time></trkpt><trkpt lat="45.93401902860581" lon="11.086774213764224"><ele>189.5</ele><time>2026-05-01T03:51:20.001Z</time></trkpt><trkpt lat="45.93427417151475" lon="11.087039148331511"><ele>195.0</ele><time>2026-05-01T03:51:21.001Z</time></trkpt><trkpt lat="45.93453003752875" lon="11.08730571053196"><ele>190.5</ele><time>2026-05-01T03:51:22.001Z</time></trkpt><trkpt lat="45.93478648496458" lon="11.087571803405702"><ele>186.0</ele><time>2026-05-01T03:51:23.001Z</time></trkpt><trkpt lat="45.9350431746017" lon="11.087834906104435"><ele>186.5</ele><time>2026-05-01T03:51:24.001Z</time></trkpt><trkpt lat="45.93530034892634" lon="11.088099608882533"><ele>187.0</ele><time>2026-05-01T03:51:25.001Z</time></trkpt><trkpt lat="45.93555857428803" lon="11.088364716316821"><ele>187.0</ele><time>2026-05-01T03:51:26.001Z</time></trkpt><trkpt lat="45.935816166254746" lon="11.088630519287433"><ele>187.0</ele><time>2026-05-01T03:51:27.001Z</time></trkpt><trkpt lat="45.93607215129662" lon="11.088895501188397"><ele>186.5</ele><time>2026-05-01T03:51:28.001Z</time></trkpt><trkpt lat="45.93632770353826" lon="11.089162512527343"><ele>186.0</ele><time>2026-05-01T03:51:29.001Z</time></trkpt><trkpt lat="45.936584604344326" lon="11.089429707439985"><ele>187.0</ele><time>2026-05-01T03:51:30.001Z</time></trkpt><trkpt lat="45.9368401938515" lon="11.089694578279069"><ele>188.0</ele><time>2026-05-01T03:51:31.001Z</time></trkpt><trkpt lat="45.937093189299" lon="11.089960637949243"><ele>188.0</ele><time>2026-05-01T03:51:32.001Z</time></trkpt><trkpt lat="45.93734630750089" lon="11.090228355615457"><ele>188.0</ele><time>2026-05-01T03:51:33.001Z</time></trkpt><trkpt lat="45.93759710300178" lon="11.090497718449097"><ele>185.5</ele><time>2026-05-01T03:51:34.001Z</time></trkpt><trkpt lat="45.93784559888885" lon="11.090771038352768"><ele>183.0</ele><time>2026-05-01T03:51:35.001Z</time></trkpt><trkpt lat="45.938092876670304" lon="11.091044230739977"><ele>183.0</ele><time>2026-05-01T03:51:36.001Z</time></trkpt><trkpt lat="45.93834033350967" lon="11.091310246410142"><ele>183.0</ele><time>2026-05-01T03:51:37.001Z</time></trkpt><trkpt lat="45.93858628016277" lon="11.091580278264804"><ele>183.5</ele><time>2026-05-01T03:51:38.001Z</time></trkpt><trkpt lat="45.93883089848348" lon="11.091847885283203"><ele>184.0</ele><time>2026-05-01T03:51:39Z</time></trkpt><trkpt lat="45.939071331819164" lon="11.092119375322211"><ele>186.0</ele><time>2026-05-01T03:51:40Z</time></trkpt><trkpt lat="45.93931135289005" lon="11.092387907618862"><ele>188.0</ele><time>2026-05-01T03:51:41Z</time></trkpt><trkpt lat="45.93954785954649" lon="11.092658545207387"><ele>188.0</ele><time>2026-05-01T03:51:42Z</time></trkpt><trkpt lat="45.939783041181705" lon="11.092929419824145"><ele>188.0</ele><time>2026-05-01T03:51:43Z</time></trkpt><trkpt lat="45.94001753644392" lon="11.093199494139963"><ele>187.5</ele><time>2026-05-01T03:51:44Z</time></trkpt><trkpt lat="45.94025113236107" lon="11.093473118014703"><ele>187.0</ele><time>2026-05-01T03:51:45Z</time></trkpt><trkpt lat="45.94048671053688" lon="11.093736910775256"><ele>187.0</ele><time>2026-05-01T03:51:46Z</time></trkpt><trkpt lat="45.94071722378351" lon="11.094002372322459"><ele>187.0</ele><time>2026-05-01T03:51:47Z</time></trkpt><trkpt lat="45.94093972554505" lon="11.094250923769197"><ele>185.0</ele><time>2026-05-01T03:51:48Z</time></trkpt><trkpt lat="45.94115669360871" lon="11.094492291057625"><ele>183.0</ele><time>2026-05-01T03:51:49Z</time></trkpt><trkpt lat="45.941378272598854" lon="11.0947452374461"><ele>181.0</ele><time>2026-05-01T03:51:50Z</time></trkpt><trkpt lat="45.9416012524453" lon="11.095002206953447"><ele>179.0</ele><time>2026-05-01T03:51:51Z</time></trkpt><trkpt lat="45.941822552972006" lon="11.095263408331379"><ele>179.0</ele><time>2026-05-01T03:51:52Z</time></trkpt><trkpt lat="45.94204141319009" lon="11.09551843841822"><ele>179.0</ele><time>2026-05-01T03:51:53Z</time></trkpt><trkpt lat="45.942249199117065" lon="11.09575646311475"><ele>179.0</ele><time>2026-05-01T03:51:54Z</time></trkpt><trkpt lat="45.94245552200199" lon="11.09599161486614"><ele>179.0</ele><time>2026-05-01T03:51:55Z</time></trkpt><trkpt lat="45.942664138040506" lon="11.096232231410541"><ele>179.0</ele><time>2026-05-01T03:51:56Z</time></trkpt><trkpt lat="45.942874559673" lon="11.09647432332911"><ele>179.0</ele><time>2026-05-01T03:51:57Z</time></trkpt><trkpt lat="45.943083179350324" lon="11.096718041690508"><ele>179.0</ele><time>2026-05-01T03:51:58Z</time></trkpt><trkpt lat="45.943292852707216" lon="11.096959342061938"><ele>179.0</ele><time>2026-05-01T03:51:59Z</time></trkpt><trkpt lat="45.94350312779311" lon="11.09719919417137"><ele>179.0</ele><time>2026-05-01T03:52:00Z</time></trkpt><trkpt lat="45.94371475571435" lon="11.097438543596807"><ele>179.0</ele><time>2026-05-01T03:52:01Z</time></trkpt><trkpt lat="45.94391785822816" lon="11.097666067177215"><ele>179.0</ele><time>2026-05-01T03:52:02Z</time></trkpt><trkpt lat="45.94412452466738" lon="11.097886506474085"><ele>179.0</ele><time>2026-05-01T03:52:03.001Z</time></trkpt><trkpt lat="45.94433729165876" lon="11.09811011720158"><ele>179.0</ele><time>2026-05-01T03:52:04.001Z</time></trkpt><trkpt lat="45.944554274917465" lon="11.098334810415569"><ele>179.0</ele><time>2026-05-01T03:52:05.001Z</time></trkpt><trkpt lat="45.94477599255135" lon="11.098555329424384"><ele>179.0</ele><time>2026-05-01T03:52:06.001Z</time></trkpt><trkpt lat="45.94499896179146" lon="11.098771622487257"><ele>179.0</ele><time>2026-05-01T03:52:07.001Z</time></trkpt><trkpt lat="45.94521660454033" lon="11.098976531293868"><ele>179.0</ele><time>2026-05-01T03:52:08.001Z</time></trkpt><trkpt lat="45.94543344535176" lon="11.099172599297704"><ele>179.0</ele><time>2026-05-01T03:52:09.001Z</time></trkpt><trkpt lat="45.945657501410075" lon="11.099368115988318"><ele>178.5</ele><time>2026-05-01T03:52:10.001Z</time></trkpt><trkpt lat="45.945886472880204" lon="11.099563082214267"><ele>178.0</ele><time>2026-05-01T03:52:11.001Z</time></trkpt><trkpt lat="45.94612635849306" lon="11.099759819957846"><ele>178.5</ele><time>2026-05-01T03:52:12.001Z</time></trkpt><trkpt lat="45.94638173018433" lon="11.099959187720913"><ele>179.0</ele><time>2026-05-01T03:52:13.001Z</time></trkpt><trkpt lat="45.94664990778546" lon="11.10016443600061"><ele>179.0</ele><time>2026-05-01T03:52:14.001Z</time></trkpt><trkpt lat="45.94692584382103" lon="11.100365801665339"><ele>179.0</ele><time>2026-05-01T03:52:15.001Z</time></trkpt><trkpt lat="45.947205241934114" lon="11.100559951694683"><ele>179.0</ele><time>2026-05-01T03:52:16.001Z</time></trkpt><trkpt lat="45.94748428067759" lon="11.100758029144908"><ele>179.0</ele><time>2026-05-01T03:52:17.001Z</time></trkpt><trkpt lat="45.94776371354149" lon="11.100957355232513"><ele>179.0</ele><time>2026-05-01T03:52:18.001Z</time></trkpt><trkpt lat="45.94804732132917" lon="11.101150983190823"><ele>179.0</ele><time>2026-05-01T03:52:19.001Z</time></trkpt><trkpt lat="45.948335496784736" lon="11.101327671558273"><ele>179.0</ele><time>2026-05-01T03:52:20.001Z</time></trkpt><trkpt lat="45.94862878263073" lon="11.101488966186132"><ele>179.0</ele><time>2026-05-01T03:52:21.001Z</time></trkpt><trkpt lat="45.94892657918776" lon="11.10164274262139"><ele>178.5</ele><time>2026-05-01T03:52:22.001Z</time></trkpt><trkpt lat="45.94922798039391" lon="11.101792213825398"><ele>178.0</ele><time>2026-05-01T03:52:23.001Z</time></trkpt><trkpt lat="45.94953139720944" lon="11.101939288909476"><ele>178.0</ele><time>2026-05-01T03:52:24.001Z</time></trkpt><trkpt lat="45.94983328459005" lon="11.102080485054733"><ele>178.0</ele><time>2026-05-01T03:52:25.001Z</time></trkpt><trkpt lat="45.95013644274795" lon="11.102219419962681"><ele>178.0</ele><time>2026-05-01T03:52:26.001Z</time></trkpt><trkpt lat="45.95043964892107" lon="11.1023577790956"><ele>178.0</ele><time>2026-05-01T03:52:27.001Z</time></trkpt><trkpt lat="45.95074266241192" lon="11.102495524547109"><ele>179.0</ele><time>2026-05-01T03:52:28.001Z</time></trkpt><trkpt lat="45.95104123729728" lon="11.10263205575961"><ele>180.0</ele><time>2026-05-01T03:52:29.001Z</time></trkpt><trkpt lat="45.95133524070787" lon="11.102767680578426"><ele>180.0</ele><time>2026-05-01T03:52:30.001Z</time></trkpt><trkpt lat="45.95162830907529" lon="11.102902216839043"><ele>180.0</ele><time>2026-05-01T03:52:31.001Z</time></trkpt><trkpt lat="45.95192133436234" lon="11.10303614295575"><ele>179.5</ele><time>2026-05-01T03:52:32.001Z</time></trkpt><trkpt lat="45.95221407873035" lon="11.103169657627452"><ele>179.0</ele><time>2026-05-01T03:52:33.001Z</time></trkpt><trkpt lat="45.95250432819697" lon="11.10330454715796"><ele>178.5</ele><time>2026-05-01T03:52:34.001Z</time></trkpt><trkpt lat="45.95279492122911" lon="11.103439527908796"><ele>178.0</ele><time>2026-05-01T03:52:35.001Z</time></trkpt><trkpt lat="45.95308635891533" lon="11.1035773680213"><ele>178.0</ele><time>2026-05-01T03:52:36.001Z</time></trkpt><trkpt lat="45.953378564565334" lon="11.103716917248855"><ele>178.0</ele><time>2026-05-01T03:52:37.001Z</time></trkpt><trkpt lat="45.95367001776159" lon="11.103855311124667"><ele>178.0</ele><time>2026-05-01T03:52:38.001Z</time></trkpt><trkpt lat="45.9539648563242" lon="11.103991426064509"><ele>178.0</ele><time>2026-05-01T03:52:39.001Z</time></trkpt><trkpt lat="45.954259905945285" lon="11.10412710484346"><ele>179.0</ele><time>2026-05-01T03:52:40.001Z</time></trkpt><trkpt lat="45.95455427390167" lon="11.104262267277889"><ele>180.0</ele><time>2026-05-01T03:52:41.001Z</time></trkpt><trkpt lat="45.9548479160104" lon="11.104397077039927"><ele>179.5</ele><time>2026-05-01T03:52:42.001Z</time></trkpt><trkpt lat="45.9551424543476" lon="11.104531069493964"><ele>179.0</ele><time>2026-05-01T03:52:43.001Z</time></trkpt><trkpt lat="45.955435373527926" lon="11.104666171965782"><ele>179.0</ele><time>2026-05-01T03:52:44.001Z</time></trkpt><trkpt lat="45.95572909503911" lon="11.104800453529673"><ele>179.0</ele><time>2026-05-01T03:52:45.001Z</time></trkpt><trkpt lat="45.956023436607786" lon="11.104931269368844"><ele>179.0</ele><time>2026-05-01T03:52:46.001Z</time></trkpt><trkpt lat="45.95631795614579" lon="11.105056638311423"><ele>179.0</ele><time>2026-05-01T03:52:47.001Z</time></trkpt><trkpt lat="45.95661369082818" lon="11.10517301500169"><ele>179.0</ele><time>2026-05-01T03:52:48.001Z</time></trkpt><trkpt lat="45.95691226462749" lon="11.105281099067593"><ele>179.0</ele><time>2026-05-01T03:52:49.001Z</time></trkpt><trkpt lat="45.95721143569294" lon="11.10537547573659"><ele>179.0</ele><time>2026-05-01T03:52:50.001Z</time></trkpt><trkpt lat="45.95751312618614" lon="11.105469235613398"><ele>179.0</ele><time>2026-05-01T03:52:51.001Z</time></trkpt><trkpt lat="45.95781548661554" lon="11.10556213708786"><ele>179.0</ele><time>2026-05-01T03:52:52.001Z</time></trkpt><trkpt lat="45.958118895362325" lon="11.105653342822503"><ele>179.0</ele><time>2026-05-01T03:52:53.001Z</time></trkpt><trkpt lat="45.95842478986572" lon="11.105728709665593"><ele>179.5</ele><time>2026-05-01T03:52:54.001Z</time></trkpt><trkpt lat="45.95873282255754" lon="11.105794780588377"><ele>180.0</ele><time>2026-05-01T03:52:55.001Z</time></trkpt><trkpt lat="45.9590419813764" lon="11.105850541525824"><ele>180.5</ele><time>2026-05-01T03:52:56.001Z</time></trkpt><trkpt lat="45.95935099567522" lon="11.105900018845817"><ele>181.0</ele><time>2026-05-01T03:52:57.001Z</time></trkpt><trkpt lat="45.959662641223595" lon="11.105945041740327"><ele>181.0</ele><time>2026-05-01T03:52:58.001Z</time></trkpt><trkpt lat="45.95997410016173" lon="11.105987787628711"><ele>181.0</ele><time>2026-05-01T03:52:59.001Z</time></trkpt><trkpt lat="45.96028356368563" lon="11.106030821474699"><ele>180.0</ele><time>2026-05-01T03:53:00.001Z</time></trkpt><trkpt lat="45.960590417338125" lon="11.106075495362848"><ele>179.0</ele><time>2026-05-01T03:53:01.001Z</time></trkpt><trkpt lat="45.960896761458265" lon="11.106119567789886"><ele>179.0</ele><time>2026-05-01T03:53:02.001Z</time></trkpt><trkpt lat="45.96120415880961" lon="11.106157140626053"><ele>179.0</ele><time>2026-05-01T03:53:03.001Z</time></trkpt><trkpt lat="45.9615104961438" lon="11.106197056794013"><ele>179.5</ele><time>2026-05-01T03:53:04.001Z</time></trkpt><trkpt lat="45.961816409591286" lon="11.106239183056891"><ele>180.0</ele><time>2026-05-01T03:53:05.001Z</time></trkpt><trkpt lat="45.96212295345939" lon="11.10628270709201"><ele>180.0</ele><time>2026-05-01T03:53:06.001Z</time></trkpt><trkpt lat="45.96242839764731" lon="11.106327713151085"><ele>180.0</ele><time>2026-05-01T03:53:07.001Z</time></trkpt><trkpt lat="45.96273532049147" lon="11.106370135983596"><ele>179.5</ele><time>2026-05-01T03:53:08.001Z</time></trkpt><trkpt lat="45.96304283808692" lon="11.106414009566336"><ele>179.0</ele><time>2026-05-01T03:53:09.001Z</time></trkpt><trkpt lat="45.96335104374682" lon="11.10645657440416"><ele>180.0</ele><time>2026-05-01T03:53:10.001Z</time></trkpt><trkpt lat="45.96365933581299" lon="11.106499876884108"><ele>181.0</ele><time>2026-05-01T03:53:11.001Z</time></trkpt><trkpt lat="45.96396711172914" lon="11.10654362650124"><ele>180.5</ele><time>2026-05-01T03:53:12.001Z</time></trkpt><trkpt lat="45.964275734139676" lon="11.106589512441028"><ele>180.0</ele><time>2026-05-01T03:53:13.001Z</time></trkpt><trkpt lat="45.964585485303566" lon="11.106634382673901"><ele>180.0</ele><time>2026-05-01T03:53:14.001Z</time></trkpt><trkpt lat="45.9648945305546" lon="11.106672433966258"><ele>180.0</ele><time>2026-05-01T03:53:15.001Z</time></trkpt><trkpt lat="45.96520482834272" lon="11.106708779876817"><ele>179.0</ele><time>2026-05-01T03:53:16.001Z</time></trkpt><trkpt lat="45.96551578066933" lon="11.106745529239976"><ele>178.0</ele><time>2026-05-01T03:53:17.001Z</time></trkpt><trkpt lat="45.965829684306115" lon="11.106780863958114"><ele>178.5</ele><time>2026-05-01T03:53:18.001Z</time></trkpt><trkpt lat="45.96614419234677" lon="11.106816521371762"><ele>179.0</ele><time>2026-05-01T03:53:19.001Z</time></trkpt><trkpt lat="45.96645764854796" lon="11.106857904135227"><ele>179.5</ele><time>2026-05-01T03:53:20.001Z</time></trkpt><trkpt lat="45.96677060125481" lon="11.106903179045998"><ele>180.0</ele><time>2026-05-01T03:53:21.001Z</time></trkpt><trkpt lat="45.96708406219413" lon="11.106948849582974"><ele>180.0</ele><time>2026-05-01T03:53:22.001Z</time></trkpt><trkpt lat="45.96739840227662" lon="11.106993544354813"><ele>180.0</ele><time>2026-05-01T03:53:23.001Z</time></trkpt><trkpt lat="45.967712664327664" lon="11.107038427352686"><ele>180.0</ele><time>2026-05-01T03:53:24.001Z</time></trkpt><trkpt lat="45.968027397326885" lon="11.107084445575136"><ele>180.0</ele><time>2026-05-01T03:53:25.001Z</time></trkpt><trkpt lat="45.968341163606205" lon="11.107129489477876"><ele>179.0</ele><time>2026-05-01T03:53:26.001Z</time></trkpt><trkpt lat="45.968655362853326" lon="11.107173397387973"><ele>178.0</ele><time>2026-05-01T03:53:27.001Z</time></trkpt><trkpt lat="45.968968930760184" lon="11.107215984484725"><ele>179.0</ele><time>2026-05-01T03:53:28.001Z</time></trkpt><trkpt lat="45.96928290810275" lon="11.107257793196807"><ele>180.0</ele><time>2026-05-01T03:53:29.001Z</time></trkpt><trkpt lat="45.969596851615194" lon="11.107297734880097"><ele>180.0</ele><time>2026-05-01T03:53:30.001Z</time></trkpt><trkpt lat="45.96991035157758" lon="11.107337593610533"><ele>180.0</ele><time>2026-05-01T03:53:31.001Z</time></trkpt><trkpt lat="45.97022268823426" lon="11.107382614491696"><ele>179.5</ele><time>2026-05-01T03:53:32.001Z</time></trkpt><trkpt lat="45.9705344157408" lon="11.107424778659677"><ele>179.0</ele><time>2026-05-01T03:53:33.001Z</time></trkpt><trkpt lat="45.970846999874375" lon="11.107464098870917"><ele>179.0</ele><time>2026-05-01T03:53:34.001Z</time></trkpt><trkpt lat="45.97115863334188" lon="11.107499960035257"><ele>179.0</ele><time>2026-05-01T03:53:35.001Z</time></trkpt><trkpt lat="45.97146911701919" lon="11.107541163137682"><ele>180.0</ele><time>2026-05-01T03:53:36.001Z</time></trkpt><trkpt lat="45.9717825486802" lon="11.10758578357731"><ele>181.0</ele><time>2026-05-01T03:53:37.001Z</time></trkpt><trkpt lat="45.97209726339522" lon="11.107625059377549"><ele>181.0</ele><time>2026-05-01T03:53:38.001Z</time></trkpt><trkpt lat="45.97241384786677" lon="11.107667692036193"><ele>181.0</ele><time>2026-05-01T03:53:39.001Z</time></trkpt><trkpt lat="45.97272719917296" lon="11.107709128080598"><ele>180.0</ele><time>2026-05-01T03:53:40.001Z</time></trkpt><trkpt lat="45.973042832971075" lon="11.107754592315835"><ele>179.0</ele><time>2026-05-01T03:53:41.001Z</time></trkpt><trkpt lat="45.97335860973818" lon="11.10779946167324"><ele>178.5</ele><time>2026-05-01T03:53:42.001Z</time></trkpt><trkpt lat="45.97367228503794" lon="11.107845083916688"><ele>178.0</ele><time>2026-05-01T03:53:43.001Z</time></trkpt><trkpt lat="45.97398429282266" lon="11.107888637678318"><ele>178.5</ele><time>2026-05-01T03:53:44.001Z</time></trkpt><trkpt lat="45.974295396772284" lon="11.10792916021929"><ele>179.0</ele><time>2026-05-01T03:53:45Z</time></trkpt><trkpt lat="45.97460679370076" lon="11.107973052080773"><ele>179.0</ele><time>2026-05-01T03:53:46Z</time></trkpt><trkpt lat="45.974918484541874" lon="11.10801781872601"><ele>179.0</ele><time>2026-05-01T03:53:47Z</time></trkpt><trkpt lat="45.97522521991454" lon="11.108062669523791"><ele>178.5</ele><time>2026-05-01T03:53:48Z</time></trkpt><trkpt lat="45.975519844267076" lon="11.108104882835946"><ele>178.0</ele><time>2026-05-01T03:53:49Z</time></trkpt><trkpt lat="45.97581815516055" lon="11.10815537138404"><ele>178.0</ele><time>2026-05-01T03:53:50Z</time></trkpt><trkpt lat="45.97612265582929" lon="11.10819477970089"><ele>178.0</ele><time>2026-05-01T03:53:51Z</time></trkpt><trkpt lat="45.9764314665803" lon="11.108234444449641"><ele>178.5</ele><time>2026-05-01T03:53:52Z</time></trkpt><trkpt lat="45.97674047255875" lon="11.10827772367114"><ele>179.0</ele><time>2026-05-01T03:53:53Z</time></trkpt><trkpt lat="45.9770510275101" lon="11.108321191234213"><ele>179.0</ele><time>2026-05-01T03:53:54Z</time></trkpt><trkpt lat="45.97736078182915" lon="11.108359554510036"><ele>179.0</ele><time>2026-05-01T03:53:55Z</time></trkpt><trkpt lat="45.97767162658192" lon="11.108400075356597"><ele>179.0</ele><time>2026-05-01T03:53:56Z</time></trkpt><trkpt lat="45.977981666523156" lon="11.1084443990096"><ele>179.0</ele><time>2026-05-01T03:53:57Z</time></trkpt><trkpt lat="45.9782910866029" lon="11.108490939086522"><ele>179.5</ele><time>2026-05-01T03:53:58Z</time></trkpt><trkpt lat="45.97860196705089" lon="11.10853830226319"><ele>180.0</ele><time>2026-05-01T03:53:59Z</time></trkpt><trkpt lat="45.97891344647636" lon="11.108582952786698"><ele>179.5</ele><time>2026-05-01T03:54:00Z</time></trkpt><trkpt lat="45.97922460977565" lon="11.108627715287252"><ele>179.0</ele><time>2026-05-01T03:54:01Z</time></trkpt><trkpt lat="45.97953510023437" lon="11.108669168556018"><ele>179.0</ele><time>2026-05-01T03:54:02Z</time></trkpt><trkpt lat="45.979847124833434" lon="11.108714930651615"><ele>179.0</ele><time>2026-05-01T03:54:03Z</time></trkpt><trkpt lat="45.98016083135967" lon="11.108763249528508"><ele>179.0</ele><time>2026-05-01T03:54:04Z</time></trkpt><trkpt lat="45.98047099005378" lon="11.108823891523866"><ele>179.0</ele><time>2026-05-01T03:54:05Z</time></trkpt><trkpt lat="45.98077920130627" lon="11.108896698442235"><ele>179.0</ele><time>2026-05-01T03:54:06Z</time></trkpt><trkpt lat="45.98108512290796" lon="11.108991093282453"><ele>179.0</ele><time>2026-05-01T03:54:07Z</time></trkpt><trkpt lat="45.98138755547622" lon="11.109100633803605"><ele>179.5</ele><time>2026-05-01T03:54:08Z</time></trkpt><trkpt lat="45.98168935860363" lon="11.109218802155926"><ele>180.0</ele><time>2026-05-01T03:54:09Z</time></trkpt><trkpt lat="45.98198783736145" lon="11.109354271299688"><ele>180.0</ele><time>2026-05-01T03:54:10Z</time></trkpt><trkpt lat="45.9822827054329" lon="11.109505595706816"><ele>180.0</ele><time>2026-05-01T03:54:11.001Z</time></trkpt><trkpt lat="45.98257545199651" lon="11.109665538433802"><ele>179.0</ele><time>2026-05-01T03:54:12.001Z</time></trkpt><trkpt lat="45.98286327615081" lon="11.109837519146515"><ele>178.0</ele><time>2026-05-01T03:54:13.001Z</time></trkpt><trkpt lat="45.98314638339209" lon="11.110027693994468"><ele>179.0</ele><time>2026-05-01T03:54:14.001Z</time></trkpt><trkpt lat="45.983422596585676" lon="11.110231658122537"><ele>180.0</ele><time>2026-05-01T03:54:15.001Z</time></trkpt><trkpt lat="45.98369064615255" lon="11.110452029127678"><ele>180.0</ele><time>2026-05-01T03:54:16.001Z</time></trkpt><trkpt lat="45.98394952007826" lon="11.11068707913259"><ele>180.0</ele><time>2026-05-01T03:54:17.001Z</time></trkpt><trkpt lat="45.984205527166864" lon="11.110933966385018"><ele>180.0</ele><time>2026-05-01T03:54:18.001Z</time></trkpt><trkpt lat="45.98446113549482" lon="11.111178425030902"><ele>180.0</ele><time>2026-05-01T03:54:19.001Z</time></trkpt><trkpt lat="45.98471702747262" lon="11.111422425028406"><ele>179.5</ele><time>2026-05-01T03:54:20.001Z</time></trkpt><trkpt lat="45.984974625327055" lon="11.111663817622306"><ele>179.0</ele><time>2026-05-01T03:54:21.001Z</time></trkpt><trkpt lat="45.98523319837764" lon="11.111905878399357"><ele>180.0</ele><time>2026-05-01T03:54:22.001Z</time></trkpt><trkpt lat="45.98549177791262" lon="11.112150595167702"><ele>181.0</ele><time>2026-05-01T03:54:23.001Z</time></trkpt><trkpt lat="45.985751932950194" lon="11.11239791927497"><ele>181.0</ele><time>2026-05-01T03:54:24.001Z</time></trkpt><trkpt lat="45.98601034160102" lon="11.112645456148257"><ele>181.0</ele><time>2026-05-01T03:54:25.001Z</time></trkpt><trkpt lat="45.98627185608211" lon="11.112895273707649"><ele>181.0</ele><time>2026-05-01T03:54:26.001Z</time></trkpt><trkpt lat="45.98653502964972" lon="11.113141721230699"><ele>181.0</ele><time>2026-05-01T03:54:27.001Z</time></trkpt><trkpt lat="45.98679922427239" lon="11.113385706426131"><ele>179.5</ele><time>2026-05-01T03:54:28.001Z</time></trkpt><trkpt lat="45.98706409007904" lon="11.113629329892557"><ele>178.0</ele><time>2026-05-01T03:54:29.001Z</time></trkpt><trkpt lat="45.987328875952194" lon="11.11387516992993"><ele>179.0</ele><time>2026-05-01T03:54:30.001Z</time></trkpt><trkpt lat="45.98759293245342" lon="11.114124093107527"><ele>180.0</ele><time>2026-05-01T03:54:31.001Z</time></trkpt><trkpt lat="45.98785628107029" lon="11.11437589245925"><ele>180.0</ele><time>2026-05-01T03:54:32.001Z</time></trkpt><trkpt lat="45.988119192617184" lon="11.114627200993729"><ele>180.0</ele><time>2026-05-01T03:54:33.001Z</time></trkpt><trkpt lat="45.98838150151139" lon="11.114876203957563"><ele>181.0</ele><time>2026-05-01T03:54:34.001Z</time></trkpt><trkpt lat="45.98864219881915" lon="11.115122629135415"><ele>182.0</ele><time>2026-05-01T03:54:35.001Z</time></trkpt><trkpt lat="45.98890325486776" lon="11.115367838692878"><ele>182.0</ele><time>2026-05-01T03:54:36.001Z</time></trkpt><trkpt lat="45.98916294552946" lon="11.115610625274503"><ele>182.0</ele><time>2026-05-01T03:54:37.001Z</time></trkpt><trkpt lat="45.98942269493372" lon="11.115852416944714"><ele>181.5</ele><time>2026-05-01T03:54:38.001Z</time></trkpt><trkpt lat="45.98968289837272" lon="11.116091495109007"><ele>181.0</ele><time>2026-05-01T03:54:39.001Z</time></trkpt><trkpt lat="45.989946140559425" lon="11.116325471822526"><ele>181.0</ele><time>2026-05-01T03:54:40.001Z</time></trkpt><trkpt lat="45.9902132105503" lon="11.116552590035472"><ele>181.0</ele><time>2026-05-01T03:54:41.001Z</time></trkpt><trkpt lat="45.990481902516045" lon="11.116773214160126"><ele>181.5</ele><time>2026-05-01T03:54:42.001Z</time></trkpt><trkpt lat="45.99075339364232" lon="11.116990550836443"><ele>182.0</ele><time>2026-05-01T03:54:43.001Z</time></trkpt><trkpt lat="45.991027398507285" lon="11.117204361921"><ele>182.0</ele><time>2026-05-01T03:54:44.001Z</time></trkpt><trkpt lat="45.99130335736639" lon="11.117413503806667"><ele>182.0</ele><time>2026-05-01T03:54:45.001Z</time></trkpt><trkpt lat="45.991582141120325" lon="11.117615357170715"><ele>181.5</ele><time>2026-05-01T03:54:46.001Z</time></trkpt><trkpt lat="45.99186355777305" lon="11.11781134698082"><ele>181.0</ele><time>2026-05-01T03:54:47.001Z</time></trkpt><trkpt lat="45.99214770890629" lon="11.118003913394375"><ele>181.0</ele><time>2026-05-01T03:54:48.001Z</time></trkpt><trkpt lat="45.99243264001294" lon="11.11819103086663"><ele>181.0</ele><time>2026-05-01T03:54:49.001Z</time></trkpt><trkpt lat="45.992719864683636" lon="11.118372527068727"><ele>181.0</ele><time>2026-05-01T03:54:50.001Z</time></trkpt><trkpt lat="45.99301018272614" lon="11.118548233543462"><ele>181.0</ele><time>2026-05-01T03:54:51.001Z</time></trkpt><trkpt lat="45.993301578565664" lon="11.11871926441934"><ele>180.5</ele><time>2026-05-01T03:54:52.001Z</time></trkpt><trkpt lat="45.99359522070614" lon="11.118884567301748"><ele>180.0</ele><time>2026-05-01T03:54:53.001Z</time></trkpt><trkpt lat="45.993891503673375" lon="11.119044431365284"><ele>179.5</ele><time>2026-05-01T03:54:54.001Z</time></trkpt><trkpt lat="45.99419037561886" lon="11.119197192565213"><ele>179.0</ele><time>2026-05-01T03:54:55.001Z</time></trkpt><trkpt lat="45.99449128089981" lon="11.119342825142626"><ele>179.0</ele><time>2026-05-01T03:54:56.001Z</time></trkpt><trkpt lat="45.994792395073794" lon="11.119480089601112"><ele>179.0</ele><time>2026-05-01T03:54:57.001Z</time></trkpt><trkpt lat="45.99509583489786" lon="11.119616097845881"><ele>179.5</ele><time>2026-05-01T03:54:58.001Z</time></trkpt><trkpt lat="45.995401390217616" lon="11.119743017381074"><ele>180.0</ele><time>2026-05-01T03:54:59.001Z</time></trkpt><trkpt lat="45.9957081044266" lon="11.11986600204169"><ele>180.0</ele><time>2026-05-01T03:55:00.001Z</time></trkpt><trkpt lat="45.99601464492358" lon="11.119985527453997"><ele>180.0</ele><time>2026-05-01T03:55:01.001Z</time></trkpt><trkpt lat="45.99632366079872" lon="11.120095516092455"><ele>180.0</ele><time>2026-05-01T03:55:02.001Z</time></trkpt><trkpt lat="45.99663289662786" lon="11.120200641818386"><ele>180.0</ele><time>2026-05-01T03:55:03.001Z</time></trkpt><trkpt lat="45.99694269126589" lon="11.120301119027298"><ele>180.0</ele><time>2026-05-01T03:55:04.001Z</time></trkpt><trkpt lat="45.997254113792096" lon="11.120395211071267"><ele>180.0</ele><time>2026-05-01T03:55:05.001Z</time></trkpt><trkpt lat="45.997566461069454" lon="11.12048001494789"><ele>180.0</ele><time>2026-05-01T03:55:06.001Z</time></trkpt><trkpt lat="45.99787928100754" lon="11.120552164279655"><ele>180.0</ele><time>2026-05-01T03:55:07.001Z</time></trkpt><trkpt lat="45.99819266145578" lon="11.120623641455866"><ele>180.5</ele><time>2026-05-01T03:55:08.001Z</time></trkpt><trkpt lat="45.998506663320946" lon="11.120686758447846"><ele>181.0</ele><time>2026-05-01T03:55:09.001Z</time></trkpt><trkpt lat="45.998818966629294" lon="11.120748232903386"><ele>180.5</ele><time>2026-05-01T03:55:10.001Z</time></trkpt><trkpt lat="45.99913500522047" lon="11.120796639136287"><ele>180.0</ele><time>2026-05-01T03:55:11.001Z</time></trkpt><trkpt lat="45.99944936090298" lon="11.12084410204946"><ele>180.0</ele><time>2026-05-01T03:55:12.001Z</time></trkpt><trkpt lat="45.99976320010114" lon="11.120887700095244"><ele>180.0</ele><time>2026-05-01T03:55:13.001Z</time></trkpt><trkpt lat="46.00007806114558" lon="11.12092263179732"><ele>180.0</ele><time>2026-05-01T03:55:14.001Z</time></trkpt><trkpt lat="46.00039305311414" lon="11.120955139261422"><ele>180.0</ele><time>2026-05-01T03:55:15.001Z</time></trkpt><trkpt lat="46.0007080110817" lon="11.120979333133207"><ele>180.0</ele><time>2026-05-01T03:55:16.001Z</time></trkpt><trkpt lat="46.00102240056357" lon="11.120993731364393"><ele>180.0</ele><time>2026-05-01T03:55:17.001Z</time></trkpt><trkpt lat="46.0013364710382" lon="11.121005841319539"><ele>180.0</ele><time>2026-05-01T03:55:18.001Z</time></trkpt><trkpt lat="46.00165031095828" lon="11.121016293792081"><ele>180.0</ele><time>2026-05-01T03:55:19.001Z</time></trkpt><trkpt lat="46.00196352813764" lon="11.121020021798635"><ele>181.0</ele><time>2026-05-01T03:55:20.001Z</time></trkpt><trkpt lat="46.0022753791318" lon="11.121027943465716"><ele>182.0</ele><time>2026-05-01T03:55:21.001Z</time></trkpt><trkpt lat="46.002585480749026" lon="11.121036119715358"><ele>182.0</ele><time>2026-05-01T03:55:22.001Z</time></trkpt><trkpt lat="46.0028925983693" lon="11.12105778566199"><ele>182.0</ele><time>2026-05-01T03:55:23.001Z</time></trkpt><trkpt lat="46.00319769253861" lon="11.121074525802191"><ele>181.5</ele><time>2026-05-01T03:55:24.001Z</time></trkpt><trkpt lat="46.003502281839424" lon="11.12108822427227"><ele>181.0</ele><time>2026-05-01T03:55:25.001Z</time></trkpt><trkpt lat="46.00380566454121" lon="11.121103263748392"><ele>181.0</ele><time>2026-05-01T03:55:26.001Z</time></trkpt><trkpt lat="46.004108071185925" lon="11.121120302051134"><ele>181.0</ele><time>2026-05-01T03:55:27.001Z</time></trkpt><trkpt lat="46.004412173362574" lon="11.121136805787911"><ele>180.5</ele><time>2026-05-01T03:55:28.001Z</time></trkpt><trkpt lat="46.00471677694156" lon="11.121150215084924"><ele>180.0</ele><time>2026-05-01T03:55:29.001Z</time></trkpt><trkpt lat="46.00501957779878" lon="11.12116195324905"><ele>180.0</ele><time>2026-05-01T03:55:30.001Z</time></trkpt><trkpt lat="46.00532362499219" lon="11.121173749645811"><ele>180.0</ele><time>2026-05-01T03:55:31.001Z</time></trkpt><trkpt lat="46.005628463895455" lon="11.12118511912834"><ele>180.5</ele><time>2026-05-01T03:55:32.001Z</time></trkpt><trkpt lat="46.005934928876805" lon="11.121192849109026"><ele>181.0</ele><time>2026-05-01T03:55:33.001Z</time></trkpt><trkpt lat="46.00624118047433" lon="11.12120437193877"><ele>181.0</ele><time>2026-05-01T03:55:34.001Z</time></trkpt><trkpt lat="46.00654795695816" lon="11.12121766280636"><ele>181.0</ele><time>2026-05-01T03:55:35.001Z</time></trkpt><trkpt lat="46.00685630453673" lon="11.121231365428727"><ele>181.0</ele><time>2026-05-01T03:55:36.001Z</time></trkpt><trkpt lat="46.00716382751046" lon="11.121239880914285"><ele>181.0</ele><time>2026-05-01T03:55:37.001Z</time></trkpt><trkpt lat="46.007472818124704" lon="11.121251537775551"><ele>181.5</ele><time>2026-05-01T03:55:38.001Z</time></trkpt><trkpt lat="46.00778221798578" lon="11.121266422053846"><ele>182.0</ele><time>2026-05-01T03:55:39.001Z</time></trkpt><trkpt lat="46.008087965620504" lon="11.121278933449736"><ele>181.5</ele><time>2026-05-01T03:55:40.001Z</time></trkpt><trkpt lat="46.00837916031571" lon="11.121259463249082"><ele>181.0</ele><time>2026-05-01T03:55:41.001Z</time></trkpt><trkpt lat="46.0086792285761" lon="11.121261755623687"><ele>181.0</ele><time>2026-05-01T03:55:42.001Z</time></trkpt><trkpt lat="46.00898767941754" lon="11.121273382286724"><ele>181.0</ele><time>2026-05-01T03:55:43.001Z</time></trkpt><trkpt lat="46.00929711959518" lon="11.121288123661003"><ele>181.0</ele><time>2026-05-01T03:55:44.001Z</time></trkpt><trkpt lat="46.009607648307245" lon="11.121304953741301"><ele>181.0</ele><time>2026-05-01T03:55:45.001Z</time></trkpt><trkpt lat="46.00991775047768" lon="11.12132382832817"><ele>182.5</ele><time>2026-05-01T03:55:46.001Z</time></trkpt><trkpt lat="46.0102273025619" lon="11.121345164236205"><ele>184.0</ele><time>2026-05-01T03:55:47.001Z</time></trkpt><trkpt lat="46.0105345606893" lon="11.121367119009964"><ele>184.0</ele><time>2026-05-01T03:55:48.001Z</time></trkpt><trkpt lat="46.01084076261633" lon="11.121393071613934"><ele>184.0</ele><time>2026-05-01T03:55:49.001Z</time></trkpt><trkpt lat="46.01114492741674" lon="11.121418059195884"><ele>184.0</ele><time>2026-05-01T03:55:50.001Z</time></trkpt><trkpt lat="46.0114492430294" lon="11.121443401774663"><ele>184.0</ele><time>2026-05-01T03:55:51Z</time></trkpt><trkpt lat="46.01175384825585" lon="11.121469863590058"><ele>184.0</ele><time>2026-05-01T03:55:52Z</time></trkpt><trkpt lat="46.01205803769967" lon="11.12149379178522"><ele>184.0</ele><time>2026-05-01T03:55:53Z</time></trkpt><trkpt lat="46.01236428132773" lon="11.121517917818936"><ele>183.0</ele><time>2026-05-01T03:55:54Z</time></trkpt><trkpt lat="46.0126713995732" lon="11.121541089602703"><ele>182.0</ele><time>2026-05-01T03:55:55Z</time></trkpt><trkpt lat="46.01297995616179" lon="11.121562804372667"><ele>182.5</ele><time>2026-05-01T03:55:56Z</time></trkpt><trkpt lat="46.013290155625285" lon="11.121583792470943"><ele>183.0</ele><time>2026-05-01T03:55:57Z</time></trkpt><trkpt lat="46.01360207016383" lon="11.1216055922611"><ele>182.0</ele><time>2026-05-01T03:55:58Z</time></trkpt><trkpt lat="46.01391416752405" lon="11.1216313123291"><ele>181.0</ele><time>2026-05-01T03:55:59Z</time></trkpt><trkpt lat="46.0142284980761" lon="11.121657127539494"><ele>181.0</ele><time>2026-05-01T03:56:00Z</time></trkpt><trkpt lat="46.0145383671337" lon="11.121691719287893"><ele>181.0</ele><time>2026-05-01T03:56:01Z</time></trkpt><trkpt lat="46.01484411335834" lon="11.121721551661368"><ele>181.0</ele><time>2026-05-01T03:56:02Z</time></trkpt><trkpt lat="46.01514908761674" lon="11.121750679114497"><ele>181.0</ele><time>2026-05-01T03:56:03Z</time></trkpt><trkpt lat="46.015454611320436" lon="11.121782656547143"><ele>181.0</ele><time>2026-05-01T03:56:04Z</time></trkpt><trkpt lat="46.01576180358038" lon="11.121813120163315"><ele>181.0</ele><time>2026-05-01T03:56:05Z</time></trkpt><trkpt lat="46.01606941816547" lon="11.121843604857117"><ele>181.0</ele><time>2026-05-01T03:56:06Z</time></trkpt><trkpt lat="46.01637469477105" lon="11.121871812352824"><ele>181.0</ele><time>2026-05-01T03:56:07Z</time></trkpt><trkpt lat="46.016681227047336" lon="11.12190252575662"><ele>181.5</ele><time>2026-05-01T03:56:08Z</time></trkpt><trkpt lat="46.016986411725014" lon="11.121933192812266"><ele>182.0</ele><time>2026-05-01T03:56:09Z</time></trkpt><trkpt lat="46.01729101230162" lon="11.121968685914684"><ele>181.5</ele><time>2026-05-01T03:56:10Z</time></trkpt><trkpt lat="46.01759563123639" lon="11.12200349575833"><ele>181.0</ele><time>2026-05-01T03:56:11Z</time></trkpt><trkpt lat="46.017900895699356" lon="11.122036909531253"><ele>181.0</ele><time>2026-05-01T03:56:12Z</time></trkpt><trkpt lat="46.01820776250956" lon="11.122064589692927"><ele>181.0</ele><time>2026-05-01T03:56:13Z</time></trkpt><trkpt lat="46.018516288796576" lon="11.122071021274861"><ele>181.5</ele><time>2026-05-01T03:56:14Z</time></trkpt><trkpt lat="46.01882570525333" lon="11.122064309405873"><ele>182.0</ele><time>2026-05-01T03:56:15Z</time></trkpt><trkpt lat="46.01913697785997" lon="11.122059009868872"><ele>182.5</ele><time>2026-05-01T03:56:16Z</time></trkpt><trkpt lat="46.0194499004446" lon="11.12206165948407"><ele>183.0</ele><time>2026-05-01T03:56:17Z</time></trkpt><trkpt lat="46.019760154291184" lon="11.122072715741615"><ele>183.5</ele><time>2026-05-01T03:56:18Z</time></trkpt><trkpt lat="46.02007172260223" lon="11.12207570933216"><ele>184.0</ele><time>2026-05-01T03:56:19Z</time></trkpt><trkpt lat="46.020381704465365" lon="11.122080298257057"><ele>184.0</ele><time>2026-05-01T03:56:20.001Z</time></trkpt><trkpt lat="46.020691674393234" lon="11.122084959533634"><ele>184.0</ele><time>2026-05-01T03:56:21.001Z</time></trkpt><trkpt lat="46.021000122442686" lon="11.122087720155573"><ele>183.0</ele><time>2026-05-01T03:56:22.001Z</time></trkpt><trkpt lat="46.021310231026284" lon="11.122090552947782"><ele>182.0</ele><time>2026-05-01T03:56:23.001Z</time></trkpt><trkpt lat="46.021620445898705" lon="11.122092336784371"><ele>182.5</ele><time>2026-05-01T03:56:24.001Z</time></trkpt><trkpt lat="46.02192885835551" lon="11.122090829637688"><ele>183.0</ele><time>2026-05-01T03:56:25.001Z</time></trkpt><trkpt lat="46.022238938618855" lon="11.122089444147726"><ele>183.5</ele><time>2026-05-01T03:56:26.001Z</time></trkpt><trkpt lat="46.02254702858925" lon="11.122088709159057"><ele>184.0</ele><time>2026-05-01T03:56:27.001Z</time></trkpt><trkpt lat="46.02285635385239" lon="11.122088054330645"><ele>184.0</ele><time>2026-05-01T03:56:28.001Z</time></trkpt><trkpt lat="46.02316283761532" lon="11.122091205753033"><ele>184.0</ele><time>2026-05-01T03:56:29.001Z</time></trkpt><trkpt lat="46.02347188014217" lon="11.122094372738733"><ele>184.0</ele><time>2026-05-01T03:56:30.001Z</time></trkpt><trkpt lat="46.02377782569991" lon="11.122098414491889"><ele>184.0</ele><time>2026-05-01T03:56:31.001Z</time></trkpt><trkpt lat="46.02408729957907" lon="11.122100690186528"><ele>184.0</ele><time>2026-05-01T03:56:32.001Z</time></trkpt><trkpt lat="46.0244001487387" lon="11.12210451647678"><ele>184.0</ele><time>2026-05-01T03:56:33.001Z</time></trkpt><trkpt lat="46.02471492124979" lon="11.122108133834388"><ele>183.5</ele><time>2026-05-01T03:56:34.001Z</time></trkpt><trkpt lat="46.02503050949658" lon="11.122112814867947"><ele>183.0</ele><time>2026-05-01T03:56:35.001Z</time></trkpt><trkpt lat="46.02534622137336" lon="11.12211655861354"><ele>183.0</ele><time>2026-05-01T03:56:36.001Z</time></trkpt><trkpt lat="46.02566330965185" lon="11.122117008471575"><ele>183.0</ele><time>2026-05-01T03:56:37.001Z</time></trkpt><trkpt lat="46.02597972670209" lon="11.122114562217158"><ele>183.0</ele><time>2026-05-01T03:56:38.001Z</time></trkpt><trkpt lat="46.026295850920604" lon="11.122113795064676"><ele>183.0</ele><time>2026-05-01T03:56:39.001Z</time></trkpt><trkpt lat="46.02661245949001" lon="11.122113099989933"><ele>183.5</ele><time>2026-05-01T03:56:40.001Z</time></trkpt><trkpt lat="46.026928955737525" lon="11.122113155932848"><ele>184.0</ele><time>2026-05-01T03:56:41.001Z</time></trkpt><trkpt lat="46.02724416719315" lon="11.122114057257198"><ele>184.0</ele><time>2026-05-01T03:56:42.001Z</time></trkpt><trkpt lat="46.02756056850789" lon="11.122114029625763"><ele>184.0</ele><time>2026-05-01T03:56:43.001Z</time></trkpt><trkpt lat="46.027873159687175" lon="11.122115007279081"><ele>184.0</ele><time>2026-05-01T03:56:44.001Z</time></trkpt><trkpt lat="46.02818686950279" lon="11.122108428039976"><ele>184.0</ele><time>2026-05-01T03:56:45.001Z</time></trkpt><trkpt lat="46.02849862591835" lon="11.122087878217899"><ele>184.5</ele><time>2026-05-01T03:56:46.001Z</time></trkpt><trkpt lat="46.028810025006834" lon="11.122057794597609"><ele>185.0</ele><time>2026-05-01T03:56:47.001Z</time></trkpt><trkpt lat="46.02911973015805" lon="11.12201625446764"><ele>185.0</ele><time>2026-05-01T03:56:48.001Z</time></trkpt><trkpt lat="46.029428943817074" lon="11.121965101332842"><ele>185.0</ele><time>2026-05-01T03:56:49.001Z</time></trkpt><trkpt lat="46.02973608102883" lon="11.121903537447471"><ele>185.0</ele><time>2026-05-01T03:56:50.001Z</time></trkpt><trkpt lat="46.03004234356065" lon="11.121829023029541"><ele>185.0</ele><time>2026-05-01T03:56:51.001Z</time></trkpt><trkpt lat="46.03034663866839" lon="11.121745038825992"><ele>185.0</ele><time>2026-05-01T03:56:52.001Z</time></trkpt><trkpt lat="46.030649216129326" lon="11.12165050918395"><ele>185.0</ele><time>2026-05-01T03:56:53.001Z</time></trkpt><trkpt lat="46.03095103078172" lon="11.12154915167196"><ele>183.0</ele><time>2026-05-01T03:56:54.001Z</time></trkpt><trkpt lat="46.0312518764178" lon="11.121440578217939"><ele>181.0</ele><time>2026-05-01T03:56:55.001Z</time></trkpt><trkpt lat="46.03155351272013" lon="11.121330985120762"><ele>182.5</ele><time>2026-05-01T03:56:56.001Z</time></trkpt><trkpt lat="46.03185520747409" lon="11.121220802005997"><ele>184.0</ele><time>2026-05-01T03:56:57.001Z</time></trkpt><trkpt lat="46.032157201772264" lon="11.121111549431657"><ele>184.0</ele><time>2026-05-01T03:56:58.001Z</time></trkpt><trkpt lat="46.03245881406272" lon="11.121004906485783"><ele>184.0</ele><time>2026-05-01T03:56:59.001Z</time></trkpt><trkpt lat="46.03276102059027" lon="11.1208982633788"><ele>184.0</ele><time>2026-05-01T03:57:00.001Z</time></trkpt><trkpt lat="46.03306211369705" lon="11.120793479248242"><ele>184.0</ele><time>2026-05-01T03:57:01.001Z</time></trkpt><trkpt lat="46.03336249994604" lon="11.12068670115289"><ele>184.0</ele><time>2026-05-01T03:57:02.001Z</time></trkpt><trkpt lat="46.03366316042831" lon="11.120577452761593"><ele>184.0</ele><time>2026-05-01T03:57:03.001Z</time></trkpt><trkpt lat="46.03396150643487" lon="11.120466661005347"><ele>183.0</ele><time>2026-05-01T03:57:04.001Z</time></trkpt><trkpt lat="46.03426096349733" lon="11.120358526122036"><ele>182.0</ele><time>2026-05-01T03:57:05.001Z</time></trkpt><trkpt lat="46.03456124124189" lon="11.120250748517392"><ele>182.0</ele><time>2026-05-01T03:57:06.001Z</time></trkpt><trkpt lat="46.03485962613805" lon="11.120146648574623"><ele>182.0</ele><time>2026-05-01T03:57:07.001Z</time></trkpt><trkpt lat="46.03515804343595" lon="11.120042350820292"><ele>182.5</ele><time>2026-05-01T03:57:08.001Z</time></trkpt><trkpt lat="46.035450881364554" lon="11.119937081027926"><ele>183.0</ele><time>2026-05-01T03:57:09.001Z</time></trkpt><trkpt lat="46.03574688798837" lon="11.11983119868062"><ele>188.0</ele><time>2026-05-01T03:57:10.001Z</time></trkpt><trkpt lat="46.036041297045585" lon="11.119726156206344"><ele>193.0</ele><time>2026-05-01T03:57:11.001Z</time></trkpt><trkpt lat="46.03633530174653" lon="11.119620770273446"><ele>193.0</ele><time>2026-05-01T03:57:12.001Z</time></trkpt><trkpt lat="46.0366304484238" lon="11.119514937120458"><ele>193.0</ele><time>2026-05-01T03:57:13.001Z</time></trkpt><trkpt lat="46.036925821943385" lon="11.119411271829346"><ele>193.5</ele><time>2026-05-01T03:57:14.001Z</time></trkpt><trkpt lat="46.03721994571935" lon="11.11930772077734"><ele>194.0</ele><time>2026-05-01T03:57:15.001Z</time></trkpt><trkpt lat="46.0375159338006" lon="11.119204639200424"><ele>193.0</ele><time>2026-05-01T03:57:16.001Z</time></trkpt><trkpt lat="46.03780994563044" lon="11.11909835086136"><ele>192.0</ele><time>2026-05-01T03:57:17.001Z</time></trkpt><trkpt lat="46.03810690200438" lon="11.118991674133996"><ele>194.0</ele><time>2026-05-01T03:57:18.001Z</time></trkpt><trkpt lat="46.03840425901526" lon="11.118876958005135"><ele>196.0</ele><time>2026-05-01T03:57:19.001Z</time></trkpt><trkpt lat="46.03869841383732" lon="11.118748738757157"><ele>196.0</ele><time>2026-05-01T03:57:20.001Z</time></trkpt><trkpt lat="46.038992493158794" lon="11.11860717856368"><ele>196.0</ele><time>2026-05-01T03:57:21.001Z</time></trkpt><trkpt lat="46.0392827260246" lon="11.118449896850564"><ele>196.0</ele><time>2026-05-01T03:57:22.001Z</time></trkpt><trkpt lat="46.03957177166533" lon="11.118284380746427"><ele>196.0</ele><time>2026-05-01T03:57:23.001Z</time></trkpt><trkpt lat="46.03986151301517" lon="11.118111835672725"><ele>197.5</ele><time>2026-05-01T03:57:24.001Z</time></trkpt><trkpt lat="46.04014848264257" lon="11.117926371266034"><ele>199.0</ele><time>2026-05-01T03:57:25.001Z</time></trkpt><trkpt lat="46.04043180879452" lon="11.117731141259444"><ele>199.0</ele><time>2026-05-01T03:57:26.001Z</time></trkpt><trkpt lat="46.04071237842686" lon="11.117525045875148"><ele>199.0</ele><time>2026-05-01T03:57:27.001Z</time></trkpt><trkpt lat="46.04098869929268" lon="11.1173088465508"><ele>201.0</ele><time>2026-05-01T03:57:28.001Z</time></trkpt><trkpt lat="46.0412634466942" lon="11.117084705175422"><ele>203.0</ele><time>2026-05-01T03:57:29.001Z</time></trkpt><trkpt lat="46.04153349481151" lon="11.116852239662535"><ele>204.5</ele><time>2026-05-01T03:57:30.001Z</time></trkpt><trkpt lat="46.041799481020625" lon="11.11660659406955"><ele>206.0</ele><time>2026-05-01T03:57:31.001Z</time></trkpt><trkpt lat="46.04206216308083" lon="11.116353954971876"><ele>206.0</ele><time>2026-05-01T03:57:32.001Z</time></trkpt><trkpt lat="46.04232320543713" lon="11.116094453180587"><ele>206.0</ele><time>2026-05-01T03:57:33.001Z</time></trkpt><trkpt lat="46.04258258777101" lon="11.115832792733553"><ele>203.0</ele><time>2026-05-01T03:57:34.001Z</time></trkpt><trkpt lat="46.04283663245199" lon="11.115580368029828"><ele>200.0</ele><time>2026-05-01T03:57:35.001Z</time></trkpt><trkpt lat="46.04308201608674" lon="11.115341574782395"><ele>200.5</ele><time>2026-05-01T03:57:36.001Z</time></trkpt><trkpt lat="46.04332953740672" lon="11.115097046360269"><ele>201.0</ele><time>2026-05-01T03:57:37.001Z</time></trkpt><trkpt lat="46.043578259064546" lon="11.114840716387251"><ele>201.0</ele><time>2026-05-01T03:57:38.001Z</time></trkpt><trkpt lat="46.043827726651834" lon="11.11459161913159"><ele>201.0</ele><time>2026-05-01T03:57:39.001Z</time></trkpt><trkpt lat="46.04407724601023" lon="11.114338484150254"><ele>199.5</ele><time>2026-05-01T03:57:40.001Z</time></trkpt><trkpt lat="46.04432785205114" lon="11.114083201438028"><ele>198.0</ele><time>2026-05-01T03:57:41.001Z</time></trkpt><trkpt lat="46.04457902176486" lon="11.11382577904389"><ele>198.0</ele><time>2026-05-01T03:57:42.001Z</time></trkpt><trkpt lat="46.044832142713865" lon="11.113569256539636"><ele>198.0</ele><time>2026-05-01T03:57:43.001Z</time></trkpt><trkpt lat="46.04508551188737" lon="11.11331772054933"><ele>196.5</ele><time>2026-05-01T03:57:44.001Z</time></trkpt><trkpt lat="46.04534014509029" lon="11.113071264064704"><ele>195.0</ele><time>2026-05-01T03:57:45.001Z</time></trkpt><trkpt lat="46.04559495696947" lon="11.112824329722217"><ele>193.0</ele><time>2026-05-01T03:57:46.001Z</time></trkpt><trkpt lat="46.045851489073264" lon="11.11258158661543"><ele>191.0</ele><time>2026-05-01T03:57:47.001Z</time></trkpt><trkpt lat="46.04611198675342" lon="11.112339734573599"><ele>190.5</ele><time>2026-05-01T03:57:48.001Z</time></trkpt><trkpt lat="46.04637857415797" lon="11.112107555649787"><ele>190.0</ele><time>2026-05-01T03:57:49.001Z</time></trkpt><trkpt lat="46.046649722441785" lon="11.111889755175268"><ele>189.5</ele><time>2026-05-01T03:57:50.001Z</time></trkpt><trkpt lat="46.04692464273423" lon="11.111674736382207"><ele>189.0</ele><time>2026-05-01T03:57:51.001Z</time></trkpt><trkpt lat="46.04720319635955" lon="11.111467442100391"><ele>189.0</ele><time>2026-05-01T03:57:52.001Z</time></trkpt><trkpt lat="46.04748404900371" lon="11.111267107790013"><ele>189.0</ele><time>2026-05-01T03:57:53.001Z</time></trkpt><trkpt lat="46.04777007946647" lon="11.111074203425568"><ele>189.0</ele><time>2026-05-01T03:57:54.001Z</time></trkpt><trkpt lat="46.048057625362496" lon="11.110885572622802"><ele>189.0</ele><time>2026-05-01T03:57:55.001Z</time></trkpt><trkpt lat="46.04834789695893" lon="11.110704609210178"><ele>191.0</ele><time>2026-05-01T03:57:56.001Z</time></trkpt><trkpt lat="46.048639916510794" lon="11.110534979832488"><ele>193.0</ele><time>2026-05-01T03:57:57Z</time></trkpt><trkpt lat="46.04893630493549" lon="11.110371280665763"><ele>191.5</ele><time>2026-05-01T03:57:58Z</time></trkpt><trkpt lat="46.04923567493805" lon="11.110216016742473"><ele>190.0</ele><time>2026-05-01T03:57:59Z</time></trkpt><trkpt lat="46.049539211777834" lon="11.110066137378682"><ele>190.0</ele><time>2026-05-01T03:58:00Z</time></trkpt><trkpt lat="46.0498435873747" lon="11.1099253226304"><ele>190.0</ele><time>2026-05-01T03:58:01Z</time></trkpt><trkpt lat="46.05014657201497" lon="11.109794161457467"><ele>188.5</ele><time>2026-05-01T03:58:02Z</time></trkpt><trkpt lat="46.05044773092965" lon="11.109675669466792"><ele>187.0</ele><time>2026-05-01T03:58:03Z</time></trkpt><trkpt lat="46.05074914288369" lon="11.109567601899643"><ele>186.5</ele><time>2026-05-01T03:58:04Z</time></trkpt><trkpt lat="46.05105531410783" lon="11.109469585017576"><ele>186.0</ele><time>2026-05-01T03:58:05Z</time></trkpt><trkpt lat="46.05135985834728" lon="11.109376061448465"><ele>186.0</ele><time>2026-05-01T03:58:06Z</time></trkpt><trkpt lat="46.05166848628247" lon="11.109290925852017"><ele>186.0</ele><time>2026-05-01T03:58:07Z</time></trkpt><trkpt lat="46.05197906814952" lon="11.109213560482923"><ele>186.0</ele><time>2026-05-01T03:58:08Z</time></trkpt><trkpt lat="46.052288714410004" lon="11.10914434880348"><ele>186.0</ele><time>2026-05-01T03:58:09Z</time></trkpt><trkpt lat="46.052600687042045" lon="11.109084626176179"><ele>185.5</ele><time>2026-05-01T03:58:10Z</time></trkpt><trkpt lat="46.052913816104564" lon="11.109034881962764"><ele>185.0</ele><time>2026-05-01T03:58:11Z</time></trkpt><trkpt lat="46.05322705392961" lon="11.108992838611913"><ele>185.0</ele><time>2026-05-01T03:58:12Z</time></trkpt><trkpt lat="46.05354058577905" lon="11.108958796792605"><ele>185.0</ele><time>2026-05-01T03:58:13Z</time></trkpt><trkpt lat="46.05385498454613" lon="11.108933260979796"><ele>183.5</ele><time>2026-05-01T03:58:14Z</time></trkpt><trkpt lat="46.05416885053387" lon="11.108915217001092"><ele>182.0</ele><time>2026-05-01T03:58:15Z</time></trkpt><trkpt lat="46.05448293638169" lon="11.10890384448156"><ele>182.0</ele><time>2026-05-01T03:58:16Z</time></trkpt><trkpt lat="46.05479771834831" lon="11.108898075415365"><ele>182.0</ele><time>2026-05-01T03:58:17Z</time></trkpt><trkpt lat="46.05511119309778" lon="11.108896388230743"><ele>184.0</ele><time>2026-05-01T03:58:18Z</time></trkpt><trkpt lat="46.055424742173706" lon="11.108904623568963"><ele>186.0</ele><time>2026-05-01T03:58:19Z</time></trkpt><trkpt lat="46.055736202686525" lon="11.10892491402776"><ele>186.5</ele><time>2026-05-01T03:58:20Z</time></trkpt><trkpt lat="46.0560460771595" lon="11.108958458142592"><ele>187.0</ele><time>2026-05-01T03:58:21Z</time></trkpt><trkpt lat="46.05635422224224" lon="11.109008066106458"><ele>189.0</ele><time>2026-05-01T03:58:22Z</time></trkpt><trkpt lat="46.05666489734034" lon="11.109067197486763"><ele>191.0</ele><time>2026-05-01T03:58:23Z</time></trkpt><trkpt lat="46.0569701448553" lon="11.109142366543631"><ele>191.0</ele><time>2026-05-01T03:58:24Z</time></trkpt><trkpt lat="46.057276332852254" lon="11.10922304357483"><ele>191.0</ele><time>2026-05-01T03:58:25Z</time></trkpt><trkpt lat="46.05758185754545" lon="11.109303406187742"><ele>189.5</ele><time>2026-05-01T03:58:26.001Z</time></trkpt><trkpt lat="46.057883852073715" lon="11.109379629622433"><ele>188.0</ele><time>2026-05-01T03:58:27.001Z</time></trkpt><trkpt lat="46.05818243598406" lon="11.109449487324518"><ele>191.0</ele><time>2026-05-01T03:58:28.001Z</time></trkpt><trkpt lat="46.05847713119468" lon="11.10950820191761"><ele>194.0</ele><time>2026-05-01T03:58:29.001Z</time></trkpt><trkpt lat="46.05877131885157" lon="11.109570055083132"><ele>194.0</ele><time>2026-05-01T03:58:30.001Z</time></trkpt><trkpt lat="46.05906569499388" lon="11.10963572200573"><ele>194.0</ele><time>2026-05-01T03:58:31.001Z</time></trkpt><trkpt lat="46.05936252940452" lon="11.109700112403557"><ele>193.5</ele><time>2026-05-01T03:58:32.001Z</time></trkpt><trkpt lat="46.059658334284" lon="11.109764605708719"><ele>193.0</ele><time>2026-05-01T03:58:33.001Z</time></trkpt><trkpt lat="46.05995686254402" lon="11.109832371262822"><ele>193.5</ele><time>2026-05-01T03:58:34.001Z</time></trkpt><trkpt lat="46.0602545606443" lon="11.10990321421279"><ele>194.0</ele><time>2026-05-01T03:58:35.001Z</time></trkpt><trkpt lat="46.06055114803518" lon="11.10997580198473"><ele>194.5</ele><time>2026-05-01T03:58:36.001Z</time></trkpt><trkpt lat="46.06084671286061" lon="11.110047862455096"><ele>195.0</ele><time>2026-05-01T03:58:37.001Z</time></trkpt><trkpt lat="46.06114501342937" lon="11.110118481182264"><ele>195.0</ele><time>2026-05-01T03:58:38.001Z</time></trkpt><trkpt lat="46.06144347449931" lon="11.110185348859025"><ele>195.0</ele><time>2026-05-01T03:58:39.001Z</time></trkpt><trkpt lat="46.0617458086606" lon="11.110244983446426"><ele>196.5</ele><time>2026-05-01T03:58:40.001Z</time></trkpt><trkpt lat="46.06204790157303" lon="11.110292328210681"><ele>198.0</ele><time>2026-05-01T03:58:41.001Z</time></trkpt><trkpt lat="46.06235116856301" lon="11.110324165067029"><ele>200.5</ele><time>2026-05-01T03:58:42.001Z</time></trkpt><trkpt lat="46.062655173194734" lon="11.110336504756305"><ele>203.0</ele><time>2026-05-01T03:58:43.001Z</time></trkpt><trkpt lat="46.062959519638426" lon="11.110332680341607"><ele>203.0</ele><time>2026-05-01T03:58:44.001Z</time></trkpt><trkpt lat="46.063264320255534" lon="11.110312019745614"><ele>203.0</ele><time>2026-05-01T03:58:45.001Z</time></trkpt><trkpt lat="46.06356846970025" lon="11.110281263447092"><ele>200.5</ele><time>2026-05-01T03:58:46.001Z</time></trkpt><trkpt lat="46.0638735810157" lon="11.110240912962979"><ele>198.0</ele><time>2026-05-01T03:58:47.001Z</time></trkpt><trkpt lat="46.064175868166025" lon="11.110188078804525"><ele>198.0</ele><time>2026-05-01T03:58:48.001Z</time></trkpt><trkpt lat="46.064478838772395" lon="11.110119094529251"><ele>198.0</ele><time>2026-05-01T03:58:49.001Z</time></trkpt><trkpt lat="46.06478057048402" lon="11.110036863963282"><ele>203.5</ele><time>2026-05-01T03:58:50.001Z</time></trkpt><trkpt lat="46.06507972130028" lon="11.109946238132911"><ele>209.0</ele><time>2026-05-01T03:58:51.001Z</time></trkpt><trkpt lat="46.06537914218644" lon="11.109849494601036"><ele>228.5</ele><time>2026-05-01T03:58:52.001Z</time></trkpt><trkpt lat="46.06566805866653" lon="11.109757110536902"><ele>248.0</ele><time>2026-05-01T03:58:53.001Z</time></trkpt><trkpt lat="46.06594091666429" lon="11.109668860152397"><ele>263.0</ele><time>2026-05-01T03:58:54.001Z</time></trkpt><trkpt lat="46.066213430983375" lon="11.109579121085279"><ele>278.0</ele><time>2026-05-01T03:58:55.001Z</time></trkpt><trkpt lat="46.066488478100645" lon="11.109486511883786"><ele>283.5</ele><time>2026-05-01T03:58:56.001Z</time></trkpt><trkpt lat="46.06676562003867" lon="11.109391974178887"><ele>289.0</ele><time>2026-05-01T03:58:57.001Z</time></trkpt><trkpt lat="46.0670445264204" lon="11.109300684481944"><ele>289.0</ele><time>2026-05-01T03:58:58.001Z</time></trkpt><trkpt lat="46.067324199277415" lon="11.109215752360072"><ele>289.0</ele><time>2026-05-01T03:58:59.001Z</time></trkpt><trkpt lat="46.06760643173621" lon="11.109141987281347"><ele>292.5</ele><time>2026-05-01T03:59:00.001Z</time></trkpt><trkpt lat="46.06791679536851" lon="11.108989460707635"><ele>296.0</ele><time>2026-05-01T03:59:01.001Z</time></trkpt><trkpt lat="46.068205341571186" lon="11.108894910685029"><ele>299.5</ele><time>2026-05-01T03:59:02.001Z</time></trkpt><trkpt lat="46.06849532405598" lon="11.108796986455596"><ele>303.0</ele><time>2026-05-01T03:59:03.001Z</time></trkpt><trkpt lat="46.06878564918266" lon="11.108700087999738"><ele>303.0</ele><time>2026-05-01T03:59:04.001Z</time></trkpt><trkpt lat="46.06907562835993" lon="11.10860015361993"><ele>303.0</ele><time>2026-05-01T03:59:05.001Z</time></trkpt><trkpt lat="46.0693684451689" lon="11.108499601630921"><ele>287.0</ele><time>2026-05-01T03:59:06.001Z</time></trkpt><trkpt lat="46.069664311562015" lon="11.108398601039381"><ele>271.0</ele><time>2026-05-01T03:59:07.001Z</time></trkpt><trkpt lat="46.06996093280136" lon="11.108305109631145"><ele>277.5</ele><time>2026-05-01T03:59:08.001Z</time></trkpt><trkpt lat="46.070257477762574" lon="11.108206087016754"><ele>284.0</ele><time>2026-05-01T03:59:09.001Z</time></trkpt><trkpt lat="46.070558044128816" lon="11.1081047298186"><ele>276.5</ele><time>2026-05-01T03:59:10.001Z</time></trkpt><trkpt lat="46.0708609873758" lon="11.108004098437348"><ele>269.0</ele><time>2026-05-01T03:59:11.001Z</time></trkpt><trkpt lat="46.07116196626844" lon="11.107901446027414"><ele>269.0</ele><time>2026-05-01T03:59:12.001Z</time></trkpt><trkpt lat="46.07146307781716" lon="11.107799019224496"><ele>269.0</ele><time>2026-05-01T03:59:13.001Z</time></trkpt><trkpt lat="46.071762957447724" lon="11.107695496274863"><ele>253.0</ele><time>2026-05-01T03:59:14.001Z</time></trkpt><trkpt lat="46.07205749054943" lon="11.10759457027696"><ele>237.0</ele><time>2026-05-01T03:59:15.001Z</time></trkpt><trkpt lat="46.07235617233958" lon="11.107504691394425"><ele>232.5</ele><time>2026-05-01T03:59:16.001Z</time></trkpt><trkpt lat="46.072656060793875" lon="11.10741983435579"><ele>228.0</ele><time>2026-05-01T03:59:17.001Z</time></trkpt><trkpt lat="46.072957384199455" lon="11.107330234845524"><ele>228.0</ele><time>2026-05-01T03:59:18.001Z</time></trkpt><trkpt lat="46.073258244786985" lon="11.107228631561611"><ele>228.0</ele><time>2026-05-01T03:59:19.001Z</time></trkpt><trkpt lat="46.0735608853685" lon="11.107131815570293"><ele>217.5</ele><time>2026-05-01T03:59:20.001Z</time></trkpt><trkpt lat="46.07383704642859" lon="11.107096107509664"><ele>207.0</ele><time>2026-05-01T03:59:21.001Z</time></trkpt><trkpt lat="46.074190042558136" lon="11.106968095826286"><ele>203.0</ele><time>2026-05-01T03:59:22.001Z</time></trkpt><trkpt lat="46.074472909557784" lon="11.10686632652694"><ele>199.0</ele><time>2026-05-01T03:59:23.001Z</time></trkpt><trkpt lat="46.07475425333165" lon="11.106785048631332"><ele>196.0</ele><time>2026-05-01T03:59:24.001Z</time></trkpt><trkpt lat="46.075029529636836" lon="11.106696049111518"><ele>193.0</ele><time>2026-05-01T03:59:25.001Z</time></trkpt><trkpt lat="46.07531824319432" lon="11.106609785722888"><ele>194.5</ele><time>2026-05-01T03:59:26.001Z</time></trkpt><trkpt lat="46.07562100425819" lon="11.106552199634779"><ele>196.0</ele><time>2026-05-01T03:59:27.001Z</time></trkpt><trkpt lat="46.07592295101483" lon="11.106470953452728"><ele>196.0</ele><time>2026-05-01T03:59:28.001Z</time></trkpt><trkpt lat="46.07622206684255" lon="11.10639689992588"><ele>196.0</ele><time>2026-05-01T03:59:29.001Z</time></trkpt><trkpt lat="46.07652280563062" lon="11.106326402906346"><ele>193.0</ele><time>2026-05-01T03:59:30.001Z</time></trkpt><trkpt lat="46.07682463634388" lon="11.106261529153542"><ele>190.0</ele><time>2026-05-01T03:59:31.001Z</time></trkpt><trkpt lat="46.07712336364013" lon="11.106201856653762"><ele>190.0</ele><time>2026-05-01T03:59:32.001Z</time></trkpt><trkpt lat="46.07742058729613" lon="11.106140886261542"><ele>190.0</ele><time>2026-05-01T03:59:33.001Z</time></trkpt><trkpt lat="46.077717679112965" lon="11.106083629446669"><ele>191.0</ele><time>2026-05-01T03:59:34.001Z</time></trkpt><trkpt lat="46.078013302532696" lon="11.106030097609207"><ele>192.0</ele><time>2026-05-01T03:59:35.001Z</time></trkpt><trkpt lat="46.07830917174433" lon="11.105974230579623"><ele>189.5</ele><time>2026-05-01T03:59:36.001Z</time></trkpt><trkpt lat="46.07860326157829" lon="11.105915288055106"><ele>187.0</ele><time>2026-05-01T03:59:37.001Z</time></trkpt><trkpt lat="46.07889899485041" lon="11.105853512854301"><ele>188.0</ele><time>2026-05-01T03:59:38.001Z</time></trkpt><trkpt lat="46.07919423201644" lon="11.105791967067693"><ele>189.0</ele><time>2026-05-01T03:59:39.001Z</time></trkpt><trkpt lat="46.07948807731598" lon="11.10572932859686"><ele>189.0</ele><time>2026-05-01T03:59:40.001Z</time></trkpt><trkpt lat="46.079782325112745" lon="11.105670914810725"><ele>189.0</ele><time>2026-05-01T03:59:41.001Z</time></trkpt><trkpt lat="46.080078101142824" lon="11.105614634785962"><ele>189.0</ele><time>2026-05-01T03:59:42.001Z</time></trkpt><trkpt lat="46.080373579010896" lon="11.10556007653762"><ele>189.0</ele><time>2026-05-01T03:59:43.001Z</time></trkpt><trkpt lat="46.080668788971785" lon="11.10550834303002"><ele>189.0</ele><time>2026-05-01T03:59:44.001Z</time></trkpt><trkpt lat="46.080966177303864" lon="11.105456131464674"><ele>189.0</ele><time>2026-05-01T03:59:45.001Z</time></trkpt><trkpt lat="46.08126458836737" lon="11.105405323634642"><ele>189.0</ele><time>2026-05-01T03:59:46.001Z</time></trkpt><trkpt lat="46.081563880478164" lon="11.10535954412313"><ele>189.0</ele><time>2026-05-01T03:59:47.001Z</time></trkpt><trkpt lat="46.08186354628479" lon="11.105322215088641"><ele>188.5</ele><time>2026-05-01T03:59:48.001Z</time></trkpt><trkpt lat="46.08216633448351" lon="11.105290290968243"><ele>188.0</ele><time>2026-05-01T03:59:49.001Z</time></trkpt><trkpt lat="46.08247059158461" lon="11.10527227769827"><ele>190.5</ele><time>2026-05-01T03:59:50.001Z</time></trkpt><trkpt lat="46.0827758119851" lon="11.10525336670386"><ele>193.0</ele><time>2026-05-01T03:59:51.001Z</time></trkpt><trkpt lat="46.08307971713028" lon="11.10523417140772"><ele>192.0</ele><time>2026-05-01T03:59:52.001Z</time></trkpt><trkpt lat="46.08338472671958" lon="11.105217716920961"><ele>191.0</ele><time>2026-05-01T03:59:53.001Z</time></trkpt><trkpt lat="46.0836887065096" lon="11.105200513871331"><ele>191.0</ele><time>2026-05-01T03:59:54.001Z</time></trkpt><trkpt lat="46.08399236525151" lon="11.105180196615086"><ele>191.0</ele><time>2026-05-01T03:59:55.001Z</time></trkpt><trkpt lat="46.08429614120779" lon="11.105157975855784"><ele>189.5</ele><time>2026-05-01T03:59:56.001Z</time></trkpt><trkpt lat="46.0846019565023" lon="11.105133683866965"><ele>188.0</ele><time>2026-05-01T03:59:57.001Z</time></trkpt><trkpt lat="46.08490899346106" lon="11.105102348491434"><ele>189.5</ele><time>2026-05-01T03:59:58.001Z</time></trkpt><trkpt lat="46.08521619093443" lon="11.10505847017314"><ele>191.0</ele><time>2026-05-01T03:59:59.001Z</time></trkpt><trkpt lat="46.085522138265446" lon="11.10499397387017"><ele>190.0</ele><time>2026-05-01T04:00:00.001Z</time></trkpt><trkpt lat="46.08582576542082" lon="11.104911478097918"><ele>189.0</ele><time>2026-05-01T04:00:01.001Z</time></trkpt><trkpt lat="46.086128481002135" lon="11.10481609734321"><ele>189.0</ele><time>2026-05-01T04:00:02.001Z</time></trkpt><trkpt lat="46.08642908509809" lon="11.104709813795782"><ele>189.0</ele><time>2026-05-01T04:00:03Z</time></trkpt><trkpt lat="46.08672851795942" lon="11.104587101759446"><ele>189.5</ele><time>2026-05-01T04:00:04Z</time></trkpt><trkpt lat="46.087026699376715" lon="11.104447464934776"><ele>190.0</ele><time>2026-05-01T04:00:05Z</time></trkpt><trkpt lat="46.0873211044343" lon="11.104292620279049"><ele>190.5</ele><time>2026-05-01T04:00:06Z</time></trkpt><trkpt lat="46.08761261260275" lon="11.104124742377953"><ele>191.0</ele><time>2026-05-01T04:00:07Z</time></trkpt><trkpt lat="46.087899692017544" lon="11.103943738569377"><ele>191.5</ele><time>2026-05-01T04:00:08Z</time></trkpt><trkpt lat="46.08817968114267" lon="11.10375040738636"><ele>192.0</ele><time>2026-05-01T04:00:09Z</time></trkpt><trkpt lat="46.088454070573405" lon="11.103542903472034"><ele>191.0</ele><time>2026-05-01T04:00:10Z</time></trkpt><trkpt lat="46.08872299253538" lon="11.10332275201249"><ele>190.0</ele><time>2026-05-01T04:00:11Z</time></trkpt><trkpt lat="46.088986076103104" lon="11.103095247597773"><ele>190.0</ele><time>2026-05-01T04:00:12Z</time></trkpt><trkpt lat="46.08924472578444" lon="11.102859373735779"><ele>190.0</ele><time>2026-05-01T04:00:13Z</time></trkpt><trkpt lat="46.089500160030184" lon="11.102617903639587"><ele>189.5</ele><time>2026-05-01T04:00:14Z</time></trkpt><trkpt lat="46.0897551487026" lon="11.102378558165638"><ele>189.0</ele><time>2026-05-01T04:00:15Z</time></trkpt><trkpt lat="46.09000742321415" lon="11.10213738464557"><ele>189.0</ele><time>2026-05-01T04:00:16Z</time></trkpt><trkpt lat="46.09026070897976" lon="11.101898090442258"><ele>189.0</ele><time>2026-05-01T04:00:17Z</time></trkpt><trkpt lat="46.0905149760058" lon="11.101661546832183"><ele>189.0</ele><time>2026-05-01T04:00:18Z</time></trkpt><trkpt lat="46.09076963352017" lon="11.101423295051765"><ele>189.0</ele><time>2026-05-01T04:00:19Z</time></trkpt><trkpt lat="46.09102439835815" lon="11.101186699156893"><ele>189.0</ele><time>2026-05-01T04:00:20Z</time></trkpt><trkpt lat="46.09126895881046" lon="11.100957077347418"><ele>189.0</ele><time>2026-05-01T04:00:21Z</time></trkpt><trkpt lat="46.09150341630908" lon="11.100729841995884"><ele>189.0</ele><time>2026-05-01T04:00:22Z</time></trkpt><trkpt lat="46.091744735828364" lon="11.100500894960147"><ele>189.0</ele><time>2026-05-01T04:00:23Z</time></trkpt><trkpt lat="46.09198820975367" lon="11.100261765936132"><ele>189.0</ele><time>2026-05-01T04:00:24Z</time></trkpt><trkpt lat="46.092242885517436" lon="11.100028460030986"><ele>189.0</ele><time>2026-05-01T04:00:25Z</time></trkpt><trkpt lat="46.09250118422139" lon="11.099785713577074"><ele>189.5</ele><time>2026-05-01T04:00:26Z</time></trkpt><trkpt lat="46.092758030334345" lon="11.099541657689114"><ele>190.0</ele><time>2026-05-01T04:00:27Z</time></trkpt><trkpt lat="46.09301641967961" lon="11.099298705618045"><ele>190.0</ele><time>2026-05-01T04:00:28Z</time></trkpt><trkpt lat="46.09326984950257" lon="11.099060325235087"><ele>190.0</ele><time>2026-05-01T04:00:29Z</time></trkpt><trkpt lat="46.0935204096056" lon="11.09882415475553"><ele>190.0</ele><time>2026-05-01T04:00:30Z</time></trkpt><trkpt lat="46.09376892718912" lon="11.098589006364614"><ele>190.0</ele><time>2026-05-01T04:00:31Z</time></trkpt><trkpt lat="46.09401486862027" lon="11.098355819321267"><ele>190.0</ele><time>2026-05-01T04:00:32Z</time></trkpt><trkpt lat="46.09426460593308" lon="11.098120222964164"><ele>190.0</ele><time>2026-05-01T04:00:33Z</time></trkpt><trkpt lat="46.0945181783279" lon="11.097882305780665"><ele>190.0</ele><time>2026-05-01T04:00:34Z</time></trkpt><trkpt lat="46.09477413583642" lon="11.097642654269217"><ele>190.0</ele><time>2026-05-01T04:00:35.001Z</time></trkpt><trkpt lat="46.09503051987259" lon="11.097400848460614"><ele>190.0</ele><time>2026-05-01T04:00:36.001Z</time></trkpt><trkpt lat="46.09528817903414" lon="11.097156739603198"><ele>190.0</ele><time>2026-05-01T04:00:37.001Z</time></trkpt><trkpt lat="46.095548153727876" lon="11.096911348214169"><ele>191.0</ele><time>2026-05-01T04:00:38.001Z</time></trkpt><trkpt lat="46.0958066955583" lon="11.096668318675757"><ele>192.0</ele><time>2026-05-01T04:00:39.001Z</time></trkpt><trkpt lat="46.09606691107907" lon="11.096424966702783"><ele>192.5</ele><time>2026-05-01T04:00:40.001Z</time></trkpt><trkpt lat="46.096327199786785" lon="11.096179308594984"><ele>193.0</ele><time>2026-05-01T04:00:41.001Z</time></trkpt><trkpt lat="46.09658810689753" lon="11.095936201500153"><ele>192.0</ele><time>2026-05-01T04:00:42.001Z</time></trkpt><trkpt lat="46.096848051522656" lon="11.095692958864777"><ele>191.0</ele><time>2026-05-01T04:00:43.001Z</time></trkpt><trkpt lat="46.09710749857411" lon="11.095447693816975"><ele>191.0</ele><time>2026-05-01T04:00:44.001Z</time></trkpt><trkpt lat="46.09736637932566" lon="11.0952026261114"><ele>191.0</ele><time>2026-05-01T04:00:45.001Z</time></trkpt><trkpt lat="46.09762552095654" lon="11.094956625539778"><ele>191.5</ele><time>2026-05-01T04:00:46.001Z</time></trkpt><trkpt lat="46.0978838109746" lon="11.094713825538234"><ele>192.0</ele><time>2026-05-01T04:00:47.001Z</time></trkpt><trkpt lat="46.09814353586925" lon="11.094472441309119"><ele>192.0</ele><time>2026-05-01T04:00:48.001Z</time></trkpt><trkpt lat="46.098406818524374" lon="11.094227532186938"><ele>192.0</ele><time>2026-05-01T04:00:49.001Z</time></trkpt><trkpt lat="46.09866777371354" lon="11.093982102683349"><ele>192.0</ele><time>2026-05-01T04:00:50.001Z</time></trkpt><trkpt lat="46.09893065558088" lon="11.093733502575944"><ele>192.0</ele><time>2026-05-01T04:00:51.001Z</time></trkpt><trkpt lat="46.099193657960555" lon="11.09348445053795"><ele>192.5</ele><time>2026-05-01T04:00:52.001Z</time></trkpt><trkpt lat="46.099457773873176" lon="11.093234947105891"><ele>193.0</ele><time>2026-05-01T04:00:53.001Z</time></trkpt><trkpt lat="46.09972475677403" lon="11.09298406725081"><ele>193.5</ele><time>2026-05-01T04:00:54.001Z</time></trkpt><trkpt lat="46.09999284533347" lon="11.09273887092506"><ele>194.0</ele><time>2026-05-01T04:00:55.001Z</time></trkpt><trkpt lat="46.100264605760074" lon="11.09249849837056"><ele>193.0</ele><time>2026-05-01T04:00:56.001Z</time></trkpt><trkpt lat="46.100540382811005" lon="11.0922691139835"><ele>192.0</ele><time>2026-05-01T04:00:57.001Z</time></trkpt><trkpt lat="46.10082195507037" lon="11.092052736881126"><ele>190.5</ele><time>2026-05-01T04:00:58.001Z</time></trkpt><trkpt lat="46.101104621802534" lon="11.091839205273718"><ele>189.0</ele><time>2026-05-01T04:00:59.001Z</time></trkpt><trkpt lat="46.10138660839674" lon="11.09163268687177"><ele>191.5</ele><time>2026-05-01T04:01:00.001Z</time></trkpt><trkpt lat="46.10166889372803" lon="11.091433808916173"><ele>194.0</ele><time>2026-05-01T04:01:01.001Z</time></trkpt><trkpt lat="46.10194716556306" lon="11.091239866514606"><ele>194.0</ele><time>2026-05-01T04:01:02.001Z</time></trkpt><trkpt lat="46.10223331459112" lon="11.091059049208148"><ele>194.0</ele><time>2026-05-01T04:01:03.001Z</time></trkpt><trkpt lat="46.10251988777131" lon="11.090891930930404"><ele>192.5</ele><time>2026-05-01T04:01:04.001Z</time></trkpt><trkpt lat="46.10280861917094" lon="11.090734809614068"><ele>191.0</ele><time>2026-05-01T04:01:05.001Z</time></trkpt><trkpt lat="46.10309866005337" lon="11.090587410505533"><ele>191.5</ele><time>2026-05-01T04:01:06.001Z</time></trkpt><trkpt lat="46.10338935463719" lon="11.090448145796154"><ele>192.0</ele><time>2026-05-01T04:01:07.001Z</time></trkpt><trkpt lat="46.103682879357464" lon="11.090314974742395"><ele>192.0</ele><time>2026-05-01T04:01:08.001Z</time></trkpt><trkpt lat="46.103976254982335" lon="11.090187848589371"><ele>192.0</ele><time>2026-05-01T04:01:09.001Z</time></trkpt><trkpt lat="46.10427146921831" lon="11.09007103358392"><ele>191.5</ele><time>2026-05-01T04:01:10.001Z</time></trkpt><trkpt lat="46.10457055577546" lon="11.089959470066486"><ele>191.0</ele><time>2026-05-01T04:01:11.001Z</time></trkpt><trkpt lat="46.10486981835501" lon="11.089861118251553"><ele>194.0</ele><time>2026-05-01T04:01:12.001Z</time></trkpt><trkpt lat="46.10516942837928" lon="11.089771550244517"><ele>197.0</ele><time>2026-05-01T04:01:13.001Z</time></trkpt><trkpt lat="46.10546990382622" lon="11.089682037133677"><ele>197.5</ele><time>2026-05-01T04:01:14.001Z</time></trkpt><trkpt lat="46.105771530085384" lon="11.089599346540814"><ele>198.0</ele><time>2026-05-01T04:01:15.001Z</time></trkpt><trkpt lat="46.106072380824735" lon="11.089511184894972"><ele>198.0</ele><time>2026-05-01T04:01:16.001Z</time></trkpt><trkpt lat="46.1063712638983" lon="11.089420653514223"><ele>198.0</ele><time>2026-05-01T04:01:17.001Z</time></trkpt><trkpt lat="46.106670244928196" lon="11.089333821063153"><ele>196.0</ele><time>2026-05-01T04:01:18.001Z</time></trkpt><trkpt lat="46.10696922949025" lon="11.089246910143853"><ele>194.0</ele><time>2026-05-01T04:01:19.001Z</time></trkpt><trkpt lat="46.10726585380868" lon="11.089160808076256"><ele>191.0</ele><time>2026-05-01T04:01:20.001Z</time></trkpt><trkpt lat="46.10756440636609" lon="11.089072930521297"><ele>188.0</ele><time>2026-05-01T04:01:21.001Z</time></trkpt><trkpt lat="46.10785787760822" lon="11.088987108318143"><ele>188.0</ele><time>2026-05-01T04:01:22.001Z</time></trkpt><trkpt lat="46.10813851746552" lon="11.088906464695278"><ele>188.0</ele><time>2026-05-01T04:01:23.001Z</time></trkpt><trkpt lat="46.108424399369135" lon="11.08882467527947"><ele>190.5</ele><time>2026-05-01T04:01:24.001Z</time></trkpt><trkpt lat="46.10871791287251" lon="11.088738834909556"><ele>193.0</ele><time>2026-05-01T04:01:25.001Z</time></trkpt><trkpt lat="46.10901596116384" lon="11.088655230472112"><ele>193.5</ele><time>2026-05-01T04:01:26.001Z</time></trkpt><trkpt lat="46.1093150749114" lon="11.088570324741651"><ele>194.0</ele><time>2026-05-01T04:01:27.001Z</time></trkpt><trkpt lat="46.10961377965978" lon="11.088488153723553"><ele>194.5</ele><time>2026-05-01T04:01:28.001Z</time></trkpt><trkpt lat="46.10991182611476" lon="11.08840713810346"><ele>195.0</ele><time>2026-05-01T04:01:29.001Z</time></trkpt><trkpt lat="46.11021065024117" lon="11.088324231328322"><ele>194.0</ele><time>2026-05-01T04:01:30.001Z</time></trkpt><trkpt lat="46.11050958074899" lon="11.088241128765473"><ele>193.0</ele><time>2026-05-01T04:01:31.001Z</time></trkpt><trkpt lat="46.11080673452052" lon="11.088150620096036"><ele>192.5</ele><time>2026-05-01T04:01:32.001Z</time></trkpt><trkpt lat="46.11110159549963" lon="11.088059785211858"><ele>192.0</ele><time>2026-05-01T04:01:33.001Z</time></trkpt><trkpt lat="46.111395887237606" lon="11.08797080814336"><ele>192.0</ele><time>2026-05-01T04:01:34.001Z</time></trkpt><trkpt lat="46.111691042243464" lon="11.087881674732204"><ele>192.0</ele><time>2026-05-01T04:01:35.001Z</time></trkpt><trkpt lat="46.111988372334906" lon="11.087793359752865"><ele>192.0</ele><time>2026-05-01T04:01:36.001Z</time></trkpt><trkpt lat="46.11228521852125" lon="11.08771067090394"><ele>192.0</ele><time>2026-05-01T04:01:37.001Z</time></trkpt><trkpt lat="46.11258292399431" lon="11.087629378712753"><ele>193.0</ele><time>2026-05-01T04:01:38.001Z</time></trkpt><trkpt lat="46.11288113363722" lon="11.087554966797423"><ele>194.0</ele><time>2026-05-01T04:01:39.001Z</time></trkpt><trkpt lat="46.113177682703736" lon="11.087486263208609"><ele>195.0</ele><time>2026-05-01T04:01:40.001Z</time></trkpt><trkpt lat="46.11347219012554" lon="11.087427573216546"><ele>196.0</ele><time>2026-05-01T04:01:41.001Z</time></trkpt><trkpt lat="46.11377151091399" lon="11.087371178723263"><ele>196.0</ele><time>2026-05-01T04:01:42.001Z</time></trkpt><trkpt lat="46.114071140642125" lon="11.087322139375376"><ele>196.0</ele><time>2026-05-01T04:01:43.001Z</time></trkpt><trkpt lat="46.114373863316025" lon="11.087275193902048"><ele>196.0</ele><time>2026-05-01T04:01:44.001Z</time></trkpt><trkpt lat="46.1146779694069" lon="11.087223939571572"><ele>196.0</ele><time>2026-05-01T04:01:45.001Z</time></trkpt><trkpt lat="46.11498758599935" lon="11.087184171519073"><ele>196.0</ele><time>2026-05-01T04:01:46.001Z</time></trkpt><trkpt lat="46.11529748053329" lon="11.087146274352076"><ele>196.0</ele><time>2026-05-01T04:01:47.001Z</time></trkpt><trkpt lat="46.1156084128549" lon="11.087112626269088"><ele>197.0</ele><time>2026-05-01T04:01:48.001Z</time></trkpt><trkpt lat="46.11591871002682" lon="11.087078800855524"><ele>198.0</ele><time>2026-05-01T04:01:49.001Z</time></trkpt><trkpt lat="46.11622986524873" lon="11.087041969881732"><ele>198.0</ele><time>2026-05-01T04:01:50.001Z</time></trkpt><trkpt lat="46.11654206365603" lon="11.087008581641618"><ele>198.0</ele><time>2026-05-01T04:01:51.001Z</time></trkpt><trkpt lat="46.116852867385916" lon="11.086973853129328"><ele>196.5</ele><time>2026-05-01T04:01:52.001Z</time></trkpt><trkpt lat="46.11716496648059" lon="11.086940943216112"><ele>195.0</ele><time>2026-05-01T04:01:53.001Z</time></trkpt><trkpt lat="46.11747744900607" lon="11.086903446134292"><ele>195.0</ele><time>2026-05-01T04:01:54.001Z</time></trkpt><trkpt lat="46.1177865729707" lon="11.086857196302313"><ele>195.0</ele><time>2026-05-01T04:01:55.001Z</time></trkpt><trkpt lat="46.118095554893586" lon="11.086809085985411"><ele>196.0</ele><time>2026-05-01T04:01:56.001Z</time></trkpt><trkpt lat="46.11840247369955" lon="11.086750989688664"><ele>197.0</ele><time>2026-05-01T04:01:57.001Z</time></trkpt><trkpt lat="46.11870927540713" lon="11.086685046802765"><ele>197.0</ele><time>2026-05-01T04:01:58.001Z</time></trkpt><trkpt lat="46.11901486429893" lon="11.086606818150049"><ele>197.0</ele><time>2026-05-01T04:01:59.001Z</time></trkpt><trkpt lat="46.11931947201029" lon="11.086522398033463"><ele>197.0</ele><time>2026-05-01T04:02:00.001Z</time></trkpt><trkpt lat="46.1196213881548" lon="11.086428789509338"><ele>197.0</ele><time>2026-05-01T04:02:01.001Z</time></trkpt><trkpt lat="46.119921939682285" lon="11.086328233099325"><ele>196.5</ele><time>2026-05-01T04:02:02.001Z</time></trkpt><trkpt lat="46.12022139907705" lon="11.086222470020365"><ele>196.0</ele><time>2026-05-01T04:02:03.001Z</time></trkpt><trkpt lat="46.12052070809376" lon="11.08610895850595"><ele>197.0</ele><time>2026-05-01T04:02:04.001Z</time></trkpt><trkpt lat="46.1208161749321" lon="11.085989664476706"><ele>198.0</ele><time>2026-05-01T04:02:05.001Z</time></trkpt><trkpt lat="46.12111009693102" lon="11.08586111629371"><ele>197.0</ele><time>2026-05-01T04:02:06.001Z</time></trkpt><trkpt lat="46.12140422439034" lon="11.085723044312207"><ele>196.0</ele><time>2026-05-01T04:02:07.001Z</time></trkpt><trkpt lat="46.12169527982736" lon="11.085579127530794"><ele>198.0</ele><time>2026-05-01T04:02:08.001Z</time></trkpt><trkpt lat="46.12198458946704" lon="11.085432243873948"><ele>200.0</ele><time>2026-05-01T04:02:09Z</time></trkpt><trkpt lat="46.12227419377924" lon="11.085284376720352"><ele>199.5</ele><time>2026-05-01T04:02:10Z</time></trkpt><trkpt lat="46.12256423850055" lon="11.085135690767508"><ele>199.0</ele><time>2026-05-01T04:02:11Z</time></trkpt><trkpt lat="46.12285192555773" lon="11.084991715937162"><ele>198.5</ele><time>2026-05-01T04:02:12Z</time></trkpt><trkpt lat="46.12314167472687" lon="11.084844732504447"><ele>198.0</ele><time>2026-05-01T04:02:13Z</time></trkpt><trkpt lat="46.12343330916709" lon="11.084695917893699"><ele>199.0</ele><time>2026-05-01T04:02:14Z</time></trkpt><trkpt lat="46.12372542977523" lon="11.084552168565315"><ele>200.0</ele><time>2026-05-01T04:02:15Z</time></trkpt><trkpt lat="46.12400355035158" lon="11.08441109923069"><ele>199.5</ele><time>2026-05-01T04:02:16Z</time></trkpt><trkpt lat="46.124286595693704" lon="11.084259766447326"><ele>199.0</ele><time>2026-05-01T04:02:17Z</time></trkpt><trkpt lat="46.124572131324406" lon="11.084110461953538"><ele>199.0</ele><time>2026-05-01T04:02:18Z</time></trkpt><trkpt lat="46.12485877086827" lon="11.083964615850746"><ele>199.0</ele><time>2026-05-01T04:02:19Z</time></trkpt><trkpt lat="46.12514725336653" lon="11.083817215202684"><ele>199.0</ele><time>2026-05-01T04:02:20Z</time></trkpt><trkpt lat="46.12543550583916" lon="11.083670846544834"><ele>199.0</ele><time>2026-05-01T04:02:21Z</time></trkpt><trkpt lat="46.125722334166596" lon="11.083522114221939"><ele>199.5</ele><time>2026-05-01T04:02:22Z</time></trkpt><trkpt lat="46.1260111714858" lon="11.083371054666829"><ele>200.0</ele><time>2026-05-01T04:02:23Z</time></trkpt><trkpt lat="46.1262984034857" lon="11.083221019022389"><ele>200.0</ele><time>2026-05-01T04:02:24Z</time></trkpt><trkpt lat="46.12658742024034" lon="11.083071481567092"><ele>200.0</ele><time>2026-05-01T04:02:25Z</time></trkpt><trkpt lat="46.12687751721336" lon="11.082929409779409"><ele>200.0</ele><time>2026-05-01T04:02:26Z</time></trkpt><trkpt lat="46.12716917402239" lon="11.082792282924435"><ele>200.0</ele><time>2026-05-01T04:02:27Z</time></trkpt><trkpt lat="46.12746233972509" lon="11.082665234524201"><ele>200.0</ele><time>2026-05-01T04:02:28Z</time></trkpt><trkpt lat="46.1277566228634" lon="11.082554127682245"><ele>200.0</ele><time>2026-05-01T04:02:29Z</time></trkpt><trkpt lat="46.12805311064595" lon="11.082460760622965"><ele>199.0</ele><time>2026-05-01T04:02:30Z</time></trkpt><trkpt lat="46.12834939193317" lon="11.082384984508295"><ele>198.0</ele><time>2026-05-01T04:02:31Z</time></trkpt><trkpt lat="46.1286479013059" lon="11.082328390037748"><ele>198.0</ele><time>2026-05-01T04:02:32Z</time></trkpt><trkpt lat="46.12894797762275" lon="11.082284987658857"><ele>198.0</ele><time>2026-05-01T04:02:33Z</time></trkpt><trkpt lat="46.12925115560677" lon="11.0822531344329"><ele>198.5</ele><time>2026-05-01T04:02:34Z</time></trkpt><trkpt lat="46.129555869519045" lon="11.082226717255919"><ele>199.0</ele><time>2026-05-01T04:02:35Z</time></trkpt><trkpt lat="46.12986202874448" lon="11.082205747115044"><ele>201.0</ele><time>2026-05-01T04:02:36Z</time></trkpt><trkpt lat="46.13016743055189" lon="11.08219583010903"><ele>203.0</ele><time>2026-05-01T04:02:37Z</time></trkpt><trkpt lat="46.13047469306795" lon="11.082195685967008"><ele>201.5</ele><time>2026-05-01T04:02:38Z</time></trkpt><trkpt lat="46.13078377127778" lon="11.082210039153173"><ele>200.0</ele><time>2026-05-01T04:02:39Z</time></trkpt><trkpt lat="46.131090754533155" lon="11.082239810494052"><ele>200.0</ele><time>2026-05-01T04:02:40Z</time></trkpt><trkpt lat="46.13139594665995" lon="11.08228600392557"><ele>200.0</ele><time>2026-05-01T04:02:41Z</time></trkpt><trkpt lat="46.131701232953766" lon="11.082345487179031"><ele>200.5</ele><time>2026-05-01T04:02:42Z</time></trkpt><trkpt lat="46.13200469988405" lon="11.082419392146637"><ele>201.0</ele><time>2026-05-01T04:02:43.001Z</time></trkpt><trkpt lat="46.13230701177224" lon="11.08250160420726"><ele>201.0</ele><time>2026-05-01T04:02:44.001Z</time></trkpt><trkpt lat="46.13260754238414" lon="11.082594402417437"><ele>201.0</ele><time>2026-05-01T04:02:45.001Z</time></trkpt><trkpt lat="46.13290517161333" lon="11.082698537692297"><ele>201.0</ele><time>2026-05-01T04:02:46.001Z</time></trkpt><trkpt lat="46.13320188751102" lon="11.082817119746966"><ele>201.0</ele><time>2026-05-01T04:02:47.001Z</time></trkpt><trkpt lat="46.13349593415759" lon="11.08294368375404"><ele>200.5</ele><time>2026-05-01T04:02:48.001Z</time></trkpt><trkpt lat="46.13379023771951" lon="11.083079024492482"><ele>200.0</ele><time>2026-05-01T04:02:49.001Z</time></trkpt><trkpt lat="46.13408398125524" lon="11.083219297774033"><ele>200.0</ele><time>2026-05-01T04:02:50.001Z</time></trkpt><trkpt lat="46.1343772508037" lon="11.083365027485673"><ele>200.0</ele><time>2026-05-01T04:02:51.001Z</time></trkpt><trkpt lat="46.13466636223384" lon="11.083512020930545"><ele>200.0</ele><time>2026-05-01T04:02:52.001Z</time></trkpt><trkpt lat="46.13495518869034" lon="11.083660997681843"><ele>200.0</ele><time>2026-05-01T04:02:53.001Z</time></trkpt><trkpt lat="46.13524279458402" lon="11.083807639801675"><ele>200.0</ele><time>2026-05-01T04:02:54.001Z</time></trkpt><trkpt lat="46.13552023268637" lon="11.083950654591517"><ele>200.0</ele><time>2026-05-01T04:02:55.001Z</time></trkpt><trkpt lat="46.13579476705523" lon="11.084081152282756"><ele>201.0</ele><time>2026-05-01T04:02:56.001Z</time></trkpt><trkpt lat="46.136074264108096" lon="11.084221379262624"><ele>202.0</ele><time>2026-05-01T04:02:57.001Z</time></trkpt><trkpt lat="46.136358218653776" lon="11.084365399270775"><ele>200.0</ele><time>2026-05-01T04:02:58.001Z</time></trkpt><trkpt lat="46.13664538781552" lon="11.084507302140137"><ele>198.0</ele><time>2026-05-01T04:02:59.001Z</time></trkpt><trkpt lat="46.136934483467606" lon="11.084651561677155"><ele>198.0</ele><time>2026-05-01T04:03:00.001Z</time></trkpt><trkpt lat="46.13722319804047" lon="11.084796696536731"><ele>198.0</ele><time>2026-05-01T04:03:01.001Z</time></trkpt><trkpt lat="46.13751380763055" lon="11.084943255606893"><ele>198.0</ele><time>2026-05-01T04:03:02.001Z</time></trkpt><trkpt lat="46.137805306207774" lon="11.08508928038627"><ele>198.0</ele><time>2026-05-01T04:03:03.001Z</time></trkpt><trkpt lat="46.13809615938918" lon="11.085233234874865"><ele>199.0</ele><time>2026-05-01T04:03:04.001Z</time></trkpt><trkpt lat="46.13838649457657" lon="11.08537763614677"><ele>200.0</ele><time>2026-05-01T04:03:05.001Z</time></trkpt><trkpt lat="46.13867635039772" lon="11.085521262095224"><ele>200.0</ele><time>2026-05-01T04:03:06.001Z</time></trkpt><trkpt lat="46.13896494832338" lon="11.085664185184783"><ele>200.0</ele><time>2026-05-01T04:03:07.001Z</time></trkpt><trkpt lat="46.13925179241505" lon="11.08580791868999"><ele>202.0</ele><time>2026-05-01T04:03:08.001Z</time></trkpt><trkpt lat="46.1395375686778" lon="11.085953038764439"><ele>204.0</ele><time>2026-05-01T04:03:09.001Z</time></trkpt><trkpt lat="46.139823365922744" lon="11.086097566265412"><ele>202.5</ele><time>2026-05-01T04:03:10.001Z</time></trkpt><trkpt lat="46.14010723792453" lon="11.086239588702616"><ele>201.0</ele><time>2026-05-01T04:03:11.001Z</time></trkpt><trkpt lat="46.14039059029819" lon="11.086382817233627"><ele>201.0</ele><time>2026-05-01T04:03:12.001Z</time></trkpt><trkpt lat="46.140674475599646" lon="11.0865265094766"><ele>201.0</ele><time>2026-05-01T04:03:13.001Z</time></trkpt><trkpt lat="46.14095826919641" lon="11.086669710390598"><ele>201.5</ele><time>2026-05-01T04:03:14.001Z</time></trkpt><trkpt lat="46.14124091875166" lon="11.086810237138161"><ele>202.0</ele><time>2026-05-01T04:03:15.001Z</time></trkpt><trkpt lat="46.14152384380679" lon="11.086952113893576"><ele>203.0</ele><time>2026-05-01T04:03:16.001Z</time></trkpt><trkpt lat="46.14180516000847" lon="11.087094180060635"><ele>204.0</ele><time>2026-05-01T04:03:17.001Z</time></trkpt><trkpt lat="46.14208827022263" lon="11.087235746313763"><ele>204.0</ele><time>2026-05-01T04:03:18.001Z</time></trkpt><trkpt lat="46.142371836969765" lon="11.08737654207396"><ele>204.0</ele><time>2026-05-01T04:03:19.001Z</time></trkpt><trkpt lat="46.14265666118092" lon="11.087517418259685"><ele>203.0</ele><time>2026-05-01T04:03:20.001Z</time></trkpt><trkpt lat="46.1429409543577" lon="11.08766253079497"><ele>202.0</ele><time>2026-05-01T04:03:21.001Z</time></trkpt><trkpt lat="46.14322825280985" lon="11.087806490652236"><ele>202.0</ele><time>2026-05-01T04:03:22.001Z</time></trkpt><trkpt lat="46.143512659014455" lon="11.08795231409132"><ele>202.0</ele><time>2026-05-01T04:03:23.001Z</time></trkpt><trkpt lat="46.14379773668291" lon="11.088095768890643"><ele>202.5</ele><time>2026-05-01T04:03:24.001Z</time></trkpt><trkpt lat="46.1440846576618" lon="11.088244694870921"><ele>203.0</ele><time>2026-05-01T04:03:25.001Z</time></trkpt><trkpt lat="46.14437165239742" lon="11.088387090296994"><ele>203.5</ele><time>2026-05-01T04:03:26.001Z</time></trkpt><trkpt lat="46.14466246496305" lon="11.08852845813926"><ele>204.0</ele><time>2026-05-01T04:03:27.001Z</time></trkpt><trkpt lat="46.14495548736398" lon="11.088660422075533"><ele>202.5</ele><time>2026-05-01T04:03:28.001Z</time></trkpt><trkpt lat="46.145249622145286" lon="11.088789429720055"><ele>201.0</ele><time>2026-05-01T04:03:29.001Z</time></trkpt><trkpt lat="46.145545933185595" lon="11.088918249257288"><ele>200.5</ele><time>2026-05-01T04:03:30.001Z</time></trkpt><trkpt lat="46.14584152790305" lon="11.08904167812663"><ele>200.0</ele><time>2026-05-01T04:03:31.001Z</time></trkpt><trkpt lat="46.146141016000776" lon="11.089159282541353"><ele>201.0</ele><time>2026-05-01T04:03:32.001Z</time></trkpt><trkpt lat="46.146439160578474" lon="11.089270013730554"><ele>202.0</ele><time>2026-05-01T04:03:33.001Z</time></trkpt><trkpt lat="46.14674207924213" lon="11.089381805409388"><ele>202.5</ele><time>2026-05-01T04:03:34.001Z</time></trkpt><trkpt lat="46.14704354925372" lon="11.0894870625256"><ele>203.0</ele><time>2026-05-01T04:03:35.001Z</time></trkpt><trkpt lat="46.147346002537596" lon="11.08959036509514"><ele>203.5</ele><time>2026-05-01T04:03:36.001Z</time></trkpt><trkpt lat="46.14764718207815" lon="11.089696357960621"><ele>204.0</ele><time>2026-05-01T04:03:37.001Z</time></trkpt><trkpt lat="46.14794576019587" lon="11.089804411137255"><ele>203.0</ele><time>2026-05-01T04:03:38.001Z</time></trkpt><trkpt lat="46.14824619880793" lon="11.089914141502426"><ele>202.0</ele><time>2026-05-01T04:03:39.001Z</time></trkpt><trkpt lat="46.14854532584908" lon="11.090027159614277"><ele>202.0</ele><time>2026-05-01T04:03:40.001Z</time></trkpt><trkpt lat="46.1488465523496" lon="11.090134739798566"><ele>202.0</ele><time>2026-05-01T04:03:41.001Z</time></trkpt><trkpt lat="46.149148949022084" lon="11.090241302573794"><ele>202.0</ele><time>2026-05-01T04:03:42.001Z</time></trkpt><trkpt lat="46.14945280690001" lon="11.09034826875199"><ele>202.0</ele><time>2026-05-01T04:03:43.001Z</time></trkpt><trkpt lat="46.1497547509596" lon="11.090455878166956"><ele>201.0</ele><time>2026-05-01T04:03:44.001Z</time></trkpt><trkpt lat="46.15005867502447" lon="11.090564912385638"><ele>200.0</ele><time>2026-05-01T04:03:45.001Z</time></trkpt><trkpt lat="46.150360902505795" lon="11.09067834855334"><ele>200.5</ele><time>2026-05-01T04:03:46.001Z</time></trkpt><trkpt lat="46.15066298911545" lon="11.090791594862887"><ele>201.0</ele><time>2026-05-01T04:03:47.001Z</time></trkpt><trkpt lat="46.15096684792492" lon="11.090899848681648"><ele>200.0</ele><time>2026-05-01T04:03:48.001Z</time></trkpt><trkpt lat="46.15127138059212" lon="11.091010185010683"><ele>199.0</ele><time>2026-05-01T04:03:49.001Z</time></trkpt><trkpt lat="46.151574832828885" lon="11.09111670376082"><ele>198.5</ele><time>2026-05-01T04:03:50.001Z</time></trkpt><trkpt lat="46.15188037553922" lon="11.091222131455556"><ele>198.0</ele><time>2026-05-01T04:03:51.001Z</time></trkpt><trkpt lat="46.15218514236442" lon="11.0913274030156"><ele>199.5</ele><time>2026-05-01T04:03:52.001Z</time></trkpt><trkpt lat="46.15248893732554" lon="11.091432870516599"><ele>201.0</ele><time>2026-05-01T04:03:53.001Z</time></trkpt><trkpt lat="46.15279164261956" lon="11.091537420352685"><ele>201.0</ele><time>2026-05-01T04:03:54.001Z</time></trkpt><trkpt lat="46.15309456315348" lon="11.091643481986166"><ele>201.0</ele><time>2026-05-01T04:03:55.001Z</time></trkpt><trkpt lat="46.153395150847786" lon="11.09175240762403"><ele>201.0</ele><time>2026-05-01T04:03:56.001Z</time></trkpt><trkpt lat="46.153694561367615" lon="11.091862537341305"><ele>201.0</ele><time>2026-05-01T04:03:57.001Z</time></trkpt><trkpt lat="46.15399527979357" lon="11.091971837519194"><ele>200.0</ele><time>2026-05-01T04:03:58.001Z</time></trkpt><trkpt lat="46.154294151500736" lon="11.092077673477688"><ele>199.0</ele><time>2026-05-01T04:03:59.001Z</time></trkpt><trkpt lat="46.15459328630485" lon="11.092179972921686"><ele>199.5</ele><time>2026-05-01T04:04:00.001Z</time></trkpt><trkpt lat="46.15489070160463" lon="11.092286522792534"><ele>200.0</ele><time>2026-05-01T04:04:01.001Z</time></trkpt><trkpt lat="46.15518852513444" lon="11.092393994359172"><ele>200.0</ele><time>2026-05-01T04:04:02.001Z</time></trkpt><trkpt lat="46.155486653915105" lon="11.092500458072731"><ele>200.0</ele><time>2026-05-01T04:04:03.001Z</time></trkpt><trkpt lat="46.15578339522205" lon="11.09260740988299"><ele>199.5</ele><time>2026-05-01T04:04:04.001Z</time></trkpt><trkpt lat="46.15608085928852" lon="11.09271463975203"><ele>199.0</ele><time>2026-05-01T04:04:05.001Z</time></trkpt><trkpt lat="46.156377232814364" lon="11.09282272703824"><ele>201.0</ele><time>2026-05-01T04:04:06.001Z</time></trkpt><trkpt lat="46.15667361457988" lon="11.092933417514233"><ele>203.0</ele><time>2026-05-01T04:04:07.001Z</time></trkpt><trkpt lat="46.156969944597876" lon="11.09304772867895"><ele>203.0</ele><time>2026-05-01T04:04:08.001Z</time></trkpt><trkpt lat="46.15726540729826" lon="11.093170284622076"><ele>203.0</ele><time>2026-05-01T04:04:09.001Z</time></trkpt><trkpt lat="46.157562667755805" lon="11.093301338304421"><ele>201.5</ele><time>2026-05-01T04:04:10.001Z</time></trkpt><trkpt lat="46.157854839503216" lon="11.09345175630597"><ele>200.0</ele><time>2026-05-01T04:04:11.001Z</time></trkpt><trkpt lat="46.158145461931475" lon="11.093618249213508"><ele>201.0</ele><time>2026-05-01T04:04:12.001Z</time></trkpt><trkpt lat="46.15842902218353" lon="11.093811203322685"><ele>202.0</ele><time>2026-05-01T04:04:13.001Z</time></trkpt><trkpt lat="46.158709669593875" lon="11.094019972953763"><ele>201.5</ele><time>2026-05-01T04:04:14.001Z</time></trkpt><trkpt lat="46.15898851648083" lon="11.094244183253627"><ele>201.0</ele><time>2026-05-01T04:04:15Z</time></trkpt><trkpt lat="46.15926493934121" lon="11.094479773732656"><ele>200.5</ele><time>2026-05-01T04:04:16Z</time></trkpt><trkpt lat="46.15953870534806" lon="11.094724216511393"><ele>200.0</ele><time>2026-05-01T04:04:17Z</time></trkpt><trkpt lat="46.15981002974821" lon="11.094978124995139"><ele>199.5</ele><time>2026-05-01T04:04:18Z</time></trkpt><trkpt lat="46.16007644865984" lon="11.09523930147606"><ele>199.0</ele><time>2026-05-01T04:04:19Z</time></trkpt><trkpt lat="46.160326693982526" lon="11.095492759114917"><ele>199.0</ele><time>2026-05-01T04:04:20Z</time></trkpt><trkpt lat="46.16057467426485" lon="11.095744904599849"><ele>199.0</ele><time>2026-05-01T04:04:21Z</time></trkpt><trkpt lat="46.16082061357089" lon="11.096003636107636"><ele>198.5</ele><time>2026-05-01T04:04:22Z</time></trkpt><trkpt lat="46.16106592641001" lon="11.096267030155797"><ele>198.0</ele><time>2026-05-01T04:04:23Z</time></trkpt><trkpt lat="46.16131448603789" lon="11.096526565058996"><ele>199.0</ele><time>2026-05-01T04:04:24Z</time></trkpt><trkpt lat="46.161563901567106" lon="11.09678242969973"><ele>200.0</ele><time>2026-05-01T04:04:25Z</time></trkpt><trkpt lat="46.16181340132413" lon="11.097038452324343"><ele>200.0</ele><time>2026-05-01T04:04:26Z</time></trkpt><trkpt lat="46.162064038223576" lon="11.097295011661041"><ele>200.0</ele><time>2026-05-01T04:04:27Z</time></trkpt><trkpt lat="46.16231365911038" lon="11.097551688420577"><ele>200.5</ele><time>2026-05-01T04:04:28Z</time></trkpt><trkpt lat="46.162562772879475" lon="11.097809423603858"><ele>201.0</ele><time>2026-05-01T04:04:29Z</time></trkpt><trkpt lat="46.16281266858457" lon="11.098069259938349"><ele>201.5</ele><time>2026-05-01T04:04:30Z</time></trkpt><trkpt lat="46.16306155628141" lon="11.098326297263487"><ele>202.0</ele><time>2026-05-01T04:04:31Z</time></trkpt><trkpt lat="46.16331208815913" lon="11.09858473403285"><ele>201.0</ele><time>2026-05-01T04:04:32Z</time></trkpt><trkpt lat="46.16356332716943" lon="11.098842032113987"><ele>200.0</ele><time>2026-05-01T04:04:33Z</time></trkpt><trkpt lat="46.16381587873179" lon="11.0990994455418"><ele>199.5</ele><time>2026-05-01T04:04:34Z</time></trkpt><trkpt lat="46.164068577052014" lon="11.099357606105"><ele>199.0</ele><time>2026-05-01T04:04:35Z</time></trkpt><trkpt lat="46.164321552303235" lon="11.099617105364866"><ele>199.0</ele><time>2026-05-01T04:04:36Z</time></trkpt><trkpt lat="46.16457420387054" lon="11.09987883826362"><ele>199.0</ele><time>2026-05-01T04:04:37Z</time></trkpt><trkpt lat="46.1648257249727" lon="11.100142824584566"><ele>199.0</ele><time>2026-05-01T04:04:38Z</time></trkpt><trkpt lat="46.16507799952145" lon="11.100406409069445"><ele>199.0</ele><time>2026-05-01T04:04:39Z</time></trkpt><trkpt lat="46.165329971122105" lon="11.100669049163098"><ele>199.0</ele><time>2026-05-01T04:04:40Z</time></trkpt><trkpt lat="46.16558247172363" lon="11.100930110569756"><ele>199.0</ele><time>2026-05-01T04:04:41Z</time></trkpt><trkpt lat="46.16583515895304" lon="11.101189663616204"><ele>199.0</ele><time>2026-05-01T04:04:42Z</time></trkpt><trkpt lat="46.16608892930881" lon="11.101446005349608"><ele>199.0</ele><time>2026-05-01T04:04:43Z</time></trkpt><trkpt lat="46.166343770856464" lon="11.101700970166048"><ele>199.5</ele><time>2026-05-01T04:04:44Z</time></trkpt><trkpt lat="46.16659708973233" lon="11.101954138615065"><ele>200.0</ele><time>2026-05-01T04:04:45Z</time></trkpt><trkpt lat="46.16684790060861" lon="11.102209225234924"><ele>199.5</ele><time>2026-05-01T04:04:46Z</time></trkpt><trkpt lat="46.16709927844023" lon="11.102466307848543"><ele>199.0</ele><time>2026-05-01T04:04:47Z</time></trkpt><trkpt lat="46.167346560969904" lon="11.102726512002118"><ele>199.5</ele><time>2026-05-01T04:04:48Z</time></trkpt><trkpt lat="46.167594411933436" lon="11.102984703762926"><ele>200.0</ele><time>2026-05-01T04:04:49Z</time></trkpt><trkpt lat="46.16784272562094" lon="11.103241937084158"><ele>200.5</ele><time>2026-05-01T04:04:50Z</time></trkpt><trkpt lat="46.16809238132858" lon="11.103495524595314"><ele>201.0</ele><time>2026-05-01T04:04:51Z</time></trkpt><trkpt lat="46.16834444350475" lon="11.103744884956086"><ele>201.0</ele><time>2026-05-01T04:04:52.001Z</time></trkpt><trkpt lat="46.168598918996864" lon="11.103986880652206"><ele>201.0</ele><time>2026-05-01T04:04:53.001Z</time></trkpt><trkpt lat="46.16885537858667" lon="11.104218027817936"><ele>200.0</ele><time>2026-05-01T04:04:54.001Z</time></trkpt><trkpt lat="46.16911687887482" lon="11.104441171806346"><ele>199.0</ele><time>2026-05-01T04:04:55.001Z</time></trkpt><trkpt lat="46.16938408896442" lon="11.104657064107334"><ele>199.0</ele><time>2026-05-01T04:04:56.001Z</time></trkpt><trkpt lat="46.16965724096174" lon="11.104863299181268"><ele>199.0</ele><time>2026-05-01T04:04:57.001Z</time></trkpt><trkpt lat="46.169934012820136" lon="11.105060956241427"><ele>199.5</ele><time>2026-05-01T04:04:58.001Z</time></trkpt><trkpt lat="46.170211918369866" lon="11.105252281807006"><ele>200.0</ele><time>2026-05-01T04:04:59.001Z</time></trkpt><trkpt lat="46.17049162408804" lon="11.105444079566361"><ele>200.0</ele><time>2026-05-01T04:05:00.001Z</time></trkpt><trkpt lat="46.170772711552694" lon="11.105635523695145"><ele>200.0</ele><time>2026-05-01T04:05:01.001Z</time></trkpt><trkpt lat="46.17105519779638" lon="11.105828319065932"><ele>199.5</ele><time>2026-05-01T04:05:02.001Z</time></trkpt><trkpt lat="46.1713369857699" lon="11.106023327307648"><ele>199.0</ele><time>2026-05-01T04:05:03.001Z</time></trkpt><trkpt lat="46.17161954434077" lon="11.106217990988764"><ele>199.0</ele><time>2026-05-01T04:05:04.001Z</time></trkpt><trkpt lat="46.171901214390914" lon="11.106412274998812"><ele>199.0</ele><time>2026-05-01T04:05:05.001Z</time></trkpt><trkpt lat="46.17218278451524" lon="11.106606934896558"><ele>199.5</ele><time>2026-05-01T04:05:06.001Z</time></trkpt><trkpt lat="46.1724654209623" lon="11.106800596948897"><ele>200.0</ele><time>2026-05-01T04:05:07.001Z</time></trkpt><trkpt lat="46.172747164063146" lon="11.1069969105632"><ele>200.0</ele><time>2026-05-01T04:05:08.001Z</time></trkpt><trkpt lat="46.17302981959859" lon="11.107190440580453"><ele>200.0</ele><time>2026-05-01T04:05:09.001Z</time></trkpt><trkpt lat="46.17331345112915" lon="11.10738478627894"><ele>200.0</ele><time>2026-05-01T04:05:10.001Z</time></trkpt><trkpt lat="46.17359661914283" lon="11.107578597757975"><ele>200.0</ele><time>2026-05-01T04:05:11.001Z</time></trkpt><trkpt lat="46.1738787063161" lon="11.107772793746284"><ele>199.0</ele><time>2026-05-01T04:05:12.001Z</time></trkpt><trkpt lat="46.17416042720647" lon="11.10796749217881"><ele>198.0</ele><time>2026-05-01T04:05:13.001Z</time></trkpt><trkpt lat="46.17444146206997" lon="11.10816174574458"><ele>198.5</ele><time>2026-05-01T04:05:14.001Z</time></trkpt><trkpt lat="46.174724084105534" lon="11.108355048537787"><ele>199.0</ele><time>2026-05-01T04:05:15.001Z</time></trkpt><trkpt lat="46.175005455095246" lon="11.108549687367644"><ele>200.0</ele><time>2026-05-01T04:05:16.001Z</time></trkpt><trkpt lat="46.175287411068815" lon="11.108744294034391"><ele>201.0</ele><time>2026-05-01T04:05:17.001Z</time></trkpt><trkpt lat="46.17556992430327" lon="11.108939730559856"><ele>200.5</ele><time>2026-05-01T04:05:18.001Z</time></trkpt><trkpt lat="46.175851592737835" lon="11.109134266082735"><ele>200.0</ele><time>2026-05-01T04:05:19.001Z</time></trkpt><trkpt lat="46.176132176344524" lon="11.109328053926765"><ele>200.0</ele><time>2026-05-01T04:05:20.001Z</time></trkpt><trkpt lat="46.17641380449416" lon="11.109520994407996"><ele>200.0</ele><time>2026-05-01T04:05:21.001Z</time></trkpt><trkpt lat="46.176693787472196" lon="11.109711249067482"><ele>200.0</ele><time>2026-05-01T04:05:22.001Z</time></trkpt><trkpt lat="46.17697363846376" lon="11.10990198100194"><ele>200.0</ele><time>2026-05-01T04:05:23.001Z</time></trkpt><trkpt lat="46.17725346457422" lon="11.110093937743315"><ele>200.5</ele><time>2026-05-01T04:05:24.001Z</time></trkpt><trkpt lat="46.177533067799885" lon="11.110282924320956"><ele>201.0</ele><time>2026-05-01T04:05:25.001Z</time></trkpt><trkpt lat="46.177811593911905" lon="11.110472664780614"><ele>201.0</ele><time>2026-05-01T04:05:26.001Z</time></trkpt><trkpt lat="46.17808983892649" lon="11.110662840828399"><ele>201.0</ele><time>2026-05-01T04:05:27.001Z</time></trkpt><trkpt lat="46.17836771115956" lon="11.110851955028098"><ele>202.5</ele><time>2026-05-01T04:05:28.001Z</time></trkpt><trkpt lat="46.178644560141265" lon="11.1110383949768"><ele>204.0</ele><time>2026-05-01T04:05:29.001Z</time></trkpt><trkpt lat="46.178922832289985" lon="11.111223755201824"><ele>203.0</ele><time>2026-05-01T04:05:30.001Z</time></trkpt><trkpt lat="46.17920162940493" lon="11.111408369694484"><ele>202.0</ele><time>2026-05-01T04:05:31.001Z</time></trkpt><trkpt lat="46.17948202908206" lon="11.111590586758327"><ele>202.0</ele><time>2026-05-01T04:05:32.001Z</time></trkpt><trkpt lat="46.17976206499661" lon="11.111771383519887"><ele>202.0</ele><time>2026-05-01T04:05:33.001Z</time></trkpt><trkpt lat="46.180042286423415" lon="11.11195197756257"><ele>202.0</ele><time>2026-05-01T04:05:34.001Z</time></trkpt><trkpt lat="46.18032606989512" lon="11.11212947531692"><ele>202.0</ele><time>2026-05-01T04:05:35.001Z</time></trkpt><trkpt lat="46.18060739220267" lon="11.112309241790788"><ele>202.0</ele><time>2026-05-01T04:05:36.001Z</time></trkpt><trkpt lat="46.180890253871105" lon="11.11248784847074"><ele>202.0</ele><time>2026-05-01T04:05:37.001Z</time></trkpt><trkpt lat="46.181173447705866" lon="11.112666468730735"><ele>202.0</ele><time>2026-05-01T04:05:38.001Z</time></trkpt><trkpt lat="46.18145748751828" lon="11.112844613948864"><ele>202.0</ele><time>2026-05-01T04:05:39.001Z</time></trkpt><trkpt lat="46.18173898996252" lon="11.11302677178889"><ele>202.0</ele><time>2026-05-01T04:05:40.001Z</time></trkpt><trkpt lat="46.18202276453923" lon="11.113207035102805"><ele>202.0</ele><time>2026-05-01T04:05:41.001Z</time></trkpt><trkpt lat="46.1823062419106" lon="11.113386986536275"><ele>202.0</ele><time>2026-05-01T04:05:42.001Z</time></trkpt><trkpt lat="46.182590796694534" lon="11.113567479038995"><ele>202.0</ele><time>2026-05-01T04:05:43.001Z</time></trkpt><trkpt lat="46.18287540946141" lon="11.113747030190943"><ele>202.0</ele><time>2026-05-01T04:05:44.001Z</time></trkpt><trkpt lat="46.18316117293876" lon="11.113926901783397"><ele>202.0</ele><time>2026-05-01T04:05:45.001Z</time></trkpt><trkpt lat="46.18344546984909" lon="11.114103670654313"><ele>202.0</ele><time>2026-05-01T04:05:46.001Z</time></trkpt><trkpt lat="46.18372882172739" lon="11.114281341355847"><ele>202.0</ele><time>2026-05-01T04:05:47.001Z</time></trkpt><trkpt lat="46.18401408434498" lon="11.114462638050671"><ele>201.0</ele><time>2026-05-01T04:05:48.001Z</time></trkpt><trkpt lat="46.184301307199135" lon="11.114641560859491"><ele>200.0</ele><time>2026-05-01T04:05:49.001Z</time></trkpt><trkpt lat="46.18458745211933" lon="11.114823779889303"><ele>202.5</ele><time>2026-05-01T04:05:50.001Z</time></trkpt><trkpt lat="46.18487467852655" lon="11.115009374387899"><ele>205.0</ele><time>2026-05-01T04:05:51.001Z</time></trkpt><trkpt lat="46.185163873676835" lon="11.115194070722806"><ele>205.0</ele><time>2026-05-01T04:05:52.001Z</time></trkpt><trkpt lat="46.18545536941549" lon="11.115377494413993"><ele>205.0</ele><time>2026-05-01T04:05:53.001Z</time></trkpt><trkpt lat="46.185741400513784" lon="11.115560765519554"><ele>204.0</ele><time>2026-05-01T04:05:54.001Z</time></trkpt><trkpt lat="46.18601500851276" lon="11.115759319336643"><ele>203.0</ele><time>2026-05-01T04:05:55.001Z</time></trkpt><trkpt lat="46.18629610490593" lon="11.115946592529513"><ele>203.0</ele><time>2026-05-01T04:05:56.001Z</time></trkpt><trkpt lat="46.186582634280285" lon="11.116133762395147"><ele>203.0</ele><time>2026-05-01T04:05:57.001Z</time></trkpt><trkpt lat="46.186873653142726" lon="11.116316850479391"><ele>203.0</ele><time>2026-05-01T04:05:58.001Z</time></trkpt><trkpt lat="46.187166677463544" lon="11.116501465041313"><ele>203.0</ele><time>2026-05-01T04:05:59.001Z</time></trkpt><trkpt lat="46.18746232237881" lon="11.116680913020648"><ele>203.0</ele><time>2026-05-01T04:06:00.001Z</time></trkpt><trkpt lat="46.187748922070085" lon="11.116892708231918"><ele>203.0</ele><time>2026-05-01T04:06:01.001Z</time></trkpt><trkpt lat="46.18803051510164" lon="11.117122067743225"><ele>203.0</ele><time>2026-05-01T04:06:02.001Z</time></trkpt><trkpt lat="46.188303022564575" lon="11.117367060027886"><ele>203.0</ele><time>2026-05-01T04:06:03.001Z</time></trkpt><trkpt lat="46.18856590335594" lon="11.117629305116623"><ele>203.0</ele><time>2026-05-01T04:06:04.001Z</time></trkpt><trkpt lat="46.18882299499944" lon="11.117904737849548"><ele>203.0</ele><time>2026-05-01T04:06:05.001Z</time></trkpt><trkpt lat="46.189074628910305" lon="11.118187291800547"><ele>202.0</ele><time>2026-05-01T04:06:06.001Z</time></trkpt><trkpt lat="46.18932295034747" lon="11.11846856788036"><ele>201.0</ele><time>2026-05-01T04:06:07.001Z</time></trkpt><trkpt lat="46.1895664099513" lon="11.118744603624828"><ele>201.0</ele><time>2026-05-01T04:06:08.001Z</time></trkpt><trkpt lat="46.189805954495775" lon="11.119019650915309"><ele>201.0</ele><time>2026-05-01T04:06:09.001Z</time></trkpt><trkpt lat="46.19004071534185" lon="11.11929878369066"><ele>203.5</ele><time>2026-05-01T04:06:10.001Z</time></trkpt><trkpt lat="46.19027381654369" lon="11.119583079533621"><ele>206.0</ele><time>2026-05-01T04:06:11.001Z</time></trkpt><trkpt lat="46.190505285741196" lon="11.119867712188242"><ele>206.0</ele><time>2026-05-01T04:06:12.001Z</time></trkpt><trkpt lat="46.1907372121386" lon="11.120154028589848"><ele>206.0</ele><time>2026-05-01T04:06:13.001Z</time></trkpt><trkpt lat="46.190971472906895" lon="11.120438683333171"><ele>206.0</ele><time>2026-05-01T04:06:14.001Z</time></trkpt><trkpt lat="46.191207384504324" lon="11.120722310303833"><ele>206.0</ele><time>2026-05-01T04:06:15.001Z</time></trkpt><trkpt lat="46.19144390790976" lon="11.121006479014754"><ele>206.5</ele><time>2026-05-01T04:06:16.001Z</time></trkpt><trkpt lat="46.1916773189903" lon="11.121290172042187"><ele>207.0</ele><time>2026-05-01T04:06:17.001Z</time></trkpt><trkpt lat="46.19191132793511" lon="11.121577389682551"><ele>206.0</ele><time>2026-05-01T04:06:18.001Z</time></trkpt><trkpt lat="46.192147058348105" lon="11.121866063636444"><ele>205.0</ele><time>2026-05-01T04:06:19.001Z</time></trkpt><trkpt lat="46.19238319853771" lon="11.122155843423055"><ele>203.5</ele><time>2026-05-01T04:06:20.001Z</time></trkpt><trkpt lat="46.192617014892676" lon="11.122444285955353"><ele>202.0</ele><time>2026-05-01T04:06:21Z</time></trkpt><trkpt lat="46.1928512635821" lon="11.12273282369431"><ele>202.0</ele><time>2026-05-01T04:06:22Z</time></trkpt><trkpt lat="46.19308697138606" lon="11.123021850852494"><ele>202.0</ele><time>2026-05-01T04:06:23Z</time></trkpt><trkpt lat="46.19332278786575" lon="11.123308924154472"><ele>203.0</ele><time>2026-05-01T04:06:24Z</time></trkpt><trkpt lat="46.19355967380164" lon="11.1235951719986"><ele>204.0</ele><time>2026-05-01T04:06:25Z</time></trkpt><trkpt lat="46.19379723015364" lon="11.123882584872314"><ele>206.5</ele><time>2026-05-01T04:06:26Z</time></trkpt><trkpt lat="46.19403409917578" lon="11.124168273354863"><ele>209.0</ele><time>2026-05-01T04:06:27Z</time></trkpt><trkpt lat="46.194271320272975" lon="11.124451711954862"><ele>209.0</ele><time>2026-05-01T04:06:28Z</time></trkpt><trkpt lat="46.194508868418296" lon="11.124735348194937"><ele>209.0</ele><time>2026-05-01T04:06:29Z</time></trkpt><trkpt lat="46.19474406502557" lon="11.125020791264715"><ele>208.5</ele><time>2026-05-01T04:06:30Z</time></trkpt><trkpt lat="46.19497560948709" lon="11.125311291747323"><ele>208.0</ele><time>2026-05-01T04:06:31Z</time></trkpt><trkpt lat="46.1952078028329" lon="11.125602757397886"><ele>207.5</ele><time>2026-05-01T04:06:32Z</time></trkpt><trkpt lat="46.19543890139701" lon="11.125897339230347"><ele>207.0</ele><time>2026-05-01T04:06:33Z</time></trkpt><trkpt lat="46.19566715587236" lon="11.126198599566877"><ele>207.5</ele><time>2026-05-01T04:06:34Z</time></trkpt><trkpt lat="46.195893613705415" lon="11.126505772863718"><ele>208.0</ele><time>2026-05-01T04:06:35Z</time></trkpt><trkpt lat="46.196115163072434" lon="11.12682105218612"><ele>208.0</ele><time>2026-05-01T04:06:36Z</time></trkpt><trkpt lat="46.196335132249864" lon="11.127142928833786"><ele>208.0</ele><time>2026-05-01T04:06:37Z</time></trkpt><trkpt lat="46.196555770200746" lon="11.12746375223543"><ele>208.5</ele><time>2026-05-01T04:06:38Z</time></trkpt><trkpt lat="46.19677642551692" lon="11.127788988630776"><ele>209.0</ele><time>2026-05-01T04:06:39Z</time></trkpt><trkpt lat="46.197002098120294" lon="11.128105947119144"><ele>209.5</ele><time>2026-05-01T04:06:40Z</time></trkpt><trkpt lat="46.197225153403636" lon="11.128422331067252"><ele>210.0</ele><time>2026-05-01T04:06:41Z</time></trkpt><trkpt lat="46.19744676751611" lon="11.12874269937644"><ele>208.5</ele><time>2026-05-01T04:06:42Z</time></trkpt><trkpt lat="46.19766946616999" lon="11.129064288246441"><ele>207.0</ele><time>2026-05-01T04:06:43Z</time></trkpt><trkpt lat="46.19789269434794" lon="11.129390203190122"><ele>207.0</ele><time>2026-05-01T04:06:44Z</time></trkpt><trkpt lat="46.19811367339153" lon="11.129715946372116"><ele>207.0</ele><time>2026-05-01T04:06:45Z</time></trkpt><trkpt lat="46.19833440546817" lon="11.13004105899078"><ele>207.5</ele><time>2026-05-01T04:06:46Z</time></trkpt><trkpt lat="46.198557467839095" lon="11.1303639275406"><ele>208.0</ele><time>2026-05-01T04:06:47Z</time></trkpt><trkpt lat="46.19877991316965" lon="11.130686029520579"><ele>206.5</ele><time>2026-05-01T04:06:48Z</time></trkpt><trkpt lat="46.19900223706167" lon="11.131010053388167"><ele>205.0</ele><time>2026-05-01T04:06:49Z</time></trkpt><trkpt lat="46.1992258831804" lon="11.131332035530171"><ele>206.0</ele><time>2026-05-01T04:06:50Z</time></trkpt><trkpt lat="46.19944779254517" lon="11.131655489957042"><ele>207.0</ele><time>2026-05-01T04:06:51Z</time></trkpt><trkpt lat="46.19966874769657" lon="11.131979077053847"><ele>206.5</ele><time>2026-05-01T04:06:52Z</time></trkpt><trkpt lat="46.199888988325476" lon="11.132301147332399"><ele>206.0</ele><time>2026-05-01T04:06:53Z</time></trkpt><trkpt lat="46.200109900517575" lon="11.13262136738568"><ele>206.5</ele><time>2026-05-01T04:06:54Z</time></trkpt><trkpt lat="46.20032912707988" lon="11.132937544278121"><ele>207.0</ele><time>2026-05-01T04:06:55Z</time></trkpt><trkpt lat="46.20054756841601" lon="11.13325419056672"><ele>206.0</ele><time>2026-05-01T04:06:56Z</time></trkpt><trkpt lat="46.20076792509485" lon="11.133567859610936"><ele>205.0</ele><time>2026-05-01T04:06:57Z</time></trkpt><trkpt lat="46.20099002095557" lon="11.13388265192196"><ele>204.5</ele><time>2026-05-01T04:06:58Z</time></trkpt><trkpt lat="46.2012164396623" lon="11.134191354456231"><ele>204.0</ele><time>2026-05-01T04:06:59Z</time></trkpt><trkpt lat="46.201451726289214" lon="11.134485816425162"><ele>204.0</ele><time>2026-05-01T04:07:00Z</time></trkpt><trkpt lat="46.2016993547236" lon="11.13475717947471"><ele>204.0</ele><time>2026-05-01T04:07:01Z</time></trkpt><trkpt lat="46.20195260395641" lon="11.135024593043907"><ele>204.0</ele><time>2026-05-01T04:07:02.001Z</time></trkpt><trkpt lat="46.20221166351652" lon="11.135288701666317"><ele>204.0</ele><time>2026-05-01T04:07:03.001Z</time></trkpt><trkpt lat="46.202468673680194" lon="11.135553665609581"><ele>203.0</ele><time>2026-05-01T04:07:04.001Z</time></trkpt><trkpt lat="46.20272518241371" lon="11.13580819182606"><ele>202.0</ele><time>2026-05-01T04:07:05.001Z</time></trkpt><trkpt lat="46.20297965882309" lon="11.136047537788762"><ele>204.0</ele><time>2026-05-01T04:07:06.001Z</time></trkpt><trkpt lat="46.20324715417574" lon="11.136277142862141"><ele>206.0</ele><time>2026-05-01T04:07:07.001Z</time></trkpt><trkpt lat="46.20352355852271" lon="11.136495324970248"><ele>206.0</ele><time>2026-05-01T04:07:08.001Z</time></trkpt><trkpt lat="46.20380348689455" lon="11.136712663016048"><ele>206.0</ele><time>2026-05-01T04:07:09.001Z</time></trkpt><trkpt lat="46.20408565338138" lon="11.136923713501053"><ele>205.0</ele><time>2026-05-01T04:07:10.001Z</time></trkpt><trkpt lat="46.20437607946631" lon="11.137117786231778"><ele>204.0</ele><time>2026-05-01T04:07:11.001Z</time></trkpt><trkpt lat="46.2046693792851" lon="11.137301874439954"><ele>204.5</ele><time>2026-05-01T04:07:12.001Z</time></trkpt><trkpt lat="46.20496315075851" lon="11.137475697924383"><ele>205.0</ele><time>2026-05-01T04:07:13.001Z</time></trkpt><trkpt lat="46.20526066069751" lon="11.137642098382663"><ele>205.0</ele><time>2026-05-01T04:07:14.001Z</time></trkpt><trkpt lat="46.20556068817712" lon="11.137799106218198"><ele>205.0</ele><time>2026-05-01T04:07:15.001Z</time></trkpt><trkpt lat="46.2058625892251" lon="11.137947286245787"><ele>204.5</ele><time>2026-05-01T04:07:16.001Z</time></trkpt><trkpt lat="46.20616453660381" lon="11.138088329336062"><ele>204.0</ele><time>2026-05-01T04:07:17.001Z</time></trkpt><trkpt lat="46.2064659218806" lon="11.138228646710017"><ele>203.5</ele><time>2026-05-01T04:07:18.001Z</time></trkpt><trkpt lat="46.206765541050395" lon="11.138373590778373"><ele>203.0</ele><time>2026-05-01T04:07:19.001Z</time></trkpt><trkpt lat="46.20706093339253" lon="11.138529961106634"><ele>204.0</ele><time>2026-05-01T04:07:20.001Z</time></trkpt><trkpt lat="46.20735559865226" lon="11.138690893443778"><ele>205.0</ele><time>2026-05-01T04:07:21.001Z</time></trkpt><trkpt lat="46.207650576370796" lon="11.138851208141528"><ele>205.0</ele><time>2026-05-01T04:07:22.001Z</time></trkpt><trkpt lat="46.20794832371587" lon="11.139004059712573"><ele>205.0</ele><time>2026-05-01T04:07:23.001Z</time></trkpt><trkpt lat="46.20824735653311" lon="11.13915012040171"><ele>204.5</ele><time>2026-05-01T04:07:24.001Z</time></trkpt><trkpt lat="46.208544487850226" lon="11.13929138257808"><ele>204.0</ele><time>2026-05-01T04:07:25.001Z</time></trkpt><trkpt lat="46.20884004352226" lon="11.1394330425646"><ele>204.5</ele><time>2026-05-01T04:07:26.001Z</time></trkpt><trkpt lat="46.20913338640612" lon="11.139573592037209"><ele>205.0</ele><time>2026-05-01T04:07:27.001Z</time></trkpt><trkpt lat="46.20942686782132" lon="11.139717693003844"><ele>205.0</ele><time>2026-05-01T04:07:28.001Z</time></trkpt><trkpt lat="46.209721181735176" lon="11.139856460236178"><ele>205.0</ele><time>2026-05-01T04:07:29.001Z</time></trkpt><trkpt lat="46.210014423994124" lon="11.140001491148796"><ele>205.0</ele><time>2026-05-01T04:07:30.001Z</time></trkpt><trkpt lat="46.21030609096266" lon="11.140147048235358"><ele>205.0</ele><time>2026-05-01T04:07:31.001Z</time></trkpt><trkpt lat="46.21059999017982" lon="11.140293261725164"><ele>205.0</ele><time>2026-05-01T04:07:32.001Z</time></trkpt><trkpt lat="46.21089543771557" lon="11.140436724698436"><ele>205.0</ele><time>2026-05-01T04:07:33.001Z</time></trkpt><trkpt lat="46.211191238780884" lon="11.140579801091956"><ele>205.0</ele><time>2026-05-01T04:07:34.001Z</time></trkpt><trkpt lat="46.21148601479793" lon="11.140722466942233"><ele>205.0</ele><time>2026-05-01T04:07:35.001Z</time></trkpt><trkpt lat="46.21178120561192" lon="11.140864619209125"><ele>204.0</ele><time>2026-05-01T04:07:36.001Z</time></trkpt><trkpt lat="46.21207833900336" lon="11.141009612909254"><ele>203.0</ele><time>2026-05-01T04:07:37.001Z</time></trkpt><trkpt lat="46.21237465043102" lon="11.1411549898819"><ele>203.0</ele><time>2026-05-01T04:07:38.001Z</time></trkpt><trkpt lat="46.21267086141809" lon="11.141300224990784"><ele>203.0</ele><time>2026-05-01T04:07:39.001Z</time></trkpt><trkpt lat="46.212966505037464" lon="11.141444315759237"><ele>203.5</ele><time>2026-05-01T04:07:40.001Z</time></trkpt><trkpt lat="46.21326395575826" lon="11.1415883916518"><ele>204.0</ele><time>2026-05-01T04:07:41.001Z</time></trkpt><trkpt lat="46.21356215395111" lon="11.141733277106864"><ele>204.0</ele><time>2026-05-01T04:07:42.001Z</time></trkpt><trkpt lat="46.213859546012294" lon="11.14187684600766"><ele>204.0</ele><time>2026-05-01T04:07:43.001Z</time></trkpt><trkpt lat="46.21415650127595" lon="11.142022203164485"><ele>204.0</ele><time>2026-05-01T04:07:44.001Z</time></trkpt><trkpt lat="46.21445138662547" lon="11.142168637465362"><ele>204.0</ele><time>2026-05-01T04:07:45.001Z</time></trkpt><trkpt lat="46.214750760188835" lon="11.142310883249637"><ele>203.0</ele><time>2026-05-01T04:07:46.001Z</time></trkpt><trkpt lat="46.215047662340055" lon="11.14245426385038"><ele>202.0</ele><time>2026-05-01T04:07:47.001Z</time></trkpt><trkpt lat="46.215344144746304" lon="11.142598620052894"><ele>202.0</ele><time>2026-05-01T04:07:48.001Z</time></trkpt><trkpt lat="46.21564120981845" lon="11.142741019659795"><ele>202.0</ele><time>2026-05-01T04:07:49.001Z</time></trkpt><trkpt lat="46.215940530045245" lon="11.142882066637787"><ele>203.0</ele><time>2026-05-01T04:07:50.001Z</time></trkpt><trkpt lat="46.21623748030566" lon="11.143019208891255"><ele>204.0</ele><time>2026-05-01T04:07:51.001Z</time></trkpt><trkpt lat="46.216535604052034" lon="11.14316107489812"><ele>203.5</ele><time>2026-05-01T04:07:52.001Z</time></trkpt><trkpt lat="46.21683309997149" lon="11.143303458869486"><ele>203.0</ele><time>2026-05-01T04:07:53.001Z</time></trkpt><trkpt lat="46.21713206096712" lon="11.143447206758786"><ele>203.5</ele><time>2026-05-01T04:07:54.001Z</time></trkpt><trkpt lat="46.21742997624286" lon="11.143592641173917"><ele>204.0</ele><time>2026-05-01T04:07:55.001Z</time></trkpt><trkpt lat="46.2177289238487" lon="11.143736295930658"><ele>204.0</ele><time>2026-05-01T04:07:56.001Z</time></trkpt><trkpt lat="46.2180281000585" lon="11.143879819905518"><ele>204.0</ele><time>2026-05-01T04:07:57.001Z</time></trkpt><trkpt lat="46.218327117145094" lon="11.14402429565663"><ele>202.0</ele><time>2026-05-01T04:07:58.001Z</time></trkpt><trkpt lat="46.2186255033005" lon="11.144169632639791"><ele>200.0</ele><time>2026-05-01T04:07:59.001Z</time></trkpt><trkpt lat="46.218925372435045" lon="11.144316691009076"><ele>201.0</ele><time>2026-05-01T04:08:00.001Z</time></trkpt><trkpt lat="46.21922433774472" lon="11.14446423928793"><ele>202.0</ele><time>2026-05-01T04:08:01.001Z</time></trkpt><trkpt lat="46.21952432029327" lon="11.144608580957028"><ele>202.5</ele><time>2026-05-01T04:08:02.001Z</time></trkpt><trkpt lat="46.219824116056415" lon="11.144752841766168"><ele>203.0</ele><time>2026-05-01T04:08:03.001Z</time></trkpt><trkpt lat="46.22012461707102" lon="11.144899693115825"><ele>203.5</ele><time>2026-05-01T04:08:04.001Z</time></trkpt><trkpt lat="46.22042434942012" lon="11.14504714384328"><ele>204.0</ele><time>2026-05-01T04:08:05.001Z</time></trkpt><trkpt lat="46.220723658803514" lon="11.145193695192448"><ele>204.0</ele><time>2026-05-01T04:08:06.001Z</time></trkpt><trkpt lat="46.22102326268912" lon="11.145342184063443"><ele>204.0</ele><time>2026-05-01T04:08:07.001Z</time></trkpt><trkpt lat="46.22132087217854" lon="11.145495095999697"><ele>204.5</ele><time>2026-05-01T04:08:08.001Z</time></trkpt><trkpt lat="46.22161859097488" lon="11.145650615854759"><ele>205.0</ele><time>2026-05-01T04:08:09.001Z</time></trkpt><trkpt lat="46.22191292787054" lon="11.145819096683717"><ele>205.5</ele><time>2026-05-01T04:08:10.001Z</time></trkpt><trkpt lat="46.22220147545761" lon="11.146010552050054"><ele>206.0</ele><time>2026-05-01T04:08:11.001Z</time></trkpt><trkpt lat="46.22248140180972" lon="11.146226465360455"><ele>205.0</ele><time>2026-05-01T04:08:12.001Z</time></trkpt><trkpt lat="46.22275988877777" lon="11.146445873084728"><ele>204.0</ele><time>2026-05-01T04:08:13.001Z</time></trkpt><trkpt lat="46.22303556843858" lon="11.146683646601877"><ele>204.0</ele><time>2026-05-01T04:08:14.001Z</time></trkpt><trkpt lat="46.22330711353177" lon="11.146926495286163"><ele>204.0</ele><time>2026-05-01T04:08:15.001Z</time></trkpt><trkpt lat="46.2235735006702" lon="11.147183319337527"><ele>204.0</ele><time>2026-05-01T04:08:16.001Z</time></trkpt><trkpt lat="46.22382914545236" lon="11.147459030535082"><ele>204.0</ele><time>2026-05-01T04:08:17.001Z</time></trkpt><trkpt lat="46.224073800244206" lon="11.147750616997591"><ele>204.0</ele><time>2026-05-01T04:08:18.001Z</time></trkpt><trkpt lat="46.22430929185284" lon="11.148054886217803"><ele>204.0</ele><time>2026-05-01T04:08:19.001Z</time></trkpt><trkpt lat="46.22453541774887" lon="11.148371649126606"><ele>204.0</ele><time>2026-05-01T04:08:20.001Z</time></trkpt><trkpt lat="46.22475458872591" lon="11.148697761778488"><ele>204.0</ele><time>2026-05-01T04:08:21.001Z</time></trkpt><trkpt lat="46.22496637212329" lon="11.149031624869023"><ele>204.5</ele><time>2026-05-01T04:08:22.001Z</time></trkpt><trkpt lat="46.22516936501673" lon="11.149375072615264"><ele>205.0</ele><time>2026-05-01T04:08:23.001Z</time></trkpt><trkpt lat="46.225363118477766" lon="11.149728342626142"><ele>205.0</ele><time>2026-05-01T04:08:24.001Z</time></trkpt><trkpt lat="46.22554727364373" lon="11.150087951557996"><ele>205.0</ele><time>2026-05-01T04:08:25.001Z</time></trkpt><trkpt lat="46.22572084173409" lon="11.150457547102365"><ele>206.0</ele><time>2026-05-01T04:08:26Z</time></trkpt><trkpt lat="46.22588567065076" lon="11.150833121894959"><ele>207.0</ele><time>2026-05-01T04:08:27Z</time></trkpt><trkpt lat="46.22604071803012" lon="11.151212702106571"><ele>206.0</ele><time>2026-05-01T04:08:28Z</time></trkpt><trkpt lat="46.22618789364699" lon="11.151594364479786"><ele>205.0</ele><time>2026-05-01T04:08:29Z</time></trkpt><trkpt lat="46.22632481090348" lon="11.151984984748182"><ele>204.0</ele><time>2026-05-01T04:08:30Z</time></trkpt><trkpt lat="46.22645692746432" lon="11.152379908694678"><ele>203.0</ele><time>2026-05-01T04:08:31Z</time></trkpt><trkpt lat="46.226597241828955" lon="11.152776209284044"><ele>205.0</ele><time>2026-05-01T04:08:32Z</time></trkpt><trkpt lat="46.22674572673574" lon="11.153161795948405"><ele>207.0</ele><time>2026-05-01T04:08:33Z</time></trkpt><trkpt lat="46.226895808804926" lon="11.153549521192735"><ele>207.0</ele><time>2026-05-01T04:08:34Z</time></trkpt><trkpt lat="46.227041263672255" lon="11.153929633330275"><ele>207.0</ele><time>2026-05-01T04:08:35Z</time></trkpt><trkpt lat="46.227179674018124" lon="11.154297715674678"><ele>206.5</ele><time>2026-05-01T04:08:36Z</time></trkpt><trkpt lat="46.2273235159912" lon="11.154686502315856"><ele>206.0</ele><time>2026-05-01T04:08:37Z</time></trkpt><trkpt lat="46.22747153431157" lon="11.155080824874947"><ele>204.5</ele><time>2026-05-01T04:08:38Z</time></trkpt><trkpt lat="46.2276197532981" lon="11.155477620373341"><ele>203.0</ele><time>2026-05-01T04:08:39Z</time></trkpt><trkpt lat="46.22776926623172" lon="11.155876587196623"><ele>202.5</ele><time>2026-05-01T04:08:40Z</time></trkpt><trkpt lat="46.22791824962428" lon="11.156272586020002"><ele>202.0</ele><time>2026-05-01T04:08:41Z</time></trkpt><trkpt lat="46.22806763345169" lon="11.156668028522327"><ele>204.0</ele><time>2026-05-01T04:08:42Z</time></trkpt><trkpt lat="46.22821814302814" lon="11.157066373662431"><ele>206.0</ele><time>2026-05-01T04:08:43Z</time></trkpt><trkpt lat="46.22836850486883" lon="11.157466356208513"><ele>206.0</ele><time>2026-05-01T04:08:44Z</time></trkpt><trkpt lat="46.22851693901902" lon="11.157862523114428"><ele>206.0</ele><time>2026-05-01T04:08:45Z</time></trkpt><trkpt lat="46.22866699631168" lon="11.15825927094139"><ele>205.0</ele><time>2026-05-01T04:08:46Z</time></trkpt><trkpt lat="46.228816975339335" lon="11.158657095581486"><ele>204.0</ele><time>2026-05-01T04:08:47Z</time></trkpt><trkpt lat="46.228966169126515" lon="11.15905317181676"><ele>203.5</ele><time>2026-05-01T04:08:48Z</time></trkpt><trkpt lat="46.22911624828003" lon="11.159450096803774"><ele>203.0</ele><time>2026-05-01T04:08:49Z</time></trkpt><trkpt lat="46.22926638098176" lon="11.159844517995015"><ele>204.0</ele><time>2026-05-01T04:08:50Z</time></trkpt><trkpt lat="46.2294170781149" lon="11.160238535754733"><ele>205.0</ele><time>2026-05-01T04:08:51Z</time></trkpt><trkpt lat="46.229568080682284" lon="11.160633566482375"><ele>205.0</ele><time>2026-05-01T04:08:52Z</time></trkpt><trkpt lat="46.22971862719008" lon="11.161025999052567"><ele>205.0</ele><time>2026-05-01T04:08:53Z</time></trkpt><trkpt lat="46.22986803854705" lon="11.161419754960425"><ele>206.0</ele><time>2026-05-01T04:08:54Z</time></trkpt><trkpt lat="46.2300150271349" lon="11.1618127061581"><ele>207.0</ele><time>2026-05-01T04:08:55Z</time></trkpt><trkpt lat="46.23016177921124" lon="11.162204630056621"><ele>205.5</ele><time>2026-05-01T04:08:56Z</time></trkpt><trkpt lat="46.230309666856506" lon="11.162596066256347"><ele>204.0</ele><time>2026-05-01T04:08:57Z</time></trkpt><trkpt lat="46.2304591848448" lon="11.162986723152645"><ele>204.0</ele><time>2026-05-01T04:08:58Z</time></trkpt><trkpt lat="46.23060774067436" lon="11.16337702191317"><ele>204.0</ele><time>2026-05-01T04:08:59Z</time></trkpt><trkpt lat="46.230754035084026" lon="11.163765607599332"><ele>204.0</ele><time>2026-05-01T04:09:00Z</time></trkpt><trkpt lat="46.23089967532039" lon="11.164155431530721"><ele>204.0</ele><time>2026-05-01T04:09:01Z</time></trkpt><trkpt lat="46.23104483493399" lon="11.164544846652182"><ele>204.5</ele><time>2026-05-01T04:09:02Z</time></trkpt><trkpt lat="46.231190901909265" lon="11.164935030951147"><ele>205.0</ele><time>2026-05-01T04:09:03Z</time></trkpt><trkpt lat="46.23133677455494" lon="11.165324690288696"><ele>205.5</ele><time>2026-05-01T04:09:04Z</time></trkpt><trkpt lat="46.23148370935623" lon="11.16571662747259"><ele>206.0</ele><time>2026-05-01T04:09:05Z</time></trkpt><trkpt lat="46.2316318019695" lon="11.166108314807598"><ele>206.0</ele><time>2026-05-01T04:09:06Z</time></trkpt><trkpt lat="46.23178082819061" lon="11.166499626250992"><ele>206.0</ele><time>2026-05-01T04:09:07Z</time></trkpt><trkpt lat="46.23193287391011" lon="11.166892289750129"><ele>206.5</ele><time>2026-05-01T04:09:08Z</time></trkpt><trkpt lat="46.23208468410493" lon="11.167287388885725"><ele>207.0</ele><time>2026-05-01T04:09:09Z</time></trkpt><trkpt lat="46.23223344376353" lon="11.167684933344226"><ele>206.0</ele><time>2026-05-01T04:09:10Z</time></trkpt><trkpt lat="46.232382433253015" lon="11.168083256171473"><ele>205.0</ele><time>2026-05-01T04:09:11.001Z</time></trkpt><trkpt lat="46.23253142537241" lon="11.168481677966945"><ele>205.0</ele><time>2026-05-01T04:09:12.001Z</time></trkpt><trkpt lat="46.23268288421181" lon="11.168879085378471"><ele>205.0</ele><time>2026-05-01T04:09:13.001Z</time></trkpt><trkpt lat="46.23283722417788" lon="11.169276095586127"><ele>205.5</ele><time>2026-05-01T04:09:14.001Z</time></trkpt><trkpt lat="46.23298767441364" lon="11.169674323982743"><ele>206.0</ele><time>2026-05-01T04:09:15.001Z</time></trkpt><trkpt lat="46.23314116430312" lon="11.17007614678601"><ele>206.0</ele><time>2026-05-01T04:09:16.001Z</time></trkpt><trkpt lat="46.23329291131435" lon="11.170479904615433"><ele>206.0</ele><time>2026-05-01T04:09:17.001Z</time></trkpt><trkpt lat="46.23343657467526" lon="11.170888525671591"><ele>205.5</ele><time>2026-05-01T04:09:18.001Z</time></trkpt><trkpt lat="46.23358294007328" lon="11.171297391649118"><ele>205.0</ele><time>2026-05-01T04:09:19.001Z</time></trkpt><trkpt lat="46.23372868503281" lon="11.171709436298842"><ele>205.0</ele><time>2026-05-01T04:09:20.001Z</time></trkpt><trkpt lat="46.233872858414664" lon="11.172123818724236"><ele>205.0</ele><time>2026-05-01T04:09:21.001Z</time></trkpt><trkpt lat="46.23402375911919" lon="11.172535018793775"><ele>205.5</ele><time>2026-05-01T04:09:22.001Z</time></trkpt><trkpt lat="46.23417731888929" lon="11.172944153445483"><ele>206.0</ele><time>2026-05-01T04:09:23.001Z</time></trkpt><trkpt lat="46.23432866504854" lon="11.17335930567024"><ele>206.0</ele><time>2026-05-01T04:09:24.001Z</time></trkpt><trkpt lat="46.23447934468473" lon="11.173777643511926"><ele>206.0</ele><time>2026-05-01T04:09:25.001Z</time></trkpt><trkpt lat="46.23462027956111" lon="11.17418887980794"><ele>206.5</ele><time>2026-05-01T04:09:26.001Z</time></trkpt><trkpt lat="46.234757867190204" lon="11.174581875462913"><ele>207.0</ele><time>2026-05-01T04:09:27.001Z</time></trkpt><trkpt lat="46.23489457062988" lon="11.174979336415461"><ele>207.5</ele><time>2026-05-01T04:09:28.001Z</time></trkpt><trkpt lat="46.235030790242526" lon="11.175384801950628"><ele>208.0</ele><time>2026-05-01T04:09:29.001Z</time></trkpt><trkpt lat="46.235166181851" lon="11.175793201155813"><ele>208.0</ele><time>2026-05-01T04:09:30.001Z</time></trkpt><trkpt lat="46.23530375230925" lon="11.176203912667384"><ele>208.0</ele><time>2026-05-01T04:09:31.001Z</time></trkpt><trkpt lat="46.23544246054905" lon="11.176611133787203"><ele>208.0</ele><time>2026-05-01T04:09:32.001Z</time></trkpt><trkpt lat="46.235579588198256" lon="11.177016446462792"><ele>208.0</ele><time>2026-05-01T04:09:33.001Z</time></trkpt><trkpt lat="46.23571709168364" lon="11.17742544565344"><ele>208.0</ele><time>2026-05-01T04:09:34.001Z</time></trkpt><trkpt lat="46.23585733398499" lon="11.177836161309406"><ele>208.0</ele><time>2026-05-01T04:09:35.001Z</time></trkpt><trkpt lat="46.23599733109694" lon="11.178247987308056"><ele>208.0</ele><time>2026-05-01T04:09:36.001Z</time></trkpt><trkpt lat="46.23613754088514" lon="11.178659430047148"><ele>208.0</ele><time>2026-05-01T04:09:37.001Z</time></trkpt><trkpt lat="46.23627832850292" lon="11.179070721451371"><ele>208.0</ele><time>2026-05-01T04:09:38.001Z</time></trkpt><trkpt lat="46.23641783341199" lon="11.179481073648738"><ele>208.0</ele><time>2026-05-01T04:09:39.001Z</time></trkpt><trkpt lat="46.236557929006004" lon="11.179893432946411"><ele>209.5</ele><time>2026-05-01T04:09:40.001Z</time></trkpt><trkpt lat="46.236696750101856" lon="11.180302929298163"><ele>211.0</ele><time>2026-05-01T04:09:41.001Z</time></trkpt><trkpt lat="46.236833989100575" lon="11.180707982817278"><ele>211.5</ele><time>2026-05-01T04:09:42.001Z</time></trkpt><trkpt lat="46.2369695146102" lon="11.181112700586594"><ele>212.0</ele><time>2026-05-01T04:09:43.001Z</time></trkpt><trkpt lat="46.23710709696754" lon="11.181515349137062"><ele>211.5</ele><time>2026-05-01T04:09:44.001Z</time></trkpt><trkpt lat="46.23723994786477" lon="11.181921706687945"><ele>211.0</ele><time>2026-05-01T04:09:45.001Z</time></trkpt><trkpt lat="46.23737583647585" lon="11.182323909590496"><ele>210.0</ele><time>2026-05-01T04:09:46.001Z</time></trkpt><trkpt lat="46.23751305032561" lon="11.18272541325092"><ele>209.0</ele><time>2026-05-01T04:09:47.001Z</time></trkpt><trkpt lat="46.237649549355055" lon="11.18312306310473"><ele>209.5</ele><time>2026-05-01T04:09:48.001Z</time></trkpt><trkpt lat="46.237782949462776" lon="11.18352218231321"><ele>210.0</ele><time>2026-05-01T04:09:49.001Z</time></trkpt><trkpt lat="46.237911087125326" lon="11.183921637301545"><ele>210.0</ele><time>2026-05-01T04:09:50.001Z</time></trkpt><trkpt lat="46.23804065807364" lon="11.184322309600459"><ele>210.0</ele><time>2026-05-01T04:09:51.001Z</time></trkpt><trkpt lat="46.238171745967584" lon="11.184723054112274"><ele>210.5</ele><time>2026-05-01T04:09:52.001Z</time></trkpt><trkpt lat="46.23830398002544" lon="11.185121587134256"><ele>211.0</ele><time>2026-05-01T04:09:53.001Z</time></trkpt><trkpt lat="46.23843624195544" lon="11.185520452925468"><ele>208.5</ele><time>2026-05-01T04:09:54.001Z</time></trkpt><trkpt lat="46.23856988544532" lon="11.185918135118543"><ele>206.0</ele><time>2026-05-01T04:09:55.001Z</time></trkpt><trkpt lat="46.238702091120906" lon="11.18631489396017"><ele>205.0</ele><time>2026-05-01T04:09:56.001Z</time></trkpt><trkpt lat="46.23883332276261" lon="11.18671162620587"><ele>204.0</ele><time>2026-05-01T04:09:57.001Z</time></trkpt><trkpt lat="46.23896241172063" lon="11.187108883908051"><ele>204.5</ele><time>2026-05-01T04:09:58.001Z</time></trkpt><trkpt lat="46.23909255461999" lon="11.187506772838145"><ele>205.0</ele><time>2026-05-01T04:09:59.001Z</time></trkpt><trkpt lat="46.23922191547502" lon="11.187903786574163"><ele>205.0</ele><time>2026-05-01T04:10:00.001Z</time></trkpt><trkpt lat="46.239354562767424" lon="11.188298783107435"><ele>205.0</ele><time>2026-05-01T04:10:01.001Z</time></trkpt><trkpt lat="46.239487489623016" lon="11.188698368015668"><ele>206.0</ele><time>2026-05-01T04:10:02.001Z</time></trkpt><trkpt lat="46.239622087925554" lon="11.189098644153725"><ele>207.0</ele><time>2026-05-01T04:10:03.001Z</time></trkpt><trkpt lat="46.23975672559252" lon="11.189501368004835"><ele>206.5</ele><time>2026-05-01T04:10:04.001Z</time></trkpt><trkpt lat="46.23989021631187" lon="11.189906467884107"><ele>206.0</ele><time>2026-05-01T04:10:05.001Z</time></trkpt><trkpt lat="46.240025010435325" lon="11.190310130560002"><ele>205.5</ele><time>2026-05-01T04:10:06.001Z</time></trkpt><trkpt lat="46.24015932085531" lon="11.190715681735465"><ele>205.0</ele><time>2026-05-01T04:10:07.001Z</time></trkpt><trkpt lat="46.24028877966007" lon="11.191126130927646"><ele>206.5</ele><time>2026-05-01T04:10:08.001Z</time></trkpt><trkpt lat="46.24041308436017" lon="11.19154076076784"><ele>208.0</ele><time>2026-05-01T04:10:09.001Z</time></trkpt><trkpt lat="46.240536336009264" lon="11.191955227564833"><ele>207.0</ele><time>2026-05-01T04:10:10.001Z</time></trkpt><trkpt lat="46.24066391139383" lon="11.192369161299139"><ele>206.0</ele><time>2026-05-01T04:10:11.001Z</time></trkpt><trkpt lat="46.24079243419703" lon="11.19278587662216"><ele>207.5</ele><time>2026-05-01T04:10:12.001Z</time></trkpt><trkpt lat="46.240928960904704" lon="11.193197092373227"><ele>209.0</ele><time>2026-05-01T04:10:13.001Z</time></trkpt><trkpt lat="46.24106624457755" lon="11.193608384418235"><ele>208.5</ele><time>2026-05-01T04:10:14.001Z</time></trkpt><trkpt lat="46.24120352636266" lon="11.194019784818325"><ele>208.0</ele><time>2026-05-01T04:10:15.001Z</time></trkpt><trkpt lat="46.24133867796786" lon="11.19443228948214"><ele>206.5</ele><time>2026-05-01T04:10:16.001Z</time></trkpt><trkpt lat="46.24147321130268" lon="11.194846020214055"><ele>205.0</ele><time>2026-05-01T04:10:17.001Z</time></trkpt><trkpt lat="46.241607378487515" lon="11.195258475426925"><ele>205.0</ele><time>2026-05-01T04:10:18.001Z</time></trkpt><trkpt lat="46.2417422127463" lon="11.195668749122017"><ele>205.0</ele><time>2026-05-01T04:10:19.001Z</time></trkpt><trkpt lat="46.24187889187666" lon="11.196076121836866"><ele>205.0</ele><time>2026-05-01T04:10:20.001Z</time></trkpt><trkpt lat="46.24201514910822" lon="11.196487908590571"><ele>205.0</ele><time>2026-05-01T04:10:21.001Z</time></trkpt><trkpt lat="46.242152289033726" lon="11.196899534097827"><ele>204.5</ele><time>2026-05-01T04:10:22.001Z</time></trkpt><trkpt lat="46.24228951357304" lon="11.197312196243212"><ele>204.0</ele><time>2026-05-01T04:10:23.001Z</time></trkpt><trkpt lat="46.24242456819542" lon="11.197726993433264"><ele>206.0</ele><time>2026-05-01T04:10:24.001Z</time></trkpt><trkpt lat="46.242558163118645" lon="11.198142304293004"><ele>208.0</ele><time>2026-05-01T04:10:25.001Z</time></trkpt><trkpt lat="46.242693808047584" lon="11.198557420535076"><ele>208.0</ele><time>2026-05-01T04:10:26.001Z</time></trkpt><trkpt lat="46.242831886987304" lon="11.198971278769823"><ele>208.0</ele><time>2026-05-01T04:10:27.001Z</time></trkpt><trkpt lat="46.24297392208412" lon="11.199381393819577"><ele>207.5</ele><time>2026-05-01T04:10:28.001Z</time></trkpt><trkpt lat="46.24312083516985" lon="11.199787085863209"><ele>207.0</ele><time>2026-05-01T04:10:29.001Z</time></trkpt><trkpt lat="46.24327121718059" lon="11.200193347406275"><ele>207.0</ele><time>2026-05-01T04:10:30.001Z</time></trkpt><trkpt lat="46.24342726049074" lon="11.200593855392537"><ele>207.0</ele><time>2026-05-01T04:10:31.001Z</time></trkpt><trkpt lat="46.243587777919316" lon="11.200986849259138"><ele>207.0</ele><time>2026-05-01T04:10:32Z</time></trkpt><trkpt lat="46.2437521221217" lon="11.201377866218838"><ele>207.0</ele><time>2026-05-01T04:10:33Z</time></trkpt><trkpt lat="46.243918100981745" lon="11.201765787144902"><ele>207.0</ele><time>2026-05-01T04:10:34Z</time></trkpt><trkpt lat="46.244083724091865" lon="11.202153434109663"><ele>207.0</ele><time>2026-05-01T04:10:35Z</time></trkpt><trkpt lat="46.244243554785804" lon="11.202543147426953"><ele>207.0</ele><time>2026-05-01T04:10:36Z</time></trkpt><trkpt lat="46.24440222546178" lon="11.202924187170698"><ele>207.0</ele><time>2026-05-01T04:10:37Z</time></trkpt><trkpt lat="46.24455816198021" lon="11.203292736847144"><ele>207.0</ele><time>2026-05-01T04:10:38Z</time></trkpt><trkpt lat="46.24471970744735" lon="11.20367091690331"><ele>207.0</ele><time>2026-05-01T04:10:39Z</time></trkpt><trkpt lat="46.24488239984536" lon="11.204057495948877"><ele>207.0</ele><time>2026-05-01T04:10:40Z</time></trkpt><trkpt lat="46.24504795494146" lon="11.204441308276632"><ele>207.0</ele><time>2026-05-01T04:10:41Z</time></trkpt><trkpt lat="46.24521906628751" lon="11.204825087226878"><ele>207.0</ele><time>2026-05-01T04:10:42Z</time></trkpt><trkpt lat="46.245390948537974" lon="11.205209362354331"><ele>207.0</ele><time>2026-05-01T04:10:43Z</time></trkpt><trkpt lat="46.24556234798608" lon="11.205592308459678"><ele>206.0</ele><time>2026-05-01T04:10:44Z</time></trkpt><trkpt lat="46.24572750205145" lon="11.205977020785108"><ele>205.0</ele><time>2026-05-01T04:10:45Z</time></trkpt><trkpt lat="46.24589210441301" lon="11.20636488818403"><ele>204.5</ele><time>2026-05-01T04:10:46Z</time></trkpt><trkpt lat="46.24605213946814" lon="11.20675724059005"><ele>204.0</ele><time>2026-05-01T04:10:47Z</time></trkpt><trkpt lat="46.24620781988018" lon="11.20715490748404"><ele>205.0</ele><time>2026-05-01T04:10:48Z</time></trkpt><trkpt lat="46.24636481258722" lon="11.207551617581931"><ele>206.0</ele><time>2026-05-01T04:10:49Z</time></trkpt><trkpt lat="46.24653189888825" lon="11.207941429099925"><ele>205.5</ele><time>2026-05-01T04:10:50Z</time></trkpt><trkpt lat="46.24670270115929" lon="11.208319093193847"><ele>205.0</ele><time>2026-05-01T04:10:51Z</time></trkpt><trkpt lat="46.24688827585869" lon="11.20868775886926"><ele>204.5</ele><time>2026-05-01T04:10:52Z</time></trkpt><trkpt lat="46.24708207933251" lon="11.209046843295981"><ele>204.0</ele><time>2026-05-01T04:10:53Z</time></trkpt><trkpt lat="46.24728210581591" lon="11.209397000416345"><ele>205.0</ele><time>2026-05-01T04:10:54Z</time></trkpt><trkpt lat="46.247490843611466" lon="11.2097361584802"><ele>206.0</ele><time>2026-05-01T04:10:55Z</time></trkpt><trkpt lat="46.24770736603722" lon="11.210062938725551"><ele>206.5</ele><time>2026-05-01T04:10:56Z</time></trkpt><trkpt lat="46.24793256293134" lon="11.210377646235997"><ele>207.0</ele><time>2026-05-01T04:10:57Z</time></trkpt><trkpt lat="46.24816478692604" lon="11.210684049953962"><ele>207.5</ele><time>2026-05-01T04:10:58Z</time></trkpt><trkpt lat="46.24840220868337" lon="11.21097987491368"><ele>208.0</ele><time>2026-05-01T04:10:59Z</time></trkpt><trkpt lat="46.24864696282337" lon="11.21126669167114"><ele>208.5</ele><time>2026-05-01T04:11:00Z</time></trkpt><trkpt lat="46.24889537692579" lon="11.211545018162669"><ele>209.0</ele><time>2026-05-01T04:11:01Z</time></trkpt><trkpt lat="46.2491477241146" lon="11.211818766076506"><ele>209.5</ele><time>2026-05-01T04:11:02Z</time></trkpt><trkpt lat="46.249404947379865" lon="11.212090423538898"><ele>210.0</ele><time>2026-05-01T04:11:03Z</time></trkpt><trkpt lat="46.249662687047106" lon="11.212357961792229"><ele>208.5</ele><time>2026-05-01T04:11:04Z</time></trkpt><trkpt lat="46.24991909864398" lon="11.212626177080997"><ele>207.0</ele><time>2026-05-01T04:11:05Z</time></trkpt><trkpt lat="46.25017389609712" lon="11.212898968506593"><ele>207.0</ele><time>2026-05-01T04:11:06Z</time></trkpt><trkpt lat="46.25042788506759" lon="11.21317426920409"><ele>207.0</ele><time>2026-05-01T04:11:07Z</time></trkpt><trkpt lat="46.25068333536926" lon="11.213448888411808"><ele>207.0</ele><time>2026-05-01T04:11:08Z</time></trkpt><trkpt lat="46.25093934073478" lon="11.213723893823538"><ele>207.0</ele><time>2026-05-01T04:11:09Z</time></trkpt><trkpt lat="46.25119221353848" lon="11.21400079616096"><ele>208.0</ele><time>2026-05-01T04:11:10Z</time></trkpt><trkpt lat="46.251442187800585" lon="11.214286232910801"><ele>209.0</ele><time>2026-05-01T04:11:11Z</time></trkpt><trkpt lat="46.25168800461167" lon="11.214578644615045"><ele>209.5</ele><time>2026-05-01T04:11:12Z</time></trkpt><trkpt lat="46.25192911749226" lon="11.214880621093315"><ele>210.0</ele><time>2026-05-01T04:11:13Z</time></trkpt><trkpt lat="46.25216388478315" lon="11.215187393201289"><ele>210.0</ele><time>2026-05-01T04:11:14Z</time></trkpt><trkpt lat="46.252392829994285" lon="11.21550078869583"><ele>210.0</ele><time>2026-05-01T04:11:15Z</time></trkpt><trkpt lat="46.252615910675246" lon="11.215815122935439"><ele>210.0</ele><time>2026-05-01T04:11:16Z</time></trkpt><trkpt lat="46.25283689290116" lon="11.216133757983528"><ele>210.0</ele><time>2026-05-01T04:11:17Z</time></trkpt><trkpt lat="46.2530572846043" lon="11.216454095809102"><ele>210.5</ele><time>2026-05-01T04:11:18Z</time></trkpt><trkpt lat="46.25327821162198" lon="11.216774666276011"><ele>211.0</ele><time>2026-05-01T04:11:19Z</time></trkpt><trkpt lat="46.253500942221834" lon="11.217094402196135"><ele>211.0</ele><time>2026-05-01T04:11:20Z</time></trkpt><trkpt lat="46.25372520592599" lon="11.217410884183941"><ele>211.0</ele><time>2026-05-01T04:11:21.001Z</time></trkpt><trkpt lat="46.25394881495687" lon="11.217729301664496"><ele>209.5</ele><time>2026-05-01T04:11:22.001Z</time></trkpt><trkpt lat="46.25417237141043" lon="11.218048224877363"><ele>208.0</ele><time>2026-05-01T04:11:23.001Z</time></trkpt><trkpt lat="46.25439467755947" lon="11.218368369299084"><ele>208.0</ele><time>2026-05-01T04:11:24.001Z</time></trkpt><trkpt lat="46.25461518441367" lon="11.218689620387641"><ele>208.0</ele><time>2026-05-01T04:11:25.001Z</time></trkpt><trkpt lat="46.25483828459673" lon="11.219007355971055"><ele>208.0</ele><time>2026-05-01T04:11:26.001Z</time></trkpt><trkpt lat="46.25506391838437" lon="11.219319246984659"><ele>208.0</ele><time>2026-05-01T04:11:27.001Z</time></trkpt><trkpt lat="46.25529096717154" lon="11.219633577575348"><ele>208.5</ele><time>2026-05-01T04:11:28.001Z</time></trkpt><trkpt lat="46.255524401616626" lon="11.219934901492566"><ele>209.0</ele><time>2026-05-01T04:11:29.001Z</time></trkpt><trkpt lat="46.25576301440674" lon="11.220230182838078"><ele>209.0</ele><time>2026-05-01T04:11:30.001Z</time></trkpt><trkpt lat="46.256011391388064" lon="11.220507769149643"><ele>209.0</ele><time>2026-05-01T04:11:31.001Z</time></trkpt><trkpt lat="46.2562638911728" lon="11.220778920943127"><ele>209.0</ele><time>2026-05-01T04:11:32.001Z</time></trkpt><trkpt lat="46.25652024334872" lon="11.221042666451137"><ele>209.0</ele><time>2026-05-01T04:11:33.001Z</time></trkpt><trkpt lat="46.256781131639926" lon="11.221302254583005"><ele>209.5</ele><time>2026-05-01T04:11:34.001Z</time></trkpt><trkpt lat="46.257040808340165" lon="11.221566036749675"><ele>210.0</ele><time>2026-05-01T04:11:35.001Z</time></trkpt><trkpt lat="46.25729645546453" lon="11.221831689275897"><ele>210.0</ele><time>2026-05-01T04:11:36.001Z</time></trkpt><trkpt lat="46.25755529927111" lon="11.222091668854361"><ele>210.0</ele><time>2026-05-01T04:11:37.001Z</time></trkpt><trkpt lat="46.257814077464865" lon="11.22235050979844"><ele>210.0</ele><time>2026-05-01T04:11:38.001Z</time></trkpt><trkpt lat="46.25807384343292" lon="11.22261111207586"><ele>210.0</ele><time>2026-05-01T04:11:39.001Z</time></trkpt><trkpt lat="46.25833314231953" lon="11.222872676159769"><ele>210.0</ele><time>2026-05-01T04:11:40.001Z</time></trkpt><trkpt lat="46.25859106863936" lon="11.223134158084571"><ele>210.0</ele><time>2026-05-01T04:11:41.001Z</time></trkpt><trkpt lat="46.258850296908875" lon="11.22339582032087"><ele>208.5</ele><time>2026-05-01T04:11:42.001Z</time></trkpt><trkpt lat="46.259108326230745" lon="11.223654810956624"><ele>207.0</ele><time>2026-05-01T04:11:43.001Z</time></trkpt><trkpt lat="46.259366450947695" lon="11.223912558162523"><ele>207.5</ele><time>2026-05-01T04:11:44.001Z</time></trkpt><trkpt lat="46.25962330227298" lon="11.224169766893242"><ele>208.0</ele><time>2026-05-01T04:11:45.001Z</time></trkpt><trkpt lat="46.259880308155196" lon="11.224426383447861"><ele>208.0</ele><time>2026-05-01T04:11:46.001Z</time></trkpt><trkpt lat="46.26013677653205" lon="11.22468356530225"><ele>208.0</ele><time>2026-05-01T04:11:47.001Z</time></trkpt><trkpt lat="46.26039287838308" lon="11.224938393909813"><ele>208.5</ele><time>2026-05-01T04:11:48.001Z</time></trkpt><trkpt lat="46.26064765077309" lon="11.22519082423479"><ele>209.0</ele><time>2026-05-01T04:11:49.001Z</time></trkpt><trkpt lat="46.26090027183446" lon="11.225442786184686"><ele>210.0</ele><time>2026-05-01T04:11:50.001Z</time></trkpt><trkpt lat="46.261153326123676" lon="11.22569346110936"><ele>211.0</ele><time>2026-05-01T04:11:51.001Z</time></trkpt><trkpt lat="46.261405214356266" lon="11.225946368119658"><ele>209.5</ele><time>2026-05-01T04:11:52.001Z</time></trkpt><trkpt lat="46.261655979341874" lon="11.226199699024248"><ele>208.0</ele><time>2026-05-01T04:11:53.001Z</time></trkpt><trkpt lat="46.26190634144984" lon="11.226448466877248"><ele>208.5</ele><time>2026-05-01T04:11:54.001Z</time></trkpt><trkpt lat="46.262158749792285" lon="11.226700465623463"><ele>209.0</ele><time>2026-05-01T04:11:55.001Z</time></trkpt><trkpt lat="46.26241084642422" lon="11.226950821557104"><ele>209.0</ele><time>2026-05-01T04:11:56.001Z</time></trkpt><trkpt lat="46.262663477312834" lon="11.227200968461974"><ele>209.0</ele><time>2026-05-01T04:11:57.001Z</time></trkpt><trkpt lat="46.26291846873264" lon="11.22745167052604"><ele>210.0</ele><time>2026-05-01T04:11:58.001Z</time></trkpt><trkpt lat="46.26317680859869" lon="11.227691111802887"><ele>211.0</ele><time>2026-05-01T04:11:59.001Z</time></trkpt><trkpt lat="46.26343769371172" lon="11.227927297954633"><ele>211.0</ele><time>2026-05-01T04:12:00.001Z</time></trkpt><trkpt lat="46.26369957312214" lon="11.228157207035906"><ele>211.0</ele><time>2026-05-01T04:12:01.001Z</time></trkpt><trkpt lat="46.263965449452094" lon="11.228387395472222"><ele>211.0</ele><time>2026-05-01T04:12:02.001Z</time></trkpt><trkpt lat="46.2642363960183" lon="11.228603800677744"><ele>211.0</ele><time>2026-05-01T04:12:03.001Z</time></trkpt><trkpt lat="46.26451283509108" lon="11.228806781434642"><ele>211.5</ele><time>2026-05-01T04:12:04.001Z</time></trkpt><trkpt lat="46.26479321711664" lon="11.228996714142536"><ele>212.0</ele><time>2026-05-01T04:12:05.001Z</time></trkpt><trkpt lat="46.26507400694602" lon="11.229178351345393"><ele>212.0</ele><time>2026-05-01T04:12:06.001Z</time></trkpt><trkpt lat="46.26535902714348" lon="11.2293531339002"><ele>212.0</ele><time>2026-05-01T04:12:07.001Z</time></trkpt><trkpt lat="46.26564582005585" lon="11.229525696319142"><ele>211.0</ele><time>2026-05-01T04:12:08.001Z</time></trkpt><trkpt lat="46.26593106556163" lon="11.229700359900626"><ele>210.0</ele><time>2026-05-01T04:12:09.001Z</time></trkpt><trkpt lat="46.26622172992805" lon="11.229866394851252"><ele>210.5</ele><time>2026-05-01T04:12:10.001Z</time></trkpt><trkpt lat="46.266511479267024" lon="11.230039002766842"><ele>211.0</ele><time>2026-05-01T04:12:11.001Z</time></trkpt><trkpt lat="46.266799567957236" lon="11.2302183081734"><ele>211.0</ele><time>2026-05-01T04:12:12.001Z</time></trkpt><trkpt lat="46.26708608951467" lon="11.23039924840386"><ele>211.0</ele><time>2026-05-01T04:12:13.001Z</time></trkpt><trkpt lat="46.26737307544399" lon="11.230580665080167"><ele>210.0</ele><time>2026-05-01T04:12:14.001Z</time></trkpt><trkpt lat="46.267658755675406" lon="11.230762555689997"><ele>209.0</ele><time>2026-05-01T04:12:15.001Z</time></trkpt><trkpt lat="46.26794464558775" lon="11.230945513173038"><ele>209.5</ele><time>2026-05-01T04:12:16.001Z</time></trkpt><trkpt lat="46.268231395319255" lon="11.231129635367374"><ele>210.0</ele><time>2026-05-01T04:12:17.001Z</time></trkpt><trkpt lat="46.2685176697241" lon="11.23130788011102"><ele>210.5</ele><time>2026-05-01T04:12:18.001Z</time></trkpt><trkpt lat="46.26879075917947" lon="11.231476888027382"><ele>211.0</ele><time>2026-05-01T04:12:19.001Z</time></trkpt><trkpt lat="46.26906551223823" lon="11.231644408594466"><ele>211.0</ele><time>2026-05-01T04:12:20.001Z</time></trkpt><trkpt lat="46.26934765136463" lon="11.23181407490498"><ele>211.0</ele><time>2026-05-01T04:12:21.001Z</time></trkpt><trkpt lat="46.26962970350662" lon="11.231986036729937"><ele>211.0</ele><time>2026-05-01T04:12:22.001Z</time></trkpt><trkpt lat="46.26991454624141" lon="11.232154458754149"><ele>211.0</ele><time>2026-05-01T04:12:23.001Z</time></trkpt><trkpt lat="46.270200522473516" lon="11.232325462330307"><ele>211.0</ele><time>2026-05-01T04:12:24.001Z</time></trkpt><trkpt lat="46.27048714881337" lon="11.232494462070118"><ele>211.0</ele><time>2026-05-01T04:12:25.001Z</time></trkpt><trkpt lat="46.270774497145865" lon="11.232660420966816"><ele>210.0</ele><time>2026-05-01T04:12:26.001Z</time></trkpt><trkpt lat="46.27106336796601" lon="11.232816225671773"><ele>209.0</ele><time>2026-05-01T04:12:27.001Z</time></trkpt><trkpt lat="46.271355443586906" lon="11.232967513263397"><ele>210.5</ele><time>2026-05-01T04:12:28.001Z</time></trkpt><trkpt lat="46.271649780390256" lon="11.233103014849597"><ele>212.0</ele><time>2026-05-01T04:12:29.001Z</time></trkpt><trkpt lat="46.27194569300081" lon="11.23322528461591"><ele>212.0</ele><time>2026-05-01T04:12:30.001Z</time></trkpt><trkpt lat="46.272243893260885" lon="11.233338560275552"><ele>212.0</ele><time>2026-05-01T04:12:31.001Z</time></trkpt><trkpt lat="46.272543367104525" lon="11.233444351697981"><ele>211.0</ele><time>2026-05-01T04:12:32.001Z</time></trkpt><trkpt lat="46.27284532296614" lon="11.233537023804715"><ele>210.0</ele><time>2026-05-01T04:12:33.001Z</time></trkpt><trkpt lat="46.27314937501292" lon="11.23362291862516"><ele>210.0</ele><time>2026-05-01T04:12:34.001Z</time></trkpt><trkpt lat="46.2734568522356" lon="11.23369704845754"><ele>210.0</ele><time>2026-05-01T04:12:35.001Z</time></trkpt><trkpt lat="46.27376606830909" lon="11.233767503522275"><ele>210.5</ele><time>2026-05-01T04:12:36.001Z</time></trkpt><trkpt lat="46.27407465080128" lon="11.233837637931218"><ele>211.0</ele><time>2026-05-01T04:12:37.001Z</time></trkpt><trkpt lat="46.274384507080796" lon="11.233906580091313"><ele>211.0</ele><time>2026-05-01T04:12:38Z</time></trkpt><trkpt lat="46.27469582471325" lon="11.23397527660061"><ele>211.0</ele><time>2026-05-01T04:12:39Z</time></trkpt><trkpt lat="46.275006117881" lon="11.23404633246323"><ele>211.0</ele><time>2026-05-01T04:12:40Z</time></trkpt><trkpt lat="46.27531618742135" lon="11.234116402005506"><ele>211.0</ele><time>2026-05-01T04:12:41Z</time></trkpt><trkpt lat="46.27563087410491" lon="11.234182799127717"><ele>211.5</ele><time>2026-05-01T04:12:42Z</time></trkpt><trkpt lat="46.275943356200415" lon="11.234242707499448"><ele>212.0</ele><time>2026-05-01T04:12:43Z</time></trkpt><trkpt lat="46.27625574598841" lon="11.234298668192247"><ele>211.5</ele><time>2026-05-01T04:12:44Z</time></trkpt><trkpt lat="46.27656976314741" lon="11.234359629050624"><ele>211.0</ele><time>2026-05-01T04:12:45Z</time></trkpt><trkpt lat="46.27687993466867" lon="11.23442508994492"><ele>211.0</ele><time>2026-05-01T04:12:46Z</time></trkpt><trkpt lat="46.2771901845401" lon="11.234491871511013"><ele>211.0</ele><time>2026-05-01T04:12:47Z</time></trkpt><trkpt lat="46.277500026057865" lon="11.23455920444333"><ele>210.5</ele><time>2026-05-01T04:12:48Z</time></trkpt><trkpt lat="46.27780765400257" lon="11.234627386083027"><ele>210.0</ele><time>2026-05-01T04:12:49Z</time></trkpt><trkpt lat="46.27811572959273" lon="11.234702336048437"><ele>211.0</ele><time>2026-05-01T04:12:50Z</time></trkpt><trkpt lat="46.278421431744306" lon="11.234781704035173"><ele>212.0</ele><time>2026-05-01T04:12:51Z</time></trkpt><trkpt lat="46.278725616547604" lon="11.234862935443534"><ele>212.0</ele><time>2026-05-01T04:12:52Z</time></trkpt><trkpt lat="46.27902872067822" lon="11.234940186791215"><ele>212.0</ele><time>2026-05-01T04:12:53Z</time></trkpt><trkpt lat="46.27933188588412" lon="11.235015344124234"><ele>212.0</ele><time>2026-05-01T04:12:54Z</time></trkpt><trkpt lat="46.279635687665035" lon="11.235092257657103"><ele>212.0</ele><time>2026-05-01T04:12:55Z</time></trkpt><trkpt lat="46.279939794715546" lon="11.235162577199391"><ele>211.0</ele><time>2026-05-01T04:12:56Z</time></trkpt><trkpt lat="46.28024502569851" lon="11.235229209957057"><ele>210.0</ele><time>2026-05-01T04:12:57Z</time></trkpt><trkpt lat="46.28055015439364" lon="11.235294024904526"><ele>210.5</ele><time>2026-05-01T04:12:58Z</time></trkpt><trkpt lat="46.28085678091225" lon="11.235359491090462"><ele>211.0</ele><time>2026-05-01T04:12:59Z</time></trkpt><trkpt lat="46.28116465730218" lon="11.235425560096441"><ele>211.5</ele><time>2026-05-01T04:13:00Z</time></trkpt><trkpt lat="46.28146915700356" lon="11.235497163768107"><ele>212.0</ele><time>2026-05-01T04:13:01Z</time></trkpt><trkpt lat="46.281776082605425" lon="11.235565207725093"><ele>212.0</ele><time>2026-05-01T04:13:02Z</time></trkpt><trkpt lat="46.2820838279809" lon="11.235634343488458"><ele>212.0</ele><time>2026-05-01T04:13:03Z</time></trkpt><trkpt lat="46.28239083978442" lon="11.235703761303478"><ele>212.5</ele><time>2026-05-01T04:13:04Z</time></trkpt><trkpt lat="46.28269846999239" lon="11.235773675466296"><ele>213.0</ele><time>2026-05-01T04:13:05Z</time></trkpt><trkpt lat="46.283006683520966" lon="11.23584352535818"><ele>212.0</ele><time>2026-05-01T04:13:06Z</time></trkpt><trkpt lat="46.28331349097868" lon="11.235913497515067"><ele>211.0</ele><time>2026-05-01T04:13:07Z</time></trkpt><trkpt lat="46.28362217252839" lon="11.235983629208976"><ele>210.5</ele><time>2026-05-01T04:13:08Z</time></trkpt><trkpt lat="46.283931670607664" lon="11.23605398873825"><ele>210.0</ele><time>2026-05-01T04:13:09Z</time></trkpt><trkpt lat="46.28423889632437" lon="11.236123838520664"><ele>210.0</ele><time>2026-05-01T04:13:10Z</time></trkpt><trkpt lat="46.284545291475496" lon="11.236195161193843"><ele>210.0</ele><time>2026-05-01T04:13:11Z</time></trkpt><trkpt lat="46.28485217930772" lon="11.23627011446716"><ele>211.0</ele><time>2026-05-01T04:13:12Z</time></trkpt><trkpt lat="46.285157953866545" lon="11.236348635733739"><ele>212.0</ele><time>2026-05-01T04:13:13Z</time></trkpt><trkpt lat="46.285462544530446" lon="11.236436046979398"><ele>211.5</ele><time>2026-05-01T04:13:14Z</time></trkpt><trkpt lat="46.285767915673276" lon="11.23653086398699"><ele>211.0</ele><time>2026-05-01T04:13:15Z</time></trkpt><trkpt lat="46.28607143601091" lon="11.23663431349194"><ele>211.0</ele><time>2026-05-01T04:13:16Z</time></trkpt><trkpt lat="46.28637547843503" lon="11.236740934246635"><ele>211.0</ele><time>2026-05-01T04:13:17Z</time></trkpt><trkpt lat="46.28667914574809" lon="11.236849957273902"><ele>211.0</ele><time>2026-05-01T04:13:18Z</time></trkpt><trkpt lat="46.28698209745822" lon="11.236966026907211"><ele>211.0</ele><time>2026-05-01T04:13:19Z</time></trkpt><trkpt lat="46.287282773625975" lon="11.237088119668611"><ele>211.0</ele><time>2026-05-01T04:13:20Z</time></trkpt><trkpt lat="46.28758301099988" lon="11.237218351994679"><ele>211.0</ele><time>2026-05-01T04:13:21Z</time></trkpt><trkpt lat="46.287883129621754" lon="11.237352037242147"><ele>212.0</ele><time>2026-05-01T04:13:22Z</time></trkpt><trkpt lat="46.28818308081001" lon="11.237480246563837"><ele>213.0</ele><time>2026-05-01T04:13:23Z</time></trkpt><trkpt lat="46.288483452360865" lon="11.237614874727369"><ele>213.0</ele><time>2026-05-01T04:13:24Z</time></trkpt><trkpt lat="46.28878231911988" lon="11.237752565263483"><ele>213.0</ele><time>2026-05-01T04:13:25Z</time></trkpt><trkpt lat="46.28908306701852" lon="11.23789318489463"><ele>212.5</ele><time>2026-05-01T04:13:26Z</time></trkpt><trkpt lat="46.289380212226625" lon="11.238039534688621"><ele>212.0</ele><time>2026-05-01T04:13:27Z</time></trkpt><trkpt lat="46.289677508000096" lon="11.238195793369083"><ele>212.5</ele><time>2026-05-01T04:13:28Z</time></trkpt><trkpt lat="46.28997034071414" lon="11.238363302599907"><ele>213.0</ele><time>2026-05-01T04:13:29Z</time></trkpt><trkpt lat="46.29026463792736" lon="11.238533414652117"><ele>213.0</ele><time>2026-05-01T04:13:30Z</time></trkpt><trkpt lat="46.290556307332274" lon="11.238713007610773"><ele>213.0</ele><time>2026-05-01T04:13:31Z</time></trkpt><trkpt lat="46.29084444673554" lon="11.238904781896986"><ele>214.5</ele><time>2026-05-01T04:13:32Z</time></trkpt><trkpt lat="46.291129013321175" lon="11.239105079952058"><ele>216.0</ele><time>2026-05-01T04:13:33Z</time></trkpt><trkpt lat="46.29141475603645" lon="11.239309130369044"><ele>214.0</ele><time>2026-05-01T04:13:34Z</time></trkpt><trkpt lat="46.29169956223409" lon="11.239517224172246"><ele>212.0</ele><time>2026-05-01T04:13:35.001Z</time></trkpt><trkpt lat="46.29198308546539" lon="11.239729114264183"><ele>211.5</ele><time>2026-05-01T04:13:36.001Z</time></trkpt><trkpt lat="46.29226616969333" lon="11.23993992021445"><ele>211.0</ele><time>2026-05-01T04:13:37.001Z</time></trkpt><trkpt lat="46.292549525675675" lon="11.240158935853799"><ele>211.0</ele><time>2026-05-01T04:13:38.001Z</time></trkpt><trkpt lat="46.29283065984782" lon="11.24037562282211"><ele>211.0</ele><time>2026-05-01T04:13:39.001Z</time></trkpt><trkpt lat="46.293109921394525" lon="11.240598111673211"><ele>211.5</ele><time>2026-05-01T04:13:40.001Z</time></trkpt><trkpt lat="46.29338983407515" lon="11.240827512313043"><ele>212.0</ele><time>2026-05-01T04:13:41.001Z</time></trkpt><trkpt lat="46.29366849071391" lon="11.241060380359734"><ele>212.0</ele><time>2026-05-01T04:13:42.001Z</time></trkpt><trkpt lat="46.29394596244643" lon="11.241291957094274"><ele>212.0</ele><time>2026-05-01T04:13:43.001Z</time></trkpt><trkpt lat="46.29422397712521" lon="11.241523854109452"><ele>212.0</ele><time>2026-05-01T04:13:44.001Z</time></trkpt><trkpt lat="46.29449211593773" lon="11.241745711460593"><ele>212.0</ele><time>2026-05-01T04:13:45.001Z</time></trkpt><trkpt lat="46.29475667068868" lon="11.24196394128294"><ele>211.5</ele><time>2026-05-01T04:13:46.001Z</time></trkpt><trkpt lat="46.295027911757494" lon="11.242185216476969"><ele>211.0</ele><time>2026-05-01T04:13:47.001Z</time></trkpt><trkpt lat="46.295300987110856" lon="11.242417045993594"><ele>212.5</ele><time>2026-05-01T04:13:48.001Z</time></trkpt><trkpt lat="46.295575616612865" lon="11.242644882789735"><ele>214.0</ele><time>2026-05-01T04:13:49.001Z</time></trkpt><trkpt lat="46.295851285562186" lon="11.242871821091116"><ele>214.0</ele><time>2026-05-01T04:13:50.001Z</time></trkpt><trkpt lat="46.2961282818335" lon="11.243098053449849"><ele>214.0</ele><time>2026-05-01T04:13:51.001Z</time></trkpt><trkpt lat="46.29640363828224" lon="11.243325019010383"><ele>214.5</ele><time>2026-05-01T04:13:52.001Z</time></trkpt><trkpt lat="46.29667907920927" lon="11.24355308503605"><ele>215.0</ele><time>2026-05-01T04:13:53.001Z</time></trkpt><trkpt lat="46.29695416828003" lon="11.243782722533687"><ele>215.5</ele><time>2026-05-01T04:13:54.001Z</time></trkpt><trkpt lat="46.29722897253458" lon="11.244011500572958"><ele>216.0</ele><time>2026-05-01T04:13:55.001Z</time></trkpt><trkpt lat="46.29750265375882" lon="11.24423638457074"><ele>216.0</ele><time>2026-05-01T04:13:56.001Z</time></trkpt><trkpt lat="46.29777516135125" lon="11.24446014329883"><ele>216.0</ele><time>2026-05-01T04:13:57.001Z</time></trkpt><trkpt lat="46.29804937217054" lon="11.244683812218355"><ele>214.0</ele><time>2026-05-01T04:13:58.001Z</time></trkpt><trkpt lat="46.29832212888865" lon="11.244912138723857"><ele>212.0</ele><time>2026-05-01T04:13:59.001Z</time></trkpt><trkpt lat="46.298597233322496" lon="11.245138837271805"><ele>212.0</ele><time>2026-05-01T04:14:00.001Z</time></trkpt><trkpt lat="46.29887231426197" lon="11.245365848889454"><ele>212.0</ele><time>2026-05-01T04:14:01.001Z</time></trkpt><trkpt lat="46.299147740962994" lon="11.24559250494443"><ele>210.5</ele><time>2026-05-01T04:14:02.001Z</time></trkpt><trkpt lat="46.29942276545983" lon="11.245816504861065"><ele>209.0</ele><time>2026-05-01T04:14:03.001Z</time></trkpt><trkpt lat="46.29969843170777" lon="11.246041649334998"><ele>208.0</ele><time>2026-05-01T04:14:04.001Z</time></trkpt><trkpt lat="46.29997380364636" lon="11.246267837426975"><ele>207.0</ele><time>2026-05-01T04:14:05.001Z</time></trkpt><trkpt lat="46.30024932352737" lon="11.246495070291994"><ele>208.0</ele><time>2026-05-01T04:14:06.001Z</time></trkpt><trkpt lat="46.30052294927421" lon="11.246721696983883"><ele>209.0</ele><time>2026-05-01T04:14:07.001Z</time></trkpt><trkpt lat="46.30079568694284" lon="11.246950639265078"><ele>209.0</ele><time>2026-05-01T04:14:08.001Z</time></trkpt><trkpt lat="46.301068491559626" lon="11.247179505653621"><ele>209.0</ele><time>2026-05-01T04:14:09.001Z</time></trkpt><trkpt lat="46.30134080399933" lon="11.24740623193509"><ele>210.0</ele><time>2026-05-01T04:14:10.001Z</time></trkpt><trkpt lat="46.30161464193674" lon="11.247633123849297"><ele>211.0</ele><time>2026-05-01T04:14:11.001Z</time></trkpt><trkpt lat="46.30188962383777" lon="11.247857347392657"><ele>211.0</ele><time>2026-05-01T04:14:12.001Z</time></trkpt><trkpt lat="46.3021646007009" lon="11.248079690318816"><ele>211.0</ele><time>2026-05-01T04:14:13.001Z</time></trkpt><trkpt lat="46.30243765345038" lon="11.248298309362097"><ele>210.5</ele><time>2026-05-01T04:14:14.001Z</time></trkpt><trkpt lat="46.30271053179901" lon="11.248517916965834"><ele>210.0</ele><time>2026-05-01T04:14:15.001Z</time></trkpt><trkpt lat="46.30298376841463" lon="11.248729357669683"><ele>209.5</ele><time>2026-05-01T04:14:16.001Z</time></trkpt><trkpt lat="46.303254662108166" lon="11.248939758139835"><ele>209.0</ele><time>2026-05-01T04:14:17.001Z</time></trkpt><trkpt lat="46.30352326400101" lon="11.249151898360818"><ele>209.0</ele><time>2026-05-01T04:14:18.001Z</time></trkpt><trkpt lat="46.303791497437814" lon="11.249365437088343"><ele>209.0</ele><time>2026-05-01T04:14:19.001Z</time></trkpt><trkpt lat="46.304057913201376" lon="11.24958216982113"><ele>210.0</ele><time>2026-05-01T04:14:20.001Z</time></trkpt><trkpt lat="46.304321903513646" lon="11.249798931036288"><ele>211.0</ele><time>2026-05-01T04:14:21.001Z</time></trkpt><trkpt lat="46.30458418127532" lon="11.250015791990158"><ele>211.0</ele><time>2026-05-01T04:14:22.001Z</time></trkpt><trkpt lat="46.3048475178337" lon="11.250237008726032"><ele>211.0</ele><time>2026-05-01T04:14:23.001Z</time></trkpt><trkpt lat="46.30511157248658" lon="11.25045570194953"><ele>210.5</ele><time>2026-05-01T04:14:24.001Z</time></trkpt><trkpt lat="46.30537625440431" lon="11.25067857679433"><ele>210.0</ele><time>2026-05-01T04:14:25.001Z</time></trkpt><trkpt lat="46.30564278212486" lon="11.250903590860567"><ele>210.0</ele><time>2026-05-01T04:14:26.001Z</time></trkpt><trkpt lat="46.30591010568514" lon="11.251124132658484"><ele>210.0</ele><time>2026-05-01T04:14:27.001Z</time></trkpt><trkpt lat="46.30617771168183" lon="11.251345584135215"><ele>210.0</ele><time>2026-05-01T04:14:28.001Z</time></trkpt><trkpt lat="46.30644515653837" lon="11.251568981134696"><ele>210.0</ele><time>2026-05-01T04:14:29.001Z</time></trkpt><trkpt lat="46.30671507844759" lon="11.251791924951874"><ele>210.0</ele><time>2026-05-01T04:14:30.001Z</time></trkpt><trkpt lat="46.3069840125293" lon="11.252016812160624"><ele>210.0</ele><time>2026-05-01T04:14:31.001Z</time></trkpt><trkpt lat="46.30725244774774" lon="11.252237957896261"><ele>209.5</ele><time>2026-05-01T04:14:32.001Z</time></trkpt><trkpt lat="46.30752234827925" lon="11.252459518191795"><ele>209.0</ele><time>2026-05-01T04:14:33.001Z</time></trkpt><trkpt lat="46.30779111758589" lon="11.252686814627557"><ele>209.0</ele><time>2026-05-01T04:14:34.001Z</time></trkpt><trkpt lat="46.30805807245221" lon="11.25291984948577"><ele>209.0</ele><time>2026-05-01T04:14:35.001Z</time></trkpt><trkpt lat="46.30832572842944" lon="11.253155621228464"><ele>210.5</ele><time>2026-05-01T04:14:36.001Z</time></trkpt><trkpt lat="46.308593397138004" lon="11.253392561614515"><ele>212.0</ele><time>2026-05-01T04:14:37.001Z</time></trkpt><trkpt lat="46.30886147342553" lon="11.253630941220814"><ele>211.5</ele><time>2026-05-01T04:14:38.001Z</time></trkpt><trkpt lat="46.30913009172948" lon="11.253863839400545"><ele>211.0</ele><time>2026-05-01T04:14:39.001Z</time></trkpt><trkpt lat="46.30940034776711" lon="11.254091431959278"><ele>211.0</ele><time>2026-05-01T04:14:40.001Z</time></trkpt><trkpt lat="46.309674004525185" lon="11.254315309078578"><ele>211.0</ele><time>2026-05-01T04:14:41.001Z</time></trkpt><trkpt lat="46.309947656768685" lon="11.254536267683687"><ele>211.5</ele><time>2026-05-01T04:14:42.001Z</time></trkpt><trkpt lat="46.31022239163443" lon="11.25475846904832"><ele>212.0</ele><time>2026-05-01T04:14:43Z</time></trkpt><trkpt lat="46.31049298845376" lon="11.254987902046034"><ele>212.5</ele><time>2026-05-01T04:14:44Z</time></trkpt><trkpt lat="46.31076325540376" lon="11.255217859006544"><ele>213.0</ele><time>2026-05-01T04:14:45Z</time></trkpt><trkpt lat="46.31103247072515" lon="11.255444915477808"><ele>213.5</ele><time>2026-05-01T04:14:46Z</time></trkpt><trkpt lat="46.31130066298734" lon="11.255669447244522"><ele>214.0</ele><time>2026-05-01T04:14:47Z</time></trkpt><trkpt lat="46.311557544759545" lon="11.255883977051221"><ele>212.5</ele><time>2026-05-01T04:14:48Z</time></trkpt><trkpt lat="46.3118215703165" lon="11.256102397762755"><ele>211.0</ele><time>2026-05-01T04:14:49Z</time></trkpt><trkpt lat="46.31208820891593" lon="11.256333859177621"><ele>212.5</ele><time>2026-05-01T04:14:50Z</time></trkpt><trkpt lat="46.312355467809205" lon="11.256570555170171"><ele>214.0</ele><time>2026-05-01T04:14:51Z</time></trkpt><trkpt lat="46.312624135513175" lon="11.256813490426977"><ele>214.0</ele><time>2026-05-01T04:14:52Z</time></trkpt><trkpt lat="46.312889000864544" lon="11.257064507560553"><ele>214.0</ele><time>2026-05-01T04:14:53Z</time></trkpt><trkpt lat="46.31315168308909" lon="11.257323452292173"><ele>213.5</ele><time>2026-05-01T04:14:54Z</time></trkpt><trkpt lat="46.313409194925526" lon="11.257589359477409"><ele>213.0</ele><time>2026-05-01T04:14:55Z</time></trkpt><trkpt lat="46.31366646801188" lon="11.257856998939902"><ele>212.0</ele><time>2026-05-01T04:14:56Z</time></trkpt><trkpt lat="46.31392350075409" lon="11.258124528538415"><ele>211.0</ele><time>2026-05-01T04:14:57Z</time></trkpt><trkpt lat="46.31417991707531" lon="11.258397296101531"><ele>211.0</ele><time>2026-05-01T04:14:58Z</time></trkpt><trkpt lat="46.314435339773404" lon="11.258680081336594"><ele>211.0</ele><time>2026-05-01T04:14:59Z</time></trkpt><trkpt lat="46.31468598278083" lon="11.258966608362813"><ele>211.0</ele><time>2026-05-01T04:15:00Z</time></trkpt><trkpt lat="46.314931635606435" lon="11.25925865751042"><ele>211.0</ele><time>2026-05-01T04:15:01Z</time></trkpt><trkpt lat="46.31517211924357" lon="11.259553030885426"><ele>211.5</ele><time>2026-05-01T04:15:02Z</time></trkpt><trkpt lat="46.31540822224773" lon="11.259851847769399"><ele>212.0</ele><time>2026-05-01T04:15:03Z</time></trkpt><trkpt lat="46.31564374780388" lon="11.260158697358822"><ele>212.5</ele><time>2026-05-01T04:15:04Z</time></trkpt><trkpt lat="46.31587861590563" lon="11.260468595647053"><ele>213.0</ele><time>2026-05-01T04:15:05Z</time></trkpt><trkpt lat="46.31611213226991" lon="11.260779793092958"><ele>213.5</ele><time>2026-05-01T04:15:06Z</time></trkpt><trkpt lat="46.316345136114776" lon="11.261093699454818"><ele>214.0</ele><time>2026-05-01T04:15:07Z</time></trkpt><trkpt lat="46.31657714252757" lon="11.261410065584428"><ele>215.5</ele><time>2026-05-01T04:15:08Z</time></trkpt><trkpt lat="46.31681008424274" lon="11.261727759158772"><ele>217.0</ele><time>2026-05-01T04:15:09Z</time></trkpt><trkpt lat="46.31704234257766" lon="11.262046856914854"><ele>215.0</ele><time>2026-05-01T04:15:10Z</time></trkpt><trkpt lat="46.31727346483821" lon="11.262356671748226"><ele>213.0</ele><time>2026-05-01T04:15:11Z</time></trkpt><trkpt lat="46.317501587093666" lon="11.262665594174045"><ele>213.0</ele><time>2026-05-01T04:15:12Z</time></trkpt><trkpt lat="46.31772445259527" lon="11.262967409845713"><ele>213.0</ele><time>2026-05-01T04:15:13Z</time></trkpt><trkpt lat="46.31794523899867" lon="11.26326896870981"><ele>214.0</ele><time>2026-05-01T04:15:14Z</time></trkpt><trkpt lat="46.31817029608492" lon="11.263574388201254"><ele>215.0</ele><time>2026-05-01T04:15:15Z</time></trkpt><trkpt lat="46.318397264127405" lon="11.263883831046668"><ele>215.5</ele><time>2026-05-01T04:15:16Z</time></trkpt><trkpt lat="46.31862482934705" lon="11.264191221997567"><ele>216.0</ele><time>2026-05-01T04:15:17Z</time></trkpt><trkpt lat="46.31885234635627" lon="11.264498391118618"><ele>215.0</ele><time>2026-05-01T04:15:18Z</time></trkpt><trkpt lat="46.31908004553901" lon="11.264805107940397"><ele>214.0</ele><time>2026-05-01T04:15:19Z</time></trkpt><trkpt lat="46.31930679337162" lon="11.265113278777559"><ele>214.0</ele><time>2026-05-01T04:15:20Z</time></trkpt><trkpt lat="46.319535331469034" lon="11.265422081985315"><ele>214.0</ele><time>2026-05-01T04:15:21Z</time></trkpt><trkpt lat="46.31976552634174" lon="11.265731012959698"><ele>215.0</ele><time>2026-05-01T04:15:22Z</time></trkpt><trkpt lat="46.31999855250742" lon="11.266036828054743"><ele>216.0</ele><time>2026-05-01T04:15:23Z</time></trkpt><trkpt lat="46.32023695005862" lon="11.266333843271738"><ele>216.5</ele><time>2026-05-01T04:15:24Z</time></trkpt><trkpt lat="46.32047699805877" lon="11.266628715877227"><ele>217.0</ele><time>2026-05-01T04:15:25Z</time></trkpt><trkpt lat="46.320718150937125" lon="11.266916065032161"><ele>216.5</ele><time>2026-05-01T04:15:26Z</time></trkpt><trkpt lat="46.320963184823015" lon="11.267201814738662"><ele>216.0</ele><time>2026-05-01T04:15:27Z</time></trkpt><trkpt lat="46.32120771219357" lon="11.26748197532028"><ele>215.5</ele><time>2026-05-01T04:15:28Z</time></trkpt><trkpt lat="46.32145060575524" lon="11.267754877575245"><ele>215.0</ele><time>2026-05-01T04:15:29Z</time></trkpt><trkpt lat="46.321696010310184" lon="11.268019222893022"><ele>216.0</ele><time>2026-05-01T04:15:30Z</time></trkpt><trkpt lat="46.321944433838794" lon="11.268276580415655"><ele>217.0</ele><time>2026-05-01T04:15:31Z</time></trkpt><trkpt lat="46.32219549931055" lon="11.268528514137548"><ele>216.5</ele><time>2026-05-01T04:15:32Z</time></trkpt><trkpt lat="46.32245075423676" lon="11.268774952962202"><ele>216.0</ele><time>2026-05-01T04:15:33Z</time></trkpt><trkpt lat="46.322707754690654" lon="11.26901680793993"><ele>216.0</ele><time>2026-05-01T04:15:34Z</time></trkpt><trkpt lat="46.322968427784815" lon="11.269255299267845"><ele>216.0</ele><time>2026-05-01T04:15:35Z</time></trkpt><trkpt lat="46.32323254402635" lon="11.269487081897424"><ele>216.5</ele><time>2026-05-01T04:15:36Z</time></trkpt><trkpt lat="46.323499258321576" lon="11.269711103696638"><ele>217.0</ele><time>2026-05-01T04:15:37Z</time></trkpt><trkpt lat="46.32376912705622" lon="11.269927678268228"><ele>217.0</ele><time>2026-05-01T04:15:38.001Z</time></trkpt><trkpt lat="46.32403997835995" lon="11.270138561299973"><ele>217.0</ele><time>2026-05-01T04:15:39.001Z</time></trkpt><trkpt lat="46.32430900760382" lon="11.270349173558847"><ele>217.0</ele><time>2026-05-01T04:15:40.001Z</time></trkpt><trkpt lat="46.3245822000209" lon="11.270553117479073"><ele>217.0</ele><time>2026-05-01T04:15:41.001Z</time></trkpt><trkpt lat="46.324855513656196" lon="11.270755196680327"><ele>216.0</ele><time>2026-05-01T04:15:42.001Z</time></trkpt><trkpt lat="46.32512911677789" lon="11.270958859317169"><ele>215.0</ele><time>2026-05-01T04:15:43.001Z</time></trkpt><trkpt lat="46.32540127876595" lon="11.271165022304977"><ele>214.5</ele><time>2026-05-01T04:15:44.001Z</time></trkpt><trkpt lat="46.32567164742165" lon="11.271372099831103"><ele>214.0</ele><time>2026-05-01T04:15:45.001Z</time></trkpt><trkpt lat="46.32594370407885" lon="11.271575867330615"><ele>214.0</ele><time>2026-05-01T04:15:46.001Z</time></trkpt><trkpt lat="46.326215866313525" lon="11.271779022651655"><ele>214.0</ele><time>2026-05-01T04:15:47.001Z</time></trkpt><trkpt lat="46.32648378200764" lon="11.271986797659967"><ele>214.5</ele><time>2026-05-01T04:15:48.001Z</time></trkpt><trkpt lat="46.32674931262234" lon="11.27220313605752"><ele>215.0</ele><time>2026-05-01T04:15:49.001Z</time></trkpt><trkpt lat="46.327014405965286" lon="11.27242203243633"><ele>213.5</ele><time>2026-05-01T04:15:50.001Z</time></trkpt><trkpt lat="46.32728319594965" lon="11.27264075639113"><ele>212.0</ele><time>2026-05-01T04:15:51.001Z</time></trkpt><trkpt lat="46.32755481923259" lon="11.272850717755375"><ele>212.0</ele><time>2026-05-01T04:15:52.001Z</time></trkpt><trkpt lat="46.32782893569757" lon="11.273054558570122"><ele>212.0</ele><time>2026-05-01T04:15:53.001Z</time></trkpt><trkpt lat="46.32810580319601" lon="11.273259646374772"><ele>212.0</ele><time>2026-05-01T04:15:54.001Z</time></trkpt><trkpt lat="46.32838292541123" lon="11.273464669613768"><ele>212.0</ele><time>2026-05-01T04:15:55.001Z</time></trkpt><trkpt lat="46.32866034565009" lon="11.273672680117793"><ele>211.5</ele><time>2026-05-01T04:15:56.001Z</time></trkpt><trkpt lat="46.32893757307242" lon="11.273881888612884"><ele>211.0</ele><time>2026-05-01T04:15:57.001Z</time></trkpt><trkpt lat="46.32921364417717" lon="11.274094960190595"><ele>212.0</ele><time>2026-05-01T04:15:58.001Z</time></trkpt><trkpt lat="46.32949032586126" lon="11.274307538375488"><ele>213.0</ele><time>2026-05-01T04:15:59.001Z</time></trkpt><trkpt lat="46.329760676498985" lon="11.27451480938002"><ele>213.0</ele><time>2026-05-01T04:16:00.001Z</time></trkpt><trkpt lat="46.33002310171713" lon="11.274714709494592"><ele>213.0</ele><time>2026-05-01T04:16:01.001Z</time></trkpt><trkpt lat="46.33029645197485" lon="11.27491559596763"><ele>213.5</ele><time>2026-05-01T04:16:02.001Z</time></trkpt><trkpt lat="46.33057494763305" lon="11.275106425579876"><ele>214.0</ele><time>2026-05-01T04:16:03.001Z</time></trkpt><trkpt lat="46.330858508403594" lon="11.275295595474205"><ele>214.0</ele><time>2026-05-01T04:16:04.001Z</time></trkpt><trkpt lat="46.33114736463591" lon="11.275473035791684"><ele>214.0</ele><time>2026-05-01T04:16:05.001Z</time></trkpt><trkpt lat="46.33144158207287" lon="11.27564324769374"><ele>212.5</ele><time>2026-05-01T04:16:06.001Z</time></trkpt><trkpt lat="46.331736086865995" lon="11.275794071314632"><ele>211.0</ele><time>2026-05-01T04:16:07.001Z</time></trkpt><trkpt lat="46.33203861400193" lon="11.275935335950564"><ele>212.0</ele><time>2026-05-01T04:16:08.001Z</time></trkpt><trkpt lat="46.332345103774905" lon="11.27605953931526"><ele>213.0</ele><time>2026-05-01T04:16:09.001Z</time></trkpt><trkpt lat="46.33265585939348" lon="11.276169892798977"><ele>213.0</ele><time>2026-05-01T04:16:10.001Z</time></trkpt><trkpt lat="46.332969133757864" lon="11.276276350536394"><ele>213.0</ele><time>2026-05-01T04:16:11.001Z</time></trkpt><trkpt lat="46.333278984953765" lon="11.276387885696318"><ele>213.0</ele><time>2026-05-01T04:16:12.001Z</time></trkpt><trkpt lat="46.33358631220743" lon="11.276497428301376"><ele>213.0</ele><time>2026-05-01T04:16:13.001Z</time></trkpt><trkpt lat="46.33389385736564" lon="11.27660369202581"><ele>213.5</ele><time>2026-05-01T04:16:14.001Z</time></trkpt><trkpt lat="46.33419865466749" lon="11.27670907751585"><ele>214.0</ele><time>2026-05-01T04:16:15.001Z</time></trkpt><trkpt lat="46.334500540566886" lon="11.276815330711383"><ele>214.0</ele><time>2026-05-01T04:16:16.001Z</time></trkpt><trkpt lat="46.334801739486096" lon="11.276918484690901"><ele>214.0</ele><time>2026-05-01T04:16:17.001Z</time></trkpt><trkpt lat="46.33510364259652" lon="11.277022465826988"><ele>214.0</ele><time>2026-05-01T04:16:18.001Z</time></trkpt><trkpt lat="46.33540625002583" lon="11.277127090670223"><ele>214.0</ele><time>2026-05-01T04:16:19.001Z</time></trkpt><trkpt lat="46.33570756275828" lon="11.27723727648719"><ele>214.5</ele><time>2026-05-01T04:16:20.001Z</time></trkpt><trkpt lat="46.336009423904414" lon="11.277338263398354"><ele>215.0</ele><time>2026-05-01T04:16:21.001Z</time></trkpt><trkpt lat="46.33631286871552" lon="11.277442572888633"><ele>215.0</ele><time>2026-05-01T04:16:22.001Z</time></trkpt><trkpt lat="46.336613985329684" lon="11.277545985817115"><ele>215.0</ele><time>2026-05-01T04:16:23.001Z</time></trkpt><trkpt lat="46.336914253605904" lon="11.277651302011725"><ele>215.0</ele><time>2026-05-01T04:16:24.001Z</time></trkpt><trkpt lat="46.33721452545744" lon="11.277756480061305"><ele>215.0</ele><time>2026-05-01T04:16:25.001Z</time></trkpt><trkpt lat="46.33751340172356" lon="11.277859065645977"><ele>215.5</ele><time>2026-05-01T04:16:26.001Z</time></trkpt><trkpt lat="46.337812701029264" lon="11.277962781233775"><ele>216.0</ele><time>2026-05-01T04:16:27.001Z</time></trkpt><trkpt lat="46.33811095985787" lon="11.278065450843005"><ele>216.5</ele><time>2026-05-01T04:16:28.001Z</time></trkpt><trkpt lat="46.338408794103714" lon="11.278168650200834"><ele>217.0</ele><time>2026-05-01T04:16:29.001Z</time></trkpt><trkpt lat="46.33870518467179" lon="11.27827071048331"><ele>217.0</ele><time>2026-05-01T04:16:30.001Z</time></trkpt><trkpt lat="46.33899988646057" lon="11.278375239586369"><ele>217.0</ele><time>2026-05-01T04:16:31.001Z</time></trkpt><trkpt lat="46.33929346466097" lon="11.278475445235044"><ele>217.0</ele><time>2026-05-01T04:16:32.001Z</time></trkpt><trkpt lat="46.33958605575383" lon="11.278578660965666"><ele>217.0</ele><time>2026-05-01T04:16:33.001Z</time></trkpt><trkpt lat="46.33987629234945" lon="11.278688546427698"><ele>216.5</ele><time>2026-05-01T04:16:34.001Z</time></trkpt><trkpt lat="46.340165809146924" lon="11.278806121421683"><ele>216.0</ele><time>2026-05-01T04:16:35.001Z</time></trkpt><trkpt lat="46.3404595040824" lon="11.27892374595298"><ele>216.0</ele><time>2026-05-01T04:16:36.001Z</time></trkpt><trkpt lat="46.34075795361106" lon="11.279035806398662"><ele>216.0</ele><time>2026-05-01T04:16:37.001Z</time></trkpt><trkpt lat="46.3410581294547" lon="11.279141884325506"><ele>216.0</ele><time>2026-05-01T04:16:38.001Z</time></trkpt><trkpt lat="46.3413603836596" lon="11.279247551067549"><ele>216.0</ele><time>2026-05-01T04:16:39.001Z</time></trkpt><trkpt lat="46.34166488977732" lon="11.279356109755867"><ele>218.0</ele><time>2026-05-01T04:16:40.001Z</time></trkpt><trkpt lat="46.34196816734106" lon="11.279463161091753"><ele>220.0</ele><time>2026-05-01T04:16:41.001Z</time></trkpt><trkpt lat="46.34226963172039" lon="11.279571154856132"><ele>221.0</ele><time>2026-05-01T04:16:42.001Z</time></trkpt><trkpt lat="46.34257177680221" lon="11.27967635876788"><ele>222.0</ele><time>2026-05-01T04:16:43.001Z</time></trkpt><trkpt lat="46.34287337588157" lon="11.279779961998234"><ele>219.5</ele><time>2026-05-01T04:16:44.001Z</time></trkpt><trkpt lat="46.34317489310264" lon="11.279883911748907"><ele>217.0</ele><time>2026-05-01T04:16:45.001Z</time></trkpt><trkpt lat="46.34347595778008" lon="11.279989413269405"><ele>217.0</ele><time>2026-05-01T04:16:46.001Z</time></trkpt><trkpt lat="46.34377573975409" lon="11.280098128145623"><ele>217.0</ele><time>2026-05-01T04:16:47.001Z</time></trkpt><trkpt lat="46.34407321165994" lon="11.28020763672931"><ele>216.5</ele><time>2026-05-01T04:16:48.001Z</time></trkpt><trkpt lat="46.344371372835234" lon="11.280318392815946"><ele>216.0</ele><time>2026-05-01T04:16:49Z</time></trkpt><trkpt lat="46.34466775559329" lon="11.280430518099715"><ele>216.0</ele><time>2026-05-01T04:16:50Z</time></trkpt><trkpt lat="46.34496505474255" lon="11.280549252178615"><ele>216.0</ele><time>2026-05-01T04:16:51Z</time></trkpt><trkpt lat="46.345259740873495" lon="11.280677873304436"><ele>216.0</ele><time>2026-05-01T04:16:52Z</time></trkpt><trkpt lat="46.345551984446004" lon="11.280816769370615"><ele>216.0</ele><time>2026-05-01T04:16:53Z</time></trkpt><trkpt lat="46.34584169005828" lon="11.280965122770356"><ele>216.0</ele><time>2026-05-01T04:16:54Z</time></trkpt><trkpt lat="46.3461315308682" lon="11.281120991856406"><ele>216.0</ele><time>2026-05-01T04:16:55Z</time></trkpt><trkpt lat="46.34641990765707" lon="11.281286486931663"><ele>217.0</ele><time>2026-05-01T04:16:56Z</time></trkpt><trkpt lat="46.346705806160436" lon="11.281460665431473"><ele>218.0</ele><time>2026-05-01T04:16:57Z</time></trkpt><trkpt lat="46.346990490791626" lon="11.281642251438221"><ele>217.5</ele><time>2026-05-01T04:16:58Z</time></trkpt><trkpt lat="46.34727392699381" lon="11.281826834477334"><ele>217.0</ele><time>2026-05-01T04:16:59Z</time></trkpt><trkpt lat="46.347556092315216" lon="11.282011910758959"><ele>217.0</ele><time>2026-05-01T04:17:00Z</time></trkpt><trkpt lat="46.34783746394162" lon="11.28220120911847"><ele>217.0</ele><time>2026-05-01T04:17:01Z</time></trkpt><trkpt lat="46.34811555031915" lon="11.282395767830392"><ele>219.0</ele><time>2026-05-01T04:17:02Z</time></trkpt><trkpt lat="46.34839035375279" lon="11.282596982479362"><ele>221.0</ele><time>2026-05-01T04:17:03Z</time></trkpt><trkpt lat="46.34866506932642" lon="11.282802180128375"><ele>220.0</ele><time>2026-05-01T04:17:04Z</time></trkpt><trkpt lat="46.3489369418458" lon="11.283005864468446"><ele>219.0</ele><time>2026-05-01T04:17:05Z</time></trkpt><trkpt lat="46.349198275677495" lon="11.283201953029948"><ele>219.0</ele><time>2026-05-01T04:17:06Z</time></trkpt><trkpt lat="46.349457258160285" lon="11.283389530461973"><ele>219.0</ele><time>2026-05-01T04:17:07Z</time></trkpt><trkpt lat="46.34971947967263" lon="11.283583542212705"><ele>219.0</ele><time>2026-05-01T04:17:08Z</time></trkpt><trkpt lat="46.34998181128643" lon="11.283775009292063"><ele>219.0</ele><time>2026-05-01T04:17:09Z</time></trkpt><trkpt lat="46.350246778867444" lon="11.283967888277987"><ele>219.0</ele><time>2026-05-01T04:17:10Z</time></trkpt><trkpt lat="46.35051325798021" lon="11.28416177739757"><ele>219.0</ele><time>2026-05-01T04:17:11Z</time></trkpt><trkpt lat="46.350779671669166" lon="11.284354291778222"><ele>220.0</ele><time>2026-05-01T04:17:12Z</time></trkpt><trkpt lat="46.35104664509548" lon="11.284547963302112"><ele>221.0</ele><time>2026-05-01T04:17:13Z</time></trkpt><trkpt lat="46.35131253740132" lon="11.28474308197691"><ele>222.0</ele><time>2026-05-01T04:17:14Z</time></trkpt><trkpt lat="46.35158133556322" lon="11.284940188502187"><ele>223.0</ele><time>2026-05-01T04:17:15Z</time></trkpt><trkpt lat="46.351848752876954" lon="11.28513727045279"><ele>223.0</ele><time>2026-05-01T04:17:16Z</time></trkpt><trkpt lat="46.35211944285694" lon="11.285329372280644"><ele>223.0</ele><time>2026-05-01T04:17:17Z</time></trkpt><trkpt lat="46.35239366544998" lon="11.28551589508595"><ele>222.0</ele><time>2026-05-01T04:17:18Z</time></trkpt><trkpt lat="46.35267014108668" lon="11.285696810136848"><ele>221.0</ele><time>2026-05-01T04:17:19Z</time></trkpt><trkpt lat="46.35295059525181" lon="11.285875118552973"><ele>220.5</ele><time>2026-05-01T04:17:20Z</time></trkpt><trkpt lat="46.353234473001635" lon="11.286052358880795"><ele>220.0</ele><time>2026-05-01T04:17:21Z</time></trkpt><trkpt lat="46.353519615904546" lon="11.286226768520061"><ele>220.0</ele><time>2026-05-01T04:17:22Z</time></trkpt><trkpt lat="46.353806404614254" lon="11.286393766050672"><ele>220.0</ele><time>2026-05-01T04:17:23Z</time></trkpt><trkpt lat="46.35409661271558" lon="11.286551940881546"><ele>224.0</ele><time>2026-05-01T04:17:24Z</time></trkpt><trkpt lat="46.3543893207041" lon="11.286704598279647"><ele>228.0</ele><time>2026-05-01T04:17:25Z</time></trkpt><trkpt lat="46.354684893951486" lon="11.286850883293695"><ele>238.5</ele><time>2026-05-01T04:17:26Z</time></trkpt><trkpt lat="46.35498385234927" lon="11.286992810396509"><ele>249.0</ele><time>2026-05-01T04:17:27Z</time></trkpt><trkpt lat="46.355285525614775" lon="11.287129092325362"><ele>236.0</ele><time>2026-05-01T04:17:28Z</time></trkpt><trkpt lat="46.35558756794401" lon="11.287262625007388"><ele>223.0</ele><time>2026-05-01T04:17:29Z</time></trkpt><trkpt lat="46.3558924206922" lon="11.287390867149833"><ele>223.0</ele><time>2026-05-01T04:17:30Z</time></trkpt><trkpt lat="46.35619721481999" lon="11.287513740599728"><ele>223.0</ele><time>2026-05-01T04:17:31Z</time></trkpt><trkpt lat="46.35650439247064" lon="11.287630709255422"><ele>219.5</ele><time>2026-05-01T04:17:32Z</time></trkpt><trkpt lat="46.356807950809625" lon="11.28773882105655"><ele>216.0</ele><time>2026-05-01T04:17:33Z</time></trkpt><trkpt lat="46.35710874204476" lon="11.28784270998266"><ele>217.5</ele><time>2026-05-01T04:17:34Z</time></trkpt><trkpt lat="46.357408650209884" lon="11.287947971619444"><ele>219.0</ele><time>2026-05-01T04:17:35Z</time></trkpt><trkpt lat="46.35771113629406" lon="11.288057654185458"><ele>219.0</ele><time>2026-05-01T04:17:36Z</time></trkpt><trkpt lat="46.3580158114784" lon="11.288168018077315"><ele>219.0</ele><time>2026-05-01T04:17:37Z</time></trkpt><trkpt lat="46.35832095399998" lon="11.288282637642562"><ele>219.0</ele><time>2026-05-01T04:17:38Z</time></trkpt><trkpt lat="46.358626274490334" lon="11.288396702265805"><ele>219.0</ele><time>2026-05-01T04:17:39Z</time></trkpt><trkpt lat="46.358931567717185" lon="11.288511434535897"><ele>220.5</ele><time>2026-05-01T04:17:40Z</time></trkpt><trkpt lat="46.35923622521813" lon="11.288620953560642"><ele>222.0</ele><time>2026-05-01T04:17:41Z</time></trkpt><trkpt lat="46.359541639135955" lon="11.288730506312028"><ele>222.0</ele><time>2026-05-01T04:17:42Z</time></trkpt><trkpt lat="46.3598479790012" lon="11.28884174858132"><ele>222.0</ele><time>2026-05-01T04:17:43Z</time></trkpt><trkpt lat="46.360153573955415" lon="11.288949273868655"><ele>222.0</ele><time>2026-05-01T04:17:44Z</time></trkpt><trkpt lat="46.36045798252275" lon="11.289056742417936"><ele>222.0</ele><time>2026-05-01T04:17:45Z</time></trkpt><trkpt lat="46.360762672505516" lon="11.28916707188281"><ele>221.0</ele><time>2026-05-01T04:17:46Z</time></trkpt><trkpt lat="46.36106712582091" lon="11.289278870283797"><ele>220.0</ele><time>2026-05-01T04:17:47Z</time></trkpt><trkpt lat="46.36137044899761" lon="11.289392366049894"><ele>222.0</ele><time>2026-05-01T04:17:48Z</time></trkpt><trkpt lat="46.36167213769094" lon="11.289504753870048"><ele>224.0</ele><time>2026-05-01T04:17:49.001Z</time></trkpt><trkpt lat="46.36197307540643" lon="11.289613677842203"><ele>223.0</ele><time>2026-05-01T04:17:50.001Z</time></trkpt><trkpt lat="46.362275630280244" lon="11.289716920736208"><ele>222.0</ele><time>2026-05-01T04:17:51.001Z</time></trkpt><trkpt lat="46.3625797102992" lon="11.289812083582085"><ele>221.0</ele><time>2026-05-01T04:17:52.001Z</time></trkpt><trkpt lat="46.3628870157322" lon="11.289901376646583"><ele>220.0</ele><time>2026-05-01T04:17:53.001Z</time></trkpt><trkpt lat="46.36319565067996" lon="11.28998218050932"><ele>219.5</ele><time>2026-05-01T04:17:54.001Z</time></trkpt><trkpt lat="46.36350626294359" lon="11.290057797851277"><ele>219.0</ele><time>2026-05-01T04:17:55.001Z</time></trkpt><trkpt lat="46.36381772638451" lon="11.290129081203686"><ele>221.5</ele><time>2026-05-01T04:17:56.001Z</time></trkpt><trkpt lat="46.364129355244664" lon="11.290193779006966"><ele>224.0</ele><time>2026-05-01T04:17:57.001Z</time></trkpt><trkpt lat="46.36444328249624" lon="11.290251504676808"><ele>224.5</ele><time>2026-05-01T04:17:58.001Z</time></trkpt><trkpt lat="46.364757250418556" lon="11.29030179520077"><ele>225.0</ele><time>2026-05-01T04:17:59.001Z</time></trkpt><trkpt lat="46.36507137023257" lon="11.29034425938595"><ele>225.0</ele><time>2026-05-01T04:18:00.001Z</time></trkpt><trkpt lat="46.36538564604794" lon="11.29038264401703"><ele>225.0</ele><time>2026-05-01T04:18:01.001Z</time></trkpt><trkpt lat="46.36570228015271" lon="11.29041531086546"><ele>233.0</ele><time>2026-05-01T04:18:02.001Z</time></trkpt><trkpt lat="46.366017368969615" lon="11.29044526771516"><ele>241.0</ele><time>2026-05-01T04:18:03.001Z</time></trkpt><trkpt lat="46.36633340392853" lon="11.290469327804901"><ele>246.0</ele><time>2026-05-01T04:18:04.001Z</time></trkpt><trkpt lat="46.366651020883594" lon="11.290492442428356"><ele>251.0</ele><time>2026-05-01T04:18:05.001Z</time></trkpt><trkpt lat="46.36696757200077" lon="11.290511742556458"><ele>244.0</ele><time>2026-05-01T04:18:06.001Z</time></trkpt><trkpt lat="46.36728480134543" lon="11.290527766194373"><ele>237.0</ele><time>2026-05-01T04:18:07.001Z</time></trkpt><trkpt lat="46.3676034202311" lon="11.290543870724791"><ele>237.0</ele><time>2026-05-01T04:18:08.001Z</time></trkpt><trkpt lat="46.367919237238354" lon="11.290562673305383"><ele>237.0</ele><time>2026-05-01T04:18:09.001Z</time></trkpt><trkpt lat="46.36823505090529" lon="11.290582324512156"><ele>233.0</ele><time>2026-05-01T04:18:10.001Z</time></trkpt><trkpt lat="46.36854888904676" lon="11.290597858531171"><ele>229.0</ele><time>2026-05-01T04:18:11.001Z</time></trkpt><trkpt lat="46.368863425642466" lon="11.29060952175479"><ele>229.0</ele><time>2026-05-01T04:18:12.001Z</time></trkpt><trkpt lat="46.36917561990398" lon="11.290614097990087"><ele>229.0</ele><time>2026-05-01T04:18:13.001Z</time></trkpt><trkpt lat="46.36948785033761" lon="11.290610805687965"><ele>226.5</ele><time>2026-05-01T04:18:14.001Z</time></trkpt><trkpt lat="46.36979608514235" lon="11.290609488748746"><ele>224.0</ele><time>2026-05-01T04:18:15.001Z</time></trkpt><trkpt lat="46.37010556461712" lon="11.2906120114493"><ele>224.0</ele><time>2026-05-01T04:18:16.001Z</time></trkpt><trkpt lat="46.370413862229775" lon="11.290614692276566"><ele>224.0</ele><time>2026-05-01T04:18:17.001Z</time></trkpt><trkpt lat="46.370721776828205" lon="11.290611676561351"><ele>223.0</ele><time>2026-05-01T04:18:18.001Z</time></trkpt><trkpt lat="46.371030497110475" lon="11.290605338477834"><ele>222.0</ele><time>2026-05-01T04:18:19.001Z</time></trkpt><trkpt lat="46.371339543646755" lon="11.290596051963384"><ele>226.0</ele><time>2026-05-01T04:18:20.001Z</time></trkpt><trkpt lat="46.37165074458563" lon="11.290586468384841"><ele>230.0</ele><time>2026-05-01T04:18:21.001Z</time></trkpt><trkpt lat="46.37196068971392" lon="11.290577147101054"><ele>232.5</ele><time>2026-05-01T04:18:22.001Z</time></trkpt><trkpt lat="46.37226839294185" lon="11.290565854414504"><ele>235.0</ele><time>2026-05-01T04:18:23.001Z</time></trkpt><trkpt lat="46.37256995538642" lon="11.290557555460843"><ele>235.0</ele><time>2026-05-01T04:18:24.001Z</time></trkpt><trkpt lat="46.3728623107429" lon="11.290551307458625"><ele>235.0</ele><time>2026-05-01T04:18:25.001Z</time></trkpt><trkpt lat="46.37316436019555" lon="11.290550540910193"><ele>230.5</ele><time>2026-05-01T04:18:26.001Z</time></trkpt><trkpt lat="46.373471039403114" lon="11.290551841671677"><ele>226.0</ele><time>2026-05-01T04:18:27.001Z</time></trkpt><trkpt lat="46.373779010419334" lon="11.290559216974083"><ele>228.0</ele><time>2026-05-01T04:18:28.001Z</time></trkpt><trkpt lat="46.374088824375036" lon="11.290579384785234"><ele>230.0</ele><time>2026-05-01T04:18:29.001Z</time></trkpt><trkpt lat="46.37440009879251" lon="11.290611257735103"><ele>226.5</ele><time>2026-05-01T04:18:30.001Z</time></trkpt><trkpt lat="46.37471004218436" lon="11.290653619492906"><ele>223.0</ele><time>2026-05-01T04:18:31.001Z</time></trkpt><trkpt lat="46.37502163047596" lon="11.290703717404453"><ele>223.0</ele><time>2026-05-01T04:18:32.001Z</time></trkpt><trkpt lat="46.37533575211622" lon="11.29076295695627"><ele>223.0</ele><time>2026-05-01T04:18:33.001Z</time></trkpt><trkpt lat="46.375648504490556" lon="11.290825392254071"><ele>223.5</ele><time>2026-05-01T04:18:34.001Z</time></trkpt><trkpt lat="46.37596165426561" lon="11.290891741006641"><ele>224.0</ele><time>2026-05-01T04:18:35.001Z</time></trkpt><trkpt lat="46.37627530474889" lon="11.290963557644357"><ele>222.5</ele><time>2026-05-01T04:18:36.001Z</time></trkpt><trkpt lat="46.3765872849806" lon="11.291037523328573"><ele>221.0</ele><time>2026-05-01T04:18:37.001Z</time></trkpt><trkpt lat="46.376897929504615" lon="11.291115957536629"><ele>222.5</ele><time>2026-05-01T04:18:38.001Z</time></trkpt><trkpt lat="46.37720906049736" lon="11.291198840018327"><ele>224.0</ele><time>2026-05-01T04:18:39.001Z</time></trkpt><trkpt lat="46.377521620443105" lon="11.291281102727043"><ele>224.0</ele><time>2026-05-01T04:18:40.001Z</time></trkpt><trkpt lat="46.377833456603" lon="11.29136126756054"><ele>224.0</ele><time>2026-05-01T04:18:41.001Z</time></trkpt><trkpt lat="46.37814653517194" lon="11.29144235052574"><ele>223.5</ele><time>2026-05-01T04:18:42.001Z</time></trkpt><trkpt lat="46.37846072061619" lon="11.29152318144111"><ele>223.0</ele><time>2026-05-01T04:18:43.001Z</time></trkpt><trkpt lat="46.37877722958579" lon="11.29160163182307"><ele>221.5</ele><time>2026-05-01T04:18:44.001Z</time></trkpt><trkpt lat="46.37909130884096" lon="11.291680987134475"><ele>220.0</ele><time>2026-05-01T04:18:45.001Z</time></trkpt><trkpt lat="46.379405598397454" lon="11.29176042507116"><ele>221.0</ele><time>2026-05-01T04:18:46.001Z</time></trkpt><trkpt lat="46.37971997018163" lon="11.291841298761423"><ele>222.0</ele><time>2026-05-01T04:18:47.001Z</time></trkpt><trkpt lat="46.380034267343135" lon="11.291921810246262"><ele>222.0</ele><time>2026-05-01T04:18:48.001Z</time></trkpt><trkpt lat="46.38034640655584" lon="11.291999097903702"><ele>222.0</ele><time>2026-05-01T04:18:49.001Z</time></trkpt><trkpt lat="46.38066024101318" lon="11.2920773653228"><ele>220.5</ele><time>2026-05-01T04:18:50.001Z</time></trkpt><trkpt lat="46.380972415193185" lon="11.29215648716164"><ele>219.0</ele><time>2026-05-01T04:18:51.001Z</time></trkpt><trkpt lat="46.38128103756095" lon="11.2922339460137"><ele>219.5</ele><time>2026-05-01T04:18:52.001Z</time></trkpt><trkpt lat="46.381591045236554" lon="11.292311991726852"><ele>220.0</ele><time>2026-05-01T04:18:53.001Z</time></trkpt><trkpt lat="46.38190032170895" lon="11.292390770994354"><ele>220.0</ele><time>2026-05-01T04:18:54.001Z</time></trkpt><trkpt lat="46.382207076733884" lon="11.292467974856782"><ele>220.0</ele><time>2026-05-01T04:18:55Z</time></trkpt><trkpt lat="46.38251182812378" lon="11.29253746937259"><ele>220.0</ele><time>2026-05-01T04:18:56Z</time></trkpt><trkpt lat="46.382816767750164" lon="11.292604634745151"><ele>220.0</ele><time>2026-05-01T04:18:57Z</time></trkpt><trkpt lat="46.383118779857526" lon="11.292662800763559"><ele>220.0</ele><time>2026-05-01T04:18:58Z</time></trkpt><trkpt lat="46.383420102939766" lon="11.29272649690684"><ele>220.0</ele><time>2026-05-01T04:18:59Z</time></trkpt><trkpt lat="46.38371833599231" lon="11.29279559983106"><ele>221.0</ele><time>2026-05-01T04:19:00Z</time></trkpt><trkpt lat="46.38401535636957" lon="11.292869117389245"><ele>222.0</ele><time>2026-05-01T04:19:01Z</time></trkpt><trkpt lat="46.38430824794918" lon="11.292944269378596"><ele>222.0</ele><time>2026-05-01T04:19:02Z</time></trkpt><trkpt lat="46.38459968256828" lon="11.293016127607245"><ele>222.0</ele><time>2026-05-01T04:19:03Z</time></trkpt><trkpt lat="46.384889581102485" lon="11.293086815531023"><ele>222.5</ele><time>2026-05-01T04:19:04Z</time></trkpt><trkpt lat="46.38517561037838" lon="11.29316117077445"><ele>223.0</ele><time>2026-05-01T04:19:05Z</time></trkpt><trkpt lat="46.38546271805663" lon="11.293234540724654"><ele>224.0</ele><time>2026-05-01T04:19:06Z</time></trkpt><trkpt lat="46.385746969704805" lon="11.293307560666777"><ele>225.0</ele><time>2026-05-01T04:19:07Z</time></trkpt><trkpt lat="46.38603094671663" lon="11.293387795458631"><ele>225.0</ele><time>2026-05-01T04:19:08Z</time></trkpt><trkpt lat="46.38631527896646" lon="11.293475693310503"><ele>225.0</ele><time>2026-05-01T04:19:09Z</time></trkpt><trkpt lat="46.3866046133654" lon="11.293560621651624"><ele>224.5</ele><time>2026-05-01T04:19:10Z</time></trkpt><trkpt lat="46.386899758836584" lon="11.293644574584322"><ele>224.0</ele><time>2026-05-01T04:19:11Z</time></trkpt><trkpt lat="46.3871976172849" lon="11.293720476347838"><ele>224.0</ele><time>2026-05-01T04:19:12Z</time></trkpt><trkpt lat="46.387498063304406" lon="11.29379455221153"><ele>224.0</ele><time>2026-05-01T04:19:13Z</time></trkpt><trkpt lat="46.38779838147806" lon="11.29386647858759"><ele>223.5</ele><time>2026-05-01T04:19:14Z</time></trkpt><trkpt lat="46.38810156156897" lon="11.293940852415966"><ele>223.0</ele><time>2026-05-01T04:19:15Z</time></trkpt><trkpt lat="46.38840425338482" lon="11.294017858665299"><ele>223.0</ele><time>2026-05-01T04:19:16Z</time></trkpt><trkpt lat="46.38870628485075" lon="11.29409313740227"><ele>223.0</ele><time>2026-05-01T04:19:17Z</time></trkpt><trkpt lat="46.38901106217899" lon="11.294170568507276"><ele>223.0</ele><time>2026-05-01T04:19:18Z</time></trkpt><trkpt lat="46.38931544024564" lon="11.294249333434703"><ele>223.0</ele><time>2026-05-01T04:19:19Z</time></trkpt><trkpt lat="46.389619666763984" lon="11.294327321083216"><ele>222.0</ele><time>2026-05-01T04:19:20Z</time></trkpt><trkpt lat="46.3899248909403" lon="11.294402127310875"><ele>221.0</ele><time>2026-05-01T04:19:21Z</time></trkpt><trkpt lat="46.39022721914133" lon="11.294480538211026"><ele>221.5</ele><time>2026-05-01T04:19:22Z</time></trkpt><trkpt lat="46.390532056738124" lon="11.294557617554045"><ele>222.0</ele><time>2026-05-01T04:19:23Z</time></trkpt><trkpt lat="46.39083436199722" lon="11.294634615057785"><ele>222.0</ele><time>2026-05-01T04:19:24Z</time></trkpt><trkpt lat="46.39113030184618" lon="11.294710285487472"><ele>222.0</ele><time>2026-05-01T04:19:25Z</time></trkpt><trkpt lat="46.3914174783521" lon="11.294783292177456"><ele>223.5</ele><time>2026-05-01T04:19:26Z</time></trkpt><trkpt lat="46.39171494416387" lon="11.29485903925143"><ele>225.0</ele><time>2026-05-01T04:19:27Z</time></trkpt><trkpt lat="46.39201595686794" lon="11.294938811759675"><ele>225.5</ele><time>2026-05-01T04:19:28Z</time></trkpt><trkpt lat="46.39231944149182" lon="11.295014867848797"><ele>226.0</ele><time>2026-05-01T04:19:29Z</time></trkpt><trkpt lat="46.3926235844302" lon="11.295093876221893"><ele>226.0</ele><time>2026-05-01T04:19:30Z</time></trkpt><trkpt lat="46.39292917388581" lon="11.295179029159252"><ele>226.0</ele><time>2026-05-01T04:19:31Z</time></trkpt><trkpt lat="46.39323131243539" lon="11.29527074168928"><ele>225.0</ele><time>2026-05-01T04:19:32Z</time></trkpt><trkpt lat="46.3935309416338" lon="11.295369791851126"><ele>224.0</ele><time>2026-05-01T04:19:33Z</time></trkpt><trkpt lat="46.39383109902949" lon="11.295475321424268"><ele>224.5</ele><time>2026-05-01T04:19:34Z</time></trkpt><trkpt lat="46.39412831125661" lon="11.295591191404176"><ele>225.0</ele><time>2026-05-01T04:19:35Z</time></trkpt><trkpt lat="46.394423513582794" lon="11.295717172531175"><ele>225.0</ele><time>2026-05-01T04:19:36Z</time></trkpt><trkpt lat="46.3947207395811" lon="11.29584915318348"><ele>225.0</ele><time>2026-05-01T04:19:37Z</time></trkpt><trkpt lat="46.39501249294475" lon="11.29599240007076"><ele>225.0</ele><time>2026-05-01T04:19:38Z</time></trkpt><trkpt lat="46.39530576980317" lon="11.296146378237289"><ele>225.0</ele><time>2026-05-01T04:19:39Z</time></trkpt><trkpt lat="46.395597604838386" lon="11.296305839745813"><ele>224.5</ele><time>2026-05-01T04:19:40Z</time></trkpt><trkpt lat="46.3958890530341" lon="11.29647393101374"><ele>224.0</ele><time>2026-05-01T04:19:41Z</time></trkpt><trkpt lat="46.396180152042845" lon="11.296647112116805"><ele>224.0</ele><time>2026-05-01T04:19:42Z</time></trkpt><trkpt lat="46.396469859762604" lon="11.296825835167152"><ele>224.0</ele><time>2026-05-01T04:19:43Z</time></trkpt><trkpt lat="46.39675919365475" lon="11.297008628777526"><ele>224.0</ele><time>2026-05-01T04:19:44Z</time></trkpt><trkpt lat="46.39704482633018" lon="11.297194095689548"><ele>224.0</ele><time>2026-05-01T04:19:45Z</time></trkpt><trkpt lat="46.39733007616522" lon="11.297381521226944"><ele>223.5</ele><time>2026-05-01T04:19:46Z</time></trkpt><trkpt lat="46.39761433458672" lon="11.297570483229062"><ele>223.0</ele><time>2026-05-01T04:19:47Z</time></trkpt><trkpt lat="46.397897803534995" lon="11.2977566639402"><ele>223.0</ele><time>2026-05-01T04:19:48Z</time></trkpt><trkpt lat="46.39818079286975" lon="11.297942529113334"><ele>223.0</ele><time>2026-05-01T04:19:49Z</time></trkpt><trkpt lat="46.3984634363297" lon="11.298127496818068"><ele>222.5</ele><time>2026-05-01T04:19:50Z</time></trkpt><trkpt lat="46.3987444386427" lon="11.298313080934552"><ele>222.0</ele><time>2026-05-01T04:19:51Z</time></trkpt><trkpt lat="46.3990259047181" lon="11.29850007473082"><ele>222.0</ele><time>2026-05-01T04:19:52Z</time></trkpt><trkpt lat="46.39930861349688" lon="11.298685460856394"><ele>222.0</ele><time>2026-05-01T04:19:53Z</time></trkpt><trkpt lat="46.39959256030058" lon="11.298868382604706"><ele>222.5</ele><time>2026-05-01T04:19:54Z</time></trkpt><trkpt lat="46.39987594709158" lon="11.299051021332323"><ele>223.0</ele><time>2026-05-01T04:19:55Z</time></trkpt><trkpt lat="46.40015905599791" lon="11.299236971880497"><ele>223.0</ele><time>2026-05-01T04:19:56Z</time></trkpt><trkpt lat="46.40043933236422" lon="11.299422265882397"><ele>223.0</ele><time>2026-05-01T04:19:57Z</time></trkpt><trkpt lat="46.40072197549014" lon="11.299606426249415"><ele>223.0</ele><time>2026-05-01T04:19:58Z</time></trkpt><trkpt lat="46.401006400691294" lon="11.299790448207691"><ele>223.0</ele><time>2026-05-01T04:19:59Z</time></trkpt><trkpt lat="46.40128882483108" lon="11.299972316071466"><ele>222.0</ele><time>2026-05-01T04:20:00.001Z</time></trkpt><trkpt lat="46.401570633367605" lon="11.300156260745997"><ele>221.0</ele><time>2026-05-01T04:20:01.001Z</time></trkpt><trkpt lat="46.40185239993305" lon="11.300342059412333"><ele>221.0</ele><time>2026-05-01T04:20:02.001Z</time></trkpt><trkpt lat="46.402133221530015" lon="11.30052723878311"><ele>221.0</ele><time>2026-05-01T04:20:03.001Z</time></trkpt><trkpt lat="46.40241706954124" lon="11.300712123667763"><ele>222.5</ele><time>2026-05-01T04:20:04.001Z</time></trkpt><trkpt lat="46.40269909646615" lon="11.300892854283049"><ele>224.0</ele><time>2026-05-01T04:20:05.001Z</time></trkpt><trkpt lat="46.40298345707043" lon="11.301078083572552"><ele>223.0</ele><time>2026-05-01T04:20:06.001Z</time></trkpt><trkpt lat="46.403266037363856" lon="11.301261802036615"><ele>222.0</ele><time>2026-05-01T04:20:07.001Z</time></trkpt><trkpt lat="46.40354960941685" lon="11.301445745835592"><ele>221.5</ele><time>2026-05-01T04:20:08.001Z</time></trkpt><trkpt lat="46.403833122018355" lon="11.301630072235094"><ele>221.0</ele><time>2026-05-01T04:20:09.001Z</time></trkpt><trkpt lat="46.404116347066854" lon="11.301813182931129"><ele>221.0</ele><time>2026-05-01T04:20:10.001Z</time></trkpt><trkpt lat="46.404398849378104" lon="11.301998290019359"><ele>221.0</ele><time>2026-05-01T04:20:11.001Z</time></trkpt><trkpt lat="46.40467959757958" lon="11.302180899735305"><ele>223.0</ele><time>2026-05-01T04:20:12.001Z</time></trkpt><trkpt lat="46.40496143253614" lon="11.302361434822563"><ele>225.0</ele><time>2026-05-01T04:20:13.001Z</time></trkpt><trkpt lat="46.40524313117553" lon="11.302542309148787"><ele>223.5</ele><time>2026-05-01T04:20:14.001Z</time></trkpt><trkpt lat="46.40552468632245" lon="11.3027230103551"><ele>222.0</ele><time>2026-05-01T04:20:15.001Z</time></trkpt><trkpt lat="46.40580525759431" lon="11.302904016831077"><ele>222.0</ele><time>2026-05-01T04:20:16.001Z</time></trkpt><trkpt lat="46.40608666228895" lon="11.303085825680622"><ele>222.0</ele><time>2026-05-01T04:20:17.001Z</time></trkpt><trkpt lat="46.40636681165321" lon="11.303267920709676"><ele>222.0</ele><time>2026-05-01T04:20:18.001Z</time></trkpt><trkpt lat="46.40664720438186" lon="11.303451559136784"><ele>222.0</ele><time>2026-05-01T04:20:19.001Z</time></trkpt><trkpt lat="46.40693037184954" lon="11.303635656344815"><ele>223.0</ele><time>2026-05-01T04:20:20.001Z</time></trkpt><trkpt lat="46.40721240312134" lon="11.303821723965484"><ele>224.0</ele><time>2026-05-01T04:20:21.001Z</time></trkpt><trkpt lat="46.40749568445433" lon="11.30400789376349"><ele>224.0</ele><time>2026-05-01T04:20:22.001Z</time></trkpt><trkpt lat="46.407779058408025" lon="11.304192842266223"><ele>224.0</ele><time>2026-05-01T04:20:23.001Z</time></trkpt><trkpt lat="46.408064031383304" lon="11.30437931941067"><ele>224.0</ele><time>2026-05-01T04:20:24.001Z</time></trkpt><trkpt lat="46.40834978464222" lon="11.304568063754562"><ele>224.0</ele><time>2026-05-01T04:20:25.001Z</time></trkpt><trkpt lat="46.40863442238423" lon="11.304757059482927"><ele>224.0</ele><time>2026-05-01T04:20:26.001Z</time></trkpt><trkpt lat="46.4089187423462" lon="11.304944704521384"><ele>224.0</ele><time>2026-05-01T04:20:27.001Z</time></trkpt><trkpt lat="46.409204098380755" lon="11.305123428813467"><ele>224.0</ele><time>2026-05-01T04:20:28.001Z</time></trkpt><trkpt lat="46.40949062631128" lon="11.305303041861093"><ele>224.0</ele><time>2026-05-01T04:20:29.001Z</time></trkpt><trkpt lat="46.40977843340723" lon="11.30548240279406"><ele>224.0</ele><time>2026-05-01T04:20:30.001Z</time></trkpt><trkpt lat="46.41006698325157" lon="11.30566274864128"><ele>224.0</ele><time>2026-05-01T04:20:31.001Z</time></trkpt><trkpt lat="46.41035021411144" lon="11.305846910591168"><ele>223.5</ele><time>2026-05-01T04:20:32.001Z</time></trkpt><trkpt lat="46.410628989210956" lon="11.306037200263257"><ele>223.0</ele><time>2026-05-01T04:20:33.001Z</time></trkpt><trkpt lat="46.41090362036297" lon="11.306236611909846"><ele>222.5</ele><time>2026-05-01T04:20:34.001Z</time></trkpt><trkpt lat="46.41117310691928" lon="11.306443905509376"><ele>222.0</ele><time>2026-05-01T04:20:35.001Z</time></trkpt><trkpt lat="46.41144722764256" lon="11.3066454821203"><ele>223.0</ele><time>2026-05-01T04:20:36.001Z</time></trkpt><trkpt lat="46.41172730087713" lon="11.306842271463019"><ele>224.0</ele><time>2026-05-01T04:20:37.001Z</time></trkpt><trkpt lat="46.41201030716039" lon="11.307031861035169"><ele>223.5</ele><time>2026-05-01T04:20:38.001Z</time></trkpt><trkpt lat="46.412297596417126" lon="11.307222453872583"><ele>223.0</ele><time>2026-05-01T04:20:39.001Z</time></trkpt><trkpt lat="46.41258625179204" lon="11.307413840825141"><ele>223.0</ele><time>2026-05-01T04:20:40.001Z</time></trkpt><trkpt lat="46.412877216121906" lon="11.307607854215924"><ele>223.0</ele><time>2026-05-01T04:20:41.001Z</time></trkpt><trkpt lat="46.413165845567164" lon="11.30780224504885"><ele>223.0</ele><time>2026-05-01T04:20:42.001Z</time></trkpt><trkpt lat="46.41345201078133" lon="11.307993787011842"><ele>223.0</ele><time>2026-05-01T04:20:43.001Z</time></trkpt><trkpt lat="46.41373896181233" lon="11.308186669615033"><ele>222.5</ele><time>2026-05-01T04:20:44.001Z</time></trkpt><trkpt lat="46.41402536832522" lon="11.308380636080697"><ele>222.0</ele><time>2026-05-01T04:20:45.001Z</time></trkpt><trkpt lat="46.41431101691523" lon="11.308574553911669"><ele>222.0</ele><time>2026-05-01T04:20:46.001Z</time></trkpt><trkpt lat="46.41459603189364" lon="11.308767448958333"><ele>222.0</ele><time>2026-05-01T04:20:47.001Z</time></trkpt><trkpt lat="46.4148801562083" lon="11.308957979568165"><ele>222.5</ele><time>2026-05-01T04:20:48.001Z</time></trkpt><trkpt lat="46.41516077087213" lon="11.309146143508723"><ele>223.0</ele><time>2026-05-01T04:20:49.001Z</time></trkpt><trkpt lat="46.4154316793696" lon="11.309328087987092"><ele>223.0</ele><time>2026-05-01T04:20:50.001Z</time></trkpt><trkpt lat="46.41570615208613" lon="11.309511411857258"><ele>223.0</ele><time>2026-05-01T04:20:51.001Z</time></trkpt><trkpt lat="46.41599072889005" lon="11.309701109590796"><ele>223.0</ele><time>2026-05-01T04:20:52.001Z</time></trkpt><trkpt lat="46.41627765104527" lon="11.309890606967128"><ele>223.0</ele><time>2026-05-01T04:20:53.001Z</time></trkpt><trkpt lat="46.416566366012454" lon="11.310081487240497"><ele>224.0</ele><time>2026-05-01T04:20:54.001Z</time></trkpt><trkpt lat="46.41685603162422" lon="11.31027566491107"><ele>225.0</ele><time>2026-05-01T04:20:55.001Z</time></trkpt><trkpt lat="46.41714382441949" lon="11.310470721586798"><ele>224.0</ele><time>2026-05-01T04:20:56.001Z</time></trkpt><trkpt lat="46.41743115815635" lon="11.310666368935705"><ele>223.0</ele><time>2026-05-01T04:20:57.001Z</time></trkpt><trkpt lat="46.417717299695965" lon="11.310861064365742"><ele>226.0</ele><time>2026-05-01T04:20:58.001Z</time></trkpt><trkpt lat="46.418004542818295" lon="11.31105379941867"><ele>229.0</ele><time>2026-05-01T04:20:59.001Z</time></trkpt><trkpt lat="46.41829177314108" lon="11.311245401765238"><ele>227.5</ele><time>2026-05-01T04:21:00.001Z</time></trkpt><trkpt lat="46.418577802869954" lon="11.311436467447464"><ele>226.0</ele><time>2026-05-01T04:21:01Z</time></trkpt><trkpt lat="46.41886374179194" lon="11.311630043979251"><ele>225.5</ele><time>2026-05-01T04:21:02Z</time></trkpt><trkpt lat="46.4191471497927" lon="11.31182378745879"><ele>225.0</ele><time>2026-05-01T04:21:03Z</time></trkpt><trkpt lat="46.41943025352534" lon="11.312016820486766"><ele>225.5</ele><time>2026-05-01T04:21:04Z</time></trkpt><trkpt lat="46.41971436121242" lon="11.312207731509206"><ele>226.0</ele><time>2026-05-01T04:21:05Z</time></trkpt><trkpt lat="46.41999768263574" lon="11.312396587137927"><ele>227.0</ele><time>2026-05-01T04:21:06Z</time></trkpt><trkpt lat="46.420279444285825" lon="11.312585953738248"><ele>228.0</ele><time>2026-05-01T04:21:07Z</time></trkpt><trkpt lat="46.42056227829811" lon="11.312774173342818"><ele>228.0</ele><time>2026-05-01T04:21:08Z</time></trkpt><trkpt lat="46.420843459590245" lon="11.312962862934842"><ele>228.0</ele><time>2026-05-01T04:21:09Z</time></trkpt><trkpt lat="46.421124254309916" lon="11.31314864598375"><ele>228.0</ele><time>2026-05-01T04:21:10Z</time></trkpt><trkpt lat="46.42140440315179" lon="11.313334926551443"><ele>228.0</ele><time>2026-05-01T04:21:11Z</time></trkpt><trkpt lat="46.42168362981431" lon="11.313521097358432"><ele>228.0</ele><time>2026-05-01T04:21:12Z</time></trkpt><trkpt lat="46.42196399882063" lon="11.313707145709664"><ele>228.0</ele><time>2026-05-01T04:21:13Z</time></trkpt><trkpt lat="46.42224508142477" lon="11.31389223493512"><ele>228.0</ele><time>2026-05-01T04:21:14Z</time></trkpt><trkpt lat="46.422527193790074" lon="11.314064515673023"><ele>228.0</ele><time>2026-05-01T04:21:15Z</time></trkpt><trkpt lat="46.422812624476215" lon="11.314233505181244"><ele>227.0</ele><time>2026-05-01T04:21:16Z</time></trkpt><trkpt lat="46.42310105663729" lon="11.314393249985091"><ele>226.0</ele><time>2026-05-01T04:21:17Z</time></trkpt><trkpt lat="46.423391431119924" lon="11.314556999691618"><ele>226.0</ele><time>2026-05-01T04:21:18Z</time></trkpt><trkpt lat="46.42368482121305" lon="11.314710066675081"><ele>226.0</ele><time>2026-05-01T04:21:19Z</time></trkpt><trkpt lat="46.42398108101255" lon="11.314855435839684"><ele>226.0</ele><time>2026-05-01T04:21:20Z</time></trkpt><trkpt lat="46.424279643155636" lon="11.314997228736187"><ele>226.0</ele><time>2026-05-01T04:21:21Z</time></trkpt><trkpt lat="46.42457943868391" lon="11.315125283716272"><ele>225.5</ele><time>2026-05-01T04:21:22Z</time></trkpt><trkpt lat="46.424882639563016" lon="11.315250874543244"><ele>225.0</ele><time>2026-05-01T04:21:23Z</time></trkpt><trkpt lat="46.425187503100304" lon="11.315362420793583"><ele>226.0</ele><time>2026-05-01T04:21:24Z</time></trkpt><trkpt lat="46.42549384651093" lon="11.315460550040996"><ele>227.0</ele><time>2026-05-01T04:21:25Z</time></trkpt><trkpt lat="46.42580299652906" lon="11.315548708737008"><ele>227.0</ele><time>2026-05-01T04:21:26Z</time></trkpt><trkpt lat="46.42611359835585" lon="11.315621874313019"><ele>227.0</ele><time>2026-05-01T04:21:27Z</time></trkpt><trkpt lat="46.4264235045724" lon="11.315684742471328"><ele>227.0</ele><time>2026-05-01T04:21:28Z</time></trkpt><trkpt lat="46.42673441512746" lon="11.315740584640487"><ele>227.0</ele><time>2026-05-01T04:21:29Z</time></trkpt><trkpt lat="46.4270436030571" lon="11.315798931142115"><ele>225.5</ele><time>2026-05-01T04:21:30Z</time></trkpt><trkpt lat="46.4273516928491" lon="11.315853440981222"><ele>224.0</ele><time>2026-05-01T04:21:31Z</time></trkpt><trkpt lat="46.4276613898537" lon="11.315894687671157"><ele>224.0</ele><time>2026-05-01T04:21:32Z</time></trkpt><trkpt lat="46.427969214508835" lon="11.315939221743264"><ele>224.0</ele><time>2026-05-01T04:21:33Z</time></trkpt><trkpt lat="46.42827511236346" lon="11.315985092558552"><ele>225.5</ele><time>2026-05-01T04:21:34Z</time></trkpt><trkpt lat="46.42857930578174" lon="11.316031460613644"><ele>227.0</ele><time>2026-05-01T04:21:35Z</time></trkpt><trkpt lat="46.42888363545116" lon="11.316075049497055"><ele>227.0</ele><time>2026-05-01T04:21:36Z</time></trkpt><trkpt lat="46.429187555530746" lon="11.316119727174069"><ele>227.0</ele><time>2026-05-01T04:21:37Z</time></trkpt><trkpt lat="46.42948924309261" lon="11.316166293658066"><ele>227.0</ele><time>2026-05-01T04:21:38Z</time></trkpt><trkpt lat="46.42978857731954" lon="11.316208717335721"><ele>227.0</ele><time>2026-05-01T04:21:39Z</time></trkpt><trkpt lat="46.43008721777" lon="11.316255751012099"><ele>227.0</ele><time>2026-05-01T04:21:40Z</time></trkpt><trkpt lat="46.43038577093862" lon="11.316305424962142"><ele>227.0</ele><time>2026-05-01T04:21:41Z</time></trkpt><trkpt lat="46.4306852017152" lon="11.31635473199451"><ele>227.0</ele><time>2026-05-01T04:21:42Z</time></trkpt><trkpt lat="46.43098394139319" lon="11.316398312433368"><ele>227.0</ele><time>2026-05-01T04:21:43Z</time></trkpt><trkpt lat="46.43128629045386" lon="11.316446772006797"><ele>226.5</ele><time>2026-05-01T04:21:44Z</time></trkpt><trkpt lat="46.431589379392584" lon="11.316488946629004"><ele>226.0</ele><time>2026-05-01T04:21:45Z</time></trkpt><trkpt lat="46.43189420271516" lon="11.316531361792224"><ele>226.5</ele><time>2026-05-01T04:21:46Z</time></trkpt><trkpt lat="46.43220004725627" lon="11.316575590508304"><ele>227.0</ele><time>2026-05-01T04:21:47Z</time></trkpt><trkpt lat="46.43250390746677" lon="11.316622920249133"><ele>227.0</ele><time>2026-05-01T04:21:48Z</time></trkpt><trkpt lat="46.43281096797716" lon="11.316671458541164"><ele>227.0</ele><time>2026-05-01T04:21:49Z</time></trkpt><trkpt lat="46.4331156199268" lon="11.31671889090083"><ele>227.5</ele><time>2026-05-01T04:21:50Z</time></trkpt><trkpt lat="46.433422609249845" lon="11.316765178289655"><ele>228.0</ele><time>2026-05-01T04:21:51Z</time></trkpt><trkpt lat="46.4337300729224" lon="11.316808223947042"><ele>229.0</ele><time>2026-05-01T04:21:52Z</time></trkpt><trkpt lat="46.43403743683969" lon="11.316853220759633"><ele>230.0</ele><time>2026-05-01T04:21:53Z</time></trkpt><trkpt lat="46.43434410125304" lon="11.316901644322778"><ele>231.0</ele><time>2026-05-01T04:21:54Z</time></trkpt><trkpt lat="46.43465362127877" lon="11.316947205581544"><ele>232.0</ele><time>2026-05-01T04:21:55Z</time></trkpt><trkpt lat="46.43495990011147" lon="11.316997525926153"><ele>232.0</ele><time>2026-05-01T04:21:56Z</time></trkpt><trkpt lat="46.43526716221379" lon="11.317046351324697"><ele>232.0</ele><time>2026-05-01T04:21:57Z</time></trkpt><trkpt lat="46.43557193336489" lon="11.3170911024667"><ele>231.5</ele><time>2026-05-01T04:21:58Z</time></trkpt><trkpt lat="46.435871588777694" lon="11.317132664879427"><ele>231.0</ele><time>2026-05-01T04:21:59Z</time></trkpt><trkpt lat="46.43616173559022" lon="11.317155462303363"><ele>231.0</ele><time>2026-05-01T04:22:00Z</time></trkpt><trkpt lat="46.43645979366108" lon="11.317185953104264"><ele>231.0</ele><time>2026-05-01T04:22:01Z</time></trkpt><trkpt lat="46.436762714610644" lon="11.317218007333555"><ele>231.0</ele><time>2026-05-01T04:22:02Z</time></trkpt><trkpt lat="46.437069920293816" lon="11.31722957141041"><ele>231.0</ele><time>2026-05-01T04:22:03Z</time></trkpt><trkpt lat="46.43737929462565" lon="11.317228212681172"><ele>231.0</ele><time>2026-05-01T04:22:04Z</time></trkpt><trkpt lat="46.437689393320056" lon="11.317216889632299"><ele>231.0</ele><time>2026-05-01T04:22:05Z</time></trkpt><trkpt lat="46.43798635533265" lon="11.316914549879241"><ele>230.0</ele><time>2026-05-01T04:22:06Z</time></trkpt><trkpt lat="46.438283903518105" lon="11.316882747557626"><ele>229.0</ele><time>2026-05-01T04:22:07Z</time></trkpt><trkpt lat="46.438590740144875" lon="11.31680070074702"><ele>230.0</ele><time>2026-05-01T04:22:08.001Z</time></trkpt><trkpt lat="46.43886148960789" lon="11.316698054771244"><ele>231.0</ele><time>2026-05-01T04:22:09.001Z</time></trkpt><trkpt lat="46.4391583741199" lon="11.31658160525887"><ele>231.0</ele><time>2026-05-01T04:22:10.001Z</time></trkpt><trkpt lat="46.439459157640556" lon="11.316461056890299"><ele>231.0</ele><time>2026-05-01T04:22:11.001Z</time></trkpt><trkpt lat="46.439755430026665" lon="11.316338833408825"><ele>231.0</ele><time>2026-05-01T04:22:12.001Z</time></trkpt><trkpt lat="46.4400596578209" lon="11.316210763982747"><ele>231.0</ele><time>2026-05-01T04:22:13.001Z</time></trkpt><trkpt lat="46.440351587848724" lon="11.31608793556337"><ele>232.0</ele><time>2026-05-01T04:22:14.001Z</time></trkpt><trkpt lat="46.44063973827073" lon="11.315950498704442"><ele>233.0</ele><time>2026-05-01T04:22:15.001Z</time></trkpt><trkpt lat="46.44093637084564" lon="11.3158013432876"><ele>233.0</ele><time>2026-05-01T04:22:16.001Z</time></trkpt><trkpt lat="46.44121908017601" lon="11.315655023336607"><ele>233.0</ele><time>2026-05-01T04:22:17.001Z</time></trkpt><trkpt lat="46.441500312061535" lon="11.315491905403984"><ele>232.5</ele><time>2026-05-01T04:22:18.001Z</time></trkpt><trkpt lat="46.441802725761356" lon="11.315316128675448"><ele>232.0</ele><time>2026-05-01T04:22:19.001Z</time></trkpt><trkpt lat="46.44210556405801" lon="11.315154212605654"><ele>231.5</ele><time>2026-05-01T04:22:20.001Z</time></trkpt><trkpt lat="46.442443370034816" lon="11.315026875551755"><ele>231.0</ele><time>2026-05-01T04:22:21.001Z</time></trkpt><trkpt lat="46.44266357436149" lon="11.31488653509295"><ele>230.5</ele><time>2026-05-01T04:22:22.001Z</time></trkpt><trkpt lat="46.44296387145865" lon="11.314694650157294"><ele>230.0</ele><time>2026-05-01T04:22:23.001Z</time></trkpt><trkpt lat="46.44324722713203" lon="11.314510165741286"><ele>230.0</ele><time>2026-05-01T04:22:24.001Z</time></trkpt><trkpt lat="46.44351641005439" lon="11.314321873139153"><ele>230.0</ele><time>2026-05-01T04:22:25.001Z</time></trkpt><trkpt lat="46.443772398286214" lon="11.31410961375842"><ele>232.0</ele><time>2026-05-01T04:22:26.001Z</time></trkpt><trkpt lat="46.44403444010527" lon="11.313876656591692"><ele>234.0</ele><time>2026-05-01T04:22:27.001Z</time></trkpt><trkpt lat="46.44429605741362" lon="11.313629102195952"><ele>234.0</ele><time>2026-05-01T04:22:28.001Z</time></trkpt><trkpt lat="46.44454823979825" lon="11.313376826221578"><ele>234.0</ele><time>2026-05-01T04:22:29.001Z</time></trkpt><trkpt lat="46.444806187807515" lon="11.31310937644959"><ele>233.0</ele><time>2026-05-01T04:22:30.001Z</time></trkpt><trkpt lat="46.44506664716041" lon="11.312839567520172"><ele>232.0</ele><time>2026-05-01T04:22:31.001Z</time></trkpt><trkpt lat="46.44532920015229" lon="11.312576223088064"><ele>231.5</ele><time>2026-05-01T04:22:32.001Z</time></trkpt><trkpt lat="46.44559292204209" lon="11.312316315070484"><ele>231.0</ele><time>2026-05-01T04:22:33.001Z</time></trkpt><trkpt lat="46.445854103928866" lon="11.312061019008977"><ele>231.5</ele><time>2026-05-01T04:22:34.001Z</time></trkpt><trkpt lat="46.44611874261698" lon="11.31180348261234"><ele>232.0</ele><time>2026-05-01T04:22:35.001Z</time></trkpt><trkpt lat="46.44638176707527" lon="11.311552749507785"><ele>233.5</ele><time>2026-05-01T04:22:36.001Z</time></trkpt><trkpt lat="46.4466443332303" lon="11.31130242825225"><ele>235.0</ele><time>2026-05-01T04:22:37.001Z</time></trkpt><trkpt lat="46.446912149489194" lon="11.311053582102197"><ele>234.0</ele><time>2026-05-01T04:22:38.001Z</time></trkpt><trkpt lat="46.44718596593615" lon="11.310808545551717"><ele>233.0</ele><time>2026-05-01T04:22:39.001Z</time></trkpt><trkpt lat="46.44745279170924" lon="11.310576703500391"><ele>234.5</ele><time>2026-05-01T04:22:40.001Z</time></trkpt><trkpt lat="46.44770475724122" lon="11.310360477099833"><ele>236.0</ele><time>2026-05-01T04:22:41.001Z</time></trkpt><trkpt lat="46.44794289513342" lon="11.310155532953276"><ele>234.5</ele><time>2026-05-01T04:22:42.001Z</time></trkpt><trkpt lat="46.44818179316119" lon="11.30994770211611"><ele>233.0</ele><time>2026-05-01T04:22:43.001Z</time></trkpt><trkpt lat="46.44842269695602" lon="11.309737611242749"><ele>232.0</ele><time>2026-05-01T04:22:44.001Z</time></trkpt><trkpt lat="46.44866069380382" lon="11.30953092641392"><ele>231.0</ele><time>2026-05-01T04:22:45.001Z</time></trkpt><trkpt lat="46.44890072705166" lon="11.309322473032397"><ele>231.0</ele><time>2026-05-01T04:22:46.001Z</time></trkpt><trkpt lat="46.44914942536188" lon="11.309106494711012"><ele>231.0</ele><time>2026-05-01T04:22:47.001Z</time></trkpt><trkpt lat="46.44940346310944" lon="11.308885642623213"><ele>230.5</ele><time>2026-05-01T04:22:48.001Z</time></trkpt><trkpt lat="46.44966137102547" lon="11.308661035064548"><ele>230.0</ele><time>2026-05-01T04:22:49.001Z</time></trkpt><trkpt lat="46.449923767974774" lon="11.308431819735207"><ele>230.0</ele><time>2026-05-01T04:22:50.001Z</time></trkpt><trkpt lat="46.45018721504933" lon="11.308200240251198"><ele>230.0</ele><time>2026-05-01T04:22:51.001Z</time></trkpt><trkpt lat="46.45046148414893" lon="11.307964333157479"><ele>230.5</ele><time>2026-05-01T04:22:52.001Z</time></trkpt><trkpt lat="46.450733135073136" lon="11.307736133806632"><ele>231.0</ele><time>2026-05-01T04:22:53.001Z</time></trkpt><trkpt lat="46.451004706351945" lon="11.307508001506351"><ele>231.0</ele><time>2026-05-01T04:22:54.001Z</time></trkpt><trkpt lat="46.45127467265733" lon="11.307279962165623"><ele>231.0</ele><time>2026-05-01T04:22:55.001Z</time></trkpt><trkpt lat="46.451555869646555" lon="11.3070441296106"><ele>232.0</ele><time>2026-05-01T04:22:56.001Z</time></trkpt><trkpt lat="46.4518372121439" lon="11.306830697737757"><ele>233.0</ele><time>2026-05-01T04:22:57.001Z</time></trkpt><trkpt lat="46.45212285228553" lon="11.306626059214398"><ele>233.0</ele><time>2026-05-01T04:22:58.001Z</time></trkpt><trkpt lat="46.4524036716053" lon="11.30642889483271"><ele>233.0</ele><time>2026-05-01T04:22:59.001Z</time></trkpt><trkpt lat="46.452678384355806" lon="11.306236745915498"><ele>233.0</ele><time>2026-05-01T04:23:00.001Z</time></trkpt><trkpt lat="46.452948163602926" lon="11.306048047856464"><ele>233.0</ele><time>2026-05-01T04:23:01.001Z</time></trkpt><trkpt lat="46.45321869436459" lon="11.305858818787256"><ele>234.0</ele><time>2026-05-01T04:23:02.001Z</time></trkpt><trkpt lat="46.453495875316904" lon="11.305691919670146"><ele>235.0</ele><time>2026-05-01T04:23:03.001Z</time></trkpt><trkpt lat="46.4537741230708" lon="11.305523860045579"><ele>235.5</ele><time>2026-05-01T04:23:04.001Z</time></trkpt><trkpt lat="46.454175634018945" lon="11.305720139761243"><ele>236.0</ele><time>2026-05-01T04:23:05.001Z</time></trkpt><trkpt lat="46.45444801435749" lon="11.305530113687551"><ele>236.0</ele><time>2026-05-01T04:23:06.001Z</time></trkpt><trkpt lat="46.45472269779718" lon="11.305343352248906"><ele>236.0</ele><time>2026-05-01T04:23:07Z</time></trkpt><trkpt lat="46.454999418657394" lon="11.305163484793466"><ele>236.0</ele><time>2026-05-01T04:23:08Z</time></trkpt><trkpt lat="46.455283441685424" lon="11.304991758426272"><ele>236.0</ele><time>2026-05-01T04:23:09Z</time></trkpt><trkpt lat="46.455571090904265" lon="11.3048336172164"><ele>236.0</ele><time>2026-05-01T04:23:10Z</time></trkpt><trkpt lat="46.45586481579479" lon="11.30468917724053"><ele>236.0</ele><time>2026-05-01T04:23:11Z</time></trkpt><trkpt lat="46.456160629607176" lon="11.304557042592997"><ele>236.5</ele><time>2026-05-01T04:23:12Z</time></trkpt><trkpt lat="46.456459570660265" lon="11.304436984325791"><ele>237.0</ele><time>2026-05-01T04:23:13Z</time></trkpt><trkpt lat="46.45676248855079" lon="11.304326988419028"><ele>237.0</ele><time>2026-05-01T04:23:14Z</time></trkpt><trkpt lat="46.45707031913221" lon="11.304227800086789"><ele>237.0</ele><time>2026-05-01T04:23:15Z</time></trkpt><trkpt lat="46.45737929988637" lon="11.304141820126192"><ele>236.5</ele><time>2026-05-01T04:23:16Z</time></trkpt><trkpt lat="46.45769042955222" lon="11.304070759113703"><ele>236.0</ele><time>2026-05-01T04:23:17Z</time></trkpt><trkpt lat="46.45800350672553" lon="11.3040101109189"><ele>236.0</ele><time>2026-05-01T04:23:18Z</time></trkpt><trkpt lat="46.45831594532413" lon="11.303959948133308"><ele>236.0</ele><time>2026-05-01T04:23:19Z</time></trkpt><trkpt lat="46.458629478516684" lon="11.303925700236547"><ele>235.5</ele><time>2026-05-01T04:23:20Z</time></trkpt><trkpt lat="46.458944858011904" lon="11.303915120485069"><ele>235.0</ele><time>2026-05-01T04:23:21Z</time></trkpt><trkpt lat="46.4592601753876" lon="11.303923075780867"><ele>235.0</ele><time>2026-05-01T04:23:22Z</time></trkpt><trkpt lat="46.459576005207566" lon="11.303951478084624"><ele>235.0</ele><time>2026-05-01T04:23:23Z</time></trkpt><trkpt lat="46.45989185855235" lon="11.303983953925302"><ele>235.5</ele><time>2026-05-01T04:23:24Z</time></trkpt><trkpt lat="46.46021047940026" lon="11.304023373399515"><ele>236.0</ele><time>2026-05-01T04:23:25Z</time></trkpt><trkpt lat="46.460526973039634" lon="11.304068102834536"><ele>236.0</ele><time>2026-05-01T04:23:26Z</time></trkpt><trkpt lat="46.46084556411383" lon="11.304126604352776"><ele>236.0</ele><time>2026-05-01T04:23:27Z</time></trkpt><trkpt lat="46.46116202740483" lon="11.304200237878073"><ele>237.0</ele><time>2026-05-01T04:23:28Z</time></trkpt><trkpt lat="46.4614713590066" lon="11.304288940007694"><ele>238.0</ele><time>2026-05-01T04:23:29Z</time></trkpt><trkpt lat="46.46176049683107" lon="11.30438270204961"><ele>238.0</ele><time>2026-05-01T04:23:30Z</time></trkpt><trkpt lat="46.462054429528585" lon="11.304490774175296"><ele>238.0</ele><time>2026-05-01T04:23:31Z</time></trkpt><trkpt lat="46.46235190747691" lon="11.304614339394037"><ele>238.0</ele><time>2026-05-01T04:23:32Z</time></trkpt><trkpt lat="46.46264760610362" lon="11.304749853157048"><ele>238.0</ele><time>2026-05-01T04:23:33Z</time></trkpt><trkpt lat="46.46294235310675" lon="11.30489818523556"><ele>238.0</ele><time>2026-05-01T04:23:34Z</time></trkpt><trkpt lat="46.46323434912983" lon="11.305058867176314"><ele>238.0</ele><time>2026-05-01T04:23:35Z</time></trkpt><trkpt lat="46.46352154850111" lon="11.305233609597428"><ele>238.0</ele><time>2026-05-01T04:23:36Z</time></trkpt><trkpt lat="46.463804690913705" lon="11.305421504203528"><ele>238.0</ele><time>2026-05-01T04:23:37Z</time></trkpt><trkpt lat="46.46408523302848" lon="11.305620223416234"><ele>237.5</ele><time>2026-05-01T04:23:38Z</time></trkpt><trkpt lat="46.46436175538494" lon="11.305831381872732"><ele>237.0</ele><time>2026-05-01T04:23:39Z</time></trkpt><trkpt lat="46.464633885767846" lon="11.306054162808003"><ele>236.5</ele><time>2026-05-01T04:23:40Z</time></trkpt><trkpt lat="46.46490239953986" lon="11.30628703085824"><ele>236.0</ele><time>2026-05-01T04:23:41Z</time></trkpt><trkpt lat="46.465168885894826" lon="11.306532672869011"><ele>236.0</ele><time>2026-05-01T04:23:42Z</time></trkpt><trkpt lat="46.46542994507027" lon="11.306790890419242"><ele>236.0</ele><time>2026-05-01T04:23:43Z</time></trkpt><trkpt lat="46.465683514258956" lon="11.307061954973424"><ele>237.0</ele><time>2026-05-01T04:23:44Z</time></trkpt><trkpt lat="46.46593133377311" lon="11.30734585803226"><ele>238.0</ele><time>2026-05-01T04:23:45Z</time></trkpt><trkpt lat="46.46617498969232" lon="11.307639620118826"><ele>239.0</ele><time>2026-05-01T04:23:46Z</time></trkpt><trkpt lat="46.46641629311361" lon="11.307938348871073"><ele>240.0</ele><time>2026-05-01T04:23:47Z</time></trkpt><trkpt lat="46.46665621561135" lon="11.308238662774492"><ele>240.0</ele><time>2026-05-01T04:23:48Z</time></trkpt><trkpt lat="46.46689295871697" lon="11.308538704703002"><ele>240.0</ele><time>2026-05-01T04:23:49Z</time></trkpt><trkpt lat="46.46712730327294" lon="11.308837468255907"><ele>243.0</ele><time>2026-05-01T04:23:50Z</time></trkpt><trkpt lat="46.46736174320681" lon="11.309136581114693"><ele>246.0</ele><time>2026-05-01T04:23:51Z</time></trkpt><trkpt lat="46.467596940889756" lon="11.309433961665453"><ele>246.0</ele><time>2026-05-01T04:23:52Z</time></trkpt><trkpt lat="46.467830950683776" lon="11.30972871142483"><ele>246.0</ele><time>2026-05-01T04:23:53Z</time></trkpt><trkpt lat="46.4680668197324" lon="11.310018626404439"><ele>243.5</ele><time>2026-05-01T04:23:54Z</time></trkpt><trkpt lat="46.46830641925235" lon="11.310300901325542"><ele>241.0</ele><time>2026-05-01T04:23:55Z</time></trkpt><trkpt lat="46.46854433304529" lon="11.310587015708986"><ele>241.0</ele><time>2026-05-01T04:23:56Z</time></trkpt><trkpt lat="46.46877841339456" lon="11.3108753379752"><ele>241.0</ele><time>2026-05-01T04:23:57Z</time></trkpt><trkpt lat="46.469012038012266" lon="11.311159652348058"><ele>240.0</ele><time>2026-05-01T04:23:58Z</time></trkpt><trkpt lat="46.46924643071942" lon="11.311439636885504"><ele>239.0</ele><time>2026-05-01T04:23:59Z</time></trkpt><trkpt lat="46.469482696492456" lon="11.311712466912292"><ele>239.0</ele><time>2026-05-01T04:24:00Z</time></trkpt><trkpt lat="46.46972269317459" lon="11.311985581340155"><ele>239.0</ele><time>2026-05-01T04:24:01Z</time></trkpt><trkpt lat="46.469963059272175" lon="11.312262147554195"><ele>239.0</ele><time>2026-05-01T04:24:02Z</time></trkpt><trkpt lat="46.47020290062987" lon="11.312538179891511"><ele>239.0</ele><time>2026-05-01T04:24:03Z</time></trkpt><trkpt lat="46.47044583609191" lon="11.312808501817642"><ele>238.0</ele><time>2026-05-01T04:24:04Z</time></trkpt><trkpt lat="46.47069078983393" lon="11.313068430736026"><ele>237.0</ele><time>2026-05-01T04:24:05Z</time></trkpt><trkpt lat="46.470940476140385" lon="11.313319239791708"><ele>236.5</ele><time>2026-05-01T04:24:06Z</time></trkpt><trkpt lat="46.47119476965942" lon="11.313566405835811"><ele>236.0</ele><time>2026-05-01T04:24:07Z</time></trkpt><trkpt lat="46.471452895218384" lon="11.313809841662884"><ele>238.5</ele><time>2026-05-01T04:24:08Z</time></trkpt><trkpt lat="46.471710671365734" lon="11.314047252639098"><ele>241.0</ele><time>2026-05-01T04:24:09Z</time></trkpt><trkpt lat="46.47197097184517" lon="11.314279883889945"><ele>242.0</ele><time>2026-05-01T04:24:10Z</time></trkpt><trkpt lat="46.47223076967099" lon="11.314508493969065"><ele>243.0</ele><time>2026-05-01T04:24:11Z</time></trkpt><trkpt lat="46.472493663860874" lon="11.314732703305454"><ele>243.0</ele><time>2026-05-01T04:24:12Z</time></trkpt><trkpt lat="46.472757747602046" lon="11.314951402543455"><ele>243.0</ele><time>2026-05-01T04:24:13Z</time></trkpt><trkpt lat="46.47302360335182" lon="11.315166471815527"><ele>240.5</ele><time>2026-05-01T04:24:14Z</time></trkpt><trkpt lat="46.47329043722227" lon="11.315379342305553"><ele>238.0</ele><time>2026-05-01T04:24:15Z</time></trkpt><trkpt lat="46.47355524972154" lon="11.315587851031617"><ele>237.5</ele><time>2026-05-01T04:24:16Z</time></trkpt><trkpt lat="46.47382090880329" lon="11.315793979237986"><ele>237.0</ele><time>2026-05-01T04:24:17Z</time></trkpt><trkpt lat="46.474088120750636" lon="11.315999502595375"><ele>237.0</ele><time>2026-05-01T04:24:18Z</time></trkpt><trkpt lat="46.474353198995985" lon="11.316206885357108"><ele>237.0</ele><time>2026-05-01T04:24:19Z</time></trkpt><trkpt lat="46.47461736210623" lon="11.316413536536011"><ele>239.0</ele><time>2026-05-01T04:24:20.001Z</time></trkpt><trkpt lat="46.47487707257528" lon="11.316620635586853"><ele>241.0</ele><time>2026-05-01T04:24:21.001Z</time></trkpt><trkpt lat="46.47513858809628" lon="11.316827735027992"><ele>241.0</ele><time>2026-05-01T04:24:22.001Z</time></trkpt><trkpt lat="46.47539898195176" lon="11.317033425681855"><ele>241.0</ele><time>2026-05-01T04:24:23.001Z</time></trkpt><trkpt lat="46.47565995637214" lon="11.317238779453753"><ele>241.0</ele><time>2026-05-01T04:24:24.001Z</time></trkpt><trkpt lat="46.47592145259378" lon="11.317443022771247"><ele>241.0</ele><time>2026-05-01T04:24:25.001Z</time></trkpt><trkpt lat="46.476163656269335" lon="11.31763383570352"><ele>239.5</ele><time>2026-05-01T04:24:26.001Z</time></trkpt><trkpt lat="46.47639903480334" lon="11.317815340662559"><ele>238.0</ele><time>2026-05-01T04:24:27.001Z</time></trkpt><trkpt lat="46.47663310235595" lon="11.317996953113106"><ele>240.5</ele><time>2026-05-01T04:24:28.001Z</time></trkpt><trkpt lat="46.47686370140102" lon="11.31817547166195"><ele>243.0</ele><time>2026-05-01T04:24:29.001Z</time></trkpt><trkpt lat="46.47709332662065" lon="11.318352757767094"><ele>243.0</ele><time>2026-05-01T04:24:30.001Z</time></trkpt><trkpt lat="46.47731909091574" lon="11.318527821551669"><ele>243.0</ele><time>2026-05-01T04:24:31.001Z</time></trkpt><trkpt lat="46.47754225223031" lon="11.318703312429877"><ele>243.0</ele><time>2026-05-01T04:24:32.001Z</time></trkpt><trkpt lat="46.477761823878524" lon="11.318876057103598"><ele>243.0</ele><time>2026-05-01T04:24:33.001Z</time></trkpt><trkpt lat="46.47798245162003" lon="11.319050866037992"><ele>244.0</ele><time>2026-05-01T04:24:34.001Z</time></trkpt><trkpt lat="46.47819748058488" lon="11.319226227792242"><ele>245.0</ele><time>2026-05-01T04:24:35.001Z</time></trkpt><trkpt lat="46.47841035606722" lon="11.319414447069835"><ele>245.0</ele><time>2026-05-01T04:24:36.001Z</time></trkpt><trkpt lat="46.4786148793238" lon="11.319614700489998"><ele>245.0</ele><time>2026-05-01T04:24:37.001Z</time></trkpt><trkpt lat="46.478809103821725" lon="11.319829530695785"><ele>245.5</ele><time>2026-05-01T04:24:38.001Z</time></trkpt><trkpt lat="46.47899785319283" lon="11.320055687432134"><ele>246.0</ele><time>2026-05-01T04:24:39.001Z</time></trkpt><trkpt lat="46.479179225120134" lon="11.320297243255887"><ele>246.0</ele><time>2026-05-01T04:24:40.001Z</time></trkpt><trkpt lat="46.4793528530288" lon="11.3205511732301"><ele>246.0</ele><time>2026-05-01T04:24:41.001Z</time></trkpt><trkpt lat="46.47952061592543" lon="11.320815600435452"><ele>246.5</ele><time>2026-05-01T04:24:42.001Z</time></trkpt><trkpt lat="46.479683274529066" lon="11.321089551902814"><ele>247.0</ele><time>2026-05-01T04:24:43.001Z</time></trkpt><trkpt lat="46.479843638211676" lon="11.321368958906724"><ele>244.5</ele><time>2026-05-01T04:24:44.001Z</time></trkpt><trkpt lat="46.48000448028753" lon="11.32165295709009"><ele>242.0</ele><time>2026-05-01T04:24:45.001Z</time></trkpt><trkpt lat="46.48017262015786" lon="11.321924346819149"><ele>242.0</ele><time>2026-05-01T04:24:46.001Z</time></trkpt><trkpt lat="46.480337448459856" lon="11.322201267981637"><ele>242.0</ele><time>2026-05-01T04:24:47.001Z</time></trkpt><trkpt lat="46.4805006095385" lon="11.32247965411209"><ele>245.0</ele><time>2026-05-01T04:24:48.001Z</time></trkpt><trkpt lat="46.48066211841083" lon="11.322754280823256"><ele>248.0</ele><time>2026-05-01T04:24:49.001Z</time></trkpt><trkpt lat="46.480826229115166" lon="11.323022465464723"><ele>246.5</ele><time>2026-05-01T04:24:50.001Z</time></trkpt><trkpt lat="46.48099398924481" lon="11.323284145524736"><ele>245.0</ele><time>2026-05-01T04:24:51.001Z</time></trkpt><trkpt lat="46.4811674779103" lon="11.323539867338933"><ele>245.0</ele><time>2026-05-01T04:24:52.001Z</time></trkpt><trkpt lat="46.48134494961145" lon="11.323788182844408"><ele>245.0</ele><time>2026-05-01T04:24:53.001Z</time></trkpt><trkpt lat="46.481526715515365" lon="11.32403236010893"><ele>247.0</ele><time>2026-05-01T04:24:54.001Z</time></trkpt><trkpt lat="46.48171372627666" lon="11.32427069174047"><ele>249.0</ele><time>2026-05-01T04:24:55.001Z</time></trkpt><trkpt lat="46.481901695717006" lon="11.324509885183055"><ele>248.5</ele><time>2026-05-01T04:24:56.001Z</time></trkpt><trkpt lat="46.482087832074974" lon="11.324749928578594"><ele>248.0</ele><time>2026-05-01T04:24:57.001Z</time></trkpt><trkpt lat="46.48227632768819" lon="11.324987591458775"><ele>248.0</ele><time>2026-05-01T04:24:58.001Z</time></trkpt><trkpt lat="46.48245974002929" lon="11.325228705217784"><ele>248.0</ele><time>2026-05-01T04:24:59.001Z</time></trkpt><trkpt lat="46.48264131346167" lon="11.325472365871706"><ele>248.0</ele><time>2026-05-01T04:25:00.001Z</time></trkpt><trkpt lat="46.482819847605406" lon="11.325722437535793"><ele>248.0</ele><time>2026-05-01T04:25:01.001Z</time></trkpt><trkpt lat="46.48300098222845" lon="11.325971444127198"><ele>249.0</ele><time>2026-05-01T04:25:02.001Z</time></trkpt><trkpt lat="46.483184538994564" lon="11.32621990806831"><ele>250.0</ele><time>2026-05-01T04:25:03.001Z</time></trkpt><trkpt lat="46.48337117241542" lon="11.326461446787558"><ele>250.5</ele><time>2026-05-01T04:25:04.001Z</time></trkpt><trkpt lat="46.48355594117032" lon="11.326709016963544"><ele>251.0</ele><time>2026-05-01T04:25:05.001Z</time></trkpt><trkpt lat="46.48373869568459" lon="11.326960119913762"><ele>250.5</ele><time>2026-05-01T04:25:06.001Z</time></trkpt><trkpt lat="46.483919900581625" lon="11.327214812531116"><ele>250.0</ele><time>2026-05-01T04:25:07.001Z</time></trkpt><trkpt lat="46.48409574150922" lon="11.327478354677707"><ele>250.0</ele><time>2026-05-01T04:25:08.001Z</time></trkpt><trkpt lat="46.48426466919267" lon="11.32775225302041"><ele>250.0</ele><time>2026-05-01T04:25:09.001Z</time></trkpt><trkpt lat="46.484423440464596" lon="11.328038383217553"><ele>249.0</ele><time>2026-05-01T04:25:10.001Z</time></trkpt><trkpt lat="46.48457702545899" lon="11.328332548938109"><ele>248.0</ele><time>2026-05-01T04:25:11.001Z</time></trkpt><trkpt lat="46.48472445576595" lon="11.328635609927103"><ele>247.5</ele><time>2026-05-01T04:25:12.001Z</time></trkpt><trkpt lat="46.484865504621844" lon="11.328949474902716"><ele>247.0</ele><time>2026-05-01T04:25:13Z</time></trkpt><trkpt lat="46.48499988269104" lon="11.329273978523622"><ele>247.0</ele><time>2026-05-01T04:25:14Z</time></trkpt><trkpt lat="46.48512926342728" lon="11.329599164403767"><ele>247.0</ele><time>2026-05-01T04:25:15Z</time></trkpt><trkpt lat="46.4852512366586" lon="11.329928916063023"><ele>248.5</ele><time>2026-05-01T04:25:16Z</time></trkpt><trkpt lat="46.48536610024989" lon="11.33026446373791"><ele>250.0</ele><time>2026-05-01T04:25:17Z</time></trkpt><trkpt lat="46.48547247766468" lon="11.330607029373173"><ele>250.0</ele><time>2026-05-01T04:25:18Z</time></trkpt><trkpt lat="46.485570130380765" lon="11.330955049450505"><ele>250.0</ele><time>2026-05-01T04:25:19Z</time></trkpt><trkpt lat="46.48566001698327" lon="11.331306761004706"><ele>250.5</ele><time>2026-05-01T04:25:20Z</time></trkpt><trkpt lat="46.485746755618564" lon="11.331660729302701"><ele>251.0</ele><time>2026-05-01T04:25:21Z</time></trkpt><trkpt lat="46.4858314362751" lon="11.332018101317193"><ele>250.5</ele><time>2026-05-01T04:25:22Z</time></trkpt><trkpt lat="46.4859176854594" lon="11.332364235020771"><ele>250.0</ele><time>2026-05-01T04:25:23Z</time></trkpt><trkpt lat="46.48600927603867" lon="11.332694429156726"><ele>250.0</ele><time>2026-05-01T04:25:24Z</time></trkpt><trkpt lat="46.48611014433416" lon="11.333022543305551"><ele>250.0</ele><time>2026-05-01T04:25:25Z</time></trkpt><trkpt lat="46.48621784929139" lon="11.333345989659263"><ele>250.0</ele><time>2026-05-01T04:25:26Z</time></trkpt><trkpt lat="46.48632374871272" lon="11.333674831595085"><ele>250.0</ele><time>2026-05-01T04:25:27Z</time></trkpt><trkpt lat="46.48642661481572" lon="11.334004390981494"><ele>250.0</ele><time>2026-05-01T04:25:28Z</time></trkpt><trkpt lat="46.4865226937449" lon="11.334335142391721"><ele>250.0</ele><time>2026-05-01T04:25:29Z</time></trkpt><trkpt lat="46.48661087175448" lon="11.334666861040752"><ele>249.5</ele><time>2026-05-01T04:25:30Z</time></trkpt><trkpt lat="46.4866955959313" lon="11.335004272601346"><ele>249.0</ele><time>2026-05-01T04:25:31Z</time></trkpt><trkpt lat="46.486772423657854" lon="11.33534973146225"><ele>249.5</ele><time>2026-05-01T04:25:32Z</time></trkpt><trkpt lat="46.48684372104979" lon="11.33569743176344"><ele>250.0</ele><time>2026-05-01T04:25:33Z</time></trkpt><trkpt lat="46.4869163175588" lon="11.336042071208103"><ele>250.5</ele><time>2026-05-01T04:25:34Z</time></trkpt><trkpt lat="46.486986581591715" lon="11.336390134719084"><ele>251.0</ele><time>2026-05-01T04:25:35Z</time></trkpt><trkpt lat="46.48705748460576" lon="11.336739253410464"><ele>250.5</ele><time>2026-05-01T04:25:36Z</time></trkpt><trkpt lat="46.48713104520756" lon="11.33708835956157"><ele>250.0</ele><time>2026-05-01T04:25:37Z</time></trkpt><trkpt lat="46.487205256221344" lon="11.337439350960855"><ele>250.0</ele><time>2026-05-01T04:25:38Z</time></trkpt><trkpt lat="46.487278695991066" lon="11.337788348462144"><ele>250.0</ele><time>2026-05-01T04:25:39Z</time></trkpt><trkpt lat="46.487351045358714" lon="11.338139400291267"><ele>251.5</ele><time>2026-05-01T04:25:40Z</time></trkpt><trkpt lat="46.4874232344286" lon="11.33849153005272"><ele>253.0</ele><time>2026-05-01T04:25:41Z</time></trkpt><trkpt lat="46.4874951962295" lon="11.338847307956618"><ele>252.5</ele><time>2026-05-01T04:25:42Z</time></trkpt><trkpt lat="46.4875637960167" lon="11.339205163723983"><ele>252.0</ele><time>2026-05-01T04:25:43Z</time></trkpt><trkpt lat="46.487627507470336" lon="11.33956377003157"><ele>254.0</ele><time>2026-05-01T04:25:44Z</time></trkpt><trkpt lat="46.487680839816385" lon="11.339926338119385"><ele>256.0</ele><time>2026-05-01T04:25:45Z</time></trkpt><trkpt lat="46.48772014196145" lon="11.340292712861183"><ele>255.5</ele><time>2026-05-01T04:25:46Z</time></trkpt><trkpt lat="46.48774662512671" lon="11.340663238762911"><ele>255.0</ele><time>2026-05-01T04:25:47Z</time></trkpt><trkpt lat="46.487763979243134" lon="11.341038820961508"><ele>255.0</ele><time>2026-05-01T04:25:48Z</time></trkpt><trkpt lat="46.487775533874164" lon="11.341399679766143"><ele>255.0</ele><time>2026-05-01T04:25:49Z</time></trkpt><trkpt lat="46.48779634937578" lon="11.341765743354673"><ele>255.0</ele><time>2026-05-01T04:25:50Z</time></trkpt><trkpt lat="46.48782449397472" lon="11.34213010462863"><ele>255.0</ele><time>2026-05-01T04:25:51Z</time></trkpt><trkpt lat="46.48786153422471" lon="11.342496491596373"><ele>255.5</ele><time>2026-05-01T04:25:52Z</time></trkpt><trkpt lat="46.487908965783795" lon="11.34285787591917"><ele>256.0</ele><time>2026-05-01T04:25:53Z</time></trkpt><trkpt lat="46.48797059701274" lon="11.343215563563412"><ele>256.0</ele><time>2026-05-01T04:25:54Z</time></trkpt><trkpt lat="46.48804369828594" lon="11.343568143669591"><ele>256.0</ele><time>2026-05-01T04:25:55Z</time></trkpt><trkpt lat="46.488129531085654" lon="11.343913626589712"><ele>255.5</ele><time>2026-05-01T04:25:56Z</time></trkpt><trkpt lat="46.48822918707614" lon="11.344254210958782"><ele>255.0</ele><time>2026-05-01T04:25:57Z</time></trkpt><trkpt lat="46.48834103586735" lon="11.344582497364994"><ele>255.5</ele><time>2026-05-01T04:25:58Z</time></trkpt><trkpt lat="46.48846385245076" lon="11.344903777150588"><ele>256.0</ele><time>2026-05-01T04:25:59Z</time></trkpt><trkpt lat="46.48859201542363" lon="11.345220555657514"><ele>256.0</ele><time>2026-05-01T04:26:00Z</time></trkpt><trkpt lat="46.488723945633424" lon="11.345534867864819"><ele>256.0</ele><time>2026-05-01T04:26:01Z</time></trkpt><trkpt lat="46.488856350142164" lon="11.345846052385113"><ele>258.0</ele><time>2026-05-01T04:26:02Z</time></trkpt><trkpt lat="46.488984201076335" lon="11.346158237427785"><ele>260.0</ele><time>2026-05-01T04:26:03Z</time></trkpt><trkpt lat="46.489106985913836" lon="11.346474678685379"><ele>260.0</ele><time>2026-05-01T04:26:04Z</time></trkpt><trkpt lat="46.48922097782791" lon="11.346794496802984"><ele>260.0</ele><time>2026-05-01T04:26:05Z</time></trkpt><trkpt lat="46.48932235842171" lon="11.347120993231554"><ele>263.5</ele><time>2026-05-01T04:26:06Z</time></trkpt><trkpt lat="46.489407429187075" lon="11.347452799250757"><ele>267.0</ele><time>2026-05-01T04:26:07Z</time></trkpt><trkpt lat="46.48947726331252" lon="11.34779347112478"><ele>276.5</ele><time>2026-05-01T04:26:08Z</time></trkpt><trkpt lat="46.48953460175029" lon="11.348141221133485"><ele>286.0</ele><time>2026-05-01T04:26:09Z</time></trkpt><trkpt lat="46.48958835049423" lon="11.34849694317444"><ele>285.0</ele><time>2026-05-01T04:26:10Z</time></trkpt><trkpt lat="46.48965012376992" lon="11.348857555451398"><ele>284.0</ele><time>2026-05-01T04:26:11Z</time></trkpt><trkpt lat="46.4897126071001" lon="11.349225320986033"><ele>308.5</ele><time>2026-05-01T04:26:12Z</time></trkpt><trkpt lat="46.489775073438786" lon="11.34959825741678"><ele>333.0</ele><time>2026-05-01T04:26:13Z</time></trkpt><trkpt lat="46.48983579096363" lon="11.349958676640151"><ele>349.5</ele><time>2026-05-01T04:26:14Z</time></trkpt><trkpt lat="46.48989602457491" lon="11.35031669204247"><ele>366.0</ele><time>2026-05-01T04:26:15Z</time></trkpt><trkpt lat="46.48995869687716" lon="11.350688356267725"><ele>375.5</ele><time>2026-05-01T04:26:16Z</time></trkpt><trkpt lat="46.49002095401321" lon="11.351067203950112"><ele>385.0</ele><time>2026-05-01T04:26:17Z</time></trkpt><trkpt lat="46.49008197148402" lon="11.35145145475461"><ele>386.6666666666667</ele><time>2026-05-01T04:26:18Z</time></trkpt><trkpt lat="46.49010192332345" lon="11.351681269381292"><ele>388.33333333333337</ele><time>2026-05-01T04:26:19Z</time></trkpt><trkpt lat="46.490158262275784" lon="11.352039713828155"><ele>390.0</ele><time>2026-05-01T04:26:20Z</time></trkpt><trkpt lat="46.49021741246611" lon="11.352393803286182"><ele>396.0</ele><time>2026-05-01T04:26:21Z</time></trkpt><trkpt lat="46.49027693731918" lon="11.352741189300321"><ele>402.0</ele><time>2026-05-01T04:26:22Z</time></trkpt><trkpt lat="46.490328241842704" lon="11.353073793983992"><ele>403.5</ele><time>2026-05-01T04:26:23Z</time></trkpt><trkpt lat="46.490380857269464" lon="11.35340952533744"><ele>405.0</ele><time>2026-05-01T04:26:24Z</time></trkpt><trkpt lat="46.49043405401701" lon="11.35373627178138"><ele>417.0</ele><time>2026-05-01T04:26:25Z</time></trkpt><trkpt lat="46.4904864823289" lon="11.354064447550222"><ele>429.0</ele><time>2026-05-01T04:26:26Z</time></trkpt><trkpt lat="46.49053802889995" lon="11.354387888585473"><ele>430.5</ele><time>2026-05-01T04:26:27Z</time></trkpt><trkpt lat="46.4905884039793" lon="11.354714671525524"><ele>432.0</ele><time>2026-05-01T04:26:28Z</time></trkpt><trkpt lat="46.490638654404066" lon="11.355034897802105"><ele>432.0</ele><time>2026-05-01T04:26:29.001Z</time></trkpt><trkpt lat="46.49068719342267" lon="11.355354821424703"><ele>432.0</ele><time>2026-05-01T04:26:30.001Z</time></trkpt><trkpt lat="46.49073561915713" lon="11.355668906835863"><ele>432.0</ele><time>2026-05-01T04:26:31.001Z</time></trkpt><trkpt lat="46.49078586500512" lon="11.35598467425332"><ele>436.66666666666663</ele><time>2026-05-01T04:26:32.001Z</time></trkpt><trkpt lat="46.490834857799314" lon="11.35629874602616"><ele>441.3333333333333</ele><time>2026-05-01T04:26:33.001Z</time></trkpt><trkpt lat="46.490885673916225" lon="11.35661330986251"><ele>446.0</ele><time>2026-05-01T04:26:34.001Z</time></trkpt><trkpt lat="46.490936856839795" lon="11.356927320211842"><ele>443.3333333333333</ele><time>2026-05-01T04:26:35.001Z</time></trkpt><trkpt lat="46.49098765418589" lon="11.357241823100424"><ele>440.66666666666663</ele><time>2026-05-01T04:26:36.001Z</time></trkpt><trkpt lat="46.49103620107196" lon="11.357556550307441"><ele>438.0</ele><time>2026-05-01T04:26:37.001Z</time></trkpt><trkpt lat="46.49108271126166" lon="11.357870171210974"><ele>421.0</ele><time>2026-05-01T04:26:38.001Z</time></trkpt><trkpt lat="46.491126517210986" lon="11.358184427075576"><ele>404.0</ele><time>2026-05-01T04:26:39.001Z</time></trkpt><trkpt lat="46.491193313126914" lon="11.358512300256807"><ele>404.0</ele><time>2026-05-01T04:26:40.001Z</time></trkpt><trkpt lat="46.49124243625245" lon="11.35884059474381"><ele>404.0</ele><time>2026-05-01T04:26:41.001Z</time></trkpt><trkpt lat="46.49129314885553" lon="11.359253092631224"><ele>263.0</ele><time>2026-05-01T04:26:42.001Z</time></trkpt><trkpt lat="46.49134347964438" lon="11.360255492162864"><ele>262.0</ele><time>2026-05-01T04:26:43.001Z</time></trkpt><trkpt lat="46.49136133226172" lon="11.360663269777943"><ele>261.0</ele><time>2026-05-01T04:26:44.001Z</time></trkpt><trkpt lat="46.49135542698319" lon="11.361023630655424"><ele>260.5</ele><time>2026-05-01T04:26:45.001Z</time></trkpt><trkpt lat="46.49132751428633" lon="11.361378570738514"><ele>260.0</ele><time>2026-05-01T04:26:46.001Z</time></trkpt><trkpt lat="46.491282634271975" lon="11.361739263846305"><ele>285.5</ele><time>2026-05-01T04:26:47.001Z</time></trkpt><trkpt lat="46.49123183583858" lon="11.362102373563397"><ele>311.0</ele><time>2026-05-01T04:26:48.001Z</time></trkpt><trkpt lat="46.49118411600044" lon="11.362468788046316"><ele>311.0</ele><time>2026-05-01T04:26:49.001Z</time></trkpt><trkpt lat="46.49113542707669" lon="11.362833106857304"><ele>311.0</ele><time>2026-05-01T04:26:50.001Z</time></trkpt><trkpt lat="46.49108603814394" lon="11.36319863275186"><ele>313.0</ele><time>2026-05-01T04:26:51.001Z</time></trkpt><trkpt lat="46.49104074108563" lon="11.363561045557297"><ele>315.0</ele><time>2026-05-01T04:26:52.001Z</time></trkpt><trkpt lat="46.49100091813799" lon="11.363925536971436"><ele>310.0</ele><time>2026-05-01T04:26:53.001Z</time></trkpt><trkpt lat="46.49096830157548" lon="11.364288339799373"><ele>305.0</ele><time>2026-05-01T04:26:54.001Z</time></trkpt><trkpt lat="46.49094684585122" lon="11.364652718763194"><ele>298.0</ele><time>2026-05-01T04:26:55.001Z</time></trkpt><trkpt lat="46.49093846659849" lon="11.365015728686528"><ele>291.0</ele><time>2026-05-01T04:26:56.001Z</time></trkpt><trkpt lat="46.490943766531224" lon="11.365380321392763"><ele>293.0</ele><time>2026-05-01T04:26:57.001Z</time></trkpt><trkpt lat="46.49095966590407" lon="11.365745661522519"><ele>295.0</ele><time>2026-05-01T04:26:58.001Z</time></trkpt><trkpt lat="46.49098537640635" lon="11.366109538416074"><ele>291.5</ele><time>2026-05-01T04:26:59.001Z</time></trkpt><trkpt lat="46.49102141976313" lon="11.3664708661128"><ele>288.0</ele><time>2026-05-01T04:27:00.001Z</time></trkpt><trkpt lat="46.49107065652195" lon="11.36683167469583"><ele>288.0</ele><time>2026-05-01T04:27:01.001Z</time></trkpt><trkpt lat="46.491129739276666" lon="11.367190352253706"><ele>288.0</ele><time>2026-05-01T04:27:02.001Z</time></trkpt><trkpt lat="46.491198260775285" lon="11.367544773219244"><ele>278.5</ele><time>2026-05-01T04:27:03.001Z</time></trkpt><trkpt lat="46.49127774826834" lon="11.36789729460563"><ele>269.0</ele><time>2026-05-01T04:27:04.001Z</time></trkpt><trkpt lat="46.4913618844152" lon="11.368248733949228"><ele>269.0</ele><time>2026-05-01T04:27:05.001Z</time></trkpt><trkpt lat="46.4914450405322" lon="11.368600985656935"><ele>269.0</ele><time>2026-05-01T04:27:06.001Z</time></trkpt><trkpt lat="46.49153019081206" lon="11.3689504053808"><ele>271.0</ele><time>2026-05-01T04:27:07.001Z</time></trkpt><trkpt lat="46.49161628908628" lon="11.36930014434332"><ele>273.0</ele><time>2026-05-01T04:27:08.001Z</time></trkpt><trkpt lat="46.49170337334587" lon="11.369652915596328"><ele>271.5</ele><time>2026-05-01T04:27:09.001Z</time></trkpt><trkpt lat="46.491787894927434" lon="11.369995401079843"><ele>270.0</ele><time>2026-05-01T04:27:10.001Z</time></trkpt><trkpt lat="46.49186626328117" lon="11.370321609855413"><ele>272.5</ele><time>2026-05-01T04:27:11.001Z</time></trkpt><trkpt lat="46.49194239330201" lon="11.370649973234533"><ele>275.0</ele><time>2026-05-01T04:27:12.001Z</time></trkpt><trkpt lat="46.49201522833343" lon="11.370982553496805"><ele>275.0</ele><time>2026-05-01T04:27:13.001Z</time></trkpt><trkpt lat="46.49208528339001" lon="11.37132179230257"><ele>275.0</ele><time>2026-05-01T04:27:14.001Z</time></trkpt><trkpt lat="46.492156481756304" lon="11.371669379840407"><ele>275.0</ele><time>2026-05-01T04:27:15.001Z</time></trkpt><trkpt lat="46.49222577053421" lon="11.372016309141168"><ele>275.0</ele><time>2026-05-01T04:27:16.001Z</time></trkpt><trkpt lat="46.492292546256365" lon="11.372364758067304"><ele>275.0</ele><time>2026-05-01T04:27:17.001Z</time></trkpt><trkpt lat="46.49236044328954" lon="11.37271455101308"><ele>275.0</ele><time>2026-05-01T04:27:18.001Z</time></trkpt><trkpt lat="46.49243070090768" lon="11.37306792538527"><ele>277.5</ele><time>2026-05-01T04:27:19Z</time></trkpt><trkpt lat="46.492500709934305" lon="11.373418463440341"><ele>280.0</ele><time>2026-05-01T04:27:20Z</time></trkpt><trkpt lat="46.492572219783916" lon="11.373771474500396"><ele>283.0</ele><time>2026-05-01T04:27:21Z</time></trkpt><trkpt lat="46.492643051391724" lon="11.374125006212067"><ele>286.0</ele><time>2026-05-01T04:27:22Z</time></trkpt><trkpt lat="46.492714267696265" lon="11.374483653456512"><ele>292.5</ele><time>2026-05-01T04:27:23Z</time></trkpt><trkpt lat="46.49278362766585" lon="11.374841304706555"><ele>299.0</ele><time>2026-05-01T04:27:24Z</time></trkpt><trkpt lat="46.49285150035123" lon="11.375199176906728"><ele>303.0</ele><time>2026-05-01T04:27:25Z</time></trkpt><trkpt lat="46.492919413332274" lon="11.375556268973284"><ele>307.0</ele><time>2026-05-01T04:27:26Z</time></trkpt><trkpt lat="46.492986880992206" lon="11.375913552113158"><ele>294.5</ele><time>2026-05-01T04:27:27Z</time></trkpt><trkpt lat="46.49305168610091" lon="11.376267871166794"><ele>282.0</ele><time>2026-05-01T04:27:28Z</time></trkpt><trkpt lat="46.49311449648865" lon="11.376624070487534"><ele>282.0</ele><time>2026-05-01T04:27:29Z</time></trkpt><trkpt lat="46.49317381480578" lon="11.376986703708544"><ele>282.0</ele><time>2026-05-01T04:27:30Z</time></trkpt><trkpt lat="46.49321914213772" lon="11.377349128845879"><ele>284.5</ele><time>2026-05-01T04:27:31Z</time></trkpt><trkpt lat="46.49325379729955" lon="11.377715390428582"><ele>287.0</ele><time>2026-05-01T04:27:32Z</time></trkpt><trkpt lat="46.493272459674074" lon="11.378084081336"><ele>291.5</ele><time>2026-05-01T04:27:33Z</time></trkpt><trkpt lat="46.49327947395266" lon="11.378455720466757"><ele>296.0</ele><time>2026-05-01T04:27:34Z</time></trkpt><trkpt lat="46.49327866540393" lon="11.37882635248531"><ele>295.5</ele><time>2026-05-01T04:27:35Z</time></trkpt><trkpt lat="46.49327643981" lon="11.379193527955202"><ele>295.0</ele><time>2026-05-01T04:27:36Z</time></trkpt><trkpt lat="46.493265832991725" lon="11.379563970660234"><ele>291.5</ele><time>2026-05-01T04:27:37Z</time></trkpt><trkpt lat="46.49325635609816" lon="11.379934430317558"><ele>288.0</ele><time>2026-05-01T04:27:38Z</time></trkpt><trkpt lat="46.49324575457595" lon="11.380304953986428"><ele>288.0</ele><time>2026-05-01T04:27:39Z</time></trkpt><trkpt lat="46.49323397966309" lon="11.380674018009294"><ele>288.0</ele><time>2026-05-01T04:27:40Z</time></trkpt><trkpt lat="46.49322416120812" lon="11.381042863218902"><ele>289.0</ele><time>2026-05-01T04:27:41Z</time></trkpt><trkpt lat="46.49321634302501" lon="11.381409606422395"><ele>290.0</ele><time>2026-05-01T04:27:42Z</time></trkpt><trkpt lat="46.4932093116102" lon="11.381776478192705"><ele>290.0</ele><time>2026-05-01T04:27:43Z</time></trkpt><trkpt lat="46.49320110831889" lon="11.382146742942199"><ele>290.0</ele><time>2026-05-01T04:27:44Z</time></trkpt><trkpt lat="46.49319397616032" lon="11.382519069603546"><ele>290.5</ele><time>2026-05-01T04:27:45Z</time></trkpt><trkpt lat="46.49318337764538" lon="11.382894236297386"><ele>291.0</ele><time>2026-05-01T04:27:46Z</time></trkpt><trkpt lat="46.493167461748435" lon="11.383267276972777"><ele>291.0</ele><time>2026-05-01T04:27:47Z</time></trkpt><trkpt lat="46.493146025073166" lon="11.383639273292957"><ele>291.0</ele><time>2026-05-01T04:27:48Z</time></trkpt><trkpt lat="46.49311486130554" lon="11.384011505165196"><ele>289.0</ele><time>2026-05-01T04:27:49Z</time></trkpt><trkpt lat="46.49307289361204" lon="11.384381989062422"><ele>287.0</ele><time>2026-05-01T04:27:50Z</time></trkpt><trkpt lat="46.49302049745254" lon="11.384750299734211"><ele>283.5</ele><time>2026-05-01T04:27:51Z</time></trkpt><trkpt lat="46.49296865488442" lon="11.385118516761635"><ele>280.0</ele><time>2026-05-01T04:27:52Z</time></trkpt><trkpt lat="46.49292180266072" lon="11.38549049760916"><ele>292.5</ele><time>2026-05-01T04:27:53Z</time></trkpt><trkpt lat="46.49288764587386" lon="11.385862969787713"><ele>305.0</ele><time>2026-05-01T04:27:54Z</time></trkpt><trkpt lat="46.49287089908922" lon="11.386240494963117"><ele>303.0</ele><time>2026-05-01T04:27:55Z</time></trkpt><trkpt lat="46.4928693582144" lon="11.386612466766293"><ele>301.0</ele><time>2026-05-01T04:27:56Z</time></trkpt><trkpt lat="46.49288366033986" lon="11.386984393167774"><ele>302.5</ele><time>2026-05-01T04:27:57Z</time></trkpt><trkpt lat="46.49291046525351" lon="11.387354695686211"><ele>304.0</ele><time>2026-05-01T04:27:58Z</time></trkpt><trkpt lat="46.49294172986032" lon="11.387725115726932"><ele>291.5</ele><time>2026-05-01T04:27:59Z</time></trkpt><trkpt lat="46.49297250054912" lon="11.388090293258589"><ele>279.0</ele><time>2026-05-01T04:28:00Z</time></trkpt><trkpt lat="46.493000156544916" lon="11.388451981497116"><ele>279.0</ele><time>2026-05-01T04:28:01Z</time></trkpt><trkpt lat="46.49302595723945" lon="11.388813471938258"><ele>279.0</ele><time>2026-05-01T04:28:02Z</time></trkpt><trkpt lat="46.493048663888956" lon="11.389177023279197"><ele>279.0</ele><time>2026-05-01T04:28:03Z</time></trkpt><trkpt lat="46.493066244771924" lon="11.389541950271196"><ele>279.0</ele><time>2026-05-01T04:28:04Z</time></trkpt><trkpt lat="46.49307657309572" lon="11.389891997433194"><ele>280.0</ele><time>2026-05-01T04:28:05Z</time></trkpt><trkpt lat="46.493078406879995" lon="11.39021337951315"><ele>281.0</ele><time>2026-05-01T04:28:06Z</time></trkpt><trkpt lat="46.493072932563244" lon="11.39053238905087"><ele>282.0</ele><time>2026-05-01T04:28:07Z</time></trkpt><trkpt lat="46.493059243310164" lon="11.39084765924691"><ele>283.3333333333333</ele><time>2026-05-01T04:28:08Z</time></trkpt><trkpt lat="46.49303406847029" lon="11.391159673410595"><ele>284.66666666666663</ele><time>2026-05-01T04:28:09Z</time></trkpt><trkpt lat="46.49300165730627" lon="11.391468673931954"><ele>286.0</ele><time>2026-05-01T04:28:10Z</time></trkpt><trkpt lat="46.49296181251875" lon="11.391778121705405"><ele>286.66666666666663</ele><time>2026-05-01T04:28:11Z</time></trkpt><trkpt lat="46.492914596599505" lon="11.392088974560938"><ele>287.3333333333333</ele><time>2026-05-01T04:28:12Z</time></trkpt><trkpt lat="46.492869156609835" lon="11.392404066169957"><ele>288.0</ele><time>2026-05-01T04:28:13Z</time></trkpt><trkpt lat="46.492830199324715" lon="11.392725113871885"><ele>291.0</ele><time>2026-05-01T04:28:14Z</time></trkpt><trkpt lat="46.49279364723961" lon="11.393049749265058"><ele>294.0</ele><time>2026-05-01T04:28:15Z</time></trkpt><trkpt lat="46.49275723595204" lon="11.393379020495134"><ele>294.0</ele><time>2026-05-01T04:28:16Z</time></trkpt><trkpt lat="46.49272404078925" lon="11.393708418476479"><ele>294.0</ele><time>2026-05-01T04:28:17Z</time></trkpt><trkpt lat="46.49269813370479" lon="11.3940444186812"><ele>300.0</ele><time>2026-05-01T04:28:18Z</time></trkpt><trkpt lat="46.49268311692278" lon="11.394386305865538"><ele>306.0</ele><time>2026-05-01T04:28:19Z</time></trkpt><trkpt lat="46.492684886247496" lon="11.394730425819237"><ele>314.5</ele><time>2026-05-01T04:28:20Z</time></trkpt><trkpt lat="46.49270305835346" lon="11.395074119288589"><ele>323.0</ele><time>2026-05-01T04:28:21Z</time></trkpt><trkpt lat="46.49273561666989" lon="11.395416828378124"><ele>327.5</ele><time>2026-05-01T04:28:22Z</time></trkpt><trkpt lat="46.49278531349751" lon="11.395756161622543"><ele>332.0</ele><time>2026-05-01T04:28:23Z</time></trkpt><trkpt lat="46.49284296284606" lon="11.3960958882458"><ele>328.0</ele><time>2026-05-01T04:28:24Z</time></trkpt><trkpt lat="46.4929019331277" lon="11.396438580404"><ele>324.0</ele><time>2026-05-01T04:28:25Z</time></trkpt><trkpt lat="46.49296294086806" lon="11.396942662740411"><ele>302.0</ele><time>2026-05-01T04:28:26Z</time></trkpt><trkpt lat="46.49300908161035" lon="11.397331445196448"><ele>280.0</ele><time>2026-05-01T04:28:27Z</time></trkpt><trkpt lat="46.493069548187904" lon="11.397698413727749"><ele>282.0</ele><time>2026-05-01T04:28:28Z</time></trkpt><trkpt lat="46.49312824425539" lon="11.398059079615111"><ele>284.0</ele><time>2026-05-01T04:28:29Z</time></trkpt><trkpt lat="46.4931865086692" lon="11.398420988476332"><ele>284.0</ele><time>2026-05-01T04:28:30Z</time></trkpt><trkpt lat="46.49324539385712" lon="11.398785351557123"><ele>284.0</ele><time>2026-05-01T04:28:31Z</time></trkpt><trkpt lat="46.49330479140503" lon="11.399149758124492"><ele>285.5</ele><time>2026-05-01T04:28:32Z</time></trkpt><trkpt lat="46.493364316254144" lon="11.399517749478237"><ele>287.0</ele><time>2026-05-01T04:28:33Z</time></trkpt><trkpt lat="46.493425958926984" lon="11.399885205913074"><ele>287.0</ele><time>2026-05-01T04:28:34Z</time></trkpt><trkpt lat="46.493489282680876" lon="11.400255774954383"><ele>287.0</ele><time>2026-05-01T04:28:35Z</time></trkpt><trkpt lat="46.4935544259497" lon="11.400626316908756"><ele>287.0</ele><time>2026-05-01T04:28:36Z</time></trkpt><trkpt lat="46.49362160871222" lon="11.400997518228444"><ele>287.0</ele><time>2026-05-01T04:28:37Z</time></trkpt><trkpt lat="46.493689645960195" lon="11.401364914236401"><ele>293.0</ele><time>2026-05-01T04:28:38Z</time></trkpt><trkpt lat="46.49375700606553" lon="11.40172779788827"><ele>299.0</ele><time>2026-05-01T04:28:39Z</time></trkpt><trkpt lat="46.4938231622156" lon="11.402088684508524"><ele>296.0</ele><time>2026-05-01T04:28:40Z</time></trkpt><trkpt lat="46.49388767830234" lon="11.402453863251557"><ele>293.0</ele><time>2026-05-01T04:28:41.001Z</time></trkpt><trkpt lat="46.49395012819335" lon="11.402817503125771"><ele>289.5</ele><time>2026-05-01T04:28:42.001Z</time></trkpt><trkpt lat="46.49401384979437" lon="11.403178906567689"><ele>286.0</ele><time>2026-05-01T04:28:43.001Z</time></trkpt><trkpt lat="46.49407885167848" lon="11.40353847302864"><ele>287.0</ele><time>2026-05-01T04:28:44.001Z</time></trkpt><trkpt lat="46.49414371539513" lon="11.403899353276596"><ele>288.0</ele><time>2026-05-01T04:28:45.001Z</time></trkpt><trkpt lat="46.494206977761756" lon="11.404256678420932"><ele>288.0</ele><time>2026-05-01T04:28:46.001Z</time></trkpt><trkpt lat="46.49427028362149" lon="11.404613230063363"><ele>288.0</ele><time>2026-05-01T04:28:47.001Z</time></trkpt><trkpt lat="46.49433560526052" lon="11.404967319494538"><ele>287.0</ele><time>2026-05-01T04:28:48.001Z</time></trkpt><trkpt lat="46.49439991841836" lon="11.405322239387012"><ele>286.0</ele><time>2026-05-01T04:28:49.001Z</time></trkpt><trkpt lat="46.49446401926559" lon="11.40567688600517"><ele>284.5</ele><time>2026-05-01T04:28:50.001Z</time></trkpt><trkpt lat="46.49452556636626" lon="11.406028284427093"><ele>283.0</ele><time>2026-05-01T04:28:51.001Z</time></trkpt><trkpt lat="46.494583086576" lon="11.406384011432943"><ele>293.5</ele><time>2026-05-01T04:28:52.001Z</time></trkpt><trkpt lat="46.49463369720114" lon="11.406741180521845"><ele>304.0</ele><time>2026-05-01T04:28:53.001Z</time></trkpt><trkpt lat="46.49467454449513" lon="11.407102106970594"><ele>301.0</ele><time>2026-05-01T04:28:54.001Z</time></trkpt><trkpt lat="46.494705285182306" lon="11.40746641164282"><ele>298.0</ele><time>2026-05-01T04:28:55.001Z</time></trkpt><trkpt lat="46.49472525700874" lon="11.407834430743387"><ele>297.0</ele><time>2026-05-01T04:28:56.001Z</time></trkpt><trkpt lat="46.494731867360116" lon="11.408200249725043"><ele>296.0</ele><time>2026-05-01T04:28:57.001Z</time></trkpt><trkpt lat="46.49472608967469" lon="11.408571482835026"><ele>298.5</ele><time>2026-05-01T04:28:58.001Z</time></trkpt><trkpt lat="46.49470711910241" lon="11.408942396935524"><ele>301.0</ele><time>2026-05-01T04:28:59.001Z</time></trkpt><trkpt lat="46.49467513301127" lon="11.409308194533478"><ele>302.0</ele><time>2026-05-01T04:29:00.001Z</time></trkpt><trkpt lat="46.49463202053545" lon="11.40967273473391"><ele>303.0</ele><time>2026-05-01T04:29:01.001Z</time></trkpt><trkpt lat="46.49457778975646" lon="11.410035706743892"><ele>296.0</ele><time>2026-05-01T04:29:02.001Z</time></trkpt><trkpt lat="46.4945121298966" lon="11.410393936666408"><ele>289.0</ele><time>2026-05-01T04:29:03.001Z</time></trkpt><trkpt lat="46.494434027069246" lon="11.410747081234987"><ele>289.0</ele><time>2026-05-01T04:29:04.001Z</time></trkpt><trkpt lat="46.49434302636179" lon="11.411095858706494"><ele>289.0</ele><time>2026-05-01T04:29:05.001Z</time></trkpt><trkpt lat="46.494240487972725" lon="11.41143845982947"><ele>290.5</ele><time>2026-05-01T04:29:06.001Z</time></trkpt><trkpt lat="46.49412645171941" lon="11.411774369271178"><ele>292.0</ele><time>2026-05-01T04:29:07.001Z</time></trkpt><trkpt lat="46.49400084583923" lon="11.412101461135979"><ele>290.0</ele><time>2026-05-01T04:29:08.001Z</time></trkpt><trkpt lat="46.49386974307185" lon="11.412420265043915"><ele>288.0</ele><time>2026-05-01T04:29:09.001Z</time></trkpt><trkpt lat="46.49373067572692" lon="11.412741545530364"><ele>290.5</ele><time>2026-05-01T04:29:10.001Z</time></trkpt><trkpt lat="46.49358832223707" lon="11.413059200062069"><ele>293.0</ele><time>2026-05-01T04:29:11.001Z</time></trkpt><trkpt lat="46.4934472578228" lon="11.41336737674149"><ele>293.0</ele><time>2026-05-01T04:29:12.001Z</time></trkpt><trkpt lat="46.49330787302011" lon="11.413661800529566"><ele>293.0</ele><time>2026-05-01T04:29:13.001Z</time></trkpt><trkpt lat="46.4931631766889" lon="11.413963177235837"><ele>292.5</ele><time>2026-05-01T04:29:14.001Z</time></trkpt><trkpt lat="46.49301558121128" lon="11.414268321198477"><ele>292.0</ele><time>2026-05-01T04:29:15.001Z</time></trkpt><trkpt lat="46.49286558551587" lon="11.414578251383215"><ele>293.0</ele><time>2026-05-01T04:29:16.001Z</time></trkpt><trkpt lat="46.492716428905965" lon="11.41488899276061"><ele>294.0</ele><time>2026-05-01T04:29:17.001Z</time></trkpt><trkpt lat="46.49256892318086" lon="11.415198489730692"><ele>299.0</ele><time>2026-05-01T04:29:18.001Z</time></trkpt><trkpt lat="46.49242166181798" lon="11.415507733844725"><ele>304.0</ele><time>2026-05-01T04:29:19.001Z</time></trkpt><trkpt lat="46.49227558187499" lon="11.415814878745374"><ele>304.0</ele><time>2026-05-01T04:29:20.001Z</time></trkpt><trkpt lat="46.492127733781544" lon="11.416124088993245"><ele>304.0</ele><time>2026-05-01T04:29:21.001Z</time></trkpt><trkpt lat="46.49197847624069" lon="11.416435156553806"><ele>297.0</ele><time>2026-05-01T04:29:22.001Z</time></trkpt><trkpt lat="46.49183042143936" lon="11.416740241374267"><ele>290.0</ele><time>2026-05-01T04:29:23.001Z</time></trkpt><trkpt lat="46.49168346075808" lon="11.417043729639168"><ele>293.5</ele><time>2026-05-01T04:29:24.001Z</time></trkpt><trkpt lat="46.4915345652424" lon="11.417349222310861"><ele>297.0</ele><time>2026-05-01T04:29:25Z</time></trkpt><trkpt lat="46.49138381593491" lon="11.417656560945222"><ele>292.5</ele><time>2026-05-01T04:29:26Z</time></trkpt><trkpt lat="46.49123514782349" lon="11.417962158763968"><ele>288.0</ele><time>2026-05-01T04:29:27Z</time></trkpt><trkpt lat="46.49108390184089" lon="11.418269370070215"><ele>288.0</ele><time>2026-05-01T04:29:28Z</time></trkpt><trkpt lat="46.490933777449236" lon="11.418574505067996"><ele>288.0</ele><time>2026-05-01T04:29:29Z</time></trkpt><trkpt lat="46.49078353386691" lon="11.41888136174325"><ele>292.0</ele><time>2026-05-01T04:29:30Z</time></trkpt><trkpt lat="46.49063295275433" lon="11.419188968718117"><ele>296.0</ele><time>2026-05-01T04:29:31Z</time></trkpt><trkpt lat="46.49048168757656" lon="11.419494335993864"><ele>294.5</ele><time>2026-05-01T04:29:32Z</time></trkpt><trkpt lat="46.49032971694503" lon="11.419801620159054"><ele>293.0</ele><time>2026-05-01T04:29:33Z</time></trkpt><trkpt lat="46.49018218048775" lon="11.420107722506089"><ele>293.0</ele><time>2026-05-01T04:29:34Z</time></trkpt><trkpt lat="46.49003826868464" lon="11.420421128454594"><ele>293.0</ele><time>2026-05-01T04:29:35Z</time></trkpt><trkpt lat="46.48990132711775" lon="11.42074570039889"><ele>295.5</ele><time>2026-05-01T04:29:36Z</time></trkpt><trkpt lat="46.48977408314819" lon="11.421077912463865"><ele>298.0</ele><time>2026-05-01T04:29:37Z</time></trkpt><trkpt lat="46.4896584437918" lon="11.42141924040562"><ele>297.5</ele><time>2026-05-01T04:29:38Z</time></trkpt><trkpt lat="46.48955770436958" lon="11.421768314463547"><ele>297.0</ele><time>2026-05-01T04:29:39Z</time></trkpt><trkpt lat="46.489476283597746" lon="11.422123295467133"><ele>296.5</ele><time>2026-05-01T04:29:40Z</time></trkpt><trkpt lat="46.489410746908725" lon="11.422490680971645"><ele>296.0</ele><time>2026-05-01T04:29:41Z</time></trkpt><trkpt lat="46.489361894091715" lon="11.422862846497779"><ele>295.5</ele><time>2026-05-01T04:29:42Z</time></trkpt><trkpt lat="46.489327416383226" lon="11.423236665356793"><ele>295.0</ele><time>2026-05-01T04:29:43Z</time></trkpt><trkpt lat="46.489309736951206" lon="11.423609557804483"><ele>295.0</ele><time>2026-05-01T04:29:44Z</time></trkpt><trkpt lat="46.48930926899483" lon="11.42398688935935"><ele>295.0</ele><time>2026-05-01T04:29:45Z</time></trkpt><trkpt lat="46.48932625957391" lon="11.424363095318547"><ele>296.0</ele><time>2026-05-01T04:29:46Z</time></trkpt><trkpt lat="46.48936082466736" lon="11.424737351661154"><ele>297.0</ele><time>2026-05-01T04:29:47Z</time></trkpt><trkpt lat="46.489411199494185" lon="11.42510531348022"><ele>297.0</ele><time>2026-05-01T04:29:48Z</time></trkpt><trkpt lat="46.48947669939611" lon="11.425467938831979"><ele>297.0</ele><time>2026-05-01T04:29:49Z</time></trkpt><trkpt lat="46.48955910363525" lon="11.425827058158003"><ele>297.5</ele><time>2026-05-01T04:29:50Z</time></trkpt><trkpt lat="46.48965760245287" lon="11.426176971242205"><ele>298.0</ele><time>2026-05-01T04:29:51Z</time></trkpt><trkpt lat="46.489771453904524" lon="11.426518146855843"><ele>298.0</ele><time>2026-05-01T04:29:52Z</time></trkpt><trkpt lat="46.48990292522168" lon="11.426842995757362"><ele>298.0</ele><time>2026-05-01T04:29:53Z</time></trkpt><trkpt lat="46.490048707217106" lon="11.42715989537029"><ele>295.5</ele><time>2026-05-01T04:29:54Z</time></trkpt><trkpt lat="46.49020527157261" lon="11.427461306876014"><ele>293.0</ele><time>2026-05-01T04:29:55Z</time></trkpt><trkpt lat="46.490371519114866" lon="11.427757431793868"><ele>301.5</ele><time>2026-05-01T04:29:56Z</time></trkpt><trkpt lat="46.490540808630854" lon="11.428042725103701"><ele>310.0</ele><time>2026-05-01T04:29:57Z</time></trkpt><trkpt lat="46.49071657489677" lon="11.428328266727517"><ele>310.0</ele><time>2026-05-01T04:29:58Z</time></trkpt><trkpt lat="46.49089094882778" lon="11.428609962864394"><ele>310.0</ele><time>2026-05-01T04:29:59Z</time></trkpt><trkpt lat="46.49106950509664" lon="11.428890675380343"><ele>307.5</ele><time>2026-05-01T04:30:00Z</time></trkpt><trkpt lat="46.4912448730429" lon="11.429170766144086"><ele>305.0</ele><time>2026-05-01T04:30:01Z</time></trkpt><trkpt lat="46.49141818807168" lon="11.429452166638065"><ele>311.5</ele><time>2026-05-01T04:30:02Z</time></trkpt><trkpt lat="46.49158439315009" lon="11.429740180667254"><ele>318.0</ele><time>2026-05-01T04:30:03Z</time></trkpt><trkpt lat="46.491744498594045" lon="11.43003866826607"><ele>318.0</ele><time>2026-05-01T04:30:04Z</time></trkpt><trkpt lat="46.49189108487598" lon="11.430348233034886"><ele>318.0</ele><time>2026-05-01T04:30:05Z</time></trkpt><trkpt lat="46.49202711108407" lon="11.430665905609146"><ele>318.5</ele><time>2026-05-01T04:30:06Z</time></trkpt><trkpt lat="46.49214984142119" lon="11.430997182602612"><ele>319.0</ele><time>2026-05-01T04:30:07Z</time></trkpt><trkpt lat="46.49225687573924" lon="11.431335777409243"><ele>328.0</ele><time>2026-05-01T04:30:08Z</time></trkpt><trkpt lat="46.492351496624124" lon="11.431683789303138"><ele>337.0</ele><time>2026-05-01T04:30:09Z</time></trkpt><trkpt lat="46.49243375352985" lon="11.432041134499284"><ele>353.5</ele><time>2026-05-01T04:30:10Z</time></trkpt><trkpt lat="46.4925015325443" lon="11.432404986025132"><ele>370.0</ele><time>2026-05-01T04:30:11Z</time></trkpt><trkpt lat="46.49255453661551" lon="11.432775455487464"><ele>375.0</ele><time>2026-05-01T04:30:12Z</time></trkpt><trkpt lat="46.49259315500737" lon="11.433149649399038"><ele>380.0</ele><time>2026-05-01T04:30:13Z</time></trkpt><trkpt lat="46.49261927886348" lon="11.433528230555671"><ele>366.5</ele><time>2026-05-01T04:30:14Z</time></trkpt><trkpt lat="46.492636160268844" lon="11.433910598696544"><ele>353.0</ele><time>2026-05-01T04:30:15Z</time></trkpt><trkpt lat="46.49266977016292" lon="11.434348437927543"><ele>334.5</ele><time>2026-05-01T04:30:16Z</time></trkpt><trkpt lat="46.49268397412805" lon="11.434742389254666"><ele>316.0</ele><time>2026-05-01T04:30:17Z</time></trkpt><trkpt lat="46.492678351294714" lon="11.435108300316267"><ele>316.0</ele><time>2026-05-01T04:30:18Z</time></trkpt><trkpt lat="46.492705437018664" lon="11.435446245009924"><ele>316.0</ele><time>2026-05-01T04:30:19Z</time></trkpt><trkpt lat="46.49272773689645" lon="11.435824694676304"><ele>309.0</ele><time>2026-05-01T04:30:20Z</time></trkpt><trkpt lat="46.492754218995444" lon="11.43620124255368"><ele>302.0</ele><time>2026-05-01T04:30:21Z</time></trkpt><trkpt lat="46.492786210150285" lon="11.4365740210001"><ele>302.0</ele><time>2026-05-01T04:30:22Z</time></trkpt><trkpt lat="46.49284724799778" lon="11.436945231915876"><ele>302.0</ele><time>2026-05-01T04:30:23Z</time></trkpt><trkpt lat="46.49292387969928" lon="11.437309513511323"><ele>312.0</ele><time>2026-05-01T04:30:24Z</time></trkpt><trkpt lat="46.49302040140253" lon="11.437669408512544"><ele>322.0</ele><time>2026-05-01T04:30:25Z</time></trkpt><trkpt lat="46.493133946974396" lon="11.438021041188337"><ele>322.0</ele><time>2026-05-01T04:30:26Z</time></trkpt><trkpt lat="46.4932668767201" lon="11.438362477014984"><ele>322.0</ele><time>2026-05-01T04:30:27Z</time></trkpt><trkpt lat="46.49341414725724" lon="11.438699045765212"><ele>316.5</ele><time>2026-05-01T04:30:28Z</time></trkpt><trkpt lat="46.49357250680411" lon="11.439020298624971"><ele>311.0</ele><time>2026-05-01T04:30:29Z</time></trkpt><trkpt lat="46.493744836474534" lon="11.439330221257094"><ele>312.0</ele><time>2026-05-01T04:30:30Z</time></trkpt><trkpt lat="46.49392621867967" lon="11.439628962138555"><ele>313.0</ele><time>2026-05-01T04:30:31Z</time></trkpt><trkpt lat="46.49412067245502" lon="11.439908117174678"><ele>313.0</ele><time>2026-05-01T04:30:32Z</time></trkpt><trkpt lat="46.49433025331055" lon="11.440163764032343"><ele>313.0</ele><time>2026-05-01T04:30:33Z</time></trkpt><trkpt lat="46.4945490772577" lon="11.440403671629273"><ele>315.5</ele><time>2026-05-01T04:30:34Z</time></trkpt><trkpt lat="46.49477327753438" lon="11.440638294568148"><ele>318.0</ele><time>2026-05-01T04:30:35Z</time></trkpt><trkpt lat="46.49499193151162" lon="11.440873618250693"><ele>318.0</ele><time>2026-05-01T04:30:36Z</time></trkpt><trkpt lat="46.495201047549436" lon="11.441111685160324"><ele>318.0</ele><time>2026-05-01T04:30:37Z</time></trkpt><trkpt lat="46.4954001600166" lon="11.441354990249941"><ele>315.5</ele><time>2026-05-01T04:30:38Z</time></trkpt><trkpt lat="46.49559181335725" lon="11.441614771573748"><ele>313.0</ele><time>2026-05-01T04:30:39Z</time></trkpt><trkpt lat="46.49577376162678" lon="11.441890775227327"><ele>311.0</ele><time>2026-05-01T04:30:40Z</time></trkpt><trkpt lat="46.495944771679746" lon="11.442184131275996"><ele>309.0</ele><time>2026-05-01T04:30:41Z</time></trkpt><trkpt lat="46.496100957408224" lon="11.442488816397429"><ele>309.0</ele><time>2026-05-01T04:30:42Z</time></trkpt><trkpt lat="46.49624176241468" lon="11.442812743214517"><ele>309.0</ele><time>2026-05-01T04:30:43Z</time></trkpt><trkpt lat="46.49636254431552" lon="11.443153958508127"><ele>314.0</ele><time>2026-05-01T04:30:44Z</time></trkpt><trkpt lat="46.49647733777236" lon="11.443506230284068"><ele>319.0</ele><time>2026-05-01T04:30:45Z</time></trkpt><trkpt lat="46.49659218546003" lon="11.443866206422692"><ele>319.0</ele><time>2026-05-01T04:30:46Z</time></trkpt><trkpt lat="46.49671148622913" lon="11.444217063573207"><ele>319.0</ele><time>2026-05-01T04:30:47Z</time></trkpt><trkpt lat="46.49683393026608" lon="11.444555849504155"><ele>315.5</ele><time>2026-05-01T04:30:48Z</time></trkpt><trkpt lat="46.49695728580536" lon="11.444891968312382"><ele>312.0</ele><time>2026-05-01T04:30:49Z</time></trkpt><trkpt lat="46.497079665410475" lon="11.445231448964469"><ele>312.0</ele><time>2026-05-01T04:30:50Z</time></trkpt><trkpt lat="46.49719884994038" lon="11.445567662742382"><ele>312.0</ele><time>2026-05-01T04:30:51.001Z</time></trkpt><trkpt lat="46.497318676451215" lon="11.445907030930988"><ele>312.0</ele><time>2026-05-01T04:30:52.001Z</time></trkpt><trkpt lat="46.49743817113317" lon="11.446243568532307"><ele>312.0</ele><time>2026-05-01T04:30:53.001Z</time></trkpt><trkpt lat="46.49755674224459" lon="11.446579281082476"><ele>310.5</ele><time>2026-05-01T04:30:54.001Z</time></trkpt><trkpt lat="46.49767370484366" lon="11.446918257184715"><ele>309.0</ele><time>2026-05-01T04:30:55.001Z</time></trkpt><trkpt lat="46.49778900270477" lon="11.447259527092326"><ele>308.5</ele><time>2026-05-01T04:30:56.001Z</time></trkpt><trkpt lat="46.497902977123545" lon="11.447592471472678"><ele>308.0</ele><time>2026-05-01T04:30:57.001Z</time></trkpt><trkpt lat="46.49802182282257" lon="11.447927875070434"><ele>312.0</ele><time>2026-05-01T04:30:58.001Z</time></trkpt><trkpt lat="46.49813891274482" lon="11.448260776882666"><ele>316.0</ele><time>2026-05-01T04:30:59.001Z</time></trkpt><trkpt lat="46.49825767262068" lon="11.448590047861016"><ele>318.5</ele><time>2026-05-01T04:31:00.001Z</time></trkpt><trkpt lat="46.49837844995937" lon="11.448918032883507"><ele>321.0</ele><time>2026-05-01T04:31:01.001Z</time></trkpt><trkpt lat="46.498504029439204" lon="11.449245695188882"><ele>321.0</ele><time>2026-05-01T04:31:02.001Z</time></trkpt><trkpt lat="46.49863288686396" lon="11.449568850911819"><ele>321.0</ele><time>2026-05-01T04:31:03.001Z</time></trkpt><trkpt lat="46.498768863416245" lon="11.449888973722912"><ele>322.0</ele><time>2026-05-01T04:31:04.001Z</time></trkpt><trkpt lat="46.49891312844346" lon="11.450200395192699"><ele>323.0</ele><time>2026-05-01T04:31:05.001Z</time></trkpt><trkpt lat="46.49906645990456" lon="11.450503500045958"><ele>323.0</ele><time>2026-05-01T04:31:06.001Z</time></trkpt><trkpt lat="46.49922666426899" lon="11.450798735169357"><ele>323.0</ele><time>2026-05-01T04:31:07.001Z</time></trkpt><trkpt lat="46.49939417239711" lon="11.451088256281144"><ele>320.0</ele><time>2026-05-01T04:31:08.001Z</time></trkpt><trkpt lat="46.49956746485501" lon="11.451378639609885"><ele>317.0</ele><time>2026-05-01T04:31:09.001Z</time></trkpt><trkpt lat="46.49973996453389" lon="11.451666210971013"><ele>317.0</ele><time>2026-05-01T04:31:10.001Z</time></trkpt><trkpt lat="46.49991203855306" lon="11.451952154560443"><ele>317.0</ele><time>2026-05-01T04:31:11.001Z</time></trkpt><trkpt lat="46.50008060177887" lon="11.45223606999208"><ele>317.0</ele><time>2026-05-01T04:31:12.001Z</time></trkpt><trkpt lat="46.50024176822492" lon="11.452507338204203"><ele>317.0</ele><time>2026-05-01T04:31:13.001Z</time></trkpt><trkpt lat="46.50040303081198" lon="11.452774773654905"><ele>317.5</ele><time>2026-05-01T04:31:14.001Z</time></trkpt><trkpt lat="46.50056866538034" lon="11.4530452562304"><ele>318.0</ele><time>2026-05-01T04:31:15.001Z</time></trkpt><trkpt lat="46.50074204159844" lon="11.453311025669747"><ele>318.0</ele><time>2026-05-01T04:31:16.001Z</time></trkpt><trkpt lat="46.50092265132093" lon="11.453564964075783"><ele>318.0</ele><time>2026-05-01T04:31:17.001Z</time></trkpt><trkpt lat="46.501114120286154" lon="11.453808521094526"><ele>322.5</ele><time>2026-05-01T04:31:18.001Z</time></trkpt><trkpt lat="46.50130912653708" lon="11.454044258018055"><ele>327.0</ele><time>2026-05-01T04:31:19.001Z</time></trkpt><trkpt lat="46.50150582630184" lon="11.454280406653865"><ele>327.0</ele><time>2026-05-01T04:31:20.001Z</time></trkpt><trkpt lat="46.5017007502349" lon="11.45451896988452"><ele>327.0</ele><time>2026-05-01T04:31:21.001Z</time></trkpt><trkpt lat="46.501895395203036" lon="11.454758808432675"><ele>336.5</ele><time>2026-05-01T04:31:22.001Z</time></trkpt><trkpt lat="46.502088638226375" lon="11.4550020842937"><ele>346.0</ele><time>2026-05-01T04:31:23.001Z</time></trkpt><trkpt lat="46.502277862514454" lon="11.455255356132223"><ele>345.5</ele><time>2026-05-01T04:31:24.001Z</time></trkpt><trkpt lat="46.502459107274035" lon="11.455521241206462"><ele>345.0</ele><time>2026-05-01T04:31:25.001Z</time></trkpt><trkpt lat="46.50262989315741" lon="11.455799526399316"><ele>345.0</ele><time>2026-05-01T04:31:26.001Z</time></trkpt><trkpt lat="46.502791391581994" lon="11.456089403378275"><ele>345.0</ele><time>2026-05-01T04:31:27.001Z</time></trkpt><trkpt lat="46.502949180901226" lon="11.456390556779372"><ele>370.0</ele><time>2026-05-01T04:31:28.001Z</time></trkpt><trkpt lat="46.50310695477028" lon="11.456694080011937"><ele>395.0</ele><time>2026-05-01T04:31:29.001Z</time></trkpt><trkpt lat="46.503265750729796" lon="11.456997879146266"><ele>388.0</ele><time>2026-05-01T04:31:30.001Z</time></trkpt><trkpt lat="46.50342448746707" lon="11.457300790586748"><ele>381.0</ele><time>2026-05-01T04:31:31.001Z</time></trkpt><trkpt lat="46.50358278820876" lon="11.457602265318462"><ele>381.0</ele><time>2026-05-01T04:31:32.001Z</time></trkpt><trkpt lat="46.503741670997975" lon="11.4579029910113"><ele>381.0</ele><time>2026-05-01T04:31:33.001Z</time></trkpt><trkpt lat="46.50390392487719" lon="11.458201127788952"><ele>375.5</ele><time>2026-05-01T04:31:34.001Z</time></trkpt><trkpt lat="46.504072034000046" lon="11.458492570840866"><ele>370.0</ele><time>2026-05-01T04:31:35.001Z</time></trkpt><trkpt lat="46.504261151575264" lon="11.458760418197455"><ele>364.5</ele><time>2026-05-01T04:31:36.001Z</time></trkpt><trkpt lat="46.504436692627124" lon="11.458997423238642"><ele>359.0</ele><time>2026-05-01T04:31:37Z</time></trkpt><trkpt lat="46.50463510640205" lon="11.459253230571072"><ele>359.0</ele><time>2026-05-01T04:31:38Z</time></trkpt><trkpt lat="46.50483633584483" lon="11.459484115201063"><ele>359.0</ele><time>2026-05-01T04:31:39Z</time></trkpt><trkpt lat="46.50503657335098" lon="11.459720329741991"><ele>362.5</ele><time>2026-05-01T04:31:40Z</time></trkpt><trkpt lat="46.505233575778284" lon="11.459964410992052"><ele>366.0</ele><time>2026-05-01T04:31:41Z</time></trkpt><trkpt lat="46.50542808899151" lon="11.46021287907722"><ele>353.0</ele><time>2026-05-01T04:31:42Z</time></trkpt><trkpt lat="46.50561593217021" lon="11.460471320028155"><ele>340.0</ele><time>2026-05-01T04:31:43Z</time></trkpt><trkpt lat="46.50580207389207" lon="11.460736521822584"><ele>340.0</ele><time>2026-05-01T04:31:44Z</time></trkpt><trkpt lat="46.505980621247" lon="11.461012556380656"><ele>340.0</ele><time>2026-05-01T04:31:45Z</time></trkpt><trkpt lat="46.50615389915626" lon="11.46129668487906"><ele>348.5</ele><time>2026-05-01T04:31:46Z</time></trkpt><trkpt lat="46.50632096773082" lon="11.46158969021579"><ele>357.0</ele><time>2026-05-01T04:31:47Z</time></trkpt><trkpt lat="46.5064792806876" lon="11.46189574211397"><ele>346.0</ele><time>2026-05-01T04:31:48Z</time></trkpt><trkpt lat="46.50663230190275" lon="11.462211583190054"><ele>335.0</ele><time>2026-05-01T04:31:49Z</time></trkpt><trkpt lat="46.50677759524203" lon="11.46253468376541"><ele>335.0</ele><time>2026-05-01T04:31:50Z</time></trkpt><trkpt lat="46.50691508709667" lon="11.462861026055542"><ele>335.0</ele><time>2026-05-01T04:31:51Z</time></trkpt><trkpt lat="46.50705016979214" lon="11.463190567218716"><ele>344.0</ele><time>2026-05-01T04:31:52Z</time></trkpt><trkpt lat="46.50718665046595" lon="11.463525261839516"><ele>353.0</ele><time>2026-05-01T04:31:53Z</time></trkpt><trkpt lat="46.50731879333841" lon="11.463848087580363"><ele>353.0</ele><time>2026-05-01T04:31:54Z</time></trkpt><trkpt lat="46.507452086134776" lon="11.46417495344546"><ele>353.0</ele><time>2026-05-01T04:31:55Z</time></trkpt><trkpt lat="46.50758324748966" lon="11.464498748289408"><ele>345.0</ele><time>2026-05-01T04:31:56Z</time></trkpt><trkpt lat="46.507716948231" lon="11.464812202420848"><ele>337.0</ele><time>2026-05-01T04:31:57Z</time></trkpt><trkpt lat="46.50785990887413" lon="11.465120523696147"><ele>345.5</ele><time>2026-05-01T04:31:58Z</time></trkpt><trkpt lat="46.50801400881189" lon="11.465418966884702"><ele>354.0</ele><time>2026-05-01T04:31:59Z</time></trkpt><trkpt lat="46.50817773204564" lon="11.465701088832477"><ele>354.0</ele><time>2026-05-01T04:32:00Z</time></trkpt><trkpt lat="46.50835272496617" lon="11.465969559878221"><ele>354.0</ele><time>2026-05-01T04:32:01Z</time></trkpt><trkpt lat="46.508537831039426" lon="11.466223909505315"><ele>361.0</ele><time>2026-05-01T04:32:02Z</time></trkpt><trkpt lat="46.50873090589076" lon="11.4664630893702"><ele>368.0</ele><time>2026-05-01T04:32:03Z</time></trkpt><trkpt lat="46.5089352803854" lon="11.466689031254795"><ele>368.0</ele><time>2026-05-01T04:32:04Z</time></trkpt><trkpt lat="46.50914693873343" lon="11.466894335934871"><ele>368.0</ele><time>2026-05-01T04:32:05Z</time></trkpt><trkpt lat="46.50935867636104" lon="11.467092526769283"><ele>359.5</ele><time>2026-05-01T04:32:06Z</time></trkpt><trkpt lat="46.5095801711977" lon="11.467274728301806"><ele>351.0</ele><time>2026-05-01T04:32:07Z</time></trkpt><trkpt lat="46.50981024607132" lon="11.467444589526984"><ele>351.0</ele><time>2026-05-01T04:32:08Z</time></trkpt><trkpt lat="46.510041152128935" lon="11.46761398939482"><ele>351.0</ele><time>2026-05-01T04:32:09Z</time></trkpt><trkpt lat="46.510269759264325" lon="11.467788312764352"><ele>347.0</ele><time>2026-05-01T04:32:10Z</time></trkpt><trkpt lat="46.510497585143256" lon="11.46797062696363"><ele>343.0</ele><time>2026-05-01T04:32:11Z</time></trkpt><trkpt lat="46.51071356230991" lon="11.468149832332937"><ele>343.0</ele><time>2026-05-01T04:32:12Z</time></trkpt><trkpt lat="46.51091513497365" lon="11.468344049020471"><ele>343.0</ele><time>2026-05-01T04:32:13Z</time></trkpt><trkpt lat="46.51111401522272" lon="11.468562948795258"><ele>349.5</ele><time>2026-05-01T04:32:14Z</time></trkpt><trkpt lat="46.51130417581369" lon="11.468796124333368"><ele>356.0</ele><time>2026-05-01T04:32:15Z</time></trkpt><trkpt lat="46.511483796895504" lon="11.469054221892279"><ele>356.0</ele><time>2026-05-01T04:32:16Z</time></trkpt><trkpt lat="46.51165802762597" lon="11.469315420136075"><ele>356.0</ele><time>2026-05-01T04:32:17Z</time></trkpt><trkpt lat="46.51182098512697" lon="11.4696032565583"><ele>351.0</ele><time>2026-05-01T04:32:18Z</time></trkpt><trkpt lat="46.51197572863937" lon="11.469905498994642"><ele>346.0</ele><time>2026-05-01T04:32:19Z</time></trkpt><trkpt lat="46.512114784679575" lon="11.470218888719"><ele>354.0</ele><time>2026-05-01T04:32:20Z</time></trkpt><trkpt lat="46.512238292290164" lon="11.470544684249528"><ele>362.0</ele><time>2026-05-01T04:32:21Z</time></trkpt><trkpt lat="46.51234785075577" lon="11.470880699582496"><ele>362.0</ele><time>2026-05-01T04:32:22Z</time></trkpt><trkpt lat="46.512444620067996" lon="11.471231582395905"><ele>362.0</ele><time>2026-05-01T04:32:23Z</time></trkpt><trkpt lat="46.5125268667851" lon="11.471587110915031"><ele>359.0</ele><time>2026-05-01T04:32:24Z</time></trkpt><trkpt lat="46.51259686418073" lon="11.47194874020986"><ele>356.0</ele><time>2026-05-01T04:32:25Z</time></trkpt><trkpt lat="46.512654165065804" lon="11.47231815547843"><ele>356.0</ele><time>2026-05-01T04:32:26Z</time></trkpt><trkpt lat="46.512710943790886" lon="11.472692038412198"><ele>356.0</ele><time>2026-05-01T04:32:27Z</time></trkpt><trkpt lat="46.51276967190155" lon="11.473058179326317"><ele>357.5</ele><time>2026-05-01T04:32:28Z</time></trkpt><trkpt lat="46.51283517952683" lon="11.473424243495998"><ele>359.0</ele><time>2026-05-01T04:32:29Z</time></trkpt><trkpt lat="46.51291177003467" lon="11.473782822733178"><ele>379.0</ele><time>2026-05-01T04:32:30Z</time></trkpt><trkpt lat="46.513005522397776" lon="11.474137533545122"><ele>399.0</ele><time>2026-05-01T04:32:31Z</time></trkpt><trkpt lat="46.51311444398066" lon="11.47448282835287"><ele>393.0</ele><time>2026-05-01T04:32:32Z</time></trkpt><trkpt lat="46.51323984236864" lon="11.474816470904694"><ele>387.0</ele><time>2026-05-01T04:32:33Z</time></trkpt><trkpt lat="46.513380019092395" lon="11.47514258114916"><ele>381.0</ele><time>2026-05-01T04:32:34Z</time></trkpt><trkpt lat="46.513533827839645" lon="11.475459441581226"><ele>375.0</ele><time>2026-05-01T04:32:35Z</time></trkpt><trkpt lat="46.5137030612286" lon="11.475765639794538"><ele>375.0</ele><time>2026-05-01T04:32:36Z</time></trkpt><trkpt lat="46.51388436785624" lon="11.47605539088947"><ele>375.0</ele><time>2026-05-01T04:32:37Z</time></trkpt><trkpt lat="46.514078978640605" lon="11.476328423912532"><ele>375.0</ele><time>2026-05-01T04:32:38Z</time></trkpt><trkpt lat="46.51428551335565" lon="11.476582299859654"><ele>375.0</ele><time>2026-05-01T04:32:39Z</time></trkpt><trkpt lat="46.51450248812152" lon="11.47681895884549"><ele>385.5</ele><time>2026-05-01T04:32:40Z</time></trkpt><trkpt lat="46.51473260642644" lon="11.477034532876834"><ele>396.0</ele><time>2026-05-01T04:32:41Z</time></trkpt><trkpt lat="46.51497104779489" lon="11.477232830970268"><ele>378.0</ele><time>2026-05-01T04:32:42Z</time></trkpt><trkpt lat="46.51521854733909" lon="11.4774156879635"><ele>360.0</ele><time>2026-05-01T04:32:43Z</time></trkpt><trkpt lat="46.51547420827274" lon="11.477575534637516"><ele>360.0</ele><time>2026-05-01T04:32:44Z</time></trkpt><trkpt lat="46.51573415711718" lon="11.477727634988899"><ele>360.0</ele><time>2026-05-01T04:32:45Z</time></trkpt><trkpt lat="46.515983258908555" lon="11.47787016248881"><ele>359.5</ele><time>2026-05-01T04:32:46Z</time></trkpt><trkpt lat="46.5162266656839" lon="11.47801492798995"><ele>359.0</ele><time>2026-05-01T04:32:47Z</time></trkpt><trkpt lat="46.516471872325674" lon="11.478162116754525"><ele>359.0</ele><time>2026-05-01T04:32:48Z</time></trkpt><trkpt lat="46.51671961027213" lon="11.478317189548312"><ele>359.0</ele><time>2026-05-01T04:32:49Z</time></trkpt><trkpt lat="46.5169673845689" lon="11.478481838644642"><ele>358.5</ele><time>2026-05-01T04:32:50Z</time></trkpt><trkpt lat="46.51721106270178" lon="11.47865967035161"><ele>358.0</ele><time>2026-05-01T04:32:51Z</time></trkpt><trkpt lat="46.51744967910682" lon="11.478852553962874"><ele>358.0</ele><time>2026-05-01T04:32:52Z</time></trkpt><trkpt lat="46.517680843693505" lon="11.479063072863438"><ele>358.0</ele><time>2026-05-01T04:32:53Z</time></trkpt><trkpt lat="46.51790583072522" lon="11.479287349766608"><ele>358.5</ele><time>2026-05-01T04:32:54Z</time></trkpt><trkpt lat="46.518126596700725" lon="11.479524456377963"><ele>359.0</ele><time>2026-05-01T04:32:55Z</time></trkpt><trkpt lat="46.518340492773454" lon="11.479769281120673"><ele>359.0</ele><time>2026-05-01T04:32:56.001Z</time></trkpt><trkpt lat="46.51854947683679" lon="11.480018788681509"><ele>359.0</ele><time>2026-05-01T04:32:57.001Z</time></trkpt><trkpt lat="46.518755398576296" lon="11.480271203448728"><ele>364.5</ele><time>2026-05-01T04:32:58.001Z</time></trkpt><trkpt lat="46.5189606552418" lon="11.480527304032897"><ele>370.0</ele><time>2026-05-01T04:32:59.001Z</time></trkpt><trkpt lat="46.51916452630698" lon="11.48078496699271"><ele>370.0</ele><time>2026-05-01T04:33:00.001Z</time></trkpt><trkpt lat="46.519371336292245" lon="11.48103763953996"><ele>370.0</ele><time>2026-05-01T04:33:01.001Z</time></trkpt><trkpt lat="46.51958426671379" lon="11.481275016467793"><ele>373.5</ele><time>2026-05-01T04:33:02.001Z</time></trkpt><trkpt lat="46.51980548201589" lon="11.481488841157965"><ele>377.0</ele><time>2026-05-01T04:33:03.001Z</time></trkpt><trkpt lat="46.52003542277388" lon="11.481685279647357"><ele>377.0</ele><time>2026-05-01T04:33:04.001Z</time></trkpt><trkpt lat="46.520271717416826" lon="11.481871569264856"><ele>377.0</ele><time>2026-05-01T04:33:05.001Z</time></trkpt><trkpt lat="46.520507511672776" lon="11.482052732537039"><ele>372.5</ele><time>2026-05-01T04:33:06.001Z</time></trkpt><trkpt lat="46.52073896808663" lon="11.482237077839109"><ele>368.0</ele><time>2026-05-01T04:33:07.001Z</time></trkpt><trkpt lat="46.52096596149399" lon="11.482429420679614"><ele>368.0</ele><time>2026-05-01T04:33:08.001Z</time></trkpt><trkpt lat="46.52118984753507" lon="11.482637720924291"><ele>368.0</ele><time>2026-05-01T04:33:09.001Z</time></trkpt><trkpt lat="46.52140474918773" lon="11.482859796630832"><ele>367.0</ele><time>2026-05-01T04:33:10.001Z</time></trkpt><trkpt lat="46.52160895848641" lon="11.483098721651926"><ele>366.0</ele><time>2026-05-01T04:33:11.001Z</time></trkpt><trkpt lat="46.52180492058381" lon="11.483351244324208"><ele>366.0</ele><time>2026-05-01T04:33:12.001Z</time></trkpt><trkpt lat="46.52199126774867" lon="11.48361494089833"><ele>366.0</ele><time>2026-05-01T04:33:13.001Z</time></trkpt><trkpt lat="46.52217402599651" lon="11.483888322536673"><ele>376.5</ele><time>2026-05-01T04:33:14.001Z</time></trkpt><trkpt lat="46.52235322863971" lon="11.484163324474146"><ele>387.0</ele><time>2026-05-01T04:33:15.001Z</time></trkpt><trkpt lat="46.52253076914288" lon="11.484441468245178"><ele>380.5</ele><time>2026-05-01T04:33:16.001Z</time></trkpt><trkpt lat="46.5227092640553" lon="11.484717547418247"><ele>374.0</ele><time>2026-05-01T04:33:17.001Z</time></trkpt><trkpt lat="46.52289138781264" lon="11.484983401193961"><ele>391.5</ele><time>2026-05-01T04:33:18.001Z</time></trkpt><trkpt lat="46.52308145162821" lon="11.485232702792922"><ele>409.0</ele><time>2026-05-01T04:33:19.001Z</time></trkpt><trkpt lat="46.52327897322974" lon="11.485467200650383"><ele>409.0</ele><time>2026-05-01T04:33:20.001Z</time></trkpt><trkpt lat="46.52348256638508" lon="11.485688654825863"><ele>409.0</ele><time>2026-05-01T04:33:21.001Z</time></trkpt><trkpt lat="46.52369263025736" lon="11.485900055886157"><ele>432.0</ele><time>2026-05-01T04:33:22.001Z</time></trkpt><trkpt lat="46.523906063832186" lon="11.48610636109826"><ele>455.0</ele><time>2026-05-01T04:33:23.001Z</time></trkpt><trkpt lat="46.52411938424392" lon="11.486312451915369"><ele>455.0</ele><time>2026-05-01T04:33:24.001Z</time></trkpt><trkpt lat="46.52433215354501" lon="11.486521615724868"><ele>455.0</ele><time>2026-05-01T04:33:25.001Z</time></trkpt><trkpt lat="46.524544068240886" lon="11.486732028181526"><ele>451.0</ele><time>2026-05-01T04:33:26.001Z</time></trkpt><trkpt lat="46.524741659840295" lon="11.48692375080583"><ele>447.0</ele><time>2026-05-01T04:33:27.001Z</time></trkpt><trkpt lat="46.52494842587936" lon="11.48712646387999"><ele>447.0</ele><time>2026-05-01T04:33:28.001Z</time></trkpt><trkpt lat="46.52515879495434" lon="11.487324833829705"><ele>447.0</ele><time>2026-05-01T04:33:29.001Z</time></trkpt><trkpt lat="46.52537303971249" lon="11.487519393922701"><ele>447.5</ele><time>2026-05-01T04:33:30.001Z</time></trkpt><trkpt lat="46.525585507512375" lon="11.48771739434255"><ele>448.0</ele><time>2026-05-01T04:33:31.001Z</time></trkpt><trkpt lat="46.52579755688665" lon="11.487916567610066"><ele>425.0</ele><time>2026-05-01T04:33:32.001Z</time></trkpt><trkpt lat="46.526009203522435" lon="11.488116803549914"><ele>402.0</ele><time>2026-05-01T04:33:33.001Z</time></trkpt><trkpt lat="46.52622052737256" lon="11.48831455078331"><ele>397.0</ele><time>2026-05-01T04:33:34.001Z</time></trkpt><trkpt lat="46.526447330998096" lon="11.488527827267605"><ele>392.0</ele><time>2026-05-01T04:33:35.001Z</time></trkpt><trkpt lat="46.5266877272658" lon="11.488786123243548"><ele>384.0</ele><time>2026-05-01T04:33:36.001Z</time></trkpt><trkpt lat="46.52689373348961" lon="11.488934051844238"><ele>376.0</ele><time>2026-05-01T04:33:37Z</time></trkpt><trkpt lat="46.52710121406184" lon="11.489114391150483"><ele>376.0</ele><time>2026-05-01T04:33:38Z</time></trkpt><trkpt lat="46.52730479312377" lon="11.489304505454795"><ele>376.0</ele><time>2026-05-01T04:33:39Z</time></trkpt><trkpt lat="46.52751239349374" lon="11.489500923422147"><ele>383.5</ele><time>2026-05-01T04:33:40Z</time></trkpt><trkpt lat="46.52772310052074" lon="11.489694861070483"><ele>391.0</ele><time>2026-05-01T04:33:41Z</time></trkpt><trkpt lat="46.52793575736491" lon="11.48988195768063"><ele>398.5</ele><time>2026-05-01T04:33:42Z</time></trkpt><trkpt lat="46.528152851792335" lon="11.490055009073016"><ele>406.0</ele><time>2026-05-01T04:33:43Z</time></trkpt><trkpt lat="46.528377351467014" lon="11.490208671902549"><ele>406.0</ele><time>2026-05-01T04:33:44Z</time></trkpt><trkpt lat="46.5286076240636" lon="11.490338017881164"><ele>406.0</ele><time>2026-05-01T04:33:45Z</time></trkpt><trkpt lat="46.528845350422515" lon="11.490448318360801"><ele>413.0</ele><time>2026-05-01T04:33:46Z</time></trkpt><trkpt lat="46.52908217754144" lon="11.490562692755075"><ele>420.0</ele><time>2026-05-01T04:33:47Z</time></trkpt><trkpt lat="46.52931925170075" lon="11.490671826481604"><ele>420.0</ele><time>2026-05-01T04:33:48Z</time></trkpt><trkpt lat="46.529561701028044" lon="11.490774720352873"><ele>420.0</ele><time>2026-05-01T04:33:49Z</time></trkpt><trkpt lat="46.52980588200244" lon="11.490878788040911"><ele>420.0</ele><time>2026-05-01T04:33:50Z</time></trkpt><trkpt lat="46.53005047989243" lon="11.490988435076815"><ele>420.0</ele><time>2026-05-01T04:33:51Z</time></trkpt><trkpt lat="46.5302932272859" lon="11.49110656243209"><ele>418.0</ele><time>2026-05-01T04:33:52Z</time></trkpt><trkpt lat="46.53053179239249" lon="11.49124016624158"><ele>416.0</ele><time>2026-05-01T04:33:53Z</time></trkpt><trkpt lat="46.5307645215145" lon="11.49139863690009"><ele>416.0</ele><time>2026-05-01T04:33:54Z</time></trkpt><trkpt lat="46.53098892096812" lon="11.491578873248558"><ele>416.0</ele><time>2026-05-01T04:33:55Z</time></trkpt><trkpt lat="46.531206610493385" lon="11.491778812583076"><ele>413.5</ele><time>2026-05-01T04:33:56Z</time></trkpt><trkpt lat="46.53141983336825" lon="11.491996920383881"><ele>411.0</ele><time>2026-05-01T04:33:57Z</time></trkpt><trkpt lat="46.53162656156318" lon="11.492228987244133"><ele>411.0</ele><time>2026-05-01T04:33:58Z</time></trkpt><trkpt lat="46.53182501447575" lon="11.492476588662608"><ele>411.0</ele><time>2026-05-01T04:33:59Z</time></trkpt><trkpt lat="46.532021657742874" lon="11.492727463546716"><ele>404.5</ele><time>2026-05-01T04:34:00Z</time></trkpt><trkpt lat="46.532218199897" lon="11.492975918542076"><ele>398.0</ele><time>2026-05-01T04:34:01Z</time></trkpt><trkpt lat="46.53241755015411" lon="11.4932150237439"><ele>398.0</ele><time>2026-05-01T04:34:02Z</time></trkpt><trkpt lat="46.53262109975966" lon="11.493442840418709"><ele>398.0</ele><time>2026-05-01T04:34:03Z</time></trkpt><trkpt lat="46.532832172464715" lon="11.493657544044753"><ele>402.0</ele><time>2026-05-01T04:34:04Z</time></trkpt><trkpt lat="46.53305140855265" lon="11.493857858717115"><ele>406.0</ele><time>2026-05-01T04:34:05Z</time></trkpt><trkpt lat="46.533276645944866" lon="11.494044554092184"><ele>406.0</ele><time>2026-05-01T04:34:06Z</time></trkpt><trkpt lat="46.53350285149509" lon="11.494233759126079"><ele>406.0</ele><time>2026-05-01T04:34:07Z</time></trkpt><trkpt lat="46.53372626340835" lon="11.49443016449867"><ele>405.0</ele><time>2026-05-01T04:34:08Z</time></trkpt><trkpt lat="46.53394486759849" lon="11.494641968150093"><ele>404.0</ele><time>2026-05-01T04:34:09Z</time></trkpt><trkpt lat="46.534153334239875" lon="11.494867002336576"><ele>404.0</ele><time>2026-05-01T04:34:10Z</time></trkpt><trkpt lat="46.53435250224035" lon="11.495107249551774"><ele>404.0</ele><time>2026-05-01T04:34:11Z</time></trkpt><trkpt lat="46.534539551604006" lon="11.495359258498015"><ele>396.0</ele><time>2026-05-01T04:34:12Z</time></trkpt><trkpt lat="46.53471786912896" lon="11.495628092483347"><ele>388.0</ele><time>2026-05-01T04:34:13Z</time></trkpt><trkpt lat="46.5348809883234" lon="11.495908595966212"><ele>388.0</ele><time>2026-05-01T04:34:14Z</time></trkpt><trkpt lat="46.53503690178019" lon="11.496202386847054"><ele>388.0</ele><time>2026-05-01T04:34:15Z</time></trkpt><trkpt lat="46.535183995162924" lon="11.496502933180698"><ele>388.0</ele><time>2026-05-01T04:34:16Z</time></trkpt><trkpt lat="46.535333166408066" lon="11.496808596274903"><ele>388.0</ele><time>2026-05-01T04:34:17Z</time></trkpt><trkpt lat="46.535478771904586" lon="11.497106498730608"><ele>388.0</ele><time>2026-05-01T04:34:18Z</time></trkpt><trkpt lat="46.53562328856048" lon="11.497399475440972"><ele>388.0</ele><time>2026-05-01T04:34:19Z</time></trkpt><trkpt lat="46.535766281620496" lon="11.49769337421831"><ele>398.5</ele><time>2026-05-01T04:34:20Z</time></trkpt><trkpt lat="46.535909558055664" lon="11.497989255456135"><ele>409.0</ele><time>2026-05-01T04:34:21Z</time></trkpt><trkpt lat="46.53605174717465" lon="11.498284151879373"><ele>409.0</ele><time>2026-05-01T04:34:22Z</time></trkpt><trkpt lat="46.536191670444765" lon="11.498573080188256"><ele>409.0</ele><time>2026-05-01T04:34:23Z</time></trkpt><trkpt lat="46.5363373789153" lon="11.498865074049517"><ele>400.0</ele><time>2026-05-01T04:34:24Z</time></trkpt><trkpt lat="46.53648812694152" lon="11.499147497146902"><ele>391.0</ele><time>2026-05-01T04:34:25Z</time></trkpt><trkpt lat="46.53664677369838" lon="11.499427014170275"><ele>403.0</ele><time>2026-05-01T04:34:26Z</time></trkpt><trkpt lat="46.53681455554834" lon="11.499695391344952"><ele>415.0</ele><time>2026-05-01T04:34:27Z</time></trkpt><trkpt lat="46.53698952690681" lon="11.499944718557387"><ele>397.0</ele><time>2026-05-01T04:34:28Z</time></trkpt><trkpt lat="46.537180065144256" lon="11.50017992077076"><ele>379.0</ele><time>2026-05-01T04:34:29Z</time></trkpt><trkpt lat="46.53738066431484" lon="11.500399357130435"><ele>386.0</ele><time>2026-05-01T04:34:30Z</time></trkpt><trkpt lat="46.53758546229562" lon="11.500602798571125"><ele>393.0</ele><time>2026-05-01T04:34:31Z</time></trkpt><trkpt lat="46.537796618659854" lon="11.500801845089528"><ele>384.0</ele><time>2026-05-01T04:34:32Z</time></trkpt><trkpt lat="46.53801105471358" lon="11.500995216077014"><ele>375.0</ele><time>2026-05-01T04:34:33Z</time></trkpt><trkpt lat="46.538230155640655" lon="11.501187557636788"><ele>390.5</ele><time>2026-05-01T04:34:34Z</time></trkpt><trkpt lat="46.538449590185" lon="11.50137944630905"><ele>406.0</ele><time>2026-05-01T04:34:35Z</time></trkpt><trkpt lat="46.53866573653941" lon="11.501572962166277"><ele>394.0</ele><time>2026-05-01T04:34:36Z</time></trkpt><trkpt lat="46.538875745752144" lon="11.501768738752638"><ele>382.0</ele><time>2026-05-01T04:34:37Z</time></trkpt><trkpt lat="46.53907879102875" lon="11.50197008691692"><ele>391.5</ele><time>2026-05-01T04:34:38Z</time></trkpt><trkpt lat="46.539277832630084" lon="11.502189882189516"><ele>401.0</ele><time>2026-05-01T04:34:39Z</time></trkpt><trkpt lat="46.53947004947371" lon="11.502424672417762"><ele>403.0</ele><time>2026-05-01T04:34:40Z</time></trkpt><trkpt lat="46.5396568645871" lon="11.502669204853603"><ele>405.0</ele><time>2026-05-01T04:34:41Z</time></trkpt><trkpt lat="46.53984676544118" lon="11.502919280860343"><ele>405.0</ele><time>2026-05-01T04:34:42Z</time></trkpt><trkpt lat="46.5400388410575" lon="11.503163484340245"><ele>405.0</ele><time>2026-05-01T04:34:43Z</time></trkpt><trkpt lat="46.54023945181246" lon="11.503403430385024"><ele>407.5</ele><time>2026-05-01T04:34:44Z</time></trkpt><trkpt lat="46.540448076119375" lon="11.503628908593278"><ele>410.0</ele><time>2026-05-01T04:34:45Z</time></trkpt><trkpt lat="46.54066491855997" lon="11.503836197048567"><ele>410.0</ele><time>2026-05-01T04:34:46Z</time></trkpt><trkpt lat="46.54088645788769" lon="11.504021996591348"><ele>410.0</ele><time>2026-05-01T04:34:47Z</time></trkpt><trkpt lat="46.541113008705466" lon="11.504195047491065"><ele>400.5</ele><time>2026-05-01T04:34:48Z</time></trkpt><trkpt lat="46.54134306397961" lon="11.504368668488672"><ele>391.0</ele><time>2026-05-01T04:34:49Z</time></trkpt><trkpt lat="46.54157771414133" lon="11.504544715888876"><ele>405.5</ele><time>2026-05-01T04:34:50Z</time></trkpt><trkpt lat="46.54181325381006" lon="11.504723107401425"><ele>420.0</ele><time>2026-05-01T04:34:51Z</time></trkpt><trkpt lat="46.54204539906464" lon="11.504903781914276"><ele>404.5</ele><time>2026-05-01T04:34:52Z</time></trkpt><trkpt lat="46.542274076498465" lon="11.505098114034908"><ele>389.0</ele><time>2026-05-01T04:34:53Z</time></trkpt><trkpt lat="46.542492926138266" lon="11.505312401269652"><ele>394.5</ele><time>2026-05-01T04:34:54Z</time></trkpt><trkpt lat="46.5426985181992" lon="11.505548841735871"><ele>400.0</ele><time>2026-05-01T04:34:55Z</time></trkpt><trkpt lat="46.54289433519702" lon="11.505803194576604"><ele>400.0</ele><time>2026-05-01T04:34:56Z</time></trkpt><trkpt lat="46.54308316611097" lon="11.506067312923056"><ele>400.0</ele><time>2026-05-01T04:34:57Z</time></trkpt><trkpt lat="46.543274994785904" lon="11.506336138667152"><ele>410.0</ele><time>2026-05-01T04:34:58Z</time></trkpt><trkpt lat="46.543468655009555" lon="11.506597305707782"><ele>420.0</ele><time>2026-05-01T04:34:59Z</time></trkpt><trkpt lat="46.54366428984151" lon="11.506853166013421"><ele>411.5</ele><time>2026-05-01T04:35:00Z</time></trkpt><trkpt lat="46.543860842951666" lon="11.507103849592715"><ele>403.0</ele><time>2026-05-01T04:35:01Z</time></trkpt><trkpt lat="46.54406114109157" lon="11.507350843283728"><ele>403.0</ele><time>2026-05-01T04:35:02Z</time></trkpt><trkpt lat="46.54426365269363" lon="11.50759525281856"><ele>403.0</ele><time>2026-05-01T04:35:03Z</time></trkpt><trkpt lat="46.54446583277242" lon="11.507834047740273"><ele>400.0</ele><time>2026-05-01T04:35:04Z</time></trkpt><trkpt lat="46.544670714014075" lon="11.508071094150651"><ele>397.0</ele><time>2026-05-01T04:35:05Z</time></trkpt><trkpt lat="46.5448757544831" lon="11.508306165653444"><ele>397.0</ele><time>2026-05-01T04:35:06Z</time></trkpt><trkpt lat="46.545081143332155" lon="11.508541605467594"><ele>397.0</ele><time>2026-05-01T04:35:07Z</time></trkpt><trkpt lat="46.5452867862492" lon="11.508777408905052"><ele>398.5</ele><time>2026-05-01T04:35:08Z</time></trkpt><trkpt lat="46.54549103282278" lon="11.509014307466883"><ele>400.0</ele><time>2026-05-01T04:35:09Z</time></trkpt><trkpt lat="46.545693953093895" lon="11.50924999928607"><ele>400.0</ele><time>2026-05-01T04:35:10Z</time></trkpt><trkpt lat="46.54589976897741" lon="11.509480585013117"><ele>400.0</ele><time>2026-05-01T04:35:11.001Z</time></trkpt><trkpt lat="46.54610747890159" lon="11.509703973661543"><ele>404.0</ele><time>2026-05-01T04:35:12.001Z</time></trkpt><trkpt lat="46.546318333064846" lon="11.509914903180551"><ele>408.0</ele><time>2026-05-01T04:35:13.001Z</time></trkpt><trkpt lat="46.546535430552424" lon="11.510115922068415"><ele>408.0</ele><time>2026-05-01T04:35:14.001Z</time></trkpt><trkpt lat="46.54675739705859" lon="11.510305092234274"><ele>408.0</ele><time>2026-05-01T04:35:15.001Z</time></trkpt><trkpt lat="46.546981603384594" lon="11.510489359256939"><ele>410.5</ele><time>2026-05-01T04:35:16.001Z</time></trkpt><trkpt lat="46.54720187300335" lon="11.510675906280724"><ele>413.0</ele><time>2026-05-01T04:35:17.001Z</time></trkpt><trkpt lat="46.54741755588658" lon="11.510867616054409"><ele>413.0</ele><time>2026-05-01T04:35:18.001Z</time></trkpt><trkpt lat="46.54762754841888" lon="11.511066536934287"><ele>413.0</ele><time>2026-05-01T04:35:19.001Z</time></trkpt><trkpt lat="46.547836360038445" lon="11.511276444299682"><ele>410.5</ele><time>2026-05-01T04:35:20.001Z</time></trkpt><trkpt lat="46.548037989002" lon="11.51149286454466"><ele>408.0</ele><time>2026-05-01T04:35:21.001Z</time></trkpt><trkpt lat="46.54823624125202" lon="11.511718378455264"><ele>408.0</ele><time>2026-05-01T04:35:22.001Z</time></trkpt><trkpt lat="46.54843340006351" lon="11.51194677341386"><ele>408.0</ele><time>2026-05-01T04:35:23.001Z</time></trkpt><trkpt lat="46.548626776053275" lon="11.512180663886566"><ele>410.0</ele><time>2026-05-01T04:35:24.001Z</time></trkpt><trkpt lat="46.5488177171104" lon="11.512414070960034"><ele>412.0</ele><time>2026-05-01T04:35:25.001Z</time></trkpt><trkpt lat="46.54900891638977" lon="11.512644808679983"><ele>412.0</ele><time>2026-05-01T04:35:26.001Z</time></trkpt><trkpt lat="46.54920385807087" lon="11.51286755001949"><ele>412.0</ele><time>2026-05-01T04:35:27.001Z</time></trkpt><trkpt lat="46.5494029440374" lon="11.513081527542148"><ele>404.5</ele><time>2026-05-01T04:35:28.001Z</time></trkpt><trkpt lat="46.54960730255346" lon="11.513278483048364"><ele>397.0</ele><time>2026-05-01T04:35:29.001Z</time></trkpt><trkpt lat="46.54982053397789" lon="11.513457531715739"><ele>397.0</ele><time>2026-05-01T04:35:30.001Z</time></trkpt><trkpt lat="46.55004287046919" lon="11.51362123895266"><ele>397.0</ele><time>2026-05-01T04:35:31.001Z</time></trkpt><trkpt lat="46.55027106150511" lon="11.513764043970458"><ele>400.0</ele><time>2026-05-01T04:35:32.001Z</time></trkpt><trkpt lat="46.550502104473985" lon="11.513891601712222"><ele>403.0</ele><time>2026-05-01T04:35:33.001Z</time></trkpt><trkpt lat="46.55073902108936" lon="11.514002023840774"><ele>403.0</ele><time>2026-05-01T04:35:34.001Z</time></trkpt><trkpt lat="46.55097856680938" lon="11.51409555560674"><ele>403.0</ele><time>2026-05-01T04:35:35.001Z</time></trkpt><trkpt lat="46.55122023736742" lon="11.514180859491653"><ele>407.0</ele><time>2026-05-01T04:35:36.001Z</time></trkpt><trkpt lat="46.55146244157588" lon="11.514265967538359"><ele>411.0</ele><time>2026-05-01T04:35:37.001Z</time></trkpt><trkpt lat="46.55170366999591" lon="11.514352855851191"><ele>411.0</ele><time>2026-05-01T04:35:38.001Z</time></trkpt><trkpt lat="46.55194409989459" lon="11.514436585890346"><ele>411.0</ele><time>2026-05-01T04:35:39.001Z</time></trkpt><trkpt lat="46.552184464129496" lon="11.514509362728178"><ele>410.0</ele><time>2026-05-01T04:35:40.001Z</time></trkpt><trkpt lat="46.55242315523778" lon="11.514559476905605"><ele>409.0</ele><time>2026-05-01T04:35:41.001Z</time></trkpt><trkpt lat="46.552664583604326" lon="11.51458943194925"><ele>415.5</ele><time>2026-05-01T04:35:42Z</time></trkpt><trkpt lat="46.552905135126224" lon="11.514601492808985"><ele>422.0</ele><time>2026-05-01T04:35:43Z</time></trkpt><trkpt lat="46.55314824260969" lon="11.514593285595893"><ele>413.0</ele><time>2026-05-01T04:35:44Z</time></trkpt><trkpt lat="46.55339086294272" lon="11.514567133737385"><ele>404.0</ele><time>2026-05-01T04:35:45Z</time></trkpt><trkpt lat="46.55363213240969" lon="11.514523985508786"><ele>410.0</ele><time>2026-05-01T04:35:46Z</time></trkpt><trkpt lat="46.5538720621654" lon="11.514463146022095"><ele>416.0</ele><time>2026-05-01T04:35:47Z</time></trkpt><trkpt lat="46.554108039265856" lon="11.514380772979132"><ele>416.0</ele><time>2026-05-01T04:35:48Z</time></trkpt><trkpt lat="46.55433960283726" lon="11.514276759825668"><ele>416.0</ele><time>2026-05-01T04:35:49Z</time></trkpt><trkpt lat="46.5545680537339" lon="11.514155289813663"><ele>424.5</ele><time>2026-05-01T04:35:50Z</time></trkpt><trkpt lat="46.554795606945156" lon="11.514026814611906"><ele>433.0</ele><time>2026-05-01T04:35:51Z</time></trkpt><trkpt lat="46.555024067850944" lon="11.513898598752654"><ele>433.0</ele><time>2026-05-01T04:35:52Z</time></trkpt><trkpt lat="46.555256028159285" lon="11.513771246256848"><ele>433.0</ele><time>2026-05-01T04:35:53Z</time></trkpt><trkpt lat="46.555488239536466" lon="11.513645151377055"><ele>424.5</ele><time>2026-05-01T04:35:54Z</time></trkpt><trkpt lat="46.55572421232543" lon="11.51352224662683"><ele>416.0</ele><time>2026-05-01T04:35:55Z</time></trkpt><trkpt lat="46.55596221393628" lon="11.513411826855357"><ele>425.5</ele><time>2026-05-01T04:35:56Z</time></trkpt><trkpt lat="46.556205107132385" lon="11.513316740569378"><ele>435.0</ele><time>2026-05-01T04:35:57Z</time></trkpt><trkpt lat="46.556453811754054" lon="11.513245374115641"><ele>435.0</ele><time>2026-05-01T04:35:58Z</time></trkpt><trkpt lat="46.55670475051008" lon="11.513192124351999"><ele>435.0</ele><time>2026-05-01T04:35:59Z</time></trkpt><trkpt lat="46.55695722894475" lon="11.513160933545992"><ele>433.5</ele><time>2026-05-01T04:36:00Z</time></trkpt><trkpt lat="46.557211382424725" lon="11.513149839011996"><ele>432.0</ele><time>2026-05-01T04:36:01Z</time></trkpt><trkpt lat="46.55746589114427" lon="11.513160790689314"><ele>432.0</ele><time>2026-05-01T04:36:02Z</time></trkpt><trkpt lat="46.55771913684047" lon="11.513191126569868"><ele>432.0</ele><time>2026-05-01T04:36:03Z</time></trkpt><trkpt lat="46.55796918309113" lon="11.513243463129745"><ele>437.5</ele><time>2026-05-01T04:36:04Z</time></trkpt><trkpt lat="46.558215254252595" lon="11.513314392997673"><ele>443.0</ele><time>2026-05-01T04:36:05Z</time></trkpt><trkpt lat="46.558456331386424" lon="11.513404077300606"><ele>443.0</ele><time>2026-05-01T04:36:06Z</time></trkpt><trkpt lat="46.558698369872765" lon="11.513506193572738"><ele>443.0</ele><time>2026-05-01T04:36:07Z</time></trkpt><trkpt lat="46.558942753364946" lon="11.513619375597523"><ele>448.0</ele><time>2026-05-01T04:36:08Z</time></trkpt><trkpt lat="46.559187753976786" lon="11.513735618573415"><ele>453.0</ele><time>2026-05-01T04:36:09Z</time></trkpt><trkpt lat="46.5594348912913" lon="11.513852704319556"><ele>481.5</ele><time>2026-05-01T04:36:10Z</time></trkpt><trkpt lat="46.559673430377835" lon="11.51396166305588"><ele>510.0</ele><time>2026-05-01T04:36:11Z</time></trkpt><trkpt lat="46.55991677454329" lon="11.514064963047483"><ele>510.0</ele><time>2026-05-01T04:36:12Z</time></trkpt><trkpt lat="46.56016830464474" lon="11.514161853474823"><ele>510.0</ele><time>2026-05-01T04:36:13Z</time></trkpt><trkpt lat="46.560424930384364" lon="11.514251822153692"><ele>500.0</ele><time>2026-05-01T04:36:14Z</time></trkpt><trkpt lat="46.560683196145746" lon="11.514340571851918"><ele>490.0</ele><time>2026-05-01T04:36:15Z</time></trkpt><trkpt lat="46.560869128339306" lon="11.514366071897609"><ele>490.0</ele><time>2026-05-01T04:36:16Z</time></trkpt><trkpt lat="46.56112091569163" lon="11.51445147855713"><ele>490.0</ele><time>2026-05-01T04:36:17Z</time></trkpt><trkpt lat="46.56137218371382" lon="11.51454299717268"><ele>483.0</ele><time>2026-05-01T04:36:18Z</time></trkpt><trkpt lat="46.56162168576433" lon="11.514643218772516"><ele>476.0</ele><time>2026-05-01T04:36:19Z</time></trkpt><trkpt lat="46.56186732143786" lon="11.51475835601466"><ele>462.0</ele><time>2026-05-01T04:36:20Z</time></trkpt><trkpt lat="46.562108501384145" lon="11.514892149394631"><ele>448.0</ele><time>2026-05-01T04:36:21Z</time></trkpt><trkpt lat="46.562334025514716" lon="11.515054872779588"><ele>448.0</ele><time>2026-05-01T04:36:22Z</time></trkpt><trkpt lat="46.56253646056534" lon="11.515227717838169"><ele>448.0</ele><time>2026-05-01T04:36:23Z</time></trkpt><trkpt lat="46.56274254362508" lon="11.51542303370453"><ele>449.5</ele><time>2026-05-01T04:36:24Z</time></trkpt><trkpt lat="46.56295091358009" lon="11.51562414647374"><ele>451.0</ele><time>2026-05-01T04:36:25Z</time></trkpt><trkpt lat="46.56326496208376" lon="11.515902189591385"><ele>451.0</ele><time>2026-05-01T04:36:26Z</time></trkpt><trkpt lat="46.56348926164797" lon="11.516140591182612"><ele>451.0</ele><time>2026-05-01T04:36:27Z</time></trkpt><trkpt lat="46.56368365577461" lon="11.516373542274506"><ele>452.0</ele><time>2026-05-01T04:36:28Z</time></trkpt><trkpt lat="46.56388096274365" lon="11.516591778189989"><ele>453.0</ele><time>2026-05-01T04:36:29Z</time></trkpt><trkpt lat="46.56406530994779" lon="11.516803836324423"><ele>453.0</ele><time>2026-05-01T04:36:30Z</time></trkpt><trkpt lat="46.56424317154669" lon="11.517008737322659"><ele>453.0</ele><time>2026-05-01T04:36:31Z</time></trkpt><trkpt lat="46.564404695267655" lon="11.51721269698085"><ele>453.0</ele><time>2026-05-01T04:36:32Z</time></trkpt><trkpt lat="46.56455326347549" lon="11.517416186234845"><ele>451.0</ele><time>2026-05-01T04:36:33Z</time></trkpt><trkpt lat="46.564697132004774" lon="11.517626120108366"><ele>449.0</ele><time>2026-05-01T04:36:34Z</time></trkpt><trkpt lat="46.56483344106622" lon="11.517832532070914"><ele>447.0</ele><time>2026-05-01T04:36:35Z</time></trkpt><trkpt lat="46.56496262499177" lon="11.51803114908965"><ele>452.66666666666663</ele><time>2026-05-01T04:36:36Z</time></trkpt><trkpt lat="46.56508110753359" lon="11.518225277680372"><ele>458.3333333333333</ele><time>2026-05-01T04:36:37Z</time></trkpt><trkpt lat="46.565194557388594" lon="11.518447157850773"><ele>464.0</ele><time>2026-05-01T04:36:38Z</time></trkpt><trkpt lat="46.5652768447713" lon="11.518635792545279"><ele>456.3333333333333</ele><time>2026-05-01T04:36:39Z</time></trkpt><trkpt lat="46.5653836590551" lon="11.518807295226761"><ele>448.66666666666663</ele><time>2026-05-01T04:36:40Z</time></trkpt><trkpt lat="46.565490503183845" lon="11.51897775497972"><ele>441.0</ele><time>2026-05-01T04:36:41Z</time></trkpt><trkpt lat="46.565597962904825" lon="11.519153917012012"><ele>441.0</ele><time>2026-05-01T04:36:42Z</time></trkpt><trkpt lat="46.56570789545298" lon="11.519336181478279"><ele>441.0</ele><time>2026-05-01T04:36:43Z</time></trkpt><trkpt lat="46.56582182790666" lon="11.519520903879897"><ele>441.0</ele><time>2026-05-01T04:36:44Z</time></trkpt><trkpt lat="46.56593637829411" lon="11.51970667498304"><ele>440.66666666666663</ele><time>2026-05-01T04:36:45Z</time></trkpt><trkpt lat="46.56605035141201" lon="11.51989198677531"><ele>440.3333333333333</ele><time>2026-05-01T04:36:46Z</time></trkpt><trkpt lat="46.56616834950335" lon="11.520074475102435"><ele>440.0</ele><time>2026-05-01T04:36:47Z</time></trkpt><trkpt lat="46.566295741835035" lon="11.520253128511795"><ele>445.0</ele><time>2026-05-01T04:36:48Z</time></trkpt><trkpt lat="46.566427701663" lon="11.520425262977373"><ele>450.0</ele><time>2026-05-01T04:36:49Z</time></trkpt><trkpt lat="46.56656403978276" lon="11.52059278418576"><ele>455.0</ele><time>2026-05-01T04:36:50Z</time></trkpt><trkpt lat="46.56670429369339" lon="11.52075138744525"><ele>455.0</ele><time>2026-05-01T04:36:51Z</time></trkpt><trkpt lat="46.56684641373793" lon="11.520907750662653"><ele>455.0</ele><time>2026-05-01T04:36:52Z</time></trkpt><trkpt lat="46.56698963682151" lon="11.521062945766793"><ele>455.0</ele><time>2026-05-01T04:36:53Z</time></trkpt><trkpt lat="46.567132163387406" lon="11.521217750879517"><ele>455.3333333333333</ele><time>2026-05-01T04:36:54Z</time></trkpt><trkpt lat="46.567274393069965" lon="11.521365297506344"><ele>455.66666666666663</ele><time>2026-05-01T04:36:55Z</time></trkpt><trkpt lat="46.567417618446875" lon="11.521498361291183"><ele>456.0</ele><time>2026-05-01T04:36:56Z</time></trkpt><trkpt lat="46.56756653471487" lon="11.521620631243639"><ele>456.0</ele><time>2026-05-01T04:36:57Z</time></trkpt><trkpt lat="46.567719535522855" lon="11.521731807835236"><ele>456.0</ele><time>2026-05-01T04:36:58Z</time></trkpt><trkpt lat="46.56787281178697" lon="11.521833937049522"><ele>456.0</ele><time>2026-05-01T04:36:59Z</time></trkpt><trkpt lat="46.568024963423376" lon="11.521931889697036"><ele>454.66666666666663</ele><time>2026-05-01T04:37:00Z</time></trkpt><trkpt lat="46.56817504480831" lon="11.522026392845437"><ele>453.3333333333333</ele><time>2026-05-01T04:37:01Z</time></trkpt><trkpt lat="46.568321601148796" lon="11.522120537333784"><ele>452.0</ele><time>2026-05-01T04:37:02Z</time></trkpt><trkpt lat="46.568462070128845" lon="11.52221777083372"><ele>452.0</ele><time>2026-05-01T04:37:03Z</time></trkpt><trkpt lat="46.56859501633903" lon="11.522314824656679"><ele>452.0</ele><time>2026-05-01T04:37:04Z</time></trkpt><trkpt lat="46.568719541016506" lon="11.522407129142495"><ele>452.0</ele><time>2026-05-01T04:37:05Z</time></trkpt><trkpt lat="46.56883862944368" lon="11.522500273950754"><ele>452.0</ele><time>2026-05-01T04:37:06Z</time></trkpt><trkpt lat="46.56894946130268" lon="11.522588535645115"><ele>451.8</ele><time>2026-05-01T04:37:07Z</time></trkpt><trkpt lat="46.569053470090985" lon="11.522672225075402"><ele>451.6</ele><time>2026-05-01T04:37:08Z</time></trkpt><trkpt lat="46.56914748313176" lon="11.522749203353314"><ele>451.40000000000003</ele><time>2026-05-01T04:37:09Z</time></trkpt><trkpt lat="46.56922737004174" lon="11.52281475998618"><ele>451.20000000000005</ele><time>2026-05-01T04:37:10Z</time></trkpt><trkpt lat="46.56928845585493" lon="11.522865442654574"><ele>451.0</ele><time>2026-05-01T04:37:11Z</time></trkpt><trkpt lat="46.56937007187659" lon="11.522932147355034"><ele>451.00000000000006</ele><time>2026-05-01T04:37:13Z</time></trkpt><trkpt lat="46.5694309997689" lon="11.522982133622351"><ele>451.0</ele><time>2026-05-01T04:37:15.001Z</time></trkpt><trkpt lat="46.569506344584894" lon="11.523037413352466"><ele>451.0</ele><time>2026-05-01T04:37:18.001Z</time></trkpt><trkpt lat="46.569558479909354" lon="11.523124029715039"><ele>451.0</ele><time>2026-05-01T04:37:21.001Z</time></trkpt><trkpt lat="46.569629817954926" lon="11.523074976703093"><ele>451.00000000000006</ele><time>2026-05-01T04:37:23.001Z</time></trkpt><trkpt lat="46.56969912526496" lon="11.523089994900177"><ele>451.0</ele><time>2026-05-01T04:37:26.001Z</time></trkpt><trkpt lat="46.56977241415151" lon="11.523075938822256"><ele>450.6</ele><time>2026-05-01T04:37:30.001Z</time></trkpt><trkpt lat="46.56979886838875" lon="11.523192095490504"><ele>450.20000000000005</ele><time>2026-05-01T04:37:32.001Z</time></trkpt><trkpt lat="46.56983155735612" lon="11.523285289832835"><ele>449.79999999999995</ele><time>2026-05-01T04:37:36.001Z</time></trkpt><trkpt lat="46.569929274150866" lon="11.523284817200379"><ele>449.4</ele><time>2026-05-01T04:41:04Z</time></trkpt><trkpt lat="46.56999836061538" lon="11.523285554843689"><ele>449.0</ele><time>2026-05-01T04:41:09Z</time></trkpt><trkpt lat="46.57015916615791" lon="11.523169037399267"><ele>449.0</ele><time>2026-05-01T04:44:33.042Z</time></trkpt><trkpt lat="46.57023267542573" lon="11.523008677277083"><ele>449.0</ele><time>2026-05-01T04:44:39.047Z</time></trkpt><trkpt lat="46.57015828957621" lon="11.52316074181299"><ele>449.0</ele><time>2026-05-01T04:46:27.774Z</time></trkpt><trkpt lat="46.570143757335025" lon="11.523277091391035"><ele>449.0</ele><time>2026-05-01T04:46:31.01Z</time></trkpt><trkpt lat="46.57017809550858" lon="11.523407861791378"><ele>449.0</ele><time>2026-05-01T04:47:55.014Z</time></trkpt><trkpt lat="46.57014628052971" lon="11.523328377907502"><ele>449.0</ele><time>2026-05-01T04:47:57.003Z</time></trkpt><trkpt lat="46.57020496610498" lon="11.523286644119054"><ele>449.0</ele><time>2026-05-01T04:48:04Z</time></trkpt><trkpt lat="46.57027318145857" lon="11.523333835700697"><ele>449.0</ele><time>2026-05-01T04:48:10Z</time></trkpt><trkpt lat="46.570276068690724" lon="11.523126758879"><ele>449.0</ele><time>2026-05-01T04:48:30.512Z</time></trkpt><trkpt lat="46.57022037937885" lon="11.5232365879868"><ele>449.0</ele><time>2026-05-01T04:50:05.011Z</time></trkpt><trkpt lat="46.57021317819021" lon="11.523462399995681"><ele>449.0</ele><time>2026-05-01T04:50:35.012Z</time></trkpt><trkpt lat="46.570270276103315" lon="11.523417911734734"><ele>448.99999999999994</ele><time>2026-05-01T04:50:48.012Z</time></trkpt><trkpt lat="46.57023111520482" lon="11.523338240780092"><ele>449.0</ele><time>2026-05-01T04:50:51.001Z</time></trkpt><trkpt lat="46.57018051294876" lon="11.523280618380365"><ele>449.0</ele><time>2026-05-01T04:50:56Z</time></trkpt><trkpt lat="46.57011961832599" lon="11.523237634869806"><ele>448.99999999999994</ele><time>2026-05-01T04:51:01Z</time></trkpt><trkpt lat="46.57001221545118" lon="11.52322978384808"><ele>449.0</ele><time>2026-05-01T04:51:02Z</time></trkpt><trkpt lat="46.569955555448736" lon="11.52327518058712"><ele>449.0</ele><time>2026-05-01T04:51:06Z</time></trkpt><trkpt lat="46.56988637827334" lon="11.523297209044157"><ele>448.99999999999994</ele><time>2026-05-01T04:51:10Z</time></trkpt><trkpt lat="46.569962028083" lon="11.523209392451584"><ele>449.0</ele><time>2026-05-01T05:05:05Z</time></trkpt><trkpt lat="46.57003209586703" lon="11.523122353531507"><ele>449.0</ele><time>2026-05-01T05:05:08Z</time></trkpt><trkpt lat="46.57010925760741" lon="11.523112635212861"><ele>449.0</ele><time>2026-05-01T05:05:10Z</time></trkpt><trkpt lat="46.570173415944296" lon="11.523171604686986"><ele>448.99999999999994</ele><time>2026-05-01T05:05:12Z</time></trkpt><trkpt lat="46.57023196175144" lon="11.523227631985966"><ele>449.0</ele><time>2026-05-01T05:05:14Z</time></trkpt><trkpt lat="46.570331429499866" lon="11.52330792901338"><ele>449.16666666666663</ele><time>2026-05-01T05:07:25Z</time></trkpt><trkpt lat="46.570433150824016" lon="11.523393904564212"><ele>449.3333333333333</ele><time>2026-05-01T05:08:05Z</time></trkpt><trkpt lat="46.570516371075136" lon="11.523391090639826"><ele>449.5</ele><time>2026-05-01T05:08:10Z</time></trkpt><trkpt lat="46.570588107338324" lon="11.523368601733024"><ele>449.66666666666663</ele><time>2026-05-01T05:08:18Z</time></trkpt><trkpt lat="46.57063409637506" lon="11.523273184653398"><ele>449.8333333333333</ele><time>2026-05-01T05:08:21Z</time></trkpt><trkpt lat="46.5705641497907" lon="11.523239630442225"><ele>450.0</ele><time>2026-05-01T05:08:22Z</time></trkpt><trkpt lat="46.57046440848528" lon="11.523234574597813"><ele>450.0</ele><time>2026-05-01T05:08:25Z</time></trkpt><trkpt lat="46.57039718600723" lon="11.52326483403128"><ele>450.0</ele><time>2026-05-01T05:08:31Z</time></trkpt><trkpt lat="46.570316821193835" lon="11.52330480914649"><ele>450.0</ele><time>2026-05-01T05:09:34Z</time></trkpt><trkpt lat="46.57039049619927" lon="11.523279142625393"><ele>450.0</ele><time>2026-05-01T05:12:50.001Z</time></trkpt><trkpt lat="46.57046322900796" lon="11.523273300230406"><ele>450.0</ele><time>2026-05-01T05:12:53.001Z</time></trkpt><trkpt lat="46.570540813162026" lon="11.523261998811615"><ele>450.0</ele><time>2026-05-01T05:12:56.001Z</time></trkpt><trkpt lat="46.57060742161773" lon="11.523236509415534"><ele>450.0</ele><time>2026-05-01T05:12:59.001Z</time></trkpt><trkpt lat="46.570694834462664" lon="11.523207075394913"><ele>450.0</ele><time>2026-05-01T05:13:02.001Z</time></trkpt><trkpt lat="46.57079445611903" lon="11.523152079890972"><ele>450.0</ele><time>2026-05-01T05:13:04.001Z</time></trkpt><trkpt lat="46.57091473726644" lon="11.523066955342538"><ele>450.0</ele><time>2026-05-01T05:13:06.001Z</time></trkpt><trkpt lat="46.57098766598639" lon="11.52304160243043"><ele>450.0</ele><time>2026-05-01T05:13:07.001Z</time></trkpt><trkpt lat="46.57107631728341" lon="11.523038841591797"><ele>450.0</ele><time>2026-05-01T05:13:08.001Z</time></trkpt><trkpt lat="46.57116748406459" lon="11.52302447579097"><ele>450.0</ele><time>2026-05-01T05:13:09.001Z</time></trkpt><trkpt lat="46.571262353715554" lon="11.523095170670622"><ele>450.0</ele><time>2026-05-01T05:13:10.001Z</time></trkpt><trkpt lat="46.57137283790304" lon="11.523129620775256"><ele>450.0</ele><time>2026-05-01T05:13:11.001Z</time></trkpt><trkpt lat="46.571498210068995" lon="11.523158771677256"><ele>450.0</ele><time>2026-05-01T05:13:12.001Z</time></trkpt><trkpt lat="46.57163757829357" lon="11.523183433322224"><ele>451.33333333333337</ele><time>2026-05-01T05:13:13.001Z</time></trkpt><trkpt lat="46.5717886142515" lon="11.523208429372875"><ele>452.6666666666667</ele><time>2026-05-01T05:13:14.001Z</time></trkpt><trkpt lat="46.57193751510361" lon="11.52323704661245"><ele>454.0</ele><time>2026-05-01T05:13:15.001Z</time></trkpt><trkpt lat="46.572089004310826" lon="11.523270280736202"><ele>456.33333333333337</ele><time>2026-05-01T05:13:16.001Z</time></trkpt><trkpt lat="46.57224918547797" lon="11.52331077446613"><ele>458.66666666666663</ele><time>2026-05-01T05:13:17.001Z</time></trkpt><trkpt lat="46.57241961566968" lon="11.523354399295462"><ele>461.0</ele><time>2026-05-01T05:13:18.001Z</time></trkpt><trkpt lat="46.57258533687316" lon="11.523402977593651"><ele>461.0</ele><time>2026-05-01T05:13:19.001Z</time></trkpt><trkpt lat="46.57275002078517" lon="11.52345709999502"><ele>461.0</ele><time>2026-05-01T05:13:20.001Z</time></trkpt><trkpt lat="46.57290169893195" lon="11.52351356864844"><ele>461.0</ele><time>2026-05-01T05:13:21.001Z</time></trkpt><trkpt lat="46.57304876330927" lon="11.523574920531361"><ele>462.3333333333333</ele><time>2026-05-01T05:13:22.001Z</time></trkpt><trkpt lat="46.5732012814233" lon="11.52363523161725"><ele>463.66666666666663</ele><time>2026-05-01T05:13:23.001Z</time></trkpt><trkpt lat="46.57335870514682" lon="11.523662036457136"><ele>465.0</ele><time>2026-05-01T05:13:24.001Z</time></trkpt><trkpt lat="46.57349582947224" lon="11.523685377017689"><ele>443.0</ele><time>2026-05-01T05:13:25.063Z</time></trkpt><trkpt lat="46.57414431754231" lon="11.523650251129508"><ele>443.0</ele><time>2026-05-01T05:13:27.001Z</time></trkpt><trkpt lat="46.57437855888819" lon="11.52365703514868"><ele>443.0</ele><time>2026-05-01T05:13:28.001Z</time></trkpt><trkpt lat="46.5746115260101" lon="11.523667922967473"><ele>439.0</ele><time>2026-05-01T05:13:29.001Z</time></trkpt><trkpt lat="46.574847000739474" lon="11.523648065359268"><ele>435.0</ele><time>2026-05-01T05:13:30.001Z</time></trkpt><trkpt lat="46.57508622965028" lon="11.523630741639181"><ele>435.0</ele><time>2026-05-01T05:13:31.001Z</time></trkpt><trkpt lat="46.57532424728112" lon="11.523603556262119"><ele>435.0</ele><time>2026-05-01T05:13:32.001Z</time></trkpt><trkpt lat="46.575567104814226" lon="11.523576021385482"><ele>438.5</ele><time>2026-05-01T05:13:33.001Z</time></trkpt><trkpt lat="46.57580362801504" lon="11.523554051319666"><ele>442.0</ele><time>2026-05-01T05:13:34.001Z</time></trkpt><trkpt lat="46.57604591043447" lon="11.523528441927233"><ele>443.5</ele><time>2026-05-01T05:13:35.001Z</time></trkpt><trkpt lat="46.57629023632487" lon="11.523502635269727"><ele>445.0</ele><time>2026-05-01T05:13:36.001Z</time></trkpt><trkpt lat="46.576536411138726" lon="11.523483774574098"><ele>445.0</ele><time>2026-05-01T05:13:37.001Z</time></trkpt><trkpt lat="46.57678533238224" lon="11.523464435343922"><ele>445.0</ele><time>2026-05-01T05:13:38.001Z</time></trkpt><trkpt lat="46.5770381827342" lon="11.523454957994852"><ele>446.0</ele><time>2026-05-01T05:13:39.001Z</time></trkpt><trkpt lat="46.57729295984804" lon="11.523457162950914"><ele>447.0</ele><time>2026-05-01T05:13:40.001Z</time></trkpt><trkpt lat="46.577546703451205" lon="11.523478532846767"><ele>447.0</ele><time>2026-05-01T05:13:41.001Z</time></trkpt><trkpt lat="46.57780310330166" lon="11.52351990131368"><ele>447.0</ele><time>2026-05-01T05:13:42.001Z</time></trkpt><trkpt lat="46.578064655621496" lon="11.523575954037016"><ele>444.0</ele><time>2026-05-01T05:13:43.001Z</time></trkpt><trkpt lat="46.578327034778766" lon="11.52363819660512"><ele>441.0</ele><time>2026-05-01T05:13:44.001Z</time></trkpt><trkpt lat="46.57859092331252" lon="11.523703021289283"><ele>451.0</ele><time>2026-05-01T05:13:45.001Z</time></trkpt><trkpt lat="46.57885304086321" lon="11.523766188340732"><ele>461.0</ele><time>2026-05-01T05:13:46.001Z</time></trkpt><trkpt lat="46.57911132468045" lon="11.523829835062264"><ele>461.0</ele><time>2026-05-01T05:13:47.001Z</time></trkpt><trkpt lat="46.57936796813903" lon="11.523890149584211"><ele>461.0</ele><time>2026-05-01T05:13:48.001Z</time></trkpt><trkpt lat="46.57962506540806" lon="11.523952512385632"><ele>463.0</ele><time>2026-05-01T05:13:49.001Z</time></trkpt><trkpt lat="46.57988131089402" lon="11.524008742017527"><ele>465.0</ele><time>2026-05-01T05:13:50.001Z</time></trkpt><trkpt lat="46.5801360436502" lon="11.524066727910304"><ele>461.5</ele><time>2026-05-01T05:13:51.001Z</time></trkpt><trkpt lat="46.580390348495655" lon="11.524123614361997"><ele>458.0</ele><time>2026-05-01T05:13:52.001Z</time></trkpt><trkpt lat="46.58064439014831" lon="11.524178777802478"><ele>458.0</ele><time>2026-05-01T05:13:53.001Z</time></trkpt><trkpt lat="46.58090296310611" lon="11.524229473827633"><ele>458.0</ele><time>2026-05-01T05:13:54.001Z</time></trkpt><trkpt lat="46.581161617422666" lon="11.52427553881673"><ele>457.0</ele><time>2026-05-01T05:13:55.001Z</time></trkpt><trkpt lat="46.58142119873325" lon="11.5243133475945"><ele>456.0</ele><time>2026-05-01T05:13:56.001Z</time></trkpt><trkpt lat="46.58168282861778" lon="11.524341923129075"><ele>456.0</ele><time>2026-05-01T05:13:57.001Z</time></trkpt><trkpt lat="46.581945426215896" lon="11.524359453069257"><ele>456.0</ele><time>2026-05-01T05:13:58.001Z</time></trkpt><trkpt lat="46.582210822643106" lon="11.524364997047424"><ele>456.0</ele><time>2026-05-01T05:13:59.001Z</time></trkpt><trkpt lat="46.5824764254389" lon="11.524361409090796"><ele>456.0</ele><time>2026-05-01T05:14:00Z</time></trkpt><trkpt lat="46.58274441615837" lon="11.524353219013163"><ele>457.0</ele><time>2026-05-01T05:14:01Z</time></trkpt><trkpt lat="46.58301231780817" lon="11.524345113651691"><ele>458.0</ele><time>2026-05-01T05:14:02Z</time></trkpt><trkpt lat="46.58328212910859" lon="11.524336037147956"><ele>458.0</ele><time>2026-05-01T05:14:03Z</time></trkpt><trkpt lat="46.58355070671409" lon="11.524330858663948"><ele>458.0</ele><time>2026-05-01T05:14:04Z</time></trkpt><trkpt lat="46.58381764309886" lon="11.524330983967708"><ele>458.0</ele><time>2026-05-01T05:14:05Z</time></trkpt><trkpt lat="46.584085931488374" lon="11.524344125599617"><ele>458.0</ele><time>2026-05-01T05:14:06Z</time></trkpt><trkpt lat="46.5843511287207" lon="11.524371160675589"><ele>457.5</ele><time>2026-05-01T05:14:07Z</time></trkpt><trkpt lat="46.584612450950054" lon="11.524422583566752"><ele>457.0</ele><time>2026-05-01T05:14:08Z</time></trkpt><trkpt lat="46.58487567590859" lon="11.524497791687443"><ele>463.0</ele><time>2026-05-01T05:14:09Z</time></trkpt><trkpt lat="46.58513325068722" lon="11.524596297883745"><ele>469.0</ele><time>2026-05-01T05:14:10Z</time></trkpt><trkpt lat="46.58538710451111" lon="11.52471917146882"><ele>469.0</ele><time>2026-05-01T05:14:11Z</time></trkpt><trkpt lat="46.585635928141706" lon="11.52486098916468"><ele>469.0</ele><time>2026-05-01T05:14:12Z</time></trkpt><trkpt lat="46.58587981814869" lon="11.525017584286724"><ele>469.0</ele><time>2026-05-01T05:14:13Z</time></trkpt><trkpt lat="46.58612360139123" lon="11.52519021496031"><ele>469.0</ele><time>2026-05-01T05:14:14Z</time></trkpt><trkpt lat="46.586362384288485" lon="11.525374220760835"><ele>470.5</ele><time>2026-05-01T05:14:15Z</time></trkpt><trkpt lat="46.586598593979495" lon="11.525566217370644"><ele>472.0</ele><time>2026-05-01T05:14:16Z</time></trkpt><trkpt lat="46.58683397137634" lon="11.525758641846966"><ele>465.0</ele><time>2026-05-01T05:14:17Z</time></trkpt><trkpt lat="46.58706704056132" lon="11.525947949172002"><ele>458.0</ele><time>2026-05-01T05:14:18Z</time></trkpt><trkpt lat="46.587304352148884" lon="11.526135773678964"><ele>470.5</ele><time>2026-05-01T05:14:19Z</time></trkpt><trkpt lat="46.58754100096416" lon="11.526318653016759"><ele>483.0</ele><time>2026-05-01T05:14:20Z</time></trkpt><trkpt lat="46.587777768248614" lon="11.526496189766839"><ele>475.5</ele><time>2026-05-01T05:14:21Z</time></trkpt><trkpt lat="46.58801640136512" lon="11.526675239909919"><ele>468.0</ele><time>2026-05-01T05:14:22Z</time></trkpt><trkpt lat="46.5882547274685" lon="11.526854031342149"><ele>468.0</ele><time>2026-05-01T05:14:23Z</time></trkpt><trkpt lat="46.58849358378122" lon="11.527031363836828"><ele>468.0</ele><time>2026-05-01T05:14:24Z</time></trkpt><trkpt lat="46.58873207621309" lon="11.527206423766211"><ele>473.0</ele><time>2026-05-01T05:14:25Z</time></trkpt><trkpt lat="46.588971935747345" lon="11.527377674823569"><ele>478.0</ele><time>2026-05-01T05:14:26Z</time></trkpt><trkpt lat="46.58921150387146" lon="11.527547649676286"><ele>478.0</ele><time>2026-05-01T05:14:27Z</time></trkpt><trkpt lat="46.58945023618295" lon="11.527715309380739"><ele>478.0</ele><time>2026-05-01T05:14:28.001Z</time></trkpt><trkpt lat="46.58968943141305" lon="11.527883806624665"><ele>483.0</ele><time>2026-05-01T05:14:29.001Z</time></trkpt><trkpt lat="46.58992873255058" lon="11.528054193838624"><ele>488.0</ele><time>2026-05-01T05:14:30.001Z</time></trkpt><trkpt lat="46.59016964450992" lon="11.528225414919222"><ele>481.0</ele><time>2026-05-01T05:14:31.001Z</time></trkpt><trkpt lat="46.59041022269828" lon="11.52839499069914"><ele>474.0</ele><time>2026-05-01T05:14:32.001Z</time></trkpt><trkpt lat="46.59065161272423" lon="11.528564076599817"><ele>493.0</ele><time>2026-05-01T05:14:33.001Z</time></trkpt><trkpt lat="46.590894268946165" lon="11.528731519054183"><ele>512.0</ele><time>2026-05-01T05:14:34.001Z</time></trkpt><trkpt lat="46.59113574552151" lon="11.528897921767994"><ele>499.0</ele><time>2026-05-01T05:14:35.001Z</time></trkpt><trkpt lat="46.591376463073146" lon="11.529063803476458"><ele>486.0</ele><time>2026-05-01T05:14:36.001Z</time></trkpt><trkpt lat="46.591618155364564" lon="11.529228666168004"><ele>486.0</ele><time>2026-05-01T05:14:37.001Z</time></trkpt><trkpt lat="46.59185863942099" lon="11.529397053206962"><ele>486.0</ele><time>2026-05-01T05:14:38.001Z</time></trkpt><trkpt lat="46.59209816725349" lon="11.529567175915712"><ele>490.5</ele><time>2026-05-01T05:14:39.001Z</time></trkpt><trkpt lat="46.59233703170804" lon="11.529738426530434"><ele>495.0</ele><time>2026-05-01T05:14:40.001Z</time></trkpt><trkpt lat="46.59257555540793" lon="11.529907208529307"><ele>495.0</ele><time>2026-05-01T05:14:41.001Z</time></trkpt><trkpt lat="46.59281598658313" lon="11.530075345363569"><ele>495.0</ele><time>2026-05-01T05:14:42.001Z</time></trkpt><trkpt lat="46.59305533000738" lon="11.530247291088214"><ele>500.0</ele><time>2026-05-01T05:14:43.001Z</time></trkpt><trkpt lat="46.59329447911351" lon="11.53042545858104"><ele>505.0</ele><time>2026-05-01T05:14:44.001Z</time></trkpt><trkpt lat="46.59352887917632" lon="11.530614092074323"><ele>494.0</ele><time>2026-05-01T05:14:45.001Z</time></trkpt><trkpt lat="46.59375871511485" lon="11.530818376230778"><ele>483.0</ele><time>2026-05-01T05:14:46.001Z</time></trkpt><trkpt lat="46.59397885808796" lon="11.531036430843981"><ele>503.0</ele><time>2026-05-01T05:14:47.001Z</time></trkpt><trkpt lat="46.59419629810016" lon="11.531266287623174"><ele>523.0</ele><time>2026-05-01T05:14:48.001Z</time></trkpt><trkpt lat="46.594411481590015" lon="11.531496877595968"><ele>512.5</ele><time>2026-05-01T05:14:49.001Z</time></trkpt><trkpt lat="46.594628765185014" lon="11.53172464634646"><ele>502.0</ele><time>2026-05-01T05:14:50.001Z</time></trkpt><trkpt lat="46.594828518696644" lon="11.53193843224132"><ele>522.0</ele><time>2026-05-01T05:14:51.001Z</time></trkpt><trkpt lat="46.59502993003396" lon="11.532146406540967"><ele>542.0</ele><time>2026-05-01T05:14:52.001Z</time></trkpt><trkpt lat="46.59523565973366" lon="11.532347262082206"><ele>534.5</ele><time>2026-05-01T05:14:53.001Z</time></trkpt><trkpt lat="46.59544488627171" lon="11.532536445262476"><ele>527.0</ele><time>2026-05-01T05:14:54.001Z</time></trkpt><trkpt lat="46.595658310982266" lon="11.532712868612357"><ele>527.0</ele><time>2026-05-01T05:14:55.001Z</time></trkpt><trkpt lat="46.59588967965553" lon="11.532885164883558"><ele>527.0</ele><time>2026-05-01T05:14:56.064Z</time></trkpt><trkpt lat="46.59610920768173" lon="11.533027134917504"><ele>537.5</ele><time>2026-05-01T05:14:57.064Z</time></trkpt><trkpt lat="46.59632897214787" lon="11.533157096231122"><ele>548.0</ele><time>2026-05-01T05:14:58.06Z</time></trkpt><trkpt lat="46.597855790598075" lon="11.533636554019449"><ele>530.0</ele><time>2026-05-01T05:15:04.001Z</time></trkpt><trkpt lat="46.59824047649478" lon="11.533755119824011"><ele>512.0</ele><time>2026-05-01T05:15:05.001Z</time></trkpt><trkpt lat="46.59849649672253" lon="11.533781954723763"><ele>523.5</ele><time>2026-05-01T05:15:06.001Z</time></trkpt><trkpt lat="46.59877112686799" lon="11.53378989406219"><ele>535.0</ele><time>2026-05-01T05:15:07.001Z</time></trkpt><trkpt lat="46.59903201220217" lon="11.533806334052603"><ele>535.0</ele><time>2026-05-01T05:15:08.001Z</time></trkpt><trkpt lat="46.59929503272945" lon="11.533820045298341"><ele>535.0</ele><time>2026-05-01T05:15:09.001Z</time></trkpt><trkpt lat="46.59955771021435" lon="11.533833488306087"><ele>519.5</ele><time>2026-05-01T05:15:10.001Z</time></trkpt><trkpt lat="46.599819199213336" lon="11.5338478315718"><ele>504.0</ele><time>2026-05-01T05:15:11.001Z</time></trkpt><trkpt lat="46.60008250399415" lon="11.533863391385408"><ele>499.0</ele><time>2026-05-01T05:15:12.001Z</time></trkpt><trkpt lat="46.60038424576324" lon="11.533893064583587"><ele>494.0</ele><time>2026-05-01T05:15:13.001Z</time></trkpt><trkpt lat="46.60065277750762" lon="11.533975697997194"><ele>494.0</ele><time>2026-05-01T05:15:14.001Z</time></trkpt><trkpt lat="46.60092573447805" lon="11.534055236276652"><ele>494.0</ele><time>2026-05-01T05:15:15.001Z</time></trkpt><trkpt lat="46.60119194588052" lon="11.534141627006465"><ele>491.0</ele><time>2026-05-01T05:15:16.001Z</time></trkpt><trkpt lat="46.601451197729965" lon="11.53423184636755"><ele>488.0</ele><time>2026-05-01T05:15:17.001Z</time></trkpt><trkpt lat="46.60170863513794" lon="11.534324860375538"><ele>488.0</ele><time>2026-05-01T05:15:18.001Z</time></trkpt><trkpt lat="46.601964260976544" lon="11.534419103257155"><ele>488.0</ele><time>2026-05-01T05:15:19.001Z</time></trkpt><trkpt lat="46.60221911656247" lon="11.534513119747471"><ele>497.0</ele><time>2026-05-01T05:15:20.001Z</time></trkpt><trkpt lat="46.602475315737465" lon="11.534599428386484"><ele>506.0</ele><time>2026-05-01T05:15:21.001Z</time></trkpt><trkpt lat="46.60272606547316" lon="11.53468142841344"><ele>505.0</ele><time>2026-05-01T05:15:22.001Z</time></trkpt><trkpt lat="46.60297768193184" lon="11.534765426183474"><ele>504.0</ele><time>2026-05-01T05:15:23.001Z</time></trkpt><trkpt lat="46.60322825574556" lon="11.534849671764354"><ele>504.0</ele><time>2026-05-01T05:15:24.001Z</time></trkpt><trkpt lat="46.60348247086548" lon="11.534927866108331"><ele>504.0</ele><time>2026-05-01T05:15:25.001Z</time></trkpt><trkpt lat="46.603736396965495" lon="11.534992094684656"><ele>497.5</ele><time>2026-05-01T05:15:26.001Z</time></trkpt><trkpt lat="46.60398916721625" lon="11.535042373617106"><ele>491.0</ele><time>2026-05-01T05:15:27.001Z</time></trkpt><trkpt lat="46.60424548576137" lon="11.535080498765618"><ele>490.0</ele><time>2026-05-01T05:15:28.001Z</time></trkpt><trkpt lat="46.604501199121515" lon="11.535112726992098"><ele>489.0</ele><time>2026-05-01T05:15:29.001Z</time></trkpt><trkpt lat="46.60475974425223" lon="11.535144473941568"><ele>489.0</ele><time>2026-05-01T05:15:30.001Z</time></trkpt><trkpt lat="46.605021300773586" lon="11.535177448266571"><ele>489.0</ele><time>2026-05-01T05:15:31.001Z</time></trkpt><trkpt lat="46.60528165758348" lon="11.535210466371693"><ele>490.5</ele><time>2026-05-01T05:15:32.001Z</time></trkpt><trkpt lat="46.60554361452138" lon="11.535248589862753"><ele>492.0</ele><time>2026-05-01T05:15:33.001Z</time></trkpt><trkpt lat="46.60580784536506" lon="11.535292398285398"><ele>492.0</ele><time>2026-05-01T05:15:34.001Z</time></trkpt><trkpt lat="46.606073530038486" lon="11.535342399382593"><ele>492.0</ele><time>2026-05-01T05:15:35.001Z</time></trkpt><trkpt lat="46.606339916603034" lon="11.535402339286634"><ele>512.0</ele><time>2026-05-01T05:15:36.001Z</time></trkpt><trkpt lat="46.606604982489785" lon="11.535471352270681"><ele>532.0</ele><time>2026-05-01T05:15:37.001Z</time></trkpt><trkpt lat="46.606869543409665" lon="11.53555011161079"><ele>523.5</ele><time>2026-05-01T05:15:38.001Z</time></trkpt><trkpt lat="46.60713432746048" lon="11.535638601900844"><ele>515.0</ele><time>2026-05-01T05:15:39.001Z</time></trkpt><trkpt lat="46.60739750881739" lon="11.535731960546526"><ele>515.0</ele><time>2026-05-01T05:15:40.001Z</time></trkpt><trkpt lat="46.607657860283474" lon="11.535827004385334"><ele>515.0</ele><time>2026-05-01T05:15:41.001Z</time></trkpt><trkpt lat="46.607915681956506" lon="11.535921793597153"><ele>511.5</ele><time>2026-05-01T05:15:42.001Z</time></trkpt><trkpt lat="46.60817731264709" lon="11.536018022814208"><ele>508.0</ele><time>2026-05-01T05:15:43.001Z</time></trkpt><trkpt lat="46.60843849851656" lon="11.536113017237088"><ele>501.5</ele><time>2026-05-01T05:15:44.001Z</time></trkpt><trkpt lat="46.608699592905765" lon="11.536208904900379"><ele>495.0</ele><time>2026-05-01T05:15:45.001Z</time></trkpt><trkpt lat="46.60895957626718" lon="11.536305344019302"><ele>509.5</ele><time>2026-05-01T05:15:46.001Z</time></trkpt><trkpt lat="46.60921871789805" lon="11.536402126959139"><ele>524.0</ele><time>2026-05-01T05:15:47.001Z</time></trkpt><trkpt lat="46.609480272914965" lon="11.536498210480886"><ele>517.0</ele><time>2026-05-01T05:15:48.001Z</time></trkpt><trkpt lat="46.609740379584444" lon="11.536595665609921"><ele>510.0</ele><time>2026-05-01T05:15:49.001Z</time></trkpt><trkpt lat="46.609999219590755" lon="11.536692720723973"><ele>510.0</ele><time>2026-05-01T05:15:50.001Z</time></trkpt><trkpt lat="46.61025786534362" lon="11.536794639329534"><ele>510.0</ele><time>2026-05-01T05:15:51.001Z</time></trkpt><trkpt lat="46.61051389220963" lon="11.536902509085417"><ele>507.0</ele><time>2026-05-01T05:15:52.001Z</time></trkpt><trkpt lat="46.61076739269833" lon="11.53702113326058"><ele>504.0</ele><time>2026-05-01T05:15:53.001Z</time></trkpt><trkpt lat="46.61101756489917" lon="11.537157766075682"><ele>510.0</ele><time>2026-05-01T05:15:54.001Z</time></trkpt><trkpt lat="46.61126245172801" lon="11.537315164376734"><ele>516.0</ele><time>2026-05-01T05:15:55.001Z</time></trkpt><trkpt lat="46.61150101565675" lon="11.537494081375963"><ele>516.0</ele><time>2026-05-01T05:15:56.001Z</time></trkpt><trkpt lat="46.61173480843296" lon="11.537689485533232"><ele>516.0</ele><time>2026-05-01T05:15:57.001Z</time></trkpt><trkpt lat="46.611966189180045" lon="11.53789979445889"><ele>519.0</ele><time>2026-05-01T05:15:58.001Z</time></trkpt><trkpt lat="46.61219143454202" lon="11.538120965833786"><ele>522.0</ele><time>2026-05-01T05:15:59.001Z</time></trkpt><trkpt lat="46.61241227768082" lon="11.538354887713746"><ele>522.0</ele><time>2026-05-01T05:16:00.001Z</time></trkpt><trkpt lat="46.61262797368689" lon="11.53859508751919"><ele>522.0</ele><time>2026-05-01T05:16:01.001Z</time></trkpt><trkpt lat="46.61284431417966" lon="11.538839978170376"><ele>522.5</ele><time>2026-05-01T05:16:02.001Z</time></trkpt><trkpt lat="46.613062743766534" lon="11.53907996419192"><ele>523.0</ele><time>2026-05-01T05:16:03.001Z</time></trkpt><trkpt lat="46.61328601704993" lon="11.539309790020974"><ele>523.0</ele><time>2026-05-01T05:16:04.001Z</time></trkpt><trkpt lat="46.613514137885836" lon="11.539523173601939"><ele>523.0</ele><time>2026-05-01T05:16:05.001Z</time></trkpt><trkpt lat="46.61375259248556" lon="11.539716628625062"><ele>526.5</ele><time>2026-05-01T05:16:06Z</time></trkpt><trkpt lat="46.613996671035125" lon="11.539889456767689"><ele>530.0</ele><time>2026-05-01T05:16:07Z</time></trkpt><trkpt lat="46.61424672911302" lon="11.540044252464474"><ele>524.0</ele><time>2026-05-01T05:16:08Z</time></trkpt><trkpt lat="46.61450085184968" lon="11.54017466466604"><ele>518.0</ele><time>2026-05-01T05:16:09Z</time></trkpt><trkpt lat="46.61476042636807" lon="11.540284333667987"><ele>518.0</ele><time>2026-05-01T05:16:10Z</time></trkpt><trkpt lat="46.61502414254238" lon="11.540371679134797"><ele>518.0</ele><time>2026-05-01T05:16:11Z</time></trkpt><trkpt lat="46.61529223523974" lon="11.540452431336051"><ele>529.5</ele><time>2026-05-01T05:16:12Z</time></trkpt><trkpt lat="46.61556062323057" lon="11.540530185289104"><ele>541.0</ele><time>2026-05-01T05:16:13Z</time></trkpt><trkpt lat="46.61582965457255" lon="11.540613153312895"><ele>541.0</ele><time>2026-05-01T05:16:14Z</time></trkpt><trkpt lat="46.616095954696284" lon="11.540694900198108"><ele>541.0</ele><time>2026-05-01T05:16:15Z</time></trkpt><trkpt lat="46.61634915439384" lon="11.540775904408019"><ele>534.0</ele><time>2026-05-01T05:16:16Z</time></trkpt><trkpt lat="46.616607073792444" lon="11.540867080284011"><ele>527.0</ele><time>2026-05-01T05:16:17Z</time></trkpt><trkpt lat="46.61686332998082" lon="11.540972059858369"><ele>532.5</ele><time>2026-05-01T05:16:18Z</time></trkpt><trkpt lat="46.61712048130685" lon="11.541089769284891"><ele>538.0</ele><time>2026-05-01T05:16:19Z</time></trkpt><trkpt lat="46.61737614043447" lon="11.541222038433906"><ele>538.0</ele><time>2026-05-01T05:16:20Z</time></trkpt><trkpt lat="46.61762865300799" lon="11.54136811014097"><ele>538.0</ele><time>2026-05-01T05:16:21Z</time></trkpt><trkpt lat="46.617879126196826" lon="11.541528393211166"><ele>530.5</ele><time>2026-05-01T05:16:22Z</time></trkpt><trkpt lat="46.61812373346789" lon="11.541700418720325"><ele>523.0</ele><time>2026-05-01T05:16:23Z</time></trkpt><trkpt lat="46.61836491098173" lon="11.541884125542582"><ele>522.5</ele><time>2026-05-01T05:16:24Z</time></trkpt><trkpt lat="46.61859902872521" lon="11.542076899910482"><ele>522.0</ele><time>2026-05-01T05:16:25Z</time></trkpt><trkpt lat="46.61882641362704" lon="11.542280983913695"><ele>522.0</ele><time>2026-05-01T05:16:26Z</time></trkpt><trkpt lat="46.61904865265825" lon="11.542494553837887"><ele>522.0</ele><time>2026-05-01T05:16:27Z</time></trkpt><trkpt lat="46.61926631080009" lon="11.542716446448019"><ele>525.0</ele><time>2026-05-01T05:16:28Z</time></trkpt><trkpt lat="46.61948006435333" lon="11.542937461530183"><ele>528.0</ele><time>2026-05-01T05:16:29Z</time></trkpt><trkpt lat="46.61969346954221" lon="11.543166929403768"><ele>528.0</ele><time>2026-05-01T05:16:30Z</time></trkpt><trkpt lat="46.61990641098282" lon="11.543395746961574"><ele>528.0</ele><time>2026-05-01T05:16:31Z</time></trkpt><trkpt lat="46.620118958058754" lon="11.543623535669363"><ele>530.0</ele><time>2026-05-01T05:16:32Z</time></trkpt><trkpt lat="46.62032701042771" lon="11.543852771839624"><ele>532.0</ele><time>2026-05-01T05:16:33Z</time></trkpt><trkpt lat="46.62052702490341" lon="11.544091018176186"><ele>532.0</ele><time>2026-05-01T05:16:34Z</time></trkpt><trkpt lat="46.62072553140747" lon="11.544336196764013"><ele>532.0</ele><time>2026-05-01T05:16:35Z</time></trkpt><trkpt lat="46.62092706255854" lon="11.544580435521585"><ele>532.5</ele><time>2026-05-01T05:16:36Z</time></trkpt><trkpt lat="46.62113045355611" lon="11.544812589531048"><ele>533.0</ele><time>2026-05-01T05:16:37Z</time></trkpt><trkpt lat="46.621342190741615" lon="11.545037227107343"><ele>533.0</ele><time>2026-05-01T05:16:38Z</time></trkpt><trkpt lat="46.62156427555079" lon="11.545250163832554"><ele>533.0</ele><time>2026-05-01T05:16:39Z</time></trkpt><trkpt lat="46.621791224829664" lon="11.545454815220687"><ele>535.0</ele><time>2026-05-01T05:16:40Z</time></trkpt><trkpt lat="46.62202257870679" lon="11.545655028063953"><ele>537.0</ele><time>2026-05-01T05:16:41Z</time></trkpt><trkpt lat="46.622254366470955" lon="11.545853637039913"><ele>537.0</ele><time>2026-05-01T05:16:42Z</time></trkpt><trkpt lat="46.622484679181376" lon="11.546063030039083"><ele>537.0</ele><time>2026-05-01T05:16:43Z</time></trkpt><trkpt lat="46.622705422040426" lon="11.546282792395163"><ele>541.0</ele><time>2026-05-01T05:16:44.001Z</time></trkpt><trkpt lat="46.62291649128607" lon="11.546520919788207"><ele>545.0</ele><time>2026-05-01T05:16:45.001Z</time></trkpt><trkpt lat="46.62311366507844" lon="11.54677781158476"><ele>558.5</ele><time>2026-05-01T05:16:46.001Z</time></trkpt><trkpt lat="46.62330367978395" lon="11.547045602324719"><ele>572.0</ele><time>2026-05-01T05:16:47.001Z</time></trkpt><trkpt lat="46.623486464429476" lon="11.547326453309472"><ele>565.0</ele><time>2026-05-01T05:16:48.001Z</time></trkpt><trkpt lat="46.623664324059064" lon="11.547608549191287"><ele>558.0</ele><time>2026-05-01T05:16:49.001Z</time></trkpt><trkpt lat="46.62384380971764" lon="11.547889556249732"><ele>558.0</ele><time>2026-05-01T05:16:50.001Z</time></trkpt><trkpt lat="46.62402471673233" lon="11.548167067199337"><ele>558.0</ele><time>2026-05-01T05:16:51.001Z</time></trkpt><trkpt lat="46.62421442008641" lon="11.54844435691518"><ele>552.0</ele><time>2026-05-01T05:16:52.001Z</time></trkpt><trkpt lat="46.62441357215932" lon="11.548713101602162"><ele>546.0</ele><time>2026-05-01T05:16:53.001Z</time></trkpt><trkpt lat="46.624617846689155" lon="11.548977926666863"><ele>546.0</ele><time>2026-05-01T05:16:54.001Z</time></trkpt><trkpt lat="46.62482882549306" lon="11.5492357184052"><ele>546.0</ele><time>2026-05-01T05:16:55.001Z</time></trkpt><trkpt lat="46.62504720716611" lon="11.549475720300968"><ele>543.5</ele><time>2026-05-01T05:16:56.001Z</time></trkpt><trkpt lat="46.625280866521734" lon="11.549684033386566"><ele>541.0</ele><time>2026-05-01T05:16:57.001Z</time></trkpt><trkpt lat="46.625520132152076" lon="11.54987465855643"><ele>541.0</ele><time>2026-05-01T05:16:58.001Z</time></trkpt><trkpt lat="46.62576812116565" lon="11.550046573912507"><ele>541.0</ele><time>2026-05-01T05:16:59.001Z</time></trkpt><trkpt lat="46.626021181930035" lon="11.550193686647999"><ele>533.0</ele><time>2026-05-01T05:17:00.001Z</time></trkpt><trkpt lat="46.62627932682156" lon="11.550330471869577"><ele>525.0</ele><time>2026-05-01T05:17:01.001Z</time></trkpt><trkpt lat="46.62653831343792" lon="11.550460250233554"><ele>539.0</ele><time>2026-05-01T05:17:02.001Z</time></trkpt><trkpt lat="46.62680111932729" lon="11.55059021140863"><ele>553.0</ele><time>2026-05-01T05:17:03.001Z</time></trkpt><trkpt lat="46.62706161049618" lon="11.550721028957383"><ele>553.0</ele><time>2026-05-01T05:17:04.001Z</time></trkpt><trkpt lat="46.627323630958024" lon="11.550853512706132"><ele>553.0</ele><time>2026-05-01T05:17:05.001Z</time></trkpt><trkpt lat="46.62758421014734" lon="11.550986782131579"><ele>561.0</ele><time>2026-05-01T05:17:06.001Z</time></trkpt><trkpt lat="46.62783327272784" lon="11.5511159314045"><ele>569.0</ele><time>2026-05-01T05:17:07.001Z</time></trkpt><trkpt lat="46.62807293339093" lon="11.551248954557595"><ele>569.0</ele><time>2026-05-01T05:17:08.001Z</time></trkpt><trkpt lat="46.62831494762302" lon="11.551398861616976"><ele>569.0</ele><time>2026-05-01T05:17:09.001Z</time></trkpt><trkpt lat="46.628551979354725" lon="11.551569997532802"><ele>550.5</ele><time>2026-05-01T05:17:10.001Z</time></trkpt><trkpt lat="46.62878105542515" lon="11.551763670622014"><ele>532.0</ele><time>2026-05-01T05:17:11.001Z</time></trkpt><trkpt lat="46.62900184116274" lon="11.551985257295524"><ele>550.5</ele><time>2026-05-01T05:17:12.001Z</time></trkpt><trkpt lat="46.629215837805134" lon="11.552226642020203"><ele>569.0</ele><time>2026-05-01T05:17:13.001Z</time></trkpt><trkpt lat="46.62942114664004" lon="11.552484630085189"><ele>563.5</ele><time>2026-05-01T05:17:14.001Z</time></trkpt><trkpt lat="46.62961541078295" lon="11.552759922126256"><ele>558.0</ele><time>2026-05-01T05:17:15.001Z</time></trkpt><trkpt lat="46.62979796889643" lon="11.55305165985144"><ele>558.0</ele><time>2026-05-01T05:17:16.001Z</time></trkpt><trkpt lat="46.629968881631974" lon="11.553357136346948"><ele>558.0</ele><time>2026-05-01T05:17:17.001Z</time></trkpt><trkpt lat="46.63012993746122" lon="11.553675147762497"><ele>552.5</ele><time>2026-05-01T05:17:18.001Z</time></trkpt><trkpt lat="46.630285661219894" lon="11.554000118549862"><ele>547.0</ele><time>2026-05-01T05:17:19.001Z</time></trkpt><trkpt lat="46.63044180421975" lon="11.554324671341874"><ele>558.5</ele><time>2026-05-01T05:17:20.001Z</time></trkpt><trkpt lat="46.630595666077795" lon="11.554647742365642"><ele>570.0</ele><time>2026-05-01T05:17:21.001Z</time></trkpt><trkpt lat="46.63074685752643" lon="11.55496689502773"><ele>570.0</ele><time>2026-05-01T05:17:22.001Z</time></trkpt><trkpt lat="46.63089840449007" lon="11.555286865554677"><ele>570.0</ele><time>2026-05-01T05:17:23.001Z</time></trkpt><trkpt lat="46.63104953285803" lon="11.555604531697075"><ele>570.0</ele><time>2026-05-01T05:17:24.001Z</time></trkpt><trkpt lat="46.63119969985318" lon="11.555921041437987"><ele>570.0</ele><time>2026-05-01T05:17:25.001Z</time></trkpt><trkpt lat="46.631349771658954" lon="11.55623347736428"><ele>570.0</ele><time>2026-05-01T05:17:26.001Z</time></trkpt><trkpt lat="46.63150126585594" lon="11.556545764280616"><ele>570.0</ele><time>2026-05-01T05:17:27.001Z</time></trkpt><trkpt lat="46.63165312534962" lon="11.556852252878757"><ele>579.5</ele><time>2026-05-01T05:17:28.001Z</time></trkpt><trkpt lat="46.63180850167574" lon="11.557154164732646"><ele>589.0</ele><time>2026-05-01T05:17:29.001Z</time></trkpt><trkpt lat="46.63197273429724" lon="11.557445464088072"><ele>586.0</ele><time>2026-05-01T05:17:30.001Z</time></trkpt><trkpt lat="46.632145291316185" lon="11.557721982124058"><ele>583.0</ele><time>2026-05-01T05:17:31.001Z</time></trkpt><trkpt lat="46.63232943443952" lon="11.557983451148033"><ele>583.0</ele><time>2026-05-01T05:17:32.001Z</time></trkpt><trkpt lat="46.63252453544371" lon="11.558225020919526"><ele>583.0</ele><time>2026-05-01T05:17:33.001Z</time></trkpt><trkpt lat="46.632726787615184" lon="11.558450958977117"><ele>580.0</ele><time>2026-05-01T05:17:34.001Z</time></trkpt><trkpt lat="46.632938066531075" lon="11.558666492465115"><ele>577.0</ele><time>2026-05-01T05:17:35.001Z</time></trkpt><trkpt lat="46.63315360438378" lon="11.558880342342302"><ele>577.0</ele><time>2026-05-01T05:17:36.001Z</time></trkpt><trkpt lat="46.633368866582025" lon="11.559095159576168"><ele>577.0</ele><time>2026-05-01T05:17:37.001Z</time></trkpt><trkpt lat="46.63358566311294" lon="11.55931133787368"><ele>580.5</ele><time>2026-05-01T05:17:38.001Z</time></trkpt><trkpt lat="46.63379870544082" lon="11.559533327918684"><ele>584.0</ele><time>2026-05-01T05:17:39.001Z</time></trkpt><trkpt lat="46.63400613748547" lon="11.559769427946911"><ele>584.0</ele><time>2026-05-01T05:17:40.001Z</time></trkpt><trkpt lat="46.63420259124743" lon="11.560020022735172"><ele>584.0</ele><time>2026-05-01T05:17:41.001Z</time></trkpt><trkpt lat="46.634387415588535" lon="11.560287381746216"><ele>578.0</ele><time>2026-05-01T05:17:42.001Z</time></trkpt><trkpt lat="46.634561188906886" lon="11.560572468664859"><ele>572.0</ele><time>2026-05-01T05:17:43.001Z</time></trkpt><trkpt lat="46.634725882998914" lon="11.560870691119936"><ele>572.0</ele><time>2026-05-01T05:17:44.001Z</time></trkpt><trkpt lat="46.63488015644357" lon="11.561181130007768"><ele>572.0</ele><time>2026-05-01T05:17:45.001Z</time></trkpt><trkpt lat="46.635020721111665" lon="11.561507487218648"><ele>580.5</ele><time>2026-05-01T05:17:46.001Z</time></trkpt><trkpt lat="46.635154041897025" lon="11.561841195984387"><ele>589.0</ele><time>2026-05-01T05:17:47.001Z</time></trkpt><trkpt lat="46.63527795967334" lon="11.562184952202218"><ele>577.5</ele><time>2026-05-01T05:17:48.001Z</time></trkpt><trkpt lat="46.635399085442444" lon="11.562533258192857"><ele>566.0</ele><time>2026-05-01T05:17:49.001Z</time></trkpt><trkpt lat="46.63551827610883" lon="11.562885481554936"><ele>566.0</ele><time>2026-05-01T05:17:50.001Z</time></trkpt><trkpt lat="46.635639970121254" lon="11.563242676629674"><ele>566.0</ele><time>2026-05-01T05:17:51.001Z</time></trkpt><trkpt lat="46.6357660765738" lon="11.563599557075047"><ele>578.0</ele><time>2026-05-01T05:17:52.001Z</time></trkpt><trkpt lat="46.63589672738974" lon="11.563952961485962"><ele>590.0</ele><time>2026-05-01T05:17:53.001Z</time></trkpt><trkpt lat="46.6360334765559" lon="11.56430615971308"><ele>570.5</ele><time>2026-05-01T05:17:54.001Z</time></trkpt><trkpt lat="46.63617766132595" lon="11.56465097008251"><ele>551.0</ele><time>2026-05-01T05:17:55.001Z</time></trkpt><trkpt lat="46.6363268423257" lon="11.564994913724474"><ele>551.0</ele><time>2026-05-01T05:17:56.001Z</time></trkpt><trkpt lat="46.63648335957011" lon="11.565338251302698"><ele>551.0</ele><time>2026-05-01T05:17:57.001Z</time></trkpt><trkpt lat="46.63663727966994" lon="11.565675009166538"><ele>566.0</ele><time>2026-05-01T05:17:58.001Z</time></trkpt><trkpt lat="46.636784392243925" lon="11.565994448022648"><ele>581.0</ele><time>2026-05-01T05:17:59.001Z</time></trkpt><trkpt lat="46.636930376830946" lon="11.566317376532353"><ele>566.5</ele><time>2026-05-01T05:18:00.001Z</time></trkpt><trkpt lat="46.637074962103796" lon="11.56664758040951"><ele>552.0</ele><time>2026-05-01T05:18:01.001Z</time></trkpt><trkpt lat="46.63721654973225" lon="11.566983500784566"><ele>561.5</ele><time>2026-05-01T05:18:02.001Z</time></trkpt><trkpt lat="46.63735304833643" lon="11.567328874508327"><ele>571.0</ele><time>2026-05-01T05:18:03.001Z</time></trkpt><trkpt lat="46.63748354175462" lon="11.567682970027537"><ele>578.0</ele><time>2026-05-01T05:18:04.001Z</time></trkpt><trkpt lat="46.63760637790297" lon="11.568035475147937"><ele>585.0</ele><time>2026-05-01T05:18:05.001Z</time></trkpt><trkpt lat="46.63772670011861" lon="11.568391334753025"><ele>570.0</ele><time>2026-05-01T05:18:06.001Z</time></trkpt><trkpt lat="46.637845975164595" lon="11.568746995227952"><ele>555.0</ele><time>2026-05-01T05:18:07.001Z</time></trkpt><trkpt lat="46.63796493975139" lon="11.569095775771654"><ele>555.0</ele><time>2026-05-01T05:18:08.001Z</time></trkpt><trkpt lat="46.638086196337895" lon="11.569442569904675"><ele>555.0</ele><time>2026-05-01T05:18:09.001Z</time></trkpt><trkpt lat="46.63821428253902" lon="11.56978566350534"><ele>559.5</ele><time>2026-05-01T05:18:10.001Z</time></trkpt><trkpt lat="46.63834869294436" lon="11.570121367945982"><ele>564.0</ele><time>2026-05-01T05:18:11.001Z</time></trkpt><trkpt lat="46.638496961780085" lon="11.570451242880754"><ele>563.0</ele><time>2026-05-01T05:18:12Z</time></trkpt><trkpt lat="46.63865429122021" lon="11.570770626036479"><ele>562.0</ele><time>2026-05-01T05:18:13Z</time></trkpt><trkpt lat="46.638824832120655" lon="11.571081283476689"><ele>569.5</ele><time>2026-05-01T05:18:14Z</time></trkpt><trkpt lat="46.639003148875894" lon="11.571381882908343"><ele>577.0</ele><time>2026-05-01T05:18:15Z</time></trkpt><trkpt lat="46.63918667440637" lon="11.571676772474403"><ele>577.0</ele><time>2026-05-01T05:18:16Z</time></trkpt><trkpt lat="46.6393701772171" lon="11.571964289119448"><ele>577.0</ele><time>2026-05-01T05:18:17Z</time></trkpt><trkpt lat="46.639553869976716" lon="11.572253914382232"><ele>574.5</ele><time>2026-05-01T05:18:18Z</time></trkpt><trkpt lat="46.63973724492025" lon="11.572544726332847"><ele>572.0</ele><time>2026-05-01T05:18:19Z</time></trkpt><trkpt lat="46.639921104855176" lon="11.572834037570546"><ele>575.0</ele><time>2026-05-01T05:18:20Z</time></trkpt><trkpt lat="46.64010462814286" lon="11.573123095378"><ele>578.0</ele><time>2026-05-01T05:18:21Z</time></trkpt><trkpt lat="46.6402876444888" lon="11.573409034802202"><ele>572.5</ele><time>2026-05-01T05:18:22Z</time></trkpt><trkpt lat="46.640473054168446" lon="11.573690652527912"><ele>567.0</ele><time>2026-05-01T05:18:23Z</time></trkpt><trkpt lat="46.64065960669412" lon="11.573965933833183"><ele>567.0</ele><time>2026-05-01T05:18:24Z</time></trkpt><trkpt lat="46.640849091236774" lon="11.574242384814992"><ele>567.0</ele><time>2026-05-01T05:18:25Z</time></trkpt><trkpt lat="46.6410394390704" lon="11.574519601607497"><ele>562.5</ele><time>2026-05-01T05:18:26Z</time></trkpt><trkpt lat="46.64122872932387" lon="11.574796916196021"><ele>558.0</ele><time>2026-05-01T05:18:27Z</time></trkpt><trkpt lat="46.641420118575724" lon="11.575076220270521"><ele>558.0</ele><time>2026-05-01T05:18:28Z</time></trkpt><trkpt lat="46.64161275056273" lon="11.575352080174087"><ele>558.0</ele><time>2026-05-01T05:18:29Z</time></trkpt><trkpt lat="46.641805371164" lon="11.575629078407385"><ele>551.5</ele><time>2026-05-01T05:18:30Z</time></trkpt><trkpt lat="46.641994811573156" lon="11.575906276355774"><ele>545.0</ele><time>2026-05-01T05:18:31Z</time></trkpt><trkpt lat="46.642181230750296" lon="11.576186416859654"><ele>558.0</ele><time>2026-05-01T05:18:32Z</time></trkpt><trkpt lat="46.64235933255672" lon="11.576475809880376"><ele>571.0</ele><time>2026-05-01T05:18:33Z</time></trkpt><trkpt lat="46.64252745779752" lon="11.576776584082078"><ele>562.0</ele><time>2026-05-01T05:18:34Z</time></trkpt><trkpt lat="46.64268208622969" lon="11.57708925091561"><ele>553.0</ele><time>2026-05-01T05:18:35Z</time></trkpt><trkpt lat="46.64282186440602" lon="11.577416531857132"><ele>553.0</ele><time>2026-05-01T05:18:36Z</time></trkpt><trkpt lat="46.64294666257807" lon="11.577755504249506"><ele>553.0</ele><time>2026-05-01T05:18:37Z</time></trkpt><trkpt lat="46.643055629238766" lon="11.578105523758502"><ele>560.0</ele><time>2026-05-01T05:18:38Z</time></trkpt><trkpt lat="46.64315079327123" lon="11.578463443007044"><ele>567.0</ele><time>2026-05-01T05:18:39Z</time></trkpt><trkpt lat="46.64323137892575" lon="11.57883011879236"><ele>569.0</ele><time>2026-05-01T05:18:40Z</time></trkpt><trkpt lat="46.64329938355671" lon="11.57920621163287"><ele>571.0</ele><time>2026-05-01T05:18:41Z</time></trkpt><trkpt lat="46.6433607443895" lon="11.579584952094587"><ele>571.5</ele><time>2026-05-01T05:18:42Z</time></trkpt><trkpt lat="46.64341326472131" lon="11.579968994579502"><ele>572.0</ele><time>2026-05-01T05:18:43Z</time></trkpt><trkpt lat="46.64345926373229" lon="11.580355898008447"><ele>569.0</ele><time>2026-05-01T05:18:44Z</time></trkpt><trkpt lat="46.64350113020238" lon="11.580744948328123"><ele>566.0</ele><time>2026-05-01T05:18:45Z</time></trkpt><trkpt lat="46.643541421871525" lon="11.581131274557903"><ele>564.0</ele><time>2026-05-01T05:18:46Z</time></trkpt><trkpt lat="46.64358597527697" lon="11.581499590224205"><ele>562.0</ele><time>2026-05-01T05:18:47Z</time></trkpt><trkpt lat="46.64363810459534" lon="11.581866285051644"><ele>559.5</ele><time>2026-05-01T05:18:48Z</time></trkpt><trkpt lat="46.64370192019508" lon="11.582229670196206"><ele>557.0</ele><time>2026-05-01T05:18:49Z</time></trkpt><trkpt lat="46.64378439208845" lon="11.582590502896993"><ele>559.0</ele><time>2026-05-01T05:18:50Z</time></trkpt><trkpt lat="46.643882449154255" lon="11.582944854566536"><ele>561.0</ele><time>2026-05-01T05:18:51Z</time></trkpt><trkpt lat="46.64399689354712" lon="11.583291835849757"><ele>561.0</ele><time>2026-05-01T05:18:52Z</time></trkpt><trkpt lat="46.644124918746215" lon="11.583628793862415"><ele>561.0</ele><time>2026-05-01T05:18:53Z</time></trkpt><trkpt lat="46.64426583477331" lon="11.58395722903883"><ele>559.0</ele><time>2026-05-01T05:18:54Z</time></trkpt><trkpt lat="46.644421619257955" lon="11.584275422686266"><ele>557.0</ele><time>2026-05-01T05:18:55Z</time></trkpt><trkpt lat="46.644589664419684" lon="11.584583514434948"><ele>557.0</ele><time>2026-05-01T05:18:56Z</time></trkpt><trkpt lat="46.64476745926739" lon="11.584879746928733"><ele>557.0</ele><time>2026-05-01T05:18:57.001Z</time></trkpt><trkpt lat="46.6449601957699" lon="11.585159271208482"><ele>556.0</ele><time>2026-05-01T05:18:58.001Z</time></trkpt><trkpt lat="46.64516440280009" lon="11.58542338513231"><ele>555.0</ele><time>2026-05-01T05:18:59.001Z</time></trkpt><trkpt lat="46.645384412374604" lon="11.585665058568113"><ele>555.0</ele><time>2026-05-01T05:19:00.001Z</time></trkpt><trkpt lat="46.64561351893413" lon="11.585889130449093"><ele>555.0</ele><time>2026-05-01T05:19:01.001Z</time></trkpt><trkpt lat="46.64585073429187" lon="11.586098331322184"><ele>553.0</ele><time>2026-05-01T05:19:02.001Z</time></trkpt><trkpt lat="46.64609251244295" lon="11.586300181824472"><ele>551.0</ele><time>2026-05-01T05:19:03.001Z</time></trkpt><trkpt lat="46.64633448276144" lon="11.586494193080418"><ele>551.0</ele><time>2026-05-01T05:19:04.001Z</time></trkpt><trkpt lat="46.646567949665624" lon="11.5866781586629"><ele>551.0</ele><time>2026-05-01T05:19:05.001Z</time></trkpt><trkpt lat="46.64680072643996" lon="11.58686244084018"><ele>550.0</ele><time>2026-05-01T05:19:06.001Z</time></trkpt><trkpt lat="46.64703268410089" lon="11.587049964966358"><ele>549.0</ele><time>2026-05-01T05:19:07.001Z</time></trkpt><trkpt lat="46.64726847800254" lon="11.587237793119332"><ele>549.0</ele><time>2026-05-01T05:19:08.001Z</time></trkpt><trkpt lat="46.64750380094812" lon="11.587423053162345"><ele>549.0</ele><time>2026-05-01T05:19:09.001Z</time></trkpt><trkpt lat="46.6477403598119" lon="11.587607494761707"><ele>547.5</ele><time>2026-05-01T05:19:10.001Z</time></trkpt><trkpt lat="46.64797517411568" lon="11.587792534811204"><ele>546.0</ele><time>2026-05-01T05:19:11.001Z</time></trkpt><trkpt lat="46.64820965011635" lon="11.587980322629518"><ele>546.0</ele><time>2026-05-01T05:19:12.001Z</time></trkpt><trkpt lat="46.648441622884505" lon="11.588165720089794"><ele>546.0</ele><time>2026-05-01T05:19:13.001Z</time></trkpt><trkpt lat="46.648675904697704" lon="11.58835357867624"><ele>545.0</ele><time>2026-05-01T05:19:14.001Z</time></trkpt><trkpt lat="46.64891009338326" lon="11.58854134501791"><ele>544.0</ele><time>2026-05-01T05:19:15.001Z</time></trkpt><trkpt lat="46.649143869160426" lon="11.588733113529845"><ele>547.0</ele><time>2026-05-01T05:19:16.001Z</time></trkpt><trkpt lat="46.649375251582065" lon="11.588933304299283"><ele>550.0</ele><time>2026-05-01T05:19:17.001Z</time></trkpt><trkpt lat="46.649601522000424" lon="11.589145912077841"><ele>550.0</ele><time>2026-05-01T05:19:18.001Z</time></trkpt><trkpt lat="46.64982755516977" lon="11.589367267052415"><ele>550.0</ele><time>2026-05-01T05:19:19.001Z</time></trkpt><trkpt lat="46.65005589902396" lon="11.589587621582618"><ele>566.0</ele><time>2026-05-01T05:19:20.001Z</time></trkpt><trkpt lat="46.65028359240496" lon="11.589803620743753"><ele>582.0</ele><time>2026-05-01T05:19:21.001Z</time></trkpt><trkpt lat="46.65050695055887" lon="11.590016053080486"><ele>582.0</ele><time>2026-05-01T05:19:22.001Z</time></trkpt><trkpt lat="46.65072732138748" lon="11.590230056759491"><ele>582.0</ele><time>2026-05-01T05:19:23.001Z</time></trkpt><trkpt lat="46.6509478936531" lon="11.59044997331601"><ele>569.0</ele><time>2026-05-01T05:19:24.001Z</time></trkpt><trkpt lat="46.65116594454625" lon="11.590676935792994"><ele>556.0</ele><time>2026-05-01T05:19:25.001Z</time></trkpt><trkpt lat="46.6513808168508" lon="11.590913987402457"><ele>556.0</ele><time>2026-05-01T05:19:26.001Z</time></trkpt><trkpt lat="46.65159222861249" lon="11.591159586072875"><ele>556.0</ele><time>2026-05-01T05:19:27.001Z</time></trkpt><trkpt lat="46.6517967596656" lon="11.591421085734892"><ele>546.5</ele><time>2026-05-01T05:19:28.001Z</time></trkpt><trkpt lat="46.65199920293672" lon="11.59168498204114"><ele>537.0</ele><time>2026-05-01T05:19:29.001Z</time></trkpt><trkpt lat="46.65223914477474" lon="11.591957768779777"><ele>543.5</ele><time>2026-05-01T05:19:30.001Z</time></trkpt><trkpt lat="46.65237948168865" lon="11.592267185522433"><ele>550.0</ele><time>2026-05-01T05:19:31.001Z</time></trkpt><trkpt lat="46.65255173804194" lon="11.592570468959966"><ele>545.0</ele><time>2026-05-01T05:19:32.001Z</time></trkpt><trkpt lat="46.652712404897535" lon="11.59288228348515"><ele>540.0</ele><time>2026-05-01T05:19:33.001Z</time></trkpt><trkpt lat="46.652861933551094" lon="11.593207726140136"><ele>540.0</ele><time>2026-05-01T05:19:34.001Z</time></trkpt><trkpt lat="46.653008282226516" lon="11.593531512859553"><ele>540.0</ele><time>2026-05-01T05:19:35.001Z</time></trkpt><trkpt lat="46.65314814726295" lon="11.59385424813247"><ele>544.0</ele><time>2026-05-01T05:19:36.001Z</time></trkpt><trkpt lat="46.65328607102087" lon="11.594180348712216"><ele>548.0</ele><time>2026-05-01T05:19:37.001Z</time></trkpt><trkpt lat="46.65341561598231" lon="11.594509198644168"><ele>544.0</ele><time>2026-05-01T05:19:38.001Z</time></trkpt><trkpt lat="46.65353791450509" lon="11.594844487413942"><ele>540.0</ele><time>2026-05-01T05:19:39.001Z</time></trkpt><trkpt lat="46.65364994365718" lon="11.59518447924784"><ele>541.0</ele><time>2026-05-01T05:19:40.001Z</time></trkpt><trkpt lat="46.65375878183112" lon="11.595527584706574"><ele>542.0</ele><time>2026-05-01T05:19:41.001Z</time></trkpt><trkpt lat="46.653868737981014" lon="11.595868683411485"><ele>543.0</ele><time>2026-05-01T05:19:42.001Z</time></trkpt><trkpt lat="46.653986472708205" lon="11.596211588551993"><ele>544.0</ele><time>2026-05-01T05:19:43.001Z</time></trkpt><trkpt lat="46.65410343064506" lon="11.596554447901571"><ele>544.0</ele><time>2026-05-01T05:19:44.001Z</time></trkpt><trkpt lat="46.65422373421902" lon="11.59689881588465"><ele>544.0</ele><time>2026-05-01T05:19:45.001Z</time></trkpt><trkpt lat="46.65434672549805" lon="11.59724087018686"><ele>545.0</ele><time>2026-05-01T05:19:46.001Z</time></trkpt><trkpt lat="46.65447372786142" lon="11.597582246721311"><ele>546.0</ele><time>2026-05-01T05:19:47.001Z</time></trkpt><trkpt lat="46.654607234287816" lon="11.597912651710931"><ele>546.0</ele><time>2026-05-01T05:19:48.001Z</time></trkpt><trkpt lat="46.65474362338501" lon="11.598238885927882"><ele>546.0</ele><time>2026-05-01T05:19:49.001Z</time></trkpt><trkpt lat="46.65489104887824" lon="11.598557853061468"><ele>551.5</ele><time>2026-05-01T05:19:50.001Z</time></trkpt><trkpt lat="46.655044967467056" lon="11.598869927835999"><ele>557.0</ele><time>2026-05-01T05:19:51.001Z</time></trkpt><trkpt lat="46.65520573342523" lon="11.599175500645483"><ele>551.0</ele><time>2026-05-01T05:19:52.001Z</time></trkpt><trkpt lat="46.655372407372305" lon="11.599477301626985"><ele>545.0</ele><time>2026-05-01T05:19:53.001Z</time></trkpt><trkpt lat="46.65554549670733" lon="11.599774479970916"><ele>545.0</ele><time>2026-05-01T05:19:54.001Z</time></trkpt><trkpt lat="46.65572610835861" lon="11.600067481544293"><ele>545.0</ele><time>2026-05-01T05:19:55.001Z</time></trkpt><trkpt lat="46.655911787297114" lon="11.600358524977223"><ele>539.5</ele><time>2026-05-01T05:19:56.001Z</time></trkpt><trkpt lat="46.656100538285486" lon="11.60064991670602"><ele>534.0</ele><time>2026-05-01T05:19:57.001Z</time></trkpt><trkpt lat="46.656289818504256" lon="11.600943350035303"><ele>535.5</ele><time>2026-05-01T05:19:58.001Z</time></trkpt><trkpt lat="46.6564721296765" lon="11.601239349766276"><ele>537.0</ele><time>2026-05-01T05:19:59.001Z</time></trkpt><trkpt lat="46.6566453918812" lon="11.601541756281378"><ele>537.0</ele><time>2026-05-01T05:20:00.001Z</time></trkpt><trkpt lat="46.65681227198642" lon="11.601850858367516"><ele>537.0</ele><time>2026-05-01T05:20:01.001Z</time></trkpt><trkpt lat="46.65697109445235" lon="11.602166126069966"><ele>541.5</ele><time>2026-05-01T05:20:02.001Z</time></trkpt><trkpt lat="46.657117282382934" lon="11.602483052505752"><ele>546.0</ele><time>2026-05-01T05:20:03.001Z</time></trkpt><trkpt lat="46.657250367218865" lon="11.6028117986465"><ele>542.5</ele><time>2026-05-01T05:20:04.001Z</time></trkpt><trkpt lat="46.6573741984815" lon="11.603153006627695"><ele>539.0</ele><time>2026-05-01T05:20:05.001Z</time></trkpt><trkpt lat="46.65748985876923" lon="11.603500760757873"><ele>537.5</ele><time>2026-05-01T05:20:06.001Z</time></trkpt><trkpt lat="46.6576029773662" lon="11.60385245127162"><ele>536.0</ele><time>2026-05-01T05:20:07.001Z</time></trkpt><trkpt lat="46.65771417944402" lon="11.604203380804458"><ele>542.0</ele><time>2026-05-01T05:20:08.001Z</time></trkpt><trkpt lat="46.65782753272511" lon="11.604547936853335"><ele>548.0</ele><time>2026-05-01T05:20:09.001Z</time></trkpt><trkpt lat="46.65794887316744" lon="11.604885950139389"><ele>548.0</ele><time>2026-05-01T05:20:10.001Z</time></trkpt><trkpt lat="46.6580822852559" lon="11.605216527447167"><ele>548.0</ele><time>2026-05-01T05:20:11.001Z</time></trkpt><trkpt lat="46.65822744517165" lon="11.605536740223052"><ele>547.5</ele><time>2026-05-01T05:20:12.001Z</time></trkpt><trkpt lat="46.658385151156914" lon="11.605841679615795"><ele>547.0</ele><time>2026-05-01T05:20:13.001Z</time></trkpt><trkpt lat="46.6585548681074" lon="11.6061329014976"><ele>546.5</ele><time>2026-05-01T05:20:14.001Z</time></trkpt><trkpt lat="46.65873634422839" lon="11.60641203229018"><ele>546.0</ele><time>2026-05-01T05:20:15.001Z</time></trkpt><trkpt lat="46.65892997195208" lon="11.606678265344307"><ele>546.0</ele><time>2026-05-01T05:20:16.001Z</time></trkpt><trkpt lat="46.65913456051636" lon="11.6069298226953"><ele>546.0</ele><time>2026-05-01T05:20:17.001Z</time></trkpt><trkpt lat="46.65934907928679" lon="11.607168991350406"><ele>546.0</ele><time>2026-05-01T05:20:18Z</time></trkpt><trkpt lat="46.65956682320503" lon="11.607399797685426"><ele>546.0</ele><time>2026-05-01T05:20:19Z</time></trkpt><trkpt lat="46.65978559003342" lon="11.607630485022229"><ele>541.5</ele><time>2026-05-01T05:20:20Z</time></trkpt><trkpt lat="46.660004413942346" lon="11.607861323935111"><ele>537.0</ele><time>2026-05-01T05:20:21Z</time></trkpt><trkpt lat="46.66022068592175" lon="11.608090610153528"><ele>535.0</ele><time>2026-05-01T05:20:22Z</time></trkpt><trkpt lat="46.66043878752771" lon="11.608320627552578"><ele>533.0</ele><time>2026-05-01T05:20:23Z</time></trkpt><trkpt lat="46.66065750470695" lon="11.608551822656842"><ele>535.5</ele><time>2026-05-01T05:20:24Z</time></trkpt><trkpt lat="46.66087536466596" lon="11.608784139886794"><ele>538.0</ele><time>2026-05-01T05:20:25Z</time></trkpt><trkpt lat="46.661094671076036" lon="11.609015056257105"><ele>535.5</ele><time>2026-05-01T05:20:26Z</time></trkpt><trkpt lat="46.661313476630525" lon="11.609241244873603"><ele>533.0</ele><time>2026-05-01T05:20:27Z</time></trkpt><trkpt lat="46.66153365605247" lon="11.609467109936844"><ele>536.0</ele><time>2026-05-01T05:20:28Z</time></trkpt><trkpt lat="46.661752452882496" lon="11.60969192692242"><ele>539.0</ele><time>2026-05-01T05:20:29Z</time></trkpt><trkpt lat="46.66197032532608" lon="11.609919191808613"><ele>539.0</ele><time>2026-05-01T05:20:30Z</time></trkpt><trkpt lat="46.66218644903127" lon="11.610148777569142"><ele>539.0</ele><time>2026-05-01T05:20:31Z</time></trkpt><trkpt lat="46.66240332609978" lon="11.610376361883636"><ele>536.5</ele><time>2026-05-01T05:20:32Z</time></trkpt><trkpt lat="46.66262072596351" lon="11.610600266088046"><ele>534.0</ele><time>2026-05-01T05:20:33Z</time></trkpt><trkpt lat="46.66283876596312" lon="11.610824140856762"><ele>534.0</ele><time>2026-05-01T05:20:34Z</time></trkpt><trkpt lat="46.66305656634001" lon="11.61104820478929"><ele>534.0</ele><time>2026-05-01T05:20:35Z</time></trkpt><trkpt lat="46.66327228302911" lon="11.611271994501905"><ele>535.0</ele><time>2026-05-01T05:20:36Z</time></trkpt><trkpt lat="46.66348954030224" lon="11.611496919733979"><ele>536.0</ele><time>2026-05-01T05:20:37Z</time></trkpt><trkpt lat="46.66370624314517" lon="11.611720448603505"><ele>536.0</ele><time>2026-05-01T05:20:38Z</time></trkpt><trkpt lat="46.66392434574431" lon="11.611941588456167"><ele>536.0</ele><time>2026-05-01T05:20:39Z</time></trkpt><trkpt lat="46.66414276865711" lon="11.612157305466807"><ele>537.5</ele><time>2026-05-01T05:20:40Z</time></trkpt><trkpt lat="46.664364105285394" lon="11.612366672088907"><ele>539.0</ele><time>2026-05-01T05:20:41Z</time></trkpt><trkpt lat="46.66459248755342" lon="11.6125686760127"><ele>538.0</ele><time>2026-05-01T05:20:42Z</time></trkpt><trkpt lat="46.664822902497804" lon="11.612759973071764"><ele>537.0</ele><time>2026-05-01T05:20:43Z</time></trkpt><trkpt lat="46.66505839725066" lon="11.612943929563977"><ele>540.0</ele><time>2026-05-01T05:20:44Z</time></trkpt><trkpt lat="46.665296930846004" lon="11.613125496352053"><ele>543.0</ele><time>2026-05-01T05:20:45Z</time></trkpt><trkpt lat="46.665538503344344" lon="11.613308791406007"><ele>543.0</ele><time>2026-05-01T05:20:46Z</time></trkpt><trkpt lat="46.66578064093039" lon="11.613491680804358"><ele>543.0</ele><time>2026-05-01T05:20:47Z</time></trkpt><trkpt lat="46.6660219669703" lon="11.613672899187831"><ele>545.5</ele><time>2026-05-01T05:20:48Z</time></trkpt><trkpt lat="46.666265146918946" lon="11.61385590285176"><ele>548.0</ele><time>2026-05-01T05:20:49Z</time></trkpt><trkpt lat="46.66650644493647" lon="11.614039691095572"><ele>548.0</ele><time>2026-05-01T05:20:50Z</time></trkpt><trkpt lat="46.66674488337653" lon="11.614220240542153"><ele>548.0</ele><time>2026-05-01T05:20:51Z</time></trkpt><trkpt lat="46.66697902768263" lon="11.614397885856656"><ele>546.0</ele><time>2026-05-01T05:20:52Z</time></trkpt><trkpt lat="46.667213265867275" lon="11.61457364437492"><ele>544.0</ele><time>2026-05-01T05:20:53Z</time></trkpt><trkpt lat="46.667449242369536" lon="11.614747440101732"><ele>544.0</ele><time>2026-05-01T05:20:54Z</time></trkpt><trkpt lat="46.66768527857994" lon="11.61492179754923"><ele>544.0</ele><time>2026-05-01T05:20:55Z</time></trkpt><trkpt lat="46.66792145460733" lon="11.615096837571583"><ele>542.5</ele><time>2026-05-01T05:20:56Z</time></trkpt><trkpt lat="46.668158266396844" lon="11.61527031143462"><ele>541.0</ele><time>2026-05-01T05:20:57Z</time></trkpt><trkpt lat="46.66839516580657" lon="11.615444240152902"><ele>543.5</ele><time>2026-05-01T05:20:58Z</time></trkpt><trkpt lat="46.66863262250991" lon="11.615620501205143"><ele>546.0</ele><time>2026-05-01T05:20:59Z</time></trkpt><trkpt lat="46.668871086445066" lon="11.615798949675156"><ele>546.0</ele><time>2026-05-01T05:21:00Z</time></trkpt><trkpt lat="46.66911123592153" lon="11.615978784008728"><ele>546.0</ele><time>2026-05-01T05:21:01Z</time></trkpt><trkpt lat="46.66935053805098" lon="11.616157222934465"><ele>544.0</ele><time>2026-05-01T05:21:02.001Z</time></trkpt><trkpt lat="46.66959371260287" lon="11.616337565389832"><ele>542.0</ele><time>2026-05-01T05:21:03.001Z</time></trkpt><trkpt lat="46.66983861437747" lon="11.616516689446097"><ele>542.0</ele><time>2026-05-01T05:21:04.001Z</time></trkpt><trkpt lat="46.67008424086539" lon="11.616698282036714"><ele>542.0</ele><time>2026-05-01T05:21:05.001Z</time></trkpt><trkpt lat="46.67033039433204" lon="11.616878048985736"><ele>539.5</ele><time>2026-05-01T05:21:06.001Z</time></trkpt><trkpt lat="46.67057418246869" lon="11.617057068664021"><ele>537.0</ele><time>2026-05-01T05:21:07.001Z</time></trkpt><trkpt lat="46.67080711669931" lon="11.617225707850555"><ele>537.0</ele><time>2026-05-01T05:21:08.001Z</time></trkpt><trkpt lat="46.67104014493894" lon="11.617396951206137"><ele>537.0</ele><time>2026-05-01T05:21:09.001Z</time></trkpt><trkpt lat="46.67127572954741" lon="11.61757159089198"><ele>537.5</ele><time>2026-05-01T05:21:10.001Z</time></trkpt><trkpt lat="46.67151208544487" lon="11.617748754549027"><ele>538.0</ele><time>2026-05-01T05:21:11.001Z</time></trkpt><trkpt lat="46.67174996808434" lon="11.61792730276953"><ele>540.0</ele><time>2026-05-01T05:21:12.001Z</time></trkpt><trkpt lat="46.67198806071649" lon="11.618105493067818"><ele>542.0</ele><time>2026-05-01T05:21:13.001Z</time></trkpt><trkpt lat="46.67222643956822" lon="11.61828216506964"><ele>542.0</ele><time>2026-05-01T05:21:14.001Z</time></trkpt><trkpt lat="46.67246700739731" lon="11.618458626788732"><ele>542.0</ele><time>2026-05-01T05:21:15.001Z</time></trkpt><trkpt lat="46.672707744619736" lon="11.618632301056484"><ele>541.0</ele><time>2026-05-01T05:21:16.001Z</time></trkpt><trkpt lat="46.67294708719413" lon="11.618803933898642"><ele>540.0</ele><time>2026-05-01T05:21:17.001Z</time></trkpt><trkpt lat="46.673184152797674" lon="11.618972639767039"><ele>540.0</ele><time>2026-05-01T05:21:18.001Z</time></trkpt><trkpt lat="46.6734234562181" lon="11.619138623361689"><ele>540.0</ele><time>2026-05-01T05:21:19.001Z</time></trkpt><trkpt lat="46.67366535739088" lon="11.619306052136999"><ele>542.0</ele><time>2026-05-01T05:21:20.001Z</time></trkpt><trkpt lat="46.673905765081024" lon="11.619467586857379"><ele>544.0</ele><time>2026-05-01T05:21:21.001Z</time></trkpt><trkpt lat="46.67414735975055" lon="11.619625725825863"><ele>544.5</ele><time>2026-05-01T05:21:22.001Z</time></trkpt><trkpt lat="46.67438951572738" lon="11.619781623949947"><ele>545.0</ele><time>2026-05-01T05:21:23.001Z</time></trkpt><trkpt lat="46.674633711444294" lon="11.619936565034546"><ele>542.5</ele><time>2026-05-01T05:21:24.001Z</time></trkpt><trkpt lat="46.674876141978324" lon="11.62008736479423"><ele>540.0</ele><time>2026-05-01T05:21:25.001Z</time></trkpt><trkpt lat="46.6751208144076" lon="11.620234452145725"><ele>540.0</ele><time>2026-05-01T05:21:26.001Z</time></trkpt><trkpt lat="46.67536478066318" lon="11.620379199985546"><ele>540.0</ele><time>2026-05-01T05:21:27.001Z</time></trkpt><trkpt lat="46.675611496235994" lon="11.620522598804442"><ele>540.0</ele><time>2026-05-01T05:21:28.001Z</time></trkpt><trkpt lat="46.67585927756444" lon="11.620661840672899"><ele>540.0</ele><time>2026-05-01T05:21:29.001Z</time></trkpt><trkpt lat="46.67610797300303" lon="11.62079893859599"><ele>540.5</ele><time>2026-05-01T05:21:30.001Z</time></trkpt><trkpt lat="46.67635523446631" lon="11.620933228905747"><ele>541.0</ele><time>2026-05-01T05:21:31.001Z</time></trkpt><trkpt lat="46.67660588608455" lon="11.621065983003067"><ele>541.5</ele><time>2026-05-01T05:21:32.001Z</time></trkpt><trkpt lat="46.676857676132265" lon="11.621194663896771"><ele>542.0</ele><time>2026-05-01T05:21:33.001Z</time></trkpt><trkpt lat="46.67711157652325" lon="11.621313871431076"><ele>543.0</ele><time>2026-05-01T05:21:34.001Z</time></trkpt><trkpt lat="46.67737079075298" lon="11.621430877947716"><ele>544.0</ele><time>2026-05-01T05:21:35.001Z</time></trkpt><trkpt lat="46.67762946180934" lon="11.621538356889367"><ele>547.0</ele><time>2026-05-01T05:21:36.001Z</time></trkpt><trkpt lat="46.67788725052249" lon="11.621651793837287"><ele>550.0</ele><time>2026-05-01T05:21:37.001Z</time></trkpt><trkpt lat="46.67814514418142" lon="11.621766012235888"><ele>550.0</ele><time>2026-05-01T05:21:38.001Z</time></trkpt><trkpt lat="46.67840354669417" lon="11.621879450920904"><ele>550.0</ele><time>2026-05-01T05:21:39.001Z</time></trkpt><trkpt lat="46.67866198262557" lon="11.62199120548104"><ele>547.5</ele><time>2026-05-01T05:21:40.001Z</time></trkpt><trkpt lat="46.678920342404865" lon="11.622100110017724"><ele>545.0</ele><time>2026-05-01T05:21:41.001Z</time></trkpt><trkpt lat="46.679177729070936" lon="11.622205375156668"><ele>550.5</ele><time>2026-05-01T05:21:42.001Z</time></trkpt><trkpt lat="46.67943691518522" lon="11.622310227543897"><ele>556.0</ele><time>2026-05-01T05:21:43.001Z</time></trkpt><trkpt lat="46.67969639666726" lon="11.622414284395118"><ele>556.0</ele><time>2026-05-01T05:21:44.001Z</time></trkpt><trkpt lat="46.679958093481766" lon="11.622516465492826"><ele>556.0</ele><time>2026-05-01T05:21:45.001Z</time></trkpt><trkpt lat="46.68021840304946" lon="11.622614402019765"><ele>560.5</ele><time>2026-05-01T05:21:46.001Z</time></trkpt><trkpt lat="46.68047757020691" lon="11.62271290989093"><ele>565.0</ele><time>2026-05-01T05:21:47.001Z</time></trkpt><trkpt lat="46.680736896519726" lon="11.62281437668608"><ele>556.0</ele><time>2026-05-01T05:21:48.001Z</time></trkpt><trkpt lat="46.68099501367566" lon="11.622921351152577"><ele>547.0</ele><time>2026-05-01T05:21:49.001Z</time></trkpt><trkpt lat="46.68124946913703" lon="11.623038237707272"><ele>547.0</ele><time>2026-05-01T05:21:50.001Z</time></trkpt><trkpt lat="46.681499161777595" lon="11.623168533012597"><ele>547.0</ele><time>2026-05-01T05:21:51.001Z</time></trkpt><trkpt lat="46.68174843714498" lon="11.623306564910685"><ele>546.0</ele><time>2026-05-01T05:21:52.001Z</time></trkpt><trkpt lat="46.68198959932661" lon="11.623471244113807"><ele>545.0</ele><time>2026-05-01T05:21:53.001Z</time></trkpt><trkpt lat="46.68222375841987" lon="11.623652633529142"><ele>545.0</ele><time>2026-05-01T05:21:54.001Z</time></trkpt><trkpt lat="46.68245433129934" lon="11.62384638152194"><ele>545.0</ele><time>2026-05-01T05:21:55.001Z</time></trkpt><trkpt lat="46.682681329482236" lon="11.624056261493715"><ele>546.0</ele><time>2026-05-01T05:21:56.001Z</time></trkpt><trkpt lat="46.682902028809295" lon="11.624278249595859"><ele>547.0</ele><time>2026-05-01T05:21:57.001Z</time></trkpt><trkpt lat="46.683117962295285" lon="11.624516750761423"><ele>544.5</ele><time>2026-05-01T05:21:58.001Z</time></trkpt><trkpt lat="46.68332918600673" lon="11.624769609155598"><ele>542.0</ele><time>2026-05-01T05:21:59.001Z</time></trkpt><trkpt lat="46.68353608825666" lon="11.625035693900964"><ele>544.5</ele><time>2026-05-01T05:22:00.001Z</time></trkpt><trkpt lat="46.68373602886396" lon="11.625315340680872"><ele>547.0</ele><time>2026-05-01T05:22:01.001Z</time></trkpt><trkpt lat="46.683927964281004" lon="11.62561151421721"><ele>547.0</ele><time>2026-05-01T05:22:02.001Z</time></trkpt><trkpt lat="46.684111401950716" lon="11.625920197475384"><ele>547.0</ele><time>2026-05-01T05:22:03.001Z</time></trkpt><trkpt lat="46.6842814317222" lon="11.626237693634005"><ele>547.0</ele><time>2026-05-01T05:22:04.001Z</time></trkpt><trkpt lat="46.68443990680371" lon="11.626555006044804"><ele>547.0</ele><time>2026-05-01T05:22:05.001Z</time></trkpt><trkpt lat="46.68459313418895" lon="11.626873156764711"><ele>545.5</ele><time>2026-05-01T05:22:06.001Z</time></trkpt><trkpt lat="46.6847440305041" lon="11.627195000895796"><ele>544.0</ele><time>2026-05-01T05:22:07.001Z</time></trkpt><trkpt lat="46.68489532198751" lon="11.627503888970072"><ele>543.5</ele><time>2026-05-01T05:22:08.001Z</time></trkpt><trkpt lat="46.68504472251438" lon="11.627815121325424"><ele>543.0</ele><time>2026-05-01T05:22:09.001Z</time></trkpt><trkpt lat="46.68519044257839" lon="11.62813447873256"><ele>544.0</ele><time>2026-05-01T05:22:10.001Z</time></trkpt><trkpt lat="46.68533239296753" lon="11.628459526314177"><ele>545.0</ele><time>2026-05-01T05:22:11.001Z</time></trkpt><trkpt lat="46.6854714617072" lon="11.628786444681166"><ele>545.0</ele><time>2026-05-01T05:22:12.001Z</time></trkpt><trkpt lat="46.685616324784775" lon="11.629113606767746"><ele>545.0</ele><time>2026-05-01T05:22:13.001Z</time></trkpt><trkpt lat="46.68576406829882" lon="11.629438074617122"><ele>542.5</ele><time>2026-05-01T05:22:14.001Z</time></trkpt><trkpt lat="46.685914239958485" lon="11.629769193223348"><ele>540.0</ele><time>2026-05-01T05:22:15.001Z</time></trkpt><trkpt lat="46.68607358355593" lon="11.630085767330954"><ele>539.5</ele><time>2026-05-01T05:22:16.001Z</time></trkpt><trkpt lat="46.686229363312556" lon="11.630401522306212"><ele>539.0</ele><time>2026-05-01T05:22:17.001Z</time></trkpt><trkpt lat="46.68638181697408" lon="11.630718436841851"><ele>539.0</ele><time>2026-05-01T05:22:18.001Z</time></trkpt><trkpt lat="46.68652831101941" lon="11.631023709955548"><ele>539.0</ele><time>2026-05-01T05:22:19.001Z</time></trkpt><trkpt lat="46.686674449934394" lon="11.631330167464244"><ele>540.0</ele><time>2026-05-01T05:22:20.001Z</time></trkpt><trkpt lat="46.686822839919856" lon="11.631644766405357"><ele>541.0</ele><time>2026-05-01T05:22:21.001Z</time></trkpt><trkpt lat="46.68697420729899" lon="11.631961281366072"><ele>542.0</ele><time>2026-05-01T05:22:22.001Z</time></trkpt><trkpt lat="46.687124665330494" lon="11.632279967310115"><ele>543.0</ele><time>2026-05-01T05:22:23.001Z</time></trkpt><trkpt lat="46.687277582742155" lon="11.632599336619187"><ele>544.0</ele><time>2026-05-01T05:22:24Z</time></trkpt><trkpt lat="46.68743330512432" lon="11.632923716669167"><ele>545.0</ele><time>2026-05-01T05:22:25Z</time></trkpt><trkpt lat="46.687588804532446" lon="11.633244596812998"><ele>545.0</ele><time>2026-05-01T05:22:26Z</time></trkpt><trkpt lat="46.687745077403086" lon="11.63356638214583"><ele>545.0</ele><time>2026-05-01T05:22:27Z</time></trkpt><trkpt lat="46.687899356771915" lon="11.633888355602334"><ele>545.0</ele><time>2026-05-01T05:22:28Z</time></trkpt><trkpt lat="46.688051441656874" lon="11.634207260444725"><ele>545.0</ele><time>2026-05-01T05:22:29Z</time></trkpt><trkpt lat="46.68820197102205" lon="11.634524182940055"><ele>544.0</ele><time>2026-05-01T05:22:30Z</time></trkpt><trkpt lat="46.68835334915374" lon="11.634841930871046"><ele>543.0</ele><time>2026-05-01T05:22:31Z</time></trkpt><trkpt lat="46.68850608835125" lon="11.635158407721937"><ele>543.5</ele><time>2026-05-01T05:22:32Z</time></trkpt><trkpt lat="46.68865784201992" lon="11.635478731143966"><ele>544.0</ele><time>2026-05-01T05:22:33Z</time></trkpt><trkpt lat="46.68880859727789" lon="11.635796079568433"><ele>544.0</ele><time>2026-05-01T05:22:34Z</time></trkpt><trkpt lat="46.688960334905055" lon="11.636115538653499"><ele>544.0</ele><time>2026-05-01T05:22:35Z</time></trkpt><trkpt lat="46.68911364485095" lon="11.636434416081928"><ele>545.5</ele><time>2026-05-01T05:22:36Z</time></trkpt><trkpt lat="46.689267987689114" lon="11.636757471195327"><ele>547.0</ele><time>2026-05-01T05:22:37Z</time></trkpt><trkpt lat="46.68942459957748" lon="11.637078607926961"><ele>546.0</ele><time>2026-05-01T05:22:38Z</time></trkpt><trkpt lat="46.689585517522744" lon="11.637398865299811"><ele>545.0</ele><time>2026-05-01T05:22:39Z</time></trkpt><trkpt lat="46.689748864431536" lon="11.63771506627215"><ele>545.5</ele><time>2026-05-01T05:22:40Z</time></trkpt><trkpt lat="46.68992032362084" lon="11.638022770620276"><ele>546.0</ele><time>2026-05-01T05:22:41Z</time></trkpt><trkpt lat="46.69009700262389" lon="11.638315861675109"><ele>547.0</ele><time>2026-05-01T05:22:42Z</time></trkpt><trkpt lat="46.690279611916" lon="11.638595831678664"><ele>548.0</ele><time>2026-05-01T05:22:43Z</time></trkpt><trkpt lat="46.69047099391026" lon="11.638865818704229"><ele>548.0</ele><time>2026-05-01T05:22:44Z</time></trkpt><trkpt lat="46.69067069018816" lon="11.63911541393472"><ele>548.0</ele><time>2026-05-01T05:22:45Z</time></trkpt><trkpt lat="46.690876009093365" lon="11.639354312570287"><ele>548.0</ele><time>2026-05-01T05:22:46Z</time></trkpt><trkpt lat="46.69108979132383" lon="11.639578035976227"><ele>548.0</ele><time>2026-05-01T05:22:47Z</time></trkpt><trkpt lat="46.691310774607445" lon="11.639788559361037"><ele>549.0</ele><time>2026-05-01T05:22:48Z</time></trkpt><trkpt lat="46.6915386927427" lon="11.639988356361743"><ele>550.0</ele><time>2026-05-01T05:22:49Z</time></trkpt><trkpt lat="46.691771351995804" lon="11.640180221414564"><ele>551.0</ele><time>2026-05-01T05:22:50Z</time></trkpt><trkpt lat="46.69200614561193" lon="11.640364645532946"><ele>552.0</ele><time>2026-05-01T05:22:51Z</time></trkpt><trkpt lat="46.69224334291926" lon="11.640539615475163"><ele>552.0</ele><time>2026-05-01T05:22:52Z</time></trkpt><trkpt lat="46.69248345917342" lon="11.64070784464919"><ele>552.0</ele><time>2026-05-01T05:22:53Z</time></trkpt><trkpt lat="46.692723440933364" lon="11.640875103066836"><ele>551.0</ele><time>2026-05-01T05:22:54Z</time></trkpt><trkpt lat="46.692967642975646" lon="11.641038850137262"><ele>550.0</ele><time>2026-05-01T05:22:55Z</time></trkpt><trkpt lat="46.69320983451932" lon="11.64120791622995"><ele>550.0</ele><time>2026-05-01T05:22:56Z</time></trkpt><trkpt lat="46.693454344848796" lon="11.641375748891264"><ele>550.0</ele><time>2026-05-01T05:22:57Z</time></trkpt><trkpt lat="46.69369830344445" lon="11.641544054128316"><ele>554.0</ele><time>2026-05-01T05:22:58Z</time></trkpt><trkpt lat="46.693940559484375" lon="11.641710791684162"><ele>558.0</ele><time>2026-05-01T05:22:59Z</time></trkpt><trkpt lat="46.694177146478495" lon="11.641874013549513"><ele>555.5</ele><time>2026-05-01T05:23:00Z</time></trkpt><trkpt lat="46.69441301139338" lon="11.64203666568387"><ele>553.0</ele><time>2026-05-01T05:23:01Z</time></trkpt><trkpt lat="46.6946486256966" lon="11.642199916145248"><ele>553.0</ele><time>2026-05-01T05:23:02Z</time></trkpt><trkpt lat="46.694883614195916" lon="11.642364577313234"><ele>553.0</ele><time>2026-05-01T05:23:03Z</time></trkpt><trkpt lat="46.69512036936939" lon="11.642531110634941"><ele>551.0</ele><time>2026-05-01T05:23:04Z</time></trkpt><trkpt lat="46.695355917628184" lon="11.642695129166745"><ele>549.0</ele><time>2026-05-01T05:23:05Z</time></trkpt><trkpt lat="46.695593327322726" lon="11.642862247919064"><ele>549.0</ele><time>2026-05-01T05:23:06Z</time></trkpt><trkpt lat="46.695829850256494" lon="11.643029216807365"><ele>549.0</ele><time>2026-05-01T05:23:07.001Z</time></trkpt><trkpt lat="46.6960665271678" lon="11.64319207519783"><ele>550.5</ele><time>2026-05-01T05:23:08.001Z</time></trkpt><trkpt lat="46.69630475400678" lon="11.643352090575718"><ele>552.0</ele><time>2026-05-01T05:23:09.001Z</time></trkpt><trkpt lat="46.696544445059644" lon="11.643509594592064"><ele>551.0</ele><time>2026-05-01T05:23:10.001Z</time></trkpt><trkpt lat="46.69678514825527" lon="11.643665083959958"><ele>550.0</ele><time>2026-05-01T05:23:11.001Z</time></trkpt><trkpt lat="46.69702676559933" lon="11.643822119038882"><ele>549.5</ele><time>2026-05-01T05:23:12.001Z</time></trkpt><trkpt lat="46.697265381147176" lon="11.643981626925841"><ele>549.0</ele><time>2026-05-01T05:23:13.001Z</time></trkpt><trkpt lat="46.697505468704854" lon="11.644143176756012"><ele>549.0</ele><time>2026-05-01T05:23:14.001Z</time></trkpt><trkpt lat="46.69774609499295" lon="11.644308039943915"><ele>549.0</ele><time>2026-05-01T05:23:15.001Z</time></trkpt><trkpt lat="46.69798696211466" lon="11.644473596591999"><ele>550.5</ele><time>2026-05-01T05:23:16.001Z</time></trkpt><trkpt lat="46.69822389692675" lon="11.644637933578185"><ele>552.0</ele><time>2026-05-01T05:23:17.001Z</time></trkpt><trkpt lat="46.6984613599882" lon="11.64480558836346"><ele>551.5</ele><time>2026-05-01T05:23:18.001Z</time></trkpt><trkpt lat="46.69870096571511" lon="11.644972922400518"><ele>551.0</ele><time>2026-05-01T05:23:19.001Z</time></trkpt><trkpt lat="46.69894015306654" lon="11.645137078647187"><ele>552.5</ele><time>2026-05-01T05:23:20.001Z</time></trkpt><trkpt lat="46.699182538752275" lon="11.645306870721651"><ele>554.0</ele><time>2026-05-01T05:23:21.001Z</time></trkpt><trkpt lat="46.699422976805366" lon="11.645473877591527"><ele>555.5</ele><time>2026-05-01T05:23:22.001Z</time></trkpt><trkpt lat="46.69966090197548" lon="11.645641689382545"><ele>557.0</ele><time>2026-05-01T05:23:23.001Z</time></trkpt><trkpt lat="46.69989961036043" lon="11.645809204471552"><ele>557.0</ele><time>2026-05-01T05:23:24.001Z</time></trkpt><trkpt lat="46.700140059798606" lon="11.645975060296305"><ele>557.0</ele><time>2026-05-01T05:23:25.001Z</time></trkpt><trkpt lat="46.700378112926934" lon="11.64613702408866"><ele>557.0</ele><time>2026-05-01T05:23:26.001Z</time></trkpt><trkpt lat="46.70061615350046" lon="11.646301998204047"><ele>557.0</ele><time>2026-05-01T05:23:27.001Z</time></trkpt><trkpt lat="46.70085103622273" lon="11.646470823971649"><ele>569.5</ele><time>2026-05-01T05:23:28.001Z</time></trkpt><trkpt lat="46.701090099511156" lon="11.646634525782288"><ele>582.0</ele><time>2026-05-01T05:23:29.001Z</time></trkpt><trkpt lat="46.70132504613077" lon="11.646803849431656"><ele>570.5</ele><time>2026-05-01T05:23:30.001Z</time></trkpt><trkpt lat="46.70156252720201" lon="11.646965654369493"><ele>559.0</ele><time>2026-05-01T05:23:31.001Z</time></trkpt><trkpt lat="46.70180012316773" lon="11.647130285714411"><ele>567.5</ele><time>2026-05-01T05:23:32.001Z</time></trkpt><trkpt lat="46.70203894379951" lon="11.647294811892706"><ele>576.0</ele><time>2026-05-01T05:23:33.001Z</time></trkpt><trkpt lat="46.702276008744406" lon="11.6474504753828"><ele>576.0</ele><time>2026-05-01T05:23:34.001Z</time></trkpt><trkpt lat="46.70252100241861" lon="11.647600490113687"><ele>576.0</ele><time>2026-05-01T05:23:35.001Z</time></trkpt><trkpt lat="46.7027685918884" lon="11.647732361185371"><ele>568.5</ele><time>2026-05-01T05:23:36.001Z</time></trkpt><trkpt lat="46.70301879092561" lon="11.647846931107166"><ele>561.0</ele><time>2026-05-01T05:23:37.001Z</time></trkpt><trkpt lat="46.70327290886522" lon="11.647920815269217"><ele>561.0</ele><time>2026-05-01T05:23:38.001Z</time></trkpt><trkpt lat="46.703530398405356" lon="11.647979062561419"><ele>561.0</ele><time>2026-05-01T05:23:39.001Z</time></trkpt><trkpt lat="46.70379018008099" lon="11.648018355444469"><ele>564.5</ele><time>2026-05-01T05:23:40.001Z</time></trkpt><trkpt lat="46.70404989884265" lon="11.648048435116548"><ele>568.0</ele><time>2026-05-01T05:23:41.001Z</time></trkpt><trkpt lat="46.704311766018854" lon="11.648085433184075"><ele>570.5</ele><time>2026-05-01T05:23:42.001Z</time></trkpt><trkpt lat="46.70457746916194" lon="11.64812277247785"><ele>573.0</ele><time>2026-05-01T05:23:43.001Z</time></trkpt><trkpt lat="46.704826985515" lon="11.648176929648946"><ele>573.0</ele><time>2026-05-01T05:23:44.001Z</time></trkpt><trkpt lat="46.7050794459861" lon="11.648247818384457"><ele>573.0</ele><time>2026-05-01T05:23:45.001Z</time></trkpt><trkpt lat="46.70533073626475" lon="11.648330676944147"><ele>577.5</ele><time>2026-05-01T05:23:46.001Z</time></trkpt><trkpt lat="46.70558040207431" lon="11.64842821022617"><ele>582.0</ele><time>2026-05-01T05:23:47.001Z</time></trkpt><trkpt lat="46.70582869079741" lon="11.648535755769773"><ele>574.5</ele><time>2026-05-01T05:23:48.001Z</time></trkpt><trkpt lat="46.70607826121252" lon="11.648641338405623"><ele>567.0</ele><time>2026-05-01T05:23:49.001Z</time></trkpt><trkpt lat="46.706328425306125" lon="11.648729537125684"><ele>567.0</ele><time>2026-05-01T05:23:50.001Z</time></trkpt><trkpt lat="46.706587737359385" lon="11.648785157086376"><ele>567.0</ele><time>2026-05-01T05:23:51.001Z</time></trkpt><trkpt lat="46.70684791196425" lon="11.64881922942963"><ele>569.5</ele><time>2026-05-01T05:23:52.001Z</time></trkpt><trkpt lat="46.707107948962545" lon="11.648827772976798"><ele>572.0</ele><time>2026-05-01T05:23:53.001Z</time></trkpt><trkpt lat="46.70736838527806" lon="11.648809949099038"><ele>572.0</ele><time>2026-05-01T05:23:54.001Z</time></trkpt><trkpt lat="46.707628165621024" lon="11.648772692881826"><ele>572.0</ele><time>2026-05-01T05:23:55.001Z</time></trkpt><trkpt lat="46.70788941761293" lon="11.648719008565772"><ele>574.0</ele><time>2026-05-01T05:23:56.001Z</time></trkpt><trkpt lat="46.70814677338507" lon="11.64864460107984"><ele>576.0</ele><time>2026-05-01T05:23:57.001Z</time></trkpt><trkpt lat="46.70840235127201" lon="11.648551297037018"><ele>582.0</ele><time>2026-05-01T05:23:58.001Z</time></trkpt><trkpt lat="46.708656525560905" lon="11.648448976445865"><ele>588.0</ele><time>2026-05-01T05:23:59.001Z</time></trkpt><trkpt lat="46.708912745087716" lon="11.6483446069792"><ele>588.0</ele><time>2026-05-01T05:24:00.001Z</time></trkpt><trkpt lat="46.70917044329334" lon="11.648245664196306"><ele>588.0</ele><time>2026-05-01T05:24:01.001Z</time></trkpt><trkpt lat="46.70942942695181" lon="11.648150420698531"><ele>588.0</ele><time>2026-05-01T05:24:02.001Z</time></trkpt><trkpt lat="46.70968954946667" lon="11.648059882497577"><ele>588.0</ele><time>2026-05-01T05:24:03.001Z</time></trkpt><trkpt lat="46.709950367241156" lon="11.647980370858601"><ele>588.0</ele><time>2026-05-01T05:24:04.001Z</time></trkpt><trkpt lat="46.71021481108354" lon="11.647914109672223"><ele>588.0</ele><time>2026-05-01T05:24:05.001Z</time></trkpt><trkpt lat="46.71048259110491" lon="11.64786558890592"><ele>590.0</ele><time>2026-05-01T05:24:06.001Z</time></trkpt><trkpt lat="46.71075458291212" lon="11.647831926899634"><ele>592.0</ele><time>2026-05-01T05:24:07.001Z</time></trkpt><trkpt lat="46.71102658761001" lon="11.647811087502973"><ele>589.5</ele><time>2026-05-01T05:24:08.001Z</time></trkpt><trkpt lat="46.71129793575671" lon="11.64779838957162"><ele>587.0</ele><time>2026-05-01T05:24:09.001Z</time></trkpt><trkpt lat="46.71156863679275" lon="11.647787298689751"><ele>595.5</ele><time>2026-05-01T05:24:10.001Z</time></trkpt><trkpt lat="46.711838137778614" lon="11.647774869978464"><ele>604.0</ele><time>2026-05-01T05:24:11.001Z</time></trkpt><trkpt lat="46.71211015948226" lon="11.647761781040463"><ele>605.5</ele><time>2026-05-01T05:24:12.001Z</time></trkpt><trkpt lat="46.71238207774698" lon="11.647750775881459"><ele>607.0</ele><time>2026-05-01T05:24:13.001Z</time></trkpt><trkpt lat="46.71265279234611" lon="11.647741729820579"><ele>606.5</ele><time>2026-05-01T05:24:14.001Z</time></trkpt><trkpt lat="46.71292446752625" lon="11.647733016014696"><ele>606.0</ele><time>2026-05-01T05:24:15.001Z</time></trkpt><trkpt lat="46.71319839673984" lon="11.647722705898008"><ele>606.0</ele><time>2026-05-01T05:24:16.001Z</time></trkpt><trkpt lat="46.71346666649257" lon="11.64771009829946"><ele>606.0</ele><time>2026-05-01T05:24:17.001Z</time></trkpt><trkpt lat="46.71373755486675" lon="11.647692923283886"><ele>603.5</ele><time>2026-05-01T05:24:18.001Z</time></trkpt><trkpt lat="46.71400716780734" lon="11.647670125360026"><ele>601.0</ele><time>2026-05-01T05:24:19.001Z</time></trkpt><trkpt lat="46.71427266507786" lon="11.64763356640422"><ele>600.0</ele><time>2026-05-01T05:24:20.001Z</time></trkpt><trkpt lat="46.71454150765661" lon="11.647589144253363"><ele>599.0</ele><time>2026-05-01T05:24:21.001Z</time></trkpt><trkpt lat="46.71480966315239" lon="11.647534321897938"><ele>599.0</ele><time>2026-05-01T05:24:22.001Z</time></trkpt><trkpt lat="46.71507784878144" lon="11.647477464660483"><ele>599.0</ele><time>2026-05-01T05:24:23.001Z</time></trkpt><trkpt lat="46.71534276752557" lon="11.647432219397658"><ele>599.0</ele><time>2026-05-01T05:24:24.001Z</time></trkpt><trkpt lat="46.71560839888467" lon="11.647379805393282"><ele>599.0</ele><time>2026-05-01T05:24:25.001Z</time></trkpt><trkpt lat="46.71587507394942" lon="11.647319142784866"><ele>595.0</ele><time>2026-05-01T05:24:26.001Z</time></trkpt><trkpt lat="46.71614122984294" lon="11.647265691939428"><ele>591.0</ele><time>2026-05-01T05:24:27.001Z</time></trkpt><trkpt lat="46.7164076642479" lon="11.64720767770615"><ele>591.0</ele><time>2026-05-01T05:24:28.001Z</time></trkpt><trkpt lat="46.71667459228895" lon="11.647148600562224"><ele>591.0</ele><time>2026-05-01T05:24:29.001Z</time></trkpt><trkpt lat="46.716935662750146" lon="11.647076876769292"><ele>588.0</ele><time>2026-05-01T05:24:30Z</time></trkpt><trkpt lat="46.71719549356375" lon="11.64700301341944"><ele>585.0</ele><time>2026-05-01T05:24:31Z</time></trkpt><trkpt lat="46.717455973031655" lon="11.646927823709749"><ele>590.5</ele><time>2026-05-01T05:24:32Z</time></trkpt><trkpt lat="46.717717037732754" lon="11.646855704694554"><ele>596.0</ele><time>2026-05-01T05:24:33Z</time></trkpt><trkpt lat="46.717977362737834" lon="11.646782487638081"><ele>596.0</ele><time>2026-05-01T05:24:34Z</time></trkpt><trkpt lat="46.71823864473253" lon="11.646706314365918"><ele>596.0</ele><time>2026-05-01T05:24:35Z</time></trkpt><trkpt lat="46.718499117552874" lon="11.646632860334147"><ele>595.0</ele><time>2026-05-01T05:24:36Z</time></trkpt><trkpt lat="46.718759725601444" lon="11.646560046796674"><ele>594.0</ele><time>2026-05-01T05:24:37Z</time></trkpt><trkpt lat="46.71902137725714" lon="11.646485935021099"><ele>594.0</ele><time>2026-05-01T05:24:38Z</time></trkpt><trkpt lat="46.7192830370135" lon="11.646415807610204"><ele>594.0</ele><time>2026-05-01T05:24:39Z</time></trkpt><trkpt lat="46.71954537390529" lon="11.646350823431723"><ele>594.5</ele><time>2026-05-01T05:24:40Z</time></trkpt><trkpt lat="46.719811254949995" lon="11.646292163811243"><ele>595.0</ele><time>2026-05-01T05:24:41Z</time></trkpt><trkpt lat="46.72007924428996" lon="11.646252000171062"><ele>593.0</ele><time>2026-05-01T05:24:42Z</time></trkpt><trkpt lat="46.72034711534552" lon="11.646252585048549"><ele>591.0</ele><time>2026-05-01T05:24:43Z</time></trkpt><trkpt lat="46.720614512132485" lon="11.646269418017472"><ele>591.0</ele><time>2026-05-01T05:24:44Z</time></trkpt><trkpt lat="46.720883459977394" lon="11.646308581119401"><ele>591.0</ele><time>2026-05-01T05:24:45Z</time></trkpt><trkpt lat="46.72115164427075" lon="11.64636503809151"><ele>591.0</ele><time>2026-05-01T05:24:46Z</time></trkpt><trkpt lat="46.721417367350575" lon="11.646424447166293"><ele>591.0</ele><time>2026-05-01T05:24:47Z</time></trkpt><trkpt lat="46.72168713712284" lon="11.64648282529737"><ele>589.5</ele><time>2026-05-01T05:24:48Z</time></trkpt><trkpt lat="46.72195488374362" lon="11.646526654132682"><ele>588.0</ele><time>2026-05-01T05:24:49Z</time></trkpt><trkpt lat="46.722223015905314" lon="11.646551595989408"><ele>588.0</ele><time>2026-05-01T05:24:50Z</time></trkpt><trkpt lat="46.72248957513097" lon="11.646550060032165"><ele>588.0</ele><time>2026-05-01T05:24:51Z</time></trkpt><trkpt lat="46.722756401921025" lon="11.64652431455679"><ele>585.5</ele><time>2026-05-01T05:24:52Z</time></trkpt><trkpt lat="46.723019399249054" lon="11.646470506841773"><ele>583.0</ele><time>2026-05-01T05:24:53Z</time></trkpt><trkpt lat="46.7232802953046" lon="11.64639944951499"><ele>583.0</ele><time>2026-05-01T05:24:54Z</time></trkpt><trkpt lat="46.723536712818024" lon="11.646308794127766"><ele>583.0</ele><time>2026-05-01T05:24:55Z</time></trkpt><trkpt lat="46.72379232184101" lon="11.646199828002509"><ele>586.5</ele><time>2026-05-01T05:24:56Z</time></trkpt><trkpt lat="46.72404662263496" lon="11.646079412845053"><ele>590.0</ele><time>2026-05-01T05:24:57Z</time></trkpt><trkpt lat="46.72429914467484" lon="11.645956924529576"><ele>586.0</ele><time>2026-05-01T05:24:58Z</time></trkpt><trkpt lat="46.72455485510916" lon="11.645834929598463"><ele>582.0</ele><time>2026-05-01T05:24:59Z</time></trkpt><trkpt lat="46.72480958730744" lon="11.645710359483314"><ele>582.0</ele><time>2026-05-01T05:25:00Z</time></trkpt><trkpt lat="46.72506313434852" lon="11.645585453838319"><ele>582.0</ele><time>2026-05-01T05:25:01Z</time></trkpt><trkpt lat="46.72531646102338" lon="11.645463201097284"><ele>582.0</ele><time>2026-05-01T05:25:02Z</time></trkpt><trkpt lat="46.725568784589264" lon="11.645341528343577"><ele>582.0</ele><time>2026-05-01T05:25:03Z</time></trkpt><trkpt lat="46.72582074753037" lon="11.645217990550368"><ele>585.5</ele><time>2026-05-01T05:25:04Z</time></trkpt><trkpt lat="46.726073460221016" lon="11.64509576974431"><ele>589.0</ele><time>2026-05-01T05:25:05Z</time></trkpt><trkpt lat="46.72632674783993" lon="11.644975262261045"><ele>589.0</ele><time>2026-05-01T05:25:06Z</time></trkpt><trkpt lat="46.72658004457093" lon="11.644852389735119"><ele>589.0</ele><time>2026-05-01T05:25:07Z</time></trkpt><trkpt lat="46.7268347966728" lon="11.644724903010022"><ele>589.0</ele><time>2026-05-01T05:25:08Z</time></trkpt><trkpt lat="46.727084842733184" lon="11.644596909982694"><ele>589.0</ele><time>2026-05-01T05:25:09Z</time></trkpt><trkpt lat="46.72731948194325" lon="11.644472915252084"><ele>589.0</ele><time>2026-05-01T05:25:10Z</time></trkpt><trkpt lat="46.72756001125228" lon="11.644338151570556"><ele>589.0</ele><time>2026-05-01T05:25:11Z</time></trkpt><trkpt lat="46.72780119198375" lon="11.644194163556666"><ele>589.0</ele><time>2026-05-01T05:25:12Z</time></trkpt><trkpt lat="46.72804552205568" lon="11.644035546564588"><ele>589.0</ele><time>2026-05-01T05:25:13Z</time></trkpt><trkpt lat="46.728290282580545" lon="11.64386974270784"><ele>589.0</ele><time>2026-05-01T05:25:14Z</time></trkpt><trkpt lat="46.72853516040526" lon="11.64370539130459"><ele>589.0</ele><time>2026-05-01T05:25:15Z</time></trkpt><trkpt lat="46.7287799736751" lon="11.643541018238308"><ele>593.0</ele><time>2026-05-01T05:25:16Z</time></trkpt><trkpt lat="46.72902558285085" lon="11.643377927252581"><ele>597.0</ele><time>2026-05-01T05:25:17Z</time></trkpt><trkpt lat="46.72926847315562" lon="11.64321657980927"><ele>594.5</ele><time>2026-05-01T05:25:18Z</time></trkpt><trkpt lat="46.72951121164098" lon="11.64305453106497"><ele>592.0</ele><time>2026-05-01T05:25:19Z</time></trkpt><trkpt lat="46.729752244229466" lon="11.642893963640722"><ele>596.0</ele><time>2026-05-01T05:25:20.001Z</time></trkpt><trkpt lat="46.72999114656805" lon="11.642733919897019"><ele>600.0</ele><time>2026-05-01T05:25:21.001Z</time></trkpt><trkpt lat="46.7302289120662" lon="11.642572565560936"><ele>601.0</ele><time>2026-05-01T05:25:22.001Z</time></trkpt><trkpt lat="46.73046709684661" lon="11.64241162456361"><ele>602.0</ele><time>2026-05-01T05:25:23.001Z</time></trkpt><trkpt lat="46.73070573722961" lon="11.642249924978904"><ele>602.0</ele><time>2026-05-01T05:25:24.001Z</time></trkpt><trkpt lat="46.730946118652966" lon="11.642088777477008"><ele>602.0</ele><time>2026-05-01T05:25:25.001Z</time></trkpt><trkpt lat="46.7311879638641" lon="11.6419269382522"><ele>605.5</ele><time>2026-05-01T05:25:26.001Z</time></trkpt><trkpt lat="46.73143078565373" lon="11.641765395155158"><ele>609.0</ele><time>2026-05-01T05:25:27.001Z</time></trkpt><trkpt lat="46.73167307640064" lon="11.6416031773217"><ele>609.0</ele><time>2026-05-01T05:25:28.001Z</time></trkpt><trkpt lat="46.73191725208109" lon="11.641440168203925"><ele>609.0</ele><time>2026-05-01T05:25:29.001Z</time></trkpt><trkpt lat="46.73216175370663" lon="11.641280099336443"><ele>612.5</ele><time>2026-05-01T05:25:30.001Z</time></trkpt><trkpt lat="46.73240906543749" lon="11.641122499520131"><ele>616.0</ele><time>2026-05-01T05:25:31.001Z</time></trkpt><trkpt lat="46.73265614280162" lon="11.640967317970606"><ele>612.0</ele><time>2026-05-01T05:25:32.001Z</time></trkpt><trkpt lat="46.73290298159526" lon="11.640818584695287"><ele>608.0</ele><time>2026-05-01T05:25:33.001Z</time></trkpt><trkpt lat="46.733152643632636" lon="11.640673609161475"><ele>608.0</ele><time>2026-05-01T05:25:34.001Z</time></trkpt><trkpt lat="46.733404777155975" lon="11.640536736652153"><ele>608.0</ele><time>2026-05-01T05:25:35.001Z</time></trkpt><trkpt lat="46.733658826281705" lon="11.64040768629653"><ele>613.0</ele><time>2026-05-01T05:25:36.001Z</time></trkpt><trkpt lat="46.73391511657958" lon="11.640287223384147"><ele>618.0</ele><time>2026-05-01T05:25:37.001Z</time></trkpt><trkpt lat="46.73417186791292" lon="11.640174599995547"><ele>617.0</ele><time>2026-05-01T05:25:38.001Z</time></trkpt><trkpt lat="46.7344315734964" lon="11.64007042466874"><ele>616.0</ele><time>2026-05-01T05:25:39.001Z</time></trkpt><trkpt lat="46.734691705393324" lon="11.639973994566667"><ele>616.0</ele><time>2026-05-01T05:25:40.001Z</time></trkpt><trkpt lat="46.73495449125672" lon="11.639882294717191"><ele>616.0</ele><time>2026-05-01T05:25:41.001Z</time></trkpt><trkpt lat="46.73521955774565" lon="11.6397942156018"><ele>615.0</ele><time>2026-05-01T05:25:42.001Z</time></trkpt><trkpt lat="46.73548339159173" lon="11.639710883977035"><ele>614.0</ele><time>2026-05-01T05:25:43.001Z</time></trkpt><trkpt lat="46.73574970975263" lon="11.639633166696017"><ele>614.0</ele><time>2026-05-01T05:25:44.001Z</time></trkpt><trkpt lat="46.73601884001137" lon="11.63956564106465"><ele>614.0</ele><time>2026-05-01T05:25:45.001Z</time></trkpt><trkpt lat="46.73628754196912" lon="11.63951173039323"><ele>617.0</ele><time>2026-05-01T05:25:46.001Z</time></trkpt><trkpt lat="46.73655637033897" lon="11.639470260106021"><ele>620.0</ele><time>2026-05-01T05:25:47.001Z</time></trkpt><trkpt lat="46.736825024125274" lon="11.639441489851292"><ele>625.5</ele><time>2026-05-01T05:25:48.001Z</time></trkpt><trkpt lat="46.7370922706308" lon="11.63942336902276"><ele>631.0</ele><time>2026-05-01T05:25:49.001Z</time></trkpt><trkpt lat="46.73735976903865" lon="11.63941905067415"><ele>631.0</ele><time>2026-05-01T05:25:50.001Z</time></trkpt><trkpt lat="46.73762946232916" lon="11.63942794553383"><ele>631.0</ele><time>2026-05-01T05:25:51.001Z</time></trkpt><trkpt lat="46.73789930619527" lon="11.639441237553633"><ele>630.5</ele><time>2026-05-01T05:25:52.001Z</time></trkpt><trkpt lat="46.738166768379365" lon="11.639449991447714"><ele>630.0</ele><time>2026-05-01T05:25:53.001Z</time></trkpt><trkpt lat="46.738433971225994" lon="11.639453397924514"><ele>632.0</ele><time>2026-05-01T05:25:54.001Z</time></trkpt><trkpt lat="46.738705565155286" lon="11.639453601334209"><ele>634.0</ele><time>2026-05-01T05:25:55.001Z</time></trkpt><trkpt lat="46.73897043635696" lon="11.639455235409503"><ele>634.0</ele><time>2026-05-01T05:25:56.001Z</time></trkpt><trkpt lat="46.73923729214236" lon="11.639454749543846"><ele>634.0</ele><time>2026-05-01T05:25:57.001Z</time></trkpt><trkpt lat="46.73950246489265" lon="11.639455894204382"><ele>636.0</ele><time>2026-05-01T05:25:58.001Z</time></trkpt><trkpt lat="46.73976644863978" lon="11.63945759427728"><ele>638.0</ele><time>2026-05-01T05:25:59.001Z</time></trkpt><trkpt lat="46.74003191798578" lon="11.639459271517856"><ele>639.5</ele><time>2026-05-01T05:26:00.001Z</time></trkpt><trkpt lat="46.74029763928305" lon="11.639460272365987"><ele>641.0</ele><time>2026-05-01T05:26:01.001Z</time></trkpt><trkpt lat="46.7405646586433" lon="11.639460897767668"><ele>641.0</ele><time>2026-05-01T05:26:02.001Z</time></trkpt><trkpt lat="46.74083135817893" lon="11.639459716711437"><ele>641.0</ele><time>2026-05-01T05:26:03.001Z</time></trkpt><trkpt lat="46.74109723679135" lon="11.639458768287952"><ele>642.0</ele><time>2026-05-01T05:26:04.001Z</time></trkpt><trkpt lat="46.74136587581622" lon="11.639460425344865"><ele>643.0</ele><time>2026-05-01T05:26:05.001Z</time></trkpt><trkpt lat="46.741634398519736" lon="11.63945953771785"><ele>644.0</ele><time>2026-05-01T05:26:06.001Z</time></trkpt><trkpt lat="46.741902254190464" lon="11.639454451236038"><ele>645.0</ele><time>2026-05-01T05:26:07.001Z</time></trkpt><trkpt lat="46.74217010520433" lon="11.639440593648466"><ele>645.0</ele><time>2026-05-01T05:26:08.001Z</time></trkpt><trkpt lat="46.74243790600653" lon="11.639410627670307"><ele>645.0</ele><time>2026-05-01T05:26:09.001Z</time></trkpt><trkpt lat="46.742702389208915" lon="11.639370224745306"><ele>647.0</ele><time>2026-05-01T05:26:10.001Z</time></trkpt><trkpt lat="46.74296657258526" lon="11.63931573263851"><ele>649.0</ele><time>2026-05-01T05:26:11.001Z</time></trkpt><trkpt lat="46.74323157898013" lon="11.639250217063376"><ele>649.0</ele><time>2026-05-01T05:26:12.001Z</time></trkpt><trkpt lat="46.74349489433163" lon="11.639174400646787"><ele>649.0</ele><time>2026-05-01T05:26:13.001Z</time></trkpt><trkpt lat="46.74375674899468" lon="11.639084550252308"><ele>651.5</ele><time>2026-05-01T05:26:14.001Z</time></trkpt><trkpt lat="46.74401754342212" lon="11.638979438115031"><ele>654.0</ele><time>2026-05-01T05:26:15.001Z</time></trkpt><trkpt lat="46.74427510725471" lon="11.63886078433884"><ele>653.5</ele><time>2026-05-01T05:26:16.001Z</time></trkpt><trkpt lat="46.74453118673517" lon="11.638730298659315"><ele>653.0</ele><time>2026-05-01T05:26:17.001Z</time></trkpt><trkpt lat="46.744783718499654" lon="11.638588600545829"><ele>653.0</ele><time>2026-05-01T05:26:18.001Z</time></trkpt><trkpt lat="46.7450339053704" lon="11.6384348816288"><ele>653.0</ele><time>2026-05-01T05:26:19.001Z</time></trkpt><trkpt lat="46.74528125664889" lon="11.638268625693852"><ele>659.0</ele><time>2026-05-01T05:26:20.001Z</time></trkpt><trkpt lat="46.745527441435456" lon="11.63809126029096"><ele>665.0</ele><time>2026-05-01T05:26:21.001Z</time></trkpt><trkpt lat="46.74577020297039" lon="11.637911695692376"><ele>664.5</ele><time>2026-05-01T05:26:22.001Z</time></trkpt><trkpt lat="46.74601076078357" lon="11.637731286526709"><ele>664.0</ele><time>2026-05-01T05:26:23.001Z</time></trkpt><trkpt lat="46.746241862552644" lon="11.637557449766293"><ele>664.0</ele><time>2026-05-01T05:26:24.001Z</time></trkpt><trkpt lat="46.746474398919915" lon="11.637383926859066"><ele>664.0</ele><time>2026-05-01T05:26:25.001Z</time></trkpt><trkpt lat="46.74670930629063" lon="11.637203500180513"><ele>663.5</ele><time>2026-05-01T05:26:26.001Z</time></trkpt><trkpt lat="46.74694451329363" lon="11.637024275743741"><ele>663.0</ele><time>2026-05-01T05:26:27.001Z</time></trkpt><trkpt lat="46.74717789439669" lon="11.636835721264593"><ele>663.0</ele><time>2026-05-01T05:26:28.001Z</time></trkpt><trkpt lat="46.74740933842118" lon="11.636641922599926"><ele>663.0</ele><time>2026-05-01T05:26:29.001Z</time></trkpt><trkpt lat="46.74764111327927" lon="11.636453553346842"><ele>662.0</ele><time>2026-05-01T05:26:30.001Z</time></trkpt><trkpt lat="46.74787396752769" lon="11.636267271084465"><ele>661.0</ele><time>2026-05-01T05:26:31.001Z</time></trkpt><trkpt lat="46.74811339168365" lon="11.636079735091988"><ele>661.0</ele><time>2026-05-01T05:26:32.001Z</time></trkpt><trkpt lat="46.74834956152899" lon="11.63589590196321"><ele>661.0</ele><time>2026-05-01T05:26:33.001Z</time></trkpt><trkpt lat="46.74858502427519" lon="11.635714485938792"><ele>660.5</ele><time>2026-05-01T05:26:34.001Z</time></trkpt><trkpt lat="46.74882065930076" lon="11.635538507639511"><ele>660.0</ele><time>2026-05-01T05:26:35.001Z</time></trkpt><trkpt lat="46.74905662268539" lon="11.635368479413529"><ele>660.0</ele><time>2026-05-01T05:26:36Z</time></trkpt><trkpt lat="46.74929531647952" lon="11.635203861077214"><ele>660.0</ele><time>2026-05-01T05:26:37Z</time></trkpt><trkpt lat="46.749536627907865" lon="11.635039590195815"><ele>661.0</ele><time>2026-05-01T05:26:38Z</time></trkpt><trkpt lat="46.74977953885036" lon="11.634878122423734"><ele>662.0</ele><time>2026-05-01T05:26:39Z</time></trkpt><trkpt lat="46.75002210104246" lon="11.634720102342941"><ele>661.5</ele><time>2026-05-01T05:26:40Z</time></trkpt><trkpt lat="46.75026716035248" lon="11.634571682655652"><ele>661.0</ele><time>2026-05-01T05:26:41Z</time></trkpt><trkpt lat="46.750514565974605" lon="11.634432744392273"><ele>661.0</ele><time>2026-05-01T05:26:42Z</time></trkpt><trkpt lat="46.750764072554794" lon="11.634306653977188"><ele>661.0</ele><time>2026-05-01T05:26:43Z</time></trkpt><trkpt lat="46.751015138721705" lon="11.634195037001055"><ele>661.0</ele><time>2026-05-01T05:26:44Z</time></trkpt><trkpt lat="46.751267494314334" lon="11.634097822576395"><ele>661.0</ele><time>2026-05-01T05:26:45Z</time></trkpt><trkpt lat="46.751521269490354" lon="11.63401208690288"><ele>661.0</ele><time>2026-05-01T05:26:46Z</time></trkpt><trkpt lat="46.75177607408283" lon="11.633933489004061"><ele>661.0</ele><time>2026-05-01T05:26:47Z</time></trkpt><trkpt lat="46.752032976053826" lon="11.633861982939973"><ele>659.0</ele><time>2026-05-01T05:26:48Z</time></trkpt><trkpt lat="46.75228978837799" lon="11.63379766875383"><ele>657.0</ele><time>2026-05-01T05:26:49Z</time></trkpt><trkpt lat="46.752548314961615" lon="11.633745883169885"><ele>657.0</ele><time>2026-05-01T05:26:50Z</time></trkpt><trkpt lat="46.75280619834159" lon="11.633708574570779"><ele>657.0</ele><time>2026-05-01T05:26:51Z</time></trkpt><trkpt lat="46.75306477377099" lon="11.633684364926077"><ele>657.0</ele><time>2026-05-01T05:26:52Z</time></trkpt><trkpt lat="46.75332494916437" lon="11.63366888669263"><ele>657.0</ele><time>2026-05-01T05:26:53Z</time></trkpt><trkpt lat="46.75358440791111" lon="11.633663648701638"><ele>658.5</ele><time>2026-05-01T05:26:54Z</time></trkpt><trkpt lat="46.75384088509343" lon="11.633667997985905"><ele>660.0</ele><time>2026-05-01T05:26:55Z</time></trkpt><trkpt lat="46.75409824678816" lon="11.633686321101221"><ele>660.0</ele><time>2026-05-01T05:26:56Z</time></trkpt><trkpt lat="46.754356008532525" lon="11.633718151970607"><ele>660.0</ele><time>2026-05-01T05:26:57Z</time></trkpt><trkpt lat="46.754613711152636" lon="11.633760274456314"><ele>664.0</ele><time>2026-05-01T05:26:58Z</time></trkpt><trkpt lat="46.75487004746891" lon="11.633815015988795"><ele>668.0</ele><time>2026-05-01T05:26:59Z</time></trkpt><trkpt lat="46.755128558452036" lon="11.633878636352636"><ele>669.0</ele><time>2026-05-01T05:27:00Z</time></trkpt><trkpt lat="46.75538559499709" lon="11.633951256182725"><ele>670.0</ele><time>2026-05-01T05:27:01Z</time></trkpt><trkpt lat="46.75564082381128" lon="11.634032354349808"><ele>670.0</ele><time>2026-05-01T05:27:02Z</time></trkpt><trkpt lat="46.75589538622319" lon="11.63412601107137"><ele>670.0</ele><time>2026-05-01T05:27:03Z</time></trkpt><trkpt lat="46.75614715542584" lon="11.63423402154816"><ele>670.5</ele><time>2026-05-01T05:27:04Z</time></trkpt><trkpt lat="46.756398818460205" lon="11.634354954289176"><ele>671.0</ele><time>2026-05-01T05:27:05Z</time></trkpt><trkpt lat="46.756648684102046" lon="11.634486362684235"><ele>676.5</ele><time>2026-05-01T05:27:06Z</time></trkpt><trkpt lat="46.75689699402333" lon="11.634622496341432"><ele>682.0</ele><time>2026-05-01T05:27:07Z</time></trkpt><trkpt lat="46.75714513591139" lon="11.634761255843896"><ele>682.0</ele><time>2026-05-01T05:27:08Z</time></trkpt><trkpt lat="46.75739215584252" lon="11.634909681648999"><ele>682.0</ele><time>2026-05-01T05:27:09Z</time></trkpt><trkpt lat="46.757638917890844" lon="11.635061729470486"><ele>686.0</ele><time>2026-05-01T05:27:10Z</time></trkpt><trkpt lat="46.75788623108612" lon="11.635216224618432"><ele>690.0</ele><time>2026-05-01T05:27:11Z</time></trkpt><trkpt lat="46.758131376105155" lon="11.635368358969393"><ele>690.0</ele><time>2026-05-01T05:27:12Z</time></trkpt><trkpt lat="46.75837563081755" lon="11.635521804922465"><ele>690.0</ele><time>2026-05-01T05:27:13Z</time></trkpt><trkpt lat="46.758609380595765" lon="11.635669494255284"><ele>690.0</ele><time>2026-05-01T05:27:14Z</time></trkpt><trkpt lat="46.75883929707491" lon="11.635814126656062"><ele>690.0</ele><time>2026-05-01T05:27:15Z</time></trkpt><trkpt lat="46.75907414840924" lon="11.635959259777634"><ele>690.0</ele><time>2026-05-01T05:27:16Z</time></trkpt><trkpt lat="46.7593110424583" lon="11.636105897116943"><ele>690.0</ele><time>2026-05-01T05:27:17Z</time></trkpt><trkpt lat="46.75954947693149" lon="11.63625325844525"><ele>691.0</ele><time>2026-05-01T05:27:18Z</time></trkpt><trkpt lat="46.75978859463672" lon="11.636402710510982"><ele>692.0</ele><time>2026-05-01T05:27:19Z</time></trkpt><trkpt lat="46.7600263806014" lon="11.636550096334235"><ele>692.0</ele><time>2026-05-01T05:27:20Z</time></trkpt><trkpt lat="46.760267321497146" lon="11.636698482298128"><ele>692.0</ele><time>2026-05-01T05:27:21Z</time></trkpt><trkpt lat="46.76050708770238" lon="11.636847168521598"><ele>697.5</ele><time>2026-05-01T05:27:22Z</time></trkpt><trkpt lat="46.76074835427436" lon="11.636996018582755"><ele>703.0</ele><time>2026-05-01T05:27:23Z</time></trkpt><trkpt lat="46.76098831032198" lon="11.637144028843489"><ele>700.0</ele><time>2026-05-01T05:27:24Z</time></trkpt><trkpt lat="46.76122908541055" lon="11.637291562965071"><ele>697.0</ele><time>2026-05-01T05:27:25Z</time></trkpt><trkpt lat="46.761468584282426" lon="11.6374391708236"><ele>697.0</ele><time>2026-05-01T05:27:26Z</time></trkpt><trkpt lat="46.76170618945206" lon="11.637586264299538"><ele>697.0</ele><time>2026-05-01T05:27:27.001Z</time></trkpt><trkpt lat="46.761941841934465" lon="11.637731855105804"><ele>701.5</ele><time>2026-05-01T05:27:28.001Z</time></trkpt><trkpt lat="46.76217847880796" lon="11.637876447185802"><ele>706.0</ele><time>2026-05-01T05:27:29.001Z</time></trkpt><trkpt lat="46.76241740145811" lon="11.638017752380039"><ele>706.0</ele><time>2026-05-01T05:27:30.001Z</time></trkpt><trkpt lat="46.76265818651118" lon="11.638143015794965"><ele>706.0</ele><time>2026-05-01T05:27:31.001Z</time></trkpt><trkpt lat="46.76289982424493" lon="11.638255111571572"><ele>705.5</ele><time>2026-05-01T05:27:32.001Z</time></trkpt><trkpt lat="46.7631445988103" lon="11.638362224830981"><ele>705.0</ele><time>2026-05-01T05:27:33.001Z</time></trkpt><trkpt lat="46.76339279634731" lon="11.638456831718324"><ele>706.5</ele><time>2026-05-01T05:27:34.001Z</time></trkpt><trkpt lat="46.76364252052943" lon="11.63852964592897"><ele>708.0</ele><time>2026-05-01T05:27:35.001Z</time></trkpt><trkpt lat="46.7638943243246" lon="11.638594551305713"><ele>712.5</ele><time>2026-05-01T05:27:36.001Z</time></trkpt><trkpt lat="46.764148704370875" lon="11.638644120371508"><ele>717.0</ele><time>2026-05-01T05:27:37.001Z</time></trkpt><trkpt lat="46.76440279369745" lon="11.638685891436149"><ele>719.5</ele><time>2026-05-01T05:27:38.001Z</time></trkpt><trkpt lat="46.764658523121106" lon="11.638711904155604"><ele>722.0</ele><time>2026-05-01T05:27:39.001Z</time></trkpt><trkpt lat="46.76491484337199" lon="11.638726351033075"><ele>722.0</ele><time>2026-05-01T05:27:40.001Z</time></trkpt><trkpt lat="46.765171634846084" lon="11.638723998555076"><ele>722.0</ele><time>2026-05-01T05:27:41.001Z</time></trkpt><trkpt lat="46.76542867916289" lon="11.638710691123553"><ele>718.5</ele><time>2026-05-01T05:27:42.001Z</time></trkpt><trkpt lat="46.76568577318387" lon="11.638685734142799"><ele>715.0</ele><time>2026-05-01T05:27:43.001Z</time></trkpt><trkpt lat="46.76593935087745" lon="11.638653540771951"><ele>715.5</ele><time>2026-05-01T05:27:44.001Z</time></trkpt><trkpt lat="46.76618122871417" lon="11.638621698161291"><ele>716.0</ele><time>2026-05-01T05:27:45.001Z</time></trkpt><trkpt lat="46.766418630544365" lon="11.638591187612208"><ele>716.0</ele><time>2026-05-01T05:27:46.001Z</time></trkpt><trkpt lat="46.76665853294492" lon="11.6385527843479"><ele>716.0</ele><time>2026-05-01T05:27:47.001Z</time></trkpt><trkpt lat="46.766907232215786" lon="11.638504475343176"><ele>717.5</ele><time>2026-05-01T05:27:48.001Z</time></trkpt><trkpt lat="46.76716046949596" lon="11.63845972872254"><ele>719.0</ele><time>2026-05-01T05:27:49.001Z</time></trkpt><trkpt lat="46.76742044640414" lon="11.6384218990677"><ele>719.0</ele><time>2026-05-01T05:27:50.001Z</time></trkpt><trkpt lat="46.76768146184513" lon="11.638388575829973"><ele>719.0</ele><time>2026-05-01T05:27:51.001Z</time></trkpt><trkpt lat="46.7679442971359" lon="11.638356173885345"><ele>720.0</ele><time>2026-05-01T05:27:52.001Z</time></trkpt><trkpt lat="46.76820486158265" lon="11.638323552166723"><ele>721.0</ele><time>2026-05-01T05:27:53.001Z</time></trkpt><trkpt lat="46.76846326912777" lon="11.638290922404117"><ele>724.0</ele><time>2026-05-01T05:27:54.001Z</time></trkpt><trkpt lat="46.76872303241783" lon="11.638258169010442"><ele>727.0</ele><time>2026-05-01T05:27:55.001Z</time></trkpt><trkpt lat="46.76898352073277" lon="11.638225111132394"><ele>727.0</ele><time>2026-05-01T05:27:56.001Z</time></trkpt><trkpt lat="46.76924497544328" lon="11.638188350915804"><ele>727.0</ele><time>2026-05-01T05:27:57.001Z</time></trkpt><trkpt lat="46.76950533648343" lon="11.638145422863241"><ele>726.0</ele><time>2026-05-01T05:27:58.001Z</time></trkpt><trkpt lat="46.769761462929814" lon="11.638091143974243"><ele>725.0</ele><time>2026-05-01T05:27:59.001Z</time></trkpt><trkpt lat="46.770015253707435" lon="11.63801965557061"><ele>723.0</ele><time>2026-05-01T05:28:00.001Z</time></trkpt><trkpt lat="46.7702632148486" lon="11.63792731187434"><ele>721.0</ele><time>2026-05-01T05:28:01.001Z</time></trkpt><trkpt lat="46.77050565049196" lon="11.63781477793591"><ele>728.0</ele><time>2026-05-01T05:28:02.001Z</time></trkpt><trkpt lat="46.77074357313234" lon="11.637680335374258"><ele>735.0</ele><time>2026-05-01T05:28:03.001Z</time></trkpt><trkpt lat="46.7709775451702" lon="11.637523896443101"><ele>730.0</ele><time>2026-05-01T05:28:04.001Z</time></trkpt><trkpt lat="46.7712063973635" lon="11.637351345313373"><ele>725.0</ele><time>2026-05-01T05:28:05.001Z</time></trkpt><trkpt lat="46.77142876729477" lon="11.637157118620113"><ele>732.0</ele><time>2026-05-01T05:28:06.001Z</time></trkpt><trkpt lat="46.77164500891213" lon="11.636948070671856"><ele>739.0</ele><time>2026-05-01T05:28:07.001Z</time></trkpt><trkpt lat="46.77185162909437" lon="11.636718324370241"><ele>735.0</ele><time>2026-05-01T05:28:08.001Z</time></trkpt><trkpt lat="46.772050231777285" lon="11.636471040167626"><ele>731.0</ele><time>2026-05-01T05:28:09.001Z</time></trkpt><trkpt lat="46.77224100547866" lon="11.636207720670011"><ele>738.5</ele><time>2026-05-01T05:28:10.001Z</time></trkpt><trkpt lat="46.772419788308135" lon="11.635926028825537"><ele>746.0</ele><time>2026-05-01T05:28:11.001Z</time></trkpt><trkpt lat="46.77258856939511" lon="11.635627913430149"><ele>743.0</ele><time>2026-05-01T05:28:12.001Z</time></trkpt><trkpt lat="46.77274422760777" lon="11.635314128614409"><ele>740.0</ele><time>2026-05-01T05:28:13.001Z</time></trkpt><trkpt lat="46.77288657812395" lon="11.634986025607574"><ele>740.0</ele><time>2026-05-01T05:28:14.001Z</time></trkpt><trkpt lat="46.77301621920874" lon="11.634644242461363"><ele>740.0</ele><time>2026-05-01T05:28:15.001Z</time></trkpt><trkpt lat="46.773131944667384" lon="11.634290439938834"><ele>743.5</ele><time>2026-05-01T05:28:16.001Z</time></trkpt><trkpt lat="46.77323481448084" lon="11.633924474496157"><ele>747.0</ele><time>2026-05-01T05:28:17.001Z</time></trkpt><trkpt lat="46.77332984911256" lon="11.63355436109199"><ele>752.5</ele><time>2026-05-01T05:28:18.001Z</time></trkpt><trkpt lat="46.77341926143043" lon="11.633180239747608"><ele>758.0</ele><time>2026-05-01T05:28:19.001Z</time></trkpt><trkpt lat="46.77350878033921" lon="11.63280962038454"><ele>742.0</ele><time>2026-05-01T05:28:20.001Z</time></trkpt><trkpt lat="46.773593712286115" lon="11.632432828351844"><ele>726.0</ele><time>2026-05-01T05:28:21.001Z</time></trkpt><trkpt lat="46.773687473137464" lon="11.632060802745668"><ele>731.5</ele><time>2026-05-01T05:28:22.001Z</time></trkpt><trkpt lat="46.773784026029105" lon="11.63170282054463"><ele>737.0</ele><time>2026-05-01T05:28:23.001Z</time></trkpt><trkpt lat="46.77388917348024" lon="11.631349617960543"><ele>743.0</ele><time>2026-05-01T05:28:24.001Z</time></trkpt><trkpt lat="46.77400958805807" lon="11.63099625004969"><ele>749.0</ele><time>2026-05-01T05:28:25.001Z</time></trkpt><trkpt lat="46.774145305289785" lon="11.630654779011063"><ele>749.0</ele><time>2026-05-01T05:28:26.001Z</time></trkpt><trkpt lat="46.77429979190104" lon="11.63032437059114"><ele>749.0</ele><time>2026-05-01T05:28:27.001Z</time></trkpt><trkpt lat="46.774467263267184" lon="11.630003611752587"><ele>751.0</ele><time>2026-05-01T05:28:28.001Z</time></trkpt><trkpt lat="46.77464677792391" lon="11.629699964268498"><ele>753.0</ele><time>2026-05-01T05:28:29.001Z</time></trkpt><trkpt lat="46.77483811264095" lon="11.629414437621783"><ele>753.0</ele><time>2026-05-01T05:28:30.001Z</time></trkpt><trkpt lat="46.77504036466999" lon="11.629146777958486"><ele>753.0</ele><time>2026-05-01T05:28:31.001Z</time></trkpt><trkpt lat="46.775252609778065" lon="11.628898278892967"><ele>751.0</ele><time>2026-05-01T05:28:32.001Z</time></trkpt><trkpt lat="46.775473466035166" lon="11.628669594667025"><ele>749.0</ele><time>2026-05-01T05:28:33.001Z</time></trkpt><trkpt lat="46.77569703756899" lon="11.628454064783739"><ele>749.0</ele><time>2026-05-01T05:28:34.001Z</time></trkpt><trkpt lat="46.77592995017802" lon="11.62823082883522"><ele>749.0</ele><time>2026-05-01T05:28:35.001Z</time></trkpt><trkpt lat="46.776154516144494" lon="11.628005935597516"><ele>750.0</ele><time>2026-05-01T05:28:36.001Z</time></trkpt><trkpt lat="46.776375676367145" lon="11.627780384041793"><ele>751.0</ele><time>2026-05-01T05:28:37.001Z</time></trkpt><trkpt lat="46.776590806017005" lon="11.627551359587569"><ele>751.0</ele><time>2026-05-01T05:28:38.001Z</time></trkpt><trkpt lat="46.776800470337385" lon="11.6273132027104"><ele>751.0</ele><time>2026-05-01T05:28:39.001Z</time></trkpt><trkpt lat="46.7769997288498" lon="11.627065931039626"><ele>747.0</ele><time>2026-05-01T05:28:40.001Z</time></trkpt><trkpt lat="46.777188095981664" lon="11.626801814079787"><ele>743.0</ele><time>2026-05-01T05:28:41.001Z</time></trkpt><trkpt lat="46.7773683701471" lon="11.626521839690138"><ele>743.0</ele><time>2026-05-01T05:28:42Z</time></trkpt><trkpt lat="46.77753247083086" lon="11.626222098169587"><ele>743.0</ele><time>2026-05-01T05:28:43Z</time></trkpt><trkpt lat="46.77768767162181" lon="11.625910749096475"><ele>739.0</ele><time>2026-05-01T05:28:44Z</time></trkpt><trkpt lat="46.77783117851833" lon="11.625585297141173"><ele>735.0</ele><time>2026-05-01T05:28:45Z</time></trkpt><trkpt lat="46.77796506255927" lon="11.6252507457769"><ele>735.0</ele><time>2026-05-01T05:28:46Z</time></trkpt><trkpt lat="46.778093233380844" lon="11.62490592988855"><ele>735.0</ele><time>2026-05-01T05:28:47Z</time></trkpt><trkpt lat="46.77821946170877" lon="11.624558324667113"><ele>738.0</ele><time>2026-05-01T05:28:48Z</time></trkpt><trkpt lat="46.778350756945926" lon="11.624207515459362"><ele>741.0</ele><time>2026-05-01T05:28:49Z</time></trkpt><trkpt lat="46.77848766049783" lon="11.62386042811291"><ele>734.5</ele><time>2026-05-01T05:28:50Z</time></trkpt><trkpt lat="46.778632409269505" lon="11.623518922553423"><ele>728.0</ele><time>2026-05-01T05:28:51Z</time></trkpt><trkpt lat="46.77878964370838" lon="11.623192285877643"><ele>728.0</ele><time>2026-05-01T05:28:52Z</time></trkpt><trkpt lat="46.77895989739412" lon="11.622882180470038"><ele>728.0</ele><time>2026-05-01T05:28:53Z</time></trkpt><trkpt lat="46.77914288369926" lon="11.622588214401752"><ele>726.0</ele><time>2026-05-01T05:28:54Z</time></trkpt><trkpt lat="46.77933198886633" lon="11.622299252945398"><ele>724.0</ele><time>2026-05-01T05:28:55Z</time></trkpt><trkpt lat="46.77952296193149" lon="11.622013949627826"><ele>728.5</ele><time>2026-05-01T05:28:56Z</time></trkpt><trkpt lat="46.77971627078722" lon="11.621732546703585"><ele>733.0</ele><time>2026-05-01T05:28:57Z</time></trkpt><trkpt lat="46.779915700697536" lon="11.621457450692866"><ele>733.0</ele><time>2026-05-01T05:28:58Z</time></trkpt><trkpt lat="46.78011573090467" lon="11.621179396806953"><ele>733.0</ele><time>2026-05-01T05:28:59Z</time></trkpt><trkpt lat="46.780310765405595" lon="11.620892190351721"><ele>732.0</ele><time>2026-05-01T05:29:00Z</time></trkpt><trkpt lat="46.780498438961104" lon="11.620592853947144"><ele>731.0</ele><time>2026-05-01T05:29:01Z</time></trkpt><trkpt lat="46.78067476048776" lon="11.620280605164604"><ele>734.0</ele><time>2026-05-01T05:29:02Z</time></trkpt><trkpt lat="46.78084094197587" lon="11.619960355501865"><ele>737.0</ele><time>2026-05-01T05:29:03Z</time></trkpt><trkpt lat="46.78100416538223" lon="11.619636914257255"><ele>735.5</ele><time>2026-05-01T05:29:04Z</time></trkpt><trkpt lat="46.781168441869355" lon="11.619323108013397"><ele>734.0</ele><time>2026-05-01T05:29:05Z</time></trkpt><trkpt lat="46.781330891543426" lon="11.619020204975385"><ele>734.0</ele><time>2026-05-01T05:29:06Z</time></trkpt><trkpt lat="46.78149647194997" lon="11.61872391497467"><ele>734.0</ele><time>2026-05-01T05:29:07Z</time></trkpt><trkpt lat="46.78167555356162" lon="11.618439083685134"><ele>733.5</ele><time>2026-05-01T05:29:08Z</time></trkpt><trkpt lat="46.781862258202025" lon="11.618165556975782"><ele>733.0</ele><time>2026-05-01T05:29:09Z</time></trkpt><trkpt lat="46.78206416382626" lon="11.617912837199574"><ele>734.5</ele><time>2026-05-01T05:29:10Z</time></trkpt><trkpt lat="46.782277579252174" lon="11.617682931466826"><ele>736.0</ele><time>2026-05-01T05:29:11Z</time></trkpt><trkpt lat="46.78249942993032" lon="11.617469753663762"><ele>734.0</ele><time>2026-05-01T05:29:12Z</time></trkpt><trkpt lat="46.78273059780406" lon="11.617270739437236"><ele>732.0</ele><time>2026-05-01T05:29:13Z</time></trkpt><trkpt lat="46.78297058760571" lon="11.617090959004376"><ele>731.0</ele><time>2026-05-01T05:29:14Z</time></trkpt><trkpt lat="46.7832157091859" lon="11.616930337201934"><ele>730.0</ele><time>2026-05-01T05:29:15Z</time></trkpt><trkpt lat="46.78347066615295" lon="11.61679653799439"><ele>727.5</ele><time>2026-05-01T05:29:16Z</time></trkpt><trkpt lat="46.78372848589648" lon="11.616684571993645"><ele>725.0</ele><time>2026-05-01T05:29:17Z</time></trkpt><trkpt lat="46.78399469967835" lon="11.61658426871391"><ele>725.0</ele><time>2026-05-01T05:29:18Z</time></trkpt><trkpt lat="46.784262222324315" lon="11.616494451444048"><ele>725.0</ele><time>2026-05-01T05:29:19Z</time></trkpt><trkpt lat="46.78453336444074" lon="11.616415911079363"><ele>735.5</ele><time>2026-05-01T05:29:20Z</time></trkpt><trkpt lat="46.78479770056959" lon="11.616328923697518"><ele>746.0</ele><time>2026-05-01T05:29:21Z</time></trkpt><trkpt lat="46.785049201776566" lon="11.61624693704323"><ele>744.0</ele><time>2026-05-01T05:29:22Z</time></trkpt><trkpt lat="46.78529483971011" lon="11.616164875115714"><ele>742.0</ele><time>2026-05-01T05:29:23Z</time></trkpt><trkpt lat="46.78554427905429" lon="11.616081151819307"><ele>742.0</ele><time>2026-05-01T05:29:24Z</time></trkpt><trkpt lat="46.78579337711009" lon="11.615998288928814"><ele>742.0</ele><time>2026-05-01T05:29:25Z</time></trkpt><trkpt lat="46.78604491288495" lon="11.61591589332863"><ele>759.5</ele><time>2026-05-01T05:29:26Z</time></trkpt><trkpt lat="46.78629718253114" lon="11.61582990778879"><ele>777.0</ele><time>2026-05-01T05:29:27Z</time></trkpt><trkpt lat="46.786548035088664" lon="11.615739212895148"><ele>777.0</ele><time>2026-05-01T05:29:28Z</time></trkpt><trkpt lat="46.78680203448831" lon="11.615641248005923"><ele>777.0</ele><time>2026-05-01T05:29:29Z</time></trkpt><trkpt lat="46.78705551556623" lon="11.61553522643273"><ele>786.0</ele><time>2026-05-01T05:29:30Z</time></trkpt><trkpt lat="46.78730689665476" lon="11.615416554903687"><ele>795.0</ele><time>2026-05-01T05:29:31Z</time></trkpt><trkpt lat="46.787555522550285" lon="11.61528638873411"><ele>811.5</ele><time>2026-05-01T05:29:32Z</time></trkpt><trkpt lat="46.78780172775986" lon="11.615144540894592"><ele>828.0</ele><time>2026-05-01T05:29:33Z</time></trkpt><trkpt lat="46.78804611538067" lon="11.614993136987756"><ele>828.0</ele><time>2026-05-01T05:29:34.001Z</time></trkpt><trkpt lat="46.78828806983137" lon="11.614833866951544"><ele>828.0</ele><time>2026-05-01T05:29:35.001Z</time></trkpt><trkpt lat="46.78848636620113" lon="11.614645867528862"><ele>825.5</ele><time>2026-05-01T05:29:36.001Z</time></trkpt><trkpt lat="46.78871580395285" lon="11.614458540749546"><ele>823.0</ele><time>2026-05-01T05:29:37.001Z</time></trkpt><trkpt lat="46.78894185094267" lon="11.614261869622933"><ele>823.0</ele><time>2026-05-01T05:29:38.001Z</time></trkpt><trkpt lat="46.789161593173766" lon="11.614053650638613"><ele>823.0</ele><time>2026-05-01T05:29:39.001Z</time></trkpt><trkpt lat="46.78937131472638" lon="11.61384105963189"><ele>819.5</ele><time>2026-05-01T05:29:40.001Z</time></trkpt><trkpt lat="46.78957990367559" lon="11.613618242997156"><ele>816.0</ele><time>2026-05-01T05:29:41.001Z</time></trkpt><trkpt lat="46.78978372336429" lon="11.61338985508633"><ele>816.0</ele><time>2026-05-01T05:29:42.001Z</time></trkpt><trkpt lat="46.789985248687174" lon="11.613158594868146"><ele>816.0</ele><time>2026-05-01T05:29:43.001Z</time></trkpt><trkpt lat="46.79018258956502" lon="11.612926159093151"><ele>819.0</ele><time>2026-05-01T05:29:44.001Z</time></trkpt><trkpt lat="46.79037542712411" lon="11.612687368845727"><ele>822.0</ele><time>2026-05-01T05:29:45.001Z</time></trkpt><trkpt lat="46.79056977413997" lon="11.612453151205221"><ele>822.0</ele><time>2026-05-01T05:29:46.001Z</time></trkpt><trkpt lat="46.79076371189969" lon="11.612221019835784"><ele>822.0</ele><time>2026-05-01T05:29:47.001Z</time></trkpt><trkpt lat="46.79095609750117" lon="11.611990730809655"><ele>818.0</ele><time>2026-05-01T05:29:48.001Z</time></trkpt><trkpt lat="46.79115067438943" lon="11.611764030982508"><ele>814.0</ele><time>2026-05-01T05:29:49.001Z</time></trkpt><trkpt lat="46.791343170566364" lon="11.611541835068806"><ele>814.0</ele><time>2026-05-01T05:29:50.001Z</time></trkpt><trkpt lat="46.791533826943216" lon="11.611327029266713"><ele>814.0</ele><time>2026-05-01T05:29:51.001Z</time></trkpt><trkpt lat="46.791720196186866" lon="11.611107234646347"><ele>800.5</ele><time>2026-05-01T05:29:52.001Z</time></trkpt><trkpt lat="46.79190597301195" lon="11.610882142530356"><ele>787.0</ele><time>2026-05-01T05:29:53.001Z</time></trkpt><trkpt lat="46.792088386205634" lon="11.610660998390868"><ele>787.0</ele><time>2026-05-01T05:29:54.001Z</time></trkpt><trkpt lat="46.79226866692821" lon="11.610441325222988"><ele>787.0</ele><time>2026-05-01T05:29:55.001Z</time></trkpt><trkpt lat="46.79244875146803" lon="11.610225664742073"><ele>785.0</ele><time>2026-05-01T05:29:56.001Z</time></trkpt><trkpt lat="46.79263029271506" lon="11.610010217436066"><ele>783.0</ele><time>2026-05-01T05:29:57.001Z</time></trkpt><trkpt lat="46.79328257702955" lon="11.609514708322509"><ele>781.5</ele><time>2026-05-01T05:29:58.001Z</time></trkpt><trkpt lat="46.793439831240825" lon="11.60929996302951"><ele>780.0</ele><time>2026-05-01T05:29:59.001Z</time></trkpt><trkpt lat="46.79362667625963" lon="11.609050400034189"><ele>780.0</ele><time>2026-05-01T05:30:00.001Z</time></trkpt><trkpt lat="46.79382461385365" lon="11.608810781811139"><ele>780.0</ele><time>2026-05-01T05:30:01.001Z</time></trkpt><trkpt lat="46.794025269149586" lon="11.608567885630567"><ele>777.5</ele><time>2026-05-01T05:30:02.001Z</time></trkpt><trkpt lat="46.79422917263241" lon="11.608323984201048"><ele>775.0</ele><time>2026-05-01T05:30:03.001Z</time></trkpt><trkpt lat="46.79443780919578" lon="11.608081258604683"><ele>775.0</ele><time>2026-05-01T05:30:04.001Z</time></trkpt><trkpt lat="46.794638278557784" lon="11.607838351355914"><ele>775.0</ele><time>2026-05-01T05:30:05.001Z</time></trkpt><trkpt lat="46.794841634906" lon="11.607602560438153"><ele>773.5</ele><time>2026-05-01T05:30:06.001Z</time></trkpt><trkpt lat="46.795044852484075" lon="11.607362240037485"><ele>772.0</ele><time>2026-05-01T05:30:07.001Z</time></trkpt><trkpt lat="46.795249292396626" lon="11.607124252184175"><ele>766.5</ele><time>2026-05-01T05:30:08.001Z</time></trkpt><trkpt lat="46.79545673756112" lon="11.606886961901994"><ele>761.0</ele><time>2026-05-01T05:30:09.001Z</time></trkpt><trkpt lat="46.795664110383356" lon="11.606650254551692"><ele>761.0</ele><time>2026-05-01T05:30:10.001Z</time></trkpt><trkpt lat="46.795871580655074" lon="11.606414348542506"><ele>761.0</ele><time>2026-05-01T05:30:11.001Z</time></trkpt><trkpt lat="46.79607724577295" lon="11.606179037045896"><ele>762.5</ele><time>2026-05-01T05:30:12.001Z</time></trkpt><trkpt lat="46.79628461830483" lon="11.605942171595869"><ele>764.0</ele><time>2026-05-01T05:30:13.001Z</time></trkpt><trkpt lat="46.796488758566966" lon="11.605705906107014"><ele>764.0</ele><time>2026-05-01T05:30:14.001Z</time></trkpt><trkpt lat="46.79669181909818" lon="11.605469012582407"><ele>764.0</ele><time>2026-05-01T05:30:15.001Z</time></trkpt><trkpt lat="46.796893555875805" lon="11.605227522298632"><ele>773.0</ele><time>2026-05-01T05:30:16.001Z</time></trkpt><trkpt lat="46.79708665951692" lon="11.604971118539362"><ele>782.0</ele><time>2026-05-01T05:30:17.001Z</time></trkpt><trkpt lat="46.797266486379264" lon="11.604698246825006"><ele>774.0</ele><time>2026-05-01T05:30:18.001Z</time></trkpt><trkpt lat="46.79744827210441" lon="11.604417456581144"><ele>766.0</ele><time>2026-05-01T05:30:19.001Z</time></trkpt><trkpt lat="46.79760964364264" lon="11.60410876200244"><ele>775.5</ele><time>2026-05-01T05:30:20.001Z</time></trkpt><trkpt lat="46.79775241486908" lon="11.603777955183412"><ele>785.0</ele><time>2026-05-01T05:30:21.001Z</time></trkpt><trkpt lat="46.7978883798302" lon="11.603443049430547"><ele>785.0</ele><time>2026-05-01T05:30:22.001Z</time></trkpt><trkpt lat="46.79801348436197" lon="11.603094632188977"><ele>785.0</ele><time>2026-05-01T05:30:23.001Z</time></trkpt><trkpt lat="46.79812403429509" lon="11.602742751406208"><ele>780.5</ele><time>2026-05-01T05:30:24.001Z</time></trkpt><trkpt lat="46.79821852743815" lon="11.60238094182639"><ele>776.0</ele><time>2026-05-01T05:30:25.001Z</time></trkpt><trkpt lat="46.798293376161396" lon="11.602006071287072"><ele>774.5</ele><time>2026-05-01T05:30:26.001Z</time></trkpt><trkpt lat="46.798361732658506" lon="11.60162680989752"><ele>773.0</ele><time>2026-05-01T05:30:27.001Z</time></trkpt><trkpt lat="46.798419384391664" lon="11.60124169455472"><ele>771.5</ele><time>2026-05-01T05:30:28.001Z</time></trkpt><trkpt lat="46.79848677236265" lon="11.600858032890157"><ele>770.0</ele><time>2026-05-01T05:30:29.001Z</time></trkpt><trkpt lat="46.7985608926748" lon="11.600482286150724"><ele>780.5</ele><time>2026-05-01T05:30:30.001Z</time></trkpt><trkpt lat="46.79864873146362" lon="11.600109227066104"><ele>791.0</ele><time>2026-05-01T05:30:31.001Z</time></trkpt><trkpt lat="46.79875390476824" lon="11.599746044670706"><ele>787.0</ele><time>2026-05-01T05:30:32.001Z</time></trkpt><trkpt lat="46.79887560286286" lon="11.599392897633699"><ele>783.0</ele><time>2026-05-01T05:30:33.001Z</time></trkpt><trkpt lat="46.79901198918535" lon="11.599047453533553"><ele>783.0</ele><time>2026-05-01T05:30:34.001Z</time></trkpt><trkpt lat="46.799162616387044" lon="11.598716500918929"><ele>783.0</ele><time>2026-05-01T05:30:35.001Z</time></trkpt><trkpt lat="46.799325663212706" lon="11.598392284425463"><ele>782.0</ele><time>2026-05-01T05:30:36.001Z</time></trkpt><trkpt lat="46.79950494650794" lon="11.59808366530377"><ele>781.0</ele><time>2026-05-01T05:30:37.001Z</time></trkpt><trkpt lat="46.79969294233381" lon="11.597788141686124"><ele>781.0</ele><time>2026-05-01T05:30:38.001Z</time></trkpt><trkpt lat="46.799886565059964" lon="11.59749357288874"><ele>781.0</ele><time>2026-05-01T05:30:39.001Z</time></trkpt><trkpt lat="46.80007743121898" lon="11.59720037148167"><ele>787.0</ele><time>2026-05-01T05:30:40.001Z</time></trkpt><trkpt lat="46.800259785563036" lon="11.596925422042915"><ele>793.0</ele><time>2026-05-01T05:30:41.001Z</time></trkpt><trkpt lat="46.80043633756129" lon="11.596660726844599"><ele>793.0</ele><time>2026-05-01T05:30:42.001Z</time></trkpt><trkpt lat="46.80061838818587" lon="11.596387091489468"><ele>793.0</ele><time>2026-05-01T05:30:43.001Z</time></trkpt><trkpt lat="46.800799398073295" lon="11.596112953132838"><ele>785.5</ele><time>2026-05-01T05:30:44.001Z</time></trkpt><trkpt lat="46.80098192184664" lon="11.595833996471743"><ele>778.0</ele><time>2026-05-01T05:30:45.001Z</time></trkpt><trkpt lat="46.80116395197325" lon="11.595549516650717"><ele>784.5</ele><time>2026-05-01T05:30:46.001Z</time></trkpt><trkpt lat="46.80133919333847" lon="11.595259420594145"><ele>791.0</ele><time>2026-05-01T05:30:47.001Z</time></trkpt><trkpt lat="46.801505241236086" lon="11.59496135866378"><ele>791.0</ele><time>2026-05-01T05:30:48Z</time></trkpt><trkpt lat="46.801660266800326" lon="11.594652052982708"><ele>791.0</ele><time>2026-05-01T05:30:49Z</time></trkpt><trkpt lat="46.80180312378465" lon="11.594331303014483"><ele>795.5</ele><time>2026-05-01T05:30:50Z</time></trkpt><trkpt lat="46.801934727729574" lon="11.594000848706457"><ele>800.0</ele><time>2026-05-01T05:30:51Z</time></trkpt><trkpt lat="46.8020606910351" lon="11.59366364637608"><ele>800.0</ele><time>2026-05-01T05:30:52Z</time></trkpt><trkpt lat="46.80218257922217" lon="11.593326067315674"><ele>800.0</ele><time>2026-05-01T05:30:53Z</time></trkpt><trkpt lat="46.80230228664197" lon="11.592986378673919"><ele>796.0</ele><time>2026-05-01T05:30:54Z</time></trkpt><trkpt lat="46.802418998927045" lon="11.59264752551379"><ele>792.0</ele><time>2026-05-01T05:30:55Z</time></trkpt><trkpt lat="46.80253447685732" lon="11.592311266888585"><ele>788.0</ele><time>2026-05-01T05:30:56Z</time></trkpt><trkpt lat="46.80265008030323" lon="11.591976828375747"><ele>784.0</ele><time>2026-05-01T05:30:57Z</time></trkpt><trkpt lat="46.80276457613428" lon="11.591646036782274"><ele>791.5</ele><time>2026-05-01T05:30:58Z</time></trkpt><trkpt lat="46.80287834645777" lon="11.591317068315892"><ele>799.0</ele><time>2026-05-01T05:30:59Z</time></trkpt><trkpt lat="46.802992864192454" lon="11.59098906132127"><ele>799.0</ele><time>2026-05-01T05:31:00Z</time></trkpt><trkpt lat="46.80310666332248" lon="11.590662190057515"><ele>799.0</ele><time>2026-05-01T05:31:01Z</time></trkpt><trkpt lat="46.8032186575549" lon="11.590337080104847"><ele>797.5</ele><time>2026-05-01T05:31:02Z</time></trkpt><trkpt lat="46.80333208400698" lon="11.590012858351603"><ele>796.0</ele><time>2026-05-01T05:31:03Z</time></trkpt><trkpt lat="46.80344582321042" lon="11.589688462009343"><ele>805.0</ele><time>2026-05-01T05:31:04Z</time></trkpt><trkpt lat="46.80356077077401" lon="11.58936119637952"><ele>814.0</ele><time>2026-05-01T05:31:05Z</time></trkpt><trkpt lat="46.803676829555485" lon="11.589033912300996"><ele>814.0</ele><time>2026-05-01T05:31:06Z</time></trkpt><trkpt lat="46.80379288771891" lon="11.588705452679719"><ele>814.0</ele><time>2026-05-01T05:31:07Z</time></trkpt><trkpt lat="46.80390785678337" lon="11.588374699502275"><ele>812.5</ele><time>2026-05-01T05:31:08Z</time></trkpt><trkpt lat="46.80402043839619" lon="11.588041370283651"><ele>811.0</ele><time>2026-05-01T05:31:09Z</time></trkpt><trkpt lat="46.80412982808908" lon="11.587704474952606"><ele>806.5</ele><time>2026-05-01T05:31:10Z</time></trkpt><trkpt lat="46.804236641715995" lon="11.587365174238093"><ele>802.0</ele><time>2026-05-01T05:31:11Z</time></trkpt><trkpt lat="46.80433442909831" lon="11.587016554554612"><ele>809.0</ele><time>2026-05-01T05:31:12Z</time></trkpt><trkpt lat="46.80442049048361" lon="11.586663045781135"><ele>816.0</ele><time>2026-05-01T05:31:13Z</time></trkpt><trkpt lat="46.80449798148116" lon="11.586304051897004"><ele>812.0</ele><time>2026-05-01T05:31:14Z</time></trkpt><trkpt lat="46.80456718203429" lon="11.585939279248032"><ele>808.0</ele><time>2026-05-01T05:31:15Z</time></trkpt><trkpt lat="46.80462697295646" lon="11.585572061783475"><ele>803.5</ele><time>2026-05-01T05:31:16Z</time></trkpt><trkpt lat="46.80467942709822" lon="11.585197235947943"><ele>799.0</ele><time>2026-05-01T05:31:17Z</time></trkpt><trkpt lat="46.80472493405615" lon="11.584822140756037"><ele>795.5</ele><time>2026-05-01T05:31:18Z</time></trkpt><trkpt lat="46.80476571232227" lon="11.584441820726088"><ele>792.0</ele><time>2026-05-01T05:31:19Z</time></trkpt><trkpt lat="46.80480243777565" lon="11.584059579187176"><ele>791.0</ele><time>2026-05-01T05:31:20Z</time></trkpt><trkpt lat="46.804840200045945" lon="11.583676656011875"><ele>790.0</ele><time>2026-05-01T05:31:21Z</time></trkpt><trkpt lat="46.804880108003076" lon="11.583295276940502"><ele>790.0</ele><time>2026-05-01T05:31:22Z</time></trkpt><trkpt lat="46.80491909212488" lon="11.582913395761599"><ele>790.0</ele><time>2026-05-01T05:31:23Z</time></trkpt><trkpt lat="46.804956855647724" lon="11.582535136722235"><ele>790.5</ele><time>2026-05-01T05:31:24Z</time></trkpt><trkpt lat="46.8049934444139" lon="11.582152330727427"><ele>791.0</ele><time>2026-05-01T05:31:25Z</time></trkpt><trkpt lat="46.80503308462183" lon="11.581768482527073"><ele>791.5</ele><time>2026-05-01T05:31:26Z</time></trkpt><trkpt lat="46.805073062348335" lon="11.581387594941846"><ele>792.0</ele><time>2026-05-01T05:31:27Z</time></trkpt><trkpt lat="46.80511200020509" lon="11.581008190323256"><ele>792.5</ele><time>2026-05-01T05:31:28Z</time></trkpt><trkpt lat="46.80515166879709" lon="11.58062615989226"><ele>793.0</ele><time>2026-05-01T05:31:29Z</time></trkpt><trkpt lat="46.805190230381555" lon="11.580247195130484"><ele>793.0</ele><time>2026-05-01T05:31:30Z</time></trkpt><trkpt lat="46.80522830186534" lon="11.579868679282441"><ele>793.0</ele><time>2026-05-01T05:31:31Z</time></trkpt><trkpt lat="46.80526645260609" lon="11.579489733095546"><ele>792.5</ele><time>2026-05-01T05:31:32Z</time></trkpt><trkpt lat="46.8053041508639" lon="11.579114687828298"><ele>792.0</ele><time>2026-05-01T05:31:33Z</time></trkpt><trkpt lat="46.80534267020018" lon="11.57874293712279"><ele>792.5</ele><time>2026-05-01T05:31:34Z</time></trkpt><trkpt lat="46.80538002155549" lon="11.57837424945327"><ele>793.0</ele><time>2026-05-01T05:31:35Z</time></trkpt><trkpt lat="46.80541745055487" lon="11.578002257904432"><ele>795.0</ele><time>2026-05-01T05:31:36Z</time></trkpt><trkpt lat="46.805453789525004" lon="11.577632649582469"><ele>797.0</ele><time>2026-05-01T05:31:37Z</time></trkpt><trkpt lat="46.80548963351918" lon="11.57726627581356"><ele>796.0</ele><time>2026-05-01T05:31:38Z</time></trkpt><trkpt lat="46.80552539532297" lon="11.576899073032275"><ele>795.0</ele><time>2026-05-01T05:31:39Z</time></trkpt><trkpt lat="46.80556244882286" lon="11.576531255195986"><ele>796.0</ele><time>2026-05-01T05:31:40.001Z</time></trkpt><trkpt lat="46.80560182053534" lon="11.576162706413466"><ele>797.0</ele><time>2026-05-01T05:31:41.001Z</time></trkpt><trkpt lat="46.8056450350444" lon="11.575801265391828"><ele>797.0</ele><time>2026-05-01T05:31:42.001Z</time></trkpt><trkpt lat="46.805691533168705" lon="11.575438295161128"><ele>797.0</ele><time>2026-05-01T05:31:43.001Z</time></trkpt><trkpt lat="46.80574182357612" lon="11.575079159437818"><ele>798.5</ele><time>2026-05-01T05:31:44.001Z</time></trkpt><trkpt lat="46.805807642290794" lon="11.574735750861052"><ele>800.0</ele><time>2026-05-01T05:31:45.001Z</time></trkpt><trkpt lat="46.80588810156811" lon="11.574386835839018"><ele>800.0</ele><time>2026-05-01T05:31:46.001Z</time></trkpt><trkpt lat="46.80598068899375" lon="11.574033710973465"><ele>800.0</ele><time>2026-05-01T05:31:47.001Z</time></trkpt><trkpt lat="46.80608533881159" lon="11.573679356643604"><ele>800.0</ele><time>2026-05-01T05:31:48.001Z</time></trkpt><trkpt lat="46.80620099751394" lon="11.573325978565254"><ele>800.0</ele><time>2026-05-01T05:31:49.001Z</time></trkpt><trkpt lat="46.806319525590034" lon="11.57297154468165"><ele>800.0</ele><time>2026-05-01T05:31:50.001Z</time></trkpt><trkpt lat="46.8064366961355" lon="11.572621703343355"><ele>800.0</ele><time>2026-05-01T05:31:51.001Z</time></trkpt><trkpt lat="46.80656068909635" lon="11.57227743402543"><ele>802.0</ele><time>2026-05-01T05:31:52.001Z</time></trkpt><trkpt lat="46.806686043627856" lon="11.571932126523327"><ele>804.0</ele><time>2026-05-01T05:31:53.001Z</time></trkpt><trkpt lat="46.80681030381166" lon="11.571588005210652"><ele>803.0</ele><time>2026-05-01T05:31:54.001Z</time></trkpt><trkpt lat="46.80693474307375" lon="11.57124280154889"><ele>802.0</ele><time>2026-05-01T05:31:55.001Z</time></trkpt><trkpt lat="46.80706009871599" lon="11.570899820614034"><ele>802.0</ele><time>2026-05-01T05:31:56.001Z</time></trkpt><trkpt lat="46.80718669856233" lon="11.570557287356987"><ele>802.0</ele><time>2026-05-01T05:31:57.001Z</time></trkpt><trkpt lat="46.807313757018285" lon="11.57021625553981"><ele>802.5</ele><time>2026-05-01T05:31:58.001Z</time></trkpt><trkpt lat="46.80743786541138" lon="11.569874034034791"><ele>803.0</ele><time>2026-05-01T05:31:59.001Z</time></trkpt><trkpt lat="46.807556290264564" lon="11.569530484558788"><ele>802.5</ele><time>2026-05-01T05:32:00.001Z</time></trkpt><trkpt lat="46.80767154008846" lon="11.569182844957052"><ele>802.0</ele><time>2026-05-01T05:32:01.001Z</time></trkpt><trkpt lat="46.80778762510405" lon="11.568835526388193"><ele>802.5</ele><time>2026-05-01T05:32:02.001Z</time></trkpt><trkpt lat="46.807905929667186" lon="11.568492978093134"><ele>803.0</ele><time>2026-05-01T05:32:03.001Z</time></trkpt><trkpt lat="46.808027282954484" lon="11.568152065446686"><ele>804.5</ele><time>2026-05-01T05:32:04.001Z</time></trkpt><trkpt lat="46.80814976234111" lon="11.567814314630262"><ele>806.0</ele><time>2026-05-01T05:32:05.001Z</time></trkpt><trkpt lat="46.80827188092401" lon="11.567477639645045"><ele>806.0</ele><time>2026-05-01T05:32:06.001Z</time></trkpt><trkpt lat="46.80839285127357" lon="11.567143420399027"><ele>806.0</ele><time>2026-05-01T05:32:07.001Z</time></trkpt><trkpt lat="46.808513382615864" lon="11.566809162312449"><ele>806.5</ele><time>2026-05-01T05:32:08.001Z</time></trkpt><trkpt lat="46.80863271416249" lon="11.56647707075862"><ele>807.0</ele><time>2026-05-01T05:32:09.001Z</time></trkpt><trkpt lat="46.80875514839181" lon="11.566151393110925"><ele>807.0</ele><time>2026-05-01T05:32:10.001Z</time></trkpt><trkpt lat="46.80888174500124" lon="11.565830804933626"><ele>807.0</ele><time>2026-05-01T05:32:11.001Z</time></trkpt><trkpt lat="46.80901047612897" lon="11.565512867392872"><ele>808.5</ele><time>2026-05-01T05:32:12.001Z</time></trkpt><trkpt lat="46.809137934560106" lon="11.565191826661161"><ele>810.0</ele><time>2026-05-01T05:32:13.001Z</time></trkpt><trkpt lat="46.80925980576816" lon="11.564868257068866"><ele>815.0</ele><time>2026-05-01T05:32:14.001Z</time></trkpt><trkpt lat="46.80938014473851" lon="11.564540804594172"><ele>820.0</ele><time>2026-05-01T05:32:15.001Z</time></trkpt><trkpt lat="46.809498328360306" lon="11.564214395256867"><ele>820.5</ele><time>2026-05-01T05:32:16.001Z</time></trkpt><trkpt lat="46.80962149464631" lon="11.563890099533264"><ele>821.0</ele><time>2026-05-01T05:32:17.001Z</time></trkpt><trkpt lat="46.80974746048425" lon="11.563569232006937"><ele>821.0</ele><time>2026-05-01T05:32:18.001Z</time></trkpt><trkpt lat="46.80987745498194" lon="11.563250237344544"><ele>821.0</ele><time>2026-05-01T05:32:19.001Z</time></trkpt><trkpt lat="46.81001741649287" lon="11.562938818438624"><ele>826.5</ele><time>2026-05-01T05:32:20.001Z</time></trkpt><trkpt lat="46.81016740289014" lon="11.562630348556148"><ele>832.0</ele><time>2026-05-01T05:32:21.001Z</time></trkpt><trkpt lat="46.81032902736386" lon="11.56233199751094"><ele>832.0</ele><time>2026-05-01T05:32:22.001Z</time></trkpt><trkpt lat="46.810498823331656" lon="11.562040917073869"><ele>832.0</ele><time>2026-05-01T05:32:23.001Z</time></trkpt><trkpt lat="46.81067782570297" lon="11.56175582910549"><ele>829.5</ele><time>2026-05-01T05:32:24.001Z</time></trkpt><trkpt lat="46.81085786598987" lon="11.561474596879808"><ele>827.0</ele><time>2026-05-01T05:32:25.001Z</time></trkpt><trkpt lat="46.81103844167945" lon="11.561195992316767"><ele>827.0</ele><time>2026-05-01T05:32:26.001Z</time></trkpt><trkpt lat="46.81121669149358" lon="11.560912906725715"><ele>827.0</ele><time>2026-05-01T05:32:27.001Z</time></trkpt><trkpt lat="46.81138986389427" lon="11.560625320823847"><ele>824.0</ele><time>2026-05-01T05:32:28.001Z</time></trkpt><trkpt lat="46.811557103376046" lon="11.560328667488488"><ele>821.0</ele><time>2026-05-01T05:32:29.001Z</time></trkpt><trkpt lat="46.81171720738003" lon="11.560022592412896"><ele>824.0</ele><time>2026-05-01T05:32:30.001Z</time></trkpt><trkpt lat="46.81186919297727" lon="11.559705268174078"><ele>827.0</ele><time>2026-05-01T05:32:31.001Z</time></trkpt><trkpt lat="46.8120115652327" lon="11.559377092565057"><ele>827.0</ele><time>2026-05-01T05:32:32.001Z</time></trkpt><trkpt lat="46.812144692334144" lon="11.559039033761673"><ele>827.0</ele><time>2026-05-01T05:32:33.001Z</time></trkpt><trkpt lat="46.81227237067297" lon="11.558697771592495"><ele>825.0</ele><time>2026-05-01T05:32:34.001Z</time></trkpt><trkpt lat="46.81239266193696" lon="11.55834606213673"><ele>823.0</ele><time>2026-05-01T05:32:35.001Z</time></trkpt><trkpt lat="46.81250369446893" lon="11.557989486207129"><ele>820.5</ele><time>2026-05-01T05:32:36.001Z</time></trkpt><trkpt lat="46.81260732045937" lon="11.557629000035881"><ele>818.0</ele><time>2026-05-01T05:32:37.001Z</time></trkpt><trkpt lat="46.81269921062092" lon="11.557263334388958"><ele>824.5</ele><time>2026-05-01T05:32:38.001Z</time></trkpt><trkpt lat="46.8127808560745" lon="11.556893332430999"><ele>831.0</ele><time>2026-05-01T05:32:39.001Z</time></trkpt><trkpt lat="46.812851681426196" lon="11.55651853534693"><ele>828.0</ele><time>2026-05-01T05:32:40.001Z</time></trkpt><trkpt lat="46.81291273922991" lon="11.556140532449097"><ele>825.0</ele><time>2026-05-01T05:32:41.001Z</time></trkpt><trkpt lat="46.81296509715115" lon="11.555758742432522"><ele>825.0</ele><time>2026-05-01T05:32:42.001Z</time></trkpt><trkpt lat="46.813009724797645" lon="11.55537733147177"><ele>825.0</ele><time>2026-05-01T05:32:43.001Z</time></trkpt><trkpt lat="46.81304406523062" lon="11.554994478982602"><ele>825.5</ele><time>2026-05-01T05:32:44.001Z</time></trkpt><trkpt lat="46.813068723316064" lon="11.554612189366171"><ele>826.0</ele><time>2026-05-01T05:32:45.001Z</time></trkpt><trkpt lat="46.81308317914461" lon="11.554230541964682"><ele>826.0</ele><time>2026-05-01T05:32:46.001Z</time></trkpt><trkpt lat="46.81309297439395" lon="11.553854729580681"><ele>826.0</ele><time>2026-05-01T05:32:47.001Z</time></trkpt><trkpt lat="46.81310404440098" lon="11.553471036694612"><ele>826.5</ele><time>2026-05-01T05:32:48.001Z</time></trkpt><trkpt lat="46.81311905066568" lon="11.553089864719345"><ele>827.0</ele><time>2026-05-01T05:32:49.001Z</time></trkpt><trkpt lat="46.813145224489965" lon="11.552709928464056"><ele>828.5</ele><time>2026-05-01T05:32:50.001Z</time></trkpt><trkpt lat="46.81318502618485" lon="11.55233099012899"><ele>830.0</ele><time>2026-05-01T05:32:51.001Z</time></trkpt><trkpt lat="46.81323515423615" lon="11.55195181697548"><ele>830.0</ele><time>2026-05-01T05:32:52.001Z</time></trkpt><trkpt lat="46.813291472773926" lon="11.551574676547059"><ele>830.0</ele><time>2026-05-01T05:32:53.001Z</time></trkpt><trkpt lat="46.81335283315421" lon="11.551197391469257"><ele>829.5</ele><time>2026-05-01T05:32:54Z</time></trkpt><trkpt lat="46.813413162915566" lon="11.550819665176911"><ele>829.0</ele><time>2026-05-01T05:32:55Z</time></trkpt><trkpt lat="46.81347582487461" lon="11.550442929472467"><ele>834.0</ele><time>2026-05-01T05:32:56Z</time></trkpt><trkpt lat="46.8135406324457" lon="11.550067987737192"><ele>839.0</ele><time>2026-05-01T05:32:57Z</time></trkpt><trkpt lat="46.81360821143953" lon="11.549695377699933"><ele>835.5</ele><time>2026-05-01T05:32:58Z</time></trkpt><trkpt lat="46.813675172696854" lon="11.54932080772659"><ele>832.0</ele><time>2026-05-01T05:32:59Z</time></trkpt><trkpt lat="46.81373712832005" lon="11.548950265874822"><ele>830.5</ele><time>2026-05-01T05:33:00Z</time></trkpt><trkpt lat="46.81379529042366" lon="11.548601078460353"><ele>829.0</ele><time>2026-05-01T05:33:01Z</time></trkpt><trkpt lat="46.813852650536184" lon="11.548251885772578"><ele>829.0</ele><time>2026-05-01T05:33:02Z</time></trkpt><trkpt lat="46.81391251180716" lon="11.54788562260826"><ele>829.0</ele><time>2026-05-01T05:33:03Z</time></trkpt><trkpt lat="46.813975270605724" lon="11.547516015682262"><ele>830.0</ele><time>2026-05-01T05:33:04Z</time></trkpt><trkpt lat="46.814038606730215" lon="11.54714484360784"><ele>831.0</ele><time>2026-05-01T05:33:05Z</time></trkpt><trkpt lat="46.81410147194468" lon="11.546770889990553"><ele>831.0</ele><time>2026-05-01T05:33:06Z</time></trkpt><trkpt lat="46.81416348619661" lon="11.546396987719726"><ele>831.0</ele><time>2026-05-01T05:33:07Z</time></trkpt><trkpt lat="46.81422687892714" lon="11.546024397881016"><ele>831.5</ele><time>2026-05-01T05:33:08Z</time></trkpt><trkpt lat="46.814291759756934" lon="11.545653052229232"><ele>832.0</ele><time>2026-05-01T05:33:09Z</time></trkpt><trkpt lat="46.81435521272483" lon="11.545282532915188"><ele>834.0</ele><time>2026-05-01T05:33:10Z</time></trkpt><trkpt lat="46.8144174770068" lon="11.544914208250557"><ele>836.0</ele><time>2026-05-01T05:33:11Z</time></trkpt><trkpt lat="46.81448105302428" lon="11.544545577766392"><ele>837.5</ele><time>2026-05-01T05:33:12Z</time></trkpt><trkpt lat="46.814544081301115" lon="11.544178822997123"><ele>839.0</ele><time>2026-05-01T05:33:13Z</time></trkpt><trkpt lat="46.814605368694316" lon="11.543815904242791"><ele>838.0</ele><time>2026-05-01T05:33:14Z</time></trkpt><trkpt lat="46.814665438117046" lon="11.543453374803272"><ele>837.0</ele><time>2026-05-01T05:33:15Z</time></trkpt><trkpt lat="46.814726552562846" lon="11.54308692359273"><ele>834.0</ele><time>2026-05-01T05:33:16Z</time></trkpt><trkpt lat="46.81479235802054" lon="11.542719626013954"><ele>831.0</ele><time>2026-05-01T05:33:17Z</time></trkpt><trkpt lat="46.81486640189674" lon="11.542357596019245"><ele>831.0</ele><time>2026-05-01T05:33:18Z</time></trkpt><trkpt lat="46.814949972850144" lon="11.541999085592261"><ele>831.0</ele><time>2026-05-01T05:33:19Z</time></trkpt><trkpt lat="46.81504708570226" lon="11.541648037866766"><ele>834.0</ele><time>2026-05-01T05:33:20Z</time></trkpt><trkpt lat="46.81515977381396" lon="11.541305845826841"><ele>837.0</ele><time>2026-05-01T05:33:21Z</time></trkpt><trkpt lat="46.815288992783785" lon="11.540973698741638"><ele>837.0</ele><time>2026-05-01T05:33:22Z</time></trkpt><trkpt lat="46.815430759951454" lon="11.540647624771859"><ele>837.0</ele><time>2026-05-01T05:33:23Z</time></trkpt><trkpt lat="46.8155849040153" lon="11.540332511499596"><ele>837.5</ele><time>2026-05-01T05:33:24Z</time></trkpt><trkpt lat="46.81575179380978" lon="11.540028655189882"><ele>838.0</ele><time>2026-05-01T05:33:25Z</time></trkpt><trkpt lat="46.81593255492477" lon="11.539741274736064"><ele>839.5</ele><time>2026-05-01T05:33:26Z</time></trkpt><trkpt lat="46.81612577478167" lon="11.539469333412264"><ele>841.0</ele><time>2026-05-01T05:33:27Z</time></trkpt><trkpt lat="46.81632992693513" lon="11.539218265981152"><ele>841.0</ele><time>2026-05-01T05:33:28Z</time></trkpt><trkpt lat="46.81654391185817" lon="11.53898717729188"><ele>841.0</ele><time>2026-05-01T05:33:29Z</time></trkpt><trkpt lat="46.81676974454811" lon="11.538770829797333"><ele>841.0</ele><time>2026-05-01T05:33:30Z</time></trkpt><trkpt lat="46.81700205227889" lon="11.538572743726311"><ele>841.0</ele><time>2026-05-01T05:33:31Z</time></trkpt><trkpt lat="46.8172445345669" lon="11.538395932725342"><ele>841.0</ele><time>2026-05-01T05:33:32Z</time></trkpt><trkpt lat="46.8174941160504" lon="11.538242891381978"><ele>841.0</ele><time>2026-05-01T05:33:33Z</time></trkpt><trkpt lat="46.81775117294211" lon="11.538112626632907"><ele>840.0</ele><time>2026-05-01T05:33:34Z</time></trkpt><trkpt lat="46.8180140174779" lon="11.53800472768666"><ele>839.0</ele><time>2026-05-01T05:33:35Z</time></trkpt><trkpt lat="46.81828103842317" lon="11.537920546955872"><ele>840.0</ele><time>2026-05-01T05:33:36Z</time></trkpt><trkpt lat="46.81855249893681" lon="11.537852238267792"><ele>841.0</ele><time>2026-05-01T05:33:37Z</time></trkpt><trkpt lat="46.8188248683809" lon="11.537802006809343"><ele>841.0</ele><time>2026-05-01T05:33:38Z</time></trkpt><trkpt lat="46.81909545471713" lon="11.537766344951134"><ele>841.0</ele><time>2026-05-01T05:33:39Z</time></trkpt><trkpt lat="46.81936263991379" lon="11.537741647658605"><ele>841.0</ele><time>2026-05-01T05:33:40Z</time></trkpt><trkpt lat="46.81962835505535" lon="11.537717601671835"><ele>841.0</ele><time>2026-05-01T05:33:41Z</time></trkpt><trkpt lat="46.81989027148625" lon="11.537694872250606"><ele>841.5</ele><time>2026-05-01T05:33:42Z</time></trkpt><trkpt lat="46.820152774073215" lon="11.537671530183282"><ele>842.0</ele><time>2026-05-01T05:33:43Z</time></trkpt><trkpt lat="46.82041425367243" lon="11.537645836783163"><ele>842.0</ele><time>2026-05-01T05:33:44Z</time></trkpt><trkpt lat="46.8206752139126" lon="11.537621423720669"><ele>842.0</ele><time>2026-05-01T05:33:45Z</time></trkpt><trkpt lat="46.82093756120354" lon="11.537594728969124"><ele>842.5</ele><time>2026-05-01T05:33:46Z</time></trkpt><trkpt lat="46.821200738526784" lon="11.537567859248236"><ele>843.0</ele><time>2026-05-01T05:33:47Z</time></trkpt><trkpt lat="46.821465545797956" lon="11.537541093292738"><ele>843.0</ele><time>2026-05-01T05:33:48Z</time></trkpt><trkpt lat="46.821732388001585" lon="11.537516487458213"><ele>843.0</ele><time>2026-05-01T05:33:49Z</time></trkpt><trkpt lat="46.82200025093525" lon="11.537492778088913"><ele>843.0</ele><time>2026-05-01T05:33:50Z</time></trkpt><trkpt lat="46.822269225125844" lon="11.537466372868257"><ele>843.0</ele><time>2026-05-01T05:33:51.001Z</time></trkpt><trkpt lat="46.82253663202273" lon="11.537439312270786"><ele>843.5</ele><time>2026-05-01T05:33:52.001Z</time></trkpt><trkpt lat="46.82280482609167" lon="11.537411801512476"><ele>844.0</ele><time>2026-05-01T05:33:53.001Z</time></trkpt><trkpt lat="46.823069340450175" lon="11.537386850687776"><ele>844.0</ele><time>2026-05-01T05:33:54.001Z</time></trkpt><trkpt lat="46.82332052622779" lon="11.537364416126877"><ele>844.0</ele><time>2026-05-01T05:33:55.001Z</time></trkpt><trkpt lat="46.82357015750433" lon="11.537339894355728"><ele>844.0</ele><time>2026-05-01T05:33:56.001Z</time></trkpt><trkpt lat="46.823820856088005" lon="11.537313808376394"><ele>844.0</ele><time>2026-05-01T05:33:57.001Z</time></trkpt><trkpt lat="46.824074629757746" lon="11.53727843377153"><ele>845.0</ele><time>2026-05-01T05:33:58.001Z</time></trkpt><trkpt lat="46.82433107809284" lon="11.537237644135859"><ele>846.0</ele><time>2026-05-01T05:33:59.001Z</time></trkpt><trkpt lat="46.824591152006306" lon="11.537200979029182"><ele>846.0</ele><time>2026-05-01T05:34:00.001Z</time></trkpt><trkpt lat="46.824853237058804" lon="11.537167621304173"><ele>846.0</ele><time>2026-05-01T05:34:01.001Z</time></trkpt><trkpt lat="46.825119083552146" lon="11.537140801545627"><ele>846.0</ele><time>2026-05-01T05:34:02.001Z</time></trkpt><trkpt lat="46.82538648506273" lon="11.537115801244555"><ele>846.0</ele><time>2026-05-01T05:34:03.001Z</time></trkpt><trkpt lat="46.825654620629116" lon="11.537090610844373"><ele>846.0</ele><time>2026-05-01T05:34:04.001Z</time></trkpt><trkpt lat="46.82592418244269" lon="11.537063726759762"><ele>846.0</ele><time>2026-05-01T05:34:05.001Z</time></trkpt><trkpt lat="46.82619407402365" lon="11.53703622952733"><ele>845.5</ele><time>2026-05-01T05:34:06.001Z</time></trkpt><trkpt lat="46.82645751157275" lon="11.537010987785221"><ele>845.0</ele><time>2026-05-01T05:34:07.001Z</time></trkpt><trkpt lat="46.826712516464546" lon="11.536980998039548"><ele>846.5</ele><time>2026-05-01T05:34:08.001Z</time></trkpt><trkpt lat="46.82696505838765" lon="11.536941610042218"><ele>848.0</ele><time>2026-05-01T05:34:09.001Z</time></trkpt><trkpt lat="46.82722180160704" lon="11.536887187394424"><ele>848.0</ele><time>2026-05-01T05:34:10.001Z</time></trkpt><trkpt lat="46.82748277596281" lon="11.53682326647197"><ele>848.0</ele><time>2026-05-01T05:34:11.001Z</time></trkpt><trkpt lat="46.82774388233558" lon="11.536740392100212"><ele>850.5</ele><time>2026-05-01T05:34:12.001Z</time></trkpt><trkpt lat="46.828001853156856" lon="11.536633432119288"><ele>853.0</ele><time>2026-05-01T05:34:13.001Z</time></trkpt><trkpt lat="46.82825645683337" lon="11.53650277150341"><ele>852.0</ele><time>2026-05-01T05:34:14.001Z</time></trkpt><trkpt lat="46.828505351548976" lon="11.536353603197716"><ele>851.0</ele><time>2026-05-01T05:34:15.001Z</time></trkpt><trkpt lat="46.828753202252166" lon="11.536186202388448"><ele>851.0</ele><time>2026-05-01T05:34:16.001Z</time></trkpt><trkpt lat="46.82899514932327" lon="11.536001254891852"><ele>851.0</ele><time>2026-05-01T05:34:17.001Z</time></trkpt><trkpt lat="46.829235457760525" lon="11.535803990180815"><ele>852.0</ele><time>2026-05-01T05:34:18.001Z</time></trkpt><trkpt lat="46.82947485740077" lon="11.535603570407417"><ele>853.0</ele><time>2026-05-01T05:34:19.001Z</time></trkpt><trkpt lat="46.82971309687183" lon="11.535400434095008"><ele>853.0</ele><time>2026-05-01T05:34:20.001Z</time></trkpt><trkpt lat="46.82995260568551" lon="11.535197155648932"><ele>853.0</ele><time>2026-05-01T05:34:21.001Z</time></trkpt><trkpt lat="46.83019365355027" lon="11.534995446667503"><ele>853.0</ele><time>2026-05-01T05:34:22.001Z</time></trkpt><trkpt lat="46.83043246481898" lon="11.534797334113689"><ele>853.0</ele><time>2026-05-01T05:34:23.001Z</time></trkpt><trkpt lat="46.83067164981361" lon="11.53459739067891"><ele>853.0</ele><time>2026-05-01T05:34:24.001Z</time></trkpt><trkpt lat="46.83091150734119" lon="11.53439855001879"><ele>853.0</ele><time>2026-05-01T05:34:25.001Z</time></trkpt><trkpt lat="46.8311557733465" lon="11.53421056283512"><ele>853.0</ele><time>2026-05-01T05:34:26.001Z</time></trkpt><trkpt lat="46.83139579262487" lon="11.53402775397577"><ele>853.0</ele><time>2026-05-01T05:34:27.001Z</time></trkpt><trkpt lat="46.831634142971076" lon="11.533844010685836"><ele>853.0</ele><time>2026-05-01T05:34:28.001Z</time></trkpt><trkpt lat="46.831866729711635" lon="11.533653530065438"><ele>853.0</ele><time>2026-05-01T05:34:29.001Z</time></trkpt><trkpt lat="46.832097749818175" lon="11.533460364608418"><ele>853.0</ele><time>2026-05-01T05:34:30.001Z</time></trkpt><trkpt lat="46.83232488003863" lon="11.533261967374834"><ele>853.0</ele><time>2026-05-01T05:34:31.001Z</time></trkpt><trkpt lat="46.83255401380986" lon="11.533065565153167"><ele>853.5</ele><time>2026-05-01T05:34:32.001Z</time></trkpt><trkpt lat="46.832783479401385" lon="11.532869705415447"><ele>854.0</ele><time>2026-05-01T05:34:33.001Z</time></trkpt><trkpt lat="46.83301411325189" lon="11.532673794977818"><ele>854.0</ele><time>2026-05-01T05:34:34.001Z</time></trkpt><trkpt lat="46.83324448194548" lon="11.532479170836956"><ele>854.0</ele><time>2026-05-01T05:34:35.001Z</time></trkpt><trkpt lat="46.83347552432161" lon="11.532285445257306"><ele>854.0</ele><time>2026-05-01T05:34:36.001Z</time></trkpt><trkpt lat="46.833705692579045" lon="11.53209102735395"><ele>854.0</ele><time>2026-05-01T05:34:37.001Z</time></trkpt><trkpt lat="46.83393855274024" lon="11.531896210429746"><ele>855.0</ele><time>2026-05-01T05:34:38.001Z</time></trkpt><trkpt lat="46.83417072899279" lon="11.531699606367356"><ele>856.0</ele><time>2026-05-01T05:34:39.001Z</time></trkpt><trkpt lat="46.83440241348994" lon="11.531503472746323"><ele>858.0</ele><time>2026-05-01T05:34:40.001Z</time></trkpt><trkpt lat="46.834634003257044" lon="11.53130696238239"><ele>860.0</ele><time>2026-05-01T05:34:41.001Z</time></trkpt><trkpt lat="46.83486607392429" lon="11.531112801635194"><ele>860.0</ele><time>2026-05-01T05:34:42.001Z</time></trkpt><trkpt lat="46.83510031274234" lon="11.53091773628065"><ele>860.0</ele><time>2026-05-01T05:34:43.001Z</time></trkpt><trkpt lat="46.83533708192904" lon="11.530722500304217"><ele>860.0</ele><time>2026-05-01T05:34:44.001Z</time></trkpt><trkpt lat="46.835571612060704" lon="11.530524994265347"><ele>860.0</ele><time>2026-05-01T05:34:45.001Z</time></trkpt><trkpt lat="46.83580676336988" lon="11.530327137332913"><ele>859.5</ele><time>2026-05-01T05:34:46.001Z</time></trkpt><trkpt lat="46.836042932053076" lon="11.530128335130597"><ele>859.0</ele><time>2026-05-01T05:34:47.001Z</time></trkpt><trkpt lat="46.83627897572424" lon="11.529928048665088"><ele>859.0</ele><time>2026-05-01T05:34:48.001Z</time></trkpt><trkpt lat="46.83651655047389" lon="11.529729001302991"><ele>859.0</ele><time>2026-05-01T05:34:49.001Z</time></trkpt><trkpt lat="46.836752574985205" lon="11.529528283990885"><ele>858.5</ele><time>2026-05-01T05:34:50.001Z</time></trkpt><trkpt lat="46.83698513474193" lon="11.52933015922214"><ele>858.0</ele><time>2026-05-01T05:34:51.001Z</time></trkpt><trkpt lat="46.83721887770075" lon="11.529132952693638"><ele>858.0</ele><time>2026-05-01T05:34:52.001Z</time></trkpt><trkpt lat="46.837454675172204" lon="11.528936101961325"><ele>858.0</ele><time>2026-05-01T05:34:53.001Z</time></trkpt><trkpt lat="46.837690052196095" lon="11.528741003342915"><ele>859.0</ele><time>2026-05-01T05:34:54.001Z</time></trkpt><trkpt lat="46.837925581345814" lon="11.5285449562702"><ele>860.0</ele><time>2026-05-01T05:34:55.001Z</time></trkpt><trkpt lat="46.83815882035757" lon="11.528344637447665"><ele>860.0</ele><time>2026-05-01T05:34:56.001Z</time></trkpt><trkpt lat="46.83839388474592" lon="11.528145368132648"><ele>860.0</ele><time>2026-05-01T05:34:57.001Z</time></trkpt><trkpt lat="46.83862834658489" lon="11.527947355412039"><ele>860.5</ele><time>2026-05-01T05:34:58.001Z</time></trkpt><trkpt lat="46.83886357454576" lon="11.527752861555022"><ele>861.0</ele><time>2026-05-01T05:34:59.001Z</time></trkpt><trkpt lat="46.839096986785066" lon="11.527563542886952"><ele>862.0</ele><time>2026-05-01T05:35:00Z</time></trkpt><trkpt lat="46.83933075884862" lon="11.527379758907053"><ele>863.0</ele><time>2026-05-01T05:35:01Z</time></trkpt><trkpt lat="46.83956646401265" lon="11.527195361507609"><ele>863.0</ele><time>2026-05-01T05:35:02Z</time></trkpt><trkpt lat="46.83980528466675" lon="11.527014480862254"><ele>863.0</ele><time>2026-05-01T05:35:03Z</time></trkpt><trkpt lat="46.84004515194867" lon="11.526834866826752"><ele>864.0</ele><time>2026-05-01T05:35:04Z</time></trkpt><trkpt lat="46.84028073060918" lon="11.52665164763991"><ele>865.0</ele><time>2026-05-01T05:35:05Z</time></trkpt><trkpt lat="46.84051642252546" lon="11.52646966673923"><ele>865.0</ele><time>2026-05-01T05:35:06Z</time></trkpt><trkpt lat="46.84075426116065" lon="11.526289700870722"><ele>865.0</ele><time>2026-05-01T05:35:07Z</time></trkpt><trkpt lat="46.84099111416575" lon="11.526109512655443"><ele>865.5</ele><time>2026-05-01T05:35:08Z</time></trkpt><trkpt lat="46.84122609200338" lon="11.525937214291185"><ele>866.0</ele><time>2026-05-01T05:35:09Z</time></trkpt><trkpt lat="46.8414597193895" lon="11.52575831115176"><ele>866.0</ele><time>2026-05-01T05:35:10Z</time></trkpt><trkpt lat="46.84169222863577" lon="11.525580879388176"><ele>866.0</ele><time>2026-05-01T05:35:11Z</time></trkpt><trkpt lat="46.84192463614111" lon="11.525404081430848"><ele>868.0</ele><time>2026-05-01T05:35:12Z</time></trkpt><trkpt lat="46.84215633854354" lon="11.525228278314836"><ele>870.0</ele><time>2026-05-01T05:35:13Z</time></trkpt><trkpt lat="46.842387916927" lon="11.525052407396492"><ele>870.0</ele><time>2026-05-01T05:35:14Z</time></trkpt><trkpt lat="46.84261930490334" lon="11.524877954719244"><ele>870.0</ele><time>2026-05-01T05:35:15Z</time></trkpt><trkpt lat="46.842849800718255" lon="11.524703859700786"><ele>871.0</ele><time>2026-05-01T05:35:16Z</time></trkpt><trkpt lat="46.84307666048581" lon="11.524527845811274"><ele>872.0</ele><time>2026-05-01T05:35:17Z</time></trkpt><trkpt lat="46.843303052129286" lon="11.524353728041929"><ele>872.5</ele><time>2026-05-01T05:35:18Z</time></trkpt><trkpt lat="46.843528819689304" lon="11.524178629639888"><ele>873.0</ele><time>2026-05-01T05:35:19Z</time></trkpt><trkpt lat="46.84375309311844" lon="11.523999923663698"><ele>873.0</ele><time>2026-05-01T05:35:20Z</time></trkpt><trkpt lat="46.84397420282326" lon="11.523815578724989"><ele>873.0</ele><time>2026-05-01T05:35:21Z</time></trkpt><trkpt lat="46.844190007479405" lon="11.523619781701694"><ele>874.0</ele><time>2026-05-01T05:35:22Z</time></trkpt><trkpt lat="46.84439931965031" lon="11.523407476846872"><ele>875.0</ele><time>2026-05-01T05:35:23Z</time></trkpt><trkpt lat="46.84460105489049" lon="11.52317465598992"><ele>875.0</ele><time>2026-05-01T05:35:24Z</time></trkpt><trkpt lat="46.84479641871157" lon="11.522924067808308"><ele>875.0</ele><time>2026-05-01T05:35:25Z</time></trkpt><trkpt lat="46.84498248368497" lon="11.522654305882392"><ele>874.5</ele><time>2026-05-01T05:35:26Z</time></trkpt><trkpt lat="46.84515750545817" lon="11.522364967353457"><ele>874.0</ele><time>2026-05-01T05:35:27Z</time></trkpt><trkpt lat="46.84531914580316" lon="11.522057557776968"><ele>877.0</ele><time>2026-05-01T05:35:28Z</time></trkpt><trkpt lat="46.84546982646966" lon="11.52174031581161"><ele>880.0</ele><time>2026-05-01T05:35:29Z</time></trkpt><trkpt lat="46.84561039582985" lon="11.52141026613496"><ele>884.5</ele><time>2026-05-01T05:35:30Z</time></trkpt><trkpt lat="46.84573721199921" lon="11.52107023242215"><ele>889.0</ele><time>2026-05-01T05:35:31Z</time></trkpt><trkpt lat="46.845847917941164" lon="11.520720225492877"><ele>888.0</ele><time>2026-05-01T05:35:32Z</time></trkpt><trkpt lat="46.845945715468325" lon="11.520364070469071"><ele>887.0</ele><time>2026-05-01T05:35:33Z</time></trkpt><trkpt lat="46.846030126149294" lon="11.520002732639917"><ele>887.0</ele><time>2026-05-01T05:35:34Z</time></trkpt><trkpt lat="46.846107368896305" lon="11.519630730968272"><ele>887.0</ele><time>2026-05-01T05:35:35Z</time></trkpt><trkpt lat="46.846186117768056" lon="11.519268574184826"><ele>887.0</ele><time>2026-05-01T05:35:36Z</time></trkpt><trkpt lat="46.84627320685949" lon="11.51890584537008"><ele>887.0</ele><time>2026-05-01T05:35:37Z</time></trkpt><trkpt lat="46.84636437752335" lon="11.518565476863154"><ele>889.0</ele><time>2026-05-01T05:35:38Z</time></trkpt><trkpt lat="46.84647245173778" lon="11.518226553104418"><ele>891.0</ele><time>2026-05-01T05:35:39Z</time></trkpt><trkpt lat="46.84660247106531" lon="11.517893006205012"><ele>889.0</ele><time>2026-05-01T05:35:40Z</time></trkpt><trkpt lat="46.84674553551271" lon="11.517568046513656"><ele>887.0</ele><time>2026-05-01T05:35:41Z</time></trkpt><trkpt lat="46.84690016884328" lon="11.51725515058556"><ele>890.5</ele><time>2026-05-01T05:35:42Z</time></trkpt><trkpt lat="46.84706496950709" lon="11.516955446113965"><ele>894.0</ele><time>2026-05-01T05:35:43Z</time></trkpt><trkpt lat="46.847243729014515" lon="11.516670652300078"><ele>894.0</ele><time>2026-05-01T05:35:44Z</time></trkpt><trkpt lat="46.84743248556427" lon="11.516398780482673"><ele>894.0</ele><time>2026-05-01T05:35:45Z</time></trkpt><trkpt lat="46.8476326987661" lon="11.516145300648336"><ele>895.5</ele><time>2026-05-01T05:35:46Z</time></trkpt><trkpt lat="46.847843002467705" lon="11.515912723079946"><ele>897.0</ele><time>2026-05-01T05:35:47Z</time></trkpt><trkpt lat="46.84806156704557" lon="11.515694721933292"><ele>897.0</ele><time>2026-05-01T05:35:48Z</time></trkpt><trkpt lat="46.848287269979174" lon="11.515495506147904"><ele>897.0</ele><time>2026-05-01T05:35:49Z</time></trkpt><trkpt lat="46.8485209109659" lon="11.515315763602832"><ele>899.0</ele><time>2026-05-01T05:35:50Z</time></trkpt><trkpt lat="46.848757055472625" lon="11.515146912667378"><ele>901.0</ele><time>2026-05-01T05:35:51Z</time></trkpt><trkpt lat="46.84899806863452" lon="11.514983293334494"><ele>901.0</ele><time>2026-05-01T05:35:52Z</time></trkpt><trkpt lat="46.84923671181491" lon="11.514820363030466"><ele>901.0</ele><time>2026-05-01T05:35:53Z</time></trkpt><trkpt lat="46.84947637159548" lon="11.514655202525672"><ele>903.0</ele><time>2026-05-01T05:35:54Z</time></trkpt><trkpt lat="46.84971395289808" lon="11.514490482500984"><ele>905.0</ele><time>2026-05-01T05:35:55Z</time></trkpt><trkpt lat="46.849951023827195" lon="11.514323627674276"><ele>901.5</ele><time>2026-05-01T05:35:56Z</time></trkpt><trkpt lat="46.850186171484154" lon="11.51415686407177"><ele>898.0</ele><time>2026-05-01T05:35:57Z</time></trkpt><trkpt lat="46.850422715164584" lon="11.513988775755976"><ele>898.0</ele><time>2026-05-01T05:35:58Z</time></trkpt><trkpt lat="46.85065904316385" lon="11.51382474983458"><ele>898.0</ele><time>2026-05-01T05:35:59Z</time></trkpt><trkpt lat="46.85089589256637" lon="11.513662573381326"><ele>901.0</ele><time>2026-05-01T05:36:00Z</time></trkpt><trkpt lat="46.85113418722265" lon="11.51349830293744"><ele>904.0</ele><time>2026-05-01T05:36:01Z</time></trkpt><trkpt lat="46.851372232271025" lon="11.513331113821247"><ele>904.0</ele><time>2026-05-01T05:36:02.001Z</time></trkpt><trkpt lat="46.85161030826155" lon="11.513163463154656"><ele>904.0</ele><time>2026-05-01T05:36:03.001Z</time></trkpt><trkpt lat="46.85185002752149" lon="11.512996190267575"><ele>906.5</ele><time>2026-05-01T05:36:04.001Z</time></trkpt><trkpt lat="46.85209066734664" lon="11.512829526577862"><ele>909.0</ele><time>2026-05-01T05:36:05.001Z</time></trkpt><trkpt lat="46.852329830215" lon="11.51266470036144"><ele>909.0</ele><time>2026-05-01T05:36:06.001Z</time></trkpt><trkpt lat="46.85257012277225" lon="11.512499352159498"><ele>909.0</ele><time>2026-05-01T05:36:07.001Z</time></trkpt><trkpt lat="46.85281232613585" lon="11.512331645145451"><ele>905.5</ele><time>2026-05-01T05:36:08.001Z</time></trkpt><trkpt lat="46.85305386353271" lon="11.512163746929984"><ele>902.0</ele><time>2026-05-01T05:36:09.001Z</time></trkpt><trkpt lat="46.853297710611784" lon="11.511993979791555"><ele>904.5</ele><time>2026-05-01T05:36:10.001Z</time></trkpt><trkpt lat="46.85354281318309" lon="11.511823542197483"><ele>907.0</ele><time>2026-05-01T05:36:11.001Z</time></trkpt><trkpt lat="46.85378737758039" lon="11.511652709713058"><ele>907.0</ele><time>2026-05-01T05:36:12.001Z</time></trkpt><trkpt lat="46.85403326914027" lon="11.511482753624218"><ele>907.0</ele><time>2026-05-01T05:36:13.001Z</time></trkpt><trkpt lat="46.8542775009431" lon="11.511311619469959"><ele>909.5</ele><time>2026-05-01T05:36:14.001Z</time></trkpt><trkpt lat="46.85452196886547" lon="11.511140666990833"><ele>912.0</ele><time>2026-05-01T05:36:15.001Z</time></trkpt><trkpt lat="46.8547679746861" lon="11.510970131271922"><ele>912.0</ele><time>2026-05-01T05:36:16.001Z</time></trkpt><trkpt lat="46.8550141447206" lon="11.510798518893814"><ele>912.0</ele><time>2026-05-01T05:36:17.001Z</time></trkpt><trkpt lat="46.855259411268854" lon="11.510625327172532"><ele>912.5</ele><time>2026-05-01T05:36:18.001Z</time></trkpt><trkpt lat="46.855503819515995" lon="11.510450117007446"><ele>913.0</ele><time>2026-05-01T05:36:19.001Z</time></trkpt><trkpt lat="46.85574507745951" lon="11.510273732732324"><ele>910.5</ele><time>2026-05-01T05:36:20.001Z</time></trkpt><trkpt lat="46.8559835843549" lon="11.51009421965942"><ele>908.0</ele><time>2026-05-01T05:36:21.001Z</time></trkpt><trkpt lat="46.85621848989787" lon="11.509914904359114"><ele>908.0</ele><time>2026-05-01T05:36:22.001Z</time></trkpt><trkpt lat="46.85645180587816" lon="11.509736181997345"><ele>908.0</ele><time>2026-05-01T05:36:23.001Z</time></trkpt><trkpt lat="46.856686974309014" lon="11.509558504726634"><ele>910.5</ele><time>2026-05-01T05:36:24.001Z</time></trkpt><trkpt lat="46.85692037550263" lon="11.509384253009166"><ele>913.0</ele><time>2026-05-01T05:36:25.001Z</time></trkpt><trkpt lat="46.85715363733208" lon="11.509210067976888"><ele>913.0</ele><time>2026-05-01T05:36:26.001Z</time></trkpt><trkpt lat="46.857388123234685" lon="11.50903505983526"><ele>913.0</ele><time>2026-05-01T05:36:27.001Z</time></trkpt><trkpt lat="46.85762202998431" lon="11.508857956229154"><ele>915.0</ele><time>2026-05-01T05:36:28.001Z</time></trkpt><trkpt lat="46.857854830114285" lon="11.508682964981988"><ele>917.0</ele><time>2026-05-01T05:36:29.001Z</time></trkpt><trkpt lat="46.85808818884729" lon="11.50850837070581"><ele>917.0</ele><time>2026-05-01T05:36:30.001Z</time></trkpt><trkpt lat="46.85832089281321" lon="11.508332272240732"><ele>917.0</ele><time>2026-05-01T05:36:31.001Z</time></trkpt><trkpt lat="46.85855146757068" lon="11.508154985863252"><ele>919.5</ele><time>2026-05-01T05:36:32.001Z</time></trkpt><trkpt lat="46.85878117396438" lon="11.507976668580602"><ele>922.0</ele><time>2026-05-01T05:36:33.001Z</time></trkpt><trkpt lat="46.8590105099289" lon="11.507795984296921"><ele>922.0</ele><time>2026-05-01T05:36:34.001Z</time></trkpt><trkpt lat="46.859237748211726" lon="11.507611861871817"><ele>922.0</ele><time>2026-05-01T05:36:35.001Z</time></trkpt><trkpt lat="46.859463122559596" lon="11.507422329145648"><ele>923.5</ele><time>2026-05-01T05:36:36.001Z</time></trkpt><trkpt lat="46.859677157061874" lon="11.50721028964321"><ele>925.0</ele><time>2026-05-01T05:36:37.001Z</time></trkpt><trkpt lat="46.859892413734" lon="11.506993082297917"><ele>925.0</ele><time>2026-05-01T05:36:38.001Z</time></trkpt><trkpt lat="46.86008896567831" lon="11.506744449178687"><ele>925.0</ele><time>2026-05-01T05:36:39.001Z</time></trkpt><trkpt lat="46.8602782477002" lon="11.506485422848764"><ele>921.5</ele><time>2026-05-01T05:36:40.001Z</time></trkpt><trkpt lat="46.860465427168876" lon="11.506217395172198"><ele>918.0</ele><time>2026-05-01T05:36:41.001Z</time></trkpt><trkpt lat="46.860643542692074" lon="11.505937445422138"><ele>918.0</ele><time>2026-05-01T05:36:42.001Z</time></trkpt><trkpt lat="46.86081296772024" lon="11.505642866922122"><ele>918.0</ele><time>2026-05-01T05:36:43.001Z</time></trkpt><trkpt lat="46.86097364439152" lon="11.50533693856038"><ele>917.5</ele><time>2026-05-01T05:36:44.001Z</time></trkpt><trkpt lat="46.861117034666094" lon="11.505019212799047"><ele>917.0</ele><time>2026-05-01T05:36:45.001Z</time></trkpt><trkpt lat="46.86125557704002" lon="11.504689429859441"><ele>920.5</ele><time>2026-05-01T05:36:46.001Z</time></trkpt><trkpt lat="46.861383481571316" lon="11.504353334565382"><ele>924.0</ele><time>2026-05-01T05:36:47.001Z</time></trkpt><trkpt lat="46.86150226068976" lon="11.504010693723595"><ele>925.5</ele><time>2026-05-01T05:36:48.001Z</time></trkpt><trkpt lat="46.861605653894514" lon="11.503654221319463"><ele>927.0</ele><time>2026-05-01T05:36:49.001Z</time></trkpt><trkpt lat="46.86169454567641" lon="11.503288111082078"><ele>927.0</ele><time>2026-05-01T05:36:50.001Z</time></trkpt><trkpt lat="46.86177272158698" lon="11.502918252230074"><ele>927.0</ele><time>2026-05-01T05:36:51.001Z</time></trkpt><trkpt lat="46.861842108248645" lon="11.502541833289053"><ele>928.5</ele><time>2026-05-01T05:36:52.001Z</time></trkpt><trkpt lat="46.86190354893941" lon="11.502159671049853"><ele>930.0</ele><time>2026-05-01T05:36:53.001Z</time></trkpt><trkpt lat="46.861956440713485" lon="11.501771248775569"><ele>925.0</ele><time>2026-05-01T05:36:54.001Z</time></trkpt><trkpt lat="46.862012094213156" lon="11.501381772939286"><ele>920.0</ele><time>2026-05-01T05:36:55.001Z</time></trkpt><trkpt lat="46.86207711895495" lon="11.50099776202392"><ele>919.0</ele><time>2026-05-01T05:36:56.001Z</time></trkpt><trkpt lat="46.862147921505304" lon="11.500620175285407"><ele>918.0</ele><time>2026-05-01T05:36:57.001Z</time></trkpt><trkpt lat="46.86223086394209" lon="11.500240144395638"><ele>920.5</ele><time>2026-05-01T05:36:58.001Z</time></trkpt><trkpt lat="46.862335348880386" lon="11.499877613309804"><ele>923.0</ele><time>2026-05-01T05:36:59.001Z</time></trkpt><trkpt lat="46.8624530431647" lon="11.49952585589247"><ele>924.0</ele><time>2026-05-01T05:37:00.001Z</time></trkpt><trkpt lat="46.86258429987495" lon="11.499181478024836"><ele>925.0</ele><time>2026-05-01T05:37:01.001Z</time></trkpt><trkpt lat="46.86272563739274" lon="11.498843301058194"><ele>921.5</ele><time>2026-05-01T05:37:02.001Z</time></trkpt><trkpt lat="46.86287496076813" lon="11.498513607038497"><ele>918.0</ele><time>2026-05-01T05:37:03.001Z</time></trkpt><trkpt lat="46.86302780191278" lon="11.498185945858145"><ele>919.0</ele><time>2026-05-01T05:37:04.001Z</time></trkpt><trkpt lat="46.863180687071946" lon="11.497861315930848"><ele>920.0</ele><time>2026-05-01T05:37:05.001Z</time></trkpt><trkpt lat="46.86333533929458" lon="11.497538213872451"><ele>923.5</ele><time>2026-05-01T05:37:06Z</time></trkpt><trkpt lat="46.86348770263197" lon="11.497229268434676"><ele>927.0</ele><time>2026-05-01T05:37:07Z</time></trkpt><trkpt lat="46.86363216656693" lon="11.496934390299156"><ele>927.5</ele><time>2026-05-01T05:37:08Z</time></trkpt><trkpt lat="46.86378019403507" lon="11.496628344005034"><ele>928.0</ele><time>2026-05-01T05:37:09Z</time></trkpt><trkpt lat="46.8639322700168" lon="11.496317013085553"><ele>926.5</ele><time>2026-05-01T05:37:10Z</time></trkpt><trkpt lat="46.86408571664822" lon="11.496004638452867"><ele>925.0</ele><time>2026-05-01T05:37:11Z</time></trkpt><trkpt lat="46.8642416337809" lon="11.495689542199033"><ele>927.0</ele><time>2026-05-01T05:37:12Z</time></trkpt><trkpt lat="46.86439710574036" lon="11.495372875397733"><ele>929.0</ele><time>2026-05-01T05:37:13Z</time></trkpt><trkpt lat="46.864552282124045" lon="11.495055860946103"><ele>929.0</ele><time>2026-05-01T05:37:14Z</time></trkpt><trkpt lat="46.86470842345354" lon="11.494736289696947"><ele>929.0</ele><time>2026-05-01T05:37:15Z</time></trkpt><trkpt lat="46.86486400708566" lon="11.494415829027723"><ele>929.5</ele><time>2026-05-01T05:37:16Z</time></trkpt><trkpt lat="46.865018540506824" lon="11.494094500905256"><ele>930.0</ele><time>2026-05-01T05:37:17Z</time></trkpt><trkpt lat="46.86517204986248" lon="11.493773241798323"><ele>930.0</ele><time>2026-05-01T05:37:18Z</time></trkpt><trkpt lat="46.86532640730709" lon="11.493450923374269"><ele>930.0</ele><time>2026-05-01T05:37:19Z</time></trkpt><trkpt lat="46.865479673533635" lon="11.49313490139058"><ele>931.0</ele><time>2026-05-01T05:37:20Z</time></trkpt><trkpt lat="46.86563384219069" lon="11.492818946869196"><ele>932.0</ele><time>2026-05-01T05:37:21Z</time></trkpt><trkpt lat="46.86578770450177" lon="11.4925024252857"><ele>932.0</ele><time>2026-05-01T05:37:22Z</time></trkpt><trkpt lat="46.8659408062799" lon="11.492185341328375"><ele>932.0</ele><time>2026-05-01T05:37:23Z</time></trkpt><trkpt lat="46.86609076097653" lon="11.49186527381808"><ele>932.0</ele><time>2026-05-01T05:37:24Z</time></trkpt><trkpt lat="46.866235614050346" lon="11.491536941092859"><ele>932.0</ele><time>2026-05-01T05:37:25Z</time></trkpt><trkpt lat="46.86637249814024" lon="11.491201458866897"><ele>932.0</ele><time>2026-05-01T05:37:26Z</time></trkpt><trkpt lat="46.866499629400586" lon="11.490859106830293"><ele>932.0</ele><time>2026-05-01T05:37:27Z</time></trkpt><trkpt lat="46.86661037038887" lon="11.49050417647327"><ele>931.5</ele><time>2026-05-01T05:37:28Z</time></trkpt><trkpt lat="46.86671935511016" lon="11.49014508752282"><ele>931.0</ele><time>2026-05-01T05:37:29Z</time></trkpt><trkpt lat="46.866826313956174" lon="11.489780265395861"><ele>929.0</ele><time>2026-05-01T05:37:30Z</time></trkpt><trkpt lat="46.86693292484466" lon="11.489414220350174"><ele>927.0</ele><time>2026-05-01T05:37:31Z</time></trkpt><trkpt lat="46.867039591797386" lon="11.489050727984418"><ele>927.5</ele><time>2026-05-01T05:37:32Z</time></trkpt><trkpt lat="46.86714736279812" lon="11.488683960543408"><ele>928.0</ele><time>2026-05-01T05:37:33Z</time></trkpt><trkpt lat="46.86725518903975" lon="11.488319033352958"><ele>928.0</ele><time>2026-05-01T05:37:34Z</time></trkpt><trkpt lat="46.86736332668" lon="11.487950228227287"><ele>928.0</ele><time>2026-05-01T05:37:35Z</time></trkpt><trkpt lat="46.867469739086154" lon="11.487581142257666"><ele>928.5</ele><time>2026-05-01T05:37:36Z</time></trkpt><trkpt lat="46.86757508853535" lon="11.487212298926403"><ele>929.0</ele><time>2026-05-01T05:37:37Z</time></trkpt><trkpt lat="46.86768210710736" lon="11.486841856491406"><ele>930.0</ele><time>2026-05-01T05:37:38Z</time></trkpt><trkpt lat="46.86778902445311" lon="11.486474068739259"><ele>931.0</ele><time>2026-05-01T05:37:39Z</time></trkpt><trkpt lat="46.86789724166363" lon="11.486106101540603"><ele>931.0</ele><time>2026-05-01T05:37:40Z</time></trkpt><trkpt lat="46.8680041727175" lon="11.485740223498688"><ele>931.0</ele><time>2026-05-01T05:37:41Z</time></trkpt><trkpt lat="46.868111627005796" lon="11.485375619303678"><ele>931.5</ele><time>2026-05-01T05:37:42Z</time></trkpt><trkpt lat="46.86821817432489" lon="11.485013376682776"><ele>932.0</ele><time>2026-05-01T05:37:43Z</time></trkpt><trkpt lat="46.86832355643383" lon="11.48465361210761"><ele>932.0</ele><time>2026-05-01T05:37:44Z</time></trkpt><trkpt lat="46.86842751061391" lon="11.48429600267216"><ele>932.0</ele><time>2026-05-01T05:37:45Z</time></trkpt><trkpt lat="46.86852765911098" lon="11.483935410361834"><ele>931.5</ele><time>2026-05-01T05:37:46Z</time></trkpt><trkpt lat="46.868623639892746" lon="11.483572444720771"><ele>931.0</ele><time>2026-05-01T05:37:47Z</time></trkpt><trkpt lat="46.86872125355141" lon="11.48320675430571"><ele>931.0</ele><time>2026-05-01T05:37:48Z</time></trkpt><trkpt lat="46.86882115366553" lon="11.482844717304571"><ele>931.0</ele><time>2026-05-01T05:37:49Z</time></trkpt><trkpt lat="46.868924447038324" lon="11.482485225012912"><ele>931.0</ele><time>2026-05-01T05:37:50Z</time></trkpt><trkpt lat="46.86903103708275" lon="11.482126445334243"><ele>931.0</ele><time>2026-05-01T05:37:51Z</time></trkpt><trkpt lat="46.86913893820501" lon="11.481763792198322"><ele>930.0</ele><time>2026-05-01T05:37:52Z</time></trkpt><trkpt lat="46.869244970245724" lon="11.481404418724605"><ele>929.0</ele><time>2026-05-01T05:37:53Z</time></trkpt><trkpt lat="46.869350262613374" lon="11.481041511857327"><ele>929.0</ele><time>2026-05-01T05:37:54Z</time></trkpt><trkpt lat="46.86945480203343" lon="11.480677797504828"><ele>929.0</ele><time>2026-05-01T05:37:55Z</time></trkpt><trkpt lat="46.86956013795089" lon="11.48031391800238"><ele>929.5</ele><time>2026-05-01T05:37:56Z</time></trkpt><trkpt lat="46.86966816088829" lon="11.479952568748526"><ele>930.0</ele><time>2026-05-01T05:37:57Z</time></trkpt><trkpt lat="46.86978483661185" lon="11.479595066258907"><ele>930.0</ele><time>2026-05-01T05:37:58Z</time></trkpt><trkpt lat="46.86990492303817" lon="11.479235605245492"><ele>930.0</ele><time>2026-05-01T05:37:59Z</time></trkpt><trkpt lat="46.87002164515081" lon="11.478866431955053"><ele>928.0</ele><time>2026-05-01T05:38:00Z</time></trkpt><trkpt lat="46.87013524732936" lon="11.47849372238162"><ele>926.0</ele><time>2026-05-01T05:38:01Z</time></trkpt><trkpt lat="46.870248076584936" lon="11.478122117306008"><ele>927.0</ele><time>2026-05-01T05:38:02Z</time></trkpt><trkpt lat="46.87035450859772" lon="11.477769693431751"><ele>928.0</ele><time>2026-05-01T05:38:03Z</time></trkpt><trkpt lat="46.87046195500905" lon="11.47742092465191"><ele>929.0</ele><time>2026-05-01T05:38:04Z</time></trkpt><trkpt lat="46.870575180691276" lon="11.477067755961864"><ele>930.0</ele><time>2026-05-01T05:38:05Z</time></trkpt><trkpt lat="46.870694213872085" lon="11.476713204686583"><ele>930.0</ele><time>2026-05-01T05:38:06Z</time></trkpt><trkpt lat="46.87081672030334" lon="11.476361229060515"><ele>930.0</ele><time>2026-05-01T05:38:07Z</time></trkpt><trkpt lat="46.87094140203129" lon="11.47600908874064"><ele>929.0</ele><time>2026-05-01T05:38:08Z</time></trkpt><trkpt lat="46.871067060135864" lon="11.475656824579358"><ele>928.0</ele><time>2026-05-01T05:38:09Z</time></trkpt><trkpt lat="46.87119335313735" lon="11.475305923009648"><ele>928.0</ele><time>2026-05-01T05:38:10.001Z</time></trkpt><trkpt lat="46.87131838906812" lon="11.474954631588977"><ele>928.0</ele><time>2026-05-01T05:38:11.001Z</time></trkpt><trkpt lat="46.87144094528023" lon="11.474605735666549"><ele>929.0</ele><time>2026-05-01T05:38:12.001Z</time></trkpt><trkpt lat="46.871561921401636" lon="11.474259918692951"><ele>930.0</ele><time>2026-05-01T05:38:13.001Z</time></trkpt><trkpt lat="46.871682664248404" lon="11.473914959965517"><ele>930.0</ele><time>2026-05-01T05:38:14.001Z</time></trkpt><trkpt lat="46.87180371801576" lon="11.473568994159693"><ele>930.0</ele><time>2026-05-01T05:38:15.001Z</time></trkpt><trkpt lat="46.871924786870274" lon="11.473223251074858"><ele>930.5</ele><time>2026-05-01T05:38:16.001Z</time></trkpt><trkpt lat="46.872045923052895" lon="11.472877697342161"><ele>931.0</ele><time>2026-05-01T05:38:17.001Z</time></trkpt><trkpt lat="46.87216752610094" lon="11.472531379951254"><ele>931.0</ele><time>2026-05-01T05:38:18.001Z</time></trkpt><trkpt lat="46.8722891519124" lon="11.47218494117441"><ele>931.0</ele><time>2026-05-01T05:38:19.001Z</time></trkpt><trkpt lat="46.872411022909816" lon="11.471838435212272"><ele>930.5</ele><time>2026-05-01T05:38:20.001Z</time></trkpt><trkpt lat="46.87253179130592" lon="11.471491109784793"><ele>930.0</ele><time>2026-05-01T05:38:21.001Z</time></trkpt><trkpt lat="46.87265290283152" lon="11.471144197735805"><ele>929.5</ele><time>2026-05-01T05:38:22.001Z</time></trkpt><trkpt lat="46.87277483488347" lon="11.470796521592673"><ele>929.0</ele><time>2026-05-01T05:38:23.001Z</time></trkpt><trkpt lat="46.872896436597046" lon="11.470450288314176"><ele>929.5</ele><time>2026-05-01T05:38:24.001Z</time></trkpt><trkpt lat="46.873018314329926" lon="11.47010422645716"><ele>930.0</ele><time>2026-05-01T05:38:25.001Z</time></trkpt><trkpt lat="46.873140137626926" lon="11.46975513078294"><ele>931.0</ele><time>2026-05-01T05:38:26.001Z</time></trkpt><trkpt lat="46.87326224186162" lon="11.469406083000743"><ele>932.0</ele><time>2026-05-01T05:38:27.001Z</time></trkpt><trkpt lat="46.87338483941931" lon="11.469058263375906"><ele>932.0</ele><time>2026-05-01T05:38:28.001Z</time></trkpt><trkpt lat="46.87350863224851" lon="11.468709474508497"><ele>932.0</ele><time>2026-05-01T05:38:29.001Z</time></trkpt><trkpt lat="46.87363232939801" lon="11.468360717754662"><ele>932.0</ele><time>2026-05-01T05:38:30.001Z</time></trkpt><trkpt lat="46.87375561897551" lon="11.468013093123535"><ele>932.0</ele><time>2026-05-01T05:38:31.001Z</time></trkpt><trkpt lat="46.873878154531624" lon="11.467665045714215"><ele>932.0</ele><time>2026-05-01T05:38:32.001Z</time></trkpt><trkpt lat="46.8740004565153" lon="11.467315274439246"><ele>932.0</ele><time>2026-05-01T05:38:33.001Z</time></trkpt><trkpt lat="46.874123304653864" lon="11.466962939793309"><ele>932.0</ele><time>2026-05-01T05:38:34.001Z</time></trkpt><trkpt lat="46.87424686896532" lon="11.466613439207597"><ele>932.0</ele><time>2026-05-01T05:38:35.001Z</time></trkpt><trkpt lat="46.874370230832966" lon="11.4662635399482"><ele>933.0</ele><time>2026-05-01T05:38:36.001Z</time></trkpt><trkpt lat="46.87449324346793" lon="11.465916324267017"><ele>934.0</ele><time>2026-05-01T05:38:37.001Z</time></trkpt><trkpt lat="46.87461678554732" lon="11.465567678848021"><ele>934.0</ele><time>2026-05-01T05:38:38.001Z</time></trkpt><trkpt lat="46.874740103730346" lon="11.465218332232565"><ele>934.0</ele><time>2026-05-01T05:38:39.001Z</time></trkpt><trkpt lat="46.874860821264164" lon="11.4648728680878"><ele>933.5</ele><time>2026-05-01T05:38:40.001Z</time></trkpt><trkpt lat="46.874981306218785" lon="11.464523502827408"><ele>933.0</ele><time>2026-05-01T05:38:41.001Z</time></trkpt><trkpt lat="46.8751009496818" lon="11.4641759177175"><ele>932.5</ele><time>2026-05-01T05:38:42.001Z</time></trkpt><trkpt lat="46.875220186785484" lon="11.4638283770141"><ele>932.0</ele><time>2026-05-01T05:38:43.001Z</time></trkpt><trkpt lat="46.87534075401263" lon="11.46348227497997"><ele>932.0</ele><time>2026-05-01T05:38:44.001Z</time></trkpt><trkpt lat="46.87546352661213" lon="11.463137548362914"><ele>932.0</ele><time>2026-05-01T05:38:45.001Z</time></trkpt><trkpt lat="46.87558691568181" lon="11.462792163592965"><ele>932.5</ele><time>2026-05-01T05:38:46.001Z</time></trkpt><trkpt lat="46.87571008509686" lon="11.46244607572214"><ele>933.0</ele><time>2026-05-01T05:38:47.001Z</time></trkpt><trkpt lat="46.875831884839684" lon="11.462100780666674"><ele>932.5</ele><time>2026-05-01T05:38:48.001Z</time></trkpt><trkpt lat="46.8759528089895" lon="11.461755131952408"><ele>932.0</ele><time>2026-05-01T05:38:49.001Z</time></trkpt><trkpt lat="46.87607409080192" lon="11.461408228623952"><ele>932.5</ele><time>2026-05-01T05:38:50.001Z</time></trkpt><trkpt lat="46.87619573195212" lon="11.461061159893326"><ele>933.0</ele><time>2026-05-01T05:38:51.001Z</time></trkpt><trkpt lat="46.876316557378175" lon="11.460716524717602"><ele>932.5</ele><time>2026-05-01T05:38:52.001Z</time></trkpt><trkpt lat="46.87643703856315" lon="11.460372897391851"><ele>932.0</ele><time>2026-05-01T05:38:53.001Z</time></trkpt><trkpt lat="46.87655780817499" lon="11.460027581054957"><ele>932.0</ele><time>2026-05-01T05:38:54.001Z</time></trkpt><trkpt lat="46.876678706907036" lon="11.45968224061066"><ele>932.0</ele><time>2026-05-01T05:38:55.001Z</time></trkpt><trkpt lat="46.87679859299369" lon="11.459338405446987"><ele>932.0</ele><time>2026-05-01T05:38:56.001Z</time></trkpt><trkpt lat="46.8769178264125" lon="11.458995274834427"><ele>932.0</ele><time>2026-05-01T05:38:57.001Z</time></trkpt><trkpt lat="46.87703728600568" lon="11.45865268477405"><ele>932.0</ele><time>2026-05-01T05:38:58.001Z</time></trkpt><trkpt lat="46.87715725582607" lon="11.458310530380437"><ele>932.0</ele><time>2026-05-01T05:38:59.001Z</time></trkpt><trkpt lat="46.877278211078085" lon="11.457969183348974"><ele>933.0</ele><time>2026-05-01T05:39:00.001Z</time></trkpt><trkpt lat="46.877399943192245" lon="11.45762625881089"><ele>934.0</ele><time>2026-05-01T05:39:01.001Z</time></trkpt><trkpt lat="46.87752103323938" lon="11.457283590321508"><ele>933.5</ele><time>2026-05-01T05:39:02.001Z</time></trkpt><trkpt lat="46.877643866273445" lon="11.456940670601892"><ele>933.0</ele><time>2026-05-01T05:39:03.001Z</time></trkpt><trkpt lat="46.877763862260636" lon="11.456599170576599"><ele>933.5</ele><time>2026-05-01T05:39:04.001Z</time></trkpt><trkpt lat="46.877883020926085" lon="11.45625912365055"><ele>934.0</ele><time>2026-05-01T05:39:05.001Z</time></trkpt><trkpt lat="46.87800123467039" lon="11.455921025229161"><ele>934.0</ele><time>2026-05-01T05:39:06.001Z</time></trkpt><trkpt lat="46.87812029406447" lon="11.45558367186095"><ele>934.0</ele><time>2026-05-01T05:39:07.001Z</time></trkpt><trkpt lat="46.87823832662931" lon="11.45524681150185"><ele>934.0</ele><time>2026-05-01T05:39:08.001Z</time></trkpt><trkpt lat="46.87835300921678" lon="11.454919614001819"><ele>934.0</ele><time>2026-05-01T05:39:09.001Z</time></trkpt><trkpt lat="46.878458111013124" lon="11.454607435661284"><ele>934.0</ele><time>2026-05-01T05:39:10.001Z</time></trkpt><trkpt lat="46.87856814242756" lon="11.454301032983588"><ele>934.0</ele><time>2026-05-01T05:39:11.001Z</time></trkpt><trkpt lat="46.878677191521575" lon="11.453996187835164"><ele>934.0</ele><time>2026-05-01T05:39:12Z</time></trkpt><trkpt lat="46.87878597644418" lon="11.453683895285693"><ele>934.0</ele><time>2026-05-01T05:39:13Z</time></trkpt><trkpt lat="46.878893559671425" lon="11.453371745493454"><ele>934.0</ele><time>2026-05-01T05:39:14Z</time></trkpt><trkpt lat="46.87900250279685" lon="11.453057898392018"><ele>934.0</ele><time>2026-05-01T05:39:15Z</time></trkpt><trkpt lat="46.87911178182472" lon="11.45274207797136"><ele>933.5</ele><time>2026-05-01T05:39:16Z</time></trkpt><trkpt lat="46.87922234290939" lon="11.452426160508272"><ele>933.0</ele><time>2026-05-01T05:39:17Z</time></trkpt><trkpt lat="46.87933263316831" lon="11.452110634661649"><ele>934.0</ele><time>2026-05-01T05:39:18Z</time></trkpt><trkpt lat="46.87944330326487" lon="11.451796447676445"><ele>935.0</ele><time>2026-05-01T05:39:19Z</time></trkpt><trkpt lat="46.87955516847186" lon="11.451481466604747"><ele>934.5</ele><time>2026-05-01T05:39:20Z</time></trkpt><trkpt lat="46.8796668054515" lon="11.451167686004025"><ele>934.0</ele><time>2026-05-01T05:39:21Z</time></trkpt><trkpt lat="46.87977802013784" lon="11.450855790493868"><ele>934.0</ele><time>2026-05-01T05:39:22Z</time></trkpt><trkpt lat="46.879885630051604" lon="11.450545576648347"><ele>934.0</ele><time>2026-05-01T05:39:23Z</time></trkpt><trkpt lat="46.87999339276866" lon="11.450236582329943"><ele>934.5</ele><time>2026-05-01T05:39:24Z</time></trkpt><trkpt lat="46.88010127190973" lon="11.449929471867675"><ele>935.0</ele><time>2026-05-01T05:39:25Z</time></trkpt><trkpt lat="46.88020836611762" lon="11.449623639401024"><ele>935.5</ele><time>2026-05-01T05:39:26Z</time></trkpt><trkpt lat="46.880315104037216" lon="11.449319592462338"><ele>936.0</ele><time>2026-05-01T05:39:27Z</time></trkpt><trkpt lat="46.8804198813879" lon="11.449021651226621"><ele>936.5</ele><time>2026-05-01T05:39:28Z</time></trkpt><trkpt lat="46.8805226830844" lon="11.448723291224399"><ele>937.0</ele><time>2026-05-01T05:39:29Z</time></trkpt><trkpt lat="46.88062405459719" lon="11.448428646640428"><ele>937.0</ele><time>2026-05-01T05:39:30Z</time></trkpt><trkpt lat="46.88072298103035" lon="11.448142428804415"><ele>937.0</ele><time>2026-05-01T05:39:31Z</time></trkpt><trkpt lat="46.88082285722512" lon="11.447851551404561"><ele>937.0</ele><time>2026-05-01T05:39:32Z</time></trkpt><trkpt lat="46.88092374041691" lon="11.447564951988348"><ele>936.3333333333333</ele><time>2026-05-01T05:39:33Z</time></trkpt><trkpt lat="46.88102527932351" lon="11.44727885083549"><ele>935.6666666666667</ele><time>2026-05-01T05:39:34Z</time></trkpt><trkpt lat="46.88112673537793" lon="11.446993503047617"><ele>935.0</ele><time>2026-05-01T05:39:35Z</time></trkpt><trkpt lat="46.88122575249063" lon="11.446712119232847"><ele>935.0</ele><time>2026-05-01T05:39:36Z</time></trkpt><trkpt lat="46.881324416714634" lon="11.446428602294894"><ele>935.0</ele><time>2026-05-01T05:39:37Z</time></trkpt><trkpt lat="46.88142589696148" lon="11.446144125756966"><ele>935.0</ele><time>2026-05-01T05:39:38Z</time></trkpt><trkpt lat="46.88152504087453" lon="11.44586016787345"><ele>935.6666666666667</ele><time>2026-05-01T05:39:39Z</time></trkpt><trkpt lat="46.88162347424017" lon="11.445579312611027"><ele>936.3333333333333</ele><time>2026-05-01T05:39:40Z</time></trkpt><trkpt lat="46.88171958764893" lon="11.445299602854229"><ele>937.0</ele><time>2026-05-01T05:39:41Z</time></trkpt><trkpt lat="46.88181414863245" lon="11.445018043058285"><ele>937.0</ele><time>2026-05-01T05:39:42Z</time></trkpt><trkpt lat="46.88189892013772" lon="11.444738380930083"><ele>937.0</ele><time>2026-05-01T05:39:43Z</time></trkpt><trkpt lat="46.881973444604526" lon="11.444458367204227"><ele>937.0</ele><time>2026-05-01T05:39:44Z</time></trkpt><trkpt lat="46.88204242181133" lon="11.444176077695584"><ele>937.6666666666666</ele><time>2026-05-01T05:39:45Z</time></trkpt><trkpt lat="46.88210810436914" lon="11.443895375397387"><ele>938.3333333333333</ele><time>2026-05-01T05:39:46Z</time></trkpt><trkpt lat="46.882173304415616" lon="11.443624855272978"><ele>939.0</ele><time>2026-05-01T05:39:47Z</time></trkpt><trkpt lat="46.8822393834304" lon="11.443362082458869"><ele>939.0</ele><time>2026-05-01T05:39:48Z</time></trkpt><trkpt lat="46.88230710240317" lon="11.443096163711301"><ele>939.0</ele><time>2026-05-01T05:39:49Z</time></trkpt><trkpt lat="46.8823714406648" lon="11.442846678791227"><ele>939.0</ele><time>2026-05-01T05:39:50Z</time></trkpt><trkpt lat="46.882438997135104" lon="11.442610742727368"><ele>939.0</ele><time>2026-05-01T05:39:51Z</time></trkpt><trkpt lat="46.882513717276034" lon="11.442377953113908"><ele>939.0</ele><time>2026-05-01T05:39:52Z</time></trkpt><trkpt lat="46.88259364511488" lon="11.442144629580236"><ele>939.0</ele><time>2026-05-01T05:39:53Z</time></trkpt><trkpt lat="46.88267684650931" lon="11.44191805800265"><ele>938.6666666666667</ele><time>2026-05-01T05:39:54Z</time></trkpt><trkpt lat="46.8827663899263" lon="11.441704646147047"><ele>938.3333333333334</ele><time>2026-05-01T05:39:55Z</time></trkpt><trkpt lat="46.88286464616051" lon="11.441492318674506"><ele>938.0</ele><time>2026-05-01T05:39:56Z</time></trkpt><trkpt lat="46.88296549051927" lon="11.441274072503285"><ele>937.3333333333334</ele><time>2026-05-01T05:39:57Z</time></trkpt><trkpt lat="46.88306807250129" lon="11.441050524569484"><ele>936.6666666666667</ele><time>2026-05-01T05:39:58Z</time></trkpt><trkpt lat="46.883171776897136" lon="11.440827341752923"><ele>936.0</ele><time>2026-05-01T05:39:59Z</time></trkpt><trkpt lat="46.883277418762745" lon="11.440604512242997"><ele>936.0</ele><time>2026-05-01T05:40:00Z</time></trkpt><trkpt lat="46.88338520382785" lon="11.440385120421325"><ele>936.0</ele><time>2026-05-01T05:40:01Z</time></trkpt><trkpt lat="46.883491950300886" lon="11.440165363775607"><ele>936.0</ele><time>2026-05-01T05:40:02Z</time></trkpt><trkpt lat="46.88359340494634" lon="11.439942238051716"><ele>936.0</ele><time>2026-05-01T05:40:03Z</time></trkpt><trkpt lat="46.88368540533164" lon="11.439713314775831"><ele>936.0</ele><time>2026-05-01T05:40:04Z</time></trkpt><trkpt lat="46.88376015894546" lon="11.439472151089186"><ele>936.0</ele><time>2026-05-01T05:40:05Z</time></trkpt><trkpt lat="46.88383133304698" lon="11.439228136213071"><ele>937.0</ele><time>2026-05-01T05:40:06Z</time></trkpt><trkpt lat="46.88390185690335" lon="11.438986420299377"><ele>938.0</ele><time>2026-05-01T05:40:07Z</time></trkpt><trkpt lat="46.88396992507587" lon="11.438746960171557"><ele>939.0</ele><time>2026-05-01T05:40:08Z</time></trkpt><trkpt lat="46.88403563565486" lon="11.438511625278842"><ele>939.3333333333333</ele><time>2026-05-01T05:40:09Z</time></trkpt><trkpt lat="46.88410074975257" lon="11.438277225962057"><ele>939.6666666666666</ele><time>2026-05-01T05:40:10Z</time></trkpt><trkpt lat="46.884166050732404" lon="11.43804601901939"><ele>940.0</ele><time>2026-05-01T05:40:11Z</time></trkpt><trkpt lat="46.88423110065052" lon="11.437822893283581"><ele>940.0</ele><time>2026-05-01T05:40:12Z</time></trkpt><trkpt lat="46.88429369998167" lon="11.43760712914817"><ele>940.0</ele><time>2026-05-01T05:40:13Z</time></trkpt><trkpt lat="46.884351945743454" lon="11.43740515708271"><ele>940.0</ele><time>2026-05-01T05:40:14Z</time></trkpt><trkpt lat="46.88440689021867" lon="11.437217755521324"><ele>940.0</ele><time>2026-05-01T05:40:15Z</time></trkpt><trkpt lat="46.88445979022298" lon="11.437041025807002"><ele>940.0</ele><time>2026-05-01T05:40:16Z</time></trkpt><trkpt lat="46.88451199539724" lon="11.436875934544705"><ele>940.0</ele><time>2026-05-01T05:40:17Z</time></trkpt><trkpt lat="46.884565596277945" lon="11.436720131167169"><ele>940.0</ele><time>2026-05-01T05:40:18Z</time></trkpt><trkpt lat="46.88462201826721" lon="11.43657233840699"><ele>940.0</ele><time>2026-05-01T05:40:19Z</time></trkpt><trkpt lat="46.88468078514647" lon="11.436427378359536"><ele>940.2</ele><time>2026-05-01T05:40:20Z</time></trkpt><trkpt lat="46.88473491753683" lon="11.436281799432466"><ele>940.4</ele><time>2026-05-01T05:40:21Z</time></trkpt><trkpt lat="46.88478512076625" lon="11.4361364456343"><ele>940.5999999999999</ele><time>2026-05-01T05:40:22.001Z</time></trkpt><trkpt lat="46.884827043767736" lon="11.435991496289764"><ele>940.8</ele><time>2026-05-01T05:40:23.001Z</time></trkpt><trkpt lat="46.88486818191172" lon="11.43584785250496"><ele>941.0</ele><time>2026-05-01T05:40:24.001Z</time></trkpt><trkpt lat="46.884905171980755" lon="11.435709219002065"><ele>941.0000000000001</ele><time>2026-05-01T05:40:25.001Z</time></trkpt><trkpt lat="46.884937597868515" lon="11.435586854711769"><ele>941.0</ele><time>2026-05-01T05:40:26.001Z</time></trkpt><trkpt lat="46.884968427784486" lon="11.435471124446483"><ele>941.0</ele><time>2026-05-01T05:40:27.001Z</time></trkpt><trkpt lat="46.88499714588023" lon="11.435360625127418"><ele>941.0</ele><time>2026-05-01T05:40:28.001Z</time></trkpt><trkpt lat="46.88502403342938" lon="11.435254588641463"><ele>941.0000000000001</ele><time>2026-05-01T05:40:29.001Z</time></trkpt><trkpt lat="46.88504981493018" lon="11.435152232753936"><ele>941.0</ele><time>2026-05-01T05:40:30.001Z</time></trkpt><trkpt lat="46.885075602431876" lon="11.435060573950198"><ele>940.8333333333334</ele><time>2026-05-01T05:40:31.001Z</time></trkpt><trkpt lat="46.88511565014509" lon="11.434923787030597"><ele>940.6666666666667</ele><time>2026-05-01T05:40:33.001Z</time></trkpt><trkpt lat="46.88514061142175" lon="11.434827230659163"><ele>940.5</ele><time>2026-05-01T05:40:35.001Z</time></trkpt><trkpt lat="46.88517963416853" lon="11.434750673108798"><ele>940.3333333333333</ele><time>2026-05-01T05:41:36Z</time></trkpt><trkpt lat="46.88521673777321" lon="11.434637727220933"><ele>940.1666666666666</ele><time>2026-05-01T05:41:39Z</time></trkpt><trkpt lat="46.885312356942094" lon="11.434623928882482"><ele>940.0</ele><time>2026-05-01T05:42:22Z</time></trkpt><trkpt lat="46.8853537917212" lon="11.434470018196707"><ele>939.8</ele><time>2026-05-01T05:42:24Z</time></trkpt><trkpt lat="46.88538438486529" lon="11.434356379089657"><ele>939.6</ele><time>2026-05-01T05:42:25Z</time></trkpt><trkpt lat="46.88541474508441" lon="11.43424360515489"><ele>939.4000000000001</ele><time>2026-05-01T05:42:26Z</time></trkpt><trkpt lat="46.88545065183961" lon="11.434110228479023"><ele>939.2</ele><time>2026-05-01T05:42:27Z</time></trkpt><trkpt lat="46.885492060384244" lon="11.43395641523538"><ele>939.0</ele><time>2026-05-01T05:42:28Z</time></trkpt><trkpt lat="46.885535119566185" lon="11.433796138086523"><ele>938.75</ele><time>2026-05-01T05:42:29Z</time></trkpt><trkpt lat="46.88557989838277" lon="11.433625174201396"><ele>938.5</ele><time>2026-05-01T05:42:30Z</time></trkpt><trkpt lat="46.8856303568469" lon="11.433439841075"><ele>938.25</ele><time>2026-05-01T05:42:31Z</time></trkpt><trkpt lat="46.885675679135" lon="11.433224827348898"><ele>938.0</ele><time>2026-05-01T05:42:32Z</time></trkpt><trkpt lat="46.8857071066929" lon="11.433015780552982"><ele>938.75</ele><time>2026-05-01T05:42:33.001Z</time></trkpt><trkpt lat="46.88573415071144" lon="11.432808976248147"><ele>939.5</ele><time>2026-05-01T05:42:34.001Z</time></trkpt><trkpt lat="46.88575175782122" lon="11.432604632133309"><ele>940.25</ele><time>2026-05-01T05:42:35.001Z</time></trkpt><trkpt lat="46.88580002320568" lon="11.432414625904105"><ele>941.0</ele><time>2026-05-01T05:42:36.001Z</time></trkpt><trkpt lat="46.885842779274576" lon="11.432243483581248"><ele>941.4</ele><time>2026-05-01T05:42:37.001Z</time></trkpt><trkpt lat="46.885882440837875" lon="11.432084280251987"><ele>941.8</ele><time>2026-05-01T05:42:38.001Z</time></trkpt><trkpt lat="46.88591769392418" lon="11.431941194694103"><ele>942.1999999999999</ele><time>2026-05-01T05:42:39.001Z</time></trkpt><trkpt lat="46.885949476967966" lon="11.4318082386622"><ele>942.5999999999999</ele><time>2026-05-01T05:42:40.001Z</time></trkpt><trkpt lat="46.88598194439812" lon="11.431669315795313"><ele>943.0</ele><time>2026-05-01T05:42:41.001Z</time></trkpt><trkpt lat="46.88601605553086" lon="11.431526732475444"><ele>943.0</ele><time>2026-05-01T05:42:42.001Z</time></trkpt><trkpt lat="46.886052031724226" lon="11.431381827060362"><ele>943.0</ele><time>2026-05-01T05:42:43.001Z</time></trkpt><trkpt lat="46.88609205465324" lon="11.43123910163899"><ele>943.0</ele><time>2026-05-01T05:42:44.001Z</time></trkpt><trkpt lat="46.88613737777182" lon="11.431097517738356"><ele>943.0</ele><time>2026-05-01T05:42:45.001Z</time></trkpt><trkpt lat="46.886184689450985" lon="11.430957509325028"><ele>943.0</ele><time>2026-05-01T05:42:46.001Z</time></trkpt><trkpt lat="46.886228228585814" lon="11.430827726703964"><ele>942.4999999999999</ele><time>2026-05-01T05:42:47.001Z</time></trkpt><trkpt lat="46.88626483999935" lon="11.430712771626837"><ele>942.0</ele><time>2026-05-01T05:42:48.001Z</time></trkpt><trkpt lat="46.88629939871132" lon="11.430595846983833"><ele>941.5</ele><time>2026-05-01T05:42:49.001Z</time></trkpt><trkpt lat="46.88632881417849" lon="11.43049499874083"><ele>941.0</ele><time>2026-05-01T05:42:50.001Z</time></trkpt><trkpt lat="46.886372754458385" lon="11.430364906089855"><ele>940.4999999999999</ele><time>2026-05-01T05:42:52.001Z</time></trkpt><trkpt lat="46.886395274570035" lon="11.430251896789152"><ele>940.0</ele><time>2026-05-01T05:46:11Z</time></trkpt><trkpt lat="46.88642257231415" lon="11.430087735340942"><ele>940.0</ele><time>2026-05-01T05:46:13Z</time></trkpt><trkpt lat="46.88644495350013" lon="11.429968629604325"><ele>940.0</ele><time>2026-05-01T05:46:14Z</time></trkpt><trkpt lat="46.88648139545044" lon="11.429826153343642"><ele>940.0</ele><time>2026-05-01T05:46:15Z</time></trkpt><trkpt lat="46.88652644053336" lon="11.429695341486438"><ele>940.0</ele><time>2026-05-01T05:46:16Z</time></trkpt><trkpt lat="46.88658738451616" lon="11.429542697820624"><ele>940.0</ele><time>2026-05-01T05:46:17Z</time></trkpt><trkpt lat="46.88665697431183" lon="11.429370392502424"><ele>939.75</ele><time>2026-05-01T05:46:18Z</time></trkpt><trkpt lat="46.88673359753761" lon="11.429186179327433"><ele>939.5</ele><time>2026-05-01T05:46:19Z</time></trkpt><trkpt lat="46.88681030478242" lon="11.42901173854267"><ele>939.25</ele><time>2026-05-01T05:46:20Z</time></trkpt><trkpt lat="46.886893157886206" lon="11.428827402356612"><ele>939.0</ele><time>2026-05-01T05:46:21Z</time></trkpt><trkpt lat="46.88698447165525" lon="11.42863133562179"><ele>940.0</ele><time>2026-05-01T05:46:22Z</time></trkpt><trkpt lat="46.88708653993999" lon="11.4284215354855"><ele>941.0</ele><time>2026-05-01T05:46:23Z</time></trkpt><trkpt lat="46.887191360832645" lon="11.428216616615938"><ele>942.0</ele><time>2026-05-01T05:46:24Z</time></trkpt><trkpt lat="46.887300896433025" lon="11.428015136772347"><ele>943.6666666666667</ele><time>2026-05-01T05:46:25Z</time></trkpt><trkpt lat="46.88742311776795" lon="11.427806818307456"><ele>945.3333333333334</ele><time>2026-05-01T05:46:26Z</time></trkpt><trkpt lat="46.887556458078464" lon="11.427588165965181"><ele>947.0</ele><time>2026-05-01T05:46:27Z</time></trkpt><trkpt lat="46.8876977614478" lon="11.427370303208836"><ele>950.6666666666667</ele><time>2026-05-01T05:46:28Z</time></trkpt><trkpt lat="46.88785035291577" lon="11.42714349834462"><ele>954.3333333333333</ele><time>2026-05-01T05:46:29Z</time></trkpt><trkpt lat="46.888014045624004" lon="11.426918735382165"><ele>958.0</ele><time>2026-05-01T05:46:30Z</time></trkpt><trkpt lat="46.88817881070786" lon="11.426704869027171"><ele>958.0</ele><time>2026-05-01T05:46:31Z</time></trkpt><trkpt lat="46.88835195577894" lon="11.426490684252844"><ele>958.0</ele><time>2026-05-01T05:46:32Z</time></trkpt><trkpt lat="46.88853224637337" lon="11.426282230564894"><ele>959.0</ele><time>2026-05-01T05:46:33Z</time></trkpt><trkpt lat="46.8887243479837" lon="11.42607822520081"><ele>960.0</ele><time>2026-05-01T05:46:34.001Z</time></trkpt><trkpt lat="46.88892795337382" lon="11.425882176142887"><ele>960.0</ele><time>2026-05-01T05:46:35.001Z</time></trkpt><trkpt lat="46.88914046935335" lon="11.425692035384458"><ele>960.0</ele><time>2026-05-01T05:46:36.001Z</time></trkpt><trkpt lat="46.88936097427098" lon="11.42550849947751"><ele>963.5</ele><time>2026-05-01T05:46:37.001Z</time></trkpt><trkpt lat="46.88958520438998" lon="11.425334429384826"><ele>967.0</ele><time>2026-05-01T05:46:38.001Z</time></trkpt><trkpt lat="46.889810581574636" lon="11.425172797872138"><ele>967.0</ele><time>2026-05-01T05:46:39.001Z</time></trkpt><trkpt lat="46.89004323292897" lon="11.425018808621148"><ele>967.0</ele><time>2026-05-01T05:46:40.001Z</time></trkpt><trkpt lat="46.890282304354294" lon="11.42487700304939"><ele>968.0</ele><time>2026-05-01T05:46:41.001Z</time></trkpt><trkpt lat="46.89052683187871" lon="11.424748004160962"><ele>969.0</ele><time>2026-05-01T05:46:42.001Z</time></trkpt><trkpt lat="46.89077643963733" lon="11.424633278488587"><ele>969.0</ele><time>2026-05-01T05:46:43.001Z</time></trkpt><trkpt lat="46.89102968749654" lon="11.424530497397827"><ele>969.0</ele><time>2026-05-01T05:46:44.001Z</time></trkpt><trkpt lat="46.891287767472484" lon="11.424439533036969"><ele>969.0</ele><time>2026-05-01T05:46:45.001Z</time></trkpt><trkpt lat="46.89154751179737" lon="11.424362840761157"><ele>969.0</ele><time>2026-05-01T05:46:46.001Z</time></trkpt><trkpt lat="46.891811317539" lon="11.424298681689235"><ele>969.5</ele><time>2026-05-01T05:46:47.001Z</time></trkpt><trkpt lat="46.89207906598794" lon="11.424249343701911"><ele>970.0</ele><time>2026-05-01T05:46:48.001Z</time></trkpt><trkpt lat="46.89235079973526" lon="11.424214388678314"><ele>971.5</ele><time>2026-05-01T05:46:49.001Z</time></trkpt><trkpt lat="46.892624072774865" lon="11.424191725660881"><ele>973.0</ele><time>2026-05-01T05:46:50.001Z</time></trkpt><trkpt lat="46.89290008418273" lon="11.424175631222854"><ele>973.0</ele><time>2026-05-01T05:46:51.001Z</time></trkpt><trkpt lat="46.893174246224376" lon="11.424160976483964"><ele>973.0</ele><time>2026-05-01T05:46:52.001Z</time></trkpt><trkpt lat="46.89343437480691" lon="11.424147694525034"><ele>973.5</ele><time>2026-05-01T05:46:53.001Z</time></trkpt><trkpt lat="46.893686933086215" lon="11.424135602945732"><ele>974.0</ele><time>2026-05-01T05:46:54.001Z</time></trkpt><trkpt lat="46.89393970331364" lon="11.424120193283933"><ele>974.0</ele><time>2026-05-01T05:46:55.001Z</time></trkpt><trkpt lat="46.8941927000778" lon="11.424099324196241"><ele>974.0</ele><time>2026-05-01T05:46:56.001Z</time></trkpt><trkpt lat="46.894446681444116" lon="11.424073273504947"><ele>976.0</ele><time>2026-05-01T05:46:57.001Z</time></trkpt><trkpt lat="46.89470333000698" lon="11.424048141418407"><ele>978.0</ele><time>2026-05-01T05:46:58.001Z</time></trkpt><trkpt lat="46.89496216947469" lon="11.424024637873098"><ele>978.5</ele><time>2026-05-01T05:46:59.001Z</time></trkpt><trkpt lat="46.89522478801834" lon="11.424004324889069"><ele>979.0</ele><time>2026-05-01T05:47:00.001Z</time></trkpt><trkpt lat="46.8954899581076" lon="11.423988148874203"><ele>979.0</ele><time>2026-05-01T05:47:01.001Z</time></trkpt><trkpt lat="46.895756383612856" lon="11.423974444822331"><ele>979.0</ele><time>2026-05-01T05:47:02.001Z</time></trkpt><trkpt lat="46.896024686824724" lon="11.423961800748836"><ele>981.5</ele><time>2026-05-01T05:47:03.001Z</time></trkpt><trkpt lat="46.896292084819784" lon="11.423948493877745"><ele>984.0</ele><time>2026-05-01T05:47:04.001Z</time></trkpt><trkpt lat="46.896561135697794" lon="11.42393530595718"><ele>986.0</ele><time>2026-05-01T05:47:05.001Z</time></trkpt><trkpt lat="46.896833133115024" lon="11.423924173824838"><ele>988.0</ele><time>2026-05-01T05:47:06.001Z</time></trkpt><trkpt lat="46.897107621336495" lon="11.423913674368944"><ele>988.0</ele><time>2026-05-01T05:47:07.001Z</time></trkpt><trkpt lat="46.89738305541176" lon="11.423901724665821"><ele>988.0</ele><time>2026-05-01T05:47:08.001Z</time></trkpt><trkpt lat="46.89765735717928" lon="11.423889145664564"><ele>987.5</ele><time>2026-05-01T05:47:09.001Z</time></trkpt><trkpt lat="46.89793295762863" lon="11.423873924233028"><ele>987.0</ele><time>2026-05-01T05:47:10.001Z</time></trkpt><trkpt lat="46.89820661466568" lon="11.42385953959075"><ele>987.5</ele><time>2026-05-01T05:47:11.001Z</time></trkpt><trkpt lat="46.89847712985541" lon="11.423848505610081"><ele>988.0</ele><time>2026-05-01T05:47:12.001Z</time></trkpt><trkpt lat="46.898743244080045" lon="11.42383985044574"><ele>988.0</ele><time>2026-05-01T05:47:13.001Z</time></trkpt><trkpt lat="46.89900570189564" lon="11.42384171825793"><ele>988.0</ele><time>2026-05-01T05:47:14.001Z</time></trkpt><trkpt lat="46.89926957676641" lon="11.423857282115126"><ele>994.0</ele><time>2026-05-01T05:47:15.001Z</time></trkpt><trkpt lat="46.89953253084833" lon="11.423902107288965"><ele>1000.0</ele><time>2026-05-01T05:47:16.001Z</time></trkpt><trkpt lat="46.89979215870803" lon="11.423971083525075"><ele>1000.0</ele><time>2026-05-01T05:47:17.001Z</time></trkpt><trkpt lat="46.90004802990645" lon="11.42406348011557"><ele>1000.0</ele><time>2026-05-01T05:47:18.001Z</time></trkpt><trkpt lat="46.90029793573607" lon="11.424182919075674"><ele>1005.0</ele><time>2026-05-01T05:47:19.001Z</time></trkpt><trkpt lat="46.90054076446208" lon="11.42432764796341"><ele>1010.0</ele><time>2026-05-01T05:47:20.001Z</time></trkpt><trkpt lat="46.90077614089402" lon="11.424500383162167"><ele>1007.0</ele><time>2026-05-01T05:47:21.001Z</time></trkpt><trkpt lat="46.901002796989395" lon="11.42469233599237"><ele>1004.0</ele><time>2026-05-01T05:47:22.001Z</time></trkpt><trkpt lat="46.90123295150382" lon="11.424892640065059"><ele>1004.0</ele><time>2026-05-01T05:47:23.001Z</time></trkpt><trkpt lat="46.90146189444023" lon="11.425094767091084"><ele>1004.0</ele><time>2026-05-01T05:47:24.001Z</time></trkpt><trkpt lat="46.901688931545145" lon="11.42529679900041"><ele>1007.5</ele><time>2026-05-01T05:47:25.001Z</time></trkpt><trkpt lat="46.90191806416831" lon="11.425495741116654"><ele>1011.0</ele><time>2026-05-01T05:47:26.001Z</time></trkpt><trkpt lat="46.902147227478636" lon="11.4256934925572"><ele>1011.0</ele><time>2026-05-01T05:47:27.001Z</time></trkpt><trkpt lat="46.90237633946248" lon="11.425892660154425"><ele>1011.0</ele><time>2026-05-01T05:47:28.001Z</time></trkpt><trkpt lat="46.90260404645174" lon="11.42609661385111"><ele>1016.0</ele><time>2026-05-01T05:47:29.001Z</time></trkpt><trkpt lat="46.90283176597178" lon="11.426300811033329"><ele>1021.0</ele><time>2026-05-01T05:47:30.001Z</time></trkpt><trkpt lat="46.903063504676524" lon="11.42650029477047"><ele>1021.0</ele><time>2026-05-01T05:47:31.001Z</time></trkpt><trkpt lat="46.90329645577907" lon="11.426689647565208"><ele>1021.0</ele><time>2026-05-01T05:47:32.001Z</time></trkpt><trkpt lat="46.90353585532383" lon="11.4268639528093"><ele>1019.5</ele><time>2026-05-01T05:47:33.001Z</time></trkpt><trkpt lat="46.90377862000394" lon="11.42701836097138"><ele>1018.0</ele><time>2026-05-01T05:47:34.001Z</time></trkpt><trkpt lat="46.90402753792966" lon="11.42715619114056"><ele>1021.0</ele><time>2026-05-01T05:47:35.001Z</time></trkpt><trkpt lat="46.904278536925425" lon="11.427279427574733"><ele>1024.0</ele><time>2026-05-01T05:47:36Z</time></trkpt><trkpt lat="46.90452889024394" lon="11.427385179776026"><ele>1024.0</ele><time>2026-05-01T05:47:37Z</time></trkpt><trkpt lat="46.90478257956816" lon="11.42747839666108"><ele>1024.0</ele><time>2026-05-01T05:47:38Z</time></trkpt><trkpt lat="46.90503847665573" lon="11.427552729431847"><ele>1025.5</ele><time>2026-05-01T05:47:39Z</time></trkpt><trkpt lat="46.90529742260438" lon="11.427609660656167"><ele>1027.0</ele><time>2026-05-01T05:47:40Z</time></trkpt><trkpt lat="46.905557368310795" lon="11.427660069130278"><ele>1027.0</ele><time>2026-05-01T05:47:41Z</time></trkpt><trkpt lat="46.90581597163284" lon="11.427710210625428"><ele>1027.0</ele><time>2026-05-01T05:47:42Z</time></trkpt><trkpt lat="46.9060751174983" lon="11.427766430741023"><ele>1035.5</ele><time>2026-05-01T05:47:43Z</time></trkpt><trkpt lat="46.9063341744733" lon="11.427825727418906"><ele>1044.0</ele><time>2026-05-01T05:47:44Z</time></trkpt><trkpt lat="46.90659536341954" lon="11.427885290158134"><ele>1047.5</ele><time>2026-05-01T05:47:45Z</time></trkpt><trkpt lat="46.9068611187631" lon="11.427940097426472"><ele>1051.0</ele><time>2026-05-01T05:47:46Z</time></trkpt><trkpt lat="46.90712502931679" lon="11.427994478356906"><ele>1045.0</ele><time>2026-05-01T05:47:47Z</time></trkpt><trkpt lat="46.907392727029595" lon="11.428047820593388"><ele>1039.0</ele><time>2026-05-01T05:47:48Z</time></trkpt><trkpt lat="46.90765907455815" lon="11.428095798208108"><ele>1039.0</ele><time>2026-05-01T05:47:49Z</time></trkpt><trkpt lat="46.907928309080845" lon="11.428143115043554"><ele>1039.0</ele><time>2026-05-01T05:47:50Z</time></trkpt><trkpt lat="46.90819966536977" lon="11.428195153902696"><ele>1039.5</ele><time>2026-05-01T05:47:51Z</time></trkpt><trkpt lat="46.90846992062854" lon="11.42825307368164"><ele>1040.0</ele><time>2026-05-01T05:47:52Z</time></trkpt><trkpt lat="46.90873946631916" lon="11.428323312989335"><ele>1040.0</ele><time>2026-05-01T05:47:53Z</time></trkpt><trkpt lat="46.9090068788707" lon="11.428419291857912"><ele>1040.0</ele><time>2026-05-01T05:47:54Z</time></trkpt><trkpt lat="46.909266878886584" lon="11.428539917611111"><ele>1039.0</ele><time>2026-05-01T05:47:55Z</time></trkpt><trkpt lat="46.90952125059252" lon="11.428677718715033"><ele>1038.0</ele><time>2026-05-01T05:47:56Z</time></trkpt><trkpt lat="46.909767742445645" lon="11.428839473578252"><ele>1038.0</ele><time>2026-05-01T05:47:57Z</time></trkpt><trkpt lat="46.91001290228501" lon="11.429021045252385"><ele>1038.0</ele><time>2026-05-01T05:47:58Z</time></trkpt><trkpt lat="46.910255444315396" lon="11.429207896555347"><ele>1044.5</ele><time>2026-05-01T05:47:59Z</time></trkpt><trkpt lat="46.91049806383503" lon="11.429403711199855"><ele>1051.0</ele><time>2026-05-01T05:48:00Z</time></trkpt><trkpt lat="46.910732475568544" lon="11.42961302360945"><ele>1057.0</ele><time>2026-05-01T05:48:01Z</time></trkpt><trkpt lat="46.91095287259026" lon="11.429837655087232"><ele>1063.0</ele><time>2026-05-01T05:48:02Z</time></trkpt><trkpt lat="46.91116587873409" lon="11.430074586818701"><ele>1063.0</ele><time>2026-05-01T05:48:03Z</time></trkpt><trkpt lat="46.91137234088673" lon="11.430321627903556"><ele>1063.0</ele><time>2026-05-01T05:48:04Z</time></trkpt><trkpt lat="46.91157419896587" lon="11.43058100505957"><ele>1068.0</ele><time>2026-05-01T05:48:05Z</time></trkpt><trkpt lat="46.911774125843195" lon="11.430844853537804"><ele>1073.0</ele><time>2026-05-01T05:48:06Z</time></trkpt><trkpt lat="46.911973405038246" lon="11.431109680973115"><ele>1068.0</ele><time>2026-05-01T05:48:07Z</time></trkpt><trkpt lat="46.9121741818626" lon="11.431374150881537"><ele>1063.0</ele><time>2026-05-01T05:48:08Z</time></trkpt><trkpt lat="46.91237460599444" lon="11.431636234267199"><ele>1065.5</ele><time>2026-05-01T05:48:09Z</time></trkpt><trkpt lat="46.912573221270996" lon="11.431897605907233"><ele>1068.0</ele><time>2026-05-01T05:48:10Z</time></trkpt><trkpt lat="46.91276354106027" lon="11.432152143745746"><ele>1068.0</ele><time>2026-05-01T05:48:11Z</time></trkpt><trkpt lat="46.91294343147486" lon="11.432394386656846"><ele>1068.0</ele><time>2026-05-01T05:48:12Z</time></trkpt><trkpt lat="46.91312980203333" lon="11.432641134684296"><ele>1068.0</ele><time>2026-05-01T05:48:13Z</time></trkpt><trkpt lat="46.91332236884375" lon="11.432891410241258"><ele>1068.0</ele><time>2026-05-01T05:48:14Z</time></trkpt><trkpt lat="46.91351871344103" lon="11.433143855478331"><ele>1073.0</ele><time>2026-05-01T05:48:15Z</time></trkpt><trkpt lat="46.91371871865629" lon="11.433401238240712"><ele>1078.0</ele><time>2026-05-01T05:48:16Z</time></trkpt><trkpt lat="46.913921710224706" lon="11.43366325756661"><ele>1081.5</ele><time>2026-05-01T05:48:17Z</time></trkpt><trkpt lat="46.914124082438704" lon="11.433929632397021"><ele>1085.0</ele><time>2026-05-01T05:48:18Z</time></trkpt><trkpt lat="46.91432846439261" lon="11.434196201025351"><ele>1085.0</ele><time>2026-05-01T05:48:19Z</time></trkpt><trkpt lat="46.91453132431552" lon="11.434459702893463"><ele>1085.0</ele><time>2026-05-01T05:48:20Z</time></trkpt><trkpt lat="46.91473253988119" lon="11.434725379376973"><ele>1081.0</ele><time>2026-05-01T05:48:21Z</time></trkpt><trkpt lat="46.91492909833322" lon="11.434994945140495"><ele>1077.0</ele><time>2026-05-01T05:48:22Z</time></trkpt><trkpt lat="46.9151184181111" lon="11.435270523623993"><ele>1082.0</ele><time>2026-05-01T05:48:23Z</time></trkpt><trkpt lat="46.915301145098596" lon="11.435554549682095"><ele>1087.0</ele><time>2026-05-01T05:48:24Z</time></trkpt><trkpt lat="46.91547399712194" lon="11.435849231864184"><ele>1087.0</ele><time>2026-05-01T05:48:25Z</time></trkpt><trkpt lat="46.915639825089855" lon="11.43615855261744"><ele>1087.0</ele><time>2026-05-01T05:48:26Z</time></trkpt><trkpt lat="46.9157983713972" lon="11.436478191970728"><ele>1096.0</ele><time>2026-05-01T05:48:27Z</time></trkpt><trkpt lat="46.91595111845248" lon="11.43680250534569"><ele>1105.0</ele><time>2026-05-01T05:48:28Z</time></trkpt><trkpt lat="46.916100524420365" lon="11.437131153585595"><ele>1099.0</ele><time>2026-05-01T05:48:29Z</time></trkpt><trkpt lat="46.916248604511985" lon="11.437462957544287"><ele>1093.0</ele><time>2026-05-01T05:48:30Z</time></trkpt><trkpt lat="46.91639592912173" lon="11.43779096294035"><ele>1090.0</ele><time>2026-05-01T05:48:31Z</time></trkpt><trkpt lat="46.91654199645412" lon="11.438118061533764"><ele>1087.0</ele><time>2026-05-01T05:48:32Z</time></trkpt><trkpt lat="46.91668643016385" lon="11.438444985078284"><ele>1103.5</ele><time>2026-05-01T05:48:33Z</time></trkpt><trkpt lat="46.916828851164475" lon="11.438772779247465"><ele>1120.0</ele><time>2026-05-01T05:48:34Z</time></trkpt><trkpt lat="46.91697116275239" lon="11.439100463456015"><ele>1120.0</ele><time>2026-05-01T05:48:35Z</time></trkpt><trkpt lat="46.9171134718661" lon="11.439425590176057"><ele>1120.0</ele><time>2026-05-01T05:48:36Z</time></trkpt><trkpt lat="46.917259033282825" lon="11.439745770344564"><ele>1112.0</ele><time>2026-05-01T05:48:37Z</time></trkpt><trkpt lat="46.91740892712572" lon="11.440059828737878"><ele>1104.0</ele><time>2026-05-01T05:48:38Z</time></trkpt><trkpt lat="46.917564633959294" lon="11.44036558971924"><ele>1111.5</ele><time>2026-05-01T05:48:39Z</time></trkpt><trkpt lat="46.91774005591199" lon="11.440650612020601"><ele>1119.0</ele><time>2026-05-01T05:48:40Z</time></trkpt><trkpt lat="46.91792357144435" lon="11.440927006183525"><ele>1119.0</ele><time>2026-05-01T05:48:41Z</time></trkpt><trkpt lat="46.91811714281472" lon="11.441192522255573"><ele>1119.0</ele><time>2026-05-01T05:48:42Z</time></trkpt><trkpt lat="46.918320378912235" lon="11.441441412680346"><ele>1123.0</ele><time>2026-05-01T05:48:43Z</time></trkpt><trkpt lat="46.91853575001682" lon="11.441668119554395"><ele>1127.0</ele><time>2026-05-01T05:48:44Z</time></trkpt><trkpt lat="46.91876067807111" lon="11.441879259246093"><ele>1127.0</ele><time>2026-05-01T05:48:45Z</time></trkpt><trkpt lat="46.918994344987844" lon="11.442074140050332"><ele>1127.0</ele><time>2026-05-01T05:48:46Z</time></trkpt><trkpt lat="46.91923482994024" lon="11.44225300611836"><ele>1119.5</ele><time>2026-05-01T05:48:47Z</time></trkpt><trkpt lat="46.91948220637368" lon="11.442412977512411"><ele>1112.0</ele><time>2026-05-01T05:48:48Z</time></trkpt><trkpt lat="46.91973438564318" lon="11.442554398027623"><ele>1112.0</ele><time>2026-05-01T05:48:49Z</time></trkpt><trkpt lat="46.91999055592797" lon="11.442676312222845"><ele>1112.0</ele><time>2026-05-01T05:48:50Z</time></trkpt><trkpt lat="46.92024773701805" lon="11.442792707597235"><ele>1102.0</ele><time>2026-05-01T05:48:51Z</time></trkpt><trkpt lat="46.920507546964785" lon="11.44289494426727"><ele>1092.0</ele><time>2026-05-01T05:48:52Z</time></trkpt><trkpt lat="46.92077258646641" lon="11.44298290073358"><ele>1099.5</ele><time>2026-05-01T05:48:53Z</time></trkpt><trkpt lat="46.921040076519496" lon="11.443060724575732"><ele>1107.0</ele><time>2026-05-01T05:48:54.001Z</time></trkpt><trkpt lat="46.92130992080744" lon="11.443130824090249"><ele>1107.0</ele><time>2026-05-01T05:48:55.001Z</time></trkpt><trkpt lat="46.92158328098416" lon="11.443190775369862"><ele>1107.0</ele><time>2026-05-01T05:48:56.001Z</time></trkpt><trkpt lat="46.92185582329038" lon="11.443243259640932"><ele>1110.0</ele><time>2026-05-01T05:48:57.001Z</time></trkpt><trkpt lat="46.92213360462039" lon="11.443289167914095"><ele>1113.0</ele><time>2026-05-01T05:48:58.001Z</time></trkpt><trkpt lat="46.92241397663859" lon="11.443333688980056"><ele>1115.0</ele><time>2026-05-01T05:48:59.001Z</time></trkpt><trkpt lat="46.922691771244" lon="11.443375481073923"><ele>1117.0</ele><time>2026-05-01T05:49:00.001Z</time></trkpt><trkpt lat="46.92295822714889" lon="11.443411160568909"><ele>1117.0</ele><time>2026-05-01T05:49:01.001Z</time></trkpt><trkpt lat="46.92320930803982" lon="11.44344094614745"><ele>1117.0</ele><time>2026-05-01T05:49:02.001Z</time></trkpt><trkpt lat="46.92345831223638" lon="11.44347177029231"><ele>1120.0</ele><time>2026-05-01T05:49:03.001Z</time></trkpt><trkpt lat="46.923711970702975" lon="11.44350512900642"><ele>1123.0</ele><time>2026-05-01T05:49:04.001Z</time></trkpt><trkpt lat="46.92396474364024" lon="11.44354045624093"><ele>1123.0</ele><time>2026-05-01T05:49:05.001Z</time></trkpt><trkpt lat="46.924215301624095" lon="11.443589231837262"><ele>1123.0</ele><time>2026-05-01T05:49:06.001Z</time></trkpt><trkpt lat="46.924463390043776" lon="11.443654131710188"><ele>1125.0</ele><time>2026-05-01T05:49:07.001Z</time></trkpt><trkpt lat="46.92470749928366" lon="11.443741082102536"><ele>1127.0</ele><time>2026-05-01T05:49:08.001Z</time></trkpt><trkpt lat="46.92494492759914" lon="11.44385584010065"><ele>1122.0</ele><time>2026-05-01T05:49:09.001Z</time></trkpt><trkpt lat="46.92517261349793" lon="11.444001712454716"><ele>1117.0</ele><time>2026-05-01T05:49:10.001Z</time></trkpt><trkpt lat="46.92539296269438" lon="11.444167916647752"><ele>1117.0</ele><time>2026-05-01T05:49:11.001Z</time></trkpt><trkpt lat="46.9256069490021" lon="11.444350936550418"><ele>1117.0</ele><time>2026-05-01T05:49:12.001Z</time></trkpt><trkpt lat="46.92581513820103" lon="11.44454824872218"><ele>1124.0</ele><time>2026-05-01T05:49:13.001Z</time></trkpt><trkpt lat="46.92601760559361" lon="11.444756413041342"><ele>1131.0</ele><time>2026-05-01T05:49:14.001Z</time></trkpt><trkpt lat="46.92621684167342" lon="11.444970544673398"><ele>1131.0</ele><time>2026-05-01T05:49:15.001Z</time></trkpt><trkpt lat="46.92641580049114" lon="11.445187131785868"><ele>1131.0</ele><time>2026-05-01T05:49:16.001Z</time></trkpt><trkpt lat="46.926612999004014" lon="11.445404719953386"><ele>1136.5</ele><time>2026-05-01T05:49:17.001Z</time></trkpt><trkpt lat="46.926807722995036" lon="11.445620933212748"><ele>1142.0</ele><time>2026-05-01T05:49:18.001Z</time></trkpt><trkpt lat="46.927007283834854" lon="11.445837818162959"><ele>1142.0</ele><time>2026-05-01T05:49:19.001Z</time></trkpt><trkpt lat="46.92721056358317" lon="11.44604704178283"><ele>1142.0</ele><time>2026-05-01T05:49:20.001Z</time></trkpt><trkpt lat="46.92741909131589" lon="11.446246100256188"><ele>1142.5</ele><time>2026-05-01T05:49:21.001Z</time></trkpt><trkpt lat="46.92763670976769" lon="11.446428616017593"><ele>1143.0</ele><time>2026-05-01T05:49:22.001Z</time></trkpt><trkpt lat="46.92786001575142" lon="11.44658994757856"><ele>1143.0</ele><time>2026-05-01T05:49:23.001Z</time></trkpt><trkpt lat="46.92809096783055" lon="11.446730057333138"><ele>1143.0</ele><time>2026-05-01T05:49:24.001Z</time></trkpt><trkpt lat="46.92832959379795" lon="11.44685336788659"><ele>1145.0</ele><time>2026-05-01T05:49:25.001Z</time></trkpt><trkpt lat="46.92857330829377" lon="11.446962245299565"><ele>1147.0</ele><time>2026-05-01T05:49:26.001Z</time></trkpt><trkpt lat="46.92882263116222" lon="11.447051532290196"><ele>1147.0</ele><time>2026-05-01T05:49:27.001Z</time></trkpt><trkpt lat="46.929077185897754" lon="11.447125548102457"><ele>1147.0</ele><time>2026-05-01T05:49:28.001Z</time></trkpt><trkpt lat="46.92933475573887" lon="11.447188949757232"><ele>1129.5</ele><time>2026-05-01T05:49:29.001Z</time></trkpt><trkpt lat="46.929594936671066" lon="11.447251156238083"><ele>1112.0</ele><time>2026-05-01T05:49:30.001Z</time></trkpt><trkpt lat="46.9298563795579" lon="11.447312310389975"><ele>1105.0</ele><time>2026-05-01T05:49:31.001Z</time></trkpt><trkpt lat="46.93011716551336" lon="11.44737306813287"><ele>1098.0</ele><time>2026-05-01T05:49:32.001Z</time></trkpt><trkpt lat="46.93037809393042" lon="11.447432477389123"><ele>1098.0</ele><time>2026-05-01T05:49:33.001Z</time></trkpt><trkpt lat="46.93063906972775" lon="11.447492820054102"><ele>1098.0</ele><time>2026-05-01T05:49:34.001Z</time></trkpt><trkpt lat="46.9308989082894" lon="11.447554810999398"><ele>1101.0</ele><time>2026-05-01T05:49:35.001Z</time></trkpt><trkpt lat="46.9311592755321" lon="11.447617340225955"><ele>1104.0</ele><time>2026-05-01T05:49:36.001Z</time></trkpt><trkpt lat="46.93141734267575" lon="11.447678362443316"><ele>1104.0</ele><time>2026-05-01T05:49:37.001Z</time></trkpt><trkpt lat="46.93167420799737" lon="11.447738024593358"><ele>1104.0</ele><time>2026-05-01T05:49:38.001Z</time></trkpt><trkpt lat="46.93193164434242" lon="11.447794091829138"><ele>1094.5</ele><time>2026-05-01T05:49:39.001Z</time></trkpt><trkpt lat="46.9321880217921" lon="11.44785073457232"><ele>1085.0</ele><time>2026-05-01T05:49:40.001Z</time></trkpt><trkpt lat="46.93244209964847" lon="11.447908516884578"><ele>1085.5</ele><time>2026-05-01T05:49:41.001Z</time></trkpt><trkpt lat="46.932696347765265" lon="11.447966598027445"><ele>1086.0</ele><time>2026-05-01T05:49:42Z</time></trkpt><trkpt lat="46.932948375060725" lon="11.448024936187577"><ele>1086.0</ele><time>2026-05-01T05:49:43Z</time></trkpt><trkpt lat="46.93320186546728" lon="11.448084951746434"><ele>1086.0</ele><time>2026-05-01T05:49:44Z</time></trkpt><trkpt lat="46.93345233239203" lon="11.448143889574578"><ele>1098.0</ele><time>2026-05-01T05:49:45Z</time></trkpt><trkpt lat="46.933704570372896" lon="11.448202322544734"><ele>1110.0</ele><time>2026-05-01T05:49:46Z</time></trkpt><trkpt lat="46.93395408402858" lon="11.448258602497788"><ele>1110.0</ele><time>2026-05-01T05:49:47Z</time></trkpt><trkpt lat="46.934206596182186" lon="11.448316589420509"><ele>1110.0</ele><time>2026-05-01T05:49:48Z</time></trkpt><trkpt lat="46.934459494615005" lon="11.448375419694342"><ele>1119.0</ele><time>2026-05-01T05:49:49Z</time></trkpt><trkpt lat="46.93471012818713" lon="11.448436481385864"><ele>1128.0</ele><time>2026-05-01T05:49:50Z</time></trkpt><trkpt lat="46.93496128290473" lon="11.448498232921612"><ele>1129.0</ele><time>2026-05-01T05:49:51Z</time></trkpt><trkpt lat="46.935211564513274" lon="11.448557458447734"><ele>1130.0</ele><time>2026-05-01T05:49:52Z</time></trkpt><trkpt lat="46.93546438780453" lon="11.448616381176096"><ele>1130.0</ele><time>2026-05-01T05:49:53Z</time></trkpt><trkpt lat="46.935713727719794" lon="11.448675220919935"><ele>1130.0</ele><time>2026-05-01T05:49:54Z</time></trkpt><trkpt lat="46.93596789287623" lon="11.448736322931689"><ele>1133.0</ele><time>2026-05-01T05:49:55Z</time></trkpt><trkpt lat="46.93621945503336" lon="11.448797431040846"><ele>1136.0</ele><time>2026-05-01T05:49:56Z</time></trkpt><trkpt lat="46.93646905084026" lon="11.448860626679494"><ele>1144.5</ele><time>2026-05-01T05:49:57Z</time></trkpt><trkpt lat="46.93671969467535" lon="11.448924308223726"><ele>1153.0</ele><time>2026-05-01T05:49:58Z</time></trkpt><trkpt lat="46.93696916359597" lon="11.448988338798648"><ele>1153.0</ele><time>2026-05-01T05:49:59Z</time></trkpt><trkpt lat="46.937217260044314" lon="11.449050766558557"><ele>1153.0</ele><time>2026-05-01T05:50:00Z</time></trkpt><trkpt lat="46.93746704184648" lon="11.449111867290254"><ele>1166.0</ele><time>2026-05-01T05:50:01Z</time></trkpt><trkpt lat="46.937718859925006" lon="11.44917031261921"><ele>1179.0</ele><time>2026-05-01T05:50:02Z</time></trkpt><trkpt lat="46.93796699616653" lon="11.449222728909243"><ele>1179.0</ele><time>2026-05-01T05:50:03Z</time></trkpt><trkpt lat="46.93821428788413" lon="11.44926781249264"><ele>1179.0</ele><time>2026-05-01T05:50:04Z</time></trkpt><trkpt lat="46.9384634745741" lon="11.449299389819442"><ele>1184.0</ele><time>2026-05-01T05:50:05Z</time></trkpt><trkpt lat="46.938712951311786" lon="11.449315817760912"><ele>1189.0</ele><time>2026-05-01T05:50:06Z</time></trkpt><trkpt lat="46.93896166523994" lon="11.449319992715228"><ele>1189.0</ele><time>2026-05-01T05:50:07Z</time></trkpt><trkpt lat="46.93920982769196" lon="11.449317525413436"><ele>1189.0</ele><time>2026-05-01T05:50:08Z</time></trkpt><trkpt lat="46.939458652651055" lon="11.44931476073065"><ele>1188.0</ele><time>2026-05-01T05:50:09Z</time></trkpt><trkpt lat="46.93971007878348" lon="11.449312501079833"><ele>1187.0</ele><time>2026-05-01T05:50:10Z</time></trkpt><trkpt lat="46.93996030199967" lon="11.449314839409599"><ele>1186.5</ele><time>2026-05-01T05:50:11Z</time></trkpt><trkpt lat="46.940212880072345" lon="11.44932733044066"><ele>1186.0</ele><time>2026-05-01T05:50:12Z</time></trkpt><trkpt lat="46.94046294595262" lon="11.44935317984856"><ele>1186.0</ele><time>2026-05-01T05:50:13Z</time></trkpt><trkpt lat="46.940712886853724" lon="11.449391141847803"><ele>1186.0</ele><time>2026-05-01T05:50:14Z</time></trkpt><trkpt lat="46.94096274445351" lon="11.449444744416006"><ele>1181.0</ele><time>2026-05-01T05:50:15Z</time></trkpt><trkpt lat="46.941211737307405" lon="11.449506562777525"><ele>1176.0</ele><time>2026-05-01T05:50:16Z</time></trkpt><trkpt lat="46.94145956582897" lon="11.44958114972083"><ele>1189.0</ele><time>2026-05-01T05:50:17Z</time></trkpt><trkpt lat="46.941705637892085" lon="11.44967124650993"><ele>1202.0</ele><time>2026-05-01T05:50:18Z</time></trkpt><trkpt lat="46.94194653442352" lon="11.449775622414062"><ele>1202.0</ele><time>2026-05-01T05:50:19Z</time></trkpt><trkpt lat="46.94218506732531" lon="11.449890706701657"><ele>1202.0</ele><time>2026-05-01T05:50:20Z</time></trkpt><trkpt lat="46.94242243000761" lon="11.450015390813364"><ele>1196.5</ele><time>2026-05-01T05:50:21Z</time></trkpt><trkpt lat="46.942658997979024" lon="11.45015021145854"><ele>1191.0</ele><time>2026-05-01T05:50:22Z</time></trkpt><trkpt lat="46.942891210201495" lon="11.450293468149006"><ele>1191.0</ele><time>2026-05-01T05:50:23Z</time></trkpt><trkpt lat="46.94312394799562" lon="11.450439967830297"><ele>1191.0</ele><time>2026-05-01T05:50:24Z</time></trkpt><trkpt lat="46.9433574732598" lon="11.450586277990011"><ele>1200.0</ele><time>2026-05-01T05:50:25Z</time></trkpt><trkpt lat="46.94358948879337" lon="11.450725143434067"><ele>1209.0</ele><time>2026-05-01T05:50:26Z</time></trkpt><trkpt lat="46.94382535408733" lon="11.450852863055434"><ele>1209.0</ele><time>2026-05-01T05:50:27Z</time></trkpt><trkpt lat="46.94406197534713" lon="11.450967957582712"><ele>1209.0</ele><time>2026-05-01T05:50:28Z</time></trkpt><trkpt lat="46.94430350312541" lon="11.451075637055196"><ele>1200.0</ele><time>2026-05-01T05:50:29Z</time></trkpt><trkpt lat="46.94454800198098" lon="11.451181522448785"><ele>1191.0</ele><time>2026-05-01T05:50:30Z</time></trkpt><trkpt lat="46.94479285919927" lon="11.451282830282846"><ele>1202.5</ele><time>2026-05-01T05:50:31Z</time></trkpt><trkpt lat="46.94503765771338" lon="11.451383205833588"><ele>1214.0</ele><time>2026-05-01T05:50:32Z</time></trkpt><trkpt lat="46.94527950935639" lon="11.45147983138544"><ele>1214.0</ele><time>2026-05-01T05:50:33Z</time></trkpt><trkpt lat="46.94550811764559" lon="11.451570617392141"><ele>1214.0</ele><time>2026-05-01T05:50:34Z</time></trkpt><trkpt lat="46.94573857458778" lon="11.451664491234201"><ele>1207.5</ele><time>2026-05-01T05:50:35Z</time></trkpt><trkpt lat="46.94597572961865" lon="11.4517602348895"><ele>1201.0</ele><time>2026-05-01T05:50:36Z</time></trkpt><trkpt lat="46.94621218689336" lon="11.45186059636853"><ele>1201.0</ele><time>2026-05-01T05:50:37Z</time></trkpt><trkpt lat="46.946445754222005" lon="11.451967931592998"><ele>1201.0</ele><time>2026-05-01T05:50:38Z</time></trkpt><trkpt lat="46.94667906719628" lon="11.452082584226115"><ele>1208.5</ele><time>2026-05-01T05:50:39Z</time></trkpt><trkpt lat="46.94691381832638" lon="11.452208592679352"><ele>1216.0</ele><time>2026-05-01T05:50:40Z</time></trkpt><trkpt lat="46.947147628692356" lon="11.452346900895947"><ele>1216.0</ele><time>2026-05-01T05:50:41Z</time></trkpt><trkpt lat="46.9473746661268" lon="11.452493557213124"><ele>1216.0</ele><time>2026-05-01T05:50:42Z</time></trkpt><trkpt lat="46.947600356963186" lon="11.452648043492117"><ele>1211.5</ele><time>2026-05-01T05:50:43Z</time></trkpt><trkpt lat="46.94782733753518" lon="11.452807583599506"><ele>1207.0</ele><time>2026-05-01T05:50:44Z</time></trkpt><trkpt lat="46.94805427478159" lon="11.452968317561355"><ele>1212.5</ele><time>2026-05-01T05:50:45Z</time></trkpt><trkpt lat="46.94827467706173" lon="11.45312713367981"><ele>1218.0</ele><time>2026-05-01T05:50:46Z</time></trkpt><trkpt lat="46.94849261996785" lon="11.453285014137817"><ele>1218.0</ele><time>2026-05-01T05:50:47Z</time></trkpt><trkpt lat="46.948711106843085" lon="11.453439307518748"><ele>1218.0</ele><time>2026-05-01T05:50:48Z</time></trkpt><trkpt lat="46.948929514653614" lon="11.453586153207679"><ele>1218.0</ele><time>2026-05-01T05:50:49Z</time></trkpt><trkpt lat="46.949150334282855" lon="11.453721983078353"><ele>1218.0</ele><time>2026-05-01T05:50:50Z</time></trkpt><trkpt lat="46.949372653011196" lon="11.453848739041609"><ele>1228.0</ele><time>2026-05-01T05:50:51Z</time></trkpt><trkpt lat="46.94959458430366" lon="11.453969352594948"><ele>1238.0</ele><time>2026-05-01T05:50:52Z</time></trkpt><trkpt lat="46.949817755870164" lon="11.454091228914612"><ele>1230.0</ele><time>2026-05-01T05:50:53Z</time></trkpt><trkpt lat="46.95004262683604" lon="11.454212060411033"><ele>1222.0</ele><time>2026-05-01T05:50:54Z</time></trkpt><trkpt lat="46.95026709430508" lon="11.454336865204773"><ele>1222.0</ele><time>2026-05-01T05:50:55Z</time></trkpt><trkpt lat="46.950488131107" lon="11.454467625172944"><ele>1222.0</ele><time>2026-05-01T05:50:56Z</time></trkpt><trkpt lat="46.95070478276298" lon="11.45460866811972"><ele>1225.3333333333333</ele><time>2026-05-01T05:50:57Z</time></trkpt><trkpt lat="46.95090386677003" lon="11.454751968544473"><ele>1228.6666666666667</ele><time>2026-05-01T05:50:58Z</time></trkpt><trkpt lat="46.95108659555037" lon="11.454896805562887"><ele>1232.0</ele><time>2026-05-01T05:50:59Z</time></trkpt><trkpt lat="46.95126664137039" lon="11.455051684016388"><ele>1232.0</ele><time>2026-05-01T05:51:00Z</time></trkpt><trkpt lat="46.95144509949728" lon="11.455219960327433"><ele>1232.0</ele><time>2026-05-01T05:51:01Z</time></trkpt><trkpt lat="46.95161890978718" lon="11.455398357878861"><ele>1232.0</ele><time>2026-05-01T05:51:02Z</time></trkpt><trkpt lat="46.95179340010838" lon="11.455589155569609"><ele>1230.0</ele><time>2026-05-01T05:51:03Z</time></trkpt><trkpt lat="46.95197027745669" lon="11.45578537526523"><ele>1228.0</ele><time>2026-05-01T05:51:04Z</time></trkpt><trkpt lat="46.95214960212852" lon="11.455993581108382"><ele>1228.0</ele><time>2026-05-01T05:51:05Z</time></trkpt><trkpt lat="46.95232894964044" lon="11.456212228718826"><ele>1228.0</ele><time>2026-05-01T05:51:06Z</time></trkpt><trkpt lat="46.9525076212376" lon="11.4564400441495"><ele>1228.0</ele><time>2026-05-01T05:51:07Z</time></trkpt><trkpt lat="46.95268902811401" lon="11.456667463496675"><ele>1228.0</ele><time>2026-05-01T05:51:08Z</time></trkpt><trkpt lat="46.95287537232408" lon="11.456889631844593"><ele>1228.0</ele><time>2026-05-01T05:51:09.001Z</time></trkpt><trkpt lat="46.95306519753051" lon="11.45710554574196"><ele>1228.0</ele><time>2026-05-01T05:51:10.001Z</time></trkpt><trkpt lat="46.95326022331582" lon="11.457313905583158"><ele>1233.0</ele><time>2026-05-01T05:51:11.001Z</time></trkpt><trkpt lat="46.95346074595676" lon="11.457503336177533"><ele>1238.0</ele><time>2026-05-01T05:51:12.001Z</time></trkpt><trkpt lat="46.953664215368036" lon="11.457669515052139"><ele>1238.0</ele><time>2026-05-01T05:51:13.001Z</time></trkpt><trkpt lat="46.953871067116474" lon="11.457822496939375"><ele>1238.0</ele><time>2026-05-01T05:51:14.001Z</time></trkpt><trkpt lat="46.95408203299399" lon="11.457958094981247"><ele>1245.5</ele><time>2026-05-01T05:51:15.001Z</time></trkpt><trkpt lat="46.95429548953203" lon="11.458082225312044"><ele>1253.0</ele><time>2026-05-01T05:51:16.001Z</time></trkpt><trkpt lat="46.95451311130281" lon="11.458197598662784"><ele>1253.0</ele><time>2026-05-01T05:51:17.001Z</time></trkpt><trkpt lat="46.95472539223826" lon="11.458309198982786"><ele>1253.0</ele><time>2026-05-01T05:51:18.001Z</time></trkpt><trkpt lat="46.95493604439812" lon="11.458419596636032"><ele>1253.0</ele><time>2026-05-01T05:51:19.001Z</time></trkpt><trkpt lat="46.95514692101395" lon="11.458534886905104"><ele>1250.6666666666667</ele><time>2026-05-01T05:51:20.001Z</time></trkpt><trkpt lat="46.95535317546396" lon="11.4586559535221"><ele>1248.3333333333333</ele><time>2026-05-01T05:51:21.001Z</time></trkpt><trkpt lat="46.9555567577363" lon="11.458775748660026"><ele>1246.0</ele><time>2026-05-01T05:51:22.001Z</time></trkpt><trkpt lat="46.955759403800485" lon="11.458891212142017"><ele>1249.3333333333333</ele><time>2026-05-01T05:51:23.001Z</time></trkpt><trkpt lat="46.9559603569237" lon="11.459004224578194"><ele>1252.6666666666667</ele><time>2026-05-01T05:51:24.001Z</time></trkpt><trkpt lat="46.95615875477104" lon="11.459114260883537"><ele>1256.0</ele><time>2026-05-01T05:51:25.001Z</time></trkpt><trkpt lat="46.95635471676632" lon="11.45922085255348"><ele>1256.0</ele><time>2026-05-01T05:51:26.001Z</time></trkpt><trkpt lat="46.95654683962453" lon="11.459320650091117"><ele>1256.0</ele><time>2026-05-01T05:51:27.001Z</time></trkpt><trkpt lat="46.95673638813879" lon="11.459447604055693"><ele>1256.0</ele><time>2026-05-01T05:51:28.001Z</time></trkpt><trkpt lat="46.95692740786344" lon="11.45957969803004"><ele>1254.0</ele><time>2026-05-01T05:51:29.001Z</time></trkpt><trkpt lat="46.95711249033058" lon="11.459714029139473"><ele>1252.0</ele><time>2026-05-01T05:51:30.001Z</time></trkpt><trkpt lat="46.95729821191489" lon="11.459841606948157"><ele>1250.0</ele><time>2026-05-01T05:51:31.001Z</time></trkpt><trkpt lat="46.957484036612435" lon="11.45996720199894"><ele>1249.6666666666667</ele><time>2026-05-01T05:51:32.001Z</time></trkpt><trkpt lat="46.957669812261194" lon="11.46009271787573"><ele>1249.3333333333333</ele><time>2026-05-01T05:51:33.001Z</time></trkpt><trkpt lat="46.957855537515066" lon="11.460217668618753"><ele>1249.0</ele><time>2026-05-01T05:51:34.001Z</time></trkpt><trkpt lat="46.958042161945436" lon="11.460343619190008"><ele>1251.3333333333333</ele><time>2026-05-01T05:51:35.001Z</time></trkpt><trkpt lat="46.95822518783791" lon="11.460469003737085"><ele>1253.6666666666667</ele><time>2026-05-01T05:51:36.001Z</time></trkpt><trkpt lat="46.95841120158485" lon="11.460595892171542"><ele>1256.0</ele><time>2026-05-01T05:51:37.001Z</time></trkpt><trkpt lat="46.958598038902444" lon="11.460723467152585"><ele>1257.0</ele><time>2026-05-01T05:51:38.001Z</time></trkpt><trkpt lat="46.95878416138726" lon="11.46084815250743"><ele>1258.0</ele><time>2026-05-01T05:51:39.001Z</time></trkpt><trkpt lat="46.95897132814644" lon="11.46097492610845"><ele>1259.0</ele><time>2026-05-01T05:51:40.001Z</time></trkpt><trkpt lat="46.95915991615881" lon="11.461102468374964"><ele>1262.6666666666667</ele><time>2026-05-01T05:51:41.001Z</time></trkpt><trkpt lat="46.959350232814856" lon="11.461231619982788"><ele>1266.3333333333333</ele><time>2026-05-01T05:51:42.001Z</time></trkpt><trkpt lat="46.959538656894274" lon="11.461360544857158"><ele>1270.0</ele><time>2026-05-01T05:51:43.001Z</time></trkpt><trkpt lat="46.959729836306785" lon="11.461489656185563"><ele>1270.0</ele><time>2026-05-01T05:51:44.001Z</time></trkpt><trkpt lat="46.959923058382145" lon="11.461620092252062"><ele>1270.0</ele><time>2026-05-01T05:51:45.001Z</time></trkpt><trkpt lat="46.96011786830927" lon="11.46175155657564"><ele>1270.0</ele><time>2026-05-01T05:51:46.001Z</time></trkpt><trkpt lat="46.960312067784734" lon="11.461881476133591"><ele>1270.0</ele><time>2026-05-01T05:51:47.001Z</time></trkpt><trkpt lat="46.96050755245265" lon="11.462010616971346"><ele>1270.0</ele><time>2026-05-01T05:51:48Z</time></trkpt><trkpt lat="46.96070568532842" lon="11.462140912946063"><ele>1270.0</ele><time>2026-05-01T05:51:49Z</time></trkpt><trkpt lat="46.96090546352569" lon="11.462272643084408"><ele>1272.6666666666665</ele><time>2026-05-01T05:51:50Z</time></trkpt><trkpt lat="46.96110333692936" lon="11.462405339360009"><ele>1275.3333333333333</ele><time>2026-05-01T05:51:51Z</time></trkpt><trkpt lat="46.961301219323225" lon="11.46253820434024"><ele>1278.0</ele><time>2026-05-01T05:51:52Z</time></trkpt><trkpt lat="46.961499878691036" lon="11.462673705156105"><ele>1278.0</ele><time>2026-05-01T05:51:53Z</time></trkpt><trkpt lat="46.96169778949171" lon="11.462813800012784"><ele>1278.0</ele><time>2026-05-01T05:51:54Z</time></trkpt><trkpt lat="46.96189312039604" lon="11.462962828978336"><ele>1278.0</ele><time>2026-05-01T05:51:55Z</time></trkpt><trkpt lat="46.96208728171586" lon="11.463115641046558"><ele>1283.3333333333333</ele><time>2026-05-01T05:51:56Z</time></trkpt><trkpt lat="46.962279657703114" lon="11.463270301448905"><ele>1288.6666666666665</ele><time>2026-05-01T05:51:57Z</time></trkpt><trkpt lat="46.96247325242822" lon="11.463427728195745"><ele>1294.0</ele><time>2026-05-01T05:51:58Z</time></trkpt><trkpt lat="46.96266674883766" lon="11.463590108921021"><ele>1295.6666666666665</ele><time>2026-05-01T05:51:59Z</time></trkpt><trkpt lat="46.96285689001862" lon="11.463764138191676"><ele>1297.3333333333333</ele><time>2026-05-01T05:52:00Z</time></trkpt><trkpt lat="46.96304388357826" lon="11.463945742820187"><ele>1299.0</ele><time>2026-05-01T05:52:01Z</time></trkpt><trkpt lat="46.96322968440993" lon="11.464134365407414"><ele>1299.5</ele><time>2026-05-01T05:52:02Z</time></trkpt><trkpt lat="46.963412239667235" lon="11.464328613560783"><ele>1300.0</ele><time>2026-05-01T05:52:03Z</time></trkpt><trkpt lat="46.963593159939464" lon="11.46452898329555"><ele>1300.0</ele><time>2026-05-01T05:52:04Z</time></trkpt><trkpt lat="46.96377120655439" lon="11.464737186401054"><ele>1300.0</ele><time>2026-05-01T05:52:05Z</time></trkpt><trkpt lat="46.963946803168696" lon="11.46495067690155"><ele>1300.0</ele><time>2026-05-01T05:52:06Z</time></trkpt><trkpt lat="46.96412055663251" lon="11.465168114934542"><ele>1300.0</ele><time>2026-05-01T05:52:07Z</time></trkpt><trkpt lat="46.96429303523907" lon="11.465387531684183"><ele>1301.0</ele><time>2026-05-01T05:52:08Z</time></trkpt><trkpt lat="46.96446357317864" lon="11.465607023505775"><ele>1302.0</ele><time>2026-05-01T05:52:09Z</time></trkpt><trkpt lat="46.96463188362111" lon="11.465824231920374"><ele>1302.0</ele><time>2026-05-01T05:52:10Z</time></trkpt><trkpt lat="46.96479084943342" lon="11.466034567085975"><ele>1302.0</ele><time>2026-05-01T05:52:11Z</time></trkpt><trkpt lat="46.96495662531542" lon="11.466247243026503"><ele>1302.0</ele><time>2026-05-01T05:52:12Z</time></trkpt><trkpt lat="46.965125305508806" lon="11.46646421334162"><ele>1301.0</ele><time>2026-05-01T05:52:13Z</time></trkpt><trkpt lat="46.965294938323446" lon="11.466682615776183"><ele>1300.0</ele><time>2026-05-01T05:52:14Z</time></trkpt><trkpt lat="46.96546488340894" lon="11.466901339030375"><ele>1301.5</ele><time>2026-05-01T05:52:15Z</time></trkpt><trkpt lat="46.965637304714235" lon="11.467120198794039"><ele>1303.0</ele><time>2026-05-01T05:52:16Z</time></trkpt><trkpt lat="46.96581343341985" lon="11.467339494038885"><ele>1300.0</ele><time>2026-05-01T05:52:17Z</time></trkpt><trkpt lat="46.96599203005776" lon="11.467555244590354"><ele>1297.0</ele><time>2026-05-01T05:52:18Z</time></trkpt><trkpt lat="46.96617247605762" lon="11.467769876479219"><ele>1301.5</ele><time>2026-05-01T05:52:19Z</time></trkpt><trkpt lat="46.9663545802402" lon="11.467983467570102"><ele>1306.0</ele><time>2026-05-01T05:52:20Z</time></trkpt><trkpt lat="46.96653516033276" lon="11.468193136160812"><ele>1303.0</ele><time>2026-05-01T05:52:21Z</time></trkpt><trkpt lat="46.9667177732772" lon="11.46840472880626"><ele>1300.0</ele><time>2026-05-01T05:52:22Z</time></trkpt><trkpt lat="46.966899310905596" lon="11.468612709047722"><ele>1302.6666666666665</ele><time>2026-05-01T05:52:23Z</time></trkpt><trkpt lat="46.96707237797295" lon="11.468815294760551"><ele>1305.3333333333333</ele><time>2026-05-01T05:52:24Z</time></trkpt><trkpt lat="46.96724017340345" lon="11.469011211785416"><ele>1308.0</ele><time>2026-05-01T05:52:25Z</time></trkpt><trkpt lat="46.967410048046965" lon="11.46920888998729"><ele>1308.0</ele><time>2026-05-01T05:52:26Z</time></trkpt><trkpt lat="46.967583228172984" lon="11.469409283607904"><ele>1308.0</ele><time>2026-05-01T05:52:27Z</time></trkpt><trkpt lat="46.96775820007881" lon="11.469615884125949"><ele>1308.0</ele><time>2026-05-01T05:52:28Z</time></trkpt><trkpt lat="46.96793613463874" lon="11.469823824415782"><ele>1308.0</ele><time>2026-05-01T05:52:29Z</time></trkpt><trkpt lat="46.96811392083615" lon="11.4700384183726"><ele>1308.0</ele><time>2026-05-01T05:52:30Z</time></trkpt><trkpt lat="46.968294066915874" lon="11.4702544524691"><ele>1305.5</ele><time>2026-05-01T05:52:31Z</time></trkpt><trkpt lat="46.968475184290895" lon="11.47047371106972"><ele>1303.0</ele><time>2026-05-01T05:52:32Z</time></trkpt><trkpt lat="46.9686592334029" lon="11.470695070951827"><ele>1303.0</ele><time>2026-05-01T05:52:33Z</time></trkpt><trkpt lat="46.968844249417614" lon="11.470917912130275"><ele>1303.0</ele><time>2026-05-01T05:52:34Z</time></trkpt><trkpt lat="46.9690260935585" lon="11.47114235207728"><ele>1303.0</ele><time>2026-05-01T05:52:35Z</time></trkpt><trkpt lat="46.96920428542839" lon="11.47137130253112"><ele>1303.0</ele><time>2026-05-01T05:52:36Z</time></trkpt><trkpt lat="46.96938166878837" lon="11.471601348936042"><ele>1303.0</ele><time>2026-05-01T05:52:37Z</time></trkpt><trkpt lat="46.96955846233532" lon="11.471831763682074"><ele>1303.0</ele><time>2026-05-01T05:52:38Z</time></trkpt><trkpt lat="46.969735407780306" lon="11.472062709786945"><ele>1303.0</ele><time>2026-05-01T05:52:39Z</time></trkpt><trkpt lat="46.96991349376394" lon="11.472292293208733"><ele>1303.0</ele><time>2026-05-01T05:52:40Z</time></trkpt><trkpt lat="46.9700913167097" lon="11.47252223147745"><ele>1303.0</ele><time>2026-05-01T05:52:41Z</time></trkpt><trkpt lat="46.97027042470665" lon="11.472753599560358"><ele>1303.0</ele><time>2026-05-01T05:52:42Z</time></trkpt><trkpt lat="46.970452127470914" lon="11.47298568553009"><ele>1304.5</ele><time>2026-05-01T05:52:43Z</time></trkpt><trkpt lat="46.97063342921535" lon="11.47321876908485"><ele>1306.0</ele><time>2026-05-01T05:52:44Z</time></trkpt><trkpt lat="46.970813762049445" lon="11.473453394004082"><ele>1305.0</ele><time>2026-05-01T05:52:45Z</time></trkpt><trkpt lat="46.970996235544675" lon="11.47369016501069"><ele>1304.0</ele><time>2026-05-01T05:52:46Z</time></trkpt><trkpt lat="46.971179355607816" lon="11.473929153722986"><ele>1303.5</ele><time>2026-05-01T05:52:47Z</time></trkpt><trkpt lat="46.971364357989344" lon="11.47416835265363"><ele>1303.0</ele><time>2026-05-01T05:52:48Z</time></trkpt><trkpt lat="46.97155032645068" lon="11.474410328620221"><ele>1303.0</ele><time>2026-05-01T05:52:49Z</time></trkpt><trkpt lat="46.97173870129421" lon="11.474652694587808"><ele>1303.0</ele><time>2026-05-01T05:52:50Z</time></trkpt><trkpt lat="46.9719274719889" lon="11.474896946338292"><ele>1303.0</ele><time>2026-05-01T05:52:51Z</time></trkpt><trkpt lat="46.97211585707916" lon="11.475142584777192"><ele>1303.0</ele><time>2026-05-01T05:52:52Z</time></trkpt><trkpt lat="46.97230497679959" lon="11.475387167738077"><ele>1303.5</ele><time>2026-05-01T05:52:53Z</time></trkpt><trkpt lat="46.97249381058108" lon="11.475633072345248"><ele>1304.0</ele><time>2026-05-01T05:52:54Z</time></trkpt><trkpt lat="46.97268141745163" lon="11.475878974118928"><ele>1304.0</ele><time>2026-05-01T05:52:55Z</time></trkpt><trkpt lat="46.972870751371595" lon="11.476123645754864"><ele>1304.0</ele><time>2026-05-01T05:52:56Z</time></trkpt><trkpt lat="46.97305613593771" lon="11.47636655388475"><ele>1305.5</ele><time>2026-05-01T05:52:57Z</time></trkpt><trkpt lat="46.97324213296303" lon="11.476612574039256"><ele>1307.0</ele><time>2026-05-01T05:52:58Z</time></trkpt><trkpt lat="46.973425138854914" lon="11.476860936673097"><ele>1308.0</ele><time>2026-05-01T05:52:59Z</time></trkpt><trkpt lat="46.973602071421126" lon="11.47711401525088"><ele>1309.0</ele><time>2026-05-01T05:53:00Z</time></trkpt><trkpt lat="46.97377332176434" lon="11.47737259724163"><ele>1309.0</ele><time>2026-05-01T05:53:01Z</time></trkpt><trkpt lat="46.973935389065936" lon="11.477637373803788"><ele>1309.0</ele><time>2026-05-01T05:53:02Z</time></trkpt><trkpt lat="46.97409497666963" lon="11.477906094932672"><ele>1309.0</ele><time>2026-05-01T05:53:03Z</time></trkpt><trkpt lat="46.974245613385634" lon="11.478177895606992"><ele>1309.0</ele><time>2026-05-01T05:53:04Z</time></trkpt><trkpt lat="46.974392737941166" lon="11.478452031166498"><ele>1309.0</ele><time>2026-05-01T05:53:05Z</time></trkpt><trkpt lat="46.97453680075678" lon="11.478720888784201"><ele>1309.0</ele><time>2026-05-01T05:53:06Z</time></trkpt><trkpt lat="46.974674221308774" lon="11.478996853576628"><ele>1311.0</ele><time>2026-05-01T05:53:07Z</time></trkpt><trkpt lat="46.97480695844582" lon="11.47927254074609"><ele>1313.0</ele><time>2026-05-01T05:53:08Z</time></trkpt><trkpt lat="46.97493902531786" lon="11.47954732147463"><ele>1313.0</ele><time>2026-05-01T05:53:09Z</time></trkpt><trkpt lat="46.97506884274074" lon="11.479817909874795"><ele>1313.0</ele><time>2026-05-01T05:53:10Z</time></trkpt><trkpt lat="46.975196681591626" lon="11.480086394959667"><ele>1313.0</ele><time>2026-05-01T05:53:11Z</time></trkpt><trkpt lat="46.97532328840973" lon="11.480352155086333"><ele>1314.3333333333335</ele><time>2026-05-01T05:53:12Z</time></trkpt><trkpt lat="46.975446571743525" lon="11.480609973488711"><ele>1315.6666666666667</ele><time>2026-05-01T05:53:13Z</time></trkpt><trkpt lat="46.97556794220567" lon="11.480863620497454"><ele>1317.0</ele><time>2026-05-01T05:53:14Z</time></trkpt><trkpt lat="46.975691356829785" lon="11.481123594098094"><ele>1316.6666666666667</ele><time>2026-05-01T05:53:15Z</time></trkpt><trkpt lat="46.9758174078107" lon="11.481389021277925"><ele>1316.3333333333335</ele><time>2026-05-01T05:53:16Z</time></trkpt><trkpt lat="46.97594597997255" lon="11.481656383602557"><ele>1316.0</ele><time>2026-05-01T05:53:17Z</time></trkpt><trkpt lat="46.976078853343026" lon="11.481922157357571"><ele>1317.0</ele><time>2026-05-01T05:53:18Z</time></trkpt><trkpt lat="46.97621655769366" lon="11.482189202308902"><ele>1318.0</ele><time>2026-05-01T05:53:19Z</time></trkpt><trkpt lat="46.97636062078132" lon="11.482454182839966"><ele>1318.0</ele><time>2026-05-01T05:53:20Z</time></trkpt><trkpt lat="46.976508663823324" lon="11.482716469209329"><ele>1318.0</ele><time>2026-05-01T05:53:21Z</time></trkpt><trkpt lat="46.97665851945556" lon="11.482982378686422"><ele>1317.5</ele><time>2026-05-01T05:53:22Z</time></trkpt><trkpt lat="46.97681205900388" lon="11.483248733810427"><ele>1317.0</ele><time>2026-05-01T05:53:23Z</time></trkpt><trkpt lat="46.97696636945962" lon="11.4835137179482"><ele>1322.0</ele><time>2026-05-01T05:53:24.001Z</time></trkpt><trkpt lat="46.97712362124015" lon="11.483776552739327"><ele>1327.0</ele><time>2026-05-01T05:53:25.001Z</time></trkpt><trkpt lat="46.9772829744698" lon="11.484038808511265"><ele>1327.0</ele><time>2026-05-01T05:53:26.001Z</time></trkpt><trkpt lat="46.97744258381525" lon="11.484302465159578"><ele>1327.0</ele><time>2026-05-01T05:53:27.001Z</time></trkpt><trkpt lat="46.97760374876477" lon="11.484568132918563"><ele>1323.5</ele><time>2026-05-01T05:53:28.001Z</time></trkpt><trkpt lat="46.97776544274884" lon="11.484836394545862"><ele>1320.0</ele><time>2026-05-01T05:53:29.001Z</time></trkpt><trkpt lat="46.97792796598799" lon="11.485107874799283"><ele>1320.0</ele><time>2026-05-01T05:53:30.001Z</time></trkpt><trkpt lat="46.9780935944715" lon="11.485380769722063"><ele>1320.0</ele><time>2026-05-01T05:53:31.001Z</time></trkpt><trkpt lat="46.97826040677259" lon="11.48565497476252"><ele>1319.0</ele><time>2026-05-01T05:53:32.001Z</time></trkpt><trkpt lat="46.978428463202256" lon="11.485930366367663"><ele>1318.0</ele><time>2026-05-01T05:53:33.001Z</time></trkpt><trkpt lat="46.97859673799279" lon="11.486206340550254"><ele>1320.5</ele><time>2026-05-01T05:53:34.001Z</time></trkpt><trkpt lat="46.978764249144795" lon="11.48648360984208"><ele>1323.0</ele><time>2026-05-01T05:53:35.001Z</time></trkpt><trkpt lat="46.97893255672087" lon="11.486762226647494"><ele>1323.0</ele><time>2026-05-01T05:53:36.001Z</time></trkpt><trkpt lat="46.97910176417311" lon="11.487040068451378"><ele>1323.0</ele><time>2026-05-01T05:53:37.001Z</time></trkpt><trkpt lat="46.97927022135126" lon="11.487317843347508"><ele>1322.5</ele><time>2026-05-01T05:53:38.001Z</time></trkpt><trkpt lat="46.97943783952918" lon="11.487599292545722"><ele>1322.0</ele><time>2026-05-01T05:53:39.001Z</time></trkpt><trkpt lat="46.97960000884107" lon="11.487885361980997"><ele>1324.0</ele><time>2026-05-01T05:53:40.001Z</time></trkpt><trkpt lat="46.97976233319675" lon="11.48817677108421"><ele>1326.0</ele><time>2026-05-01T05:53:41.001Z</time></trkpt><trkpt lat="46.97992023298331" lon="11.488473856391268"><ele>1326.5</ele><time>2026-05-01T05:53:42.001Z</time></trkpt><trkpt lat="46.98007816470167" lon="11.488774693559613"><ele>1327.0</ele><time>2026-05-01T05:53:43.001Z</time></trkpt><trkpt lat="46.98023332736263" lon="11.48907873575086"><ele>1327.0</ele><time>2026-05-01T05:53:44.001Z</time></trkpt><trkpt lat="46.98038569487647" lon="11.489384859263229"><ele>1327.0</ele><time>2026-05-01T05:53:45.001Z</time></trkpt><trkpt lat="46.98053858772874" lon="11.489689684240878"><ele>1328.0</ele><time>2026-05-01T05:53:46.001Z</time></trkpt><trkpt lat="46.98069179165011" lon="11.489994168421315"><ele>1329.0</ele><time>2026-05-01T05:53:47.001Z</time></trkpt><trkpt lat="46.9808467315955" lon="11.490294223021635"><ele>1328.5</ele><time>2026-05-01T05:53:48.001Z</time></trkpt><trkpt lat="46.981005077571886" lon="11.490588937802158"><ele>1328.0</ele><time>2026-05-01T05:53:49.001Z</time></trkpt><trkpt lat="46.98116652463828" lon="11.49087404561595"><ele>1328.0</ele><time>2026-05-01T05:53:50.001Z</time></trkpt><trkpt lat="46.981328375394185" lon="11.49115477551054"><ele>1328.0</ele><time>2026-05-01T05:53:51.001Z</time></trkpt><trkpt lat="46.98149329721924" lon="11.491429653099512"><ele>1329.0</ele><time>2026-05-01T05:53:52.001Z</time></trkpt><trkpt lat="46.981660947339364" lon="11.491694904628698"><ele>1330.0</ele><time>2026-05-01T05:53:53Z</time></trkpt><trkpt lat="46.98183112779988" lon="11.491949236390552"><ele>1331.0</ele><time>2026-05-01T05:53:54Z</time></trkpt><trkpt lat="46.98200419700149" lon="11.49219755781751"><ele>1332.0</ele><time>2026-05-01T05:53:55Z</time></trkpt><trkpt lat="46.98217959967798" lon="11.492441155848063"><ele>1332.0</ele><time>2026-05-01T05:53:56Z</time></trkpt><trkpt lat="46.98235860233825" lon="11.492677393614965"><ele>1332.0</ele><time>2026-05-01T05:53:57Z</time></trkpt><trkpt lat="46.98254004748533" lon="11.492911202107852"><ele>1334.0</ele><time>2026-05-01T05:53:58Z</time></trkpt><trkpt lat="46.982725858713586" lon="11.49313819513381"><ele>1336.0</ele><time>2026-05-01T05:53:59Z</time></trkpt><trkpt lat="46.98291510169275" lon="11.493359193035651"><ele>1336.0</ele><time>2026-05-01T05:54:00Z</time></trkpt><trkpt lat="46.98310940632461" lon="11.4935716663726"><ele>1336.0</ele><time>2026-05-01T05:54:01Z</time></trkpt><trkpt lat="46.98330683576209" lon="11.49377638209992"><ele>1336.5</ele><time>2026-05-01T05:54:02Z</time></trkpt><trkpt lat="46.98350715278269" lon="11.493975354562993"><ele>1337.0</ele><time>2026-05-01T05:54:03Z</time></trkpt><trkpt lat="46.983710712841685" lon="11.494167494791816"><ele>1337.0</ele><time>2026-05-01T05:54:04Z</time></trkpt><trkpt lat="46.98391603100059" lon="11.494353233913305"><ele>1337.0</ele><time>2026-05-01T05:54:05Z</time></trkpt><trkpt lat="46.98412719838508" lon="11.494530923059143"><ele>1343.0</ele><time>2026-05-01T05:54:06Z</time></trkpt><trkpt lat="46.98433931148087" lon="11.49470037806622"><ele>1349.0</ele><time>2026-05-01T05:54:07Z</time></trkpt><trkpt lat="46.98455256028247" lon="11.494862119698066"><ele>1349.0</ele><time>2026-05-01T05:54:08Z</time></trkpt><trkpt lat="46.984767610011694" lon="11.495018288597075"><ele>1349.0</ele><time>2026-05-01T05:54:09Z</time></trkpt><trkpt lat="46.98498506054922" lon="11.495171793812286"><ele>1351.5</ele><time>2026-05-01T05:54:10Z</time></trkpt><trkpt lat="46.985203302792016" lon="11.495318990842595"><ele>1354.0</ele><time>2026-05-01T05:54:11Z</time></trkpt><trkpt lat="46.98541596207656" lon="11.495454135820436"><ele>1354.0</ele><time>2026-05-01T05:54:12Z</time></trkpt><trkpt lat="46.985614805519546" lon="11.495576947622952"><ele>1354.0</ele><time>2026-05-01T05:54:13Z</time></trkpt><trkpt lat="46.98581315257499" lon="11.495686861630528"><ele>1354.0</ele><time>2026-05-01T05:54:14Z</time></trkpt><trkpt lat="46.986016784903235" lon="11.49578922002741"><ele>1354.0</ele><time>2026-05-01T05:54:15Z</time></trkpt><trkpt lat="46.986224969260235" lon="11.495891918068837"><ele>1354.0</ele><time>2026-05-01T05:54:16Z</time></trkpt><trkpt lat="46.98643954492706" lon="11.496001201668072"><ele>1354.0</ele><time>2026-05-01T05:54:17Z</time></trkpt><trkpt lat="46.98665389841985" lon="11.496120472554484"><ele>1354.0</ele><time>2026-05-01T05:54:18Z</time></trkpt><trkpt lat="46.986861604051306" lon="11.496244742281277"><ele>1354.0</ele><time>2026-05-01T05:54:19Z</time></trkpt><trkpt lat="46.987065738433905" lon="11.496363035601403"><ele>1354.0</ele><time>2026-05-01T05:54:20Z</time></trkpt><trkpt lat="46.987269648240094" lon="11.49648088663698"><ele>1356.6666666666665</ele><time>2026-05-01T05:54:21Z</time></trkpt><trkpt lat="46.987474877232856" lon="11.496598394541396"><ele>1359.3333333333333</ele><time>2026-05-01T05:54:22Z</time></trkpt><trkpt lat="46.987681763016994" lon="11.496714776043246"><ele>1362.0</ele><time>2026-05-01T05:54:23Z</time></trkpt><trkpt lat="46.987888200005614" lon="11.496831638032123"><ele>1362.0</ele><time>2026-05-01T05:54:24Z</time></trkpt><trkpt lat="46.98809605665607" lon="11.496949740257438"><ele>1362.0</ele><time>2026-05-01T05:54:25Z</time></trkpt><trkpt lat="46.988302846385565" lon="11.497067406440639"><ele>1362.0</ele><time>2026-05-01T05:54:26Z</time></trkpt><trkpt lat="46.98851173900187" lon="11.497186854349007"><ele>1363.6666666666667</ele><time>2026-05-01T05:54:27Z</time></trkpt><trkpt lat="46.9887187130498" lon="11.49730603426855"><ele>1365.3333333333335</ele><time>2026-05-01T05:54:28Z</time></trkpt><trkpt lat="46.98892948724991" lon="11.497428037206353"><ele>1367.0</ele><time>2026-05-01T05:54:29Z</time></trkpt><trkpt lat="46.98914100298793" lon="11.497549157295525"><ele>1365.0</ele><time>2026-05-01T05:54:30Z</time></trkpt><trkpt lat="46.98935465753173" lon="11.497670983752927"><ele>1363.0</ele><time>2026-05-01T05:54:31Z</time></trkpt><trkpt lat="46.989571414188134" lon="11.497794333049162"><ele>1365.0</ele><time>2026-05-01T05:54:32Z</time></trkpt><trkpt lat="46.98979106776796" lon="11.497919978450634"><ele>1367.0</ele><time>2026-05-01T05:54:33Z</time></trkpt><trkpt lat="46.99001329523163" lon="11.498040451112464"><ele>1367.0</ele><time>2026-05-01T05:54:34Z</time></trkpt><trkpt lat="46.99023453287537" lon="11.498156854420332"><ele>1367.0</ele><time>2026-05-01T05:54:35Z</time></trkpt><trkpt lat="46.990454257795626" lon="11.498272052658217"><ele>1367.0</ele><time>2026-05-01T05:54:36Z</time></trkpt><trkpt lat="46.99067232937298" lon="11.498390574311815"><ele>1367.0</ele><time>2026-05-01T05:54:37Z</time></trkpt><trkpt lat="46.99088687291902" lon="11.498513242473129"><ele>1363.5</ele><time>2026-05-01T05:54:38Z</time></trkpt><trkpt lat="46.9911023501019" lon="11.498633870546358"><ele>1360.0</ele><time>2026-05-01T05:54:39Z</time></trkpt><trkpt lat="46.99131666915691" lon="11.498751781395262"><ele>1363.0</ele><time>2026-05-01T05:54:40Z</time></trkpt><trkpt lat="46.99153083068749" lon="11.498868480092238"><ele>1366.0</ele><time>2026-05-01T05:54:41Z</time></trkpt><trkpt lat="46.99174051678883" lon="11.498979230454625"><ele>1366.0</ele><time>2026-05-01T05:54:42Z</time></trkpt><trkpt lat="46.991940995782535" lon="11.49908409875778"><ele>1366.0</ele><time>2026-05-01T05:54:43Z</time></trkpt><trkpt lat="46.992144596034" lon="11.499189262271212"><ele>1366.0</ele><time>2026-05-01T05:54:44Z</time></trkpt><trkpt lat="46.99234752189384" lon="11.499298410122334"><ele>1366.6666666666665</ele><time>2026-05-01T05:54:45Z</time></trkpt><trkpt lat="46.99255154074476" lon="11.499408586666155"><ele>1367.3333333333333</ele><time>2026-05-01T05:54:46Z</time></trkpt><trkpt lat="46.99275628062563" lon="11.49952141718505"><ele>1368.0</ele><time>2026-05-01T05:54:47Z</time></trkpt><trkpt lat="46.99296062792165" lon="11.499633003516797"><ele>1368.0</ele><time>2026-05-01T05:54:48Z</time></trkpt><trkpt lat="46.99316378929743" lon="11.49974703920919"><ele>1368.0</ele><time>2026-05-01T05:54:49Z</time></trkpt><trkpt lat="46.99336313038159" lon="11.499860139383065"><ele>1368.0</ele><time>2026-05-01T05:54:50Z</time></trkpt><trkpt lat="46.99355247984382" lon="11.499969202286373"><ele>1366.0</ele><time>2026-05-01T05:54:51Z</time></trkpt><trkpt lat="46.99373631115808" lon="11.50007592142417"><ele>1364.0</ele><time>2026-05-01T05:54:52Z</time></trkpt><trkpt lat="46.99392396706958" lon="11.500190205855269"><ele>1362.0</ele><time>2026-05-01T05:54:53Z</time></trkpt><trkpt lat="46.99411195628994" lon="11.500310585256464"><ele>1362.6666666666667</ele><time>2026-05-01T05:54:54Z</time></trkpt><trkpt lat="46.99429720932782" lon="11.500439998020635"><ele>1363.3333333333335</ele><time>2026-05-01T05:54:55Z</time></trkpt><trkpt lat="46.99447927228738" lon="11.500573350823759"><ele>1364.0</ele><time>2026-05-01T05:54:56Z</time></trkpt><trkpt lat="46.99465774501164" lon="11.500709479265481"><ele>1364.0</ele><time>2026-05-01T05:54:57Z</time></trkpt><trkpt lat="46.99483539592512" lon="11.500846852115417"><ele>1364.0</ele><time>2026-05-01T05:54:58Z</time></trkpt><trkpt lat="46.99501175013951" lon="11.500983399033206"><ele>1364.0</ele><time>2026-05-01T05:54:59Z</time></trkpt><trkpt lat="46.9951885557026" lon="11.501118497850065"><ele>1364.6666666666667</ele><time>2026-05-01T05:55:00Z</time></trkpt><trkpt lat="46.99535708541873" lon="11.501244991708065"><ele>1365.3333333333333</ele><time>2026-05-01T05:55:01Z</time></trkpt><trkpt lat="46.99552002778874" lon="11.501368528397647"><ele>1366.0</ele><time>2026-05-01T05:55:02Z</time></trkpt><trkpt lat="46.99568398165162" lon="11.501494588875552"><ele>1366.6666666666665</ele><time>2026-05-01T05:55:03Z</time></trkpt><trkpt lat="46.995844377684804" lon="11.501621645866495"><ele>1367.3333333333333</ele><time>2026-05-01T05:55:04Z</time></trkpt><trkpt lat="46.996005969826825" lon="11.501747085873859"><ele>1368.0</ele><time>2026-05-01T05:55:05Z</time></trkpt><trkpt lat="46.99616814698612" lon="11.501879915000108"><ele>1368.0</ele><time>2026-05-01T05:55:06Z</time></trkpt><trkpt lat="46.996328224691865" lon="11.502020479699683"><ele>1368.0</ele><time>2026-05-01T05:55:07Z</time></trkpt><trkpt lat="46.99648217073469" lon="11.502169141864172"><ele>1368.0</ele><time>2026-05-01T05:55:08Z</time></trkpt><trkpt lat="46.996627572201135" lon="11.502319215749475"><ele>1368.0</ele><time>2026-05-01T05:55:09Z</time></trkpt><trkpt lat="46.9967644632568" lon="11.50247119975742"><ele>1368.0</ele><time>2026-05-01T05:55:10Z</time></trkpt><trkpt lat="46.99689183776194" lon="11.502630589551588"><ele>1368.0</ele><time>2026-05-01T05:55:11Z</time></trkpt><trkpt lat="46.997014647855565" lon="11.502798470633628"><ele>1372.6666666666667</ele><time>2026-05-01T05:55:12Z</time></trkpt><trkpt lat="46.997123376475464" lon="11.50296707390086"><ele>1377.3333333333335</ele><time>2026-05-01T05:55:13Z</time></trkpt><trkpt lat="46.99722598109288" lon="11.503150043975522"><ele>1382.0</ele><time>2026-05-01T05:55:14Z</time></trkpt><trkpt lat="46.997323851707385" lon="11.503339582232979"><ele>1382.0</ele><time>2026-05-01T05:55:15Z</time></trkpt><trkpt lat="46.9974196961997" lon="11.50353196501925"><ele>1382.0</ele><time>2026-05-01T05:55:16Z</time></trkpt><trkpt lat="46.99751558893637" lon="11.503724716743786"><ele>1382.0</ele><time>2026-05-01T05:55:17Z</time></trkpt><trkpt lat="46.99761046785734" lon="11.503920537432998"><ele>1389.6666666666667</ele><time>2026-05-01T05:55:18Z</time></trkpt><trkpt lat="46.99770850849539" lon="11.504117816702047"><ele>1397.3333333333333</ele><time>2026-05-01T05:55:19Z</time></trkpt><trkpt lat="46.997809482097225" lon="11.504317296628953"><ele>1405.0</ele><time>2026-05-01T05:55:20Z</time></trkpt><trkpt lat="46.99791120752831" lon="11.504520288737861"><ele>1415.0</ele><time>2026-05-01T05:55:21Z</time></trkpt><trkpt lat="46.99801116984832" lon="11.504728827376013"><ele>1425.0</ele><time>2026-05-01T05:55:22Z</time></trkpt><trkpt lat="46.9980996757069" lon="11.50492942801377"><ele>1435.0</ele><time>2026-05-01T05:55:23Z</time></trkpt><trkpt lat="46.998205859573254" lon="11.505140271932744"><ele>1435.0</ele><time>2026-05-01T05:55:24Z</time></trkpt><trkpt lat="46.998321236665845" lon="11.505352160199514"><ele>1435.0</ele><time>2026-05-01T05:55:25Z</time></trkpt><trkpt lat="46.998442463022336" lon="11.505555371322084"><ele>1435.0</ele><time>2026-05-01T05:55:26Z</time></trkpt><trkpt lat="46.99856858803315" lon="11.505750807556947"><ele>1435.3333333333333</ele><time>2026-05-01T05:55:27Z</time></trkpt><trkpt lat="46.998698587476014" lon="11.505938165080861"><ele>1435.6666666666667</ele><time>2026-05-01T05:55:28Z</time></trkpt><trkpt lat="46.99883237202199" lon="11.50611780264506"><ele>1436.0</ele><time>2026-05-01T05:55:29Z</time></trkpt><trkpt lat="46.99897496070839" lon="11.50629439964533"><ele>1443.6666666666667</ele><time>2026-05-01T05:55:30Z</time></trkpt><trkpt lat="46.99911674105096" lon="11.506453278081324"><ele>1451.3333333333333</ele><time>2026-05-01T05:55:31Z</time></trkpt><trkpt lat="46.99925500749511" lon="11.506596408440428"><ele>1459.0</ele><time>2026-05-01T05:55:32Z</time></trkpt><trkpt lat="46.99939797122161" lon="11.50672891741443"><ele>1459.0</ele><time>2026-05-01T05:55:33.001Z</time></trkpt><trkpt lat="46.999545988596516" lon="11.50684454622279"><ele>1459.0</ele><time>2026-05-01T05:55:34.001Z</time></trkpt><trkpt lat="46.999696398826785" lon="11.506954420512562"><ele>1459.0</ele><time>2026-05-01T05:55:35.001Z</time></trkpt><trkpt lat="46.99985017614385" lon="11.507062499086585"><ele>1471.3333333333333</ele><time>2026-05-01T05:55:36.001Z</time></trkpt><trkpt lat="47.00000729800835" lon="11.507166947218717"><ele>1483.6666666666667</ele><time>2026-05-01T05:55:37.001Z</time></trkpt><trkpt lat="47.00016556568853" lon="11.507256916391398"><ele>1496.0</ele><time>2026-05-01T05:55:38.001Z</time></trkpt><trkpt lat="47.000327484833754" lon="11.507337368026361"><ele>1496.0</ele><time>2026-05-01T05:55:39.001Z</time></trkpt><trkpt lat="47.00049218428436" lon="11.507406691870244"><ele>1496.0</ele><time>2026-05-01T05:55:40.001Z</time></trkpt><trkpt lat="47.000658829040994" lon="11.50746624303324"><ele>1496.0</ele><time>2026-05-01T05:55:41.001Z</time></trkpt><trkpt lat="47.00082439744592" lon="11.50751393348173"><ele>1493.6666666666667</ele><time>2026-05-01T05:55:42.001Z</time></trkpt><trkpt lat="47.0009939062875" lon="11.507556501850829"><ele>1491.3333333333333</ele><time>2026-05-01T05:55:43.001Z</time></trkpt><trkpt lat="47.001163150021185" lon="11.507586071635009"><ele>1489.0</ele><time>2026-05-01T05:55:44.001Z</time></trkpt><trkpt lat="47.00133434363551" lon="11.50760558197941"><ele>1489.0</ele><time>2026-05-01T05:55:45.001Z</time></trkpt><trkpt lat="47.0015069073245" lon="11.507617350503732"><ele>1489.0</ele><time>2026-05-01T05:55:46.001Z</time></trkpt><trkpt lat="47.0016834861849" lon="11.507622215114177"><ele>1489.0</ele><time>2026-05-01T05:55:47.001Z</time></trkpt><trkpt lat="47.00186331224661" lon="11.507614594761792"><ele>1482.0</ele><time>2026-05-01T05:55:48.001Z</time></trkpt><trkpt lat="47.00203178193832" lon="11.507588763218779"><ele>1475.0</ele><time>2026-05-01T05:55:49.001Z</time></trkpt><trkpt lat="47.00219637317537" lon="11.507555198613366"><ele>1468.0</ele><time>2026-05-01T05:55:50.001Z</time></trkpt><trkpt lat="47.00236921194029" lon="11.507528136035631"><ele>1452.6666666666665</ele><time>2026-05-01T05:55:51.001Z</time></trkpt><trkpt lat="47.0025449143791" lon="11.507499617214702"><ele>1437.3333333333333</ele><time>2026-05-01T05:55:52.001Z</time></trkpt><trkpt lat="47.00273530713321" lon="11.507479026968484"><ele>1422.0</ele><time>2026-05-01T05:55:53.001Z</time></trkpt><trkpt lat="47.00294812035423" lon="11.507475551283752"><ele>1422.0</ele><time>2026-05-01T05:55:54.001Z</time></trkpt><trkpt lat="47.003185593930986" lon="11.507490812859055"><ele>1422.0</ele><time>2026-05-01T05:55:55.001Z</time></trkpt><trkpt lat="47.00340879154697" lon="11.507523144824598"><ele>1403.5</ele><time>2026-05-01T05:55:56.001Z</time></trkpt><trkpt lat="47.003621610265384" lon="11.50756954450102"><ele>1385.0</ele><time>2026-05-01T05:55:57.001Z</time></trkpt><trkpt lat="47.003882652419755" lon="11.507667471239795"><ele>1385.0</ele><time>2026-05-01T05:55:58.001Z</time></trkpt><trkpt lat="47.004059014892086" lon="11.507697985007518"><ele>1385.0</ele><time>2026-05-01T05:55:59Z</time></trkpt><trkpt lat="47.004213250897564" lon="11.507782929790118"><ele>1385.0</ele><time>2026-05-01T05:56:00Z</time></trkpt><trkpt lat="47.00435199017698" lon="11.507869134565752"><ele>1388.6666666666667</ele><time>2026-05-01T05:56:01Z</time></trkpt><trkpt lat="47.00449507608168" lon="11.507958712421532"><ele>1392.3333333333333</ele><time>2026-05-01T05:56:02Z</time></trkpt><trkpt lat="47.004642060775446" lon="11.50805555853728"><ele>1396.0</ele><time>2026-05-01T05:56:03Z</time></trkpt><trkpt lat="47.00479153121857" lon="11.50814897053906"><ele>1396.0</ele><time>2026-05-01T05:56:04Z</time></trkpt><trkpt lat="47.00493638753755" lon="11.508239159001372"><ele>1396.0</ele><time>2026-05-01T05:56:05Z</time></trkpt><trkpt lat="47.00507522574657" lon="11.508325926641632"><ele>1396.0</ele><time>2026-05-01T05:56:06Z</time></trkpt><trkpt lat="47.00521395086516" lon="11.5084060668669"><ele>1391.75</ele><time>2026-05-01T05:56:07Z</time></trkpt><trkpt lat="47.005354376991505" lon="11.508484124329307"><ele>1387.5</ele><time>2026-05-01T05:56:08Z</time></trkpt><trkpt lat="47.00549041431006" lon="11.508553795370384"><ele>1383.25</ele><time>2026-05-01T05:56:09Z</time></trkpt><trkpt lat="47.00562222620575" lon="11.508616888420848"><ele>1379.0</ele><time>2026-05-01T05:56:10Z</time></trkpt><trkpt lat="47.00575835870448" lon="11.508676127768696"><ele>1378.25</ele><time>2026-05-01T05:56:11Z</time></trkpt><trkpt lat="47.005897136591784" lon="11.508731853543226"><ele>1377.5</ele><time>2026-05-01T05:56:12Z</time></trkpt><trkpt lat="47.00603897190888" lon="11.508780041195157"><ele>1376.75</ele><time>2026-05-01T05:56:13Z</time></trkpt><trkpt lat="47.00618423310384" lon="11.508820578026238"><ele>1376.0</ele><time>2026-05-01T05:56:14Z</time></trkpt><trkpt lat="47.00632490086126" lon="11.508850735581102"><ele>1376.0</ele><time>2026-05-01T05:56:15Z</time></trkpt><trkpt lat="47.00647032830911" lon="11.508878372766198"><ele>1376.0</ele><time>2026-05-01T05:56:16Z</time></trkpt><trkpt lat="47.00661462371565" lon="11.508899565263603"><ele>1376.0</ele><time>2026-05-01T05:56:17Z</time></trkpt><trkpt lat="47.006762058172505" lon="11.508915696770037"><ele>1376.0</ele><time>2026-05-01T05:56:18Z</time></trkpt><trkpt lat="47.00690824803889" lon="11.508924979733541"><ele>1375.0</ele><time>2026-05-01T05:56:19Z</time></trkpt><trkpt lat="47.00705281295627" lon="11.508925994577066"><ele>1374.0</ele><time>2026-05-01T05:56:20Z</time></trkpt><trkpt lat="47.007196836068125" lon="11.508920116989733"><ele>1373.0</ele><time>2026-05-01T05:56:21Z</time></trkpt><trkpt lat="47.00734116455415" lon="11.508907580253888"><ele>1372.0</ele><time>2026-05-01T05:56:22Z</time></trkpt><trkpt lat="47.00748590473788" lon="11.508889006259873"><ele>1372.0</ele><time>2026-05-01T05:56:23Z</time></trkpt><trkpt lat="47.007629560762204" lon="11.508861898284646"><ele>1372.0</ele><time>2026-05-01T05:56:24Z</time></trkpt><trkpt lat="47.007775036747944" lon="11.50882702372105"><ele>1372.0</ele><time>2026-05-01T05:56:25Z</time></trkpt><trkpt lat="47.00792050268851" lon="11.508789681409803"><ele>1372.0</ele><time>2026-05-01T05:56:26Z</time></trkpt><trkpt lat="47.00806375521047" lon="11.50875578291807"><ele>1371.25</ele><time>2026-05-01T05:56:27Z</time></trkpt><trkpt lat="47.008205783404584" lon="11.50872394552038"><ele>1370.5</ele><time>2026-05-01T05:56:28Z</time></trkpt><trkpt lat="47.00834887878645" lon="11.508696362133417"><ele>1369.75</ele><time>2026-05-01T05:56:29Z</time></trkpt><trkpt lat="47.008491261553615" lon="11.508674126109346"><ele>1369.0</ele><time>2026-05-01T05:56:30Z</time></trkpt><trkpt lat="47.008628753371795" lon="11.50865292685863"><ele>1368.75</ele><time>2026-05-01T05:56:31Z</time></trkpt><trkpt lat="47.00876141077225" lon="11.508631275871743"><ele>1368.5</ele><time>2026-05-01T05:56:32Z</time></trkpt><trkpt lat="47.00890276902857" lon="11.508611061610852"><ele>1368.25</ele><time>2026-05-01T05:56:33Z</time></trkpt><trkpt lat="47.009045282645324" lon="11.508588754913006"><ele>1368.0</ele><time>2026-05-01T05:56:34Z</time></trkpt><trkpt lat="47.009186969703805" lon="11.50856427234276"><ele>1366.75</ele><time>2026-05-01T05:56:35Z</time></trkpt><trkpt lat="47.009323616976395" lon="11.508542250268702"><ele>1365.5</ele><time>2026-05-01T05:56:36Z</time></trkpt><trkpt lat="47.00945680469772" lon="11.508520898998245"><ele>1364.25</ele><time>2026-05-01T05:56:37Z</time></trkpt><trkpt lat="47.00959136064507" lon="11.508498597069115"><ele>1363.0</ele><time>2026-05-01T05:56:38Z</time></trkpt><trkpt lat="47.00972701787936" lon="11.508474028119466"><ele>1363.0</ele><time>2026-05-01T05:56:39Z</time></trkpt><trkpt lat="47.00986181662481" lon="11.508441513843458"><ele>1363.0</ele><time>2026-05-01T05:56:40Z</time></trkpt><trkpt lat="47.009995599399694" lon="11.508403727022921"><ele>1363.0</ele><time>2026-05-01T05:56:41Z</time></trkpt><trkpt lat="47.01011695796283" lon="11.50836472221406"><ele>1363.0</ele><time>2026-05-01T05:56:42Z</time></trkpt><trkpt lat="47.01022340640748" lon="11.508325075853518"><ele>1362.8000000000002</ele><time>2026-05-01T05:56:43Z</time></trkpt><trkpt lat="47.01031985173902" lon="11.508285565803595"><ele>1362.6</ele><time>2026-05-01T05:56:44Z</time></trkpt><trkpt lat="47.010414577056174" lon="11.508244235415964"><ele>1362.4</ele><time>2026-05-01T05:56:45Z</time></trkpt><trkpt lat="47.01050939149615" lon="11.508199055408614"><ele>1362.1999999999998</ele><time>2026-05-01T05:56:46Z</time></trkpt><trkpt lat="47.01060287368746" lon="11.50815482762195"><ele>1362.0</ele><time>2026-05-01T05:56:47Z</time></trkpt><trkpt lat="47.010691772205924" lon="11.508108759660216"><ele>1362.0</ele><time>2026-05-01T05:56:48Z</time></trkpt><trkpt lat="47.010779386466616" lon="11.50805772482428"><ele>1362.0</ele><time>2026-05-01T05:56:49Z</time></trkpt><trkpt lat="47.01087135478447" lon="11.508003549399424"><ele>1362.0</ele><time>2026-05-01T05:56:50Z</time></trkpt><trkpt lat="47.010962384995196" lon="11.507945047397596"><ele>1362.0</ele><time>2026-05-01T05:56:51Z</time></trkpt><trkpt lat="47.011053955855886" lon="11.507884875768255"><ele>1362.0</ele><time>2026-05-01T05:56:52Z</time></trkpt><trkpt lat="47.01114738936291" lon="11.507823802788344"><ele>1361.1999999999998</ele><time>2026-05-01T05:56:53Z</time></trkpt><trkpt lat="47.011237700771645" lon="11.50775975574492"><ele>1360.4</ele><time>2026-05-01T05:56:54Z</time></trkpt><trkpt lat="47.01132422319984" lon="11.50769374250819"><ele>1359.6</ele><time>2026-05-01T05:56:55Z</time></trkpt><trkpt lat="47.01141067955038" lon="11.507622876599457"><ele>1358.8000000000002</ele><time>2026-05-01T05:56:56Z</time></trkpt><trkpt lat="47.0114985648523" lon="11.507548787247817"><ele>1358.0</ele><time>2026-05-01T05:56:57Z</time></trkpt><trkpt lat="47.01158719321161" lon="11.507472020937461"><ele>1358.2</ele><time>2026-05-01T05:56:58Z</time></trkpt><trkpt lat="47.01167099387369" lon="11.507398953726486"><ele>1358.4</ele><time>2026-05-01T05:56:59Z</time></trkpt><trkpt lat="47.01175739217203" lon="11.50732629971774"><ele>1358.6000000000001</ele><time>2026-05-01T05:57:00Z</time></trkpt><trkpt lat="47.01184335532187" lon="11.507252631267987"><ele>1358.8000000000002</ele><time>2026-05-01T05:57:01Z</time></trkpt><trkpt lat="47.01192764174218" lon="11.50717653545487"><ele>1359.0</ele><time>2026-05-01T05:57:02Z</time></trkpt><trkpt lat="47.01201390498327" lon="11.50710104060326"><ele>1360.0</ele><time>2026-05-01T05:57:03Z</time></trkpt><trkpt lat="47.0120995665289" lon="11.507025526654"><ele>1361.0</ele><time>2026-05-01T05:57:04Z</time></trkpt><trkpt lat="47.01218642262523" lon="11.506953670307324"><ele>1362.0</ele><time>2026-05-01T05:57:05Z</time></trkpt><trkpt lat="47.01227606657147" lon="11.506881650895366"><ele>1363.0</ele><time>2026-05-01T05:57:06Z</time></trkpt><trkpt lat="47.01237123600912" lon="11.506809214654323"><ele>1364.0</ele><time>2026-05-01T05:57:07Z</time></trkpt><trkpt lat="47.012457747818544" lon="11.50674663002422"><ele>1361.8000000000002</ele><time>2026-05-01T05:57:08Z</time></trkpt><trkpt lat="47.01255197189868" lon="11.506687538872779"><ele>1359.6000000000001</ele><time>2026-05-01T05:57:09Z</time></trkpt><trkpt lat="47.01264514816812" lon="11.506636073042717"><ele>1357.4</ele><time>2026-05-01T05:57:10Z</time></trkpt><trkpt lat="47.01273851775249" lon="11.506584043359252"><ele>1355.2</ele><time>2026-05-01T05:57:11Z</time></trkpt><trkpt lat="47.01283391985391" lon="11.506534577712014"><ele>1353.0</ele><time>2026-05-01T05:57:12Z</time></trkpt><trkpt lat="47.012930529027805" lon="11.506486999948596"><ele>1353.0</ele><time>2026-05-01T05:57:13Z</time></trkpt><trkpt lat="47.01302801579715" lon="11.506443037140562"><ele>1353.0</ele><time>2026-05-01T05:57:14Z</time></trkpt><trkpt lat="47.013126380036205" lon="11.506400954009942"><ele>1353.0</ele><time>2026-05-01T05:57:15Z</time></trkpt><trkpt lat="47.013224339514764" lon="11.506368822929446"><ele>1353.0</ele><time>2026-05-01T05:57:16Z</time></trkpt><trkpt lat="47.01331983535431" lon="11.506337110033627"><ele>1353.0</ele><time>2026-05-01T05:57:17Z</time></trkpt><trkpt lat="47.0134114348346" lon="11.506313140718703"><ele>1351.0</ele><time>2026-05-01T05:57:18Z</time></trkpt><trkpt lat="47.01350010139817" lon="11.506294309834841"><ele>1349.0</ele><time>2026-05-01T05:57:19Z</time></trkpt><trkpt lat="47.013588402115424" lon="11.50628030505336"><ele>1347.0</ele><time>2026-05-01T05:57:20Z</time></trkpt><trkpt lat="47.01368413908477" lon="11.506267565448743"><ele>1345.0</ele><time>2026-05-01T05:57:21Z</time></trkpt><trkpt lat="47.01378172656783" lon="11.50625878150171"><ele>1343.0</ele><time>2026-05-01T05:57:22Z</time></trkpt><trkpt lat="47.013877202376776" lon="11.506252655960607"><ele>1343.0</ele><time>2026-05-01T05:57:23Z</time></trkpt><trkpt lat="47.01397375170305" lon="11.506252210407727"><ele>1343.0</ele><time>2026-05-01T05:57:24Z</time></trkpt><trkpt lat="47.01406779042705" lon="11.50625424799651"><ele>1343.0</ele><time>2026-05-01T05:57:25Z</time></trkpt><trkpt lat="47.01416373133092" lon="11.506261031301378"><ele>1343.0</ele><time>2026-05-01T05:57:26Z</time></trkpt><trkpt lat="47.014261149542314" lon="11.50627164119695"><ele>1343.0</ele><time>2026-05-01T05:57:27Z</time></trkpt><trkpt lat="47.01435717782363" lon="11.506284743291786"><ele>1341.2</ele><time>2026-05-01T05:57:28Z</time></trkpt><trkpt lat="47.01445424139508" lon="11.50630066442741"><ele>1339.4</ele><time>2026-05-01T05:57:29Z</time></trkpt><trkpt lat="47.01455115679357" lon="11.506322283358479"><ele>1337.6000000000001</ele><time>2026-05-01T05:57:30Z</time></trkpt><trkpt lat="47.014649261525605" lon="11.506348936660087"><ele>1335.8000000000002</ele><time>2026-05-01T05:57:31Z</time></trkpt><trkpt lat="47.01474934584815" lon="11.50637959918601"><ele>1334.0</ele><time>2026-05-01T05:57:32Z</time></trkpt><trkpt lat="47.01484950306882" lon="11.506412872963876"><ele>1334.0</ele><time>2026-05-01T05:57:33Z</time></trkpt><trkpt lat="47.01494750494156" lon="11.50644824446372"><ele>1334.0</ele><time>2026-05-01T05:57:34Z</time></trkpt><trkpt lat="47.015043583747044" lon="11.50648322062959"><ele>1334.0</ele><time>2026-05-01T05:57:35Z</time></trkpt><trkpt lat="47.01513878819584" lon="11.50652112246127"><ele>1334.0</ele><time>2026-05-01T05:57:36Z</time></trkpt><trkpt lat="47.01523607652964" lon="11.506561876219594"><ele>1334.0</ele><time>2026-05-01T05:57:37Z</time></trkpt><trkpt lat="47.01533386070096" lon="11.506602067270347"><ele>1332.6</ele><time>2026-05-01T05:57:38Z</time></trkpt><trkpt lat="47.01543250101543" lon="11.506640960066393"><ele>1331.2</ele><time>2026-05-01T05:57:39Z</time></trkpt><trkpt lat="47.01553027750209" lon="11.506674814340824"><ele>1329.8</ele><time>2026-05-01T05:57:40Z</time></trkpt><trkpt lat="47.0156259204883" lon="11.506705472114195"><ele>1328.3999999999999</ele><time>2026-05-01T05:57:41Z</time></trkpt><trkpt lat="47.01571484920641" lon="11.506733821390085"><ele>1327.0</ele><time>2026-05-01T05:57:42.001Z</time></trkpt><trkpt lat="47.015800983184754" lon="11.506761999546654"><ele>1325.8</ele><time>2026-05-01T05:57:43.001Z</time></trkpt><trkpt lat="47.01589146400034" lon="11.506789698119675"><ele>1324.6</ele><time>2026-05-01T05:57:44.001Z</time></trkpt><trkpt lat="47.01598337839238" lon="11.506815658506307"><ele>1323.3999999999999</ele><time>2026-05-01T05:57:45.001Z</time></trkpt><trkpt lat="47.01607698468259" lon="11.506836752462567"><ele>1322.1999999999998</ele><time>2026-05-01T05:57:46.001Z</time></trkpt><trkpt lat="47.01616867591549" lon="11.506853734548883"><ele>1321.0</ele><time>2026-05-01T05:57:47.001Z</time></trkpt><trkpt lat="47.01626218608707" lon="11.506866145962077"><ele>1321.0</ele><time>2026-05-01T05:57:48.001Z</time></trkpt><trkpt lat="47.01635411574369" lon="11.506872680292794"><ele>1321.0</ele><time>2026-05-01T05:57:49.001Z</time></trkpt><trkpt lat="47.01644679757166" lon="11.506875258398729"><ele>1321.0</ele><time>2026-05-01T05:57:50.001Z</time></trkpt><trkpt lat="47.01653863565628" lon="11.50687484724595"><ele>1321.0</ele><time>2026-05-01T05:57:51.001Z</time></trkpt><trkpt lat="47.016629894190395" lon="11.506870700739952"><ele>1321.0</ele><time>2026-05-01T05:57:52.001Z</time></trkpt><trkpt lat="47.016719125744565" lon="11.506862572323191"><ele>1320.6</ele><time>2026-05-01T05:57:53.001Z</time></trkpt><trkpt lat="47.01680855143253" lon="11.506851050798891"><ele>1320.1999999999998</ele><time>2026-05-01T05:57:54.001Z</time></trkpt><trkpt lat="47.01689702959732" lon="11.50683874573483"><ele>1319.8000000000002</ele><time>2026-05-01T05:57:55.001Z</time></trkpt><trkpt lat="47.01698370551878" lon="11.506823154579198"><ele>1319.4</ele><time>2026-05-01T05:57:56.001Z</time></trkpt><trkpt lat="47.01707338729837" lon="11.506806084184468"><ele>1319.0</ele><time>2026-05-01T05:57:57.001Z</time></trkpt><trkpt lat="47.01717034812354" lon="11.506785005711903"><ele>1319.0</ele><time>2026-05-01T05:57:58.001Z</time></trkpt><trkpt lat="47.01727300870567" lon="11.506761710782259"><ele>1319.0</ele><time>2026-05-01T05:57:59.001Z</time></trkpt><trkpt lat="47.017373690421486" lon="11.506735323946105"><ele>1319.0</ele><time>2026-05-01T05:58:00.001Z</time></trkpt><trkpt lat="47.017471799626385" lon="11.506704205982672"><ele>1319.0</ele><time>2026-05-01T05:58:01.001Z</time></trkpt><trkpt lat="47.01756595273177" lon="11.506669107187097"><ele>1319.0</ele><time>2026-05-01T05:58:02.001Z</time></trkpt><trkpt lat="47.01765363821997" lon="11.506630749078159"><ele>1318.6</ele><time>2026-05-01T05:58:03.001Z</time></trkpt><trkpt lat="47.01774121167575" lon="11.506587094011323"><ele>1318.2</ele><time>2026-05-01T05:58:04Z</time></trkpt><trkpt lat="47.01782991443845" lon="11.506537417703651"><ele>1317.8</ele><time>2026-05-01T05:58:05Z</time></trkpt><trkpt lat="47.01792008583958" lon="11.506485069731191"><ele>1317.3999999999999</ele><time>2026-05-01T05:58:06Z</time></trkpt><trkpt lat="47.01801138486659" lon="11.506428578837712"><ele>1317.0</ele><time>2026-05-01T05:58:07Z</time></trkpt><trkpt lat="47.01810811144951" lon="11.50636750931925"><ele>1317.0</ele><time>2026-05-01T05:58:08Z</time></trkpt><trkpt lat="47.01821002618896" lon="11.50629388902433"><ele>1317.0</ele><time>2026-05-01T05:58:09Z</time></trkpt><trkpt lat="47.01831909448704" lon="11.50620995268803"><ele>1317.0</ele><time>2026-05-01T05:58:10Z</time></trkpt><trkpt lat="47.01843145698767" lon="11.506116435108998"><ele>1317.0</ele><time>2026-05-01T05:58:11Z</time></trkpt><trkpt lat="47.0185384353036" lon="11.506016511933442"><ele>1316.25</ele><time>2026-05-01T05:58:12Z</time></trkpt><trkpt lat="47.01864591199495" lon="11.505910247232459"><ele>1315.5</ele><time>2026-05-01T05:58:13Z</time></trkpt><trkpt lat="47.018751422629144" lon="11.505793500900484"><ele>1314.75</ele><time>2026-05-01T05:58:14Z</time></trkpt><trkpt lat="47.01885762762772" lon="11.505668272776848"><ele>1314.0</ele><time>2026-05-01T05:58:15Z</time></trkpt><trkpt lat="47.018961068417134" lon="11.505537424538112"><ele>1313.0</ele><time>2026-05-01T05:58:16Z</time></trkpt><trkpt lat="47.01906456599647" lon="11.505401044927861"><ele>1312.0</ele><time>2026-05-01T05:58:17Z</time></trkpt><trkpt lat="47.01916856859745" lon="11.505261099087916"><ele>1311.0</ele><time>2026-05-01T05:58:18Z</time></trkpt><trkpt lat="47.019269138853126" lon="11.50512518109033"><ele>1310.0</ele><time>2026-05-01T05:58:19Z</time></trkpt><trkpt lat="47.019369584869835" lon="11.504984058022666"><ele>1310.75</ele><time>2026-05-01T05:58:20Z</time></trkpt><trkpt lat="47.0194698098714" lon="11.504841901150243"><ele>1311.5</ele><time>2026-05-01T05:58:21Z</time></trkpt><trkpt lat="47.019567694072265" lon="11.504697388368063"><ele>1312.25</ele><time>2026-05-01T05:58:22Z</time></trkpt><trkpt lat="47.01966692270972" lon="11.504554849315328"><ele>1313.0</ele><time>2026-05-01T05:58:23Z</time></trkpt><trkpt lat="47.01976723593023" lon="11.504417206935578"><ele>1313.0</ele><time>2026-05-01T05:58:24Z</time></trkpt><trkpt lat="47.01986725983983" lon="11.504279996914367"><ele>1313.0</ele><time>2026-05-01T05:58:25Z</time></trkpt><trkpt lat="47.01996596237578" lon="11.504142389414746"><ele>1313.0</ele><time>2026-05-01T05:58:26Z</time></trkpt><trkpt lat="47.02006589517734" lon="11.503999560196581"><ele>1313.0</ele><time>2026-05-01T05:58:27Z</time></trkpt><trkpt lat="47.020168005281604" lon="11.503857961912598"><ele>1313.0</ele><time>2026-05-01T05:58:28Z</time></trkpt><trkpt lat="47.0202707672817" lon="11.50371518869477"><ele>1313.0</ele><time>2026-05-01T05:58:29Z</time></trkpt><trkpt lat="47.020375178963064" lon="11.50357241112757"><ele>1313.0</ele><time>2026-05-01T05:58:30Z</time></trkpt><trkpt lat="47.02048075260686" lon="11.503428713837504"><ele>1313.0</ele><time>2026-05-01T05:58:31Z</time></trkpt><trkpt lat="47.02058932479343" lon="11.503288591703654"><ele>1313.0</ele><time>2026-05-01T05:58:32Z</time></trkpt><trkpt lat="47.02070042416974" lon="11.503154840123267"><ele>1313.0</ele><time>2026-05-01T05:58:33Z</time></trkpt><trkpt lat="47.02081647681254" lon="11.503023473093668"><ele>1313.0</ele><time>2026-05-01T05:58:34Z</time></trkpt><trkpt lat="47.020938016727406" lon="11.502900596629614"><ele>1313.0</ele><time>2026-05-01T05:58:35Z</time></trkpt><trkpt lat="47.02106249030315" lon="11.502783521777566"><ele>1314.0</ele><time>2026-05-01T05:58:36Z</time></trkpt><trkpt lat="47.021188456674665" lon="11.502673402155377"><ele>1315.0</ele><time>2026-05-01T05:58:37Z</time></trkpt><trkpt lat="47.02131666789524" lon="11.502574838046737"><ele>1316.0</ele><time>2026-05-01T05:58:38Z</time></trkpt><trkpt lat="47.02144871213328" lon="11.502484026248718"><ele>1317.0</ele><time>2026-05-01T05:58:39Z</time></trkpt><trkpt lat="47.02158442227154" lon="11.502404333579193"><ele>1318.0</ele><time>2026-05-01T05:58:40Z</time></trkpt><trkpt lat="47.021722137928535" lon="11.502334041830455"><ele>1319.0</ele><time>2026-05-01T05:58:41Z</time></trkpt><trkpt lat="47.02185821224569" lon="11.502272567587143"><ele>1320.0</ele><time>2026-05-01T05:58:42Z</time></trkpt><trkpt lat="47.02199971856755" lon="11.502215957970895"><ele>1321.0</ele><time>2026-05-01T05:58:43Z</time></trkpt><trkpt lat="47.02213868841525" lon="11.50216191360529"><ele>1321.0</ele><time>2026-05-01T05:58:44Z</time></trkpt><trkpt lat="47.02227749227608" lon="11.502108462644467"><ele>1321.0</ele><time>2026-05-01T05:58:45Z</time></trkpt><trkpt lat="47.02241580887859" lon="11.502053197740416"><ele>1321.0</ele><time>2026-05-01T05:58:46Z</time></trkpt><trkpt lat="47.02255259311074" lon="11.50198984596091"><ele>1321.0</ele><time>2026-05-01T05:58:47Z</time></trkpt><trkpt lat="47.02268936200487" lon="11.501918327556794"><ele>1318.75</ele><time>2026-05-01T05:58:48Z</time></trkpt><trkpt lat="47.02282459630039" lon="11.501835467860667"><ele>1316.5</ele><time>2026-05-01T05:58:49Z</time></trkpt><trkpt lat="47.022957880322224" lon="11.50174682599604"><ele>1314.25</ele><time>2026-05-01T05:58:50Z</time></trkpt><trkpt lat="47.02308818631051" lon="11.501653605105433"><ele>1312.0</ele><time>2026-05-01T05:58:51Z</time></trkpt><trkpt lat="47.023217243634384" lon="11.501553708680369"><ele>1310.75</ele><time>2026-05-01T05:58:52Z</time></trkpt><trkpt lat="47.023345694325826" lon="11.5014518814264"><ele>1309.5</ele><time>2026-05-01T05:58:53Z</time></trkpt><trkpt lat="47.023472714261835" lon="11.501346752510374"><ele>1308.25</ele><time>2026-05-01T05:58:54Z</time></trkpt><trkpt lat="47.02359811444476" lon="11.501238073610844"><ele>1307.0</ele><time>2026-05-01T05:58:55Z</time></trkpt><trkpt lat="47.02372137271243" lon="11.50112355909848"><ele>1309.5</ele><time>2026-05-01T05:58:56Z</time></trkpt><trkpt lat="47.02384360798165" lon="11.501002776674856"><ele>1312.0</ele><time>2026-05-01T05:58:57Z</time></trkpt><trkpt lat="47.023959847754725" lon="11.50087204839742"><ele>1314.5</ele><time>2026-05-01T05:58:58Z</time></trkpt><trkpt lat="47.02407428470059" lon="11.500736976444605"><ele>1317.0</ele><time>2026-05-01T05:58:59Z</time></trkpt><trkpt lat="47.02418651766967" lon="11.500596260954994"><ele>1313.75</ele><time>2026-05-01T05:59:00Z</time></trkpt><trkpt lat="47.02429697617827" lon="11.50045096628129"><ele>1310.5</ele><time>2026-05-01T05:59:01Z</time></trkpt><trkpt lat="47.0244048895102" lon="11.500301610893404"><ele>1307.25</ele><time>2026-05-01T05:59:02Z</time></trkpt><trkpt lat="47.02450768627188" lon="11.50015022312649"><ele>1304.0</ele><time>2026-05-01T05:59:03Z</time></trkpt><trkpt lat="47.02460410153988" lon="11.49999426221431"><ele>1304.0</ele><time>2026-05-01T05:59:04Z</time></trkpt><trkpt lat="47.024699907430524" lon="11.49983376031434"><ele>1304.0</ele><time>2026-05-01T05:59:05Z</time></trkpt><trkpt lat="47.02478783349234" lon="11.499668005629069"><ele>1304.0</ele><time>2026-05-01T05:59:06Z</time></trkpt><trkpt lat="47.02487409295603" lon="11.499501991285502"><ele>1304.0</ele><time>2026-05-01T05:59:07Z</time></trkpt><trkpt lat="47.024952996252544" lon="11.49933318563715"><ele>1307.0</ele><time>2026-05-01T05:59:08Z</time></trkpt><trkpt lat="47.02502825173648" lon="11.499159336562098"><ele>1310.0</ele><time>2026-05-01T05:59:09Z</time></trkpt><trkpt lat="47.02509988155046" lon="11.498982191558804"><ele>1313.0</ele><time>2026-05-01T05:59:10Z</time></trkpt><trkpt lat="47.02517019257292" lon="11.498805199605147"><ele>1316.0</ele><time>2026-05-01T05:59:11Z</time></trkpt><trkpt lat="47.02523555504108" lon="11.49862519023261"><ele>1316.0</ele><time>2026-05-01T05:59:12Z</time></trkpt><trkpt lat="47.0252979118596" lon="11.498442030850754"><ele>1316.0</ele><time>2026-05-01T05:59:13Z</time></trkpt><trkpt lat="47.025356898598226" lon="11.498255313042872"><ele>1316.0</ele><time>2026-05-01T05:59:14Z</time></trkpt><trkpt lat="47.025409938592965" lon="11.49805978659078"><ele>1316.0</ele><time>2026-05-01T05:59:15Z</time></trkpt><trkpt lat="47.02545867296747" lon="11.497858515621045"><ele>1322.0</ele><time>2026-05-01T05:59:16Z</time></trkpt><trkpt lat="47.025506714834265" lon="11.49765536374025"><ele>1328.0</ele><time>2026-05-01T05:59:17Z</time></trkpt><trkpt lat="47.025549230293485" lon="11.49744793780554"><ele>1334.0</ele><time>2026-05-01T05:59:18Z</time></trkpt><trkpt lat="47.025585491418575" lon="11.49724087378485"><ele>1340.0</ele><time>2026-05-01T05:59:19Z</time></trkpt><trkpt lat="47.025620413216316" lon="11.497034958493542"><ele>1343.5</ele><time>2026-05-01T05:59:20Z</time></trkpt><trkpt lat="47.02565332813486" lon="11.496832562192514"><ele>1347.0</ele><time>2026-05-01T05:59:21Z</time></trkpt><trkpt lat="47.02568510088622" lon="11.496627408276478"><ele>1350.5</ele><time>2026-05-01T05:59:22Z</time></trkpt><trkpt lat="47.02571983860688" lon="11.496423857041838"><ele>1354.0</ele><time>2026-05-01T05:59:23Z</time></trkpt><trkpt lat="47.02575285351136" lon="11.496216576667784"><ele>1354.75</ele><time>2026-05-01T05:59:24Z</time></trkpt><trkpt lat="47.02578623070737" lon="11.496011996287208"><ele>1355.5</ele><time>2026-05-01T05:59:25Z</time></trkpt><trkpt lat="47.02582067010777" lon="11.495818653465072"><ele>1356.25</ele><time>2026-05-01T05:59:26Z</time></trkpt><trkpt lat="47.02585963412587" lon="11.495619706343353"><ele>1357.0</ele><time>2026-05-01T05:59:27Z</time></trkpt><trkpt lat="47.025900797256014" lon="11.495416631173656"><ele>1345.0</ele><time>2026-05-01T05:59:28Z</time></trkpt><trkpt lat="47.02594326731478" lon="11.495217130499947"><ele>1333.0</ele><time>2026-05-01T05:59:29Z</time></trkpt><trkpt lat="47.025988601225" lon="11.495018061681069"><ele>1321.0</ele><time>2026-05-01T05:59:30Z</time></trkpt><trkpt lat="47.0260381994858" lon="11.494816147413639"><ele>1309.0</ele><time>2026-05-01T05:59:31Z</time></trkpt><trkpt lat="47.026092673653714" lon="11.49461315646897"><ele>1311.6666666666665</ele><time>2026-05-01T05:59:32Z</time></trkpt><trkpt lat="47.026150608800705" lon="11.494408957396319"><ele>1314.3333333333333</ele><time>2026-05-01T05:59:33Z</time></trkpt><trkpt lat="47.02620998133103" lon="11.49420235189366"><ele>1317.0</ele><time>2026-05-01T05:59:34Z</time></trkpt><trkpt lat="47.0262708495693" lon="11.493997500858487"><ele>1317.0</ele><time>2026-05-01T05:59:35Z</time></trkpt><trkpt lat="47.026335397523496" lon="11.493793578980506"><ele>1317.0</ele><time>2026-05-01T05:59:36Z</time></trkpt><trkpt lat="47.026402557001305" lon="11.493596395499653"><ele>1317.0</ele><time>2026-05-01T05:59:37Z</time></trkpt><trkpt lat="47.026473024226235" lon="11.493401236529666"><ele>1313.25</ele><time>2026-05-01T05:59:38Z</time></trkpt><trkpt lat="47.0265460891073" lon="11.493211689234341"><ele>1309.5</ele><time>2026-05-01T05:59:39Z</time></trkpt><trkpt lat="47.02662015488333" lon="11.493026449940075"><ele>1305.75</ele><time>2026-05-01T05:59:40Z</time></trkpt><trkpt lat="47.02669562022805" lon="11.492848394166995"><ele>1302.0</ele><time>2026-05-01T05:59:41Z</time></trkpt><trkpt lat="47.026771589407595" lon="11.492675121650228"><ele>1302.0</ele><time>2026-05-01T05:59:42Z</time></trkpt><trkpt lat="47.026847302409806" lon="11.492508836563406"><ele>1302.0</ele><time>2026-05-01T05:59:43Z</time></trkpt><trkpt lat="47.026926541175825" lon="11.492345811650594"><ele>1302.0</ele><time>2026-05-01T05:59:44Z</time></trkpt><trkpt lat="47.02700816541777" lon="11.492182102053942"><ele>1302.0</ele><time>2026-05-01T05:59:45Z</time></trkpt><trkpt lat="47.02709044989229" lon="11.492019756110572"><ele>1311.75</ele><time>2026-05-01T05:59:46Z</time></trkpt><trkpt lat="47.027174292254244" lon="11.491860420693296"><ele>1321.5</ele><time>2026-05-01T05:59:47.001Z</time></trkpt><trkpt lat="47.027258470613205" lon="11.491705765220424"><ele>1331.25</ele><time>2026-05-01T05:59:48.001Z</time></trkpt><trkpt lat="47.0273451944637" lon="11.491551870026138"><ele>1341.0</ele><time>2026-05-01T05:59:49.001Z</time></trkpt><trkpt lat="47.02743364538699" lon="11.49140357851463"><ele>1331.25</ele><time>2026-05-01T05:59:50.001Z</time></trkpt><trkpt lat="47.0275217652377" lon="11.491257433335026"><ele>1321.5</ele><time>2026-05-01T05:59:51.001Z</time></trkpt><trkpt lat="47.02761154366417" lon="11.491112848062995"><ele>1311.75</ele><time>2026-05-01T05:59:52.001Z</time></trkpt><trkpt lat="47.02770075304153" lon="11.490970333034145"><ele>1302.0</ele><time>2026-05-01T05:59:53.001Z</time></trkpt><trkpt lat="47.0277935208922" lon="11.490826242721118"><ele>1302.0</ele><time>2026-05-01T05:59:54.001Z</time></trkpt><trkpt lat="47.02789011088199" lon="11.490682252410569"><ele>1302.0</ele><time>2026-05-01T05:59:55.001Z</time></trkpt><trkpt lat="47.02798825752859" lon="11.490537498539918"><ele>1302.0</ele><time>2026-05-01T05:59:56.001Z</time></trkpt><trkpt lat="47.02808762139659" lon="11.490394368562816"><ele>1302.0</ele><time>2026-05-01T05:59:57.001Z</time></trkpt><trkpt lat="47.028187369042726" lon="11.49025249011924"><ele>1297.5</ele><time>2026-05-01T05:59:58.001Z</time></trkpt><trkpt lat="47.0282871338569" lon="11.490110933007228"><ele>1293.0</ele><time>2026-05-01T05:59:59.001Z</time></trkpt><trkpt lat="47.02838634167621" lon="11.489969691303104"><ele>1288.5</ele><time>2026-05-01T06:00:00.001Z</time></trkpt><trkpt lat="47.028486306856834" lon="11.489826784457993"><ele>1284.0</ele><time>2026-05-01T06:00:01.001Z</time></trkpt><trkpt lat="47.02858751604799" lon="11.489684784771073"><ele>1291.75</ele><time>2026-05-01T06:00:02.001Z</time></trkpt><trkpt lat="47.02868771740745" lon="11.4895450126253"><ele>1299.5</ele><time>2026-05-01T06:00:03.001Z</time></trkpt><trkpt lat="47.02878920181034" lon="11.48940333345293"><ele>1307.25</ele><time>2026-05-01T06:00:04.001Z</time></trkpt><trkpt lat="47.02889075167111" lon="11.489263470100482"><ele>1315.0</ele><time>2026-05-01T06:00:05.001Z</time></trkpt><trkpt lat="47.02899118758303" lon="11.489124520285728"><ele>1315.0</ele><time>2026-05-01T06:00:06.001Z</time></trkpt><trkpt lat="47.029092197677066" lon="11.488983166063326"><ele>1315.0</ele><time>2026-05-01T06:00:07.001Z</time></trkpt><trkpt lat="47.02919473575097" lon="11.488843460507157"><ele>1315.0</ele><time>2026-05-01T06:00:08.001Z</time></trkpt><trkpt lat="47.029295276706186" lon="11.488703516300719"><ele>1315.0</ele><time>2026-05-01T06:00:09Z</time></trkpt><trkpt lat="47.02939610435406" lon="11.488564224559164"><ele>1311.0</ele><time>2026-05-01T06:00:10Z</time></trkpt><trkpt lat="47.02949482105991" lon="11.488422753898618"><ele>1307.0</ele><time>2026-05-01T06:00:11Z</time></trkpt><trkpt lat="47.029594394239204" lon="11.488283486321512"><ele>1303.0</ele><time>2026-05-01T06:00:12Z</time></trkpt><trkpt lat="47.02969294832027" lon="11.488143386987502"><ele>1299.0</ele><time>2026-05-01T06:00:13Z</time></trkpt><trkpt lat="47.02979013129951" lon="11.488006115543854"><ele>1295.25</ele><time>2026-05-01T06:00:14Z</time></trkpt><trkpt lat="47.02988608495187" lon="11.487871880709994"><ele>1291.5</ele><time>2026-05-01T06:00:15Z</time></trkpt><trkpt lat="47.02998030514272" lon="11.487735448334954"><ele>1287.75</ele><time>2026-05-01T06:00:16Z</time></trkpt><trkpt lat="47.0300741812942" lon="11.487601470231539"><ele>1284.0</ele><time>2026-05-01T06:00:17Z</time></trkpt><trkpt lat="47.03016743863844" lon="11.487468938764444"><ele>1284.0</ele><time>2026-05-01T06:00:18Z</time></trkpt><trkpt lat="47.03026254085713" lon="11.487338480066983"><ele>1284.0</ele><time>2026-05-01T06:00:19Z</time></trkpt><trkpt lat="47.03035781976899" lon="11.487205789104232"><ele>1284.0</ele><time>2026-05-01T06:00:20Z</time></trkpt><trkpt lat="47.03045260017403" lon="11.487070687704742"><ele>1284.0</ele><time>2026-05-01T06:00:21Z</time></trkpt><trkpt lat="47.03054590667202" lon="11.486935092960403"><ele>1280.25</ele><time>2026-05-01T06:00:22Z</time></trkpt><trkpt lat="47.03064262504206" lon="11.486798167135893"><ele>1276.5</ele><time>2026-05-01T06:00:23Z</time></trkpt><trkpt lat="47.03073786357642" lon="11.486660325143415"><ele>1272.75</ele><time>2026-05-01T06:00:24Z</time></trkpt><trkpt lat="47.03083356988726" lon="11.48652044725114"><ele>1269.0</ele><time>2026-05-01T06:00:25Z</time></trkpt><trkpt lat="47.03093237536018" lon="11.48638051750587"><ele>1278.25</ele><time>2026-05-01T06:00:26Z</time></trkpt><trkpt lat="47.03103336996754" lon="11.486240060183539"><ele>1287.5</ele><time>2026-05-01T06:00:27Z</time></trkpt><trkpt lat="47.031133850343586" lon="11.486095862191496"><ele>1296.75</ele><time>2026-05-01T06:00:28Z</time></trkpt><trkpt lat="47.03123606050011" lon="11.48595052835854"><ele>1306.0</ele><time>2026-05-01T06:00:29Z</time></trkpt><trkpt lat="47.03134029576795" lon="11.485803939302707"><ele>1306.0</ele><time>2026-05-01T06:00:30Z</time></trkpt><trkpt lat="47.03144300735145" lon="11.485656742805684"><ele>1306.0</ele><time>2026-05-01T06:00:31Z</time></trkpt><trkpt lat="47.031544340691255" lon="11.48550786913256"><ele>1306.0</ele><time>2026-05-01T06:00:32Z</time></trkpt><trkpt lat="47.03164619928749" lon="11.485361762459462"><ele>1306.0</ele><time>2026-05-01T06:00:33Z</time></trkpt><trkpt lat="47.03174775866247" lon="11.485215535608218"><ele>1300.5</ele><time>2026-05-01T06:00:34Z</time></trkpt><trkpt lat="47.031849715079204" lon="11.485065123128141"><ele>1295.0</ele><time>2026-05-01T06:00:35Z</time></trkpt><trkpt lat="47.03195488568807" lon="11.484913943845147"><ele>1289.5</ele><time>2026-05-01T06:00:36Z</time></trkpt><trkpt lat="47.03205968575858" lon="11.48476364392688"><ele>1284.0</ele><time>2026-05-01T06:00:37Z</time></trkpt><trkpt lat="47.0321662319234" lon="11.484611228009255"><ele>1279.25</ele><time>2026-05-01T06:00:38Z</time></trkpt><trkpt lat="47.03226766922019" lon="11.484457599254464"><ele>1274.5</ele><time>2026-05-01T06:00:39Z</time></trkpt><trkpt lat="47.03237019697243" lon="11.484305883863135"><ele>1269.75</ele><time>2026-05-01T06:00:40Z</time></trkpt><trkpt lat="47.032468312962656" lon="11.48415026443923"><ele>1265.0</ele><time>2026-05-01T06:00:41Z</time></trkpt><trkpt lat="47.03256016135398" lon="11.483990825604936"><ele>1265.0</ele><time>2026-05-01T06:00:42Z</time></trkpt><trkpt lat="47.032643999107414" lon="11.483825019703161"><ele>1265.0</ele><time>2026-05-01T06:00:43Z</time></trkpt><trkpt lat="47.032727025291955" lon="11.483653394832674"><ele>1265.0</ele><time>2026-05-01T06:00:44Z</time></trkpt><trkpt lat="47.0328065455649" lon="11.483477281698091"><ele>1265.0</ele><time>2026-05-01T06:00:45Z</time></trkpt><trkpt lat="47.03288492951207" lon="11.483299748205413"><ele>1270.75</ele><time>2026-05-01T06:00:46Z</time></trkpt><trkpt lat="47.03296547823501" lon="11.483123287471741"><ele>1276.5</ele><time>2026-05-01T06:00:47Z</time></trkpt><trkpt lat="47.03304634690267" lon="11.48294689810497"><ele>1282.25</ele><time>2026-05-01T06:00:48Z</time></trkpt><trkpt lat="47.03312033809539" lon="11.482765170442095"><ele>1288.0</ele><time>2026-05-01T06:00:49Z</time></trkpt><trkpt lat="47.03319147250496" lon="11.482580453971881"><ele>1287.25</ele><time>2026-05-01T06:00:50Z</time></trkpt><trkpt lat="47.0332572331209" lon="11.482394509869279"><ele>1286.5</ele><time>2026-05-01T06:00:51Z</time></trkpt><trkpt lat="47.03332427869136" lon="11.482207456814383"><ele>1285.75</ele><time>2026-05-01T06:00:52Z</time></trkpt><trkpt lat="47.03339181542703" lon="11.482020931770723"><ele>1285.0</ele><time>2026-05-01T06:00:53Z</time></trkpt><trkpt lat="47.03345561599161" lon="11.481832987651716"><ele>1285.0</ele><time>2026-05-01T06:00:54Z</time></trkpt><trkpt lat="47.03351261986534" lon="11.481639884993077"><ele>1285.0</ele><time>2026-05-01T06:00:55Z</time></trkpt><trkpt lat="47.03356298500849" lon="11.481444839128688"><ele>1285.0</ele><time>2026-05-01T06:00:56Z</time></trkpt><trkpt lat="47.033608463853675" lon="11.48124362653332"><ele>1285.0</ele><time>2026-05-01T06:00:57Z</time></trkpt><trkpt lat="47.03365017274857" lon="11.481044394278296"><ele>1285.25</ele><time>2026-05-01T06:00:58Z</time></trkpt><trkpt lat="47.03368695462769" lon="11.480854983789289"><ele>1285.5</ele><time>2026-05-01T06:00:59Z</time></trkpt><trkpt lat="47.03372212744403" lon="11.480658352392952"><ele>1285.75</ele><time>2026-05-01T06:01:00Z</time></trkpt><trkpt lat="47.03375587702877" lon="11.480457528050486"><ele>1286.0</ele><time>2026-05-01T06:01:01Z</time></trkpt><trkpt lat="47.0337899757126" lon="11.480259281587214"><ele>1283.25</ele><time>2026-05-01T06:01:02Z</time></trkpt><trkpt lat="47.03382356157756" lon="11.480061778255187"><ele>1280.5</ele><time>2026-05-01T06:01:03Z</time></trkpt><trkpt lat="47.03385369810036" lon="11.479862887590444"><ele>1277.75</ele><time>2026-05-01T06:01:04Z</time></trkpt><trkpt lat="47.03388483589047" lon="11.47966650494454"><ele>1275.0</ele><time>2026-05-01T06:01:05Z</time></trkpt><trkpt lat="47.033913299090074" lon="11.47946612364053"><ele>1270.25</ele><time>2026-05-01T06:01:06Z</time></trkpt><trkpt lat="47.03394132682494" lon="11.479263960613961"><ele>1265.5</ele><time>2026-05-01T06:01:07Z</time></trkpt><trkpt lat="47.03396911373295" lon="11.479062670536377"><ele>1260.75</ele><time>2026-05-01T06:01:08Z</time></trkpt><trkpt lat="47.033997822162966" lon="11.478854505713167"><ele>1256.0</ele><time>2026-05-01T06:01:09Z</time></trkpt><trkpt lat="47.034026503810104" lon="11.478640461843511"><ele>1251.6666666666667</ele><time>2026-05-01T06:01:10Z</time></trkpt><trkpt lat="47.03405783735403" lon="11.478420394884152"><ele>1247.3333333333333</ele><time>2026-05-01T06:01:11Z</time></trkpt><trkpt lat="47.03409308079428" lon="11.478190413792124"><ele>1243.0</ele><time>2026-05-01T06:01:12Z</time></trkpt><trkpt lat="47.03413169665173" lon="11.477956571396739"><ele>1241.6666666666665</ele><time>2026-05-01T06:01:13Z</time></trkpt><trkpt lat="47.034178500327016" lon="11.47772413813766"><ele>1240.3333333333333</ele><time>2026-05-01T06:01:14Z</time></trkpt><trkpt lat="47.03423155467127" lon="11.477495932019014"><ele>1239.0</ele><time>2026-05-01T06:01:15Z</time></trkpt><trkpt lat="47.034291570246246" lon="11.477271007126891"><ele>1232.6666666666667</ele><time>2026-05-01T06:01:16Z</time></trkpt><trkpt lat="47.03436127540541" lon="11.477048934876121"><ele>1226.3333333333335</ele><time>2026-05-01T06:01:17Z</time></trkpt><trkpt lat="47.034440602111175" lon="11.476830844410378"><ele>1220.0</ele><time>2026-05-01T06:01:18Z</time></trkpt><trkpt lat="47.034534010658994" lon="11.476620005723793"><ele>1220.0</ele><time>2026-05-01T06:01:19Z</time></trkpt><trkpt lat="47.03463480874841" lon="11.47641257952726"><ele>1220.0</ele><time>2026-05-01T06:01:20Z</time></trkpt><trkpt lat="47.03473937012789" lon="11.476203439349446"><ele>1220.0</ele><time>2026-05-01T06:01:21Z</time></trkpt><trkpt lat="47.034847999290804" lon="11.475997569601999"><ele>1216.3333333333335</ele><time>2026-05-01T06:01:22Z</time></trkpt><trkpt lat="47.034958384854974" lon="11.475801337550857"><ele>1212.6666666666667</ele><time>2026-05-01T06:01:23Z</time></trkpt><trkpt lat="47.035073913690404" lon="11.475615815142001"><ele>1209.0</ele><time>2026-05-01T06:01:24Z</time></trkpt><trkpt lat="47.035195227557104" lon="11.475439476883327"><ele>1221.3333333333333</ele><time>2026-05-01T06:01:25Z</time></trkpt><trkpt lat="47.03532408653871" lon="11.475275990104974"><ele>1233.6666666666665</ele><time>2026-05-01T06:01:26Z</time></trkpt><trkpt lat="47.035461599911756" lon="11.475117388449334"><ele>1246.0</ele><time>2026-05-01T06:01:27Z</time></trkpt><trkpt lat="47.035606865192236" lon="11.474966568140854"><ele>1246.0</ele><time>2026-05-01T06:01:28Z</time></trkpt><trkpt lat="47.03576039425304" lon="11.474825082228923"><ele>1246.0</ele><time>2026-05-01T06:01:29Z</time></trkpt><trkpt lat="47.035925345087776" lon="11.474693253528242"><ele>1246.0</ele><time>2026-05-01T06:01:30Z</time></trkpt><trkpt lat="47.03609813251821" lon="11.474569080375028"><ele>1250.0</ele><time>2026-05-01T06:01:31Z</time></trkpt><trkpt lat="47.03627817371325" lon="11.474455481253791"><ele>1254.0</ele><time>2026-05-01T06:01:32Z</time></trkpt><trkpt lat="47.03646505694226" lon="11.47435280139411"><ele>1258.0</ele><time>2026-05-01T06:01:33Z</time></trkpt><trkpt lat="47.03665999434611" lon="11.474265420134165"><ele>1259.0</ele><time>2026-05-01T06:01:34.001Z</time></trkpt><trkpt lat="47.03686230529546" lon="11.474196197389665"><ele>1260.0</ele><time>2026-05-01T06:01:35.001Z</time></trkpt><trkpt lat="47.03706969556282" lon="11.474139665213617"><ele>1261.0</ele><time>2026-05-01T06:01:36.001Z</time></trkpt><trkpt lat="47.037273872332676" lon="11.474105503733734"><ele>1261.6666666666665</ele><time>2026-05-01T06:01:37.001Z</time></trkpt><trkpt lat="47.037483630032526" lon="11.4740855398411"><ele>1262.3333333333333</ele><time>2026-05-01T06:01:38.001Z</time></trkpt><trkpt lat="47.03769580828636" lon="11.474083393443607"><ele>1263.0</ele><time>2026-05-01T06:01:39.001Z</time></trkpt><trkpt lat="47.0379103009638" lon="11.474105511237683"><ele>1263.0</ele><time>2026-05-01T06:01:40.001Z</time></trkpt><trkpt lat="47.038125714720806" lon="11.474145640940952"><ele>1263.0</ele><time>2026-05-01T06:01:41.001Z</time></trkpt><trkpt lat="47.03833783668958" lon="11.474199916519868"><ele>1263.0</ele><time>2026-05-01T06:01:42.001Z</time></trkpt><trkpt lat="47.03854796012557" lon="11.474265316470735"><ele>1264.0</ele><time>2026-05-01T06:01:43.001Z</time></trkpt><trkpt lat="47.03875594549447" lon="11.474350067312304"><ele>1265.0</ele><time>2026-05-01T06:01:44.001Z</time></trkpt><trkpt lat="47.03896112155215" lon="11.474449019174495"><ele>1266.0</ele><time>2026-05-01T06:01:45.001Z</time></trkpt><trkpt lat="47.03916631032387" lon="11.474558534975817"><ele>1266.6666666666667</ele><time>2026-05-01T06:01:46.001Z</time></trkpt><trkpt lat="47.03937033335788" lon="11.474679213597843"><ele>1267.3333333333335</ele><time>2026-05-01T06:01:47.001Z</time></trkpt><trkpt lat="47.03957261034111" lon="11.474807680739831"><ele>1268.0</ele><time>2026-05-01T06:01:48.001Z</time></trkpt><trkpt lat="47.039773831598474" lon="11.474952754130136"><ele>1273.5</ele><time>2026-05-01T06:01:49.001Z</time></trkpt><trkpt lat="47.03997634826419" lon="11.475111780249838"><ele>1279.0</ele><time>2026-05-01T06:01:50.001Z</time></trkpt><trkpt lat="47.04017698382622" lon="11.475273920564378"><ele>1274.3333333333333</ele><time>2026-05-01T06:01:51.001Z</time></trkpt><trkpt lat="47.04037168971902" lon="11.475437387360683"><ele>1269.6666666666667</ele><time>2026-05-01T06:01:52.001Z</time></trkpt><trkpt lat="47.040564360255345" lon="11.475607757917638"><ele>1265.0</ele><time>2026-05-01T06:01:53.001Z</time></trkpt><trkpt lat="47.040757418432236" lon="11.475781941666702"><ele>1272.5</ele><time>2026-05-01T06:01:54.001Z</time></trkpt><trkpt lat="47.04094787146668" lon="11.475968657866643"><ele>1280.0</ele><time>2026-05-01T06:01:55.001Z</time></trkpt><trkpt lat="47.041137871874184" lon="11.47615550763941"><ele>1271.5</ele><time>2026-05-01T06:01:56.001Z</time></trkpt><trkpt lat="47.041328212086924" lon="11.476347248193818"><ele>1263.0</ele><time>2026-05-01T06:01:57.001Z</time></trkpt><trkpt lat="47.041517511916624" lon="11.476539534676135"><ele>1272.0</ele><time>2026-05-01T06:01:58.001Z</time></trkpt><trkpt lat="47.041704706760456" lon="11.4767306849331"><ele>1281.0</ele><time>2026-05-01T06:01:59.001Z</time></trkpt><trkpt lat="47.04188742083003" lon="11.476925682028813"><ele>1275.3333333333333</ele><time>2026-05-01T06:02:00.001Z</time></trkpt><trkpt lat="47.04206998962006" lon="11.477111887587254"><ele>1269.6666666666665</ele><time>2026-05-01T06:02:01.001Z</time></trkpt><trkpt lat="47.042252735172084" lon="11.477298230319791"><ele>1264.0</ele><time>2026-05-01T06:02:02.001Z</time></trkpt><trkpt lat="47.04243418540375" lon="11.477481311886066"><ele>1262.3333333333333</ele><time>2026-05-01T06:02:03.001Z</time></trkpt><trkpt lat="47.042617360814866" lon="11.477662120242629"><ele>1260.6666666666667</ele><time>2026-05-01T06:02:04.001Z</time></trkpt><trkpt lat="47.04279962736677" lon="11.47784395647192"><ele>1259.0</ele><time>2026-05-01T06:02:05.001Z</time></trkpt><trkpt lat="47.04298351148605" lon="11.478028401000541"><ele>1259.0</ele><time>2026-05-01T06:02:06.001Z</time></trkpt><trkpt lat="47.04316724204095" lon="11.47821239300853"><ele>1259.0</ele><time>2026-05-01T06:02:07.001Z</time></trkpt><trkpt lat="47.043351755423934" lon="11.478396827910608"><ele>1259.0</ele><time>2026-05-01T06:02:08.001Z</time></trkpt><trkpt lat="47.04353743417222" lon="11.47858240082488"><ele>1266.5</ele><time>2026-05-01T06:02:09.001Z</time></trkpt><trkpt lat="47.04372405458085" lon="11.47876976968542"><ele>1274.0</ele><time>2026-05-01T06:02:10.001Z</time></trkpt><trkpt lat="47.04391179027959" lon="11.478956809101804"><ele>1274.0</ele><time>2026-05-01T06:02:11.001Z</time></trkpt><trkpt lat="47.04410317236527" lon="11.47914265392802"><ele>1274.0</ele><time>2026-05-01T06:02:12.001Z</time></trkpt><trkpt lat="47.044292227796845" lon="11.479326252785253"><ele>1280.0</ele><time>2026-05-01T06:02:13.001Z</time></trkpt><trkpt lat="47.04448419146049" lon="11.47950989360871"><ele>1286.0</ele><time>2026-05-01T06:02:14.001Z</time></trkpt><trkpt lat="47.04467910724263" lon="11.47969156741848"><ele>1286.0</ele><time>2026-05-01T06:02:15Z</time></trkpt><trkpt lat="47.044876442306716" lon="11.479870454393089"><ele>1286.0</ele><time>2026-05-01T06:02:16Z</time></trkpt><trkpt lat="47.04507835765485" lon="11.4800465466265"><ele>1294.0</ele><time>2026-05-01T06:02:17Z</time></trkpt><trkpt lat="47.04528409785884" lon="11.480218507958952"><ele>1302.0</ele><time>2026-05-01T06:02:18Z</time></trkpt><trkpt lat="47.045495234616425" lon="11.480386221765418"><ele>1299.0</ele><time>2026-05-01T06:02:19Z</time></trkpt><trkpt lat="47.04570875969444" lon="11.480548017360034"><ele>1296.0</ele><time>2026-05-01T06:02:20Z</time></trkpt><trkpt lat="47.045927968874615" lon="11.480704058518217"><ele>1296.0</ele><time>2026-05-01T06:02:21Z</time></trkpt><trkpt lat="47.046149043950855" lon="11.480850484486984"><ele>1296.0</ele><time>2026-05-01T06:02:22Z</time></trkpt><trkpt lat="47.04637480132821" lon="11.480988111715929"><ele>1296.0</ele><time>2026-05-01T06:02:23Z</time></trkpt><trkpt lat="47.04660382019063" lon="11.481117412834013"><ele>1296.0</ele><time>2026-05-01T06:02:24Z</time></trkpt><trkpt lat="47.04683291293479" lon="11.481236150027756"><ele>1292.0</ele><time>2026-05-01T06:02:25Z</time></trkpt><trkpt lat="47.047065512618" lon="11.481348469610333"><ele>1288.0</ele><time>2026-05-01T06:02:26Z</time></trkpt><trkpt lat="47.04729847602476" lon="11.481452506666027"><ele>1298.0</ele><time>2026-05-01T06:02:27Z</time></trkpt><trkpt lat="47.04753177912276" lon="11.481551840037296"><ele>1308.0</ele><time>2026-05-01T06:02:28Z</time></trkpt><trkpt lat="47.04776646245395" lon="11.481642838290137"><ele>1308.0</ele><time>2026-05-01T06:02:29Z</time></trkpt><trkpt lat="47.04800104151945" lon="11.481723005803097"><ele>1308.0</ele><time>2026-05-01T06:02:30Z</time></trkpt><trkpt lat="47.04823907816621" lon="11.481792650808526"><ele>1312.5</ele><time>2026-05-01T06:02:31Z</time></trkpt><trkpt lat="47.048476684755364" lon="11.481855719464821"><ele>1317.0</ele><time>2026-05-01T06:02:32Z</time></trkpt><trkpt lat="47.04871661510644" lon="11.481908808059176"><ele>1317.0</ele><time>2026-05-01T06:02:33Z</time></trkpt><trkpt lat="47.04895795287483" lon="11.48195002543281"><ele>1317.0</ele><time>2026-05-01T06:02:34Z</time></trkpt><trkpt lat="47.04919825509785" lon="11.481986286033683"><ele>1317.5</ele><time>2026-05-01T06:02:35Z</time></trkpt><trkpt lat="47.049438950441385" lon="11.482013822784417"><ele>1318.0</ele><time>2026-05-01T06:02:36Z</time></trkpt><trkpt lat="47.04968045813462" lon="11.482031380250476"><ele>1318.0</ele><time>2026-05-01T06:02:37Z</time></trkpt><trkpt lat="47.049922943623606" lon="11.482040940730183"><ele>1318.0</ele><time>2026-05-01T06:02:38Z</time></trkpt><trkpt lat="47.05016537551064" lon="11.482046570083956"><ele>1323.0</ele><time>2026-05-01T06:02:39Z</time></trkpt><trkpt lat="47.05040994814524" lon="11.48204410476411"><ele>1328.0</ele><time>2026-05-01T06:02:40Z</time></trkpt><trkpt lat="47.050651976427446" lon="11.482033830098946"><ele>1331.0</ele><time>2026-05-01T06:02:41Z</time></trkpt><trkpt lat="47.05089091261109" lon="11.482011466613507"><ele>1334.0</ele><time>2026-05-01T06:02:42Z</time></trkpt><trkpt lat="47.05113022891102" lon="11.481979532377231"><ele>1334.0</ele><time>2026-05-01T06:02:43Z</time></trkpt><trkpt lat="47.05136828583689" lon="11.481939393309307"><ele>1334.0</ele><time>2026-05-01T06:02:44Z</time></trkpt><trkpt lat="47.05160634441576" lon="11.481889141891408"><ele>1333.0</ele><time>2026-05-01T06:02:45Z</time></trkpt><trkpt lat="47.051841455117675" lon="11.481832145214797"><ele>1332.0</ele><time>2026-05-01T06:02:46Z</time></trkpt><trkpt lat="47.05207707957448" lon="11.481772531931632"><ele>1332.0</ele><time>2026-05-01T06:02:47Z</time></trkpt><trkpt lat="47.05231082460866" lon="11.48170851257372"><ele>1332.0</ele><time>2026-05-01T06:02:48Z</time></trkpt><trkpt lat="47.052541894690464" lon="11.48164170130786"><ele>1330.5</ele><time>2026-05-01T06:02:49Z</time></trkpt><trkpt lat="47.052768897669026" lon="11.481572036538104"><ele>1329.0</ele><time>2026-05-01T06:02:50Z</time></trkpt><trkpt lat="47.05298539020069" lon="11.481506041191729"><ele>1329.0</ele><time>2026-05-01T06:02:51Z</time></trkpt><trkpt lat="47.053206974066505" lon="11.481432548906731"><ele>1329.0</ele><time>2026-05-01T06:02:52Z</time></trkpt><trkpt lat="47.0534291937257" lon="11.481358413189854"><ele>1334.0</ele><time>2026-05-01T06:02:53Z</time></trkpt><trkpt lat="47.053651671915745" lon="11.481278220345061"><ele>1339.0</ele><time>2026-05-01T06:02:54Z</time></trkpt><trkpt lat="47.05387575513459" lon="11.481199337327693"><ele>1339.0</ele><time>2026-05-01T06:02:55Z</time></trkpt><trkpt lat="47.054103081132425" lon="11.48112143960371"><ele>1339.0</ele><time>2026-05-01T06:02:56Z</time></trkpt><trkpt lat="47.054330755091186" lon="11.481045329983193"><ele>1337.5</ele><time>2026-05-01T06:02:57Z</time></trkpt><trkpt lat="47.054561391135096" lon="11.480970981398066"><ele>1336.0</ele><time>2026-05-01T06:02:58Z</time></trkpt><trkpt lat="47.05479294957432" lon="11.48089364061484"><ele>1331.0</ele><time>2026-05-01T06:02:59Z</time></trkpt><trkpt lat="47.05502366569106" lon="11.480814896903011"><ele>1326.0</ele><time>2026-05-01T06:03:00Z</time></trkpt><trkpt lat="47.055251628444886" lon="11.480737822280938"><ele>1326.0</ele><time>2026-05-01T06:03:01Z</time></trkpt><trkpt lat="47.055477335918646" lon="11.480661968586125"><ele>1326.0</ele><time>2026-05-01T06:03:02Z</time></trkpt><trkpt lat="47.05570457347917" lon="11.48058897897892"><ele>1318.5</ele><time>2026-05-01T06:03:03Z</time></trkpt><trkpt lat="47.05593431748113" lon="11.480518832313248"><ele>1311.0</ele><time>2026-05-01T06:03:04Z</time></trkpt><trkpt lat="47.05616524595986" lon="11.480452946030463"><ele>1306.5</ele><time>2026-05-01T06:03:05Z</time></trkpt><trkpt lat="47.05639871716073" lon="11.480395415088273"><ele>1302.0</ele><time>2026-05-01T06:03:06Z</time></trkpt><trkpt lat="47.05663098381285" lon="11.480339333278964"><ele>1302.0</ele><time>2026-05-01T06:03:07Z</time></trkpt><trkpt lat="47.05686818249509" lon="11.480285839606324"><ele>1302.0</ele><time>2026-05-01T06:03:08Z</time></trkpt><trkpt lat="47.057105702589176" lon="11.48023317562782"><ele>1302.0</ele><time>2026-05-01T06:03:09Z</time></trkpt><trkpt lat="47.05734543921377" lon="11.480187401589603"><ele>1302.0</ele><time>2026-05-01T06:03:10Z</time></trkpt><trkpt lat="47.05758808093578" lon="11.480146154673644"><ele>1308.0</ele><time>2026-05-01T06:03:11Z</time></trkpt><trkpt lat="47.05783447109829" lon="11.480111184873337"><ele>1314.0</ele><time>2026-05-01T06:03:12Z</time></trkpt><trkpt lat="47.058080257035066" lon="11.480078478304842"><ele>1321.0</ele><time>2026-05-01T06:03:13Z</time></trkpt><trkpt lat="47.05832866881536" lon="11.48004759069326"><ele>1328.0</ele><time>2026-05-01T06:03:14Z</time></trkpt><trkpt lat="47.05857699421897" lon="11.48001897522611"><ele>1328.0</ele><time>2026-05-01T06:03:15Z</time></trkpt><trkpt lat="47.0588234330671" lon="11.479992647711033"><ele>1328.0</ele><time>2026-05-01T06:03:16Z</time></trkpt><trkpt lat="47.05907014976829" lon="11.479969908792588"><ele>1329.0</ele><time>2026-05-01T06:03:17Z</time></trkpt><trkpt lat="47.05931330164924" lon="11.479949256097122"><ele>1330.0</ele><time>2026-05-01T06:03:18Z</time></trkpt><trkpt lat="47.059558366975466" lon="11.479932215123767"><ele>1330.0</ele><time>2026-05-01T06:03:19Z</time></trkpt><trkpt lat="47.05979426685557" lon="11.479916160248743"><ele>1330.0</ele><time>2026-05-01T06:03:20Z</time></trkpt><trkpt lat="47.06002004712723" lon="11.47990361125141"><ele>1329.0</ele><time>2026-05-01T06:03:21Z</time></trkpt><trkpt lat="47.060244389546746" lon="11.479894729755479"><ele>1328.0</ele><time>2026-05-01T06:03:22Z</time></trkpt><trkpt lat="47.06047207420636" lon="11.479890234554738"><ele>1328.0</ele><time>2026-05-01T06:03:23Z</time></trkpt><trkpt lat="47.060702844273955" lon="11.479887053300885"><ele>1328.0</ele><time>2026-05-01T06:03:24Z</time></trkpt><trkpt lat="47.060936226042756" lon="11.479885485089824"><ele>1328.5</ele><time>2026-05-01T06:03:25Z</time></trkpt><trkpt lat="47.06117165378658" lon="11.479884110254575"><ele>1329.0</ele><time>2026-05-01T06:03:26Z</time></trkpt><trkpt lat="47.061408178188685" lon="11.47988193201071"><ele>1327.0</ele><time>2026-05-01T06:03:27Z</time></trkpt><trkpt lat="47.061644163632096" lon="11.479884881283798"><ele>1325.0</ele><time>2026-05-01T06:03:28Z</time></trkpt><trkpt lat="47.061880624097476" lon="11.479889807989185"><ele>1325.0</ele><time>2026-05-01T06:03:29Z</time></trkpt><trkpt lat="47.06211561017113" lon="11.479898375115848"><ele>1325.0</ele><time>2026-05-01T06:03:30Z</time></trkpt><trkpt lat="47.06234676786467" lon="11.479914141574561"><ele>1322.5</ele><time>2026-05-01T06:03:31Z</time></trkpt><trkpt lat="47.06257668170103" lon="11.479933790951474"><ele>1320.0</ele><time>2026-05-01T06:03:32Z</time></trkpt><trkpt lat="47.06280545031974" lon="11.479954859323453"><ele>1320.0</ele><time>2026-05-01T06:03:33Z</time></trkpt><trkpt lat="47.06303170991242" lon="11.47998379660392"><ele>1320.0</ele><time>2026-05-01T06:03:34Z</time></trkpt><trkpt lat="47.063257499492295" lon="11.480011266978096"><ele>1318.5</ele><time>2026-05-01T06:03:35Z</time></trkpt><trkpt lat="47.063483723966314" lon="11.480040986063132"><ele>1317.0</ele><time>2026-05-01T06:03:36Z</time></trkpt><trkpt lat="47.06370771989738" lon="11.480073986648076"><ele>1317.0</ele><time>2026-05-01T06:03:37Z</time></trkpt><trkpt lat="47.063935053968265" lon="11.480112976175938"><ele>1317.0</ele><time>2026-05-01T06:03:38Z</time></trkpt><trkpt lat="47.064161277655444" lon="11.480152633409864"><ele>1315.0</ele><time>2026-05-01T06:03:39Z</time></trkpt><trkpt lat="47.064389408894364" lon="11.480192950192322"><ele>1313.0</ele><time>2026-05-01T06:03:40Z</time></trkpt><trkpt lat="47.06461697582833" lon="11.480236703713421"><ele>1313.0</ele><time>2026-05-01T06:03:41Z</time></trkpt><trkpt lat="47.06484685535935" lon="11.480283260302194"><ele>1313.0</ele><time>2026-05-01T06:03:42Z</time></trkpt><trkpt lat="47.06507969438925" lon="11.480330532620018"><ele>1307.5</ele><time>2026-05-01T06:03:43Z</time></trkpt><trkpt lat="47.06531165350088" lon="11.480379720677412"><ele>1302.0</ele><time>2026-05-01T06:03:44Z</time></trkpt><trkpt lat="47.065544203764325" lon="11.480432771056448"><ele>1303.0</ele><time>2026-05-01T06:03:45Z</time></trkpt><trkpt lat="47.06577799501986" lon="11.480487983183071"><ele>1304.0</ele><time>2026-05-01T06:03:46Z</time></trkpt><trkpt lat="47.066011117790275" lon="11.480543197030393"><ele>1300.0</ele><time>2026-05-01T06:03:47Z</time></trkpt><trkpt lat="47.06624390457719" lon="11.480598752674236"><ele>1296.0</ele><time>2026-05-01T06:03:48Z</time></trkpt><trkpt lat="47.06647842886599" lon="11.480652172623241"><ele>1287.5</ele><time>2026-05-01T06:03:49Z</time></trkpt><trkpt lat="47.06671440635019" lon="11.480705495658558"><ele>1279.0</ele><time>2026-05-01T06:03:50.001Z</time></trkpt><trkpt lat="47.06695035611778" lon="11.480762977315857"><ele>1279.0</ele><time>2026-05-01T06:03:51.001Z</time></trkpt><trkpt lat="47.06718606744419" lon="11.480817429088965"><ele>1279.0</ele><time>2026-05-01T06:03:52.001Z</time></trkpt><trkpt lat="47.06742464607395" lon="11.480869144728983"><ele>1259.5</ele><time>2026-05-01T06:03:53.001Z</time></trkpt><trkpt lat="47.06766373740607" lon="11.480918512277858"><ele>1240.0</ele><time>2026-05-01T06:03:54.001Z</time></trkpt><trkpt lat="47.06790178804174" lon="11.480959134252975"><ele>1240.0</ele><time>2026-05-01T06:03:55.001Z</time></trkpt><trkpt lat="47.06814395890518" lon="11.480998614404868"><ele>1240.0</ele><time>2026-05-01T06:03:56.001Z</time></trkpt><trkpt lat="47.06838795711782" lon="11.481031263614815"><ele>1241.5</ele><time>2026-05-01T06:03:57.001Z</time></trkpt><trkpt lat="47.06863424604202" lon="11.481055396860782"><ele>1243.0</ele><time>2026-05-01T06:03:58.001Z</time></trkpt><trkpt lat="47.06886360876095" lon="11.48108247964602"><ele>1263.0</ele><time>2026-05-01T06:03:59.001Z</time></trkpt><trkpt lat="47.06912421179551" lon="11.481089040917588"><ele>1283.0</ele><time>2026-05-01T06:04:00.001Z</time></trkpt><trkpt lat="47.06936670095748" lon="11.481081816616229"><ele>1283.0</ele><time>2026-05-01T06:04:01.001Z</time></trkpt><trkpt lat="47.06960229043778" lon="11.481065202852369"><ele>1283.0</ele><time>2026-05-01T06:04:02.001Z</time></trkpt><trkpt lat="47.06984470038744" lon="11.481037612570931"><ele>1287.5</ele><time>2026-05-01T06:04:03.001Z</time></trkpt><trkpt lat="47.07008887515628" lon="11.481003413068745"><ele>1292.0</ele><time>2026-05-01T06:04:04.001Z</time></trkpt><trkpt lat="47.07033330645818" lon="11.480960174581401"><ele>1292.0</ele><time>2026-05-01T06:04:05.001Z</time></trkpt><trkpt lat="47.07057971438146" lon="11.480904334722046"><ele>1292.0</ele><time>2026-05-01T06:04:06.001Z</time></trkpt><trkpt lat="47.07082364481776" lon="11.480840864399655"><ele>1282.0</ele><time>2026-05-01T06:04:07.001Z</time></trkpt><trkpt lat="47.07106473825449" lon="11.480766065446074"><ele>1272.0</ele><time>2026-05-01T06:04:08.001Z</time></trkpt><trkpt lat="47.07130178861766" lon="11.480678346163298"><ele>1272.0</ele><time>2026-05-01T06:04:09.001Z</time></trkpt><trkpt lat="47.071540904282166" lon="11.480581158374468"><ele>1272.0</ele><time>2026-05-01T06:04:10.001Z</time></trkpt><trkpt lat="47.07177972220953" lon="11.480475481635645"><ele>1273.0</ele><time>2026-05-01T06:04:11.001Z</time></trkpt><trkpt lat="47.07201639950972" lon="11.480360884787878"><ele>1274.0</ele><time>2026-05-01T06:04:12.001Z</time></trkpt><trkpt lat="47.07224881945536" lon="11.480239699198592"><ele>1263.0</ele><time>2026-05-01T06:04:13.001Z</time></trkpt><trkpt lat="47.07247746653941" lon="11.48011002829318"><ele>1252.0</ele><time>2026-05-01T06:04:14.001Z</time></trkpt><trkpt lat="47.07270226278485" lon="11.479971089844947"><ele>1252.0</ele><time>2026-05-01T06:04:15.001Z</time></trkpt><trkpt lat="47.07292429576649" lon="11.479827064945008"><ele>1252.0</ele><time>2026-05-01T06:04:16.001Z</time></trkpt><trkpt lat="47.073144896493076" lon="11.479673223576652"><ele>1262.5</ele><time>2026-05-01T06:04:17.001Z</time></trkpt><trkpt lat="47.073362449420166" lon="11.479508172041161"><ele>1273.0</ele><time>2026-05-01T06:04:18.001Z</time></trkpt><trkpt lat="47.073570986899014" lon="11.479337451705481"><ele>1273.0</ele><time>2026-05-01T06:04:19.001Z</time></trkpt><trkpt lat="47.07377754820378" lon="11.479161886490209"><ele>1273.0</ele><time>2026-05-01T06:04:20.001Z</time></trkpt><trkpt lat="47.07397900248908" lon="11.478971693488633"><ele>1269.0</ele><time>2026-05-01T06:04:21Z</time></trkpt><trkpt lat="47.074173758566275" lon="11.478768819400852"><ele>1265.0</ele><time>2026-05-01T06:04:22Z</time></trkpt><trkpt lat="47.074363436697254" lon="11.478555659073022"><ele>1265.0</ele><time>2026-05-01T06:04:23Z</time></trkpt><trkpt lat="47.07454830484337" lon="11.478332733869776"><ele>1265.0</ele><time>2026-05-01T06:04:24Z</time></trkpt><trkpt lat="47.07473113499717" lon="11.47809715884727"><ele>1254.0</ele><time>2026-05-01T06:04:25Z</time></trkpt><trkpt lat="47.074904060652464" lon="11.477851702053577"><ele>1243.0</ele><time>2026-05-01T06:04:26Z</time></trkpt><trkpt lat="47.075072612127634" lon="11.477595172930313"><ele>1243.0</ele><time>2026-05-01T06:04:27Z</time></trkpt><trkpt lat="47.075232731192735" lon="11.477329589545683"><ele>1243.0</ele><time>2026-05-01T06:04:28Z</time></trkpt><trkpt lat="47.07538433017375" lon="11.477053909390092"><ele>1259.5</ele><time>2026-05-01T06:04:29Z</time></trkpt><trkpt lat="47.07553309313278" lon="11.476770288579138"><ele>1276.0</ele><time>2026-05-01T06:04:30Z</time></trkpt><trkpt lat="47.07567627439811" lon="11.476483039115164"><ele>1256.5</ele><time>2026-05-01T06:04:31Z</time></trkpt><trkpt lat="47.07581322914995" lon="11.476188360813023"><ele>1237.0</ele><time>2026-05-01T06:04:32Z</time></trkpt><trkpt lat="47.075944663291246" lon="11.47589298128365"><ele>1237.0</ele><time>2026-05-01T06:04:33Z</time></trkpt><trkpt lat="47.07607522814414" lon="11.475597444092955"><ele>1237.0</ele><time>2026-05-01T06:04:34Z</time></trkpt><trkpt lat="47.07620193253798" lon="11.475295634260931"><ele>1244.5</ele><time>2026-05-01T06:04:35Z</time></trkpt><trkpt lat="47.07633414303352" lon="11.474995284415177"><ele>1252.0</ele><time>2026-05-01T06:04:36Z</time></trkpt><trkpt lat="47.076467917992645" lon="11.474693996828984"><ele>1235.5</ele><time>2026-05-01T06:04:37Z</time></trkpt><trkpt lat="47.07660699825342" lon="11.474398579479107"><ele>1219.0</ele><time>2026-05-01T06:04:38Z</time></trkpt><trkpt lat="47.07675070067308" lon="11.474107682770814"><ele>1219.0</ele><time>2026-05-01T06:04:39Z</time></trkpt><trkpt lat="47.07689983866186" lon="11.473816595927103"><ele>1219.0</ele><time>2026-05-01T06:04:40Z</time></trkpt><trkpt lat="47.077055844624255" lon="11.473538049997845"><ele>1221.0</ele><time>2026-05-01T06:04:41Z</time></trkpt><trkpt lat="47.077215882370936" lon="11.473265950510363"><ele>1223.0</ele><time>2026-05-01T06:04:42Z</time></trkpt><trkpt lat="47.07737752931904" lon="11.47300864535205"><ele>1210.0</ele><time>2026-05-01T06:04:43Z</time></trkpt><trkpt lat="47.077546362772914" lon="11.472764485693958"><ele>1197.0</ele><time>2026-05-01T06:04:44Z</time></trkpt><trkpt lat="47.07771939632707" lon="11.472519399671645"><ele>1197.0</ele><time>2026-05-01T06:04:45Z</time></trkpt><trkpt lat="47.077903025118545" lon="11.472281381535447"><ele>1197.0</ele><time>2026-05-01T06:04:46Z</time></trkpt><trkpt lat="47.078093046439996" lon="11.472057282353427"><ele>1185.0</ele><time>2026-05-01T06:04:47Z</time></trkpt><trkpt lat="47.078283674866064" lon="11.471838020541636"><ele>1173.0</ele><time>2026-05-01T06:04:48Z</time></trkpt><trkpt lat="47.07848401876642" lon="11.471632884857357"><ele>1173.0</ele><time>2026-05-01T06:04:49Z</time></trkpt><trkpt lat="47.07868541163281" lon="11.471434766396047"><ele>1173.0</ele><time>2026-05-01T06:04:50Z</time></trkpt><trkpt lat="47.07888173870088" lon="11.471236102361633"><ele>1185.0</ele><time>2026-05-01T06:04:51Z</time></trkpt><trkpt lat="47.07908479565579" lon="11.471044311657105"><ele>1197.0</ele><time>2026-05-01T06:04:52Z</time></trkpt><trkpt lat="47.07928452715852" lon="11.470846385309482"><ele>1198.0</ele><time>2026-05-01T06:04:53Z</time></trkpt><trkpt lat="47.07948101361759" lon="11.470647066399284"><ele>1199.0</ele><time>2026-05-01T06:04:54Z</time></trkpt><trkpt lat="47.07968436009598" lon="11.470450440523267"><ele>1199.5</ele><time>2026-05-01T06:04:55Z</time></trkpt><trkpt lat="47.07988333013185" lon="11.47025452611904"><ele>1200.0</ele><time>2026-05-01T06:04:56Z</time></trkpt><trkpt lat="47.08008308838108" lon="11.470061362749002"><ele>1200.0</ele><time>2026-05-01T06:04:57Z</time></trkpt><trkpt lat="47.0802848943884" lon="11.469868918385997"><ele>1200.0</ele><time>2026-05-01T06:04:58Z</time></trkpt><trkpt lat="47.08048533605971" lon="11.469670750229168"><ele>1201.5</ele><time>2026-05-01T06:04:59Z</time></trkpt><trkpt lat="47.08068057936103" lon="11.469464908218836"><ele>1203.0</ele><time>2026-05-01T06:05:00Z</time></trkpt><trkpt lat="47.0808694710433" lon="11.469254048187413"><ele>1198.5</ele><time>2026-05-01T06:05:01Z</time></trkpt><trkpt lat="47.081058675903414" lon="11.46903740920221"><ele>1194.0</ele><time>2026-05-01T06:05:02Z</time></trkpt><trkpt lat="47.081242171574274" lon="11.468811459722145"><ele>1199.5</ele><time>2026-05-01T06:05:03Z</time></trkpt><trkpt lat="47.08141216261204" lon="11.468571596372959"><ele>1205.0</ele><time>2026-05-01T06:05:04Z</time></trkpt><trkpt lat="47.081579646542686" lon="11.46832433562081"><ele>1196.5</ele><time>2026-05-01T06:05:05Z</time></trkpt><trkpt lat="47.08174001085664" lon="11.468064766076234"><ele>1188.0</ele><time>2026-05-01T06:05:06Z</time></trkpt><trkpt lat="47.08189334366208" lon="11.467792686939617"><ele>1188.0</ele><time>2026-05-01T06:05:07Z</time></trkpt><trkpt lat="47.082035022586716" lon="11.467513890650196"><ele>1188.0</ele><time>2026-05-01T06:05:08Z</time></trkpt><trkpt lat="47.08217250330798" lon="11.467227386726858"><ele>1196.0</ele><time>2026-05-01T06:05:09Z</time></trkpt><trkpt lat="47.08229907706397" lon="11.466934649784458"><ele>1204.0</ele><time>2026-05-01T06:05:10Z</time></trkpt><trkpt lat="47.08241968831186" lon="11.466632997073887"><ele>1192.5</ele><time>2026-05-01T06:05:11Z</time></trkpt><trkpt lat="47.08254114641813" lon="11.46633308484959"><ele>1181.0</ele><time>2026-05-01T06:05:12Z</time></trkpt><trkpt lat="47.08265712107453" lon="11.466028676751602"><ele>1181.0</ele><time>2026-05-01T06:05:13Z</time></trkpt><trkpt lat="47.082767888552965" lon="11.465719651344115"><ele>1181.0</ele><time>2026-05-01T06:05:14Z</time></trkpt><trkpt lat="47.082873199459485" lon="11.46540282968676"><ele>1189.5</ele><time>2026-05-01T06:05:15Z</time></trkpt><trkpt lat="47.08297638268066" lon="11.465081761904857"><ele>1198.0</ele><time>2026-05-01T06:05:16Z</time></trkpt><trkpt lat="47.083082884009556" lon="11.46475984890098"><ele>1205.5</ele><time>2026-05-01T06:05:17Z</time></trkpt><trkpt lat="47.08319067471658" lon="11.464437246668572"><ele>1213.0</ele><time>2026-05-01T06:05:18Z</time></trkpt><trkpt lat="47.08329715991946" lon="11.464115905652148"><ele>1193.0</ele><time>2026-05-01T06:05:19Z</time></trkpt><trkpt lat="47.083398111012194" lon="11.463787724793674"><ele>1173.0</ele><time>2026-05-01T06:05:20Z</time></trkpt><trkpt lat="47.08349942279076" lon="11.463461924842743"><ele>1173.0</ele><time>2026-05-01T06:05:21Z</time></trkpt><trkpt lat="47.0836052210971" lon="11.463144279846889"><ele>1173.0</ele><time>2026-05-01T06:05:22Z</time></trkpt><trkpt lat="47.08371573195425" lon="11.462830815470648"><ele>1176.0</ele><time>2026-05-01T06:05:23Z</time></trkpt><trkpt lat="47.08383081995325" lon="11.462521946875277"><ele>1179.0</ele><time>2026-05-01T06:05:24Z</time></trkpt><trkpt lat="47.08395335324088" lon="11.462224262288176"><ele>1183.5</ele><time>2026-05-01T06:05:25Z</time></trkpt><trkpt lat="47.08408175176021" lon="11.461935651871336"><ele>1188.0</ele><time>2026-05-01T06:05:26Z</time></trkpt><trkpt lat="47.0842178886088" lon="11.461655529349779"><ele>1174.5</ele><time>2026-05-01T06:05:27Z</time></trkpt><trkpt lat="47.08436267588146" lon="11.461381888540933"><ele>1161.0</ele><time>2026-05-01T06:05:28Z</time></trkpt><trkpt lat="47.084515676621145" lon="11.461121742487808"><ele>1161.0</ele><time>2026-05-01T06:05:29Z</time></trkpt><trkpt lat="47.08468074321189" lon="11.460879129940851"><ele>1161.0</ele><time>2026-05-01T06:05:30Z</time></trkpt><trkpt lat="47.08485491962457" lon="11.460649326132325"><ele>1152.5</ele><time>2026-05-01T06:05:31Z</time></trkpt><trkpt lat="47.08504075537761" lon="11.460437882804268"><ele>1144.0</ele><time>2026-05-01T06:05:32Z</time></trkpt><trkpt lat="47.08522795374188" lon="11.460232277896111"><ele>1144.0</ele><time>2026-05-01T06:05:33Z</time></trkpt><trkpt lat="47.08541357889734" lon="11.460031479318792"><ele>1144.0</ele><time>2026-05-01T06:05:34Z</time></trkpt><trkpt lat="47.08559622342613" lon="11.459848544839957"><ele>1135.5</ele><time>2026-05-01T06:05:35Z</time></trkpt><trkpt lat="47.08578494943677" lon="11.45966996819661"><ele>1127.0</ele><time>2026-05-01T06:05:36Z</time></trkpt><trkpt lat="47.08598331364293" lon="11.459502123639751"><ele>1127.0</ele><time>2026-05-01T06:05:37Z</time></trkpt><trkpt lat="47.086187391213244" lon="11.45934589392843"><ele>1127.0</ele><time>2026-05-01T06:05:38Z</time></trkpt><trkpt lat="47.086398298519484" lon="11.45920694007736"><ele>1113.5</ele><time>2026-05-01T06:05:39Z</time></trkpt><trkpt lat="47.086613998511034" lon="11.459077640557645"><ele>1100.0</ele><time>2026-05-01T06:05:40Z</time></trkpt><trkpt lat="47.08683226102216" lon="11.45896370238009"><ele>1100.0</ele><time>2026-05-01T06:05:41Z</time></trkpt><trkpt lat="47.087051832085244" lon="11.458861706113614"><ele>1100.0</ele><time>2026-05-01T06:05:42Z</time></trkpt><trkpt lat="47.08727295318012" lon="11.458781306367614"><ele>1089.5</ele><time>2026-05-01T06:05:43Z</time></trkpt><trkpt lat="47.08749696304546" lon="11.45870935280559"><ele>1079.0</ele><time>2026-05-01T06:05:44Z</time></trkpt><trkpt lat="47.087724836995875" lon="11.458653868295679"><ele>1079.0</ele><time>2026-05-01T06:05:45Z</time></trkpt><trkpt lat="47.08795279969618" lon="11.45861576058012"><ele>1079.0</ele><time>2026-05-01T06:05:46Z</time></trkpt><trkpt lat="47.0881823207149" lon="11.458587386144318"><ele>1083.5</ele><time>2026-05-01T06:05:47Z</time></trkpt><trkpt lat="47.088409890967235" lon="11.458576256690693"><ele>1088.0</ele><time>2026-05-01T06:05:48Z</time></trkpt><trkpt lat="47.08863482412555" lon="11.45857793124603"><ele>1088.0</ele><time>2026-05-01T06:05:49Z</time></trkpt><trkpt lat="47.0888587777316" lon="11.458594780099693"><ele>1088.0</ele><time>2026-05-01T06:05:50Z</time></trkpt><trkpt lat="47.089081700769526" lon="11.45862456576514"><ele>1088.0</ele><time>2026-05-01T06:05:51Z</time></trkpt><trkpt lat="47.089300507872466" lon="11.458670941179896"><ele>1090.3333333333335</ele><time>2026-05-01T06:05:52Z</time></trkpt><trkpt lat="47.08951618929057" lon="11.458727645168027"><ele>1092.6666666666667</ele><time>2026-05-01T06:05:53Z</time></trkpt><trkpt lat="47.08973065921083" lon="11.458795410708944"><ele>1095.0</ele><time>2026-05-01T06:05:54Z</time></trkpt><trkpt lat="47.0899415790286" lon="11.458880075196557"><ele>1098.3333333333333</ele><time>2026-05-01T06:05:55Z</time></trkpt><trkpt lat="47.09015096154017" lon="11.45897192553283"><ele>1101.6666666666665</ele><time>2026-05-01T06:05:56Z</time></trkpt><trkpt lat="47.090356178442526" lon="11.459073464678498"><ele>1105.0</ele><time>2026-05-01T06:05:57Z</time></trkpt><trkpt lat="47.09055474843468" lon="11.45919222259472"><ele>1105.0</ele><time>2026-05-01T06:05:58Z</time></trkpt><trkpt lat="47.09074725586755" lon="11.459320142415361"><ele>1105.0</ele><time>2026-05-01T06:05:59Z</time></trkpt><trkpt lat="47.09093607119137" lon="11.459452811840313"><ele>1105.0</ele><time>2026-05-01T06:06:00Z</time></trkpt><trkpt lat="47.09111837679821" lon="11.459600329140954"><ele>1104.6666666666665</ele><time>2026-05-01T06:06:01Z</time></trkpt><trkpt lat="47.09129854502612" lon="11.459751280877414"><ele>1104.3333333333333</ele><time>2026-05-01T06:06:02Z</time></trkpt><trkpt lat="47.091478127994215" lon="11.459906701651636"><ele>1104.0</ele><time>2026-05-01T06:06:03Z</time></trkpt><trkpt lat="47.09166058913936" lon="11.460063851148254"><ele>1105.0</ele><time>2026-05-01T06:06:04Z</time></trkpt><trkpt lat="47.091845707501" lon="11.460223895010717"><ele>1106.0</ele><time>2026-05-01T06:06:05Z</time></trkpt><trkpt lat="47.092033494966685" lon="11.4603834882317"><ele>1107.0</ele><time>2026-05-01T06:06:06Z</time></trkpt><trkpt lat="47.09222503557921" lon="11.460543083489775"><ele>1107.0</ele><time>2026-05-01T06:06:07Z</time></trkpt><trkpt lat="47.0924182944204" lon="11.460701335711342"><ele>1107.0</ele><time>2026-05-01T06:06:08Z</time></trkpt><trkpt lat="47.09261295610749" lon="11.460866115691216"><ele>1107.0</ele><time>2026-05-01T06:06:09Z</time></trkpt><trkpt lat="47.09281252765839" lon="11.461032864306862"><ele>1107.5</ele><time>2026-05-01T06:06:10Z</time></trkpt><trkpt lat="47.093011956708686" lon="11.461203649571676"><ele>1108.0</ele><time>2026-05-01T06:06:11Z</time></trkpt><trkpt lat="47.093215034633275" lon="11.461370021740835"><ele>1116.0</ele><time>2026-05-01T06:06:12Z</time></trkpt><trkpt lat="47.09341900662809" lon="11.461536075255747"><ele>1124.0</ele><time>2026-05-01T06:06:13Z</time></trkpt><trkpt lat="47.093625313763006" lon="11.46169749315305"><ele>1124.0</ele><time>2026-05-01T06:06:14Z</time></trkpt><trkpt lat="47.09383294462035" lon="11.46184498126898"><ele>1124.0</ele><time>2026-05-01T06:06:15Z</time></trkpt><trkpt lat="47.094045538548876" lon="11.461983297214026"><ele>1129.5</ele><time>2026-05-01T06:06:16Z</time></trkpt><trkpt lat="47.09426234626687" lon="11.462108029739973"><ele>1135.0</ele><time>2026-05-01T06:06:17Z</time></trkpt><trkpt lat="47.094482218254896" lon="11.462219759092315"><ele>1123.5</ele><time>2026-05-01T06:06:18Z</time></trkpt><trkpt lat="47.09470691022815" lon="11.462317161524703"><ele>1112.0</ele><time>2026-05-01T06:06:19Z</time></trkpt><trkpt lat="47.094935741357766" lon="11.462402435612022"><ele>1112.0</ele><time>2026-05-01T06:06:20.001Z</time></trkpt><trkpt lat="47.095165950804954" lon="11.46247685743134"><ele>1112.0</ele><time>2026-05-01T06:06:21.001Z</time></trkpt><trkpt lat="47.09539709614229" lon="11.462540581346586"><ele>1112.0</ele><time>2026-05-01T06:06:22.001Z</time></trkpt><trkpt lat="47.09563187120029" lon="11.462591312169577"><ele>1112.0</ele><time>2026-05-01T06:06:23.001Z</time></trkpt><trkpt lat="47.09586800121195" lon="11.462629335183085"><ele>1114.0</ele><time>2026-05-01T06:06:24.001Z</time></trkpt><trkpt lat="47.09610583152028" lon="11.462652845591924"><ele>1116.0</ele><time>2026-05-01T06:06:25.001Z</time></trkpt><trkpt lat="47.09634520223988" lon="11.462662007494266"><ele>1116.0</ele><time>2026-05-01T06:06:26.001Z</time></trkpt><trkpt lat="47.09658415293861" lon="11.462655606661393"><ele>1116.0</ele><time>2026-05-01T06:06:27Z</time></trkpt><trkpt lat="47.09682460992732" lon="11.462636662581223"><ele>1115.5</ele><time>2026-05-01T06:06:28Z</time></trkpt><trkpt lat="47.09706693095961" lon="11.462606317780885"><ele>1115.0</ele><time>2026-05-01T06:06:29Z</time></trkpt><trkpt lat="47.09730979815644" lon="11.462562841750959"><ele>1112.5</ele><time>2026-05-01T06:06:30Z</time></trkpt><trkpt lat="47.09755204692999" lon="11.462504886133761"><ele>1110.0</ele><time>2026-05-01T06:06:31Z</time></trkpt><trkpt lat="47.09779094308678" lon="11.462432962678916"><ele>1110.0</ele><time>2026-05-01T06:06:32Z</time></trkpt><trkpt lat="47.09802778041952" lon="11.462347485624122"><ele>1110.0</ele><time>2026-05-01T06:06:33Z</time></trkpt><trkpt lat="47.098260507708225" lon="11.462246458897198"><ele>1105.5</ele><time>2026-05-01T06:06:34Z</time></trkpt><trkpt lat="47.09848960084736" lon="11.462130997051649"><ele>1101.0</ele><time>2026-05-01T06:06:35Z</time></trkpt><trkpt lat="47.09871403461995" lon="11.462000570263411"><ele>1103.5</ele><time>2026-05-01T06:06:36Z</time></trkpt><trkpt lat="47.09893550271595" lon="11.461859130325225"><ele>1106.0</ele><time>2026-05-01T06:06:37Z</time></trkpt><trkpt lat="47.09915435148376" lon="11.461706695215517"><ele>1106.0</ele><time>2026-05-01T06:06:38Z</time></trkpt><trkpt lat="47.09936823576536" lon="11.46154545188778"><ele>1106.0</ele><time>2026-05-01T06:06:39Z</time></trkpt><trkpt lat="47.09957596526332" lon="11.461371922953436"><ele>1108.0</ele><time>2026-05-01T06:06:40Z</time></trkpt><trkpt lat="47.09978482256688" lon="11.461186796472148"><ele>1110.0</ele><time>2026-05-01T06:06:41Z</time></trkpt><trkpt lat="47.09998960082389" lon="11.46100241394085"><ele>1110.0</ele><time>2026-05-01T06:06:42Z</time></trkpt><trkpt lat="47.10019235218186" lon="11.460805883725206"><ele>1110.0</ele><time>2026-05-01T06:06:43Z</time></trkpt><trkpt lat="47.10039383725624" lon="11.460604472599508"><ele>1108.5</ele><time>2026-05-01T06:06:44Z</time></trkpt><trkpt lat="47.10059429245209" lon="11.460398695709841"><ele>1107.0</ele><time>2026-05-01T06:06:45Z</time></trkpt><trkpt lat="47.100794429805994" lon="11.460187509766119"><ele>1107.0</ele><time>2026-05-01T06:06:46Z</time></trkpt><trkpt lat="47.10099603742406" lon="11.459974253039798"><ele>1107.0</ele><time>2026-05-01T06:06:47Z</time></trkpt><trkpt lat="47.101197012399815" lon="11.459760411169903"><ele>1104.5</ele><time>2026-05-01T06:06:48Z</time></trkpt><trkpt lat="47.101394113425236" lon="11.459547746894506"><ele>1102.0</ele><time>2026-05-01T06:06:49Z</time></trkpt><trkpt lat="47.1015882667415" lon="11.459340335209404"><ele>1102.0</ele><time>2026-05-01T06:06:50Z</time></trkpt><trkpt lat="47.10178466086198" lon="11.459133312769193"><ele>1102.0</ele><time>2026-05-01T06:06:51Z</time></trkpt><trkpt lat="47.101980938232" lon="11.458923099930695"><ele>1115.5</ele><time>2026-05-01T06:06:52Z</time></trkpt><trkpt lat="47.10217714463744" lon="11.458708229687895"><ele>1129.0</ele><time>2026-05-01T06:06:53Z</time></trkpt><trkpt lat="47.10236259290139" lon="11.458494291612569"><ele>1114.5</ele><time>2026-05-01T06:06:54Z</time></trkpt><trkpt lat="47.10254603452314" lon="11.458290458612199"><ele>1100.0</ele><time>2026-05-01T06:06:55Z</time></trkpt><trkpt lat="47.10272647282812" lon="11.458099116165931"><ele>1113.0</ele><time>2026-05-01T06:06:56Z</time></trkpt><trkpt lat="47.102911032799675" lon="11.45790762879907"><ele>1126.0</ele><time>2026-05-01T06:06:57Z</time></trkpt><trkpt lat="47.1031020738639" lon="11.457720813685196"><ele>1109.0</ele><time>2026-05-01T06:06:58Z</time></trkpt><trkpt lat="47.10329680424063" lon="11.457536604022415"><ele>1092.0</ele><time>2026-05-01T06:06:59Z</time></trkpt><trkpt lat="47.10349617003031" lon="11.457347603576274"><ele>1092.0</ele><time>2026-05-01T06:07:00Z</time></trkpt><trkpt lat="47.10369753735825" lon="11.457165674265546"><ele>1092.0</ele><time>2026-05-01T06:07:01Z</time></trkpt><trkpt lat="47.103906209874616" lon="11.456988617672028"><ele>1092.0</ele><time>2026-05-01T06:07:02Z</time></trkpt><trkpt lat="47.104117078472115" lon="11.456818247820557"><ele>1092.0</ele><time>2026-05-01T06:07:03Z</time></trkpt><trkpt lat="47.10433259105435" lon="11.456655653104097"><ele>1092.0</ele><time>2026-05-01T06:07:04Z</time></trkpt><trkpt lat="47.10455034861165" lon="11.456497735959974"><ele>1092.0</ele><time>2026-05-01T06:07:05Z</time></trkpt><trkpt lat="47.10476768425565" lon="11.456339194288281"><ele>1090.0</ele><time>2026-05-01T06:07:06Z</time></trkpt><trkpt lat="47.10498691783816" lon="11.45618045963455"><ele>1088.0</ele><time>2026-05-01T06:07:07Z</time></trkpt><trkpt lat="47.10520871866905" lon="11.456024100839924"><ele>1088.0</ele><time>2026-05-01T06:07:08Z</time></trkpt><trkpt lat="47.10542887643703" lon="11.455866575963773"><ele>1088.0</ele><time>2026-05-01T06:07:09Z</time></trkpt><trkpt lat="47.10564635248342" lon="11.45571110969991"><ele>1089.0</ele><time>2026-05-01T06:07:10Z</time></trkpt><trkpt lat="47.10586410286183" lon="11.455558893207114"><ele>1090.0</ele><time>2026-05-01T06:07:11Z</time></trkpt><trkpt lat="47.10608171384808" lon="11.45540838638346"><ele>1090.0</ele><time>2026-05-01T06:07:12Z</time></trkpt><trkpt lat="47.106300301481824" lon="11.455257971668374"><ele>1090.0</ele><time>2026-05-01T06:07:13Z</time></trkpt><trkpt lat="47.10651442647437" lon="11.455105995182691"><ele>1079.5</ele><time>2026-05-01T06:07:14Z</time></trkpt><trkpt lat="47.10672854945068" lon="11.45495392870905"><ele>1069.0</ele><time>2026-05-01T06:07:15Z</time></trkpt><trkpt lat="47.10694180171607" lon="11.454803471839986"><ele>1069.0</ele><time>2026-05-01T06:07:16Z</time></trkpt><trkpt lat="47.107154651208106" lon="11.454652544646343"><ele>1069.0</ele><time>2026-05-01T06:07:17Z</time></trkpt><trkpt lat="47.107367356396274" lon="11.454504257012404"><ele>1070.5</ele><time>2026-05-01T06:07:18Z</time></trkpt><trkpt lat="47.10758223077082" lon="11.454354558054211"><ele>1072.0</ele><time>2026-05-01T06:07:19Z</time></trkpt><trkpt lat="47.1077954659089" lon="11.454204934078824"><ele>1072.0</ele><time>2026-05-01T06:07:20Z</time></trkpt><trkpt lat="47.108010279690674" lon="11.454053153214916"><ele>1072.0</ele><time>2026-05-01T06:07:21Z</time></trkpt><trkpt lat="47.10822305448537" lon="11.453902790868089"><ele>1071.5</ele><time>2026-05-01T06:07:22Z</time></trkpt><trkpt lat="47.1084381116263" lon="11.453751465586729"><ele>1071.0</ele><time>2026-05-01T06:07:23Z</time></trkpt><trkpt lat="47.108654591917976" lon="11.453599556903272"><ele>1071.0</ele><time>2026-05-01T06:07:24Z</time></trkpt><trkpt lat="47.10887086200204" lon="11.453450709998936"><ele>1071.0</ele><time>2026-05-01T06:07:25Z</time></trkpt><trkpt lat="47.109088050655565" lon="11.453301409510566"><ele>1062.0</ele><time>2026-05-01T06:07:26Z</time></trkpt><trkpt lat="47.10930578286546" lon="11.453151739921594"><ele>1053.0</ele><time>2026-05-01T06:07:27Z</time></trkpt><trkpt lat="47.10952435065583" lon="11.452998507529408"><ele>1055.0</ele><time>2026-05-01T06:07:28Z</time></trkpt><trkpt lat="47.109743567377286" lon="11.452845977110695"><ele>1057.0</ele><time>2026-05-01T06:07:29Z</time></trkpt><trkpt lat="47.10996394869408" lon="11.452693373800694"><ele>1057.0</ele><time>2026-05-01T06:07:30Z</time></trkpt><trkpt lat="47.11018240170095" lon="11.452542905845007"><ele>1057.0</ele><time>2026-05-01T06:07:31Z</time></trkpt><trkpt lat="47.110401900387465" lon="11.452393802591937"><ele>1057.0</ele><time>2026-05-01T06:07:32Z</time></trkpt><trkpt lat="47.11062209365379" lon="11.452243609869356"><ele>1057.0</ele><time>2026-05-01T06:07:33Z</time></trkpt><trkpt lat="47.11084380981664" lon="11.452099607184453"><ele>1061.0</ele><time>2026-05-01T06:07:34Z</time></trkpt><trkpt lat="47.11106849231572" lon="11.451963337869046"><ele>1065.0</ele><time>2026-05-01T06:07:35Z</time></trkpt><trkpt lat="47.111295589776596" lon="11.451841700203726"><ele>1065.0</ele><time>2026-05-01T06:07:36Z</time></trkpt><trkpt lat="47.111525721997495" lon="11.451731445958695"><ele>1065.0</ele><time>2026-05-01T06:07:37Z</time></trkpt><trkpt lat="47.11175893687189" lon="11.451635278391828"><ele>1053.0</ele><time>2026-05-01T06:07:38Z</time></trkpt><trkpt lat="47.11199481554051" lon="11.451552400696503"><ele>1041.0</ele><time>2026-05-01T06:07:39Z</time></trkpt><trkpt lat="47.11223226775949" lon="11.451482435295233"><ele>1035.0</ele><time>2026-05-01T06:07:40Z</time></trkpt><trkpt lat="47.112470417860564" lon="11.451424869777753"><ele>1029.0</ele><time>2026-05-01T06:07:41Z</time></trkpt><trkpt lat="47.11270971700379" lon="11.45138074403176"><ele>1029.0</ele><time>2026-05-01T06:07:42Z</time></trkpt><trkpt lat="47.11294947264522" lon="11.45134862410585"><ele>1029.0</ele><time>2026-05-01T06:07:43Z</time></trkpt><trkpt lat="47.11319140291682" lon="11.45132731327189"><ele>1025.0</ele><time>2026-05-01T06:07:44Z</time></trkpt><trkpt lat="47.1134338625055" lon="11.451311652704627"><ele>1021.0</ele><time>2026-05-01T06:07:45Z</time></trkpt><trkpt lat="47.11367460903415" lon="11.451296199706668"><ele>1029.0</ele><time>2026-05-01T06:07:46Z</time></trkpt><trkpt lat="47.11391331317298" lon="11.451282399032527"><ele>1037.0</ele><time>2026-05-01T06:07:47Z</time></trkpt><trkpt lat="47.11415081075557" lon="11.451271798390787"><ele>1037.0</ele><time>2026-05-01T06:07:48Z</time></trkpt><trkpt lat="47.11438747448551" lon="11.451261656755781"><ele>1037.0</ele><time>2026-05-01T06:07:49Z</time></trkpt><trkpt lat="47.11462307163474" lon="11.451248711292289"><ele>1037.0</ele><time>2026-05-01T06:07:50Z</time></trkpt><trkpt lat="47.11485644894754" lon="11.451233748072706"><ele>1037.0</ele><time>2026-05-01T06:07:51Z</time></trkpt><trkpt lat="47.11508750538794" lon="11.451217268384708"><ele>1038.0</ele><time>2026-05-01T06:07:52Z</time></trkpt><trkpt lat="47.11531777611703" lon="11.451196024227356"><ele>1039.0</ele><time>2026-05-01T06:07:53Z</time></trkpt><trkpt lat="47.115544860820954" lon="11.451164879509468"><ele>1034.0</ele><time>2026-05-01T06:07:54Z</time></trkpt><trkpt lat="47.115771260168195" lon="11.451122090511193"><ele>1029.0</ele><time>2026-05-01T06:07:55Z</time></trkpt><trkpt lat="47.11599687929113" lon="11.451063252682289"><ele>1029.0</ele><time>2026-05-01T06:07:56Z</time></trkpt><trkpt lat="47.1162275821716" lon="11.450992024367537"><ele>1029.0</ele><time>2026-05-01T06:07:57Z</time></trkpt><trkpt lat="47.116454111805666" lon="11.450901105237243"><ele>1025.5</ele><time>2026-05-01T06:07:58Z</time></trkpt><trkpt lat="47.11668072805398" lon="11.450792095288286"><ele>1022.0</ele><time>2026-05-01T06:07:59Z</time></trkpt><trkpt lat="47.11690625146593" lon="11.450669783207845"><ele>1022.0</ele><time>2026-05-01T06:08:00Z</time></trkpt><trkpt lat="47.11713039257558" lon="11.450527262613598"><ele>1022.0</ele><time>2026-05-01T06:08:01Z</time></trkpt><trkpt lat="47.11735237920997" lon="11.450375712005195"><ele>1023.5</ele><time>2026-05-01T06:08:02Z</time></trkpt><trkpt lat="47.11757286778549" lon="11.450222185133585"><ele>1025.0</ele><time>2026-05-01T06:08:03Z</time></trkpt><trkpt lat="47.11779327188563" lon="11.45006496062049"><ele>1025.0</ele><time>2026-05-01T06:08:04Z</time></trkpt><trkpt lat="47.11800996057745" lon="11.449905382848327"><ele>1025.0</ele><time>2026-05-01T06:08:05Z</time></trkpt><trkpt lat="47.11821902594699" lon="11.449753776552106"><ele>1027.0</ele><time>2026-05-01T06:08:06Z</time></trkpt><trkpt lat="47.118432653575915" lon="11.44960629045582"><ele>1029.0</ele><time>2026-05-01T06:08:07Z</time></trkpt><trkpt lat="47.11865513817985" lon="11.449461058614542"><ele>1029.0</ele><time>2026-05-01T06:08:08Z</time></trkpt><trkpt lat="47.11888198502008" lon="11.449321306046357"><ele>1029.0</ele><time>2026-05-01T06:08:09Z</time></trkpt><trkpt lat="47.11911558682748" lon="11.449195910031078"><ele>1024.0</ele><time>2026-05-01T06:08:10Z</time></trkpt><trkpt lat="47.11935468894354" lon="11.449090195662652"><ele>1019.0</ele><time>2026-05-01T06:08:11Z</time></trkpt><trkpt lat="47.11959765035102" lon="11.449003600896937"><ele>1019.0</ele><time>2026-05-01T06:08:12Z</time></trkpt><trkpt lat="47.11984223883877" lon="11.448937370590121"><ele>1019.0</ele><time>2026-05-01T06:08:13Z</time></trkpt><trkpt lat="47.120087901247686" lon="11.4488878491748"><ele>1018.0</ele><time>2026-05-01T06:08:14Z</time></trkpt><trkpt lat="47.120334666676655" lon="11.448854448587793"><ele>1017.0</ele><time>2026-05-01T06:08:15Z</time></trkpt><trkpt lat="47.12058296808895" lon="11.4488359762642"><ele>1017.0</ele><time>2026-05-01T06:08:16Z</time></trkpt><trkpt lat="47.120830579738005" lon="11.448833675922682"><ele>1017.0</ele><time>2026-05-01T06:08:17Z</time></trkpt><trkpt lat="47.12107652739176" lon="11.448847484671397"><ele>1017.0</ele><time>2026-05-01T06:08:18Z</time></trkpt><trkpt lat="47.121324467946465" lon="11.448877628050473"><ele>1017.0</ele><time>2026-05-01T06:08:19Z</time></trkpt><trkpt lat="47.1215705518514" lon="11.448929809002458"><ele>1018.5</ele><time>2026-05-01T06:08:20Z</time></trkpt><trkpt lat="47.12181404953678" lon="11.448995067770465"><ele>1020.0</ele><time>2026-05-01T06:08:21Z</time></trkpt><trkpt lat="47.12205562487473" lon="11.44907647702167"><ele>1020.0</ele><time>2026-05-01T06:08:22Z</time></trkpt><trkpt lat="47.12229318354854" lon="11.449172688595178"><ele>1020.0</ele><time>2026-05-01T06:08:23Z</time></trkpt><trkpt lat="47.12252507490668" lon="11.449277737159166"><ele>1023.5</ele><time>2026-05-01T06:08:24Z</time></trkpt><trkpt lat="47.122753578086126" lon="11.449386462721257"><ele>1027.0</ele><time>2026-05-01T06:08:25Z</time></trkpt><trkpt lat="47.1229764116263" lon="11.44949335141726"><ele>1027.0</ele><time>2026-05-01T06:08:26Z</time></trkpt><trkpt lat="47.12319639119782" lon="11.449598876608473"><ele>1027.0</ele><time>2026-05-01T06:08:27Z</time></trkpt><trkpt lat="47.12341498115372" lon="11.449695048009914"><ele>1026.5</ele><time>2026-05-01T06:08:28Z</time></trkpt><trkpt lat="47.1236344524984" lon="11.44979231700605"><ele>1026.0</ele><time>2026-05-01T06:08:29Z</time></trkpt><trkpt lat="47.123857014357895" lon="11.449883728552336"><ele>1030.5</ele><time>2026-05-01T06:08:30Z</time></trkpt><trkpt lat="47.12408121663571" lon="11.449967141164798"><ele>1035.0</ele><time>2026-05-01T06:08:31Z</time></trkpt><trkpt lat="47.124309555487905" lon="11.450049396347698"><ele>1035.0</ele><time>2026-05-01T06:08:32Z</time></trkpt><trkpt lat="47.12454145375146" lon="11.450123146340806"><ele>1035.0</ele><time>2026-05-01T06:08:33Z</time></trkpt><trkpt lat="47.12477872640408" lon="11.45018806349644"><ele>1041.0</ele><time>2026-05-01T06:08:34Z</time></trkpt><trkpt lat="47.1250192902569" lon="11.450244692784295"><ele>1047.0</ele><time>2026-05-01T06:08:35Z</time></trkpt><trkpt lat="47.12526088706772" lon="11.450293815120489"><ele>1047.0</ele><time>2026-05-01T06:08:36Z</time></trkpt><trkpt lat="47.125505367405204" lon="11.450337135726473"><ele>1047.0</ele><time>2026-05-01T06:08:37Z</time></trkpt><trkpt lat="47.12574838896654" lon="11.450371594733003"><ele>1047.0</ele><time>2026-05-01T06:08:38Z</time></trkpt><trkpt lat="47.1259931881921" lon="11.450396678166756"><ele>1047.0</ele><time>2026-05-01T06:08:39Z</time></trkpt><trkpt lat="47.126239093350065" lon="11.450411755182008"><ele>1047.0</ele><time>2026-05-01T06:08:40Z</time></trkpt><trkpt lat="47.1264854225329" lon="11.450420605280717"><ele>1047.0</ele><time>2026-05-01T06:08:41Z</time></trkpt><trkpt lat="47.12673200623973" lon="11.450416326195546"><ele>1049.5</ele><time>2026-05-01T06:08:42Z</time></trkpt><trkpt lat="47.12697870733377" lon="11.450405172525462"><ele>1052.0</ele><time>2026-05-01T06:08:43Z</time></trkpt><trkpt lat="47.127227063897784" lon="11.450383461825368"><ele>1050.5</ele><time>2026-05-01T06:08:44Z</time></trkpt><trkpt lat="47.12747325451049" lon="11.450355239677352"><ele>1049.0</ele><time>2026-05-01T06:08:45Z</time></trkpt><trkpt lat="47.127717242770416" lon="11.450320993127638"><ele>1049.0</ele><time>2026-05-01T06:08:46Z</time></trkpt><trkpt lat="47.12796009739116" lon="11.450283251193415"><ele>1049.0</ele><time>2026-05-01T06:08:47Z</time></trkpt><trkpt lat="47.12820170075063" lon="11.450243725751523"><ele>1050.0</ele><time>2026-05-01T06:08:48Z</time></trkpt><trkpt lat="47.12844270386163" lon="11.450206215353907"><ele>1051.0</ele><time>2026-05-01T06:08:49Z</time></trkpt><trkpt lat="47.128682506155236" lon="11.45016889675912"><ele>1051.0</ele><time>2026-05-01T06:08:50Z</time></trkpt><trkpt lat="47.128920449595164" lon="11.450131737712432"><ele>1051.0</ele><time>2026-05-01T06:08:51Z</time></trkpt><trkpt lat="47.129159002544675" lon="11.450098051427151"><ele>1049.0</ele><time>2026-05-01T06:08:52Z</time></trkpt><trkpt lat="47.129397122086935" lon="11.45006682227181"><ele>1047.0</ele><time>2026-05-01T06:08:53Z</time></trkpt><trkpt lat="47.129635072214626" lon="11.450038391019467"><ele>1047.0</ele><time>2026-05-01T06:08:54Z</time></trkpt><trkpt lat="47.129872109531206" lon="11.450017147957514"><ele>1047.0</ele><time>2026-05-01T06:08:55Z</time></trkpt><trkpt lat="47.1301112463274" lon="11.449998708518148"><ele>1045.0</ele><time>2026-05-01T06:08:56Z</time></trkpt><trkpt lat="47.13035218055956" lon="11.449983518913346"><ele>1043.0</ele><time>2026-05-01T06:08:57Z</time></trkpt><trkpt lat="47.13059316806107" lon="11.44997494038284"><ele>1046.0</ele><time>2026-05-01T06:08:58Z</time></trkpt><trkpt lat="47.13083313281106" lon="11.449973109583043"><ele>1049.0</ele><time>2026-05-01T06:08:59Z</time></trkpt><trkpt lat="47.13107390280604" lon="11.449981113922595"><ele>1049.0</ele><time>2026-05-01T06:09:00Z</time></trkpt><trkpt lat="47.13131344475332" lon="11.449991086517622"><ele>1049.0</ele><time>2026-05-01T06:09:01Z</time></trkpt><trkpt lat="47.13155339567678" lon="11.450002756018396"><ele>1051.0</ele><time>2026-05-01T06:09:02Z</time></trkpt><trkpt lat="47.131793531401655" lon="11.450016633382058"><ele>1053.0</ele><time>2026-05-01T06:09:03Z</time></trkpt><trkpt lat="47.13203231831343" lon="11.450032257887825"><ele>1053.0</ele><time>2026-05-01T06:09:04Z</time></trkpt><trkpt lat="47.13226990510142" lon="11.450049195590136"><ele>1053.0</ele><time>2026-05-01T06:09:05Z</time></trkpt><trkpt lat="47.13250752656931" lon="11.450072015705562"><ele>1055.0</ele><time>2026-05-01T06:09:06Z</time></trkpt><trkpt lat="47.1327459967917" lon="11.450091335412326"><ele>1057.0</ele><time>2026-05-01T06:09:07Z</time></trkpt><trkpt lat="47.13298351718322" lon="11.450104080592702"><ele>1057.5</ele><time>2026-05-01T06:09:08Z</time></trkpt><trkpt lat="47.133223663397" lon="11.450115688698165"><ele>1058.0</ele><time>2026-05-01T06:09:09Z</time></trkpt><trkpt lat="47.13346316309225" lon="11.450119831331632"><ele>1058.0</ele><time>2026-05-01T06:09:10Z</time></trkpt><trkpt lat="47.133702723007204" lon="11.450123388842103"><ele>1058.0</ele><time>2026-05-01T06:09:11Z</time></trkpt><trkpt lat="47.13394135212514" lon="11.450120857336527"><ele>1058.0</ele><time>2026-05-01T06:09:12Z</time></trkpt><trkpt lat="47.13418189965264" lon="11.450113353304753"><ele>1058.0</ele><time>2026-05-01T06:09:13Z</time></trkpt><trkpt lat="47.134423991842795" lon="11.450099087583077"><ele>1058.0</ele><time>2026-05-01T06:09:14Z</time></trkpt><trkpt lat="47.134666008373536" lon="11.450077935837529"><ele>1058.0</ele><time>2026-05-01T06:09:15Z</time></trkpt><trkpt lat="47.13490540356709" lon="11.450045165568527"><ele>1046.0</ele><time>2026-05-01T06:09:16Z</time></trkpt><trkpt lat="47.13514631248772" lon="11.450001039745642"><ele>1034.0</ele><time>2026-05-01T06:09:17Z</time></trkpt><trkpt lat="47.135388605754905" lon="11.449950453510832"><ele>1034.0</ele><time>2026-05-01T06:09:18Z</time></trkpt><trkpt lat="47.13562957678266" lon="11.449893389251018"><ele>1034.0</ele><time>2026-05-01T06:09:19Z</time></trkpt><trkpt lat="47.135871973683926" lon="11.449827142098629"><ele>1032.0</ele><time>2026-05-01T06:09:20Z</time></trkpt><trkpt lat="47.13611417522736" lon="11.449750812869247"><ele>1030.0</ele><time>2026-05-01T06:09:21Z</time></trkpt><trkpt lat="47.13635563789081" lon="11.449668877656444"><ele>1034.0</ele><time>2026-05-01T06:09:22Z</time></trkpt><trkpt lat="47.13659548090652" lon="11.449579266371794"><ele>1038.0</ele><time>2026-05-01T06:09:23Z</time></trkpt><trkpt lat="47.1368331614043" lon="11.449478920932322"><ele>1038.0</ele><time>2026-05-01T06:09:24Z</time></trkpt><trkpt lat="47.13706787308798" lon="11.449370571962032"><ele>1038.0</ele><time>2026-05-01T06:09:25Z</time></trkpt><trkpt lat="47.13730330738138" lon="11.449254582192454"><ele>1042.0</ele><time>2026-05-01T06:09:26Z</time></trkpt><trkpt lat="47.13753252879946" lon="11.449132622623347"><ele>1046.0</ele><time>2026-05-01T06:09:27Z</time></trkpt><trkpt lat="47.13776300206767" lon="11.44900464930213"><ele>1046.0</ele><time>2026-05-01T06:09:28Z</time></trkpt><trkpt lat="47.13799141561729" lon="11.448872578911052"><ele>1046.0</ele><time>2026-05-01T06:09:29Z</time></trkpt><trkpt lat="47.13821508684935" lon="11.448736304784127"><ele>1055.5</ele><time>2026-05-01T06:09:30Z</time></trkpt><trkpt lat="47.13843484992782" lon="11.448589435011602"><ele>1065.0</ele><time>2026-05-01T06:09:31Z</time></trkpt><trkpt lat="47.138652381155715" lon="11.44843492304855"><ele>1065.0</ele><time>2026-05-01T06:09:32Z</time></trkpt><trkpt lat="47.138869326092355" lon="11.448273605428945"><ele>1065.0</ele><time>2026-05-01T06:09:33Z</time></trkpt><trkpt lat="47.13908488945221" lon="11.44811302715195"><ele>1069.0</ele><time>2026-05-01T06:09:34Z</time></trkpt><trkpt lat="47.139300420345464" lon="11.447948084293806"><ele>1073.0</ele><time>2026-05-01T06:09:35Z</time></trkpt><trkpt lat="47.13951888827027" lon="11.447784051531343"><ele>1073.0</ele><time>2026-05-01T06:09:36Z</time></trkpt><trkpt lat="47.139738710988354" lon="11.447619882069333"><ele>1073.0</ele><time>2026-05-01T06:09:37Z</time></trkpt><trkpt lat="47.13995084834978" lon="11.447462259869516"><ele>1071.0</ele><time>2026-05-01T06:09:38Z</time></trkpt><trkpt lat="47.140156241029715" lon="11.447303710477694"><ele>1069.0</ele><time>2026-05-01T06:09:39Z</time></trkpt><trkpt lat="47.14037049037333" lon="11.447144710461377"><ele>1069.0</ele><time>2026-05-01T06:09:40Z</time></trkpt><trkpt lat="47.14059082906659" lon="11.446984740055921"><ele>1069.0</ele><time>2026-05-01T06:09:41Z</time></trkpt><trkpt lat="47.14081380681802" lon="11.446827204026562"><ele>1069.0</ele><time>2026-05-01T06:09:42Z</time></trkpt><trkpt lat="47.141040041931554" lon="11.4466683015177"><ele>1069.0</ele><time>2026-05-01T06:09:43Z</time></trkpt><trkpt lat="47.14127078187451" lon="11.446512306272634"><ele>1069.0</ele><time>2026-05-01T06:09:44Z</time></trkpt><trkpt lat="47.14150261465429" lon="11.446361480838464"><ele>1069.0</ele><time>2026-05-01T06:09:45Z</time></trkpt><trkpt lat="47.141733102308265" lon="11.44622139051112"><ele>1071.5</ele><time>2026-05-01T06:09:46Z</time></trkpt><trkpt lat="47.14196252614074" lon="11.44608951084538"><ele>1074.0</ele><time>2026-05-01T06:09:47Z</time></trkpt><trkpt lat="47.142194628056025" lon="11.44596619265371"><ele>1071.5</ele><time>2026-05-01T06:09:48Z</time></trkpt><trkpt lat="47.14242850524971" lon="11.445858931351445"><ele>1069.0</ele><time>2026-05-01T06:09:49Z</time></trkpt><trkpt lat="47.14266519218644" lon="11.445759054099323"><ele>1069.0</ele><time>2026-05-01T06:09:50Z</time></trkpt><trkpt lat="47.14290340960656" lon="11.445676128403267"><ele>1069.0</ele><time>2026-05-01T06:09:51Z</time></trkpt><trkpt lat="47.143147078900014" lon="11.445597636391815"><ele>1068.5</ele><time>2026-05-01T06:09:52Z</time></trkpt><trkpt lat="47.143394996527256" lon="11.445523167948707"><ele>1068.0</ele><time>2026-05-01T06:09:53Z</time></trkpt><trkpt lat="47.143640678225445" lon="11.445459301638824"><ele>1082.0</ele><time>2026-05-01T06:09:54Z</time></trkpt><trkpt lat="47.14387986791687" lon="11.445401170205038"><ele>1096.0</ele><time>2026-05-01T06:09:55Z</time></trkpt><trkpt lat="47.144132045482976" lon="11.445344399681346"><ele>1096.0</ele><time>2026-05-01T06:09:56Z</time></trkpt><trkpt lat="47.14437945955954" lon="11.445298876421116"><ele>1096.0</ele><time>2026-05-01T06:09:57Z</time></trkpt><trkpt lat="47.14462449483416" lon="11.44525724519846"><ele>1096.0</ele><time>2026-05-01T06:09:58Z</time></trkpt><trkpt lat="47.144865242471006" lon="11.445216945398082"><ele>1096.0</ele><time>2026-05-01T06:09:59Z</time></trkpt><trkpt lat="47.14510382839279" lon="11.445176661758127"><ele>1086.5</ele><time>2026-05-01T06:10:00Z</time></trkpt><trkpt lat="47.14534099250054" lon="11.445135624176267"><ele>1077.0</ele><time>2026-05-01T06:10:01Z</time></trkpt><trkpt lat="47.14557441476089" lon="11.445093830203225"><ele>1075.5</ele><time>2026-05-01T06:10:02Z</time></trkpt><trkpt lat="47.14581114677818" lon="11.445053244401947"><ele>1074.0</ele><time>2026-05-01T06:10:03Z</time></trkpt><trkpt lat="47.146046356553164" lon="11.445013586678305"><ele>1074.0</ele><time>2026-05-01T06:10:04Z</time></trkpt><trkpt lat="47.14628054214687" lon="11.444974479441392"><ele>1074.0</ele><time>2026-05-01T06:10:05Z</time></trkpt><trkpt lat="47.14651902577813" lon="11.44493620991012"><ele>1075.5</ele><time>2026-05-01T06:10:06Z</time></trkpt><trkpt lat="47.14675606874629" lon="11.444895136241502"><ele>1077.0</ele><time>2026-05-01T06:10:07Z</time></trkpt><trkpt lat="47.1469934562977" lon="11.444854373632158"><ele>1077.0</ele><time>2026-05-01T06:10:08Z</time></trkpt><trkpt lat="47.14723188501554" lon="11.444815660823137"><ele>1077.0</ele><time>2026-05-01T06:10:09Z</time></trkpt><trkpt lat="47.147471856849265" lon="11.444776493376793"><ele>1077.0</ele><time>2026-05-01T06:10:10Z</time></trkpt><trkpt lat="47.14771051229217" lon="11.444737642684775"><ele>1077.0</ele><time>2026-05-01T06:10:11Z</time></trkpt><trkpt lat="47.14794617769977" lon="11.444697292731501"><ele>1077.0</ele><time>2026-05-01T06:10:12Z</time></trkpt><trkpt lat="47.14818335548264" lon="11.44465334494968"><ele>1077.0</ele><time>2026-05-01T06:10:13Z</time></trkpt><trkpt lat="47.14842197874362" lon="11.444607152295745"><ele>1089.5</ele><time>2026-05-01T06:10:14Z</time></trkpt><trkpt lat="47.14866239592413" lon="11.44456047438718"><ele>1102.0</ele><time>2026-05-01T06:10:15Z</time></trkpt><trkpt lat="47.1489033404714" lon="11.444514765942989"><ele>1095.5</ele><time>2026-05-01T06:10:16Z</time></trkpt><trkpt lat="47.14914743563491" lon="11.444466185319076"><ele>1089.0</ele><time>2026-05-01T06:10:17Z</time></trkpt><trkpt lat="47.14939280645628" lon="11.444416562293602"><ele>1089.0</ele><time>2026-05-01T06:10:18Z</time></trkpt><trkpt lat="47.14963709503471" lon="11.444364734375618"><ele>1089.0</ele><time>2026-05-01T06:10:19Z</time></trkpt><trkpt lat="47.14988247767939" lon="11.444306412442655"><ele>1086.5</ele><time>2026-05-01T06:10:20Z</time></trkpt><trkpt lat="47.15012627888589" lon="11.444244456171871"><ele>1084.0</ele><time>2026-05-01T06:10:21Z</time></trkpt><trkpt lat="47.15036904826323" lon="11.444176090778564"><ele>1084.0</ele><time>2026-05-01T06:10:22Z</time></trkpt><trkpt lat="47.15061180484137" lon="11.444101493250292"><ele>1084.0</ele><time>2026-05-01T06:10:23Z</time></trkpt><trkpt lat="47.15085282816756" lon="11.444023322497607"><ele>1079.0</ele><time>2026-05-01T06:10:24Z</time></trkpt><trkpt lat="47.15109515249885" lon="11.443938611684759"><ele>1074.0</ele><time>2026-05-01T06:10:25Z</time></trkpt><trkpt lat="47.151335830887376" lon="11.443849570447325"><ele>1085.5</ele><time>2026-05-01T06:10:26Z</time></trkpt><trkpt lat="47.15157605272324" lon="11.443755402894036"><ele>1097.0</ele><time>2026-05-01T06:10:27Z</time></trkpt><trkpt lat="47.15181463220675" lon="11.443656240626058"><ele>1097.0</ele><time>2026-05-01T06:10:28Z</time></trkpt><trkpt lat="47.152049161849696" lon="11.443553157657384"><ele>1097.0</ele><time>2026-05-01T06:10:29Z</time></trkpt><trkpt lat="47.15228344386861" lon="11.44344627353538"><ele>1088.5</ele><time>2026-05-01T06:10:30Z</time></trkpt><trkpt lat="47.15251686668869" lon="11.44333360944329"><ele>1080.0</ele><time>2026-05-01T06:10:31Z</time></trkpt><trkpt lat="47.15275055147499" lon="11.443216461413176"><ele>1080.0</ele><time>2026-05-01T06:10:32Z</time></trkpt><trkpt lat="47.15297959353496" lon="11.443098420912126"><ele>1080.0</ele><time>2026-05-01T06:10:33Z</time></trkpt><trkpt lat="47.15320941203151" lon="11.442973850932649"><ele>1087.5</ele><time>2026-05-01T06:10:34Z</time></trkpt><trkpt lat="47.15343751735248" lon="11.442842900024452"><ele>1095.0</ele><time>2026-05-01T06:10:35Z</time></trkpt><trkpt lat="47.15366425678275" lon="11.442708147625885"><ele>1095.0</ele><time>2026-05-01T06:10:36Z</time></trkpt><trkpt lat="47.153891055450636" lon="11.442568266937956"><ele>1095.0</ele><time>2026-05-01T06:10:37Z</time></trkpt><trkpt lat="47.15411812931048" lon="11.442423229167954"><ele>1086.0</ele><time>2026-05-01T06:10:38Z</time></trkpt><trkpt lat="47.15434387519372" lon="11.442276371884347"><ele>1077.0</ele><time>2026-05-01T06:10:39Z</time></trkpt><trkpt lat="47.154568036473606" lon="11.442125020609842"><ele>1084.5</ele><time>2026-05-01T06:10:40Z</time></trkpt><trkpt lat="47.154791810394876" lon="11.441967542065418"><ele>1092.0</ele><time>2026-05-01T06:10:41Z</time></trkpt><trkpt lat="47.15501338667037" lon="11.441807146387815"><ele>1092.0</ele><time>2026-05-01T06:10:42Z</time></trkpt><trkpt lat="47.15523363210007" lon="11.441639410479725"><ele>1092.0</ele><time>2026-05-01T06:10:43Z</time></trkpt><trkpt lat="47.15545150706886" lon="11.44146914586939"><ele>1091.5</ele><time>2026-05-01T06:10:44Z</time></trkpt><trkpt lat="47.155667981574744" lon="11.44129566537207"><ele>1091.0</ele><time>2026-05-01T06:10:45Z</time></trkpt><trkpt lat="47.15588302525689" lon="11.4411202542289"><ele>1091.0</ele><time>2026-05-01T06:10:46Z</time></trkpt><trkpt lat="47.156096099553665" lon="11.440940951523086"><ele>1091.0</ele><time>2026-05-01T06:10:47Z</time></trkpt><trkpt lat="47.15630644996459" lon="11.440756417288686"><ele>1091.0</ele><time>2026-05-01T06:10:48Z</time></trkpt><trkpt lat="47.156515990555704" lon="11.4405648526651"><ele>1091.0</ele><time>2026-05-01T06:10:49Z</time></trkpt><trkpt lat="47.156723113618256" lon="11.440369730686436"><ele>1088.0</ele><time>2026-05-01T06:10:50Z</time></trkpt><trkpt lat="47.156927871799006" lon="11.440172334421366"><ele>1085.0</ele><time>2026-05-01T06:10:51Z</time></trkpt><trkpt lat="47.15713093087301" lon="11.439971103339191"><ele>1085.0</ele><time>2026-05-01T06:10:52Z</time></trkpt><trkpt lat="47.15733077015159" lon="11.439766619096499"><ele>1085.0</ele><time>2026-05-01T06:10:53Z</time></trkpt><trkpt lat="47.15752787679718" lon="11.43955933916227"><ele>1085.5</ele><time>2026-05-01T06:10:54Z</time></trkpt><trkpt lat="47.15772448458569" lon="11.4393501502639"><ele>1086.0</ele><time>2026-05-01T06:10:55Z</time></trkpt><trkpt lat="47.157919034698" lon="11.43913676982141"><ele>1086.0</ele><time>2026-05-01T06:10:56Z</time></trkpt><trkpt lat="47.15810981357319" lon="11.438921195750341"><ele>1086.0</ele><time>2026-05-01T06:10:57Z</time></trkpt><trkpt lat="47.158297293733746" lon="11.438701157509396"><ele>1083.5</ele><time>2026-05-01T06:10:58Z</time></trkpt><trkpt lat="47.15848352669735" lon="11.438476635394203"><ele>1081.0</ele><time>2026-05-01T06:10:59Z</time></trkpt><trkpt lat="47.15867059244771" lon="11.438250762591295"><ele>1081.0</ele><time>2026-05-01T06:11:00Z</time></trkpt><trkpt lat="47.158855128078564" lon="11.43802456370728"><ele>1081.0</ele><time>2026-05-01T06:11:01Z</time></trkpt><trkpt lat="47.15904156391192" lon="11.437796431477498"><ele>1077.0</ele><time>2026-05-01T06:11:02Z</time></trkpt><trkpt lat="47.159229092416055" lon="11.437567447591917"><ele>1073.0</ele><time>2026-05-01T06:11:03Z</time></trkpt><trkpt lat="47.15941852440641" lon="11.43733764811927"><ele>1082.5</ele><time>2026-05-01T06:11:04Z</time></trkpt><trkpt lat="47.15960762243779" lon="11.437107625373708"><ele>1092.0</ele><time>2026-05-01T06:11:05Z</time></trkpt><trkpt lat="47.15979831021253" lon="11.436878955154842"><ele>1078.5</ele><time>2026-05-01T06:11:06Z</time></trkpt><trkpt lat="47.15998931794111" lon="11.436654190485633"><ele>1065.0</ele><time>2026-05-01T06:11:07Z</time></trkpt><trkpt lat="47.16018351504082" lon="11.43643369505077"><ele>1075.5</ele><time>2026-05-01T06:11:08Z</time></trkpt><trkpt lat="47.160382145487596" lon="11.436219752954578"><ele>1086.0</ele><time>2026-05-01T06:11:09Z</time></trkpt><trkpt lat="47.1605754124173" lon="11.436018583316281"><ele>1074.0</ele><time>2026-05-01T06:11:10Z</time></trkpt><trkpt lat="47.16077285626692" lon="11.43583337001866"><ele>1062.0</ele><time>2026-05-01T06:11:11Z</time></trkpt><trkpt lat="47.1609805947418" lon="11.435652182440872"><ele>1062.0</ele><time>2026-05-01T06:11:12Z</time></trkpt><trkpt lat="47.16119214398706" lon="11.435476291249035"><ele>1062.0</ele><time>2026-05-01T06:11:13Z</time></trkpt><trkpt lat="47.16140914429135" lon="11.435304798734906"><ele>1058.5</ele><time>2026-05-01T06:11:14Z</time></trkpt><trkpt lat="47.16163043797492" lon="11.43514258476787"><ele>1055.0</ele><time>2026-05-01T06:11:15Z</time></trkpt><trkpt lat="47.16185532049964" lon="11.43499197917662"><ele>1055.0</ele><time>2026-05-01T06:11:16Z</time></trkpt><trkpt lat="47.162087761000194" lon="11.434849418411964"><ele>1055.0</ele><time>2026-05-01T06:11:17Z</time></trkpt><trkpt lat="47.162320274982406" lon="11.434714846620977"><ele>1068.0</ele><time>2026-05-01T06:11:18Z</time></trkpt><trkpt lat="47.16254785339517" lon="11.434584981137508"><ele>1081.0</ele><time>2026-05-01T06:11:19Z</time></trkpt><trkpt lat="47.16277516696929" lon="11.434455302162487"><ele>1081.0</ele><time>2026-05-01T06:11:20Z</time></trkpt><trkpt lat="47.16300069497534" lon="11.434329208198164"><ele>1081.0</ele><time>2026-05-01T06:11:21Z</time></trkpt><trkpt lat="47.16322504217483" lon="11.434202911783622"><ele>1073.5</ele><time>2026-05-01T06:11:22Z</time></trkpt><trkpt lat="47.163449850735724" lon="11.434073640996193"><ele>1066.0</ele><time>2026-05-01T06:11:23Z</time></trkpt><trkpt lat="47.16367267729743" lon="11.433941274521539"><ele>1066.0</ele><time>2026-05-01T06:11:24Z</time></trkpt><trkpt lat="47.16389579951083" lon="11.433806144679705"><ele>1066.0</ele><time>2026-05-01T06:11:25Z</time></trkpt><trkpt lat="47.16411851532492" lon="11.433665912748655"><ele>1068.0</ele><time>2026-05-01T06:11:26Z</time></trkpt><trkpt lat="47.16434029613905" lon="11.433519571303288"><ele>1070.0</ele><time>2026-05-01T06:11:27Z</time></trkpt><trkpt lat="47.164558221289994" lon="11.433364088907213"><ele>1070.0</ele><time>2026-05-01T06:11:28Z</time></trkpt><trkpt lat="47.164772844627464" lon="11.433197771680728"><ele>1070.0</ele><time>2026-05-01T06:11:29Z</time></trkpt><trkpt lat="47.16498478054294" lon="11.433017147220252"><ele>1072.5</ele><time>2026-05-01T06:11:30Z</time></trkpt><trkpt lat="47.16519517386498" lon="11.432830318839388"><ele>1075.0</ele><time>2026-05-01T06:11:31Z</time></trkpt><trkpt lat="47.165402284119395" lon="11.432637016469513"><ele>1075.0</ele><time>2026-05-01T06:11:32Z</time></trkpt><trkpt lat="47.165604932154615" lon="11.432438205638988"><ele>1075.0</ele><time>2026-05-01T06:11:33Z</time></trkpt><trkpt lat="47.16580653378556" lon="11.432232510600034"><ele>1078.0</ele><time>2026-05-01T06:11:34Z</time></trkpt><trkpt lat="47.166006257144105" lon="11.432023069707204"><ele>1081.0</ele><time>2026-05-01T06:11:35Z</time></trkpt><trkpt lat="47.16620584930605" lon="11.431811874048924"><ele>1081.0</ele><time>2026-05-01T06:11:36Z</time></trkpt><trkpt lat="47.16640585229318" lon="11.43160060046111"><ele>1081.0</ele><time>2026-05-01T06:11:37Z</time></trkpt><trkpt lat="47.166609128224145" lon="11.43138906158304"><ele>1080.5</ele><time>2026-05-01T06:11:38Z</time></trkpt><trkpt lat="47.16681030728192" lon="11.431178099609186"><ele>1080.0</ele><time>2026-05-01T06:11:39Z</time></trkpt><trkpt lat="47.16701354298485" lon="11.430969317280436"><ele>1080.0</ele><time>2026-05-01T06:11:40Z</time></trkpt><trkpt lat="47.1672161559948" lon="11.430764291270883"><ele>1080.0</ele><time>2026-05-01T06:11:41Z</time></trkpt><trkpt lat="47.1674191333786" lon="11.43056557101167"><ele>1081.5</ele><time>2026-05-01T06:11:42Z</time></trkpt><trkpt lat="47.167624113441924" lon="11.430373352360897"><ele>1083.0</ele><time>2026-05-01T06:11:43Z</time></trkpt><trkpt lat="47.16783262465085" lon="11.43018955359982"><ele>1083.0</ele><time>2026-05-01T06:11:44Z</time></trkpt><trkpt lat="47.16804365200248" lon="11.430009171345409"><ele>1083.0</ele><time>2026-05-01T06:11:45Z</time></trkpt><trkpt lat="47.16825548224017" lon="11.429832777691644"><ele>1084.5</ele><time>2026-05-01T06:11:46Z</time></trkpt><trkpt lat="47.16846882577694" lon="11.429658999706362"><ele>1086.0</ele><time>2026-05-01T06:11:47Z</time></trkpt><trkpt lat="47.16868239916762" lon="11.429484730300302"><ele>1086.0</ele><time>2026-05-01T06:11:48Z</time></trkpt><trkpt lat="47.16889549826304" lon="11.429313313561902"><ele>1086.0</ele><time>2026-05-01T06:11:49Z</time></trkpt><trkpt lat="47.169107083339725" lon="11.429141548476622"><ele>1084.0</ele><time>2026-05-01T06:11:50Z</time></trkpt><trkpt lat="47.16931918772829" lon="11.428963982232174"><ele>1082.0</ele><time>2026-05-01T06:11:51Z</time></trkpt><trkpt lat="47.169529484060014" lon="11.428781124760649"><ele>1082.0</ele><time>2026-05-01T06:11:52Z</time></trkpt><trkpt lat="47.169735457595735" lon="11.428589556382335"><ele>1082.0</ele><time>2026-05-01T06:11:53Z</time></trkpt><trkpt lat="47.169935492553435" lon="11.42839011146061"><ele>1084.5</ele><time>2026-05-01T06:11:54Z</time></trkpt><trkpt lat="47.17013417774396" lon="11.428176308868414"><ele>1087.0</ele><time>2026-05-01T06:11:55Z</time></trkpt><trkpt lat="47.170327504823014" lon="11.427952293871757"><ele>1087.0</ele><time>2026-05-01T06:11:56Z</time></trkpt><trkpt lat="47.17051854932056" lon="11.427719176491864"><ele>1087.0</ele><time>2026-05-01T06:11:57Z</time></trkpt><trkpt lat="47.170705240297174" lon="11.427478987336904"><ele>1082.5</ele><time>2026-05-01T06:11:58Z</time></trkpt><trkpt lat="47.17088801552774" lon="11.427234806659657"><ele>1078.0</ele><time>2026-05-01T06:11:59Z</time></trkpt><trkpt lat="47.171068580342315" lon="11.426983784995956"><ele>1078.0</ele><time>2026-05-01T06:12:00Z</time></trkpt><trkpt lat="47.17124805635945" lon="11.42673061927351"><ele>1078.0</ele><time>2026-05-01T06:12:01Z</time></trkpt><trkpt lat="47.17142544156557" lon="11.426475475547178"><ele>1071.5</ele><time>2026-05-01T06:12:02Z</time></trkpt><trkpt lat="47.17160084745587" lon="11.426216147868061"><ele>1065.0</ele><time>2026-05-01T06:12:03Z</time></trkpt><trkpt lat="47.17177362400621" lon="11.42595494220213"><ele>1065.0</ele><time>2026-05-01T06:12:04Z</time></trkpt><trkpt lat="47.171945112426585" lon="11.425686652187162"><ele>1065.0</ele><time>2026-05-01T06:12:05Z</time></trkpt><trkpt lat="47.17211201039062" lon="11.425414394690403"><ele>1075.5</ele><time>2026-05-01T06:12:06Z</time></trkpt><trkpt lat="47.17227810563305" lon="11.42513996739676"><ele>1086.0</ele><time>2026-05-01T06:12:07Z</time></trkpt><trkpt lat="47.172442050476334" lon="11.424860212515762"><ele>1071.5</ele><time>2026-05-01T06:12:08Z</time></trkpt><trkpt lat="47.17259974216034" lon="11.424582479877204"><ele>1057.0</ele><time>2026-05-01T06:12:09Z</time></trkpt><trkpt lat="47.17275363121592" lon="11.42430578535253"><ele>1057.0</ele><time>2026-05-01T06:12:10Z</time></trkpt><trkpt lat="47.17290048300643" lon="11.424028010336425"><ele>1057.0</ele><time>2026-05-01T06:12:11Z</time></trkpt><trkpt lat="47.17304444582197" lon="11.42374892789831"><ele>1052.5</ele><time>2026-05-01T06:12:12Z</time></trkpt><trkpt lat="47.173185828222756" lon="11.423469302175928"><ele>1048.0</ele><time>2026-05-01T06:12:13Z</time></trkpt><trkpt lat="47.17332534144961" lon="11.423188464767186"><ele>1059.0</ele><time>2026-05-01T06:12:14Z</time></trkpt><trkpt lat="47.17346113101463" lon="11.422905498449845"><ele>1070.0</ele><time>2026-05-01T06:12:15Z</time></trkpt><trkpt lat="47.173594074120615" lon="11.42262352622508"><ele>1070.0</ele><time>2026-05-01T06:12:16Z</time></trkpt><trkpt lat="47.173723144467615" lon="11.422332226820979"><ele>1070.0</ele><time>2026-05-01T06:12:17Z</time></trkpt><trkpt lat="47.17384946162676" lon="11.422036757638852"><ele>1076.0</ele><time>2026-05-01T06:12:18Z</time></trkpt><trkpt lat="47.17397028871555" lon="11.421736208447838"><ele>1082.0</ele><time>2026-05-01T06:12:19Z</time></trkpt><trkpt lat="47.174088217580625" lon="11.421432499727029"><ele>1064.5</ele><time>2026-05-01T06:12:20Z</time></trkpt><trkpt lat="47.174203060866994" lon="11.421129722969626"><ele>1047.0</ele><time>2026-05-01T06:12:21Z</time></trkpt><trkpt lat="47.174316274335965" lon="11.420823957126386"><ele>1047.0</ele><time>2026-05-01T06:12:22Z</time></trkpt><trkpt lat="47.17442710584288" lon="11.420518328918417"><ele>1047.0</ele><time>2026-05-01T06:12:23Z</time></trkpt><trkpt lat="47.174539662278384" lon="11.420210191076249"><ele>1056.5</ele><time>2026-05-01T06:12:24Z</time></trkpt><trkpt lat="47.1746493891728" lon="11.419902652062106"><ele>1066.0</ele><time>2026-05-01T06:12:25Z</time></trkpt><trkpt lat="47.17476076464396" lon="11.419593546290843"><ele>1056.5</ele><time>2026-05-01T06:12:26Z</time></trkpt><trkpt lat="47.17487518938762" lon="11.419286517199566"><ele>1047.0</ele><time>2026-05-01T06:12:27Z</time></trkpt><trkpt lat="47.17499030000171" lon="11.41898459638008"><ele>1052.0</ele><time>2026-05-01T06:12:28Z</time></trkpt><trkpt lat="47.175109250278" lon="11.418687239073977"><ele>1057.0</ele><time>2026-05-01T06:12:29Z</time></trkpt><trkpt lat="47.17523506280139" lon="11.418399745146122"><ele>1057.0</ele><time>2026-05-01T06:12:30Z</time></trkpt><trkpt lat="47.17536994324681" lon="11.418120291564577"><ele>1057.0</ele><time>2026-05-01T06:12:31Z</time></trkpt><trkpt lat="47.17551684622271" lon="11.417844457094425"><ele>1063.5</ele><time>2026-05-01T06:12:32Z</time></trkpt><trkpt lat="47.17567016494422" lon="11.417583925435325"><ele>1070.0</ele><time>2026-05-01T06:12:33Z</time></trkpt><trkpt lat="47.17583300273919" lon="11.417323724398079"><ele>1067.0</ele><time>2026-05-01T06:12:34Z</time></trkpt><trkpt lat="47.1760024953299" lon="11.417077590928786"><ele>1064.0</ele><time>2026-05-01T06:12:35Z</time></trkpt><trkpt lat="47.17617892810112" lon="11.416842438353623"><ele>1064.0</ele><time>2026-05-01T06:12:36Z</time></trkpt><trkpt lat="47.176363389198656" lon="11.416620259237758"><ele>1064.0</ele><time>2026-05-01T06:12:37Z</time></trkpt><trkpt lat="47.17655253428012" lon="11.41641157475454"><ele>1070.5</ele><time>2026-05-01T06:12:38Z</time></trkpt><trkpt lat="47.17674754954663" lon="11.416215480383697"><ele>1077.0</ele><time>2026-05-01T06:12:39Z</time></trkpt><trkpt lat="47.176946130553326" lon="11.416031132372966"><ele>1077.0</ele><time>2026-05-01T06:12:40Z</time></trkpt><trkpt lat="47.1771484621524" lon="11.415855904951707"><ele>1077.0</ele><time>2026-05-01T06:12:41Z</time></trkpt><trkpt lat="47.17734863073681" lon="11.415684912138097"><ele>1073.0</ele><time>2026-05-01T06:12:42Z</time></trkpt><trkpt lat="47.17755071637043" lon="11.415514394656647"><ele>1069.0</ele><time>2026-05-01T06:12:43Z</time></trkpt><trkpt lat="47.177751900974535" lon="11.415344118633652"><ele>1069.0</ele><time>2026-05-01T06:12:44Z</time></trkpt><trkpt lat="47.17794071703385" lon="11.415177838564267"><ele>1069.0</ele><time>2026-05-01T06:12:45Z</time></trkpt><trkpt lat="47.17813383727353" lon="11.415005597062459"><ele>1069.0</ele><time>2026-05-01T06:12:46Z</time></trkpt><trkpt lat="47.17833018579554" lon="11.414823976422182"><ele>1070.0</ele><time>2026-05-01T06:12:47Z</time></trkpt><trkpt lat="47.17852710208117" lon="11.414632363354055"><ele>1071.0</ele><time>2026-05-01T06:12:48Z</time></trkpt><trkpt lat="47.1787210612693" lon="11.414429383974925"><ele>1071.0</ele><time>2026-05-01T06:12:49Z</time></trkpt><trkpt lat="47.17891267926276" lon="11.414213223772892"><ele>1071.0</ele><time>2026-05-01T06:12:50Z</time></trkpt><trkpt lat="47.17909616118576" lon="11.413986305741693"><ele>1069.5</ele><time>2026-05-01T06:12:51Z</time></trkpt><trkpt lat="47.17927877089425" lon="11.413749226881178"><ele>1068.0</ele><time>2026-05-01T06:12:52Z</time></trkpt><trkpt lat="47.179455798932146" lon="11.413508274978538"><ele>1068.0</ele><time>2026-05-01T06:12:53Z</time></trkpt><trkpt lat="47.17962772094617" lon="11.413262293781461"><ele>1068.0</ele><time>2026-05-01T06:12:54Z</time></trkpt><trkpt lat="47.179797926376175" lon="11.413014916499288"><ele>1064.0</ele><time>2026-05-01T06:12:55Z</time></trkpt><trkpt lat="47.17995870159123" lon="11.412776255197437"><ele>1060.0</ele><time>2026-05-01T06:12:56Z</time></trkpt><trkpt lat="47.180113180311295" lon="11.412551654476403"><ele>1056.0</ele><time>2026-05-01T06:12:57Z</time></trkpt><trkpt lat="47.180272968278224" lon="11.412330505718984"><ele>1061.3333333333333</ele><time>2026-05-01T06:12:58Z</time></trkpt><trkpt lat="47.18043602137232" lon="11.41210866235527"><ele>1066.6666666666665</ele><time>2026-05-01T06:12:59Z</time></trkpt><trkpt lat="47.18060455443836" lon="11.411892372638862"><ele>1072.0</ele><time>2026-05-01T06:13:00Z</time></trkpt><trkpt lat="47.180774797840876" lon="11.411686264944235"><ele>1066.6666666666665</ele><time>2026-05-01T06:13:01Z</time></trkpt><trkpt lat="47.18094729092147" lon="11.411488168542258"><ele>1061.3333333333333</ele><time>2026-05-01T06:13:02Z</time></trkpt><trkpt lat="47.18111194456231" lon="11.411307527392566"><ele>1056.0</ele><time>2026-05-01T06:13:03Z</time></trkpt><trkpt lat="47.1812764546873" lon="11.411131359939354"><ele>1056.0</ele><time>2026-05-01T06:13:04Z</time></trkpt><trkpt lat="47.18144074251701" lon="11.410960599066836"><ele>1056.0</ele><time>2026-05-01T06:13:05Z</time></trkpt><trkpt lat="47.18160544103216" lon="11.410797013048024"><ele>1056.0</ele><time>2026-05-01T06:13:06Z</time></trkpt><trkpt lat="47.18176409213398" lon="11.410633888065782"><ele>1053.3333333333333</ele><time>2026-05-01T06:13:07Z</time></trkpt><trkpt lat="47.18191661999146" lon="11.410476805995954"><ele>1050.6666666666665</ele><time>2026-05-01T06:13:08Z</time></trkpt><trkpt lat="47.18206657971346" lon="11.410326540249377"><ele>1048.0</ele><time>2026-05-01T06:13:09Z</time></trkpt><trkpt lat="47.182213995637866" lon="11.410180446433019"><ele>1043.3333333333333</ele><time>2026-05-01T06:13:10Z</time></trkpt><trkpt lat="47.182360370822245" lon="11.410035256451877"><ele>1038.6666666666667</ele><time>2026-05-01T06:13:11Z</time></trkpt><trkpt lat="47.1825016995012" lon="11.409889358595548"><ele>1034.0</ele><time>2026-05-01T06:13:12Z</time></trkpt><trkpt lat="47.182641065670936" lon="11.409741079392303"><ele>1038.3333333333335</ele><time>2026-05-01T06:13:13Z</time></trkpt><trkpt lat="47.18277387294141" lon="11.409590320892594"><ele>1042.6666666666667</ele><time>2026-05-01T06:13:14Z</time></trkpt><trkpt lat="47.182901732721" lon="11.409441040087252"><ele>1047.0</ele><time>2026-05-01T06:13:15Z</time></trkpt><trkpt lat="47.18302086905148" lon="11.409291950469367"><ele>1047.0</ele><time>2026-05-01T06:13:16Z</time></trkpt><trkpt lat="47.183131919241134" lon="11.409143263874627"><ele>1047.0</ele><time>2026-05-01T06:13:17Z</time></trkpt><trkpt lat="47.18323558434289" lon="11.40899068262533"><ele>1047.0</ele><time>2026-05-01T06:13:18Z</time></trkpt><trkpt lat="47.183332313022895" lon="11.408831945081126"><ele>1047.0</ele><time>2026-05-01T06:13:19Z</time></trkpt><trkpt lat="47.18342228882372" lon="11.408668976147702"><ele>1045.5</ele><time>2026-05-01T06:13:20Z</time></trkpt><trkpt lat="47.18350339096136" lon="11.408510095493378"><ele>1044.0</ele><time>2026-05-01T06:13:21Z</time></trkpt><trkpt lat="47.18357563199619" lon="11.408356010801237"><ele>1042.5</ele><time>2026-05-01T06:13:22Z</time></trkpt><trkpt lat="47.18364158153027" lon="11.40820210051211"><ele>1041.0</ele><time>2026-05-01T06:13:23Z</time></trkpt><trkpt lat="47.183691615846634" lon="11.408053150412043"><ele>1041.6</ele><time>2026-05-01T06:13:24Z</time></trkpt><trkpt lat="47.183733402477934" lon="11.407908419811957"><ele>1042.1999999999998</ele><time>2026-05-01T06:13:25Z</time></trkpt><trkpt lat="47.18376702959425" lon="11.407769073593926"><ele>1042.8000000000002</ele><time>2026-05-01T06:13:26Z</time></trkpt><trkpt lat="47.183795569437585" lon="11.40763802862544"><ele>1043.4</ele><time>2026-05-01T06:13:27Z</time></trkpt><trkpt lat="47.18381918610089" lon="11.407510593105114"><ele>1044.0</ele><time>2026-05-01T06:13:28Z</time></trkpt><trkpt lat="47.18383615236023" lon="11.407395680902486"><ele>1044.0</ele><time>2026-05-01T06:13:29Z</time></trkpt><trkpt lat="47.18388173485778" lon="11.407243255117757"><ele>1044.0</ele><time>2026-05-01T06:13:31Z</time></trkpt><trkpt lat="47.1839091752827" lon="11.407131319824147"><ele>1044.0</ele><time>2026-05-01T06:13:33Z</time></trkpt><trkpt lat="47.183928516410994" lon="11.40702079903775"><ele>1044.0</ele><time>2026-05-01T06:13:35Z</time></trkpt><trkpt lat="47.18394160413839" lon="11.40692562198142"><ele>1044.0</ele><time>2026-05-01T06:13:37Z</time></trkpt><trkpt lat="47.18395793938237" lon="11.406782813678607"><ele>1044.0</ele><time>2026-05-01T06:13:40Z</time></trkpt><trkpt lat="47.18397019125331" lon="11.406664698035122"><ele>1044.0</ele><time>2026-05-01T06:13:42Z</time></trkpt><trkpt lat="47.18398106413728" lon="11.406529667284431"><ele>1044.0</ele><time>2026-05-01T06:13:44Z</time></trkpt><trkpt lat="47.18399481269311" lon="11.406358233717292"><ele>1044.0</ele><time>2026-05-01T06:13:46Z</time></trkpt><trkpt lat="47.18400208868686" lon="11.40626386944702"><ele>1044.0</ele><time>2026-05-01T06:13:47Z</time></trkpt><trkpt lat="47.18400793875609" lon="11.406169570595289"><ele>1044.0</ele><time>2026-05-01T06:13:48Z</time></trkpt><trkpt lat="47.18401389840394" lon="11.40607494661358"><ele>1044.0</ele><time>2026-05-01T06:13:49Z</time></trkpt><trkpt lat="47.18402026141919" lon="11.405977051412867"><ele>1042.0</ele><time>2026-05-01T06:13:50Z</time></trkpt><trkpt lat="47.18402649666239" lon="11.405881121994629"><ele>1040.0</ele><time>2026-05-01T06:13:51Z</time></trkpt><trkpt lat="47.18403280030187" lon="11.405784140287015"><ele>1038.0</ele><time>2026-05-01T06:13:52Z</time></trkpt><trkpt lat="47.18403882357951" lon="11.405691471929611"><ele>1036.0</ele><time>2026-05-01T06:13:53Z</time></trkpt><trkpt lat="47.18404905121316" lon="11.40553525497769"><ele>1034.0</ele><time>2026-05-01T06:13:55Z</time></trkpt><trkpt lat="47.18405512453048" lon="11.405410995772362"><ele>1032.0</ele><time>2026-05-01T06:13:57Z</time></trkpt><trkpt lat="47.18405969058285" lon="11.405317575013504"><ele>1031.8571428571427</ele><time>2026-05-01T06:13:59Z</time></trkpt><trkpt lat="47.18406455140242" lon="11.405213195209907"><ele>1031.7142857142858</ele><time>2026-05-01T06:14:05Z</time></trkpt><trkpt lat="47.184068748094205" lon="11.405114825832433"><ele>1031.5714285714284</ele><time>2026-05-01T06:14:09Z</time></trkpt><trkpt lat="47.18407316157518" lon="11.405005885180834"><ele>1031.4285714285713</ele><time>2026-05-01T06:14:16Z</time></trkpt><trkpt lat="47.18407734940907" lon="11.404888626058908"><ele>1031.2857142857142</ele><time>2026-05-01T06:14:21Z</time></trkpt><trkpt lat="47.184081279964936" lon="11.404775021606753"><ele>1031.142857142857</ele><time>2026-05-01T06:14:24Z</time></trkpt><trkpt lat="47.1840749861156" lon="11.404673186637785"><ele>1031.0</ele><time>2026-05-01T06:14:26Z</time></trkpt><trkpt lat="47.18407529513934" lon="11.4045441716897"><ele>1030.6666666666667</ele><time>2026-05-01T06:14:28Z</time></trkpt><trkpt lat="47.18408122407411" lon="11.404400976097484"><ele>1030.3333333333335</ele><time>2026-05-01T06:14:30Z</time></trkpt><trkpt lat="47.18407278570783" lon="11.404253911485544"><ele>1030.0</ele><time>2026-05-01T06:14:32Z</time></trkpt><trkpt lat="47.18405666745742" lon="11.404106777271494"><ele>1029.6666666666667</ele><time>2026-05-01T06:14:34Z</time></trkpt><trkpt lat="47.18404289689583" lon="11.40400435264337"><ele>1029.3333333333333</ele><time>2026-05-01T06:14:36Z</time></trkpt><trkpt lat="47.18402085280006" lon="11.40390170977119"><ele>1029.0</ele><time>2026-05-01T06:15:34Z</time></trkpt><trkpt lat="47.18400110500691" lon="11.403811587147716"><ele>1030.5</ele><time>2026-05-01T06:15:39Z</time></trkpt><trkpt lat="47.18398378186616" lon="11.403719199621928"><ele>1032.0</ele><time>2026-05-01T06:17:50Z</time></trkpt><trkpt lat="47.1839680290295" lon="11.403572989487106"><ele>1033.5</ele><time>2026-05-01T06:17:52Z</time></trkpt><trkpt lat="47.183949600742814" lon="11.40346127217677"><ele>1035.0</ele><time>2026-05-01T06:17:53Z</time></trkpt><trkpt lat="47.183924414634255" lon="11.403347139868602"><ele>1036.5</ele><time>2026-05-01T06:17:54Z</time></trkpt><trkpt lat="47.18389506422992" lon="11.403227607288033"><ele>1038.0</ele><time>2026-05-01T06:17:55Z</time></trkpt><trkpt lat="47.18385716558763" lon="11.403092342431774"><ele>1036.25</ele><time>2026-05-01T06:17:56Z</time></trkpt><trkpt lat="47.183811897662935" lon="11.402940704653835"><ele>1034.5</ele><time>2026-05-01T06:17:57Z</time></trkpt><trkpt lat="47.183764158471426" lon="11.402783196102313"><ele>1032.75</ele><time>2026-05-01T06:17:58Z</time></trkpt><trkpt lat="47.183709766631694" lon="11.402620392175523"><ele>1031.0</ele><time>2026-05-01T06:17:59Z</time></trkpt><trkpt lat="47.18364681771771" lon="11.402452371900967"><ele>1031.0</ele><time>2026-05-01T06:18:00Z</time></trkpt><trkpt lat="47.18357991283669" lon="11.402289843323365"><ele>1031.0</ele><time>2026-05-01T06:18:01Z</time></trkpt><trkpt lat="47.18350531118767" lon="11.402132518475078"><ele>1031.0</ele><time>2026-05-01T06:18:02Z</time></trkpt><trkpt lat="47.18342601452367" lon="11.401972221292018"><ele>1031.0</ele><time>2026-05-01T06:18:03Z</time></trkpt><trkpt lat="47.18334152447593" lon="11.401808903748318"><ele>1029.75</ele><time>2026-05-01T06:18:04Z</time></trkpt><trkpt lat="47.18324959079234" lon="11.401652539932767"><ele>1028.5</ele><time>2026-05-01T06:18:05Z</time></trkpt><trkpt lat="47.183155412473155" lon="11.401492972187587"><ele>1027.25</ele><time>2026-05-01T06:18:06Z</time></trkpt><trkpt lat="47.183059169753214" lon="11.401337276314148"><ele>1026.0</ele><time>2026-05-01T06:18:07Z</time></trkpt><trkpt lat="47.18296263939378" lon="11.401184485093266"><ele>1026.0</ele><time>2026-05-01T06:18:08Z</time></trkpt><trkpt lat="47.182863908915174" lon="11.401033406910411"><ele>1026.0</ele><time>2026-05-01T06:18:09Z</time></trkpt><trkpt lat="47.18276337183574" lon="11.400883619597181"><ele>1026.0</ele><time>2026-05-01T06:18:10Z</time></trkpt><trkpt lat="47.18266301706423" lon="11.400732937581747"><ele>1026.0</ele><time>2026-05-01T06:18:11Z</time></trkpt><trkpt lat="47.1825628222576" lon="11.400580765910405"><ele>1028.5</ele><time>2026-05-01T06:18:12Z</time></trkpt><trkpt lat="47.18246310450752" lon="11.40042637106181"><ele>1031.0</ele><time>2026-05-01T06:18:13Z</time></trkpt><trkpt lat="47.18236045678784" lon="11.400263419126935"><ele>1033.5</ele><time>2026-05-01T06:18:14Z</time></trkpt><trkpt lat="47.18226389585737" lon="11.400090844401042"><ele>1036.0</ele><time>2026-05-01T06:18:15Z</time></trkpt><trkpt lat="47.18217146082828" lon="11.399914080805708"><ele>1036.0</ele><time>2026-05-01T06:18:16Z</time></trkpt><trkpt lat="47.18208742307283" lon="11.39972774918523"><ele>1036.0</ele><time>2026-05-01T06:18:17Z</time></trkpt><trkpt lat="47.18201683840223" lon="11.399537047112442"><ele>1036.0</ele><time>2026-05-01T06:18:18Z</time></trkpt><trkpt lat="47.18196271211824" lon="11.399345581595743"><ele>1036.0</ele><time>2026-05-01T06:18:19Z</time></trkpt><trkpt lat="47.181923155590674" lon="11.399159462056843"><ele>1033.75</ele><time>2026-05-01T06:18:20Z</time></trkpt><trkpt lat="47.18189881637969" lon="11.398973731707187"><ele>1031.5</ele><time>2026-05-01T06:18:21Z</time></trkpt><trkpt lat="47.18189042786199" lon="11.398790217217321"><ele>1029.25</ele><time>2026-05-01T06:18:22Z</time></trkpt><trkpt lat="47.18189577349209" lon="11.398601448805296"><ele>1027.0</ele><time>2026-05-01T06:18:23Z</time></trkpt><trkpt lat="47.18192359376128" lon="11.398408772107581"><ele>1025.75</ele><time>2026-05-01T06:18:24Z</time></trkpt><trkpt lat="47.18196955020893" lon="11.398219152450187"><ele>1024.5</ele><time>2026-05-01T06:18:25Z</time></trkpt><trkpt lat="47.182028325237674" lon="11.39803767319393"><ele>1023.25</ele><time>2026-05-01T06:18:26Z</time></trkpt><trkpt lat="47.18209728607242" lon="11.397865487499018"><ele>1022.0</ele><time>2026-05-01T06:18:27Z</time></trkpt><trkpt lat="47.182184949989455" lon="11.397698438699766"><ele>1020.0</ele><time>2026-05-01T06:18:28Z</time></trkpt><trkpt lat="47.18229046404693" lon="11.39755342002417"><ele>1018.0</ele><time>2026-05-01T06:18:29Z</time></trkpt><trkpt lat="47.18241014018673" lon="11.39743227236983"><ele>1016.0</ele><time>2026-05-01T06:18:30Z</time></trkpt><trkpt lat="47.18253984566148" lon="11.397331951800918"><ele>1014.0</ele><time>2026-05-01T06:18:31Z</time></trkpt><trkpt lat="47.18267886337135" lon="11.397262060762046"><ele>1011.5</ele><time>2026-05-01T06:18:32Z</time></trkpt><trkpt lat="47.1828217476882" lon="11.39721884568388"><ele>1009.0</ele><time>2026-05-01T06:18:33Z</time></trkpt><trkpt lat="47.182970293496204" lon="11.39720532247172"><ele>1006.5</ele><time>2026-05-01T06:18:34Z</time></trkpt><trkpt lat="47.1831175254253" lon="11.39722479542395"><ele>1004.0</ele><time>2026-05-01T06:18:35Z</time></trkpt><trkpt lat="47.18326210626284" lon="11.397272506169324"><ele>1003.0</ele><time>2026-05-01T06:18:36Z</time></trkpt><trkpt lat="47.18340329933397" lon="11.397351913568457"><ele>1002.0</ele><time>2026-05-01T06:18:37Z</time></trkpt><trkpt lat="47.183538193357705" lon="11.397457284465144"><ele>1001.0</ele><time>2026-05-01T06:18:38Z</time></trkpt><trkpt lat="47.18366478524375" lon="11.397588864510466"><ele>1001.0</ele><time>2026-05-01T06:18:39Z</time></trkpt><trkpt lat="47.18378855270841" lon="11.397738710025019"><ele>1001.0</ele><time>2026-05-01T06:18:40Z</time></trkpt><trkpt lat="47.18391428268541" lon="11.397907935122431"><ele>1001.0</ele><time>2026-05-01T06:18:41Z</time></trkpt><trkpt lat="47.18403554608048" lon="11.398096998506626"><ele>1000.3333333333334</ele><time>2026-05-01T06:18:42Z</time></trkpt><trkpt lat="47.184147744290684" lon="11.39829357118497"><ele>999.6666666666667</ele><time>2026-05-01T06:18:43Z</time></trkpt><trkpt lat="47.18425918961886" lon="11.39850079089905"><ele>999.0</ele><time>2026-05-01T06:18:44Z</time></trkpt><trkpt lat="47.18437084352479" lon="11.39870522401431"><ele>998.6666666666667</ele><time>2026-05-01T06:18:45Z</time></trkpt><trkpt lat="47.184476080296385" lon="11.398899253683485"><ele>998.3333333333334</ele><time>2026-05-01T06:18:46Z</time></trkpt><trkpt lat="47.18458316599724" lon="11.399094744998294"><ele>998.0</ele><time>2026-05-01T06:18:47Z</time></trkpt><trkpt lat="47.1846926250491" lon="11.399290816608069"><ele>998.0</ele><time>2026-05-01T06:18:48Z</time></trkpt><trkpt lat="47.18480688632531" lon="11.399487127475041"><ele>998.0</ele><time>2026-05-01T06:18:49Z</time></trkpt><trkpt lat="47.18492411827741" lon="11.399685077280742"><ele>998.0</ele><time>2026-05-01T06:18:50Z</time></trkpt><trkpt lat="47.18505076454872" lon="11.399890350178547"><ele>998.3333333333334</ele><time>2026-05-01T06:18:51Z</time></trkpt><trkpt lat="47.18517662898194" lon="11.400088445536953"><ele>998.6666666666667</ele><time>2026-05-01T06:18:52Z</time></trkpt><trkpt lat="47.185308173066055" lon="11.400284411778674"><ele>999.0</ele><time>2026-05-01T06:18:53Z</time></trkpt><trkpt lat="47.18545035155891" lon="11.400475785780547"><ele>998.6666666666667</ele><time>2026-05-01T06:18:54Z</time></trkpt><trkpt lat="47.18559942302897" lon="11.400660862055256"><ele>998.3333333333334</ele><time>2026-05-01T06:18:55Z</time></trkpt><trkpt lat="47.18575533380239" lon="11.400837907023055"><ele>998.0</ele><time>2026-05-01T06:18:56Z</time></trkpt><trkpt lat="47.18591652664053" lon="11.401004992822275"><ele>998.0</ele><time>2026-05-01T06:18:57Z</time></trkpt><trkpt lat="47.18608244037186" lon="11.401161278883407"><ele>998.0</ele><time>2026-05-01T06:18:58Z</time></trkpt><trkpt lat="47.18625283707038" lon="11.401305349994253"><ele>998.0</ele><time>2026-05-01T06:18:59Z</time></trkpt><trkpt lat="47.1864252790307" lon="11.40143236764662"><ele>996.6666666666667</ele><time>2026-05-01T06:19:00Z</time></trkpt><trkpt lat="47.18660218405669" lon="11.401542071862647"><ele>995.3333333333333</ele><time>2026-05-01T06:19:01Z</time></trkpt><trkpt lat="47.1867792594561" lon="11.401636095869035"><ele>994.0</ele><time>2026-05-01T06:19:02Z</time></trkpt><trkpt lat="47.18696333943582" lon="11.401717492866693"><ele>994.0</ele><time>2026-05-01T06:19:03Z</time></trkpt><trkpt lat="47.187149663008526" lon="11.401783826758054"><ele>994.0</ele><time>2026-05-01T06:19:04Z</time></trkpt><trkpt lat="47.18733888001033" lon="11.401840678124138"><ele>994.0</ele><time>2026-05-01T06:19:05Z</time></trkpt><trkpt lat="47.18753580161281" lon="11.40187388628726"><ele>989.3333333333333</ele><time>2026-05-01T06:19:06Z</time></trkpt><trkpt lat="47.187716270506726" lon="11.401907064831562"><ele>984.6666666666667</ele><time>2026-05-01T06:19:07Z</time></trkpt><trkpt lat="47.187921862163705" lon="11.401924575366202"><ele>980.0</ele><time>2026-05-01T06:19:08Z</time></trkpt><trkpt lat="47.18812448005662" lon="11.401939384904297"><ele>978.6666666666667</ele><time>2026-05-01T06:19:09Z</time></trkpt><trkpt lat="47.18832950784378" lon="11.401920320190538"><ele>977.3333333333333</ele><time>2026-05-01T06:19:10Z</time></trkpt><trkpt lat="47.188525378324414" lon="11.401917057487116"><ele>976.0</ele><time>2026-05-01T06:19:11Z</time></trkpt><trkpt lat="47.18860312575537" lon="11.40192916703767"><ele>976.0</ele><time>2026-05-01T06:19:12Z</time></trkpt><trkpt lat="47.18878690806584" lon="11.401873729672333"><ele>976.0</ele><time>2026-05-01T06:19:13Z</time></trkpt><trkpt lat="47.188968463908424" lon="11.40180672246132"><ele>976.0</ele><time>2026-05-01T06:19:14Z</time></trkpt><trkpt lat="47.18914298266419" lon="11.401725676002007"><ele>977.0</ele><time>2026-05-01T06:19:15Z</time></trkpt><trkpt lat="47.18931509639901" lon="11.401632829257133"><ele>978.0</ele><time>2026-05-01T06:19:16Z</time></trkpt><trkpt lat="47.189485149329755" lon="11.40152479702666"><ele>979.0</ele><time>2026-05-01T06:19:17Z</time></trkpt><trkpt lat="47.18965106132658" lon="11.401402968364774"><ele>975.3333333333333</ele><time>2026-05-01T06:19:18Z</time></trkpt><trkpt lat="47.18981092145555" lon="11.401268380968506"><ele>971.6666666666667</ele><time>2026-05-01T06:19:19Z</time></trkpt><trkpt lat="47.18996728992453" lon="11.401122885559781"><ele>968.0</ele><time>2026-05-01T06:19:20Z</time></trkpt><trkpt lat="47.1901259708198" lon="11.400965966842751"><ele>968.0</ele><time>2026-05-01T06:19:21Z</time></trkpt><trkpt lat="47.19027698707971" lon="11.400801556001262"><ele>968.0</ele><time>2026-05-01T06:19:22Z</time></trkpt><trkpt lat="47.190419450639375" lon="11.400630664305607"><ele>968.0</ele><time>2026-05-01T06:19:23Z</time></trkpt><trkpt lat="47.19056107030101" lon="11.400454548058192"><ele>966.3333333333334</ele><time>2026-05-01T06:19:24Z</time></trkpt><trkpt lat="47.1907010638218" lon="11.400276570184783"><ele>964.6666666666667</ele><time>2026-05-01T06:19:25Z</time></trkpt><trkpt lat="47.19083793894184" lon="11.400101945442376"><ele>963.0</ele><time>2026-05-01T06:19:26Z</time></trkpt><trkpt lat="47.190968844889376" lon="11.399934964744029"><ele>963.0</ele><time>2026-05-01T06:19:27Z</time></trkpt><trkpt lat="47.191100026995336" lon="11.399766815911555"><ele>963.0</ele><time>2026-05-01T06:19:28Z</time></trkpt><trkpt lat="47.19123370197781" lon="11.39959794654031"><ele>963.0</ele><time>2026-05-01T06:19:29Z</time></trkpt><trkpt lat="47.1913812597501" lon="11.39942219372735"><ele>959.3333333333333</ele><time>2026-05-01T06:19:30Z</time></trkpt><trkpt lat="47.19153662543077" lon="11.399254716216682"><ele>955.6666666666666</ele><time>2026-05-01T06:19:31Z</time></trkpt><trkpt lat="47.1916945791507" lon="11.39909702314147"><ele>952.0</ele><time>2026-05-01T06:19:32Z</time></trkpt><trkpt lat="47.191867272296676" lon="11.398935758492707"><ele>951.0</ele><time>2026-05-01T06:19:33Z</time></trkpt><trkpt lat="47.192036465258425" lon="11.39879315948677"><ele>950.0</ele><time>2026-05-01T06:19:34Z</time></trkpt><trkpt lat="47.19220893976663" lon="11.39865865369453"><ele>949.0</ele><time>2026-05-01T06:19:35Z</time></trkpt><trkpt lat="47.192338859170206" lon="11.398556876690085"><ele>946.5</ele><time>2026-05-01T06:19:36Z</time></trkpt><trkpt lat="47.192585373063565" lon="11.398409050185254"><ele>944.0</ele><time>2026-05-01T06:19:37Z</time></trkpt><trkpt lat="47.19279615121345" lon="11.398302939296903"><ele>944.0</ele><time>2026-05-01T06:19:38Z</time></trkpt><trkpt lat="47.19297987382588" lon="11.398226325527702"><ele>944.0</ele><time>2026-05-01T06:19:39Z</time></trkpt><trkpt lat="47.19316501573235" lon="11.398167489575561"><ele>944.0</ele><time>2026-05-01T06:19:40Z</time></trkpt><trkpt lat="47.193353548321596" lon="11.398140348726926"><ele>943.3333333333334</ele><time>2026-05-01T06:19:41Z</time></trkpt><trkpt lat="47.1935335081948" lon="11.398085962911825"><ele>942.6666666666667</ele><time>2026-05-01T06:19:42Z</time></trkpt><trkpt lat="47.19372079348291" lon="11.398034956042782"><ele>942.0</ele><time>2026-05-01T06:19:43Z</time></trkpt><trkpt lat="47.19390718544771" lon="11.39799765817344"><ele>936.6666666666667</ele><time>2026-05-01T06:19:44Z</time></trkpt><trkpt lat="47.194066635235906" lon="11.397954829367496"><ele>931.3333333333334</ele><time>2026-05-01T06:19:45Z</time></trkpt><trkpt lat="47.1942540465508" lon="11.397952852831331"><ele>926.0</ele><time>2026-05-01T06:19:46Z</time></trkpt><trkpt lat="47.194439305178946" lon="11.397951275918452"><ele>926.0</ele><time>2026-05-01T06:19:47Z</time></trkpt><trkpt lat="47.19462932912582" lon="11.397941936257821"><ele>926.0</ele><time>2026-05-01T06:19:48Z</time></trkpt><trkpt lat="47.1948202002168" lon="11.397938325730236"><ele>926.0</ele><time>2026-05-01T06:19:49Z</time></trkpt><trkpt lat="47.195005699570395" lon="11.397944204242073"><ele>924.3333333333334</ele><time>2026-05-01T06:19:50Z</time></trkpt><trkpt lat="47.19519574890202" lon="11.397949998731182"><ele>922.6666666666667</ele><time>2026-05-01T06:19:51Z</time></trkpt><trkpt lat="47.195381764879606" lon="11.397944260935574"><ele>921.0</ele><time>2026-05-01T06:19:52Z</time></trkpt><trkpt lat="47.19556466553546" lon="11.397962741865411"><ele>921.0</ele><time>2026-05-01T06:19:53Z</time></trkpt><trkpt lat="47.19574929209683" lon="11.397982888911692"><ele>921.0</ele><time>2026-05-01T06:19:54Z</time></trkpt><trkpt lat="47.195955018189316" lon="11.398047764749569"><ele>921.0</ele><time>2026-05-01T06:19:55Z</time></trkpt><trkpt lat="47.196139230733024" lon="11.398095348792921"><ele>920.6666666666667</ele><time>2026-05-01T06:19:56Z</time></trkpt><trkpt lat="47.19631741244974" lon="11.398154320116651"><ele>920.3333333333334</ele><time>2026-05-01T06:19:57Z</time></trkpt><trkpt lat="47.19650567146781" lon="11.39820657524494"><ele>920.0</ele><time>2026-05-01T06:19:58Z</time></trkpt><trkpt lat="47.19668778688492" lon="11.398265211487882"><ele>917.3333333333334</ele><time>2026-05-01T06:19:59Z</time></trkpt><trkpt lat="47.19687604568618" lon="11.398327127808109"><ele>914.6666666666667</ele><time>2026-05-01T06:20:00Z</time></trkpt><trkpt lat="47.19705480639455" lon="11.398392470825014"><ele>912.0</ele><time>2026-05-01T06:20:01Z</time></trkpt><trkpt lat="47.19723823533502" lon="11.39846358848512"><ele>911.3333333333333</ele><time>2026-05-01T06:20:02Z</time></trkpt><trkpt lat="47.197412024732905" lon="11.398538879667496"><ele>910.6666666666666</ele><time>2026-05-01T06:20:03Z</time></trkpt><trkpt lat="47.1975958384705" lon="11.398626000563159"><ele>910.0</ele><time>2026-05-01T06:20:04Z</time></trkpt><trkpt lat="47.19777502987493" lon="11.398720168388438"><ele>910.0</ele><time>2026-05-01T06:20:05Z</time></trkpt><trkpt lat="47.19795908958647" lon="11.398821902043824"><ele>910.0</ele><time>2026-05-01T06:20:06Z</time></trkpt><trkpt lat="47.1981470613896" lon="11.398936886305947"><ele>910.0</ele><time>2026-05-01T06:20:07Z</time></trkpt><trkpt lat="47.1983373153443" lon="11.399061737279675"><ele>907.0</ele><time>2026-05-01T06:20:08Z</time></trkpt><trkpt lat="47.19852757124225" lon="11.399192956909387"><ele>904.0</ele><time>2026-05-01T06:20:09Z</time></trkpt><trkpt lat="47.198720877750155" lon="11.399334360889087"><ele>901.0</ele><time>2026-05-01T06:20:10Z</time></trkpt><trkpt lat="47.19891850274945" lon="11.39947923780712"><ele>898.6666666666666</ele><time>2026-05-01T06:20:11Z</time></trkpt><trkpt lat="47.19910678571529" lon="11.399625395361337"><ele>896.3333333333333</ele><time>2026-05-01T06:20:12Z</time></trkpt><trkpt lat="47.19930250506994" lon="11.399777679703517"><ele>894.0</ele><time>2026-05-01T06:20:13Z</time></trkpt><trkpt lat="47.19950616332163" lon="11.399936142327732"><ele>890.5</ele><time>2026-05-01T06:20:14Z</time></trkpt><trkpt lat="47.199708705162124" lon="11.400096760681732"><ele>887.0</ele><time>2026-05-01T06:20:15Z</time></trkpt><trkpt lat="47.19991276053018" lon="11.400259572302827"><ele>877.0</ele><time>2026-05-01T06:20:16Z</time></trkpt><trkpt lat="47.200122582275526" lon="11.4004307504968"><ele>867.0</ele><time>2026-05-01T06:20:17Z</time></trkpt><trkpt lat="47.20033013591554" lon="11.40059709824407"><ele>867.0</ele><time>2026-05-01T06:20:18Z</time></trkpt><trkpt lat="47.20054118611236" lon="11.400766138556083"><ele>867.0</ele><time>2026-05-01T06:20:19Z</time></trkpt><trkpt lat="47.200753643419226" lon="11.400936032428987"><ele>845.0</ele><time>2026-05-01T06:20:20Z</time></trkpt><trkpt lat="47.20096636435697" lon="11.40110654491143"><ele>823.0</ele><time>2026-05-01T06:20:21Z</time></trkpt><trkpt lat="47.20117928747849" lon="11.401278169569668"><ele>809.5</ele><time>2026-05-01T06:20:22Z</time></trkpt><trkpt lat="47.201392101885304" lon="11.401448148686217"><ele>796.0</ele><time>2026-05-01T06:20:23Z</time></trkpt><trkpt lat="47.20160277487166" lon="11.401619263360645"><ele>750.5</ele><time>2026-05-01T06:20:24Z</time></trkpt><trkpt lat="47.20181282400033" lon="11.401787413611462"><ele>705.0</ele><time>2026-05-01T06:20:25Z</time></trkpt><trkpt lat="47.202025024807206" lon="11.401957494029467"><ele>705.0</ele><time>2026-05-01T06:20:26Z</time></trkpt><trkpt lat="47.20223570887941" lon="11.402125471971143"><ele>705.0</ele><time>2026-05-01T06:20:27Z</time></trkpt><trkpt lat="47.20244571000978" lon="11.402296304736744"><ele>708.0</ele><time>2026-05-01T06:20:28Z</time></trkpt><trkpt lat="47.20265393079177" lon="11.402465494772178"><ele>711.0</ele><time>2026-05-01T06:20:29Z</time></trkpt><trkpt lat="47.202860310353536" lon="11.402632881815801"><ele>711.0</ele><time>2026-05-01T06:20:30Z</time></trkpt><trkpt lat="47.203065941715565" lon="11.40279697869126"><ele>711.0</ele><time>2026-05-01T06:20:31Z</time></trkpt><trkpt lat="47.20327377857495" lon="11.402962548024233"><ele>743.5</ele><time>2026-05-01T06:20:32Z</time></trkpt><trkpt lat="47.20347847868676" lon="11.403126184288148"><ele>776.0</ele><time>2026-05-01T06:20:33Z</time></trkpt><trkpt lat="47.20368101808705" lon="11.403286440791694"><ele>776.0</ele><time>2026-05-01T06:20:34Z</time></trkpt><trkpt lat="47.203888259193164" lon="11.403443483493236"><ele>776.0</ele><time>2026-05-01T06:20:35Z</time></trkpt><trkpt lat="47.20409913473716" lon="11.403587939143428"><ele>800.5</ele><time>2026-05-01T06:20:36Z</time></trkpt><trkpt lat="47.20431225229055" lon="11.403719991604715"><ele>825.0</ele><time>2026-05-01T06:20:37Z</time></trkpt><trkpt lat="47.20453334942207" lon="11.403834175011895"><ele>836.5</ele><time>2026-05-01T06:20:38Z</time></trkpt><trkpt lat="47.20475876322457" lon="11.403928333212432"><ele>848.0</ele><time>2026-05-01T06:20:39Z</time></trkpt><trkpt lat="47.20498929846686" lon="11.404002388188102"><ele>859.0</ele><time>2026-05-01T06:20:40Z</time></trkpt><trkpt lat="47.20522657527742" lon="11.404057465560271"><ele>870.0</ele><time>2026-05-01T06:20:41Z</time></trkpt><trkpt lat="47.20546088365768" lon="11.404087496316093"><ele>869.5</ele><time>2026-05-01T06:20:42Z</time></trkpt><trkpt lat="47.2056975404422" lon="11.404096241399785"><ele>869.0</ele><time>2026-05-01T06:20:43Z</time></trkpt><trkpt lat="47.2059312033268" lon="11.4040861068493"><ele>869.0</ele><time>2026-05-01T06:20:44Z</time></trkpt><trkpt lat="47.20616811937284" lon="11.40404933074101"><ele>869.0</ele><time>2026-05-01T06:20:45Z</time></trkpt><trkpt lat="47.20640055500809" lon="11.403998901193335"><ele>871.0</ele><time>2026-05-01T06:20:46Z</time></trkpt><trkpt lat="47.206630943075595" lon="11.403926900987152"><ele>873.0</ele><time>2026-05-01T06:20:47Z</time></trkpt><trkpt lat="47.206860227404945" lon="11.403840932863535"><ele>866.0</ele><time>2026-05-01T06:20:48Z</time></trkpt><trkpt lat="47.20708977751106" lon="11.403741756110886"><ele>859.0</ele><time>2026-05-01T06:20:49Z</time></trkpt><trkpt lat="47.207312430102625" lon="11.40364034535172"><ele>859.5</ele><time>2026-05-01T06:20:50Z</time></trkpt><trkpt lat="47.207534328315916" lon="11.403529332107757"><ele>860.0</ele><time>2026-05-01T06:20:51Z</time></trkpt><trkpt lat="47.20775035115244" lon="11.40341924033814"><ele>860.0</ele><time>2026-05-01T06:20:52Z</time></trkpt><trkpt lat="47.20796645121919" lon="11.403302652949696"><ele>860.0</ele><time>2026-05-01T06:20:53Z</time></trkpt><trkpt lat="47.20818406656272" lon="11.40318735700744"><ele>863.0</ele><time>2026-05-01T06:20:54Z</time></trkpt><trkpt lat="47.208397783781905" lon="11.403071737167249"><ele>866.0</ele><time>2026-05-01T06:20:55Z</time></trkpt><trkpt lat="47.208609772670634" lon="11.402954534164296"><ele>861.5</ele><time>2026-05-01T06:20:56Z</time></trkpt><trkpt lat="47.208821495246696" lon="11.402832345312971"><ele>857.0</ele><time>2026-05-01T06:20:57Z</time></trkpt><trkpt lat="47.20903386148936" lon="11.402705557875159"><ele>857.0</ele><time>2026-05-01T06:20:58Z</time></trkpt><trkpt lat="47.209245697650616" lon="11.4025773687724"><ele>857.0</ele><time>2026-05-01T06:20:59Z</time></trkpt><trkpt lat="47.20946010421557" lon="11.402447124432904"><ele>857.0</ele><time>2026-05-01T06:21:00Z</time></trkpt><trkpt lat="47.20967379182036" lon="11.402307682681418"><ele>857.0</ele><time>2026-05-01T06:21:01Z</time></trkpt><trkpt lat="47.209884448353904" lon="11.402170511532415"><ele>850.5</ele><time>2026-05-01T06:21:02Z</time></trkpt><trkpt lat="47.21010079603349" lon="11.40202793895778"><ele>844.0</ele><time>2026-05-01T06:21:03Z</time></trkpt><trkpt lat="47.21031003941929" lon="11.40188107306879"><ele>844.0</ele><time>2026-05-01T06:21:04Z</time></trkpt><trkpt lat="47.21051932562664" lon="11.401731230924549"><ele>844.0</ele><time>2026-05-01T06:21:05Z</time></trkpt><trkpt lat="47.21072789863371" lon="11.401581937417026"><ele>848.0</ele><time>2026-05-01T06:21:06Z</time></trkpt><trkpt lat="47.21093782155387" lon="11.40143046056857"><ele>852.0</ele><time>2026-05-01T06:21:07Z</time></trkpt><trkpt lat="47.21114418807976" lon="11.40127126617586"><ele>846.5</ele><time>2026-05-01T06:21:08Z</time></trkpt><trkpt lat="47.211352931474124" lon="11.401109709641123"><ele>841.0</ele><time>2026-05-01T06:21:09Z</time></trkpt><trkpt lat="47.21155750318557" lon="11.400945709968243"><ele>841.0</ele><time>2026-05-01T06:21:10Z</time></trkpt><trkpt lat="47.211758873197155" lon="11.40077984122161"><ele>841.0</ele><time>2026-05-01T06:21:11Z</time></trkpt><trkpt lat="47.211964658799445" lon="11.40060921249635"><ele>834.5</ele><time>2026-05-01T06:21:12Z</time></trkpt><trkpt lat="47.212168248966364" lon="11.400441359821917"><ele>828.0</ele><time>2026-05-01T06:21:13Z</time></trkpt><trkpt lat="47.212371570573914" lon="11.40027119218742"><ele>828.0</ele><time>2026-05-01T06:21:14Z</time></trkpt><trkpt lat="47.21257168044087" lon="11.400101190887304"><ele>828.0</ele><time>2026-05-01T06:21:15Z</time></trkpt><trkpt lat="47.212770187070156" lon="11.399929455916547"><ele>828.0</ele><time>2026-05-01T06:21:16Z</time></trkpt><trkpt lat="47.212969024811535" lon="11.399754923205746"><ele>828.0</ele><time>2026-05-01T06:21:17Z</time></trkpt><trkpt lat="47.21316889539916" lon="11.399573719071546"><ele>827.0</ele><time>2026-05-01T06:21:18Z</time></trkpt><trkpt lat="47.213367211603625" lon="11.399390752313554"><ele>826.0</ele><time>2026-05-01T06:21:19Z</time></trkpt><trkpt lat="47.21356477140428" lon="11.399207303461488"><ele>826.0</ele><time>2026-05-01T06:21:20Z</time></trkpt><trkpt lat="47.21376382547567" lon="11.399020566002058"><ele>826.0</ele><time>2026-05-01T06:21:21Z</time></trkpt><trkpt lat="47.21396163958704" lon="11.398833891056018"><ele>821.0</ele><time>2026-05-01T06:21:22Z</time></trkpt><trkpt lat="47.214159440755516" lon="11.398643242692648"><ele>816.0</ele><time>2026-05-01T06:21:23Z</time></trkpt><trkpt lat="47.214355922573674" lon="11.398451154484052"><ele>816.0</ele><time>2026-05-01T06:21:24Z</time></trkpt><trkpt lat="47.214549103153225" lon="11.398258024737979"><ele>816.0</ele><time>2026-05-01T06:21:25Z</time></trkpt><trkpt lat="47.21474112592956" lon="11.39806692691536"><ele>811.5</ele><time>2026-05-01T06:21:26Z</time></trkpt><trkpt lat="47.214933903475355" lon="11.397875777402023"><ele>807.0</ele><time>2026-05-01T06:21:27Z</time></trkpt><trkpt lat="47.215123173057336" lon="11.397686540214925"><ele>807.0</ele><time>2026-05-01T06:21:28Z</time></trkpt><trkpt lat="47.21531120645836" lon="11.397495124979265"><ele>807.0</ele><time>2026-05-01T06:21:29Z</time></trkpt><trkpt lat="47.21549892164105" lon="11.397303849874351"><ele>802.0</ele><time>2026-05-01T06:21:30Z</time></trkpt><trkpt lat="47.21568534547862" lon="11.397113201847182"><ele>797.0</ele><time>2026-05-01T06:21:31Z</time></trkpt><trkpt lat="47.21587178575606" lon="11.396923032876508"><ele>797.0</ele><time>2026-05-01T06:21:32Z</time></trkpt><trkpt lat="47.21605504705627" lon="11.396740335833456"><ele>797.0</ele><time>2026-05-01T06:21:33Z</time></trkpt><trkpt lat="47.21625040912573" lon="11.396551252390573"><ele>797.0</ele><time>2026-05-01T06:21:34Z</time></trkpt><trkpt lat="47.21643647366179" lon="11.396366113848767"><ele>797.0</ele><time>2026-05-01T06:21:35Z</time></trkpt><trkpt lat="47.216625236514616" lon="11.396182517731981"><ele>795.0</ele><time>2026-05-01T06:21:36Z</time></trkpt><trkpt lat="47.21681148733929" lon="11.395995073416879"><ele>793.0</ele><time>2026-05-01T06:21:37Z</time></trkpt><trkpt lat="47.21699369218343" lon="11.395810646638349"><ele>791.0</ele><time>2026-05-01T06:21:38Z</time></trkpt><trkpt lat="47.217176936433304" lon="11.395623156402312"><ele>794.3333333333334</ele><time>2026-05-01T06:21:39Z</time></trkpt><trkpt lat="47.217361813068734" lon="11.395440326371986"><ele>797.6666666666667</ele><time>2026-05-01T06:21:40Z</time></trkpt><trkpt lat="47.21754778560159" lon="11.395271108745375"><ele>801.0</ele><time>2026-05-01T06:21:41Z</time></trkpt><trkpt lat="47.217741367739215" lon="11.395103568247272"><ele>801.0</ele><time>2026-05-01T06:21:42Z</time></trkpt><trkpt lat="47.217931517615966" lon="11.394943864371193"><ele>801.0</ele><time>2026-05-01T06:21:43Z</time></trkpt><trkpt lat="47.21812798035672" lon="11.394792405669834"><ele>801.0</ele><time>2026-05-01T06:21:44Z</time></trkpt><trkpt lat="47.21832905452617" lon="11.394648146109764"><ele>800.5</ele><time>2026-05-01T06:21:45Z</time></trkpt><trkpt lat="47.21853305075605" lon="11.39450885795357"><ele>800.0</ele><time>2026-05-01T06:21:46Z</time></trkpt><trkpt lat="47.218736964801174" lon="11.39436475513663"><ele>800.0</ele><time>2026-05-01T06:21:47Z</time></trkpt><trkpt lat="47.218935177747625" lon="11.394226014198072"><ele>800.0</ele><time>2026-05-01T06:21:48Z</time></trkpt><trkpt lat="47.219135468315805" lon="11.394090990512723"><ele>800.0</ele><time>2026-05-01T06:21:49Z</time></trkpt><trkpt lat="47.219332362556614" lon="11.393958726314692"><ele>794.0</ele><time>2026-05-01T06:21:50Z</time></trkpt><trkpt lat="47.21953440931085" lon="11.393825045096662"><ele>788.0</ele><time>2026-05-01T06:21:51Z</time></trkpt><trkpt lat="47.21973528278947" lon="11.393698476348726"><ele>782.0</ele><time>2026-05-01T06:21:52Z</time></trkpt><trkpt lat="47.21994800247154" lon="11.393567436574756"><ele>780.0</ele><time>2026-05-01T06:21:53Z</time></trkpt><trkpt lat="47.220160651317194" lon="11.393442566624868"><ele>778.0</ele><time>2026-05-01T06:21:54Z</time></trkpt><trkpt lat="47.220365830493506" lon="11.393325393606414"><ele>776.0</ele><time>2026-05-01T06:21:55Z</time></trkpt><trkpt lat="47.22057943862315" lon="11.39320825515292"><ele>771.5</ele><time>2026-05-01T06:21:56Z</time></trkpt><trkpt lat="47.220796180196636" lon="11.393098346032478"><ele>767.0</ele><time>2026-05-01T06:21:57Z</time></trkpt><trkpt lat="47.22101381969461" lon="11.392989195824226"><ele>756.0</ele><time>2026-05-01T06:21:58Z</time></trkpt><trkpt lat="47.22123018332385" lon="11.392882757456336"><ele>745.0</ele><time>2026-05-01T06:21:59Z</time></trkpt><trkpt lat="47.22144595176201" lon="11.392782762905874"><ele>752.0</ele><time>2026-05-01T06:22:00Z</time></trkpt><trkpt lat="47.221662524096985" lon="11.392685969111223"><ele>759.0</ele><time>2026-05-01T06:22:01Z</time></trkpt><trkpt lat="47.22188058908669" lon="11.392594294432852"><ele>759.0</ele><time>2026-05-01T06:22:02Z</time></trkpt><trkpt lat="47.222102044823835" lon="11.392508811335365"><ele>759.0</ele><time>2026-05-01T06:22:03Z</time></trkpt><trkpt lat="47.22232500301045" lon="11.392424847851201"><ele>762.5</ele><time>2026-05-01T06:22:04Z</time></trkpt><trkpt lat="47.222545597008924" lon="11.392349966592251"><ele>766.0</ele><time>2026-05-01T06:22:05Z</time></trkpt><trkpt lat="47.22276492999651" lon="11.392278043710778"><ele>766.0</ele><time>2026-05-01T06:22:06Z</time></trkpt><trkpt lat="47.22299039313579" lon="11.392212295467266"><ele>766.0</ele><time>2026-05-01T06:22:07Z</time></trkpt><trkpt lat="47.22320899969942" lon="11.392164041602701"><ele>757.5</ele><time>2026-05-01T06:22:08Z</time></trkpt><trkpt lat="47.22343238841953" lon="11.392127149749403"><ele>749.0</ele><time>2026-05-01T06:22:09Z</time></trkpt><trkpt lat="47.223657883842684" lon="11.392102879841756"><ele>749.0</ele><time>2026-05-01T06:22:10Z</time></trkpt><trkpt lat="47.22388215027615" lon="11.392093132347808"><ele>749.0</ele><time>2026-05-01T06:22:11Z</time></trkpt><trkpt lat="47.22410804566529" lon="11.392095645368988"><ele>747.6666666666666</ele><time>2026-05-01T06:22:12Z</time></trkpt><trkpt lat="47.2243279148573" lon="11.392108933859593"><ele>746.3333333333334</ele><time>2026-05-01T06:22:13Z</time></trkpt><trkpt lat="47.22453870000127" lon="11.39214207045266"><ele>745.0</ele><time>2026-05-01T06:22:14Z</time></trkpt><trkpt lat="47.22474569920496" lon="11.392177408581672"><ele>742.6666666666667</ele><time>2026-05-01T06:22:15Z</time></trkpt><trkpt lat="47.22495358631165" lon="11.392213240581071"><ele>740.3333333333334</ele><time>2026-05-01T06:22:16Z</time></trkpt><trkpt lat="47.22516702479169" lon="11.39226000949815"><ele>738.0</ele><time>2026-05-01T06:22:17Z</time></trkpt><trkpt lat="47.225380506680864" lon="11.392327849168675"><ele>738.0</ele><time>2026-05-01T06:22:18Z</time></trkpt><trkpt lat="47.225594786780746" lon="11.392416785882137"><ele>738.0</ele><time>2026-05-01T06:22:19Z</time></trkpt><trkpt lat="47.22580678301901" lon="11.392526190089429"><ele>738.0</ele><time>2026-05-01T06:22:20Z</time></trkpt><trkpt lat="47.22601422409615" lon="11.392649263742408"><ele>733.3333333333334</ele><time>2026-05-01T06:22:21Z</time></trkpt><trkpt lat="47.22621766820788" lon="11.392777293295044"><ele>728.6666666666667</ele><time>2026-05-01T06:22:22Z</time></trkpt><trkpt lat="47.226418817947255" lon="11.392901235921627"><ele>724.0</ele><time>2026-05-01T06:22:23Z</time></trkpt><trkpt lat="47.22662294937683" lon="11.39302186764631"><ele>722.0</ele><time>2026-05-01T06:22:24Z</time></trkpt><trkpt lat="47.226826327850844" lon="11.393138043948035"><ele>720.0</ele><time>2026-05-01T06:22:25Z</time></trkpt><trkpt lat="47.22703076709586" lon="11.393247551746814"><ele>718.0</ele><time>2026-05-01T06:22:26Z</time></trkpt><trkpt lat="47.22723572816174" lon="11.393347638661925"><ele>717.6666666666667</ele><time>2026-05-01T06:22:27Z</time></trkpt><trkpt lat="47.22744152855606" lon="11.393441381839397"><ele>717.3333333333334</ele><time>2026-05-01T06:22:28Z</time></trkpt><trkpt lat="47.22764763861971" lon="11.393524388530466"><ele>717.0</ele><time>2026-05-01T06:22:29Z</time></trkpt><trkpt lat="47.22785743637108" lon="11.39360200777435"><ele>717.0</ele><time>2026-05-01T06:22:30Z</time></trkpt><trkpt lat="47.22806967489346" lon="11.393668272456814"><ele>717.0</ele><time>2026-05-01T06:22:31Z</time></trkpt><trkpt lat="47.22828381387214" lon="11.393719300822978"><ele>717.0</ele><time>2026-05-01T06:22:32Z</time></trkpt><trkpt lat="47.228495508057165" lon="11.393759076523727"><ele>715.3333333333334</ele><time>2026-05-01T06:22:33Z</time></trkpt><trkpt lat="47.22870908911547" lon="11.393787977676201"><ele>713.6666666666667</ele><time>2026-05-01T06:22:34Z</time></trkpt><trkpt lat="47.228923232969564" lon="11.393803202161331"><ele>712.0</ele><time>2026-05-01T06:22:35Z</time></trkpt><trkpt lat="47.22913878962093" lon="11.39380428290237"><ele>711.3333333333334</ele><time>2026-05-01T06:22:36Z</time></trkpt><trkpt lat="47.22935490291663" lon="11.393791375343186"><ele>710.6666666666666</ele><time>2026-05-01T06:22:37Z</time></trkpt><trkpt lat="47.229573119459886" lon="11.393767665922377"><ele>710.0</ele><time>2026-05-01T06:22:38Z</time></trkpt><trkpt lat="47.229788954822546" lon="11.393729265540967"><ele>709.0</ele><time>2026-05-01T06:22:39Z</time></trkpt><trkpt lat="47.23000327290819" lon="11.393676186996158"><ele>708.0</ele><time>2026-05-01T06:22:40Z</time></trkpt><trkpt lat="47.23021698647467" lon="11.393614477262279"><ele>707.0</ele><time>2026-05-01T06:22:41Z</time></trkpt><trkpt lat="47.230427432526156" lon="11.393549194060583"><ele>707.0</ele><time>2026-05-01T06:22:42Z</time></trkpt><trkpt lat="47.23062553949602" lon="11.393483066524068"><ele>707.0</ele><time>2026-05-01T06:22:43Z</time></trkpt><trkpt lat="47.23081859704172" lon="11.393419477458227"><ele>707.0</ele><time>2026-05-01T06:22:44Z</time></trkpt><trkpt lat="47.23100551743128" lon="11.393357252971539"><ele>706.3333333333333</ele><time>2026-05-01T06:22:45Z</time></trkpt><trkpt lat="47.23119656463605" lon="11.393292640091092"><ele>705.6666666666666</ele><time>2026-05-01T06:22:46Z</time></trkpt><trkpt lat="47.231386351825414" lon="11.39322933910998"><ele>705.0</ele><time>2026-05-01T06:22:47Z</time></trkpt><trkpt lat="47.231572386703114" lon="11.39316987848014"><ele>703.0</ele><time>2026-05-01T06:22:48Z</time></trkpt><trkpt lat="47.231752486955806" lon="11.393112548675461"><ele>701.0</ele><time>2026-05-01T06:22:49Z</time></trkpt><trkpt lat="47.23192951198206" lon="11.393054593760255"><ele>699.0</ele><time>2026-05-01T06:22:50Z</time></trkpt><trkpt lat="47.23210620261225" lon="11.392996612765485"><ele>699.0</ele><time>2026-05-01T06:22:51Z</time></trkpt><trkpt lat="47.232279974256386" lon="11.392938462617424"><ele>699.0</ele><time>2026-05-01T06:22:52Z</time></trkpt><trkpt lat="47.232449434296015" lon="11.392882791302531"><ele>699.0</ele><time>2026-05-01T06:22:53Z</time></trkpt><trkpt lat="47.232617462282306" lon="11.392824774027106"><ele>699.3333333333334</ele><time>2026-05-01T06:22:54Z</time></trkpt><trkpt lat="47.23277974290423" lon="11.39275293792034"><ele>699.6666666666667</ele><time>2026-05-01T06:22:55Z</time></trkpt><trkpt lat="47.23293525612873" lon="11.392665176246824"><ele>700.0</ele><time>2026-05-01T06:22:56Z</time></trkpt><trkpt lat="47.233087747271966" lon="11.392571621297828"><ele>699.0</ele><time>2026-05-01T06:22:57Z</time></trkpt><trkpt lat="47.23323667593859" lon="11.392483449465853"><ele>698.0</ele><time>2026-05-01T06:22:58Z</time></trkpt><trkpt lat="47.23337892607511" lon="11.392409522401652"><ele>697.0</ele><time>2026-05-01T06:22:59Z</time></trkpt><trkpt lat="47.233516465076534" lon="11.392349546974977"><ele>697.0</ele><time>2026-05-01T06:23:00Z</time></trkpt><trkpt lat="47.23364674409573" lon="11.392303181254505"><ele>697.0</ele><time>2026-05-01T06:23:01Z</time></trkpt><trkpt lat="47.23377577307712" lon="11.392261559160923"><ele>697.0</ele><time>2026-05-01T06:23:02Z</time></trkpt><trkpt lat="47.23390132752039" lon="11.392219508908582"><ele>697.0</ele><time>2026-05-01T06:23:03Z</time></trkpt><trkpt lat="47.234025717187315" lon="11.392178061752373"><ele>694.25</ele><time>2026-05-01T06:23:04Z</time></trkpt><trkpt lat="47.234151434984796" lon="11.392136668839633"><ele>691.5</ele><time>2026-05-01T06:23:05Z</time></trkpt><trkpt lat="47.23427986806877" lon="11.392095487766376"><ele>688.75</ele><time>2026-05-01T06:23:06Z</time></trkpt><trkpt lat="47.234407166224386" lon="11.39205340461007"><ele>686.0</ele><time>2026-05-01T06:23:07Z</time></trkpt><trkpt lat="47.23453599936935" lon="11.392009889666317"><ele>686.0</ele><time>2026-05-01T06:23:08Z</time></trkpt><trkpt lat="47.23466428337445" lon="11.39196707765721"><ele>686.0</ele><time>2026-05-01T06:23:09Z</time></trkpt><trkpt lat="47.234792009995346" lon="11.391921244086278"><ele>686.0</ele><time>2026-05-01T06:23:10Z</time></trkpt><trkpt lat="47.23492101504388" lon="11.391876581136332"><ele>686.0</ele><time>2026-05-01T06:23:11Z</time></trkpt><trkpt lat="47.2350492177992" lon="11.391833732456517"><ele>685.75</ele><time>2026-05-01T06:23:12Z</time></trkpt><trkpt lat="47.235180624021176" lon="11.391790637958259"><ele>685.5</ele><time>2026-05-01T06:23:13Z</time></trkpt><trkpt lat="47.235313031865495" lon="11.391745580313325"><ele>685.25</ele><time>2026-05-01T06:23:14Z</time></trkpt><trkpt lat="47.23544712080912" lon="11.391701074734986"><ele>685.0</ele><time>2026-05-01T06:23:15Z</time></trkpt><trkpt lat="47.23558428875206" lon="11.391654843273583"><ele>686.25</ele><time>2026-05-01T06:23:16Z</time></trkpt><trkpt lat="47.23572068329176" lon="11.391608350833026"><ele>687.5</ele><time>2026-05-01T06:23:17Z</time></trkpt><trkpt lat="47.235857662139345" lon="11.391560673336132"><ele>688.75</ele><time>2026-05-01T06:23:18Z</time></trkpt><trkpt lat="47.23599293633852" lon="11.391512934718245"><ele>690.0</ele><time>2026-05-01T06:23:19Z</time></trkpt><trkpt lat="47.23612252393601" lon="11.39146753271381"><ele>690.0</ele><time>2026-05-01T06:23:20Z</time></trkpt><trkpt lat="47.236260076069044" lon="11.391421931068201"><ele>690.0</ele><time>2026-05-01T06:23:21Z</time></trkpt><trkpt lat="47.23640144164333" lon="11.391376004244966"><ele>690.0</ele><time>2026-05-01T06:23:22Z</time></trkpt><trkpt lat="47.23654420595434" lon="11.391329808176724"><ele>690.0</ele><time>2026-05-01T06:23:23Z</time></trkpt><trkpt lat="47.23668897647995" lon="11.39128222787975"><ele>687.25</ele><time>2026-05-01T06:23:24Z</time></trkpt><trkpt lat="47.23683541834098" lon="11.391233344089407"><ele>684.5</ele><time>2026-05-01T06:23:25Z</time></trkpt><trkpt lat="47.236978572911724" lon="11.391184343778713"><ele>681.75</ele><time>2026-05-01T06:23:26Z</time></trkpt><trkpt lat="47.23712409003252" lon="11.391135802430187"><ele>679.0</ele><time>2026-05-01T06:23:27Z</time></trkpt><trkpt lat="47.23726892482098" lon="11.391086928053396"><ele>678.25</ele><time>2026-05-01T06:23:28Z</time></trkpt><trkpt lat="47.237414731988416" lon="11.39103826056735"><ele>677.5</ele><time>2026-05-01T06:23:29Z</time></trkpt><trkpt lat="47.23756547750837" lon="11.391025826085839"><ele>676.75</ele><time>2026-05-01T06:23:30Z</time></trkpt><trkpt lat="47.237709970788075" lon="11.390977028990907"><ele>676.0</ele><time>2026-05-01T06:23:31Z</time></trkpt><trkpt lat="47.237853572288785" lon="11.390928965068063"><ele>676.0</ele><time>2026-05-01T06:23:32Z</time></trkpt><trkpt lat="47.23799579349418" lon="11.390879607455117"><ele>676.0</ele><time>2026-05-01T06:23:33Z</time></trkpt><trkpt lat="47.23813208266766" lon="11.390830915706434"><ele>676.0</ele><time>2026-05-01T06:23:34Z</time></trkpt><trkpt lat="47.23826678698041" lon="11.390782864808484"><ele>676.0</ele><time>2026-05-01T06:23:35Z</time></trkpt><trkpt lat="47.23839404207168" lon="11.390737471153056"><ele>673.25</ele><time>2026-05-01T06:23:36Z</time></trkpt><trkpt lat="47.23851204320792" lon="11.390695195581635"><ele>670.5</ele><time>2026-05-01T06:23:37Z</time></trkpt><trkpt lat="47.238627332798615" lon="11.390658066962233"><ele>667.75</ele><time>2026-05-01T06:23:38Z</time></trkpt><trkpt lat="47.238737013366844" lon="11.390596823326847"><ele>665.0</ele><time>2026-05-01T06:23:39Z</time></trkpt><trkpt lat="47.238843498919856" lon="11.390566164924627"><ele>665.0</ele><time>2026-05-01T06:23:40Z</time></trkpt><trkpt lat="47.238957844468075" lon="11.390542760950575"><ele>665.0</ele><time>2026-05-01T06:23:41Z</time></trkpt><trkpt lat="47.239079193577815" lon="11.390527330390206"><ele>665.0</ele><time>2026-05-01T06:23:42Z</time></trkpt><trkpt lat="47.23920894335705" lon="11.390518859634744"><ele>665.0</ele><time>2026-05-01T06:23:43Z</time></trkpt><trkpt lat="47.23934380827788" lon="11.390511627557487"><ele>669.75</ele><time>2026-05-01T06:23:44Z</time></trkpt><trkpt lat="47.23948348760037" lon="11.390501818164523"><ele>674.5</ele><time>2026-05-01T06:23:45Z</time></trkpt><trkpt lat="47.23962515123069" lon="11.39048989111836"><ele>679.25</ele><time>2026-05-01T06:23:46Z</time></trkpt><trkpt lat="47.2397688571887" lon="11.390477195292458"><ele>684.0</ele><time>2026-05-01T06:23:47Z</time></trkpt><trkpt lat="47.239912878950314" lon="11.390464658428309"><ele>685.3333333333334</ele><time>2026-05-01T06:23:48Z</time></trkpt><trkpt lat="47.24006208009794" lon="11.39045526819339"><ele>686.6666666666667</ele><time>2026-05-01T06:23:49Z</time></trkpt><trkpt lat="47.24021528154972" lon="11.390452392947795"><ele>688.0</ele><time>2026-05-01T06:23:50Z</time></trkpt><trkpt lat="47.24037361178093" lon="11.390462930043867"><ele>688.0</ele><time>2026-05-01T06:23:51Z</time></trkpt><trkpt lat="47.24053333236524" lon="11.390481727134532"><ele>688.0</ele><time>2026-05-01T06:23:52Z</time></trkpt><trkpt lat="47.240695226284245" lon="11.3905032165577"><ele>688.0</ele><time>2026-05-01T06:23:53Z</time></trkpt><trkpt lat="47.24085883514208" lon="11.390524265206366"><ele>681.3333333333334</ele><time>2026-05-01T06:23:54Z</time></trkpt><trkpt lat="47.241020702797805" lon="11.390551526088249"><ele>674.6666666666666</ele><time>2026-05-01T06:23:55Z</time></trkpt><trkpt lat="47.24118150683944" lon="11.390583765745971"><ele>668.0</ele><time>2026-05-01T06:23:56Z</time></trkpt><trkpt lat="47.24134329307854" lon="11.390617951340571"><ele>668.6666666666666</ele><time>2026-05-01T06:23:57Z</time></trkpt><trkpt lat="47.24150308321273" lon="11.390658457417437"><ele>669.3333333333334</ele><time>2026-05-01T06:23:58Z</time></trkpt><trkpt lat="47.241661974931034" lon="11.39070266750656"><ele>670.0</ele><time>2026-05-01T06:23:59Z</time></trkpt><trkpt lat="47.24182059837659" lon="11.390753462264376"><ele>670.0</ele><time>2026-05-01T06:24:00Z</time></trkpt><trkpt lat="47.24197622591831" lon="11.390814639024033"><ele>670.0</ele><time>2026-05-01T06:24:01Z</time></trkpt><trkpt lat="47.24212795861154" lon="11.390883935647288"><ele>670.0</ele><time>2026-05-01T06:24:02Z</time></trkpt><trkpt lat="47.242276322582526" lon="11.390958797235049"><ele>674.3333333333334</ele><time>2026-05-01T06:24:03Z</time></trkpt><trkpt lat="47.24242600107245" lon="11.391040142356394"><ele>678.6666666666666</ele><time>2026-05-01T06:24:04Z</time></trkpt><trkpt lat="47.24257605644783" lon="11.391128800775277"><ele>683.0</ele><time>2026-05-01T06:24:05Z</time></trkpt><trkpt lat="47.24273437217337" lon="11.391196330559314"><ele>683.0</ele><time>2026-05-01T06:24:06Z</time></trkpt><trkpt lat="47.242884973158304" lon="11.391290227867872"><ele>683.0</ele><time>2026-05-01T06:24:07Z</time></trkpt><trkpt lat="47.243015656997414" lon="11.391430576844957"><ele>683.0</ele><time>2026-05-01T06:24:08Z</time></trkpt><trkpt lat="47.243158160542194" lon="11.391544684979415"><ele>678.0</ele><time>2026-05-01T06:24:09Z</time></trkpt><trkpt lat="47.243299979294925" lon="11.391668629746862"><ele>673.0</ele><time>2026-05-01T06:24:10Z</time></trkpt><trkpt lat="47.243441660905226" lon="11.391801936954085"><ele>668.0</ele><time>2026-05-01T06:24:11Z</time></trkpt><trkpt lat="47.24358755676027" lon="11.391950538765895"><ele>668.0</ele><time>2026-05-01T06:24:12Z</time></trkpt><trkpt lat="47.243733530759144" lon="11.392106032545492"><ele>668.0</ele><time>2026-05-01T06:24:13Z</time></trkpt><trkpt lat="47.24387988379989" lon="11.392274929033693"><ele>668.0</ele><time>2026-05-01T06:24:14Z</time></trkpt><trkpt lat="47.24402714082392" lon="11.392451587620974"><ele>665.3333333333333</ele><time>2026-05-01T06:24:15Z</time></trkpt><trkpt lat="47.24417021483776" lon="11.392634945022946"><ele>662.6666666666666</ele><time>2026-05-01T06:24:16Z</time></trkpt><trkpt lat="47.2443163626795" lon="11.392829044959443"><ele>660.0</ele><time>2026-05-01T06:24:17Z</time></trkpt><trkpt lat="47.244457368104" lon="11.393026631785826"><ele>660.6666666666666</ele><time>2026-05-01T06:24:18Z</time></trkpt><trkpt lat="47.24459796617309" lon="11.393229464525712"><ele>661.3333333333333</ele><time>2026-05-01T06:24:19Z</time></trkpt><trkpt lat="47.244738147526654" lon="11.393433457037554"><ele>662.0</ele><time>2026-05-01T06:24:20Z</time></trkpt><trkpt lat="47.24488082073529" lon="11.393643546149162"><ele>657.0</ele><time>2026-05-01T06:24:21Z</time></trkpt><trkpt lat="47.24502122803327" lon="11.39385151767115"><ele>652.0</ele><time>2026-05-01T06:24:22Z</time></trkpt><trkpt lat="47.245166779132056" lon="11.394052264883491"><ele>647.0</ele><time>2026-05-01T06:24:23Z</time></trkpt><trkpt lat="47.24532056592217" lon="11.39424340203941"><ele>647.0</ele><time>2026-05-01T06:24:24Z</time></trkpt><trkpt lat="47.245480476537" lon="11.394418671000148"><ele>647.0</ele><time>2026-05-01T06:24:25Z</time></trkpt><trkpt lat="47.24565198769078" lon="11.394579707817133"><ele>647.0</ele><time>2026-05-01T06:24:26Z</time></trkpt><trkpt lat="47.245829062221404" lon="11.394720730197983"><ele>648.6666666666666</ele><time>2026-05-01T06:24:27Z</time></trkpt><trkpt lat="47.24601336887877" lon="11.394842589358646"><ele>650.3333333333334</ele><time>2026-05-01T06:24:28Z</time></trkpt><trkpt lat="47.24620388157963" lon="11.394943714452149"><ele>652.0</ele><time>2026-05-01T06:24:29Z</time></trkpt><trkpt lat="47.24640030191083" lon="11.395020173165987"><ele>658.3333333333334</ele><time>2026-05-01T06:24:30Z</time></trkpt><trkpt lat="47.24660651812981" lon="11.395075319735929"><ele>664.6666666666666</ele><time>2026-05-01T06:24:31Z</time></trkpt><trkpt lat="47.24682025265457" lon="11.3951007806345"><ele>671.0</ele><time>2026-05-01T06:24:32Z</time></trkpt><trkpt lat="47.247030148114064" lon="11.395108694716916"><ele>671.0</ele><time>2026-05-01T06:24:33Z</time></trkpt><trkpt lat="47.24724207253599" lon="11.395094438082046"><ele>671.0</ele><time>2026-05-01T06:24:34Z</time></trkpt><trkpt lat="47.2474568561084" lon="11.395056809646288"><ele>671.0</ele><time>2026-05-01T06:24:35Z</time></trkpt><trkpt lat="47.24767080654671" lon="11.394994757164024"><ele>667.6666666666666</ele><time>2026-05-01T06:24:36Z</time></trkpt><trkpt lat="47.247884828982535" lon="11.394910707443632"><ele>664.3333333333334</ele><time>2026-05-01T06:24:37Z</time></trkpt><trkpt lat="47.24809812426245" lon="11.394807262075739"><ele>661.0</ele><time>2026-05-01T06:24:38Z</time></trkpt><trkpt lat="47.248306446150494" lon="11.394707854582336"><ele>653.5</ele><time>2026-05-01T06:24:39Z</time></trkpt><trkpt lat="47.2485483281997" lon="11.39454903152469"><ele>646.0</ele><time>2026-05-01T06:24:40Z</time></trkpt><trkpt lat="47.24872744644051" lon="11.39440480855283"><ele>646.0</ele><time>2026-05-01T06:24:41Z</time></trkpt><trkpt lat="47.24892536896036" lon="11.39425849878154"><ele>646.0</ele><time>2026-05-01T06:24:42Z</time></trkpt><trkpt lat="47.24912458379083" lon="11.39411241246847"><ele>646.0</ele><time>2026-05-01T06:24:43Z</time></trkpt><trkpt lat="47.24933041389751" lon="11.393965429652475"><ele>641.6666666666667</ele><time>2026-05-01T06:24:44Z</time></trkpt><trkpt lat="47.249532678754754" lon="11.393816645096445"><ele>637.3333333333334</ele><time>2026-05-01T06:24:45Z</time></trkpt><trkpt lat="47.249731193306324" lon="11.393672342484992"><ele>633.0</ele><time>2026-05-01T06:24:46Z</time></trkpt><trkpt lat="47.24992832032543" lon="11.393530091948424"><ele>631.6666666666666</ele><time>2026-05-01T06:24:47Z</time></trkpt><trkpt lat="47.25012443708769" lon="11.393388672277789"><ele>630.3333333333333</ele><time>2026-05-01T06:24:48Z</time></trkpt><trkpt lat="47.250325068722255" lon="11.393246626840554"><ele>629.0</ele><time>2026-05-01T06:24:49Z</time></trkpt><trkpt lat="47.25052313246488" lon="11.39310325239633"><ele>632.0</ele><time>2026-05-01T06:24:50Z</time></trkpt><trkpt lat="47.25072017958662" lon="11.39296347703178"><ele>635.0</ele><time>2026-05-01T06:24:51Z</time></trkpt><trkpt lat="47.250914711516955" lon="11.39282554934608"><ele>638.0</ele><time>2026-05-01T06:24:52Z</time></trkpt><trkpt lat="47.2511106701177" lon="11.392686822753772"><ele>638.0</ele><time>2026-05-01T06:24:53Z</time></trkpt><trkpt lat="47.25130763135472" lon="11.392545843592849"><ele>638.0</ele><time>2026-05-01T06:24:54Z</time></trkpt><trkpt lat="47.25150615915746" lon="11.39240467330841"><ele>638.0</ele><time>2026-05-01T06:24:55Z</time></trkpt><trkpt lat="47.25170514560495" lon="11.392262521502126"><ele>640.0</ele><time>2026-05-01T06:24:56Z</time></trkpt><trkpt lat="47.251901562694584" lon="11.392122766609598"><ele>642.0</ele><time>2026-05-01T06:24:57Z</time></trkpt><trkpt lat="47.25209563762072" lon="11.391983826221473"><ele>644.0</ele><time>2026-05-01T06:24:58Z</time></trkpt><trkpt lat="47.252286564731584" lon="11.391842901387221"><ele>637.3333333333333</ele><time>2026-05-01T06:24:59Z</time></trkpt><trkpt lat="47.252475714454135" lon="11.391687738988264"><ele>630.6666666666666</ele><time>2026-05-01T06:25:00Z</time></trkpt><trkpt lat="47.25265806693244" lon="11.391512555508656"><ele>624.0</ele><time>2026-05-01T06:25:01Z</time></trkpt><trkpt lat="47.252826073126215" lon="11.391313146007905"><ele>624.0</ele><time>2026-05-01T06:25:02Z</time></trkpt><trkpt lat="47.252985145917116" lon="11.391088598178285"><ele>624.0</ele><time>2026-05-01T06:25:03Z</time></trkpt><trkpt lat="47.253130203431894" lon="11.390845830675985"><ele>624.0</ele><time>2026-05-01T06:25:04Z</time></trkpt><trkpt lat="47.25326012250731" lon="11.39058322987191"><ele>618.6666666666666</ele><time>2026-05-01T06:25:05Z</time></trkpt><trkpt lat="47.25337475408602" lon="11.39030710377609"><ele>613.3333333333333</ele><time>2026-05-01T06:25:06Z</time></trkpt><trkpt lat="47.253473965085384" lon="11.390017518879029"><ele>608.0</ele><time>2026-05-01T06:25:07Z</time></trkpt><trkpt lat="47.25355969225482" lon="11.389712183913963"><ele>610.0</ele><time>2026-05-01T06:25:08Z</time></trkpt><trkpt lat="47.25362861597389" lon="11.38940227175977"><ele>612.0</ele><time>2026-05-01T06:25:09Z</time></trkpt><trkpt lat="47.25368093667196" lon="11.389083743945653"><ele>614.0</ele><time>2026-05-01T06:25:10Z</time></trkpt><trkpt lat="47.25371413561905" lon="11.388764722237779"><ele>613.6666666666666</ele><time>2026-05-01T06:25:11Z</time></trkpt><trkpt lat="47.25373009860566" lon="11.388444172559636"><ele>613.3333333333334</ele><time>2026-05-01T06:25:12Z</time></trkpt><trkpt lat="47.2537270592745" lon="11.388122951960487"><ele>613.0</ele><time>2026-05-01T06:25:13Z</time></trkpt><trkpt lat="47.25370748420672" lon="11.387805105131225"><ele>613.0</ele><time>2026-05-01T06:25:14Z</time></trkpt><trkpt lat="47.25367469847361" lon="11.387489057426132"><ele>613.0</ele><time>2026-05-01T06:25:15Z</time></trkpt><trkpt lat="47.25363011947702" lon="11.387175231791606"><ele>613.0</ele><time>2026-05-01T06:25:16Z</time></trkpt><trkpt lat="47.253579435566316" lon="11.386860852798122"><ele>611.3333333333334</ele><time>2026-05-01T06:25:17Z</time></trkpt><trkpt lat="47.25352404868713" lon="11.386545673313513"><ele>609.6666666666666</ele><time>2026-05-01T06:25:18Z</time></trkpt><trkpt lat="47.25346775976226" lon="11.386228207017504"><ele>608.0</ele><time>2026-05-01T06:25:19Z</time></trkpt><trkpt lat="47.25341251420765" lon="11.385908465340306"><ele>607.0</ele><time>2026-05-01T06:25:20Z</time></trkpt><trkpt lat="47.25335860059649" lon="11.385585939883915"><ele>606.0</ele><time>2026-05-01T06:25:21Z</time></trkpt><trkpt lat="47.253307619337306" lon="11.385262578286365"><ele>606.0</ele><time>2026-05-01T06:25:22Z</time></trkpt><trkpt lat="47.253260582587856" lon="11.384934269529001"><ele>606.0</ele><time>2026-05-01T06:25:23Z</time></trkpt><trkpt lat="47.25322298995146" lon="11.384603841020711"><ele>606.0</ele><time>2026-05-01T06:25:24Z</time></trkpt><trkpt lat="47.25319721242722" lon="11.384264928383368"><ele>606.0</ele><time>2026-05-01T06:25:25Z</time></trkpt><trkpt lat="47.25318531040746" lon="11.38392430790381"><ele>604.0</ele><time>2026-05-01T06:25:26Z</time></trkpt><trkpt lat="47.25318529985039" lon="11.383581349563512"><ele>602.0</ele><time>2026-05-01T06:25:27Z</time></trkpt><trkpt lat="47.253195265965594" lon="11.383238250938136"><ele>602.0</ele><time>2026-05-01T06:25:28Z</time></trkpt><trkpt lat="47.25321661034579" lon="11.38289085472208"><ele>602.0</ele><time>2026-05-01T06:25:29Z</time></trkpt><trkpt lat="47.25322731801795" lon="11.382547489544704"><ele>602.0</ele><time>2026-05-01T06:25:30Z</time></trkpt><trkpt lat="47.25328825430531" lon="11.38220825932177"><ele>602.0</ele><time>2026-05-01T06:25:31Z</time></trkpt><trkpt lat="47.253332461243545" lon="11.381872058606382"><ele>604.5</ele><time>2026-05-01T06:25:32Z</time></trkpt><trkpt lat="47.253384064228975" lon="11.381539429626338"><ele>607.0</ele><time>2026-05-01T06:25:33Z</time></trkpt><trkpt lat="47.25344332919322" lon="11.381208576867076"><ele>610.5</ele><time>2026-05-01T06:25:34Z</time></trkpt><trkpt lat="47.2535036029313" lon="11.38088078485366"><ele>614.0</ele><time>2026-05-01T06:25:35Z</time></trkpt><trkpt lat="47.25356166393834" lon="11.380553527753445"><ele>616.0</ele><time>2026-05-01T06:25:36Z</time></trkpt><trkpt lat="47.25361099696695" lon="11.380225816700548"><ele>618.0</ele><time>2026-05-01T06:25:37Z</time></trkpt><trkpt lat="47.25365136365127" lon="11.379899773412674"><ele>617.6666666666666</ele><time>2026-05-01T06:25:38Z</time></trkpt><trkpt lat="47.25368195114606" lon="11.379572557386581"><ele>617.3333333333333</ele><time>2026-05-01T06:25:39Z</time></trkpt><trkpt lat="47.253699329979746" lon="11.37924451212835"><ele>617.0</ele><time>2026-05-01T06:25:40Z</time></trkpt><trkpt lat="47.2537101422057" lon="11.378914999537823"><ele>616.3333333333333</ele><time>2026-05-01T06:25:41Z</time></trkpt><trkpt lat="47.253704944030574" lon="11.378585178559812"><ele>615.6666666666666</ele><time>2026-05-01T06:25:42Z</time></trkpt><trkpt lat="47.253689729794466" lon="11.378255943033398"><ele>615.0</ele><time>2026-05-01T06:25:43Z</time></trkpt><trkpt lat="47.25366431934087" lon="11.377926100672314"><ele>609.5</ele><time>2026-05-01T06:25:44Z</time></trkpt><trkpt lat="47.25362837533793" lon="11.377593910626878"><ele>604.0</ele><time>2026-05-01T06:25:45Z</time></trkpt><trkpt lat="47.253586767970376" lon="11.377263119573456"><ele>597.5</ele><time>2026-05-01T06:25:46Z</time></trkpt><trkpt lat="47.25353660803387" lon="11.376932803361195"><ele>591.0</ele><time>2026-05-01T06:25:47Z</time></trkpt><trkpt lat="47.25348312046814" lon="11.376601140200854"><ele>590.5</ele><time>2026-05-01T06:25:48Z</time></trkpt><trkpt lat="47.25342751442199" lon="11.376266859798102"><ele>590.0</ele><time>2026-05-01T06:25:49Z</time></trkpt><trkpt lat="47.25337201423799" lon="11.3759310628887"><ele>590.0</ele><time>2026-05-01T06:25:50Z</time></trkpt><trkpt lat="47.25331282874598" lon="11.375590846452575"><ele>590.0</ele><time>2026-05-01T06:25:51Z</time></trkpt><trkpt lat="47.25325606816952" lon="11.375248701940924"><ele>587.5</ele><time>2026-05-01T06:25:52Z</time></trkpt><trkpt lat="47.25320259164854" lon="11.374910020039795"><ele>585.0</ele><time>2026-05-01T06:25:53Z</time></trkpt><trkpt lat="47.25314755656946" lon="11.374566061072406"><ele>593.0</ele><time>2026-05-01T06:25:54Z</time></trkpt><trkpt lat="47.25309428976493" lon="11.374234211211729"><ele>601.0</ele><time>2026-05-01T06:25:55Z</time></trkpt><trkpt lat="47.25303949494436" lon="11.373898267799326"><ele>594.0</ele><time>2026-05-01T06:25:56Z</time></trkpt><trkpt lat="47.25298269653015" lon="11.37356198688054"><ele>587.0</ele><time>2026-05-01T06:25:57Z</time></trkpt><trkpt lat="47.25292547299959" lon="11.373222468700659"><ele>583.5</ele><time>2026-05-01T06:25:58Z</time></trkpt><trkpt lat="47.252868570697444" lon="11.37288286345572"><ele>580.0</ele><time>2026-05-01T06:25:59Z</time></trkpt><trkpt lat="47.25281118781042" lon="11.37254258192568"><ele>580.0</ele><time>2026-05-01T06:26:00Z</time></trkpt><trkpt lat="47.25275153479537" lon="11.372202200588003"><ele>580.0</ele><time>2026-05-01T06:26:01Z</time></trkpt><trkpt lat="47.25269322204715" lon="11.371865314035409"><ele>579.5</ele><time>2026-05-01T06:26:02Z</time></trkpt><trkpt lat="47.25263387266068" lon="11.371525285024266"><ele>579.0</ele><time>2026-05-01T06:26:03Z</time></trkpt><trkpt lat="47.25257744385088" lon="11.371187242140657"><ele>579.0</ele><time>2026-05-01T06:26:04Z</time></trkpt><trkpt lat="47.25252115773309" lon="11.37084811125231"><ele>579.0</ele><time>2026-05-01T06:26:05Z</time></trkpt><trkpt lat="47.25247015288565" lon="11.370509985486024"><ele>579.0</ele><time>2026-05-01T06:26:06Z</time></trkpt><trkpt lat="47.2524249462249" lon="11.370171224421563"><ele>579.0</ele><time>2026-05-01T06:26:07Z</time></trkpt><trkpt lat="47.25238904143505" lon="11.369829850116316"><ele>579.5</ele><time>2026-05-01T06:26:08Z</time></trkpt><trkpt lat="47.252366311493375" lon="11.369485471998221"><ele>580.0</ele><time>2026-05-01T06:26:09Z</time></trkpt><trkpt lat="47.25236302574034" lon="11.369143078285425"><ele>579.0</ele><time>2026-05-01T06:26:10Z</time></trkpt><trkpt lat="47.25237098524335" lon="11.36879974002904"><ele>578.0</ele><time>2026-05-01T06:26:11Z</time></trkpt><trkpt lat="47.25239149712969" lon="11.368452404257246"><ele>578.0</ele><time>2026-05-01T06:26:12Z</time></trkpt><trkpt lat="47.252426312470384" lon="11.368105883177611"><ele>578.0</ele><time>2026-05-01T06:26:13Z</time></trkpt><trkpt lat="47.252471388018904" lon="11.367766191216221"><ele>577.5</ele><time>2026-05-01T06:26:14Z</time></trkpt><trkpt lat="47.25252838639861" lon="11.36742687158399"><ele>577.0</ele><time>2026-05-01T06:26:15Z</time></trkpt><trkpt lat="47.25259265765404" lon="11.367088910094342"><ele>576.5</ele><time>2026-05-01T06:26:16Z</time></trkpt><trkpt lat="47.25266425759375" lon="11.366755472021016"><ele>576.0</ele><time>2026-05-01T06:26:17Z</time></trkpt><trkpt lat="47.25273869343971" lon="11.366426105415258"><ele>576.5</ele><time>2026-05-01T06:26:18Z</time></trkpt><trkpt lat="47.252812730064505" lon="11.366100335997098"><ele>577.0</ele><time>2026-05-01T06:26:19Z</time></trkpt><trkpt lat="47.25288902699869" lon="11.365773850961398"><ele>578.0</ele><time>2026-05-01T06:26:20Z</time></trkpt><trkpt lat="47.2529683832844" lon="11.365444689148385"><ele>579.0</ele><time>2026-05-01T06:26:21Z</time></trkpt><trkpt lat="47.2530447629996" lon="11.365117998435093"><ele>579.0</ele><time>2026-05-01T06:26:22Z</time></trkpt><trkpt lat="47.25312029100266" lon="11.364794161126849"><ele>579.0</ele><time>2026-05-01T06:26:23Z</time></trkpt><trkpt lat="47.25319658437432" lon="11.364470427360995"><ele>579.0</ele><time>2026-05-01T06:26:24Z</time></trkpt><trkpt lat="47.253273448319156" lon="11.364146298832875"><ele>579.0</ele><time>2026-05-01T06:26:25Z</time></trkpt><trkpt lat="47.25334907960748" lon="11.363825308008874"><ele>577.5</ele><time>2026-05-01T06:26:26Z</time></trkpt><trkpt lat="47.2534256116815" lon="11.363500733981049"><ele>576.0</ele><time>2026-05-01T06:26:27Z</time></trkpt><trkpt lat="47.25350191899964" lon="11.363172523837111"><ele>577.5</ele><time>2026-05-01T06:26:28Z</time></trkpt><trkpt lat="47.25358034697709" lon="11.362844778679552"><ele>579.0</ele><time>2026-05-01T06:26:29Z</time></trkpt><trkpt lat="47.25365573796908" lon="11.362518402809295"><ele>579.0</ele><time>2026-05-01T06:26:30Z</time></trkpt><trkpt lat="47.25373081666092" lon="11.362185881067292"><ele>579.0</ele><time>2026-05-01T06:26:31Z</time></trkpt><trkpt lat="47.253804328263" lon="11.361852196513443"><ele>579.0</ele><time>2026-05-01T06:26:32Z</time></trkpt><trkpt lat="47.2538765036321" lon="11.361515702632083"><ele>579.0</ele><time>2026-05-01T06:26:33Z</time></trkpt><trkpt lat="47.25394681158938" lon="11.36117362186747"><ele>578.5</ele><time>2026-05-01T06:26:34Z</time></trkpt><trkpt lat="47.25401833878592" lon="11.360834038352934"><ele>578.0</ele><time>2026-05-01T06:26:35Z</time></trkpt><trkpt lat="47.2540847851836" lon="11.360491659063358"><ele>578.0</ele><time>2026-05-01T06:26:36Z</time></trkpt><trkpt lat="47.2541490506817" lon="11.3601471199184"><ele>578.0</ele><time>2026-05-01T06:26:37Z</time></trkpt><trkpt lat="47.254211226128604" lon="11.359800273224502"><ele>578.5</ele><time>2026-05-01T06:26:38Z</time></trkpt><trkpt lat="47.254268489472324" lon="11.359454942626872"><ele>579.0</ele><time>2026-05-01T06:26:39Z</time></trkpt><trkpt lat="47.254323107940955" lon="11.359108451380319"><ele>580.0</ele><time>2026-05-01T06:26:40Z</time></trkpt><trkpt lat="47.25436925363067" lon="11.358763856258363"><ele>581.0</ele><time>2026-05-01T06:26:41Z</time></trkpt><trkpt lat="47.254411540488704" lon="11.358418361288456"><ele>581.0</ele><time>2026-05-01T06:26:42Z</time></trkpt><trkpt lat="47.25444967206372" lon="11.358072895765007"><ele>581.0</ele><time>2026-05-01T06:26:43Z</time></trkpt><trkpt lat="47.25448420900046" lon="11.357725882946266"><ele>581.0</ele><time>2026-05-01T06:26:44Z</time></trkpt><trkpt lat="47.254514718779916" lon="11.357376233733879"><ele>581.0</ele><time>2026-05-01T06:26:45Z</time></trkpt><trkpt lat="47.25454064615102" lon="11.357028185145683"><ele>581.0</ele><time>2026-05-01T06:26:46Z</time></trkpt><trkpt lat="47.254560522771406" lon="11.356682424093611"><ele>581.0</ele><time>2026-05-01T06:26:47Z</time></trkpt><trkpt lat="47.254574183301706" lon="11.356330992288523"><ele>580.0</ele><time>2026-05-01T06:26:48Z</time></trkpt><trkpt lat="47.25458061875548" lon="11.35598432687191"><ele>579.0</ele><time>2026-05-01T06:26:49Z</time></trkpt><trkpt lat="47.25457995313221" lon="11.355639313062497"><ele>578.0</ele><time>2026-05-01T06:26:50Z</time></trkpt><trkpt lat="47.25457324205775" lon="11.355292914533289"><ele>577.0</ele><time>2026-05-01T06:26:51Z</time></trkpt><trkpt lat="47.25456149460222" lon="11.354944012242374"><ele>577.5</ele><time>2026-05-01T06:26:52Z</time></trkpt><trkpt lat="47.25454209561399" lon="11.354600011826333"><ele>578.0</ele><time>2026-05-01T06:26:53Z</time></trkpt><trkpt lat="47.25451532845662" lon="11.354254811820889"><ele>578.0</ele><time>2026-05-01T06:26:54Z</time></trkpt><trkpt lat="47.25448133044303" lon="11.353908684672286"><ele>578.0</ele><time>2026-05-01T06:26:55Z</time></trkpt><trkpt lat="47.254439254746806" lon="11.353562845010915"><ele>578.0</ele><time>2026-05-01T06:26:56Z</time></trkpt><trkpt lat="47.254390871358986" lon="11.353220478654865"><ele>578.0</ele><time>2026-05-01T06:26:57Z</time></trkpt><trkpt lat="47.25433584505815" lon="11.352881231997827"><ele>578.0</ele><time>2026-05-01T06:26:58Z</time></trkpt><trkpt lat="47.25427560866724" lon="11.352543835779132"><ele>578.0</ele><time>2026-05-01T06:26:59Z</time></trkpt><trkpt lat="47.25420872482134" lon="11.352206483649772"><ele>577.5</ele><time>2026-05-01T06:27:00Z</time></trkpt><trkpt lat="47.25413644596274" lon="11.351872434096785"><ele>577.0</ele><time>2026-05-01T06:27:01Z</time></trkpt><trkpt lat="47.2540589818581" lon="11.351539799598036"><ele>577.0</ele><time>2026-05-01T06:27:02Z</time></trkpt><trkpt lat="47.253976822721" lon="11.351207450287182"><ele>577.0</ele><time>2026-05-01T06:27:03Z</time></trkpt><trkpt lat="47.25389281916333" lon="11.35087824254288"><ele>578.0</ele><time>2026-05-01T06:27:04Z</time></trkpt><trkpt lat="47.253803158636764" lon="11.350548122115093"><ele>579.0</ele><time>2026-05-01T06:27:05Z</time></trkpt><trkpt lat="47.25371513136318" lon="11.350221008160371"><ele>579.0</ele><time>2026-05-01T06:27:06Z</time></trkpt><trkpt lat="47.25363066337811" lon="11.349910363518353"><ele>579.0</ele><time>2026-05-01T06:27:07Z</time></trkpt><trkpt lat="47.253545611378584" lon="11.349602363102596"><ele>579.0</ele><time>2026-05-01T06:27:08Z</time></trkpt><trkpt lat="47.25345367111935" lon="11.349290051699823"><ele>579.0</ele><time>2026-05-01T06:27:09Z</time></trkpt><trkpt lat="47.25336063189108" lon="11.348973684845806"><ele>579.5</ele><time>2026-05-01T06:27:10Z</time></trkpt><trkpt lat="47.25326751290266" lon="11.348658666452629"><ele>580.0</ele><time>2026-05-01T06:27:11Z</time></trkpt><trkpt lat="47.2531735960429" lon="11.34833884145111"><ele>579.5</ele><time>2026-05-01T06:27:12Z</time></trkpt><trkpt lat="47.25308171284551" lon="11.348017997172766"><ele>579.0</ele><time>2026-05-01T06:27:13Z</time></trkpt><trkpt lat="47.252990874126525" lon="11.347697005867674"><ele>579.0</ele><time>2026-05-01T06:27:14Z</time></trkpt><trkpt lat="47.252899735288615" lon="11.347374024048431"><ele>579.0</ele><time>2026-05-01T06:27:15Z</time></trkpt><trkpt lat="47.252812093123126" lon="11.347055807770007"><ele>579.0</ele><time>2026-05-01T06:27:16Z</time></trkpt><trkpt lat="47.25272462110048" lon="11.346734903811205"><ele>579.0</ele><time>2026-05-01T06:27:17Z</time></trkpt><trkpt lat="47.25263818241363" lon="11.346410735977853"><ele>578.0</ele><time>2026-05-01T06:27:18Z</time></trkpt><trkpt lat="47.25255595732111" lon="11.346083540755064"><ele>577.0</ele><time>2026-05-01T06:27:19Z</time></trkpt><trkpt lat="47.252479073259536" lon="11.345752062329819"><ele>575.5</ele><time>2026-05-01T06:27:20Z</time></trkpt><trkpt lat="47.25240721493575" lon="11.345416626087246"><ele>574.0</ele><time>2026-05-01T06:27:21Z</time></trkpt><trkpt lat="47.25234137200348" lon="11.345079492739785"><ele>582.0</ele><time>2026-05-01T06:27:22Z</time></trkpt><trkpt lat="47.25228624731397" lon="11.344742048619832"><ele>590.0</ele><time>2026-05-01T06:27:23Z</time></trkpt><trkpt lat="47.25223604306136" lon="11.34440418539475"><ele>590.0</ele><time>2026-05-01T06:27:24Z</time></trkpt><trkpt lat="47.25219194150541" lon="11.344065788102887"><ele>590.0</ele><time>2026-05-01T06:27:25Z</time></trkpt><trkpt lat="47.25215403892447" lon="11.343724731250749"><ele>588.0</ele><time>2026-05-01T06:27:26Z</time></trkpt><trkpt lat="47.252119882685854" lon="11.343382750329127"><ele>586.0</ele><time>2026-05-01T06:27:27Z</time></trkpt><trkpt lat="47.2520905980015" lon="11.343040335674065"><ele>586.0</ele><time>2026-05-01T06:27:28Z</time></trkpt><trkpt lat="47.25206920627848" lon="11.34269352675749"><ele>586.0</ele><time>2026-05-01T06:27:29Z</time></trkpt><trkpt lat="47.252055555376856" lon="11.342344255173789"><ele>587.5</ele><time>2026-05-01T06:27:30Z</time></trkpt><trkpt lat="47.25205412316522" lon="11.341995914796914"><ele>589.0</ele><time>2026-05-01T06:27:31Z</time></trkpt><trkpt lat="47.252061756896545" lon="11.34164670394089"><ele>592.0</ele><time>2026-05-01T06:27:32Z</time></trkpt><trkpt lat="47.25208252563449" lon="11.34129878492604"><ele>595.0</ele><time>2026-05-01T06:27:33Z</time></trkpt><trkpt lat="47.252115180821505" lon="11.340952426270428"><ele>595.0</ele><time>2026-05-01T06:27:34Z</time></trkpt><trkpt lat="47.25215997428524" lon="11.34061341386517"><ele>595.0</ele><time>2026-05-01T06:27:35Z</time></trkpt><trkpt lat="47.25221143007651" lon="11.34027006596849"><ele>594.5</ele><time>2026-05-01T06:27:36Z</time></trkpt><trkpt lat="47.25226570262618" lon="11.339927961896851"><ele>594.0</ele><time>2026-05-01T06:27:37Z</time></trkpt><trkpt lat="47.25232910598684" lon="11.339584810360831"><ele>587.0</ele><time>2026-05-01T06:27:38Z</time></trkpt><trkpt lat="47.25239590174473" lon="11.339243424053354"><ele>580.0</ele><time>2026-05-01T06:27:39Z</time></trkpt><trkpt lat="47.25246941358722" lon="11.338898843330583"><ele>581.0</ele><time>2026-05-01T06:27:40Z</time></trkpt><trkpt lat="47.252546560939216" lon="11.33855867697452"><ele>582.0</ele><time>2026-05-01T06:27:41Z</time></trkpt><trkpt lat="47.2526306433946" lon="11.338220988854065"><ele>582.5</ele><time>2026-05-01T06:27:42Z</time></trkpt><trkpt lat="47.25272195998563" lon="11.337893910780458"><ele>583.0</ele><time>2026-05-01T06:27:43Z</time></trkpt><trkpt lat="47.252816043898946" lon="11.337568253865326"><ele>583.0</ele><time>2026-05-01T06:27:44Z</time></trkpt><trkpt lat="47.25291491155848" lon="11.33724488795083"><ele>583.0</ele><time>2026-05-01T06:27:45Z</time></trkpt><trkpt lat="47.253016777165236" lon="11.33692341561267"><ele>583.0</ele><time>2026-05-01T06:27:46Z</time></trkpt><trkpt lat="47.25311748783077" lon="11.336607286810183"><ele>583.0</ele><time>2026-05-01T06:27:47Z</time></trkpt><trkpt lat="47.2532208755058" lon="11.336293446089329"><ele>583.0</ele><time>2026-05-01T06:27:48Z</time></trkpt><trkpt lat="47.25332621289485" lon="11.335980961601175"><ele>583.0</ele><time>2026-05-01T06:27:49Z</time></trkpt><trkpt lat="47.253432840401764" lon="11.335668575904036"><ele>584.0</ele><time>2026-05-01T06:27:50Z</time></trkpt><trkpt lat="47.253539432923944" lon="11.335355944026583"><ele>585.0</ele><time>2026-05-01T06:27:51Z</time></trkpt><trkpt lat="47.25364420677154" lon="11.33504423890501"><ele>585.0</ele><time>2026-05-01T06:27:52Z</time></trkpt><trkpt lat="47.25374928557012" lon="11.334732852904056"><ele>585.0</ele><time>2026-05-01T06:27:53Z</time></trkpt><trkpt lat="47.253856208964535" lon="11.33442352122682"><ele>584.5</ele><time>2026-05-01T06:27:54Z</time></trkpt><trkpt lat="47.25396454482129" lon="11.334114681110186"><ele>584.0</ele><time>2026-05-01T06:27:55Z</time></trkpt><trkpt lat="47.25407292202926" lon="11.333804168512811"><ele>583.5</ele><time>2026-05-01T06:27:56Z</time></trkpt><trkpt lat="47.25418182044078" lon="11.333491711006413"><ele>583.0</ele><time>2026-05-01T06:27:57Z</time></trkpt><trkpt lat="47.254289188220305" lon="11.333180867465975"><ele>582.5</ele><time>2026-05-01T06:27:58Z</time></trkpt><trkpt lat="47.25439912442335" lon="11.332870650198087"><ele>582.0</ele><time>2026-05-01T06:27:59Z</time></trkpt><trkpt lat="47.254507997460514" lon="11.332559998774036"><ele>582.0</ele><time>2026-05-01T06:28:00Z</time></trkpt><trkpt lat="47.25461696196126" lon="11.332247074057978"><ele>582.0</ele><time>2026-05-01T06:28:01Z</time></trkpt><trkpt lat="47.254724650776176" lon="11.331935317651528"><ele>581.5</ele><time>2026-05-01T06:28:02Z</time></trkpt><trkpt lat="47.25482925578437" lon="11.331632753486998"><ele>581.0</ele><time>2026-05-01T06:28:03Z</time></trkpt><trkpt lat="47.25493056562433" lon="11.331339720015"><ele>581.0</ele><time>2026-05-01T06:28:04Z</time></trkpt><trkpt lat="47.25503549919885" lon="11.331036238382143"><ele>581.0</ele><time>2026-05-01T06:28:05Z</time></trkpt><trkpt lat="47.25514189299581" lon="11.330731787432416"><ele>581.5</ele><time>2026-05-01T06:28:06Z</time></trkpt><trkpt lat="47.255250576701265" lon="11.330422707408399"><ele>582.0</ele><time>2026-05-01T06:28:07Z</time></trkpt><trkpt lat="47.25536224229502" lon="11.330109746238822"><ele>582.0</ele><time>2026-05-01T06:28:08Z</time></trkpt><trkpt lat="47.25547900642076" lon="11.329799586427548"><ele>582.0</ele><time>2026-05-01T06:28:09Z</time></trkpt><trkpt lat="47.255601205577314" lon="11.329489169415222"><ele>582.0</ele><time>2026-05-01T06:28:10Z</time></trkpt><trkpt lat="47.25572747649102" lon="11.32918090742533"><ele>582.0</ele><time>2026-05-01T06:28:11Z</time></trkpt><trkpt lat="47.255858296248114" lon="11.328879675409333"><ele>581.5</ele><time>2026-05-01T06:28:12Z</time></trkpt><trkpt lat="47.25599570446327" lon="11.328577996922133"><ele>581.0</ele><time>2026-05-01T06:28:13Z</time></trkpt><trkpt lat="47.2561379682233" lon="11.32829450682162"><ele>581.5</ele><time>2026-05-01T06:28:14Z</time></trkpt><trkpt lat="47.25628673992671" lon="11.328009558508525"><ele>582.0</ele><time>2026-05-01T06:28:15Z</time></trkpt><trkpt lat="47.256441311458005" lon="11.327735435852603"><ele>582.0</ele><time>2026-05-01T06:28:16Z</time></trkpt><trkpt lat="47.25660180690675" lon="11.327468841629607"><ele>582.0</ele><time>2026-05-01T06:28:17Z</time></trkpt><trkpt lat="47.25676719408867" lon="11.327211000677114"><ele>581.5</ele><time>2026-05-01T06:28:18Z</time></trkpt><trkpt lat="47.25693505794312" lon="11.326962746016466"><ele>581.0</ele><time>2026-05-01T06:28:19Z</time></trkpt><trkpt lat="47.25710485351566" lon="11.32671938842168"><ele>581.0</ele><time>2026-05-01T06:28:20Z</time></trkpt><trkpt lat="47.25728115527194" lon="11.326483775166164"><ele>581.0</ele><time>2026-05-01T06:28:21Z</time></trkpt><trkpt lat="47.257461521500886" lon="11.326255596565082"><ele>580.5</ele><time>2026-05-01T06:28:22Z</time></trkpt><trkpt lat="47.257645160708165" lon="11.32603647126563"><ele>580.0</ele><time>2026-05-01T06:28:23Z</time></trkpt><trkpt lat="47.25783237247976" lon="11.325825179030922"><ele>580.0</ele><time>2026-05-01T06:28:24Z</time></trkpt><trkpt lat="47.25802185614494" lon="11.325615906896783"><ele>580.0</ele><time>2026-05-01T06:28:25Z</time></trkpt><trkpt lat="47.25821373472051" lon="11.325409610175393"><ele>579.0</ele><time>2026-05-01T06:28:26Z</time></trkpt><trkpt lat="47.258403674764544" lon="11.325206110622677"><ele>578.0</ele><time>2026-05-01T06:28:27Z</time></trkpt><trkpt lat="47.258595652560466" lon="11.325004858255527"><ele>578.0</ele><time>2026-05-01T06:28:28Z</time></trkpt><trkpt lat="47.258788098688335" lon="11.324804030097443"><ele>578.0</ele><time>2026-05-01T06:28:29Z</time></trkpt><trkpt lat="47.25897958226685" lon="11.32460167372556"><ele>578.5</ele><time>2026-05-01T06:28:30Z</time></trkpt><trkpt lat="47.25917355512371" lon="11.324398962760053"><ele>579.0</ele><time>2026-05-01T06:28:31Z</time></trkpt><trkpt lat="47.259363952756516" lon="11.324199003729872"><ele>579.0</ele><time>2026-05-01T06:28:32Z</time></trkpt><trkpt lat="47.259556412429774" lon="11.323995858659265"><ele>579.0</ele><time>2026-05-01T06:28:33Z</time></trkpt><trkpt lat="47.259750221729" lon="11.323789772584167"><ele>580.0</ele><time>2026-05-01T06:28:34Z</time></trkpt><trkpt lat="47.25994264167202" lon="11.323587724633517"><ele>581.0</ele><time>2026-05-01T06:28:35Z</time></trkpt><trkpt lat="47.26013489873023" lon="11.323385438154107"><ele>581.0</ele><time>2026-05-01T06:28:36Z</time></trkpt><trkpt lat="47.26032779764808" lon="11.323178677400247"><ele>581.0</ele><time>2026-05-01T06:28:37Z</time></trkpt><trkpt lat="47.26051683524862" lon="11.322971778308355"><ele>582.5</ele><time>2026-05-01T06:28:38Z</time></trkpt><trkpt lat="47.26070852173775" lon="11.322760533888308"><ele>584.0</ele><time>2026-05-01T06:28:39Z</time></trkpt><trkpt lat="47.2608980773947" lon="11.32254704735881"><ele>584.0</ele><time>2026-05-01T06:28:40Z</time></trkpt><trkpt lat="47.26108347769588" lon="11.322325808638988"><ele>584.0</ele><time>2026-05-01T06:28:41Z</time></trkpt><trkpt lat="47.26126767982853" lon="11.322105912001696"><ele>583.0</ele><time>2026-05-01T06:28:42Z</time></trkpt><trkpt lat="47.261450984744776" lon="11.321879251896755"><ele>582.0</ele><time>2026-05-01T06:28:43Z</time></trkpt><trkpt lat="47.261632185692804" lon="11.321646896784593"><ele>582.0</ele><time>2026-05-01T06:28:44Z</time></trkpt><trkpt lat="47.26181316160998" lon="11.321406541857543"><ele>582.0</ele><time>2026-05-01T06:28:45Z</time></trkpt><trkpt lat="47.261985868548564" lon="11.321158441359037"><ele>582.0</ele><time>2026-05-01T06:28:46Z</time></trkpt><trkpt lat="47.262156138984004" lon="11.3208985935915"><ele>582.0</ele><time>2026-05-01T06:28:47Z</time></trkpt><trkpt lat="47.262317459271074" lon="11.320631713331045"><ele>581.5</ele><time>2026-05-01T06:28:48Z</time></trkpt><trkpt lat="47.26247261683535" lon="11.320358896007"><ele>581.0</ele><time>2026-05-01T06:28:49Z</time></trkpt><trkpt lat="47.262622610471716" lon="11.320079851233082"><ele>581.0</ele><time>2026-05-01T06:28:50Z</time></trkpt><trkpt lat="47.26276749382365" lon="11.319793031972718"><ele>581.0</ele><time>2026-05-01T06:28:51Z</time></trkpt><trkpt lat="47.262906971804405" lon="11.319500215978621"><ele>581.5</ele><time>2026-05-01T06:28:52Z</time></trkpt><trkpt lat="47.26304093177615" lon="11.319199793295542"><ele>582.0</ele><time>2026-05-01T06:28:53Z</time></trkpt><trkpt lat="47.26316847665592" lon="11.318894760426009"><ele>581.0</ele><time>2026-05-01T06:28:54Z</time></trkpt><trkpt lat="47.26329064094137" lon="11.31857932544386"><ele>580.0</ele><time>2026-05-01T06:28:55Z</time></trkpt><trkpt lat="47.26340894797987" lon="11.318259686944806"><ele>580.5</ele><time>2026-05-01T06:28:56Z</time></trkpt><trkpt lat="47.26351994190626" lon="11.317936662667961"><ele>581.0</ele><time>2026-05-01T06:28:57Z</time></trkpt><trkpt lat="47.263621731061384" lon="11.31761305228021"><ele>581.0</ele><time>2026-05-01T06:28:58Z</time></trkpt><trkpt lat="47.26371476728026" lon="11.317287928705625"><ele>581.0</ele><time>2026-05-01T06:28:59Z</time></trkpt><trkpt lat="47.263802868419184" lon="11.316953991884027"><ele>580.5</ele><time>2026-05-01T06:29:00Z</time></trkpt><trkpt lat="47.2638820627084" lon="11.316618093629852"><ele>580.0</ele><time>2026-05-01T06:29:01Z</time></trkpt><trkpt lat="47.26395349868486" lon="11.316278885588588"><ele>581.0</ele><time>2026-05-01T06:29:02Z</time></trkpt><trkpt lat="47.26401953826779" lon="11.31593434048057"><ele>582.0</ele><time>2026-05-01T06:29:03Z</time></trkpt><trkpt lat="47.26408081232336" lon="11.315589915562335"><ele>582.5</ele><time>2026-05-01T06:29:04Z</time></trkpt><trkpt lat="47.264137125694134" lon="11.31524987001051"><ele>583.0</ele><time>2026-05-01T06:29:05Z</time></trkpt><trkpt lat="47.264184410681075" lon="11.314903213269329"><ele>582.5</ele><time>2026-05-01T06:29:06Z</time></trkpt><trkpt lat="47.26422405140231" lon="11.31455580454016"><ele>582.0</ele><time>2026-05-01T06:29:07Z</time></trkpt><trkpt lat="47.264255739600706" lon="11.31420344901764"><ele>581.5</ele><time>2026-05-01T06:29:08Z</time></trkpt><trkpt lat="47.26427737657362" lon="11.313855810298238"><ele>581.0</ele><time>2026-05-01T06:29:09Z</time></trkpt><trkpt lat="47.26429336928486" lon="11.313503962968884"><ele>581.0</ele><time>2026-05-01T06:29:10Z</time></trkpt><trkpt lat="47.264303274158664" lon="11.313156688854459"><ele>581.0</ele><time>2026-05-01T06:29:11Z</time></trkpt><trkpt lat="47.26430566135055" lon="11.312808361704814"><ele>582.5</ele><time>2026-05-01T06:29:12Z</time></trkpt><trkpt lat="47.26430592153981" lon="11.312460382254809"><ele>584.0</ele><time>2026-05-01T06:29:13Z</time></trkpt><trkpt lat="47.26430193409794" lon="11.312111324588761"><ele>584.0</ele><time>2026-05-01T06:29:14Z</time></trkpt><trkpt lat="47.26429393538912" lon="11.31176319639186"><ele>584.0</ele><time>2026-05-01T06:29:15Z</time></trkpt><trkpt lat="47.26428256130271" lon="11.311412659952046"><ele>583.0</ele><time>2026-05-01T06:29:16Z</time></trkpt><trkpt lat="47.26426834074412" lon="11.311063596108395"><ele>582.0</ele><time>2026-05-01T06:29:17Z</time></trkpt><trkpt lat="47.26425136330496" lon="11.31071840226406"><ele>581.0</ele><time>2026-05-01T06:29:18Z</time></trkpt><trkpt lat="47.264230297182" lon="11.310372146404568"><ele>580.0</ele><time>2026-05-01T06:29:19Z</time></trkpt><trkpt lat="47.26420888558265" lon="11.310027434914037"><ele>580.0</ele><time>2026-05-01T06:29:20Z</time></trkpt><trkpt lat="47.26418406517085" lon="11.309680388591364"><ele>580.0</ele><time>2026-05-01T06:29:21Z</time></trkpt><trkpt lat="47.264158838092285" lon="11.309332693714422"><ele>580.0</ele><time>2026-05-01T06:29:22Z</time></trkpt><trkpt lat="47.264134986342555" lon="11.308986752266572"><ele>580.0</ele><time>2026-05-01T06:29:23Z</time></trkpt><trkpt lat="47.264109626213745" lon="11.30864047526355"><ele>580.5</ele><time>2026-05-01T06:29:24Z</time></trkpt><trkpt lat="47.26408335472417" lon="11.308294333326051"><ele>581.0</ele><time>2026-05-01T06:29:25Z</time></trkpt><trkpt lat="47.26405539437042" lon="11.307949600348445"><ele>582.0</ele><time>2026-05-01T06:29:26Z</time></trkpt><trkpt lat="47.26403021301542" lon="11.307603206109773"><ele>583.0</ele><time>2026-05-01T06:29:27Z</time></trkpt><trkpt lat="47.26400445385609" lon="11.307266048382578"><ele>584.0</ele><time>2026-05-01T06:29:28Z</time></trkpt><trkpt lat="47.26397751246357" lon="11.306940287626176"><ele>585.0</ele><time>2026-05-01T06:29:29Z</time></trkpt><trkpt lat="47.26395391328765" lon="11.30660398648334"><ele>584.5</ele><time>2026-05-01T06:29:30Z</time></trkpt><trkpt lat="47.26392490946805" lon="11.306261763930396"><ele>584.0</ele><time>2026-05-01T06:29:31Z</time></trkpt><trkpt lat="47.263893576902944" lon="11.305916449484068"><ele>583.0</ele><time>2026-05-01T06:29:32Z</time></trkpt><trkpt lat="47.26386546164699" lon="11.305568672851605"><ele>582.0</ele><time>2026-05-01T06:29:33Z</time></trkpt><trkpt lat="47.263839539045364" lon="11.305214250841946"><ele>582.0</ele><time>2026-05-01T06:29:34Z</time></trkpt><trkpt lat="47.26381522026904" lon="11.304862165156386"><ele>582.0</ele><time>2026-05-01T06:29:35Z</time></trkpt><trkpt lat="47.263791152989654" lon="11.30451117093479"><ele>581.5</ele><time>2026-05-01T06:29:36Z</time></trkpt><trkpt lat="47.26376597893604" lon="11.304162128480177"><ele>581.0</ele><time>2026-05-01T06:29:37Z</time></trkpt><trkpt lat="47.26374063903668" lon="11.303811395339462"><ele>582.0</ele><time>2026-05-01T06:29:38Z</time></trkpt><trkpt lat="47.26371588147849" lon="11.30346355017556"><ele>583.0</ele><time>2026-05-01T06:29:39Z</time></trkpt><trkpt lat="47.263691406240284" lon="11.303114143623823"><ele>583.0</ele><time>2026-05-01T06:29:40Z</time></trkpt><trkpt lat="47.26366806416309" lon="11.302765025008878"><ele>583.0</ele><time>2026-05-01T06:29:41Z</time></trkpt><trkpt lat="47.263644082829536" lon="11.302418574349325"><ele>583.5</ele><time>2026-05-01T06:29:42Z</time></trkpt><trkpt lat="47.26362048047625" lon="11.302070515247333"><ele>584.0</ele><time>2026-05-01T06:29:43Z</time></trkpt><trkpt lat="47.26359578469509" lon="11.301725684128668"><ele>585.0</ele><time>2026-05-01T06:29:44Z</time></trkpt><trkpt lat="47.26357188153315" lon="11.301378190482842"><ele>586.0</ele><time>2026-05-01T06:29:45Z</time></trkpt><trkpt lat="47.263547234424514" lon="11.301030121508774"><ele>586.0</ele><time>2026-05-01T06:29:46Z</time></trkpt><trkpt lat="47.26352101103319" lon="11.300686143965926"><ele>586.0</ele><time>2026-05-01T06:29:47Z</time></trkpt><trkpt lat="47.263494368954646" lon="11.30034399757455"><ele>586.0</ele><time>2026-05-01T06:29:48Z</time></trkpt><trkpt lat="47.263468095852375" lon="11.299997805715655"><ele>586.0</ele><time>2026-05-01T06:29:49Z</time></trkpt><trkpt lat="47.2634418127161" lon="11.299652817279044"><ele>586.0</ele><time>2026-05-01T06:29:50Z</time></trkpt><trkpt lat="47.26341528475291" lon="11.299305788700483"><ele>586.0</ele><time>2026-05-01T06:29:51Z</time></trkpt><trkpt lat="47.26339001525731" lon="11.29895991554853"><ele>585.0</ele><time>2026-05-01T06:29:52Z</time></trkpt><trkpt lat="47.26336469442532" lon="11.29861062954871"><ele>584.0</ele><time>2026-05-01T06:29:53Z</time></trkpt><trkpt lat="47.26333884692904" lon="11.298257741427552"><ele>583.5</ele><time>2026-05-01T06:29:54Z</time></trkpt><trkpt lat="47.263313636778705" lon="11.297903845495405"><ele>583.0</ele><time>2026-05-01T06:29:55Z</time></trkpt><trkpt lat="47.26328611604087" lon="11.297553220965987"><ele>584.0</ele><time>2026-05-01T06:29:56Z</time></trkpt><trkpt lat="47.26325952477633" lon="11.297201637853117"><ele>585.0</ele><time>2026-05-01T06:29:57Z</time></trkpt><trkpt lat="47.263234178245405" lon="11.296849170100828"><ele>585.0</ele><time>2026-05-01T06:29:58Z</time></trkpt><trkpt lat="47.26320881361347" lon="11.29649623040792"><ele>585.0</ele><time>2026-05-01T06:29:59Z</time></trkpt><trkpt lat="47.263183939222635" lon="11.296143415535846"><ele>584.5</ele><time>2026-05-01T06:30:00Z</time></trkpt><trkpt lat="47.263157996345846" lon="11.295787412734283"><ele>584.0</ele><time>2026-05-01T06:30:01Z</time></trkpt><trkpt lat="47.2631345366478" lon="11.295434802458454"><ele>584.0</ele><time>2026-05-01T06:30:02Z</time></trkpt><trkpt lat="47.26311133137466" lon="11.295079767928721"><ele>584.0</ele><time>2026-05-01T06:30:03Z</time></trkpt><trkpt lat="47.26308872751819" lon="11.294722594531029"><ele>583.5</ele><time>2026-05-01T06:30:04Z</time></trkpt><trkpt lat="47.26306740783988" lon="11.294363563837608"><ele>583.0</ele><time>2026-05-01T06:30:05Z</time></trkpt><trkpt lat="47.26304484195219" lon="11.294000472608884"><ele>584.5</ele><time>2026-05-01T06:30:06Z</time></trkpt><trkpt lat="47.26302729764962" lon="11.293636554347644"><ele>586.0</ele><time>2026-05-01T06:30:07Z</time></trkpt><trkpt lat="47.26301492364295" lon="11.29327325281352"><ele>585.0</ele><time>2026-05-01T06:30:08Z</time></trkpt><trkpt lat="47.26301108303012" lon="11.292916114526385"><ele>584.0</ele><time>2026-05-01T06:30:09Z</time></trkpt><trkpt lat="47.263010337825996" lon="11.292566090449895"><ele>584.5</ele><time>2026-05-01T06:30:10Z</time></trkpt><trkpt lat="47.263011733127975" lon="11.29221386975636"><ele>585.0</ele><time>2026-05-01T06:30:11Z</time></trkpt><trkpt lat="47.26302109640093" lon="11.291863117822011"><ele>585.0</ele><time>2026-05-01T06:30:12Z</time></trkpt><trkpt lat="47.26303608945956" lon="11.291515063718178"><ele>585.0</ele><time>2026-05-01T06:30:13Z</time></trkpt><trkpt lat="47.263055295092286" lon="11.291166985733108"><ele>586.0</ele><time>2026-05-01T06:30:14Z</time></trkpt><trkpt lat="47.2630816764843" lon="11.290822461005773"><ele>587.0</ele><time>2026-05-01T06:30:15Z</time></trkpt><trkpt lat="47.26311166423621" lon="11.29047891649825"><ele>587.5</ele><time>2026-05-01T06:30:16Z</time></trkpt><trkpt lat="47.26314891673846" lon="11.290144569018661"><ele>588.0</ele><time>2026-05-01T06:30:17Z</time></trkpt><trkpt lat="47.26319103876607" lon="11.289809107435612"><ele>588.0</ele><time>2026-05-01T06:30:18Z</time></trkpt><trkpt lat="47.26324014453539" lon="11.289480365758104"><ele>588.0</ele><time>2026-05-01T06:30:19Z</time></trkpt><trkpt lat="47.263292812276795" lon="11.289150923927439"><ele>587.5</ele><time>2026-05-01T06:30:20Z</time></trkpt><trkpt lat="47.26335195752003" lon="11.288825011154348"><ele>587.0</ele><time>2026-05-01T06:30:21Z</time></trkpt><trkpt lat="47.26341591905539" lon="11.288499557098513"><ele>587.0</ele><time>2026-05-01T06:30:22Z</time></trkpt><trkpt lat="47.26348178729753" lon="11.288180375696198"><ele>587.0</ele><time>2026-05-01T06:30:23Z</time></trkpt><trkpt lat="47.26355333015227" lon="11.287862985337263"><ele>586.0</ele><time>2026-05-01T06:30:24Z</time></trkpt><trkpt lat="47.26363128856126" lon="11.287548545151703"><ele>585.0</ele><time>2026-05-01T06:30:25Z</time></trkpt><trkpt lat="47.26371640015551" lon="11.287230851195678"><ele>584.5</ele><time>2026-05-01T06:30:26Z</time></trkpt><trkpt lat="47.263806394792894" lon="11.286917426149678"><ele>584.0</ele><time>2026-05-01T06:30:27Z</time></trkpt><trkpt lat="47.26389749291537" lon="11.286603812494814"><ele>585.5</ele><time>2026-05-01T06:30:28Z</time></trkpt><trkpt lat="47.26399220045409" lon="11.28628786658513"><ele>587.0</ele><time>2026-05-01T06:30:29Z</time></trkpt><trkpt lat="47.264084600561006" lon="11.28597583817395"><ele>587.0</ele><time>2026-05-01T06:30:30Z</time></trkpt><trkpt lat="47.26418045990931" lon="11.285662504680907"><ele>587.0</ele><time>2026-05-01T06:30:31Z</time></trkpt><trkpt lat="47.26428205484955" lon="11.285362872687333"><ele>587.5</ele><time>2026-05-01T06:30:32Z</time></trkpt><trkpt lat="47.264375483784065" lon="11.28506571889761"><ele>588.0</ele><time>2026-05-01T06:30:33Z</time></trkpt><trkpt lat="47.264477728007385" lon="11.28476180027374"><ele>587.0</ele><time>2026-05-01T06:30:34Z</time></trkpt><trkpt lat="47.264575011492816" lon="11.28445901546265"><ele>586.0</ele><time>2026-05-01T06:30:35Z</time></trkpt><trkpt lat="47.26467267107954" lon="11.284151146873329"><ele>584.5</ele><time>2026-05-01T06:30:36Z</time></trkpt><trkpt lat="47.26476424278851" lon="11.283840188601035"><ele>583.0</ele><time>2026-05-01T06:30:37Z</time></trkpt><trkpt lat="47.26485515769251" lon="11.28352422177473"><ele>585.5</ele><time>2026-05-01T06:30:38Z</time></trkpt><trkpt lat="47.26493660373234" lon="11.283207300914091"><ele>588.0</ele><time>2026-05-01T06:30:39Z</time></trkpt><trkpt lat="47.265017969225134" lon="11.282888265470147"><ele>588.0</ele><time>2026-05-01T06:30:40Z</time></trkpt><trkpt lat="47.26509054710635" lon="11.282567547287242"><ele>588.0</ele><time>2026-05-01T06:30:41Z</time></trkpt><trkpt lat="47.26515701340342" lon="11.282244894438099"><ele>587.5</ele><time>2026-05-01T06:30:42Z</time></trkpt><trkpt lat="47.26521956401354" lon="11.281922972814014"><ele>587.0</ele><time>2026-05-01T06:30:43Z</time></trkpt><trkpt lat="47.26527604956654" lon="11.281602018105048"><ele>587.6666666666666</ele><time>2026-05-01T06:30:44Z</time></trkpt><trkpt lat="47.26532612798376" lon="11.281281953976816"><ele>588.3333333333334</ele><time>2026-05-01T06:30:45Z</time></trkpt><trkpt lat="47.26536825822205" lon="11.280959648139897"><ele>589.0</ele><time>2026-05-01T06:30:46Z</time></trkpt><trkpt lat="47.265404426360746" lon="11.280635985806096"><ele>589.0</ele><time>2026-05-01T06:30:47Z</time></trkpt><trkpt lat="47.265436281790315" lon="11.280310221952657"><ele>589.0</ele><time>2026-05-01T06:30:48Z</time></trkpt><trkpt lat="47.26546184762548" lon="11.279982109680784"><ele>589.0</ele><time>2026-05-01T06:30:49Z</time></trkpt><trkpt lat="47.265488214209476" lon="11.279657211130264"><ele>589.0</ele><time>2026-05-01T06:30:50Z</time></trkpt><trkpt lat="47.26550488158842" lon="11.279326437887356"><ele>589.0</ele><time>2026-05-01T06:30:51Z</time></trkpt><trkpt lat="47.265516993514154" lon="11.278998577922577"><ele>589.0</ele><time>2026-05-01T06:30:52Z</time></trkpt><trkpt lat="47.2655218273782" lon="11.278670800784939"><ele>588.6666666666667</ele><time>2026-05-01T06:30:53Z</time></trkpt><trkpt lat="47.26552139966797" lon="11.27834268949122"><ele>588.3333333333334</ele><time>2026-05-01T06:30:54Z</time></trkpt><trkpt lat="47.26551772601106" lon="11.278013881399776"><ele>588.0</ele><time>2026-05-01T06:30:55Z</time></trkpt><trkpt lat="47.265509635321884" lon="11.277682868760868"><ele>587.3333333333334</ele><time>2026-05-01T06:30:56Z</time></trkpt><trkpt lat="47.2654993495954" lon="11.277354533015089"><ele>586.6666666666667</ele><time>2026-05-01T06:30:57Z</time></trkpt><trkpt lat="47.2654868042758" lon="11.277028379185928"><ele>586.0</ele><time>2026-05-01T06:30:58Z</time></trkpt><trkpt lat="47.265466836857435" lon="11.27669950832519"><ele>586.5</ele><time>2026-05-01T06:30:59Z</time></trkpt><trkpt lat="47.26544507563786" lon="11.276370411424393"><ele>587.0</ele><time>2026-05-01T06:31:00Z</time></trkpt><trkpt lat="47.26542025711626" lon="11.276038025932532"><ele>587.0</ele><time>2026-05-01T06:31:01Z</time></trkpt><trkpt lat="47.2653977559556" lon="11.275708372081143"><ele>587.0</ele><time>2026-05-01T06:31:02Z</time></trkpt><trkpt lat="47.26537193872219" lon="11.275374796765934"><ele>586.5</ele><time>2026-05-01T06:31:03Z</time></trkpt><trkpt lat="47.2653429592802" lon="11.275039531861086"><ele>586.0</ele><time>2026-05-01T06:31:04Z</time></trkpt><trkpt lat="47.26531425814301" lon="11.274701603623603"><ele>587.5</ele><time>2026-05-01T06:31:05Z</time></trkpt><trkpt lat="47.26528392643582" lon="11.274364882621818"><ele>589.0</ele><time>2026-05-01T06:31:06Z</time></trkpt><trkpt lat="47.265250172983926" lon="11.27402861501583"><ele>589.0</ele><time>2026-05-01T06:31:07Z</time></trkpt><trkpt lat="47.26521818462509" lon="11.273689347707402"><ele>589.0</ele><time>2026-05-01T06:31:08Z</time></trkpt><trkpt lat="47.26519266939913" lon="11.273350592656616"><ele>589.5</ele><time>2026-05-01T06:31:09Z</time></trkpt><trkpt lat="47.26516893705857" lon="11.273008954347981"><ele>590.0</ele><time>2026-05-01T06:31:10Z</time></trkpt><trkpt lat="47.26514487385667" lon="11.272665591120433"><ele>590.0</ele><time>2026-05-01T06:31:11Z</time></trkpt><trkpt lat="47.26512027992576" lon="11.272318495899324"><ele>590.0</ele><time>2026-05-01T06:31:12Z</time></trkpt><trkpt lat="47.26509505078688" lon="11.271974813580568"><ele>590.5</ele><time>2026-05-01T06:31:13Z</time></trkpt><trkpt lat="47.26507152308349" lon="11.2716339520642"><ele>591.0</ele><time>2026-05-01T06:31:14Z</time></trkpt><trkpt lat="47.26505081688108" lon="11.271293104000007"><ele>591.0</ele><time>2026-05-01T06:31:15Z</time></trkpt><trkpt lat="47.26503354021234" lon="11.270951600764432"><ele>591.0</ele><time>2026-05-01T06:31:16Z</time></trkpt><trkpt lat="47.265020286955775" lon="11.270608794946835"><ele>591.5</ele><time>2026-05-01T06:31:17Z</time></trkpt><trkpt lat="47.26501329530008" lon="11.27026705395421"><ele>592.0</ele><time>2026-05-01T06:31:18Z</time></trkpt><trkpt lat="47.26500629048712" lon="11.26992253548179"><ele>592.5</ele><time>2026-05-01T06:31:19Z</time></trkpt><trkpt lat="47.26500168009933" lon="11.26957893094956"><ele>593.0</ele><time>2026-05-01T06:31:20Z</time></trkpt><trkpt lat="47.264999331789284" lon="11.269235419004742"><ele>593.5</ele><time>2026-05-01T06:31:21Z</time></trkpt><trkpt lat="47.26500034947491" lon="11.268891935292743"><ele>594.0</ele><time>2026-05-01T06:31:22Z</time></trkpt><trkpt lat="47.26500449681754" lon="11.268549356361797"><ele>594.0</ele><time>2026-05-01T06:31:23Z</time></trkpt><trkpt lat="47.26501014263301" lon="11.268208881026741"><ele>594.0</ele><time>2026-05-01T06:31:24Z</time></trkpt><trkpt lat="47.2650181283703" lon="11.267870307320782"><ele>592.5</ele><time>2026-05-01T06:31:25Z</time></trkpt><trkpt lat="47.26502803790284" lon="11.26752914416632"><ele>591.0</ele><time>2026-05-01T06:31:26Z</time></trkpt><trkpt lat="47.26503684057258" lon="11.267188470384394"><ele>591.0</ele><time>2026-05-01T06:31:27Z</time></trkpt><trkpt lat="47.2650454470325" lon="11.26684493323201"><ele>591.0</ele><time>2026-05-01T06:31:28Z</time></trkpt><trkpt lat="47.265053881022375" lon="11.266497755385997"><ele>591.0</ele><time>2026-05-01T06:31:29Z</time></trkpt><trkpt lat="47.265062345281414" lon="11.266151190672726"><ele>591.0</ele><time>2026-05-01T06:31:30Z</time></trkpt><trkpt lat="47.26507080933407" lon="11.265803157334322"><ele>591.5</ele><time>2026-05-01T06:31:31Z</time></trkpt><trkpt lat="47.26507891074853" lon="11.26545440829413"><ele>592.0</ele><time>2026-05-01T06:31:32Z</time></trkpt><trkpt lat="47.26508655983816" lon="11.265102305222088"><ele>592.5</ele><time>2026-05-01T06:31:33Z</time></trkpt><trkpt lat="47.26509176974069" lon="11.264748936183175"><ele>593.0</ele><time>2026-05-01T06:31:34Z</time></trkpt><trkpt lat="47.26509423213971" lon="11.264395863061639"><ele>593.0</ele><time>2026-05-01T06:31:35Z</time></trkpt><trkpt lat="47.26509364446742" lon="11.264042288594325"><ele>593.0</ele><time>2026-05-01T06:31:36Z</time></trkpt><trkpt lat="47.265092263486636" lon="11.263693084658636"><ele>592.5</ele><time>2026-05-01T06:31:37Z</time></trkpt><trkpt lat="47.26508743185059" lon="11.263342615424653"><ele>592.0</ele><time>2026-05-01T06:31:38Z</time></trkpt><trkpt lat="47.2650797836995" lon="11.26299256652695"><ele>593.0</ele><time>2026-05-01T06:31:39Z</time></trkpt><trkpt lat="47.265068316804374" lon="11.262644124196562"><ele>594.0</ele><time>2026-05-01T06:31:40Z</time></trkpt><trkpt lat="47.26505205381892" lon="11.262298210409595"><ele>595.5</ele><time>2026-05-01T06:31:41Z</time></trkpt><trkpt lat="47.265032349708996" lon="11.261952639211422"><ele>597.0</ele><time>2026-05-01T06:31:42Z</time></trkpt><trkpt lat="47.26500632273464" lon="11.261609424828052"><ele>596.5</ele><time>2026-05-01T06:31:43Z</time></trkpt><trkpt lat="47.26497538421578" lon="11.261269732893943"><ele>596.0</ele><time>2026-05-01T06:31:44Z</time></trkpt><trkpt lat="47.264938463331625" lon="11.260931981260269"><ele>597.0</ele><time>2026-05-01T06:31:45Z</time></trkpt><trkpt lat="47.26489883151893" lon="11.260592732925293"><ele>598.0</ele><time>2026-05-01T06:31:46Z</time></trkpt><trkpt lat="47.264852558637315" lon="11.260246724410807"><ele>598.0</ele><time>2026-05-01T06:31:47Z</time></trkpt><trkpt lat="47.26480240523238" lon="11.25990563822976"><ele>598.0</ele><time>2026-05-01T06:31:48Z</time></trkpt><trkpt lat="47.26474909186342" lon="11.259566373448306"><ele>596.0</ele><time>2026-05-01T06:31:49Z</time></trkpt><trkpt lat="47.264693414269765" lon="11.259230418928842"><ele>594.0</ele><time>2026-05-01T06:31:50Z</time></trkpt><trkpt lat="47.26463233972391" lon="11.25889658411562"><ele>594.0</ele><time>2026-05-01T06:31:51Z</time></trkpt><trkpt lat="47.2645658042407" lon="11.258565856410742"><ele>594.0</ele><time>2026-05-01T06:31:52Z</time></trkpt><trkpt lat="47.264495535195316" lon="11.258234624573861"><ele>594.5</ele><time>2026-05-01T06:31:53Z</time></trkpt><trkpt lat="47.26442195808814" lon="11.257909367952712"><ele>595.0</ele><time>2026-05-01T06:31:54Z</time></trkpt><trkpt lat="47.264344385065975" lon="11.257586257303817"><ele>596.0</ele><time>2026-05-01T06:31:55Z</time></trkpt><trkpt lat="47.264262698281065" lon="11.25726621052836"><ele>597.0</ele><time>2026-05-01T06:31:56Z</time></trkpt><trkpt lat="47.26417573159936" lon="11.256943788238491"><ele>597.0</ele><time>2026-05-01T06:31:57Z</time></trkpt><trkpt lat="47.26408645690076" lon="11.256623964447744"><ele>597.0</ele><time>2026-05-01T06:31:58Z</time></trkpt><trkpt lat="47.263992411708934" lon="11.25630522537216"><ele>593.5</ele><time>2026-05-01T06:31:59Z</time></trkpt><trkpt lat="47.2638959645853" lon="11.25598987371615"><ele>590.0</ele><time>2026-05-01T06:32:00Z</time></trkpt><trkpt lat="47.26379547661574" lon="11.255679651496402"><ele>591.6666666666666</ele><time>2026-05-01T06:32:01Z</time></trkpt><trkpt lat="47.263696209485694" lon="11.255384681590575"><ele>593.3333333333334</ele><time>2026-05-01T06:32:02Z</time></trkpt><trkpt lat="47.2635913070886" lon="11.255093126639165"><ele>595.0</ele><time>2026-05-01T06:32:03Z</time></trkpt><trkpt lat="47.26348513977188" lon="11.254798933806134"><ele>597.0</ele><time>2026-05-01T06:32:04Z</time></trkpt><trkpt lat="47.26337713929261" lon="11.254503999568158"><ele>599.0</ele><time>2026-05-01T06:32:05Z</time></trkpt><trkpt lat="47.263269134482" lon="11.25420626546035"><ele>598.5</ele><time>2026-05-01T06:32:06Z</time></trkpt><trkpt lat="47.263158104345415" lon="11.253907410778044"><ele>598.0</ele><time>2026-05-01T06:32:07Z</time></trkpt><trkpt lat="47.263046177118994" lon="11.25360839829164"><ele>597.0</ele><time>2026-05-01T06:32:08Z</time></trkpt><trkpt lat="47.26293582382134" lon="11.253309314383511"><ele>596.0</ele><time>2026-05-01T06:32:09Z</time></trkpt><trkpt lat="47.26282834849423" lon="11.253011059634499"><ele>596.0</ele><time>2026-05-01T06:32:10Z</time></trkpt><trkpt lat="47.26272042491957" lon="11.252709311659116"><ele>596.0</ele><time>2026-05-01T06:32:11Z</time></trkpt><trkpt lat="47.262617793249646" lon="11.252407641271892"><ele>595.5</ele><time>2026-05-01T06:32:12Z</time></trkpt><trkpt lat="47.262516436229284" lon="11.252105214687129"><ele>595.0</ele><time>2026-05-01T06:32:13Z</time></trkpt><trkpt lat="47.26241832814665" lon="11.251801919182096"><ele>595.0</ele><time>2026-05-01T06:32:14Z</time></trkpt><trkpt lat="47.26232297048784" lon="11.251496827625422"><ele>595.0</ele><time>2026-05-01T06:32:15Z</time></trkpt><trkpt lat="47.26223137356994" lon="11.251188162151754"><ele>593.0</ele><time>2026-05-01T06:32:16Z</time></trkpt><trkpt lat="47.26214492150176" lon="11.250876442515905"><ele>591.0</ele><time>2026-05-01T06:32:17Z</time></trkpt><trkpt lat="47.26206711285335" lon="11.250560445593369"><ele>590.6666666666666</ele><time>2026-05-01T06:32:18Z</time></trkpt><trkpt lat="47.26199688693887" lon="11.250244926936482"><ele>590.3333333333333</ele><time>2026-05-01T06:32:19Z</time></trkpt><trkpt lat="47.26193418527763" lon="11.249929974758263"><ele>590.0</ele><time>2026-05-01T06:32:20Z</time></trkpt><trkpt lat="47.26187609587148" lon="11.24961123216542"><ele>590.3333333333333</ele><time>2026-05-01T06:32:21Z</time></trkpt><trkpt lat="47.26182490221197" lon="11.249292983131276"><ele>590.6666666666666</ele><time>2026-05-01T06:32:22Z</time></trkpt><trkpt lat="47.2617788572559" lon="11.248973653982246"><ele>591.0</ele><time>2026-05-01T06:32:23Z</time></trkpt><trkpt lat="47.26173647028305" lon="11.248651362122448"><ele>591.0</ele><time>2026-05-01T06:32:24Z</time></trkpt><trkpt lat="47.261703125696336" lon="11.248324954585955"><ele>591.0</ele><time>2026-05-01T06:32:25Z</time></trkpt><trkpt lat="47.26167404066483" lon="11.247997501098471"><ele>591.0</ele><time>2026-05-01T06:32:26Z</time></trkpt><trkpt lat="47.26165238526997" lon="11.24766750654711"><ele>591.5</ele><time>2026-05-01T06:32:27Z</time></trkpt><trkpt lat="47.26163634435493" lon="11.24733641627836"><ele>592.0</ele><time>2026-05-01T06:32:28Z</time></trkpt><trkpt lat="47.261630191081174" lon="11.247004405815575"><ele>592.0</ele><time>2026-05-01T06:32:29Z</time></trkpt><trkpt lat="47.261628949156396" lon="11.24667034790088"><ele>592.0</ele><time>2026-05-01T06:32:30Z</time></trkpt><trkpt lat="47.26163226281235" lon="11.246336850127102"><ele>592.0</ele><time>2026-05-01T06:32:31Z</time></trkpt><trkpt lat="47.26164154395121" lon="11.24600148496855"><ele>592.0</ele><time>2026-05-01T06:32:32Z</time></trkpt><trkpt lat="47.26166103424362" lon="11.245667801860655"><ele>593.0</ele><time>2026-05-01T06:32:33Z</time></trkpt><trkpt lat="47.261685975339894" lon="11.245334670365517"><ele>594.0</ele><time>2026-05-01T06:32:34Z</time></trkpt><trkpt lat="47.26171576530319" lon="11.245002271331028"><ele>593.0</ele><time>2026-05-01T06:32:35Z</time></trkpt><trkpt lat="47.26175117020866" lon="11.244670203532287"><ele>592.0</ele><time>2026-05-01T06:32:36Z</time></trkpt><trkpt lat="47.26179267586095" lon="11.24434040412937"><ele>592.0</ele><time>2026-05-01T06:32:37Z</time></trkpt><trkpt lat="47.26184214016141" lon="11.244011261022443"><ele>592.0</ele><time>2026-05-01T06:32:38Z</time></trkpt><trkpt lat="47.261897072632" lon="11.243678642383163"><ele>593.0</ele><time>2026-05-01T06:32:39Z</time></trkpt><trkpt lat="47.26195820150967" lon="11.243344712048959"><ele>594.0</ele><time>2026-05-01T06:32:40Z</time></trkpt><trkpt lat="47.26201948196267" lon="11.243010429408992"><ele>598.0</ele><time>2026-05-01T06:32:41Z</time></trkpt><trkpt lat="47.262085487323304" lon="11.242675450257124"><ele>602.0</ele><time>2026-05-01T06:32:42Z</time></trkpt><trkpt lat="47.26215499605325" lon="11.242341505181868"><ele>603.5</ele><time>2026-05-01T06:32:43Z</time></trkpt><trkpt lat="47.2622292857473" lon="11.242008225417946"><ele>605.0</ele><time>2026-05-01T06:32:44Z</time></trkpt><trkpt lat="47.26230578575687" lon="11.241690482344106"><ele>599.5</ele><time>2026-05-01T06:32:45Z</time></trkpt><trkpt lat="47.26238185406396" lon="11.24136913199091"><ele>594.0</ele><time>2026-05-01T06:32:46Z</time></trkpt><trkpt lat="47.26246707040018" lon="11.241043562686604"><ele>594.0</ele><time>2026-05-01T06:32:47Z</time></trkpt><trkpt lat="47.26255767196229" lon="11.240713967291228"><ele>594.0</ele><time>2026-05-01T06:32:48Z</time></trkpt><trkpt lat="47.26265284474574" lon="11.24038468677482"><ele>595.0</ele><time>2026-05-01T06:32:49Z</time></trkpt><trkpt lat="47.262749200257524" lon="11.240056019741743"><ele>596.0</ele><time>2026-05-01T06:32:50Z</time></trkpt><trkpt lat="47.26284996993671" lon="11.239733090153722"><ele>596.5</ele><time>2026-05-01T06:32:51Z</time></trkpt><trkpt lat="47.262953406492095" lon="11.239418907418735"><ele>597.0</ele><time>2026-05-01T06:32:52Z</time></trkpt><trkpt lat="47.263058777219854" lon="11.239112906247568"><ele>597.5</ele><time>2026-05-01T06:32:53Z</time></trkpt><trkpt lat="47.26316682040046" lon="11.238815343932592"><ele>598.0</ele><time>2026-05-01T06:32:54Z</time></trkpt><trkpt lat="47.26327941171916" lon="11.238520069963274"><ele>598.0</ele><time>2026-05-01T06:32:55Z</time></trkpt><trkpt lat="47.26339600514444" lon="11.238222776034753"><ele>598.0</ele><time>2026-05-01T06:32:56Z</time></trkpt><trkpt lat="47.263517004500635" lon="11.237924340197674"><ele>597.5</ele><time>2026-05-01T06:32:57Z</time></trkpt><trkpt lat="47.263638459267476" lon="11.237625632842603"><ele>597.0</ele><time>2026-05-01T06:32:58Z</time></trkpt><trkpt lat="47.26376434997156" lon="11.237328460550923"><ele>596.0</ele><time>2026-05-01T06:32:59Z</time></trkpt><trkpt lat="47.263893142595315" lon="11.23703290567935"><ele>595.0</ele><time>2026-05-01T06:33:00Z</time></trkpt><trkpt lat="47.26402702788589" lon="11.236742688032887"><ele>597.0</ele><time>2026-05-01T06:33:01Z</time></trkpt><trkpt lat="47.26416651896575" lon="11.236458102188848"><ele>599.0</ele><time>2026-05-01T06:33:02Z</time></trkpt><trkpt lat="47.26430874644998" lon="11.236174031437843"><ele>599.0</ele><time>2026-05-01T06:33:03Z</time></trkpt><trkpt lat="47.26445272114482" lon="11.235894363229427"><ele>599.0</ele><time>2026-05-01T06:33:04Z</time></trkpt><trkpt lat="47.26460124721115" lon="11.235618327144847"><ele>598.0</ele><time>2026-05-01T06:33:05Z</time></trkpt><trkpt lat="47.264751973254036" lon="11.235345290715657"><ele>597.0</ele><time>2026-05-01T06:33:06Z</time></trkpt><trkpt lat="47.264908746056356" lon="11.23507837184691"><ele>597.0</ele><time>2026-05-01T06:33:07Z</time></trkpt><trkpt lat="47.26506914587814" lon="11.234811973698994"><ele>597.0</ele><time>2026-05-01T06:33:08Z</time></trkpt><trkpt lat="47.26523304820106" lon="11.234546521955084"><ele>597.0</ele><time>2026-05-01T06:33:09Z</time></trkpt><trkpt lat="47.265399014264545" lon="11.234285610470332"><ele>597.0</ele><time>2026-05-01T06:33:10Z</time></trkpt><trkpt lat="47.26556651160584" lon="11.234030276765482"><ele>597.0</ele><time>2026-05-01T06:33:11Z</time></trkpt><trkpt lat="47.26573612496161" lon="11.233782055908272"><ele>597.0</ele><time>2026-05-01T06:33:12Z</time></trkpt><trkpt lat="47.26590981601351" lon="11.233536877700065"><ele>597.0</ele><time>2026-05-01T06:33:13Z</time></trkpt><trkpt lat="47.26608388711069" lon="11.233295008709385"><ele>597.0</ele><time>2026-05-01T06:33:14Z</time></trkpt><trkpt lat="47.26625990606648" lon="11.233055925584397"><ele>597.0</ele><time>2026-05-01T06:33:15Z</time></trkpt><trkpt lat="47.26643738622029" lon="11.232820204542223"><ele>597.0</ele><time>2026-05-01T06:33:16Z</time></trkpt><trkpt lat="47.266616655275826" lon="11.232594440885961"><ele>597.0</ele><time>2026-05-01T06:33:17Z</time></trkpt><trkpt lat="47.26679756491171" lon="11.232371992226584"><ele>597.0</ele><time>2026-05-01T06:33:18Z</time></trkpt><trkpt lat="47.26698163064912" lon="11.23215215952839"><ele>597.0</ele><time>2026-05-01T06:33:19Z</time></trkpt><trkpt lat="47.26716549768696" lon="11.23193721165519"><ele>597.0</ele><time>2026-05-01T06:33:20Z</time></trkpt><trkpt lat="47.26734776836173" lon="11.23172678300007"><ele>597.0</ele><time>2026-05-01T06:33:21Z</time></trkpt><trkpt lat="47.267533246496434" lon="11.231520383973884"><ele>597.0</ele><time>2026-05-01T06:33:22Z</time></trkpt><trkpt lat="47.26772114710735" lon="11.231313987002633"><ele>596.0</ele><time>2026-05-01T06:33:23Z</time></trkpt><trkpt lat="47.26790655822126" lon="11.23110838356855"><ele>595.0</ele><time>2026-05-01T06:33:24Z</time></trkpt><trkpt lat="47.26809059844262" lon="11.23090408534202"><ele>596.0</ele><time>2026-05-01T06:33:25Z</time></trkpt><trkpt lat="47.268283844960976" lon="11.230726245864506"><ele>597.0</ele><time>2026-05-01T06:33:26Z</time></trkpt><trkpt lat="47.268456245511395" lon="11.230499867645287"><ele>597.5</ele><time>2026-05-01T06:33:27Z</time></trkpt><trkpt lat="47.26863705877068" lon="11.23029557964856"><ele>598.0</ele><time>2026-05-01T06:33:28Z</time></trkpt><trkpt lat="47.26881508840685" lon="11.230088917513712"><ele>598.0</ele><time>2026-05-01T06:33:29Z</time></trkpt><trkpt lat="47.268989175347336" lon="11.229879245906217"><ele>598.0</ele><time>2026-05-01T06:33:30Z</time></trkpt><trkpt lat="47.26916049988621" lon="11.22966609831257"><ele>598.0</ele><time>2026-05-01T06:33:31Z</time></trkpt><trkpt lat="47.26933218282348" lon="11.229452463646657"><ele>598.0</ele><time>2026-05-01T06:33:32Z</time></trkpt><trkpt lat="47.269501886561216" lon="11.229236506970702"><ele>598.0</ele><time>2026-05-01T06:33:33Z</time></trkpt><trkpt lat="47.26967066114398" lon="11.229018006514085"><ele>598.0</ele><time>2026-05-01T06:33:34Z</time></trkpt><trkpt lat="47.26983945361965" lon="11.228799192721503"><ele>599.0</ele><time>2026-05-01T06:33:35Z</time></trkpt><trkpt lat="47.27000812905223" lon="11.228579471029079"><ele>600.0</ele><time>2026-05-01T06:33:36Z</time></trkpt><trkpt lat="47.27017255714611" lon="11.228355594651385"><ele>601.0</ele><time>2026-05-01T06:33:37Z</time></trkpt><trkpt lat="47.27033239177987" lon="11.228124666658786"><ele>601.0</ele><time>2026-05-01T06:33:38Z</time></trkpt><trkpt lat="47.270493607054775" lon="11.227889704065356"><ele>601.0</ele><time>2026-05-01T06:33:39Z</time></trkpt><trkpt lat="47.27065431988374" lon="11.22764602402507"><ele>601.0</ele><time>2026-05-01T06:33:40Z</time></trkpt><trkpt lat="47.270816017653196" lon="11.227395320086027"><ele>601.0</ele><time>2026-05-01T06:33:41Z</time></trkpt><trkpt lat="47.270979504968906" lon="11.227142784962787"><ele>601.0</ele><time>2026-05-01T06:33:42Z</time></trkpt><trkpt lat="47.27114218656933" lon="11.226880798215474"><ele>601.0</ele><time>2026-05-01T06:33:43Z</time></trkpt><trkpt lat="47.27130545877215" lon="11.226614128404801"><ele>601.0</ele><time>2026-05-01T06:33:44Z</time></trkpt><trkpt lat="47.271469143655345" lon="11.22634131545908"><ele>601.0</ele><time>2026-05-01T06:33:45Z</time></trkpt><trkpt lat="47.27163179802826" lon="11.226060865989938"><ele>601.0</ele><time>2026-05-01T06:33:46Z</time></trkpt><trkpt lat="47.27179291982232" lon="11.225775431682248"><ele>601.0</ele><time>2026-05-01T06:33:47Z</time></trkpt><trkpt lat="47.271952682422274" lon="11.225485038694508"><ele>600.0</ele><time>2026-05-01T06:33:48Z</time></trkpt><trkpt lat="47.272110624226144" lon="11.225189639841998"><ele>599.0</ele><time>2026-05-01T06:33:49Z</time></trkpt><trkpt lat="47.27226530843989" lon="11.22488924951419"><ele>599.0</ele><time>2026-05-01T06:33:50Z</time></trkpt><trkpt lat="47.27241798901096" lon="11.224583463478734"><ele>599.0</ele><time>2026-05-01T06:33:51Z</time></trkpt><trkpt lat="47.272569597941754" lon="11.224272200597452"><ele>599.0</ele><time>2026-05-01T06:33:52Z</time></trkpt><trkpt lat="47.27271749782447" lon="11.2239557373946"><ele>599.0</ele><time>2026-05-01T06:33:53Z</time></trkpt><trkpt lat="47.27286301526003" lon="11.223635450162947"><ele>599.0</ele><time>2026-05-01T06:33:54Z</time></trkpt><trkpt lat="47.27300652583205" lon="11.223310883105308"><ele>599.0</ele><time>2026-05-01T06:33:55Z</time></trkpt><trkpt lat="47.273147513777424" lon="11.222983804070411"><ele>599.5</ele><time>2026-05-01T06:33:56Z</time></trkpt><trkpt lat="47.27328677270149" lon="11.222651713207734"><ele>600.0</ele><time>2026-05-01T06:33:57Z</time></trkpt><trkpt lat="47.27342237258989" lon="11.222316273504754"><ele>599.0</ele><time>2026-05-01T06:33:58Z</time></trkpt><trkpt lat="47.27355481988826" lon="11.22197686972012"><ele>598.0</ele><time>2026-05-01T06:33:59Z</time></trkpt><trkpt lat="47.27368314798874" lon="11.22163441496754"><ele>597.0</ele><time>2026-05-01T06:34:00Z</time></trkpt><trkpt lat="47.273807357053975" lon="11.22128859692102"><ele>596.0</ele><time>2026-05-01T06:34:01Z</time></trkpt><trkpt lat="47.273927095136855" lon="11.220941964355072"><ele>597.0</ele><time>2026-05-01T06:34:02Z</time></trkpt><trkpt lat="47.274044596967755" lon="11.220597210879726"><ele>598.0</ele><time>2026-05-01T06:34:02.999Z</time></trkpt><trkpt lat="47.274154555889396" lon="11.22026433556396"><ele>598.0</ele><time>2026-05-01T06:34:03.999Z</time></trkpt><trkpt lat="47.27426164984" lon="11.219921618160948"><ele>598.0</ele><time>2026-05-01T06:34:04.999Z</time></trkpt><trkpt lat="47.274367067855025" lon="11.219571333853422"><ele>598.5</ele><time>2026-05-01T06:34:05.999Z</time></trkpt><trkpt lat="47.27447441048298" lon="11.21922151575689"><ele>599.0</ele><time>2026-05-01T06:34:06.999Z</time></trkpt><trkpt lat="47.274580618406716" lon="11.218874698854423"><ele>598.5</ele><time>2026-05-01T06:34:07.999Z</time></trkpt><trkpt lat="47.274682200586255" lon="11.218528551485173"><ele>598.0</ele><time>2026-05-01T06:34:08.999Z</time></trkpt><trkpt lat="47.27478127601384" lon="11.218188864313431"><ele>599.0</ele><time>2026-05-01T06:34:09.999Z</time></trkpt><trkpt lat="47.27487843859942" lon="11.21785096315222"><ele>600.0</ele><time>2026-05-01T06:34:10.999Z</time></trkpt><trkpt lat="47.274974177737896" lon="11.217514005123952"><ele>600.5</ele><time>2026-05-01T06:34:11.999Z</time></trkpt><trkpt lat="47.27506916501938" lon="11.217175250570552"><ele>601.0</ele><time>2026-05-01T06:34:12.999Z</time></trkpt><trkpt lat="47.27516296589684" lon="11.21684028030833"><ele>601.0</ele><time>2026-05-01T06:34:13.999Z</time></trkpt><trkpt lat="47.27525374642648" lon="11.216501607322616"><ele>601.0</ele><time>2026-05-01T06:34:15Z</time></trkpt><trkpt lat="47.27534402299241" lon="11.21616275396129"><ele>600.5</ele><time>2026-05-01T06:34:16Z</time></trkpt><trkpt lat="47.27543272444479" lon="11.215826026142297"><ele>600.0</ele><time>2026-05-01T06:34:17Z</time></trkpt><trkpt lat="47.275517654719884" lon="11.215490865540737"><ele>601.0</ele><time>2026-05-01T06:34:18Z</time></trkpt><trkpt lat="47.27560101080443" lon="11.215155796352176"><ele>602.0</ele><time>2026-05-01T06:34:19Z</time></trkpt><trkpt lat="47.275682592890604" lon="11.21481788214156"><ele>602.0</ele><time>2026-05-01T06:34:20Z</time></trkpt><trkpt lat="47.27575988406517" lon="11.214472819016885"><ele>602.0</ele><time>2026-05-01T06:34:21Z</time></trkpt><trkpt lat="47.27583719410182" lon="11.214123756231007"><ele>603.5</ele><time>2026-05-01T06:34:22Z</time></trkpt><trkpt lat="47.275914469087674" lon="11.213771017866666"><ele>605.0</ele><time>2026-05-01T06:34:23Z</time></trkpt><trkpt lat="47.27599626909399" lon="11.213418072354704"><ele>603.5</ele><time>2026-05-01T06:34:24Z</time></trkpt><trkpt lat="47.27608134261565" lon="11.213063675878809"><ele>602.0</ele><time>2026-05-01T06:34:25Z</time></trkpt><trkpt lat="47.27616991342901" lon="11.21271009306263"><ele>602.0</ele><time>2026-05-01T06:34:26Z</time></trkpt><trkpt lat="47.27626019358588" lon="11.21235653314463"><ele>602.0</ele><time>2026-05-01T06:34:27Z</time></trkpt><trkpt lat="47.27635378545075" lon="11.212004011784677"><ele>601.5</ele><time>2026-05-01T06:34:28Z</time></trkpt><trkpt lat="47.27645120841396" lon="11.211653044462885"><ele>601.0</ele><time>2026-05-01T06:34:29Z</time></trkpt><trkpt lat="47.27654956271287" lon="11.211301571846661"><ele>600.5</ele><time>2026-05-01T06:34:30Z</time></trkpt><trkpt lat="47.276648082150665" lon="11.210947684131726"><ele>600.0</ele><time>2026-05-01T06:34:31Z</time></trkpt><trkpt lat="47.276741482499794" lon="11.210593784115174"><ele>600.0</ele><time>2026-05-01T06:34:32Z</time></trkpt><trkpt lat="47.276841714151566" lon="11.210237893376725"><ele>600.0</ele><time>2026-05-01T06:34:33Z</time></trkpt><trkpt lat="47.27693811224449" lon="11.209881169870204"><ele>600.5</ele><time>2026-05-01T06:34:34Z</time></trkpt><trkpt lat="47.27702993863255" lon="11.209523823307265"><ele>601.0</ele><time>2026-05-01T06:34:35Z</time></trkpt><trkpt lat="47.27712298305198" lon="11.209164532443022"><ele>600.5</ele><time>2026-05-01T06:34:36Z</time></trkpt><trkpt lat="47.277215314527176" lon="11.208807075189918"><ele>600.0</ele><time>2026-05-01T06:34:37Z</time></trkpt><trkpt lat="47.277307794964884" lon="11.20845140420319"><ele>601.0</ele><time>2026-05-01T06:34:38Z</time></trkpt><trkpt lat="47.277398691787496" lon="11.208091080953935"><ele>602.0</ele><time>2026-05-01T06:34:39Z</time></trkpt><trkpt lat="47.27749018340918" lon="11.207734897717252"><ele>602.0</ele><time>2026-05-01T06:34:40Z</time></trkpt><trkpt lat="47.27758264632815" lon="11.207381901169969"><ele>602.0</ele><time>2026-05-01T06:34:41Z</time></trkpt><trkpt lat="47.27767586206568" lon="11.2070277013188"><ele>601.0</ele><time>2026-05-01T06:34:42.001Z</time></trkpt><trkpt lat="47.277770351745986" lon="11.206672776010153"><ele>600.0</ele><time>2026-05-01T06:34:43.001Z</time></trkpt><trkpt lat="47.27786734888311" lon="11.206317479703989"><ele>600.0</ele><time>2026-05-01T06:34:44.001Z</time></trkpt><trkpt lat="47.277967495531" lon="11.205965221739811"><ele>600.0</ele><time>2026-05-01T06:34:45.001Z</time></trkpt><trkpt lat="47.27806862640384" lon="11.20561123658603"><ele>600.5</ele><time>2026-05-01T06:34:46.001Z</time></trkpt><trkpt lat="47.27817082129161" lon="11.20525708364101"><ele>601.0</ele><time>2026-05-01T06:34:47.001Z</time></trkpt><trkpt lat="47.278271053626064" lon="11.204902417203515"><ele>601.5</ele><time>2026-05-01T06:34:48.001Z</time></trkpt><trkpt lat="47.27837272782582" lon="11.204547805938855"><ele>602.0</ele><time>2026-05-01T06:34:49.001Z</time></trkpt><trkpt lat="47.27847667829137" lon="11.204193397881282"><ele>602.0</ele><time>2026-05-01T06:34:50.001Z</time></trkpt><trkpt lat="47.27857644534488" lon="11.20383943105215"><ele>602.0</ele><time>2026-05-01T06:34:51.001Z</time></trkpt><trkpt lat="47.27867373084192" lon="11.203486551342946"><ele>601.0</ele><time>2026-05-01T06:34:52.001Z</time></trkpt><trkpt lat="47.2787723750677" lon="11.203134866368195"><ele>600.0</ele><time>2026-05-01T06:34:53.001Z</time></trkpt><trkpt lat="47.27887340842515" lon="11.20278301426225"><ele>601.5</ele><time>2026-05-01T06:34:54.001Z</time></trkpt><trkpt lat="47.27897715664842" lon="11.20243517239038"><ele>603.0</ele><time>2026-05-01T06:34:55.001Z</time></trkpt><trkpt lat="47.27908288450339" lon="11.202091682660418"><ele>603.0</ele><time>2026-05-01T06:34:56.001Z</time></trkpt><trkpt lat="47.27918973412104" lon="11.201751071201809"><ele>603.0</ele><time>2026-05-01T06:34:57.001Z</time></trkpt><trkpt lat="47.2793008067497" lon="11.201416418440493"><ele>603.0</ele><time>2026-05-01T06:34:58.001Z</time></trkpt><trkpt lat="47.27941618697374" lon="11.201086894659714"><ele>603.0</ele><time>2026-05-01T06:34:59.001Z</time></trkpt><trkpt lat="47.27953628972337" lon="11.200762794835935"><ele>603.0</ele><time>2026-05-01T06:35:00.001Z</time></trkpt><trkpt lat="47.279656951562394" lon="11.200438511374168"><ele>603.0</ele><time>2026-05-01T06:35:01.001Z</time></trkpt><trkpt lat="47.27977923106269" lon="11.20011489942981"><ele>602.0</ele><time>2026-05-01T06:35:02.001Z</time></trkpt><trkpt lat="47.27989201661836" lon="11.199787681846265"><ele>601.0</ele><time>2026-05-01T06:35:03.001Z</time></trkpt><trkpt lat="47.280000464924974" lon="11.199460008952792"><ele>601.0</ele><time>2026-05-01T06:35:04.001Z</time></trkpt><trkpt lat="47.28011163001241" lon="11.199134578826348"><ele>601.0</ele><time>2026-05-01T06:35:05.001Z</time></trkpt><trkpt lat="47.28022462012102" lon="11.198807267856422"><ele>601.0</ele><time>2026-05-01T06:35:06.001Z</time></trkpt><trkpt lat="47.28034216380344" lon="11.198483349139797"><ele>601.0</ele><time>2026-05-01T06:35:07.001Z</time></trkpt><trkpt lat="47.28046206295977" lon="11.198160843067813"><ele>601.0</ele><time>2026-05-01T06:35:08.001Z</time></trkpt><trkpt lat="47.28058305065111" lon="11.19783646999197"><ele>601.0</ele><time>2026-05-01T06:35:09.001Z</time></trkpt><trkpt lat="47.28070500933594" lon="11.197510577694297"><ele>602.0</ele><time>2026-05-01T06:35:10.001Z</time></trkpt><trkpt lat="47.280827620453415" lon="11.197185022093473"><ele>603.0</ele><time>2026-05-01T06:35:11.001Z</time></trkpt><trkpt lat="47.2809510769855" lon="11.196863208060899"><ele>603.0</ele><time>2026-05-01T06:35:12.001Z</time></trkpt><trkpt lat="47.28107446615094" lon="11.196539260568112"><ele>603.0</ele><time>2026-05-01T06:35:13.001Z</time></trkpt><trkpt lat="47.28119944505371" lon="11.196217312239938"><ele>602.0</ele><time>2026-05-01T06:35:14.001Z</time></trkpt><trkpt lat="47.281325513431085" lon="11.195898299358218"><ele>601.0</ele><time>2026-05-01T06:35:15.001Z</time></trkpt><trkpt lat="47.281453268410075" lon="11.195580438675226"><ele>604.0</ele><time>2026-05-01T06:35:16.001Z</time></trkpt><trkpt lat="47.28158233194849" lon="11.195261658736625"><ele>607.0</ele><time>2026-05-01T06:35:17.001Z</time></trkpt><trkpt lat="47.28171101366171" lon="11.194945187703903"><ele>606.0</ele><time>2026-05-01T06:35:18.001Z</time></trkpt><trkpt lat="47.28184043262836" lon="11.194628195273843"><ele>605.0</ele><time>2026-05-01T06:35:19.001Z</time></trkpt><trkpt lat="47.28196907731215" lon="11.194311673299179"><ele>605.0</ele><time>2026-05-01T06:35:20.001Z</time></trkpt><trkpt lat="47.28209787266947" lon="11.193997769010542"><ele>605.0</ele><time>2026-05-01T06:35:21.001Z</time></trkpt><trkpt lat="47.28222948437472" lon="11.193682162841007"><ele>605.0</ele><time>2026-05-01T06:35:22.001Z</time></trkpt><trkpt lat="47.28236214506048" lon="11.193372153684978"><ele>605.0</ele><time>2026-05-01T06:35:23.001Z</time></trkpt><trkpt lat="47.28249379873002" lon="11.193060304815347"><ele>606.0</ele><time>2026-05-01T06:35:24.001Z</time></trkpt><trkpt lat="47.28262543945721" lon="11.192752114732963"><ele>607.0</ele><time>2026-05-01T06:35:25.001Z</time></trkpt><trkpt lat="47.28275934910894" lon="11.192443424520896"><ele>606.5</ele><time>2026-05-01T06:35:26.001Z</time></trkpt><trkpt lat="47.282892989819544" lon="11.19213729906673"><ele>606.0</ele><time>2026-05-01T06:35:27.001Z</time></trkpt><trkpt lat="47.28302767183616" lon="11.19183028135691"><ele>606.0</ele><time>2026-05-01T06:35:28.001Z</time></trkpt><trkpt lat="47.28316173439025" lon="11.191525805790844"><ele>606.0</ele><time>2026-05-01T06:35:29.001Z</time></trkpt><trkpt lat="47.28329736843352" lon="11.191216700427258"><ele>606.0</ele><time>2026-05-01T06:35:30.001Z</time></trkpt><trkpt lat="47.28343263661393" lon="11.190912661453158"><ele>606.0</ele><time>2026-05-01T06:35:31.001Z</time></trkpt><trkpt lat="47.283565018386035" lon="11.190608698457124"><ele>605.0</ele><time>2026-05-01T06:35:32.001Z</time></trkpt><trkpt lat="47.283698507005276" lon="11.190311089293463"><ele>604.0</ele><time>2026-05-01T06:35:33.001Z</time></trkpt><trkpt lat="47.28382565494411" lon="11.19002316942414"><ele>604.5</ele><time>2026-05-01T06:35:34.001Z</time></trkpt><trkpt lat="47.28395618574938" lon="11.189729938482026"><ele>605.0</ele><time>2026-05-01T06:35:35.001Z</time></trkpt><trkpt lat="47.2840917031708" lon="11.189440355848058"><ele>605.0</ele><time>2026-05-01T06:35:36.001Z</time></trkpt><trkpt lat="47.28422597883759" lon="11.189146687621031"><ele>605.0</ele><time>2026-05-01T06:35:37.001Z</time></trkpt><trkpt lat="47.284357252141355" lon="11.188849276049682"><ele>604.5</ele><time>2026-05-01T06:35:38.001Z</time></trkpt><trkpt lat="47.284486934210115" lon="11.188548219297425"><ele>604.0</ele><time>2026-05-01T06:35:39.001Z</time></trkpt><trkpt lat="47.28461371243113" lon="11.188243233662039"><ele>603.5</ele><time>2026-05-01T06:35:40.001Z</time></trkpt><trkpt lat="47.28474057762483" lon="11.187935079890579"><ele>603.0</ele><time>2026-05-01T06:35:41.001Z</time></trkpt><trkpt lat="47.28486445195704" lon="11.18762850403779"><ele>604.0</ele><time>2026-05-01T06:35:42.001Z</time></trkpt><trkpt lat="47.28498565311082" lon="11.187315738809389"><ele>605.0</ele><time>2026-05-01T06:35:43.001Z</time></trkpt><trkpt lat="47.285103757416884" lon="11.187000999639501"><ele>605.0</ele><time>2026-05-01T06:35:44.001Z</time></trkpt><trkpt lat="47.28521659694047" lon="11.186682062727078"><ele>605.0</ele><time>2026-05-01T06:35:45.001Z</time></trkpt><trkpt lat="47.28532142327385" lon="11.18635962646429"><ele>604.0</ele><time>2026-05-01T06:35:46.001Z</time></trkpt><trkpt lat="47.285422747609715" lon="11.186031647570022"><ele>603.0</ele><time>2026-05-01T06:35:47.001Z</time></trkpt><trkpt lat="47.28551718300044" lon="11.1856994236951"><ele>602.5</ele><time>2026-05-01T06:35:48.001Z</time></trkpt><trkpt lat="47.285603994556176" lon="11.18536232776837"><ele>602.0</ele><time>2026-05-01T06:35:49.001Z</time></trkpt><trkpt lat="47.28568431111962" lon="11.185020032160077"><ele>602.5</ele><time>2026-05-01T06:35:50.001Z</time></trkpt><trkpt lat="47.285759219509835" lon="11.184674415891315"><ele>603.0</ele><time>2026-05-01T06:35:51Z</time></trkpt><trkpt lat="47.28582869312295" lon="11.18432436259096"><ele>604.0</ele><time>2026-05-01T06:35:52Z</time></trkpt><trkpt lat="47.285890586275684" lon="11.183968677066394"><ele>605.0</ele><time>2026-05-01T06:35:53Z</time></trkpt><trkpt lat="47.285945671980876" lon="11.183615090228248"><ele>605.0</ele><time>2026-05-01T06:35:54Z</time></trkpt><trkpt lat="47.28599386308179" lon="11.183259766416969"><ele>605.0</ele><time>2026-05-01T06:35:55Z</time></trkpt><trkpt lat="47.286035788298136" lon="11.182901721617117"><ele>605.0</ele><time>2026-05-01T06:35:56Z</time></trkpt><trkpt lat="47.28607097690338" lon="11.18253946784731"><ele>605.0</ele><time>2026-05-01T06:35:57Z</time></trkpt><trkpt lat="47.2860999845764" lon="11.182175983235428"><ele>605.0</ele><time>2026-05-01T06:35:58Z</time></trkpt><trkpt lat="47.28612115312712" lon="11.181810631351407"><ele>605.0</ele><time>2026-05-01T06:35:59Z</time></trkpt><trkpt lat="47.28613586023963" lon="11.181444404877253"><ele>605.0</ele><time>2026-05-01T06:36:00Z</time></trkpt><trkpt lat="47.28614413115881" lon="11.181077859879592"><ele>605.0</ele><time>2026-05-01T06:36:01Z</time></trkpt><trkpt lat="47.286145318679715" lon="11.180708982608895"><ele>605.0</ele><time>2026-05-01T06:36:02Z</time></trkpt><trkpt lat="47.28613993791736" lon="11.180338155291238"><ele>605.0</ele><time>2026-05-01T06:36:03Z</time></trkpt><trkpt lat="47.28612924514045" lon="11.179966186059328"><ele>605.0</ele><time>2026-05-01T06:36:04Z</time></trkpt><trkpt lat="47.286112313076984" lon="11.179594672987893"><ele>605.0</ele><time>2026-05-01T06:36:05Z</time></trkpt><trkpt lat="47.28608995881729" lon="11.179223355408283"><ele>606.0</ele><time>2026-05-01T06:36:06Z</time></trkpt><trkpt lat="47.286061837324674" lon="11.178854003483536"><ele>607.0</ele><time>2026-05-01T06:36:07Z</time></trkpt><trkpt lat="47.28602872030768" lon="11.178485245392588"><ele>606.5</ele><time>2026-05-01T06:36:08Z</time></trkpt><trkpt lat="47.285990670692335" lon="11.178116962474862"><ele>606.0</ele><time>2026-05-01T06:36:09Z</time></trkpt><trkpt lat="47.2859489381949" lon="11.17774687139459"><ele>606.0</ele><time>2026-05-01T06:36:10Z</time></trkpt><trkpt lat="47.28590546893588" lon="11.177377083474248"><ele>606.0</ele><time>2026-05-01T06:36:11Z</time></trkpt><trkpt lat="47.28586071487229" lon="11.17700603630268"><ele>606.0</ele><time>2026-05-01T06:36:12Z</time></trkpt><trkpt lat="47.28580945365677" lon="11.176634040497001"><ele>606.0</ele><time>2026-05-01T06:36:13Z</time></trkpt><trkpt lat="47.28576223471259" lon="11.176264806322516"><ele>605.5</ele><time>2026-05-01T06:36:14.001Z</time></trkpt><trkpt lat="47.285715862967386" lon="11.175895202754882"><ele>605.0</ele><time>2026-05-01T06:36:15.001Z</time></trkpt><trkpt lat="47.285670319528464" lon="11.17552772428309"><ele>605.0</ele><time>2026-05-01T06:36:16.001Z</time></trkpt><trkpt lat="47.285622596728814" lon="11.175158689098247"><ele>605.0</ele><time>2026-05-01T06:36:17.001Z</time></trkpt><trkpt lat="47.285575657263294" lon="11.17478465243922"><ele>604.0</ele><time>2026-05-01T06:36:18.001Z</time></trkpt><trkpt lat="47.28553192661886" lon="11.174410931820939"><ele>603.0</ele><time>2026-05-01T06:36:19.001Z</time></trkpt><trkpt lat="47.285489533692754" lon="11.17403654438946"><ele>603.5</ele><time>2026-05-01T06:36:20.001Z</time></trkpt><trkpt lat="47.28544721954854" lon="11.173662893595933"><ele>604.0</ele><time>2026-05-01T06:36:21.001Z</time></trkpt><trkpt lat="47.28540368364621" lon="11.173285798109111"><ele>603.5</ele><time>2026-05-01T06:36:22.001Z</time></trkpt><trkpt lat="47.285359812172324" lon="11.172909173738347"><ele>603.0</ele><time>2026-05-01T06:36:23.001Z</time></trkpt><trkpt lat="47.285317884786515" lon="11.172530790852493"><ele>603.5</ele><time>2026-05-01T06:36:24.001Z</time></trkpt><trkpt lat="47.285277164055316" lon="11.172149973324965"><ele>604.0</ele><time>2026-05-01T06:36:25.001Z</time></trkpt><trkpt lat="47.28524299747758" lon="11.171769676657155"><ele>604.0</ele><time>2026-05-01T06:36:26.001Z</time></trkpt><trkpt lat="47.28521422909676" lon="11.17139000293474"><ele>604.0</ele><time>2026-05-01T06:36:27.001Z</time></trkpt><trkpt lat="47.285188745488995" lon="11.17101269686835"><ele>605.0</ele><time>2026-05-01T06:36:28.001Z</time></trkpt><trkpt lat="47.28516502542508" lon="11.170630271464143"><ele>606.0</ele><time>2026-05-01T06:36:29.001Z</time></trkpt><trkpt lat="47.28514559497224" lon="11.170248667377933"><ele>606.0</ele><time>2026-05-01T06:36:30.001Z</time></trkpt><trkpt lat="47.28512933596262" lon="11.169864195132893"><ele>606.0</ele><time>2026-05-01T06:36:31.001Z</time></trkpt><trkpt lat="47.28511697744316" lon="11.169479645214142"><ele>606.0</ele><time>2026-05-01T06:36:32.001Z</time></trkpt><trkpt lat="47.28510732866259" lon="11.169098677711398"><ele>606.0</ele><time>2026-05-01T06:36:33.001Z</time></trkpt><trkpt lat="47.28510302958545" lon="11.16872161488819"><ele>606.0</ele><time>2026-05-01T06:36:34.001Z</time></trkpt><trkpt lat="47.28510415082135" lon="11.168343861230317"><ele>606.0</ele><time>2026-05-01T06:36:35.001Z</time></trkpt><trkpt lat="47.28511005030699" lon="11.167968517796087"><ele>606.0</ele><time>2026-05-01T06:36:36.001Z</time></trkpt><trkpt lat="47.28512155172704" lon="11.167595307935155"><ele>606.0</ele><time>2026-05-01T06:36:37.001Z</time></trkpt><trkpt lat="47.28513682506662" lon="11.167219502849909"><ele>606.0</ele><time>2026-05-01T06:36:38.001Z</time></trkpt><trkpt lat="47.2851538239776" lon="11.166847474647007"><ele>606.0</ele><time>2026-05-01T06:36:39.001Z</time></trkpt><trkpt lat="47.28517574578442" lon="11.166475422745446"><ele>606.0</ele><time>2026-05-01T06:36:40.001Z</time></trkpt><trkpt lat="47.28520329316911" lon="11.166103920055285"><ele>606.0</ele><time>2026-05-01T06:36:41.001Z</time></trkpt><trkpt lat="47.28523408761961" lon="11.165735777375696"><ele>606.0</ele><time>2026-05-01T06:36:42.001Z</time></trkpt><trkpt lat="47.28527021320023" lon="11.165368429990682"><ele>606.0</ele><time>2026-05-01T06:36:43.001Z</time></trkpt><trkpt lat="47.285312298038164" lon="11.165000656901"><ele>606.5</ele><time>2026-05-01T06:36:44.001Z</time></trkpt><trkpt lat="47.28535997428622" lon="11.164632739140353"><ele>607.0</ele><time>2026-05-01T06:36:45.001Z</time></trkpt><trkpt lat="47.285412993588636" lon="11.16426533230778"><ele>606.5</ele><time>2026-05-01T06:36:46.001Z</time></trkpt><trkpt lat="47.2854691613415" lon="11.163896925237067"><ele>606.0</ele><time>2026-05-01T06:36:47.001Z</time></trkpt><trkpt lat="47.2855302745731" lon="11.163527801836102"><ele>606.0</ele><time>2026-05-01T06:36:48.001Z</time></trkpt><trkpt lat="47.28559268604796" lon="11.163167492765682"><ele>606.0</ele><time>2026-05-01T06:36:49.001Z</time></trkpt><trkpt lat="47.285662620500496" lon="11.162804902045988"><ele>606.5</ele><time>2026-05-01T06:36:50.001Z</time></trkpt><trkpt lat="47.28574004860485" lon="11.162446884717504"><ele>607.0</ele><time>2026-05-01T06:36:51.001Z</time></trkpt><trkpt lat="47.28581888682868" lon="11.16209118014104"><ele>607.0</ele><time>2026-05-01T06:36:52.001Z</time></trkpt><trkpt lat="47.28590209462625" lon="11.161735276095834"><ele>607.0</ele><time>2026-05-01T06:36:53.001Z</time></trkpt><trkpt lat="47.28598806315507" lon="11.16138489617399"><ele>607.0</ele><time>2026-05-01T06:36:54.001Z</time></trkpt><trkpt lat="47.286080713315464" lon="11.161033229618992"><ele>607.0</ele><time>2026-05-01T06:36:55.001Z</time></trkpt><trkpt lat="47.28617463654563" lon="11.160685284922403"><ele>607.0</ele><time>2026-05-01T06:36:56.001Z</time></trkpt><trkpt lat="47.28627127689076" lon="11.160341218790585"><ele>607.0</ele><time>2026-05-01T06:36:57.001Z</time></trkpt><trkpt lat="47.286373945653615" lon="11.160001777261174"><ele>607.0</ele><time>2026-05-01T06:36:58.001Z</time></trkpt><trkpt lat="47.2864786053493" lon="11.159663199035515"><ele>607.0</ele><time>2026-05-01T06:36:59.001Z</time></trkpt><trkpt lat="47.286587431710565" lon="11.159327322809103"><ele>607.5</ele><time>2026-05-01T06:37:00.001Z</time></trkpt><trkpt lat="47.286699736415834" lon="11.158994280779071"><ele>608.0</ele><time>2026-05-01T06:37:01.001Z</time></trkpt><trkpt lat="47.28681438630605" lon="11.15866327203544"><ele>608.0</ele><time>2026-05-01T06:37:02.001Z</time></trkpt><trkpt lat="47.28693115389332" lon="11.158334801173709"><ele>608.0</ele><time>2026-05-01T06:37:03.001Z</time></trkpt><trkpt lat="47.28705388916031" lon="11.15801529342196"><ele>608.0</ele><time>2026-05-01T06:37:04.001Z</time></trkpt><trkpt lat="47.28717613335895" lon="11.157688044330367"><ele>608.0</ele><time>2026-05-01T06:37:05.001Z</time></trkpt><trkpt lat="47.28730178277833" lon="11.157366093582242"><ele>608.0</ele><time>2026-05-01T06:37:06.001Z</time></trkpt><trkpt lat="47.287433981090764" lon="11.15704552610978"><ele>608.0</ele><time>2026-05-01T06:37:07.001Z</time></trkpt><trkpt lat="47.28756376324765" lon="11.15672419448129"><ele>607.0</ele><time>2026-05-01T06:37:08.001Z</time></trkpt><trkpt lat="47.287695027228615" lon="11.156405899876294"><ele>606.0</ele><time>2026-05-01T06:37:09.001Z</time></trkpt><trkpt lat="47.28782785592669" lon="11.156087324511976"><ele>606.0</ele><time>2026-05-01T06:37:10.001Z</time></trkpt><trkpt lat="47.28795854250039" lon="11.15577051050112"><ele>606.0</ele><time>2026-05-01T06:37:11.001Z</time></trkpt><trkpt lat="47.28809263562223" lon="11.155453039546575"><ele>606.0</ele><time>2026-05-01T06:37:12.001Z</time></trkpt><trkpt lat="47.28822085632194" lon="11.155135946692097"><ele>606.0</ele><time>2026-05-01T06:37:13.001Z</time></trkpt><trkpt lat="47.28835656054775" lon="11.154818202209372"><ele>606.5</ele><time>2026-05-01T06:37:14.001Z</time></trkpt><trkpt lat="47.28849034135783" lon="11.15449752572398"><ele>607.0</ele><time>2026-05-01T06:37:15.001Z</time></trkpt><trkpt lat="47.28862384765495" lon="11.154199262557889"><ele>606.5</ele><time>2026-05-01T06:37:16.001Z</time></trkpt><trkpt lat="47.288760464074194" lon="11.153901993357723"><ele>606.0</ele><time>2026-05-01T06:37:17.001Z</time></trkpt><trkpt lat="47.28889396612443" lon="11.153589007693784"><ele>606.5</ele><time>2026-05-01T06:37:18.001Z</time></trkpt><trkpt lat="47.28903173015013" lon="11.153271824332078"><ele>607.0</ele><time>2026-05-01T06:37:19.001Z</time></trkpt><trkpt lat="47.289169727590405" lon="11.152951436240967"><ele>608.0</ele><time>2026-05-01T06:37:20.001Z</time></trkpt><trkpt lat="47.2893075725468" lon="11.152623655189844"><ele>609.0</ele><time>2026-05-01T06:37:21.001Z</time></trkpt><trkpt lat="47.28944476968862" lon="11.152298534017376"><ele>610.0</ele><time>2026-05-01T06:37:22.001Z</time></trkpt><trkpt lat="47.28958282685249" lon="11.151976829776816"><ele>611.0</ele><time>2026-05-01T06:37:23.001Z</time></trkpt><trkpt lat="47.28972183419719" lon="11.151656443092703"><ele>609.5</ele><time>2026-05-01T06:37:24.001Z</time></trkpt><trkpt lat="47.289860701615574" lon="11.151333707426511"><ele>608.0</ele><time>2026-05-01T06:37:25.001Z</time></trkpt><trkpt lat="47.290000980766635" lon="11.151009398686268"><ele>608.0</ele><time>2026-05-01T06:37:26.001Z</time></trkpt><trkpt lat="47.29014027172393" lon="11.15068332383289"><ele>608.0</ele><time>2026-05-01T06:37:27.001Z</time></trkpt><trkpt lat="47.29028027609797" lon="11.150353407367813"><ele>608.0</ele><time>2026-05-01T06:37:28.001Z</time></trkpt><trkpt lat="47.29042080195868" lon="11.15001931772233"><ele>608.0</ele><time>2026-05-01T06:37:29.001Z</time></trkpt><trkpt lat="47.29056282896021" lon="11.149682823273178"><ele>608.5</ele><time>2026-05-01T06:37:30.001Z</time></trkpt><trkpt lat="47.29070443782731" lon="11.149352713166248"><ele>609.0</ele><time>2026-05-01T06:37:31.001Z</time></trkpt><trkpt lat="47.29084808591636" lon="11.149021243535831"><ele>609.0</ele><time>2026-05-01T06:37:32.001Z</time></trkpt><trkpt lat="47.29099149947541" lon="11.148689650850693"><ele>609.0</ele><time>2026-05-01T06:37:33.001Z</time></trkpt><trkpt lat="47.29113616614021" lon="11.148357744394803"><ele>608.5</ele><time>2026-05-01T06:37:34.001Z</time></trkpt><trkpt lat="47.291282145460926" lon="11.148024854502461"><ele>608.0</ele><time>2026-05-01T06:37:35.001Z</time></trkpt><trkpt lat="47.29142641656183" lon="11.14769194446105"><ele>608.0</ele><time>2026-05-01T06:37:36.001Z</time></trkpt><trkpt lat="47.291570520886054" lon="11.14735877765231"><ele>608.0</ele><time>2026-05-01T06:37:37.001Z</time></trkpt><trkpt lat="47.291714484721474" lon="11.147025789188348"><ele>608.0</ele><time>2026-05-01T06:37:38.001Z</time></trkpt><trkpt lat="47.2918580226177" lon="11.146690043896552"><ele>608.0</ele><time>2026-05-01T06:37:39.001Z</time></trkpt><trkpt lat="47.292002246319434" lon="11.146350972886587"><ele>608.0</ele><time>2026-05-01T06:37:40.001Z</time></trkpt><trkpt lat="47.292143824543516" lon="11.146014228490188"><ele>608.0</ele><time>2026-05-01T06:37:41.001Z</time></trkpt><trkpt lat="47.29228410752399" lon="11.145676672505264"><ele>609.0</ele><time>2026-05-01T06:37:42.001Z</time></trkpt><trkpt lat="47.29242574856162" lon="11.145341082135653"><ele>610.0</ele><time>2026-05-01T06:37:43.001Z</time></trkpt><trkpt lat="47.292568441779395" lon="11.145005425916253"><ele>609.0</ele><time>2026-05-01T06:37:44.001Z</time></trkpt><trkpt lat="47.2927125202001" lon="11.144670237229784"><ele>608.0</ele><time>2026-05-01T06:37:45.001Z</time></trkpt><trkpt lat="47.29285781989066" lon="11.14433692691307"><ele>607.5</ele><time>2026-05-01T06:37:46.001Z</time></trkpt><trkpt lat="47.29300166276557" lon="11.143997697452795"><ele>607.0</ele><time>2026-05-01T06:37:47.001Z</time></trkpt><trkpt lat="47.293147394324826" lon="11.143664816010206"><ele>608.0</ele><time>2026-05-01T06:37:48.001Z</time></trkpt><trkpt lat="47.293294423863706" lon="11.143329946426157"><ele>609.0</ele><time>2026-05-01T06:37:49.001Z</time></trkpt><trkpt lat="47.29343977984425" lon="11.142994702490284"><ele>609.0</ele><time>2026-05-01T06:37:50.001Z</time></trkpt><trkpt lat="47.29358704417195" lon="11.142659207917736"><ele>609.0</ele><time>2026-05-01T06:37:51.001Z</time></trkpt><trkpt lat="47.29372592977651" lon="11.142319887910702"><ele>609.0</ele><time>2026-05-01T06:37:52.001Z</time></trkpt><trkpt lat="47.29386707266914" lon="11.14198361974284"><ele>609.0</ele><time>2026-05-01T06:37:53.001Z</time></trkpt><trkpt lat="47.2940083140781" lon="11.1416490562676"><ele>610.0</ele><time>2026-05-01T06:37:54.001Z</time></trkpt><trkpt lat="47.294149128444246" lon="11.14131410538127"><ele>611.0</ele><time>2026-05-01T06:37:55.001Z</time></trkpt><trkpt lat="47.29428918979713" lon="11.140980664156658"><ele>610.5</ele><time>2026-05-01T06:37:56.001Z</time></trkpt><trkpt lat="47.2944297644493" lon="11.140647726199832"><ele>610.0</ele><time>2026-05-01T06:37:57.001Z</time></trkpt><trkpt lat="47.29457260619852" lon="11.140313122389898"><ele>610.0</ele><time>2026-05-01T06:37:58.001Z</time></trkpt><trkpt lat="47.294715722216914" lon="11.139979776200892"><ele>610.0</ele><time>2026-05-01T06:37:59.001Z</time></trkpt><trkpt lat="47.29486070932083" lon="11.139649363531689"><ele>610.0</ele><time>2026-05-01T06:38:00.001Z</time></trkpt><trkpt lat="47.29500395740596" lon="11.139315500457226"><ele>610.0</ele><time>2026-05-01T06:38:01.001Z</time></trkpt><trkpt lat="47.29514661438979" lon="11.138981122668245"><ele>610.0</ele><time>2026-05-01T06:38:02.001Z</time></trkpt><trkpt lat="47.295285261550895" lon="11.13864501200622"><ele>610.0</ele><time>2026-05-01T06:38:03.001Z</time></trkpt><trkpt lat="47.295428722747815" lon="11.138309338240978"><ele>609.0</ele><time>2026-05-01T06:38:04Z</time></trkpt><trkpt lat="47.29557239910411" lon="11.137979405286359"><ele>608.0</ele><time>2026-05-01T06:38:05.001Z</time></trkpt><trkpt lat="47.29571551371269" lon="11.137642891897235"><ele>609.5</ele><time>2026-05-01T06:38:06.001Z</time></trkpt><trkpt lat="47.29586275409384" lon="11.137313504573438"><ele>611.0</ele><time>2026-05-01T06:38:07Z</time></trkpt><trkpt lat="47.29600707692736" lon="11.136979206074288"><ele>611.0</ele><time>2026-05-01T06:38:08.001Z</time></trkpt><trkpt lat="47.2961517488212" lon="11.136643474809292"><ele>611.0</ele><time>2026-05-01T06:38:09Z</time></trkpt><trkpt lat="47.29629551795587" lon="11.136307239549806"><ele>610.5</ele><time>2026-05-01T06:38:10Z</time></trkpt><trkpt lat="47.29643973705424" lon="11.135969883979236"><ele>610.0</ele><time>2026-05-01T06:38:11.001Z</time></trkpt><trkpt lat="47.296582671029924" lon="11.135634834979825"><ele>610.0</ele><time>2026-05-01T06:38:12.001Z</time></trkpt><trkpt lat="47.29672687438917" lon="11.135300297162276"><ele>610.0</ele><time>2026-05-01T06:38:13.001Z</time></trkpt><trkpt lat="47.29687273598944" lon="11.134968159822481"><ele>610.0</ele><time>2026-05-01T06:38:14.001Z</time></trkpt><trkpt lat="47.297015155444186" lon="11.134633463316499"><ele>610.0</ele><time>2026-05-01T06:38:15.001Z</time></trkpt><trkpt lat="47.297155395458915" lon="11.134304250864846"><ele>610.5</ele><time>2026-05-01T06:38:16.001Z</time></trkpt><trkpt lat="47.297292962622315" lon="11.133973795299074"><ele>611.0</ele><time>2026-05-01T06:38:17.001Z</time></trkpt><trkpt lat="47.29742906221917" lon="11.133645471879502"><ele>611.0</ele><time>2026-05-01T06:38:18.001Z</time></trkpt><trkpt lat="47.29756477762703" lon="11.133321010004762"><ele>611.0</ele><time>2026-05-01T06:38:19.001Z</time></trkpt><trkpt lat="47.297701810392994" lon="11.133001103354223"><ele>610.5</ele><time>2026-05-01T06:38:20.001Z</time></trkpt><trkpt lat="47.29783734088937" lon="11.132682380744741"><ele>610.0</ele><time>2026-05-01T06:38:21.001Z</time></trkpt><trkpt lat="47.297972255454205" lon="11.132366818513036"><ele>610.5</ele><time>2026-05-01T06:38:22.001Z</time></trkpt><trkpt lat="47.29810568476243" lon="11.132056539871838"><ele>611.0</ele><time>2026-05-01T06:38:23.001Z</time></trkpt><trkpt lat="47.29823996803622" lon="11.131748367420386"><ele>611.5</ele><time>2026-05-01T06:38:24.001Z</time></trkpt><trkpt lat="47.29837133702182" lon="11.131442521463383"><ele>612.0</ele><time>2026-05-01T06:38:25.001Z</time></trkpt><trkpt lat="47.29850296295107" lon="11.13113608897598"><ele>612.0</ele><time>2026-05-01T06:38:26.001Z</time></trkpt><trkpt lat="47.29863360473797" lon="11.130826829779531"><ele>612.0</ele><time>2026-05-01T06:38:27.001Z</time></trkpt><trkpt lat="47.298765338180026" lon="11.130514231385588"><ele>611.5</ele><time>2026-05-01T06:38:28.001Z</time></trkpt><trkpt lat="47.29889859032377" lon="11.130200622922922"><ele>611.0</ele><time>2026-05-01T06:38:29.001Z</time></trkpt><trkpt lat="47.299033243422315" lon="11.12988443515142"><ele>612.5</ele><time>2026-05-01T06:38:30.001Z</time></trkpt><trkpt lat="47.29916817703076" lon="11.12956556738495"><ele>614.0</ele><time>2026-05-01T06:38:31.001Z</time></trkpt><trkpt lat="47.299306421797354" lon="11.12924453369989"><ele>613.0</ele><time>2026-05-01T06:38:32.001Z</time></trkpt><trkpt lat="47.29944655192342" lon="11.128922939547298"><ele>612.0</ele><time>2026-05-01T06:38:33.001Z</time></trkpt><trkpt lat="47.2995883554245" lon="11.128603289599452"><ele>612.0</ele><time>2026-05-01T06:38:34.001Z</time></trkpt><trkpt lat="47.299730885214785" lon="11.128282431901269"><ele>612.0</ele><time>2026-05-01T06:38:35.001Z</time></trkpt><trkpt lat="47.299875151207935" lon="11.127961132196118"><ele>613.5</ele><time>2026-05-01T06:38:36.001Z</time></trkpt><trkpt lat="47.30002168080626" lon="11.12764298524555"><ele>615.0</ele><time>2026-05-01T06:38:37.001Z</time></trkpt><trkpt lat="47.30017169991091" lon="11.127328164586064"><ele>615.0</ele><time>2026-05-01T06:38:38.001Z</time></trkpt><trkpt lat="47.300328606881266" lon="11.127019284861959"><ele>615.0</ele><time>2026-05-01T06:38:39.001Z</time></trkpt><trkpt lat="47.300490942474944" lon="11.12671438863985"><ele>615.0</ele><time>2026-05-01T06:38:40.001Z</time></trkpt><trkpt lat="47.30065934101664" lon="11.126413938364722"><ele>615.0</ele><time>2026-05-01T06:38:41.001Z</time></trkpt><trkpt lat="47.30083301566676" lon="11.126120401213214"><ele>615.0</ele><time>2026-05-01T06:38:42.001Z</time></trkpt><trkpt lat="47.30101114102615" lon="11.125833259818004"><ele>615.0</ele><time>2026-05-01T06:38:43.001Z</time></trkpt><trkpt lat="47.301196361763566" lon="11.125554804985631"><ele>615.0</ele><time>2026-05-01T06:38:44.001Z</time></trkpt><trkpt lat="47.301388979943354" lon="11.12528635525762"><ele>615.0</ele><time>2026-05-01T06:38:45.001Z</time></trkpt><trkpt lat="47.30158822281457" lon="11.125027973105459"><ele>614.5</ele><time>2026-05-01T06:38:46.001Z</time></trkpt><trkpt lat="47.30179123224897" lon="11.124777241659983"><ele>614.0</ele><time>2026-05-01T06:38:47.001Z</time></trkpt><trkpt lat="47.30199882162488" lon="11.124533051228608"><ele>614.0</ele><time>2026-05-01T06:38:48.001Z</time></trkpt><trkpt lat="47.302211269115226" lon="11.124296619229632"><ele>614.0</ele><time>2026-05-01T06:38:49.001Z</time></trkpt><trkpt lat="47.3024281513204" lon="11.124071746600247"><ele>614.5</ele><time>2026-05-01T06:38:50.001Z</time></trkpt><trkpt lat="47.30264944639537" lon="11.123857118221368"><ele>615.0</ele><time>2026-05-01T06:38:51.001Z</time></trkpt><trkpt lat="47.302869354663706" lon="11.123660602899884"><ele>613.5</ele><time>2026-05-01T06:38:52.001Z</time></trkpt><trkpt lat="47.30309366060745" lon="11.12346621816236"><ele>612.0</ele><time>2026-05-01T06:38:53.001Z</time></trkpt><trkpt lat="47.303327228466195" lon="11.123277452793443"><ele>612.0</ele><time>2026-05-01T06:38:54.001Z</time></trkpt><trkpt lat="47.30356743072276" lon="11.12309855792508"><ele>612.0</ele><time>2026-05-01T06:38:55.001Z</time></trkpt><trkpt lat="47.3038144670761" lon="11.122929904746082"><ele>613.5</ele><time>2026-05-01T06:38:56.001Z</time></trkpt><trkpt lat="47.30406374589042" lon="11.122772878878086"><ele>615.0</ele><time>2026-05-01T06:38:57.001Z</time></trkpt><trkpt lat="47.30431591355735" lon="11.122623841765254"><ele>615.0</ele><time>2026-05-01T06:38:58.001Z</time></trkpt><trkpt lat="47.30457205100033" lon="11.122483562211846"><ele>615.0</ele><time>2026-05-01T06:38:59.001Z</time></trkpt><trkpt lat="47.30483194317948" lon="11.122349243203821"><ele>614.5</ele><time>2026-05-01T06:39:00.001Z</time></trkpt><trkpt lat="47.305090223538336" lon="11.122218267990217"><ele>614.0</ele><time>2026-05-01T06:39:01.001Z</time></trkpt><trkpt lat="47.30534919941614" lon="11.122088882915241"><ele>614.5</ele><time>2026-05-01T06:39:02.001Z</time></trkpt><trkpt lat="47.305608300679566" lon="11.1219589646908"><ele>615.0</ele><time>2026-05-01T06:39:03.001Z</time></trkpt><trkpt lat="47.30586561379584" lon="11.121824528812624"><ele>615.0</ele><time>2026-05-01T06:39:04.001Z</time></trkpt><trkpt lat="47.30612287882684" lon="11.121688000535933"><ele>615.0</ele><time>2026-05-01T06:39:05.001Z</time></trkpt><trkpt lat="47.306376689510685" lon="11.121546435672146"><ele>614.5</ele><time>2026-05-01T06:39:06.001Z</time></trkpt><trkpt lat="47.30662713837332" lon="11.121400858681469"><ele>614.0</ele><time>2026-05-01T06:39:07.001Z</time></trkpt><trkpt lat="47.30687456685341" lon="11.121244163337337"><ele>614.0</ele><time>2026-05-01T06:39:08.001Z</time></trkpt><trkpt lat="47.30711758465458" lon="11.121075832058802"><ele>614.0</ele><time>2026-05-01T06:39:09.001Z</time></trkpt><trkpt lat="47.30735598828068" lon="11.120895065290698"><ele>613.5</ele><time>2026-05-01T06:39:10.001Z</time></trkpt><trkpt lat="47.30758905930818" lon="11.120705736939088"><ele>613.0</ele><time>2026-05-01T06:39:11.001Z</time></trkpt><trkpt lat="47.30781866593859" lon="11.120504701533157"><ele>613.0</ele><time>2026-05-01T06:39:12.001Z</time></trkpt><trkpt lat="47.30804354049299" lon="11.120291819421407"><ele>613.0</ele><time>2026-05-01T06:39:13.001Z</time></trkpt><trkpt lat="47.30826053261376" lon="11.120074727496508"><ele>614.0</ele><time>2026-05-01T06:39:14.001Z</time></trkpt><trkpt lat="47.308473667850905" lon="11.119844753684093"><ele>615.0</ele><time>2026-05-01T06:39:15.001Z</time></trkpt><trkpt lat="47.30868011409634" lon="11.11960735712207"><ele>615.0</ele><time>2026-05-01T06:39:16.001Z</time></trkpt><trkpt lat="47.30888218674926" lon="11.119359397437009"><ele>615.0</ele><time>2026-05-01T06:39:17.001Z</time></trkpt><trkpt lat="47.3090777779273" lon="11.119103681987996"><ele>616.0</ele><time>2026-05-01T06:39:18.001Z</time></trkpt><trkpt lat="47.30927046288615" lon="11.118840325107831"><ele>617.0</ele><time>2026-05-01T06:39:19.001Z</time></trkpt><trkpt lat="47.30945566308453" lon="11.118569350369768"><ele>617.0</ele><time>2026-05-01T06:39:20.001Z</time></trkpt><trkpt lat="47.309635037441794" lon="11.118289255214767"><ele>617.0</ele><time>2026-05-01T06:39:21.001Z</time></trkpt><trkpt lat="47.30981065581329" lon="11.117999980787356"><ele>615.5</ele><time>2026-05-01T06:39:22.001Z</time></trkpt><trkpt lat="47.30997965955454" lon="11.11769966474706"><ele>614.0</ele><time>2026-05-01T06:39:23.001Z</time></trkpt><trkpt lat="47.31014300507183" lon="11.117393510151054"><ele>614.0</ele><time>2026-05-01T06:39:24.001Z</time></trkpt><trkpt lat="47.31030205971922" lon="11.117076896775222"><ele>614.0</ele><time>2026-05-01T06:39:25.001Z</time></trkpt><trkpt lat="47.31045393198776" lon="11.11675787638217"><ele>618.5</ele><time>2026-05-01T06:39:26.001Z</time></trkpt><trkpt lat="47.31059889764314" lon="11.116425486230977"><ele>623.0</ele><time>2026-05-01T06:39:27.001Z</time></trkpt><trkpt lat="47.310734892270624" lon="11.116085878017325"><ele>623.0</ele><time>2026-05-01T06:39:28.001Z</time></trkpt><trkpt lat="47.31086372439877" lon="11.115741944174173"><ele>623.0</ele><time>2026-05-01T06:39:29.001Z</time></trkpt><trkpt lat="47.3109871751152" lon="11.115387522146758"><ele>620.0</ele><time>2026-05-01T06:39:30.001Z</time></trkpt><trkpt lat="47.31110410799433" lon="11.11503407036612"><ele>617.0</ele><time>2026-05-01T06:39:31.001Z</time></trkpt><trkpt lat="47.3112147248227" lon="11.114675301098481"><ele>616.5</ele><time>2026-05-01T06:39:32.001Z</time></trkpt><trkpt lat="47.311317978752605" lon="11.114314470258051"><ele>616.0</ele><time>2026-05-01T06:39:33.001Z</time></trkpt><trkpt lat="47.31141253714525" lon="11.113946958870589"><ele>617.5</ele><time>2026-05-01T06:39:34.001Z</time></trkpt><trkpt lat="47.31149990321062" lon="11.113576252678271"><ele>619.0</ele><time>2026-05-01T06:39:35.001Z</time></trkpt><trkpt lat="47.311577457646585" lon="11.113200806760078"><ele>619.0</ele><time>2026-05-01T06:39:36.001Z</time></trkpt><trkpt lat="47.3116458659167" lon="11.112819860825894"><ele>619.0</ele><time>2026-05-01T06:39:37.001Z</time></trkpt><trkpt lat="47.31170057298799" lon="11.112436836566568"><ele>619.0</ele><time>2026-05-01T06:39:38.001Z</time></trkpt><trkpt lat="47.31174969769055" lon="11.112051322713073"><ele>619.0</ele><time>2026-05-01T06:39:39.001Z</time></trkpt><trkpt lat="47.31179191226234" lon="11.11166516211794"><ele>618.5</ele><time>2026-05-01T06:39:40.001Z</time></trkpt><trkpt lat="47.3118290353817" lon="11.111280236947067"><ele>618.0</ele><time>2026-05-01T06:39:41.001Z</time></trkpt><trkpt lat="47.311858770444616" lon="11.110893833562079"><ele>618.0</ele><time>2026-05-01T06:39:42.001Z</time></trkpt><trkpt lat="47.31187981304325" lon="11.110505301123624"><ele>618.0</ele><time>2026-05-01T06:39:43.001Z</time></trkpt><trkpt lat="47.31189403530012" lon="11.11011485449315"><ele>618.0</ele><time>2026-05-01T06:39:44.001Z</time></trkpt><trkpt lat="47.311895877742394" lon="11.109727731867663"><ele>618.0</ele><time>2026-05-01T06:39:45.001Z</time></trkpt><trkpt lat="47.31188928837498" lon="11.109340159833897"><ele>618.0</ele><time>2026-05-01T06:39:46.001Z</time></trkpt><trkpt lat="47.311876307535265" lon="11.108951156207022"><ele>618.0</ele><time>2026-05-01T06:39:47.001Z</time></trkpt><trkpt lat="47.311852190993164" lon="11.10856875571846"><ele>618.5</ele><time>2026-05-01T06:39:48.001Z</time></trkpt><trkpt lat="47.31182296607323" lon="11.108182896242788"><ele>619.0</ele><time>2026-05-01T06:39:49.001Z</time></trkpt><trkpt lat="47.31178589357958" lon="11.107795803810966"><ele>619.0</ele><time>2026-05-01T06:39:50.001Z</time></trkpt><trkpt lat="47.31174634299046" lon="11.107411581670457"><ele>619.0</ele><time>2026-05-01T06:39:51.001Z</time></trkpt><trkpt lat="47.31169636487585" lon="11.107031417391676"><ele>619.5</ele><time>2026-05-01T06:39:52.001Z</time></trkpt><trkpt lat="47.311635071163685" lon="11.106657715804657"><ele>620.0</ele><time>2026-05-01T06:39:53.001Z</time></trkpt><trkpt lat="47.31156729088539" lon="11.106281190497807"><ele>619.5</ele><time>2026-05-01T06:39:54.001Z</time></trkpt><trkpt lat="47.311490854372025" lon="11.10591133571873"><ele>619.0</ele><time>2026-05-01T06:39:55.001Z</time></trkpt><trkpt lat="47.31140932891571" lon="11.105542125598161"><ele>620.5</ele><time>2026-05-01T06:39:56.001Z</time></trkpt><trkpt lat="47.31132055986645" lon="11.105172263761906"><ele>622.0</ele><time>2026-05-01T06:39:57.001Z</time></trkpt><trkpt lat="47.31123073653878" lon="11.104804086999495"><ele>622.0</ele><time>2026-05-01T06:39:58.001Z</time></trkpt><trkpt lat="47.311135565624404" lon="11.104438262858979"><ele>622.0</ele><time>2026-05-01T06:39:59.001Z</time></trkpt><trkpt lat="47.31103482279513" lon="11.104075020275557"><ele>622.0</ele><time>2026-05-01T06:40:00.001Z</time></trkpt><trkpt lat="47.31093611279474" lon="11.10371320425105"><ele>622.0</ele><time>2026-05-01T06:40:01.001Z</time></trkpt><trkpt lat="47.31083606406898" lon="11.103348727632227"><ele>621.0</ele><time>2026-05-01T06:40:02.001Z</time></trkpt><trkpt lat="47.31073558739963" lon="11.102983977539157"><ele>620.0</ele><time>2026-05-01T06:40:03Z</time></trkpt><trkpt lat="47.310634993770535" lon="11.102625602183045"><ele>619.0</ele><time>2026-05-01T06:40:04Z</time></trkpt><trkpt lat="47.310531545359154" lon="11.102267917083122"><ele>618.0</ele><time>2026-05-01T06:40:05Z</time></trkpt><trkpt lat="47.31042565765276" lon="11.101909688888258"><ele>617.5</ele><time>2026-05-01T06:40:06Z</time></trkpt><trkpt lat="47.31031649577311" lon="11.101557603265194"><ele>617.0</ele><time>2026-05-01T06:40:07Z</time></trkpt><trkpt lat="47.3102108039012" lon="11.101205376226265"><ele>617.0</ele><time>2026-05-01T06:40:08Z</time></trkpt><trkpt lat="47.31010464910658" lon="11.100853691580687"><ele>617.0</ele><time>2026-05-01T06:40:09Z</time></trkpt><trkpt lat="47.30999706083781" lon="11.100503620283094"><ele>617.0</ele><time>2026-05-01T06:40:10Z</time></trkpt><trkpt lat="47.30988776824242" lon="11.100155229809843"><ele>617.0</ele><time>2026-05-01T06:40:11Z</time></trkpt><trkpt lat="47.30977702976593" lon="11.09980743734415"><ele>616.5</ele><time>2026-05-01T06:40:12Z</time></trkpt><trkpt lat="47.309663774204026" lon="11.099459437480562"><ele>616.0</ele><time>2026-05-01T06:40:13Z</time></trkpt><trkpt lat="47.309547214748285" lon="11.099109359780087"><ele>617.0</ele><time>2026-05-01T06:40:14Z</time></trkpt><trkpt lat="47.309430347413304" lon="11.098762996620986"><ele>618.0</ele><time>2026-05-01T06:40:15Z</time></trkpt><trkpt lat="47.30930795724747" lon="11.098418725934314"><ele>617.5</ele><time>2026-05-01T06:40:16Z</time></trkpt><trkpt lat="47.30918497471281" lon="11.098075179389422"><ele>617.0</ele><time>2026-05-01T06:40:17Z</time></trkpt><trkpt lat="47.30906166347633" lon="11.097729248799093"><ele>617.0</ele><time>2026-05-01T06:40:18Z</time></trkpt><trkpt lat="47.308939788870525" lon="11.097386323189872"><ele>617.0</ele><time>2026-05-01T06:40:19Z</time></trkpt><trkpt lat="47.30881346296654" lon="11.097045991223487"><ele>617.5</ele><time>2026-05-01T06:40:20Z</time></trkpt><trkpt lat="47.30868486354199" lon="11.096702578609914"><ele>618.0</ele><time>2026-05-01T06:40:21Z</time></trkpt><trkpt lat="47.3085603969091" lon="11.096357267087418"><ele>618.0</ele><time>2026-05-01T06:40:22Z</time></trkpt><trkpt lat="47.308434529618" lon="11.09601237623684"><ele>618.0</ele><time>2026-05-01T06:40:23.001Z</time></trkpt><trkpt lat="47.30830755532733" lon="11.095660167317945"><ele>618.0</ele><time>2026-05-01T06:40:24.001Z</time></trkpt><trkpt lat="47.3081749594022" lon="11.095320343268323"><ele>618.0</ele><time>2026-05-01T06:40:25.001Z</time></trkpt><trkpt lat="47.3080432099796" lon="11.09497599582795"><ele>619.0</ele><time>2026-05-01T06:40:26.001Z</time></trkpt><trkpt lat="47.30791077119898" lon="11.094634341171052"><ele>620.0</ele><time>2026-05-01T06:40:27.001Z</time></trkpt><trkpt lat="47.30777647865655" lon="11.09429349805356"><ele>620.5</ele><time>2026-05-01T06:40:28.001Z</time></trkpt><trkpt lat="47.30763922064492" lon="11.093951964258633"><ele>621.0</ele><time>2026-05-01T06:40:29.001Z</time></trkpt><trkpt lat="47.307504862010845" lon="11.093609560859628"><ele>621.0</ele><time>2026-05-01T06:40:30.001Z</time></trkpt><trkpt lat="47.30737116883888" lon="11.0932670711385"><ele>621.0</ele><time>2026-05-01T06:40:31.001Z</time></trkpt><trkpt lat="47.30723761299623" lon="11.092925574268738"><ele>620.0</ele><time>2026-05-01T06:40:32.001Z</time></trkpt><trkpt lat="47.30710946294081" lon="11.092597311986168"><ele>619.0</ele><time>2026-05-01T06:40:33.001Z</time></trkpt><trkpt lat="47.306986178864314" lon="11.09228789854151"><ele>619.0</ele><time>2026-05-01T06:40:34.001Z</time></trkpt><trkpt lat="47.30686828005935" lon="11.091988949627506"><ele>619.0</ele><time>2026-05-01T06:40:35.001Z</time></trkpt><trkpt lat="47.306753069841164" lon="11.091689592192576"><ele>618.5</ele><time>2026-05-01T06:40:36.001Z</time></trkpt><trkpt lat="47.30663527821941" lon="11.091386803086248"><ele>618.0</ele><time>2026-05-01T06:40:37.001Z</time></trkpt><trkpt lat="47.30651660496148" lon="11.091085259588588"><ele>617.0</ele><time>2026-05-01T06:40:38.001Z</time></trkpt><trkpt lat="47.30639803901937" lon="11.090784984916018"><ele>616.0</ele><time>2026-05-01T06:40:39.001Z</time></trkpt><trkpt lat="47.306280116750834" lon="11.090484851511468"><ele>616.0</ele><time>2026-05-01T06:40:40.001Z</time></trkpt><trkpt lat="47.30616233539227" lon="11.090191251660537"><ele>616.0</ele><time>2026-05-01T06:40:41.001Z</time></trkpt><trkpt lat="47.30604337802366" lon="11.089899750023234"><ele>616.0</ele><time>2026-05-01T06:40:42.001Z</time></trkpt><trkpt lat="47.30592632413342" lon="11.089610799643904"><ele>616.0</ele><time>2026-05-01T06:40:43.001Z</time></trkpt><trkpt lat="47.30581017399201" lon="11.089324952138966"><ele>616.5</ele><time>2026-05-01T06:40:44.001Z</time></trkpt><trkpt lat="47.30569151120475" lon="11.089036027814112"><ele>617.0</ele><time>2026-05-01T06:40:45.001Z</time></trkpt><trkpt lat="47.30557801506857" lon="11.088750865064323"><ele>617.5</ele><time>2026-05-01T06:40:46.001Z</time></trkpt><trkpt lat="47.30546400261494" lon="11.088463180778703"><ele>618.0</ele><time>2026-05-01T06:40:47.001Z</time></trkpt><trkpt lat="47.305351173789376" lon="11.088176625362186"><ele>618.3333333333334</ele><time>2026-05-01T06:40:48.001Z</time></trkpt><trkpt lat="47.30523735615256" lon="11.087889360630669"><ele>618.6666666666667</ele><time>2026-05-01T06:40:49.001Z</time></trkpt><trkpt lat="47.30512550549225" lon="11.087605033760651"><ele>619.0</ele><time>2026-05-01T06:40:50.001Z</time></trkpt><trkpt lat="47.30501737283655" lon="11.087324904723564"><ele>619.0</ele><time>2026-05-01T06:40:51.001Z</time></trkpt><trkpt lat="47.30491072982197" lon="11.087046177460865"><ele>619.0</ele><time>2026-05-01T06:40:52.001Z</time></trkpt><trkpt lat="47.30480431759475" lon="11.086767615324694"><ele>619.0</ele><time>2026-05-01T06:40:53.001Z</time></trkpt><trkpt lat="47.30470072734214" lon="11.0864892904377"><ele>619.0</ele><time>2026-05-01T06:40:54.001Z</time></trkpt><trkpt lat="47.304597541845986" lon="11.086210088532628"><ele>619.0</ele><time>2026-05-01T06:40:55.001Z</time></trkpt><trkpt lat="47.304496681552564" lon="11.085930088149416"><ele>619.0</ele><time>2026-05-01T06:40:56.001Z</time></trkpt><trkpt lat="47.30439866212815" lon="11.08564944309745"><ele>619.0</ele><time>2026-05-01T06:40:57.001Z</time></trkpt><trkpt lat="47.304302554628684" lon="11.085364501861694"><ele>619.0</ele><time>2026-05-01T06:40:58.001Z</time></trkpt><trkpt lat="47.30420659810778" lon="11.085078180995147"><ele>619.0</ele><time>2026-05-01T06:40:59.001Z</time></trkpt><trkpt lat="47.30411115640916" lon="11.08478534765384"><ele>619.0</ele><time>2026-05-01T06:41:00.001Z</time></trkpt><trkpt lat="47.30401664403505" lon="11.084488856380787"><ele>619.0</ele><time>2026-05-01T06:41:01.001Z</time></trkpt><trkpt lat="47.30392385694913" lon="11.084190249801145"><ele>619.0</ele><time>2026-05-01T06:41:02.001Z</time></trkpt><trkpt lat="47.303833282648704" lon="11.083885802529965"><ele>620.5</ele><time>2026-05-01T06:41:03.001Z</time></trkpt><trkpt lat="47.30374539911466" lon="11.08357558487569"><ele>622.0</ele><time>2026-05-01T06:41:04.001Z</time></trkpt><trkpt lat="47.303661233957364" lon="11.083261888481955"><ele>622.5</ele><time>2026-05-01T06:41:05.001Z</time></trkpt><trkpt lat="47.30357692828743" lon="11.082942624425243"><ele>623.0</ele><time>2026-05-01T06:41:06.001Z</time></trkpt><trkpt lat="47.30349403421217" lon="11.082614763717094"><ele>623.5</ele><time>2026-05-01T06:41:07.001Z</time></trkpt><trkpt lat="47.30341180453681" lon="11.08229022354516"><ele>624.0</ele><time>2026-05-01T06:41:08.001Z</time></trkpt><trkpt lat="47.303332802709775" lon="11.081963410329553"><ele>624.0</ele><time>2026-05-01T06:41:09.001Z</time></trkpt><trkpt lat="47.30325628191837" lon="11.081632974443293"><ele>624.0</ele><time>2026-05-01T06:41:10.001Z</time></trkpt><trkpt lat="47.303184020329205" lon="11.0813030126293"><ele>623.0</ele><time>2026-05-01T06:41:11.001Z</time></trkpt><trkpt lat="47.303115624179526" lon="11.08097381346752"><ele>622.0</ele><time>2026-05-01T06:41:12.001Z</time></trkpt><trkpt lat="47.303049800954945" lon="11.080641482544067"><ele>621.5</ele><time>2026-05-01T06:41:13.001Z</time></trkpt><trkpt lat="47.30298730843782" lon="11.080308943279816"><ele>621.0</ele><time>2026-05-01T06:41:14.001Z</time></trkpt><trkpt lat="47.302927629686" lon="11.079975465492623"><ele>621.0</ele><time>2026-05-01T06:41:15.001Z</time></trkpt><trkpt lat="47.30287054371418" lon="11.079639138212862"><ele>621.0</ele><time>2026-05-01T06:41:16.001Z</time></trkpt><trkpt lat="47.302814311666204" lon="11.079295523358269"><ele>622.0</ele><time>2026-05-01T06:41:17.001Z</time></trkpt><trkpt lat="47.302758831539506" lon="11.078944693006777"><ele>623.0</ele><time>2026-05-01T06:41:18.001Z</time></trkpt><trkpt lat="47.30270580079054" lon="11.07859010463866"><ele>623.5</ele><time>2026-05-01T06:41:19.001Z</time></trkpt><trkpt lat="47.30265645902419" lon="11.078228070359582"><ele>624.0</ele><time>2026-05-01T06:41:20.001Z</time></trkpt><trkpt lat="47.30261024136458" lon="11.077856865363032"><ele>624.0</ele><time>2026-05-01T06:41:21.001Z</time></trkpt><trkpt lat="47.30256768315522" lon="11.077480958439725"><ele>624.0</ele><time>2026-05-01T06:41:22.001Z</time></trkpt><trkpt lat="47.30252763518832" lon="11.07709812061288"><ele>624.0</ele><time>2026-05-01T06:41:23.001Z</time></trkpt><trkpt lat="47.30249038946904" lon="11.07671231014935"><ele>624.0</ele><time>2026-05-01T06:41:24.001Z</time></trkpt><trkpt lat="47.30245365074515" lon="11.076324287700816"><ele>624.0</ele><time>2026-05-01T06:41:25.001Z</time></trkpt><trkpt lat="47.302414984810426" lon="11.075935621753342"><ele>624.0</ele><time>2026-05-01T06:41:26.001Z</time></trkpt><trkpt lat="47.30237480825552" lon="11.075546296091618"><ele>624.0</ele><time>2026-05-01T06:41:27.001Z</time></trkpt><trkpt lat="47.30233772413734" lon="11.07516070139653"><ele>624.0</ele><time>2026-05-01T06:41:28.001Z</time></trkpt><trkpt lat="47.3023097336565" lon="11.074794587876744"><ele>624.0</ele><time>2026-05-01T06:41:29.001Z</time></trkpt><trkpt lat="47.30227594636939" lon="11.074416632121016"><ele>624.0</ele><time>2026-05-01T06:41:30.001Z</time></trkpt><trkpt lat="47.30223793641123" lon="11.074027837946042"><ele>622.5</ele><time>2026-05-01T06:41:31.001Z</time></trkpt><trkpt lat="47.302203206595856" lon="11.073633963036453"><ele>621.0</ele><time>2026-05-01T06:41:32.001Z</time></trkpt><trkpt lat="47.30216720194497" lon="11.073242125540384"><ele>621.0</ele><time>2026-05-01T06:41:33.001Z</time></trkpt><trkpt lat="47.30212988956723" lon="11.072847352085745"><ele>621.0</ele><time>2026-05-01T06:41:34.001Z</time></trkpt><trkpt lat="47.30209355193975" lon="11.072452484286176"><ele>621.5</ele><time>2026-05-01T06:41:35.001Z</time></trkpt><trkpt lat="47.30205721788666" lon="11.072053507764121"><ele>622.0</ele><time>2026-05-01T06:41:36.001Z</time></trkpt><trkpt lat="47.30202106203042" lon="11.071658359592202"><ele>622.5</ele><time>2026-05-01T06:41:37.001Z</time></trkpt><trkpt lat="47.301983043357815" lon="11.071260325405198"><ele>623.0</ele><time>2026-05-01T06:41:38.001Z</time></trkpt><trkpt lat="47.3019456052082" lon="11.070864023720876"><ele>624.0</ele><time>2026-05-01T06:41:39.001Z</time></trkpt><trkpt lat="47.30190790654399" lon="11.070470255577582"><ele>625.0</ele><time>2026-05-01T06:41:40.001Z</time></trkpt><trkpt lat="47.30187101402639" lon="11.070076340240169"><ele>624.5</ele><time>2026-05-01T06:41:41.001Z</time></trkpt><trkpt lat="47.30183214054973" lon="11.06968548964083"><ele>624.0</ele><time>2026-05-01T06:41:42.001Z</time></trkpt><trkpt lat="47.30179266141022" lon="11.06929648924212"><ele>624.0</ele><time>2026-05-01T06:41:43.001Z</time></trkpt><trkpt lat="47.30175402412338" lon="11.068910250335808"><ele>624.0</ele><time>2026-05-01T06:41:44.001Z</time></trkpt><trkpt lat="47.301712652045445" lon="11.068527414357135"><ele>626.0</ele><time>2026-05-01T06:41:45.001Z</time></trkpt><trkpt lat="47.30166758698219" lon="11.068152325446798"><ele>628.0</ele><time>2026-05-01T06:41:46.001Z</time></trkpt><trkpt lat="47.301622591232395" lon="11.067776875179666"><ele>628.5</ele><time>2026-05-01T06:41:47.001Z</time></trkpt><trkpt lat="47.30157086714103" lon="11.067402487974856"><ele>629.0</ele><time>2026-05-01T06:41:48.001Z</time></trkpt><trkpt lat="47.301513422252704" lon="11.06703417611554"><ele>629.0</ele><time>2026-05-01T06:41:49.001Z</time></trkpt><trkpt lat="47.30145275246242" lon="11.06667087519548"><ele>629.0</ele><time>2026-05-01T06:41:50.001Z</time></trkpt><trkpt lat="47.30139154468842" lon="11.066311829083581"><ele>627.0</ele><time>2026-05-01T06:41:51.001Z</time></trkpt><trkpt lat="47.301330960364986" lon="11.065970160223166"><ele>625.0</ele><time>2026-05-01T06:41:52.001Z</time></trkpt><trkpt lat="47.30126741025791" lon="11.0656295381016"><ele>625.0</ele><time>2026-05-01T06:41:53.001Z</time></trkpt><trkpt lat="47.30119116504118" lon="11.06528551393711"><ele>625.0</ele><time>2026-05-01T06:41:54.001Z</time></trkpt><trkpt lat="47.301106963519096" lon="11.064932848959751"><ele>624.5</ele><time>2026-05-01T06:41:55.001Z</time></trkpt><trkpt lat="47.30101986926349" lon="11.064572580902789"><ele>624.0</ele><time>2026-05-01T06:41:56.001Z</time></trkpt><trkpt lat="47.30092696417789" lon="11.064207749516239"><ele>624.0</ele><time>2026-05-01T06:41:57.001Z</time></trkpt><trkpt lat="47.30082947118558" lon="11.063840893446956"><ele>624.0</ele><time>2026-05-01T06:41:58.001Z</time></trkpt><trkpt lat="47.3007689434964" lon="11.063478586985438"><ele>624.0</ele><time>2026-05-01T06:41:59.001Z</time></trkpt><trkpt lat="47.300675818055936" lon="11.063106887980117"><ele>624.0</ele><time>2026-05-01T06:42:00.001Z</time></trkpt><trkpt lat="47.30057952051653" lon="11.062751787799042"><ele>625.0</ele><time>2026-05-01T06:42:01.001Z</time></trkpt><trkpt lat="47.300483152319956" lon="11.06239719526236"><ele>626.0</ele><time>2026-05-01T06:42:02.001Z</time></trkpt><trkpt lat="47.30037972429404" lon="11.062041631672253"><ele>626.0</ele><time>2026-05-01T06:42:03.001Z</time></trkpt><trkpt lat="47.30026936707626" lon="11.061683913123249"><ele>626.0</ele><time>2026-05-01T06:42:04.001Z</time></trkpt><trkpt lat="47.30015957286256" lon="11.061326754368233"><ele>625.5</ele><time>2026-05-01T06:42:05.001Z</time></trkpt><trkpt lat="47.3000465613626" lon="11.060972650481155"><ele>625.0</ele><time>2026-05-01T06:42:06.001Z</time></trkpt><trkpt lat="47.29993363346373" lon="11.060625690211138"><ele>624.0</ele><time>2026-05-01T06:42:07.001Z</time></trkpt><trkpt lat="47.299815963779785" lon="11.060281109853669"><ele>623.0</ele><time>2026-05-01T06:42:08.001Z</time></trkpt><trkpt lat="47.29969270345405" lon="11.059941283959635"><ele>625.0</ele><time>2026-05-01T06:42:09Z</time></trkpt><trkpt lat="47.299566968640605" lon="11.059603104993807"><ele>627.0</ele><time>2026-05-01T06:42:10Z</time></trkpt><trkpt lat="47.299435022999035" lon="11.059267238865168"><ele>626.5</ele><time>2026-05-01T06:42:11Z</time></trkpt><trkpt lat="47.29930491353177" lon="11.0589251654185"><ele>626.0</ele><time>2026-05-01T06:42:12Z</time></trkpt><trkpt lat="47.29917261411114" lon="11.058592117790626"><ele>626.5</ele><time>2026-05-01T06:42:13Z</time></trkpt><trkpt lat="47.299040294970816" lon="11.058258608913935"><ele>627.0</ele><time>2026-05-01T06:42:14Z</time></trkpt><trkpt lat="47.298912868375545" lon="11.057918626810114"><ele>625.5</ele><time>2026-05-01T06:42:15Z</time></trkpt><trkpt lat="47.29878790872769" lon="11.057583235014489"><ele>624.0</ele><time>2026-05-01T06:42:16Z</time></trkpt><trkpt lat="47.298656358245324" lon="11.057248223549978"><ele>624.0</ele><time>2026-05-01T06:42:17Z</time></trkpt><trkpt lat="47.29853342781801" lon="11.056907716501826"><ele>624.0</ele><time>2026-05-01T06:42:18Z</time></trkpt><trkpt lat="47.29840876423709" lon="11.056577971076328"><ele>623.5</ele><time>2026-05-01T06:42:19Z</time></trkpt><trkpt lat="47.29827823934442" lon="11.056239744312153"><ele>623.0</ele><time>2026-05-01T06:42:20Z</time></trkpt><trkpt lat="47.29814478518685" lon="11.05589537849784"><ele>625.0</ele><time>2026-05-01T06:42:21Z</time></trkpt><trkpt lat="47.29801599000545" lon="11.055556265063627"><ele>627.0</ele><time>2026-05-01T06:42:22Z</time></trkpt><trkpt lat="47.29789096599822" lon="11.055218858141513"><ele>628.5</ele><time>2026-05-01T06:42:23Z</time></trkpt><trkpt lat="47.29776271019167" lon="11.054880262141491"><ele>630.0</ele><time>2026-05-01T06:42:24Z</time></trkpt><trkpt lat="47.29763565577791" lon="11.05454391349577"><ele>630.0</ele><time>2026-05-01T06:42:25Z</time></trkpt><trkpt lat="47.29750669072214" lon="11.054205640185536"><ele>630.0</ele><time>2026-05-01T06:42:26Z</time></trkpt><trkpt lat="47.29738369142528" lon="11.053857362248314"><ele>630.5</ele><time>2026-05-01T06:42:27Z</time></trkpt><trkpt lat="47.29727144482748" lon="11.05350916129275"><ele>631.0</ele><time>2026-05-01T06:42:28Z</time></trkpt><trkpt lat="47.29716852554854" lon="11.053145556363217"><ele>628.5</ele><time>2026-05-01T06:42:29Z</time></trkpt><trkpt lat="47.29707408070704" lon="11.05277989415232"><ele>626.0</ele><time>2026-05-01T06:42:30Z</time></trkpt><trkpt lat="47.296980759376055" lon="11.052405773875254"><ele>626.0</ele><time>2026-05-01T06:42:31Z</time></trkpt><trkpt lat="47.2968921306785" lon="11.052036323125238"><ele>626.0</ele><time>2026-05-01T06:42:32Z</time></trkpt><trkpt lat="47.296814388653054" lon="11.05164693557959"><ele>626.5</ele><time>2026-05-01T06:42:33Z</time></trkpt><trkpt lat="47.296752395985635" lon="11.051254045081683"><ele>627.0</ele><time>2026-05-01T06:42:34.001Z</time></trkpt><trkpt lat="47.296702967634864" lon="11.050862037800137"><ele>627.0</ele><time>2026-05-01T06:42:35.001Z</time></trkpt><trkpt lat="47.29665994129955" lon="11.05046385670893"><ele>627.0</ele><time>2026-05-01T06:42:36.001Z</time></trkpt><trkpt lat="47.29662959797583" lon="11.05006325313383"><ele>627.0</ele><time>2026-05-01T06:42:37.001Z</time></trkpt><trkpt lat="47.29660935871281" lon="11.049662768149512"><ele>627.0</ele><time>2026-05-01T06:42:38.001Z</time></trkpt><trkpt lat="47.296592701618714" lon="11.04926029631076"><ele>627.0</ele><time>2026-05-01T06:42:39.001Z</time></trkpt><trkpt lat="47.296573845071514" lon="11.048857332512878"><ele>627.0</ele><time>2026-05-01T06:42:40.001Z</time></trkpt><trkpt lat="47.29655945566363" lon="11.04845971466992"><ele>626.5</ele><time>2026-05-01T06:42:41.001Z</time></trkpt><trkpt lat="47.29655718271859" lon="11.048062513986235"><ele>626.0</ele><time>2026-05-01T06:42:42.001Z</time></trkpt><trkpt lat="47.29655671222091" lon="11.047661659642124"><ele>626.0</ele><time>2026-05-01T06:42:43.001Z</time></trkpt><trkpt lat="47.29654853997765" lon="11.047262164711906"><ele>626.0</ele><time>2026-05-01T06:42:44.001Z</time></trkpt><trkpt lat="47.29653739520017" lon="11.046872568071995"><ele>626.5</ele><time>2026-05-01T06:42:45.001Z</time></trkpt><trkpt lat="47.296519593839136" lon="11.046482618840532"><ele>627.0</ele><time>2026-05-01T06:42:46.001Z</time></trkpt><trkpt lat="47.2965032958103" lon="11.046100022791732"><ele>627.0</ele><time>2026-05-01T06:42:47.001Z</time></trkpt><trkpt lat="47.29650222747625" lon="11.045759258908577"><ele>627.0</ele><time>2026-05-01T06:42:48.001Z</time></trkpt><trkpt lat="47.29650294144057" lon="11.045446596077015"><ele>627.0</ele><time>2026-05-01T06:42:49.001Z</time></trkpt><trkpt lat="47.29651236849179" lon="11.045143538694067"><ele>626.0</ele><time>2026-05-01T06:42:50.001Z</time></trkpt><trkpt lat="47.296400770875586" lon="11.044592012860985"><ele>625.0</ele><time>2026-05-01T06:42:51.001Z</time></trkpt><trkpt lat="47.29636558676291" lon="11.04421076431446"><ele>625.5</ele><time>2026-05-01T06:42:52.001Z</time></trkpt><trkpt lat="47.296330631135504" lon="11.043829914901579"><ele>626.0</ele><time>2026-05-01T06:42:53.001Z</time></trkpt><trkpt lat="47.29628863464074" lon="11.04344278757356"><ele>626.5</ele><time>2026-05-01T06:42:54.001Z</time></trkpt><trkpt lat="47.296243955502" lon="11.043059114281506"><ele>627.0</ele><time>2026-05-01T06:42:55.001Z</time></trkpt><trkpt lat="47.29618778719802" lon="11.042679388647962"><ele>627.0</ele><time>2026-05-01T06:42:56.001Z</time></trkpt><trkpt lat="47.296131498223986" lon="11.042305080018371"><ele>627.0</ele><time>2026-05-01T06:42:57.001Z</time></trkpt><trkpt lat="47.29606597395061" lon="11.041934357272362"><ele>626.0</ele><time>2026-05-01T06:42:58.001Z</time></trkpt><trkpt lat="47.295995544411426" lon="11.041560498972489"><ele>625.0</ele><time>2026-05-01T06:42:59.001Z</time></trkpt><trkpt lat="47.29592061970372" lon="11.041193102162682"><ele>625.0</ele><time>2026-05-01T06:43:00.001Z</time></trkpt><trkpt lat="47.29584890824684" lon="11.0408181340287"><ele>625.0</ele><time>2026-05-01T06:43:01.001Z</time></trkpt><trkpt lat="47.29577133480017" lon="11.040443667837582"><ele>624.0</ele><time>2026-05-01T06:43:02.001Z</time></trkpt><trkpt lat="47.29570588733086" lon="11.040063440704907"><ele>623.0</ele><time>2026-05-01T06:43:03.001Z</time></trkpt><trkpt lat="47.29564695570744" lon="11.039683594143495"><ele>624.5</ele><time>2026-05-01T06:43:04.001Z</time></trkpt><trkpt lat="47.29557862496837" lon="11.039299611894728"><ele>626.0</ele><time>2026-05-01T06:43:05.001Z</time></trkpt><trkpt lat="47.29550341885936" lon="11.038919563673655"><ele>626.0</ele><time>2026-05-01T06:43:06.001Z</time></trkpt><trkpt lat="47.29543096244273" lon="11.038534935286204"><ele>626.0</ele><time>2026-05-01T06:43:07.001Z</time></trkpt><trkpt lat="47.29535595319971" lon="11.038159711345914"><ele>627.0</ele><time>2026-05-01T06:43:08.001Z</time></trkpt><trkpt lat="47.29528344941275" lon="11.037786524715173"><ele>628.0</ele><time>2026-05-01T06:43:09.001Z</time></trkpt><trkpt lat="47.29521185759755" lon="11.037415411884416"><ele>629.5</ele><time>2026-05-01T06:43:10.001Z</time></trkpt><trkpt lat="47.29514436158486" lon="11.037035247565527"><ele>631.0</ele><time>2026-05-01T06:43:11.001Z</time></trkpt><trkpt lat="47.29507626608845" lon="11.036661230907242"><ele>631.0</ele><time>2026-05-01T06:43:12.001Z</time></trkpt><trkpt lat="47.2950320657347" lon="11.036275532033688"><ele>631.0</ele><time>2026-05-01T06:43:13.001Z</time></trkpt><trkpt lat="47.29497111486998" lon="11.035899508784617"><ele>629.5</ele><time>2026-05-01T06:43:14.001Z</time></trkpt><trkpt lat="47.29491328587203" lon="11.035521886990887"><ele>628.0</ele><time>2026-05-01T06:43:15.001Z</time></trkpt><trkpt lat="47.294855822201654" lon="11.035141230134167"><ele>627.5</ele><time>2026-05-01T06:43:16.001Z</time></trkpt><trkpt lat="47.29480021718271" lon="11.034761279320659"><ele>627.0</ele><time>2026-05-01T06:43:17.001Z</time></trkpt><trkpt lat="47.29474426565952" lon="11.034382952577435"><ele>627.5</ele><time>2026-05-01T06:43:18.001Z</time></trkpt><trkpt lat="47.294694585377826" lon="11.03399909361068"><ele>628.0</ele><time>2026-05-01T06:43:19.001Z</time></trkpt><trkpt lat="47.2946420354417" lon="11.033622116916588"><ele>628.5</ele><time>2026-05-01T06:43:20.001Z</time></trkpt><trkpt lat="47.294593651000255" lon="11.033239416964298"><ele>629.0</ele><time>2026-05-01T06:43:21.001Z</time></trkpt><trkpt lat="47.29454477024918" lon="11.032858262925416"><ele>629.0</ele><time>2026-05-01T06:43:22.001Z</time></trkpt><trkpt lat="47.29449779195752" lon="11.032474045150492"><ele>629.0</ele><time>2026-05-01T06:43:23.001Z</time></trkpt><trkpt lat="47.29444889058374" lon="11.032096597349485"><ele>628.5</ele><time>2026-05-01T06:43:24.001Z</time></trkpt><trkpt lat="47.294404116783895" lon="11.03171270185429"><ele>628.0</ele><time>2026-05-01T06:43:25.001Z</time></trkpt><trkpt lat="47.29435836381608" lon="11.031334535963817"><ele>628.0</ele><time>2026-05-01T06:43:26.001Z</time></trkpt><trkpt lat="47.29431546033161" lon="11.030954023867412"><ele>628.0</ele><time>2026-05-01T06:43:27.001Z</time></trkpt><trkpt lat="47.29426945713748" lon="11.030577422451895"><ele>628.5</ele><time>2026-05-01T06:43:28.001Z</time></trkpt><trkpt lat="47.2942294473451" lon="11.03019587770282"><ele>629.0</ele><time>2026-05-01T06:43:29.001Z</time></trkpt><trkpt lat="47.29419194751251" lon="11.029814225597228"><ele>630.0</ele><time>2026-05-01T06:43:30.001Z</time></trkpt><trkpt lat="47.294153992472275" lon="11.02943874976755"><ele>631.0</ele><time>2026-05-01T06:43:31.001Z</time></trkpt><trkpt lat="47.29411582612479" lon="11.029055063715443"><ele>631.5</ele><time>2026-05-01T06:43:32.001Z</time></trkpt><trkpt lat="47.294075392383924" lon="11.028674951902977"><ele>632.0</ele><time>2026-05-01T06:43:33.001Z</time></trkpt><trkpt lat="47.294033737749714" lon="11.028291366399408"><ele>632.0</ele><time>2026-05-01T06:43:34.001Z</time></trkpt><trkpt lat="47.29398684486121" lon="11.02791567657434"><ele>632.0</ele><time>2026-05-01T06:43:35.001Z</time></trkpt><trkpt lat="47.293941097541314" lon="11.027535512107074"><ele>631.5</ele><time>2026-05-01T06:43:36.001Z</time></trkpt><trkpt lat="47.293892826596526" lon="11.027159088926048"><ele>631.0</ele><time>2026-05-01T06:43:37.001Z</time></trkpt><trkpt lat="47.29384124418305" lon="11.026777979083317"><ele>631.5</ele><time>2026-05-01T06:43:38.001Z</time></trkpt><trkpt lat="47.293783026456474" lon="11.026403374980584"><ele>632.0</ele><time>2026-05-01T06:43:39.001Z</time></trkpt><trkpt lat="47.29371991288234" lon="11.026029644305243"><ele>630.0</ele><time>2026-05-01T06:43:40.001Z</time></trkpt><trkpt lat="47.29364994293935" lon="11.025652532863012"><ele>628.0</ele><time>2026-05-01T06:43:41.001Z</time></trkpt><trkpt lat="47.29357957429682" lon="11.025282429463925"><ele>629.5</ele><time>2026-05-01T06:43:42.001Z</time></trkpt><trkpt lat="47.293499609280545" lon="11.02491560784288"><ele>631.0</ele><time>2026-05-01T06:43:43.001Z</time></trkpt><trkpt lat="47.293415608561" lon="11.024553043313084"><ele>631.0</ele><time>2026-05-01T06:43:44.001Z</time></trkpt><trkpt lat="47.2933238575804" lon="11.024186828616665"><ele>631.0</ele><time>2026-05-01T06:43:45.001Z</time></trkpt><trkpt lat="47.29322648251124" lon="11.023825424002855"><ele>630.5</ele><time>2026-05-01T06:43:46.001Z</time></trkpt><trkpt lat="47.29312606769327" lon="11.02346408459822"><ele>630.0</ele><time>2026-05-01T06:43:47.001Z</time></trkpt><trkpt lat="47.293020066073716" lon="11.023100920516585"><ele>630.0</ele><time>2026-05-01T06:43:48.001Z</time></trkpt><trkpt lat="47.292909020547754" lon="11.022734891006019"><ele>630.0</ele><time>2026-05-01T06:43:49.001Z</time></trkpt><trkpt lat="47.29279385796663" lon="11.022379793006726"><ele>630.5</ele><time>2026-05-01T06:43:50.001Z</time></trkpt><trkpt lat="47.29267519154716" lon="11.022010837274241"><ele>631.0</ele><time>2026-05-01T06:43:51.001Z</time></trkpt><trkpt lat="47.292556802832564" lon="11.021649992309044"><ele>629.5</ele><time>2026-05-01T06:43:52.001Z</time></trkpt><trkpt lat="47.292442140040805" lon="11.021284224241949"><ele>628.0</ele><time>2026-05-01T06:43:53.001Z</time></trkpt><trkpt lat="47.29232808534932" lon="11.020918847258399"><ele>628.5</ele><time>2026-05-01T06:43:54.001Z</time></trkpt><trkpt lat="47.29221600180753" lon="11.020557172641922"><ele>629.0</ele><time>2026-05-01T06:43:55.001Z</time></trkpt><trkpt lat="47.29210364379131" lon="11.020187708768317"><ele>629.0</ele><time>2026-05-01T06:43:56.001Z</time></trkpt><trkpt lat="47.29199220317528" lon="11.019826154858869"><ele>629.0</ele><time>2026-05-01T06:43:57.001Z</time></trkpt><trkpt lat="47.29188102599108" lon="11.019469342087724"><ele>629.0</ele><time>2026-05-01T06:43:58.001Z</time></trkpt><trkpt lat="47.29177107961704" lon="11.019101174972384"><ele>629.0</ele><time>2026-05-01T06:43:59.001Z</time></trkpt><trkpt lat="47.29166187570576" lon="11.018747599554649"><ele>629.0</ele><time>2026-05-01T06:44:00.001Z</time></trkpt><trkpt lat="47.29155473598165" lon="11.018385227257903"><ele>629.0</ele><time>2026-05-01T06:44:01.001Z</time></trkpt><trkpt lat="47.29145206809012" lon="11.01802235947335"><ele>630.0</ele><time>2026-05-01T06:44:02.001Z</time></trkpt><trkpt lat="47.29134834232225" lon="11.017656858191154"><ele>631.0</ele><time>2026-05-01T06:44:03.001Z</time></trkpt><trkpt lat="47.2912480255016" lon="11.017295270521855"><ele>631.0</ele><time>2026-05-01T06:44:04.001Z</time></trkpt><trkpt lat="47.291148867299626" lon="11.01693742793821"><ele>631.0</ele><time>2026-05-01T06:44:05.001Z</time></trkpt><trkpt lat="47.29105081609634" lon="11.01657132268812"><ele>630.5</ele><time>2026-05-01T06:44:06.001Z</time></trkpt><trkpt lat="47.29095419166782" lon="11.016205904714536"><ele>630.0</ele><time>2026-05-01T06:44:07.001Z</time></trkpt><trkpt lat="47.290861980985866" lon="11.015838969348309"><ele>630.5</ele><time>2026-05-01T06:44:08.001Z</time></trkpt><trkpt lat="47.29077082223995" lon="11.01547356956683"><ele>631.0</ele><time>2026-05-01T06:44:09.001Z</time></trkpt><trkpt lat="47.2906830903216" lon="11.015104508773222"><ele>632.0</ele><time>2026-05-01T06:44:10.001Z</time></trkpt><trkpt lat="47.29059443016284" lon="11.01473759032554"><ele>633.0</ele><time>2026-05-01T06:44:11.001Z</time></trkpt><trkpt lat="47.29050426925814" lon="11.014365228939877"><ele>632.0</ele><time>2026-05-01T06:44:12.001Z</time></trkpt><trkpt lat="47.290413750554414" lon="11.014000199591157"><ele>631.0</ele><time>2026-05-01T06:44:13.001Z</time></trkpt><trkpt lat="47.29032811448125" lon="11.013627542731157"><ele>631.5</ele><time>2026-05-01T06:44:14.001Z</time></trkpt><trkpt lat="47.290243607250254" lon="11.013257401878473"><ele>632.0</ele><time>2026-05-01T06:44:15Z</time></trkpt><trkpt lat="47.290158937250716" lon="11.012879645479256"><ele>632.0</ele><time>2026-05-01T06:44:16Z</time></trkpt><trkpt lat="47.290077429143" lon="11.012501064313039"><ele>632.0</ele><time>2026-05-01T06:44:17Z</time></trkpt><trkpt lat="47.28999589471254" lon="11.012131075214027"><ele>632.0</ele><time>2026-05-01T06:44:18Z</time></trkpt><trkpt lat="47.28991449623595" lon="11.011748426253419"><ele>632.0</ele><time>2026-05-01T06:44:19Z</time></trkpt><trkpt lat="47.28983746399499" lon="11.011384495488898"><ele>632.0</ele><time>2026-05-01T06:44:20Z</time></trkpt><trkpt lat="47.289764949004464" lon="11.011026618216606"><ele>632.0</ele><time>2026-05-01T06:44:21Z</time></trkpt><trkpt lat="47.28969094754896" lon="11.01065532550535"><ele>632.0</ele><time>2026-05-01T06:44:22Z</time></trkpt><trkpt lat="47.289620094702535" lon="11.010275191491969"><ele>632.0</ele><time>2026-05-01T06:44:23Z</time></trkpt><trkpt lat="47.28955344534077" lon="11.00990069045808"><ele>632.5</ele><time>2026-05-01T06:44:24Z</time></trkpt><trkpt lat="47.28948013058001" lon="11.009509972281649"><ele>633.0</ele><time>2026-05-01T06:44:25Z</time></trkpt><trkpt lat="47.28941140449584" lon="11.00912322139857"><ele>633.5</ele><time>2026-05-01T06:44:26Z</time></trkpt><trkpt lat="47.289343624952" lon="11.00874132358508"><ele>634.0</ele><time>2026-05-01T06:44:27Z</time></trkpt><trkpt lat="47.289273701423824" lon="11.008355103996138"><ele>634.0</ele><time>2026-05-01T06:44:28Z</time></trkpt><trkpt lat="47.28920381971689" lon="11.007966987782874"><ele>634.0</ele><time>2026-05-01T06:44:29Z</time></trkpt><trkpt lat="47.28913629791461" lon="11.00758681443897"><ele>632.0</ele><time>2026-05-01T06:44:30Z</time></trkpt><trkpt lat="47.28906822348851" lon="11.007205490898592"><ele>630.0</ele><time>2026-05-01T06:44:31Z</time></trkpt><trkpt lat="47.28899760137905" lon="11.006816243629519"><ele>630.0</ele><time>2026-05-01T06:44:32Z</time></trkpt><trkpt lat="47.2889301048944" lon="11.006430947521395"><ele>630.0</ele><time>2026-05-01T06:44:33Z</time></trkpt><trkpt lat="47.28886152942658" lon="11.00605068613734"><ele>631.0</ele><time>2026-05-01T06:44:34Z</time></trkpt><trkpt lat="47.28879494497594" lon="11.005666221412534"><ele>632.0</ele><time>2026-05-01T06:44:35Z</time></trkpt><trkpt lat="47.28872638049554" lon="11.00528381047351"><ele>631.5</ele><time>2026-05-01T06:44:36Z</time></trkpt><trkpt lat="47.288657691587446" lon="11.004908446302945"><ele>631.0</ele><time>2026-05-01T06:44:37Z</time></trkpt><trkpt lat="47.2885898803719" lon="11.00452620151355"><ele>632.5</ele><time>2026-05-01T06:44:38Z</time></trkpt><trkpt lat="47.28852283331438" lon="11.004147693015106"><ele>634.0</ele><time>2026-05-01T06:44:39Z</time></trkpt><trkpt lat="47.28845357429005" lon="11.003766793066692"><ele>634.0</ele><time>2026-05-01T06:44:40Z</time></trkpt><trkpt lat="47.28838831267979" lon="11.003387471963785"><ele>634.0</ele><time>2026-05-01T06:44:41Z</time></trkpt><trkpt lat="47.288321204439285" lon="11.00300692791257"><ele>634.5</ele><time>2026-05-01T06:44:42.001Z</time></trkpt><trkpt lat="47.28825443253025" lon="11.002627139734617"><ele>635.0</ele><time>2026-05-01T06:44:43.001Z</time></trkpt><trkpt lat="47.288185718219715" lon="11.002243949465283"><ele>635.5</ele><time>2026-05-01T06:44:44.001Z</time></trkpt><trkpt lat="47.28811681069443" lon="11.001865727137478"><ele>636.0</ele><time>2026-05-01T06:44:45.001Z</time></trkpt><trkpt lat="47.28804731831211" lon="11.00147958673392"><ele>635.5</ele><time>2026-05-01T06:44:46.001Z</time></trkpt><trkpt lat="47.28797798482451" lon="11.001097464085483"><ele>635.0</ele><time>2026-05-01T06:44:47.001Z</time></trkpt><trkpt lat="47.287909393476504" lon="11.000715941417733"><ele>635.0</ele><time>2026-05-01T06:44:48.001Z</time></trkpt><trkpt lat="47.287841960781385" lon="11.000334382876515"><ele>635.0</ele><time>2026-05-01T06:44:49.001Z</time></trkpt><trkpt lat="47.287772829691015" lon="10.999952198182735"><ele>635.0</ele><time>2026-05-01T06:44:50.001Z</time></trkpt><trkpt lat="47.28770516184403" lon="10.999570430654169"><ele>635.0</ele><time>2026-05-01T06:44:51.001Z</time></trkpt><trkpt lat="47.287639592234605" lon="10.9991907921906"><ele>635.0</ele><time>2026-05-01T06:44:52.001Z</time></trkpt><trkpt lat="47.28757228701082" lon="10.998812776877196"><ele>635.0</ele><time>2026-05-01T06:44:53.001Z</time></trkpt><trkpt lat="47.287505751381225" lon="10.99843697668784"><ele>634.5</ele><time>2026-05-01T06:44:54.001Z</time></trkpt><trkpt lat="47.28743674699932" lon="10.99805708739688"><ele>634.0</ele><time>2026-05-01T06:44:55.001Z</time></trkpt><trkpt lat="47.287368012175946" lon="10.997677407507506"><ele>635.0</ele><time>2026-05-01T06:44:56.001Z</time></trkpt><trkpt lat="47.2873017453813" lon="10.997304147691134"><ele>636.0</ele><time>2026-05-01T06:44:57.001Z</time></trkpt><trkpt lat="47.28723363719711" lon="10.99692695336401"><ele>636.5</ele><time>2026-05-01T06:44:58.001Z</time></trkpt><trkpt lat="47.28716765601218" lon="10.99655600664289"><ele>637.0</ele><time>2026-05-01T06:44:59.001Z</time></trkpt><trkpt lat="47.287097732161214" lon="10.996172068762041"><ele>638.0</ele><time>2026-05-01T06:45:00.001Z</time></trkpt><trkpt lat="47.28702869475057" lon="10.995792748808112"><ele>639.0</ele><time>2026-05-01T06:45:01.001Z</time></trkpt><trkpt lat="47.28696228167355" lon="10.995420430280609"><ele>639.0</ele><time>2026-05-01T06:45:02.001Z</time></trkpt><trkpt lat="47.286895029823334" lon="10.995042742019104"><ele>639.0</ele><time>2026-05-01T06:45:03.001Z</time></trkpt><trkpt lat="47.28682541779202" lon="10.994665959188843"><ele>639.0</ele><time>2026-05-01T06:45:04.001Z</time></trkpt><trkpt lat="47.28675706090599" lon="10.994292282109543"><ele>639.0</ele><time>2026-05-01T06:45:05.001Z</time></trkpt><trkpt lat="47.28668895841479" lon="10.993917720596425"><ele>638.5</ele><time>2026-05-01T06:45:06.001Z</time></trkpt><trkpt lat="47.286621655400445" lon="10.993543009451946"><ele>638.0</ele><time>2026-05-01T06:45:07.001Z</time></trkpt><trkpt lat="47.286554161395394" lon="10.993169800719025"><ele>638.0</ele><time>2026-05-01T06:45:08.001Z</time></trkpt><trkpt lat="47.28648826720221" lon="10.992795404846309"><ele>638.0</ele><time>2026-05-01T06:45:09.001Z</time></trkpt><trkpt lat="47.28641969703207" lon="10.99241796400514"><ele>638.0</ele><time>2026-05-01T06:45:10.001Z</time></trkpt><trkpt lat="47.28635587634914" lon="10.992044943242718"><ele>638.0</ele><time>2026-05-01T06:45:11.001Z</time></trkpt><trkpt lat="47.2862900543287" lon="10.991672984341253"><ele>638.5</ele><time>2026-05-01T06:45:12.001Z</time></trkpt><trkpt lat="47.286224393702156" lon="10.991298282553272"><ele>639.0</ele><time>2026-05-01T06:45:13.001Z</time></trkpt><trkpt lat="47.28615731606013" lon="10.99092253579138"><ele>639.0</ele><time>2026-05-01T06:45:14.001Z</time></trkpt><trkpt lat="47.286091131795565" lon="10.990550538785824"><ele>639.0</ele><time>2026-05-01T06:45:15.001Z</time></trkpt><trkpt lat="47.28602401032856" lon="10.990180425195273"><ele>637.5</ele><time>2026-05-01T06:45:16.001Z</time></trkpt><trkpt lat="47.285960742671456" lon="10.989811706538354"><ele>636.0</ele><time>2026-05-01T06:45:17.001Z</time></trkpt><trkpt lat="47.285897617734264" lon="10.989446536359026"><ele>634.5</ele><time>2026-05-01T06:45:18.001Z</time></trkpt><trkpt lat="47.28583638950898" lon="10.989070087071722"><ele>633.0</ele><time>2026-05-01T06:45:19.001Z</time></trkpt><trkpt lat="47.285782453729816" lon="10.98870727399653"><ele>633.0</ele><time>2026-05-01T06:45:20.001Z</time></trkpt><trkpt lat="47.28572661502701" lon="10.98833974598242"><ele>633.0</ele><time>2026-05-01T06:45:21.001Z</time></trkpt><trkpt lat="47.28566937384553" lon="10.987967682058514"><ele>633.0</ele><time>2026-05-01T06:45:22.001Z</time></trkpt><trkpt lat="47.28561431769664" lon="10.987604572111128"><ele>633.0</ele><time>2026-05-01T06:45:23.001Z</time></trkpt><trkpt lat="47.285562059675875" lon="10.987236215365556"><ele>634.0</ele><time>2026-05-01T06:45:24.001Z</time></trkpt><trkpt lat="47.28551049719359" lon="10.986874330044328"><ele>635.0</ele><time>2026-05-01T06:45:25.001Z</time></trkpt><trkpt lat="47.28546421427021" lon="10.986509430663057"><ele>635.0</ele><time>2026-05-01T06:45:26.001Z</time></trkpt><trkpt lat="47.28541801176549" lon="10.986144950573921"><ele>635.0</ele><time>2026-05-01T06:45:27.001Z</time></trkpt><trkpt lat="47.28537253307119" lon="10.985779997892598"><ele>635.0</ele><time>2026-05-01T06:45:28.001Z</time></trkpt><trkpt lat="47.28532681941033" lon="10.985416621776304"><ele>635.0</ele><time>2026-05-01T06:45:29.001Z</time></trkpt><trkpt lat="47.2852819725018" lon="10.985053162516278"><ele>636.0</ele><time>2026-05-01T06:45:30.001Z</time></trkpt><trkpt lat="47.28523740298985" lon="10.984690842945714"><ele>637.0</ele><time>2026-05-01T06:45:31.001Z</time></trkpt><trkpt lat="47.285193092936694" lon="10.98432629747388"><ele>637.0</ele><time>2026-05-01T06:45:32.001Z</time></trkpt><trkpt lat="47.2851499889313" lon="10.983962802878244"><ele>637.0</ele><time>2026-05-01T06:45:33.001Z</time></trkpt><trkpt lat="47.28510686137911" lon="10.983598028498273"><ele>635.5</ele><time>2026-05-01T06:45:34.001Z</time></trkpt><trkpt lat="47.285064668665406" lon="10.983236580382496"><ele>634.0</ele><time>2026-05-01T06:45:35.001Z</time></trkpt><trkpt lat="47.28502240329965" lon="10.982875756553282"><ele>635.5</ele><time>2026-05-01T06:45:36.001Z</time></trkpt><trkpt lat="47.284978827468095" lon="10.982513123861958"><ele>637.0</ele><time>2026-05-01T06:45:37.001Z</time></trkpt><trkpt lat="47.28493535346738" lon="10.982152591242508"><ele>637.0</ele><time>2026-05-01T06:45:38.001Z</time></trkpt><trkpt lat="47.284891300896795" lon="10.981791246492335"><ele>637.0</ele><time>2026-05-01T06:45:39.001Z</time></trkpt><trkpt lat="47.284846311923964" lon="10.981433928551304"><ele>637.0</ele><time>2026-05-01T06:45:40.001Z</time></trkpt><trkpt lat="47.28479703017532" lon="10.981075641502716"><ele>637.0</ele><time>2026-05-01T06:45:41.001Z</time></trkpt><trkpt lat="47.28474485400959" lon="10.980721343276725"><ele>637.0</ele><time>2026-05-01T06:45:42.001Z</time></trkpt><trkpt lat="47.28468990923933" lon="10.980365112485535"><ele>637.0</ele><time>2026-05-01T06:45:43.001Z</time></trkpt><trkpt lat="47.28463194840823" lon="10.980006342799593"><ele>637.0</ele><time>2026-05-01T06:45:44.001Z</time></trkpt><trkpt lat="47.28457231610534" lon="10.979650448633333"><ele>637.0</ele><time>2026-05-01T06:45:45.001Z</time></trkpt><trkpt lat="47.28450871020684" lon="10.979291831864545"><ele>637.5</ele><time>2026-05-01T06:45:46.001Z</time></trkpt><trkpt lat="47.28444377587825" lon="10.978938219770582"><ele>638.0</ele><time>2026-05-01T06:45:47.001Z</time></trkpt><trkpt lat="47.284373968879514" lon="10.978583254456481"><ele>636.5</ele><time>2026-05-01T06:45:48.001Z</time></trkpt><trkpt lat="47.284301130574654" lon="10.978229757801971"><ele>635.0</ele><time>2026-05-01T06:45:49.001Z</time></trkpt><trkpt lat="47.28422396821891" lon="10.977876941265844"><ele>635.0</ele><time>2026-05-01T06:45:50.001Z</time></trkpt><trkpt lat="47.28414208042092" lon="10.977523572486664"><ele>635.0</ele><time>2026-05-01T06:45:51.001Z</time></trkpt><trkpt lat="47.28405826248087" lon="10.9771738964306"><ele>636.0</ele><time>2026-05-01T06:45:52.001Z</time></trkpt><trkpt lat="47.2839705250974" lon="10.976825756452598"><ele>637.0</ele><time>2026-05-01T06:45:53.001Z</time></trkpt><trkpt lat="47.283880290802124" lon="10.976478966901238"><ele>637.0</ele><time>2026-05-01T06:45:54.001Z</time></trkpt><trkpt lat="47.283786437857096" lon="10.976135175876554"><ele>637.0</ele><time>2026-05-01T06:45:55.001Z</time></trkpt><trkpt lat="47.283688141861425" lon="10.975793479123146"><ele>636.5</ele><time>2026-05-01T06:45:56.001Z</time></trkpt><trkpt lat="47.28358753743994" lon="10.975453125574516"><ele>636.0</ele><time>2026-05-01T06:45:57.001Z</time></trkpt><trkpt lat="47.28348460246174" lon="10.975116665925858"><ele>636.5</ele><time>2026-05-01T06:45:58.001Z</time></trkpt><trkpt lat="47.2833790879973" lon="10.97478228338037"><ele>637.0</ele><time>2026-05-01T06:45:59.001Z</time></trkpt><trkpt lat="47.28327089617088" lon="10.974450591810509"><ele>637.5</ele><time>2026-05-01T06:46:00.001Z</time></trkpt><trkpt lat="47.28316113360435" lon="10.974122103521763"><ele>638.0</ele><time>2026-05-01T06:46:01.001Z</time></trkpt><trkpt lat="47.28304536009024" lon="10.973793217746719"><ele>638.5</ele><time>2026-05-01T06:46:02.001Z</time></trkpt><trkpt lat="47.282928699050096" lon="10.973471535154937"><ele>639.0</ele><time>2026-05-01T06:46:03.001Z</time></trkpt><trkpt lat="47.28280623954178" lon="10.973151310313328"><ele>642.5</ele><time>2026-05-01T06:46:04.001Z</time></trkpt><trkpt lat="47.282682057290764" lon="10.972835770466627"><ele>646.0</ele><time>2026-05-01T06:46:05.001Z</time></trkpt><trkpt lat="47.282556018543865" lon="10.972524399379525"><ele>641.0</ele><time>2026-05-01T06:46:06.001Z</time></trkpt><trkpt lat="47.28242814663824" lon="10.972213659948762"><ele>636.0</ele><time>2026-05-01T06:46:07.001Z</time></trkpt><trkpt lat="47.28229727687432" lon="10.971900829453054"><ele>638.0</ele><time>2026-05-01T06:46:08.001Z</time></trkpt><trkpt lat="47.282163995115965" lon="10.97159110815259"><ele>640.0</ele><time>2026-05-01T06:46:09.001Z</time></trkpt><trkpt lat="47.282026694223156" lon="10.971284615018703"><ele>640.0</ele><time>2026-05-01T06:46:10.001Z</time></trkpt><trkpt lat="47.28188552747062" lon="10.970980237892832"><ele>640.0</ele><time>2026-05-01T06:46:11.001Z</time></trkpt><trkpt lat="47.28173949338654" lon="10.970677462730587"><ele>640.0</ele><time>2026-05-01T06:46:12.001Z</time></trkpt><trkpt lat="47.2815948924191" lon="10.970381053563575"><ele>640.0</ele><time>2026-05-01T06:46:13.001Z</time></trkpt><trkpt lat="47.28145836884616" lon="10.970106169515889"><ele>639.3333333333334</ele><time>2026-05-01T06:46:14.001Z</time></trkpt><trkpt lat="47.28132547918758" lon="10.969843260532908"><ele>638.6666666666666</ele><time>2026-05-01T06:46:15.001Z</time></trkpt><trkpt lat="47.28119206911967" lon="10.969578493708456"><ele>638.0</ele><time>2026-05-01T06:46:16.001Z</time></trkpt><trkpt lat="47.28105926834634" lon="10.969315630652106"><ele>636.6666666666666</ele><time>2026-05-01T06:46:17.001Z</time></trkpt><trkpt lat="47.28092526362132" lon="10.96905496737039"><ele>635.3333333333334</ele><time>2026-05-01T06:46:18.001Z</time></trkpt><trkpt lat="47.28079435151985" lon="10.968798193565664"><ele>634.0</ele><time>2026-05-01T06:46:19.001Z</time></trkpt><trkpt lat="47.280671259285086" lon="10.968551610607332"><ele>635.0</ele><time>2026-05-01T06:46:20.001Z</time></trkpt><trkpt lat="47.28055231097219" lon="10.968308434385731"><ele>636.0</ele><time>2026-05-01T06:46:21Z</time></trkpt><trkpt lat="47.28043564447927" lon="10.96806251646913"><ele>637.0</ele><time>2026-05-01T06:46:22Z</time></trkpt><trkpt lat="47.28032166378457" lon="10.967815421002689"><ele>637.0</ele><time>2026-05-01T06:46:23Z</time></trkpt><trkpt lat="47.280210984171994" lon="10.96756574987887"><ele>637.0</ele><time>2026-05-01T06:46:24Z</time></trkpt><trkpt lat="47.28010342851443" lon="10.967317828627975"><ele>637.0</ele><time>2026-05-01T06:46:25Z</time></trkpt><trkpt lat="47.27999882078405" lon="10.967074378344423"><ele>637.3333333333334</ele><time>2026-05-01T06:46:26Z</time></trkpt><trkpt lat="47.27989905096841" lon="10.966831950993349"><ele>637.6666666666666</ele><time>2026-05-01T06:46:27Z</time></trkpt><trkpt lat="47.279802547156535" lon="10.966592834977599"><ele>638.0</ele><time>2026-05-01T06:46:28Z</time></trkpt><trkpt lat="47.279712495569456" lon="10.966360878172681"><ele>637.3333333333333</ele><time>2026-05-01T06:46:29Z</time></trkpt><trkpt lat="47.2796257967287" lon="10.966132125810802"><ele>636.6666666666666</ele><time>2026-05-01T06:46:30Z</time></trkpt><trkpt lat="47.27954133326947" lon="10.965906537411138"><ele>636.0</ele><time>2026-05-01T06:46:31Z</time></trkpt><trkpt lat="47.2794583431088" lon="10.965681341753541"><ele>637.3333333333334</ele><time>2026-05-01T06:46:32Z</time></trkpt><trkpt lat="47.2793763648655" lon="10.96545864982338"><ele>638.6666666666667</ele><time>2026-05-01T06:46:33Z</time></trkpt><trkpt lat="47.27929656759357" lon="10.965234491000471"><ele>640.0</ele><time>2026-05-01T06:46:34Z</time></trkpt><trkpt lat="47.27922103072614" lon="10.965012053926342"><ele>641.0</ele><time>2026-05-01T06:46:35Z</time></trkpt><trkpt lat="47.27915343310512" lon="10.964786270204902"><ele>642.0</ele><time>2026-05-01T06:46:36Z</time></trkpt><trkpt lat="47.27909932134097" lon="10.964556031901203"><ele>643.0</ele><time>2026-05-01T06:46:37Z</time></trkpt><trkpt lat="47.27905735304153" lon="10.964321858982196"><ele>642.3333333333334</ele><time>2026-05-01T06:46:38Z</time></trkpt><trkpt lat="47.27902467582569" lon="10.964082664539315"><ele>641.6666666666666</ele><time>2026-05-01T06:46:39Z</time></trkpt><trkpt lat="47.279003460551976" lon="10.963847505711824"><ele>641.0</ele><time>2026-05-01T06:46:40Z</time></trkpt><trkpt lat="47.278996236939776" lon="10.963609916022067"><ele>641.0</ele><time>2026-05-01T06:46:41Z</time></trkpt><trkpt lat="47.2790001758483" lon="10.963372954465257"><ele>641.0</ele><time>2026-05-01T06:46:42Z</time></trkpt><trkpt lat="47.27901487426658" lon="10.96313705330485"><ele>641.0</ele><time>2026-05-01T06:46:43Z</time></trkpt><trkpt lat="47.279035239098214" lon="10.962899738854105"><ele>640.75</ele><time>2026-05-01T06:46:44Z</time></trkpt><trkpt lat="47.27905903447952" lon="10.96268066708893"><ele>640.5</ele><time>2026-05-01T06:46:45Z</time></trkpt><trkpt lat="47.27908319978999" lon="10.962467662235406"><ele>640.25</ele><time>2026-05-01T06:46:46Z</time></trkpt><trkpt lat="47.27910035236597" lon="10.96226653265036"><ele>640.0</ele><time>2026-05-01T06:46:47Z</time></trkpt><trkpt lat="47.27909422676035" lon="10.962068257547566"><ele>640.0</ele><time>2026-05-01T06:46:48Z</time></trkpt><trkpt lat="47.27905686671073" lon="10.961878289909576"><ele>640.0</ele><time>2026-05-01T06:46:49Z</time></trkpt><trkpt lat="47.278993112688966" lon="10.961705535313271"><ele>640.0</ele><time>2026-05-01T06:46:50Z</time></trkpt><trkpt lat="47.27890637233852" lon="10.961565554610177"><ele>640.0</ele><time>2026-05-01T06:46:51Z</time></trkpt><trkpt lat="47.27880319874628" lon="10.96145514934171"><ele>641.2</ele><time>2026-05-01T06:46:52.001Z</time></trkpt><trkpt lat="47.278698846489554" lon="10.961359010929383"><ele>642.4</ele><time>2026-05-01T06:46:53.001Z</time></trkpt><trkpt lat="47.278605314756284" lon="10.961275646674103"><ele>643.5999999999999</ele><time>2026-05-01T06:46:54.001Z</time></trkpt><trkpt lat="47.278536064180855" lon="10.96120524127339"><ele>644.8</ele><time>2026-05-01T06:46:55.001Z</time></trkpt><trkpt lat="47.278491718539975" lon="10.961138012418127"><ele>646.0</ele><time>2026-05-01T06:46:56.001Z</time></trkpt><trkpt lat="47.27845836064662" lon="10.961016593807827"><ele>646.0</ele><time>2026-05-01T06:46:58.001Z</time></trkpt><trkpt lat="47.27845477314502" lon="10.960905657683243"><ele>646.0</ele><time>2026-05-01T06:47:04.001Z</time></trkpt><trkpt lat="47.278488735376406" lon="10.960733472563007"><ele>646.0</ele><time>2026-05-01T06:47:06.001Z</time></trkpt><trkpt lat="47.27853303127824" lon="10.960623041595106"><ele>646.0</ele><time>2026-05-01T06:47:07.001Z</time></trkpt><trkpt lat="47.278580791477125" lon="10.960520452997184"><ele>646.0</ele><time>2026-05-01T06:47:08.001Z</time></trkpt><trkpt lat="47.27864213558385" lon="10.960398051598979"><ele>646.25</ele><time>2026-05-01T06:47:09.001Z</time></trkpt><trkpt lat="47.27871463965556" lon="10.960267493894682"><ele>646.5</ele><time>2026-05-01T06:47:10.001Z</time></trkpt><trkpt lat="47.278795903880045" lon="10.960138390286046"><ele>646.75</ele><time>2026-05-01T06:47:11.001Z</time></trkpt><trkpt lat="47.27888499446609" lon="10.960015008467263"><ele>647.0</ele><time>2026-05-01T06:47:12.001Z</time></trkpt><trkpt lat="47.278982100498915" lon="10.9598843827987"><ele>645.25</ele><time>2026-05-01T06:47:13.001Z</time></trkpt><trkpt lat="47.279083601202906" lon="10.95974805591191"><ele>643.5</ele><time>2026-05-01T06:47:14.001Z</time></trkpt><trkpt lat="47.279190453658686" lon="10.95960502452328"><ele>641.75</ele><time>2026-05-01T06:47:15.001Z</time></trkpt><trkpt lat="47.279298329358106" lon="10.95945833994856"><ele>640.0</ele><time>2026-05-01T06:47:16.001Z</time></trkpt><trkpt lat="47.279401575081685" lon="10.959320393739922"><ele>640.75</ele><time>2026-05-01T06:47:17.001Z</time></trkpt><trkpt lat="47.27951085490352" lon="10.959174450966243"><ele>641.5</ele><time>2026-05-01T06:47:18.001Z</time></trkpt><trkpt lat="47.27961994941593" lon="10.959030845918555"><ele>642.25</ele><time>2026-05-01T06:47:19.001Z</time></trkpt><trkpt lat="47.279729976803075" lon="10.958889920687023"><ele>643.0</ele><time>2026-05-01T06:47:20.001Z</time></trkpt><trkpt lat="47.27984255645147" lon="10.958756191392286"><ele>649.25</ele><time>2026-05-01T06:47:21.001Z</time></trkpt><trkpt lat="47.27996414515698" lon="10.958638704455607"><ele>655.5</ele><time>2026-05-01T06:47:22.001Z</time></trkpt><trkpt lat="47.2801009405684" lon="10.958552565771878"><ele>661.75</ele><time>2026-05-01T06:47:23.001Z</time></trkpt><trkpt lat="47.28024187035428" lon="10.95849476208873"><ele>668.0</ele><time>2026-05-01T06:47:24.001Z</time></trkpt><trkpt lat="47.28038760468648" lon="10.958471349040103"><ele>668.0</ele><time>2026-05-01T06:47:25.001Z</time></trkpt><trkpt lat="47.2805342167882" lon="10.95848382940092"><ele>668.0</ele><time>2026-05-01T06:47:26.001Z</time></trkpt><trkpt lat="47.28067913806941" lon="10.958524745640574"><ele>668.0</ele><time>2026-05-01T06:47:27.001Z</time></trkpt><trkpt lat="47.28082330883221" lon="10.958582516880956"><ele>668.0</ele><time>2026-05-01T06:47:28.001Z</time></trkpt><trkpt lat="47.28096829616744" lon="10.958641929469179"><ele>673.5</ele><time>2026-05-01T06:47:29.001Z</time></trkpt><trkpt lat="47.2811118099502" lon="10.958703612681756"><ele>679.0</ele><time>2026-05-01T06:47:30.001Z</time></trkpt><trkpt lat="47.28125410940054" lon="10.958766024248199"><ele>684.5</ele><time>2026-05-01T06:47:31.001Z</time></trkpt><trkpt lat="47.28139674651217" lon="10.958824948633985"><ele>690.0</ele><time>2026-05-01T06:47:32.001Z</time></trkpt><trkpt lat="47.28153951626073" lon="10.95888049191649"><ele>690.25</ele><time>2026-05-01T06:47:33.001Z</time></trkpt><trkpt lat="47.28168152432901" lon="10.958927520702302"><ele>690.5</ele><time>2026-05-01T06:47:34.001Z</time></trkpt><trkpt lat="47.28182586269779" lon="10.958962913441125"><ele>690.75</ele><time>2026-05-01T06:47:35.001Z</time></trkpt><trkpt lat="47.2819715226043" lon="10.958982934110788"><ele>691.0</ele><time>2026-05-01T06:47:36.001Z</time></trkpt><trkpt lat="47.282119498849454" lon="10.95898606489572"><ele>690.3333333333334</ele><time>2026-05-01T06:47:37.001Z</time></trkpt><trkpt lat="47.28227008834387" lon="10.95897356772475"><ele>689.6666666666666</ele><time>2026-05-01T06:47:38.001Z</time></trkpt><trkpt lat="47.282420653462125" lon="10.958942611062046"><ele>689.0</ele><time>2026-05-01T06:47:39.001Z</time></trkpt><trkpt lat="47.28257171540472" lon="10.958888185948158"><ele>689.0</ele><time>2026-05-01T06:47:40.001Z</time></trkpt><trkpt lat="47.28271813634833" lon="10.958816051162096"><ele>689.0</ele><time>2026-05-01T06:47:41.001Z</time></trkpt><trkpt lat="47.282863460550494" lon="10.958734700446236"><ele>689.0</ele><time>2026-05-01T06:47:42.001Z</time></trkpt><trkpt lat="47.283010415803396" lon="10.95865188989573"><ele>696.3333333333333</ele><time>2026-05-01T06:47:43.001Z</time></trkpt><trkpt lat="47.283159009332586" lon="10.958573222063675"><ele>703.6666666666666</ele><time>2026-05-01T06:47:44.001Z</time></trkpt><trkpt lat="47.283309257373276" lon="10.958508586060917"><ele>711.0</ele><time>2026-05-01T06:47:45.001Z</time></trkpt><trkpt lat="47.28346231455263" lon="10.958463492405293"><ele>711.0</ele><time>2026-05-01T06:47:46.001Z</time></trkpt><trkpt lat="47.28361934595509" lon="10.958433277248794"><ele>711.0</ele><time>2026-05-01T06:47:47.001Z</time></trkpt><trkpt lat="47.28378025080496" lon="10.958414582890054"><ele>711.0</ele><time>2026-05-01T06:47:48.001Z</time></trkpt><trkpt lat="47.283942515796014" lon="10.958403204768898"><ele>713.3333333333334</ele><time>2026-05-01T06:47:49.001Z</time></trkpt><trkpt lat="47.284107715667346" lon="10.958392907153874"><ele>715.6666666666667</ele><time>2026-05-01T06:47:50.001Z</time></trkpt><trkpt lat="47.28427764120781" lon="10.9583820296658"><ele>718.0</ele><time>2026-05-01T06:47:51.001Z</time></trkpt><trkpt lat="47.28444931328677" lon="10.958369516179902"><ele>712.6666666666667</ele><time>2026-05-01T06:47:52.001Z</time></trkpt><trkpt lat="47.28462415889475" lon="10.958357684111652"><ele>707.3333333333334</ele><time>2026-05-01T06:47:53.001Z</time></trkpt><trkpt lat="47.28479887773089" lon="10.958342809355909"><ele>702.0</ele><time>2026-05-01T06:47:54.001Z</time></trkpt><trkpt lat="47.28497471872416" lon="10.958329399352628"><ele>702.0</ele><time>2026-05-01T06:47:55.001Z</time></trkpt><trkpt lat="47.28514237364115" lon="10.958314984352883"><ele>702.0</ele><time>2026-05-01T06:47:56.001Z</time></trkpt><trkpt lat="47.28530197337278" lon="10.958303637285473"><ele>702.0</ele><time>2026-05-01T06:47:57.001Z</time></trkpt><trkpt lat="47.28546539790059" lon="10.95829105343387"><ele>704.0</ele><time>2026-05-01T06:47:58.001Z</time></trkpt><trkpt lat="47.28562806442901" lon="10.958276239185317"><ele>706.0</ele><time>2026-05-01T06:47:59.001Z</time></trkpt><trkpt lat="47.28578866628747" lon="10.95826333484731"><ele>708.0</ele><time>2026-05-01T06:48:00.001Z</time></trkpt><trkpt lat="47.28594882176786" lon="10.958249899006773"><ele>708.0</ele><time>2026-05-01T06:48:01.001Z</time></trkpt><trkpt lat="47.28610537138119" lon="10.958236137386887"><ele>708.0</ele><time>2026-05-01T06:48:02.001Z</time></trkpt><trkpt lat="47.286253380603085" lon="10.958222696319208"><ele>708.0</ele><time>2026-05-01T06:48:03.001Z</time></trkpt><trkpt lat="47.286398894173324" lon="10.95820738920887"><ele>708.5</ele><time>2026-05-01T06:48:04.001Z</time></trkpt><trkpt lat="47.28654220832658" lon="10.958180680967915"><ele>709.0</ele><time>2026-05-01T06:48:05.001Z</time></trkpt><trkpt lat="47.28667922133159" lon="10.958132334424732"><ele>709.5</ele><time>2026-05-01T06:48:06.001Z</time></trkpt><trkpt lat="47.28681173120299" lon="10.958063986734475"><ele>710.0</ele><time>2026-05-01T06:48:07.001Z</time></trkpt><trkpt lat="47.286937613362696" lon="10.957972885905951"><ele>710.0</ele><time>2026-05-01T06:48:08.001Z</time></trkpt><trkpt lat="47.287054291115005" lon="10.957856951542306"><ele>710.0</ele><time>2026-05-01T06:48:09.001Z</time></trkpt><trkpt lat="47.28716136893248" lon="10.957716723438976"><ele>710.0</ele><time>2026-05-01T06:48:10.001Z</time></trkpt><trkpt lat="47.287257587732746" lon="10.957557763046857"><ele>710.0</ele><time>2026-05-01T06:48:11.001Z</time></trkpt><trkpt lat="47.28733983611156" lon="10.957385197921973"><ele>709.0</ele><time>2026-05-01T06:48:12.001Z</time></trkpt><trkpt lat="47.28741061410074" lon="10.95720390748891"><ele>708.0</ele><time>2026-05-01T06:48:13.001Z</time></trkpt><trkpt lat="47.28747557841055" lon="10.957015920859495"><ele>707.0</ele><time>2026-05-01T06:48:14.001Z</time></trkpt><trkpt lat="47.28754178766455" lon="10.956827669840841"><ele>706.0</ele><time>2026-05-01T06:48:15.001Z</time></trkpt><trkpt lat="47.28761911036773" lon="10.956648616800104"><ele>705.25</ele><time>2026-05-01T06:48:16.001Z</time></trkpt><trkpt lat="47.28771768599707" lon="10.956496005447358"><ele>704.5</ele><time>2026-05-01T06:48:17.001Z</time></trkpt><trkpt lat="47.28782846620992" lon="10.95636254760926"><ele>703.75</ele><time>2026-05-01T06:48:18.001Z</time></trkpt><trkpt lat="47.28796040262015" lon="10.956273760560336"><ele>703.0</ele><time>2026-05-01T06:48:19.001Z</time></trkpt><trkpt lat="47.28809738998923" lon="10.956239500129344"><ele>703.0</ele><time>2026-05-01T06:48:20.001Z</time></trkpt><trkpt lat="47.288235830567686" lon="10.956271461752237"><ele>703.0</ele><time>2026-05-01T06:48:21.001Z</time></trkpt><trkpt lat="47.288362491014496" lon="10.956358688251774"><ele>703.0</ele><time>2026-05-01T06:48:22.001Z</time></trkpt><trkpt lat="47.288458571654346" lon="10.95650658694588"><ele>703.0</ele><time>2026-05-01T06:48:23.001Z</time></trkpt><trkpt lat="47.28853301104767" lon="10.95667896966397"><ele>705.25</ele><time>2026-05-01T06:48:24.001Z</time></trkpt><trkpt lat="47.288574478834306" lon="10.956870617907654"><ele>707.5</ele><time>2026-05-01T06:48:25.001Z</time></trkpt><trkpt lat="47.288580361631716" lon="10.957068908347305"><ele>709.75</ele><time>2026-05-01T06:48:26.001Z</time></trkpt><trkpt lat="47.288580817569304" lon="10.957274918965144"><ele>712.0</ele><time>2026-05-01T06:48:27Z</time></trkpt><trkpt lat="47.28851929679584" lon="10.9574636592117"><ele>715.25</ele><time>2026-05-01T06:48:28Z</time></trkpt><trkpt lat="47.28842498737919" lon="10.957619144500237"><ele>718.5</ele><time>2026-05-01T06:48:29Z</time></trkpt><trkpt lat="47.28830745846677" lon="10.957740242763672"><ele>721.75</ele><time>2026-05-01T06:48:30Z</time></trkpt><trkpt lat="47.28816030152003" lon="10.957802929344583"><ele>725.0</ele><time>2026-05-01T06:48:31Z</time></trkpt><trkpt lat="47.28801584385568" lon="10.957885286544938"><ele>725.0</ele><time>2026-05-01T06:48:32Z</time></trkpt><trkpt lat="47.28786223524248" lon="10.957958165504582"><ele>725.0</ele><time>2026-05-01T06:48:33Z</time></trkpt><trkpt lat="47.28771209282475" lon="10.958036004393236"><ele>725.0</ele><time>2026-05-01T06:48:34Z</time></trkpt><trkpt lat="47.28756303044728" lon="10.958137215646211"><ele>725.0</ele><time>2026-05-01T06:48:35Z</time></trkpt><trkpt lat="47.28741104991111" lon="10.958228257960505"><ele>725.0</ele><time>2026-05-01T06:48:36Z</time></trkpt><trkpt lat="47.28726085155877" lon="10.958336358656618"><ele>725.0</ele><time>2026-05-01T06:48:37Z</time></trkpt><trkpt lat="47.28711363423604" lon="10.958459136858798"><ele>727.6666666666666</ele><time>2026-05-01T06:48:38Z</time></trkpt><trkpt lat="47.28697048801472" lon="10.958594178097314"><ele>730.3333333333334</ele><time>2026-05-01T06:48:39Z</time></trkpt><trkpt lat="47.28682010836453" lon="10.95871512248775"><ele>733.0</ele><time>2026-05-01T06:48:40Z</time></trkpt><trkpt lat="47.28669037983908" lon="10.958842645582955"><ele>733.0</ele><time>2026-05-01T06:48:41Z</time></trkpt><trkpt lat="47.28656481659459" lon="10.958962505582685"><ele>733.0</ele><time>2026-05-01T06:48:42Z</time></trkpt><trkpt lat="47.28643636548163" lon="10.959084044257793"><ele>733.0</ele><time>2026-05-01T06:48:43Z</time></trkpt><trkpt lat="47.286294330704784" lon="10.959197030419768"><ele>739.3333333333334</ele><time>2026-05-01T06:48:44Z</time></trkpt><trkpt lat="47.286151809999595" lon="10.959297111868532"><ele>745.6666666666666</ele><time>2026-05-01T06:48:45Z</time></trkpt><trkpt lat="47.286007813697786" lon="10.959414171193702"><ele>752.0</ele><time>2026-05-01T06:48:46Z</time></trkpt><trkpt lat="47.285843116618814" lon="10.95946867050858"><ele>752.0</ele><time>2026-05-01T06:48:47Z</time></trkpt><trkpt lat="47.2856777188163" lon="10.95953742714179"><ele>752.0</ele><time>2026-05-01T06:48:48Z</time></trkpt><trkpt lat="47.28550727865734" lon="10.959605120471293"><ele>752.0</ele><time>2026-05-01T06:48:49Z</time></trkpt><trkpt lat="47.285342726816886" lon="10.95969410803464"><ele>749.3333333333333</ele><time>2026-05-01T06:48:50Z</time></trkpt><trkpt lat="47.2851800818078" lon="10.959757575792494"><ele>746.6666666666666</ele><time>2026-05-01T06:48:51Z</time></trkpt><trkpt lat="47.28502752687124" lon="10.959813240669074"><ele>744.0</ele><time>2026-05-01T06:48:52Z</time></trkpt><trkpt lat="47.28488125759179" lon="10.959863170420725"><ele>744.75</ele><time>2026-05-01T06:48:53Z</time></trkpt><trkpt lat="47.28474522855513" lon="10.959948834345708"><ele>745.5</ele><time>2026-05-01T06:48:54Z</time></trkpt><trkpt lat="47.284609469697536" lon="10.960035951656913"><ele>746.25</ele><time>2026-05-01T06:48:55Z</time></trkpt><trkpt lat="47.28448428546777" lon="10.960154609252331"><ele>747.0</ele><time>2026-05-01T06:48:56Z</time></trkpt><trkpt lat="47.28437178998537" lon="10.96029909983739"><ele>747.0</ele><time>2026-05-01T06:48:57Z</time></trkpt><trkpt lat="47.28427526675136" lon="10.960464955666206"><ele>747.0</ele><time>2026-05-01T06:48:58Z</time></trkpt><trkpt lat="47.284197282204865" lon="10.960651938028551"><ele>747.0</ele><time>2026-05-01T06:48:59Z</time></trkpt><trkpt lat="47.284138260104584" lon="10.960855185025688"><ele>747.0</ele><time>2026-05-01T06:49:00Z</time></trkpt><trkpt lat="47.28410182123668" lon="10.961069185161445"><ele>749.6666666666666</ele><time>2026-05-01T06:49:01Z</time></trkpt><trkpt lat="47.28408295430453" lon="10.961288171307801"><ele>752.3333333333333</ele><time>2026-05-01T06:49:02Z</time></trkpt><trkpt lat="47.28409066225977" lon="10.961510305548824"><ele>755.0</ele><time>2026-05-01T06:49:03Z</time></trkpt><trkpt lat="47.28412061430142" lon="10.961728869191091"><ele>757.3333333333333</ele><time>2026-05-01T06:49:04Z</time></trkpt><trkpt lat="47.28416863012825" lon="10.961942047131572"><ele>759.6666666666666</ele><time>2026-05-01T06:49:05Z</time></trkpt><trkpt lat="47.28424118555751" lon="10.962141815205724"><ele>762.0</ele><time>2026-05-01T06:49:06Z</time></trkpt><trkpt lat="47.2843303941886" lon="10.962330079173249"><ele>762.0</ele><time>2026-05-01T06:49:07.001Z</time></trkpt><trkpt lat="47.28443751748843" lon="10.962503817722798"><ele>762.0</ele><time>2026-05-01T06:49:08.001Z</time></trkpt><trkpt lat="47.28455057869956" lon="10.96267366552137"><ele>762.0</ele><time>2026-05-01T06:49:09.001Z</time></trkpt><trkpt lat="47.28466651863414" lon="10.962842488983696"><ele>760.6666666666666</ele><time>2026-05-01T06:49:10.001Z</time></trkpt><trkpt lat="47.28478168128783" lon="10.963012956799087"><ele>759.3333333333333</ele><time>2026-05-01T06:49:11.001Z</time></trkpt><trkpt lat="47.28489480360356" lon="10.963187407167915"><ele>758.0</ele><time>2026-05-01T06:49:12.001Z</time></trkpt><trkpt lat="47.285003455909816" lon="10.963361907685906"><ele>762.6666666666666</ele><time>2026-05-01T06:49:13.001Z</time></trkpt><trkpt lat="47.28510825430758" lon="10.963538760685351"><ele>767.3333333333333</ele><time>2026-05-01T06:49:14.001Z</time></trkpt><trkpt lat="47.28520886984158" lon="10.963712418425839"><ele>772.0</ele><time>2026-05-01T06:49:15.001Z</time></trkpt><trkpt lat="47.28530124848595" lon="10.963886118252288"><ele>772.0</ele><time>2026-05-01T06:49:16.001Z</time></trkpt><trkpt lat="47.28538565526498" lon="10.964072469842451"><ele>772.0</ele><time>2026-05-01T06:49:17.001Z</time></trkpt><trkpt lat="47.28545004065848" lon="10.964281285207953"><ele>772.0</ele><time>2026-05-01T06:49:18.001Z</time></trkpt><trkpt lat="47.28552882678519" lon="10.964477835498029"><ele>771.0</ele><time>2026-05-01T06:49:19.001Z</time></trkpt><trkpt lat="47.28560737422776" lon="10.964673790069362"><ele>770.0</ele><time>2026-05-01T06:49:20.001Z</time></trkpt><trkpt lat="47.28568524096399" lon="10.964868678559315"><ele>769.0</ele><time>2026-05-01T06:49:21.001Z</time></trkpt><trkpt lat="47.285765044883775" lon="10.96506740508113"><ele>773.3333333333333</ele><time>2026-05-01T06:49:22.001Z</time></trkpt><trkpt lat="47.28584846726064" lon="10.965272520368613"><ele>777.6666666666667</ele><time>2026-05-01T06:49:23.001Z</time></trkpt><trkpt lat="47.285942288934606" lon="10.965488200679774"><ele>782.0</ele><time>2026-05-01T06:49:24.001Z</time></trkpt><trkpt lat="47.2860666215317" lon="10.965699133587112"><ele>784.3333333333334</ele><time>2026-05-01T06:49:25.001Z</time></trkpt><trkpt lat="47.28619227430598" lon="10.965923847004854"><ele>786.6666666666667</ele><time>2026-05-01T06:49:26.001Z</time></trkpt><trkpt lat="47.28632632816205" lon="10.966124215062399"><ele>789.0</ele><time>2026-05-01T06:49:27.001Z</time></trkpt><trkpt lat="47.28648246264903" lon="10.966320857091693"><ele>789.0</ele><time>2026-05-01T06:49:28.001Z</time></trkpt><trkpt lat="47.28665496933215" lon="10.966499319623354"><ele>789.0</ele><time>2026-05-01T06:49:29.001Z</time></trkpt><trkpt lat="47.28684271887053" lon="10.96665730988017"><ele>789.0</ele><time>2026-05-01T06:49:30.001Z</time></trkpt><trkpt lat="47.287044218156105" lon="10.966794186354962"><ele>791.0</ele><time>2026-05-01T06:49:31.001Z</time></trkpt><trkpt lat="47.28725774275995" lon="10.966898307467392"><ele>793.0</ele><time>2026-05-01T06:49:32.001Z</time></trkpt><trkpt lat="47.28748266596297" lon="10.966971857530917"><ele>793.0</ele><time>2026-05-01T06:49:33.001Z</time></trkpt><trkpt lat="47.28770989166682" lon="10.967032200081153"><ele>793.0</ele><time>2026-05-01T06:49:34.001Z</time></trkpt><trkpt lat="47.28795206498699" lon="10.967070113822746"><ele>792.5</ele><time>2026-05-01T06:49:35.001Z</time></trkpt><trkpt lat="47.28817988305139" lon="10.967104821814287"><ele>792.0</ele><time>2026-05-01T06:49:36.001Z</time></trkpt><trkpt lat="47.28841689836731" lon="10.967146258987759"><ele>792.0</ele><time>2026-05-01T06:49:37.001Z</time></trkpt><trkpt lat="47.288655910973254" lon="10.967188716351648"><ele>792.0</ele><time>2026-05-01T06:49:38.001Z</time></trkpt><trkpt lat="47.28889609318895" lon="10.967238976186321"><ele>792.5</ele><time>2026-05-01T06:49:39.001Z</time></trkpt><trkpt lat="47.28913347602652" lon="10.967298421483976"><ele>793.0</ele><time>2026-05-01T06:49:40.001Z</time></trkpt><trkpt lat="47.28936966927764" lon="10.967375443339536"><ele>793.0</ele><time>2026-05-01T06:49:41.001Z</time></trkpt><trkpt lat="47.289602459573516" lon="10.967474115531019"><ele>793.0</ele><time>2026-05-01T06:49:42.001Z</time></trkpt><trkpt lat="47.289831352650744" lon="10.967592657201516"><ele>793.0</ele><time>2026-05-01T06:49:43.001Z</time></trkpt><trkpt lat="47.29005606174651" lon="10.967718676074416"><ele>793.0</ele><time>2026-05-01T06:49:44.001Z</time></trkpt><trkpt lat="47.290281140183765" lon="10.967846610164461"><ele>793.0</ele><time>2026-05-01T06:49:45.001Z</time></trkpt><trkpt lat="47.290502439321585" lon="10.967973728218064"><ele>793.0</ele><time>2026-05-01T06:49:46.001Z</time></trkpt><trkpt lat="47.29072056202808" lon="10.968100374326701"><ele>798.0</ele><time>2026-05-01T06:49:47.001Z</time></trkpt><trkpt lat="47.290936639816884" lon="10.968223501738542"><ele>803.0</ele><time>2026-05-01T06:49:48.001Z</time></trkpt><trkpt lat="47.29115167654187" lon="10.968342398288"><ele>803.5</ele><time>2026-05-01T06:49:49.001Z</time></trkpt><trkpt lat="47.29136689938293" lon="10.968460840486095"><ele>804.0</ele><time>2026-05-01T06:49:50.001Z</time></trkpt><trkpt lat="47.29158113705744" lon="10.968580244447992"><ele>804.0</ele><time>2026-05-01T06:49:51.001Z</time></trkpt><trkpt lat="47.29179758137114" lon="10.96870022438802"><ele>804.0</ele><time>2026-05-01T06:49:52.001Z</time></trkpt><trkpt lat="47.29201244513874" lon="10.96881994449926"><ele>804.0</ele><time>2026-05-01T06:49:53.001Z</time></trkpt><trkpt lat="47.29222689043917" lon="10.96893894212007"><ele>804.0</ele><time>2026-05-01T06:49:54.001Z</time></trkpt><trkpt lat="47.29244085073581" lon="10.969058459938495"><ele>803.0</ele><time>2026-05-01T06:49:55.001Z</time></trkpt><trkpt lat="47.29265629901422" lon="10.96917790870076"><ele>802.0</ele><time>2026-05-01T06:49:56.001Z</time></trkpt><trkpt lat="47.292871166262266" lon="10.969295284322504"><ele>802.0</ele><time>2026-05-01T06:49:57.001Z</time></trkpt><trkpt lat="47.2930746174168" lon="10.969405454829808"><ele>802.0</ele><time>2026-05-01T06:49:58.001Z</time></trkpt><trkpt lat="47.29326329187359" lon="10.969503633744102"><ele>802.0</ele><time>2026-05-01T06:49:59.001Z</time></trkpt><trkpt lat="47.29344477269383" lon="10.969589443519883"><ele>802.6666666666666</ele><time>2026-05-01T06:50:00.001Z</time></trkpt><trkpt lat="47.293620372429" lon="10.969660009413037"><ele>803.3333333333333</ele><time>2026-05-01T06:50:01.001Z</time></trkpt><trkpt lat="47.293797924541884" lon="10.969719073774584"><ele>804.0</ele><time>2026-05-01T06:50:02.001Z</time></trkpt><trkpt lat="47.29397842369975" lon="10.969765093404046"><ele>805.6666666666667</ele><time>2026-05-01T06:50:03.001Z</time></trkpt><trkpt lat="47.294160253261595" lon="10.96979549398261"><ele>807.3333333333334</ele><time>2026-05-01T06:50:04.001Z</time></trkpt><trkpt lat="47.29434275219545" lon="10.969807871432593"><ele>809.0</ele><time>2026-05-01T06:50:05.001Z</time></trkpt><trkpt lat="47.294519579139305" lon="10.96985845460376"><ele>809.0</ele><time>2026-05-01T06:50:06.001Z</time></trkpt><trkpt lat="47.29470777508129" lon="10.96978627348406"><ele>809.0</ele><time>2026-05-01T06:50:07.001Z</time></trkpt><trkpt lat="47.29489035970278" lon="10.96975779691317"><ele>809.0</ele><time>2026-05-01T06:50:08.001Z</time></trkpt><trkpt lat="47.295072902298216" lon="10.969714536397278"><ele>809.3333333333334</ele><time>2026-05-01T06:50:09.001Z</time></trkpt><trkpt lat="47.29525478719751" lon="10.969655167924882"><ele>809.6666666666667</ele><time>2026-05-01T06:50:10.001Z</time></trkpt><trkpt lat="47.29543334527848" lon="10.969582157465883"><ele>810.0</ele><time>2026-05-01T06:50:11.001Z</time></trkpt><trkpt lat="47.2956106853116" lon="10.969493406474376"><ele>811.0</ele><time>2026-05-01T06:50:12.001Z</time></trkpt><trkpt lat="47.29578208616163" lon="10.969389882841957"><ele>812.0</ele><time>2026-05-01T06:50:13.001Z</time></trkpt><trkpt lat="47.295949522899384" lon="10.96927670010967"><ele>813.0</ele><time>2026-05-01T06:50:14.001Z</time></trkpt><trkpt lat="47.29611295177472" lon="10.969150953784773"><ele>813.0</ele><time>2026-05-01T06:50:15.001Z</time></trkpt><trkpt lat="47.296271266434665" lon="10.969011964231921"><ele>813.0</ele><time>2026-05-01T06:50:16.001Z</time></trkpt><trkpt lat="47.29642327017729" lon="10.968860085082751"><ele>813.0</ele><time>2026-05-01T06:50:17.001Z</time></trkpt><trkpt lat="47.29657007149645" lon="10.9686941221676"><ele>812.3333333333333</ele><time>2026-05-01T06:50:18.001Z</time></trkpt><trkpt lat="47.296715478948656" lon="10.968510530988812"><ele>811.6666666666666</ele><time>2026-05-01T06:50:19.001Z</time></trkpt><trkpt lat="47.29685974986136" lon="10.968308095459415"><ele>811.0</ele><time>2026-05-01T06:50:20.001Z</time></trkpt><trkpt lat="47.296998779262495" lon="10.968091063027996"><ele>814.3333333333333</ele><time>2026-05-01T06:50:21.001Z</time></trkpt><trkpt lat="47.29713177984243" lon="10.967853368047344"><ele>817.6666666666667</ele><time>2026-05-01T06:50:22.001Z</time></trkpt><trkpt lat="47.29725556712743" lon="10.9675973824967"><ele>821.0</ele><time>2026-05-01T06:50:23.001Z</time></trkpt><trkpt lat="47.297366394757304" lon="10.967333075545323"><ele>822.6666666666667</ele><time>2026-05-01T06:50:24.001Z</time></trkpt><trkpt lat="47.29746969275875" lon="10.967060916627352"><ele>824.3333333333333</ele><time>2026-05-01T06:50:25.001Z</time></trkpt><trkpt lat="47.29756097731473" lon="10.96677048217809"><ele>826.0</ele><time>2026-05-01T06:50:26.001Z</time></trkpt><trkpt lat="47.297641292848176" lon="10.96647136892247"><ele>828.0</ele><time>2026-05-01T06:50:27.001Z</time></trkpt><trkpt lat="47.29771348442613" lon="10.96616426796193"><ele>830.0</ele><time>2026-05-01T06:50:28.001Z</time></trkpt><trkpt lat="47.29778112813836" lon="10.965857726180696"><ele>832.0</ele><time>2026-05-01T06:50:29.001Z</time></trkpt><trkpt lat="47.29784751645206" lon="10.965551462822011"><ele>832.0</ele><time>2026-05-01T06:50:30.001Z</time></trkpt><trkpt lat="47.29791508608801" lon="10.965247524579569"><ele>832.0</ele><time>2026-05-01T06:50:31.001Z</time></trkpt><trkpt lat="47.29798280689576" lon="10.964948143114787"><ele>832.0</ele><time>2026-05-01T06:50:32.001Z</time></trkpt><trkpt lat="47.2980489888896" lon="10.964655483814356"><ele>831.3333333333333</ele><time>2026-05-01T06:50:33Z</time></trkpt><trkpt lat="47.298112651498904" lon="10.96436406829683"><ele>830.6666666666667</ele><time>2026-05-01T06:50:34Z</time></trkpt><trkpt lat="47.2981737877675" lon="10.96407820668015"><ele>830.0</ele><time>2026-05-01T06:50:35Z</time></trkpt><trkpt lat="47.29823442735569" lon="10.96379509553879"><ele>831.6666666666667</ele><time>2026-05-01T06:50:36Z</time></trkpt><trkpt lat="47.29829765105886" lon="10.963509034713141"><ele>833.3333333333333</ele><time>2026-05-01T06:50:37Z</time></trkpt><trkpt lat="47.29836254735115" lon="10.963223974705155"><ele>835.0</ele><time>2026-05-01T06:50:38Z</time></trkpt><trkpt lat="47.29842559569479" lon="10.962940678401491"><ele>835.3333333333333</ele><time>2026-05-01T06:50:39Z</time></trkpt><trkpt lat="47.298493129027996" lon="10.96266290138698"><ele>835.6666666666667</ele><time>2026-05-01T06:50:40Z</time></trkpt><trkpt lat="47.298572654236146" lon="10.962396068522791"><ele>836.0</ele><time>2026-05-01T06:50:41Z</time></trkpt><trkpt lat="47.298676683800025" lon="10.96215493689357"><ele>836.0</ele><time>2026-05-01T06:50:42Z</time></trkpt><trkpt lat="47.29880355902457" lon="10.961938425934912"><ele>836.0</ele><time>2026-05-01T06:50:43Z</time></trkpt><trkpt lat="47.29895251426736" lon="10.96176275119498"><ele>836.0</ele><time>2026-05-01T06:50:44Z</time></trkpt><trkpt lat="47.299119958679555" lon="10.961650280938283"><ele>838.0</ele><time>2026-05-01T06:50:45Z</time></trkpt><trkpt lat="47.299308772100076" lon="10.961600187520736"><ele>840.0</ele><time>2026-05-01T06:50:46Z</time></trkpt><trkpt lat="47.29950180815196" lon="10.961602577958768"><ele>842.0</ele><time>2026-05-01T06:50:47Z</time></trkpt><trkpt lat="47.29968922247813" lon="10.961663510195931"><ele>848.3333333333334</ele><time>2026-05-01T06:50:48Z</time></trkpt><trkpt lat="47.299870826218104" lon="10.961779266169776"><ele>854.6666666666667</ele><time>2026-05-01T06:50:49Z</time></trkpt><trkpt lat="47.30004549715019" lon="10.961929765550506"><ele>861.0</ele><time>2026-05-01T06:50:50Z</time></trkpt><trkpt lat="47.30022250844827" lon="10.962075455434897"><ele>861.0</ele><time>2026-05-01T06:50:51Z</time></trkpt><trkpt lat="47.30039640052051" lon="10.962219543566082"><ele>861.0</ele><time>2026-05-01T06:50:52Z</time></trkpt><trkpt lat="47.30057193945047" lon="10.962326604540722"><ele>861.0</ele><time>2026-05-01T06:50:53Z</time></trkpt><trkpt lat="47.300761630093" lon="10.962392792478266"><ele>862.0</ele><time>2026-05-01T06:50:54Z</time></trkpt><trkpt lat="47.3009661303779" lon="10.962430481236662"><ele>863.0</ele><time>2026-05-01T06:50:55Z</time></trkpt><trkpt lat="47.301179468677816" lon="10.962469357834184"><ele>864.0</ele><time>2026-05-01T06:50:56Z</time></trkpt><trkpt lat="47.301394164702984" lon="10.962532358897187"><ele>866.0</ele><time>2026-05-01T06:50:57Z</time></trkpt><trkpt lat="47.30159921471631" lon="10.962633259152293"><ele>868.0</ele><time>2026-05-01T06:50:58Z</time></trkpt><trkpt lat="47.30178227810568" lon="10.962745181151044"><ele>870.0</ele><time>2026-05-01T06:50:59Z</time></trkpt><trkpt lat="47.30195022289277" lon="10.962846289212921"><ele>870.0</ele><time>2026-05-01T06:51:00Z</time></trkpt><trkpt lat="47.30210620807684" lon="10.962921787362847"><ele>870.0</ele><time>2026-05-01T06:51:01Z</time></trkpt><trkpt lat="47.302259600600685" lon="10.96296371621088"><ele>870.0</ele><time>2026-05-01T06:51:02Z</time></trkpt><trkpt lat="47.30241314002564" lon="10.962973497365343"><ele>870.25</ele><time>2026-05-01T06:51:03Z</time></trkpt><trkpt lat="47.30255841759308" lon="10.96295341809114"><ele>870.5</ele><time>2026-05-01T06:51:04Z</time></trkpt><trkpt lat="47.302698056572915" lon="10.962905245876708"><ele>870.75</ele><time>2026-05-01T06:51:05Z</time></trkpt><trkpt lat="47.30283125763511" lon="10.962834018036586"><ele>871.0</ele><time>2026-05-01T06:51:06Z</time></trkpt><trkpt lat="47.3029554775172" lon="10.962742466538383"><ele>871.0</ele><time>2026-05-01T06:51:07Z</time></trkpt><trkpt lat="47.30307295050107" lon="10.962634386580628"><ele>871.0</ele><time>2026-05-01T06:51:08Z</time></trkpt><trkpt lat="47.303186170005205" lon="10.962517090013186"><ele>871.0</ele><time>2026-05-01T06:51:09Z</time></trkpt><trkpt lat="47.30329251693335" lon="10.96240006562933"><ele>871.0</ele><time>2026-05-01T06:51:10Z</time></trkpt><trkpt lat="47.30338282115364" lon="10.962293888986435"><ele>871.3333333333333</ele><time>2026-05-01T06:51:11Z</time></trkpt><trkpt lat="47.30345705130426" lon="10.962201294963327"><ele>871.6666666666666</ele><time>2026-05-01T06:51:12Z</time></trkpt><trkpt lat="47.303506663293284" lon="10.962136863754287"><ele>872.0</ele><time>2026-05-01T06:51:13Z</time></trkpt><trkpt lat="47.30356799393913" lon="10.962059665877973"><ele>872.3333333333333</ele><time>2026-05-01T06:51:15Z</time></trkpt><trkpt lat="47.30360734740737" lon="10.96195512387042"><ele>872.6666666666666</ele><time>2026-05-01T06:51:18Z</time></trkpt><trkpt lat="47.30367704540745" lon="10.961970789868184"><ele>873.0</ele><time>2026-05-01T06:51:19Z</time></trkpt><trkpt lat="47.303771427604254" lon="10.961886415962411"><ele>873.0</ele><time>2026-05-01T06:51:21.001Z</time></trkpt><trkpt lat="47.30379231863825" lon="10.961726102112396"><ele>873.0</ele><time>2026-05-01T06:51:23.001Z</time></trkpt><trkpt lat="47.303702628693294" lon="10.961611446771343"><ele>873.0</ele><time>2026-05-01T06:51:25.001Z</time></trkpt><trkpt lat="47.30364064577831" lon="10.961571912934485"><ele>873.0</ele><time>2026-05-01T06:51:26.001Z</time></trkpt><trkpt lat="47.303578166130194" lon="10.961493894665706"><ele>873.0</ele><time>2026-05-01T06:51:27.001Z</time></trkpt><trkpt lat="47.303516578798146" lon="10.961382222303472"><ele>874.25</ele><time>2026-05-01T06:51:28.001Z</time></trkpt><trkpt lat="47.303448474291024" lon="10.961256977169594"><ele>875.5</ele><time>2026-05-01T06:51:29.001Z</time></trkpt><trkpt lat="47.30337145214468" lon="10.961122176973754"><ele>876.75</ele><time>2026-05-01T06:51:30.001Z</time></trkpt><trkpt lat="47.30328132560662" lon="10.960976613318099"><ele>878.0</ele><time>2026-05-01T06:51:31.001Z</time></trkpt><trkpt lat="47.303190402163494" lon="10.96084527292475"><ele>878.25</ele><time>2026-05-01T06:51:32.001Z</time></trkpt><trkpt lat="47.303094290275624" lon="10.960719027733356"><ele>878.5</ele><time>2026-05-01T06:51:33.001Z</time></trkpt><trkpt lat="47.30299265907745" lon="10.960595945373168"><ele>878.75</ele><time>2026-05-01T06:51:34.001Z</time></trkpt><trkpt lat="47.302885059933864" lon="10.960468917851783"><ele>879.0</ele><time>2026-05-01T06:51:35.001Z</time></trkpt><trkpt lat="47.30277585663278" lon="10.96033711902948"><ele>879.75</ele><time>2026-05-01T06:51:36.001Z</time></trkpt><trkpt lat="47.302668053763945" lon="10.960198534954234"><ele>880.5</ele><time>2026-05-01T06:51:37.001Z</time></trkpt><trkpt lat="47.30256497516976" lon="10.960049792057859"><ele>881.25</ele><time>2026-05-01T06:51:38.001Z</time></trkpt><trkpt lat="47.30247318717731" lon="10.959891576350858"><ele>882.0</ele><time>2026-05-01T06:51:39.001Z</time></trkpt><trkpt lat="47.30239057274863" lon="10.959728205215388"><ele>882.0</ele><time>2026-05-01T06:51:40.001Z</time></trkpt><trkpt lat="47.30231683373585" lon="10.959564287989897"><ele>882.0</ele><time>2026-05-01T06:51:41.001Z</time></trkpt><trkpt lat="47.302252181502695" lon="10.959398791968662"><ele>882.0</ele><time>2026-05-01T06:51:42.001Z</time></trkpt><trkpt lat="47.30219856509796" lon="10.959231227044649"><ele>882.0</ele><time>2026-05-01T06:51:43.001Z</time></trkpt><trkpt lat="47.30215203494198" lon="10.95906756995881"><ele>882.0</ele><time>2026-05-01T06:51:44.001Z</time></trkpt><trkpt lat="47.30211326769472" lon="10.958920218458518"><ele>882.0</ele><time>2026-05-01T06:51:45.001Z</time></trkpt><trkpt lat="47.302078436133826" lon="10.958776624710152"><ele>882.0</ele><time>2026-05-01T06:51:46.001Z</time></trkpt><trkpt lat="47.30204675125864" lon="10.958632893984191"><ele>882.0</ele><time>2026-05-01T06:51:47.001Z</time></trkpt><trkpt lat="47.30201954142961" lon="10.958503800874015"><ele>882.0</ele><time>2026-05-01T06:51:48.001Z</time></trkpt><trkpt lat="47.301991441847925" lon="10.958377673378573"><ele>882.5</ele><time>2026-05-01T06:51:49.001Z</time></trkpt><trkpt lat="47.301964798037474" lon="10.958256607365556"><ele>883.0</ele><time>2026-05-01T06:51:50.001Z</time></trkpt><trkpt lat="47.3019372977766" lon="10.958139893057552"><ele>883.5</ele><time>2026-05-01T06:51:51.001Z</time></trkpt><trkpt lat="47.30191271835721" lon="10.958026690098494"><ele>884.0</ele><time>2026-05-01T06:51:52.001Z</time></trkpt><trkpt lat="47.30189000799636" lon="10.957916682091165"><ele>884.5</ele><time>2026-05-01T06:51:53.001Z</time></trkpt><trkpt lat="47.30186678899114" lon="10.95780718690597"><ele>885.0</ele><time>2026-05-01T06:51:54.001Z</time></trkpt><trkpt lat="47.30184242348745" lon="10.957700338944322"><ele>885.0</ele><time>2026-05-01T06:51:55.001Z</time></trkpt><trkpt lat="47.30181805905606" lon="10.957597922094319"><ele>885.0</ele><time>2026-05-01T06:51:56.001Z</time></trkpt><trkpt lat="47.30179228728768" lon="10.957495284940636"><ele>885.0</ele><time>2026-05-01T06:51:57.001Z</time></trkpt><trkpt lat="47.30176588695434" lon="10.957393161027039"><ele>885.0</ele><time>2026-05-01T06:51:58.001Z</time></trkpt><trkpt lat="47.30173801052466" lon="10.957289368500913"><ele>885.0</ele><time>2026-05-01T06:51:59.001Z</time></trkpt><trkpt lat="47.30170698236558" lon="10.957185514394409"><ele>885.0</ele><time>2026-05-01T06:52:00.001Z</time></trkpt><trkpt lat="47.30167409315886" lon="10.957082952687436"><ele>885.0</ele><time>2026-05-01T06:52:01.001Z</time></trkpt><trkpt lat="47.301638625686984" lon="10.956981545449674"><ele>885.0</ele><time>2026-05-01T06:52:02.001Z</time></trkpt><trkpt lat="47.301600920807275" lon="10.956878917198182"><ele>885.0</ele><time>2026-05-01T06:52:03.001Z</time></trkpt><trkpt lat="47.30156178383483" lon="10.9567772468677"><ele>885.0</ele><time>2026-05-01T06:52:04.001Z</time></trkpt><trkpt lat="47.30152266001962" lon="10.956677056171726"><ele>885.0</ele><time>2026-05-01T06:52:05.001Z</time></trkpt><trkpt lat="47.30148353734853" lon="10.956578391712526"><ele>885.0</ele><time>2026-05-01T06:52:06.001Z</time></trkpt><trkpt lat="47.301444942855746" lon="10.956478265705986"><ele>885.1666666666666</ele><time>2026-05-01T06:52:07.001Z</time></trkpt><trkpt lat="47.30140466973559" lon="10.956373336105052"><ele>885.3333333333333</ele><time>2026-05-01T06:52:08.001Z</time></trkpt><trkpt lat="47.30136660025291" lon="10.95626795376603"><ele>885.5</ele><time>2026-05-01T06:52:09.001Z</time></trkpt><trkpt lat="47.301331987029236" lon="10.956161372070612"><ele>885.6666666666666</ele><time>2026-05-01T06:52:10.001Z</time></trkpt><trkpt lat="47.30129826342476" lon="10.956051277435211"><ele>885.8333333333333</ele><time>2026-05-01T06:52:11.001Z</time></trkpt><trkpt lat="47.301268790258746" lon="10.9559437229847"><ele>886.0</ele><time>2026-05-01T06:52:12.001Z</time></trkpt><trkpt lat="47.30124274855848" lon="10.955837033488473"><ele>885.9999999999999</ele><time>2026-05-01T06:52:13.001Z</time></trkpt><trkpt lat="47.30121830870964" lon="10.955727065662206"><ele>886.0</ele><time>2026-05-01T06:52:14.001Z</time></trkpt><trkpt lat="47.301194594121355" lon="10.95561838277742"><ele>886.0</ele><time>2026-05-01T06:52:15.001Z</time></trkpt><trkpt lat="47.30117225193036" lon="10.95550999076062"><ele>886.0</ele><time>2026-05-01T06:52:16.001Z</time></trkpt><trkpt lat="47.30115075834777" lon="10.955402598611926"><ele>885.9999999999999</ele><time>2026-05-01T06:52:17.001Z</time></trkpt><trkpt lat="47.301129738588045" lon="10.955293556242713"><ele>886.0</ele><time>2026-05-01T06:52:18.001Z</time></trkpt><trkpt lat="47.30111081306775" lon="10.955180565481692"><ele>885.9999999999999</ele><time>2026-05-01T06:52:19.001Z</time></trkpt><trkpt lat="47.301095822361674" lon="10.955064143013379"><ele>886.0</ele><time>2026-05-01T06:52:20.001Z</time></trkpt><trkpt lat="47.30108092084997" lon="10.954946026182819"><ele>886.0</ele><time>2026-05-01T06:52:21.001Z</time></trkpt><trkpt lat="47.30106516819917" lon="10.954828437645155"><ele>886.0</ele><time>2026-05-01T06:52:22.001Z</time></trkpt><trkpt lat="47.30104577784294" lon="10.954711150231601"><ele>885.9999999999999</ele><time>2026-05-01T06:52:23.001Z</time></trkpt><trkpt lat="47.301027344560254" lon="10.954596716305163"><ele>886.0</ele><time>2026-05-01T06:52:24.001Z</time></trkpt><trkpt lat="47.30100905719301" lon="10.954484900524804"><ele>886.6666666666666</ele><time>2026-05-01T06:52:25.001Z</time></trkpt><trkpt lat="47.300991116737976" lon="10.954372036208957"><ele>887.3333333333333</ele><time>2026-05-01T06:52:26.001Z</time></trkpt><trkpt lat="47.300973308240636" lon="10.954260317706217"><ele>888.0</ele><time>2026-05-01T06:52:27.001Z</time></trkpt><trkpt lat="47.30095485791616" lon="10.954149000452999"><ele>888.6666666666667</ele><time>2026-05-01T06:52:28.001Z</time></trkpt><trkpt lat="47.30093593506488" lon="10.954037883995621"><ele>889.3333333333334</ele><time>2026-05-01T06:52:29.001Z</time></trkpt><trkpt lat="47.30091678620217" lon="10.953924145081304"><ele>890.0</ele><time>2026-05-01T06:52:30.001Z</time></trkpt><trkpt lat="47.300898503375116" lon="10.953811325409486"><ele>890.5000000000001</ele><time>2026-05-01T06:52:31.001Z</time></trkpt><trkpt lat="47.30088038875747" lon="10.95369691967598"><ele>891.0</ele><time>2026-05-01T06:52:32.001Z</time></trkpt><trkpt lat="47.30086134229867" lon="10.953581604064922"><ele>891.5</ele><time>2026-05-01T06:52:33.001Z</time></trkpt><trkpt lat="47.30084174622999" lon="10.953466300016146"><ele>892.0</ele><time>2026-05-01T06:52:34.001Z</time></trkpt><trkpt lat="47.30082221038082" lon="10.953350170787344"><ele>892.5000000000001</ele><time>2026-05-01T06:52:35.001Z</time></trkpt><trkpt lat="47.30080221606325" lon="10.953231792719436"><ele>893.0</ele><time>2026-05-01T06:52:36.001Z</time></trkpt><trkpt lat="47.300782506585456" lon="10.953113323606626"><ele>893.4</ele><time>2026-05-01T06:52:37.001Z</time></trkpt><trkpt lat="47.300762570412004" lon="10.952996819072853"><ele>893.8</ele><time>2026-05-01T06:52:38.001Z</time></trkpt><trkpt lat="47.30073946090288" lon="10.95286883133919"><ele>894.2</ele><time>2026-05-01T06:52:39Z</time></trkpt><trkpt lat="47.30071433636987" lon="10.952729648257478"><ele>894.6</ele><time>2026-05-01T06:52:40Z</time></trkpt><trkpt lat="47.3006883680578" lon="10.952581599590827"><ele>895.0</ele><time>2026-05-01T06:52:41Z</time></trkpt><trkpt lat="47.300661506847646" lon="10.952425647490204"><ele>896.25</ele><time>2026-05-01T06:52:42Z</time></trkpt><trkpt lat="47.300631862179976" lon="10.952261811475514"><ele>897.5</ele><time>2026-05-01T06:52:43Z</time></trkpt><trkpt lat="47.30060116015699" lon="10.952086225208905"><ele>898.75</ele><time>2026-05-01T06:52:44Z</time></trkpt><trkpt lat="47.30057026863162" lon="10.951912320971964"><ele>900.0</ele><time>2026-05-01T06:52:45Z</time></trkpt><trkpt lat="47.30054027579028" lon="10.951739764614535"><ele>901.25</ele><time>2026-05-01T06:52:46Z</time></trkpt><trkpt lat="47.30050993533521" lon="10.95155599571614"><ele>902.5</ele><time>2026-05-01T06:52:47Z</time></trkpt><trkpt lat="47.30048072990677" lon="10.95135874315859"><ele>903.75</ele><time>2026-05-01T06:52:48Z</time></trkpt><trkpt lat="47.300456655334976" lon="10.951145629992693"><ele>905.0</ele><time>2026-05-01T06:52:49Z</time></trkpt><trkpt lat="47.30043995374825" lon="10.95091778386668"><ele>905.6666666666667</ele><time>2026-05-01T06:52:50Z</time></trkpt><trkpt lat="47.300428315656404" lon="10.950677990472348"><ele>906.3333333333333</ele><time>2026-05-01T06:52:51Z</time></trkpt><trkpt lat="47.30042193329071" lon="10.950427137177144"><ele>907.0</ele><time>2026-05-01T06:52:52Z</time></trkpt><trkpt lat="47.30041651979259" lon="10.950171001616262"><ele>907.6666666666666</ele><time>2026-05-01T06:52:53Z</time></trkpt><trkpt lat="47.30041280230999" lon="10.949925417145451"><ele>908.3333333333333</ele><time>2026-05-01T06:52:54Z</time></trkpt><trkpt lat="47.30040584715375" lon="10.949671006808394"><ele>909.0</ele><time>2026-05-01T06:52:55Z</time></trkpt><trkpt lat="47.30039701470235" lon="10.949413463517306"><ele>908.0</ele><time>2026-05-01T06:52:56Z</time></trkpt><trkpt lat="47.30039110772592" lon="10.949152728421243"><ele>907.0</ele><time>2026-05-01T06:52:57Z</time></trkpt><trkpt lat="47.3003880736689" lon="10.948892899090954"><ele>906.0</ele><time>2026-05-01T06:52:58Z</time></trkpt><trkpt lat="47.30038314415167" lon="10.948638790090095"><ele>906.0</ele><time>2026-05-01T06:52:59Z</time></trkpt><trkpt lat="47.30036355734574" lon="10.948394003051993"><ele>906.0</ele><time>2026-05-01T06:53:00Z</time></trkpt><trkpt lat="47.300321206762575" lon="10.948152425273614"><ele>906.0</ele><time>2026-05-01T06:53:01Z</time></trkpt><trkpt lat="47.30025827951808" lon="10.947914810456638"><ele>907.3333333333333</ele><time>2026-05-01T06:53:02Z</time></trkpt><trkpt lat="47.30017263702805" lon="10.947688534003673"><ele>908.6666666666666</ele><time>2026-05-01T06:53:03Z</time></trkpt><trkpt lat="47.30006473232636" lon="10.947475784652477"><ele>910.0</ele><time>2026-05-01T06:53:04Z</time></trkpt><trkpt lat="47.29994517779725" lon="10.947268306715035"><ele>907.6666666666666</ele><time>2026-05-01T06:53:05Z</time></trkpt><trkpt lat="47.299820326073636" lon="10.947058712719212"><ele>905.3333333333333</ele><time>2026-05-01T06:53:06Z</time></trkpt><trkpt lat="47.29969635552491" lon="10.946842377461003"><ele>903.0</ele><time>2026-05-01T06:53:07Z</time></trkpt><trkpt lat="47.29957039347054" lon="10.946622402039864"><ele>908.3333333333333</ele><time>2026-05-01T06:53:08Z</time></trkpt><trkpt lat="47.299448465671645" lon="10.946404646422797"><ele>913.6666666666666</ele><time>2026-05-01T06:53:09Z</time></trkpt><trkpt lat="47.2993326561411" lon="10.946198020307714"><ele>919.0</ele><time>2026-05-01T06:53:10Z</time></trkpt><trkpt lat="47.299231384424985" lon="10.945986432771917"><ele>922.0</ele><time>2026-05-01T06:53:11Z</time></trkpt><trkpt lat="47.2991485828587" lon="10.945760885254488"><ele>925.0</ele><time>2026-05-01T06:53:12Z</time></trkpt><trkpt lat="47.29908387226271" lon="10.945525188380131"><ele>928.0</ele><time>2026-05-01T06:53:13Z</time></trkpt><trkpt lat="47.29903138754087" lon="10.945281555559763"><ele>928.0</ele><time>2026-05-01T06:53:14Z</time></trkpt><trkpt lat="47.29896398183444" lon="10.945048840478705"><ele>928.0</ele><time>2026-05-01T06:53:15Z</time></trkpt><trkpt lat="47.29887380201595" lon="10.944824772434764"><ele>928.0</ele><time>2026-05-01T06:53:16Z</time></trkpt><trkpt lat="47.298778281233176" lon="10.944602731808278"><ele>928.0</ele><time>2026-05-01T06:53:17Z</time></trkpt><trkpt lat="47.29868468972041" lon="10.944382034438561"><ele>928.0</ele><time>2026-05-01T06:53:18Z</time></trkpt><trkpt lat="47.29860995225241" lon="10.944172913883824"><ele>928.0</ele><time>2026-05-01T06:53:19Z</time></trkpt><trkpt lat="47.29856042504747" lon="10.943944190072745"><ele>932.3333333333333</ele><time>2026-05-01T06:53:20Z</time></trkpt><trkpt lat="47.29853833247119" lon="10.94369500980848"><ele>936.6666666666667</ele><time>2026-05-01T06:53:21Z</time></trkpt><trkpt lat="47.2985360452673" lon="10.943429452004091"><ele>941.0</ele><time>2026-05-01T06:53:22Z</time></trkpt><trkpt lat="47.298541670539414" lon="10.943155218007355"><ele>941.0</ele><time>2026-05-01T06:53:23Z</time></trkpt><trkpt lat="47.298541399904984" lon="10.942878194160887"><ele>941.0</ele><time>2026-05-01T06:53:24Z</time></trkpt><trkpt lat="47.298536467207065" lon="10.942608205968545"><ele>941.0</ele><time>2026-05-01T06:53:25Z</time></trkpt><trkpt lat="47.29852346868264" lon="10.94234571375429"><ele>942.3333333333334</ele><time>2026-05-01T06:53:26Z</time></trkpt><trkpt lat="47.298499377908236" lon="10.942086375276824"><ele>943.6666666666667</ele><time>2026-05-01T06:53:27Z</time></trkpt><trkpt lat="47.298476185023794" lon="10.941826194803635"><ele>945.0</ele><time>2026-05-01T06:53:28Z</time></trkpt><trkpt lat="47.29846247828301" lon="10.941560801218374"><ele>947.3333333333333</ele><time>2026-05-01T06:53:29Z</time></trkpt><trkpt lat="47.29845874151279" lon="10.941296497075145"><ele>949.6666666666666</ele><time>2026-05-01T06:53:30Z</time></trkpt><trkpt lat="47.298465228833294" lon="10.941028872456371"><ele>952.0</ele><time>2026-05-01T06:53:31Z</time></trkpt><trkpt lat="47.29849127196118" lon="10.940763257248184"><ele>953.0</ele><time>2026-05-01T06:53:32Z</time></trkpt><trkpt lat="47.29853132704659" lon="10.940497509939052"><ele>954.0</ele><time>2026-05-01T06:53:33Z</time></trkpt><trkpt lat="47.2985803977293" lon="10.940232243310962"><ele>955.0</ele><time>2026-05-01T06:53:34Z</time></trkpt><trkpt lat="47.298623113746146" lon="10.939967588613516"><ele>956.3333333333333</ele><time>2026-05-01T06:53:35Z</time></trkpt><trkpt lat="47.298639594553826" lon="10.93970342006823"><ele>957.6666666666667</ele><time>2026-05-01T06:53:36Z</time></trkpt><trkpt lat="47.29862359990336" lon="10.939438227116096"><ele>959.0</ele><time>2026-05-01T06:53:37Z</time></trkpt><trkpt lat="47.2986040757865" lon="10.93916794485903"><ele>962.6666666666667</ele><time>2026-05-01T06:53:38Z</time></trkpt><trkpt lat="47.2986081670239" lon="10.93889895786341"><ele>966.3333333333333</ele><time>2026-05-01T06:53:39Z</time></trkpt><trkpt lat="47.29864250267971" lon="10.93862833257925"><ele>970.0</ele><time>2026-05-01T06:53:40.001Z</time></trkpt><trkpt lat="47.29869148858097" lon="10.938355933844816"><ele>970.0</ele><time>2026-05-01T06:53:41.001Z</time></trkpt><trkpt lat="47.29874331873821" lon="10.938083965742443"><ele>970.0</ele><time>2026-05-01T06:53:42.001Z</time></trkpt><trkpt lat="47.29878958765865" lon="10.937812230444836"><ele>970.0</ele><time>2026-05-01T06:53:43.001Z</time></trkpt><trkpt lat="47.29882891093911" lon="10.93753941699194"><ele>969.3333333333333</ele><time>2026-05-01T06:53:44.001Z</time></trkpt><trkpt lat="47.29886212404534" lon="10.937265171207407"><ele>968.6666666666667</ele><time>2026-05-01T06:53:45.001Z</time></trkpt><trkpt lat="47.2988929332262" lon="10.936991267423677"><ele>968.0</ele><time>2026-05-01T06:53:46.001Z</time></trkpt><trkpt lat="47.298923132399956" lon="10.936719906210408"><ele>972.3333333333334</ele><time>2026-05-01T06:53:47.001Z</time></trkpt><trkpt lat="47.29895591053657" lon="10.936455103113078"><ele>976.6666666666667</ele><time>2026-05-01T06:53:48.001Z</time></trkpt><trkpt lat="47.29898952851326" lon="10.936192219169474"><ele>981.0</ele><time>2026-05-01T06:53:49.001Z</time></trkpt><trkpt lat="47.29902152557181" lon="10.935933425162526"><ele>980.6666666666667</ele><time>2026-05-01T06:53:50.001Z</time></trkpt><trkpt lat="47.29904178753428" lon="10.935686849989036"><ele>980.3333333333334</ele><time>2026-05-01T06:53:51.001Z</time></trkpt><trkpt lat="47.29904438825135" lon="10.93544078353106"><ele>980.0</ele><time>2026-05-01T06:53:52.001Z</time></trkpt><trkpt lat="47.299037274901316" lon="10.935180808944018"><ele>978.6666666666667</ele><time>2026-05-01T06:53:53.001Z</time></trkpt><trkpt lat="47.29902931532933" lon="10.934924297223526"><ele>977.3333333333333</ele><time>2026-05-01T06:53:54.001Z</time></trkpt><trkpt lat="47.299020401007944" lon="10.934666778192181"><ele>976.0</ele><time>2026-05-01T06:53:55.001Z</time></trkpt><trkpt lat="47.29901219423426" lon="10.934409738076784"><ele>976.3333333333333</ele><time>2026-05-01T06:53:56.001Z</time></trkpt><trkpt lat="47.29900318971716" lon="10.934153061296636"><ele>976.6666666666667</ele><time>2026-05-01T06:53:57.001Z</time></trkpt><trkpt lat="47.29899335160509" lon="10.93389768270622"><ele>977.0</ele><time>2026-05-01T06:53:58.001Z</time></trkpt><trkpt lat="47.29898134020141" lon="10.933655013225604"><ele>977.0</ele><time>2026-05-01T06:53:59.001Z</time></trkpt><trkpt lat="47.298966661454195" lon="10.933435940288046"><ele>977.0</ele><time>2026-05-01T06:54:00.001Z</time></trkpt><trkpt lat="47.29894823418112" lon="10.93322432663913"><ele>977.0</ele><time>2026-05-01T06:54:01.001Z</time></trkpt><trkpt lat="47.29892740223735" lon="10.933032589853843"><ele>977.0</ele><time>2026-05-01T06:54:02.001Z</time></trkpt><trkpt lat="47.298903540561255" lon="10.932849026123938"><ele>977.0</ele><time>2026-05-01T06:54:03.001Z</time></trkpt><trkpt lat="47.298877111283645" lon="10.932669515742756"><ele>977.0</ele><time>2026-05-01T06:54:04.001Z</time></trkpt><trkpt lat="47.298848679992055" lon="10.932490532049254"><ele>977.0</ele><time>2026-05-01T06:54:05.001Z</time></trkpt><trkpt lat="47.29881865941102" lon="10.932323457755292"><ele>977.0</ele><time>2026-05-01T06:54:06.001Z</time></trkpt><trkpt lat="47.29878236073976" lon="10.932156415593179"><ele>977.0</ele><time>2026-05-01T06:54:07.001Z</time></trkpt><trkpt lat="47.29873700381104" lon="10.931989119982134"><ele>977.0</ele><time>2026-05-01T06:54:08.001Z</time></trkpt><trkpt lat="47.29868499827072" lon="10.931826784149976"><ele>977.0</ele><time>2026-05-01T06:54:09.001Z</time></trkpt><trkpt lat="47.29863000006504" lon="10.931666197134573"><ele>977.0</ele><time>2026-05-01T06:54:10.001Z</time></trkpt><trkpt lat="47.29857754224169" lon="10.93150632863045"><ele>977.25</ele><time>2026-05-01T06:54:11.001Z</time></trkpt><trkpt lat="47.298526561104126" lon="10.9313478111068"><ele>977.5</ele><time>2026-05-01T06:54:12.001Z</time></trkpt><trkpt lat="47.29847611264892" lon="10.931187808526575"><ele>977.75</ele><time>2026-05-01T06:54:13.001Z</time></trkpt><trkpt lat="47.29842613027186" lon="10.93102909858646"><ele>978.0</ele><time>2026-05-01T06:54:14.001Z</time></trkpt><trkpt lat="47.29837693081008" lon="10.930871652116219"><ele>979.0</ele><time>2026-05-01T06:54:15.001Z</time></trkpt><trkpt lat="47.29832905488471" lon="10.930716635467588"><ele>980.0</ele><time>2026-05-01T06:54:16.001Z</time></trkpt><trkpt lat="47.29828206054894" lon="10.930565046583727"><ele>981.0</ele><time>2026-05-01T06:54:17.001Z</time></trkpt><trkpt lat="47.29823679999624" lon="10.930414163709578"><ele>982.0</ele><time>2026-05-01T06:54:18.001Z</time></trkpt><trkpt lat="47.29819485532593" lon="10.930261529352846"><ele>982.0</ele><time>2026-05-01T06:54:19.001Z</time></trkpt><trkpt lat="47.298157308625605" lon="10.930108022125582"><ele>982.0</ele><time>2026-05-01T06:54:20.001Z</time></trkpt><trkpt lat="47.29812487689182" lon="10.92995016527815"><ele>982.0</ele><time>2026-05-01T06:54:21.001Z</time></trkpt><trkpt lat="47.29809861875812" lon="10.9297924711261"><ele>982.0</ele><time>2026-05-01T06:54:22.001Z</time></trkpt><trkpt lat="47.298076833409624" lon="10.929633258021841"><ele>982.0</ele><time>2026-05-01T06:54:23.001Z</time></trkpt><trkpt lat="47.29805827903831" lon="10.92947323653941"><ele>982.4000000000001</ele><time>2026-05-01T06:54:24.001Z</time></trkpt><trkpt lat="47.298040855304954" lon="10.929312213936015"><ele>982.8000000000001</ele><time>2026-05-01T06:54:25.001Z</time></trkpt><trkpt lat="47.29802688231885" lon="10.929151208363056"><ele>983.2</ele><time>2026-05-01T06:54:26.001Z</time></trkpt><trkpt lat="47.29801635410445" lon="10.928990213040322"><ele>983.6</ele><time>2026-05-01T06:54:27.001Z</time></trkpt><trkpt lat="47.298011377300924" lon="10.928828698117002"><ele>984.0</ele><time>2026-05-01T06:54:28.001Z</time></trkpt><trkpt lat="47.298011794651124" lon="10.928667605902406"><ele>984.4000000000001</ele><time>2026-05-01T06:54:29.001Z</time></trkpt><trkpt lat="47.298015578683234" lon="10.928505859303833"><ele>984.8000000000001</ele><time>2026-05-01T06:54:30.001Z</time></trkpt><trkpt lat="47.298024807618404" lon="10.928342693542808"><ele>985.1999999999999</ele><time>2026-05-01T06:54:31.001Z</time></trkpt><trkpt lat="47.29803372829797" lon="10.92818120632826"><ele>985.5999999999999</ele><time>2026-05-01T06:54:32.001Z</time></trkpt><trkpt lat="47.29804287335776" lon="10.928016913520285"><ele>986.0</ele><time>2026-05-01T06:54:33.001Z</time></trkpt><trkpt lat="47.298052203649064" lon="10.927853877066141"><ele>986.0</ele><time>2026-05-01T06:54:34.001Z</time></trkpt><trkpt lat="47.29806206750399" lon="10.927690243265397"><ele>985.9999999999999</ele><time>2026-05-01T06:54:35.001Z</time></trkpt><trkpt lat="47.29807259649841" lon="10.9275263069062"><ele>985.9999999999999</ele><time>2026-05-01T06:54:36.001Z</time></trkpt><trkpt lat="47.29808399046117" lon="10.927361822020702"><ele>986.0</ele><time>2026-05-01T06:54:37.001Z</time></trkpt><trkpt lat="47.29809811684454" lon="10.927194588996525"><ele>986.0</ele><time>2026-05-01T06:54:38.001Z</time></trkpt><trkpt lat="47.298115299246845" lon="10.927025489828896"><ele>987.25</ele><time>2026-05-01T06:54:39.001Z</time></trkpt><trkpt lat="47.29813596023134" lon="10.92685627180488"><ele>988.5</ele><time>2026-05-01T06:54:40.001Z</time></trkpt><trkpt lat="47.29815707310421" lon="10.926687830106205"><ele>989.75</ele><time>2026-05-01T06:54:41.001Z</time></trkpt><trkpt lat="47.29817859078575" lon="10.926520214879533"><ele>991.0</ele><time>2026-05-01T06:54:42.001Z</time></trkpt><trkpt lat="47.29820288564877" lon="10.926350215099113"><ele>991.25</ele><time>2026-05-01T06:54:43.001Z</time></trkpt><trkpt lat="47.298229159623325" lon="10.926182837043267"><ele>991.5</ele><time>2026-05-01T06:54:44.001Z</time></trkpt><trkpt lat="47.29825662536473" lon="10.926016331893496"><ele>991.75</ele><time>2026-05-01T06:54:45Z</time></trkpt><trkpt lat="47.29828608740997" lon="10.925849630784668"><ele>992.0</ele><time>2026-05-01T06:54:46Z</time></trkpt><trkpt lat="47.29831950836682" lon="10.925686832489268"><ele>992.25</ele><time>2026-05-01T06:54:47Z</time></trkpt><trkpt lat="47.29835630462006" lon="10.925525435085937"><ele>992.5</ele><time>2026-05-01T06:54:48Z</time></trkpt><trkpt lat="47.298395049957314" lon="10.925363732780673"><ele>992.75</ele><time>2026-05-01T06:54:49Z</time></trkpt><trkpt lat="47.29843566974179" lon="10.925205076316725"><ele>993.0</ele><time>2026-05-01T06:54:50Z</time></trkpt><trkpt lat="47.29848041782962" lon="10.925046220909097"><ele>991.75</ele><time>2026-05-01T06:54:51Z</time></trkpt><trkpt lat="47.29852739949347" lon="10.924890072338144"><ele>990.5</ele><time>2026-05-01T06:54:52Z</time></trkpt><trkpt lat="47.29857609861914" lon="10.92473512321253"><ele>989.25</ele><time>2026-05-01T06:54:53Z</time></trkpt><trkpt lat="47.29862657147146" lon="10.924580130240292"><ele>988.0</ele><time>2026-05-01T06:54:54Z</time></trkpt><trkpt lat="47.298677269538764" lon="10.9244287991272"><ele>988.0</ele><time>2026-05-01T06:54:55Z</time></trkpt><trkpt lat="47.29872830086493" lon="10.924278986427712"><ele>988.0</ele><time>2026-05-01T06:54:56Z</time></trkpt><trkpt lat="47.298780472666095" lon="10.924134381785322"><ele>988.0</ele><time>2026-05-01T06:54:57Z</time></trkpt><trkpt lat="47.29883407170498" lon="10.923991686167101"><ele>988.0</ele><time>2026-05-01T06:54:58Z</time></trkpt><trkpt lat="47.298889535305754" lon="10.923853930489416"><ele>988.0</ele><time>2026-05-01T06:54:59Z</time></trkpt><trkpt lat="47.29894606734849" lon="10.923718571973385"><ele>989.4</ele><time>2026-05-01T06:55:00Z</time></trkpt><trkpt lat="47.299002551236356" lon="10.923583227945203"><ele>990.8</ele><time>2026-05-01T06:55:01Z</time></trkpt><trkpt lat="47.29906082455371" lon="10.923448692954748"><ele>992.2</ele><time>2026-05-01T06:55:02Z</time></trkpt><trkpt lat="47.29911825179628" lon="10.923315082234343"><ele>993.6</ele><time>2026-05-01T06:55:03Z</time></trkpt><trkpt lat="47.29917620625579" lon="10.923179738797597"><ele>995.0</ele><time>2026-05-01T06:55:04Z</time></trkpt><trkpt lat="47.2992346358018" lon="10.923043853931677"><ele>995.2</ele><time>2026-05-01T06:55:05Z</time></trkpt><trkpt lat="47.2992945177225" lon="10.922907803895184"><ele>995.4</ele><time>2026-05-01T06:55:06Z</time></trkpt><trkpt lat="47.29935453207024" lon="10.922771326511915"><ele>995.5999999999999</ele><time>2026-05-01T06:55:07Z</time></trkpt><trkpt lat="47.29941400666641" lon="10.922633565265148"><ele>995.8</ele><time>2026-05-01T06:55:08Z</time></trkpt><trkpt lat="47.29947317380118" lon="10.92249464777531"><ele>996.0</ele><time>2026-05-01T06:55:09Z</time></trkpt><trkpt lat="47.29953089717519" lon="10.922355763012595"><ele>996.4</ele><time>2026-05-01T06:55:10Z</time></trkpt><trkpt lat="47.29958747824058" lon="10.922214607010025"><ele>996.8</ele><time>2026-05-01T06:55:11Z</time></trkpt><trkpt lat="47.29964197078426" lon="10.92207147450152"><ele>997.1999999999999</ele><time>2026-05-01T06:55:12Z</time></trkpt><trkpt lat="47.2996933288772" lon="10.921927043316161"><ele>997.5999999999999</ele><time>2026-05-01T06:55:13Z</time></trkpt><trkpt lat="47.29974126083179" lon="10.921782292401222"><ele>998.0</ele><time>2026-05-01T06:55:14Z</time></trkpt><trkpt lat="47.29978518222852" lon="10.921637432677343"><ele>998.8</ele><time>2026-05-01T06:55:15Z</time></trkpt><trkpt lat="47.299826480539416" lon="10.921491483301628"><ele>999.5999999999999</ele><time>2026-05-01T06:55:16Z</time></trkpt><trkpt lat="47.299865570185474" lon="10.92134079183265"><ele>1000.4000000000001</ele><time>2026-05-01T06:55:17Z</time></trkpt><trkpt lat="47.299901493946074" lon="10.921185364526504"><ele>1001.2</ele><time>2026-05-01T06:55:18Z</time></trkpt><trkpt lat="47.29993696423364" lon="10.921027558473645"><ele>1002.0</ele><time>2026-05-01T06:55:19Z</time></trkpt><trkpt lat="47.29997071824533" lon="10.920865448121738"><ele>1002.0</ele><time>2026-05-01T06:55:20Z</time></trkpt><trkpt lat="47.30000087774832" lon="10.920698273169473"><ele>1002.0</ele><time>2026-05-01T06:55:21Z</time></trkpt><trkpt lat="47.300026123886646" lon="10.920528929138833"><ele>1002.0</ele><time>2026-05-01T06:55:22Z</time></trkpt><trkpt lat="47.3000484869915" lon="10.920356228428679"><ele>1002.0</ele><time>2026-05-01T06:55:23Z</time></trkpt><trkpt lat="47.30006900268268" lon="10.920184309576218"><ele>1002.25</ele><time>2026-05-01T06:55:24Z</time></trkpt><trkpt lat="47.300086778538365" lon="10.920015988092606"><ele>1002.5</ele><time>2026-05-01T06:55:25Z</time></trkpt><trkpt lat="47.30012299869337" lon="10.919846064471075"><ele>1002.75</ele><time>2026-05-01T06:55:26Z</time></trkpt><trkpt lat="47.300142856125774" lon="10.91966680068634"><ele>1003.0</ele><time>2026-05-01T06:55:27Z</time></trkpt><trkpt lat="47.30016235099023" lon="10.919483815450917"><ele>1003.0</ele><time>2026-05-01T06:55:28Z</time></trkpt><trkpt lat="47.300181933483636" lon="10.91930000770829"><ele>1003.0</ele><time>2026-05-01T06:55:29Z</time></trkpt><trkpt lat="47.30020121086558" lon="10.919119063641718"><ele>1003.0</ele><time>2026-05-01T06:55:30Z</time></trkpt><trkpt lat="47.30021991425503" lon="10.918936075748743"><ele>1003.0</ele><time>2026-05-01T06:55:31Z</time></trkpt><trkpt lat="47.30023830216258" lon="10.918757360448303"><ele>1003.0</ele><time>2026-05-01T06:55:32Z</time></trkpt><trkpt lat="47.30025711580034" lon="10.918579632969323"><ele>1003.0</ele><time>2026-05-01T06:55:33Z</time></trkpt><trkpt lat="47.300276628401456" lon="10.91840234319525"><ele>1003.0</ele><time>2026-05-01T06:55:34Z</time></trkpt><trkpt lat="47.300295377821215" lon="10.918226551661697"><ele>1003.0</ele><time>2026-05-01T06:55:35Z</time></trkpt><trkpt lat="47.300313821171706" lon="10.91805319736674"><ele>1003.75</ele><time>2026-05-01T06:55:36Z</time></trkpt><trkpt lat="47.30033208289181" lon="10.917881088511802"><ele>1004.5</ele><time>2026-05-01T06:55:37Z</time></trkpt><trkpt lat="47.30035012839291" lon="10.917711017047662"><ele>1005.25</ele><time>2026-05-01T06:55:38Z</time></trkpt><trkpt lat="47.300362016355486" lon="10.917538322624411"><ele>1006.0</ele><time>2026-05-01T06:55:39Z</time></trkpt><trkpt lat="47.30035929414334" lon="10.91736611583328"><ele>1006.75</ele><time>2026-05-01T06:55:40Z</time></trkpt><trkpt lat="47.30037353486761" lon="10.917197928105047"><ele>1007.5</ele><time>2026-05-01T06:55:41Z</time></trkpt><trkpt lat="47.30038680861559" lon="10.91703068551597"><ele>1008.25</ele><time>2026-05-01T06:55:42Z</time></trkpt><trkpt lat="47.30039818997175" lon="10.916863741243791"><ele>1009.0</ele><time>2026-05-01T06:55:43Z</time></trkpt><trkpt lat="47.300408278359306" lon="10.916697911083581"><ele>1010.2</ele><time>2026-05-01T06:55:44Z</time></trkpt><trkpt lat="47.30041800683599" lon="10.916533678845138"><ele>1011.4000000000001</ele><time>2026-05-01T06:55:45Z</time></trkpt><trkpt lat="47.30042812607742" lon="10.916371370209545"><ele>1012.6</ele><time>2026-05-01T06:55:46Z</time></trkpt><trkpt lat="47.30043687690655" lon="10.916208448555558"><ele>1013.8</ele><time>2026-05-01T06:55:47Z</time></trkpt><trkpt lat="47.300444974669595" lon="10.916046169535873"><ele>1015.0</ele><time>2026-05-01T06:55:48Z</time></trkpt><trkpt lat="47.30045168004241" lon="10.91588381521184"><ele>1016.0</ele><time>2026-05-01T06:55:49Z</time></trkpt><trkpt lat="47.300456493443754" lon="10.915719967329998"><ele>1017.0</ele><time>2026-05-01T06:55:50Z</time></trkpt><trkpt lat="47.30045971564156" lon="10.915556736958656"><ele>1018.0</ele><time>2026-05-01T06:55:51Z</time></trkpt><trkpt lat="47.30046198904" lon="10.915395243722838"><ele>1019.0</ele><time>2026-05-01T06:55:52Z</time></trkpt><trkpt lat="47.3004644631094" lon="10.91523479608979"><ele>1020.0</ele><time>2026-05-01T06:55:53Z</time></trkpt><trkpt lat="47.300466663363686" lon="10.915071539818888"><ele>1019.6</ele><time>2026-05-01T06:55:54Z</time></trkpt><trkpt lat="47.30046732528392" lon="10.914910072890969"><ele>1019.2</ele><time>2026-05-01T06:55:55.001Z</time></trkpt><trkpt lat="47.30046638555634" lon="10.914747098422156"><ele>1018.8</ele><time>2026-05-01T06:55:56.001Z</time></trkpt><trkpt lat="47.30046152655074" lon="10.914584648378598"><ele>1018.4</ele><time>2026-05-01T06:55:57.001Z</time></trkpt><trkpt lat="47.30045174065971" lon="10.914421527225903"><ele>1018.0</ele><time>2026-05-01T06:55:58.001Z</time></trkpt><trkpt lat="47.30043959644314" lon="10.914262232301223"><ele>1018.4</ele><time>2026-05-01T06:55:59.001Z</time></trkpt><trkpt lat="47.30042413642836" lon="10.914103372636763"><ele>1018.8</ele><time>2026-05-01T06:56:00.001Z</time></trkpt><trkpt lat="47.300404167964494" lon="10.913944756684913"><ele>1019.2</ele><time>2026-05-01T06:56:01.001Z</time></trkpt><trkpt lat="47.300380813900105" lon="10.913787868161796"><ele>1019.6</ele><time>2026-05-01T06:56:02.001Z</time></trkpt><trkpt lat="47.300353482288216" lon="10.913631105802548"><ele>1020.0</ele><time>2026-05-01T06:56:03.001Z</time></trkpt><trkpt lat="47.300321142811406" lon="10.913472068778548"><ele>1021.75</ele><time>2026-05-01T06:56:04.001Z</time></trkpt><trkpt lat="47.300306675241785" lon="10.913302903897785"><ele>1023.5</ele><time>2026-05-01T06:56:05.001Z</time></trkpt><trkpt lat="47.30026417265868" lon="10.91314708686001"><ele>1025.25</ele><time>2026-05-01T06:56:06.001Z</time></trkpt><trkpt lat="47.300219319749424" lon="10.912993105977058"><ele>1027.0</ele><time>2026-05-01T06:56:07.001Z</time></trkpt><trkpt lat="47.300173579887115" lon="10.912839463485593"><ele>1027.0</ele><time>2026-05-01T06:56:08.001Z</time></trkpt><trkpt lat="47.300117356989574" lon="10.91269363591505"><ele>1027.0</ele><time>2026-05-01T06:56:09.001Z</time></trkpt><trkpt lat="47.30008370768932" lon="10.912536724453018"><ele>1027.0</ele><time>2026-05-01T06:56:10.001Z</time></trkpt><trkpt lat="47.30005517066756" lon="10.912378594729002"><ele>1027.0</ele><time>2026-05-01T06:56:11.001Z</time></trkpt><trkpt lat="47.30003604993686" lon="10.912216937348822"><ele>1027.0</ele><time>2026-05-01T06:56:12.001Z</time></trkpt><trkpt lat="47.30002784402166" lon="10.912044963421854"><ele>1027.5</ele><time>2026-05-01T06:56:13.001Z</time></trkpt><trkpt lat="47.300025954428925" lon="10.911855935172762"><ele>1028.0</ele><time>2026-05-01T06:56:14.001Z</time></trkpt><trkpt lat="47.300026409294226" lon="10.9116543720826"><ele>1028.5</ele><time>2026-05-01T06:56:15.001Z</time></trkpt><trkpt lat="47.300024691240786" lon="10.911437551464024"><ele>1029.0</ele><time>2026-05-01T06:56:16.001Z</time></trkpt><trkpt lat="47.30001772233993" lon="10.91120948466256"><ele>1029.0</ele><time>2026-05-01T06:56:17.001Z</time></trkpt><trkpt lat="47.300007580960546" lon="10.910971726691603"><ele>1029.0</ele><time>2026-05-01T06:56:18.001Z</time></trkpt><trkpt lat="47.2999984906495" lon="10.910722669325372"><ele>1029.0</ele><time>2026-05-01T06:56:19.001Z</time></trkpt><trkpt lat="47.299993681478476" lon="10.910474565435262"><ele>1031.0</ele><time>2026-05-01T06:56:20.001Z</time></trkpt><trkpt lat="47.299998581494364" lon="10.910233549197637"><ele>1033.0</ele><time>2026-05-01T06:56:21.001Z</time></trkpt><trkpt lat="47.300018378554185" lon="10.909983959116975"><ele>1035.0</ele><time>2026-05-01T06:56:22.001Z</time></trkpt><trkpt lat="47.300051413099105" lon="10.909727486383611"><ele>1037.0</ele><time>2026-05-01T06:56:23.001Z</time></trkpt><trkpt lat="47.30011136914378" lon="10.909475663083832"><ele>1039.0</ele><time>2026-05-01T06:56:24.001Z</time></trkpt><trkpt lat="47.30016026576728" lon="10.909219919078687"><ele>1041.0</ele><time>2026-05-01T06:56:25.001Z</time></trkpt><trkpt lat="47.30020132564873" lon="10.908962603690467"><ele>1043.3333333333333</ele><time>2026-05-01T06:56:26.001Z</time></trkpt><trkpt lat="47.30027646447024" lon="10.90872669976471"><ele>1045.6666666666665</ele><time>2026-05-01T06:56:27.001Z</time></trkpt><trkpt lat="47.300367326956064" lon="10.908504201866526"><ele>1048.0</ele><time>2026-05-01T06:56:28.001Z</time></trkpt><trkpt lat="47.300470952552914" lon="10.908289528561523"><ele>1049.3333333333333</ele><time>2026-05-01T06:56:29.001Z</time></trkpt><trkpt lat="47.30058068889485" lon="10.908075764401554"><ele>1050.6666666666667</ele><time>2026-05-01T06:56:30.001Z</time></trkpt><trkpt lat="47.300695155372495" lon="10.90786279296445"><ele>1052.0</ele><time>2026-05-01T06:56:31.001Z</time></trkpt><trkpt lat="47.30081452254045" lon="10.9076547177478"><ele>1053.6666666666667</ele><time>2026-05-01T06:56:32.001Z</time></trkpt><trkpt lat="47.3009399894239" lon="10.907452788548694"><ele>1055.3333333333333</ele><time>2026-05-01T06:56:33.001Z</time></trkpt><trkpt lat="47.30106509834527" lon="10.907253943795459"><ele>1057.0</ele><time>2026-05-01T06:56:34.001Z</time></trkpt><trkpt lat="47.30118400999478" lon="10.907048353750191"><ele>1057.0</ele><time>2026-05-01T06:56:35.001Z</time></trkpt><trkpt lat="47.301277534573046" lon="10.906820230427217"><ele>1057.0</ele><time>2026-05-01T06:56:36.001Z</time></trkpt><trkpt lat="47.30135272807238" lon="10.9065670790503"><ele>1057.0</ele><time>2026-05-01T06:56:37.001Z</time></trkpt><trkpt lat="47.30142570277238" lon="10.906312648159128"><ele>1059.0</ele><time>2026-05-01T06:56:38.001Z</time></trkpt><trkpt lat="47.30150056488191" lon="10.906053198795114"><ele>1061.0</ele><time>2026-05-01T06:56:39.001Z</time></trkpt><trkpt lat="47.30157518602676" lon="10.90579211895087"><ele>1063.0</ele><time>2026-05-01T06:56:40.001Z</time></trkpt><trkpt lat="47.30165338074918" lon="10.905531839317154"><ele>1063.6666666666665</ele><time>2026-05-01T06:56:41.001Z</time></trkpt><trkpt lat="47.30173150088512" lon="10.905272060480755"><ele>1064.3333333333333</ele><time>2026-05-01T06:56:42.001Z</time></trkpt><trkpt lat="47.30180293410589" lon="10.905011095789664"><ele>1065.0</ele><time>2026-05-01T06:56:43.001Z</time></trkpt><trkpt lat="47.301858855631956" lon="10.904746459451907"><ele>1067.0</ele><time>2026-05-01T06:56:44.001Z</time></trkpt><trkpt lat="47.30189290525411" lon="10.904475410853436"><ele>1069.0</ele><time>2026-05-01T06:56:45.001Z</time></trkpt><trkpt lat="47.301910067399284" lon="10.904196193961374"><ele>1071.0</ele><time>2026-05-01T06:56:46.001Z</time></trkpt><trkpt lat="47.30192293342191" lon="10.90390939866797"><ele>1074.6666666666667</ele><time>2026-05-01T06:56:47.001Z</time></trkpt><trkpt lat="47.30194810470507" lon="10.90362616414843"><ele>1078.3333333333335</ele><time>2026-05-01T06:56:48.001Z</time></trkpt><trkpt lat="47.30198599104017" lon="10.903342744240197"><ele>1082.0</ele><time>2026-05-01T06:56:49.001Z</time></trkpt><trkpt lat="47.30203622877483" lon="10.903056744118745"><ele>1084.0</ele><time>2026-05-01T06:56:50.001Z</time></trkpt><trkpt lat="47.30209583209594" lon="10.902778528292618"><ele>1086.0</ele><time>2026-05-01T06:56:51Z</time></trkpt><trkpt lat="47.30217082222267" lon="10.90250549654519"><ele>1088.0</ele><time>2026-05-01T06:56:52Z</time></trkpt><trkpt lat="47.30225787993503" lon="10.90224771462582"><ele>1088.6666666666667</ele><time>2026-05-01T06:56:53Z</time></trkpt><trkpt lat="47.30234719739439" lon="10.902018012159296"><ele>1089.3333333333333</ele><time>2026-05-01T06:56:54Z</time></trkpt><trkpt lat="47.30246896309187" lon="10.901813981083757"><ele>1090.0</ele><time>2026-05-01T06:56:55Z</time></trkpt><trkpt lat="47.302586097902825" lon="10.901593159625508"><ele>1091.0</ele><time>2026-05-01T06:56:56Z</time></trkpt><trkpt lat="47.3027012249825" lon="10.901359092491818"><ele>1092.0</ele><time>2026-05-01T06:56:57Z</time></trkpt><trkpt lat="47.302831596841834" lon="10.90115001161634"><ele>1093.0</ele><time>2026-05-01T06:56:58Z</time></trkpt><trkpt lat="47.30296277921838" lon="10.900934667218277"><ele>1093.0</ele><time>2026-05-01T06:56:59Z</time></trkpt><trkpt lat="47.30308760539926" lon="10.900713507664294"><ele>1093.0</ele><time>2026-05-01T06:57:00Z</time></trkpt><trkpt lat="47.3032014276186" lon="10.900485988374438"><ele>1093.0</ele><time>2026-05-01T06:57:01Z</time></trkpt><trkpt lat="47.303305631445994" lon="10.900254656181556"><ele>1095.0</ele><time>2026-05-01T06:57:02Z</time></trkpt><trkpt lat="47.30340547084583" lon="10.900017886635611"><ele>1097.0</ele><time>2026-05-01T06:57:03Z</time></trkpt><trkpt lat="47.30350738603533" lon="10.899781048521284"><ele>1099.0</ele><time>2026-05-01T06:57:04Z</time></trkpt><trkpt lat="47.30361040534116" lon="10.899547132703251"><ele>1099.0</ele><time>2026-05-01T06:57:05Z</time></trkpt><trkpt lat="47.30371174075644" lon="10.899317308307808"><ele>1099.0</ele><time>2026-05-01T06:57:06Z</time></trkpt><trkpt lat="47.30379783553804" lon="10.89908015525389"><ele>1099.0</ele><time>2026-05-01T06:57:07Z</time></trkpt><trkpt lat="47.30386071451452" lon="10.898833155221656"><ele>1102.3333333333333</ele><time>2026-05-01T06:57:08Z</time></trkpt><trkpt lat="47.30390416131983" lon="10.898574183718665"><ele>1105.6666666666667</ele><time>2026-05-01T06:57:09Z</time></trkpt><trkpt lat="47.303933750410366" lon="10.898310875960803"><ele>1109.0</ele><time>2026-05-01T06:57:10Z</time></trkpt><trkpt lat="47.30396804589236" lon="10.898048003328379"><ele>1110.0</ele><time>2026-05-01T06:57:11Z</time></trkpt><trkpt lat="47.304037430522214" lon="10.897801950177875"><ele>1111.0</ele><time>2026-05-01T06:57:12Z</time></trkpt><trkpt lat="47.30408920996271" lon="10.897548624216622"><ele>1112.0</ele><time>2026-05-01T06:57:13Z</time></trkpt><trkpt lat="47.30417470778436" lon="10.897318254796605"><ele>1112.6666666666667</ele><time>2026-05-01T06:57:14Z</time></trkpt><trkpt lat="47.30427180252065" lon="10.897091378477336"><ele>1113.3333333333333</ele><time>2026-05-01T06:57:15Z</time></trkpt><trkpt lat="47.30437235386026" lon="10.896869401870596"><ele>1114.0</ele><time>2026-05-01T06:57:16Z</time></trkpt><trkpt lat="47.30447102438644" lon="10.896652709813244"><ele>1114.0</ele><time>2026-05-01T06:57:17Z</time></trkpt><trkpt lat="47.30456432234903" lon="10.896432477230707"><ele>1114.0</ele><time>2026-05-01T06:57:18Z</time></trkpt><trkpt lat="47.304650660300474" lon="10.896202467047935"><ele>1114.0</ele><time>2026-05-01T06:57:19Z</time></trkpt><trkpt lat="47.30473436637523" lon="10.895962033373959"><ele>1116.6666666666665</ele><time>2026-05-01T06:57:20Z</time></trkpt><trkpt lat="47.30482087342325" lon="10.895723512699794"><ele>1119.3333333333333</ele><time>2026-05-01T06:57:21Z</time></trkpt><trkpt lat="47.30491037499179" lon="10.895487209684159"><ele>1122.0</ele><time>2026-05-01T06:57:22Z</time></trkpt><trkpt lat="47.30498848755523" lon="10.895246078698516"><ele>1121.0</ele><time>2026-05-01T06:57:23Z</time></trkpt><trkpt lat="47.30505239510471" lon="10.894994566702195"><ele>1120.0</ele><time>2026-05-01T06:57:24Z</time></trkpt><trkpt lat="47.30510514757522" lon="10.894729850464769"><ele>1119.0</ele><time>2026-05-01T06:57:25Z</time></trkpt><trkpt lat="47.30515291892303" lon="10.894458192967262"><ele>1120.6666666666667</ele><time>2026-05-01T06:57:26Z</time></trkpt><trkpt lat="47.305203007749675" lon="10.89418827120585"><ele>1122.3333333333335</ele><time>2026-05-01T06:57:27Z</time></trkpt><trkpt lat="47.30525383519902" lon="10.89391718525931"><ele>1124.0</ele><time>2026-05-01T06:57:28Z</time></trkpt><trkpt lat="47.30530596662361" lon="10.89364757124933"><ele>1125.6666666666667</ele><time>2026-05-01T06:57:29Z</time></trkpt><trkpt lat="47.305357633870756" lon="10.893375326577308"><ele>1127.3333333333333</ele><time>2026-05-01T06:57:30Z</time></trkpt><trkpt lat="47.30540867988363" lon="10.893105312336221"><ele>1129.0</ele><time>2026-05-01T06:57:31Z</time></trkpt><trkpt lat="47.305474193178334" lon="10.892849532619934"><ele>1127.3333333333333</ele><time>2026-05-01T06:57:32Z</time></trkpt><trkpt lat="47.30550931969229" lon="10.892570195480648"><ele>1125.6666666666667</ele><time>2026-05-01T06:57:33Z</time></trkpt><trkpt lat="47.30557629192648" lon="10.89230366106186"><ele>1124.0</ele><time>2026-05-01T06:57:34Z</time></trkpt><trkpt lat="47.305626650817025" lon="10.892034416870013"><ele>1123.0</ele><time>2026-05-01T06:57:35Z</time></trkpt><trkpt lat="47.30567916442369" lon="10.89176924507121"><ele>1122.0</ele><time>2026-05-01T06:57:36Z</time></trkpt><trkpt lat="47.30573775804892" lon="10.891498109540757"><ele>1121.0</ele><time>2026-05-01T06:57:37Z</time></trkpt><trkpt lat="47.305788724251286" lon="10.891218558738494"><ele>1120.6666666666667</ele><time>2026-05-01T06:57:38Z</time></trkpt><trkpt lat="47.30586692435513" lon="10.890947765962117"><ele>1120.3333333333333</ele><time>2026-05-01T06:57:39Z</time></trkpt><trkpt lat="47.305953009754774" lon="10.89069023389889"><ele>1120.0</ele><time>2026-05-01T06:57:40Z</time></trkpt><trkpt lat="47.30604955236171" lon="10.890449351686092"><ele>1120.0</ele><time>2026-05-01T06:57:41Z</time></trkpt><trkpt lat="47.30617941404031" lon="10.890239805593577"><ele>1120.0</ele><time>2026-05-01T06:57:42Z</time></trkpt><trkpt lat="47.30630691614162" lon="10.890028208517661"><ele>1120.0</ele><time>2026-05-01T06:57:43Z</time></trkpt><trkpt lat="47.30642943938491" lon="10.889806735317158"><ele>1119.3333333333333</ele><time>2026-05-01T06:57:44Z</time></trkpt><trkpt lat="47.30656950926744" lon="10.889602539710328"><ele>1118.6666666666667</ele><time>2026-05-01T06:57:45Z</time></trkpt><trkpt lat="47.30670792386684" lon="10.88939667920274"><ele>1118.0</ele><time>2026-05-01T06:57:46Z</time></trkpt><trkpt lat="47.3068593656384" lon="10.889215103500488"><ele>1118.0</ele><time>2026-05-01T06:57:47Z</time></trkpt><trkpt lat="47.30700147246849" lon="10.889024014945695"><ele>1118.0</ele><time>2026-05-01T06:57:48Z</time></trkpt><trkpt lat="47.30712702187887" lon="10.888825252421995"><ele>1118.0</ele><time>2026-05-01T06:57:49Z</time></trkpt><trkpt lat="47.307262732765274" lon="10.888643262598674"><ele>1117.3333333333335</ele><time>2026-05-01T06:57:50Z</time></trkpt><trkpt lat="47.307402972434375" lon="10.888453516886562"><ele>1116.6666666666667</ele><time>2026-05-01T06:57:51Z</time></trkpt><trkpt lat="47.307541517633176" lon="10.888266578920978"><ele>1116.0</ele><time>2026-05-01T06:57:52Z</time></trkpt><trkpt lat="47.307673179048784" lon="10.888082792741457"><ele>1114.0</ele><time>2026-05-01T06:57:53Z</time></trkpt><trkpt lat="47.307812157986035" lon="10.887927824328115"><ele>1112.0</ele><time>2026-05-01T06:57:54Z</time></trkpt><trkpt lat="47.307935506414616" lon="10.88776111387287"><ele>1110.0</ele><time>2026-05-01T06:57:55Z</time></trkpt><trkpt lat="47.30805171174283" lon="10.88760175297398"><ele>1109.0</ele><time>2026-05-01T06:57:56Z</time></trkpt><trkpt lat="47.308159266057885" lon="10.887435284221075"><ele>1108.0</ele><time>2026-05-01T06:57:57Z</time></trkpt><trkpt lat="47.30825207966089" lon="10.887271856948244"><ele>1107.0</ele><time>2026-05-01T06:57:58Z</time></trkpt><trkpt lat="47.30832957660743" lon="10.88710293588903"><ele>1106.0</ele><time>2026-05-01T06:57:59Z</time></trkpt><trkpt lat="47.308387873174034" lon="10.886926257099185"><ele>1107.0</ele><time>2026-05-01T06:58:00Z</time></trkpt><trkpt lat="47.308439530749496" lon="10.886746470949165"><ele>1108.0</ele><time>2026-05-01T06:58:01Z</time></trkpt><trkpt lat="47.308489185382136" lon="10.886563077812706"><ele>1109.0</ele><time>2026-05-01T06:58:02Z</time></trkpt><trkpt lat="47.30853935739354" lon="10.886376889275445"><ele>1110.0</ele><time>2026-05-01T06:58:03Z</time></trkpt><trkpt lat="47.308574264710025" lon="10.886180439259936"><ele>1110.0</ele><time>2026-05-01T06:58:04.001Z</time></trkpt><trkpt lat="47.308624180246795" lon="10.885989612601813"><ele>1110.0</ele><time>2026-05-01T06:58:05.001Z</time></trkpt><trkpt lat="47.30866708455268" lon="10.88579228576043"><ele>1110.0</ele><time>2026-05-01T06:58:06.001Z</time></trkpt><trkpt lat="47.308698091698595" lon="10.885592201519785"><ele>1110.0</ele><time>2026-05-01T06:58:07.001Z</time></trkpt><trkpt lat="47.308714574350276" lon="10.885389418033471"><ele>1108.0</ele><time>2026-05-01T06:58:08.001Z</time></trkpt><trkpt lat="47.30871576663177" lon="10.885187668154217"><ele>1106.0</ele><time>2026-05-01T06:58:09.001Z</time></trkpt><trkpt lat="47.30870472499769" lon="10.884987377396167"><ele>1104.0</ele><time>2026-05-01T06:58:10.001Z</time></trkpt><trkpt lat="47.30867945572888" lon="10.884789268522317"><ele>1102.0</ele><time>2026-05-01T06:58:11.001Z</time></trkpt><trkpt lat="47.30864338182299" lon="10.884593351272347"><ele>1099.5</ele><time>2026-05-01T06:58:12.001Z</time></trkpt><trkpt lat="47.308601818199584" lon="10.88439728812513"><ele>1097.0</ele><time>2026-05-01T06:58:13.001Z</time></trkpt><trkpt lat="47.308562746011745" lon="10.884200557892264"><ele>1094.5</ele><time>2026-05-01T06:58:14.001Z</time></trkpt><trkpt lat="47.308524982468" lon="10.884000182270302"><ele>1092.0</ele><time>2026-05-01T06:58:15.001Z</time></trkpt><trkpt lat="47.308491232828345" lon="10.883799759469852"><ele>1090.75</ele><time>2026-05-01T06:58:16.001Z</time></trkpt><trkpt lat="47.30846145604259" lon="10.883600291434233"><ele>1089.5</ele><time>2026-05-01T06:58:17.001Z</time></trkpt><trkpt lat="47.308433201621575" lon="10.883400406767672"><ele>1088.25</ele><time>2026-05-01T06:58:18.001Z</time></trkpt><trkpt lat="47.30840641958686" lon="10.88319699692765"><ele>1087.0</ele><time>2026-05-01T06:58:19.001Z</time></trkpt><trkpt lat="47.308383488554995" lon="10.882997465663998"><ele>1086.75</ele><time>2026-05-01T06:58:20.001Z</time></trkpt><trkpt lat="47.30836345346206" lon="10.882796383596169"><ele>1086.5</ele><time>2026-05-01T06:58:21.001Z</time></trkpt><trkpt lat="47.30834793638915" lon="10.882594584178118"><ele>1086.25</ele><time>2026-05-01T06:58:22.001Z</time></trkpt><trkpt lat="47.30833541539552" lon="10.882388851448312"><ele>1086.0</ele><time>2026-05-01T06:58:23.001Z</time></trkpt><trkpt lat="47.30832751070094" lon="10.882177217020505"><ele>1086.3333333333333</ele><time>2026-05-01T06:58:24.001Z</time></trkpt><trkpt lat="47.30832344372047" lon="10.881954868109911"><ele>1086.6666666666665</ele><time>2026-05-01T06:58:25.001Z</time></trkpt><trkpt lat="47.308321237402794" lon="10.881720582817515"><ele>1087.0</ele><time>2026-05-01T06:58:26.001Z</time></trkpt><trkpt lat="47.30832363646902" lon="10.881475022287438"><ele>1087.0</ele><time>2026-05-01T06:58:27.001Z</time></trkpt><trkpt lat="47.308329785235294" lon="10.881217511223014"><ele>1087.0</ele><time>2026-05-01T06:58:28.001Z</time></trkpt><trkpt lat="47.30833983587948" lon="10.880955657207997"><ele>1087.0</ele><time>2026-05-01T06:58:29.001Z</time></trkpt><trkpt lat="47.3083530663012" lon="10.880697513021913"><ele>1086.6666666666665</ele><time>2026-05-01T06:58:30.001Z</time></trkpt><trkpt lat="47.308369777482326" lon="10.880429390867597"><ele>1086.3333333333333</ele><time>2026-05-01T06:58:31.001Z</time></trkpt><trkpt lat="47.30840507471517" lon="10.880156146680461"><ele>1086.0</ele><time>2026-05-01T06:58:32.001Z</time></trkpt><trkpt lat="47.30842796362837" lon="10.879872338749271"><ele>1085.6666666666667</ele><time>2026-05-01T06:58:33.001Z</time></trkpt><trkpt lat="47.30844787254799" lon="10.879580073041915"><ele>1085.3333333333335</ele><time>2026-05-01T06:58:34.001Z</time></trkpt><trkpt lat="47.308462129677714" lon="10.879275936920084"><ele>1085.0</ele><time>2026-05-01T06:58:35.001Z</time></trkpt><trkpt lat="47.30846899504868" lon="10.878979928262234"><ele>1084.3333333333335</ele><time>2026-05-01T06:58:36.001Z</time></trkpt><trkpt lat="47.308466138290456" lon="10.87867510936329"><ele>1083.6666666666667</ele><time>2026-05-01T06:58:37.001Z</time></trkpt><trkpt lat="47.30845405825593" lon="10.87836214123553"><ele>1083.0</ele><time>2026-05-01T06:58:38.001Z</time></trkpt><trkpt lat="47.30843901273347" lon="10.878042239220084"><ele>1082.6666666666667</ele><time>2026-05-01T06:58:39.001Z</time></trkpt><trkpt lat="47.30841480944793" lon="10.877722721608118"><ele>1082.3333333333335</ele><time>2026-05-01T06:58:40.001Z</time></trkpt><trkpt lat="47.308378595642814" lon="10.877399920954646"><ele>1082.0</ele><time>2026-05-01T06:58:41.001Z</time></trkpt><trkpt lat="47.308333654577595" lon="10.877077120146955"><ele>1083.5</ele><time>2026-05-01T06:58:42.001Z</time></trkpt><trkpt lat="47.308279219894544" lon="10.876751017677817"><ele>1085.0</ele><time>2026-05-01T06:58:43.001Z</time></trkpt><trkpt lat="47.308213389537705" lon="10.876429484832176"><ele>1085.0</ele><time>2026-05-01T06:58:44.001Z</time></trkpt><trkpt lat="47.30813958515748" lon="10.87611369183364"><ele>1085.0</ele><time>2026-05-01T06:58:45.001Z</time></trkpt><trkpt lat="47.308055711416436" lon="10.87580173362307"><ele>1090.0</ele><time>2026-05-01T06:58:46.001Z</time></trkpt><trkpt lat="47.307963560894024" lon="10.875492578855972"><ele>1095.0</ele><time>2026-05-01T06:58:47.001Z</time></trkpt><trkpt lat="47.307862059161984" lon="10.875189323792874"><ele>1093.0</ele><time>2026-05-01T06:58:48.001Z</time></trkpt><trkpt lat="47.30775286574624" lon="10.874891071929614"><ele>1091.0</ele><time>2026-05-01T06:58:49.001Z</time></trkpt><trkpt lat="47.3076344749788" lon="10.874604013504308"><ele>1091.0</ele><time>2026-05-01T06:58:50.001Z</time></trkpt><trkpt lat="47.30750913295543" lon="10.874326426561309"><ele>1091.0</ele><time>2026-05-01T06:58:51.001Z</time></trkpt><trkpt lat="47.30737556054138" lon="10.874053187154718"><ele>1090.0</ele><time>2026-05-01T06:58:52.001Z</time></trkpt><trkpt lat="47.30723584041778" lon="10.87378709104354"><ele>1089.0</ele><time>2026-05-01T06:58:53.001Z</time></trkpt><trkpt lat="47.307094605268674" lon="10.873525716259644"><ele>1082.0</ele><time>2026-05-01T06:58:54.001Z</time></trkpt><trkpt lat="47.30695654825521" lon="10.873259380104379"><ele>1075.0</ele><time>2026-05-01T06:58:55.001Z</time></trkpt><trkpt lat="47.306824256953895" lon="10.872986671614951"><ele>1075.0</ele><time>2026-05-01T06:58:56.001Z</time></trkpt><trkpt lat="47.30669700868039" lon="10.872706126460773"><ele>1075.0</ele><time>2026-05-01T06:58:57Z</time></trkpt><trkpt lat="47.30658037175179" lon="10.872421194201442"><ele>1076.0</ele><time>2026-05-01T06:58:58Z</time></trkpt><trkpt lat="47.306471308735716" lon="10.872131164943763"><ele>1077.0</ele><time>2026-05-01T06:58:59Z</time></trkpt><trkpt lat="47.30637613773553" lon="10.871826269145762"><ele>1075.5</ele><time>2026-05-01T06:59:00Z</time></trkpt><trkpt lat="47.306290927436095" lon="10.87151256188387"><ele>1074.0</ele><time>2026-05-01T06:59:01Z</time></trkpt><trkpt lat="47.30619758565286" lon="10.87119710155633"><ele>1073.5</ele><time>2026-05-01T06:59:02Z</time></trkpt><trkpt lat="47.30613300274583" lon="10.870869645357795"><ele>1073.0</ele><time>2026-05-01T06:59:03Z</time></trkpt><trkpt lat="47.30607907352595" lon="10.870539445911389"><ele>1073.0</ele><time>2026-05-01T06:59:04Z</time></trkpt><trkpt lat="47.306037858488" lon="10.870203686655756"><ele>1073.0</ele><time>2026-05-01T06:59:05Z</time></trkpt><trkpt lat="47.30600891456649" lon="10.869871120012586"><ele>1070.5</ele><time>2026-05-01T06:59:06Z</time></trkpt><trkpt lat="47.30599203435581" lon="10.86953516146017"><ele>1068.0</ele><time>2026-05-01T06:59:07Z</time></trkpt><trkpt lat="47.30598334436154" lon="10.869197241069857"><ele>1067.0</ele><time>2026-05-01T06:59:08Z</time></trkpt><trkpt lat="47.305986921659155" lon="10.868861158093866"><ele>1066.0</ele><time>2026-05-01T06:59:09Z</time></trkpt><trkpt lat="47.30600350341286" lon="10.8685281299598"><ele>1063.5</ele><time>2026-05-01T06:59:10Z</time></trkpt><trkpt lat="47.30603233667744" lon="10.86819364286056"><ele>1061.0</ele><time>2026-05-01T06:59:11Z</time></trkpt><trkpt lat="47.306072944389015" lon="10.867865949195515"><ele>1060.0</ele><time>2026-05-01T06:59:12Z</time></trkpt><trkpt lat="47.30612207863996" lon="10.86754189581699"><ele>1059.0</ele><time>2026-05-01T06:59:13Z</time></trkpt><trkpt lat="47.30618149172484" lon="10.867219834247855"><ele>1059.0</ele><time>2026-05-01T06:59:14Z</time></trkpt><trkpt lat="47.3062541931994" lon="10.86690208290402"><ele>1059.0</ele><time>2026-05-01T06:59:15Z</time></trkpt><trkpt lat="47.30633767520163" lon="10.866592701004413"><ele>1053.0</ele><time>2026-05-01T06:59:16Z</time></trkpt><trkpt lat="47.306432859959024" lon="10.866291884151435"><ele>1047.0</ele><time>2026-05-01T06:59:17Z</time></trkpt><trkpt lat="47.306536875803936" lon="10.865998050928054"><ele>1047.6666666666667</ele><time>2026-05-01T06:59:18Z</time></trkpt><trkpt lat="47.30664273992602" lon="10.86572138619484"><ele>1048.3333333333335</ele><time>2026-05-01T06:59:19Z</time></trkpt><trkpt lat="47.30675090140942" lon="10.865463233519687"><ele>1049.0</ele><time>2026-05-01T06:59:20Z</time></trkpt><trkpt lat="47.30686418131524" lon="10.865200856880964"><ele>1049.3333333333335</ele><time>2026-05-01T06:59:21Z</time></trkpt><trkpt lat="47.30697960058856" lon="10.864944477913447"><ele>1049.6666666666667</ele><time>2026-05-01T06:59:22Z</time></trkpt><trkpt lat="47.30709378602951" lon="10.864696431613742"><ele>1050.0</ele><time>2026-05-01T06:59:23Z</time></trkpt><trkpt lat="47.30720809858722" lon="10.864447689463127"><ele>1048.3333333333333</ele><time>2026-05-01T06:59:24Z</time></trkpt><trkpt lat="47.30732603698566" lon="10.864195822893551"><ele>1046.6666666666665</ele><time>2026-05-01T06:59:25Z</time></trkpt><trkpt lat="47.30744629390726" lon="10.863941165861794"><ele>1045.0</ele><time>2026-05-01T06:59:26Z</time></trkpt><trkpt lat="47.307566014072876" lon="10.86368561737948"><ele>1045.6666666666665</ele><time>2026-05-01T06:59:27Z</time></trkpt><trkpt lat="47.30768654623781" lon="10.863427254075019"><ele>1046.3333333333333</ele><time>2026-05-01T06:59:28Z</time></trkpt><trkpt lat="47.30780553013711" lon="10.86316876027535"><ele>1047.0</ele><time>2026-05-01T06:59:29Z</time></trkpt><trkpt lat="47.30792320756429" lon="10.862914766992347"><ele>1047.0</ele><time>2026-05-01T06:59:30Z</time></trkpt><trkpt lat="47.30803788433835" lon="10.862666651666862"><ele>1047.0</ele><time>2026-05-01T06:59:31Z</time></trkpt><trkpt lat="47.30814817529463" lon="10.862423727974198"><ele>1047.0</ele><time>2026-05-01T06:59:32Z</time></trkpt><trkpt lat="47.30824854217558" lon="10.862171283267672"><ele>1042.0</ele><time>2026-05-01T06:59:33Z</time></trkpt><trkpt lat="47.30833269000378" lon="10.86191286987996"><ele>1037.0</ele><time>2026-05-01T06:59:34Z</time></trkpt><trkpt lat="47.3083912913855" lon="10.861642547984147"><ele>1032.0</ele><time>2026-05-01T06:59:35Z</time></trkpt><trkpt lat="47.30842284153759" lon="10.861362606964066"><ele>1032.0</ele><time>2026-05-01T06:59:36Z</time></trkpt><trkpt lat="47.308427625077485" lon="10.861076711601259"><ele>1032.0</ele><time>2026-05-01T06:59:37Z</time></trkpt><trkpt lat="47.30840124436857" lon="10.860794837160375"><ele>1032.0</ele><time>2026-05-01T06:59:38Z</time></trkpt><trkpt lat="47.308339928874915" lon="10.86052674109574"><ele>1031.6666666666667</ele><time>2026-05-01T06:59:39Z</time></trkpt><trkpt lat="47.308249032458484" lon="10.860271562585412"><ele>1031.3333333333335</ele><time>2026-05-01T06:59:40Z</time></trkpt><trkpt lat="47.30812949623488" lon="10.860042799030202"><ele>1031.0</ele><time>2026-05-01T06:59:41Z</time></trkpt><trkpt lat="47.30798156155588" lon="10.859854082039043"><ele>1027.0</ele><time>2026-05-01T06:59:42Z</time></trkpt><trkpt lat="47.307815035103545" lon="10.85969889179547"><ele>1023.0</ele><time>2026-05-01T06:59:43Z</time></trkpt><trkpt lat="47.307629074946966" lon="10.859587385370286"><ele>1019.0</ele><time>2026-05-01T06:59:44Z</time></trkpt><trkpt lat="47.30743188538573" lon="10.85951888713164"><ele>1018.0</ele><time>2026-05-01T06:59:45Z</time></trkpt><trkpt lat="47.307225910522625" lon="10.859483678037742"><ele>1017.0</ele><time>2026-05-01T06:59:46Z</time></trkpt><trkpt lat="47.30701361036638" lon="10.859481759105966"><ele>1016.0</ele><time>2026-05-01T06:59:47Z</time></trkpt><trkpt lat="47.30679748002354" lon="10.85948771331084"><ele>1016.0</ele><time>2026-05-01T06:59:48Z</time></trkpt><trkpt lat="47.30657446183734" lon="10.859489539617849"><ele>1016.0</ele><time>2026-05-01T06:59:49Z</time></trkpt><trkpt lat="47.30634854934424" lon="10.859478715491223"><ele>1016.0</ele><time>2026-05-01T06:59:50Z</time></trkpt><trkpt lat="47.306119775574" lon="10.8594542713107"><ele>1021.5</ele><time>2026-05-01T06:59:51Z</time></trkpt><trkpt lat="47.305890021622595" lon="10.859419360493249"><ele>1027.0</ele><time>2026-05-01T06:59:52Z</time></trkpt><trkpt lat="47.30565762792752" lon="10.85937590355726"><ele>1027.6666666666665</ele><time>2026-05-01T06:59:53Z</time></trkpt><trkpt lat="47.305433723482054" lon="10.859323042385851"><ele>1028.3333333333333</ele><time>2026-05-01T06:59:54Z</time></trkpt><trkpt lat="47.30522106383175" lon="10.859259614963783"><ele>1029.0</ele><time>2026-05-01T06:59:55Z</time></trkpt><trkpt lat="47.30501377678338" lon="10.859185671932478"><ele>1022.0</ele><time>2026-05-01T06:59:56Z</time></trkpt><trkpt lat="47.30480297888528" lon="10.859098959111908"><ele>1015.0</ele><time>2026-05-01T06:59:57Z</time></trkpt><trkpt lat="47.30459820573143" lon="10.859002775503228"><ele>1008.0</ele><time>2026-05-01T06:59:58Z</time></trkpt><trkpt lat="47.304403168819256" lon="10.858899822802147"><ele>1007.0</ele><time>2026-05-01T06:59:59Z</time></trkpt><trkpt lat="47.30421774022157" lon="10.858792673220583"><ele>1006.0</ele><time>2026-05-01T07:00:00Z</time></trkpt><trkpt lat="47.30403897726631" lon="10.858679963706312"><ele>1005.0</ele><time>2026-05-01T07:00:01Z</time></trkpt><trkpt lat="47.30386785269968" lon="10.858564230959015"><ele>1002.6666666666667</ele><time>2026-05-01T07:00:02Z</time></trkpt><trkpt lat="47.303700549768216" lon="10.858452717210307"><ele>1000.3333333333334</ele><time>2026-05-01T07:00:03Z</time></trkpt><trkpt lat="47.30354017455999" lon="10.858345223770092"><ele>998.0</ele><time>2026-05-01T07:00:04Z</time></trkpt><trkpt lat="47.30338303324929" lon="10.858243158890918"><ele>999.3333333333334</ele><time>2026-05-01T07:00:05Z</time></trkpt><trkpt lat="47.30322784910683" lon="10.85814446997895"><ele>1000.6666666666667</ele><time>2026-05-01T07:00:06Z</time></trkpt><trkpt lat="47.30306819953221" lon="10.85805084106756"><ele>1002.0</ele><time>2026-05-01T07:00:07Z</time></trkpt><trkpt lat="47.30290280589234" lon="10.857972109837718"><ele>1002.0</ele><time>2026-05-01T07:00:08Z</time></trkpt><trkpt lat="47.30272891072845" lon="10.857915141650606"><ele>1002.0</ele><time>2026-05-01T07:00:09Z</time></trkpt><trkpt lat="47.302549061520665" lon="10.857883308859957"><ele>1002.0</ele><time>2026-05-01T07:00:10Z</time></trkpt><trkpt lat="47.30236675321502" lon="10.857881950199252"><ele>997.6666666666667</ele><time>2026-05-01T07:00:11Z</time></trkpt><trkpt lat="47.30218452726834" lon="10.857913007335307"><ele>993.3333333333334</ele><time>2026-05-01T07:00:12Z</time></trkpt><trkpt lat="47.30200599867311" lon="10.857973165587278"><ele>989.0</ele><time>2026-05-01T07:00:13Z</time></trkpt><trkpt lat="47.30183097563936" lon="10.85805748399398"><ele>989.0</ele><time>2026-05-01T07:00:14Z</time></trkpt><trkpt lat="47.30166588678437" lon="10.85816218222445"><ele>989.0</ele><time>2026-05-01T07:00:15Z</time></trkpt><trkpt lat="47.301513617757244" lon="10.858278826406709"><ele>989.0</ele><time>2026-05-01T07:00:16Z</time></trkpt><trkpt lat="47.301367210264935" lon="10.858399185543584"><ele>993.6666666666667</ele><time>2026-05-01T07:00:17Z</time></trkpt><trkpt lat="47.301221025973945" lon="10.858506466629182"><ele>998.3333333333333</ele><time>2026-05-01T07:00:18Z</time></trkpt><trkpt lat="47.30107810111168" lon="10.858580988562396"><ele>1003.0</ele><time>2026-05-01T07:00:19Z</time></trkpt><trkpt lat="47.300941764130265" lon="10.858608635113285"><ele>1003.0</ele><time>2026-05-01T07:00:20.001Z</time></trkpt><trkpt lat="47.30081123017466" lon="10.858583431677017"><ele>1003.0</ele><time>2026-05-01T07:00:21.001Z</time></trkpt><trkpt lat="47.30069387887509" lon="10.85850743472935"><ele>1003.0</ele><time>2026-05-01T07:00:22.001Z</time></trkpt><trkpt lat="47.300589060632895" lon="10.858386243413307"><ele>1003.0</ele><time>2026-05-01T07:00:23.001Z</time></trkpt><trkpt lat="47.30050336329263" lon="10.85822040513959"><ele>1004.25</ele><time>2026-05-01T07:00:24.001Z</time></trkpt><trkpt lat="47.30045210033146" lon="10.858035019402081"><ele>1005.5</ele><time>2026-05-01T07:00:25.001Z</time></trkpt><trkpt lat="47.300441618793705" lon="10.857835612121702"><ele>1006.75</ele><time>2026-05-01T07:00:26.001Z</time></trkpt><trkpt lat="47.30046824813216" lon="10.857641348761101"><ele>1008.0</ele><time>2026-05-01T07:00:27.001Z</time></trkpt><trkpt lat="47.30053120324331" lon="10.857464642025514"><ele>998.25</ele><time>2026-05-01T07:00:28.001Z</time></trkpt><trkpt lat="47.30060440599875" lon="10.85732290478821"><ele>988.5</ele><time>2026-05-01T07:00:29.001Z</time></trkpt><trkpt lat="47.30070273853581" lon="10.857213539634989"><ele>978.75</ele><time>2026-05-01T07:00:30.001Z</time></trkpt><trkpt lat="47.30080133176963" lon="10.857140425475443"><ele>969.0</ele><time>2026-05-01T07:00:31.001Z</time></trkpt><trkpt lat="47.30090319318372" lon="10.857104618927059"><ele>969.0</ele><time>2026-05-01T07:00:32.001Z</time></trkpt><trkpt lat="47.301002447666264" lon="10.857066027639913"><ele>969.0</ele><time>2026-05-01T07:00:33.001Z</time></trkpt><trkpt lat="47.30111232367692" lon="10.857048081832444"><ele>969.0</ele><time>2026-05-01T07:00:34.001Z</time></trkpt><trkpt lat="47.30122901319355" lon="10.85703151983965"><ele>969.0</ele><time>2026-05-01T07:00:35.001Z</time></trkpt><trkpt lat="47.301354378732064" lon="10.856997220370967"><ele>970.25</ele><time>2026-05-01T07:00:36.001Z</time></trkpt><trkpt lat="47.30147983172334" lon="10.856945562214143"><ele>971.5</ele><time>2026-05-01T07:00:37.001Z</time></trkpt><trkpt lat="47.30159556990487" lon="10.856887671451444"><ele>972.75</ele><time>2026-05-01T07:00:38.001Z</time></trkpt><trkpt lat="47.30170408357251" lon="10.856823306211755"><ele>974.0</ele><time>2026-05-01T07:00:39.001Z</time></trkpt><trkpt lat="47.30181556785992" lon="10.856750657748698"><ele>972.75</ele><time>2026-05-01T07:00:40.001Z</time></trkpt><trkpt lat="47.301933324039055" lon="10.856677758967207"><ele>971.5</ele><time>2026-05-01T07:00:41.001Z</time></trkpt><trkpt lat="47.30205658694688" lon="10.85661176877682"><ele>970.25</ele><time>2026-05-01T07:00:42.001Z</time></trkpt><trkpt lat="47.302182795889735" lon="10.856548414818654"><ele>969.0</ele><time>2026-05-01T07:00:43.001Z</time></trkpt><trkpt lat="47.30231171104903" lon="10.85649108167043"><ele>969.0</ele><time>2026-05-01T07:00:44.001Z</time></trkpt><trkpt lat="47.30244584669546" lon="10.856438887284236"><ele>969.0</ele><time>2026-05-01T07:00:45.001Z</time></trkpt><trkpt lat="47.30258396592719" lon="10.856400030375498"><ele>969.0</ele><time>2026-05-01T07:00:46.001Z</time></trkpt><trkpt lat="47.30272547427048" lon="10.856371178175312"><ele>969.0</ele><time>2026-05-01T07:00:47.001Z</time></trkpt><trkpt lat="47.30286942176523" lon="10.85634957653649"><ele>969.0</ele><time>2026-05-01T07:00:48.001Z</time></trkpt><trkpt lat="47.30301323026513" lon="10.856334790192363"><ele>969.0</ele><time>2026-05-01T07:00:49.001Z</time></trkpt><trkpt lat="47.303161992960966" lon="10.85633670416691"><ele>969.0</ele><time>2026-05-01T07:00:50.001Z</time></trkpt><trkpt lat="47.303313417739204" lon="10.85634727985313"><ele>969.0</ele><time>2026-05-01T07:00:51.001Z</time></trkpt><trkpt lat="47.30346433461968" lon="10.856368928818963"><ele>965.3333333333333</ele><time>2026-05-01T07:00:52.001Z</time></trkpt><trkpt lat="47.30361486466479" lon="10.856404964224211"><ele>961.6666666666666</ele><time>2026-05-01T07:00:53.001Z</time></trkpt><trkpt lat="47.30377026142999" lon="10.856449610191602"><ele>958.0</ele><time>2026-05-01T07:00:54.001Z</time></trkpt><trkpt lat="47.30392540680455" lon="10.856505666471655"><ele>954.3333333333333</ele><time>2026-05-01T07:00:55.001Z</time></trkpt><trkpt lat="47.30407714995828" lon="10.856573995849075"><ele>950.6666666666667</ele><time>2026-05-01T07:00:56.001Z</time></trkpt><trkpt lat="47.30422649276584" lon="10.856655579670774"><ele>947.0</ele><time>2026-05-01T07:00:57.001Z</time></trkpt><trkpt lat="47.304371733262755" lon="10.8567506305542"><ele>952.0</ele><time>2026-05-01T07:00:58.001Z</time></trkpt><trkpt lat="47.30451193150313" lon="10.85685363868203"><ele>957.0</ele><time>2026-05-01T07:00:59.001Z</time></trkpt><trkpt lat="47.30464615874027" lon="10.856957409637992"><ele>962.0</ele><time>2026-05-01T07:01:00.001Z</time></trkpt><trkpt lat="47.30477339468558" lon="10.857060808340444"><ele>962.0</ele><time>2026-05-01T07:01:01.001Z</time></trkpt><trkpt lat="47.30490099897511" lon="10.857167730956755"><ele>962.0</ele><time>2026-05-01T07:01:02Z</time></trkpt><trkpt lat="47.30502479018154" lon="10.857271033633515"><ele>962.0</ele><time>2026-05-01T07:01:03Z</time></trkpt><trkpt lat="47.30514745505327" lon="10.857367593868561"><ele>962.0</ele><time>2026-05-01T07:01:04Z</time></trkpt><trkpt lat="47.305265949475675" lon="10.857445925780688"><ele>962.0</ele><time>2026-05-01T07:01:05Z</time></trkpt><trkpt lat="47.305383442023135" lon="10.857496751991082"><ele>962.0</ele><time>2026-05-01T07:01:06Z</time></trkpt><trkpt lat="47.30549947255494" lon="10.85751623259382"><ele>962.0</ele><time>2026-05-01T07:01:07Z</time></trkpt><trkpt lat="47.30561441010853" lon="10.857504644121429"><ele>962.0</ele><time>2026-05-01T07:01:08Z</time></trkpt><trkpt lat="47.30572495794659" lon="10.857459913370338"><ele>959.5</ele><time>2026-05-01T07:01:09Z</time></trkpt><trkpt lat="47.30582811831547" lon="10.857387071796463"><ele>957.0</ele><time>2026-05-01T07:01:10Z</time></trkpt><trkpt lat="47.305919796867435" lon="10.85728412636412"><ele>954.5</ele><time>2026-05-01T07:01:11Z</time></trkpt><trkpt lat="47.30599656456326" lon="10.857153536472266"><ele>952.0</ele><time>2026-05-01T07:01:12Z</time></trkpt><trkpt lat="47.30605204873431" lon="10.857003202684526"><ele>952.0</ele><time>2026-05-01T07:01:13Z</time></trkpt><trkpt lat="47.30608421986848" lon="10.856841460400595"><ele>952.0</ele><time>2026-05-01T07:01:14Z</time></trkpt><trkpt lat="47.30609390536449" lon="10.856676286256857"><ele>952.0</ele><time>2026-05-01T07:01:15Z</time></trkpt><trkpt lat="47.30608277701966" lon="10.856512171726411"><ele>952.0</ele><time>2026-05-01T07:01:16Z</time></trkpt><trkpt lat="47.30605134277199" lon="10.85635722351243"><ele>952.0</ele><time>2026-05-01T07:01:17Z</time></trkpt><trkpt lat="47.305997850554796" lon="10.85621261351573"><ele>948.0</ele><time>2026-05-01T07:01:18Z</time></trkpt><trkpt lat="47.305924979583665" lon="10.856083138934348"><ele>944.0</ele><time>2026-05-01T07:01:19Z</time></trkpt><trkpt lat="47.305835699947835" lon="10.855972862591502"><ele>940.0</ele><time>2026-05-01T07:01:20Z</time></trkpt><trkpt lat="47.30573261408903" lon="10.855890087603266"><ele>936.0</ele><time>2026-05-01T07:01:21Z</time></trkpt><trkpt lat="47.30561705569086" lon="10.855834913379256"><ele>933.75</ele><time>2026-05-01T07:01:22Z</time></trkpt><trkpt lat="47.30549313978417" lon="10.855794333673161"><ele>931.5</ele><time>2026-05-01T07:01:23Z</time></trkpt><trkpt lat="47.305363813120316" lon="10.855767122560149"><ele>929.25</ele><time>2026-05-01T07:01:24Z</time></trkpt><trkpt lat="47.30522930288176" lon="10.85574500689247"><ele>927.0</ele><time>2026-05-01T07:01:25Z</time></trkpt><trkpt lat="47.30509139852354" lon="10.855725833701719"><ele>927.0</ele><time>2026-05-01T07:01:26Z</time></trkpt><trkpt lat="47.30494733693132" lon="10.855708690089749"><ele>927.0</ele><time>2026-05-01T07:01:27Z</time></trkpt><trkpt lat="47.30480039350545" lon="10.855688581740504"><ele>927.0</ele><time>2026-05-01T07:01:28Z</time></trkpt><trkpt lat="47.30464968240499" lon="10.855664313107535"><ele>927.0</ele><time>2026-05-01T07:01:29Z</time></trkpt><trkpt lat="47.30449578229762" lon="10.855637260014994"><ele>927.0</ele><time>2026-05-01T07:01:30Z</time></trkpt><trkpt lat="47.30433747621846" lon="10.855607131992747"><ele>927.0</ele><time>2026-05-01T07:01:31Z</time></trkpt><trkpt lat="47.304172183365395" lon="10.855574725426486"><ele>927.0</ele><time>2026-05-01T07:01:32Z</time></trkpt><trkpt lat="47.30400304297865" lon="10.85553771943"><ele>930.3333333333333</ele><time>2026-05-01T07:01:33Z</time></trkpt><trkpt lat="47.303830944843575" lon="10.855495359613819"><ele>933.6666666666666</ele><time>2026-05-01T07:01:34Z</time></trkpt><trkpt lat="47.30365834228375" lon="10.855445389466363"><ele>937.0</ele><time>2026-05-01T07:01:35Z</time></trkpt><trkpt lat="47.303486404756796" lon="10.855388007925274"><ele>937.0</ele><time>2026-05-01T07:01:36Z</time></trkpt><trkpt lat="47.30331913389522" lon="10.855329358798336"><ele>937.0</ele><time>2026-05-01T07:01:37Z</time></trkpt><trkpt lat="47.3031471653867" lon="10.855263513413487"><ele>937.0</ele><time>2026-05-01T07:01:38Z</time></trkpt><trkpt lat="47.30297448388265" lon="10.855191045738998"><ele>929.0</ele><time>2026-05-01T07:01:39Z</time></trkpt><trkpt lat="47.30280758915935" lon="10.855110944777712"><ele>921.0</ele><time>2026-05-01T07:01:40Z</time></trkpt><trkpt lat="47.302636235409665" lon="10.855021948283898"><ele>913.0</ele><time>2026-05-01T07:01:41Z</time></trkpt><trkpt lat="47.3024669580767" lon="10.854926790389976"><ele>913.0</ele><time>2026-05-01T07:01:42Z</time></trkpt><trkpt lat="47.30229879625762" lon="10.854827317241108"><ele>913.0</ele><time>2026-05-01T07:01:43Z</time></trkpt><trkpt lat="47.30212981551542" lon="10.854718106163693"><ele>913.0</ele><time>2026-05-01T07:01:44Z</time></trkpt><trkpt lat="47.30196616208602" lon="10.854603667209558"><ele>914.3333333333333</ele><time>2026-05-01T07:01:45Z</time></trkpt><trkpt lat="47.30180807461404" lon="10.85448751778837"><ele>915.6666666666667</ele><time>2026-05-01T07:01:46Z</time></trkpt><trkpt lat="47.301653232349565" lon="10.854368457459676"><ele>917.0</ele><time>2026-05-01T07:01:47Z</time></trkpt><trkpt lat="47.30149675022999" lon="10.85424660584184"><ele>915.0</ele><time>2026-05-01T07:01:48Z</time></trkpt><trkpt lat="47.301336754510764" lon="10.85412092207451"><ele>913.0</ele><time>2026-05-01T07:01:49Z</time></trkpt><trkpt lat="47.30117649647234" lon="10.853996256897693"><ele>911.0</ele><time>2026-05-01T07:01:50Z</time></trkpt><trkpt lat="47.301015441996135" lon="10.853871960858843"><ele>911.0</ele><time>2026-05-01T07:01:51Z</time></trkpt><trkpt lat="47.300853124422375" lon="10.85374520021094"><ele>911.0</ele><time>2026-05-01T07:01:52Z</time></trkpt><trkpt lat="47.300686733984854" lon="10.853611292481595"><ele>911.0</ele><time>2026-05-01T07:01:53Z</time></trkpt><trkpt lat="47.300516009078414" lon="10.85347450245048"><ele>909.6666666666667</ele><time>2026-05-01T07:01:54Z</time></trkpt><trkpt lat="47.300336426694805" lon="10.853333695781727"><ele>908.3333333333333</ele><time>2026-05-01T07:01:55Z</time></trkpt><trkpt lat="47.30015179334305" lon="10.853189173597944"><ele>907.0</ele><time>2026-05-01T07:01:56Z</time></trkpt><trkpt lat="47.29996581631235" lon="10.853044768104144"><ele>907.0</ele><time>2026-05-01T07:01:57Z</time></trkpt><trkpt lat="47.29978107690043" lon="10.852900317152983"><ele>907.0</ele><time>2026-05-01T07:01:58Z</time></trkpt><trkpt lat="47.299595338266414" lon="10.852756517189208"><ele>907.0</ele><time>2026-05-01T07:01:59Z</time></trkpt><trkpt lat="47.29941416180763" lon="10.852614814850618"><ele>908.0</ele><time>2026-05-01T07:02:00Z</time></trkpt><trkpt lat="47.2992370933663" lon="10.85247421772229"><ele>909.0</ele><time>2026-05-01T07:02:01Z</time></trkpt><trkpt lat="47.29906127639183" lon="10.852334636878078"><ele>910.0</ele><time>2026-05-01T07:02:02Z</time></trkpt><trkpt lat="47.298884686593524" lon="10.852195928170877"><ele>910.0</ele><time>2026-05-01T07:02:03Z</time></trkpt><trkpt lat="47.29870427342331" lon="10.852054614074714"><ele>910.0</ele><time>2026-05-01T07:02:04Z</time></trkpt><trkpt lat="47.298526998747114" lon="10.851914398996618"><ele>910.0</ele><time>2026-05-01T07:02:05Z</time></trkpt><trkpt lat="47.298350186874856" lon="10.851774889129775"><ele>907.0</ele><time>2026-05-01T07:02:06Z</time></trkpt><trkpt lat="47.29817304367928" lon="10.851635449068983"><ele>904.0</ele><time>2026-05-01T07:02:07Z</time></trkpt><trkpt lat="47.297994419526226" lon="10.851498913848058"><ele>901.0</ele><time>2026-05-01T07:02:08Z</time></trkpt><trkpt lat="47.29781769760045" lon="10.851360437196176"><ele>901.0</ele><time>2026-05-01T07:02:09Z</time></trkpt><trkpt lat="47.297639584919224" lon="10.851220871829314"><ele>901.0</ele><time>2026-05-01T07:02:10Z</time></trkpt><trkpt lat="47.29746058627364" lon="10.851079035348262"><ele>901.0</ele><time>2026-05-01T07:02:11Z</time></trkpt><trkpt lat="47.29728068428225" lon="10.850934541429298"><ele>898.0</ele><time>2026-05-01T07:02:12Z</time></trkpt><trkpt lat="47.29709807850102" lon="10.850787608434004"><ele>895.0</ele><time>2026-05-01T07:02:13Z</time></trkpt><trkpt lat="47.29691535617929" lon="10.850640296284528"><ele>892.0</ele><time>2026-05-01T07:02:14Z</time></trkpt><trkpt lat="47.296732351430975" lon="10.850492501637802"><ele>892.0</ele><time>2026-05-01T07:02:15Z</time></trkpt><trkpt lat="47.29655293386149" lon="10.850346588560553"><ele>892.0</ele><time>2026-05-01T07:02:16Z</time></trkpt><trkpt lat="47.2963766218515" lon="10.850196739716159"><ele>892.0</ele><time>2026-05-01T07:02:17Z</time></trkpt><trkpt lat="47.296202400219215" lon="10.850037009856365"><ele>887.3333333333333</ele><time>2026-05-01T07:02:18Z</time></trkpt><trkpt lat="47.296032256776805" lon="10.849868120203158"><ele>882.6666666666667</ele><time>2026-05-01T07:02:19Z</time></trkpt><trkpt lat="47.295865603398035" lon="10.84969088670777"><ele>878.0</ele><time>2026-05-01T07:02:20Z</time></trkpt><trkpt lat="47.29570856312042" lon="10.84950002898798"><ele>878.3333333333334</ele><time>2026-05-01T07:02:21Z</time></trkpt><trkpt lat="47.29556428249821" lon="10.84929227365748"><ele>878.6666666666667</ele><time>2026-05-01T07:02:22Z</time></trkpt><trkpt lat="47.29542635299854" lon="10.849072570140821"><ele>879.0</ele><time>2026-05-01T07:02:23Z</time></trkpt><trkpt lat="47.295293750814636" lon="10.848836945319038"><ele>879.0</ele><time>2026-05-01T07:02:24Z</time></trkpt><trkpt lat="47.295172873145155" lon="10.84858866294509"><ele>879.0</ele><time>2026-05-01T07:02:25Z</time></trkpt><trkpt lat="47.29505946328931" lon="10.848334644459062"><ele>879.0</ele><time>2026-05-01T07:02:26Z</time></trkpt><trkpt lat="47.29495840851729" lon="10.848079438708353"><ele>875.3333333333333</ele><time>2026-05-01T07:02:27Z</time></trkpt><trkpt lat="47.29488714300374" lon="10.847808439529379"><ele>871.6666666666666</ele><time>2026-05-01T07:02:28Z</time></trkpt><trkpt lat="47.294811505757295" lon="10.847536208418944"><ele>868.0</ele><time>2026-05-01T07:02:29Z</time></trkpt><trkpt lat="47.29474393271042" lon="10.847261289192994"><ele>868.0</ele><time>2026-05-01T07:02:30Z</time></trkpt><trkpt lat="47.29467870458435" lon="10.846980675216031"><ele>868.0</ele><time>2026-05-01T07:02:31Z</time></trkpt><trkpt lat="47.29459995171077" lon="10.846709094084163"><ele>868.0</ele><time>2026-05-01T07:02:32Z</time></trkpt><trkpt lat="47.29454497885408" lon="10.846428339257061"><ele>864.0</ele><time>2026-05-01T07:02:33Z</time></trkpt><trkpt lat="47.294489685863304" lon="10.846157593111432"><ele>860.0</ele><time>2026-05-01T07:02:34Z</time></trkpt><trkpt lat="47.294429209381114" lon="10.845889796758089"><ele>856.0</ele><time>2026-05-01T07:02:35.001Z</time></trkpt><trkpt lat="47.294359678896626" lon="10.845625982079527"><ele>853.3333333333333</ele><time>2026-05-01T07:02:36.001Z</time></trkpt><trkpt lat="47.294283919795" lon="10.84537139927571"><ele>850.6666666666667</ele><time>2026-05-01T07:02:37.001Z</time></trkpt><trkpt lat="47.29421140342788" lon="10.845122630549449"><ele>848.0</ele><time>2026-05-01T07:02:38.001Z</time></trkpt><trkpt lat="47.29411254415597" lon="10.844886205292976"><ele>849.6666666666667</ele><time>2026-05-01T07:02:39.001Z</time></trkpt><trkpt lat="47.29400197666234" lon="10.844653370261147"><ele>851.3333333333333</ele><time>2026-05-01T07:02:40.001Z</time></trkpt><trkpt lat="47.29387934170866" lon="10.84443330125377"><ele>853.0</ele><time>2026-05-01T07:02:41.001Z</time></trkpt><trkpt lat="47.293757725696544" lon="10.844216375896986"><ele>848.0</ele><time>2026-05-01T07:02:42.001Z</time></trkpt><trkpt lat="47.29363410719584" lon="10.84399587871897"><ele>843.0</ele><time>2026-05-01T07:02:43.001Z</time></trkpt><trkpt lat="47.293507240328566" lon="10.843782151216296"><ele>838.0</ele><time>2026-05-01T07:02:44.001Z</time></trkpt><trkpt lat="47.29326533557566" lon="10.843718412874338"><ele>838.0</ele><time>2026-05-01T07:02:45.001Z</time></trkpt><trkpt lat="47.293100443374016" lon="10.843573210033338"><ele>838.0</ele><time>2026-05-01T07:02:46.001Z</time></trkpt><trkpt lat="47.292940910132394" lon="10.843441422008995"><ele>838.0</ele><time>2026-05-01T07:02:47.001Z</time></trkpt><trkpt lat="47.29277948261686" lon="10.843312911991173"><ele>834.6666666666666</ele><time>2026-05-01T07:02:48.001Z</time></trkpt><trkpt lat="47.29262341264414" lon="10.8431838640765"><ele>831.3333333333333</ele><time>2026-05-01T07:02:49.001Z</time></trkpt><trkpt lat="47.29247454313967" lon="10.843041716231575"><ele>828.0</ele><time>2026-05-01T07:02:50.001Z</time></trkpt><trkpt lat="47.29234562011684" lon="10.842881453710076"><ele>830.0</ele><time>2026-05-01T07:02:51.001Z</time></trkpt><trkpt lat="47.29223997679072" lon="10.842701987619806"><ele>832.0</ele><time>2026-05-01T07:02:52.001Z</time></trkpt><trkpt lat="47.292155128317646" lon="10.842509515338678"><ele>834.0</ele><time>2026-05-01T07:02:53.001Z</time></trkpt><trkpt lat="47.29210787150074" lon="10.84230021308342"><ele>830.0</ele><time>2026-05-01T07:02:54.001Z</time></trkpt><trkpt lat="47.29209023456526" lon="10.842082222253635"><ele>826.0</ele><time>2026-05-01T07:02:55.001Z</time></trkpt><trkpt lat="47.292099447074236" lon="10.841857525926239"><ele>822.0</ele><time>2026-05-01T07:02:56.001Z</time></trkpt><trkpt lat="47.292136038551234" lon="10.84163802283958"><ele>820.3333333333333</ele><time>2026-05-01T07:02:57.001Z</time></trkpt><trkpt lat="47.29219968432027" lon="10.84142831940164"><ele>818.6666666666666</ele><time>2026-05-01T07:02:58.001Z</time></trkpt><trkpt lat="47.292294374606705" lon="10.841248996086588"><ele>817.0</ele><time>2026-05-01T07:02:59.001Z</time></trkpt><trkpt lat="47.292410782838225" lon="10.841100079046758"><ele>816.0</ele><time>2026-05-01T07:03:00.001Z</time></trkpt><trkpt lat="47.2925472230386" lon="10.840984615756929"><ele>815.0</ele><time>2026-05-01T07:03:01.001Z</time></trkpt><trkpt lat="47.29269397418699" lon="10.84091400576354"><ele>814.0</ele><time>2026-05-01T07:03:02.001Z</time></trkpt><trkpt lat="47.29285310009946" lon="10.84088709183801"><ele>813.3333333333333</ele><time>2026-05-01T07:03:03.001Z</time></trkpt><trkpt lat="47.29301294160362" lon="10.840902366837058"><ele>812.6666666666667</ele><time>2026-05-01T07:03:04.001Z</time></trkpt><trkpt lat="47.29316146000215" lon="10.840952898197065"><ele>812.0</ele><time>2026-05-01T07:03:05.001Z</time></trkpt><trkpt lat="47.2932963669893" lon="10.841026733789523"><ele>812.0</ele><time>2026-05-01T07:03:06.001Z</time></trkpt><trkpt lat="47.293406310192985" lon="10.841102322213496"><ele>812.0</ele><time>2026-05-01T07:03:07.001Z</time></trkpt><trkpt lat="47.29350083433727" lon="10.841179300410177"><ele>812.0</ele><time>2026-05-01T07:03:08Z</time></trkpt><trkpt lat="47.29359448944903" lon="10.841259894286924"><ele>812.0</ele><time>2026-05-01T07:03:09Z</time></trkpt><trkpt lat="47.29369710281576" lon="10.84134147615326"><ele>812.0</ele><time>2026-05-01T07:03:10Z</time></trkpt><trkpt lat="47.29380513779911" lon="10.8414279288292"><ele>812.0</ele><time>2026-05-01T07:03:11Z</time></trkpt><trkpt lat="47.29391392798931" lon="10.841519098262594"><ele>812.0</ele><time>2026-05-01T07:03:12Z</time></trkpt><trkpt lat="47.29402264296115" lon="10.841610998806383"><ele>812.0</ele><time>2026-05-01T07:03:13Z</time></trkpt><trkpt lat="47.29413376939322" lon="10.841702971388631"><ele>811.5</ele><time>2026-05-01T07:03:14Z</time></trkpt><trkpt lat="47.294246169512554" lon="10.84179291693988"><ele>811.0</ele><time>2026-05-01T07:03:15Z</time></trkpt><trkpt lat="47.294363639052214" lon="10.841881664435316"><ele>810.5</ele><time>2026-05-01T07:03:16Z</time></trkpt><trkpt lat="47.29448324488287" lon="10.841973077012693"><ele>810.0</ele><time>2026-05-01T07:03:17Z</time></trkpt><trkpt lat="47.29460658511684" lon="10.842064417090493"><ele>811.0</ele><time>2026-05-01T07:03:18Z</time></trkpt><trkpt lat="47.29473416580981" lon="10.842160040158268"><ele>812.0</ele><time>2026-05-01T07:03:19Z</time></trkpt><trkpt lat="47.294863752751844" lon="10.842257687277524"><ele>813.0</ele><time>2026-05-01T07:03:20Z</time></trkpt><trkpt lat="47.29499822377441" lon="10.842355752033416"><ele>814.0</ele><time>2026-05-01T07:03:21Z</time></trkpt><trkpt lat="47.29513657084987" lon="10.842452671075243"><ele>814.0</ele><time>2026-05-01T07:03:22Z</time></trkpt><trkpt lat="47.295280246185875" lon="10.842550898366465"><ele>814.0</ele><time>2026-05-01T07:03:23Z</time></trkpt><trkpt lat="47.295421010286816" lon="10.842643461084657"><ele>814.0</ele><time>2026-05-01T07:03:24Z</time></trkpt><trkpt lat="47.29556510492661" lon="10.84273293592047"><ele>813.6666666666666</ele><time>2026-05-01T07:03:25Z</time></trkpt><trkpt lat="47.29571583447506" lon="10.842822766840282"><ele>813.3333333333333</ele><time>2026-05-01T07:03:26Z</time></trkpt><trkpt lat="47.295870309527814" lon="10.842911570459426"><ele>813.0</ele><time>2026-05-01T07:03:27Z</time></trkpt><trkpt lat="47.29602418998071" lon="10.842997124571548"><ele>813.0</ele><time>2026-05-01T07:03:28Z</time></trkpt><trkpt lat="47.296180965056024" lon="10.843080871098737"><ele>813.0</ele><time>2026-05-01T07:03:29Z</time></trkpt><trkpt lat="47.29633828341608" lon="10.843162087890926"><ele>813.0</ele><time>2026-05-01T07:03:30Z</time></trkpt><trkpt lat="47.29649443078668" lon="10.843237264805508"><ele>813.3333333333333</ele><time>2026-05-01T07:03:31Z</time></trkpt><trkpt lat="47.29665154402497" lon="10.843308045293423"><ele>813.6666666666666</ele><time>2026-05-01T07:03:32Z</time></trkpt><trkpt lat="47.29681151778289" lon="10.843378527829277"><ele>814.0</ele><time>2026-05-01T07:03:33Z</time></trkpt><trkpt lat="47.29697507721939" lon="10.843445371715783"><ele>814.3333333333333</ele><time>2026-05-01T07:03:34Z</time></trkpt><trkpt lat="47.297141793111955" lon="10.843509921106795"><ele>814.6666666666667</ele><time>2026-05-01T07:03:35Z</time></trkpt><trkpt lat="47.29731039520768" lon="10.843572360148606"><ele>815.0</ele><time>2026-05-01T07:03:36Z</time></trkpt><trkpt lat="47.29748128209081" lon="10.843631560333016"><ele>814.3333333333334</ele><time>2026-05-01T07:03:37Z</time></trkpt><trkpt lat="47.29765688672213" lon="10.843687176093084"><ele>813.6666666666667</ele><time>2026-05-01T07:03:38Z</time></trkpt><trkpt lat="47.29782706024249" lon="10.843741189747817"><ele>813.0</ele><time>2026-05-01T07:03:39Z</time></trkpt><trkpt lat="47.29799599606207" lon="10.843788401804561"><ele>813.6666666666667</ele><time>2026-05-01T07:03:40Z</time></trkpt><trkpt lat="47.298170227973614" lon="10.843834139432953"><ele>814.3333333333334</ele><time>2026-05-01T07:03:41Z</time></trkpt><trkpt lat="47.2983472778019" lon="10.843875674434058"><ele>815.0</ele><time>2026-05-01T07:03:42Z</time></trkpt><trkpt lat="47.298528765785974" lon="10.843916358568425"><ele>815.0</ele><time>2026-05-01T07:03:43Z</time></trkpt><trkpt lat="47.29871222758959" lon="10.843951246536276"><ele>815.0</ele><time>2026-05-01T07:03:44Z</time></trkpt><trkpt lat="47.29889824014267" lon="10.843980841639118"><ele>815.0</ele><time>2026-05-01T07:03:45Z</time></trkpt><trkpt lat="47.299085409292864" lon="10.844003529968106"><ele>814.3333333333334</ele><time>2026-05-01T07:03:46Z</time></trkpt><trkpt lat="47.299274064352744" lon="10.84402119834665"><ele>813.6666666666667</ele><time>2026-05-01T07:03:47Z</time></trkpt><trkpt lat="47.299463242895726" lon="10.844035510916777"><ele>813.0</ele><time>2026-05-01T07:03:48Z</time></trkpt><trkpt lat="47.299653068122076" lon="10.84404721126052"><ele>812.6666666666667</ele><time>2026-05-01T07:03:49Z</time></trkpt><trkpt lat="47.299841672777404" lon="10.844055432059452"><ele>812.3333333333334</ele><time>2026-05-01T07:03:50Z</time></trkpt><trkpt lat="47.300028690633" lon="10.844058703497915"><ele>812.0</ele><time>2026-05-01T07:03:51Z</time></trkpt><trkpt lat="47.30021410361928" lon="10.844058968902738"><ele>812.0</ele><time>2026-05-01T07:03:52Z</time></trkpt><trkpt lat="47.300401198584154" lon="10.844053949024998"><ele>812.0</ele><time>2026-05-01T07:03:53Z</time></trkpt><trkpt lat="47.30058488566479" lon="10.84404550824626"><ele>812.0</ele><time>2026-05-01T07:03:54Z</time></trkpt><trkpt lat="47.30076904381857" lon="10.84403351199602"><ele>813.0</ele><time>2026-05-01T07:03:55Z</time></trkpt><trkpt lat="47.30094958742908" lon="10.844014174099259"><ele>814.0</ele><time>2026-05-01T07:03:56Z</time></trkpt><trkpt lat="47.30112889624766" lon="10.843991053326569"><ele>815.0</ele><time>2026-05-01T07:03:57Z</time></trkpt><trkpt lat="47.30130734602557" lon="10.843963150052524"><ele>816.0</ele><time>2026-05-01T07:03:58Z</time></trkpt><trkpt lat="47.30148689637972" lon="10.843927726144893"><ele>817.0</ele><time>2026-05-01T07:03:59Z</time></trkpt><trkpt lat="47.30166607942848" lon="10.84388637872721"><ele>818.0</ele><time>2026-05-01T07:04:00Z</time></trkpt><trkpt lat="47.30184331925915" lon="10.843837525445782"><ele>818.0</ele><time>2026-05-01T07:04:01Z</time></trkpt><trkpt lat="47.30204789810184" lon="10.843980407346697"><ele>818.0</ele><time>2026-05-01T07:04:02Z</time></trkpt><trkpt lat="47.302226490159484" lon="10.843923295750306"><ele>818.0</ele><time>2026-05-01T07:04:03Z</time></trkpt><trkpt lat="47.30240646865607" lon="10.84386798380639"><ele>819.0</ele><time>2026-05-01T07:04:04Z</time></trkpt><trkpt lat="47.302585756911895" lon="10.84380969572077"><ele>820.0</ele><time>2026-05-01T07:04:05Z</time></trkpt><trkpt lat="47.30277539037589" lon="10.843744578706715"><ele>821.0</ele><time>2026-05-01T07:04:06Z</time></trkpt><trkpt lat="47.30295404222839" lon="10.843674076411709"><ele>821.0</ele><time>2026-05-01T07:04:07Z</time></trkpt><trkpt lat="47.3031302649707" lon="10.843603235188889"><ele>821.0</ele><time>2026-05-01T07:04:08Z</time></trkpt><trkpt lat="47.30330974276755" lon="10.843548030270718"><ele>821.0</ele><time>2026-05-01T07:04:09Z</time></trkpt><trkpt lat="47.30349384199593" lon="10.843465387544533"><ele>821.0</ele><time>2026-05-01T07:04:10Z</time></trkpt><trkpt lat="47.30366557418809" lon="10.843385088122817"><ele>821.0</ele><time>2026-05-01T07:04:11Z</time></trkpt><trkpt lat="47.30382933163632" lon="10.843309192417976"><ele>821.0</ele><time>2026-05-01T07:04:12Z</time></trkpt><trkpt lat="47.304000944054465" lon="10.8432316055282"><ele>821.6666666666667</ele><time>2026-05-01T07:04:13Z</time></trkpt><trkpt lat="47.30419749823922" lon="10.843128869328968"><ele>822.3333333333333</ele><time>2026-05-01T07:04:14Z</time></trkpt><trkpt lat="47.304361758829806" lon="10.843031354279638"><ele>823.0</ele><time>2026-05-01T07:04:15Z</time></trkpt><trkpt lat="47.30452238955499" lon="10.842935994115617"><ele>823.0</ele><time>2026-05-01T07:04:16Z</time></trkpt><trkpt lat="47.30468604382811" lon="10.842837701050835"><ele>823.0</ele><time>2026-05-01T07:04:17Z</time></trkpt><trkpt lat="47.30483116444427" lon="10.842699221635721"><ele>823.0</ele><time>2026-05-01T07:04:18Z</time></trkpt><trkpt lat="47.30499440788523" lon="10.842540787146925"><ele>822.6666666666666</ele><time>2026-05-01T07:04:19Z</time></trkpt><trkpt lat="47.305151051211894" lon="10.842364499389047"><ele>822.3333333333333</ele><time>2026-05-01T07:04:20Z</time></trkpt><trkpt lat="47.30528161843401" lon="10.842194293360594"><ele>822.0</ele><time>2026-05-01T07:04:21Z</time></trkpt><trkpt lat="47.30539856506507" lon="10.842028878486783"><ele>824.0</ele><time>2026-05-01T07:04:22Z</time></trkpt><trkpt lat="47.30526847331829" lon="10.840875516533554"><ele>824.0</ele><time>2026-05-01T07:04:23Z</time></trkpt><trkpt lat="47.30539406869104" lon="10.840666587558891"><ele>824.0</ele><time>2026-05-01T07:04:24Z</time></trkpt><trkpt lat="47.305512997928886" lon="10.840447373853653"><ele>824.0</ele><time>2026-05-01T07:04:25Z</time></trkpt><trkpt lat="47.305628694025025" lon="10.840224252032135"><ele>824.0</ele><time>2026-05-01T07:04:26Z</time></trkpt><trkpt lat="47.30573489895921" lon="10.840006490941693"><ele>824.0</ele><time>2026-05-01T07:04:27Z</time></trkpt><trkpt lat="47.30583104979726" lon="10.839794387532262"><ele>824.0</ele><time>2026-05-01T07:04:28Z</time></trkpt><trkpt lat="47.30591964036314" lon="10.839582467099069"><ele>824.0</ele><time>2026-05-01T07:04:29Z</time></trkpt><trkpt lat="47.306006261266525" lon="10.839363019670888"><ele>824.0</ele><time>2026-05-01T07:04:30Z</time></trkpt><trkpt lat="47.30609022007979" lon="10.839145909380496"><ele>824.0</ele><time>2026-05-01T07:04:31Z</time></trkpt><trkpt lat="47.306174453678935" lon="10.8389308806097"><ele>823.6666666666667</ele><time>2026-05-01T07:04:32Z</time></trkpt><trkpt lat="47.30625921820523" lon="10.83871831568826"><ele>823.3333333333333</ele><time>2026-05-01T07:04:33Z</time></trkpt><trkpt lat="47.306345425007876" lon="10.838504503623986"><ele>823.0</ele><time>2026-05-01T07:04:34Z</time></trkpt><trkpt lat="47.3064399772256" lon="10.838291330927445"><ele>829.6666666666666</ele><time>2026-05-01T07:04:35Z</time></trkpt><trkpt lat="47.30653942662138" lon="10.838080953472298"><ele>836.3333333333333</ele><time>2026-05-01T07:04:36Z</time></trkpt><trkpt lat="47.306647426331565" lon="10.837872269116511"><ele>843.0</ele><time>2026-05-01T07:04:37Z</time></trkpt><trkpt lat="47.306763926569744" lon="10.837669230951098"><ele>857.3333333333333</ele><time>2026-05-01T07:04:38Z</time></trkpt><trkpt lat="47.30688664250508" lon="10.837472173514987"><ele>871.6666666666666</ele><time>2026-05-01T07:04:39Z</time></trkpt><trkpt lat="47.30702825631047" lon="10.837296962735538"><ele>886.0</ele><time>2026-05-01T07:04:40Z</time></trkpt><trkpt lat="47.30716137746647" lon="10.8371105738882"><ele>887.6666666666666</ele><time>2026-05-01T07:04:41Z</time></trkpt><trkpt lat="47.30730135900859" lon="10.83693607202075"><ele>889.3333333333333</ele><time>2026-05-01T07:04:42Z</time></trkpt><trkpt lat="47.30744608942579" lon="10.83677086837954"><ele>891.0</ele><time>2026-05-01T07:04:43Z</time></trkpt><trkpt lat="47.30758537449523" lon="10.836594179821672"><ele>903.6666666666667</ele><time>2026-05-01T07:04:44Z</time></trkpt><trkpt lat="47.307747942026744" lon="10.83646996586363"><ele>916.3333333333334</ele><time>2026-05-01T07:04:45Z</time></trkpt><trkpt lat="47.3079584656405" lon="10.836303162065542"><ele>929.0</ele><time>2026-05-01T07:04:46Z</time></trkpt><trkpt lat="47.30812676084979" lon="10.836178818422574"><ele>929.0</ele><time>2026-05-01T07:04:47Z</time></trkpt><trkpt lat="47.30829881662085" lon="10.836066013626661"><ele>929.0</ele><time>2026-05-01T07:04:48Z</time></trkpt><trkpt lat="47.30847547157719" lon="10.835965390243791"><ele>929.0</ele><time>2026-05-01T07:04:49Z</time></trkpt><trkpt lat="47.30865654179991" lon="10.835876848750615"><ele>938.6666666666667</ele><time>2026-05-01T07:04:50Z</time></trkpt><trkpt lat="47.30883759982015" lon="10.835813200656931"><ele>948.3333333333333</ele><time>2026-05-01T07:04:51Z</time></trkpt><trkpt lat="47.30902086331976" lon="10.835755391505419"><ele>958.0</ele><time>2026-05-01T07:04:52Z</time></trkpt><trkpt lat="47.30920731061819" lon="10.835708348479296"><ele>936.0</ele><time>2026-05-01T07:04:53Z</time></trkpt><trkpt lat="47.309393294657944" lon="10.835669156980279"><ele>914.0</ele><time>2026-05-01T07:04:54Z</time></trkpt><trkpt lat="47.309577285123794" lon="10.835634182908077"><ele>892.0</ele><time>2026-05-01T07:04:55.001Z</time></trkpt><trkpt lat="47.30974640687605" lon="10.835603235859121"><ele>875.0</ele><time>2026-05-01T07:04:56.001Z</time></trkpt><trkpt lat="47.309902951712466" lon="10.835572543889272"><ele>858.0</ele><time>2026-05-01T07:04:57.001Z</time></trkpt><trkpt lat="47.31017469225751" lon="10.835488914850952"><ele>841.0</ele><time>2026-05-01T07:04:58.001Z</time></trkpt><trkpt lat="47.31037240247027" lon="10.835423120883517"><ele>841.0</ele><time>2026-05-01T07:04:59.001Z</time></trkpt><trkpt lat="47.310556166417705" lon="10.83531716307334"><ele>841.0</ele><time>2026-05-01T07:05:00.001Z</time></trkpt><trkpt lat="47.3107337958534" lon="10.83521638496256"><ele>841.0</ele><time>2026-05-01T07:05:01.001Z</time></trkpt><trkpt lat="47.31090183996317" lon="10.835102857479807"><ele>842.0</ele><time>2026-05-01T07:05:02.001Z</time></trkpt><trkpt lat="47.31108963565847" lon="10.835031120396458"><ele>843.0</ele><time>2026-05-01T07:05:03.001Z</time></trkpt><trkpt lat="47.31124409786452" lon="10.834890966426125"><ele>844.0</ele><time>2026-05-01T07:05:04.001Z</time></trkpt><trkpt lat="47.31139575498049" lon="10.834737901937599"><ele>843.6666666666666</ele><time>2026-05-01T07:05:05.001Z</time></trkpt><trkpt lat="47.31154239219704" lon="10.834572489074747"><ele>843.3333333333333</ele><time>2026-05-01T07:05:06.001Z</time></trkpt><trkpt lat="47.31168102011034" lon="10.834394585581055"><ele>843.0</ele><time>2026-05-01T07:05:07.001Z</time></trkpt><trkpt lat="47.31181296745981" lon="10.834200260174224"><ele>843.0</ele><time>2026-05-01T07:05:08.001Z</time></trkpt><trkpt lat="47.311937981631715" lon="10.833997093828259"><ele>843.0</ele><time>2026-05-01T07:05:09.001Z</time></trkpt><trkpt lat="47.312057912730396" lon="10.833782256031204"><ele>843.0</ele><time>2026-05-01T07:05:10.001Z</time></trkpt><trkpt lat="47.31217152746669" lon="10.833554467819276"><ele>840.6666666666667</ele><time>2026-05-01T07:05:11.001Z</time></trkpt><trkpt lat="47.3122848942556" lon="10.833334134907535"><ele>838.3333333333334</ele><time>2026-05-01T07:05:12.001Z</time></trkpt><trkpt lat="47.31239723017673" lon="10.83310388796794"><ele>836.0</ele><time>2026-05-01T07:05:13.001Z</time></trkpt><trkpt lat="47.31251156329264" lon="10.832876925875174"><ele>836.0</ele><time>2026-05-01T07:05:14Z</time></trkpt><trkpt lat="47.31262447741638" lon="10.832664025761098"><ele>836.0</ele><time>2026-05-01T07:05:15Z</time></trkpt><trkpt lat="47.31273750334398" lon="10.832446134114027"><ele>836.0</ele><time>2026-05-01T07:05:16Z</time></trkpt><trkpt lat="47.3128551737099" lon="10.832234632974368"><ele>836.0</ele><time>2026-05-01T07:05:17Z</time></trkpt><trkpt lat="47.31297501106766" lon="10.832025301753765"><ele>836.0</ele><time>2026-05-01T07:05:18Z</time></trkpt><trkpt lat="47.31309715362303" lon="10.83181576621815"><ele>836.0</ele><time>2026-05-01T07:05:19Z</time></trkpt><trkpt lat="47.31321896374557" lon="10.831604085046383"><ele>840.6666666666667</ele><time>2026-05-01T07:05:20Z</time></trkpt><trkpt lat="47.31334458407155" lon="10.83139842032588"><ele>845.3333333333333</ele><time>2026-05-01T07:05:21Z</time></trkpt><trkpt lat="47.313472025010306" lon="10.8311955484258"><ele>850.0</ele><time>2026-05-01T07:05:22Z</time></trkpt><trkpt lat="47.31359732482435" lon="10.83100081510563"><ele>848.6666666666666</ele><time>2026-05-01T07:05:23Z</time></trkpt><trkpt lat="47.31372030615824" lon="10.830813777030517"><ele>847.3333333333333</ele><time>2026-05-01T07:05:24Z</time></trkpt><trkpt lat="47.31384027856359" lon="10.830629747397204"><ele>846.0</ele><time>2026-05-01T07:05:25Z</time></trkpt><trkpt lat="47.313959267532034" lon="10.830454641780166"><ele>846.0</ele><time>2026-05-01T07:05:26Z</time></trkpt><trkpt lat="47.31407611949617" lon="10.830281878598665"><ele>846.0</ele><time>2026-05-01T07:05:27Z</time></trkpt><trkpt lat="47.31419304096238" lon="10.830106924114997"><ele>846.0</ele><time>2026-05-01T07:05:28Z</time></trkpt><trkpt lat="47.314308615327164" lon="10.829938689770271"><ele>849.0</ele><time>2026-05-01T07:05:29Z</time></trkpt><trkpt lat="47.3144292402902" lon="10.829772562172307"><ele>852.0</ele><time>2026-05-01T07:05:30Z</time></trkpt><trkpt lat="47.314550520998814" lon="10.829604525217123"><ele>855.0</ele><time>2026-05-01T07:05:31Z</time></trkpt><trkpt lat="47.3146729464984" lon="10.829436225326159"><ele>856.6666666666667</ele><time>2026-05-01T07:05:32Z</time></trkpt><trkpt lat="47.31479750170562" lon="10.829261787154595"><ele>858.3333333333334</ele><time>2026-05-01T07:05:33Z</time></trkpt><trkpt lat="47.31492217635281" lon="10.829084040092805"><ele>860.0</ele><time>2026-05-01T07:05:34Z</time></trkpt><trkpt lat="47.31504582827594" lon="10.828896683094682"><ele>860.0</ele><time>2026-05-01T07:05:35Z</time></trkpt><trkpt lat="47.31516788486142" lon="10.828702634083585"><ele>860.0</ele><time>2026-05-01T07:05:36Z</time></trkpt><trkpt lat="47.31528749555282" lon="10.828499923341807"><ele>860.0</ele><time>2026-05-01T07:05:37Z</time></trkpt><trkpt lat="47.31540484401566" lon="10.828291342203466"><ele>859.6666666666667</ele><time>2026-05-01T07:05:38Z</time></trkpt><trkpt lat="47.315518344043404" lon="10.828073492025583"><ele>859.3333333333333</ele><time>2026-05-01T07:05:39Z</time></trkpt><trkpt lat="47.31563186115196" lon="10.827849684576073"><ele>859.0</ele><time>2026-05-01T07:05:40Z</time></trkpt><trkpt lat="47.31575455575649" lon="10.82762134578176"><ele>859.0</ele><time>2026-05-01T07:05:41Z</time></trkpt><trkpt lat="47.315856978362916" lon="10.82735774202779"><ele>859.0</ele><time>2026-05-01T07:05:42Z</time></trkpt><trkpt lat="47.315959199547734" lon="10.827102963016989"><ele>859.0</ele><time>2026-05-01T07:05:43Z</time></trkpt><trkpt lat="47.31606320055779" lon="10.826849865781083"><ele>859.3333333333333</ele><time>2026-05-01T07:05:44Z</time></trkpt><trkpt lat="47.316177404136205" lon="10.826603847337712"><ele>859.6666666666667</ele><time>2026-05-01T07:05:45Z</time></trkpt><trkpt lat="47.31629839559135" lon="10.826379769654338"><ele>860.0</ele><time>2026-05-01T07:05:46Z</time></trkpt><trkpt lat="47.31641387949841" lon="10.826177194136015"><ele>860.0</ele><time>2026-05-01T07:05:47Z</time></trkpt><trkpt lat="47.31652876437443" lon="10.825988298541255"><ele>860.0</ele><time>2026-05-01T07:05:48Z</time></trkpt><trkpt lat="47.3166510217509" lon="10.82580908749162"><ele>860.0</ele><time>2026-05-01T07:05:49Z</time></trkpt><trkpt lat="47.31678257739098" lon="10.825641058201894"><ele>862.6666666666667</ele><time>2026-05-01T07:05:50Z</time></trkpt><trkpt lat="47.31692462191835" lon="10.825490142635335"><ele>865.3333333333333</ele><time>2026-05-01T07:05:51Z</time></trkpt><trkpt lat="47.317075570248875" lon="10.825347592881938"><ele>868.0</ele><time>2026-05-01T07:05:52Z</time></trkpt><trkpt lat="47.31723449337977" lon="10.825210592160591"><ele>870.0</ele><time>2026-05-01T07:05:53Z</time></trkpt><trkpt lat="47.31740108917185" lon="10.825088677802666"><ele>872.0</ele><time>2026-05-01T07:05:54Z</time></trkpt><trkpt lat="47.31757430167617" lon="10.82498018358953"><ele>874.0</ele><time>2026-05-01T07:05:55Z</time></trkpt><trkpt lat="47.317754239874304" lon="10.824888100620324"><ele>874.0</ele><time>2026-05-01T07:05:56Z</time></trkpt><trkpt lat="47.3179426385895" lon="10.82481387745365"><ele>874.0</ele><time>2026-05-01T07:05:57Z</time></trkpt><trkpt lat="47.318134550207134" lon="10.82475553223862"><ele>874.0</ele><time>2026-05-01T07:05:58Z</time></trkpt><trkpt lat="47.31833011468083" lon="10.824716287061543"><ele>874.3333333333333</ele><time>2026-05-01T07:05:59Z</time></trkpt><trkpt lat="47.31852857131316" lon="10.82469480081767"><ele>874.6666666666667</ele><time>2026-05-01T07:06:00Z</time></trkpt><trkpt lat="47.31872921598089" lon="10.824692186657108"><ele>875.0</ele><time>2026-05-01T07:06:01Z</time></trkpt><trkpt lat="47.31893151529699" lon="10.824708565917344"><ele>875.0</ele><time>2026-05-01T07:06:02Z</time></trkpt><trkpt lat="47.319134906767694" lon="10.824730784752152"><ele>875.0</ele><time>2026-05-01T07:06:03Z</time></trkpt><trkpt lat="47.31932588525527" lon="10.824743487955699"><ele>875.0</ele><time>2026-05-01T07:06:04Z</time></trkpt><trkpt lat="47.31952111967898" lon="10.82480017000538"><ele>875.0</ele><time>2026-05-01T07:06:05Z</time></trkpt><trkpt lat="47.31971493527476" lon="10.824856678869136"><ele>875.0</ele><time>2026-05-01T07:06:06Z</time></trkpt><trkpt lat="47.31990332814896" lon="10.824910623973178"><ele>875.0</ele><time>2026-05-01T07:06:07Z</time></trkpt><trkpt lat="47.320093984915665" lon="10.824963959572962"><ele>872.6666666666667</ele><time>2026-05-01T07:06:08Z</time></trkpt><trkpt lat="47.32028898277904" lon="10.82501099569043"><ele>870.3333333333333</ele><time>2026-05-01T07:06:09Z</time></trkpt><trkpt lat="47.320485084747325" lon="10.825042375298512"><ele>868.0</ele><time>2026-05-01T07:06:10Z</time></trkpt><trkpt lat="47.32068120320136" lon="10.825053890896292"><ele>866.3333333333333</ele><time>2026-05-01T07:06:11Z</time></trkpt><trkpt lat="47.32088086303154" lon="10.825054178000896"><ele>864.6666666666667</ele><time>2026-05-01T07:06:12Z</time></trkpt><trkpt lat="47.3210863593859" lon="10.825046442672324"><ele>863.0</ele><time>2026-05-01T07:06:13Z</time></trkpt><trkpt lat="47.321293271346164" lon="10.825025851100389"><ele>862.6666666666667</ele><time>2026-05-01T07:06:14Z</time></trkpt><trkpt lat="47.32150390846336" lon="10.824990637740683"><ele>862.3333333333333</ele><time>2026-05-01T07:06:15Z</time></trkpt><trkpt lat="47.32170635434752" lon="10.824937031452516"><ele>862.0</ele><time>2026-05-01T07:06:16Z</time></trkpt><trkpt lat="47.3219042543838" lon="10.824870142677389"><ele>862.0</ele><time>2026-05-01T07:06:17Z</time></trkpt><trkpt lat="47.32209979983597" lon="10.824791881289688"><ele>862.0</ele><time>2026-05-01T07:06:18Z</time></trkpt><trkpt lat="47.32228592668201" lon="10.824700557166768"><ele>862.0</ele><time>2026-05-01T07:06:19Z</time></trkpt><trkpt lat="47.32246831795645" lon="10.824600105370818"><ele>862.0</ele><time>2026-05-01T07:06:20Z</time></trkpt><trkpt lat="47.322646778956496" lon="10.824491048295428"><ele>862.0</ele><time>2026-05-01T07:06:21Z</time></trkpt><trkpt lat="47.32282037096677" lon="10.824375985743256"><ele>862.0</ele><time>2026-05-01T07:06:22Z</time></trkpt><trkpt lat="47.32299677437353" lon="10.824259679274668"><ele>863.0</ele><time>2026-05-01T07:06:23Z</time></trkpt><trkpt lat="47.32317484765989" lon="10.824150631983679"><ele>864.0</ele><time>2026-05-01T07:06:24Z</time></trkpt><trkpt lat="47.32335401005542" lon="10.824039350197731"><ele>865.0</ele><time>2026-05-01T07:06:25Z</time></trkpt><trkpt lat="47.32353346255722" lon="10.823931367754762"><ele>865.0</ele><time>2026-05-01T07:06:26Z</time></trkpt><trkpt lat="47.32370988587141" lon="10.823828195068854"><ele>865.0</ele><time>2026-05-01T07:06:27Z</time></trkpt><trkpt lat="47.32387058944411" lon="10.823733587852972"><ele>865.0</ele><time>2026-05-01T07:06:28Z</time></trkpt><trkpt lat="47.324039550509156" lon="10.82363014756097"><ele>865.3333333333333</ele><time>2026-05-01T07:06:29Z</time></trkpt><trkpt lat="47.324209862325475" lon="10.823525676535539"><ele>865.6666666666667</ele><time>2026-05-01T07:06:30Z</time></trkpt><trkpt lat="47.32437414504898" lon="10.82342605298465"><ele>866.0</ele><time>2026-05-01T07:06:31Z</time></trkpt><trkpt lat="47.32445430873434" lon="10.82327688777818"><ele>866.0</ele><time>2026-05-01T07:06:32Z</time></trkpt><trkpt lat="47.32466020997827" lon="10.823114668690856"><ele>866.0</ele><time>2026-05-01T07:06:33Z</time></trkpt><trkpt lat="47.32488002572704" lon="10.823024448382963"><ele>866.0</ele><time>2026-05-01T07:06:34Z</time></trkpt><trkpt lat="47.325040484085854" lon="10.82291992165856"><ele>866.0</ele><time>2026-05-01T07:06:35Z</time></trkpt><trkpt lat="47.32515955836338" lon="10.822830604983986"><ele>866.0</ele><time>2026-05-01T07:06:36Z</time></trkpt><trkpt lat="47.325297271129564" lon="10.822730059622238"><ele>866.25</ele><time>2026-05-01T07:06:37Z</time></trkpt><trkpt lat="47.32543193945023" lon="10.822622963360459"><ele>866.5</ele><time>2026-05-01T07:06:38Z</time></trkpt><trkpt lat="47.32552464526191" lon="10.822479915308485"><ele>866.75</ele><time>2026-05-01T07:06:39Z</time></trkpt><trkpt lat="47.32565806345104" lon="10.822360201101525"><ele>867.0</ele><time>2026-05-01T07:06:40Z</time></trkpt><trkpt lat="47.3257904920989" lon="10.82223856834965"><ele>868.6666666666667</ele><time>2026-05-01T07:06:41Z</time></trkpt><trkpt lat="47.32591862835859" lon="10.822111785765175"><ele>870.3333333333334</ele><time>2026-05-01T07:06:42Z</time></trkpt><trkpt lat="47.326043969451845" lon="10.821977762012434"><ele>872.0</ele><time>2026-05-01T07:06:43Z</time></trkpt><trkpt lat="47.32616646298054" lon="10.82183172638048"><ele>872.6666666666667</ele><time>2026-05-01T07:06:44Z</time></trkpt><trkpt lat="47.32628567820726" lon="10.821676563211753"><ele>873.3333333333333</ele><time>2026-05-01T07:06:45Z</time></trkpt><trkpt lat="47.32640323902894" lon="10.821511233639711"><ele>874.0</ele><time>2026-05-01T07:06:46Z</time></trkpt><trkpt lat="47.326519082779676" lon="10.821335337677091"><ele>874.0</ele><time>2026-05-01T07:06:47Z</time></trkpt><trkpt lat="47.326633141617535" lon="10.821151439888311"><ele>874.0</ele><time>2026-05-01T07:06:48Z</time></trkpt><trkpt lat="47.32674556801108" lon="10.820961520285255"><ele>874.0</ele><time>2026-05-01T07:06:49Z</time></trkpt><trkpt lat="47.32685955559847" lon="10.820766915600911"><ele>874.6666666666666</ele><time>2026-05-01T07:06:50Z</time></trkpt><trkpt lat="47.326976653644074" lon="10.820570247696846"><ele>875.3333333333333</ele><time>2026-05-01T07:06:51Z</time></trkpt><trkpt lat="47.327096028723695" lon="10.820374909308258"><ele>876.0</ele><time>2026-05-01T07:06:52Z</time></trkpt><trkpt lat="47.32721582130915" lon="10.820182392665933"><ele>876.6666666666667</ele><time>2026-05-01T07:06:53Z</time></trkpt><trkpt lat="47.32733543369662" lon="10.81999069617792"><ele>877.3333333333334</ele><time>2026-05-01T07:06:54Z</time></trkpt><trkpt lat="47.327454906895646" lon="10.819800759772544"><ele>878.0</ele><time>2026-05-01T07:06:55Z</time></trkpt><trkpt lat="47.32757504633385" lon="10.81961660108345"><ele>878.0</ele><time>2026-05-01T07:06:56Z</time></trkpt><trkpt lat="47.32770051318133" lon="10.819443801433017"><ele>878.0</ele><time>2026-05-01T07:06:57Z</time></trkpt><trkpt lat="47.32783347091549" lon="10.81928634019958"><ele>878.0</ele><time>2026-05-01T07:06:58Z</time></trkpt><trkpt lat="47.32797441367227" lon="10.819143427509356"><ele>879.6666666666667</ele><time>2026-05-01T07:06:59Z</time></trkpt><trkpt lat="47.32813044116459" lon="10.819049645054138"><ele>881.3333333333333</ele><time>2026-05-01T07:07:00Z</time></trkpt><trkpt lat="47.32827380243804" lon="10.81894492353431"><ele>883.0</ele><time>2026-05-01T07:07:01Z</time></trkpt><trkpt lat="47.32840843079647" lon="10.818850480591149"><ele>883.0</ele><time>2026-05-01T07:07:02Z</time></trkpt><trkpt lat="47.328534718049525" lon="10.818761740066202"><ele>883.0</ele><time>2026-05-01T07:07:03Z</time></trkpt><trkpt lat="47.328643656386895" lon="10.818660773303154"><ele>883.0</ele><time>2026-05-01T07:07:04Z</time></trkpt><trkpt lat="47.328749998703906" lon="10.818591713694888"><ele>883.0</ele><time>2026-05-01T07:07:05Z</time></trkpt><trkpt lat="47.32884615932013" lon="10.818529189305249"><ele>883.5999999999999</ele><time>2026-05-01T07:07:06.001Z</time></trkpt><trkpt lat="47.32893757326698" lon="10.818471208716218"><ele>884.1999999999999</ele><time>2026-05-01T07:07:07.001Z</time></trkpt><trkpt lat="47.32902342466149" lon="10.818419589146357"><ele>884.8</ele><time>2026-05-01T07:07:08.001Z</time></trkpt><trkpt lat="47.3291129298216" lon="10.818369220460799"><ele>885.4</ele><time>2026-05-01T07:07:09.001Z</time></trkpt><trkpt lat="47.32920411333344" lon="10.818322154570406"><ele>886.0</ele><time>2026-05-01T07:07:10.001Z</time></trkpt><trkpt lat="47.32929508113756" lon="10.81827825215041"><ele>886.0</ele><time>2026-05-01T07:07:11.001Z</time></trkpt><trkpt lat="47.32938717971489" lon="10.818243174759138"><ele>885.9999999999999</ele><time>2026-05-01T07:07:12.001Z</time></trkpt><trkpt lat="47.32948224460195" lon="10.818213321757089"><ele>885.9999999999999</ele><time>2026-05-01T07:07:13.001Z</time></trkpt><trkpt lat="47.32958115487217" lon="10.818189936771226"><ele>886.0</ele><time>2026-05-01T07:07:14.001Z</time></trkpt><trkpt lat="47.32968781575995" lon="10.818171599989276"><ele>886.0</ele><time>2026-05-01T07:07:15.001Z</time></trkpt><trkpt lat="47.32979985944285" lon="10.818160423493339"><ele>887.5</ele><time>2026-05-01T07:07:16.001Z</time></trkpt><trkpt lat="47.32991655630581" lon="10.81815440186715"><ele>889.0</ele><time>2026-05-01T07:07:17.001Z</time></trkpt><trkpt lat="47.33003809614991" lon="10.818154189446382"><ele>890.5</ele><time>2026-05-01T07:07:18.001Z</time></trkpt><trkpt lat="47.330166657903796" lon="10.818164920328131"><ele>892.0</ele><time>2026-05-01T07:07:19Z</time></trkpt><trkpt lat="47.33029855659484" lon="10.81818547802856"><ele>892.0</ele><time>2026-05-01T07:07:20Z</time></trkpt><trkpt lat="47.33042698075421" lon="10.818213906609827"><ele>892.0</ele><time>2026-05-01T07:07:21Z</time></trkpt><trkpt lat="47.33056014501687" lon="10.818253232173909"><ele>892.0</ele><time>2026-05-01T07:07:22Z</time></trkpt><trkpt lat="47.33069398869142" lon="10.818304698181146"><ele>892.0</ele><time>2026-05-01T07:07:23Z</time></trkpt><trkpt lat="47.33082802832089" lon="10.818363990537298"><ele>893.25</ele><time>2026-05-01T07:07:24Z</time></trkpt><trkpt lat="47.330964023402" lon="10.81842475928203"><ele>894.5</ele><time>2026-05-01T07:07:25Z</time></trkpt><trkpt lat="47.33110144607834" lon="10.818481287709806"><ele>895.75</ele><time>2026-05-01T07:07:26Z</time></trkpt><trkpt lat="47.331241082161064" lon="10.818530342368463"><ele>897.0</ele><time>2026-05-01T07:07:27Z</time></trkpt><trkpt lat="47.331383483254385" lon="10.818570008327695"><ele>904.6666666666667</ele><time>2026-05-01T07:07:28Z</time></trkpt><trkpt lat="47.33152726066154" lon="10.818626244986374"><ele>912.3333333333334</ele><time>2026-05-01T07:07:29Z</time></trkpt><trkpt lat="47.33167697214605" lon="10.818654054577665"><ele>920.0</ele><time>2026-05-01T07:07:30Z</time></trkpt><trkpt lat="47.33182835764936" lon="10.818666707433357"><ele>920.0</ele><time>2026-05-01T07:07:31Z</time></trkpt><trkpt lat="47.331981371518125" lon="10.818670620359132"><ele>920.0</ele><time>2026-05-01T07:07:32Z</time></trkpt><trkpt lat="47.332133633545816" lon="10.818659961206837"><ele>920.0</ele><time>2026-05-01T07:07:33Z</time></trkpt><trkpt lat="47.332283097934585" lon="10.818642729296075"><ele>920.5</ele><time>2026-05-01T07:07:34Z</time></trkpt><trkpt lat="47.33243052497093" lon="10.818612772282087"><ele>921.0</ele><time>2026-05-01T07:07:35Z</time></trkpt><trkpt lat="47.33257245167001" lon="10.81857734711285"><ele>921.5</ele><time>2026-05-01T07:07:36Z</time></trkpt><trkpt lat="47.33270998778176" lon="10.818542092037152"><ele>922.0</ele><time>2026-05-01T07:07:37Z</time></trkpt><trkpt lat="47.3328460576397" lon="10.818512645213277"><ele>922.0</ele><time>2026-05-01T07:07:38Z</time></trkpt><trkpt lat="47.332979323818286" lon="10.818487449789034"><ele>922.0</ele><time>2026-05-01T07:07:39Z</time></trkpt><trkpt lat="47.33311228361097" lon="10.818479230121696"><ele>922.0</ele><time>2026-05-01T07:07:40Z</time></trkpt><trkpt lat="47.33325128845685" lon="10.81847765564223"><ele>922.0</ele><time>2026-05-01T07:07:41Z</time></trkpt><trkpt lat="47.333394229960426" lon="10.818465635035361"><ele>922.0</ele><time>2026-05-01T07:07:42Z</time></trkpt><trkpt lat="47.33354060239492" lon="10.818489225749193"><ele>922.0</ele><time>2026-05-01T07:07:43Z</time></trkpt><trkpt lat="47.33368872917393" lon="10.818521329789123"><ele>922.0</ele><time>2026-05-01T07:07:44Z</time></trkpt><trkpt lat="47.33383316894791" lon="10.818583673409726"><ele>922.0</ele><time>2026-05-01T07:07:45Z</time></trkpt><trkpt lat="47.33398260909451" lon="10.818624806829437"><ele>918.6666666666666</ele><time>2026-05-01T07:07:46Z</time></trkpt><trkpt lat="47.334133007708196" lon="10.81866671446715"><ele>915.3333333333333</ele><time>2026-05-01T07:07:47Z</time></trkpt><trkpt lat="47.33428613861637" lon="10.81871139750353"><ele>912.0</ele><time>2026-05-01T07:07:48Z</time></trkpt><trkpt lat="47.33444240643237" lon="10.81875699578808"><ele>912.0</ele><time>2026-05-01T07:07:49Z</time></trkpt><trkpt lat="47.334594906584236" lon="10.818802208205826"><ele>912.0</ele><time>2026-05-01T07:07:50Z</time></trkpt><trkpt lat="47.334760358188674" lon="10.818815604577365"><ele>912.0</ele><time>2026-05-01T07:07:51Z</time></trkpt><trkpt lat="47.33492736247575" lon="10.81886003280223"><ele>910.3333333333333</ele><time>2026-05-01T07:07:52Z</time></trkpt><trkpt lat="47.33509509592182" lon="10.818898664917599"><ele>908.6666666666666</ele><time>2026-05-01T07:07:53Z</time></trkpt><trkpt lat="47.335258846589014" lon="10.818924458250915"><ele>907.0</ele><time>2026-05-01T07:07:54Z</time></trkpt><trkpt lat="47.33542364523513" lon="10.818970201769707"><ele>909.0</ele><time>2026-05-01T07:07:55Z</time></trkpt><trkpt lat="47.335595022259916" lon="10.818971673890912"><ele>911.0</ele><time>2026-05-01T07:07:56Z</time></trkpt><trkpt lat="47.33577282674664" lon="10.818966032120771"><ele>913.0</ele><time>2026-05-01T07:07:57Z</time></trkpt><trkpt lat="47.33595404177427" lon="10.818958929313585"><ele>913.0</ele><time>2026-05-01T07:07:58Z</time></trkpt><trkpt lat="47.3361392400394" lon="10.818951670381061"><ele>913.0</ele><time>2026-05-01T07:07:59Z</time></trkpt><trkpt lat="47.33632476377995" lon="10.818943219409896"><ele>913.0</ele><time>2026-05-01T07:08:00Z</time></trkpt><trkpt lat="47.33650724667623" lon="10.818931534534848"><ele>914.6666666666666</ele><time>2026-05-01T07:08:01Z</time></trkpt><trkpt lat="47.3366884685996" lon="10.818913434617045"><ele>916.3333333333333</ele><time>2026-05-01T07:08:02Z</time></trkpt><trkpt lat="47.33686597957455" lon="10.818871542990633"><ele>918.0</ele><time>2026-05-01T07:08:03Z</time></trkpt><trkpt lat="47.337041739019966" lon="10.818802087147146"><ele>918.0</ele><time>2026-05-01T07:08:04Z</time></trkpt><trkpt lat="47.33721151876088" lon="10.818716026287248"><ele>918.0</ele><time>2026-05-01T07:08:05Z</time></trkpt><trkpt lat="47.33737616846633" lon="10.818621603093154"><ele>918.0</ele><time>2026-05-01T07:08:06Z</time></trkpt><trkpt lat="47.33753788792635" lon="10.818521321395183"><ele>918.6666666666667</ele><time>2026-05-01T07:08:07Z</time></trkpt><trkpt lat="47.33768647582948" lon="10.818429070314915"><ele>919.3333333333334</ele><time>2026-05-01T07:08:08Z</time></trkpt><trkpt lat="47.33782864904932" lon="10.818340803638602"><ele>920.0</ele><time>2026-05-01T07:08:09Z</time></trkpt><trkpt lat="47.33797269876543" lon="10.818251371945454"><ele>921.6666666666667</ele><time>2026-05-01T07:08:10Z</time></trkpt><trkpt lat="47.338117523749844" lon="10.818161458939771"><ele>923.3333333333333</ele><time>2026-05-01T07:08:11Z</time></trkpt><trkpt lat="47.33824130602843" lon="10.817999978307792"><ele>925.0</ele><time>2026-05-01T07:08:12Z</time></trkpt><trkpt lat="47.33837666580679" lon="10.817918282319193"><ele>925.0</ele><time>2026-05-01T07:08:13Z</time></trkpt><trkpt lat="47.338514714373225" lon="10.8178381233801"><ele>925.0</ele><time>2026-05-01T07:08:14Z</time></trkpt><trkpt lat="47.33865502023327" lon="10.817753424317665"><ele>925.0</ele><time>2026-05-01T07:08:15Z</time></trkpt><trkpt lat="47.33879530323826" lon="10.817671848791528"><ele>924.75</ele><time>2026-05-01T07:08:16Z</time></trkpt><trkpt lat="47.33892962504575" lon="10.817603549648892"><ele>924.5</ele><time>2026-05-01T07:08:17Z</time></trkpt><trkpt lat="47.33906713084785" lon="10.817629092968195"><ele>924.25</ele><time>2026-05-01T07:08:18Z</time></trkpt><trkpt lat="47.33919266928432" lon="10.817603869353867"><ele>924.0</ele><time>2026-05-01T07:08:19Z</time></trkpt><trkpt lat="47.33931278533625" lon="10.81760156741265"><ele>924.0</ele><time>2026-05-01T07:08:20Z</time></trkpt><trkpt lat="47.339423818365034" lon="10.81762766764475"><ele>924.0000000000001</ele><time>2026-05-01T07:08:21Z</time></trkpt><trkpt lat="47.33951371573012" lon="10.817662788222783"><ele>924.0000000000001</ele><time>2026-05-01T07:08:22Z</time></trkpt><trkpt lat="47.339598598259386" lon="10.817717895747446"><ele>924.0</ele><time>2026-05-01T07:08:23Z</time></trkpt><trkpt lat="47.33968285141893" lon="10.817781142592517"><ele>924.0</ele><time>2026-05-01T07:08:24Z</time></trkpt><trkpt lat="47.33975095491189" lon="10.817882125850273"><ele>925.8000000000001</ele><time>2026-05-01T07:08:25Z</time></trkpt><trkpt lat="47.33981575446495" lon="10.817999625334746"><ele>927.6000000000001</ele><time>2026-05-01T07:08:26Z</time></trkpt><trkpt lat="47.33987988202975" lon="10.818128567705616"><ele>929.4</ele><time>2026-05-01T07:08:27Z</time></trkpt><trkpt lat="47.33994254775151" lon="10.818268765625255"><ele>931.2</ele><time>2026-05-01T07:08:28Z</time></trkpt><trkpt lat="47.34001235481471" lon="10.818408575079635"><ele>933.0</ele><time>2026-05-01T07:08:29Z</time></trkpt><trkpt lat="47.34009224374066" lon="10.81853257171893"><ele>941.4</ele><time>2026-05-01T07:08:30Z</time></trkpt><trkpt lat="47.34018157109053" lon="10.818639192301653"><ele>949.8</ele><time>2026-05-01T07:08:31Z</time></trkpt><trkpt lat="47.340263524176926" lon="10.818749799969552"><ele>958.2</ele><time>2026-05-01T07:08:32Z</time></trkpt><trkpt lat="47.34035572612772" lon="10.818836701455803"><ele>966.6</ele><time>2026-05-01T07:08:33Z</time></trkpt><trkpt lat="47.34045144287092" lon="10.818925239923116"><ele>975.0</ele><time>2026-05-01T07:08:34Z</time></trkpt><trkpt lat="47.34054924843482" lon="10.819019351265812"><ele>975.0</ele><time>2026-05-01T07:08:35Z</time></trkpt><trkpt lat="47.34065172610374" lon="10.819121268246022"><ele>975.0</ele><time>2026-05-01T07:08:36Z</time></trkpt><trkpt lat="47.34076304641432" lon="10.819214361764537"><ele>975.0</ele><time>2026-05-01T07:08:37Z</time></trkpt><trkpt lat="47.340863817200365" lon="10.819335990567424"><ele>975.0</ele><time>2026-05-01T07:08:38Z</time></trkpt><trkpt lat="47.34096519224225" lon="10.819462624602554"><ele>975.0</ele><time>2026-05-01T07:08:39Z</time></trkpt><trkpt lat="47.34106844374805" lon="10.819589525927006"><ele>975.0</ele><time>2026-05-01T07:08:40Z</time></trkpt><trkpt lat="47.34116323962135" lon="10.81970804245432"><ele>975.0</ele><time>2026-05-01T07:08:41Z</time></trkpt><trkpt lat="47.34125182891641" lon="10.819811210576304"><ele>975.0</ele><time>2026-05-01T07:08:42Z</time></trkpt><trkpt lat="47.3413368412621" lon="10.81992870382735"><ele>967.25</ele><time>2026-05-01T07:08:43Z</time></trkpt><trkpt lat="47.34144456037885" lon="10.820007985551426"><ele>959.5</ele><time>2026-05-01T07:08:44Z</time></trkpt><trkpt lat="47.34156215181659" lon="10.820064699219042"><ele>951.75</ele><time>2026-05-01T07:08:45Z</time></trkpt><trkpt lat="47.34168848494848" lon="10.820088975998056"><ele>944.0</ele><time>2026-05-01T07:08:46Z</time></trkpt><trkpt lat="47.34181553890547" lon="10.820077749321188"><ele>944.0</ele><time>2026-05-01T07:08:47Z</time></trkpt><trkpt lat="47.34193886897406" lon="10.820042739615257"><ele>944.0</ele><time>2026-05-01T07:08:48Z</time></trkpt><trkpt lat="47.34205827631073" lon="10.820006303381048"><ele>944.0</ele><time>2026-05-01T07:08:49Z</time></trkpt><trkpt lat="47.34217559185399" lon="10.819970505435053"><ele>944.0</ele><time>2026-05-01T07:08:50Z</time></trkpt><trkpt lat="47.34228907380323" lon="10.819935877267422"><ele>945.75</ele><time>2026-05-01T07:08:51Z</time></trkpt><trkpt lat="47.34239832206759" lon="10.819902540988132"><ele>947.5</ele><time>2026-05-01T07:08:52Z</time></trkpt><trkpt lat="47.34250850358499" lon="10.819871624926352"><ele>949.25</ele><time>2026-05-01T07:08:53Z</time></trkpt><trkpt lat="47.34262335937101" lon="10.819836343893328"><ele>951.0</ele><time>2026-05-01T07:08:54Z</time></trkpt><trkpt lat="47.342743248484794" lon="10.81978835516628"><ele>951.0</ele><time>2026-05-01T07:08:55Z</time></trkpt><trkpt lat="47.34286378943697" lon="10.819707930068812"><ele>951.0</ele><time>2026-05-01T07:08:56Z</time></trkpt><trkpt lat="47.3429767376589" lon="10.81959960959588"><ele>951.0</ele><time>2026-05-01T07:08:57Z</time></trkpt><trkpt lat="47.343080527491146" lon="10.819463386803218"><ele>951.0</ele><time>2026-05-01T07:08:58Z</time></trkpt><trkpt lat="47.34317195487651" lon="10.819315459484491"><ele>954.5</ele><time>2026-05-01T07:08:59Z</time></trkpt><trkpt lat="47.3432602348995" lon="10.819165327214279"><ele>958.0</ele><time>2026-05-01T07:09:00Z</time></trkpt><trkpt lat="47.34334124982286" lon="10.819029324617837"><ele>961.5</ele><time>2026-05-01T07:09:01Z</time></trkpt><trkpt lat="47.34342710965301" lon="10.818901732947452"><ele>965.0</ele><time>2026-05-01T07:09:02Z</time></trkpt><trkpt lat="47.34351264338382" lon="10.81882039722052"><ele>965.0</ele><time>2026-05-01T07:09:03Z</time></trkpt><trkpt lat="47.34360554097958" lon="10.818750144084111"><ele>965.0</ele><time>2026-05-01T07:09:04Z</time></trkpt><trkpt lat="47.34369156027251" lon="10.818728530922476"><ele>965.0</ele><time>2026-05-01T07:09:05Z</time></trkpt><trkpt lat="47.34378769819521" lon="10.818710489247133"><ele>965.0</ele><time>2026-05-01T07:09:06Z</time></trkpt><trkpt lat="47.343883624255405" lon="10.818704808000193"><ele>965.0</ele><time>2026-05-01T07:09:07Z</time></trkpt><trkpt lat="47.343980472728674" lon="10.81870149296408"><ele>964.2</ele><time>2026-05-01T07:09:08Z</time></trkpt><trkpt lat="47.34407980653799" lon="10.818698092848564"><ele>963.4</ele><time>2026-05-01T07:09:09Z</time></trkpt><trkpt lat="47.344179626984705" lon="10.818694676082888"><ele>962.5999999999999</ele><time>2026-05-01T07:09:10Z</time></trkpt><trkpt lat="47.3442772823409" lon="10.818696087586806"><ele>961.8</ele><time>2026-05-01T07:09:11Z</time></trkpt><trkpt lat="47.34437267824233" lon="10.81870314237927"><ele>961.0</ele><time>2026-05-01T07:09:12Z</time></trkpt><trkpt lat="47.34446256608008" lon="10.818726781451403"><ele>961.0</ele><time>2026-05-01T07:09:13Z</time></trkpt><trkpt lat="47.344546734081824" lon="10.818782787761046"><ele>960.9999999999999</ele><time>2026-05-01T07:09:14Z</time></trkpt><trkpt lat="47.34462752577443" lon="10.818853455266357"><ele>960.9999999999999</ele><time>2026-05-01T07:09:15Z</time></trkpt><trkpt lat="47.34472685967745" lon="10.81890221158348"><ele>961.0</ele><time>2026-05-01T07:09:16Z</time></trkpt><trkpt lat="47.34482485039814" lon="10.818963705540309"><ele>961.0</ele><time>2026-05-01T07:09:17Z</time></trkpt><trkpt lat="47.3449307914353" lon="10.81899925842824"><ele>956.75</ele><time>2026-05-01T07:09:18Z</time></trkpt><trkpt lat="47.34504180092142" lon="10.81900297409175"><ele>952.5</ele><time>2026-05-01T07:09:19Z</time></trkpt><trkpt lat="47.34516212445038" lon="10.8190586583227"><ele>948.25</ele><time>2026-05-01T07:09:20Z</time></trkpt><trkpt lat="47.3452766336" lon="10.81901601661168"><ele>944.0</ele><time>2026-05-01T07:09:21Z</time></trkpt><trkpt lat="47.345380051379436" lon="10.818970705728244"><ele>944.0000000000001</ele><time>2026-05-01T07:09:22.001Z</time></trkpt><trkpt lat="47.345466970062745" lon="10.818932175144"><ele>944.0</ele><time>2026-05-01T07:09:23.001Z</time></trkpt><trkpt lat="47.34554486929396" lon="10.818910669893155"><ele>944.0</ele><time>2026-05-01T07:09:24.001Z</time></trkpt><trkpt lat="47.34562920708738" lon="10.818907077070428"><ele>944.0</ele><time>2026-05-01T07:09:25Z</time></trkpt><trkpt lat="47.34570331810924" lon="10.818930458512598"><ele>944.0000000000001</ele><time>2026-05-01T07:09:26Z</time></trkpt><trkpt lat="47.34575873456882" lon="10.819014040598677"><ele>944.0</ele><time>2026-05-01T07:09:27Z</time></trkpt><trkpt lat="47.3458017792891" lon="10.81910558170345"><ele>945.0</ele><time>2026-05-01T07:09:28Z</time></trkpt><trkpt lat="47.345841906992106" lon="10.819203296133423"><ele>946.0000000000001</ele><time>2026-05-01T07:09:29Z</time></trkpt><trkpt lat="47.34588513209978" lon="10.819316575385653"><ele>947.0000000000001</ele><time>2026-05-01T07:09:30Z</time></trkpt><trkpt lat="47.345932698946335" lon="10.819435867557642"><ele>948.0</ele><time>2026-05-01T07:09:31Z</time></trkpt><trkpt lat="47.345982649968384" lon="10.819563170701914"><ele>949.0</ele><time>2026-05-01T07:09:32Z</time></trkpt><trkpt lat="47.346034898141724" lon="10.819693591116032"><ele>949.0</ele><time>2026-05-01T07:09:33Z</time></trkpt><trkpt lat="47.34608721741203" lon="10.819816080651584"><ele>949.0000000000001</ele><time>2026-05-01T07:09:34Z</time></trkpt><trkpt lat="47.34615287881547" lon="10.81993533958548"><ele>949.0000000000001</ele><time>2026-05-01T07:09:35Z</time></trkpt><trkpt lat="47.346228905190486" lon="10.820042854253845"><ele>949.0</ele><time>2026-05-01T07:09:36Z</time></trkpt><trkpt lat="47.34631454864725" lon="10.820140955738253"><ele>949.0</ele><time>2026-05-01T07:09:37Z</time></trkpt><trkpt lat="47.34640354537065" lon="10.82023868134586"><ele>954.25</ele><time>2026-05-01T07:09:38Z</time></trkpt><trkpt lat="47.34648866137758" lon="10.820345571406476"><ele>959.5</ele><time>2026-05-01T07:09:39Z</time></trkpt><trkpt lat="47.346567902935604" lon="10.820465614321732"><ele>964.75</ele><time>2026-05-01T07:09:40Z</time></trkpt><trkpt lat="47.34663732817345" lon="10.82059544116775"><ele>970.0</ele><time>2026-05-01T07:09:41Z</time></trkpt><trkpt lat="47.3467074873898" lon="10.820725284270434"><ele>970.0</ele><time>2026-05-01T07:09:42Z</time></trkpt><trkpt lat="47.34677601129388" lon="10.820852731890126"><ele>970.0</ele><time>2026-05-01T07:09:43Z</time></trkpt><trkpt lat="47.34684369299899" lon="10.82097829914419"><ele>970.0</ele><time>2026-05-01T07:09:44Z</time></trkpt><trkpt lat="47.34691147640496" lon="10.82110449637085"><ele>970.0</ele><time>2026-05-01T07:09:45Z</time></trkpt><trkpt lat="47.34698262054838" lon="10.821235161409547"><ele>970.0</ele><time>2026-05-01T07:09:46Z</time></trkpt><trkpt lat="47.34705663151154" lon="10.821366441858336"><ele>971.25</ele><time>2026-05-01T07:09:47Z</time></trkpt><trkpt lat="47.347132810662444" lon="10.821498922581913"><ele>972.5</ele><time>2026-05-01T07:09:48Z</time></trkpt><trkpt lat="47.34720977806708" lon="10.821636410482787"><ele>973.75</ele><time>2026-05-01T07:09:49Z</time></trkpt><trkpt lat="47.34728700290311" lon="10.821779669211294"><ele>975.0</ele><time>2026-05-01T07:09:50Z</time></trkpt><trkpt lat="47.34736540513353" lon="10.821930214735382"><ele>975.0</ele><time>2026-05-01T07:09:51Z</time></trkpt><trkpt lat="47.34744231400792" lon="10.822087514417195"><ele>975.0</ele><time>2026-05-01T07:09:52Z</time></trkpt><trkpt lat="47.34751742795855" lon="10.822255565312771"><ele>975.0</ele><time>2026-05-01T07:09:53Z</time></trkpt><trkpt lat="47.34758516719711" lon="10.8224158310305"><ele>975.0</ele><time>2026-05-01T07:09:54Z</time></trkpt><trkpt lat="47.347654734272155" lon="10.82258418828886"><ele>970.75</ele><time>2026-05-01T07:09:55Z</time></trkpt><trkpt lat="47.34772600613836" lon="10.822758139245167"><ele>966.5</ele><time>2026-05-01T07:09:56Z</time></trkpt><trkpt lat="47.347798021983266" lon="10.822929187973912"><ele>962.25</ele><time>2026-05-01T07:09:57Z</time></trkpt><trkpt lat="47.347868954433274" lon="10.823096862001867"><ele>958.0</ele><time>2026-05-01T07:09:58Z</time></trkpt><trkpt lat="47.347937843144905" lon="10.823262483584461"><ele>958.0</ele><time>2026-05-01T07:09:59Z</time></trkpt><trkpt lat="47.34800409678277" lon="10.823424018113158"><ele>958.0</ele><time>2026-05-01T07:10:00Z</time></trkpt><trkpt lat="47.3480730709722" lon="10.823578307692225"><ele>958.0</ele><time>2026-05-01T07:10:01Z</time></trkpt><trkpt lat="47.348151078446776" lon="10.823739641666386"><ele>958.0</ele><time>2026-05-01T07:10:02Z</time></trkpt><trkpt lat="47.34824269265301" lon="10.823855171797963"><ele>962.75</ele><time>2026-05-01T07:10:03Z</time></trkpt><trkpt lat="47.34836942567611" lon="10.823934257965442"><ele>967.5</ele><time>2026-05-01T07:10:04Z</time></trkpt><trkpt lat="47.34850460672569" lon="10.823979250727948"><ele>972.25</ele><time>2026-05-01T07:10:05Z</time></trkpt><trkpt lat="47.348627876128056" lon="10.824017565240169"><ele>977.0</ele><time>2026-05-01T07:10:06Z</time></trkpt><trkpt lat="47.34874309194864" lon="10.824073871139575"><ele>977.0</ele><time>2026-05-01T07:10:07Z</time></trkpt><trkpt lat="47.34883983909499" lon="10.824161124945412"><ele>977.0</ele><time>2026-05-01T07:10:08Z</time></trkpt><trkpt lat="47.34893131238275" lon="10.824257337095156"><ele>977.0</ele><time>2026-05-01T07:10:09Z</time></trkpt><trkpt lat="47.34901154930822" lon="10.824346922874689"><ele>977.0</ele><time>2026-05-01T07:10:10Z</time></trkpt><trkpt lat="47.34911129844342" lon="10.824422196857377"><ele>977.0</ele><time>2026-05-01T07:10:11Z</time></trkpt><trkpt lat="47.34921963126365" lon="10.82447574009925"><ele>975.5</ele><time>2026-05-01T07:10:12Z</time></trkpt><trkpt lat="47.34934565248148" lon="10.824493504835981"><ele>974.0</ele><time>2026-05-01T07:10:13Z</time></trkpt><trkpt lat="47.3494689912436" lon="10.824473411124758"><ele>972.5</ele><time>2026-05-01T07:10:14Z</time></trkpt><trkpt lat="47.349584216164246" lon="10.82442575303124"><ele>971.0</ele><time>2026-05-01T07:10:15Z</time></trkpt><trkpt lat="47.349677772536" lon="10.824387701097821"><ele>974.8</ele><time>2026-05-01T07:10:16Z</time></trkpt><trkpt lat="47.34976307529621" lon="10.824376396406528"><ele>978.5999999999999</ele><time>2026-05-01T07:10:17Z</time></trkpt><trkpt lat="47.34984434770413" lon="10.82439640346574"><ele>982.4</ele><time>2026-05-01T07:10:18Z</time></trkpt><trkpt lat="47.34993933899732" lon="10.824442796044476"><ele>986.2</ele><time>2026-05-01T07:10:19Z</time></trkpt><trkpt lat="47.35004510680955" lon="10.824498029043227"><ele>990.0</ele><time>2026-05-01T07:10:20Z</time></trkpt><trkpt lat="47.35015357804869" lon="10.824556591742713"><ele>990.0</ele><time>2026-05-01T07:10:21Z</time></trkpt><trkpt lat="47.35026276337142" lon="10.824617838195133"><ele>990.0</ele><time>2026-05-01T07:10:22Z</time></trkpt><trkpt lat="47.35036905664288" lon="10.824677622341476"><ele>990.0</ele><time>2026-05-01T07:10:23Z</time></trkpt><trkpt lat="47.35047662890814" lon="10.82473706543468"><ele>990.0</ele><time>2026-05-01T07:10:24Z</time></trkpt><trkpt lat="47.35058541304576" lon="10.82479692174292"><ele>995.5</ele><time>2026-05-01T07:10:25Z</time></trkpt><trkpt lat="47.35069474156613" lon="10.824859746492624"><ele>1001.0</ele><time>2026-05-01T07:10:26Z</time></trkpt><trkpt lat="47.350808060301745" lon="10.824928917784845"><ele>1006.5</ele><time>2026-05-01T07:10:27Z</time></trkpt><trkpt lat="47.350913560983514" lon="10.82501516847305"><ele>1012.0</ele><time>2026-05-01T07:10:28Z</time></trkpt><trkpt lat="47.35102154751043" lon="10.825111214292368"><ele>1014.75</ele><time>2026-05-01T07:10:29Z</time></trkpt><trkpt lat="47.351124117684805" lon="10.82523049723496"><ele>1017.5</ele><time>2026-05-01T07:10:30Z</time></trkpt><trkpt lat="47.35121505824406" lon="10.825353174956142"><ele>1020.25</ele><time>2026-05-01T07:10:31Z</time></trkpt><trkpt lat="47.351312588676045" lon="10.825490114237812"><ele>1023.0</ele><time>2026-05-01T07:10:32Z</time></trkpt><trkpt lat="47.351411087583955" lon="10.825637946422002"><ele>1023.0</ele><time>2026-05-01T07:10:33Z</time></trkpt><trkpt lat="47.35150627654448" lon="10.825797028329934"><ele>1023.0</ele><time>2026-05-01T07:10:34Z</time></trkpt><trkpt lat="47.351606019757256" lon="10.825952763529651"><ele>1023.0</ele><time>2026-05-01T07:10:35Z</time></trkpt><trkpt lat="47.35170306409864" lon="10.826103847205784"><ele>1023.0</ele><time>2026-05-01T07:10:36Z</time></trkpt><trkpt lat="47.35179866626206" lon="10.826254072115674"><ele>1020.5</ele><time>2026-05-01T07:10:37Z</time></trkpt><trkpt lat="47.351900395583" lon="10.82639923234324"><ele>1018.0</ele><time>2026-05-01T07:10:38Z</time></trkpt><trkpt lat="47.35200168695586" lon="10.826537035008345"><ele>1015.5</ele><time>2026-05-01T07:10:39Z</time></trkpt><trkpt lat="47.35210252405134" lon="10.826676170276553"><ele>1013.0</ele><time>2026-05-01T07:10:40Z</time></trkpt><trkpt lat="47.35220953458893" lon="10.826814765820115"><ele>1013.0</ele><time>2026-05-01T07:10:41Z</time></trkpt><trkpt lat="47.352313669098024" lon="10.826951676781627"><ele>1013.0</ele><time>2026-05-01T07:10:42Z</time></trkpt><trkpt lat="47.35241597636367" lon="10.827106152244719"><ele>1013.0</ele><time>2026-05-01T07:10:43Z</time></trkpt><trkpt lat="47.352515920100736" lon="10.82725937818076"><ele>1013.0</ele><time>2026-05-01T07:10:44Z</time></trkpt><trkpt lat="47.35261394031047" lon="10.827412342150259"><ele>1013.0</ele><time>2026-05-01T07:10:45Z</time></trkpt><trkpt lat="47.35270758564208" lon="10.82756975445998"><ele>1013.0</ele><time>2026-05-01T07:10:46Z</time></trkpt><trkpt lat="47.35279876103502" lon="10.827729450518582"><ele>1013.0</ele><time>2026-05-01T07:10:47Z</time></trkpt><trkpt lat="47.3528876273873" lon="10.827895987887086"><ele>1013.0</ele><time>2026-05-01T07:10:48Z</time></trkpt><trkpt lat="47.35297426575899" lon="10.828067308929832"><ele>1016.75</ele><time>2026-05-01T07:10:49Z</time></trkpt><trkpt lat="47.353057983722096" lon="10.828244374212657"><ele>1020.5</ele><time>2026-05-01T07:10:50Z</time></trkpt><trkpt lat="47.353141832126624" lon="10.828429503256897"><ele>1024.25</ele><time>2026-05-01T07:10:51Z</time></trkpt><trkpt lat="47.35322151507161" lon="10.828617746341608"><ele>1028.0</ele><time>2026-05-01T07:10:52Z</time></trkpt><trkpt lat="47.35329718015613" lon="10.828810252165171"><ele>1028.0</ele><time>2026-05-01T07:10:53Z</time></trkpt><trkpt lat="47.353370301274275" lon="10.829007631480572"><ele>1028.0</ele><time>2026-05-01T07:10:54Z</time></trkpt><trkpt lat="47.3534373251353" lon="10.829204628810635"><ele>1028.0</ele><time>2026-05-01T07:10:55Z</time></trkpt><trkpt lat="47.353499447479706" lon="10.829402606857615"><ele>1025.5</ele><time>2026-05-01T07:10:56Z</time></trkpt><trkpt lat="47.35355970141434" lon="10.829597853755264"><ele>1023.0</ele><time>2026-05-01T07:10:57Z</time></trkpt><trkpt lat="47.353611262397756" lon="10.829795814649081"><ele>1020.5</ele><time>2026-05-01T07:10:58Z</time></trkpt><trkpt lat="47.353677081692474" lon="10.829986345571191"><ele>1018.0</ele><time>2026-05-01T07:10:59Z</time></trkpt><trkpt lat="47.353722807919674" lon="10.830187399321753"><ele>1015.75</ele><time>2026-05-01T07:11:00Z</time></trkpt><trkpt lat="47.353768018176225" lon="10.830389799718555"><ele>1013.5</ele><time>2026-05-01T07:11:01Z</time></trkpt><trkpt lat="47.3538135092198" lon="10.8305925379"><ele>1011.25</ele><time>2026-05-01T07:11:02Z</time></trkpt><trkpt lat="47.35385532887624" lon="10.830796754353816"><ele>1009.0</ele><time>2026-05-01T07:11:03Z</time></trkpt><trkpt lat="47.35389748174763" lon="10.83100219305236"><ele>1017.25</ele><time>2026-05-01T07:11:04Z</time></trkpt><trkpt lat="47.35393905412421" lon="10.831209868815744"><ele>1025.5</ele><time>2026-05-01T07:11:05Z</time></trkpt><trkpt lat="47.35398262438861" lon="10.83141047084371"><ele>1033.75</ele><time>2026-05-01T07:11:06Z</time></trkpt><trkpt lat="47.354026962124536" lon="10.831610537720573"><ele>1042.0</ele><time>2026-05-01T07:11:07Z</time></trkpt><trkpt lat="47.35407081153075" lon="10.831809233054882"><ele>1042.25</ele><time>2026-05-01T07:11:08Z</time></trkpt><trkpt lat="47.35411226799458" lon="10.832009286244881"><ele>1042.5</ele><time>2026-05-01T07:11:09Z</time></trkpt><trkpt lat="47.354152502895616" lon="10.832209381145121"><ele>1042.75</ele><time>2026-05-01T07:11:10Z</time></trkpt><trkpt lat="47.35419083344629" lon="10.83241302363462"><ele>1043.0</ele><time>2026-05-01T07:11:11Z</time></trkpt><trkpt lat="47.354225700528" lon="10.832619932273479"><ele>1040.75</ele><time>2026-05-01T07:11:12Z</time></trkpt><trkpt lat="47.35425724828819" lon="10.832828111173853"><ele>1038.5</ele><time>2026-05-01T07:11:13Z</time></trkpt><trkpt lat="47.354286635251334" lon="10.833036592040713"><ele>1036.25</ele><time>2026-05-01T07:11:14Z</time></trkpt><trkpt lat="47.35431233006559" lon="10.833246612112424"><ele>1034.0</ele><time>2026-05-01T07:11:15Z</time></trkpt><trkpt lat="47.35433293465982" lon="10.833457296083653"><ele>1032.75</ele><time>2026-05-01T07:11:16Z</time></trkpt><trkpt lat="47.35434605643127" lon="10.833667109785761"><ele>1031.5</ele><time>2026-05-01T07:11:17Z</time></trkpt><trkpt lat="47.35436211164985" lon="10.833877075524514"><ele>1030.25</ele><time>2026-05-01T07:11:18Z</time></trkpt><trkpt lat="47.354387785024166" lon="10.83408302201508"><ele>1029.0</ele><time>2026-05-01T07:11:19Z</time></trkpt><trkpt lat="47.35441943748709" lon="10.834288171720287"><ele>1027.5</ele><time>2026-05-01T07:11:20Z</time></trkpt><trkpt lat="47.35445053904333" lon="10.834497148122725"><ele>1026.0</ele><time>2026-05-01T07:11:21Z</time></trkpt><trkpt lat="47.35447879844639" lon="10.83470663994465"><ele>1024.5</ele><time>2026-05-01T07:11:22Z</time></trkpt><trkpt lat="47.35449972442731" lon="10.8349211160255"><ele>1023.0</ele><time>2026-05-01T07:11:23Z</time></trkpt><trkpt lat="47.35451229735907" lon="10.835135224343647"><ele>1023.0</ele><time>2026-05-01T07:11:24Z</time></trkpt><trkpt lat="47.354519399832675" lon="10.835349955755582"><ele>1023.0</ele><time>2026-05-01T07:11:25Z</time></trkpt><trkpt lat="47.35452166032861" lon="10.835560971703849"><ele>1023.0</ele><time>2026-05-01T07:11:26Z</time></trkpt><trkpt lat="47.35452337310555" lon="10.835774329845611"><ele>1023.0</ele><time>2026-05-01T07:11:27Z</time></trkpt><trkpt lat="47.35452377004675" lon="10.835983800195205"><ele>1023.0</ele><time>2026-05-01T07:11:28Z</time></trkpt><trkpt lat="47.35452267977353" lon="10.83619352082797"><ele>1023.0</ele><time>2026-05-01T07:11:29Z</time></trkpt><trkpt lat="47.3545198793836" lon="10.836402344827622"><ele>1023.0</ele><time>2026-05-01T07:11:30Z</time></trkpt><trkpt lat="47.35451592290329" lon="10.836610268066902"><ele>1023.0</ele><time>2026-05-01T07:11:31Z</time></trkpt><trkpt lat="47.35450781705901" lon="10.836815380632373"><ele>1026.75</ele><time>2026-05-01T07:11:32Z</time></trkpt><trkpt lat="47.35449478302683" lon="10.837005009360064"><ele>1030.5</ele><time>2026-05-01T07:11:33Z</time></trkpt><trkpt lat="47.354474867659654" lon="10.837201835120434"><ele>1034.25</ele><time>2026-05-01T07:11:34Z</time></trkpt><trkpt lat="47.35444763783379" lon="10.837402446453156"><ele>1038.0</ele><time>2026-05-01T07:11:35Z</time></trkpt><trkpt lat="47.354414761612624" lon="10.837595905374544"><ele>1043.5</ele><time>2026-05-01T07:11:36Z</time></trkpt><trkpt lat="47.35437493026679" lon="10.837782477378086"><ele>1049.0</ele><time>2026-05-01T07:11:37Z</time></trkpt><trkpt lat="47.35431978875217" lon="10.837957479203505"><ele>1054.5</ele><time>2026-05-01T07:11:38Z</time></trkpt><trkpt lat="47.35425220818282" lon="10.838126943245127"><ele>1060.0</ele><time>2026-05-01T07:11:39Z</time></trkpt><trkpt lat="47.35417302091908" lon="10.838291005213174"><ele>1060.0</ele><time>2026-05-01T07:11:40Z</time></trkpt><trkpt lat="47.35409135646532" lon="10.838456081797416"><ele>1060.0</ele><time>2026-05-01T07:11:41Z</time></trkpt><trkpt lat="47.35401108920796" lon="10.83862391038128"><ele>1060.0</ele><time>2026-05-01T07:11:42Z</time></trkpt><trkpt lat="47.35392979090185" lon="10.838792160713073"><ele>1060.0</ele><time>2026-05-01T07:11:43Z</time></trkpt><trkpt lat="47.353849849568554" lon="10.838962006489421"><ele>1058.5</ele><time>2026-05-01T07:11:44Z</time></trkpt><trkpt lat="47.353771843674856" lon="10.839129237575628"><ele>1057.0</ele><time>2026-05-01T07:11:45Z</time></trkpt><trkpt lat="47.35369577004723" lon="10.83928995980618"><ele>1055.5</ele><time>2026-05-01T07:11:46Z</time></trkpt><trkpt lat="47.353622965766014" lon="10.839450685412462"><ele>1054.0</ele><time>2026-05-01T07:11:47Z</time></trkpt><trkpt lat="47.35355965080299" lon="10.839621914658775"><ele>1054.0</ele><time>2026-05-01T07:11:48Z</time></trkpt><trkpt lat="47.35350426854748" lon="10.839796288654261"><ele>1054.0</ele><time>2026-05-01T07:11:49Z</time></trkpt><trkpt lat="47.353452087960754" lon="10.839972406241664"><ele>1054.0</ele><time>2026-05-01T07:11:50Z</time></trkpt><trkpt lat="47.35340489803486" lon="10.840151100827192"><ele>1054.0</ele><time>2026-05-01T07:11:51Z</time></trkpt><trkpt lat="47.353356338766105" lon="10.840328966358198"><ele>1059.4</ele><time>2026-05-01T07:11:52Z</time></trkpt><trkpt lat="47.35330890000889" lon="10.840499629058682"><ele>1064.8000000000002</ele><time>2026-05-01T07:11:53Z</time></trkpt><trkpt lat="47.35326625796185" lon="10.8406519274546"><ele>1070.1999999999998</ele><time>2026-05-01T07:11:54Z</time></trkpt><trkpt lat="47.35322901124397" lon="10.840778440680852"><ele>1075.6</ele><time>2026-05-01T07:11:55Z</time></trkpt><trkpt lat="47.353199289191714" lon="10.84088676898062"><ele>1081.0</ele><time>2026-05-01T07:11:56Z</time></trkpt><trkpt lat="47.35317248799836" lon="10.84098805602466"><ele>1081.8333333333333</ele><time>2026-05-01T07:11:57Z</time></trkpt><trkpt lat="47.35313776048954" lon="10.841083419087886"><ele>1082.6666666666665</ele><time>2026-05-01T07:11:58Z</time></trkpt><trkpt lat="47.353093177685466" lon="10.841169888320799"><ele>1083.5</ele><time>2026-05-01T07:11:59Z</time></trkpt><trkpt lat="47.3530352117085" lon="10.841239995416236"><ele>1084.3333333333333</ele><time>2026-05-01T07:12:00Z</time></trkpt><trkpt lat="47.35296699352263" lon="10.841292695459705"><ele>1085.1666666666667</ele><time>2026-05-01T07:12:01Z</time></trkpt><trkpt lat="47.35288800856918" lon="10.841329427330608"><ele>1086.0</ele><time>2026-05-01T07:12:02Z</time></trkpt><trkpt lat="47.352797372386675" lon="10.841345690514354"><ele>1086.0</ele><time>2026-05-01T07:12:03Z</time></trkpt><trkpt lat="47.352703441518" lon="10.841342229252529"><ele>1086.0</ele><time>2026-05-01T07:12:04Z</time></trkpt><trkpt lat="47.35260985250696" lon="10.841323553129552"><ele>1086.0</ele><time>2026-05-01T07:12:05Z</time></trkpt><trkpt lat="47.352522078188386" lon="10.84129931666682"><ele>1086.0</ele><time>2026-05-01T07:12:06Z</time></trkpt><trkpt lat="47.35244025078952" lon="10.841282271619665"><ele>1086.0</ele><time>2026-05-01T07:12:07Z</time></trkpt><trkpt lat="47.35236774387109" lon="10.841277377615297"><ele>1086.0</ele><time>2026-05-01T07:12:08Z</time></trkpt><trkpt lat="47.35230510092712" lon="10.84129929115047"><ele>1086.0</ele><time>2026-05-01T07:12:09Z</time></trkpt><trkpt lat="47.35222461711402" lon="10.84142393220908"><ele>1086.0</ele><time>2026-05-01T07:12:11Z</time></trkpt><trkpt lat="47.352242676581675" lon="10.841602183667302"><ele>1086.0</ele><time>2026-05-01T07:12:13Z</time></trkpt><trkpt lat="47.35228471984541" lon="10.841694100162886"><ele>1086.0</ele><time>2026-05-01T07:12:14Z</time></trkpt><trkpt lat="47.352351088002436" lon="10.84175852863007"><ele>1086.0</ele><time>2026-05-01T07:12:15Z</time></trkpt><trkpt lat="47.35244884543799" lon="10.841759229294553"><ele>1086.0</ele><time>2026-05-01T07:12:16Z</time></trkpt><trkpt lat="47.35254168871741" lon="10.841738796936673"><ele>1086.0</ele><time>2026-05-01T07:12:17Z</time></trkpt><trkpt lat="47.35263264393418" lon="10.84172601526634"><ele>1086.0</ele><time>2026-05-01T07:12:18Z</time></trkpt><trkpt lat="47.35273354788317" lon="10.841717494021015"><ele>1086.0</ele><time>2026-05-01T07:12:19Z</time></trkpt><trkpt lat="47.35283697552491" lon="10.84171158215398"><ele>1086.0</ele><time>2026-05-01T07:12:20Z</time></trkpt><trkpt lat="47.35294854879743" lon="10.841705736458048"><ele>1090.75</ele><time>2026-05-01T07:12:21Z</time></trkpt><trkpt lat="47.35306416297436" lon="10.841671726107714"><ele>1095.5</ele><time>2026-05-01T07:12:22Z</time></trkpt><trkpt lat="47.353176607313166" lon="10.841591814998939"><ele>1100.25</ele><time>2026-05-01T07:12:23Z</time></trkpt><trkpt lat="47.353276020244465" lon="10.841450486222667"><ele>1105.0</ele><time>2026-05-01T07:12:24Z</time></trkpt><trkpt lat="47.35334583518924" lon="10.84128574192008"><ele>1105.0</ele><time>2026-05-01T07:12:25Z</time></trkpt><trkpt lat="47.35340680908803" lon="10.841135151241176"><ele>1105.0</ele><time>2026-05-01T07:12:26Z</time></trkpt><trkpt lat="47.35347205378" lon="10.840974105225179"><ele>1105.0</ele><time>2026-05-01T07:12:27Z</time></trkpt><trkpt lat="47.35353444882843" lon="10.840820093124885"><ele>1105.0</ele><time>2026-05-01T07:12:28Z</time></trkpt><trkpt lat="47.35359842584905" lon="10.840661853421786"><ele>1099.0</ele><time>2026-05-01T07:12:29Z</time></trkpt><trkpt lat="47.35366442098182" lon="10.840497880671018"><ele>1093.0</ele><time>2026-05-01T07:12:30Z</time></trkpt><trkpt lat="47.353728638347434" lon="10.840338694537653"><ele>1087.0</ele><time>2026-05-01T07:12:31Z</time></trkpt><trkpt lat="47.353792796303615" lon="10.840185531892823"><ele>1081.0</ele><time>2026-05-01T07:12:32Z</time></trkpt><trkpt lat="47.3538586826466" lon="10.840030813539205"><ele>1089.75</ele><time>2026-05-01T07:12:33Z</time></trkpt><trkpt lat="47.35393013427987" lon="10.83987513482627"><ele>1098.5</ele><time>2026-05-01T07:12:34Z</time></trkpt><trkpt lat="47.35401202380589" lon="10.839742839490736"><ele>1107.25</ele><time>2026-05-01T07:12:35Z</time></trkpt><trkpt lat="47.35410557479603" lon="10.839596600998927"><ele>1116.0</ele><time>2026-05-01T07:12:36Z</time></trkpt><trkpt lat="47.35420171813353" lon="10.839450427013968"><ele>1108.75</ele><time>2026-05-01T07:12:37Z</time></trkpt><trkpt lat="47.354300435455855" lon="10.839299811383988"><ele>1101.5</ele><time>2026-05-01T07:12:38Z</time></trkpt><trkpt lat="47.35439967863771" lon="10.839147174286902"><ele>1094.25</ele><time>2026-05-01T07:12:39Z</time></trkpt><trkpt lat="47.35449999061024" lon="10.838992893699855"><ele>1087.0</ele><time>2026-05-01T07:12:40Z</time></trkpt><trkpt lat="47.354597499512536" lon="10.838834922946097"><ele>1087.0</ele><time>2026-05-01T07:12:41Z</time></trkpt><trkpt lat="47.35468924410517" lon="10.838667305688826"><ele>1087.0</ele><time>2026-05-01T07:12:42Z</time></trkpt><trkpt lat="47.35476769802992" lon="10.838499948528744"><ele>1087.0</ele><time>2026-05-01T07:12:43Z</time></trkpt><trkpt lat="47.35484060824673" lon="10.838332067862456"><ele>1087.0</ele><time>2026-05-01T07:12:44Z</time></trkpt><trkpt lat="47.35490398276405" lon="10.838158390269088"><ele>1091.75</ele><time>2026-05-01T07:12:45Z</time></trkpt><trkpt lat="47.35496127349939" lon="10.837982480004358"><ele>1096.5</ele><time>2026-05-01T07:12:46Z</time></trkpt><trkpt lat="47.35501028797131" lon="10.837806227393859"><ele>1101.25</ele><time>2026-05-01T07:12:47Z</time></trkpt><trkpt lat="47.3550495257235" lon="10.837623466817861"><ele>1106.0</ele><time>2026-05-01T07:12:48Z</time></trkpt><trkpt lat="47.35508197998612" lon="10.837441105510202"><ele>1106.0</ele><time>2026-05-01T07:12:49Z</time></trkpt><trkpt lat="47.3551114810065" lon="10.837252675992282"><ele>1106.0</ele><time>2026-05-01T07:12:50Z</time></trkpt><trkpt lat="47.35514108122139" lon="10.83706296453116"><ele>1106.0</ele><time>2026-05-01T07:12:51Z</time></trkpt><trkpt lat="47.35517286329024" lon="10.836869996117851"><ele>1106.0</ele><time>2026-05-01T07:12:52Z</time></trkpt><trkpt lat="47.35520196751417" lon="10.836667020265905"><ele>1103.0</ele><time>2026-05-01T07:12:53Z</time></trkpt><trkpt lat="47.355228873530486" lon="10.83646267177788"><ele>1100.0</ele><time>2026-05-01T07:12:54Z</time></trkpt><trkpt lat="47.35525135544506" lon="10.836253145868003"><ele>1097.0</ele><time>2026-05-01T07:12:55Z</time></trkpt><trkpt lat="47.35527058688406" lon="10.836041891116771"><ele>1094.0</ele><time>2026-05-01T07:12:56Z</time></trkpt><trkpt lat="47.35528997747138" lon="10.835828888723935"><ele>1094.0</ele><time>2026-05-01T07:12:57Z</time></trkpt><trkpt lat="47.35530937976649" lon="10.835615757559156"><ele>1094.0</ele><time>2026-05-01T07:12:58Z</time></trkpt><trkpt lat="47.35532892027584" lon="10.835401108024831"><ele>1094.0</ele><time>2026-05-01T07:12:59Z</time></trkpt><trkpt lat="47.35534882705121" lon="10.835182435051358"><ele>1094.0</ele><time>2026-05-01T07:13:00Z</time></trkpt><trkpt lat="47.35536895406306" lon="10.834961363745549"><ele>1094.0</ele><time>2026-05-01T07:13:01Z</time></trkpt><trkpt lat="47.35538896199322" lon="10.8347385373244"><ele>1094.0</ele><time>2026-05-01T07:13:02Z</time></trkpt><trkpt lat="47.35540818219152" lon="10.834512967462775"><ele>1094.0</ele><time>2026-05-01T07:13:03Z</time></trkpt><trkpt lat="47.355422452898374" lon="10.834284359160074"><ele>1094.3333333333335</ele><time>2026-05-01T07:13:04Z</time></trkpt><trkpt lat="47.35542813626113" lon="10.834054238735204"><ele>1094.6666666666667</ele><time>2026-05-01T07:13:05Z</time></trkpt><trkpt lat="47.35543156713337" lon="10.83382418205816"><ele>1095.0</ele><time>2026-05-01T07:13:06Z</time></trkpt><trkpt lat="47.355436340004815" lon="10.833593635039684"><ele>1095.0</ele><time>2026-05-01T07:13:07Z</time></trkpt><trkpt lat="47.35545395950749" lon="10.833370428255094"><ele>1095.0</ele><time>2026-05-01T07:13:08Z</time></trkpt><trkpt lat="47.355483880792306" lon="10.833151194141442"><ele>1095.0</ele><time>2026-05-01T07:13:09Z</time></trkpt><trkpt lat="47.35551800168083" lon="10.832929319156943"><ele>1114.3333333333333</ele><time>2026-05-01T07:13:10Z</time></trkpt><trkpt lat="47.35555248693722" lon="10.832709298295274"><ele>1133.6666666666665</ele><time>2026-05-01T07:13:11Z</time></trkpt><trkpt lat="47.3555836498551" lon="10.832487917354916"><ele>1153.0</ele><time>2026-05-01T07:13:12Z</time></trkpt><trkpt lat="47.35559831358447" lon="10.8322549582852"><ele>1153.0</ele><time>2026-05-01T07:13:13Z</time></trkpt><trkpt lat="47.35560362299698" lon="10.83202652033249"><ele>1153.0</ele><time>2026-05-01T07:13:14Z</time></trkpt><trkpt lat="47.35559668159257" lon="10.831797846846538"><ele>1153.0</ele><time>2026-05-01T07:13:15Z</time></trkpt><trkpt lat="47.35558823072096" lon="10.831570789906797"><ele>1153.0</ele><time>2026-05-01T07:13:16Z</time></trkpt><trkpt lat="47.35557971113375" lon="10.831344062072265"><ele>1153.0</ele><time>2026-05-01T07:13:17Z</time></trkpt><trkpt lat="47.35557199434187" lon="10.83111748140436"><ele>1153.0</ele><time>2026-05-01T07:13:18Z</time></trkpt><trkpt lat="47.35556456291034" lon="10.830889511656514"><ele>1153.0</ele><time>2026-05-01T07:13:19Z</time></trkpt><trkpt lat="47.35555601831732" lon="10.830662482833375"><ele>1153.0</ele><time>2026-05-01T07:13:20Z</time></trkpt><trkpt lat="47.35554737234121" lon="10.830437192405286"><ele>1153.0</ele><time>2026-05-01T07:13:21Z</time></trkpt><trkpt lat="47.355539291504726" lon="10.830215856889806"><ele>1153.0</ele><time>2026-05-01T07:13:22Z</time></trkpt><trkpt lat="47.35553453716201" lon="10.830020813423669"><ele>1153.0</ele><time>2026-05-01T07:13:23Z</time></trkpt><trkpt lat="47.35554111131742" lon="10.829850791285917"><ele>1153.0</ele><time>2026-05-01T07:13:24Z</time></trkpt><trkpt lat="47.35556524206274" lon="10.829695602228316"><ele>1153.0</ele><time>2026-05-01T07:13:25Z</time></trkpt><trkpt lat="47.355622775301896" lon="10.8295668333685"><ele>1153.0</ele><time>2026-05-01T07:13:26Z</time></trkpt><trkpt lat="47.355694950548994" lon="10.829425948430456"><ele>1153.0</ele><time>2026-05-01T07:13:27Z</time></trkpt><trkpt lat="47.35577304442541" lon="10.829272933135178"><ele>1153.0</ele><time>2026-05-01T07:13:28Z</time></trkpt><trkpt lat="47.35584401198822" lon="10.829112458036903"><ele>1153.0</ele><time>2026-05-01T07:13:29Z</time></trkpt><trkpt lat="47.35590515370066" lon="10.828957780911548"><ele>1150.6</ele><time>2026-05-01T07:13:30Z</time></trkpt><trkpt lat="47.355960272993784" lon="10.828803449096556"><ele>1148.1999999999998</ele><time>2026-05-01T07:13:31Z</time></trkpt><trkpt lat="47.35601145441502" lon="10.828656093565481"><ele>1145.8</ele><time>2026-05-01T07:13:32Z</time></trkpt><trkpt lat="47.35605540291415" lon="10.828510667144112"><ele>1143.3999999999999</ele><time>2026-05-01T07:13:33Z</time></trkpt><trkpt lat="47.35609298464815" lon="10.828366286908155"><ele>1141.0</ele><time>2026-05-01T07:13:34Z</time></trkpt><trkpt lat="47.356129261957385" lon="10.82822360400638"><ele>1138.6</ele><time>2026-05-01T07:13:35Z</time></trkpt><trkpt lat="47.35616491681942" lon="10.828077743252365"><ele>1136.1999999999998</ele><time>2026-05-01T07:13:36Z</time></trkpt><trkpt lat="47.35620196016382" lon="10.827926202322944"><ele>1133.8000000000002</ele><time>2026-05-01T07:13:37Z</time></trkpt><trkpt lat="47.35623895794249" lon="10.827767042067403"><ele>1131.4</ele><time>2026-05-01T07:13:38Z</time></trkpt><trkpt lat="47.356274281231315" lon="10.82760237563288"><ele>1129.0</ele><time>2026-05-01T07:13:39Z</time></trkpt><trkpt lat="47.35630222333905" lon="10.827425719126877"><ele>1128.75</ele><time>2026-05-01T07:13:40Z</time></trkpt><trkpt lat="47.35632141268078" lon="10.827249714672494"><ele>1128.5</ele><time>2026-05-01T07:13:41Z</time></trkpt><trkpt lat="47.3563288439255" lon="10.827065125669035"><ele>1128.25</ele><time>2026-05-01T07:13:42Z</time></trkpt><trkpt lat="47.356326492461484" lon="10.826881503262824"><ele>1128.0</ele><time>2026-05-01T07:13:43Z</time></trkpt><trkpt lat="47.356311851692055" lon="10.826704534502944"><ele>1129.75</ele><time>2026-05-01T07:13:44Z</time></trkpt><trkpt lat="47.35628706162798" lon="10.826530983144298"><ele>1131.5</ele><time>2026-05-01T07:13:45Z</time></trkpt><trkpt lat="47.356262407775624" lon="10.82636527169259"><ele>1133.25</ele><time>2026-05-01T07:13:46Z</time></trkpt><trkpt lat="47.35624314334802" lon="10.826205085534788"><ele>1135.0</ele><time>2026-05-01T07:13:47Z</time></trkpt><trkpt lat="47.356241437117816" lon="10.826043992550796"><ele>1134.8</ele><time>2026-05-01T07:13:48Z</time></trkpt><trkpt lat="47.35627386802798" lon="10.825898433164722"><ele>1134.6</ele><time>2026-05-01T07:13:49Z</time></trkpt><trkpt lat="47.35634099901211" lon="10.825796462864933"><ele>1134.4</ele><time>2026-05-01T07:13:50Z</time></trkpt><trkpt lat="47.35641593639385" lon="10.825704548245424"><ele>1134.2</ele><time>2026-05-01T07:13:51Z</time></trkpt><trkpt lat="47.35650559126482" lon="10.825619212881433"><ele>1134.0</ele><time>2026-05-01T07:13:52Z</time></trkpt><trkpt lat="47.356607316106306" lon="10.82552341067557"><ele>1136.75</ele><time>2026-05-01T07:13:53Z</time></trkpt><trkpt lat="47.35671451778578" lon="10.825425231217372"><ele>1139.5</ele><time>2026-05-01T07:13:54Z</time></trkpt><trkpt lat="47.3568275393369" lon="10.825323303817823"><ele>1142.25</ele><time>2026-05-01T07:13:55Z</time></trkpt><trkpt lat="47.35694451700283" lon="10.825218278719932"><ele>1145.0</ele><time>2026-05-01T07:13:56Z</time></trkpt><trkpt lat="47.35705076654632" lon="10.825120753406113"><ele>1145.0</ele><time>2026-05-01T07:13:57Z</time></trkpt><trkpt lat="47.35715961373291" lon="10.825020875443949"><ele>1145.0</ele><time>2026-05-01T07:13:58Z</time></trkpt><trkpt lat="47.357269302357835" lon="10.824932118999092"><ele>1145.0</ele><time>2026-05-01T07:13:59Z</time></trkpt><trkpt lat="47.357380224792436" lon="10.82485054861307"><ele>1145.0</ele><time>2026-05-01T07:14:00Z</time></trkpt><trkpt lat="47.35749060484813" lon="10.824775370433386"><ele>1150.0</ele><time>2026-05-01T07:14:01Z</time></trkpt><trkpt lat="47.35760440817758" lon="10.824698575747323"><ele>1155.0</ele><time>2026-05-01T07:14:02Z</time></trkpt><trkpt lat="47.35771885383804" lon="10.824614954713716"><ele>1160.0</ele><time>2026-05-01T07:14:03Z</time></trkpt><trkpt lat="47.35783161427328" lon="10.824524853456762"><ele>1165.0</ele><time>2026-05-01T07:14:04Z</time></trkpt><trkpt lat="47.35793739674742" lon="10.824425191022566"><ele>1167.0</ele><time>2026-05-01T07:14:05Z</time></trkpt><trkpt lat="47.357993598492605" lon="10.82422919501256"><ele>1169.0</ele><time>2026-05-01T07:14:06Z</time></trkpt><trkpt lat="47.358073673644846" lon="10.824108066258082"><ele>1171.0</ele><time>2026-05-01T07:14:07Z</time></trkpt><trkpt lat="47.35814200692644" lon="10.823996007639794"><ele>1173.0</ele><time>2026-05-01T07:14:08Z</time></trkpt><trkpt lat="47.35820921415197" lon="10.823881577468795"><ele>1173.0</ele><time>2026-05-01T07:14:09Z</time></trkpt><trkpt lat="47.35827435508823" lon="10.823769869490036"><ele>1173.0</ele><time>2026-05-01T07:14:10Z</time></trkpt><trkpt lat="47.358333755802995" lon="10.823665777745397"><ele>1173.0</ele><time>2026-05-01T07:14:11Z</time></trkpt><trkpt lat="47.35838436779535" lon="10.823578265561444"><ele>1173.0</ele><time>2026-05-01T07:14:12Z</time></trkpt><trkpt lat="47.35843242178227" lon="10.823498994667215"><ele>1173.0</ele><time>2026-05-01T07:14:13Z</time></trkpt><trkpt lat="47.35849120694151" lon="10.823426152160971"><ele>1173.0</ele><time>2026-05-01T07:14:14Z</time></trkpt><trkpt lat="47.358562531534695" lon="10.823380094260575"><ele>1173.0</ele><time>2026-05-01T07:14:15Z</time></trkpt><trkpt lat="47.358644597918946" lon="10.823429071794278"><ele>1173.0</ele><time>2026-05-01T07:14:16Z</time></trkpt><trkpt lat="47.35871184314663" lon="10.82344635115841"><ele>1173.0</ele><time>2026-05-01T07:14:17Z</time></trkpt><trkpt lat="47.35877463366279" lon="10.823492965935682"><ele>1173.0</ele><time>2026-05-01T07:14:18Z</time></trkpt><trkpt lat="47.358812953222355" lon="10.82359262194146"><ele>1173.0</ele><time>2026-05-01T07:14:19Z</time></trkpt><trkpt lat="47.35883819338796" lon="10.823702804124727"><ele>1173.0</ele><time>2026-05-01T07:14:20Z</time></trkpt><trkpt lat="47.35886298905879" lon="10.823811589231337"><ele>1173.1666666666667</ele><time>2026-05-01T07:14:21Z</time></trkpt><trkpt lat="47.358890736384495" lon="10.8239194194546"><ele>1173.3333333333333</ele><time>2026-05-01T07:14:22Z</time></trkpt><trkpt lat="47.358923604827844" lon="10.82402566814339"><ele>1173.5</ele><time>2026-05-01T07:14:23Z</time></trkpt><trkpt lat="47.35896011888358" lon="10.824124141295796"><ele>1173.6666666666665</ele><time>2026-05-01T07:14:24Z</time></trkpt><trkpt lat="47.35900395668278" lon="10.824213542814055"><ele>1173.8333333333333</ele><time>2026-05-01T07:14:25Z</time></trkpt><trkpt lat="47.35905377371607" lon="10.82429344411701"><ele>1174.0</ele><time>2026-05-01T07:14:26Z</time></trkpt><trkpt lat="47.35910972780075" lon="10.824365032776708"><ele>1175.5</ele><time>2026-05-01T07:14:27Z</time></trkpt><trkpt lat="47.35916786691082" lon="10.824430427300609"><ele>1177.0</ele><time>2026-05-01T07:14:28Z</time></trkpt><trkpt lat="47.35922449572097" lon="10.824498199177675"><ele>1178.5</ele><time>2026-05-01T07:14:29Z</time></trkpt><trkpt lat="47.3592766043992" lon="10.824574906741661"><ele>1180.0</ele><time>2026-05-01T07:14:30Z</time></trkpt><trkpt lat="47.359321272128945" lon="10.824670469214213"><ele>1181.5</ele><time>2026-05-01T07:14:31Z</time></trkpt><trkpt lat="47.35935880734966" lon="10.824788676478791"><ele>1183.0</ele><time>2026-05-01T07:14:32Z</time></trkpt><trkpt lat="47.35939148442454" lon="10.824923685854756"><ele>1183.0</ele><time>2026-05-01T07:14:33Z</time></trkpt><trkpt lat="47.35942278500347" lon="10.825064518210816"><ele>1183.0</ele><time>2026-05-01T07:14:34Z</time></trkpt><trkpt lat="47.35945538334724" lon="10.82520561369473"><ele>1183.0</ele><time>2026-05-01T07:14:35Z</time></trkpt><trkpt lat="47.359485774853" lon="10.825338734414998"><ele>1183.0</ele><time>2026-05-01T07:14:36Z</time></trkpt><trkpt lat="47.35950691404777" lon="10.825469139905728"><ele>1183.0</ele><time>2026-05-01T07:14:37Z</time></trkpt><trkpt lat="47.35950848141996" lon="10.82560382741936"><ele>1183.8</ele><time>2026-05-01T07:14:38Z</time></trkpt><trkpt lat="47.3594929388243" lon="10.825741938462288"><ele>1184.6</ele><time>2026-05-01T07:14:39Z</time></trkpt><trkpt lat="47.35946967644547" lon="10.825890278595278"><ele>1185.4</ele><time>2026-05-01T07:14:40Z</time></trkpt><trkpt lat="47.35945383940374" lon="10.826048157536599"><ele>1186.2</ele><time>2026-05-01T07:14:41Z</time></trkpt><trkpt lat="47.359456112975586" lon="10.826208379177158"><ele>1187.0</ele><time>2026-05-01T07:14:42Z</time></trkpt><trkpt lat="47.35947713726473" lon="10.826363918324834"><ele>1188.6</ele><time>2026-05-01T07:14:43Z</time></trkpt><trkpt lat="47.359507492916734" lon="10.826509904793323"><ele>1190.2</ele><time>2026-05-01T07:14:44Z</time></trkpt><trkpt lat="47.35953777933352" lon="10.826649822106662"><ele>1191.8</ele><time>2026-05-01T07:14:45Z</time></trkpt><trkpt lat="47.359565133104226" lon="10.826790262830475"><ele>1193.4</ele><time>2026-05-01T07:14:46Z</time></trkpt><trkpt lat="47.35959095444896" lon="10.826930166535416"><ele>1195.0</ele><time>2026-05-01T07:14:47Z</time></trkpt><trkpt lat="47.359614468832504" lon="10.827071388233971"><ele>1196.0</ele><time>2026-05-01T07:14:48Z</time></trkpt><trkpt lat="47.35963126553696" lon="10.827212889528075"><ele>1197.0</ele><time>2026-05-01T07:14:49Z</time></trkpt><trkpt lat="47.359639547193645" lon="10.82735384287623"><ele>1198.0</ele><time>2026-05-01T07:14:50Z</time></trkpt><trkpt lat="47.359645471465676" lon="10.827495056553337"><ele>1199.0</ele><time>2026-05-01T07:14:51Z</time></trkpt><trkpt lat="47.35965222713983" lon="10.827634799628234"><ele>1200.0</ele><time>2026-05-01T07:14:52Z</time></trkpt><trkpt lat="47.35965956840152" lon="10.827774696154755"><ele>1199.5</ele><time>2026-05-01T07:14:53Z</time></trkpt><trkpt lat="47.359667323353484" lon="10.827907017809247"><ele>1199.0</ele><time>2026-05-01T07:14:54Z</time></trkpt><trkpt lat="47.35967355779089" lon="10.828035621913774"><ele>1198.5</ele><time>2026-05-01T07:14:55Z</time></trkpt><trkpt lat="47.35968153773442" lon="10.828162180674882"><ele>1198.0</ele><time>2026-05-01T07:14:56Z</time></trkpt><trkpt lat="47.35968870688071" lon="10.828290510346566"><ele>1197.5</ele><time>2026-05-01T07:14:57Z</time></trkpt><trkpt lat="47.35969532767993" lon="10.828421620416322"><ele>1197.0</ele><time>2026-05-01T07:14:58Z</time></trkpt><trkpt lat="47.3597009127731" lon="10.828553217433138"><ele>1197.0</ele><time>2026-05-01T07:14:59Z</time></trkpt><trkpt lat="47.35970745721716" lon="10.828686715592871"><ele>1197.0</ele><time>2026-05-01T07:15:00Z</time></trkpt><trkpt lat="47.35971637971162" lon="10.82882008118706"><ele>1197.0</ele><time>2026-05-01T07:15:01Z</time></trkpt><trkpt lat="47.35973196193152" lon="10.828952950775635"><ele>1197.0</ele><time>2026-05-01T07:15:02Z</time></trkpt><trkpt lat="47.35976311780168" lon="10.829081363781647"><ele>1197.0</ele><time>2026-05-01T07:15:03Z</time></trkpt><trkpt lat="47.35981164812975" lon="10.829202341131067"><ele>1199.0</ele><time>2026-05-01T07:15:04Z</time></trkpt><trkpt lat="47.359877324796635" lon="10.829311512246884"><ele>1201.0</ele><time>2026-05-01T07:15:05Z</time></trkpt><trkpt lat="47.359942594320415" lon="10.829432447278526"><ele>1203.0</ele><time>2026-05-01T07:15:06Z</time></trkpt><trkpt lat="47.360035174771255" lon="10.829524318001218"><ele>1205.0</ele><time>2026-05-01T07:15:07Z</time></trkpt><trkpt lat="47.36013231278141" lon="10.829603281466007"><ele>1207.0</ele><time>2026-05-01T07:15:08Z</time></trkpt><trkpt lat="47.3602280872868" lon="10.829674346091187"><ele>1207.0</ele><time>2026-05-01T07:15:09Z</time></trkpt><trkpt lat="47.36031248166583" lon="10.82974334113728"><ele>1207.0</ele><time>2026-05-01T07:15:10Z</time></trkpt><trkpt lat="47.36039237844212" lon="10.829805758542873"><ele>1207.0</ele><time>2026-05-01T07:15:11Z</time></trkpt><trkpt lat="47.360451680968374" lon="10.82991284023295"><ele>1207.0</ele><time>2026-05-01T07:15:12Z</time></trkpt><trkpt lat="47.36049980052538" lon="10.830029968076198"><ele>1207.0</ele><time>2026-05-01T07:15:13Z</time></trkpt><trkpt lat="47.360536231823914" lon="10.830150387838634"><ele>1208.4</ele><time>2026-05-01T07:15:14Z</time></trkpt><trkpt lat="47.36057162636554" lon="10.83027630273537"><ele>1209.8000000000002</ele><time>2026-05-01T07:15:15Z</time></trkpt><trkpt lat="47.36061345249992" lon="10.830411752973362"><ele>1211.2</ele><time>2026-05-01T07:15:16Z</time></trkpt><trkpt lat="47.36066386245622" lon="10.830548928334956"><ele>1212.6000000000001</ele><time>2026-05-01T07:15:17Z</time></trkpt><trkpt lat="47.36073067587427" lon="10.830666331694152"><ele>1214.0</ele><time>2026-05-01T07:15:18Z</time></trkpt><trkpt lat="47.36080898550455" lon="10.830767447111949"><ele>1214.0</ele><time>2026-05-01T07:15:19Z</time></trkpt><trkpt lat="47.36092397417658" lon="10.830826787708402"><ele>1214.0</ele><time>2026-05-01T07:15:20Z</time></trkpt><trkpt lat="47.36106445961965" lon="10.830826353680052"><ele>1214.0</ele><time>2026-05-01T07:15:21Z</time></trkpt><trkpt lat="47.36120445176243" lon="10.8308140778781"><ele>1214.0</ele><time>2026-05-01T07:15:22Z</time></trkpt><trkpt lat="47.361347169155074" lon="10.830798442884763"><ele>1213.75</ele><time>2026-05-01T07:15:23Z</time></trkpt><trkpt lat="47.36148451560651" lon="10.83076763204304"><ele>1213.5</ele><time>2026-05-01T07:15:24Z</time></trkpt><trkpt lat="47.36162732532459" lon="10.830719419857928"><ele>1213.25</ele><time>2026-05-01T07:15:25Z</time></trkpt><trkpt lat="47.361775727104046" lon="10.830657817365788"><ele>1213.0</ele><time>2026-05-01T07:15:26Z</time></trkpt><trkpt lat="47.3619048500211" lon="10.830596232685462"><ele>1213.0</ele><time>2026-05-01T07:15:27Z</time></trkpt><trkpt lat="47.36203167069929" lon="10.8305589957065"><ele>1213.0</ele><time>2026-05-01T07:15:28Z</time></trkpt><trkpt lat="47.36215298787059" lon="10.830578920842994"><ele>1213.0</ele><time>2026-05-01T07:15:29Z</time></trkpt><trkpt lat="47.36226480115079" lon="10.830645619434414"><ele>1213.0</ele><time>2026-05-01T07:15:30Z</time></trkpt><trkpt lat="47.36236484151579" lon="10.830748825452757"><ele>1212.75</ele><time>2026-05-01T07:15:31Z</time></trkpt><trkpt lat="47.362452589929426" lon="10.830885023399892"><ele>1212.5</ele><time>2026-05-01T07:15:32Z</time></trkpt><trkpt lat="47.362520908353446" lon="10.831039732695372"><ele>1212.25</ele><time>2026-05-01T07:15:33Z</time></trkpt><trkpt lat="47.36257857305876" lon="10.831180910031279"><ele>1212.0</ele><time>2026-05-01T07:15:34Z</time></trkpt><trkpt lat="47.36263488094493" lon="10.831321608463263"><ele>1212.0</ele><time>2026-05-01T07:15:35Z</time></trkpt><trkpt lat="47.36269192013552" lon="10.831463663542822"><ele>1212.0</ele><time>2026-05-01T07:15:36Z</time></trkpt><trkpt lat="47.36275099362598" lon="10.83160837878714"><ele>1212.0</ele><time>2026-05-01T07:15:37Z</time></trkpt><trkpt lat="47.362814971066086" lon="10.8317528793491"><ele>1212.0</ele><time>2026-05-01T07:15:38Z</time></trkpt><trkpt lat="47.36288239700432" lon="10.831897392453842"><ele>1212.0</ele><time>2026-05-01T07:15:39Z</time></trkpt><trkpt lat="47.3629500784472" lon="10.832046909796327"><ele>1212.0</ele><time>2026-05-01T07:15:40Z</time></trkpt><trkpt lat="47.363019661558475" lon="10.832201712536584"><ele>1212.0</ele><time>2026-05-01T07:15:41Z</time></trkpt><trkpt lat="47.363091063854334" lon="10.832362741577878"><ele>1212.0</ele><time>2026-05-01T07:15:42Z</time></trkpt><trkpt lat="47.36316540608225" lon="10.83252995070072"><ele>1211.75</ele><time>2026-05-01T07:15:43Z</time></trkpt><trkpt lat="47.36324031961326" lon="10.832703493858181"><ele>1211.5</ele><time>2026-05-01T07:15:44Z</time></trkpt><trkpt lat="47.363310964252605" lon="10.832879870821158"><ele>1211.25</ele><time>2026-05-01T07:15:45Z</time></trkpt><trkpt lat="47.363381215367504" lon="10.833075530554149"><ele>1211.0</ele><time>2026-05-01T07:15:46Z</time></trkpt><trkpt lat="47.36344951021662" lon="10.833289816564209"><ele>1209.6666666666667</ele><time>2026-05-01T07:15:47Z</time></trkpt><trkpt lat="47.36351388476467" lon="10.833518454065972"><ele>1208.3333333333333</ele><time>2026-05-01T07:15:48Z</time></trkpt><trkpt lat="47.36357741343487" lon="10.833757785798515"><ele>1207.0</ele><time>2026-05-01T07:15:49Z</time></trkpt><trkpt lat="47.363641498044174" lon="10.834007454729775"><ele>1207.0</ele><time>2026-05-01T07:15:50Z</time></trkpt><trkpt lat="47.363707430809455" lon="10.83426194109409"><ele>1207.0</ele><time>2026-05-01T07:15:51Z</time></trkpt><trkpt lat="47.363770676024885" lon="10.83450839195053"><ele>1207.0</ele><time>2026-05-01T07:15:52Z</time></trkpt><trkpt lat="47.36383458870162" lon="10.834761977940225"><ele>1213.3333333333333</ele><time>2026-05-01T07:15:53Z</time></trkpt><trkpt lat="47.363897616941706" lon="10.835017826788667"><ele>1219.6666666666667</ele><time>2026-05-01T07:15:54Z</time></trkpt><trkpt lat="47.36395707504151" lon="10.83527537029551"><ele>1226.0</ele><time>2026-05-01T07:15:55Z</time></trkpt><trkpt lat="47.36400425260167" lon="10.835536765735212"><ele>1226.0</ele><time>2026-05-01T07:15:56Z</time></trkpt><trkpt lat="47.36404004717599" lon="10.83580213820076"><ele>1226.0</ele><time>2026-05-01T07:15:57Z</time></trkpt><trkpt lat="47.364065961708846" lon="10.836068087793318"><ele>1226.0</ele><time>2026-05-01T07:15:58Z</time></trkpt><trkpt lat="47.36407909187486" lon="10.836317016593176"><ele>1225.3333333333335</ele><time>2026-05-01T07:15:59Z</time></trkpt><trkpt lat="47.36407657259859" lon="10.836563948885777"><ele>1224.6666666666667</ele><time>2026-05-01T07:16:00Z</time></trkpt><trkpt lat="47.36404960845247" lon="10.836815154510859"><ele>1224.0</ele><time>2026-05-01T07:16:01Z</time></trkpt><trkpt lat="47.364003865463005" lon="10.837070951562911"><ele>1224.6666666666667</ele><time>2026-05-01T07:16:02Z</time></trkpt><trkpt lat="47.363945097766" lon="10.837332020843178"><ele>1225.3333333333335</ele><time>2026-05-01T07:16:03Z</time></trkpt><trkpt lat="47.36388453294276" lon="10.837590907529751"><ele>1226.0</ele><time>2026-05-01T07:16:04Z</time></trkpt><trkpt lat="47.36381969265863" lon="10.837845516482806"><ele>1226.0</ele><time>2026-05-01T07:16:05Z</time></trkpt><trkpt lat="47.363755675089976" lon="10.838089263780011"><ele>1226.0</ele><time>2026-05-01T07:16:06Z</time></trkpt><trkpt lat="47.36369386877777" lon="10.838321851246672"><ele>1226.0</ele><time>2026-05-01T07:16:07Z</time></trkpt><trkpt lat="47.36363480167581" lon="10.83854620556103"><ele>1227.0</ele><time>2026-05-01T07:16:08Z</time></trkpt><trkpt lat="47.363574564826216" lon="10.83876623026227"><ele>1228.0</ele><time>2026-05-01T07:16:09Z</time></trkpt><trkpt lat="47.36351367967437" lon="10.838983547803656"><ele>1229.0</ele><time>2026-05-01T07:16:10Z</time></trkpt><trkpt lat="47.36345065534572" lon="10.839197053329077"><ele>1227.25</ele><time>2026-05-01T07:16:11Z</time></trkpt><trkpt lat="47.36338405248208" lon="10.839394707102446"><ele>1225.5</ele><time>2026-05-01T07:16:12Z</time></trkpt><trkpt lat="47.36330467816269" lon="10.839569046521863"><ele>1223.75</ele><time>2026-05-01T07:16:13Z</time></trkpt><trkpt lat="47.363205881489456" lon="10.839727350726216"><ele>1222.0</ele><time>2026-05-01T07:16:14Z</time></trkpt><trkpt lat="47.363094408025944" lon="10.839879439734094"><ele>1221.6666666666665</ele><time>2026-05-01T07:16:15Z</time></trkpt><trkpt lat="47.3629752589968" lon="10.840031785281342"><ele>1221.3333333333333</ele><time>2026-05-01T07:16:16Z</time></trkpt><trkpt lat="47.362857444587846" lon="10.84018041206239"><ele>1221.0</ele><time>2026-05-01T07:16:17Z</time></trkpt><trkpt lat="47.36274430041075" lon="10.840323178688582"><ele>1221.0</ele><time>2026-05-01T07:16:18Z</time></trkpt><trkpt lat="47.362637263054815" lon="10.840462303555833"><ele>1221.0</ele><time>2026-05-01T07:16:19Z</time></trkpt><trkpt lat="47.36252876375678" lon="10.840605605093671"><ele>1221.0</ele><time>2026-05-01T07:16:20Z</time></trkpt><trkpt lat="47.36242222957975" lon="10.840752257081041"><ele>1221.0</ele><time>2026-05-01T07:16:21Z</time></trkpt><trkpt lat="47.36231920778761" lon="10.840907697502795"><ele>1224.0</ele><time>2026-05-01T07:16:22Z</time></trkpt><trkpt lat="47.36221817076588" lon="10.8410699344374"><ele>1227.0</ele><time>2026-05-01T07:16:23Z</time></trkpt><trkpt lat="47.362115176255585" lon="10.84123734203763"><ele>1230.0</ele><time>2026-05-01T07:16:24Z</time></trkpt><trkpt lat="47.36200995485676" lon="10.84140746845617"><ele>1230.0</ele><time>2026-05-01T07:16:25Z</time></trkpt><trkpt lat="47.361903523224335" lon="10.841579138240029"><ele>1230.0</ele><time>2026-05-01T07:16:26Z</time></trkpt><trkpt lat="47.36179993844647" lon="10.84174786075229"><ele>1230.0</ele><time>2026-05-01T07:16:27Z</time></trkpt><trkpt lat="47.36170339215339" lon="10.841912228638403"><ele>1233.0</ele><time>2026-05-01T07:16:28Z</time></trkpt><trkpt lat="47.361610609626034" lon="10.84207712542915"><ele>1236.0</ele><time>2026-05-01T07:16:29Z</time></trkpt><trkpt lat="47.36151982445885" lon="10.84225011755915"><ele>1239.0</ele><time>2026-05-01T07:16:30Z</time></trkpt><trkpt lat="47.36143405341923" lon="10.84242786931978"><ele>1242.0</ele><time>2026-05-01T07:16:31Z</time></trkpt><trkpt lat="47.36136089208612" lon="10.842616353388117"><ele>1237.0</ele><time>2026-05-01T07:16:32Z</time></trkpt><trkpt lat="47.36129982087896" lon="10.842812522426174"><ele>1232.0</ele><time>2026-05-01T07:16:33Z</time></trkpt><trkpt lat="47.36125579650963" lon="10.84301857202042"><ele>1227.0</ele><time>2026-05-01T07:16:34Z</time></trkpt><trkpt lat="47.361228094283234" lon="10.843233865139613"><ele>1222.0</ele><time>2026-05-01T07:16:35Z</time></trkpt><trkpt lat="47.36121761511082" lon="10.843451335748137"><ele>1218.0</ele><time>2026-05-01T07:16:36Z</time></trkpt><trkpt lat="47.36121756919391" lon="10.843663945479692"><ele>1214.0</ele><time>2026-05-01T07:16:37Z</time></trkpt><trkpt lat="47.36121081312403" lon="10.84386878108625"><ele>1210.0</ele><time>2026-05-01T07:16:38Z</time></trkpt><trkpt lat="47.361188440981934" lon="10.844067459206995"><ele>1206.0</ele><time>2026-05-01T07:16:39Z</time></trkpt><trkpt lat="47.36114282008775" lon="10.844266435989011"><ele>1199.5</ele><time>2026-05-01T07:16:40Z</time></trkpt><trkpt lat="47.36107379914585" lon="10.84445110331778"><ele>1193.0</ele><time>2026-05-01T07:16:41Z</time></trkpt><trkpt lat="47.36097480302493" lon="10.844607061869274"><ele>1186.5</ele><time>2026-05-01T07:16:42Z</time></trkpt><trkpt lat="47.36084656379902" lon="10.844722504218053"><ele>1180.0</ele><time>2026-05-01T07:16:43Z</time></trkpt><trkpt lat="47.360709467000596" lon="10.844802203010769"><ele>1180.0</ele><time>2026-05-01T07:16:44Z</time></trkpt><trkpt lat="47.360566195181164" lon="10.844863977554082"><ele>1180.0</ele><time>2026-05-01T07:16:45Z</time></trkpt><trkpt lat="47.36042293945689" lon="10.844923037164598"><ele>1180.0</ele><time>2026-05-01T07:16:46Z</time></trkpt><trkpt lat="47.36028691527686" lon="10.844978848614344"><ele>1180.0</ele><time>2026-05-01T07:16:47Z</time></trkpt><trkpt lat="47.36015807246417" lon="10.845030158726862"><ele>1175.75</ele><time>2026-05-01T07:16:48Z</time></trkpt><trkpt lat="47.36003328819592" lon="10.845082465570618"><ele>1171.5</ele><time>2026-05-01T07:16:49Z</time></trkpt><trkpt lat="47.35991345299513" lon="10.845132720457617"><ele>1167.25</ele><time>2026-05-01T07:16:50Z</time></trkpt><trkpt lat="47.359796332591735" lon="10.845194080621125"><ele>1163.0</ele><time>2026-05-01T07:16:51Z</time></trkpt><trkpt lat="47.359684168551695" lon="10.845273422475767"><ele>1172.75</ele><time>2026-05-01T07:16:52Z</time></trkpt><trkpt lat="47.35957720789933" lon="10.845375357276486"><ele>1182.5</ele><time>2026-05-01T07:16:53Z</time></trkpt><trkpt lat="47.35947561815367" lon="10.845489715932846"><ele>1192.25</ele><time>2026-05-01T07:16:54Z</time></trkpt><trkpt lat="47.359375887247204" lon="10.845613022619967"><ele>1202.0</ele><time>2026-05-01T07:16:55Z</time></trkpt><trkpt lat="47.35928041492182" lon="10.845746183954411"><ele>1202.0</ele><time>2026-05-01T07:16:56Z</time></trkpt><trkpt lat="47.35918517988397" lon="10.845885853736752"><ele>1202.0</ele><time>2026-05-01T07:16:57Z</time></trkpt><trkpt lat="47.35909246205338" lon="10.846032466344903"><ele>1202.0</ele><time>2026-05-01T07:16:58Z</time></trkpt><trkpt lat="47.35899982832093" lon="10.84618267722225"><ele>1202.0</ele><time>2026-05-01T07:16:59Z</time></trkpt><trkpt lat="47.358905618798005" lon="10.846335938866916"><ele>1201.0</ele><time>2026-05-01T07:17:00Z</time></trkpt><trkpt lat="47.358812115074926" lon="10.846491074544993"><ele>1200.0</ele><time>2026-05-01T07:17:01Z</time></trkpt><trkpt lat="47.35872001869933" lon="10.84664757811053"><ele>1199.0</ele><time>2026-05-01T07:17:02Z</time></trkpt><trkpt lat="47.358631440409205" lon="10.846806931479808"><ele>1198.0</ele><time>2026-05-01T07:17:03Z</time></trkpt><trkpt lat="47.358545815282184" lon="10.846965835726273"><ele>1198.0</ele><time>2026-05-01T07:17:04Z</time></trkpt><trkpt lat="47.35846824568769" lon="10.847118203259216"><ele>1198.0</ele><time>2026-05-01T07:17:05Z</time></trkpt><trkpt lat="47.358397529992864" lon="10.84727005840041"><ele>1198.0</ele><time>2026-05-01T07:17:06Z</time></trkpt><trkpt lat="47.35833952659569" lon="10.847432952897696"><ele>1198.0</ele><time>2026-05-01T07:17:07Z</time></trkpt><trkpt lat="47.35830019696151" lon="10.847608875838741"><ele>1195.5</ele><time>2026-05-01T07:17:08Z</time></trkpt><trkpt lat="47.35828211116923" lon="10.847796689377141"><ele>1193.0</ele><time>2026-05-01T07:17:09Z</time></trkpt><trkpt lat="47.35827750820405" lon="10.84798438733316"><ele>1190.5</ele><time>2026-05-01T07:17:10Z</time></trkpt><trkpt lat="47.358275526243915" lon="10.848166932857646"><ele>1188.0</ele><time>2026-05-01T07:17:11Z</time></trkpt><trkpt lat="47.35827073679474" lon="10.84834964036468"><ele>1183.75</ele><time>2026-05-01T07:17:12Z</time></trkpt><trkpt lat="47.358263471529824" lon="10.848527693057658"><ele>1179.5</ele><time>2026-05-01T07:17:13Z</time></trkpt><trkpt lat="47.35824960239793" lon="10.848695216003884"><ele>1175.25</ele><time>2026-05-01T07:17:14Z</time></trkpt><trkpt lat="47.35822803877896" lon="10.848858879503371"><ele>1171.0</ele><time>2026-05-01T07:17:15Z</time></trkpt><trkpt lat="47.35819143754865" lon="10.849010526008492"><ele>1171.0</ele><time>2026-05-01T07:17:16Z</time></trkpt><trkpt lat="47.358136139138" lon="10.849153840647014"><ele>1171.0</ele><time>2026-05-01T07:17:17Z</time></trkpt><trkpt lat="47.358067611736004" lon="10.849297891225845"><ele>1171.0</ele><time>2026-05-01T07:17:18Z</time></trkpt><trkpt lat="47.35799138494849" lon="10.849443434967442"><ele>1171.0</ele><time>2026-05-01T07:17:19Z</time></trkpt><trkpt lat="47.35791174828228" lon="10.849588029437747"><ele>1169.5</ele><time>2026-05-01T07:17:20Z</time></trkpt><trkpt lat="47.35783197069469" lon="10.849736035406833"><ele>1168.0</ele><time>2026-05-01T07:17:21Z</time></trkpt><trkpt lat="47.357751715336576" lon="10.849890943236566"><ele>1166.5</ele><time>2026-05-01T07:17:22Z</time></trkpt><trkpt lat="47.35766896250653" lon="10.850044298142917"><ele>1165.0</ele><time>2026-05-01T07:17:23Z</time></trkpt><trkpt lat="47.35758439180405" lon="10.850196652872656"><ele>1165.0</ele><time>2026-05-01T07:17:24Z</time></trkpt><trkpt lat="47.35750122211579" lon="10.850345193685191"><ele>1165.0</ele><time>2026-05-01T07:17:25Z</time></trkpt><trkpt lat="47.35741858948742" lon="10.850494219695127"><ele>1165.0</ele><time>2026-05-01T07:17:26Z</time></trkpt><trkpt lat="47.35733699026218" lon="10.850642146813442"><ele>1165.0</ele><time>2026-05-01T07:17:27Z</time></trkpt><trkpt lat="47.35725416460007" lon="10.850789846780033"><ele>1167.25</ele><time>2026-05-01T07:17:28Z</time></trkpt><trkpt lat="47.357163510403396" lon="10.850935250360799"><ele>1169.5</ele><time>2026-05-01T07:17:29Z</time></trkpt><trkpt lat="47.3570660041041" lon="10.851078421855684"><ele>1171.75</ele><time>2026-05-01T07:17:30Z</time></trkpt><trkpt lat="47.356965657515005" lon="10.851222399195816"><ele>1174.0</ele><time>2026-05-01T07:17:31Z</time></trkpt><trkpt lat="47.35686437478479" lon="10.851370020285406"><ele>1174.0</ele><time>2026-05-01T07:17:32Z</time></trkpt><trkpt lat="47.35676097272239" lon="10.851520722472488"><ele>1174.0</ele><time>2026-05-01T07:17:33Z</time></trkpt><trkpt lat="47.35665665790861" lon="10.851676056916753"><ele>1174.0</ele><time>2026-05-01T07:17:34Z</time></trkpt><trkpt lat="47.35655536799679" lon="10.851834335384353"><ele>1174.0</ele><time>2026-05-01T07:17:35Z</time></trkpt><trkpt lat="47.356462371621525" lon="10.852003242740425"><ele>1175.75</ele><time>2026-05-01T07:17:36Z</time></trkpt><trkpt lat="47.35638143143454" lon="10.852185160567737"><ele>1177.5</ele><time>2026-05-01T07:17:37Z</time></trkpt><trkpt lat="47.356304810054446" lon="10.852372527207434"><ele>1179.25</ele><time>2026-05-01T07:17:38Z</time></trkpt><trkpt lat="47.356233294504236" lon="10.852549175247278"><ele>1181.0</ele><time>2026-05-01T07:17:39Z</time></trkpt><trkpt lat="47.35616534048679" lon="10.852720531611267"><ele>1176.5</ele><time>2026-05-01T07:17:40Z</time></trkpt><trkpt lat="47.35610078797795" lon="10.852893485213537"><ele>1172.0</ele><time>2026-05-01T07:17:41Z</time></trkpt><trkpt lat="47.356049838920974" lon="10.853076207021058"><ele>1167.5</ele><time>2026-05-01T07:17:42Z</time></trkpt><trkpt lat="47.3560123462609" lon="10.853267524412916"><ele>1163.0</ele><time>2026-05-01T07:17:43Z</time></trkpt><trkpt lat="47.35600924852642" lon="10.853475232592562"><ele>1161.5</ele><time>2026-05-01T07:17:44Z</time></trkpt><trkpt lat="47.356018289442936" lon="10.853689420065312"><ele>1160.0</ele><time>2026-05-01T07:17:45Z</time></trkpt><trkpt lat="47.356031194515566" lon="10.853903545356076"><ele>1158.5</ele><time>2026-05-01T07:17:46Z</time></trkpt><trkpt lat="47.35604244084687" lon="10.854112817635054"><ele>1157.0</ele><time>2026-05-01T07:17:47Z</time></trkpt><trkpt lat="47.35605070133112" lon="10.854315495758826"><ele>1157.0</ele><time>2026-05-01T07:17:48Z</time></trkpt><trkpt lat="47.35605911233231" lon="10.854504042949333"><ele>1157.0</ele><time>2026-05-01T07:17:49Z</time></trkpt><trkpt lat="47.35608292185781" lon="10.85467432442772"><ele>1157.0</ele><time>2026-05-01T07:17:50Z</time></trkpt><trkpt lat="47.356134221438595" lon="10.854830772829807"><ele>1157.0</ele><time>2026-05-01T07:17:51Z</time></trkpt><trkpt lat="47.3562154419093" lon="10.854962155683674"><ele>1157.0</ele><time>2026-05-01T07:17:52Z</time></trkpt><trkpt lat="47.356321158974716" lon="10.855056797622764"><ele>1157.0</ele><time>2026-05-01T07:17:53Z</time></trkpt><trkpt lat="47.35643601546075" lon="10.855153003374413"><ele>1157.0</ele><time>2026-05-01T07:17:54Z</time></trkpt><trkpt lat="47.35657866939229" lon="10.85519585119336"><ele>1157.0</ele><time>2026-05-01T07:17:55Z</time></trkpt><trkpt lat="47.35672867874671" lon="10.855190169850186"><ele>1155.3333333333335</ele><time>2026-05-01T07:17:56Z</time></trkpt><trkpt lat="47.35688249581185" lon="10.855129248481232"><ele>1153.6666666666667</ele><time>2026-05-01T07:17:57Z</time></trkpt><trkpt lat="47.35702371016272" lon="10.85503046187476"><ele>1152.0</ele><time>2026-05-01T07:17:58Z</time></trkpt><trkpt lat="47.3571442506506" lon="10.854941458676016"><ele>1152.2</ele><time>2026-05-01T07:17:59Z</time></trkpt><trkpt lat="47.35724972970199" lon="10.854882418750668"><ele>1152.4</ele><time>2026-05-01T07:18:00Z</time></trkpt><trkpt lat="47.35734861449793" lon="10.854860283990869"><ele>1152.6</ele><time>2026-05-01T07:18:01Z</time></trkpt><trkpt lat="47.357460697485386" lon="10.854869688081223"><ele>1152.8</ele><time>2026-05-01T07:18:02Z</time></trkpt><trkpt lat="47.35757294116671" lon="10.854922276093857"><ele>1153.0</ele><time>2026-05-01T07:18:03Z</time></trkpt><trkpt lat="47.35769025071691" lon="10.855001126445764"><ele>1153.0</ele><time>2026-05-01T07:18:04Z</time></trkpt><trkpt lat="47.35780768610294" lon="10.855085402023358"><ele>1153.0</ele><time>2026-05-01T07:18:05Z</time></trkpt><trkpt lat="47.35792645980347" lon="10.855162924055652"><ele>1153.0</ele><time>2026-05-01T07:18:06Z</time></trkpt><trkpt lat="47.35804422527066" lon="10.855215491686499"><ele>1153.0</ele><time>2026-05-01T07:18:07Z</time></trkpt><trkpt lat="47.35816837773865" lon="10.855243186109757"><ele>1153.75</ele><time>2026-05-01T07:18:08Z</time></trkpt><trkpt lat="47.35829395483445" lon="10.855250576180948"><ele>1154.5</ele><time>2026-05-01T07:18:09Z</time></trkpt><trkpt lat="47.35842307298411" lon="10.855218066068753"><ele>1155.25</ele><time>2026-05-01T07:18:10Z</time></trkpt><trkpt lat="47.358543561972404" lon="10.855161156880481"><ele>1156.0</ele><time>2026-05-01T07:18:11Z</time></trkpt><trkpt lat="47.35865190648657" lon="10.85507982360863"><ele>1156.0</ele><time>2026-05-01T07:18:12Z</time></trkpt><trkpt lat="47.35876084609808" lon="10.854971012044151"><ele>1156.0</ele><time>2026-05-01T07:18:13Z</time></trkpt><trkpt lat="47.358859214692984" lon="10.854840261792742"><ele>1156.0</ele><time>2026-05-01T07:18:14Z</time></trkpt><trkpt lat="47.358946404423435" lon="10.854713607711284"><ele>1156.0</ele><time>2026-05-01T07:18:15Z</time></trkpt><trkpt lat="47.35902269847052" lon="10.854594571052354"><ele>1157.1666666666665</ele><time>2026-05-01T07:18:16Z</time></trkpt><trkpt lat="47.35909125793191" lon="10.854483036468215"><ele>1158.3333333333333</ele><time>2026-05-01T07:18:17Z</time></trkpt><trkpt lat="47.359149537276934" lon="10.854404882231368"><ele>1159.5</ele><time>2026-05-01T07:18:18Z</time></trkpt><trkpt lat="47.35921033009087" lon="10.854340191584608"><ele>1160.6666666666667</ele><time>2026-05-01T07:18:19Z</time></trkpt><trkpt lat="47.35927310027928" lon="10.854315491378996"><ele>1161.8333333333335</ele><time>2026-05-01T07:18:20Z</time></trkpt><trkpt lat="47.3593475416886" lon="10.85431079674213"><ele>1163.0</ele><time>2026-05-01T07:18:21Z</time></trkpt><trkpt lat="47.35942258418062" lon="10.854369053530903"><ele>1163.0</ele><time>2026-05-01T07:18:22Z</time></trkpt><trkpt lat="47.35948059655862" lon="10.854496214546485"><ele>1163.0</ele><time>2026-05-01T07:18:23Z</time></trkpt><trkpt lat="47.35953748955975" lon="10.854644898831811"><ele>1163.0</ele><time>2026-05-01T07:18:24Z</time></trkpt><trkpt lat="47.35959683721354" lon="10.854814086801339"><ele>1163.0</ele><time>2026-05-01T07:18:25Z</time></trkpt><trkpt lat="47.359659695613935" lon="10.85499538526006"><ele>1162.75</ele><time>2026-05-01T07:18:26Z</time></trkpt><trkpt lat="47.35972203498868" lon="10.855169554540359"><ele>1162.5</ele><time>2026-05-01T07:18:27Z</time></trkpt><trkpt lat="47.35978718538009" lon="10.855346677843569"><ele>1162.25</ele><time>2026-05-01T07:18:28Z</time></trkpt><trkpt lat="47.3598536565822" lon="10.85551725830322"><ele>1162.0</ele><time>2026-05-01T07:18:29Z</time></trkpt><trkpt lat="47.35992466178714" lon="10.85567748731589"><ele>1162.0</ele><time>2026-05-01T07:18:30Z</time></trkpt><trkpt lat="47.36000200787184" lon="10.855824359283702"><ele>1162.0</ele><time>2026-05-01T07:18:31Z</time></trkpt><trkpt lat="47.36008205958469" lon="10.855963704289032"><ele>1162.0</ele><time>2026-05-01T07:18:32Z</time></trkpt><trkpt lat="47.36016204481398" lon="10.856102276958259"><ele>1162.0</ele><time>2026-05-01T07:18:33Z</time></trkpt><trkpt lat="47.36023932861112" lon="10.856241230083112"><ele>1164.25</ele><time>2026-05-01T07:18:34Z</time></trkpt><trkpt lat="47.36031289138979" lon="10.856384932331952"><ele>1166.5</ele><time>2026-05-01T07:18:35Z</time></trkpt><trkpt lat="47.360382472068316" lon="10.856535182048804"><ele>1168.75</ele><time>2026-05-01T07:18:36Z</time></trkpt><trkpt lat="47.360441693567395" lon="10.856695136542555"><ele>1171.0</ele><time>2026-05-01T07:18:37Z</time></trkpt><trkpt lat="47.3604867501187" lon="10.856864263576393"><ele>1172.75</ele><time>2026-05-01T07:18:38Z</time></trkpt><trkpt lat="47.36051964969831" lon="10.857048259202694"><ele>1174.5</ele><time>2026-05-01T07:18:39Z</time></trkpt><trkpt lat="47.36054486655757" lon="10.857241456382134"><ele>1176.25</ele><time>2026-05-01T07:18:40Z</time></trkpt><trkpt lat="47.36056841728822" lon="10.857439358994327"><ele>1178.0</ele><time>2026-05-01T07:18:41Z</time></trkpt><trkpt lat="47.36059413546366" lon="10.85763723282986"><ele>1172.25</ele><time>2026-05-01T07:18:42Z</time></trkpt><trkpt lat="47.36062128918145" lon="10.857836407044642"><ele>1166.5</ele><time>2026-05-01T07:18:43Z</time></trkpt><trkpt lat="47.36064627031971" lon="10.858037079353519"><ele>1160.75</ele><time>2026-05-01T07:18:44Z</time></trkpt><trkpt lat="47.36066917953122" lon="10.858237257844227"><ele>1155.0</ele><time>2026-05-01T07:18:45Z</time></trkpt><trkpt lat="47.36068899472729" lon="10.85843662991151"><ele>1154.5</ele><time>2026-05-01T07:18:46Z</time></trkpt><trkpt lat="47.36070487559777" lon="10.858634766353026"><ele>1154.0</ele><time>2026-05-01T07:18:47Z</time></trkpt><trkpt lat="47.36071199838948" lon="10.858833258153508"><ele>1153.5</ele><time>2026-05-01T07:18:48Z</time></trkpt><trkpt lat="47.36070550504896" lon="10.85903396173452"><ele>1153.0</ele><time>2026-05-01T07:18:49Z</time></trkpt><trkpt lat="47.36068173649595" lon="10.85923225550535"><ele>1152.25</ele><time>2026-05-01T07:18:50Z</time></trkpt><trkpt lat="47.36064395265443" lon="10.859427813958638"><ele>1151.5</ele><time>2026-05-01T07:18:51Z</time></trkpt><trkpt lat="47.36060603442498" lon="10.85962815860404"><ele>1150.75</ele><time>2026-05-01T07:18:52Z</time></trkpt><trkpt lat="47.360562709694555" lon="10.859829285697927"><ele>1150.0</ele><time>2026-05-01T07:18:53Z</time></trkpt><trkpt lat="47.360519431265246" lon="10.860027036620558"><ele>1155.5</ele><time>2026-05-01T07:18:54Z</time></trkpt><trkpt lat="47.3604809292962" lon="10.860219745343484"><ele>1161.0</ele><time>2026-05-01T07:18:55Z</time></trkpt><trkpt lat="47.360454106615975" lon="10.860411041478676"><ele>1166.5</ele><time>2026-05-01T07:18:56Z</time></trkpt><trkpt lat="47.360445822365996" lon="10.860602694472506"><ele>1172.0</ele><time>2026-05-01T07:18:57Z</time></trkpt><trkpt lat="47.360453978596176" lon="10.8607978723548"><ele>1169.75</ele><time>2026-05-01T07:18:58Z</time></trkpt><trkpt lat="47.36047384662548" lon="10.860983941978763"><ele>1167.5</ele><time>2026-05-01T07:18:59Z</time></trkpt><trkpt lat="47.36050474834529" lon="10.861163859494027"><ele>1165.25</ele><time>2026-05-01T07:19:00Z</time></trkpt><trkpt lat="47.360549906059966" lon="10.861348742062672"><ele>1163.0</ele><time>2026-05-01T07:19:01Z</time></trkpt><trkpt lat="47.36060761043897" lon="10.86152915627912"><ele>1159.5</ele><time>2026-05-01T07:19:02Z</time></trkpt><trkpt lat="47.36067907943592" lon="10.861704422847389"><ele>1156.0</ele><time>2026-05-01T07:19:03Z</time></trkpt><trkpt lat="47.36076360737673" lon="10.861870496003656"><ele>1152.5</ele><time>2026-05-01T07:19:04Z</time></trkpt><trkpt lat="47.36085495438061" lon="10.86201809516156"><ele>1149.0</ele><time>2026-05-01T07:19:05Z</time></trkpt><trkpt lat="47.36095058320328" lon="10.862152907724276"><ele>1148.75</ele><time>2026-05-01T07:19:06Z</time></trkpt><trkpt lat="47.36105006509414" lon="10.862281476362288"><ele>1148.5</ele><time>2026-05-01T07:19:07Z</time></trkpt><trkpt lat="47.3611500907161" lon="10.862415995894203"><ele>1148.25</ele><time>2026-05-01T07:19:08Z</time></trkpt><trkpt lat="47.36124797846924" lon="10.86256067534185"><ele>1148.0</ele><time>2026-05-01T07:19:09Z</time></trkpt><trkpt lat="47.36133589045057" lon="10.86271623361929"><ele>1148.0</ele><time>2026-05-01T07:19:10Z</time></trkpt><trkpt lat="47.361410890761505" lon="10.86288291065585"><ele>1148.0</ele><time>2026-05-01T07:19:11Z</time></trkpt><trkpt lat="47.36147448872935" lon="10.863061862388658"><ele>1148.0</ele><time>2026-05-01T07:19:12Z</time></trkpt><trkpt lat="47.3615277002155" lon="10.863245170122687"><ele>1148.0</ele><time>2026-05-01T07:19:13Z</time></trkpt><trkpt lat="47.36157638344123" lon="10.863430141829715"><ele>1145.5</ele><time>2026-05-01T07:19:14Z</time></trkpt><trkpt lat="47.3616224702885" lon="10.863613297894432"><ele>1143.0</ele><time>2026-05-01T07:19:15Z</time></trkpt><trkpt lat="47.361668383588984" lon="10.863799906238139"><ele>1140.5</ele><time>2026-05-01T07:19:16Z</time></trkpt><trkpt lat="47.361714505304725" lon="10.863988778520183"><ele>1138.0</ele><time>2026-05-01T07:19:17Z</time></trkpt><trkpt lat="47.3617621239685" lon="10.864181839795632"><ele>1135.25</ele><time>2026-05-01T07:19:18Z</time></trkpt><trkpt lat="47.36181111834687" lon="10.86437958501781"><ele>1132.5</ele><time>2026-05-01T07:19:19Z</time></trkpt><trkpt lat="47.361862313487336" lon="10.864582334486796"><ele>1129.75</ele><time>2026-05-01T07:19:20Z</time></trkpt><trkpt lat="47.361917953185625" lon="10.864785179575536"><ele>1127.0</ele><time>2026-05-01T07:19:21Z</time></trkpt><trkpt lat="47.36198047416583" lon="10.864986635384907"><ele>1126.6666666666667</ele><time>2026-05-01T07:19:22Z</time></trkpt><trkpt lat="47.36205107579586" lon="10.865182702037488"><ele>1126.3333333333333</ele><time>2026-05-01T07:19:23Z</time></trkpt><trkpt lat="47.36213160784627" lon="10.86537355622957"><ele>1126.0</ele><time>2026-05-01T07:19:24Z</time></trkpt><trkpt lat="47.362220374308244" lon="10.865553917024656"><ele>1126.0</ele><time>2026-05-01T07:19:25Z</time></trkpt><trkpt lat="47.36231609716742" lon="10.86572800891888"><ele>1126.0</ele><time>2026-05-01T07:19:26Z</time></trkpt><trkpt lat="47.36241187852176" lon="10.86590026509655"><ele>1126.0</ele><time>2026-05-01T07:19:27Z</time></trkpt><trkpt lat="47.362502478201925" lon="10.86607365587028"><ele>1120.6666666666665</ele><time>2026-05-01T07:19:28Z</time></trkpt><trkpt lat="47.362587439419485" lon="10.866254364927094"><ele>1115.3333333333333</ele><time>2026-05-01T07:19:29Z</time></trkpt><trkpt lat="47.36265910688116" lon="10.86644984691498"><ele>1110.0</ele><time>2026-05-01T07:19:30Z</time></trkpt><trkpt lat="47.36271198242752" lon="10.866657817745004"><ele>1107.5</ele><time>2026-05-01T07:19:31Z</time></trkpt><trkpt lat="47.36274574168061" lon="10.8668732027761"><ele>1105.0</ele><time>2026-05-01T07:19:32Z</time></trkpt><trkpt lat="47.36276761763606" lon="10.867089569746685"><ele>1102.5</ele><time>2026-05-01T07:19:33Z</time></trkpt><trkpt lat="47.362784112486864" lon="10.86730586974493"><ele>1100.0</ele><time>2026-05-01T07:19:34Z</time></trkpt><trkpt lat="47.362802844693284" lon="10.867521301718599"><ele>1098.75</ele><time>2026-05-01T07:19:35Z</time></trkpt><trkpt lat="47.36282840034685" lon="10.867731361637745"><ele>1097.5</ele><time>2026-05-01T07:19:36Z</time></trkpt><trkpt lat="47.3628667312154" lon="10.867930569778292"><ele>1096.25</ele><time>2026-05-01T07:19:37Z</time></trkpt><trkpt lat="47.36291838880868" lon="10.868123318026072"><ele>1095.0</ele><time>2026-05-01T07:19:38Z</time></trkpt><trkpt lat="47.36298561008041" lon="10.868304688032055"><ele>1098.75</ele><time>2026-05-01T07:19:39Z</time></trkpt><trkpt lat="47.36306613414318" lon="10.868475065958904"><ele>1102.5</ele><time>2026-05-01T07:19:40Z</time></trkpt><trkpt lat="47.363158507497616" lon="10.868637323515937"><ele>1106.25</ele><time>2026-05-01T07:19:41Z</time></trkpt><trkpt lat="47.36326011909256" lon="10.868795434730307"><ele>1110.0</ele><time>2026-05-01T07:19:42Z</time></trkpt><trkpt lat="47.36336691076021" lon="10.86895376665122"><ele>1110.0</ele><time>2026-05-01T07:19:43Z</time></trkpt><trkpt lat="47.36347192266968" lon="10.869121506068085"><ele>1110.0</ele><time>2026-05-01T07:19:44Z</time></trkpt><trkpt lat="47.3635746690846" lon="10.869290436714351"><ele>1110.0</ele><time>2026-05-01T07:19:45Z</time></trkpt><trkpt lat="47.36367923751125" lon="10.869470238057675"><ele>1106.3333333333333</ele><time>2026-05-01T07:19:46Z</time></trkpt><trkpt lat="47.363783825948175" lon="10.869652367648582"><ele>1102.6666666666665</ele><time>2026-05-01T07:19:47Z</time></trkpt><trkpt lat="47.363888528314675" lon="10.869839811654803"><ele>1099.0</ele><time>2026-05-01T07:19:48Z</time></trkpt><trkpt lat="47.36399527056007" lon="10.870028841080718"><ele>1100.0</ele><time>2026-05-01T07:19:49Z</time></trkpt><trkpt lat="47.36410395145632" lon="10.870219816312154"><ele>1101.0</ele><time>2026-05-01T07:19:50Z</time></trkpt><trkpt lat="47.36421472634788" lon="10.8704008311657"><ele>1102.0</ele><time>2026-05-01T07:19:51Z</time></trkpt><trkpt lat="47.3643317244529" lon="10.870574074015902"><ele>1102.0</ele><time>2026-05-01T07:19:52Z</time></trkpt><trkpt lat="47.36445493482968" lon="10.87074233747194"><ele>1102.0</ele><time>2026-05-01T07:19:53Z</time></trkpt><trkpt lat="47.364582459820184" lon="10.870904386177497"><ele>1102.0</ele><time>2026-05-01T07:19:54Z</time></trkpt><trkpt lat="47.364714242818685" lon="10.87105998613579"><ele>1100.0</ele><time>2026-05-01T07:19:55Z</time></trkpt><trkpt lat="47.364850060220235" lon="10.871207114876796"><ele>1098.0</ele><time>2026-05-01T07:19:56Z</time></trkpt><trkpt lat="47.36499407752542" lon="10.871341433858138"><ele>1096.0</ele><time>2026-05-01T07:19:57Z</time></trkpt><trkpt lat="47.36513874225198" lon="10.871476573744813"><ele>1096.0</ele><time>2026-05-01T07:19:58Z</time></trkpt><trkpt lat="47.36530069100628" lon="10.871568646456938"><ele>1096.0</ele><time>2026-05-01T07:19:59Z</time></trkpt><trkpt lat="47.36547005814072" lon="10.87163283346838"><ele>1096.0</ele><time>2026-05-01T07:20:00Z</time></trkpt><trkpt lat="47.3656459158953" lon="10.87165913513247"><ele>1096.0</ele><time>2026-05-01T07:20:01Z</time></trkpt><trkpt lat="47.36582280637053" lon="10.871675189837406"><ele>1096.0</ele><time>2026-05-01T07:20:02Z</time></trkpt><trkpt lat="47.365999322231886" lon="10.871680955920914"><ele>1096.0</ele><time>2026-05-01T07:20:03Z</time></trkpt><trkpt lat="47.3661739445146" lon="10.87168115109113"><ele>1096.0</ele><time>2026-05-01T07:20:04Z</time></trkpt><trkpt lat="47.36635229763599" lon="10.871698433086095"><ele>1096.0</ele><time>2026-05-01T07:20:05Z</time></trkpt><trkpt lat="47.36652878643293" lon="10.87174074322591"><ele>1096.0</ele><time>2026-05-01T07:20:06Z</time></trkpt><trkpt lat="47.36670610762004" lon="10.871794966085215"><ele>1094.0</ele><time>2026-05-01T07:20:07Z</time></trkpt><trkpt lat="47.366875824254436" lon="10.87190149199075"><ele>1092.0</ele><time>2026-05-01T07:20:08Z</time></trkpt><trkpt lat="47.36703940462747" lon="10.872027312372035"><ele>1090.0</ele><time>2026-05-01T07:20:09Z</time></trkpt><trkpt lat="47.36720053027614" lon="10.872166491227743"><ele>1090.6666666666665</ele><time>2026-05-01T07:20:10Z</time></trkpt><trkpt lat="47.36736156367848" lon="10.872313546895652"><ele>1091.3333333333333</ele><time>2026-05-01T07:20:11Z</time></trkpt><trkpt lat="47.367520926908995" lon="10.872469973335663"><ele>1092.0</ele><time>2026-05-01T07:20:12Z</time></trkpt><trkpt lat="47.36767364610006" lon="10.872629385934653"><ele>1092.0</ele><time>2026-05-01T07:20:13Z</time></trkpt><trkpt lat="47.36783020160682" lon="10.872799965603136"><ele>1092.0</ele><time>2026-05-01T07:20:14Z</time></trkpt><trkpt lat="47.367986180967755" lon="10.872983380736859"><ele>1092.0</ele><time>2026-05-01T07:20:15Z</time></trkpt><trkpt lat="47.36814116565549" lon="10.873180016021248"><ele>1091.6666666666667</ele><time>2026-05-01T07:20:16Z</time></trkpt><trkpt lat="47.36829866549428" lon="10.873390309096354"><ele>1091.3333333333335</ele><time>2026-05-01T07:20:17Z</time></trkpt><trkpt lat="47.36845151791474" lon="10.873608447027422"><ele>1091.0</ele><time>2026-05-01T07:20:18Z</time></trkpt><trkpt lat="47.36860189813207" lon="10.873837861020524"><ele>1090.6666666666667</ele><time>2026-05-01T07:20:19Z</time></trkpt><trkpt lat="47.368743899887086" lon="10.874074684283839"><ele>1090.3333333333333</ele><time>2026-05-01T07:20:20Z</time></trkpt><trkpt lat="47.368875362706255" lon="10.874307761351043"><ele>1090.0</ele><time>2026-05-01T07:20:21Z</time></trkpt><trkpt lat="47.36899799156633" lon="10.874539054106585"><ele>1090.0</ele><time>2026-05-01T07:20:22Z</time></trkpt><trkpt lat="47.36911048698935" lon="10.874769432422692"><ele>1090.0</ele><time>2026-05-01T07:20:23Z</time></trkpt><trkpt lat="47.36921449410036" lon="10.87499859990863"><ele>1090.0</ele><time>2026-05-01T07:20:24Z</time></trkpt><trkpt lat="47.36931097004868" lon="10.875224388909345"><ele>1090.6666666666665</ele><time>2026-05-01T07:20:25Z</time></trkpt><trkpt lat="47.36940364791131" lon="10.875454448786547"><ele>1091.3333333333333</ele><time>2026-05-01T07:20:26Z</time></trkpt><trkpt lat="47.369492542058396" lon="10.875681706609207"><ele>1092.0</ele><time>2026-05-01T07:20:27Z</time></trkpt><trkpt lat="47.36957815635345" lon="10.87591060645951"><ele>1091.6666666666667</ele><time>2026-05-01T07:20:28Z</time></trkpt><trkpt lat="47.3696594545856" lon="10.876138879843129"><ele>1091.3333333333335</ele><time>2026-05-01T07:20:29Z</time></trkpt><trkpt lat="47.369737830925736" lon="10.876366239337173"><ele>1091.0</ele><time>2026-05-01T07:20:30Z</time></trkpt><trkpt lat="47.36981585247229" lon="10.876591978412668"><ele>1086.3333333333335</ele><time>2026-05-01T07:20:31Z</time></trkpt><trkpt lat="47.36989374195635" lon="10.876814539731475"><ele>1081.6666666666667</ele><time>2026-05-01T07:20:32Z</time></trkpt><trkpt lat="47.369970395547995" lon="10.877034974816663"><ele>1077.0</ele><time>2026-05-01T07:20:33Z</time></trkpt><trkpt lat="47.37004770861309" lon="10.877253812785739"><ele>1077.0</ele><time>2026-05-01T07:20:34Z</time></trkpt><trkpt lat="47.370130305305075" lon="10.877480754453133"><ele>1077.0</ele><time>2026-05-01T07:20:35Z</time></trkpt><trkpt lat="47.370217754366536" lon="10.877709332773993"><ele>1077.0</ele><time>2026-05-01T07:20:36Z</time></trkpt><trkpt lat="47.370309712486765" lon="10.877937555329478"><ele>1078.6666666666667</ele><time>2026-05-01T07:20:37Z</time></trkpt><trkpt lat="47.37040878240624" lon="10.878167541906821"><ele>1080.3333333333335</ele><time>2026-05-01T07:20:38Z</time></trkpt><trkpt lat="47.37051401788178" lon="10.87839492518961"><ele>1082.0</ele><time>2026-05-01T07:20:39Z</time></trkpt><trkpt lat="47.370629317795625" lon="10.878622483990522"><ele>1077.6666666666667</ele><time>2026-05-01T07:20:40Z</time></trkpt><trkpt lat="47.37075317880885" lon="10.878848319490297"><ele>1073.3333333333333</ele><time>2026-05-01T07:20:41Z</time></trkpt><trkpt lat="47.37088628353795" lon="10.879076123421857"><ele>1069.0</ele><time>2026-05-01T07:20:42Z</time></trkpt><trkpt lat="47.37102432498338" lon="10.87930164091325"><ele>1068.3333333333333</ele><time>2026-05-01T07:20:43Z</time></trkpt><trkpt lat="47.3711650967404" lon="10.879521469310827"><ele>1067.6666666666667</ele><time>2026-05-01T07:20:44Z</time></trkpt><trkpt lat="47.371314679901815" lon="10.879740871530073"><ele>1067.0</ele><time>2026-05-01T07:20:45Z</time></trkpt><trkpt lat="47.37146940954465" lon="10.87995260251873"><ele>1062.3333333333335</ele><time>2026-05-01T07:20:46Z</time></trkpt><trkpt lat="47.371629189251145" lon="10.880154578824344"><ele>1057.6666666666667</ele><time>2026-05-01T07:20:47Z</time></trkpt><trkpt lat="47.371796867626735" lon="10.880351900108254"><ele>1053.0</ele><time>2026-05-01T07:20:48Z</time></trkpt><trkpt lat="47.37196557898354" lon="10.880536596139976"><ele>1053.0</ele><time>2026-05-01T07:20:49Z</time></trkpt><trkpt lat="47.3721330632772" lon="10.880707331922569"><ele>1053.0</ele><time>2026-05-01T07:20:50Z</time></trkpt><trkpt lat="47.372296972919315" lon="10.8808660174058"><ele>1053.0</ele><time>2026-05-01T07:20:51Z</time></trkpt><trkpt lat="47.372457594920824" lon="10.881018417719782"><ele>1048.6666666666667</ele><time>2026-05-01T07:20:52Z</time></trkpt><trkpt lat="47.372620979120526" lon="10.881167048947429"><ele>1044.3333333333335</ele><time>2026-05-01T07:20:53Z</time></trkpt><trkpt lat="47.37278869369966" lon="10.881311007436857"><ele>1040.0</ele><time>2026-05-01T07:20:54Z</time></trkpt><trkpt lat="47.37295641297842" lon="10.881447897690713"><ele>1038.6666666666667</ele><time>2026-05-01T07:20:55Z</time></trkpt><trkpt lat="47.37312519629546" lon="10.881577301279272"><ele>1037.3333333333333</ele><time>2026-05-01T07:20:56Z</time></trkpt><trkpt lat="47.3732946941224" lon="10.881700186487512"><ele>1036.0</ele><time>2026-05-01T07:20:57Z</time></trkpt><trkpt lat="47.37346346405857" lon="10.88181718793854"><ele>1036.0</ele><time>2026-05-01T07:20:58Z</time></trkpt><trkpt lat="47.373630083702274" lon="10.881927173398688"><ele>1036.0</ele><time>2026-05-01T07:20:59Z</time></trkpt><trkpt lat="47.373790618731476" lon="10.882027997104226"><ele>1036.0</ele><time>2026-05-01T07:21:00Z</time></trkpt><trkpt lat="47.373948323489245" lon="10.882122718796209"><ele>1036.3333333333333</ele><time>2026-05-01T07:21:01Z</time></trkpt><trkpt lat="47.37409958288507" lon="10.882212560893706"><ele>1036.6666666666667</ele><time>2026-05-01T07:21:02Z</time></trkpt><trkpt lat="47.374247247744734" lon="10.88229205367955"><ele>1037.0</ele><time>2026-05-01T07:21:03Z</time></trkpt><trkpt lat="47.374386494386414" lon="10.882364361759093"><ele>1037.0</ele><time>2026-05-01T07:21:04Z</time></trkpt><trkpt lat="47.37452233489587" lon="10.88242757474834"><ele>1037.0</ele><time>2026-05-01T07:21:05Z</time></trkpt><trkpt lat="47.374648615763654" lon="10.882509667304948"><ele>1037.0</ele><time>2026-05-01T07:21:06Z</time></trkpt><trkpt lat="47.37476913452093" lon="10.882566302820752"><ele>1037.0</ele><time>2026-05-01T07:21:07Z</time></trkpt><trkpt lat="47.374884725438044" lon="10.882621661721837"><ele>1035.75</ele><time>2026-05-01T07:21:08Z</time></trkpt><trkpt lat="47.375003219712504" lon="10.882673218343458"><ele>1034.5</ele><time>2026-05-01T07:21:09Z</time></trkpt><trkpt lat="47.37512011896033" lon="10.882718683294492"><ele>1033.25</ele><time>2026-05-01T07:21:10Z</time></trkpt><trkpt lat="47.37523816624048" lon="10.88275703476829"><ele>1032.0</ele><time>2026-05-01T07:21:11Z</time></trkpt><trkpt lat="47.37535408088622" lon="10.882795041989374"><ele>1032.0</ele><time>2026-05-01T07:21:12Z</time></trkpt><trkpt lat="47.375468991847235" lon="10.882832006106742"><ele>1032.0</ele><time>2026-05-01T07:21:13Z</time></trkpt><trkpt lat="47.375582603602304" lon="10.882868552333575"><ele>1032.0</ele><time>2026-05-01T07:21:14Z</time></trkpt><trkpt lat="47.37569515855871" lon="10.882904699410014"><ele>1032.0</ele><time>2026-05-01T07:21:15Z</time></trkpt><trkpt lat="47.37580851937877" lon="10.882936747654734"><ele>1035.4</ele><time>2026-05-01T07:21:16Z</time></trkpt><trkpt lat="47.37591947302058" lon="10.882966130813097"><ele>1038.8000000000002</ele><time>2026-05-01T07:21:17Z</time></trkpt><trkpt lat="47.37602461374539" lon="10.882993567151297"><ele>1042.2</ele><time>2026-05-01T07:21:18Z</time></trkpt><trkpt lat="47.37612832169374" lon="10.883015440505064"><ele>1045.6000000000001</ele><time>2026-05-01T07:21:19Z</time></trkpt><trkpt lat="47.37623189449665" lon="10.883033790949545"><ele>1049.0</ele><time>2026-05-01T07:21:20Z</time></trkpt><trkpt lat="47.376340193478846" lon="10.88302988255894"><ele>1059.2</ele><time>2026-05-01T07:21:21Z</time></trkpt><trkpt lat="47.376447748553204" lon="10.88307833966521"><ele>1069.4</ele><time>2026-05-01T07:21:22Z</time></trkpt><trkpt lat="47.37655627959106" lon="10.883104890281592"><ele>1079.6</ele><time>2026-05-01T07:21:23Z</time></trkpt><trkpt lat="47.37666551398423" lon="10.883131906194018"><ele>1089.8</ele><time>2026-05-01T07:21:24Z</time></trkpt><trkpt lat="47.37677589494087" lon="10.88315428323129"><ele>1100.0</ele><time>2026-05-01T07:21:25Z</time></trkpt><trkpt lat="47.377001298337674" lon="10.883136217549986"><ele>1100.0</ele><time>2026-05-01T07:21:26Z</time></trkpt><trkpt lat="47.37711915982521" lon="10.883143329829736"><ele>1100.0</ele><time>2026-05-01T07:21:27Z</time></trkpt><trkpt lat="47.377240283111185" lon="10.88314462864944"><ele>1100.0</ele><time>2026-05-01T07:21:28Z</time></trkpt><trkpt lat="47.37736276490372" lon="10.883141984740703"><ele>1100.0</ele><time>2026-05-01T07:21:29Z</time></trkpt><trkpt lat="47.37748344988147" lon="10.883135589731758"><ele>1114.0</ele><time>2026-05-01T07:21:30Z</time></trkpt><trkpt lat="47.377603386454815" lon="10.883126713234187"><ele>1128.0</ele><time>2026-05-01T07:21:31Z</time></trkpt><trkpt lat="47.377721471162616" lon="10.88311776707162"><ele>1142.0</ele><time>2026-05-01T07:21:32Z</time></trkpt><trkpt lat="47.377835828922485" lon="10.88310681506924"><ele>1156.0</ele><time>2026-05-01T07:21:33Z</time></trkpt><trkpt lat="47.377950831686825" lon="10.88309249711288"><ele>1166.5</ele><time>2026-05-01T07:21:34Z</time></trkpt><trkpt lat="47.378063014585656" lon="10.883076778735102"><ele>1177.0</ele><time>2026-05-01T07:21:35Z</time></trkpt><trkpt lat="47.37817513050021" lon="10.883059432892244"><ele>1187.5</ele><time>2026-05-01T07:21:36Z</time></trkpt><trkpt lat="47.37828719834891" lon="10.88303863930205"><ele>1198.0</ele><time>2026-05-01T07:21:37Z</time></trkpt><trkpt lat="47.37839796370237" lon="10.883015670950526"><ele>1198.0</ele><time>2026-05-01T07:21:38Z</time></trkpt><trkpt lat="47.3785066343819" lon="10.88299271542772"><ele>1198.0</ele><time>2026-05-01T07:21:39Z</time></trkpt><trkpt lat="47.37861184626739" lon="10.882967957533412"><ele>1198.0</ele><time>2026-05-01T07:21:40Z</time></trkpt><trkpt lat="47.37871584101168" lon="10.882944567966364"><ele>1198.0</ele><time>2026-05-01T07:21:41Z</time></trkpt><trkpt lat="47.378821888397965" lon="10.88291950307293"><ele>1198.0</ele><time>2026-05-01T07:21:42Z</time></trkpt><trkpt lat="47.3789277708891" lon="10.88289430900244"><ele>1204.8</ele><time>2026-05-01T07:21:43Z</time></trkpt><trkpt lat="47.3790313590646" lon="10.882867059991055"><ele>1211.6</ele><time>2026-05-01T07:21:44Z</time></trkpt><trkpt lat="47.37913105166858" lon="10.88283594109765"><ele>1218.4</ele><time>2026-05-01T07:21:45Z</time></trkpt><trkpt lat="47.37923288817099" lon="10.882828158799835"><ele>1225.2</ele><time>2026-05-01T07:21:46Z</time></trkpt><trkpt lat="47.37933031575144" lon="10.882796835615855"><ele>1232.0</ele><time>2026-05-01T07:21:47Z</time></trkpt><trkpt lat="47.37942558950537" lon="10.882764564379126"><ele>1232.0</ele><time>2026-05-01T07:21:48Z</time></trkpt><trkpt lat="47.37952437074073" lon="10.882728869986531"><ele>1232.0</ele><time>2026-05-01T07:21:49Z</time></trkpt><trkpt lat="47.379629299730844" lon="10.882690768009443"><ele>1232.0</ele><time>2026-05-01T07:21:50Z</time></trkpt><trkpt lat="47.379736287033296" lon="10.882649087436455"><ele>1232.0</ele><time>2026-05-01T07:21:51Z</time></trkpt><trkpt lat="47.37983659235975" lon="10.882583669680685"><ele>1232.0</ele><time>2026-05-01T07:21:52Z</time></trkpt><trkpt lat="47.37993716018504" lon="10.882567691027658"><ele>1247.6</ele><time>2026-05-01T07:21:53Z</time></trkpt><trkpt lat="47.38003126609717" lon="10.882527611796064"><ele>1263.2</ele><time>2026-05-01T07:21:54Z</time></trkpt><trkpt lat="47.38011853966753" lon="10.882490442363267"><ele>1278.8</ele><time>2026-05-01T07:21:55Z</time></trkpt><trkpt lat="47.38020520282353" lon="10.882453533116102"><ele>1294.4</ele><time>2026-05-01T07:21:56Z</time></trkpt><trkpt lat="47.38030251437898" lon="10.8824120887038"><ele>1310.0</ele><time>2026-05-01T07:21:57Z</time></trkpt><trkpt lat="47.38041203146722" lon="10.882365445971121"><ele>1323.75</ele><time>2026-05-01T07:21:58Z</time></trkpt><trkpt lat="47.38052288074466" lon="10.882318235918868"><ele>1337.5</ele><time>2026-05-01T07:21:59Z</time></trkpt><trkpt lat="47.380624393086" lon="10.882249586905662"><ele>1351.25</ele><time>2026-05-01T07:22:00Z</time></trkpt><trkpt lat="47.38072727012972" lon="10.88222909902634"><ele>1365.0</ele><time>2026-05-01T07:22:01.017Z</time></trkpt><trkpt lat="47.382658551596904" lon="10.881338142411657"><ele>1368.8</ele><time>2026-05-01T07:22:04.4Z</time></trkpt><trkpt lat="47.38274941560337" lon="10.881297533229775"><ele>1372.6</ele><time>2026-05-01T07:22:05.4Z</time></trkpt><trkpt lat="47.38284027578632" lon="10.881256925756704"><ele>1376.4</ele><time>2026-05-01T07:22:06.4Z</time></trkpt><trkpt lat="47.38293113614258" lon="10.88121631820618"><ele>1380.2</ele><time>2026-05-01T07:22:07.4Z</time></trkpt><trkpt lat="47.38302196722269" lon="10.881175574581944"><ele>1384.0</ele><time>2026-05-01T07:22:08.4Z</time></trkpt><trkpt lat="47.38311275155928" lon="10.88113458004367"><ele>1384.0</ele><time>2026-05-01T07:22:09.4Z</time></trkpt><trkpt lat="47.38320352998709" lon="10.881093588173563"><ele>1384.0</ele><time>2026-05-01T07:22:10.4Z</time></trkpt><trkpt lat="47.383294312235044" lon="10.881052594578431"><ele>1384.0</ele><time>2026-05-01T07:22:11.4Z</time></trkpt><trkpt lat="47.383384999444665" lon="10.881011643898772"><ele>1384.0</ele><time>2026-05-01T07:22:12.399Z</time></trkpt><trkpt lat="47.38347576217379" lon="10.880970643951239"><ele>1384.0</ele><time>2026-05-01T07:22:13.399Z</time></trkpt><trkpt lat="47.38356651176788" lon="10.88092892599889"><ele>1383.6</ele><time>2026-05-01T07:22:14.4Z</time></trkpt><trkpt lat="47.38365715124742" lon="10.880887258666645"><ele>1383.2</ele><time>2026-05-01T07:22:15.4Z</time></trkpt><trkpt lat="47.38374779271509" lon="10.880845590420444"><ele>1382.8</ele><time>2026-05-01T07:22:16.4Z</time></trkpt><trkpt lat="47.38383842983912" lon="10.880803924171033"><ele>1382.3999999999999</ele><time>2026-05-01T07:22:17.4Z</time></trkpt><trkpt lat="47.38392907093942" lon="10.880762256093716"><ele>1382.0</ele><time>2026-05-01T07:22:18.4Z</time></trkpt><trkpt lat="47.3840196743408" lon="10.880720605346744"><ele>1382.0</ele><time>2026-05-01T07:22:19.399Z</time></trkpt><trkpt lat="47.384110351519254" lon="10.880678920684153"><ele>1382.0</ele><time>2026-05-01T07:22:20.4Z</time></trkpt><trkpt lat="47.384200989907484" lon="10.880637253853587"><ele>1382.0</ele><time>2026-05-01T07:22:21.4Z</time></trkpt><trkpt lat="47.38429162947346" lon="10.880595586481602"><ele>1382.0</ele><time>2026-05-01T07:22:22.4Z</time></trkpt><trkpt lat="47.38438227221613" lon="10.88055391764928"><ele>1382.0</ele><time>2026-05-01T07:22:23.4Z</time></trkpt><trkpt lat="47.38447296244712" lon="10.880512226986388"><ele>1382.0</ele><time>2026-05-01T07:22:24.4Z</time></trkpt><trkpt lat="47.38456354845233" lon="10.880470584236505"><ele>1382.0</ele><time>2026-05-01T07:22:25.4Z</time></trkpt><trkpt lat="47.384654191638006" lon="10.88042891520053"><ele>1382.0</ele><time>2026-05-01T07:22:26.4Z</time></trkpt><trkpt lat="47.38474478099279" lon="10.880387270910838"><ele>1382.0</ele><time>2026-05-01T07:22:27.399Z</time></trkpt><trkpt lat="47.3848355160556" lon="10.880345796833696"><ele>1382.0</ele><time>2026-05-01T07:22:28.4Z</time></trkpt><trkpt lat="47.38492622742245" lon="10.880304470546527"><ele>1379.6</ele><time>2026-05-01T07:22:29.4Z</time></trkpt><trkpt lat="47.385016940778996" lon="10.880263143352884"><ele>1377.1999999999998</ele><time>2026-05-01T07:22:30.4Z</time></trkpt><trkpt lat="47.38510775184778" lon="10.880221771643503"><ele>1374.8</ele><time>2026-05-01T07:22:31.401Z</time></trkpt><trkpt lat="47.38519836216097" lon="10.88018049139436"><ele>1372.4</ele><time>2026-05-01T07:22:32.4Z</time></trkpt><trkpt lat="47.38528907317096" lon="10.880139165269764"><ele>1370.0</ele><time>2026-05-01T07:22:33.4Z</time></trkpt><trkpt lat="47.38537984599313" lon="10.880098118879221"><ele>1370.0</ele><time>2026-05-01T07:22:34.4Z</time></trkpt><trkpt lat="47.385470588733135" lon="10.88005726806503"><ele>1370.0</ele><time>2026-05-01T07:22:35.399Z</time></trkpt><trkpt lat="47.385561518807194" lon="10.880016332916284"><ele>1370.0</ele><time>2026-05-01T07:22:36.401Z</time></trkpt><trkpt lat="47.38565226327916" lon="10.879975481322392"><ele>1370.0</ele><time>2026-05-01T07:22:37.4Z</time></trkpt><trkpt lat="47.38574306622672" lon="10.879934603403798"><ele>1370.0</ele><time>2026-05-01T07:22:38.4Z</time></trkpt><trkpt lat="47.38583387198874" lon="10.879893724218189"><ele>1364.6</ele><time>2026-05-01T07:22:39.4Z</time></trkpt><trkpt lat="47.38592476119916" lon="10.879852807465543"><ele>1359.2</ele><time>2026-05-01T07:22:40.401Z</time></trkpt><trkpt lat="47.38601548224626" lon="10.879811966417126"><ele>1353.8000000000002</ele><time>2026-05-01T07:22:41.4Z</time></trkpt><trkpt lat="47.38610628736961" lon="10.87977108751903"><ele>1348.4</ele><time>2026-05-01T07:22:42.4Z</time></trkpt><trkpt lat="47.38619709349966" lon="10.879730208167734"><ele>1343.0</ele><time>2026-05-01T07:22:43.4Z</time></trkpt><trkpt lat="47.38628790071219" lon="10.879689328329123"><ele>1337.4</ele><time>2026-05-01T07:22:44.4Z</time></trkpt><trkpt lat="47.38637871915807" lon="10.879648507116812"><ele>1331.8000000000002</ele><time>2026-05-01T07:22:45.4Z</time></trkpt><trkpt lat="47.38646959019395" lon="10.879607957558125"><ele>1326.2</ele><time>2026-05-01T07:22:46.4Z</time></trkpt><trkpt lat="47.38656046813038" lon="10.879567404920188"><ele>1320.6</ele><time>2026-05-01T07:22:47.4Z</time></trkpt><trkpt lat="47.386651335808054" lon="10.879526856860036"><ele>1315.0</ele><time>2026-05-01T07:22:48.4Z</time></trkpt><trkpt lat="47.38674229398377" lon="10.879486268416768"><ele>1315.0</ele><time>2026-05-01T07:22:49.401Z</time></trkpt><trkpt lat="47.38683308287378" lon="10.879445755514194"><ele>1315.0</ele><time>2026-05-01T07:22:50.4Z</time></trkpt><trkpt lat="47.38692395662871" lon="10.879405204742175"><ele>1315.0</ele><time>2026-05-01T07:22:51.4Z</time></trkpt><trkpt lat="47.387014657555575" lon="10.879364731091561"><ele>1315.0</ele><time>2026-05-01T07:22:52.398Z</time></trkpt><trkpt lat="47.387105703152784" lon="10.879324103638032"><ele>1315.0</ele><time>2026-05-01T07:22:53.4Z</time></trkpt><trkpt lat="47.387196575369444" lon="10.879283553552439"><ele>1313.4</ele><time>2026-05-01T07:22:54.4Z</time></trkpt><trkpt lat="47.3872874502185" lon="10.879243002292188"><ele>1311.8</ele><time>2026-05-01T07:22:55.4Z</time></trkpt><trkpt lat="47.38737832398427" lon="10.879202451515336"><ele>1310.1999999999998</ele><time>2026-05-01T07:22:56.4Z</time></trkpt><trkpt lat="47.38746919620093" lon="10.879161901429743"><ele>1308.6</ele><time>2026-05-01T07:22:57.4Z</time></trkpt><trkpt lat="47.387560072317434" lon="10.879121349603917"><ele>1307.0</ele><time>2026-05-01T07:22:58.4Z</time></trkpt><trkpt lat="47.38765093022023" lon="10.879080740648678"><ele>1307.0</ele><time>2026-05-01T07:22:59.4Z</time></trkpt><trkpt lat="47.38774166076173" lon="10.879039497635949"><ele>1307.0</ele><time>2026-05-01T07:23:00.4Z</time></trkpt><trkpt lat="47.38783239029737" lon="10.878998255080454"><ele>1307.0</ele><time>2026-05-01T07:23:01.4Z</time></trkpt><trkpt lat="47.387923118481034" lon="10.878957013139518"><ele>1307.0</ele><time>2026-05-01T07:23:02.4Z</time></trkpt><trkpt lat="47.38801384784362" lon="10.878915770662685"><ele>1307.0</ele><time>2026-05-01T07:23:03.4Z</time></trkpt><trkpt lat="47.388104581099874" lon="10.878874526415922"><ele>1300.6666666666667</ele><time>2026-05-01T07:23:04.4Z</time></trkpt><trkpt lat="47.388195307466496" lon="10.878833285300953"><ele>1294.3333333333335</ele><time>2026-05-01T07:23:05.4Z</time></trkpt><trkpt lat="47.388286037283336" lon="10.87879204261763"><ele>1288.0</ele><time>2026-05-01T07:23:06.4Z</time></trkpt><trkpt lat="47.3883766525072" lon="10.878750852024371"><ele>1281.6666666666667</ele><time>2026-05-01T07:23:07.399Z</time></trkpt><trkpt lat="47.38846749926405" lon="10.878709556184106"><ele>1275.3333333333333</ele><time>2026-05-01T07:23:08.4Z</time></trkpt><trkpt lat="47.3885312" lon="10.8786806"><ele>1269.0</ele><time>2026-05-01T07:23:09.4Z</time></trkpt><trkpt lat="47.404722481243134" lon="10.870189883947058"><ele>1206.0</ele><time>2026-05-01T07:25:28.001Z</time></trkpt><trkpt lat="47.40480584225045" lon="10.87006810611213"><ele>1143.0</ele><time>2026-05-01T07:25:29.001Z</time></trkpt><trkpt lat="47.40492907569415" lon="10.869933973784207"><ele>1080.0</ele><time>2026-05-01T07:25:30.001Z</time></trkpt><trkpt lat="47.405010882370156" lon="10.869803073298609"><ele>1017.0</ele><time>2026-05-01T07:25:31.001Z</time></trkpt><trkpt lat="47.40508848810785" lon="10.869672755065585"><ele>1017.0</ele><time>2026-05-01T07:25:32.001Z</time></trkpt><trkpt lat="47.40518487738716" lon="10.869533729977174"><ele>1017.0</ele><time>2026-05-01T07:25:33.001Z</time></trkpt><trkpt lat="47.40528376150172" lon="10.86939113388408"><ele>1017.0</ele><time>2026-05-01T07:25:34.001Z</time></trkpt><trkpt lat="47.40537441532816" lon="10.8692506911291"><ele>1017.0</ele><time>2026-05-01T07:25:35.001Z</time></trkpt><trkpt lat="47.40546684886081" lon="10.869115985742072"><ele>1016.25</ele><time>2026-05-01T07:25:36Z</time></trkpt><trkpt lat="47.40555834923046" lon="10.868976883055169"><ele>1015.5</ele><time>2026-05-01T07:25:37Z</time></trkpt><trkpt lat="47.40564460348448" lon="10.868837252069367"><ele>1014.75</ele><time>2026-05-01T07:25:38Z</time></trkpt><trkpt lat="47.405741132909796" lon="10.868688727852561"><ele>1014.0</ele><time>2026-05-01T07:25:39Z</time></trkpt><trkpt lat="47.40584636997806" lon="10.86852048786677"><ele>1015.6666666666667</ele><time>2026-05-01T07:25:40Z</time></trkpt><trkpt lat="47.40596047643184" lon="10.868342623304253"><ele>1017.3333333333334</ele><time>2026-05-01T07:25:41Z</time></trkpt><trkpt lat="47.40607907357494" lon="10.86815381791863"><ele>1019.0</ele><time>2026-05-01T07:25:42Z</time></trkpt><trkpt lat="47.40620810522387" lon="10.867955942165406"><ele>1018.0</ele><time>2026-05-01T07:25:43Z</time></trkpt><trkpt lat="47.40633806905765" lon="10.86775434879553"><ele>1017.0</ele><time>2026-05-01T07:25:44Z</time></trkpt><trkpt lat="47.40646057724332" lon="10.867569964322914"><ele>1016.0</ele><time>2026-05-01T07:25:45Z</time></trkpt><trkpt lat="47.40658872360068" lon="10.867374608241027"><ele>1016.0</ele><time>2026-05-01T07:25:46Z</time></trkpt><trkpt lat="47.40672287117432" lon="10.867181817046037"><ele>1016.0</ele><time>2026-05-01T07:25:47Z</time></trkpt><trkpt lat="47.406858392840725" lon="10.866969317284987"><ele>1016.0</ele><time>2026-05-01T07:25:48Z</time></trkpt><trkpt lat="47.4069937782519" lon="10.866764211739364"><ele>1016.6666666666667</ele><time>2026-05-01T07:25:49Z</time></trkpt><trkpt lat="47.40713348677808" lon="10.866552226216847"><ele>1017.3333333333333</ele><time>2026-05-01T07:25:50Z</time></trkpt><trkpt lat="47.40727619842755" lon="10.866346844512604"><ele>1018.0</ele><time>2026-05-01T07:25:51Z</time></trkpt><trkpt lat="47.407405668569965" lon="10.866143517697783"><ele>1019.0</ele><time>2026-05-01T07:25:52Z</time></trkpt><trkpt lat="47.40754561291582" lon="10.865942679991544"><ele>1020.0</ele><time>2026-05-01T07:25:53Z</time></trkpt><trkpt lat="47.407684164196695" lon="10.865754506060098"><ele>1021.0</ele><time>2026-05-01T07:25:54Z</time></trkpt><trkpt lat="47.40783102113425" lon="10.865546095168561"><ele>1021.0</ele><time>2026-05-01T07:25:55Z</time></trkpt><trkpt lat="47.40798157088272" lon="10.865333123076342"><ele>1021.0</ele><time>2026-05-01T07:25:56Z</time></trkpt><trkpt lat="47.40812972985124" lon="10.865120367883614"><ele>1021.0</ele><time>2026-05-01T07:25:57Z</time></trkpt><trkpt lat="47.408284716069396" lon="10.864903660667643"><ele>1022.3333333333333</ele><time>2026-05-01T07:25:58Z</time></trkpt><trkpt lat="47.40843655009611" lon="10.86468900744914"><ele>1023.6666666666667</ele><time>2026-05-01T07:25:59Z</time></trkpt><trkpt lat="47.40859108497545" lon="10.864474071779641"><ele>1025.0</ele><time>2026-05-01T07:26:00Z</time></trkpt><trkpt lat="47.408742498606614" lon="10.86426139847432"><ele>1026.0</ele><time>2026-05-01T07:26:01Z</time></trkpt><trkpt lat="47.40889354569921" lon="10.864062462410073"><ele>1027.0</ele><time>2026-05-01T07:26:02Z</time></trkpt><trkpt lat="47.409051730816216" lon="10.863855060774055"><ele>1028.0</ele><time>2026-05-01T07:26:03Z</time></trkpt><trkpt lat="47.40920196722675" lon="10.863655101169117"><ele>1028.0</ele><time>2026-05-01T07:26:04Z</time></trkpt><trkpt lat="47.40936151801821" lon="10.863455046973232"><ele>1028.0</ele><time>2026-05-01T07:26:05Z</time></trkpt><trkpt lat="47.40952179741238" lon="10.86325906242418"><ele>1028.0</ele><time>2026-05-01T07:26:06Z</time></trkpt><trkpt lat="47.409688896746786" lon="10.863070009360815"><ele>1029.0</ele><time>2026-05-01T07:26:07Z</time></trkpt><trkpt lat="47.40986254323336" lon="10.862897377250173"><ele>1030.0</ele><time>2026-05-01T07:26:08Z</time></trkpt><trkpt lat="47.41004059576701" lon="10.86274154973284"><ele>1031.0</ele><time>2026-05-01T07:26:09Z</time></trkpt><trkpt lat="47.4102241908638" lon="10.862590042367662"><ele>1031.0</ele><time>2026-05-01T07:26:10Z</time></trkpt><trkpt lat="47.41040965351211" lon="10.862445011287178"><ele>1031.0</ele><time>2026-05-01T07:26:11Z</time></trkpt><trkpt lat="47.410586638311436" lon="10.862302841211514"><ele>1031.0</ele><time>2026-05-01T07:26:12Z</time></trkpt><trkpt lat="47.41076174103872" lon="10.862147459547222"><ele>1035.0</ele><time>2026-05-01T07:26:13Z</time></trkpt><trkpt lat="47.41092982378255" lon="10.86197491043343"><ele>1039.0</ele><time>2026-05-01T07:26:14Z</time></trkpt><trkpt lat="47.411082971278596" lon="10.861780523364578"><ele>1043.0</ele><time>2026-05-01T07:26:15Z</time></trkpt><trkpt lat="47.41122894603393" lon="10.861565227703945"><ele>1045.6666666666667</ele><time>2026-05-01T07:26:16Z</time></trkpt><trkpt lat="47.411364169552776" lon="10.86133495512504"><ele>1048.3333333333333</ele><time>2026-05-01T07:26:17Z</time></trkpt><trkpt lat="47.41148709291892" lon="10.861092530016043"><ele>1051.0</ele><time>2026-05-01T07:26:18Z</time></trkpt><trkpt lat="47.411601787515224" lon="10.860834066611746"><ele>1051.0</ele><time>2026-05-01T07:26:19Z</time></trkpt><trkpt lat="47.411696995821394" lon="10.86055448568735"><ele>1051.0</ele><time>2026-05-01T07:26:20Z</time></trkpt><trkpt lat="47.41179433171345" lon="10.860274889644325"><ele>1051.0</ele><time>2026-05-01T07:26:21Z</time></trkpt><trkpt lat="47.411881915586854" lon="10.859982117730187"><ele>1049.6666666666665</ele><time>2026-05-01T07:26:22Z</time></trkpt><trkpt lat="47.41197480715843" lon="10.859693752089397"><ele>1048.3333333333333</ele><time>2026-05-01T07:26:23Z</time></trkpt><trkpt lat="47.41206590536187" lon="10.859410470115982"><ele>1047.0</ele><time>2026-05-01T07:26:24Z</time></trkpt><trkpt lat="47.412157197322806" lon="10.859125996321808"><ele>1049.3333333333333</ele><time>2026-05-01T07:26:25Z</time></trkpt><trkpt lat="47.41224794245116" lon="10.85884514528483"><ele>1051.6666666666665</ele><time>2026-05-01T07:26:26Z</time></trkpt><trkpt lat="47.412338058077914" lon="10.858562447097341"><ele>1054.0</ele><time>2026-05-01T07:26:27Z</time></trkpt><trkpt lat="47.412426395975764" lon="10.85828287844214"><ele>1054.0</ele><time>2026-05-01T07:26:28Z</time></trkpt><trkpt lat="47.41251359308711" lon="10.858002416751356"><ele>1054.0</ele><time>2026-05-01T07:26:29Z</time></trkpt><trkpt lat="47.412601896682304" lon="10.85772733481437"><ele>1054.0</ele><time>2026-05-01T07:26:30Z</time></trkpt><trkpt lat="47.41268673436396" lon="10.857462417036482"><ele>1054.0</ele><time>2026-05-01T07:26:31Z</time></trkpt><trkpt lat="47.41276494131995" lon="10.857210531359973"><ele>1054.0</ele><time>2026-05-01T07:26:32Z</time></trkpt><trkpt lat="47.41284482409066" lon="10.856958714442277"><ele>1054.0</ele><time>2026-05-01T07:26:33Z</time></trkpt><trkpt lat="47.41292992621214" lon="10.856704308518106"><ele>1058.6666666666665</ele><time>2026-05-01T07:26:34Z</time></trkpt><trkpt lat="47.4130150147416" lon="10.856450054346316"><ele>1063.3333333333333</ele><time>2026-05-01T07:26:35Z</time></trkpt><trkpt lat="47.413102009426645" lon="10.85620018578775"><ele>1068.0</ele><time>2026-05-01T07:26:36Z</time></trkpt><trkpt lat="47.41319400684961" lon="10.855954964259102"><ele>1065.3333333333333</ele><time>2026-05-01T07:26:37Z</time></trkpt><trkpt lat="47.41329543656569" lon="10.855714431305357"><ele>1062.6666666666665</ele><time>2026-05-01T07:26:38Z</time></trkpt><trkpt lat="47.413409040973534" lon="10.855487245246778"><ele>1060.0</ele><time>2026-05-01T07:26:39Z</time></trkpt><trkpt lat="47.41354163702913" lon="10.85528191235672"><ele>1058.0</ele><time>2026-05-01T07:26:40Z</time></trkpt><trkpt lat="47.41368631000897" lon="10.85509583501487"><ele>1056.0</ele><time>2026-05-01T07:26:41Z</time></trkpt><trkpt lat="47.41383855029028" lon="10.854918431959335"><ele>1054.0</ele><time>2026-05-01T07:26:42Z</time></trkpt><trkpt lat="47.41399369461586" lon="10.854745151263328"><ele>1055.3333333333333</ele><time>2026-05-01T07:26:43Z</time></trkpt><trkpt lat="47.41414704168442" lon="10.854572706176546"><ele>1056.6666666666667</ele><time>2026-05-01T07:26:44Z</time></trkpt><trkpt lat="47.41429946826041" lon="10.854390430554087"><ele>1058.0</ele><time>2026-05-01T07:26:45Z</time></trkpt><trkpt lat="47.41444066232165" lon="10.854193443519746"><ele>1058.0</ele><time>2026-05-01T07:26:46Z</time></trkpt><trkpt lat="47.41456976293327" lon="10.853974158371207"><ele>1058.0</ele><time>2026-05-01T07:26:47Z</time></trkpt><trkpt lat="47.41468732507933" lon="10.853736275721259"><ele>1058.0</ele><time>2026-05-01T07:26:48Z</time></trkpt><trkpt lat="47.41479934766144" lon="10.853492513977386"><ele>1062.6666666666667</ele><time>2026-05-01T07:26:49Z</time></trkpt><trkpt lat="47.41490242168083" lon="10.853236122583109"><ele>1067.3333333333333</ele><time>2026-05-01T07:26:50Z</time></trkpt><trkpt lat="47.41499018316637" lon="10.852975541172004"><ele>1072.0</ele><time>2026-05-01T07:26:51Z</time></trkpt><trkpt lat="47.415053364302274" lon="10.85268940745064"><ele>1068.0</ele><time>2026-05-01T07:26:52Z</time></trkpt><trkpt lat="47.41510733801864" lon="10.85240043395081"><ele>1064.0</ele><time>2026-05-01T07:26:53Z</time></trkpt><trkpt lat="47.41515310232027" lon="10.852104653428036"><ele>1060.0</ele><time>2026-05-01T07:26:54Z</time></trkpt><trkpt lat="47.41519833077902" lon="10.85181191831006"><ele>1060.3333333333333</ele><time>2026-05-01T07:26:55Z</time></trkpt><trkpt lat="47.4152412178445" lon="10.85151158956878"><ele>1060.6666666666667</ele><time>2026-05-01T07:26:56Z</time></trkpt><trkpt lat="47.41528341513342" lon="10.851211614415021"><ele>1061.0</ele><time>2026-05-01T07:26:57Z</time></trkpt><trkpt lat="47.41532548157822" lon="10.850913997984833"><ele>1065.0</ele><time>2026-05-01T07:26:58Z</time></trkpt><trkpt lat="47.4153691102228" lon="10.850617885095954"><ele>1069.0</ele><time>2026-05-01T07:26:59Z</time></trkpt><trkpt lat="47.4154128733205" lon="10.850327448505357"><ele>1073.0</ele><time>2026-05-01T07:27:00Z</time></trkpt><trkpt lat="47.41545956553106" lon="10.85003980527606"><ele>1072.6666666666667</ele><time>2026-05-01T07:27:01Z</time></trkpt><trkpt lat="47.41551191925836" lon="10.849757243333919"><ele>1072.3333333333333</ele><time>2026-05-01T07:27:02Z</time></trkpt><trkpt lat="47.41557225349925" lon="10.849479490591385"><ele>1072.0</ele><time>2026-05-01T07:27:03Z</time></trkpt><trkpt lat="47.415639609863206" lon="10.849214024188587"><ele>1073.3333333333333</ele><time>2026-05-01T07:27:04Z</time></trkpt><trkpt lat="47.41571788171805" lon="10.848945083944386"><ele>1074.6666666666667</ele><time>2026-05-01T07:27:05Z</time></trkpt><trkpt lat="47.415798707675535" lon="10.848692493379062"><ele>1076.0</ele><time>2026-05-01T07:27:06Z</time></trkpt><trkpt lat="47.41588768828577" lon="10.84844996800206"><ele>1077.6666666666667</ele><time>2026-05-01T07:27:07Z</time></trkpt><trkpt lat="47.415984738054135" lon="10.848215077416874"><ele>1079.3333333333333</ele><time>2026-05-01T07:27:08Z</time></trkpt><trkpt lat="47.416085502930756" lon="10.84799280884243"><ele>1081.0</ele><time>2026-05-01T07:27:09Z</time></trkpt><trkpt lat="47.41618615753257" lon="10.847785050212686"><ele>1083.0</ele><time>2026-05-01T07:27:10Z</time></trkpt><trkpt lat="47.416276799266896" lon="10.847593595275045"><ele>1085.0</ele><time>2026-05-01T07:27:11Z</time></trkpt><trkpt lat="47.416364084165686" lon="10.847406445604426"><ele>1087.0</ele><time>2026-05-01T07:27:12Z</time></trkpt><trkpt lat="47.4164426286745" lon="10.847225421281244"><ele>1087.25</ele><time>2026-05-01T07:27:13Z</time></trkpt><trkpt lat="47.41651183632573" lon="10.847058963859162"><ele>1087.5</ele><time>2026-05-01T07:27:14Z</time></trkpt><trkpt lat="47.416575932888925" lon="10.846897865680635"><ele>1087.75</ele><time>2026-05-01T07:27:15Z</time></trkpt><trkpt lat="47.416631418019" lon="10.846726800287218"><ele>1088.0</ele><time>2026-05-01T07:27:16Z</time></trkpt><trkpt lat="47.416676956474774" lon="10.84654885884277"><ele>1088.5</ele><time>2026-05-01T07:27:17Z</time></trkpt><trkpt lat="47.416714308260545" lon="10.846363194817142"><ele>1089.0</ele><time>2026-05-01T07:27:18Z</time></trkpt><trkpt lat="47.416740216694045" lon="10.84617068887445"><ele>1089.5</ele><time>2026-05-01T07:27:19Z</time></trkpt><trkpt lat="47.41676470658615" lon="10.845971155899853"><ele>1090.0</ele><time>2026-05-01T07:27:20Z</time></trkpt><trkpt lat="47.41678918835853" lon="10.845771174664243"><ele>1092.0</ele><time>2026-05-01T07:27:21Z</time></trkpt><trkpt lat="47.41681607669781" lon="10.845570273818359"><ele>1094.0</ele><time>2026-05-01T07:27:22Z</time></trkpt><trkpt lat="47.416848732937865" lon="10.84537110927394"><ele>1096.0</ele><time>2026-05-01T07:27:23Z</time></trkpt><trkpt lat="47.41688639308347" lon="10.845178553539162"><ele>1098.0</ele><time>2026-05-01T07:27:24Z</time></trkpt><trkpt lat="47.41693225239375" lon="10.844986441063956"><ele>1098.75</ele><time>2026-05-01T07:27:25Z</time></trkpt><trkpt lat="47.41698305240323" lon="10.84479600182969"><ele>1099.5</ele><time>2026-05-01T07:27:26Z</time></trkpt><trkpt lat="47.41704006541541" lon="10.844607403338037"><ele>1100.25</ele><time>2026-05-01T07:27:27Z</time></trkpt><trkpt lat="47.417101226067146" lon="10.844422507610222"><ele>1101.0</ele><time>2026-05-01T07:27:28Z</time></trkpt><trkpt lat="47.41716263365436" lon="10.844241230147297"><ele>1101.0</ele><time>2026-05-01T07:27:29Z</time></trkpt><trkpt lat="47.417224038889316" lon="10.844056334947318"><ele>1101.0</ele><time>2026-05-01T07:27:30Z</time></trkpt><trkpt lat="47.417286045552636" lon="10.843871479607198"><ele>1101.0</ele><time>2026-05-01T07:27:31Z</time></trkpt><trkpt lat="47.41734345461911" lon="10.84368900442295"><ele>1101.0</ele><time>2026-05-01T07:27:32Z</time></trkpt><trkpt lat="47.41739755077769" lon="10.843503534444478"><ele>1101.5</ele><time>2026-05-01T07:27:33Z</time></trkpt><trkpt lat="47.417447771331894" lon="10.843315841486708"><ele>1102.0</ele><time>2026-05-01T07:27:34Z</time></trkpt><trkpt lat="47.4174932580671" lon="10.84312821916042"><ele>1102.5</ele><time>2026-05-01T07:27:35Z</time></trkpt><trkpt lat="47.41753496553795" lon="10.842939836505023"><ele>1103.0</ele><time>2026-05-01T07:27:36Z</time></trkpt><trkpt lat="47.41757416891269" lon="10.842746879255813"><ele>1104.3333333333335</ele><time>2026-05-01T07:27:37Z</time></trkpt><trkpt lat="47.417612181747586" lon="10.842539406670127"><ele>1105.6666666666667</ele><time>2026-05-01T07:27:38Z</time></trkpt><trkpt lat="47.41764752740323" lon="10.84232579034905"><ele>1107.0</ele><time>2026-05-01T07:27:39Z</time></trkpt><trkpt lat="47.417677171983385" lon="10.842096037286428"><ele>1107.0</ele><time>2026-05-01T07:27:40Z</time></trkpt><trkpt lat="47.41770418364141" lon="10.84186121849208"><ele>1107.0</ele><time>2026-05-01T07:27:41Z</time></trkpt><trkpt lat="47.417730239152235" lon="10.841613807135706"><ele>1107.0</ele><time>2026-05-01T07:27:42Z</time></trkpt><trkpt lat="47.41775888390772" lon="10.841369133393378"><ele>1108.3333333333333</ele><time>2026-05-01T07:27:43Z</time></trkpt><trkpt lat="47.41778799987005" lon="10.84112771638013"><ele>1109.6666666666665</ele><time>2026-05-01T07:27:44Z</time></trkpt><trkpt lat="47.41781641811018" lon="10.840866756323898"><ele>1111.0</ele><time>2026-05-01T07:27:45Z</time></trkpt><trkpt lat="47.41784593747964" lon="10.840604436335045"><ele>1112.3333333333333</ele><time>2026-05-01T07:27:46Z</time></trkpt><trkpt lat="47.417873310595894" lon="10.840324805592713"><ele>1113.6666666666667</ele><time>2026-05-01T07:27:47Z</time></trkpt><trkpt lat="47.4178992460866" lon="10.84005644202229"><ele>1115.0</ele><time>2026-05-01T07:27:48Z</time></trkpt><trkpt lat="47.41792569711983" lon="10.839785318489243"><ele>1115.3333333333335</ele><time>2026-05-01T07:27:49Z</time></trkpt><trkpt lat="47.41795188054599" lon="10.839502233034699"><ele>1115.6666666666667</ele><time>2026-05-01T07:27:50Z</time></trkpt><trkpt lat="47.41796976075489" lon="10.83921419966136"><ele>1116.0</ele><time>2026-05-01T07:27:51Z</time></trkpt><trkpt lat="47.417980195939066" lon="10.838922823858965"><ele>1114.3333333333333</ele><time>2026-05-01T07:27:52Z</time></trkpt><trkpt lat="47.417985273316354" lon="10.838627322493204"><ele>1112.6666666666665</ele><time>2026-05-01T07:27:53Z</time></trkpt><trkpt lat="47.4179861040325" lon="10.838329885847692"><ele>1111.0</ele><time>2026-05-01T07:27:54Z</time></trkpt><trkpt lat="47.4179829292554" lon="10.838028782363674"><ele>1112.3333333333333</ele><time>2026-05-01T07:27:55Z</time></trkpt><trkpt lat="47.417982963857355" lon="10.837727998316806"><ele>1113.6666666666667</ele><time>2026-05-01T07:27:56Z</time></trkpt><trkpt lat="47.417982767906885" lon="10.837424215453973"><ele>1115.0</ele><time>2026-05-01T07:27:57Z</time></trkpt><trkpt lat="47.417985749161815" lon="10.837125802359983"><ele>1115.0</ele><time>2026-05-01T07:27:58Z</time></trkpt><trkpt lat="47.417990692358195" lon="10.83682461237768"><ele>1115.0</ele><time>2026-05-01T07:27:59Z</time></trkpt><trkpt lat="47.41799624937199" lon="10.836526099886314"><ele>1115.0</ele><time>2026-05-01T07:28:00Z</time></trkpt><trkpt lat="47.41799767597882" lon="10.836226583878341"><ele>1115.3333333333335</ele><time>2026-05-01T07:28:01Z</time></trkpt><trkpt lat="47.41799580978889" lon="10.835925865949282"><ele>1115.6666666666667</ele><time>2026-05-01T07:28:02Z</time></trkpt><trkpt lat="47.41799030265614" lon="10.835625607148353"><ele>1116.0</ele><time>2026-05-01T07:28:03Z</time></trkpt><trkpt lat="47.417981063914524" lon="10.835325408396178"><ele>1118.3333333333333</ele><time>2026-05-01T07:28:04Z</time></trkpt><trkpt lat="47.41797000528974" lon="10.835022807007913"><ele>1120.6666666666665</ele><time>2026-05-01T07:28:05Z</time></trkpt><trkpt lat="47.41795928101495" lon="10.83471628018736"><ele>1123.0</ele><time>2026-05-01T07:28:06Z</time></trkpt><trkpt lat="47.41794843263489" lon="10.83441028381176"><ele>1122.0</ele><time>2026-05-01T07:28:07Z</time></trkpt><trkpt lat="47.41793149522754" lon="10.834106637027297"><ele>1121.0</ele><time>2026-05-01T07:28:08Z</time></trkpt><trkpt lat="47.417920184879094" lon="10.83380329864081"><ele>1120.0</ele><time>2026-05-01T07:28:09Z</time></trkpt><trkpt lat="47.41791470607759" lon="10.833496068170087"><ele>1118.6666666666665</ele><time>2026-05-01T07:28:10Z</time></trkpt><trkpt lat="47.41790979315889" lon="10.833183185242074"><ele>1117.3333333333333</ele><time>2026-05-01T07:28:11Z</time></trkpt><trkpt lat="47.41791224512324" lon="10.832867756862456"><ele>1116.0</ele><time>2026-05-01T07:28:12Z</time></trkpt><trkpt lat="47.41792149635031" lon="10.832547255780376"><ele>1115.0</ele><time>2026-05-01T07:28:13Z</time></trkpt><trkpt lat="47.4179387806414" lon="10.832226435849924"><ele>1114.0</ele><time>2026-05-01T07:28:14Z</time></trkpt><trkpt lat="47.417963246695024" lon="10.831906015911526"><ele>1113.0</ele><time>2026-05-01T07:28:15Z</time></trkpt><trkpt lat="47.41799592160499" lon="10.831581190578088"><ele>1110.3333333333333</ele><time>2026-05-01T07:28:16Z</time></trkpt><trkpt lat="47.41803501332553" lon="10.831257935598794"><ele>1107.6666666666665</ele><time>2026-05-01T07:28:17Z</time></trkpt><trkpt lat="47.41807907955408" lon="10.83093763385315"><ele>1105.0</ele><time>2026-05-01T07:28:18Z</time></trkpt><trkpt lat="47.41812303873727" lon="10.830617673631906"><ele>1104.6666666666665</ele><time>2026-05-01T07:28:19Z</time></trkpt><trkpt lat="47.41816366699514" lon="10.830299834775543"><ele>1104.3333333333333</ele><time>2026-05-01T07:28:20Z</time></trkpt><trkpt lat="47.41819936278238" lon="10.829976584167154"><ele>1104.0</ele><time>2026-05-01T07:28:21Z</time></trkpt><trkpt lat="47.418229673300246" lon="10.8296531727019"><ele>1103.3333333333333</ele><time>2026-05-01T07:28:22Z</time></trkpt><trkpt lat="47.418251896304255" lon="10.8293295656727"><ele>1102.6666666666665</ele><time>2026-05-01T07:28:23Z</time></trkpt><trkpt lat="47.41826483275567" lon="10.829004819102284"><ele>1102.0</ele><time>2026-05-01T07:28:24Z</time></trkpt><trkpt lat="47.418271364526746" lon="10.82868532589075"><ele>1100.0</ele><time>2026-05-01T07:28:25Z</time></trkpt><trkpt lat="47.41827898614219" lon="10.828361605479612"><ele>1098.0</ele><time>2026-05-01T07:28:26Z</time></trkpt><trkpt lat="47.41828703127545" lon="10.828035905812051"><ele>1096.0</ele><time>2026-05-01T07:28:27Z</time></trkpt><trkpt lat="47.41829373038791" lon="10.827707398042847"><ele>1096.0</ele><time>2026-05-01T07:28:28Z</time></trkpt><trkpt lat="47.41829703484117" lon="10.827384651785106"><ele>1096.0</ele><time>2026-05-01T07:28:29Z</time></trkpt><trkpt lat="47.418297076992054" lon="10.8270588711684"><ele>1096.0</ele><time>2026-05-01T07:28:30Z</time></trkpt><trkpt lat="47.418298459040464" lon="10.82672934915995"><ele>1094.6666666666665</ele><time>2026-05-01T07:28:31Z</time></trkpt><trkpt lat="47.41830310968917" lon="10.826403892957128"><ele>1093.3333333333333</ele><time>2026-05-01T07:28:32Z</time></trkpt><trkpt lat="47.418309664810685" lon="10.826080044010116"><ele>1092.0</ele><time>2026-05-01T07:28:33Z</time></trkpt><trkpt lat="47.41831685694317" lon="10.825758167573142"><ele>1092.0</ele><time>2026-05-01T07:28:34Z</time></trkpt><trkpt lat="47.41832361948023" lon="10.825441239505095"><ele>1092.0</ele><time>2026-05-01T07:28:35Z</time></trkpt><trkpt lat="47.41833042530953" lon="10.82512756487899"><ele>1092.0</ele><time>2026-05-01T07:28:36Z</time></trkpt><trkpt lat="47.41833919840011" lon="10.824812859288716"><ele>1092.0</ele><time>2026-05-01T07:28:37Z</time></trkpt><trkpt lat="47.418349936691385" lon="10.824498099174917"><ele>1092.0</ele><time>2026-05-01T07:28:38Z</time></trkpt><trkpt lat="47.418361477989436" lon="10.824182922228571"><ele>1092.0</ele><time>2026-05-01T07:28:39Z</time></trkpt><trkpt lat="47.41837437343634" lon="10.82387042775028"><ele>1091.3333333333333</ele><time>2026-05-01T07:28:40Z</time></trkpt><trkpt lat="47.41838846818813" lon="10.823555309414623"><ele>1090.6666666666665</ele><time>2026-05-01T07:28:41Z</time></trkpt><trkpt lat="47.4184025363178" lon="10.823244470591465"><ele>1090.0</ele><time>2026-05-01T07:28:42Z</time></trkpt><trkpt lat="47.418417593859814" lon="10.822933419528669"><ele>1088.6666666666665</ele><time>2026-05-01T07:28:43Z</time></trkpt><trkpt lat="47.41843303364881" lon="10.82262447267573"><ele>1087.3333333333333</ele><time>2026-05-01T07:28:44Z</time></trkpt><trkpt lat="47.41844867876113" lon="10.822313787352389"><ele>1086.0</ele><time>2026-05-01T07:28:45Z</time></trkpt><trkpt lat="47.41846434604204" lon="10.822007569377359"><ele>1085.6666666666667</ele><time>2026-05-01T07:28:46Z</time></trkpt><trkpt lat="47.41848097757019" lon="10.821697403750129"><ele>1085.3333333333335</ele><time>2026-05-01T07:28:47Z</time></trkpt><trkpt lat="47.418497114282495" lon="10.82138869026034"><ele>1085.0</ele><time>2026-05-01T07:28:48Z</time></trkpt><trkpt lat="47.41851224449467" lon="10.821080634510409"><ele>1085.0</ele><time>2026-05-01T07:28:49Z</time></trkpt><trkpt lat="47.41852558626344" lon="10.820769291566203"><ele>1085.0</ele><time>2026-05-01T07:28:50Z</time></trkpt><trkpt lat="47.4185368092913" lon="10.820456674815564"><ele>1085.0</ele><time>2026-05-01T07:28:51Z</time></trkpt><trkpt lat="47.41854449226532" lon="10.820144229201418"><ele>1083.3333333333335</ele><time>2026-05-01T07:28:52Z</time></trkpt><trkpt lat="47.41854649653019" lon="10.819834611440458"><ele>1081.6666666666667</ele><time>2026-05-01T07:28:53Z</time></trkpt><trkpt lat="47.41854176864061" lon="10.819522180268336"><ele>1080.0</ele><time>2026-05-01T07:28:54Z</time></trkpt><trkpt lat="47.41853170993161" lon="10.81920899535428"><ele>1080.0</ele><time>2026-05-01T07:28:55Z</time></trkpt><trkpt lat="47.41851623432917" lon="10.818897836823366"><ele>1080.0</ele><time>2026-05-01T07:28:56Z</time></trkpt><trkpt lat="47.41849416761014" lon="10.81858726720186"><ele>1080.0</ele><time>2026-05-01T07:28:57Z</time></trkpt><trkpt lat="47.41846472402969" lon="10.818276506965079"><ele>1080.0</ele><time>2026-05-01T07:28:58Z</time></trkpt><trkpt lat="47.41842853422934" lon="10.81796717193164"><ele>1080.0</ele><time>2026-05-01T07:28:59Z</time></trkpt><trkpt lat="47.41838557572886" lon="10.81766107257368"><ele>1080.0</ele><time>2026-05-01T07:29:00Z</time></trkpt><trkpt lat="47.41833875460732" lon="10.817355038876784"><ele>1079.6666666666667</ele><time>2026-05-01T07:29:01Z</time></trkpt><trkpt lat="47.418288709273334" lon="10.817049900719947"><ele>1079.3333333333335</ele><time>2026-05-01T07:29:02Z</time></trkpt><trkpt lat="47.41823895581011" lon="10.816747519609336"><ele>1079.0</ele><time>2026-05-01T07:29:03Z</time></trkpt><trkpt lat="47.41818767193149" lon="10.816446218495589"><ele>1079.0</ele><time>2026-05-01T07:29:04Z</time></trkpt><trkpt lat="47.41813633567656" lon="10.816147538093595"><ele>1079.0</ele><time>2026-05-01T07:29:05Z</time></trkpt><trkpt lat="47.41808616862496" lon="10.81584488572752"><ele>1079.0</ele><time>2026-05-01T07:29:06Z</time></trkpt><trkpt lat="47.4180383882076" lon="10.815540939186283"><ele>1077.6666666666667</ele><time>2026-05-01T07:29:07Z</time></trkpt><trkpt lat="47.41799395336084" lon="10.81523727885836"><ele>1076.3333333333333</ele><time>2026-05-01T07:29:08Z</time></trkpt><trkpt lat="47.4179529959745" lon="10.814927051421114"><ele>1075.0</ele><time>2026-05-01T07:29:09Z</time></trkpt><trkpt lat="47.41791730751091" lon="10.814616678421423"><ele>1077.3333333333333</ele><time>2026-05-01T07:29:10Z</time></trkpt><trkpt lat="47.41788687670212" lon="10.814305518685456"><ele>1079.6666666666667</ele><time>2026-05-01T07:29:11Z</time></trkpt><trkpt lat="47.41786288427903" lon="10.81399540619455"><ele>1082.0</ele><time>2026-05-01T07:29:12Z</time></trkpt><trkpt lat="47.417844419879636" lon="10.813683994311429"><ele>1085.0</ele><time>2026-05-01T07:29:13Z</time></trkpt><trkpt lat="47.41783147194979" lon="10.813372420388252"><ele>1088.0</ele><time>2026-05-01T07:29:14Z</time></trkpt><trkpt lat="47.41782540827316" lon="10.813063349540988"><ele>1091.0</ele><time>2026-05-01T07:29:15Z</time></trkpt><trkpt lat="47.417828917221186" lon="10.81275572408123"><ele>1091.0</ele><time>2026-05-01T07:29:16Z</time></trkpt><trkpt lat="47.41783878051422" lon="10.812451655267168"><ele>1091.0</ele><time>2026-05-01T07:29:17Z</time></trkpt><trkpt lat="47.41785299748877" lon="10.81214152503965"><ele>1091.0</ele><time>2026-05-01T07:29:18Z</time></trkpt><trkpt lat="47.41786969792771" lon="10.811836835321447"><ele>1092.0</ele><time>2026-05-01T07:29:19Z</time></trkpt><trkpt lat="47.41788901283476" lon="10.81152826141257"><ele>1093.0</ele><time>2026-05-01T07:29:20Z</time></trkpt><trkpt lat="47.4179091922249" lon="10.81121955023033"><ele>1094.0</ele><time>2026-05-01T07:29:21Z</time></trkpt><trkpt lat="47.41792995773609" lon="10.8109107321491"><ele>1094.6666666666667</ele><time>2026-05-01T07:29:22Z</time></trkpt><trkpt lat="47.41795209262162" lon="10.810598887776735"><ele>1095.3333333333333</ele><time>2026-05-01T07:29:23Z</time></trkpt><trkpt lat="47.41797474821622" lon="10.810283718223918"><ele>1096.0</ele><time>2026-05-01T07:29:24Z</time></trkpt><trkpt lat="47.417995972674895" lon="10.809971803348212"><ele>1093.3333333333333</ele><time>2026-05-01T07:29:25Z</time></trkpt><trkpt lat="47.41801558960697" lon="10.809658796856768"><ele>1090.6666666666667</ele><time>2026-05-01T07:29:26Z</time></trkpt><trkpt lat="47.41803300794192" lon="10.809358087719069"><ele>1088.0</ele><time>2026-05-01T07:29:27Z</time></trkpt><trkpt lat="47.418045957401745" lon="10.809067969241752"><ele>1088.0</ele><time>2026-05-01T07:29:28Z</time></trkpt><trkpt lat="47.41805577920218" lon="10.808772019864005"><ele>1088.0</ele><time>2026-05-01T07:29:29Z</time></trkpt><trkpt lat="47.41805996069518" lon="10.808479903174426"><ele>1088.0</ele><time>2026-05-01T07:29:30Z</time></trkpt><trkpt lat="47.41805780828356" lon="10.808192974702212"><ele>1089.3333333333335</ele><time>2026-05-01T07:29:31Z</time></trkpt><trkpt lat="47.41804990631418" lon="10.807925655710223"><ele>1090.6666666666667</ele><time>2026-05-01T07:29:32Z</time></trkpt><trkpt lat="47.41803700148645" lon="10.807666384016581"><ele>1092.0</ele><time>2026-05-01T07:29:33Z</time></trkpt><trkpt lat="47.4180204010717" lon="10.807408547994354"><ele>1092.0</ele><time>2026-05-01T07:29:34Z</time></trkpt><trkpt lat="47.418000020219615" lon="10.807143292373448"><ele>1092.0</ele><time>2026-05-01T07:29:35Z</time></trkpt><trkpt lat="47.41797241274404" lon="10.806870809710784"><ele>1092.0</ele><time>2026-05-01T07:29:36Z</time></trkpt><trkpt lat="47.41793845615944" lon="10.806594922814904"><ele>1091.6666666666667</ele><time>2026-05-01T07:29:37Z</time></trkpt><trkpt lat="47.41789738856794" lon="10.80632173891873"><ele>1091.3333333333335</ele><time>2026-05-01T07:29:38Z</time></trkpt><trkpt lat="47.41784850664953" lon="10.806043010390798"><ele>1091.0</ele><time>2026-05-01T07:29:39Z</time></trkpt><trkpt lat="47.41779596592957" lon="10.805765879072315"><ele>1090.0</ele><time>2026-05-01T07:29:40Z</time></trkpt><trkpt lat="47.41774003260135" lon="10.805487509298883"><ele>1089.0</ele><time>2026-05-01T07:29:41Z</time></trkpt><trkpt lat="47.41767979781163" lon="10.805207011527171"><ele>1088.0</ele><time>2026-05-01T07:29:42Z</time></trkpt><trkpt lat="47.417615512694034" lon="10.804927330120197"><ele>1087.3333333333335</ele><time>2026-05-01T07:29:43Z</time></trkpt><trkpt lat="47.41754773836335" lon="10.804648037652433"><ele>1086.6666666666667</ele><time>2026-05-01T07:29:44Z</time></trkpt><trkpt lat="47.41747782789045" lon="10.80436644110118"><ele>1086.0</ele><time>2026-05-01T07:29:45Z</time></trkpt><trkpt lat="47.41740683256508" lon="10.804085257949737"><ele>1084.0</ele><time>2026-05-01T07:29:46Z</time></trkpt><trkpt lat="47.41733943907894" lon="10.80380253319108"><ele>1082.0</ele><time>2026-05-01T07:29:47Z</time></trkpt><trkpt lat="47.41727552764703" lon="10.803518548562474"><ele>1080.0</ele><time>2026-05-01T07:29:48Z</time></trkpt><trkpt lat="47.417215625160665" lon="10.80323523924119"><ele>1080.3333333333333</ele><time>2026-05-01T07:29:49Z</time></trkpt><trkpt lat="47.41716541833084" lon="10.802960141140058"><ele>1080.6666666666665</ele><time>2026-05-01T07:29:50Z</time></trkpt><trkpt lat="47.417121820440194" lon="10.80268243715207"><ele>1081.0</ele><time>2026-05-01T07:29:51Z</time></trkpt><trkpt lat="47.417087665500034" lon="10.802397859857628"><ele>1080.0</ele><time>2026-05-01T07:29:52Z</time></trkpt><trkpt lat="47.417062668836465" lon="10.802107193027773"><ele>1079.0</ele><time>2026-05-01T07:29:53Z</time></trkpt><trkpt lat="47.41705100324987" lon="10.801815014477036"><ele>1078.0</ele><time>2026-05-01T07:29:54Z</time></trkpt><trkpt lat="47.41704975007126" lon="10.801522117981804"><ele>1077.0</ele><time>2026-05-01T07:29:55Z</time></trkpt><trkpt lat="47.417060393384205" lon="10.801233162847756"><ele>1076.0</ele><time>2026-05-01T07:29:56Z</time></trkpt><trkpt lat="47.417081676220356" lon="10.800948382678962"><ele>1075.0</ele><time>2026-05-01T07:29:57Z</time></trkpt><trkpt lat="47.41711366109649" lon="10.80066798598302"><ele>1075.0</ele><time>2026-05-01T07:29:58Z</time></trkpt><trkpt lat="47.417156752117464" lon="10.800391998258267"><ele>1075.0</ele><time>2026-05-01T07:29:59Z</time></trkpt><trkpt lat="47.4172089547441" lon="10.80012221852399"><ele>1075.0</ele><time>2026-05-01T07:30:00Z</time></trkpt><trkpt lat="47.417270524463326" lon="10.799859566803276"><ele>1074.0</ele><time>2026-05-01T07:30:01Z</time></trkpt><trkpt lat="47.417341017793916" lon="10.799603345710096"><ele>1073.0</ele><time>2026-05-01T07:30:02Z</time></trkpt><trkpt lat="47.41741929645769" lon="10.799349633919412"><ele>1072.0</ele><time>2026-05-01T07:30:03Z</time></trkpt><trkpt lat="47.41750422966707" lon="10.799099831368787"><ele>1071.6666666666665</ele><time>2026-05-01T07:30:04Z</time></trkpt><trkpt lat="47.41759613077582" lon="10.798851999282656"><ele>1071.3333333333333</ele><time>2026-05-01T07:30:05Z</time></trkpt><trkpt lat="47.41769489868375" lon="10.79860514133619"><ele>1071.0</ele><time>2026-05-01T07:30:06Z</time></trkpt><trkpt lat="47.41779861738896" lon="10.798363073966781"><ele>1071.3333333333333</ele><time>2026-05-01T07:30:07Z</time></trkpt><trkpt lat="47.41790575747882" lon="10.798122640889066"><ele>1071.6666666666665</ele><time>2026-05-01T07:30:08Z</time></trkpt><trkpt lat="47.41802022196506" lon="10.797884713050836"><ele>1072.0</ele><time>2026-05-01T07:30:09Z</time></trkpt><trkpt lat="47.418141299973456" lon="10.797653299480208"><ele>1072.6666666666665</ele><time>2026-05-01T07:30:10Z</time></trkpt><trkpt lat="47.41827008480358" lon="10.79742798248913"><ele>1073.3333333333333</ele><time>2026-05-01T07:30:11Z</time></trkpt><trkpt lat="47.41840314738096" lon="10.797208312422368"><ele>1074.0</ele><time>2026-05-01T07:30:12Z</time></trkpt><trkpt lat="47.41854135006142" lon="10.796993046004987"><ele>1074.3333333333333</ele><time>2026-05-01T07:30:13Z</time></trkpt><trkpt lat="47.41868272809066" lon="10.796776595546788"><ele>1074.6666666666665</ele><time>2026-05-01T07:30:14Z</time></trkpt><trkpt lat="47.418827764340385" lon="10.796557158070968"><ele>1075.0</ele><time>2026-05-01T07:30:15Z</time></trkpt><trkpt lat="47.41897612476474" lon="10.796338164031399"><ele>1075.0</ele><time>2026-05-01T07:30:16Z</time></trkpt><trkpt lat="47.41912790145868" lon="10.79612070594259"><ele>1075.0</ele><time>2026-05-01T07:30:17Z</time></trkpt><trkpt lat="47.41928306224137" lon="10.795897930326907"><ele>1075.0</ele><time>2026-05-01T07:30:18Z</time></trkpt><trkpt lat="47.419435718035395" lon="10.79567655604488"><ele>1075.0</ele><time>2026-05-01T07:30:19Z</time></trkpt><trkpt lat="47.419585324984446" lon="10.795453850737376"><ele>1075.0</ele><time>2026-05-01T07:30:20Z</time></trkpt><trkpt lat="47.41973240305826" lon="10.795231483370785"><ele>1075.0</ele><time>2026-05-01T07:30:21Z</time></trkpt><trkpt lat="47.41987943110834" lon="10.795002992768845"><ele>1075.3333333333333</ele><time>2026-05-01T07:30:22Z</time></trkpt><trkpt lat="47.420023488196406" lon="10.794771394186602"><ele>1075.6666666666667</ele><time>2026-05-01T07:30:23Z</time></trkpt><trkpt lat="47.42016728657335" lon="10.794536878071371"><ele>1076.0</ele><time>2026-05-01T07:30:24Z</time></trkpt><trkpt lat="47.42031007409428" lon="10.79429890738765"><ele>1076.0</ele><time>2026-05-01T07:30:25Z</time></trkpt><trkpt lat="47.420450978542604" lon="10.79405924797076"><ele>1076.0</ele><time>2026-05-01T07:30:26Z</time></trkpt><trkpt lat="47.42059012008433" lon="10.793816502620631"><ele>1076.0</ele><time>2026-05-01T07:30:27Z</time></trkpt><trkpt lat="47.42072664471593" lon="10.793570081777332"><ele>1075.3333333333335</ele><time>2026-05-01T07:30:28Z</time></trkpt><trkpt lat="47.420861804234235" lon="10.793319646156453"><ele>1074.6666666666667</ele><time>2026-05-01T07:30:29Z</time></trkpt><trkpt lat="47.420994762742716" lon="10.793067824328752"><ele>1074.0</ele><time>2026-05-01T07:30:30Z</time></trkpt><trkpt lat="47.421126077843965" lon="10.792814361265354"><ele>1073.6666666666667</ele><time>2026-05-01T07:30:31Z</time></trkpt><trkpt lat="47.42125395518437" lon="10.792560331816189"><ele>1073.3333333333335</ele><time>2026-05-01T07:30:32Z</time></trkpt><trkpt lat="47.42137749613892" lon="10.792302029595577"><ele>1073.0</ele><time>2026-05-01T07:30:33Z</time></trkpt><trkpt lat="47.42149705303015" lon="10.792038422706613"><ele>1073.6666666666667</ele><time>2026-05-01T07:30:34Z</time></trkpt><trkpt lat="47.42161339135488" lon="10.791768467337604"><ele>1074.3333333333333</ele><time>2026-05-01T07:30:35Z</time></trkpt><trkpt lat="47.42172422152521" lon="10.791495412656426"><ele>1075.0</ele><time>2026-05-01T07:30:36Z</time></trkpt><trkpt lat="47.42183114060538" lon="10.791214685248292"><ele>1074.6666666666665</ele><time>2026-05-01T07:30:37Z</time></trkpt><trkpt lat="47.4219298907056" lon="10.79092995646751"><ele>1074.3333333333333</ele><time>2026-05-01T07:30:38Z</time></trkpt><trkpt lat="47.422020594622815" lon="10.790640360740719"><ele>1074.0</ele><time>2026-05-01T07:30:39Z</time></trkpt><trkpt lat="47.42210501196718" lon="10.79034661550675"><ele>1073.3333333333333</ele><time>2026-05-01T07:30:40Z</time></trkpt><trkpt lat="47.422185075596815" lon="10.790046460003188"><ele>1072.6666666666665</ele><time>2026-05-01T07:30:41Z</time></trkpt><trkpt lat="47.42226029252449" lon="10.789742076591317"><ele>1072.0</ele><time>2026-05-01T07:30:42Z</time></trkpt><trkpt lat="47.42233062310265" lon="10.789437956464191"><ele>1071.6666666666665</ele><time>2026-05-01T07:30:43Z</time></trkpt><trkpt lat="47.422394885070865" lon="10.789130762975633"><ele>1071.3333333333333</ele><time>2026-05-01T07:30:44Z</time></trkpt><trkpt lat="47.42245273604856" lon="10.788819451091555"><ele>1071.0</ele><time>2026-05-01T07:30:45Z</time></trkpt><trkpt lat="47.422501523151375" lon="10.788512163238405"><ele>1071.0</ele><time>2026-05-01T07:30:46Z</time></trkpt><trkpt lat="47.42254302866618" lon="10.78821114150008"><ele>1071.0</ele><time>2026-05-01T07:30:47Z</time></trkpt><trkpt lat="47.42257800947842" lon="10.78790527966239"><ele>1071.0</ele><time>2026-05-01T07:30:48Z</time></trkpt><trkpt lat="47.42260730472503" lon="10.787593917000489"><ele>1071.0</ele><time>2026-05-01T07:30:49Z</time></trkpt><trkpt lat="47.422631497307265" lon="10.787279937105177"><ele>1071.0</ele><time>2026-05-01T07:30:50Z</time></trkpt><trkpt lat="47.42265273577022" lon="10.786965149904994"><ele>1071.0</ele><time>2026-05-01T07:30:51Z</time></trkpt><trkpt lat="47.422672196985076" lon="10.786651113199035"><ele>1071.0</ele><time>2026-05-01T07:30:52Z</time></trkpt><trkpt lat="47.42269181997048" lon="10.786336549582375"><ele>1071.0</ele><time>2026-05-01T07:30:53Z</time></trkpt><trkpt lat="47.42271045917174" lon="10.786025782522147"><ele>1071.0</ele><time>2026-05-01T07:30:54Z</time></trkpt><trkpt lat="47.422732162991764" lon="10.78571717011384"><ele>1071.0</ele><time>2026-05-01T07:30:55Z</time></trkpt><trkpt lat="47.4227551563731" lon="10.785415581491183"><ele>1071.0</ele><time>2026-05-01T07:30:56Z</time></trkpt><trkpt lat="47.42278130278386" lon="10.785108380342814"><ele>1071.0</ele><time>2026-05-01T07:30:57Z</time></trkpt><trkpt lat="47.42281135504929" lon="10.784808419682593"><ele>1070.3333333333333</ele><time>2026-05-01T07:30:58Z</time></trkpt><trkpt lat="47.422849530658354" lon="10.784513862990284"><ele>1069.6666666666665</ele><time>2026-05-01T07:30:59Z</time></trkpt><trkpt lat="47.422897848341215" lon="10.784225902672924"><ele>1069.0</ele><time>2026-05-01T07:31:00Z</time></trkpt><trkpt lat="47.42295454628486" lon="10.783939544458988"><ele>1067.0</ele><time>2026-05-01T07:31:01Z</time></trkpt><trkpt lat="47.42301579317494" lon="10.783655449739404"><ele>1065.0</ele><time>2026-05-01T07:31:02Z</time></trkpt><trkpt lat="47.423078039755666" lon="10.783370157038627"><ele>1063.0</ele><time>2026-05-01T07:31:03Z</time></trkpt><trkpt lat="47.4231398977992" lon="10.783091735069307"><ele>1062.0</ele><time>2026-05-01T07:31:04Z</time></trkpt><trkpt lat="47.42320439464713" lon="10.782818094428713"><ele>1061.0</ele><time>2026-05-01T07:31:05Z</time></trkpt><trkpt lat="47.423271899536054" lon="10.782552337455774"><ele>1060.0</ele><time>2026-05-01T07:31:06Z</time></trkpt><trkpt lat="47.423348366092696" lon="10.782285203787419"><ele>1060.0</ele><time>2026-05-01T07:31:07Z</time></trkpt><trkpt lat="47.423435367173184" lon="10.782021781907043"><ele>1060.0</ele><time>2026-05-01T07:31:08Z</time></trkpt><trkpt lat="47.42353084566574" lon="10.781762036239746"><ele>1060.0</ele><time>2026-05-01T07:31:09Z</time></trkpt><trkpt lat="47.4236326281802" lon="10.78150024730969"><ele>1060.3333333333333</ele><time>2026-05-01T07:31:10Z</time></trkpt><trkpt lat="47.4237416170621" lon="10.781241481262292"><ele>1060.6666666666667</ele><time>2026-05-01T07:31:11Z</time></trkpt><trkpt lat="47.42385815848379" lon="10.780983857660038"><ele>1061.0</ele><time>2026-05-01T07:31:12Z</time></trkpt><trkpt lat="47.42398275903062" lon="10.780730411283496"><ele>1060.6666666666667</ele><time>2026-05-01T07:31:13Z</time></trkpt><trkpt lat="47.42411400495553" lon="10.78048252297461"><ele>1060.3333333333333</ele><time>2026-05-01T07:31:14Z</time></trkpt><trkpt lat="47.42425370438641" lon="10.780244033446694"><ele>1060.0</ele><time>2026-05-01T07:31:15Z</time></trkpt><trkpt lat="47.424401408852525" lon="10.780009994508202"><ele>1060.0</ele><time>2026-05-01T07:31:16Z</time></trkpt><trkpt lat="47.42455569559047" lon="10.779783743372644"><ele>1060.0</ele><time>2026-05-01T07:31:17Z</time></trkpt><trkpt lat="47.42471511379941" lon="10.779563582722025"><ele>1060.0</ele><time>2026-05-01T07:31:18Z</time></trkpt><trkpt lat="47.42487839023437" lon="10.779353213348717"><ele>1058.0</ele><time>2026-05-01T07:31:19Z</time></trkpt><trkpt lat="47.4250480093556" lon="10.779150156258416"><ele>1056.0</ele><time>2026-05-01T07:31:20Z</time></trkpt><trkpt lat="47.42522315243822" lon="10.778957956466828"><ele>1054.0</ele><time>2026-05-01T07:31:21Z</time></trkpt><trkpt lat="47.425403692436" lon="10.778780723950025"><ele>1053.6666666666665</ele><time>2026-05-01T07:31:22Z</time></trkpt><trkpt lat="47.42558951076717" lon="10.77861484220799"><ele>1053.3333333333333</ele><time>2026-05-01T07:31:23Z</time></trkpt><trkpt lat="47.42577986010469" lon="10.77845749898499"><ele>1053.0</ele><time>2026-05-01T07:31:24Z</time></trkpt><trkpt lat="47.42597219083494" lon="10.778309903193225"><ele>1053.0</ele><time>2026-05-01T07:31:25Z</time></trkpt><trkpt lat="47.426168512801524" lon="10.778170119302427"><ele>1053.0</ele><time>2026-05-01T07:31:26Z</time></trkpt><trkpt lat="47.42636706930017" lon="10.77803956587252"><ele>1053.0</ele><time>2026-05-01T07:31:27Z</time></trkpt><trkpt lat="47.42656725915805" lon="10.77791757313006"><ele>1052.0</ele><time>2026-05-01T07:31:28Z</time></trkpt><trkpt lat="47.42676827399887" lon="10.777806899920776"><ele>1051.0</ele><time>2026-05-01T07:31:29Z</time></trkpt><trkpt lat="47.426970652132084" lon="10.777709443151444"><ele>1050.0</ele><time>2026-05-01T07:31:30Z</time></trkpt><trkpt lat="47.427174243016005" lon="10.777622530193566"><ele>1048.0</ele><time>2026-05-01T07:31:31Z</time></trkpt><trkpt lat="47.42737711756157" lon="10.777546060808483"><ele>1046.0</ele><time>2026-05-01T07:31:32Z</time></trkpt><trkpt lat="47.427580877404345" lon="10.77747197644578"><ele>1044.0</ele><time>2026-05-01T07:31:33Z</time></trkpt><trkpt lat="47.427785821911975" lon="10.777399386119958"><ele>1044.0</ele><time>2026-05-01T07:31:34Z</time></trkpt><trkpt lat="47.42798949149687" lon="10.777331015718515"><ele>1044.0</ele><time>2026-05-01T07:31:35Z</time></trkpt><trkpt lat="47.42819390377045" lon="10.777259066740232"><ele>1044.0</ele><time>2026-05-01T07:31:36Z</time></trkpt><trkpt lat="47.428401339703306" lon="10.777183340223507"><ele>1044.0</ele><time>2026-05-01T07:31:37Z</time></trkpt><trkpt lat="47.428607019946064" lon="10.77710739418811"><ele>1044.0</ele><time>2026-05-01T07:31:38Z</time></trkpt><trkpt lat="47.42880721394647" lon="10.777028440817205"><ele>1044.0</ele><time>2026-05-01T07:31:39Z</time></trkpt><trkpt lat="47.429006564809725" lon="10.776942352479484"><ele>1044.6666666666667</ele><time>2026-05-01T07:31:40Z</time></trkpt><trkpt lat="47.42920915555917" lon="10.776847407023544"><ele>1045.3333333333335</ele><time>2026-05-01T07:31:41Z</time></trkpt><trkpt lat="47.42941083401417" lon="10.776738720278598"><ele>1046.0</ele><time>2026-05-01T07:31:42Z</time></trkpt><trkpt lat="47.42961392487687" lon="10.776618835754913"><ele>1047.0</ele><time>2026-05-01T07:31:43Z</time></trkpt><trkpt lat="47.429812514019204" lon="10.776488324867575"><ele>1048.0</ele><time>2026-05-01T07:31:44Z</time></trkpt><trkpt lat="47.43000838358179" lon="10.776346674997491"><ele>1049.0</ele><time>2026-05-01T07:31:45Z</time></trkpt><trkpt lat="47.43020041132559" lon="10.77619538082417"><ele>1049.0</ele><time>2026-05-01T07:31:46Z</time></trkpt><trkpt lat="47.430387983307845" lon="10.776033353079733"><ele>1049.0</ele><time>2026-05-01T07:31:47Z</time></trkpt><trkpt lat="47.430572000204506" lon="10.775857986898153"><ele>1049.0</ele><time>2026-05-01T07:31:48Z</time></trkpt><trkpt lat="47.43075309112594" lon="10.775672029245035"><ele>1049.0</ele><time>2026-05-01T07:31:49Z</time></trkpt><trkpt lat="47.430932235237556" lon="10.77547600564904"><ele>1049.0</ele><time>2026-05-01T07:31:50Z</time></trkpt><trkpt lat="47.43111083659694" lon="10.7752723666758"><ele>1049.0</ele><time>2026-05-01T07:31:51Z</time></trkpt><trkpt lat="47.43128760267147" lon="10.775068815008035"><ele>1049.0</ele><time>2026-05-01T07:31:52Z</time></trkpt><trkpt lat="47.43146122416959" lon="10.774863625742777"><ele>1049.0</ele><time>2026-05-01T07:31:53Z</time></trkpt><trkpt lat="47.43164726158231" lon="10.774679147569335"><ele>1049.0</ele><time>2026-05-01T07:31:54Z</time></trkpt><trkpt lat="47.431817146668784" lon="10.774475104352277"><ele>1047.0</ele><time>2026-05-01T07:31:55Z</time></trkpt><trkpt lat="47.431989548284086" lon="10.774268315603392"><ele>1045.0</ele><time>2026-05-01T07:31:56Z</time></trkpt><trkpt lat="47.43216500056837" lon="10.774058433176172"><ele>1043.0</ele><time>2026-05-01T07:31:57Z</time></trkpt><trkpt lat="47.43233011618981" lon="10.773831498805912"><ele>1041.0</ele><time>2026-05-01T07:31:58Z</time></trkpt><trkpt lat="47.43250603862258" lon="10.773622385110105"><ele>1039.0</ele><time>2026-05-01T07:31:59Z</time></trkpt><trkpt lat="47.43268273444618" lon="10.773414905890935"><ele>1038.5</ele><time>2026-05-01T07:32:00Z</time></trkpt><trkpt lat="47.43285907279158" lon="10.773204847682933"><ele>1038.0</ele><time>2026-05-01T07:32:01Z</time></trkpt><trkpt lat="47.43303360065896" lon="10.77299531566563"><ele>1038.0</ele><time>2026-05-01T07:32:02Z</time></trkpt><trkpt lat="47.43320563665877" lon="10.772784871877715"><ele>1038.0</ele><time>2026-05-01T07:32:03Z</time></trkpt><trkpt lat="47.43337421155803" lon="10.772569354181401"><ele>1038.0</ele><time>2026-05-01T07:32:04Z</time></trkpt><trkpt lat="47.433538854530354" lon="10.77234566581689"><ele>1037.0</ele><time>2026-05-01T07:32:05Z</time></trkpt><trkpt lat="47.4336976037123" lon="10.772112351844134"><ele>1036.0</ele><time>2026-05-01T07:32:06Z</time></trkpt><trkpt lat="47.43385040394201" lon="10.771867050642976"><ele>1035.0</ele><time>2026-05-01T07:32:07Z</time></trkpt><trkpt lat="47.4339876405887" lon="10.771608564260386"><ele>1034.3333333333333</ele><time>2026-05-01T07:32:08Z</time></trkpt><trkpt lat="47.43411776774398" lon="10.771341579002279"><ele>1033.6666666666665</ele><time>2026-05-01T07:32:09Z</time></trkpt><trkpt lat="47.43424084944636" lon="10.771071731804373"><ele>1033.0</ele><time>2026-05-01T07:32:10Z</time></trkpt><trkpt lat="47.434359228443405" lon="10.770793287510116"><ele>1031.0</ele><time>2026-05-01T07:32:11Z</time></trkpt><trkpt lat="47.434474477860654" lon="10.770519668314142"><ele>1029.0</ele><time>2026-05-01T07:32:12Z</time></trkpt><trkpt lat="47.43458686789196" lon="10.770254634170467"><ele>1027.0</ele><time>2026-05-01T07:32:13Z</time></trkpt><trkpt lat="47.434696733918116" lon="10.769988574744836"><ele>1025.6666666666665</ele><time>2026-05-01T07:32:14Z</time></trkpt><trkpt lat="47.43480851954116" lon="10.769725637602049"><ele>1024.3333333333333</ele><time>2026-05-01T07:32:15Z</time></trkpt><trkpt lat="47.43491922149686" lon="10.769469323137344"><ele>1023.0</ele><time>2026-05-01T07:32:16Z</time></trkpt><trkpt lat="47.43502834934937" lon="10.769223089857736"><ele>1022.6666666666667</ele><time>2026-05-01T07:32:17Z</time></trkpt><trkpt lat="47.435134840400096" lon="10.768985174925698"><ele>1022.3333333333334</ele><time>2026-05-01T07:32:18Z</time></trkpt><trkpt lat="47.43524263065999" lon="10.768743982271713"><ele>1022.0</ele><time>2026-05-01T07:32:19Z</time></trkpt><trkpt lat="47.43534954331641" lon="10.76850123555208"><ele>1021.6666666666667</ele><time>2026-05-01T07:32:20Z</time></trkpt><trkpt lat="47.43545687093855" lon="10.768257808994685"><ele>1021.3333333333333</ele><time>2026-05-01T07:32:21Z</time></trkpt><trkpt lat="47.43556274966769" lon="10.76801209847419"><ele>1021.0</ele><time>2026-05-01T07:32:22Z</time></trkpt><trkpt lat="47.4356667334129" lon="10.767764986124353"><ele>1020.3333333333333</ele><time>2026-05-01T07:32:23Z</time></trkpt><trkpt lat="47.43576784621857" lon="10.767515998259677"><ele>1019.6666666666667</ele><time>2026-05-01T07:32:24Z</time></trkpt><trkpt lat="47.43586650347181" lon="10.767260165629926"><ele>1019.0</ele><time>2026-05-01T07:32:25Z</time></trkpt><trkpt lat="47.43595768525427" lon="10.766995726208876"><ele>1019.0</ele><time>2026-05-01T07:32:26Z</time></trkpt><trkpt lat="47.436039696700206" lon="10.766722333076302"><ele>1019.0</ele><time>2026-05-01T07:32:27Z</time></trkpt><trkpt lat="47.43611211928797" lon="10.766438049240609"><ele>1019.0</ele><time>2026-05-01T07:32:28Z</time></trkpt><trkpt lat="47.43618182378621" lon="10.76614313535049"><ele>1019.0</ele><time>2026-05-01T07:32:29Z</time></trkpt><trkpt lat="47.4362431454272" lon="10.76584189181684"><ele>1019.0</ele><time>2026-05-01T07:32:30Z</time></trkpt><trkpt lat="47.436295995776184" lon="10.765532564770488"><ele>1019.0</ele><time>2026-05-01T07:32:31Z</time></trkpt><trkpt lat="47.43633895716339" lon="10.765218169599379"><ele>1017.6666666666667</ele><time>2026-05-01T07:32:32Z</time></trkpt><trkpt lat="47.4363700597483" lon="10.764898241237402"><ele>1016.3333333333333</ele><time>2026-05-01T07:32:33Z</time></trkpt><trkpt lat="47.4363895575792" lon="10.764579131720094"><ele>1015.0</ele><time>2026-05-01T07:32:34Z</time></trkpt><trkpt lat="47.43639840372748" lon="10.764258567795636"><ele>1015.0</ele><time>2026-05-01T07:32:35Z</time></trkpt><trkpt lat="47.43639900583173" lon="10.763934896885141"><ele>1015.0</ele><time>2026-05-01T07:32:36Z</time></trkpt><trkpt lat="47.436393083662104" lon="10.763612990495101"><ele>1015.0</ele><time>2026-05-01T07:32:37Z</time></trkpt><trkpt lat="47.43638373348267" lon="10.76328561534272"><ele>1015.0</ele><time>2026-05-01T07:32:38Z</time></trkpt><trkpt lat="47.43637968475769" lon="10.762961421715408"><ele>1015.0</ele><time>2026-05-01T07:32:39Z</time></trkpt><trkpt lat="47.43638067167841" lon="10.762635075690579"><ele>1015.0</ele><time>2026-05-01T07:32:40Z</time></trkpt><trkpt lat="47.436390503126084" lon="10.762306461501105"><ele>1017.5</ele><time>2026-05-01T07:32:41Z</time></trkpt><trkpt lat="47.436411046892374" lon="10.761976259971226"><ele>1020.0</ele><time>2026-05-01T07:32:42Z</time></trkpt><trkpt lat="47.436441563326376" lon="10.761645440577452"><ele>1020.5</ele><time>2026-05-01T07:32:43Z</time></trkpt><trkpt lat="47.43648465129242" lon="10.76131655307285"><ele>1021.0</ele><time>2026-05-01T07:32:44Z</time></trkpt><trkpt lat="47.436541399171745" lon="10.760993420425997"><ele>1023.0</ele><time>2026-05-01T07:32:45Z</time></trkpt><trkpt lat="47.43661216255744" lon="10.760674152885695"><ele>1025.0</ele><time>2026-05-01T07:32:46Z</time></trkpt><trkpt lat="47.43669464278291" lon="10.760353274078396"><ele>1026.0</ele><time>2026-05-01T07:32:47Z</time></trkpt><trkpt lat="47.43678451518001" lon="10.760030143755845"><ele>1027.0</ele><time>2026-05-01T07:32:48Z</time></trkpt><trkpt lat="47.436875106254426" lon="10.759706469841907"><ele>1027.0</ele><time>2026-05-01T07:32:49Z</time></trkpt><trkpt lat="47.43696643290335" lon="10.759382344661343"><ele>1027.0</ele><time>2026-05-01T07:32:50Z</time></trkpt><trkpt lat="47.437056466344046" lon="10.759063308486937"><ele>1022.0</ele><time>2026-05-01T07:32:51Z</time></trkpt><trkpt lat="47.4371459749164" lon="10.758749451839595"><ele>1017.0</ele><time>2026-05-01T07:32:52Z</time></trkpt><trkpt lat="47.437232165166854" lon="10.758444949347899"><ele>1017.0</ele><time>2026-05-01T07:32:53Z</time></trkpt><trkpt lat="47.437312048761775" lon="10.758146718252604"><ele>1017.0</ele><time>2026-05-01T07:32:54Z</time></trkpt><trkpt lat="47.43738230460732" lon="10.75784721473665"><ele>1017.0</ele><time>2026-05-01T07:32:55Z</time></trkpt><trkpt lat="47.437444098071936" lon="10.757548048641132"><ele>1017.3333333333333</ele><time>2026-05-01T07:32:56Z</time></trkpt><trkpt lat="47.43749495438944" lon="10.757258121364863"><ele>1017.6666666666666</ele><time>2026-05-01T07:32:57Z</time></trkpt><trkpt lat="47.43753812418263" lon="10.756977232038098"><ele>1018.0</ele><time>2026-05-01T07:32:58Z</time></trkpt><trkpt lat="47.437573286412395" lon="10.756704981366894"><ele>1018.0</ele><time>2026-05-01T07:32:59Z</time></trkpt><trkpt lat="47.43760178260815" lon="10.7564378109277"><ele>1018.0</ele><time>2026-05-01T07:33:00Z</time></trkpt><trkpt lat="47.43762475675649" lon="10.756170129708888"><ele>1018.0</ele><time>2026-05-01T07:33:01Z</time></trkpt><trkpt lat="47.4376436368107" lon="10.75589827292715"><ele>1018.0</ele><time>2026-05-01T07:33:02Z</time></trkpt><trkpt lat="47.43766088432673" lon="10.755631816926856"><ele>1018.0</ele><time>2026-05-01T07:33:03Z</time></trkpt><trkpt lat="47.43773301555461" lon="10.755365642977232"><ele>1018.0</ele><time>2026-05-01T07:33:04Z</time></trkpt><trkpt lat="47.437759900374616" lon="10.755086291459016"><ele>1019.0</ele><time>2026-05-01T07:33:05Z</time></trkpt><trkpt lat="47.43778637602675" lon="10.754811191472184"><ele>1020.0</ele><time>2026-05-01T07:33:06Z</time></trkpt><trkpt lat="47.43773104892977" lon="10.7545201954331"><ele>1021.0</ele><time>2026-05-01T07:33:07Z</time></trkpt><trkpt lat="47.43775228503894" lon="10.754243421835113"><ele>1021.6666666666666</ele><time>2026-05-01T07:33:08Z</time></trkpt><trkpt lat="47.43778202122914" lon="10.753971683104783"><ele>1022.3333333333333</ele><time>2026-05-01T07:33:09Z</time></trkpt><trkpt lat="47.43782103427729" lon="10.753706943028936"><ele>1023.0</ele><time>2026-05-01T07:33:10Z</time></trkpt><trkpt lat="47.437868721088684" lon="10.753444861633856"><ele>1023.0</ele><time>2026-05-01T07:33:11Z</time></trkpt><trkpt lat="47.437925253818705" lon="10.753187642587033"><ele>1023.0</ele><time>2026-05-01T07:33:12Z</time></trkpt><trkpt lat="47.43799014128184" lon="10.752935003127263"><ele>1023.0</ele><time>2026-05-01T07:33:13Z</time></trkpt><trkpt lat="47.43806520041772" lon="10.752687171589681"><ele>1021.6666666666667</ele><time>2026-05-01T07:33:14Z</time></trkpt><trkpt lat="47.43815070641322" lon="10.752446633737401"><ele>1020.3333333333334</ele><time>2026-05-01T07:33:15Z</time></trkpt><trkpt lat="47.438243106640556" lon="10.752211884052823"><ele>1019.0</ele><time>2026-05-01T07:33:16Z</time></trkpt><trkpt lat="47.43834861395937" lon="10.7519860873285"><ele>1020.3333333333334</ele><time>2026-05-01T07:33:17Z</time></trkpt><trkpt lat="47.43845728016286" lon="10.751766719246033"><ele>1021.6666666666667</ele><time>2026-05-01T07:33:18Z</time></trkpt><trkpt lat="47.438574678110065" lon="10.75155699093132"><ele>1023.0</ele><time>2026-05-01T07:33:19Z</time></trkpt><trkpt lat="47.43867147446271" lon="10.751356648447507"><ele>1023.0</ele><time>2026-05-01T07:33:20Z</time></trkpt><trkpt lat="47.43873587437794" lon="10.751184877793493"><ele>1023.0</ele><time>2026-05-01T07:33:21Z</time></trkpt><trkpt lat="47.438865106409125" lon="10.750991722814598"><ele>1023.0</ele><time>2026-05-01T07:33:22Z</time></trkpt><trkpt lat="47.438992511158546" lon="10.750814507788236"><ele>1022.3333333333333</ele><time>2026-05-01T07:33:23Z</time></trkpt><trkpt lat="47.439122365369776" lon="10.75063070846722"><ele>1021.6666666666666</ele><time>2026-05-01T07:33:24Z</time></trkpt><trkpt lat="47.439253839226964" lon="10.750444626342203"><ele>1021.0</ele><time>2026-05-01T07:33:25Z</time></trkpt><trkpt lat="47.4393814248207" lon="10.750260884007727"><ele>1020.6666666666666</ele><time>2026-05-01T07:33:26Z</time></trkpt><trkpt lat="47.43950916229764" lon="10.750074111492328"><ele>1020.3333333333333</ele><time>2026-05-01T07:33:27Z</time></trkpt><trkpt lat="47.43963431589934" lon="10.749878562912661"><ele>1020.0</ele><time>2026-05-01T07:33:28Z</time></trkpt><trkpt lat="47.43975647828029" lon="10.749671562920769"><ele>1020.0</ele><time>2026-05-01T07:33:29Z</time></trkpt><trkpt lat="47.4398747268427" lon="10.749455902212976"><ele>1020.0</ele><time>2026-05-01T07:33:30Z</time></trkpt><trkpt lat="47.4399866384907" lon="10.749235085571192"><ele>1020.0</ele><time>2026-05-01T07:33:31Z</time></trkpt><trkpt lat="47.44009477076499" lon="10.749005323770142"><ele>1022.3333333333333</ele><time>2026-05-01T07:33:32Z</time></trkpt><trkpt lat="47.4401988062385" lon="10.748769750682259"><ele>1024.6666666666665</ele><time>2026-05-01T07:33:33Z</time></trkpt><trkpt lat="47.440296858877915" lon="10.748526992577371"><ele>1027.0</ele><time>2026-05-01T07:33:34Z</time></trkpt><trkpt lat="47.44038925012275" lon="10.748278611902276"><ele>1027.3333333333333</ele><time>2026-05-01T07:33:35Z</time></trkpt><trkpt lat="47.440476481531604" lon="10.748023654523692"><ele>1027.6666666666667</ele><time>2026-05-01T07:33:36Z</time></trkpt><trkpt lat="47.440558594533265" lon="10.747764616791189"><ele>1028.0</ele><time>2026-05-01T07:33:37Z</time></trkpt><trkpt lat="47.440633781069984" lon="10.747499698519976"><ele>1028.3333333333335</ele><time>2026-05-01T07:33:38Z</time></trkpt><trkpt lat="47.44070396058668" lon="10.747230586958006"><ele>1028.6666666666667</ele><time>2026-05-01T07:33:39Z</time></trkpt><trkpt lat="47.4407722637883" lon="10.746960696139071"><ele>1029.0</ele><time>2026-05-01T07:33:40Z</time></trkpt><trkpt lat="47.44083655533837" lon="10.746680106444852"><ele>1029.6666666666667</ele><time>2026-05-01T07:33:41Z</time></trkpt><trkpt lat="47.44090197080326" lon="10.746404146148059"><ele>1030.3333333333335</ele><time>2026-05-01T07:33:42Z</time></trkpt><trkpt lat="47.44096580065229" lon="10.746129376618066"><ele>1031.0</ele><time>2026-05-01T07:33:43Z</time></trkpt><trkpt lat="47.441095708701745" lon="10.745872470750548"><ele>1031.3333333333335</ele><time>2026-05-01T07:33:44Z</time></trkpt><trkpt lat="47.44116187452" lon="10.745596813411455"><ele>1031.6666666666667</ele><time>2026-05-01T07:33:45Z</time></trkpt><trkpt lat="47.44122686112396" lon="10.745316091776935"><ele>1032.0</ele><time>2026-05-01T07:33:46Z</time></trkpt><trkpt lat="47.44129227590786" lon="10.745035387783922"><ele>1027.6666666666667</ele><time>2026-05-01T07:33:47Z</time></trkpt><trkpt lat="47.441355592602896" lon="10.744758079846607"><ele>1023.3333333333334</ele><time>2026-05-01T07:33:48Z</time></trkpt><trkpt lat="47.441418846708274" lon="10.744482469425716"><ele>1019.0</ele><time>2026-05-01T07:33:49Z</time></trkpt><trkpt lat="47.44148196674513" lon="10.744213617497543"><ele>1019.0</ele><time>2026-05-01T07:33:50Z</time></trkpt><trkpt lat="47.44150193535517" lon="10.743929975342844"><ele>1019.0</ele><time>2026-05-01T07:33:51Z</time></trkpt><trkpt lat="47.4415730334536" lon="10.743728948839333"><ele>1019.0</ele><time>2026-05-01T07:33:52Z</time></trkpt><trkpt lat="47.441634802596134" lon="10.743444004098256"><ele>1021.6666666666667</ele><time>2026-05-01T07:33:53Z</time></trkpt><trkpt lat="47.441695944605215" lon="10.743174608285207"><ele>1024.3333333333333</ele><time>2026-05-01T07:33:54Z</time></trkpt><trkpt lat="47.44175891446771" lon="10.742905310958935"><ele>1027.0</ele><time>2026-05-01T07:33:55Z</time></trkpt><trkpt lat="47.44182443553594" lon="10.74263676511257"><ele>1032.0</ele><time>2026-05-01T07:33:56Z</time></trkpt><trkpt lat="47.4418997703497" lon="10.74237970297945"><ele>1037.0</ele><time>2026-05-01T07:33:57Z</time></trkpt><trkpt lat="47.44199188298134" lon="10.742136606018722"><ele>1042.0</ele><time>2026-05-01T07:33:58Z</time></trkpt><trkpt lat="47.44209627598681" lon="10.7418987882035"><ele>1033.3333333333333</ele><time>2026-05-01T07:33:59Z</time></trkpt><trkpt lat="47.442209300506704" lon="10.74166912652268"><ele>1024.6666666666667</ele><time>2026-05-01T07:34:00Z</time></trkpt><trkpt lat="47.442334611044714" lon="10.741449931786319"><ele>1016.0</ele><time>2026-05-01T07:34:01Z</time></trkpt><trkpt lat="47.44247621231324" lon="10.741250794889204"><ele>1016.0</ele><time>2026-05-01T07:34:02Z</time></trkpt><trkpt lat="47.44263286437401" lon="10.741071677790833"><ele>1016.0</ele><time>2026-05-01T07:34:03Z</time></trkpt><trkpt lat="47.44279788025137" lon="10.740909605958226"><ele>1016.0</ele><time>2026-05-01T07:34:04Z</time></trkpt><trkpt lat="47.44297021200673" lon="10.740760672509403"><ele>1016.0</ele><time>2026-05-01T07:34:05Z</time></trkpt><trkpt lat="47.443168773913456" lon="10.740682398018057"><ele>1016.0</ele><time>2026-05-01T07:34:06Z</time></trkpt><trkpt lat="47.4433474815542" lon="10.740538288274177"><ele>1016.0</ele><time>2026-05-01T07:34:07Z</time></trkpt><trkpt lat="47.44352610963326" lon="10.740393946193574"><ele>1016.0</ele><time>2026-05-01T07:34:08Z</time></trkpt><trkpt lat="47.44370345259964" lon="10.740250556316443"><ele>1016.0</ele><time>2026-05-01T07:34:09Z</time></trkpt><trkpt lat="47.44387858040828" lon="10.740109168514877"><ele>1016.0</ele><time>2026-05-01T07:34:10Z</time></trkpt><trkpt lat="47.444055645928096" lon="10.739966216320228"><ele>1018.0</ele><time>2026-05-01T07:34:11Z</time></trkpt><trkpt lat="47.444233179371544" lon="10.739822886352377"><ele>1020.0</ele><time>2026-05-01T07:34:12Z</time></trkpt><trkpt lat="47.44441302952309" lon="10.739677686009808"><ele>1022.0</ele><time>2026-05-01T07:34:13Z</time></trkpt><trkpt lat="47.44459499562031" lon="10.739530777379484"><ele>1023.3333333333334</ele><time>2026-05-01T07:34:14Z</time></trkpt><trkpt lat="47.44477753534187" lon="10.739383405639128"><ele>1024.6666666666667</ele><time>2026-05-01T07:34:15Z</time></trkpt><trkpt lat="47.44496232399673" lon="10.739234218243025"><ele>1026.0</ele><time>2026-05-01T07:34:16Z</time></trkpt><trkpt lat="47.445148711036765" lon="10.739083458310375"><ele>1026.0</ele><time>2026-05-01T07:34:17Z</time></trkpt><trkpt lat="47.44533476183617" lon="10.738932095774311"><ele>1026.0</ele><time>2026-05-01T07:34:18Z</time></trkpt><trkpt lat="47.44552301553452" lon="10.738777715299053"><ele>1026.0</ele><time>2026-05-01T07:34:19Z</time></trkpt><trkpt lat="47.44570762172102" lon="10.738617653316771"><ele>1025.3333333333333</ele><time>2026-05-01T07:34:20Z</time></trkpt><trkpt lat="47.44589221433616" lon="10.73845163185691"><ele>1024.6666666666665</ele><time>2026-05-01T07:34:21Z</time></trkpt><trkpt lat="47.446074853821855" lon="10.738278065588936"><ele>1024.0</ele><time>2026-05-01T07:34:22Z</time></trkpt><trkpt lat="47.446254195193234" lon="10.73810077574522"><ele>1024.3333333333333</ele><time>2026-05-01T07:34:23Z</time></trkpt><trkpt lat="47.44643308146573" lon="10.737917267103752"><ele>1024.6666666666667</ele><time>2026-05-01T07:34:24Z</time></trkpt><trkpt lat="47.44660853552626" lon="10.7377270906607"><ele>1025.0</ele><time>2026-05-01T07:34:25Z</time></trkpt><trkpt lat="47.44677806905879" lon="10.73752768596047"><ele>1025.0</ele><time>2026-05-01T07:34:26Z</time></trkpt><trkpt lat="47.4469390643132" lon="10.737314385062412"><ele>1025.0</ele><time>2026-05-01T07:34:27Z</time></trkpt><trkpt lat="47.447083336512115" lon="10.737085552049825"><ele>1025.0</ele><time>2026-05-01T07:34:28Z</time></trkpt><trkpt lat="47.4472012775118" lon="10.736846534999406"><ele>1024.6666666666667</ele><time>2026-05-01T07:34:29Z</time></trkpt><trkpt lat="47.44729700065444" lon="10.736603546310125"><ele>1024.3333333333333</ele><time>2026-05-01T07:34:30Z</time></trkpt><trkpt lat="47.44737416785681" lon="10.736343773623886"><ele>1024.0</ele><time>2026-05-01T07:34:31Z</time></trkpt><trkpt lat="47.44743438846225" lon="10.736074887729632"><ele>1026.3333333333333</ele><time>2026-05-01T07:34:32Z</time></trkpt><trkpt lat="47.44747783709799" lon="10.735802803755053"><ele>1028.6666666666667</ele><time>2026-05-01T07:34:33Z</time></trkpt><trkpt lat="47.44751461995991" lon="10.735545135845246"><ele>1031.0</ele><time>2026-05-01T07:34:34Z</time></trkpt><trkpt lat="47.44755243901925" lon="10.7352981829994"><ele>1031.6666666666667</ele><time>2026-05-01T07:34:35Z</time></trkpt><trkpt lat="47.447600309493986" lon="10.735050870083205"><ele>1032.3333333333333</ele><time>2026-05-01T07:34:36Z</time></trkpt><trkpt lat="47.447664652226855" lon="10.73480918626444"><ele>1033.0</ele><time>2026-05-01T07:34:37Z</time></trkpt><trkpt lat="47.44774721857844" lon="10.734568872125285"><ele>1034.3333333333333</ele><time>2026-05-01T07:34:38Z</time></trkpt><trkpt lat="47.44784684261666" lon="10.734341240408689"><ele>1035.6666666666667</ele><time>2026-05-01T07:34:39Z</time></trkpt><trkpt lat="47.44796136836232" lon="10.734135323844027"><ele>1037.0</ele><time>2026-05-01T07:34:40Z</time></trkpt><trkpt lat="47.44809120818592" lon="10.733941722365257"><ele>1034.6666666666667</ele><time>2026-05-01T07:34:41Z</time></trkpt><trkpt lat="47.44823457859325" lon="10.733768413654243"><ele>1032.3333333333333</ele><time>2026-05-01T07:34:42Z</time></trkpt><trkpt lat="47.44838614989509" lon="10.733620253993447"><ele>1030.0</ele><time>2026-05-01T07:34:43Z</time></trkpt><trkpt lat="47.44854665237135" lon="10.733495673228642"><ele>1030.0</ele><time>2026-05-01T07:34:44Z</time></trkpt><trkpt lat="47.448715167041144" lon="10.73339728192294"><ele>1030.0</ele><time>2026-05-01T07:34:45Z</time></trkpt><trkpt lat="47.44888585171798" lon="10.733302711801247"><ele>1030.0</ele><time>2026-05-01T07:34:46Z</time></trkpt><trkpt lat="47.449069918200024" lon="10.733267314872966"><ele>1028.6666666666665</ele><time>2026-05-01T07:34:47Z</time></trkpt><trkpt lat="47.449252969314045" lon="10.733264798406324"><ele>1027.3333333333333</ele><time>2026-05-01T07:34:48Z</time></trkpt><trkpt lat="47.4494358125481" lon="10.733289373463931"><ele>1026.0</ele><time>2026-05-01T07:34:49Z</time></trkpt><trkpt lat="47.449614117067554" lon="10.733335028767378"><ele>1028.3333333333333</ele><time>2026-05-01T07:34:50Z</time></trkpt><trkpt lat="47.44979765821774" lon="10.733389972988823"><ele>1030.6666666666665</ele><time>2026-05-01T07:34:51Z</time></trkpt><trkpt lat="47.44997441468152" lon="10.733430827637564"><ele>1033.0</ele><time>2026-05-01T07:34:52Z</time></trkpt><trkpt lat="47.45015607296022" lon="10.733446816230964"><ele>1033.0</ele><time>2026-05-01T07:34:53Z</time></trkpt><trkpt lat="47.45033788328641" lon="10.733435358829125"><ele>1033.0</ele><time>2026-05-01T07:34:54Z</time></trkpt><trkpt lat="47.450519872142614" lon="10.73340176497757"><ele>1033.0</ele><time>2026-05-01T07:34:55Z</time></trkpt><trkpt lat="47.45069912769934" lon="10.733341461064983"><ele>1034.3333333333333</ele><time>2026-05-01T07:34:56Z</time></trkpt><trkpt lat="47.45087939489627" lon="10.733285910456168"><ele>1035.6666666666667</ele><time>2026-05-01T07:34:57Z</time></trkpt><trkpt lat="47.45105113695682" lon="10.733186366231974"><ele>1037.0</ele><time>2026-05-01T07:34:58Z</time></trkpt><trkpt lat="47.45122452434937" lon="10.733071394793026"><ele>1044.3333333333335</ele><time>2026-05-01T07:34:59Z</time></trkpt><trkpt lat="47.45139504012877" lon="10.732956754916847"><ele>1051.6666666666667</ele><time>2026-05-01T07:35:00Z</time></trkpt><trkpt lat="47.4515659902545" lon="10.732845186308463"><ele>1059.0</ele><time>2026-05-01T07:35:01Z</time></trkpt><trkpt lat="47.4517399016681" lon="10.73274347550148"><ele>1056.6666666666667</ele><time>2026-05-01T07:35:02Z</time></trkpt><trkpt lat="47.45191576801987" lon="10.732659685206254"><ele>1054.3333333333335</ele><time>2026-05-01T07:35:03Z</time></trkpt><trkpt lat="47.45209157820829" lon="10.732580360855565"><ele>1052.0</ele><time>2026-05-01T07:35:04Z</time></trkpt><trkpt lat="47.45227157631342" lon="10.732499048594123"><ele>1052.0</ele><time>2026-05-01T07:35:05Z</time></trkpt><trkpt lat="47.45245395411721" lon="10.732421789690099"><ele>1052.0</ele><time>2026-05-01T07:35:06Z</time></trkpt><trkpt lat="47.4526368350431" lon="10.732337929950111"><ele>1052.0</ele><time>2026-05-01T07:35:07Z</time></trkpt><trkpt lat="47.452820417885086" lon="10.732236955193335"><ele>1052.0</ele><time>2026-05-01T07:35:08Z</time></trkpt><trkpt lat="47.45299801591853" lon="10.7321176861491"><ele>1052.0</ele><time>2026-05-01T07:35:09Z</time></trkpt><trkpt lat="47.453173144447874" lon="10.731979780018204"><ele>1052.0</ele><time>2026-05-01T07:35:10Z</time></trkpt><trkpt lat="47.45334435017429" lon="10.731818864349503"><ele>1052.0</ele><time>2026-05-01T07:35:11Z</time></trkpt><trkpt lat="47.45350719502441" lon="10.731635439887153"><ele>1052.0</ele><time>2026-05-01T07:35:12Z</time></trkpt><trkpt lat="47.45365833523156" lon="10.731435906028954"><ele>1052.0</ele><time>2026-05-01T07:35:13Z</time></trkpt><trkpt lat="47.45380714144958" lon="10.731230731383862"><ele>1054.0</ele><time>2026-05-01T07:35:14Z</time></trkpt><trkpt lat="47.45394648406569" lon="10.731021138745293"><ele>1056.0</ele><time>2026-05-01T07:35:15Z</time></trkpt><trkpt lat="47.45407914801978" lon="10.730797428094583"><ele>1058.0</ele><time>2026-05-01T07:35:16Z</time></trkpt><trkpt lat="47.45420316695628" lon="10.730567851388322"><ele>1058.0</ele><time>2026-05-01T07:35:17Z</time></trkpt><trkpt lat="47.45431762126551" lon="10.73032115966532"><ele>1058.0</ele><time>2026-05-01T07:35:18Z</time></trkpt><trkpt lat="47.45442538826575" lon="10.73006044813286"><ele>1058.0</ele><time>2026-05-01T07:35:19Z</time></trkpt><trkpt lat="47.454523233668596" lon="10.72978909295016"><ele>1057.6666666666667</ele><time>2026-05-01T07:35:20Z</time></trkpt><trkpt lat="47.45461339740535" lon="10.729507003832781"><ele>1057.3333333333333</ele><time>2026-05-01T07:35:21Z</time></trkpt><trkpt lat="47.454701031363115" lon="10.729221964443342"><ele>1057.0</ele><time>2026-05-01T07:35:22Z</time></trkpt><trkpt lat="47.45478523983079" lon="10.728947704166039"><ele>1057.0</ele><time>2026-05-01T07:35:23Z</time></trkpt><trkpt lat="47.454867718523246" lon="10.72867311055634"><ele>1057.0</ele><time>2026-05-01T07:35:24Z</time></trkpt><trkpt lat="47.45495316764688" lon="10.728394080920605"><ele>1057.0</ele><time>2026-05-01T07:35:25Z</time></trkpt><trkpt lat="47.45503931759744" lon="10.728113441403524"><ele>1051.3333333333333</ele><time>2026-05-01T07:35:26Z</time></trkpt><trkpt lat="47.455125353159524" lon="10.7278320035964"><ele>1045.6666666666667</ele><time>2026-05-01T07:35:27Z</time></trkpt><trkpt lat="47.45521103939044" lon="10.727551708465697"><ele>1040.0</ele><time>2026-05-01T07:35:28Z</time></trkpt><trkpt lat="47.455296397737456" lon="10.727271637611548"><ele>1037.0</ele><time>2026-05-01T07:35:29Z</time></trkpt><trkpt lat="47.45538072073444" lon="10.726995740050969"><ele>1034.0</ele><time>2026-05-01T07:35:30Z</time></trkpt><trkpt lat="47.45546704204177" lon="10.726714121469529"><ele>1031.0</ele><time>2026-05-01T07:35:31Z</time></trkpt><trkpt lat="47.455553295724016" lon="10.726430604073926"><ele>1033.3333333333335</ele><time>2026-05-01T07:35:32Z</time></trkpt><trkpt lat="47.45563938723338" lon="10.72614765063373"><ele>1035.6666666666667</ele><time>2026-05-01T07:35:33Z</time></trkpt><trkpt lat="47.45572663382705" lon="10.725860900843955"><ele>1038.0</ele><time>2026-05-01T07:35:34Z</time></trkpt><trkpt lat="47.45581366978743" lon="10.725574843333439"><ele>1038.0</ele><time>2026-05-01T07:35:35Z</time></trkpt><trkpt lat="47.45590056257382" lon="10.725286956785077"><ele>1038.0</ele><time>2026-05-01T07:35:36Z</time></trkpt><trkpt lat="47.45598827854327" lon="10.725006078116072"><ele>1038.0</ele><time>2026-05-01T07:35:37Z</time></trkpt><trkpt lat="47.45607835384823" lon="10.724743764597681"><ele>1037.0</ele><time>2026-05-01T07:35:38Z</time></trkpt><trkpt lat="47.45618070404188" lon="10.724494492955348"><ele>1036.0</ele><time>2026-05-01T07:35:39Z</time></trkpt><trkpt lat="47.45629572780706" lon="10.724254919464828"><ele>1035.0</ele><time>2026-05-01T07:35:40Z</time></trkpt><trkpt lat="47.45642604866119" lon="10.724038254640378"><ele>1035.0</ele><time>2026-05-01T07:35:41Z</time></trkpt><trkpt lat="47.4565709061898" lon="10.723832970560771"><ele>1035.0</ele><time>2026-05-01T07:35:42Z</time></trkpt><trkpt lat="47.456724307447104" lon="10.723646966973627"><ele>1035.0</ele><time>2026-05-01T07:35:43Z</time></trkpt><trkpt lat="47.456887958337504" lon="10.72347721021767"><ele>1033.6666666666667</ele><time>2026-05-01T07:35:44Z</time></trkpt><trkpt lat="47.457058208865796" lon="10.72331908929851"><ele>1032.3333333333335</ele><time>2026-05-01T07:35:45Z</time></trkpt><trkpt lat="47.45721143485313" lon="10.723131337473578"><ele>1031.0</ele><time>2026-05-01T07:35:46Z</time></trkpt><trkpt lat="47.457380901864404" lon="10.722991877374563"><ele>1031.0</ele><time>2026-05-01T07:35:47Z</time></trkpt><trkpt lat="47.45755154064659" lon="10.722851766991633"><ele>1031.0</ele><time>2026-05-01T07:35:48Z</time></trkpt><trkpt lat="47.45772096928318" lon="10.72271754479398"><ele>1031.0</ele><time>2026-05-01T07:35:49Z</time></trkpt><trkpt lat="47.457891963574085" lon="10.722591694491284"><ele>1029.0</ele><time>2026-05-01T07:35:50Z</time></trkpt><trkpt lat="47.45807582859924" lon="10.722512198015298"><ele>1027.0</ele><time>2026-05-01T07:35:51Z</time></trkpt><trkpt lat="47.45824104421816" lon="10.722398279385933"><ele>1025.0</ele><time>2026-05-01T07:35:52Z</time></trkpt><trkpt lat="47.45840591918011" lon="10.72229708014285"><ele>1025.0</ele><time>2026-05-01T07:35:53Z</time></trkpt><trkpt lat="47.45856457299975" lon="10.722210464267176"><ele>1025.0</ele><time>2026-05-01T07:35:54Z</time></trkpt><trkpt lat="47.45871397191057" lon="10.722094074447636"><ele>1025.0</ele><time>2026-05-01T07:35:55Z</time></trkpt><trkpt lat="47.45886084388958" lon="10.721991843387357"><ele>1025.6666666666667</ele><time>2026-05-01T07:35:56Z</time></trkpt><trkpt lat="47.45899330352889" lon="10.721868974792892"><ele>1026.3333333333333</ele><time>2026-05-01T07:35:57Z</time></trkpt><trkpt lat="47.45910535027213" lon="10.721711311615717"><ele>1027.0</ele><time>2026-05-01T07:35:58Z</time></trkpt><trkpt lat="47.45924106365773" lon="10.721569549850061"><ele>1027.0</ele><time>2026-05-01T07:35:59Z</time></trkpt><trkpt lat="47.45932204034952" lon="10.72134955691771"><ele>1027.0</ele><time>2026-05-01T07:36:00Z</time></trkpt><trkpt lat="47.45937001005578" lon="10.721103911324178"><ele>1027.0</ele><time>2026-05-01T07:36:01Z</time></trkpt><trkpt lat="47.45939265278059" lon="10.720852711075793"><ele>1024.6666666666665</ele><time>2026-05-01T07:36:02Z</time></trkpt><trkpt lat="47.459405244927346" lon="10.720596593318032"><ele>1022.3333333333333</ele><time>2026-05-01T07:36:03Z</time></trkpt><trkpt lat="47.459402467806946" lon="10.720334259212425"><ele>1020.0</ele><time>2026-05-01T07:36:04Z</time></trkpt><trkpt lat="47.45939131176265" lon="10.720085246059305"><ele>1019.6666666666667</ele><time>2026-05-01T07:36:05Z</time></trkpt><trkpt lat="47.45937554613598" lon="10.719852184406998"><ele>1019.3333333333334</ele><time>2026-05-01T07:36:06Z</time></trkpt><trkpt lat="47.459353798857165" lon="10.719619724226936"><ele>1019.0</ele><time>2026-05-01T07:36:07Z</time></trkpt><trkpt lat="47.45933885388514" lon="10.719397626756368"><ele>1017.5</ele><time>2026-05-01T07:36:08Z</time></trkpt><trkpt lat="47.45933560750457" lon="10.719178179274175"><ele>1016.0</ele><time>2026-05-01T07:36:09Z</time></trkpt><trkpt lat="47.45934652458871" lon="10.718951942269056"><ele>1014.5</ele><time>2026-05-01T07:36:10Z</time></trkpt><trkpt lat="47.459375639381506" lon="10.718739868062645"><ele>1013.0</ele><time>2026-05-01T07:36:11Z</time></trkpt><trkpt lat="47.45942703383564" lon="10.718526651515367"><ele>1012.6666666666667</ele><time>2026-05-01T07:36:12Z</time></trkpt><trkpt lat="47.45949961829702" lon="10.718329821044499"><ele>1012.3333333333333</ele><time>2026-05-01T07:36:13Z</time></trkpt><trkpt lat="47.45959566071363" lon="10.718145439236533"><ele>1012.0</ele><time>2026-05-01T07:36:14Z</time></trkpt><trkpt lat="47.45970149944518" lon="10.717986709091567"><ele>1012.0</ele><time>2026-05-01T07:36:15Z</time></trkpt><trkpt lat="47.459820717313356" lon="10.717856123171993"><ele>1012.0</ele><time>2026-05-01T07:36:16Z</time></trkpt><trkpt lat="47.459945255916395" lon="10.717728336098762"><ele>1012.0</ele><time>2026-05-01T07:36:17Z</time></trkpt><trkpt lat="47.460094552229265" lon="10.717667085647612"><ele>1008.6666666666666</ele><time>2026-05-01T07:36:18Z</time></trkpt><trkpt lat="47.46024853548018" lon="10.717639429439958"><ele>1005.3333333333333</ele><time>2026-05-01T07:36:19Z</time></trkpt><trkpt lat="47.46040145098874" lon="10.717643520973352"><ele>1002.0</ele><time>2026-05-01T07:36:20Z</time></trkpt><trkpt lat="47.46055374007556" lon="10.717681429122264"><ele>1004.3333333333333</ele><time>2026-05-01T07:36:21Z</time></trkpt><trkpt lat="47.460704279886706" lon="10.7177430184992"><ele>1006.6666666666666</ele><time>2026-05-01T07:36:22Z</time></trkpt><trkpt lat="47.46085185918347" lon="10.717821558295645"><ele>1009.0</ele><time>2026-05-01T07:36:23Z</time></trkpt><trkpt lat="47.46099328629133" lon="10.717905109231507"><ele>1009.0</ele><time>2026-05-01T07:36:24Z</time></trkpt><trkpt lat="47.461130847570814" lon="10.71799141367559"><ele>1009.0</ele><time>2026-05-01T07:36:25Z</time></trkpt><trkpt lat="47.46127217657393" lon="10.718073842485452"><ele>1009.0</ele><time>2026-05-01T07:36:26Z</time></trkpt><trkpt lat="47.46141290780805" lon="10.718145379196253"><ele>1005.75</ele><time>2026-05-01T07:36:27Z</time></trkpt><trkpt lat="47.461549836557055" lon="10.71819869123116"><ele>1002.5</ele><time>2026-05-01T07:36:28Z</time></trkpt><trkpt lat="47.461689937314134" lon="10.718239416184723"><ele>999.25</ele><time>2026-05-01T07:36:29Z</time></trkpt><trkpt lat="47.461824368944214" lon="10.718261734225631"><ele>996.0</ele><time>2026-05-01T07:36:30Z</time></trkpt><trkpt lat="47.461958613234785" lon="10.718278949985706"><ele>996.0</ele><time>2026-05-01T07:36:31Z</time></trkpt><trkpt lat="47.46208542476729" lon="10.71829477254486"><ele>996.0</ele><time>2026-05-01T07:36:32Z</time></trkpt><trkpt lat="47.46221138613921" lon="10.718321478457648"><ele>996.0</ele><time>2026-05-01T07:36:33Z</time></trkpt><trkpt lat="47.46233615832438" lon="10.718368697638748"><ele>996.0</ele><time>2026-05-01T07:36:34Z</time></trkpt><trkpt lat="47.46245459492403" lon="10.718441238096247"><ele>991.0</ele><time>2026-05-01T07:36:35Z</time></trkpt><trkpt lat="47.462568572990016" lon="10.718539673658638"><ele>986.0</ele><time>2026-05-01T07:36:36Z</time></trkpt><trkpt lat="47.462679838539046" lon="10.718665715635519"><ele>981.0</ele><time>2026-05-01T07:36:37Z</time></trkpt><trkpt lat="47.462784183364825" lon="10.71881078225111"><ele>976.0</ele><time>2026-05-01T07:36:38Z</time></trkpt><trkpt lat="47.462885909430724" lon="10.718962299825362"><ele>976.5</ele><time>2026-05-01T07:36:39Z</time></trkpt><trkpt lat="47.4629876949389" lon="10.719103455703294"><ele>977.0</ele><time>2026-05-01T07:36:40Z</time></trkpt><trkpt lat="47.4630948979542" lon="10.719227340253118"><ele>977.5</ele><time>2026-05-01T07:36:41Z</time></trkpt><trkpt lat="47.46320160707237" lon="10.719336887502292"><ele>978.0</ele><time>2026-05-01T07:36:42Z</time></trkpt><trkpt lat="47.463306719312506" lon="10.719440863297665"><ele>987.25</ele><time>2026-05-01T07:36:43Z</time></trkpt><trkpt lat="47.46340990365287" lon="10.719540824763815"><ele>996.5</ele><time>2026-05-01T07:36:44Z</time></trkpt><trkpt lat="47.46351520787417" lon="10.719646671952237"><ele>1005.75</ele><time>2026-05-01T07:36:45Z</time></trkpt><trkpt lat="47.463620978572415" lon="10.719758962136108"><ele>1015.0</ele><time>2026-05-01T07:36:46Z</time></trkpt><trkpt lat="47.46372420972046" lon="10.719877280251158"><ele>1011.75</ele><time>2026-05-01T07:36:47Z</time></trkpt><trkpt lat="47.46382710042738" lon="10.720001640322607"><ele>1008.5</ele><time>2026-05-01T07:36:48Z</time></trkpt><trkpt lat="47.463925126688466" lon="10.720129912307906"><ele>1005.25</ele><time>2026-05-01T07:36:49Z</time></trkpt><trkpt lat="47.464014232020496" lon="10.720258690585142"><ele>1002.0</ele><time>2026-05-01T07:36:50Z</time></trkpt><trkpt lat="47.4641012307038" lon="10.72038337409753"><ele>1002.0</ele><time>2026-05-01T07:36:51Z</time></trkpt><trkpt lat="47.46418868074268" lon="10.720512431262218"><ele>1002.0</ele><time>2026-05-01T07:36:52Z</time></trkpt><trkpt lat="47.46427372807046" lon="10.720642980514114"><ele>1002.0</ele><time>2026-05-01T07:36:53Z</time></trkpt><trkpt lat="47.464358902960214" lon="10.720774791481656"><ele>1002.0</ele><time>2026-05-01T07:36:54Z</time></trkpt><trkpt lat="47.464446255628374" lon="10.720903213710395"><ele>1002.0</ele><time>2026-05-01T07:36:55Z</time></trkpt><trkpt lat="47.464533436684334" lon="10.72103160113263"><ele>1002.0</ele><time>2026-05-01T07:36:56Z</time></trkpt><trkpt lat="47.464619838654244" lon="10.721163026944938"><ele>1002.0</ele><time>2026-05-01T07:36:57Z</time></trkpt><trkpt lat="47.46470928102859" lon="10.721298488741903"><ele>1002.0</ele><time>2026-05-01T07:36:58Z</time></trkpt><trkpt lat="47.464802904226076" lon="10.721441167463086"><ele>1003.25</ele><time>2026-05-01T07:36:59Z</time></trkpt><trkpt lat="47.46490053665077" lon="10.72158829867879"><ele>1004.5</ele><time>2026-05-01T07:37:00Z</time></trkpt><trkpt lat="47.46500035236074" lon="10.721740321848849"><ele>1005.75</ele><time>2026-05-01T07:37:01Z</time></trkpt><trkpt lat="47.46510566246624" lon="10.721896956110609"><ele>1007.0</ele><time>2026-05-01T07:37:02Z</time></trkpt><trkpt lat="47.46521486367396" lon="10.722055415248041"><ele>1007.0</ele><time>2026-05-01T07:37:03Z</time></trkpt><trkpt lat="47.465327989245765" lon="10.72220706813303"><ele>1007.0</ele><time>2026-05-01T07:37:04Z</time></trkpt><trkpt lat="47.465445013298186" lon="10.722351506494954"><ele>1007.0</ele><time>2026-05-01T07:37:05Z</time></trkpt><trkpt lat="47.465567448760936" lon="10.722489743020587"><ele>999.3333333333334</ele><time>2026-05-01T07:37:06Z</time></trkpt><trkpt lat="47.46569168450151" lon="10.722625574241079"><ele>991.6666666666667</ele><time>2026-05-01T07:37:07Z</time></trkpt><trkpt lat="47.465816527007846" lon="10.72275587726231"><ele>984.0</ele><time>2026-05-01T07:37:08Z</time></trkpt><trkpt lat="47.46594124691935" lon="10.722887141652043"><ele>984.0</ele><time>2026-05-01T07:37:09Z</time></trkpt><trkpt lat="47.466067783981785" lon="10.723022970582845"><ele>984.0</ele><time>2026-05-01T07:37:10Z</time></trkpt><trkpt lat="47.466193252005894" lon="10.723160337074448"><ele>984.0</ele><time>2026-05-01T07:37:11Z</time></trkpt><trkpt lat="47.46631913689364" lon="10.72330154289062"><ele>979.6666666666667</ele><time>2026-05-01T07:37:12Z</time></trkpt><trkpt lat="47.466449315424015" lon="10.723444738088048"><ele>975.3333333333334</ele><time>2026-05-01T07:37:13Z</time></trkpt><trkpt lat="47.466585147345555" lon="10.723586513124078"><ele>971.0</ele><time>2026-05-01T07:37:14Z</time></trkpt><trkpt lat="47.46672016865673" lon="10.723738658020881"><ele>971.0</ele><time>2026-05-01T07:37:15Z</time></trkpt><trkpt lat="47.466852835893626" lon="10.723896811315186"><ele>971.0</ele><time>2026-05-01T07:37:16Z</time></trkpt><trkpt lat="47.46698165032432" lon="10.724065254064206"><ele>971.0</ele><time>2026-05-01T07:37:17Z</time></trkpt><trkpt lat="47.467101778450704" lon="10.724244217263756"><ele>960.6666666666667</ele><time>2026-05-01T07:37:18Z</time></trkpt><trkpt lat="47.46722265593735" lon="10.724432413719398"><ele>950.3333333333333</ele><time>2026-05-01T07:37:19Z</time></trkpt><trkpt lat="47.46733974045601" lon="10.724630348670397"><ele>940.0</ele><time>2026-05-01T07:37:20Z</time></trkpt><trkpt lat="47.46745377483273" lon="10.724822954366417"><ele>940.0</ele><time>2026-05-01T07:37:21Z</time></trkpt><trkpt lat="47.46757251909518" lon="10.725011866875558"><ele>940.0</ele><time>2026-05-01T07:37:22Z</time></trkpt><trkpt lat="47.46770168195513" lon="10.725185986366283"><ele>940.0</ele><time>2026-05-01T07:37:23Z</time></trkpt><trkpt lat="47.467843011027206" lon="10.725334128451344"><ele>940.0</ele><time>2026-05-01T07:37:24Z</time></trkpt><trkpt lat="47.46800622398975" lon="10.72544576875853"><ele>940.0</ele><time>2026-05-01T07:37:25Z</time></trkpt><trkpt lat="47.46818325419644" lon="10.725528785283206"><ele>940.0</ele><time>2026-05-01T07:37:26Z</time></trkpt><trkpt lat="47.468360612634015" lon="10.7255851027012"><ele>940.0</ele><time>2026-05-01T07:37:27Z</time></trkpt><trkpt lat="47.46854324172171" lon="10.725602371042214"><ele>940.0</ele><time>2026-05-01T07:37:28Z</time></trkpt><trkpt lat="47.46873189137504" lon="10.725596737308015"><ele>940.0</ele><time>2026-05-01T07:37:29Z</time></trkpt><trkpt lat="47.46892301904045" lon="10.725587225661918"><ele>938.0</ele><time>2026-05-01T07:37:30Z</time></trkpt><trkpt lat="47.469110307481245" lon="10.725575776366025"><ele>936.0</ele><time>2026-05-01T07:37:31Z</time></trkpt><trkpt lat="47.46930793642446" lon="10.725567251841344"><ele>934.0</ele><time>2026-05-01T07:37:32Z</time></trkpt><trkpt lat="47.469507830484524" lon="10.725565140491227"><ele>930.6666666666666</ele><time>2026-05-01T07:37:33Z</time></trkpt><trkpt lat="47.46971264596784" lon="10.725559473747351"><ele>927.3333333333333</ele><time>2026-05-01T07:37:34Z</time></trkpt><trkpt lat="47.46991531037934" lon="10.725555863875826"><ele>924.0</ele><time>2026-05-01T07:37:35Z</time></trkpt><trkpt lat="47.470115556749064" lon="10.725552971230659"><ele>924.0</ele><time>2026-05-01T07:37:36Z</time></trkpt><trkpt lat="47.47031262022768" lon="10.725550859263326"><ele>924.0</ele><time>2026-05-01T07:37:37Z</time></trkpt><trkpt lat="47.47049934366466" lon="10.725547492273948"><ele>924.0</ele><time>2026-05-01T07:37:38Z</time></trkpt><trkpt lat="47.470686911644776" lon="10.725540224009558"><ele>924.0</ele><time>2026-05-01T07:37:39Z</time></trkpt><trkpt lat="47.47087904731088" lon="10.725530588662552"><ele>924.0</ele><time>2026-05-01T07:37:40Z</time></trkpt><trkpt lat="47.47107621527258" lon="10.725523334987148"><ele>924.0</ele><time>2026-05-01T07:37:41Z</time></trkpt><trkpt lat="47.47127351788981" lon="10.725514996603602"><ele>922.6666666666667</ele><time>2026-05-01T07:37:42Z</time></trkpt><trkpt lat="47.47147112585829" lon="10.725521769954858"><ele>921.3333333333334</ele><time>2026-05-01T07:37:43Z</time></trkpt><trkpt lat="47.47166641948415" lon="10.725544493484112"><ele>920.0</ele><time>2026-05-01T07:37:44Z</time></trkpt><trkpt lat="47.47186025619892" lon="10.72559023850291"><ele>920.0</ele><time>2026-05-01T07:37:45Z</time></trkpt><trkpt lat="47.47204700205479" lon="10.725662934475631"><ele>920.0</ele><time>2026-05-01T07:37:46Z</time></trkpt><trkpt lat="47.47222858649468" lon="10.725759317762387"><ele>920.0</ele><time>2026-05-01T07:37:47Z</time></trkpt><trkpt lat="47.47240011730388" lon="10.72587754275423"><ele>918.3333333333334</ele><time>2026-05-01T07:37:48Z</time></trkpt><trkpt lat="47.47256646225543" lon="10.726012525931335"><ele>916.6666666666667</ele><time>2026-05-01T07:37:49Z</time></trkpt><trkpt lat="47.47272523681571" lon="10.7261630978897"><ele>915.0</ele><time>2026-05-01T07:37:50Z</time></trkpt><trkpt lat="47.47287048448845" lon="10.726325804856575"><ele>914.0</ele><time>2026-05-01T07:37:51Z</time></trkpt><trkpt lat="47.4729998152789" lon="10.726506166692111"><ele>913.0</ele><time>2026-05-01T07:37:52Z</time></trkpt><trkpt lat="47.47311799354934" lon="10.726703925020521"><ele>912.0</ele><time>2026-05-01T07:37:53Z</time></trkpt><trkpt lat="47.473229297445606" lon="10.726921340947827"><ele>912.0</ele><time>2026-05-01T07:37:54Z</time></trkpt><trkpt lat="47.473330922834876" lon="10.727143417259281"><ele>912.0</ele><time>2026-05-01T07:37:55Z</time></trkpt><trkpt lat="47.473420793099834" lon="10.727363425336094"><ele>912.0</ele><time>2026-05-01T07:37:56Z</time></trkpt><trkpt lat="47.47350881136301" lon="10.727571343428156"><ele>910.3333333333333</ele><time>2026-05-01T07:37:57Z</time></trkpt><trkpt lat="47.473605918804566" lon="10.727774984289136"><ele>908.6666666666666</ele><time>2026-05-01T07:37:58Z</time></trkpt><trkpt lat="47.47372184913332" lon="10.727964407955646"><ele>907.0</ele><time>2026-05-01T07:37:59Z</time></trkpt><trkpt lat="47.473852774517674" lon="10.72813072684736"><ele>907.0</ele><time>2026-05-01T07:38:00Z</time></trkpt><trkpt lat="47.4739975987515" lon="10.72827293208431"><ele>907.0</ele><time>2026-05-01T07:38:01Z</time></trkpt><trkpt lat="47.474157451775085" lon="10.728393850986667"><ele>907.0</ele><time>2026-05-01T07:38:02Z</time></trkpt><trkpt lat="47.47432707275723" lon="10.728491252701353"><ele>914.0</ele><time>2026-05-01T07:38:03Z</time></trkpt><trkpt lat="47.474503707994764" lon="10.72856717340581"><ele>921.0</ele><time>2026-05-01T07:38:04Z</time></trkpt><trkpt lat="47.47468131147054" lon="10.728614536421953"><ele>928.0</ele><time>2026-05-01T07:38:05Z</time></trkpt><trkpt lat="47.47485082960436" lon="10.728630343832886"><ele>928.0</ele><time>2026-05-01T07:38:06Z</time></trkpt><trkpt lat="47.47501782542598" lon="10.728619825499731"><ele>928.0</ele><time>2026-05-01T07:38:07Z</time></trkpt><trkpt lat="47.47517490107607" lon="10.728584113759815"><ele>928.0</ele><time>2026-05-01T07:38:08Z</time></trkpt><trkpt lat="47.47532518285866" lon="10.728531049302157"><ele>919.0</ele><time>2026-05-01T07:38:09Z</time></trkpt><trkpt lat="47.47546674617221" lon="10.728461691803966"><ele>910.0</ele><time>2026-05-01T07:38:10Z</time></trkpt><trkpt lat="47.47560629947507" lon="10.728385570700707"><ele>901.0</ele><time>2026-05-01T07:38:11Z</time></trkpt><trkpt lat="47.47574414346003" lon="10.728323802808317"><ele>892.0</ele><time>2026-05-01T07:38:12Z</time></trkpt><trkpt lat="47.47589100696342" lon="10.728298395028325"><ele>892.0</ele><time>2026-05-01T07:38:13Z</time></trkpt><trkpt lat="47.4760434412979" lon="10.728317469104622"><ele>892.0</ele><time>2026-05-01T07:38:14Z</time></trkpt><trkpt lat="47.47619364495798" lon="10.728367227221415"><ele>892.0</ele><time>2026-05-01T07:38:15Z</time></trkpt><trkpt lat="47.47634241776627" lon="10.7284283423943"><ele>889.5</ele><time>2026-05-01T07:38:16Z</time></trkpt><trkpt lat="47.47648417625379" lon="10.728493174877704"><ele>887.0</ele><time>2026-05-01T07:38:17Z</time></trkpt><trkpt lat="47.47661876954453" lon="10.7285484190096"><ele>884.5</ele><time>2026-05-01T07:38:18Z</time></trkpt><trkpt lat="47.476753165997486" lon="10.72860206607389"><ele>882.0</ele><time>2026-05-01T07:38:19Z</time></trkpt><trkpt lat="47.476889398716644" lon="10.728663432276832"><ele>882.6666666666667</ele><time>2026-05-01T07:38:20Z</time></trkpt><trkpt lat="47.47702861244157" lon="10.728740852378957"><ele>883.3333333333334</ele><time>2026-05-01T07:38:21Z</time></trkpt><trkpt lat="47.47716732165853" lon="10.72883760044616"><ele>884.0</ele><time>2026-05-01T07:38:22Z</time></trkpt><trkpt lat="47.477300319124005" lon="10.72895496164171"><ele>884.0</ele><time>2026-05-01T07:38:23Z</time></trkpt><trkpt lat="47.477430512435234" lon="10.729087115873268"><ele>884.0</ele><time>2026-05-01T07:38:24Z</time></trkpt><trkpt lat="47.477559787391236" lon="10.72922248960584"><ele>884.0</ele><time>2026-05-01T07:38:25Z</time></trkpt><trkpt lat="47.47768978170838" lon="10.729365582523169"><ele>886.6666666666667</ele><time>2026-05-01T07:38:26Z</time></trkpt><trkpt lat="47.47781839225089" lon="10.729509912767007"><ele>889.3333333333333</ele><time>2026-05-01T07:38:27Z</time></trkpt><trkpt lat="47.47794812493538" lon="10.729654087511545"><ele>892.0</ele><time>2026-05-01T07:38:28Z</time></trkpt><trkpt lat="47.47807747262387" lon="10.729798745982844"><ele>886.0</ele><time>2026-05-01T07:38:29Z</time></trkpt><trkpt lat="47.47820089057096" lon="10.729945799538898"><ele>880.0</ele><time>2026-05-01T07:38:30Z</time></trkpt><trkpt lat="47.478318810324105" lon="10.730095136785538"><ele>874.0</ele><time>2026-05-01T07:38:31Z</time></trkpt><trkpt lat="47.47842334296842" lon="10.73025613471862"><ele>874.0</ele><time>2026-05-01T07:38:32Z</time></trkpt><trkpt lat="47.47852284026539" lon="10.73043843795469"><ele>874.0</ele><time>2026-05-01T07:38:33Z</time></trkpt><trkpt lat="47.4786093646119" lon="10.730643035036154"><ele>874.0</ele><time>2026-05-01T07:38:34Z</time></trkpt><trkpt lat="47.47868333533919" lon="10.730858215849755"><ele>872.6666666666666</ele><time>2026-05-01T07:38:35Z</time></trkpt><trkpt lat="47.478747763058436" lon="10.731081767147051"><ele>871.3333333333333</ele><time>2026-05-01T07:38:36Z</time></trkpt><trkpt lat="47.47879497415512" lon="10.73131046090232"><ele>870.0</ele><time>2026-05-01T07:38:37Z</time></trkpt><trkpt lat="47.478826179260075" lon="10.73153971729448"><ele>870.6666666666667</ele><time>2026-05-01T07:38:38Z</time></trkpt><trkpt lat="47.478846049728986" lon="10.731775207082844"><ele>871.3333333333334</ele><time>2026-05-01T07:38:39Z</time></trkpt><trkpt lat="47.47886355376521" lon="10.732014275983682"><ele>872.0</ele><time>2026-05-01T07:38:40Z</time></trkpt><trkpt lat="47.47888251803965" lon="10.732252868768816"><ele>872.0</ele><time>2026-05-01T07:38:41Z</time></trkpt><trkpt lat="47.47890419253208" lon="10.732491209640962"><ele>872.0</ele><time>2026-05-01T07:38:42Z</time></trkpt><trkpt lat="47.47893098302712" lon="10.73273021936364"><ele>872.0</ele><time>2026-05-01T07:38:43Z</time></trkpt><trkpt lat="47.4789673057849" lon="10.73296499153913"><ele>871.6666666666667</ele><time>2026-05-01T07:38:44Z</time></trkpt><trkpt lat="47.47901382883675" lon="10.733194623105577"><ele>871.3333333333333</ele><time>2026-05-01T07:38:45Z</time></trkpt><trkpt lat="47.47907332903446" lon="10.733420780291448"><ele>871.0</ele><time>2026-05-01T07:38:46Z</time></trkpt><trkpt lat="47.479147688102636" lon="10.733643496716414"><ele>871.0</ele><time>2026-05-01T07:38:47Z</time></trkpt><trkpt lat="47.479233905262774" lon="10.73385750933916"><ele>871.0</ele><time>2026-05-01T07:38:48Z</time></trkpt><trkpt lat="47.479331216995625" lon="10.734060146478543"><ele>871.0</ele><time>2026-05-01T07:38:49Z</time></trkpt><trkpt lat="47.479441457473825" lon="10.734256300999293"><ele>872.0</ele><time>2026-05-01T07:38:50Z</time></trkpt><trkpt lat="47.479564573876544" lon="10.734436640867807"><ele>873.0</ele><time>2026-05-01T07:38:51Z</time></trkpt><trkpt lat="47.479703727401414" lon="10.734602759711452"><ele>874.0</ele><time>2026-05-01T07:38:52Z</time></trkpt><trkpt lat="47.47985488137513" lon="10.734751364877313"><ele>874.3333333333333</ele><time>2026-05-01T07:38:53Z</time></trkpt><trkpt lat="47.4800168397881" lon="10.734886081138209"><ele>874.6666666666667</ele><time>2026-05-01T07:38:54Z</time></trkpt><trkpt lat="47.48018655365435" lon="10.735004755443725"><ele>875.0</ele><time>2026-05-01T07:38:55Z</time></trkpt><trkpt lat="47.48035971085546" lon="10.735109719733657"><ele>875.0</ele><time>2026-05-01T07:38:56Z</time></trkpt><trkpt lat="47.480531830609294" lon="10.73521070882518"><ele>875.0</ele><time>2026-05-01T07:38:57Z</time></trkpt><trkpt lat="47.48069323720113" lon="10.735306820274864"><ele>875.0</ele><time>2026-05-01T07:38:58Z</time></trkpt><trkpt lat="47.480842058245734" lon="10.73540282713416"><ele>875.0</ele><time>2026-05-01T07:38:59Z</time></trkpt><trkpt lat="47.48099220494782" lon="10.735510575247913"><ele>875.0</ele><time>2026-05-01T07:39:00Z</time></trkpt><trkpt lat="47.48114148737409" lon="10.735625134937072"><ele>875.0</ele><time>2026-05-01T07:39:01Z</time></trkpt><trkpt lat="47.48129047573724" lon="10.735750950066498"><ele>875.6666666666667</ele><time>2026-05-01T07:39:02Z</time></trkpt><trkpt lat="47.48144398454758" lon="10.735891232350085"><ele>876.3333333333333</ele><time>2026-05-01T07:39:03Z</time></trkpt><trkpt lat="47.48160169806164" lon="10.73604740598661"><ele>877.0</ele><time>2026-05-01T07:39:04Z</time></trkpt><trkpt lat="47.48176116719302" lon="10.736210802349436"><ele>877.6666666666666</ele><time>2026-05-01T07:39:05Z</time></trkpt><trkpt lat="47.48192585883535" lon="10.736385661639481"><ele>878.3333333333333</ele><time>2026-05-01T07:39:06Z</time></trkpt><trkpt lat="47.482097843428384" lon="10.736568135521319"><ele>879.0</ele><time>2026-05-01T07:39:07Z</time></trkpt><trkpt lat="47.48226712452167" lon="10.736752019149765"><ele>877.0</ele><time>2026-05-01T07:39:08Z</time></trkpt><trkpt lat="47.482432888489946" lon="10.736931541912405"><ele>875.0</ele><time>2026-05-01T07:39:09Z</time></trkpt><trkpt lat="47.48259944497264" lon="10.737117319901767"><ele>873.0</ele><time>2026-05-01T07:39:10Z</time></trkpt><trkpt lat="47.482771192495676" lon="10.737306205070423"><ele>873.0</ele><time>2026-05-01T07:39:11Z</time></trkpt><trkpt lat="47.48294614404766" lon="10.737497707541689"><ele>873.0</ele><time>2026-05-01T07:39:12Z</time></trkpt><trkpt lat="47.48312180861859" lon="10.737689642104243"><ele>873.0</ele><time>2026-05-01T07:39:13Z</time></trkpt><trkpt lat="47.483296870478895" lon="10.737878577071827"><ele>873.3333333333333</ele><time>2026-05-01T07:39:14Z</time></trkpt><trkpt lat="47.48347275494409" lon="10.73806711313789"><ele>873.6666666666666</ele><time>2026-05-01T07:39:15Z</time></trkpt><trkpt lat="47.48364796328169" lon="10.738255408270579"><ele>874.0</ele><time>2026-05-01T07:39:16Z</time></trkpt><trkpt lat="47.483824271246206" lon="10.738447667856967"><ele>874.0</ele><time>2026-05-01T07:39:17Z</time></trkpt><trkpt lat="47.48400449291159" lon="10.738648439597643"><ele>874.0</ele><time>2026-05-01T07:39:18Z</time></trkpt><trkpt lat="47.484188676663855" lon="10.738854808006133"><ele>874.0</ele><time>2026-05-01T07:39:19Z</time></trkpt><trkpt lat="47.484362756831594" lon="10.739059959487495"><ele>874.0</ele><time>2026-05-01T07:39:20Z</time></trkpt><trkpt lat="47.484533264144794" lon="10.7392770214787"><ele>874.0</ele><time>2026-05-01T07:39:21Z</time></trkpt><trkpt lat="47.484700068581624" lon="10.739506438133697"><ele>874.0</ele><time>2026-05-01T07:39:22Z</time></trkpt><trkpt lat="47.48485864961919" lon="10.739750288874708"><ele>874.0</ele><time>2026-05-01T07:39:23Z</time></trkpt><trkpt lat="47.48500793418433" lon="10.740010743690187"><ele>876.0</ele><time>2026-05-01T07:39:24Z</time></trkpt><trkpt lat="47.485149015038864" lon="10.740285282355007"><ele>878.0</ele><time>2026-05-01T07:39:25Z</time></trkpt><trkpt lat="47.48528550359154" lon="10.740569187007171"><ele>878.0</ele><time>2026-05-01T07:39:26Z</time></trkpt><trkpt lat="47.485414327729345" lon="10.740859588006597"><ele>878.0</ele><time>2026-05-01T07:39:27Z</time></trkpt><trkpt lat="47.48553675103983" lon="10.741160809243171"><ele>880.0</ele><time>2026-05-01T07:39:28Z</time></trkpt><trkpt lat="47.48565514484719" lon="10.741461698862901"><ele>882.0</ele><time>2026-05-01T07:39:29Z</time></trkpt><trkpt lat="47.48577499505694" lon="10.741755673256412"><ele>883.5</ele><time>2026-05-01T07:39:30Z</time></trkpt><trkpt lat="47.4859013217804" lon="10.742036151033686"><ele>885.0</ele><time>2026-05-01T07:39:31Z</time></trkpt><trkpt lat="47.486038736761316" lon="10.742295987551598"><ele>885.0</ele><time>2026-05-01T07:39:32Z</time></trkpt><trkpt lat="47.48620197283941" lon="10.742507495507562"><ele>885.0</ele><time>2026-05-01T07:39:33Z</time></trkpt><trkpt lat="47.48636252294074" lon="10.742703892267603"><ele>885.0</ele><time>2026-05-01T07:39:34Z</time></trkpt><trkpt lat="47.48653355456528" lon="10.742880832614667"><ele>884.6666666666667</ele><time>2026-05-01T07:39:35Z</time></trkpt><trkpt lat="47.48671392515978" lon="10.743032568445589"><ele>884.3333333333334</ele><time>2026-05-01T07:39:36Z</time></trkpt><trkpt lat="47.48690122203729" lon="10.743179505498238"><ele>884.0</ele><time>2026-05-01T07:39:37Z</time></trkpt><trkpt lat="47.48710403242655" lon="10.743289310242368"><ele>884.0</ele><time>2026-05-01T07:39:38Z</time></trkpt><trkpt lat="47.48731574407613" lon="10.743387607967993"><ele>884.0</ele><time>2026-05-01T07:39:39Z</time></trkpt><trkpt lat="47.487530851374906" lon="10.743479107256203"><ele>884.0</ele><time>2026-05-01T07:39:40Z</time></trkpt><trkpt lat="47.487740984436925" lon="10.7435683027725"><ele>884.6666666666667</ele><time>2026-05-01T07:39:41Z</time></trkpt><trkpt lat="47.48794583265087" lon="10.743662537490247"><ele>885.3333333333333</ele><time>2026-05-01T07:39:42Z</time></trkpt><trkpt lat="47.488133315141106" lon="10.743761004206036"><ele>886.0</ele><time>2026-05-01T07:39:43Z</time></trkpt><trkpt lat="47.4883067615422" lon="10.743870274240692"><ele>886.0</ele><time>2026-05-01T07:39:44Z</time></trkpt><trkpt lat="47.48847064971244" lon="10.744003101035199"><ele>886.0</ele><time>2026-05-01T07:39:45Z</time></trkpt><trkpt lat="47.48862441361846" lon="10.744148776817923"><ele>886.0</ele><time>2026-05-01T07:39:46Z</time></trkpt><trkpt lat="47.48875930323128" lon="10.744303209796033"><ele>887.3333333333333</ele><time>2026-05-01T07:39:47Z</time></trkpt><trkpt lat="47.488882679152695" lon="10.744473039722994"><ele>888.6666666666667</ele><time>2026-05-01T07:39:48Z</time></trkpt><trkpt lat="47.488999720859226" lon="10.744656565397953"><ele>890.0</ele><time>2026-05-01T07:39:49Z</time></trkpt><trkpt lat="47.48910625037102" lon="10.744849879100105"><ele>890.0</ele><time>2026-05-01T07:39:50Z</time></trkpt><trkpt lat="47.48920147241819" lon="10.745049310287866"><ele>890.0</ele><time>2026-05-01T07:39:51Z</time></trkpt><trkpt lat="47.48928425406427" lon="10.74525386716277"><ele>890.0</ele><time>2026-05-01T07:39:52Z</time></trkpt><trkpt lat="47.48935778085963" lon="10.745463480928642"><ele>889.6666666666667</ele><time>2026-05-01T07:39:53Z</time></trkpt><trkpt lat="47.48942326792886" lon="10.745679237870535"><ele>889.3333333333333</ele><time>2026-05-01T07:39:54Z</time></trkpt><trkpt lat="47.489479846209605" lon="10.745900120311228"><ele>889.0</ele><time>2026-05-01T07:39:55Z</time></trkpt><trkpt lat="47.489528323154666" lon="10.746123096054838"><ele>890.3333333333333</ele><time>2026-05-01T07:39:56Z</time></trkpt><trkpt lat="47.48957092731049" lon="10.746345111635613"><ele>891.6666666666667</ele><time>2026-05-01T07:39:57Z</time></trkpt><trkpt lat="47.48961590824388" lon="10.746564631005032"><ele>893.0</ele><time>2026-05-01T07:39:58Z</time></trkpt><trkpt lat="47.48967052911488" lon="10.746778246172413"><ele>898.0</ele><time>2026-05-01T07:39:59Z</time></trkpt><trkpt lat="47.48973890674541" lon="10.746982335024216"><ele>903.0</ele><time>2026-05-01T07:40:00Z</time></trkpt><trkpt lat="47.489818535188775" lon="10.747174666122344"><ele>908.0</ele><time>2026-05-01T07:40:01Z</time></trkpt><trkpt lat="47.489908870806104" lon="10.74735409740536"><ele>908.0</ele><time>2026-05-01T07:40:02Z</time></trkpt><trkpt lat="47.49001142946405" lon="10.747521615188651"><ele>908.0</ele><time>2026-05-01T07:40:03Z</time></trkpt><trkpt lat="47.49012518625979" lon="10.747674162442593"><ele>908.0</ele><time>2026-05-01T07:40:04Z</time></trkpt><trkpt lat="47.490249006855514" lon="10.747811569778444"><ele>912.0</ele><time>2026-05-01T07:40:05Z</time></trkpt><trkpt lat="47.49037991293463" lon="10.747932125607534"><ele>916.0</ele><time>2026-05-01T07:40:06Z</time></trkpt><trkpt lat="47.49052298289175" lon="10.748039830553505"><ele>920.0</ele><time>2026-05-01T07:40:07Z</time></trkpt><trkpt lat="47.49066925583187" lon="10.748127693053181"><ele>920.0</ele><time>2026-05-01T07:40:08Z</time></trkpt><trkpt lat="47.490823182734076" lon="10.748198903319416"><ele>920.0</ele><time>2026-05-01T07:40:09Z</time></trkpt><trkpt lat="47.49097970518911" lon="10.74825051416249"><ele>920.0</ele><time>2026-05-01T07:40:10Z</time></trkpt><trkpt lat="47.49114198793933" lon="10.748278833542619"><ele>920.3333333333334</ele><time>2026-05-01T07:40:11Z</time></trkpt><trkpt lat="47.49130732160633" lon="10.748285428271773"><ele>920.6666666666667</ele><time>2026-05-01T07:40:12Z</time></trkpt><trkpt lat="47.49147354246944" lon="10.748270054453826"><ele>921.0</ele><time>2026-05-01T07:40:13Z</time></trkpt><trkpt lat="47.491640945368765" lon="10.74823687579204"><ele>921.0</ele><time>2026-05-01T07:40:14Z</time></trkpt><trkpt lat="47.491808568286814" lon="10.74818705578184"><ele>921.0</ele><time>2026-05-01T07:40:15Z</time></trkpt><trkpt lat="47.491976419633176" lon="10.748127755178253"><ele>921.0</ele><time>2026-05-01T07:40:16Z</time></trkpt><trkpt lat="47.49214127608378" lon="10.748063922957726"><ele>921.6666666666667</ele><time>2026-05-01T07:40:17Z</time></trkpt><trkpt lat="47.49230599088997" lon="10.747992985195525"><ele>922.3333333333334</ele><time>2026-05-01T07:40:18Z</time></trkpt><trkpt lat="47.492469656474306" lon="10.747913127307948"><ele>923.0</ele><time>2026-05-01T07:40:19Z</time></trkpt><trkpt lat="47.49263582862124" lon="10.747828501961589"><ele>923.0</ele><time>2026-05-01T07:40:20Z</time></trkpt><trkpt lat="47.49280173613123" lon="10.747739989025515"><ele>923.0</ele><time>2026-05-01T07:40:21Z</time></trkpt><trkpt lat="47.49296770650912" lon="10.747645712402004"><ele>923.0</ele><time>2026-05-01T07:40:22Z</time></trkpt><trkpt lat="47.49313353008768" lon="10.747545441749299"><ele>912.0</ele><time>2026-05-01T07:40:23Z</time></trkpt><trkpt lat="47.49330261348577" lon="10.747433706008094"><ele>901.0</ele><time>2026-05-01T07:40:24Z</time></trkpt><trkpt lat="47.493475960973015" lon="10.747311319427416"><ele>890.0</ele><time>2026-05-01T07:40:25Z</time></trkpt><trkpt lat="47.49365519489224" lon="10.747179475507396"><ele>891.3333333333334</ele><time>2026-05-01T07:40:26Z</time></trkpt><trkpt lat="47.49383834201923" lon="10.747037408673437"><ele>892.6666666666667</ele><time>2026-05-01T07:40:27Z</time></trkpt><trkpt lat="47.4940247398739" lon="10.74688502686528"><ele>894.0</ele><time>2026-05-01T07:40:28Z</time></trkpt><trkpt lat="47.494206076333924" lon="10.74672998314738"><ele>894.0</ele><time>2026-05-01T07:40:29Z</time></trkpt><trkpt lat="47.49438502953273" lon="10.746575793992683"><ele>894.0</ele><time>2026-05-01T07:40:30Z</time></trkpt><trkpt lat="47.49457093237365" lon="10.746403004405636"><ele>894.0</ele><time>2026-05-01T07:40:31Z</time></trkpt><trkpt lat="47.494759037109276" lon="10.746214497747227"><ele>888.0</ele><time>2026-05-01T07:40:32Z</time></trkpt><trkpt lat="47.49493900209609" lon="10.74601172987858"><ele>882.0</ele><time>2026-05-01T07:40:33Z</time></trkpt><trkpt lat="47.495122779117125" lon="10.7458112311363"><ele>882.0</ele><time>2026-05-01T07:40:34Z</time></trkpt><trkpt lat="47.495304244122956" lon="10.74560010353674"><ele>882.0</ele><time>2026-05-01T07:40:35Z</time></trkpt><trkpt lat="47.495478158998715" lon="10.745391866990849"><ele>882.0</ele><time>2026-05-01T07:40:36Z</time></trkpt><trkpt lat="47.49564724823457" lon="10.745177571457129"><ele>882.0</ele><time>2026-05-01T07:40:37Z</time></trkpt><trkpt lat="47.49581229491395" lon="10.744954121344898"><ele>882.0</ele><time>2026-05-01T07:40:38Z</time></trkpt><trkpt lat="47.49597652975193" lon="10.744720460879064"><ele>882.0</ele><time>2026-05-01T07:40:39Z</time></trkpt><trkpt lat="47.49613446398865" lon="10.744479901854953"><ele>882.0</ele><time>2026-05-01T07:40:40Z</time></trkpt><trkpt lat="47.49629115196842" lon="10.744236200458014"><ele>890.5</ele><time>2026-05-01T07:40:41Z</time></trkpt><trkpt lat="47.496442977435336" lon="10.743988744373757"><ele>899.0</ele><time>2026-05-01T07:40:42Z</time></trkpt><trkpt lat="47.49658937395005" lon="10.743738207198147"><ele>894.0</ele><time>2026-05-01T07:40:43Z</time></trkpt><trkpt lat="47.496729154155965" lon="10.743482264443042"><ele>889.0</ele><time>2026-05-01T07:40:44Z</time></trkpt><trkpt lat="47.4968641642057" lon="10.743222247398622"><ele>884.0</ele><time>2026-05-01T07:40:45Z</time></trkpt><trkpt lat="47.496995911734516" lon="10.742955517897874"><ele>898.0</ele><time>2026-05-01T07:40:46Z</time></trkpt><trkpt lat="47.497122599886666" lon="10.74268445272153"><ele>912.0</ele><time>2026-05-01T07:40:47Z</time></trkpt><trkpt lat="47.49724910610803" lon="10.742401851260995"><ele>912.0</ele><time>2026-05-01T07:40:48Z</time></trkpt><trkpt lat="47.497368705335774" lon="10.742117429214785"><ele>912.0</ele><time>2026-05-01T07:40:49Z</time></trkpt><trkpt lat="47.497486266128014" lon="10.741828139266186"><ele>913.5</ele><time>2026-05-01T07:40:50Z</time></trkpt><trkpt lat="47.49764162622091" lon="10.74140453743375"><ele>915.0</ele><time>2026-05-01T07:40:51Z</time></trkpt><trkpt lat="47.49776161850167" lon="10.741095429726224"><ele>916.0</ele><time>2026-05-01T07:40:52Z</time></trkpt><trkpt lat="47.49788257677656" lon="10.740790320015096"><ele>917.0</ele><time>2026-05-01T07:40:53Z</time></trkpt><trkpt lat="47.49800901624886" lon="10.740479971545053"><ele>917.0</ele><time>2026-05-01T07:40:54Z</time></trkpt><trkpt lat="47.49813120032746" lon="10.740278934206824"><ele>917.0</ele><time>2026-05-01T07:40:55Z</time></trkpt><trkpt lat="47.49826513343505" lon="10.739970701697702"><ele>917.0</ele><time>2026-05-01T07:40:56Z</time></trkpt><trkpt lat="47.49839624485066" lon="10.739672000255005"><ele>917.0</ele><time>2026-05-01T07:40:57Z</time></trkpt><trkpt lat="47.498538974172284" lon="10.739385720983467"><ele>917.0</ele><time>2026-05-01T07:40:58Z</time></trkpt><trkpt lat="47.49869211947023" lon="10.739103426625636"><ele>913.5</ele><time>2026-05-01T07:40:59Z</time></trkpt><trkpt lat="47.498849127510425" lon="10.73883128013391"><ele>910.0</ele><time>2026-05-01T07:41:00Z</time></trkpt><trkpt lat="47.499011539361796" lon="10.738571223684943"><ele>911.5</ele><time>2026-05-01T07:41:01Z</time></trkpt><trkpt lat="47.49917929999105" lon="10.73831371641414"><ele>913.0</ele><time>2026-05-01T07:41:02Z</time></trkpt><trkpt lat="47.49935351353714" lon="10.738063568827748"><ele>913.0</ele><time>2026-05-01T07:41:03Z</time></trkpt><trkpt lat="47.499532417945396" lon="10.73781838985348"><ele>913.0</ele><time>2026-05-01T07:41:04Z</time></trkpt><trkpt lat="47.499711124381854" lon="10.737591543763953"><ele>914.5</ele><time>2026-05-01T07:41:05Z</time></trkpt><trkpt lat="47.499896609269065" lon="10.737370630730702"><ele>916.0</ele><time>2026-05-01T07:41:06Z</time></trkpt><trkpt lat="47.50009178890853" lon="10.73716589063945"><ele>916.0</ele><time>2026-05-01T07:41:07Z</time></trkpt><trkpt lat="47.50028655541856" lon="10.736972751572887"><ele>916.0</ele><time>2026-05-01T07:41:08Z</time></trkpt><trkpt lat="47.500492769268526" lon="10.73679309869735"><ele>914.0</ele><time>2026-05-01T07:41:09Z</time></trkpt><trkpt lat="47.500703083915226" lon="10.736630525046667"><ele>912.0</ele><time>2026-05-01T07:41:10Z</time></trkpt><trkpt lat="47.500918470432445" lon="10.736490851976603"><ele>912.0</ele><time>2026-05-01T07:41:11Z</time></trkpt><trkpt lat="47.50114143839274" lon="10.736363975938126"><ele>912.0</ele><time>2026-05-01T07:41:12Z</time></trkpt><trkpt lat="47.50140612952794" lon="10.73626897954601"><ele>911.0</ele><time>2026-05-01T07:41:13Z</time></trkpt><trkpt lat="47.50163439817606" lon="10.736150068849772"><ele>910.0</ele><time>2026-05-01T07:41:14Z</time></trkpt><trkpt lat="47.50187161191502" lon="10.736039760208538"><ele>914.0</ele><time>2026-05-01T07:41:15Z</time></trkpt><trkpt lat="47.50210808359703" lon="10.73593023190412"><ele>918.0</ele><time>2026-05-01T07:41:16Z</time></trkpt><trkpt lat="47.50235249377825" lon="10.735839277096172"><ele>918.0</ele><time>2026-05-01T07:41:17Z</time></trkpt><trkpt lat="47.50258609037341" lon="10.735742968535611"><ele>918.0</ele><time>2026-05-01T07:41:18Z</time></trkpt><trkpt lat="47.50281261541949" lon="10.735662963842127"><ele>920.0</ele><time>2026-05-01T07:41:19Z</time></trkpt><trkpt lat="47.50304192224241" lon="10.73559278877372"><ele>922.0</ele><time>2026-05-01T07:41:20Z</time></trkpt><trkpt lat="47.503273937947775" lon="10.7355131416612"><ele>922.0</ele><time>2026-05-01T07:41:21Z</time></trkpt><trkpt lat="47.50350735432239" lon="10.735437245332115"><ele>922.0</ele><time>2026-05-01T07:41:22Z</time></trkpt><trkpt lat="47.50373890984237" lon="10.735371999799979"><ele>925.0</ele><time>2026-05-01T07:41:23Z</time></trkpt><trkpt lat="47.503964562654104" lon="10.735306849758402"><ele>928.0</ele><time>2026-05-01T07:41:24Z</time></trkpt><trkpt lat="47.504185398255" lon="10.735241853443114"><ele>923.0</ele><time>2026-05-01T07:41:25Z</time></trkpt><trkpt lat="47.504402704912366" lon="10.735171962915071"><ele>918.0</ele><time>2026-05-01T07:41:26Z</time></trkpt><trkpt lat="47.50462182078005" lon="10.735099278087757"><ele>913.0</ele><time>2026-05-01T07:41:27Z</time></trkpt><trkpt lat="47.50483201514765" lon="10.735032183430798"><ele>913.0</ele><time>2026-05-01T07:41:28Z</time></trkpt><trkpt lat="47.505046833770955" lon="10.734963489510834"><ele>913.0</ele><time>2026-05-01T07:41:29Z</time></trkpt><trkpt lat="47.50525984126961" lon="10.734895571502665"><ele>913.0</ele><time>2026-05-01T07:41:30Z</time></trkpt><trkpt lat="47.505470030975765" lon="10.734830239896974"><ele>913.6666666666666</ele><time>2026-05-01T07:41:31Z</time></trkpt><trkpt lat="47.50568503646501" lon="10.734760131678826"><ele>914.3333333333333</ele><time>2026-05-01T07:41:32Z</time></trkpt><trkpt lat="47.505890975557996" lon="10.734692930124396"><ele>915.0</ele><time>2026-05-01T07:41:33Z</time></trkpt><trkpt lat="47.506089090868414" lon="10.734629883745646"><ele>918.0</ele><time>2026-05-01T07:41:34Z</time></trkpt><trkpt lat="47.506285903184185" lon="10.734568573665046"><ele>921.0</ele><time>2026-05-01T07:41:35Z</time></trkpt><trkpt lat="47.50648119222676" lon="10.734510000520304"><ele>924.0</ele><time>2026-05-01T07:41:36Z</time></trkpt><trkpt lat="47.50667967059656" lon="10.734447295888627"><ele>919.0</ele><time>2026-05-01T07:41:37Z</time></trkpt><trkpt lat="47.50688278584959" lon="10.734385610260741"><ele>914.0</ele><time>2026-05-01T07:41:38Z</time></trkpt><trkpt lat="47.50708883502768" lon="10.734321761667971"><ele>909.0</ele><time>2026-05-01T07:41:39Z</time></trkpt><trkpt lat="47.50729075017654" lon="10.734255348812049"><ele>909.0</ele><time>2026-05-01T07:41:40Z</time></trkpt><trkpt lat="47.507501839311686" lon="10.734184187228989"><ele>909.0</ele><time>2026-05-01T07:41:41Z</time></trkpt><trkpt lat="47.50771373262798" lon="10.73410849997087"><ele>909.0</ele><time>2026-05-01T07:41:42Z</time></trkpt><trkpt lat="47.50793005467267" lon="10.734028930594079"><ele>910.6666666666667</ele><time>2026-05-01T07:41:43Z</time></trkpt><trkpt lat="47.50814467380366" lon="10.73394912781324"><ele>912.3333333333334</ele><time>2026-05-01T07:41:44Z</time></trkpt><trkpt lat="47.50836131664356" lon="10.733870004538346"><ele>914.0</ele><time>2026-05-01T07:41:45Z</time></trkpt><trkpt lat="47.50857977674398" lon="10.733791238862779"><ele>912.3333333333334</ele><time>2026-05-01T07:41:46Z</time></trkpt><trkpt lat="47.508794618129954" lon="10.733709961392288"><ele>910.6666666666667</ele><time>2026-05-01T07:41:47Z</time></trkpt><trkpt lat="47.50901169053279" lon="10.7336241990628"><ele>909.0</ele><time>2026-05-01T07:41:48Z</time></trkpt><trkpt lat="47.509228279719935" lon="10.733533503137872"><ele>905.0</ele><time>2026-05-01T07:41:49Z</time></trkpt><trkpt lat="47.50944459065005" lon="10.73343613812909"><ele>901.0</ele><time>2026-05-01T07:41:50Z</time></trkpt><trkpt lat="47.50966018409015" lon="10.733337020895817"><ele>898.0</ele><time>2026-05-01T07:41:51Z</time></trkpt><trkpt lat="47.50987565502328" lon="10.733234989709596"><ele>895.0</ele><time>2026-05-01T07:41:52Z</time></trkpt><trkpt lat="47.510096595480604" lon="10.73312790234623"><ele>895.0</ele><time>2026-05-01T07:41:53Z</time></trkpt><trkpt lat="47.510315358088" lon="10.733019258327552"><ele>895.0</ele><time>2026-05-01T07:41:54Z</time></trkpt><trkpt lat="47.510535315481555" lon="10.732899262072648"><ele>894.5</ele><time>2026-05-01T07:41:55Z</time></trkpt><trkpt lat="47.51074880378951" lon="10.732783783552586"><ele>894.0</ele><time>2026-05-01T07:41:56Z</time></trkpt><trkpt lat="47.510967352743755" lon="10.732655746131005"><ele>891.0</ele><time>2026-05-01T07:41:57Z</time></trkpt><trkpt lat="47.511182214876406" lon="10.732524885680288"><ele>888.0</ele><time>2026-05-01T07:41:58Z</time></trkpt><trkpt lat="47.5113976093942" lon="10.732394342192741"><ele>885.5</ele><time>2026-05-01T07:41:59Z</time></trkpt><trkpt lat="47.511610328111054" lon="10.73225706500113"><ele>883.0</ele><time>2026-05-01T07:42:00Z</time></trkpt><trkpt lat="47.511822915679666" lon="10.732119679279544"><ele>883.0</ele><time>2026-05-01T07:42:01Z</time></trkpt><trkpt lat="47.5120323706349" lon="10.731983361504732"><ele>883.0</ele><time>2026-05-01T07:42:02Z</time></trkpt><trkpt lat="47.51223931286144" lon="10.731844041396942"><ele>881.5</ele><time>2026-05-01T07:42:03Z</time></trkpt><trkpt lat="47.512446645822635" lon="10.731699426730106"><ele>880.0</ele><time>2026-05-01T07:42:04Z</time></trkpt><trkpt lat="47.512646449520616" lon="10.73155806561227"><ele>880.0</ele><time>2026-05-01T07:42:05Z</time></trkpt><trkpt lat="47.51284513364027" lon="10.73140852831804"><ele>880.0</ele><time>2026-05-01T07:42:06Z</time></trkpt><trkpt lat="47.51304180115595" lon="10.731255890765915"><ele>880.0</ele><time>2026-05-01T07:42:07Z</time></trkpt><trkpt lat="47.513234159862456" lon="10.731098465106466"><ele>880.3333333333333</ele><time>2026-05-01T07:42:08Z</time></trkpt><trkpt lat="47.5134270346128" lon="10.730939992201462"><ele>880.6666666666667</ele><time>2026-05-01T07:42:09Z</time></trkpt><trkpt lat="47.513617963489054" lon="10.730780869898759"><ele>881.0</ele><time>2026-05-01T07:42:10Z</time></trkpt><trkpt lat="47.5138125547671" lon="10.730614388367304"><ele>881.0</ele><time>2026-05-01T07:42:11Z</time></trkpt><trkpt lat="47.51399799491468" lon="10.730447919210697"><ele>881.0</ele><time>2026-05-01T07:42:12Z</time></trkpt><trkpt lat="47.51418459520538" lon="10.730275062422702"><ele>881.0</ele><time>2026-05-01T07:42:13Z</time></trkpt><trkpt lat="47.51437612450666" lon="10.730094541521536"><ele>881.0</ele><time>2026-05-01T07:42:14Z</time></trkpt><trkpt lat="47.51456331283654" lon="10.72991121936746"><ele>881.0</ele><time>2026-05-01T07:42:15Z</time></trkpt><trkpt lat="47.51475043009983" lon="10.729724243335651"><ele>879.0</ele><time>2026-05-01T07:42:16Z</time></trkpt><trkpt lat="47.5149379775103" lon="10.72953298633386"><ele>877.0</ele><time>2026-05-01T07:42:17Z</time></trkpt><trkpt lat="47.515123753180696" lon="10.729337888135854"><ele>877.0</ele><time>2026-05-01T07:42:18Z</time></trkpt><trkpt lat="47.51530816648235" lon="10.729137504325521"><ele>877.0</ele><time>2026-05-01T07:42:19Z</time></trkpt><trkpt lat="47.515487976009425" lon="10.72894127287579"><ele>875.5</ele><time>2026-05-01T07:42:20Z</time></trkpt><trkpt lat="47.51566626083437" lon="10.72873689410929"><ele>874.0</ele><time>2026-05-01T07:42:21Z</time></trkpt><trkpt lat="47.515845991643204" lon="10.72852995425397"><ele>874.0</ele><time>2026-05-01T07:42:22Z</time></trkpt><trkpt lat="47.51601044997666" lon="10.72833579478858"><ele>874.0</ele><time>2026-05-01T07:42:23Z</time></trkpt><trkpt lat="47.51617025372076" lon="10.728142257126379"><ele>874.0</ele><time>2026-05-01T07:42:24Z</time></trkpt><trkpt lat="47.51632764598243" lon="10.727949125884392"><ele>873.3333333333333</ele><time>2026-05-01T07:42:25Z</time></trkpt><trkpt lat="47.51648724006673" lon="10.727744328005885"><ele>872.6666666666667</ele><time>2026-05-01T07:42:26Z</time></trkpt><trkpt lat="47.51664328625464" lon="10.727537575745638"><ele>872.0</ele><time>2026-05-01T07:42:27Z</time></trkpt><trkpt lat="47.51680247220852" lon="10.727335410157517"><ele>872.0</ele><time>2026-05-01T07:42:28Z</time></trkpt><trkpt lat="47.51696234092276" lon="10.727111756285412"><ele>872.0</ele><time>2026-05-01T07:42:29Z</time></trkpt><trkpt lat="47.51712037593835" lon="10.726895268496945"><ele>872.0</ele><time>2026-05-01T07:42:30Z</time></trkpt><trkpt lat="47.51727314802843" lon="10.726678096584216"><ele>871.0</ele><time>2026-05-01T07:42:31Z</time></trkpt><trkpt lat="47.517424997098004" lon="10.726454237434801"><ele>870.0</ele><time>2026-05-01T07:42:32Z</time></trkpt><trkpt lat="47.5175755955218" lon="10.726221988457777"><ele>869.0</ele><time>2026-05-01T07:42:33Z</time></trkpt><trkpt lat="47.517722851056966" lon="10.725984814504615"><ele>868.6666666666667</ele><time>2026-05-01T07:42:34Z</time></trkpt><trkpt lat="47.51786681239891" lon="10.725741286762409"><ele>868.3333333333333</ele><time>2026-05-01T07:42:35Z</time></trkpt><trkpt lat="47.51800793269089" lon="10.725497925224586"><ele>868.0</ele><time>2026-05-01T07:42:36Z</time></trkpt><trkpt lat="47.51814971168436" lon="10.725242126400461"><ele>865.0</ele><time>2026-05-01T07:42:37Z</time></trkpt><trkpt lat="47.51828524454656" lon="10.724987973207488"><ele>862.0</ele><time>2026-05-01T07:42:38Z</time></trkpt><trkpt lat="47.51841949964182" lon="10.72472958767421"><ele>859.0</ele><time>2026-05-01T07:42:39Z</time></trkpt><trkpt lat="47.518548991562795" lon="10.724471173601314"><ele>858.6666666666666</ele><time>2026-05-01T07:42:40Z</time></trkpt><trkpt lat="47.51867980934606" lon="10.724202310275572"><ele>858.3333333333333</ele><time>2026-05-01T07:42:41Z</time></trkpt><trkpt lat="47.51880103113418" lon="10.723945383467331"><ele>858.0</ele><time>2026-05-01T07:42:42Z</time></trkpt><trkpt lat="47.51892552776691" lon="10.723684061656542"><ele>857.0</ele><time>2026-05-01T07:42:43Z</time></trkpt><trkpt lat="47.519044047124176" lon="10.723419741440622"><ele>856.0</ele><time>2026-05-01T07:42:44Z</time></trkpt><trkpt lat="47.519156802241405" lon="10.723163186554375"><ele>855.0</ele><time>2026-05-01T07:42:45Z</time></trkpt><trkpt lat="47.51927304181919" lon="10.722892152647807"><ele>855.3333333333333</ele><time>2026-05-01T07:42:46Z</time></trkpt><trkpt lat="47.51938758534779" lon="10.722618441436754"><ele>855.6666666666666</ele><time>2026-05-01T07:42:47Z</time></trkpt><trkpt lat="47.51949767741237" lon="10.722341092318832"><ele>856.0</ele><time>2026-05-01T07:42:48Z</time></trkpt><trkpt lat="47.51960538965025" lon="10.722061282282288"><ele>854.6666666666666</ele><time>2026-05-01T07:42:49Z</time></trkpt><trkpt lat="47.519711481816024" lon="10.721779408344613"><ele>853.3333333333333</ele><time>2026-05-01T07:42:50Z</time></trkpt><trkpt lat="47.51981616444853" lon="10.721497532910544"><ele>852.0</ele><time>2026-05-01T07:42:51Z</time></trkpt><trkpt lat="47.51991611102291" lon="10.721211985972774"><ele>851.3333333333333</ele><time>2026-05-01T07:42:52Z</time></trkpt><trkpt lat="47.52001343080491" lon="10.720925933051822"><ele>850.6666666666666</ele><time>2026-05-01T07:42:53Z</time></trkpt><trkpt lat="47.52010946354363" lon="10.720635233251322"><ele>850.0</ele><time>2026-05-01T07:42:54Z</time></trkpt><trkpt lat="47.520196548215864" lon="10.72035203666747"><ele>850.3333333333333</ele><time>2026-05-01T07:42:55Z</time></trkpt><trkpt lat="47.52027888804133" lon="10.720070253456191"><ele>850.6666666666667</ele><time>2026-05-01T07:42:56Z</time></trkpt><trkpt lat="47.52035894495642" lon="10.71980242189987"><ele>851.0</ele><time>2026-05-01T07:42:57Z</time></trkpt><trkpt lat="47.520435970181694" lon="10.719542720299316"><ele>849.3333333333334</ele><time>2026-05-01T07:42:58Z</time></trkpt><trkpt lat="47.5205100099999" lon="10.719277413524418"><ele>847.6666666666667</ele><time>2026-05-01T07:42:59Z</time></trkpt><trkpt lat="47.52058520731287" lon="10.719003258988185"><ele>846.0</ele><time>2026-05-01T07:43:00Z</time></trkpt><trkpt lat="47.52066207812119" lon="10.718725413854926"><ele>845.0</ele><time>2026-05-01T07:43:01Z</time></trkpt><trkpt lat="47.520735125590754" lon="10.718452680043438"><ele>844.0</ele><time>2026-05-01T07:43:02Z</time></trkpt><trkpt lat="47.520810070973475" lon="10.718174767077766"><ele>843.0</ele><time>2026-05-01T07:43:03Z</time></trkpt><trkpt lat="47.52088705444579" lon="10.717887184144894"><ele>843.3333333333333</ele><time>2026-05-01T07:43:04Z</time></trkpt><trkpt lat="47.52096255593466" lon="10.717599471900996"><ele>843.6666666666666</ele><time>2026-05-01T07:43:05Z</time></trkpt><trkpt lat="47.52103821357432" lon="10.717319187114041"><ele>844.0</ele><time>2026-05-01T07:43:06Z</time></trkpt><trkpt lat="47.52111316529077" lon="10.71703615931957"><ele>844.3333333333333</ele><time>2026-05-01T07:43:07Z</time></trkpt><trkpt lat="47.52118682014295" lon="10.716759738295565"><ele>844.6666666666667</ele><time>2026-05-01T07:43:08Z</time></trkpt><trkpt lat="47.52125918390691" lon="10.716484525833659"><ele>845.0</ele><time>2026-05-01T07:43:09Z</time></trkpt><trkpt lat="47.52133185069205" lon="10.716210615132148"><ele>849.3333333333334</ele><time>2026-05-01T07:43:10Z</time></trkpt><trkpt lat="47.5214017207334" lon="10.715946943911232"><ele>853.6666666666667</ele><time>2026-05-01T07:43:11Z</time></trkpt><trkpt lat="47.52147093251283" lon="10.715690074009828"><ele>858.0</ele><time>2026-05-01T07:43:12Z</time></trkpt><trkpt lat="47.521538191972546" lon="10.715450637678778"><ele>856.6666666666667</ele><time>2026-05-01T07:43:13Z</time></trkpt><trkpt lat="47.52160139597717" lon="10.715220714793137"><ele>855.3333333333334</ele><time>2026-05-01T07:43:14Z</time></trkpt><trkpt lat="47.521660646160676" lon="10.71501690036654"><ele>854.0</ele><time>2026-05-01T07:43:15Z</time></trkpt><trkpt lat="47.521710389978786" lon="10.714832379226863"><ele>854.0</ele><time>2026-05-01T07:43:16Z</time></trkpt><trkpt lat="47.521755783863135" lon="10.714659994547366"><ele>854.0</ele><time>2026-05-01T07:43:17Z</time></trkpt><trkpt lat="47.521804042427505" lon="10.714497660770215"><ele>854.0</ele><time>2026-05-01T07:43:18Z</time></trkpt><trkpt lat="47.521853045642416" lon="10.714327797786167"><ele>854.0</ele><time>2026-05-01T07:43:19Z</time></trkpt><trkpt lat="47.521903131600965" lon="10.71414726577882"><ele>852.75</ele><time>2026-05-01T07:43:20Z</time></trkpt><trkpt lat="47.52195341202646" lon="10.713960480169725"><ele>851.5</ele><time>2026-05-01T07:43:21Z</time></trkpt><trkpt lat="47.52200205179073" lon="10.713774133167663"><ele>850.25</ele><time>2026-05-01T07:43:22Z</time></trkpt><trkpt lat="47.52205099175619" lon="10.713595104105012"><ele>849.0</ele><time>2026-05-01T07:43:23Z</time></trkpt><trkpt lat="47.52210105169756" lon="10.71341335163369"><ele>850.0</ele><time>2026-05-01T07:43:24Z</time></trkpt><trkpt lat="47.522148893132695" lon="10.71323915104269"><ele>851.0</ele><time>2026-05-01T07:43:25Z</time></trkpt><trkpt lat="47.52219501262349" lon="10.713066052862098"><ele>852.0</ele><time>2026-05-01T07:43:26Z</time></trkpt><trkpt lat="47.522243020977285" lon="10.712887682976493"><ele>853.0</ele><time>2026-05-01T07:43:27Z</time></trkpt><trkpt lat="47.522289605934475" lon="10.712711049233326"><ele>853.0</ele><time>2026-05-01T07:43:28Z</time></trkpt><trkpt lat="47.522334496850135" lon="10.712541161285477"><ele>853.0</ele><time>2026-05-01T07:43:29Z</time></trkpt><trkpt lat="47.52237989138028" lon="10.712368588576489"><ele>853.0</ele><time>2026-05-01T07:43:30Z</time></trkpt><trkpt lat="47.522427714388236" lon="10.712194779266826"><ele>853.0</ele><time>2026-05-01T07:43:31Z</time></trkpt><trkpt lat="47.52247474113269" lon="10.71201656968795"><ele>851.5</ele><time>2026-05-01T07:43:32Z</time></trkpt><trkpt lat="47.52252245650647" lon="10.711835683013943"><ele>850.0</ele><time>2026-05-01T07:43:33Z</time></trkpt><trkpt lat="47.52257182246974" lon="10.711647959100596"><ele>848.5</ele><time>2026-05-01T07:43:34Z</time></trkpt><trkpt lat="47.52262169906029" lon="10.71144489141148"><ele>847.0</ele><time>2026-05-01T07:43:35Z</time></trkpt><trkpt lat="47.522676049992974" lon="10.711233012764877"><ele>845.0</ele><time>2026-05-01T07:43:36Z</time></trkpt><trkpt lat="47.52273363081107" lon="10.711008978351446"><ele>843.0</ele><time>2026-05-01T07:43:37Z</time></trkpt><trkpt lat="47.52279646127419" lon="10.710776145882928"><ele>841.0</ele><time>2026-05-01T07:43:38Z</time></trkpt><trkpt lat="47.522862626378014" lon="10.710530117305995"><ele>842.6666666666666</ele><time>2026-05-01T07:43:39Z</time></trkpt><trkpt lat="47.52293111939899" lon="10.710274883842644"><ele>844.3333333333333</ele><time>2026-05-01T07:43:40Z</time></trkpt><trkpt lat="47.523003292036854" lon="10.710010693170968"><ele>846.0</ele><time>2026-05-01T07:43:41Z</time></trkpt><trkpt lat="47.52307701520371" lon="10.709742269013272"><ele>846.0</ele><time>2026-05-01T07:43:42Z</time></trkpt><trkpt lat="47.52315069018003" lon="10.709475925583057"><ele>846.0</ele><time>2026-05-01T07:43:43Z</time></trkpt><trkpt lat="47.52322597791168" lon="10.709195665154205"><ele>846.0</ele><time>2026-05-01T07:43:44Z</time></trkpt><trkpt lat="47.5233001501144" lon="10.70891240377217"><ele>846.0</ele><time>2026-05-01T07:43:45Z</time></trkpt><trkpt lat="47.52337661963415" lon="10.708627282580304"><ele>846.0</ele><time>2026-05-01T07:43:46Z</time></trkpt><trkpt lat="47.52345042440055" lon="10.708348466072243"><ele>846.0</ele><time>2026-05-01T07:43:47Z</time></trkpt><trkpt lat="47.52352336877818" lon="10.708071247750516"><ele>846.0</ele><time>2026-05-01T07:43:48Z</time></trkpt><trkpt lat="47.52359606019787" lon="10.70779554521121"><ele>846.0</ele><time>2026-05-01T07:43:49Z</time></trkpt><trkpt lat="47.52366887927421" lon="10.707521068943905"><ele>846.0</ele><time>2026-05-01T07:43:50Z</time></trkpt><trkpt lat="47.52374317237557" lon="10.707246138571882"><ele>845.0</ele><time>2026-05-01T07:43:51Z</time></trkpt><trkpt lat="47.52381832831175" lon="10.70696756517334"><ele>844.0</ele><time>2026-05-01T07:43:52Z</time></trkpt><trkpt lat="47.52389550612459" lon="10.70668189840627"><ele>843.0</ele><time>2026-05-01T07:43:53.001Z</time></trkpt><trkpt lat="47.5239734713855" lon="10.706389083108455"><ele>845.0</ele><time>2026-05-01T07:43:54.001Z</time></trkpt><trkpt lat="47.52405277438947" lon="10.706095198676815"><ele>847.0</ele><time>2026-05-01T07:43:55.001Z</time></trkpt><trkpt lat="47.524131961053214" lon="10.705791951066299"><ele>849.0</ele><time>2026-05-01T07:43:56.001Z</time></trkpt><trkpt lat="47.52421392961082" lon="10.705480783588438"><ele>850.6666666666667</ele><time>2026-05-01T07:43:57.001Z</time></trkpt><trkpt lat="47.524294671616765" lon="10.705174298580232"><ele>852.3333333333334</ele><time>2026-05-01T07:43:58.001Z</time></trkpt><trkpt lat="47.524376623227646" lon="10.704868947624263"><ele>854.0</ele><time>2026-05-01T07:43:59.001Z</time></trkpt><trkpt lat="47.52446199497867" lon="10.704553655122854"><ele>855.5</ele><time>2026-05-01T07:44:00.001Z</time></trkpt><trkpt lat="47.52454942127696" lon="10.70423101123156"><ele>857.0</ele><time>2026-05-01T07:44:01.001Z</time></trkpt><trkpt lat="47.52463798640855" lon="10.703900314915732"><ele>852.0</ele><time>2026-05-01T07:44:02.001Z</time></trkpt><trkpt lat="47.52472671335292" lon="10.703565381496599"><ele>847.0</ele><time>2026-05-01T07:44:03.001Z</time></trkpt><trkpt lat="47.52481651856711" lon="10.703237423391599"><ele>847.0</ele><time>2026-05-01T07:44:04.001Z</time></trkpt><trkpt lat="47.52490418065808" lon="10.702913431377112"><ele>847.0</ele><time>2026-05-01T07:44:05.001Z</time></trkpt><trkpt lat="47.52499033478509" lon="10.702597044742186"><ele>843.0</ele><time>2026-05-01T07:44:06.001Z</time></trkpt><trkpt lat="47.52507753546156" lon="10.70228133549894"><ele>839.0</ele><time>2026-05-01T07:44:07.001Z</time></trkpt><trkpt lat="47.52516416743487" lon="10.701967834095598"><ele>838.0</ele><time>2026-05-01T07:44:08.001Z</time></trkpt><trkpt lat="47.52525021378186" lon="10.701652639815281"><ele>837.0</ele><time>2026-05-01T07:44:09.001Z</time></trkpt><trkpt lat="47.52533706556945" lon="10.701334256353597"><ele>833.0</ele><time>2026-05-01T07:44:10.001Z</time></trkpt><trkpt lat="47.525421831080294" lon="10.701012215569863"><ele>829.0</ele><time>2026-05-01T07:44:11.001Z</time></trkpt><trkpt lat="47.525506161629025" lon="10.700693236146662"><ele>829.0</ele><time>2026-05-01T07:44:12.001Z</time></trkpt><trkpt lat="47.5255912851918" lon="10.70037140623743"><ele>829.0</ele><time>2026-05-01T07:44:13.001Z</time></trkpt><trkpt lat="47.52567510900769" lon="10.70005468045061"><ele>829.0</ele><time>2026-05-01T07:44:14.001Z</time></trkpt><trkpt lat="47.52576385209497" lon="10.699736793318472"><ele>829.0</ele><time>2026-05-01T07:44:15.001Z</time></trkpt><trkpt lat="47.52585206075413" lon="10.699417602128026"><ele>832.0</ele><time>2026-05-01T07:44:16.001Z</time></trkpt><trkpt lat="47.52593943275045" lon="10.699101664467932"><ele>835.0</ele><time>2026-05-01T07:44:17.001Z</time></trkpt><trkpt lat="47.52602594211227" lon="10.698785731689004"><ele>842.5</ele><time>2026-05-01T07:44:18.001Z</time></trkpt><trkpt lat="47.52611246778826" lon="10.698471149390073"><ele>850.0</ele><time>2026-05-01T07:44:19.001Z</time></trkpt><trkpt lat="47.52619795102028" lon="10.698156168549671"><ele>837.0</ele><time>2026-05-01T07:44:20.001Z</time></trkpt><trkpt lat="47.52628166143034" lon="10.6978459789676"><ele>824.0</ele><time>2026-05-01T07:44:21.001Z</time></trkpt><trkpt lat="47.526365857204375" lon="10.697534621652466"><ele>824.0</ele><time>2026-05-01T07:44:22.001Z</time></trkpt><trkpt lat="47.526450580084486" lon="10.697223882417905"><ele>824.0</ele><time>2026-05-01T07:44:23.001Z</time></trkpt><trkpt lat="47.526536401977104" lon="10.696919829635476"><ele>824.0</ele><time>2026-05-01T07:44:24.001Z</time></trkpt><trkpt lat="47.526624445008125" lon="10.696612013888476"><ele>825.0</ele><time>2026-05-01T07:44:25.001Z</time></trkpt><trkpt lat="47.526712339730544" lon="10.696309014773034"><ele>826.0</ele><time>2026-05-01T07:44:26.001Z</time></trkpt><trkpt lat="47.52680089175245" lon="10.696006342439668"><ele>827.0</ele><time>2026-05-01T07:44:27.001Z</time></trkpt><trkpt lat="47.52689001422916" lon="10.695705738473114"><ele>827.0</ele><time>2026-05-01T07:44:28.001Z</time></trkpt><trkpt lat="47.52698023873159" lon="10.695402383834546"><ele>827.0</ele><time>2026-05-01T07:44:29.001Z</time></trkpt><trkpt lat="47.527072630760095" lon="10.695102290471144"><ele>827.0</ele><time>2026-05-01T07:44:30.001Z</time></trkpt><trkpt lat="47.52716827443306" lon="10.694799374640251"><ele>825.5</ele><time>2026-05-01T07:44:31Z</time></trkpt><trkpt lat="47.5272647383894" lon="10.69449903897812"><ele>824.0</ele><time>2026-05-01T07:44:32Z</time></trkpt><trkpt lat="47.52736107945602" lon="10.694197132886345"><ele>824.0</ele><time>2026-05-01T07:44:33Z</time></trkpt><trkpt lat="47.52745601726236" lon="10.693897150969521"><ele>824.0</ele><time>2026-05-01T07:44:34Z</time></trkpt><trkpt lat="47.52755293030079" lon="10.693590230093838"><ele>823.0</ele><time>2026-05-01T07:44:35Z</time></trkpt><trkpt lat="47.52765080517156" lon="10.693285506930934"><ele>822.0</ele><time>2026-05-01T07:44:36Z</time></trkpt><trkpt lat="47.52774936603964" lon="10.692979877234677"><ele>821.3333333333333</ele><time>2026-05-01T07:44:37Z</time></trkpt><trkpt lat="47.52784667749123" lon="10.692679908721873"><ele>820.6666666666666</ele><time>2026-05-01T07:44:38Z</time></trkpt><trkpt lat="47.52794256468943" lon="10.692394240611852"><ele>820.0</ele><time>2026-05-01T07:44:39Z</time></trkpt><trkpt lat="47.52804096239836" lon="10.692100303568143"><ele>820.5</ele><time>2026-05-01T07:44:40Z</time></trkpt><trkpt lat="47.52814305758259" lon="10.691799907704432"><ele>821.0</ele><time>2026-05-01T07:44:41Z</time></trkpt><trkpt lat="47.52824798863775" lon="10.691496462692784"><ele>821.0</ele><time>2026-05-01T07:44:42Z</time></trkpt><trkpt lat="47.52835247469265" lon="10.691195389998658"><ele>821.0</ele><time>2026-05-01T07:44:43.001Z</time></trkpt><trkpt lat="47.52845813667939" lon="10.690894308779848"><ele>822.0</ele><time>2026-05-01T07:44:44.001Z</time></trkpt><trkpt lat="47.52856665181005" lon="10.690589645184776"><ele>823.0</ele><time>2026-05-01T07:44:45.001Z</time></trkpt><trkpt lat="47.528674345178025" lon="10.69029553493446"><ele>822.0</ele><time>2026-05-01T07:44:46.001Z</time></trkpt><trkpt lat="47.52878331860451" lon="10.690001593182894"><ele>821.0</ele><time>2026-05-01T07:44:47.001Z</time></trkpt><trkpt lat="47.528889513818235" lon="10.689717547511988"><ele>820.0</ele><time>2026-05-01T07:44:48.001Z</time></trkpt><trkpt lat="47.52899594896953" lon="10.689432243894798"><ele>820.0</ele><time>2026-05-01T07:44:49.001Z</time></trkpt><trkpt lat="47.52910175206856" lon="10.689147623517812"><ele>820.0</ele><time>2026-05-01T07:44:50.001Z</time></trkpt><trkpt lat="47.52920913151983" lon="10.68886589915974"><ele>820.0</ele><time>2026-05-01T07:44:51.001Z</time></trkpt><trkpt lat="47.529317356595485" lon="10.688586079615565"><ele>820.0</ele><time>2026-05-01T07:44:52.001Z</time></trkpt><trkpt lat="47.52942455867999" lon="10.688305464030433"><ele>820.0</ele><time>2026-05-01T07:44:53.001Z</time></trkpt><trkpt lat="47.529530605514644" lon="10.68803234644792"><ele>820.0</ele><time>2026-05-01T07:44:54.001Z</time></trkpt><trkpt lat="47.529637466319016" lon="10.68775674886823"><ele>820.0</ele><time>2026-05-01T07:44:55.001Z</time></trkpt><trkpt lat="47.52974408329928" lon="10.687484729132642"><ele>820.0</ele><time>2026-05-01T07:44:56.001Z</time></trkpt><trkpt lat="47.52985113680569" lon="10.687215999804367"><ele>820.0</ele><time>2026-05-01T07:44:57.001Z</time></trkpt><trkpt lat="47.5299587411146" lon="10.686950364517228"><ele>819.3333333333333</ele><time>2026-05-01T07:44:58.001Z</time></trkpt><trkpt lat="47.530065514408435" lon="10.686685680528173"><ele>818.6666666666667</ele><time>2026-05-01T07:44:59.001Z</time></trkpt><trkpt lat="47.53017342916882" lon="10.686420802030671"><ele>818.0</ele><time>2026-05-01T07:45:00.001Z</time></trkpt><trkpt lat="47.530285712415356" lon="10.686152681131109"><ele>818.0</ele><time>2026-05-01T07:45:01.001Z</time></trkpt><trkpt lat="47.530400989989005" lon="10.685882052364267"><ele>818.0</ele><time>2026-05-01T07:45:02.001Z</time></trkpt><trkpt lat="47.530517913780415" lon="10.685617048457349"><ele>818.0</ele><time>2026-05-01T07:45:03.001Z</time></trkpt><trkpt lat="47.53063760721178" lon="10.68534543973277"><ele>818.0</ele><time>2026-05-01T07:45:04.001Z</time></trkpt><trkpt lat="47.53075604511333" lon="10.685069226651938"><ele>818.0</ele><time>2026-05-01T07:45:05.001Z</time></trkpt><trkpt lat="47.530874316201384" lon="10.684792404372256"><ele>818.0</ele><time>2026-05-01T07:45:06.001Z</time></trkpt><trkpt lat="47.530993013705434" lon="10.684517510407733"><ele>817.6666666666667</ele><time>2026-05-01T07:45:07.001Z</time></trkpt><trkpt lat="47.531114115490944" lon="10.684240177062108"><ele>817.3333333333333</ele><time>2026-05-01T07:45:08.001Z</time></trkpt><trkpt lat="47.531235996593985" lon="10.683965648746588"><ele>817.0</ele><time>2026-05-01T07:45:09.001Z</time></trkpt><trkpt lat="47.53135997699409" lon="10.683691352377634"><ele>817.0</ele><time>2026-05-01T07:45:10.001Z</time></trkpt><trkpt lat="47.53148333220783" lon="10.683417905460763"><ele>817.0</ele><time>2026-05-01T07:45:11.001Z</time></trkpt><trkpt lat="47.53160595017598" lon="10.683145096004793"><ele>817.0</ele><time>2026-05-01T07:45:12.001Z</time></trkpt><trkpt lat="47.53173000192526" lon="10.682871947538237"><ele>817.3333333333333</ele><time>2026-05-01T07:45:13.001Z</time></trkpt><trkpt lat="47.53185441375837" lon="10.682601526814697"><ele>817.6666666666667</ele><time>2026-05-01T07:45:14.001Z</time></trkpt><trkpt lat="47.531978444934914" lon="10.682334983891694"><ele>818.0</ele><time>2026-05-01T07:45:15.001Z</time></trkpt><trkpt lat="47.53210638418329" lon="10.682067291859434"><ele>818.0</ele><time>2026-05-01T07:45:16.001Z</time></trkpt><trkpt lat="47.53223466037074" lon="10.681802819202899"><ele>818.0</ele><time>2026-05-01T07:45:17.001Z</time></trkpt><trkpt lat="47.532363653377026" lon="10.681538167004842"><ele>818.0</ele><time>2026-05-01T07:45:18.001Z</time></trkpt><trkpt lat="47.53249266980788" lon="10.681276406923004"><ele>818.0</ele><time>2026-05-01T07:45:19.001Z</time></trkpt><trkpt lat="47.53262255237012" lon="10.681012510634027"><ele>818.0</ele><time>2026-05-01T07:45:20.001Z</time></trkpt><trkpt lat="47.53275204062014" lon="10.6807494092761"><ele>818.0</ele><time>2026-05-01T07:45:21.001Z</time></trkpt><trkpt lat="47.53288339211622" lon="10.680486909511803"><ele>817.6666666666667</ele><time>2026-05-01T07:45:22.001Z</time></trkpt><trkpt lat="47.53301754617115" lon="10.680222594893783"><ele>817.3333333333333</ele><time>2026-05-01T07:45:23.001Z</time></trkpt><trkpt lat="47.53315250134888" lon="10.679962282208926"><ele>817.0</ele><time>2026-05-01T07:45:24.001Z</time></trkpt><trkpt lat="47.53328853027603" lon="10.679700271337966"><ele>817.5</ele><time>2026-05-01T07:45:25.001Z</time></trkpt><trkpt lat="47.53342544171558" lon="10.679432354519774"><ele>818.0</ele><time>2026-05-01T07:45:26.001Z</time></trkpt><trkpt lat="47.533562434239215" lon="10.679165998662594"><ele>818.0</ele><time>2026-05-01T07:45:27.001Z</time></trkpt><trkpt lat="47.53370148241171" lon="10.67890027441099"><ele>818.0</ele><time>2026-05-01T07:45:28.001Z</time></trkpt><trkpt lat="47.533839750085754" lon="10.678638664335224"><ele>817.3333333333334</ele><time>2026-05-01T07:45:29.001Z</time></trkpt><trkpt lat="47.533974417870134" lon="10.67838661779"><ele>816.6666666666667</ele><time>2026-05-01T07:45:30.001Z</time></trkpt><trkpt lat="47.534109098033184" lon="10.678142189307556"><ele>816.0</ele><time>2026-05-01T07:45:31.001Z</time></trkpt><trkpt lat="47.53424706994121" lon="10.677893459992012"><ele>815.6666666666667</ele><time>2026-05-01T07:45:32.001Z</time></trkpt><trkpt lat="47.534387840059445" lon="10.677640062984018"><ele>815.3333333333334</ele><time>2026-05-01T07:45:33.001Z</time></trkpt><trkpt lat="47.534530835014955" lon="10.67738483013101"><ele>815.0</ele><time>2026-05-01T07:45:34.001Z</time></trkpt><trkpt lat="47.53467557595195" lon="10.677126154141185"><ele>814.0</ele><time>2026-05-01T07:45:35.001Z</time></trkpt><trkpt lat="47.5348199388857" lon="10.67686663839027"><ele>813.0</ele><time>2026-05-01T07:45:36.001Z</time></trkpt><trkpt lat="47.53496739140074" lon="10.676608468493836"><ele>813.0</ele><time>2026-05-01T07:45:37.001Z</time></trkpt><trkpt lat="47.53511180422387" lon="10.676357028375964"><ele>813.0</ele><time>2026-05-01T07:45:38.001Z</time></trkpt><trkpt lat="47.535251714485966" lon="10.676113671012475"><ele>813.0</ele><time>2026-05-01T07:45:39.001Z</time></trkpt><trkpt lat="47.535391797334476" lon="10.675871065036265"><ele>813.6666666666667</ele><time>2026-05-01T07:45:40.001Z</time></trkpt><trkpt lat="47.53553295055005" lon="10.675626248129086"><ele>814.3333333333334</ele><time>2026-05-01T07:45:41.001Z</time></trkpt><trkpt lat="47.535675870680194" lon="10.67538065774694"><ele>815.0</ele><time>2026-05-01T07:45:42.001Z</time></trkpt><trkpt lat="47.53582190882156" lon="10.675138378144945"><ele>815.0</ele><time>2026-05-01T07:45:43.001Z</time></trkpt><trkpt lat="47.53596795094582" lon="10.674898342277615"><ele>815.0</ele><time>2026-05-01T07:45:44.001Z</time></trkpt><trkpt lat="47.53611362620429" lon="10.674659881210017"><ele>815.0</ele><time>2026-05-01T07:45:45.001Z</time></trkpt><trkpt lat="47.53626084048083" lon="10.674421321079183"><ele>814.3333333333334</ele><time>2026-05-01T07:45:46.001Z</time></trkpt><trkpt lat="47.53640706579441" lon="10.674183973518272"><ele>813.6666666666667</ele><time>2026-05-01T07:45:47.001Z</time></trkpt><trkpt lat="47.53655381215495" lon="10.673947558307068"><ele>813.0</ele><time>2026-05-01T07:45:48.001Z</time></trkpt><trkpt lat="47.53670116497431" lon="10.673713477688962"><ele>813.0</ele><time>2026-05-01T07:45:49.001Z</time></trkpt><trkpt lat="47.53684756187108" lon="10.673481904667355"><ele>813.0</ele><time>2026-05-01T07:45:50.001Z</time></trkpt><trkpt lat="47.53699579153619" lon="10.673247468612088"><ele>813.0</ele><time>2026-05-01T07:45:51.001Z</time></trkpt><trkpt lat="47.53714394035935" lon="10.67301474437272"><ele>813.0</ele><time>2026-05-01T07:45:52.001Z</time></trkpt><trkpt lat="47.53728982620603" lon="10.672783110297999"><ele>813.0</ele><time>2026-05-01T07:45:53.001Z</time></trkpt><trkpt lat="47.5374349666589" lon="10.672551167598956"><ele>813.0</ele><time>2026-05-01T07:45:54.001Z</time></trkpt><trkpt lat="47.53758350106701" lon="10.67232133490678"><ele>813.0</ele><time>2026-05-01T07:45:55.001Z</time></trkpt><trkpt lat="47.537730878304004" lon="10.672094218422442"><ele>813.0</ele><time>2026-05-01T07:45:56.001Z</time></trkpt><trkpt lat="47.537879560641706" lon="10.671865186111452"><ele>813.0</ele><time>2026-05-01T07:45:57.001Z</time></trkpt><trkpt lat="47.53802647889617" lon="10.671630872218522"><ele>813.0</ele><time>2026-05-01T07:45:58.001Z</time></trkpt><trkpt lat="47.53817073359485" lon="10.671392333367615"><ele>813.0</ele><time>2026-05-01T07:45:59.001Z</time></trkpt><trkpt lat="47.538311708266015" lon="10.67114724538229"><ele>813.0</ele><time>2026-05-01T07:46:00.001Z</time></trkpt><trkpt lat="47.538446372855006" lon="10.670892445638971"><ele>813.0</ele><time>2026-05-01T07:46:01.001Z</time></trkpt><trkpt lat="47.53857272360148" lon="10.670631763723625"><ele>813.0</ele><time>2026-05-01T07:46:02.001Z</time></trkpt><trkpt lat="47.538694112589546" lon="10.670367816177194"><ele>813.0</ele><time>2026-05-01T07:46:03.001Z</time></trkpt><trkpt lat="47.53880861186059" lon="10.670105859246219"><ele>812.6666666666667</ele><time>2026-05-01T07:46:04.001Z</time></trkpt><trkpt lat="47.53891817081259" lon="10.669836243119867"><ele>812.3333333333334</ele><time>2026-05-01T07:46:05.001Z</time></trkpt><trkpt lat="47.5390241027162" lon="10.669560723830122"><ele>812.0</ele><time>2026-05-01T07:46:06.001Z</time></trkpt><trkpt lat="47.53912675954534" lon="10.669281894228117"><ele>813.0</ele><time>2026-05-01T07:46:07.001Z</time></trkpt><trkpt lat="47.53922815496108" lon="10.66899691234441"><ele>814.0</ele><time>2026-05-01T07:46:08.001Z</time></trkpt><trkpt lat="47.53933066165429" lon="10.668714522911632"><ele>815.0</ele><time>2026-05-01T07:46:09.001Z</time></trkpt><trkpt lat="47.539438075708674" lon="10.66843213861523"><ele>814.6666666666667</ele><time>2026-05-01T07:46:10.001Z</time></trkpt><trkpt lat="47.539551178582094" lon="10.668155866127455"><ele>814.3333333333333</ele><time>2026-05-01T07:46:11.001Z</time></trkpt><trkpt lat="47.5396748241913" lon="10.66788609942201"><ele>814.0</ele><time>2026-05-01T07:46:12.001Z</time></trkpt><trkpt lat="47.53981101216045" lon="10.667630424899357"><ele>814.0</ele><time>2026-05-01T07:46:13.001Z</time></trkpt><trkpt lat="47.5399552875441" lon="10.667387774532115"><ele>814.0</ele><time>2026-05-01T07:46:14.001Z</time></trkpt><trkpt lat="47.54010751340735" lon="10.667152662612665"><ele>814.0</ele><time>2026-05-01T07:46:15.001Z</time></trkpt><trkpt lat="47.54026822175237" lon="10.666927741555023"><ele>813.0</ele><time>2026-05-01T07:46:16.001Z</time></trkpt><trkpt lat="47.540433164768515" lon="10.666721119464784"><ele>812.0</ele><time>2026-05-01T07:46:17.001Z</time></trkpt><trkpt lat="47.54060635570729" lon="10.666526206020373"><ele>811.0</ele><time>2026-05-01T07:46:18.001Z</time></trkpt><trkpt lat="47.540786125186834" lon="10.666346095346853"><ele>811.0</ele><time>2026-05-01T07:46:19.001Z</time></trkpt><trkpt lat="47.54097272708753" lon="10.66617961839776"><ele>811.0</ele><time>2026-05-01T07:46:20.001Z</time></trkpt><trkpt lat="47.54116249388445" lon="10.666028723324684"><ele>811.0</ele><time>2026-05-01T07:46:21.001Z</time></trkpt><trkpt lat="47.541353579793125" lon="10.665896509309976"><ele>811.0</ele><time>2026-05-01T07:46:22.001Z</time></trkpt><trkpt lat="47.541545688320824" lon="10.665778423048227"><ele>811.0</ele><time>2026-05-01T07:46:23.001Z</time></trkpt><trkpt lat="47.54173725754358" lon="10.66567006387836"><ele>811.0</ele><time>2026-05-01T07:46:24.001Z</time></trkpt><trkpt lat="47.54192575947055" lon="10.665568465222277"><ele>809.6666666666666</ele><time>2026-05-01T07:46:25.001Z</time></trkpt><trkpt lat="47.54210890742155" lon="10.665465313095034"><ele>808.3333333333333</ele><time>2026-05-01T07:46:26.001Z</time></trkpt><trkpt lat="47.54228577669135" lon="10.665361854525772"><ele>807.0</ele><time>2026-05-01T07:46:27.001Z</time></trkpt><trkpt lat="47.542461136077726" lon="10.665249216807075"><ele>808.3333333333333</ele><time>2026-05-01T07:46:28.001Z</time></trkpt><trkpt lat="47.542633429773225" lon="10.66512229156884"><ele>809.6666666666666</ele><time>2026-05-01T07:46:29.001Z</time></trkpt><trkpt lat="47.54280676221856" lon="10.664985127485048"><ele>811.0</ele><time>2026-05-01T07:46:30.001Z</time></trkpt><trkpt lat="47.54297653297955" lon="10.66483538013549"><ele>811.0</ele><time>2026-05-01T07:46:31.001Z</time></trkpt><trkpt lat="47.543146023302775" lon="10.664678519871346"><ele>811.0</ele><time>2026-05-01T07:46:32.001Z</time></trkpt><trkpt lat="47.54331538563209" lon="10.664507676218788"><ele>811.0</ele><time>2026-05-01T07:46:33.001Z</time></trkpt><trkpt lat="47.5434825903416" lon="10.66432756634667"><ele>811.6666666666666</ele><time>2026-05-01T07:46:34.001Z</time></trkpt><trkpt lat="47.543649018029996" lon="10.664137767359694"><ele>812.3333333333333</ele><time>2026-05-01T07:46:35.001Z</time></trkpt><trkpt lat="47.54381402120418" lon="10.663942727402697"><ele>813.0</ele><time>2026-05-01T07:46:36.001Z</time></trkpt><trkpt lat="47.54398066378732" lon="10.663746468591349"><ele>813.6666666666667</ele><time>2026-05-01T07:46:37.001Z</time></trkpt><trkpt lat="47.544148507763914" lon="10.663556351372414"><ele>814.3333333333334</ele><time>2026-05-01T07:46:38.001Z</time></trkpt><trkpt lat="47.544322739645494" lon="10.663376740686514"><ele>815.0</ele><time>2026-05-01T07:46:39.001Z</time></trkpt><trkpt lat="47.544501523020315" lon="10.663211948612288"><ele>814.0</ele><time>2026-05-01T07:46:40Z</time></trkpt><trkpt lat="47.54468762562908" lon="10.663060958323094"><ele>813.0</ele><time>2026-05-01T07:46:41Z</time></trkpt><trkpt lat="47.54487677327111" lon="10.662925270966412"><ele>812.0</ele><time>2026-05-01T07:46:42Z</time></trkpt><trkpt lat="47.54506631013561" lon="10.662799316793908"><ele>812.6666666666667</ele><time>2026-05-01T07:46:43Z</time></trkpt><trkpt lat="47.54525589047206" lon="10.66267656554434"><ele>813.3333333333333</ele><time>2026-05-01T07:46:44Z</time></trkpt><trkpt lat="47.54543798012607" lon="10.662555278597441"><ele>814.0</ele><time>2026-05-01T07:46:45Z</time></trkpt><trkpt lat="47.54561545708241" lon="10.662434225700082"><ele>814.0</ele><time>2026-05-01T07:46:46Z</time></trkpt><trkpt lat="47.54579228162285" lon="10.662310040698637"><ele>814.0</ele><time>2026-05-01T07:46:47Z</time></trkpt><trkpt lat="47.54596682039002" lon="10.66218550974073"><ele>814.0</ele><time>2026-05-01T07:46:48Z</time></trkpt><trkpt lat="47.54613260003227" lon="10.662057504465416"><ele>812.3333333333333</ele><time>2026-05-01T07:46:49Z</time></trkpt><trkpt lat="47.54629477145903" lon="10.661918163554219"><ele>810.6666666666667</ele><time>2026-05-01T07:46:50Z</time></trkpt><trkpt lat="47.54645184534727" lon="10.661772771290128"><ele>809.0</ele><time>2026-05-01T07:46:51Z</time></trkpt><trkpt lat="47.546609371071" lon="10.661623358821833"><ele>809.0</ele><time>2026-05-01T07:46:52Z</time></trkpt><trkpt lat="47.54676401727682" lon="10.661475442930712"><ele>809.0</ele><time>2026-05-01T07:46:53Z</time></trkpt><trkpt lat="47.546920625425756" lon="10.661329941378312"><ele>809.0</ele><time>2026-05-01T07:46:54Z</time></trkpt><trkpt lat="47.547079741868615" lon="10.661192109666803"><ele>808.6666666666667</ele><time>2026-05-01T07:46:55Z</time></trkpt><trkpt lat="47.54724093046961" lon="10.661061645912822"><ele>808.3333333333333</ele><time>2026-05-01T07:46:56Z</time></trkpt><trkpt lat="47.547401418200536" lon="10.660939993018161"><ele>808.0</ele><time>2026-05-01T07:46:57Z</time></trkpt><trkpt lat="47.54755723196744" lon="10.660827899920665"><ele>808.0</ele><time>2026-05-01T07:46:58Z</time></trkpt><trkpt lat="47.547705312604855" lon="10.660725846153166"><ele>808.0</ele><time>2026-05-01T07:46:59Z</time></trkpt><trkpt lat="47.547839612675034" lon="10.660638503859653"><ele>808.0</ele><time>2026-05-01T07:47:00.001Z</time></trkpt><trkpt lat="47.54794252606277" lon="10.66050672759101"><ele>808.0</ele><time>2026-05-01T07:47:01.001Z</time></trkpt><trkpt lat="47.548044262464636" lon="10.66044546343596"><ele>808.1666666666666</ele><time>2026-05-01T07:47:02.001Z</time></trkpt><trkpt lat="47.54811679521569" lon="10.660403652330972"><ele>808.3333333333333</ele><time>2026-05-01T07:47:03.001Z</time></trkpt><trkpt lat="47.54821387003802" lon="10.660350377920281"><ele>808.5</ele><time>2026-05-01T07:47:05.001Z</time></trkpt><trkpt lat="47.548301753416574" lon="10.660357305408107"><ele>808.6666666666667</ele><time>2026-05-01T07:47:07.001Z</time></trkpt><trkpt lat="47.548404141090565" lon="10.660409350464777"><ele>808.8333333333334</ele><time>2026-05-01T07:47:09.001Z</time></trkpt><trkpt lat="47.548444469813866" lon="10.660481110836121"><ele>809.0</ele><time>2026-05-01T07:47:10.001Z</time></trkpt><trkpt lat="47.54840375769106" lon="10.660658346759247"><ele>809.0</ele><time>2026-05-01T07:47:11.001Z</time></trkpt><trkpt lat="47.54839988962582" lon="10.660779362297163"><ele>809.0</ele><time>2026-05-01T07:47:12.001Z</time></trkpt><trkpt lat="47.548400329540556" lon="10.660930221064458"><ele>809.0</ele><time>2026-05-01T07:47:13.001Z</time></trkpt><trkpt lat="47.54839915656852" lon="10.661073430579206"><ele>809.0</ele><time>2026-05-01T07:47:14.001Z</time></trkpt><trkpt lat="47.5484018274121" lon="10.66122892213915"><ele>809.0</ele><time>2026-05-01T07:47:15.001Z</time></trkpt><trkpt lat="47.548414668137156" lon="10.661380741868944"><ele>810.6</ele><time>2026-05-01T07:47:16.001Z</time></trkpt><trkpt lat="47.54844474586384" lon="10.661523966839558"><ele>812.2</ele><time>2026-05-01T07:47:17.001Z</time></trkpt><trkpt lat="47.54849753313369" lon="10.661658636730394"><ele>813.8000000000001</ele><time>2026-05-01T07:47:18.001Z</time></trkpt><trkpt lat="47.548567817826175" lon="10.661784685038855"><ele>815.4000000000001</ele><time>2026-05-01T07:47:19.001Z</time></trkpt><trkpt lat="47.54865275785146" lon="10.661897185257793"><ele>817.0</ele><time>2026-05-01T07:47:20.001Z</time></trkpt><trkpt lat="47.54875081338229" lon="10.662012890507409"><ele>821.25</ele><time>2026-05-01T07:47:21.001Z</time></trkpt><trkpt lat="47.54885737329709" lon="10.662141196317805"><ele>825.5</ele><time>2026-05-01T07:47:22.001Z</time></trkpt><trkpt lat="47.54897306546018" lon="10.662282181436035"><ele>829.75</ele><time>2026-05-01T07:47:23.001Z</time></trkpt><trkpt lat="47.54908392405164" lon="10.66242253317797"><ele>834.0</ele><time>2026-05-01T07:47:24.001Z</time></trkpt><trkpt lat="47.54919050170571" lon="10.662564334607913"><ele>834.0</ele><time>2026-05-01T07:47:25.001Z</time></trkpt><trkpt lat="47.549290814467774" lon="10.662716156582052"><ele>834.0</ele><time>2026-05-01T07:47:26.001Z</time></trkpt><trkpt lat="47.54937999122171" lon="10.662894626763908"><ele>834.0</ele><time>2026-05-01T07:47:27.001Z</time></trkpt><trkpt lat="47.54946682447525" lon="10.663094294222576"><ele>829.0</ele><time>2026-05-01T07:47:28.001Z</time></trkpt><trkpt lat="47.54955484010702" lon="10.663306420387535"><ele>824.0</ele><time>2026-05-01T07:47:29.001Z</time></trkpt><trkpt lat="47.54964996064617" lon="10.663524929687691"><ele>819.0</ele><time>2026-05-01T07:47:30.001Z</time></trkpt><trkpt lat="47.54974226336367" lon="10.663738957734433"><ele>819.0</ele><time>2026-05-01T07:47:31.001Z</time></trkpt><trkpt lat="47.549827699198424" lon="10.66394491921207"><ele>819.0</ele><time>2026-05-01T07:47:32.001Z</time></trkpt><trkpt lat="47.54988758614803" lon="10.66416401640792"><ele>819.0</ele><time>2026-05-01T07:47:33.001Z</time></trkpt><trkpt lat="47.549919451839294" lon="10.664396940488608"><ele>822.6666666666667</ele><time>2026-05-01T07:47:34.001Z</time></trkpt><trkpt lat="47.54992870882036" lon="10.66464080191557"><ele>826.3333333333334</ele><time>2026-05-01T07:47:35.001Z</time></trkpt><trkpt lat="47.54995933026189" lon="10.66485599910789"><ele>830.0</ele><time>2026-05-01T07:47:36.001Z</time></trkpt><trkpt lat="47.55003288945934" lon="10.665044665924095"><ele>830.0</ele><time>2026-05-01T07:47:37.001Z</time></trkpt><trkpt lat="47.55014053852367" lon="10.665202403386399"><ele>830.0</ele><time>2026-05-01T07:47:38.001Z</time></trkpt><trkpt lat="47.55023176681821" lon="10.66536857549415"><ele>830.0</ele><time>2026-05-01T07:47:39.001Z</time></trkpt><trkpt lat="47.55028400903658" lon="10.665551790404225"><ele>830.0</ele><time>2026-05-01T07:47:40.001Z</time></trkpt><trkpt lat="47.550271515085406" lon="10.665757386404628"><ele>835.3333333333334</ele><time>2026-05-01T07:47:41.001Z</time></trkpt><trkpt lat="47.550266555049184" lon="10.665989752721483"><ele>840.6666666666667</ele><time>2026-05-01T07:47:42.001Z</time></trkpt><trkpt lat="47.550273325833565" lon="10.666252893968556"><ele>846.0</ele><time>2026-05-01T07:47:43.001Z</time></trkpt><trkpt lat="47.55027674647927" lon="10.666522821348476"><ele>847.3333333333333</ele><time>2026-05-01T07:47:44.001Z</time></trkpt><trkpt lat="47.550288411508596" lon="10.666805998224563"><ele>848.6666666666666</ele><time>2026-05-01T07:47:45.001Z</time></trkpt><trkpt lat="47.5503140412673" lon="10.667094751533957"><ele>850.0</ele><time>2026-05-01T07:47:46.001Z</time></trkpt><trkpt lat="47.550338021033056" lon="10.667394490291487"><ele>851.3333333333333</ele><time>2026-05-01T07:47:47.001Z</time></trkpt><trkpt lat="47.550362971336064" lon="10.667682809984381"><ele>852.6666666666667</ele><time>2026-05-01T07:47:48.001Z</time></trkpt><trkpt lat="47.550384683942596" lon="10.667947288230026"><ele>854.0</ele><time>2026-05-01T07:47:49.001Z</time></trkpt><trkpt lat="47.55042502502007" lon="10.668210709447"><ele>842.0</ele><time>2026-05-01T07:47:50.001Z</time></trkpt><trkpt lat="47.550486662640004" lon="10.66846425844063"><ele>830.0</ele><time>2026-05-01T07:47:51.001Z</time></trkpt><trkpt lat="47.55055634725589" lon="10.66870795696674"><ele>818.0</ele><time>2026-05-01T07:47:52.001Z</time></trkpt><trkpt lat="47.55062266602818" lon="10.66894427513265"><ele>818.0</ele><time>2026-05-01T07:47:53.001Z</time></trkpt><trkpt lat="47.55068281620762" lon="10.669166829181338"><ele>818.0</ele><time>2026-05-01T07:47:54.001Z</time></trkpt><trkpt lat="47.55073113024978" lon="10.66939933683364"><ele>818.0</ele><time>2026-05-01T07:47:55.001Z</time></trkpt><trkpt lat="47.5507658086771" lon="10.669650337539748"><ele>820.3333333333334</ele><time>2026-05-01T07:47:56.001Z</time></trkpt><trkpt lat="47.55079612051625" lon="10.669915908206304"><ele>822.6666666666667</ele><time>2026-05-01T07:47:57.001Z</time></trkpt><trkpt lat="47.55083572104394" lon="10.670188705591032"><ele>825.0</ele><time>2026-05-01T07:47:58.001Z</time></trkpt><trkpt lat="47.550881677344655" lon="10.670463681514274"><ele>829.6666666666667</ele><time>2026-05-01T07:47:59.001Z</time></trkpt><trkpt lat="47.55093050243457" lon="10.670742553614863"><ele>834.3333333333334</ele><time>2026-05-01T07:48:00.001Z</time></trkpt><trkpt lat="47.5509782536686" lon="10.671026825980423"><ele>839.0</ele><time>2026-05-01T07:48:01.001Z</time></trkpt><trkpt lat="47.55102479289908" lon="10.67131386426796"><ele>839.6666666666667</ele><time>2026-05-01T07:48:02.001Z</time></trkpt><trkpt lat="47.551070845273074" lon="10.671602283379498"><ele>840.3333333333333</ele><time>2026-05-01T07:48:03.001Z</time></trkpt><trkpt lat="47.55111337517939" lon="10.671888714497632"><ele>841.0</ele><time>2026-05-01T07:48:04.001Z</time></trkpt><trkpt lat="47.55116044589761" lon="10.672172537839426"><ele>842.6666666666666</ele><time>2026-05-01T07:48:05.001Z</time></trkpt><trkpt lat="47.55120561401666" lon="10.672448053052895"><ele>844.3333333333333</ele><time>2026-05-01T07:48:06.001Z</time></trkpt><trkpt lat="47.551251091400324" lon="10.672726194959047"><ele>846.0</ele><time>2026-05-01T07:48:07.001Z</time></trkpt><trkpt lat="47.55130245936009" lon="10.673011072671642"><ele>833.6666666666667</ele><time>2026-05-01T07:48:08.001Z</time></trkpt><trkpt lat="47.551366127008684" lon="10.67329916038889"><ele>821.3333333333334</ele><time>2026-05-01T07:48:09.001Z</time></trkpt><trkpt lat="47.551443448814915" lon="10.673584612676029"><ele>809.0</ele><time>2026-05-01T07:48:10.001Z</time></trkpt><trkpt lat="47.55153020052547" lon="10.673866439036555"><ele>809.0</ele><time>2026-05-01T07:48:11.001Z</time></trkpt><trkpt lat="47.551617942324185" lon="10.674144861942052"><ele>809.0</ele><time>2026-05-01T07:48:12.001Z</time></trkpt><trkpt lat="47.55170126995079" lon="10.674417137166532"><ele>809.0</ele><time>2026-05-01T07:48:13.001Z</time></trkpt><trkpt lat="47.5517820142565" lon="10.674680506301724"><ele>812.3333333333334</ele><time>2026-05-01T07:48:14.001Z</time></trkpt><trkpt lat="47.55186295625719" lon="10.67494159351056"><ele>815.6666666666667</ele><time>2026-05-01T07:48:15.001Z</time></trkpt><trkpt lat="47.551946395299225" lon="10.675205663320794"><ele>819.0</ele><time>2026-05-01T07:48:16.001Z</time></trkpt><trkpt lat="47.55203018962672" lon="10.675465810088768"><ele>817.3333333333333</ele><time>2026-05-01T07:48:17.001Z</time></trkpt><trkpt lat="47.552112754563424" lon="10.675720306765951"><ele>815.6666666666666</ele><time>2026-05-01T07:48:18.001Z</time></trkpt><trkpt lat="47.55219429353845" lon="10.675975276111387"><ele>814.0</ele><time>2026-05-01T07:48:19.001Z</time></trkpt><trkpt lat="47.552272248776866" lon="10.676231834413793"><ele>814.0</ele><time>2026-05-01T07:48:20.001Z</time></trkpt><trkpt lat="47.55234943007661" lon="10.676491559690502"><ele>814.0</ele><time>2026-05-01T07:48:21.001Z</time></trkpt><trkpt lat="47.55242599117714" lon="10.676750360658884"><ele>814.0</ele><time>2026-05-01T07:48:22.001Z</time></trkpt><trkpt lat="47.55250672199697" lon="10.677017120160187"><ele>813.0</ele><time>2026-05-01T07:48:23.001Z</time></trkpt><trkpt lat="47.55258664006829" lon="10.677284901567477"><ele>812.0</ele><time>2026-05-01T07:48:24.001Z</time></trkpt><trkpt lat="47.552669326712724" lon="10.677553135929216"><ele>811.0</ele><time>2026-05-01T07:48:25.001Z</time></trkpt><trkpt lat="47.55275493503686" lon="10.677830663066157"><ele>810.3333333333333</ele><time>2026-05-01T07:48:26.001Z</time></trkpt><trkpt lat="47.552841283915285" lon="10.678108521993648"><ele>809.6666666666667</ele><time>2026-05-01T07:48:27.001Z</time></trkpt><trkpt lat="47.55292795341116" lon="10.6783858409301"><ele>809.0</ele><time>2026-05-01T07:48:28.001Z</time></trkpt><trkpt lat="47.55301390875041" lon="10.678662318609055"><ele>808.3333333333334</ele><time>2026-05-01T07:48:29.001Z</time></trkpt><trkpt lat="47.55310083296529" lon="10.678941954050746"><ele>807.6666666666667</ele><time>2026-05-01T07:48:30.001Z</time></trkpt><trkpt lat="47.55318528887873" lon="10.679218240226101"><ele>807.0</ele><time>2026-05-01T07:48:31.001Z</time></trkpt><trkpt lat="47.55326932527207" lon="10.679495077444068"><ele>807.0</ele><time>2026-05-01T07:48:32.001Z</time></trkpt><trkpt lat="47.55335272652912" lon="10.679769719420598"><ele>807.0</ele><time>2026-05-01T07:48:33.001Z</time></trkpt><trkpt lat="47.553436409271285" lon="10.680036809425294"><ele>807.0</ele><time>2026-05-01T07:48:34.001Z</time></trkpt><trkpt lat="47.55351735741083" lon="10.680299255951837"><ele>805.6666666666667</ele><time>2026-05-01T07:48:35.001Z</time></trkpt><trkpt lat="47.5535961024097" lon="10.680561328834765"><ele>804.3333333333334</ele><time>2026-05-01T07:48:36.001Z</time></trkpt><trkpt lat="47.55367698076568" lon="10.680827026662428"><ele>803.0</ele><time>2026-05-01T07:48:37.001Z</time></trkpt><trkpt lat="47.5537586838074" lon="10.681079831569555"><ele>805.0</ele><time>2026-05-01T07:48:38.001Z</time></trkpt><trkpt lat="47.55385196258521" lon="10.681332134942508"><ele>807.0</ele><time>2026-05-01T07:48:39.001Z</time></trkpt><trkpt lat="47.55396921785375" lon="10.681568371970178"><ele>809.0</ele><time>2026-05-01T07:48:40Z</time></trkpt><trkpt lat="47.55410749411379" lon="10.681800026710265"><ele>806.6666666666667</ele><time>2026-05-01T07:48:41Z</time></trkpt><trkpt lat="47.55425249699627" lon="10.682032401222422"><ele>804.3333333333333</ele><time>2026-05-01T07:48:42Z</time></trkpt><trkpt lat="47.5543971847496" lon="10.682275493727207"><ele>802.0</ele><time>2026-05-01T07:48:43Z</time></trkpt><trkpt lat="47.55454377939641" lon="10.68252101788712"><ele>805.0</ele><time>2026-05-01T07:48:44Z</time></trkpt><trkpt lat="47.55469193556321" lon="10.682774254167112"><ele>808.0</ele><time>2026-05-01T07:48:45Z</time></trkpt><trkpt lat="47.55483537910549" lon="10.683025550533598"><ele>811.0</ele><time>2026-05-01T07:48:46Z</time></trkpt><trkpt lat="47.55497282430138" lon="10.683283174834306"><ele>811.0</ele><time>2026-05-01T07:48:47Z</time></trkpt><trkpt lat="47.55510021305726" lon="10.683539264753657"><ele>811.0</ele><time>2026-05-01T07:48:48Z</time></trkpt><trkpt lat="47.555213387139716" lon="10.683787733527598"><ele>811.0</ele><time>2026-05-01T07:48:49Z</time></trkpt><trkpt lat="47.55530809884968" lon="10.684040239924753"><ele>808.6666666666666</ele><time>2026-05-01T07:48:50Z</time></trkpt><trkpt lat="47.55538604592619" lon="10.684314017083365"><ele>806.3333333333333</ele><time>2026-05-01T07:48:51Z</time></trkpt><trkpt lat="47.55543691861603" lon="10.684586195421963"><ele>804.0</ele><time>2026-05-01T07:48:52Z</time></trkpt><trkpt lat="47.55546763633834" lon="10.684851371638059"><ele>804.0</ele><time>2026-05-01T07:48:53Z</time></trkpt><trkpt lat="47.5554830204235" lon="10.685098593201763"><ele>804.0</ele><time>2026-05-01T07:48:54Z</time></trkpt><trkpt lat="47.55549866934303" lon="10.68532257885484"><ele>804.0</ele><time>2026-05-01T07:48:55Z</time></trkpt><trkpt lat="47.55552124139888" lon="10.685515172803576"><ele>804.0</ele><time>2026-05-01T07:48:56Z</time></trkpt><trkpt lat="47.555556213798546" lon="10.685685750026117"><ele>804.0</ele><time>2026-05-01T07:48:57Z</time></trkpt><trkpt lat="47.55560661352012" lon="10.685842878640875"><ele>804.0</ele><time>2026-05-01T07:48:58Z</time></trkpt><trkpt lat="47.555664244290405" lon="10.68599665707284"><ele>804.0</ele><time>2026-05-01T07:48:59Z</time></trkpt><trkpt lat="47.55572681269426" lon="10.686142367738977"><ele>806.0</ele><time>2026-05-01T07:49:00Z</time></trkpt><trkpt lat="47.555796492974714" lon="10.68628242645083"><ele>808.0</ele><time>2026-05-01T07:49:01Z</time></trkpt><trkpt lat="47.55586950459844" lon="10.686420791003853"><ele>810.0</ele><time>2026-05-01T07:49:02Z</time></trkpt><trkpt lat="47.55594482792198" lon="10.68655263346604"><ele>812.0</ele><time>2026-05-01T07:49:03Z</time></trkpt><trkpt lat="47.55601894525739" lon="10.686678953891223"><ele>812.0</ele><time>2026-05-01T07:49:04Z</time></trkpt><trkpt lat="47.5560947333689" lon="10.686805011060146"><ele>812.0</ele><time>2026-05-01T07:49:05Z</time></trkpt><trkpt lat="47.55616950071343" lon="10.686931566078801"><ele>812.0</ele><time>2026-05-01T07:49:06Z</time></trkpt><trkpt lat="47.55623881671109" lon="10.687061896264913"><ele>812.0</ele><time>2026-05-01T07:49:07Z</time></trkpt><trkpt lat="47.556299976773296" lon="10.687198167918265"><ele>812.25</ele><time>2026-05-01T07:49:08Z</time></trkpt><trkpt lat="47.55635277570948" lon="10.687342649263691"><ele>812.5</ele><time>2026-05-01T07:49:09Z</time></trkpt><trkpt lat="47.55640379648126" lon="10.687491051482018"><ele>812.75</ele><time>2026-05-01T07:49:10Z</time></trkpt><trkpt lat="47.55645876301691" lon="10.687640082593388"><ele>813.0</ele><time>2026-05-01T07:49:11.001Z</time></trkpt><trkpt lat="47.556517067501694" lon="10.687790344688992"><ele>813.0</ele><time>2026-05-01T07:49:12.001Z</time></trkpt><trkpt lat="47.5565746496087" lon="10.687946987013941"><ele>813.0</ele><time>2026-05-01T07:49:13.001Z</time></trkpt><trkpt lat="47.5566319499515" lon="10.688105650972082"><ele>813.0</ele><time>2026-05-01T07:49:14.001Z</time></trkpt><trkpt lat="47.556688962875" lon="10.688265704122486"><ele>813.0</ele><time>2026-05-01T07:49:15.001Z</time></trkpt><trkpt lat="47.55674740256195" lon="10.688425262788222"><ele>813.0</ele><time>2026-05-01T07:49:16.001Z</time></trkpt><trkpt lat="47.55680364901378" lon="10.688589563862172"><ele>813.0</ele><time>2026-05-01T07:49:17.001Z</time></trkpt><trkpt lat="47.55686028932845" lon="10.688759640229973"><ele>813.0</ele><time>2026-05-01T07:49:18.001Z</time></trkpt><trkpt lat="47.556916276869956" lon="10.688937776369592"><ele>813.0</ele><time>2026-05-01T07:49:19.001Z</time></trkpt><trkpt lat="47.55697251776138" lon="10.689125807909699"><ele>813.25</ele><time>2026-05-01T07:49:20.001Z</time></trkpt><trkpt lat="47.55703002053463" lon="10.689321793083057"><ele>813.5</ele><time>2026-05-01T07:49:21.001Z</time></trkpt><trkpt lat="47.557086453513406" lon="10.689514711847039"><ele>813.75</ele><time>2026-05-01T07:49:22.001Z</time></trkpt><trkpt lat="47.557143989411216" lon="10.68970210690918"><ele>814.0</ele><time>2026-05-01T07:49:23.001Z</time></trkpt><trkpt lat="47.557200554581" lon="10.689885298575883"><ele>814.0</ele><time>2026-05-01T07:49:24.001Z</time></trkpt><trkpt lat="47.5572551381116" lon="10.690063799468774"><ele>814.0</ele><time>2026-05-01T07:49:25.001Z</time></trkpt><trkpt lat="47.55730043658537" lon="10.690229885258741"><ele>814.0</ele><time>2026-05-01T07:49:26.001Z</time></trkpt><trkpt lat="47.557338827133236" lon="10.69040318559021"><ele>814.0</ele><time>2026-05-01T07:49:27.001Z</time></trkpt><trkpt lat="47.55736449988076" lon="10.69058326161184"><ele>814.0</ele><time>2026-05-01T07:49:28.001Z</time></trkpt><trkpt lat="47.55737382710663" lon="10.690763060308614"><ele>814.0</ele><time>2026-05-01T07:49:29.001Z</time></trkpt><trkpt lat="47.557367568066134" lon="10.690929550643448"><ele>814.0</ele><time>2026-05-01T07:49:30.001Z</time></trkpt><trkpt lat="47.5573568492463" lon="10.69108413676935"><ele>814.0</ele><time>2026-05-01T07:49:31.001Z</time></trkpt><trkpt lat="47.55734548818293" lon="10.69122739716994"><ele>814.0</ele><time>2026-05-01T07:49:32.001Z</time></trkpt><trkpt lat="47.55733478951325" lon="10.691356923230703"><ele>814.0000000000001</ele><time>2026-05-01T07:49:33.001Z</time></trkpt><trkpt lat="47.55732636836329" lon="10.69147503846178"><ele>814.0</ele><time>2026-05-01T07:49:34.001Z</time></trkpt><trkpt lat="47.557320997908974" lon="10.691586242340703"><ele>814.0</ele><time>2026-05-01T07:49:35.001Z</time></trkpt><trkpt lat="47.55732055569092" lon="10.691693758135981"><ele>814.0</ele><time>2026-05-01T07:49:36.001Z</time></trkpt><trkpt lat="47.557324981433396" lon="10.691796799517125"><ele>814.0</ele><time>2026-05-01T07:49:37.001Z</time></trkpt><trkpt lat="47.55732938723997" lon="10.691902955127901"><ele>814.0000000000001</ele><time>2026-05-01T07:49:38.001Z</time></trkpt><trkpt lat="47.55733791657679" lon="10.691996949287976"><ele>814.0</ele><time>2026-05-01T07:49:39.001Z</time></trkpt><trkpt lat="47.55735259448256" lon="10.692093810230796"><ele>813.5714285714287</ele><time>2026-05-01T07:49:40.001Z</time></trkpt><trkpt lat="47.55737630916785" lon="10.692189901759328"><ele>813.1428571428571</ele><time>2026-05-01T07:49:41.001Z</time></trkpt><trkpt lat="47.55740299141267" lon="10.692283815683169"><ele>812.7142857142858</ele><time>2026-05-01T07:49:42.001Z</time></trkpt><trkpt lat="47.5574315490452" lon="10.69237562739608"><ele>812.2857142857143</ele><time>2026-05-01T07:49:43.001Z</time></trkpt><trkpt lat="47.55746338485431" lon="10.692468704660472"><ele>811.8571428571429</ele><time>2026-05-01T07:49:44.001Z</time></trkpt><trkpt lat="47.55749550458159" lon="10.692561028753408"><ele>811.4285714285714</ele><time>2026-05-01T07:49:45.001Z</time></trkpt><trkpt lat="47.55752836269998" lon="10.692653795400332"><ele>811.0</ele><time>2026-05-01T07:49:46.001Z</time></trkpt><trkpt lat="47.55756181890874" lon="10.69274709776801"><ele>810.6666666666666</ele><time>2026-05-01T07:49:47.001Z</time></trkpt><trkpt lat="47.55759958657403" lon="10.692840950942056"><ele>810.3333333333333</ele><time>2026-05-01T07:49:48.001Z</time></trkpt><trkpt lat="47.557639753031054" lon="10.692934513486287"><ele>810.0</ele><time>2026-05-01T07:49:49.001Z</time></trkpt><trkpt lat="47.557680688377324" lon="10.693030303837041"><ele>809.6666666666667</ele><time>2026-05-01T07:49:50.001Z</time></trkpt><trkpt lat="47.55772260409027" lon="10.693130093393131"><ele>809.3333333333334</ele><time>2026-05-01T07:49:51.001Z</time></trkpt><trkpt lat="47.55776299929398" lon="10.693231734398097"><ele>809.0</ele><time>2026-05-01T07:49:52.001Z</time></trkpt><trkpt lat="47.557802097931564" lon="10.693336256575583"><ele>809.0000000000001</ele><time>2026-05-01T07:49:53.001Z</time></trkpt><trkpt lat="47.55783900516663" lon="10.693442556420742"><ele>809.0</ele><time>2026-05-01T07:49:54.001Z</time></trkpt><trkpt lat="47.55787670405899" lon="10.693547812022093"><ele>809.0</ele><time>2026-05-01T07:49:55.001Z</time></trkpt><trkpt lat="47.55791286675198" lon="10.693653103731172"><ele>809.0</ele><time>2026-05-01T07:49:56.001Z</time></trkpt><trkpt lat="47.55795056061298" lon="10.693756832397316"><ele>809.0000000000001</ele><time>2026-05-01T07:49:57.001Z</time></trkpt><trkpt lat="47.55798617438787" lon="10.693853524270159"><ele>809.0</ele><time>2026-05-01T07:49:58.001Z</time></trkpt><trkpt lat="47.55801693884846" lon="10.69394944573519"><ele>808.6666666666667</ele><time>2026-05-01T07:49:59.001Z</time></trkpt><trkpt lat="47.558047062644" lon="10.694045644315803"><ele>808.3333333333334</ele><time>2026-05-01T07:50:00.001Z</time></trkpt><trkpt lat="47.55807702930274" lon="10.69414304976598"><ele>808.0</ele><time>2026-05-01T07:50:01.001Z</time></trkpt><trkpt lat="47.55813689243361" lon="10.694278003703937"><ele>807.6666666666667</ele><time>2026-05-01T07:50:02.001Z</time></trkpt><trkpt lat="47.55818129783278" lon="10.694387406766777"><ele>807.3333333333334</ele><time>2026-05-01T07:50:03.001Z</time></trkpt><trkpt lat="47.55822641418291" lon="10.694480963842679"><ele>807.0</ele><time>2026-05-01T07:50:04.001Z</time></trkpt><trkpt lat="47.55826387141472" lon="10.694583864837204"><ele>807.0000000000001</ele><time>2026-05-01T07:50:05.001Z</time></trkpt><trkpt lat="47.558291759337074" lon="10.69467449166289"><ele>807.0</ele><time>2026-05-01T07:50:06.001Z</time></trkpt><trkpt lat="47.55832919570522" lon="10.694763642957803"><ele>807.0</ele><time>2026-05-01T07:50:07.001Z</time></trkpt><trkpt lat="47.55837506173683" lon="10.694834464750764"><ele>807.0</ele><time>2026-05-01T07:50:08.001Z</time></trkpt><trkpt lat="47.55843645157991" lon="10.694893569449874"><ele>807.0</ele><time>2026-05-01T07:50:09.001Z</time></trkpt><trkpt lat="47.55851138286986" lon="10.694936918193926"><ele>807.0000000000001</ele><time>2026-05-01T07:50:10.001Z</time></trkpt><trkpt lat="47.558586200608524" lon="10.69498430685231"><ele>807.0</ele><time>2026-05-01T07:50:11.001Z</time></trkpt><trkpt lat="47.558668998422085" lon="10.695034282194014"><ele>806.6</ele><time>2026-05-01T07:50:12.001Z</time></trkpt><trkpt lat="47.55874571026648" lon="10.695086141719615"><ele>806.2</ele><time>2026-05-01T07:50:13.001Z</time></trkpt><trkpt lat="47.55883075434229" lon="10.695157183752377"><ele>805.8</ele><time>2026-05-01T07:50:14.001Z</time></trkpt><trkpt lat="47.55891211140972" lon="10.695220826593223"><ele>805.4</ele><time>2026-05-01T07:50:15.001Z</time></trkpt><trkpt lat="47.558987406191584" lon="10.695302795762679"><ele>805.0</ele><time>2026-05-01T07:50:16.001Z</time></trkpt><trkpt lat="47.559055336282505" lon="10.695390244477547"><ele>805.0</ele><time>2026-05-01T07:50:17.001Z</time></trkpt><trkpt lat="47.55912310136368" lon="10.695482034744336"><ele>805.0</ele><time>2026-05-01T07:50:18.001Z</time></trkpt><trkpt lat="47.559191724505176" lon="10.695579093748318"><ele>805.0</ele><time>2026-05-01T07:50:19.001Z</time></trkpt><trkpt lat="47.55926515677151" lon="10.695676671066332"><ele>805.0</ele><time>2026-05-01T07:50:20.001Z</time></trkpt><trkpt lat="47.55933898142703" lon="10.695771226809153"><ele>805.0</ele><time>2026-05-01T07:50:21.001Z</time></trkpt><trkpt lat="47.55941005000579" lon="10.695865253634643"><ele>805.0</ele><time>2026-05-01T07:50:22.001Z</time></trkpt><trkpt lat="47.55948496715102" lon="10.69595177606969"><ele>805.0</ele><time>2026-05-01T07:50:23.001Z</time></trkpt><trkpt lat="47.559575124005335" lon="10.696070058332564"><ele>805.0</ele><time>2026-05-01T07:50:24.001Z</time></trkpt><trkpt lat="47.559660434845455" lon="10.696149796915577"><ele>805.0</ele><time>2026-05-01T07:50:25.001Z</time></trkpt><trkpt lat="47.55975125900605" lon="10.696229177567442"><ele>805.0</ele><time>2026-05-01T07:50:26.001Z</time></trkpt><trkpt lat="47.559840717384425" lon="10.696305476537004"><ele>805.2</ele><time>2026-05-01T07:50:27.001Z</time></trkpt><trkpt lat="47.559933976243464" lon="10.69637538500451"><ele>805.4</ele><time>2026-05-01T07:50:28.001Z</time></trkpt><trkpt lat="47.56003194237858" lon="10.696435115937652"><ele>805.5999999999999</ele><time>2026-05-01T07:50:29.001Z</time></trkpt><trkpt lat="47.56013319115788" lon="10.696488929231739"><ele>805.8</ele><time>2026-05-01T07:50:30.001Z</time></trkpt><trkpt lat="47.5602383246067" lon="10.696533182766055"><ele>806.0</ele><time>2026-05-01T07:50:31.001Z</time></trkpt><trkpt lat="47.560341536734086" lon="10.696579973368156"><ele>807.4</ele><time>2026-05-01T07:50:32.001Z</time></trkpt><trkpt lat="47.56044573017626" lon="10.69661839565055"><ele>808.8</ele><time>2026-05-01T07:50:33.001Z</time></trkpt><trkpt lat="47.560550158120535" lon="10.696641734858183"><ele>810.1999999999999</ele><time>2026-05-01T07:50:34.001Z</time></trkpt><trkpt lat="47.56064679621662" lon="10.696634639187483"><ele>811.5999999999999</ele><time>2026-05-01T07:50:35.001Z</time></trkpt><trkpt lat="47.560736205176035" lon="10.69659247777073"><ele>813.0</ele><time>2026-05-01T07:50:36.001Z</time></trkpt><trkpt lat="47.56081873804039" lon="10.696508928987646"><ele>813.0</ele><time>2026-05-01T07:50:37.001Z</time></trkpt><trkpt lat="47.56088594615299" lon="10.696400159601573"><ele>813.0</ele><time>2026-05-01T07:50:38.001Z</time></trkpt><trkpt lat="47.56093964680948" lon="10.696282050894762"><ele>813.0</ele><time>2026-05-01T07:50:39.001Z</time></trkpt><trkpt lat="47.56098697381911" lon="10.69615397394482"><ele>813.0</ele><time>2026-05-01T07:50:40.001Z</time></trkpt><trkpt lat="47.56103505320412" lon="10.69603158329403"><ele>813.0</ele><time>2026-05-01T07:50:41.001Z</time></trkpt><trkpt lat="47.56109536933606" lon="10.695939252388765"><ele>812.8333333333334</ele><time>2026-05-01T07:50:42.001Z</time></trkpt><trkpt lat="47.56116798081342" lon="10.695882451899974"><ele>812.6666666666667</ele><time>2026-05-01T07:50:43.001Z</time></trkpt><trkpt lat="47.561250640939015" lon="10.69585451867943"><ele>812.5</ele><time>2026-05-01T07:50:44.001Z</time></trkpt><trkpt lat="47.56133071116111" lon="10.695843655815128"><ele>812.3333333333334</ele><time>2026-05-01T07:50:45.001Z</time></trkpt><trkpt lat="47.56141836815657" lon="10.69582323835245"><ele>812.1666666666667</ele><time>2026-05-01T07:50:46Z</time></trkpt><trkpt lat="47.56150212448766" lon="10.695798711223212"><ele>812.0</ele><time>2026-05-01T07:50:47Z</time></trkpt><trkpt lat="47.56158549619176" lon="10.695773841899143"><ele>812.0000000000001</ele><time>2026-05-01T07:50:48Z</time></trkpt><trkpt lat="47.561665897039596" lon="10.695738190040181"><ele>812.0</ele><time>2026-05-01T07:50:49Z</time></trkpt><trkpt lat="47.561739165759164" lon="10.69569166640077"><ele>812.0</ele><time>2026-05-01T07:50:50Z</time></trkpt><trkpt lat="47.56181061442964" lon="10.695645832775153"><ele>812.0</ele><time>2026-05-01T07:50:51Z</time></trkpt><trkpt lat="47.56187918451007" lon="10.69559534097106"><ele>812.0000000000001</ele><time>2026-05-01T07:50:52Z</time></trkpt><trkpt lat="47.561945300910985" lon="10.695542817625842"><ele>812.0</ele><time>2026-05-01T07:50:53Z</time></trkpt><trkpt lat="47.56201753569683" lon="10.695489338912779"><ele>813.1666666666667</ele><time>2026-05-01T07:50:54Z</time></trkpt><trkpt lat="47.562086641902724" lon="10.695441470504859"><ele>814.3333333333334</ele><time>2026-05-01T07:50:55Z</time></trkpt><trkpt lat="47.56216196552299" lon="10.695405715229375"><ele>815.5</ele><time>2026-05-01T07:50:56Z</time></trkpt><trkpt lat="47.56223543649245" lon="10.695369724068323"><ele>816.6666666666667</ele><time>2026-05-01T07:50:57Z</time></trkpt><trkpt lat="47.56231152637075" lon="10.695336906234349"><ele>817.8333333333334</ele><time>2026-05-01T07:50:58Z</time></trkpt><trkpt lat="47.56239184230417" lon="10.695305155568692"><ele>819.0</ele><time>2026-05-01T07:50:59Z</time></trkpt><trkpt lat="47.56246766986169" lon="10.695280423105809"><ele>819.0</ele><time>2026-05-01T07:51:00Z</time></trkpt><trkpt lat="47.562540224420026" lon="10.695263363769335"><ele>819.0</ele><time>2026-05-01T07:51:01Z</time></trkpt><trkpt lat="47.5626095631214" lon="10.6952546810587"><ele>819.0</ele><time>2026-05-01T07:51:02Z</time></trkpt><trkpt lat="47.56267427997019" lon="10.695255910648324"><ele>819.0</ele><time>2026-05-01T07:51:03Z</time></trkpt><trkpt lat="47.562744098561986" lon="10.695275813593867"><ele>819.0</ele><time>2026-05-01T07:51:04Z</time></trkpt><trkpt lat="47.562815093508156" lon="10.695307728334377"><ele>819.0</ele><time>2026-05-01T07:51:05Z</time></trkpt><trkpt lat="47.56288077814032" lon="10.69535909034652"><ele>819.0</ele><time>2026-05-01T07:51:06Z</time></trkpt><trkpt lat="47.56293712359614" lon="10.695429331483728"><ele>816.6666666666666</ele><time>2026-05-01T07:51:07Z</time></trkpt><trkpt lat="47.562980485007046" lon="10.695524579007014"><ele>814.3333333333333</ele><time>2026-05-01T07:51:08Z</time></trkpt><trkpt lat="47.56300283976135" lon="10.695639058740438"><ele>812.0</ele><time>2026-05-01T07:51:09Z</time></trkpt><trkpt lat="47.56297860232794" lon="10.695751330635122"><ele>809.6666666666666</ele><time>2026-05-01T07:51:10Z</time></trkpt><trkpt lat="47.56296229227413" lon="10.695870981278958"><ele>807.3333333333333</ele><time>2026-05-01T07:51:11Z</time></trkpt><trkpt lat="47.56294572296977" lon="10.695998046891672"><ele>805.0</ele><time>2026-05-01T07:51:12Z</time></trkpt><trkpt lat="47.56293260164377" lon="10.69612973837412"><ele>804.9999999999999</ele><time>2026-05-01T07:51:13Z</time></trkpt><trkpt lat="47.56294812723553" lon="10.696260973497889"><ele>805.0</ele><time>2026-05-01T07:51:14Z</time></trkpt><trkpt lat="47.56296349286513" lon="10.696383934286867"><ele>805.0</ele><time>2026-05-01T07:51:15Z</time></trkpt><trkpt lat="47.562999594976944" lon="10.696500680277499"><ele>805.0</ele><time>2026-05-01T07:51:16Z</time></trkpt><trkpt lat="47.563052177033356" lon="10.696602578437824"><ele>804.9999999999999</ele><time>2026-05-01T07:51:17Z</time></trkpt><trkpt lat="47.56310488322711" lon="10.696703063108052"><ele>805.0</ele><time>2026-05-01T07:51:18Z</time></trkpt><trkpt lat="47.56316240857116" lon="10.696801083306429"><ele>804.9999999999999</ele><time>2026-05-01T07:51:19Z</time></trkpt><trkpt lat="47.5632152323022" lon="10.696895173094907"><ele>805.0</ele><time>2026-05-01T07:51:20Z</time></trkpt><trkpt lat="47.56326430582253" lon="10.696986207478608"><ele>805.0</ele><time>2026-05-01T07:51:21.001Z</time></trkpt><trkpt lat="47.56331175311653" lon="10.69707775965964"><ele>805.0</ele><time>2026-05-01T07:51:22.001Z</time></trkpt><trkpt lat="47.56335930075965" lon="10.697170362968183"><ele>804.9999999999999</ele><time>2026-05-01T07:51:23.001Z</time></trkpt><trkpt lat="47.56340757835572" lon="10.697260095592956"><ele>805.0</ele><time>2026-05-01T07:51:24.001Z</time></trkpt><trkpt lat="47.563457779344944" lon="10.697353047634612"><ele>804.8333333333333</ele><time>2026-05-01T07:51:25.001Z</time></trkpt><trkpt lat="47.563509177001016" lon="10.697444988816327"><ele>804.6666666666666</ele><time>2026-05-01T07:51:26.001Z</time></trkpt><trkpt lat="47.563559246188674" lon="10.697537444394627"><ele>804.5</ele><time>2026-05-01T07:51:27.001Z</time></trkpt><trkpt lat="47.56360607995608" lon="10.6976333555878"><ele>804.3333333333333</ele><time>2026-05-01T07:51:28.001Z</time></trkpt><trkpt lat="47.563655617232655" lon="10.697728581506876"><ele>804.1666666666666</ele><time>2026-05-01T07:51:29.001Z</time></trkpt><trkpt lat="47.56370316578139" lon="10.697827414805118"><ele>804.0</ele><time>2026-05-01T07:51:30.001Z</time></trkpt><trkpt lat="47.563747793074214" lon="10.697926660991143"><ele>804.0</ele><time>2026-05-01T07:51:31.001Z</time></trkpt><trkpt lat="47.56379362017442" lon="10.698028677926253"><ele>804.0</ele><time>2026-05-01T07:51:32.001Z</time></trkpt><trkpt lat="47.56383354044881" lon="10.698126773532538"><ele>804.0</ele><time>2026-05-01T07:51:33.001Z</time></trkpt><trkpt lat="47.56387658591732" lon="10.698215882284346"><ele>804.0</ele><time>2026-05-01T07:51:34.001Z</time></trkpt><trkpt lat="47.563917827070256" lon="10.698308344982774"><ele>804.0</ele><time>2026-05-01T07:51:35.001Z</time></trkpt><trkpt lat="47.563957294061005" lon="10.69840212677326"><ele>804.0</ele><time>2026-05-01T07:51:36.001Z</time></trkpt><trkpt lat="47.56400085895464" lon="10.698488621992334"><ele>804.0</ele><time>2026-05-01T07:51:37.001Z</time></trkpt><trkpt lat="47.56404699197864" lon="10.69856746427327"><ele>804.0</ele><time>2026-05-01T07:51:38.001Z</time></trkpt><trkpt lat="47.56409245947477" lon="10.698646027950794"><ele>804.0</ele><time>2026-05-01T07:51:39.001Z</time></trkpt><trkpt lat="47.56413992530584" lon="10.698721182349217"><ele>804.0</ele><time>2026-05-01T07:51:40.001Z</time></trkpt><trkpt lat="47.56418561859212" lon="10.698791450586898"><ele>804.0</ele><time>2026-05-01T07:51:41.001Z</time></trkpt><trkpt lat="47.56427187262932" lon="10.698922017269636"><ele>804.0</ele><time>2026-05-01T07:51:43.001Z</time></trkpt><trkpt lat="47.564317934134706" lon="10.698985684299341"><ele>803.2857142857142</ele><time>2026-05-01T07:51:44.001Z</time></trkpt><trkpt lat="47.5643668926516" lon="10.699050437887564"><ele>802.5714285714287</ele><time>2026-05-01T07:51:45.001Z</time></trkpt><trkpt lat="47.564417902947184" lon="10.69911640827348"><ele>801.8571428571429</ele><time>2026-05-01T07:51:46.001Z</time></trkpt><trkpt lat="47.56446854625208" lon="10.699182714809936"><ele>801.1428571428571</ele><time>2026-05-01T07:51:47.001Z</time></trkpt><trkpt lat="47.56451993649273" lon="10.699251209343872"><ele>800.4285714285713</ele><time>2026-05-01T07:51:48.001Z</time></trkpt><trkpt lat="47.564570444658195" lon="10.699323406635353"><ele>799.7142857142858</ele><time>2026-05-01T07:51:49.001Z</time></trkpt><trkpt lat="47.56461982099038" lon="10.69939243805364"><ele>799.0</ele><time>2026-05-01T07:51:50.001Z</time></trkpt><trkpt lat="47.56466848497169" lon="10.699459683856073"><ele>799.0</ele><time>2026-05-01T07:51:51.001Z</time></trkpt><trkpt lat="47.56471541842858" lon="10.699533459370848"><ele>799.0</ele><time>2026-05-01T07:51:52.001Z</time></trkpt><trkpt lat="47.56476158243953" lon="10.699603584708372"><ele>799.0</ele><time>2026-05-01T07:51:53.001Z</time></trkpt><trkpt lat="47.564807135856775" lon="10.699671300506974"><ele>799.0</ele><time>2026-05-01T07:51:54.001Z</time></trkpt><trkpt lat="47.564854514160565" lon="10.699742927141424"><ele>799.0</ele><time>2026-05-01T07:51:55.001Z</time></trkpt><trkpt lat="47.56489863862355" lon="10.699813798957345"><ele>799.0</ele><time>2026-05-01T07:51:56.001Z</time></trkpt><trkpt lat="47.56494381748764" lon="10.699889699229129"><ele>799.0</ele><time>2026-05-01T07:51:57.001Z</time></trkpt><trkpt lat="47.56498280095546" lon="10.699967538644172"><ele>799.0</ele><time>2026-05-01T07:51:58.001Z</time></trkpt><trkpt lat="47.56502402588455" lon="10.700047989306931"><ele>799.0</ele><time>2026-05-01T07:51:59.001Z</time></trkpt><trkpt lat="47.565093574945564" lon="10.700184383519316"><ele>799.0</ele><time>2026-05-01T07:52:01.001Z</time></trkpt><trkpt lat="47.565144202517494" lon="10.700287892321782"><ele>799.0</ele><time>2026-05-01T07:52:03.001Z</time></trkpt><trkpt lat="47.565201072306884" lon="10.700410329898133"><ele>799.0</ele><time>2026-05-01T07:52:05.001Z</time></trkpt><trkpt lat="47.565262580403704" lon="10.700573555232435"><ele>799.8333333333333</ele><time>2026-05-01T07:52:07.001Z</time></trkpt><trkpt lat="47.56528557505359" lon="10.700673007114709"><ele>800.6666666666666</ele><time>2026-05-01T07:52:08.001Z</time></trkpt><trkpt lat="47.565304010558286" lon="10.700783721455272"><ele>801.5</ele><time>2026-05-01T07:52:09.001Z</time></trkpt><trkpt lat="47.565316879950394" lon="10.700891585159718"><ele>802.3333333333333</ele><time>2026-05-01T07:52:10.001Z</time></trkpt><trkpt lat="47.56531325251147" lon="10.701010229835676"><ele>803.1666666666666</ele><time>2026-05-01T07:52:11.001Z</time></trkpt><trkpt lat="47.5653379972034" lon="10.7011232504504"><ele>804.0</ele><time>2026-05-01T07:52:12.001Z</time></trkpt><trkpt lat="47.565344558666894" lon="10.701244379724631"><ele>804.8333333333334</ele><time>2026-05-01T07:52:13.001Z</time></trkpt><trkpt lat="47.56535574663954" lon="10.70136813312919"><ele>805.6666666666667</ele><time>2026-05-01T07:52:14.001Z</time></trkpt><trkpt lat="47.56536670266926" lon="10.701491702505985"><ele>806.5</ele><time>2026-05-01T07:52:15.001Z</time></trkpt><trkpt lat="47.56537803176175" lon="10.701613894895457"><ele>807.3333333333334</ele><time>2026-05-01T07:52:16.001Z</time></trkpt><trkpt lat="47.565390119333465" lon="10.70174221714295"><ele>808.1666666666667</ele><time>2026-05-01T07:52:17.001Z</time></trkpt><trkpt lat="47.56540119979636" lon="10.701874456105239"><ele>809.0</ele><time>2026-05-01T07:52:18.001Z</time></trkpt><trkpt lat="47.56541409079389" lon="10.702006576088428"><ele>806.4000000000001</ele><time>2026-05-01T07:52:19.001Z</time></trkpt><trkpt lat="47.565422382317685" lon="10.702148204411674"><ele>803.8</ele><time>2026-05-01T07:52:20.001Z</time></trkpt><trkpt lat="47.56543470704864" lon="10.702288877427058"><ele>801.2</ele><time>2026-05-01T07:52:21.001Z</time></trkpt><trkpt lat="47.56544323005922" lon="10.702434865050378"><ele>798.5999999999999</ele><time>2026-05-01T07:52:22.001Z</time></trkpt><trkpt lat="47.56545381276224" lon="10.702582021928214"><ele>796.0</ele><time>2026-05-01T07:52:23.001Z</time></trkpt><trkpt lat="47.56544233324865" lon="10.70273314038423"><ele>795.5999999999999</ele><time>2026-05-01T07:52:24.001Z</time></trkpt><trkpt lat="47.5654556476309" lon="10.702882381998858"><ele>795.2</ele><time>2026-05-01T07:52:25.001Z</time></trkpt><trkpt lat="47.56543112679901" lon="10.703036198328158"><ele>794.8</ele><time>2026-05-01T07:52:26.001Z</time></trkpt><trkpt lat="47.565415162437546" lon="10.703190168533858"><ele>794.4000000000001</ele><time>2026-05-01T07:52:27.001Z</time></trkpt><trkpt lat="47.56539291822725" lon="10.703347829026272"><ele>794.0</ele><time>2026-05-01T07:52:28.001Z</time></trkpt><trkpt lat="47.56536840651258" lon="10.703502334094903"><ele>797.6</ele><time>2026-05-01T07:52:29.001Z</time></trkpt><trkpt lat="47.56534071734344" lon="10.70365493973619"><ele>801.2</ele><time>2026-05-01T07:52:30.001Z</time></trkpt><trkpt lat="47.56530809589465" lon="10.703808001976736"><ele>804.8000000000001</ele><time>2026-05-01T07:52:31.001Z</time></trkpt><trkpt lat="47.565270777988545" lon="10.703955247520742"><ele>808.4000000000001</ele><time>2026-05-01T07:52:32.001Z</time></trkpt><trkpt lat="47.56523258703024" lon="10.704100987900977"><ele>812.0</ele><time>2026-05-01T07:52:33.001Z</time></trkpt><trkpt lat="47.56519412306809" lon="10.704251608912248"><ele>812.0</ele><time>2026-05-01T07:52:34.001Z</time></trkpt><trkpt lat="47.56515716491028" lon="10.70439917957756"><ele>812.0</ele><time>2026-05-01T07:52:35.001Z</time></trkpt><trkpt lat="47.56512144127303" lon="10.704549486359191"><ele>812.0</ele><time>2026-05-01T07:52:36.001Z</time></trkpt><trkpt lat="47.56508645851286" lon="10.704702775165302"><ele>812.0</ele><time>2026-05-01T07:52:37.001Z</time></trkpt><trkpt lat="47.56505098844537" lon="10.704858195673792"><ele>812.0</ele><time>2026-05-01T07:52:38.001Z</time></trkpt><trkpt lat="47.5650149651402" lon="10.705016040325491"><ele>812.0</ele><time>2026-05-01T07:52:39.001Z</time></trkpt><trkpt lat="47.565018665323336" lon="10.705201187508097"><ele>812.0</ele><time>2026-05-01T07:52:40.001Z</time></trkpt><trkpt lat="47.56499022169282" lon="10.705378416786274"><ele>812.0</ele><time>2026-05-01T07:52:41.001Z</time></trkpt><trkpt lat="47.564965626185725" lon="10.70556050930936"><ele>812.0</ele><time>2026-05-01T07:52:42.001Z</time></trkpt><trkpt lat="47.56494231458685" lon="10.705746014429836"><ele>811.75</ele><time>2026-05-01T07:52:43.001Z</time></trkpt><trkpt lat="47.56491960780415" lon="10.705950474192765"><ele>811.5</ele><time>2026-05-01T07:52:44.001Z</time></trkpt><trkpt lat="47.564901255443765" lon="10.706168421002"><ele>811.25</ele><time>2026-05-01T07:52:45.001Z</time></trkpt><trkpt lat="47.56488108848765" lon="10.706399249985148"><ele>811.0</ele><time>2026-05-01T07:52:46.001Z</time></trkpt><trkpt lat="47.56486476386607" lon="10.70663325398337"><ele>809.3333333333333</ele><time>2026-05-01T07:52:47.001Z</time></trkpt><trkpt lat="47.56484940773525" lon="10.706861302424183"><ele>807.6666666666667</ele><time>2026-05-01T07:52:48.001Z</time></trkpt><trkpt lat="47.564836168597914" lon="10.707097748096874"><ele>806.0</ele><time>2026-05-01T07:52:49.001Z</time></trkpt><trkpt lat="47.5648267540305" lon="10.70733327613535"><ele>805.6666666666667</ele><time>2026-05-01T07:52:50.001Z</time></trkpt><trkpt lat="47.56482033681235" lon="10.707567811997825"><ele>805.3333333333333</ele><time>2026-05-01T07:52:51.001Z</time></trkpt><trkpt lat="47.56481842458274" lon="10.707797523472582"><ele>805.0</ele><time>2026-05-01T07:52:52Z</time></trkpt><trkpt lat="47.5648230994416" lon="10.708025484984129"><ele>805.0</ele><time>2026-05-01T07:52:53Z</time></trkpt><trkpt lat="47.56483138918351" lon="10.708251265784716"><ele>805.0</ele><time>2026-05-01T07:52:54Z</time></trkpt><trkpt lat="47.56484432704873" lon="10.708472689507913"><ele>805.0</ele><time>2026-05-01T07:52:55Z</time></trkpt><trkpt lat="47.56486040754468" lon="10.708687759394023"><ele>805.0</ele><time>2026-05-01T07:52:56Z</time></trkpt><trkpt lat="47.56488301484643" lon="10.708900790767604"><ele>806.0</ele><time>2026-05-01T07:52:57Z</time></trkpt><trkpt lat="47.56490997896171" lon="10.70911645957371"><ele>807.0</ele><time>2026-05-01T07:52:58Z</time></trkpt><trkpt lat="47.56494138116445" lon="10.709329264044163"><ele>808.0</ele><time>2026-05-01T07:52:59Z</time></trkpt><trkpt lat="47.564976253429315" lon="10.709538401392466"><ele>809.0</ele><time>2026-05-01T07:53:00Z</time></trkpt><trkpt lat="47.56501870287829" lon="10.70974163681101"><ele>810.5</ele><time>2026-05-01T07:53:01Z</time></trkpt><trkpt lat="47.565071325786775" lon="10.7099427601182"><ele>812.0</ele><time>2026-05-01T07:53:02Z</time></trkpt><trkpt lat="47.56513193896534" lon="10.710138275614284"><ele>813.5</ele><time>2026-05-01T07:53:03Z</time></trkpt><trkpt lat="47.56519840614181" lon="10.710322142383456"><ele>815.0</ele><time>2026-05-01T07:53:04Z</time></trkpt><trkpt lat="47.565262986993574" lon="10.710490233794735"><ele>814.8</ele><time>2026-05-01T07:53:05Z</time></trkpt><trkpt lat="47.565323287431596" lon="10.71064908624213"><ele>814.6</ele><time>2026-05-01T07:53:06Z</time></trkpt><trkpt lat="47.56537949523952" lon="10.710798858811069"><ele>814.4000000000001</ele><time>2026-05-01T07:53:07Z</time></trkpt><trkpt lat="47.56542675268133" lon="10.710937749857878"><ele>814.2</ele><time>2026-05-01T07:53:08Z</time></trkpt><trkpt lat="47.56545794114099" lon="10.711057407881345"><ele>814.0</ele><time>2026-05-01T07:53:09Z</time></trkpt><trkpt lat="47.56547647752823" lon="10.711157475445647"><ele>813.9999999999999</ele><time>2026-05-01T07:53:10Z</time></trkpt><trkpt lat="47.56548176788078" lon="10.711303838839488"><ele>814.0</ele><time>2026-05-01T07:53:12Z</time></trkpt><trkpt lat="47.565473842134956" lon="10.711397451590377"><ele>814.0</ele><time>2026-05-01T07:53:15Z</time></trkpt><trkpt lat="47.56545390681897" lon="10.711535531187135"><ele>814.0</ele><time>2026-05-01T07:53:27Z</time></trkpt><trkpt lat="47.565425828318965" lon="10.711647047706693"><ele>813.9999999999999</ele><time>2026-05-01T07:53:28Z</time></trkpt><trkpt lat="47.565390924772785" lon="10.711764216894151"><ele>814.0</ele><time>2026-05-01T07:53:29Z</time></trkpt><trkpt lat="47.56535129976323" lon="10.711886600752337"><ele>813.25</ele><time>2026-05-01T07:53:30Z</time></trkpt><trkpt lat="47.56531016904804" lon="10.712020895880848"><ele>812.5</ele><time>2026-05-01T07:53:31Z</time></trkpt><trkpt lat="47.56526730241338" lon="10.712172980562478"><ele>811.75</ele><time>2026-05-01T07:53:32Z</time></trkpt><trkpt lat="47.56522639358891" lon="10.712343611625776"><ele>811.0</ele><time>2026-05-01T07:53:33Z</time></trkpt><trkpt lat="47.56518841030333" lon="10.71252794819844"><ele>811.0</ele><time>2026-05-01T07:53:34Z</time></trkpt><trkpt lat="47.56515603646363" lon="10.71270813989291"><ele>811.0</ele><time>2026-05-01T07:53:35.001Z</time></trkpt><trkpt lat="47.56512722698882" lon="10.712904823450577"><ele>811.0</ele><time>2026-05-01T07:53:36.001Z</time></trkpt><trkpt lat="47.56510238634573" lon="10.713115355905812"><ele>811.0</ele><time>2026-05-01T07:53:37.001Z</time></trkpt><trkpt lat="47.56508122076165" lon="10.713339419425477"><ele>810.0</ele><time>2026-05-01T07:53:38.001Z</time></trkpt><trkpt lat="47.565067891334245" lon="10.713571270308531"><ele>809.0</ele><time>2026-05-01T07:53:39.001Z</time></trkpt><trkpt lat="47.565061838850305" lon="10.713799552297926"><ele>808.0</ele><time>2026-05-01T07:53:40.001Z</time></trkpt><trkpt lat="47.56506655034826" lon="10.714030822034166"><ele>808.0</ele><time>2026-05-01T07:53:41.001Z</time></trkpt><trkpt lat="47.565079825315415" lon="10.714264019959144"><ele>808.0</ele><time>2026-05-01T07:53:42.001Z</time></trkpt><trkpt lat="47.565101805039845" lon="10.714489264232283"><ele>808.0</ele><time>2026-05-01T07:53:43.001Z</time></trkpt><trkpt lat="47.56512991314954" lon="10.714707749597313"><ele>808.75</ele><time>2026-05-01T07:53:44.001Z</time></trkpt><trkpt lat="47.56516143964422" lon="10.7149234710191"><ele>809.5</ele><time>2026-05-01T07:53:45.001Z</time></trkpt><trkpt lat="47.56519907661309" lon="10.715133911207598"><ele>810.25</ele><time>2026-05-01T07:53:46.001Z</time></trkpt><trkpt lat="47.565242771379474" lon="10.715337417826866"><ele>811.0</ele><time>2026-05-01T07:53:47.001Z</time></trkpt><trkpt lat="47.56528939061665" lon="10.715522519431842"><ele>811.0</ele><time>2026-05-01T07:53:48.001Z</time></trkpt><trkpt lat="47.56533304177416" lon="10.715694266987413"><ele>811.0</ele><time>2026-05-01T07:53:49.001Z</time></trkpt><trkpt lat="47.56536158178216" lon="10.715862149946076"><ele>811.0</ele><time>2026-05-01T07:53:50.001Z</time></trkpt><trkpt lat="47.56536816278711" lon="10.71602632599827"><ele>811.0</ele><time>2026-05-01T07:53:51.001Z</time></trkpt><trkpt lat="47.56536746266949" lon="10.716200796137194"><ele>809.5</ele><time>2026-05-01T07:53:52.001Z</time></trkpt><trkpt lat="47.56537634170636" lon="10.716380450047431"><ele>808.0</ele><time>2026-05-01T07:53:53.001Z</time></trkpt><trkpt lat="47.56539632386601" lon="10.716572989946552"><ele>806.5</ele><time>2026-05-01T07:53:54.001Z</time></trkpt><trkpt lat="47.56541928398332" lon="10.716778126930647"><ele>805.0</ele><time>2026-05-01T07:53:55.001Z</time></trkpt><trkpt lat="47.56544088725926" lon="10.716995673643424"><ele>803.6666666666666</ele><time>2026-05-01T07:53:56.001Z</time></trkpt><trkpt lat="47.56546206648165" lon="10.71721890970824"><ele>802.3333333333333</ele><time>2026-05-01T07:53:57.001Z</time></trkpt><trkpt lat="47.565485945892746" lon="10.717449524523621"><ele>801.0</ele><time>2026-05-01T07:53:58.001Z</time></trkpt><trkpt lat="47.56551162028562" lon="10.717682365566294"><ele>800.6666666666667</ele><time>2026-05-01T07:53:59.001Z</time></trkpt><trkpt lat="47.565536575980374" lon="10.717918273157675"><ele>800.3333333333334</ele><time>2026-05-01T07:54:00.001Z</time></trkpt><trkpt lat="47.56555743093277" lon="10.71815464017751"><ele>800.0</ele><time>2026-05-01T07:54:01.001Z</time></trkpt><trkpt lat="47.56557937269153" lon="10.718392787373983"><ele>800.0</ele><time>2026-05-01T07:54:02.001Z</time></trkpt><trkpt lat="47.56560358163308" lon="10.718627215062478"><ele>800.0</ele><time>2026-05-01T07:54:03.001Z</time></trkpt><trkpt lat="47.56562739657735" lon="10.718863952098319"><ele>800.0</ele><time>2026-05-01T07:54:04.001Z</time></trkpt><trkpt lat="47.565652389640434" lon="10.719100592061581"><ele>800.0</ele><time>2026-05-01T07:54:05.001Z</time></trkpt><trkpt lat="47.56567742322061" lon="10.719337208515112"><ele>800.0</ele><time>2026-05-01T07:54:06.001Z</time></trkpt><trkpt lat="47.56570179517853" lon="10.71957886118636"><ele>800.0</ele><time>2026-05-01T07:54:07.001Z</time></trkpt><trkpt lat="47.56572652469359" lon="10.719818180632146"><ele>799.6666666666667</ele><time>2026-05-01T07:54:08.001Z</time></trkpt><trkpt lat="47.56575098604077" lon="10.720059883324344"><ele>799.3333333333333</ele><time>2026-05-01T07:54:09.001Z</time></trkpt><trkpt lat="47.56577576464177" lon="10.720301626630377"><ele>799.0</ele><time>2026-05-01T07:54:10.001Z</time></trkpt><trkpt lat="47.565800582066174" lon="10.720541277886769"><ele>799.0</ele><time>2026-05-01T07:54:11.001Z</time></trkpt><trkpt lat="47.56582495537505" lon="10.720781030790652"><ele>799.0</ele><time>2026-05-01T07:54:12.001Z</time></trkpt><trkpt lat="47.565848502058806" lon="10.721020506827086"><ele>799.0</ele><time>2026-05-01T07:54:13.001Z</time></trkpt><trkpt lat="47.56587372761822" lon="10.721259278384053"><ele>799.6666666666666</ele><time>2026-05-01T07:54:14.001Z</time></trkpt><trkpt lat="47.56589861290389" lon="10.721496693838194"><ele>800.3333333333333</ele><time>2026-05-01T07:54:15.001Z</time></trkpt><trkpt lat="47.56592275698947" lon="10.721735305519788"><ele>801.0</ele><time>2026-05-01T07:54:16.001Z</time></trkpt><trkpt lat="47.565945471775905" lon="10.72197073715306"><ele>802.0</ele><time>2026-05-01T07:54:17.001Z</time></trkpt><trkpt lat="47.56596849666084" lon="10.72219833974997"><ele>803.0</ele><time>2026-05-01T07:54:18.001Z</time></trkpt><trkpt lat="47.565988890235936" lon="10.722404366710522"><ele>804.0</ele><time>2026-05-01T07:54:19.001Z</time></trkpt><trkpt lat="47.566007874228866" lon="10.722598830482438"><ele>805.0</ele><time>2026-05-01T07:54:20.001Z</time></trkpt><trkpt lat="47.56602481436673" lon="10.722777905712059"><ele>805.8</ele><time>2026-05-01T07:54:21.001Z</time></trkpt><trkpt lat="47.566039946340084" lon="10.722949305858027"><ele>806.6</ele><time>2026-05-01T07:54:22.001Z</time></trkpt><trkpt lat="47.56605313009844" lon="10.723109030920034"><ele>807.4000000000001</ele><time>2026-05-01T07:54:23.001Z</time></trkpt><trkpt lat="47.56606463617427" lon="10.723273088316967"><ele>808.2</ele><time>2026-05-01T07:54:24.001Z</time></trkpt><trkpt lat="47.56607096042209" lon="10.72343830839061"><ele>809.0</ele><time>2026-05-01T07:54:25.001Z</time></trkpt><trkpt lat="47.566066223566246" lon="10.723603474940859"><ele>809.5</ele><time>2026-05-01T07:54:26.001Z</time></trkpt><trkpt lat="47.566046782542365" lon="10.723768973772822"><ele>810.0</ele><time>2026-05-01T07:54:27.001Z</time></trkpt><trkpt lat="47.56601154225533" lon="10.72392931905889"><ele>810.5</ele><time>2026-05-01T07:54:28.001Z</time></trkpt><trkpt lat="47.56596615487636" lon="10.72408581635035"><ele>811.0</ele><time>2026-05-01T07:54:29.001Z</time></trkpt><trkpt lat="47.565915912082374" lon="10.724242640937025"><ele>809.5</ele><time>2026-05-01T07:54:30.001Z</time></trkpt><trkpt lat="47.56586615095211" lon="10.724400127737047"><ele>808.0</ele><time>2026-05-01T07:54:31.001Z</time></trkpt><trkpt lat="47.56581754732045" lon="10.724559302123122"><ele>806.5</ele><time>2026-05-01T07:54:32.001Z</time></trkpt><trkpt lat="47.5657718840427" lon="10.72472028054855"><ele>805.0</ele><time>2026-05-01T07:54:33.001Z</time></trkpt><trkpt lat="47.56572677823449" lon="10.724886005188504"><ele>805.0</ele><time>2026-05-01T07:54:34.001Z</time></trkpt><trkpt lat="47.565683124823515" lon="10.725050441235666"><ele>805.0</ele><time>2026-05-01T07:54:35.001Z</time></trkpt><trkpt lat="47.565640555095136" lon="10.725216386725098"><ele>805.0</ele><time>2026-05-01T07:54:36.001Z</time></trkpt><trkpt lat="47.56559770592371" lon="10.725382067329617"><ele>805.0</ele><time>2026-05-01T07:54:37.001Z</time></trkpt><trkpt lat="47.565554364440146" lon="10.725547871108656"><ele>803.5</ele><time>2026-05-01T07:54:38.001Z</time></trkpt><trkpt lat="47.565507665107546" lon="10.725710615925248"><ele>802.0</ele><time>2026-05-01T07:54:39.001Z</time></trkpt><trkpt lat="47.56545706394159" lon="10.725869037607982"><ele>800.5</ele><time>2026-05-01T07:54:40.001Z</time></trkpt><trkpt lat="47.56539845132876" lon="10.726019376396653"><ele>799.0</ele><time>2026-05-01T07:54:41.001Z</time></trkpt><trkpt lat="47.56532945057475" lon="10.726160847036885"><ele>799.0</ele><time>2026-05-01T07:54:42.001Z</time></trkpt><trkpt lat="47.56525329657788" lon="10.72629142022002"><ele>799.0</ele><time>2026-05-01T07:54:43.001Z</time></trkpt><trkpt lat="47.565171570090534" lon="10.726413376671605"><ele>799.0</ele><time>2026-05-01T07:54:44.001Z</time></trkpt><trkpt lat="47.565085935447584" lon="10.726529145754325"><ele>799.0</ele><time>2026-05-01T07:54:45.001Z</time></trkpt><trkpt lat="47.56499731924899" lon="10.72664028558667"><ele>799.0</ele><time>2026-05-01T07:54:46.001Z</time></trkpt><trkpt lat="47.56490781254332" lon="10.726748832369067"><ele>799.0</ele><time>2026-05-01T07:54:47.001Z</time></trkpt><trkpt lat="47.56481700535771" lon="10.726853225390066"><ele>799.0</ele><time>2026-05-01T07:54:48.001Z</time></trkpt><trkpt lat="47.5647228971776" lon="10.726954291918812"><ele>799.0</ele><time>2026-05-01T07:54:49.001Z</time></trkpt><trkpt lat="47.564626042814275" lon="10.72705232533739"><ele>798.75</ele><time>2026-05-01T07:54:50.001Z</time></trkpt><trkpt lat="47.564531506226935" lon="10.727146693426679"><ele>798.5</ele><time>2026-05-01T07:54:51.001Z</time></trkpt><trkpt lat="47.56443668226546" lon="10.727239127833283"><ele>798.25</ele><time>2026-05-01T07:54:52.001Z</time></trkpt><trkpt lat="47.564339521270426" lon="10.727323983071749"><ele>798.0</ele><time>2026-05-01T07:54:53.001Z</time></trkpt><trkpt lat="47.56423991958693" lon="10.727399789137529"><ele>798.0</ele><time>2026-05-01T07:54:54.001Z</time></trkpt><trkpt lat="47.564137613272166" lon="10.72746397442583"><ele>798.0</ele><time>2026-05-01T07:54:55.001Z</time></trkpt><trkpt lat="47.56403442333388" lon="10.727512712842067"><ele>798.0</ele><time>2026-05-01T07:54:56.001Z</time></trkpt><trkpt lat="47.563926414893395" lon="10.727541701084746"><ele>798.0</ele><time>2026-05-01T07:54:57.001Z</time></trkpt><trkpt lat="47.56381660662093" lon="10.727552925276871"><ele>798.0</ele><time>2026-05-01T07:54:58Z</time></trkpt><trkpt lat="47.56370275183981" lon="10.727556208581415"><ele>798.25</ele><time>2026-05-01T07:54:59Z</time></trkpt><trkpt lat="47.56358790351016" lon="10.72756635697314"><ele>798.5</ele><time>2026-05-01T07:55:00Z</time></trkpt><trkpt lat="47.56347326722356" lon="10.727587014325447"><ele>798.75</ele><time>2026-05-01T07:55:01Z</time></trkpt><trkpt lat="47.563361500751164" lon="10.727617667824061"><ele>799.0</ele><time>2026-05-01T07:55:02Z</time></trkpt><trkpt lat="47.56324975473643" lon="10.727665408737694"><ele>799.0</ele><time>2026-05-01T07:55:03Z</time></trkpt><trkpt lat="47.56313874687557" lon="10.727725811361925"><ele>799.0</ele><time>2026-05-01T07:55:04Z</time></trkpt><trkpt lat="47.56303012896337" lon="10.727793472392264"><ele>799.0</ele><time>2026-05-01T07:55:05Z</time></trkpt><trkpt lat="47.56292466860845" lon="10.727867627276503"><ele>799.0</ele><time>2026-05-01T07:55:06Z</time></trkpt><trkpt lat="47.562820522337404" lon="10.727949161775953"><ele>798.5</ele><time>2026-05-01T07:55:07Z</time></trkpt><trkpt lat="47.56271835668511" lon="10.728036766763076"><ele>798.0</ele><time>2026-05-01T07:55:08Z</time></trkpt><trkpt lat="47.56261873355022" lon="10.728130356610805"><ele>797.5</ele><time>2026-05-01T07:55:09Z</time></trkpt><trkpt lat="47.56251932882528" lon="10.728232848264826"><ele>797.0</ele><time>2026-05-01T07:55:10Z</time></trkpt><trkpt lat="47.562419626558764" lon="10.728343365061592"><ele>797.0</ele><time>2026-05-01T07:55:11Z</time></trkpt><trkpt lat="47.56231684042828" lon="10.72845809936919"><ele>797.0</ele><time>2026-05-01T07:55:12Z</time></trkpt><trkpt lat="47.56220665169501" lon="10.728581281173241"><ele>797.0</ele><time>2026-05-01T07:55:13Z</time></trkpt><trkpt lat="47.56208922440436" lon="10.728718232818833"><ele>797.0</ele><time>2026-05-01T07:55:14Z</time></trkpt><trkpt lat="47.56196910966181" lon="10.728869109818653"><ele>796.3333333333334</ele><time>2026-05-01T07:55:15Z</time></trkpt><trkpt lat="47.56184598731859" lon="10.729032141872363"><ele>795.6666666666667</ele><time>2026-05-01T07:55:16Z</time></trkpt><trkpt lat="47.56172006457476" lon="10.729208814335246"><ele>795.0</ele><time>2026-05-01T07:55:17Z</time></trkpt><trkpt lat="47.561595266579104" lon="10.729386604183805"><ele>794.3333333333333</ele><time>2026-05-01T07:55:18Z</time></trkpt><trkpt lat="47.561470860670525" lon="10.72957146511721"><ele>793.6666666666666</ele><time>2026-05-01T07:55:19Z</time></trkpt><trkpt lat="47.561345546184235" lon="10.729763697052983"><ele>793.0</ele><time>2026-05-01T07:55:20Z</time></trkpt><trkpt lat="47.56121700803762" lon="10.729967160246982"><ele>793.3333333333333</ele><time>2026-05-01T07:55:21Z</time></trkpt><trkpt lat="47.56108982760521" lon="10.730169658107396"><ele>793.6666666666667</ele><time>2026-05-01T07:55:22Z</time></trkpt><trkpt lat="47.560965263654275" lon="10.73037008756732"><ele>794.0</ele><time>2026-05-01T07:55:23Z</time></trkpt><trkpt lat="47.5608386466644" lon="10.73057840967706"><ele>794.0</ele><time>2026-05-01T07:55:24Z</time></trkpt><trkpt lat="47.560715271259" lon="10.730781978902751"><ele>794.0</ele><time>2026-05-01T07:55:25Z</time></trkpt><trkpt lat="47.56059463373031" lon="10.730980306066831"><ele>794.0</ele><time>2026-05-01T07:55:26Z</time></trkpt><trkpt lat="47.560473884486136" lon="10.73117842168614"><ele>795.0</ele><time>2026-05-01T07:55:27Z</time></trkpt><trkpt lat="47.560351855228355" lon="10.731375436665239"><ele>796.0</ele><time>2026-05-01T07:55:28Z</time></trkpt><trkpt lat="47.56022768946844" lon="10.731564291560728"><ele>797.0</ele><time>2026-05-01T07:55:29Z</time></trkpt><trkpt lat="47.5600990952901" lon="10.731738193420806"><ele>796.3333333333334</ele><time>2026-05-01T07:55:30Z</time></trkpt><trkpt lat="47.55996282853623" lon="10.731898627730706"><ele>795.6666666666667</ele><time>2026-05-01T07:55:31Z</time></trkpt><trkpt lat="47.55982108346231" lon="10.732049032889252"><ele>795.0</ele><time>2026-05-01T07:55:32Z</time></trkpt><trkpt lat="47.55967677317149" lon="10.73219683008901"><ele>796.3333333333333</ele><time>2026-05-01T07:55:33Z</time></trkpt><trkpt lat="47.559532572773215" lon="10.732342141933497"><ele>797.6666666666666</ele><time>2026-05-01T07:55:34Z</time></trkpt><trkpt lat="47.55939595687936" lon="10.732477673826905"><ele>799.0</ele><time>2026-05-01T07:55:35Z</time></trkpt><trkpt lat="47.55926600129869" lon="10.732608750878898"><ele>797.5</ele><time>2026-05-01T07:55:36Z</time></trkpt><trkpt lat="47.55914308316911" lon="10.732735298614706"><ele>796.0</ele><time>2026-05-01T07:55:37Z</time></trkpt><trkpt lat="47.55902729122522" lon="10.732861782363694"><ele>794.5</ele><time>2026-05-01T07:55:38Z</time></trkpt><trkpt lat="47.558914549299814" lon="10.73300353283358"><ele>793.0</ele><time>2026-05-01T07:55:39Z</time></trkpt><trkpt lat="47.55881476209027" lon="10.733164372417434"><ele>793.0</ele><time>2026-05-01T07:55:40Z</time></trkpt><trkpt lat="47.55872975195959" lon="10.733347987340393"><ele>793.0</ele><time>2026-05-01T07:55:41Z</time></trkpt><trkpt lat="47.5586659912971" lon="10.733552533866549"><ele>793.0</ele><time>2026-05-01T07:55:42Z</time></trkpt><trkpt lat="47.55862115961086" lon="10.733770904725496"><ele>795.3333333333333</ele><time>2026-05-01T07:55:43Z</time></trkpt><trkpt lat="47.55857696729287" lon="10.73399267744224"><ele>797.6666666666667</ele><time>2026-05-01T07:55:44Z</time></trkpt><trkpt lat="47.558527173741794" lon="10.734208609937037"><ele>800.0</ele><time>2026-05-01T07:55:45Z</time></trkpt><trkpt lat="47.55845332687845" lon="10.734411036426877"><ele>801.6666666666667</ele><time>2026-05-01T07:55:46Z</time></trkpt><trkpt lat="47.558356043927844" lon="10.734587608857616"><ele>803.3333333333333</ele><time>2026-05-01T07:55:47Z</time></trkpt><trkpt lat="47.55823222847867" lon="10.734731215287791"><ele>805.0</ele><time>2026-05-01T07:55:48Z</time></trkpt><trkpt lat="47.55809874580895" lon="10.734857267800258"><ele>805.0</ele><time>2026-05-01T07:55:49Z</time></trkpt><trkpt lat="47.5579562059718" lon="10.734975458983413"><ele>805.0</ele><time>2026-05-01T07:55:50Z</time></trkpt><trkpt lat="47.55781534929083" lon="10.73508887270607"><ele>805.0</ele><time>2026-05-01T07:55:51Z</time></trkpt><trkpt lat="47.557686655439284" lon="10.735197249602791"><ele>805.25</ele><time>2026-05-01T07:55:52Z</time></trkpt><trkpt lat="47.55757169467669" lon="10.73531364906407"><ele>805.5</ele><time>2026-05-01T07:55:53Z</time></trkpt><trkpt lat="47.55746123884197" lon="10.735448700576601"><ele>805.75</ele><time>2026-05-01T07:55:54Z</time></trkpt><trkpt lat="47.55735961225926" lon="10.735599021243857"><ele>806.0</ele><time>2026-05-01T07:55:55Z</time></trkpt><trkpt lat="47.55726750728732" lon="10.735752119326737"><ele>806.0</ele><time>2026-05-01T07:55:56Z</time></trkpt><trkpt lat="47.55718001597707" lon="10.735910760169363"><ele>806.0</ele><time>2026-05-01T07:55:57Z</time></trkpt><trkpt lat="47.557089014752854" lon="10.736067221404928"><ele>806.0</ele><time>2026-05-01T07:55:58Z</time></trkpt><trkpt lat="47.557003106024766" lon="10.736214043979805"><ele>806.0</ele><time>2026-05-01T07:55:59Z</time></trkpt><trkpt lat="47.55692232841835" lon="10.736358384128115"><ele>806.0</ele><time>2026-05-01T07:56:00Z</time></trkpt><trkpt lat="47.556851841545864" lon="10.736508846776271"><ele>806.0</ele><time>2026-05-01T07:56:01Z</time></trkpt><trkpt lat="47.556801506825046" lon="10.736667465885475"><ele>806.0</ele><time>2026-05-01T07:56:02Z</time></trkpt><trkpt lat="47.5567814896308" lon="10.736834394705765"><ele>806.0</ele><time>2026-05-01T07:56:03Z</time></trkpt><trkpt lat="47.556790854461696" lon="10.73700357699282"><ele>807.0</ele><time>2026-05-01T07:56:04Z</time></trkpt><trkpt lat="47.55683084804519" lon="10.737172334152719"><ele>808.0</ele><time>2026-05-01T07:56:05Z</time></trkpt><trkpt lat="47.55687003753243" lon="10.73734087732494"><ele>809.0</ele><time>2026-05-01T07:56:06Z</time></trkpt><trkpt lat="47.556905217217334" lon="10.737508508933999"><ele>810.0</ele><time>2026-05-01T07:56:07Z</time></trkpt><trkpt lat="47.556933828114914" lon="10.737674081851855"><ele>811.4</ele><time>2026-05-01T07:56:08Z</time></trkpt><trkpt lat="47.55695042211244" lon="10.737839494887304"><ele>812.8</ele><time>2026-05-01T07:56:09Z</time></trkpt><trkpt lat="47.55695580748662" lon="10.73798547048831"><ele>814.2</ele><time>2026-05-01T07:56:10Z</time></trkpt><trkpt lat="47.556954527096465" lon="10.73812127559517"><ele>815.6</ele><time>2026-05-01T07:56:11Z</time></trkpt><trkpt lat="47.556948744257696" lon="10.73825706516989"><ele>817.0</ele><time>2026-05-01T07:56:12Z</time></trkpt><trkpt lat="47.55694280757134" lon="10.738389653818786"><ele>816.9999999999999</ele><time>2026-05-01T07:56:13Z</time></trkpt><trkpt lat="47.55693779365361" lon="10.738502290648524"><ele>817.0</ele><time>2026-05-01T07:56:14Z</time></trkpt><trkpt lat="47.55693399989752" lon="10.738596160423063"><ele>817.0</ele><time>2026-05-01T07:56:15Z</time></trkpt><trkpt lat="47.55693346040641" lon="10.738738058656779"><ele>817.0</ele><time>2026-05-01T07:56:17Z</time></trkpt><trkpt lat="47.55696647115337" lon="10.738840442262754"><ele>816.9999999999999</ele><time>2026-05-01T07:56:19Z</time></trkpt><trkpt lat="47.55703069425412" lon="10.738938774627849"><ele>817.0</ele><time>2026-05-01T07:56:21Z</time></trkpt><trkpt lat="47.55707044894029" lon="10.739016339690316"><ele>815.3333333333333</ele><time>2026-05-01T07:56:23Z</time></trkpt><trkpt lat="47.55710077479845" lon="10.73912479484409"><ele>813.6666666666666</ele><time>2026-05-01T07:56:26.001Z</time></trkpt><trkpt lat="47.55710377827975" lon="10.739226143278811"><ele>812.0</ele><time>2026-05-01T07:57:24Z</time></trkpt><trkpt lat="47.55710734506589" lon="10.739337269912173"><ele>810.3333333333333</ele><time>2026-05-01T07:57:26Z</time></trkpt><trkpt lat="47.55711151894571" lon="10.739481650725317"><ele>808.6666666666666</ele><time>2026-05-01T07:57:28Z</time></trkpt><trkpt lat="47.55711037359032" lon="10.739614362817811"><ele>807.0</ele><time>2026-05-01T07:57:30Z</time></trkpt><trkpt lat="47.55716013120204" lon="10.739717951343966"><ele>806.8333333333334</ele><time>2026-05-01T07:57:33Z</time></trkpt><trkpt lat="47.557228526287936" lon="10.739707594047704"><ele>806.6666666666667</ele><time>2026-05-01T07:57:36Z</time></trkpt><trkpt lat="47.55719624324348" lon="10.739813360476825"><ele>806.5</ele><time>2026-05-01T07:57:42Z</time></trkpt><trkpt lat="47.55712930044637" lon="10.739847635814364"><ele>806.3333333333334</ele><time>2026-05-01T07:57:51Z</time></trkpt><trkpt lat="47.557088344823036" lon="10.73995913741215"><ele>806.1666666666667</ele><time>2026-05-01T07:57:53Z</time></trkpt><trkpt lat="47.557069196355684" lon="10.740056009663414"><ele>806.0</ele><time>2026-05-01T07:57:54Z</time></trkpt><trkpt lat="47.55707781088041" lon="10.740215315683512"><ele>806.0000000000001</ele><time>2026-05-01T07:57:56Z</time></trkpt><trkpt lat="47.55709198382742" lon="10.740352349981015"><ele>806.0</ele><time>2026-05-01T07:57:58Z</time></trkpt><trkpt lat="47.557088886971144" lon="10.740457524532035"><ele>806.0</ele><time>2026-05-01T07:58:01Z</time></trkpt><trkpt lat="47.55700640900571" lon="10.740538780858257"><ele>806.0</ele><time>2026-05-01T07:58:03Z</time></trkpt><trkpt lat="47.556923707912986" lon="10.740601396230472"><ele>806.0000000000001</ele><time>2026-05-01T07:58:05Z</time></trkpt><trkpt lat="47.556860801350304" lon="10.740653336735958"><ele>806.0</ele><time>2026-05-01T07:58:08Z</time></trkpt><trkpt lat="47.55682990047411" lon="10.740759455091224"><ele>806.0000000000001</ele><time>2026-05-01T07:58:12Z</time></trkpt><trkpt lat="47.556797862925684" lon="10.740854056524574"><ele>806.0</ele><time>2026-05-01T07:58:14Z</time></trkpt><trkpt lat="47.5568095943417" lon="10.740953879891613"><ele>806.0</ele><time>2026-05-01T07:58:16Z</time></trkpt><trkpt lat="47.55689483375056" lon="10.741024849056942"><ele>806.0</ele><time>2026-05-01T07:58:18Z</time></trkpt><trkpt lat="47.55702507670238" lon="10.741039634426455"><ele>806.0000000000001</ele><time>2026-05-01T07:58:20Z</time></trkpt><trkpt lat="47.55709132444724" lon="10.741043799686155"><ele>806.0</ele><time>2026-05-01T07:58:21Z</time></trkpt><trkpt lat="47.55716205813166" lon="10.741061971128046"><ele>806.1666666666667</ele><time>2026-05-01T07:58:22Z</time></trkpt><trkpt lat="47.557235973321895" lon="10.741087570754809"><ele>806.3333333333334</ele><time>2026-05-01T07:58:23Z</time></trkpt><trkpt lat="47.5573117008838" lon="10.74111402349773"><ele>806.5</ele><time>2026-05-01T07:58:24Z</time></trkpt><trkpt lat="47.55738854363453" lon="10.741139632448055"><ele>806.6666666666667</ele><time>2026-05-01T07:58:25Z</time></trkpt><trkpt lat="47.55746633015801" lon="10.74116259955235"><ele>806.8333333333334</ele><time>2026-05-01T07:58:26.001Z</time></trkpt><trkpt lat="47.55754270558276" lon="10.741182862739807"><ele>807.0</ele><time>2026-05-01T07:58:27.001Z</time></trkpt><trkpt lat="47.557614639713464" lon="10.74119819116633"><ele>807.0000000000001</ele><time>2026-05-01T07:58:28.001Z</time></trkpt><trkpt lat="47.55767771130933" lon="10.74120906159743"><ele>807.0</ele><time>2026-05-01T07:58:29.001Z</time></trkpt><trkpt lat="47.557765812697575" lon="10.741204763838686"><ele>807.0</ele><time>2026-05-01T07:58:31.001Z</time></trkpt><trkpt lat="47.55782513921884" lon="10.741137984871486"><ele>807.0</ele><time>2026-05-01T07:58:33.001Z</time></trkpt><trkpt lat="47.55788266146628" lon="10.741081596053387"><ele>807.0</ele><time>2026-05-01T07:58:36.001Z</time></trkpt><trkpt lat="47.557942031551924" lon="10.74112447539233"><ele>807.0000000000001</ele><time>2026-05-01T07:59:04.001Z</time></trkpt><trkpt lat="47.55788022077386" lon="10.741073858725109"><ele>807.0</ele><time>2026-05-01T08:10:18Z</time></trkpt><trkpt lat="47.557833410642544" lon="10.741011040876282"><ele>806.8333333333334</ele><time>2026-05-01T08:10:25Z</time></trkpt><trkpt lat="47.55778542566859" lon="10.740923690978013"><ele>806.6666666666667</ele><time>2026-05-01T08:10:31Z</time></trkpt><trkpt lat="47.55777694954668" lon="10.740819035464998"><ele>806.5</ele><time>2026-05-01T08:10:36Z</time></trkpt><trkpt lat="47.557694181047395" lon="10.74071151672184"><ele>806.3333333333334</ele><time>2026-05-01T08:11:07.001Z</time></trkpt><trkpt lat="47.55762467679489" lon="10.740726892907487"><ele>806.1666666666667</ele><time>2026-05-01T08:11:13.001Z</time></trkpt><trkpt lat="47.557559389668896" lon="10.740738776452254"><ele>806.0</ele><time>2026-05-01T08:11:20.001Z</time></trkpt><trkpt lat="47.55749673122252" lon="10.740726655787634"><ele>806.0</ele><time>2026-05-01T08:11:27.001Z</time></trkpt><trkpt lat="47.55742488457563" lon="10.740722529902818"><ele>806.0</ele><time>2026-05-01T08:11:34.001Z</time></trkpt><trkpt lat="47.55736029237587" lon="10.740727458338444"><ele>806.0</ele><time>2026-05-01T08:11:40.001Z</time></trkpt><trkpt lat="47.55728528375076" lon="10.74073628228009"><ele>806.0</ele><time>2026-05-01T08:11:46Z</time></trkpt><trkpt lat="47.557211533069946" lon="10.740783154126287"><ele>806.0</ele><time>2026-05-01T08:11:52Z</time></trkpt><trkpt lat="47.55715012283856" lon="10.740829973986715"><ele>806.0</ele><time>2026-05-01T08:11:58Z</time></trkpt><trkpt lat="47.557087718176966" lon="10.740843383807096"><ele>806.0</ele><time>2026-05-01T08:12:03Z</time></trkpt><trkpt lat="47.557023158990354" lon="10.740857524183108"><ele>806.1428571428572</ele><time>2026-05-01T08:12:10Z</time></trkpt><trkpt lat="47.5569594839331" lon="10.740889368409407"><ele>806.2857142857142</ele><time>2026-05-01T08:12:15Z</time></trkpt><trkpt lat="47.55689264212116" lon="10.740879476463304"><ele>806.4285714285714</ele><time>2026-05-01T08:12:23Z</time></trkpt><trkpt lat="47.55684266409259" lon="10.740818796808593"><ele>806.5714285714287</ele><time>2026-05-01T08:12:31Z</time></trkpt><trkpt lat="47.55678604149126" lon="10.740766871666075"><ele>806.7142857142858</ele><time>2026-05-01T08:13:02.001Z</time></trkpt><trkpt lat="47.556759476953005" lon="10.740675998106683"><ele>806.8571428571429</ele><time>2026-05-01T08:13:09.001Z</time></trkpt><trkpt lat="47.55674083770696" lon="10.740576255730941"><ele>807.0</ele><time>2026-05-01T08:13:17.001Z</time></trkpt><trkpt lat="47.556696236870955" lon="10.74049705343446"><ele>807.0</ele><time>2026-05-01T08:13:23.001Z</time></trkpt><trkpt lat="47.55661674775944" lon="10.740480177350252"><ele>807.0</ele><time>2026-05-01T08:13:30.001Z</time></trkpt><trkpt lat="47.55655421777838" lon="10.740463491763144"><ele>807.0</ele><time>2026-05-01T08:13:39.001Z</time></trkpt><trkpt lat="47.556678705657326" lon="10.74041698038901"><ele>807.0</ele><time>2026-05-01T08:15:48.001Z</time></trkpt><trkpt lat="47.55674360227533" lon="10.740461097949902"><ele>807.0</ele><time>2026-05-01T08:15:57.001Z</time></trkpt><trkpt lat="47.556719021431384" lon="10.740560709284729"><ele>807.0</ele><time>2026-05-01T08:16:09Z</time></trkpt><trkpt lat="47.55678976135996" lon="10.740744151989396"><ele>807.0</ele><time>2026-05-01T08:17:47.019Z</time></trkpt><trkpt lat="47.55667300779706" lon="10.74047092760701"><ele>807.0</ele><time>2026-05-01T08:19:43.018Z</time></trkpt><trkpt lat="47.55674695288053" lon="10.740428087090264"><ele>807.0</ele><time>2026-05-01T08:19:44.017Z</time></trkpt><trkpt lat="47.556813673837105" lon="10.74039719289588"><ele>807.0</ele><time>2026-05-01T08:19:45.001Z</time></trkpt><trkpt lat="47.55688745623708" lon="10.74052443108215"><ele>807.0000000000001</ele><time>2026-05-01T08:19:50.001Z</time></trkpt><trkpt lat="47.55688406747792" lon="10.740628510993433"><ele>807.0</ele><time>2026-05-01T08:19:55Z</time></trkpt><trkpt lat="47.55688120062571" lon="10.740734894356459"><ele>807.0</ele><time>2026-05-01T08:20:01Z</time></trkpt><trkpt lat="47.556878957667536" lon="10.740840662720473"><ele>807.0</ele><time>2026-05-01T08:20:07Z</time></trkpt><trkpt lat="47.55687895111279" lon="10.740943337250034"><ele>807.0</ele><time>2026-05-01T08:20:15Z</time></trkpt><trkpt lat="47.55682399557489" lon="10.740997555450619"><ele>807.0000000000001</ele><time>2026-05-01T08:20:21Z</time></trkpt><trkpt lat="47.556758448472706" lon="10.740989498741467"><ele>807.0</ele><time>2026-05-01T08:20:27Z</time></trkpt><trkpt lat="47.556688276758024" lon="10.740989352197841"><ele>807.0000000000001</ele><time>2026-05-01T08:20:33Z</time></trkpt><trkpt lat="47.556613595493495" lon="10.740975156565828"><ele>807.0</ele><time>2026-05-01T08:20:41Z</time></trkpt><trkpt lat="47.5565457035439" lon="10.74096737607894"><ele>807.0</ele><time>2026-05-01T08:20:47Z</time></trkpt><trkpt lat="47.556477859144735" lon="10.740973694135498"><ele>807.0</ele><time>2026-05-01T08:20:54Z</time></trkpt><trkpt lat="47.556414550842156" lon="10.741020592326594"><ele>807.0</ele><time>2026-05-01T08:21:07Z</time></trkpt><trkpt lat="47.556408729086876" lon="10.741118094905664"><ele>807.0000000000001</ele><time>2026-05-01T08:21:15Z</time></trkpt><trkpt lat="47.55644261673929" lon="10.74121334496161"><ele>807.0</ele><time>2026-05-01T08:21:21Z</time></trkpt><trkpt lat="47.55640158883581" lon="10.741291471811802"><ele>807.8571428571429</ele><time>2026-05-01T08:22:26Z</time></trkpt><trkpt lat="47.55639651415512" lon="10.741401751187617"><ele>808.7142857142858</ele><time>2026-05-01T08:22:32Z</time></trkpt><trkpt lat="47.55640383819485" lon="10.741510247503248"><ele>809.5714285714287</ele><time>2026-05-01T08:22:38Z</time></trkpt><trkpt lat="47.55640757722847" lon="10.741605901977998"><ele>810.4285714285714</ele><time>2026-05-01T08:22:45Z</time></trkpt><trkpt lat="47.55643374441688" lon="10.741704475513059"><ele>811.2857142857142</ele><time>2026-05-01T08:22:51Z</time></trkpt><trkpt lat="47.556428081557264" lon="10.741814842116213"><ele>812.1428571428572</ele><time>2026-05-01T08:22:57Z</time></trkpt><trkpt lat="47.556428757222555" lon="10.741926013661315"><ele>813.0</ele><time>2026-05-01T08:23:03Z</time></trkpt><trkpt lat="47.556455102160626" lon="10.742013783078917"><ele>814.0</ele><time>2026-05-01T08:23:09Z</time></trkpt><trkpt lat="47.55650148051437" lon="10.742090143481617"><ele>815.0</ele><time>2026-05-01T08:23:15Z</time></trkpt><trkpt lat="47.55654841279036" lon="10.742162577211245"><ele>816.0</ele><time>2026-05-01T08:23:21Z</time></trkpt><trkpt lat="47.55660172579719" lon="10.742215904913602"><ele>817.0</ele><time>2026-05-01T08:23:26Z</time></trkpt><trkpt lat="47.55665696777685" lon="10.742275714093742"><ele>818.0</ele><time>2026-05-01T08:23:32Z</time></trkpt><trkpt lat="47.556713383732635" lon="10.742336469315765"><ele>819.0</ele><time>2026-05-01T08:23:37Z</time></trkpt><trkpt lat="47.556779153048794" lon="10.742391067366537"><ele>820.0</ele><time>2026-05-01T08:23:43Z</time></trkpt><trkpt lat="47.556822803609066" lon="10.742482529298131"><ele>820.0</ele><time>2026-05-01T08:23:50Z</time></trkpt><trkpt lat="47.55684164315365" lon="10.742576955134124"><ele>820.0</ele><time>2026-05-01T08:23:55Z</time></trkpt><trkpt lat="47.55687336340253" lon="10.742664020051155"><ele>820.0</ele><time>2026-05-01T08:24:00Z</time></trkpt><trkpt lat="47.55689558959651" lon="10.742753862759713"><ele>820.0</ele><time>2026-05-01T08:24:05Z</time></trkpt><trkpt lat="47.55689936297748" lon="10.74285737525433"><ele>820.0</ele><time>2026-05-01T08:24:10Z</time></trkpt><trkpt lat="47.55691173395844" lon="10.742956651159405"><ele>820.0</ele><time>2026-05-01T08:24:16Z</time></trkpt><trkpt lat="47.55689597836582" lon="10.743052779042761"><ele>820.0</ele><time>2026-05-01T08:24:21Z</time></trkpt><trkpt lat="47.55688225213352" lon="10.743149625132611"><ele>821.8571428571429</ele><time>2026-05-01T08:24:28Z</time></trkpt><trkpt lat="47.5568475606186" lon="10.743235584904797"><ele>823.7142857142857</ele><time>2026-05-01T08:24:35Z</time></trkpt><trkpt lat="47.5568016787782" lon="10.743305518069636"><ele>825.5714285714286</ele><time>2026-05-01T08:24:41Z</time></trkpt><trkpt lat="47.55680282041924" lon="10.743404502990739"><ele>827.4285714285714</ele><time>2026-05-01T08:24:49Z</time></trkpt><trkpt lat="47.55680832880035" lon="10.74350335721785"><ele>829.2857142857142</ele><time>2026-05-01T08:24:58Z</time></trkpt><trkpt lat="47.55674140083704" lon="10.743529949041195"><ele>831.1428571428571</ele><time>2026-05-01T08:25:09Z</time></trkpt><trkpt lat="47.5566970539572" lon="10.743458735958074"><ele>833.0</ele><time>2026-05-01T08:25:18Z</time></trkpt><trkpt lat="47.556649316823254" lon="10.743382187960268"><ele>833.0</ele><time>2026-05-01T08:25:24Z</time></trkpt><trkpt lat="47.55660369231999" lon="10.743317752150364"><ele>833.0</ele><time>2026-05-01T08:25:30Z</time></trkpt><trkpt lat="47.55651174987147" lon="10.7432416736605"><ele>833.0</ele><time>2026-05-01T08:26:11Z</time></trkpt><trkpt lat="47.5564520397457" lon="10.743197235514657"><ele>833.0</ele><time>2026-05-01T08:26:24Z</time></trkpt><trkpt lat="47.556519877961165" lon="10.743229418493469"><ele>833.0</ele><time>2026-05-01T08:27:55Z</time></trkpt><trkpt lat="47.55656850696439" lon="10.743308779565405"><ele>833.0</ele><time>2026-05-01T08:28:04Z</time></trkpt><trkpt lat="47.55661172083418" lon="10.743383514336976"><ele>833.0</ele><time>2026-05-01T08:28:11Z</time></trkpt><trkpt lat="47.55666212426041" lon="10.743460553306601"><ele>833.0</ele><time>2026-05-01T08:28:19Z</time></trkpt><trkpt lat="47.55671712435022" lon="10.743513144194239"><ele>833.0</ele><time>2026-05-01T08:28:25Z</time></trkpt><trkpt lat="47.556714961705964" lon="10.74360769610654"><ele>833.0</ele><time>2026-05-01T08:28:39Z</time></trkpt><trkpt lat="47.556695494103536" lon="10.743700245308624"><ele>833.0</ele><time>2026-05-01T08:28:49Z</time></trkpt><trkpt lat="47.556753215892314" lon="10.74374891169478"><ele>833.0</ele><time>2026-05-01T08:29:11Z</time></trkpt><trkpt lat="47.55686030145653" lon="10.74375834158528"><ele>833.0</ele><time>2026-05-01T08:29:25Z</time></trkpt><trkpt lat="47.556913348077735" lon="10.743814820373503"><ele>833.0</ele><time>2026-05-01T08:29:32Z</time></trkpt><trkpt lat="47.556975710828546" lon="10.743848363364323"><ele>834.1428571428571</ele><time>2026-05-01T08:29:38Z</time></trkpt><trkpt lat="47.557037337305296" lon="10.743889018103747"><ele>835.2857142857142</ele><time>2026-05-01T08:29:44Z</time></trkpt><trkpt lat="47.55710983703345" lon="10.74392759837416"><ele>836.4285714285714</ele><time>2026-05-01T08:29:53Z</time></trkpt><trkpt lat="47.55716590142307" lon="10.743986374750722"><ele>837.5714285714286</ele><time>2026-05-01T08:30:02Z</time></trkpt><trkpt lat="47.557222953373646" lon="10.744048732363144"><ele>838.7142857142857</ele><time>2026-05-01T08:30:09Z</time></trkpt><trkpt lat="47.55727799286449" lon="10.744097507209224"><ele>839.8571428571429</ele><time>2026-05-01T08:30:15Z</time></trkpt><trkpt lat="47.557336361798136" lon="10.744163616120524"><ele>841.0</ele><time>2026-05-01T08:30:22Z</time></trkpt><trkpt lat="47.55738880074958" lon="10.744222748053208"><ele>841.0</ele><time>2026-05-01T08:30:28Z</time></trkpt><trkpt lat="47.55743575685578" lon="10.744295510364832"><ele>841.0</ele><time>2026-05-01T08:30:36Z</time></trkpt><trkpt lat="47.55737498322868" lon="10.744253454819972"><ele>841.0</ele><time>2026-05-01T08:33:01Z</time></trkpt><trkpt lat="47.557314077257466" lon="10.744191009724418"><ele>841.0</ele><time>2026-05-01T08:33:08Z</time></trkpt><trkpt lat="47.55726230759438" lon="10.744123231037422"><ele>841.0</ele><time>2026-05-01T08:33:17Z</time></trkpt><trkpt lat="47.55719963377877" lon="10.744082955518847"><ele>841.0</ele><time>2026-05-01T08:33:21Z</time></trkpt><trkpt lat="47.557146044123506" lon="10.744023741468759"><ele>841.0</ele><time>2026-05-01T08:33:26Z</time></trkpt><trkpt lat="47.557085553224184" lon="10.743987565158918"><ele>843.0</ele><time>2026-05-01T08:33:33Z</time></trkpt><trkpt lat="47.55702063919401" lon="10.74395426990019"><ele>845.0</ele><time>2026-05-01T08:33:39Z</time></trkpt><trkpt lat="47.55695726174818" lon="10.743940244418635"><ele>847.0</ele><time>2026-05-01T08:33:45Z</time></trkpt><trkpt lat="47.55689470075914" lon="10.743926421093562"><ele>849.0</ele><time>2026-05-01T08:33:52Z</time></trkpt><trkpt lat="47.556818041955545" lon="10.743923820099539"><ele>851.0</ele><time>2026-05-01T08:33:57Z</time></trkpt><trkpt lat="47.556759830322555" lon="10.743875709178571"><ele>853.0</ele><time>2026-05-01T08:34:05Z</time></trkpt><trkpt lat="47.55669997156244" lon="10.74382400159426"><ele>855.0</ele><time>2026-05-01T08:34:12Z</time></trkpt><trkpt lat="47.55669837758282" lon="10.743725520132907"><ele>855.0</ele><time>2026-05-01T08:34:18Z</time></trkpt><trkpt lat="47.556725835412905" lon="10.74362472009413"><ele>855.0</ele><time>2026-05-01T08:34:25Z</time></trkpt><trkpt lat="47.55675859766499" lon="10.743541415319243"><ele>855.0</ele><time>2026-05-01T08:34:31Z</time></trkpt><trkpt lat="47.55678442443036" lon="10.743439866463252"><ele>855.0</ele><time>2026-05-01T08:34:36.999Z</time></trkpt><trkpt lat="47.556805805932335" lon="10.743342612475413"><ele>855.0</ele><time>2026-05-01T08:34:40.999Z</time></trkpt><trkpt lat="47.556817888693345" lon="10.74323914895942"><ele>855.0</ele><time>2026-05-01T08:34:46.999Z</time></trkpt><trkpt lat="47.55686337651656" lon="10.743165716844889"><ele>855.0</ele><time>2026-05-01T08:34:52.999Z</time></trkpt><trkpt lat="47.55689189754622" lon="10.743070571832739"><ele>851.8571428571429</ele><time>2026-05-01T08:34:58Z</time></trkpt><trkpt lat="47.556891749841405" lon="10.742961442151255"><ele>848.7142857142857</ele><time>2026-05-01T08:35:04Z</time></trkpt><trkpt lat="47.556874736804964" lon="10.742855201899149"><ele>845.5714285714286</ele><time>2026-05-01T08:35:10Z</time></trkpt><trkpt lat="47.55685358967813" lon="10.742753673362628"><ele>842.4285714285714</ele><time>2026-05-01T08:35:15Z</time></trkpt><trkpt lat="47.55682944431517" lon="10.742661428078424"><ele>839.2857142857142</ele><time>2026-05-01T08:35:20Z</time></trkpt><trkpt lat="47.55679838909174" lon="10.742574311532552"><ele>836.1428571428571</ele><time>2026-05-01T08:35:25Z</time></trkpt><trkpt lat="47.55675622063156" lon="10.74247973097859"><ele>833.0</ele><time>2026-05-01T08:35:31Z</time></trkpt><trkpt lat="47.556715699616305" lon="10.74240795464161"><ele>831.1428571428571</ele><time>2026-05-01T08:35:36Z</time></trkpt><trkpt lat="47.55665720686858" lon="10.742341709134568"><ele>829.2857142857142</ele><time>2026-05-01T08:35:42Z</time></trkpt><trkpt lat="47.55659727589753" lon="10.742302487678403"><ele>827.4285714285714</ele><time>2026-05-01T08:35:47Z</time></trkpt><trkpt lat="47.556551785984304" lon="10.742224818028031"><ele>825.5714285714286</ele><time>2026-05-01T08:35:52Z</time></trkpt><trkpt lat="47.55651021676406" lon="10.742147332279645"><ele>823.7142857142857</ele><time>2026-05-01T08:35:57Z</time></trkpt><trkpt lat="47.556498300705556" lon="10.742044580783572"><ele>821.8571428571429</ele><time>2026-05-01T08:36:03Z</time></trkpt><trkpt lat="47.5565330404146" lon="10.741956980823222"><ele>820.0</ele><time>2026-05-01T08:36:08Z</time></trkpt><trkpt lat="47.556567547879524" lon="10.741868945515186"><ele>819.0</ele><time>2026-05-01T08:36:13Z</time></trkpt><trkpt lat="47.55659127192116" lon="10.741772302504963"><ele>818.0</ele><time>2026-05-01T08:36:19Z</time></trkpt><trkpt lat="47.5566196689432" lon="10.741668754720807"><ele>817.0</ele><time>2026-05-01T08:36:25Z</time></trkpt><trkpt lat="47.55663624830405" lon="10.741576710778538"><ele>816.0</ele><time>2026-05-01T08:36:30Z</time></trkpt><trkpt lat="47.556659370756535" lon="10.741467308831071"><ele>815.0</ele><time>2026-05-01T08:36:36Z</time></trkpt><trkpt lat="47.556681520020646" lon="10.741361564649484"><ele>814.0</ele><time>2026-05-01T08:36:42Z</time></trkpt><trkpt lat="47.5566982547845" lon="10.741255731414423"><ele>813.0</ele><time>2026-05-01T08:36:48Z</time></trkpt><trkpt lat="47.556712832864896" lon="10.74114647527316"><ele>812.1428571428572</ele><time>2026-05-01T08:36:54Z</time></trkpt><trkpt lat="47.5567189209153" lon="10.741039446134552"><ele>811.2857142857142</ele><time>2026-05-01T08:37:00Z</time></trkpt><trkpt lat="47.556724814830055" lon="10.74093487119478"><ele>810.4285714285714</ele><time>2026-05-01T08:37:07Z</time></trkpt><trkpt lat="47.556788699352445" lon="10.740957073956878"><ele>809.5714285714287</ele><time>2026-05-01T08:37:13Z</time></trkpt><trkpt lat="47.55686619094349" lon="10.740979187553963"><ele>808.7142857142858</ele><time>2026-05-01T08:37:19Z</time></trkpt><trkpt lat="47.55693829747983" lon="10.740983913386277"><ele>807.8571428571429</ele><time>2026-05-01T08:37:24Z</time></trkpt><trkpt lat="47.55701603007865" lon="10.740998570613451"><ele>807.0</ele><time>2026-05-01T08:37:30Z</time></trkpt><trkpt lat="47.55708944861499" lon="10.741017362252066"><ele>807.0</ele><time>2026-05-01T08:37:36Z</time></trkpt><trkpt lat="47.55714465562712" lon="10.741063936688775"><ele>807.0</ele><time>2026-05-01T08:37:41Z</time></trkpt><trkpt lat="47.557206946690656" lon="10.741088203985441"><ele>807.0</ele><time>2026-05-01T08:37:46Z</time></trkpt><trkpt lat="47.557330499266456" lon="10.74108366142673"><ele>807.0</ele><time>2026-05-01T08:37:55Z</time></trkpt><trkpt lat="47.557397258279686" lon="10.741097283569982"><ele>807.0</ele><time>2026-05-01T08:38:01Z</time></trkpt><trkpt lat="47.55745939684917" lon="10.74111329105397"><ele>807.0</ele><time>2026-05-01T08:38:06Z</time></trkpt><trkpt lat="47.557558646084885" lon="10.741138844996375"><ele>807.0000000000001</ele><time>2026-05-01T08:38:13Z</time></trkpt><trkpt lat="47.557641516026266" lon="10.741151806296099"><ele>807.0</ele><time>2026-05-01T08:38:20Z</time></trkpt><trkpt lat="47.557717226179136" lon="10.741174161060504"><ele>807.0</ele><time>2026-05-01T08:38:26Z</time></trkpt><trkpt lat="47.55778069235394" lon="10.741157405737145"><ele>807.0</ele><time>2026-05-01T08:38:31Z</time></trkpt><trkpt lat="47.55784036093919" lon="10.741087684136335"><ele>807.0</ele><time>2026-05-01T08:38:38Z</time></trkpt><trkpt lat="47.55783093365471" lon="10.740994260596318"><ele>807.0000000000001</ele><time>2026-05-01T08:38:45Z</time></trkpt><trkpt lat="47.55778896880063" lon="10.740913590421316"><ele>807.0</ele><time>2026-05-01T08:38:52Z</time></trkpt><trkpt lat="47.55778421332259" lon="10.74081787053362"><ele>807.0</ele><time>2026-05-01T08:38:58Z</time></trkpt><trkpt lat="47.55785027644457" lon="10.740823160186537"><ele>807.0</ele><time>2026-05-01T08:39:26Z</time></trkpt><trkpt lat="47.55790594120806" lon="10.740892896654701"><ele>807.0</ele><time>2026-05-01T08:39:33Z</time></trkpt><trkpt lat="47.55792467125146" lon="10.740995212362053"><ele>807.0</ele><time>2026-05-01T08:39:40Z</time></trkpt><trkpt lat="47.557865817952674" lon="10.741048184156346"><ele>807.0</ele><time>2026-05-01T08:49:21.999Z</time></trkpt><trkpt lat="47.557787163242885" lon="10.741101119367295"><ele>807.0</ele><time>2026-05-01T08:49:24.999Z</time></trkpt><trkpt lat="47.55762729317911" lon="10.741118386905667"><ele>807.0</ele><time>2026-05-01T08:49:57Z</time></trkpt><trkpt lat="47.557554066326006" lon="10.741095227114567"><ele>807.0</ele><time>2026-05-01T08:49:58Z</time></trkpt><trkpt lat="47.55748190007984" lon="10.741080300044873"><ele>807.0</ele><time>2026-05-01T08:49:59Z</time></trkpt><trkpt lat="47.55740775693361" lon="10.74107343641391"><ele>807.0</ele><time>2026-05-01T08:50:01Z</time></trkpt><trkpt lat="47.55733639843209" lon="10.741069512818513"><ele>807.0</ele><time>2026-05-01T08:50:05Z</time></trkpt><trkpt lat="47.55724706576155" lon="10.741041703557277"><ele>807.0</ele><time>2026-05-01T08:50:07Z</time></trkpt><trkpt lat="47.55717573768867" lon="10.74101547786414"><ele>807.0</ele><time>2026-05-01T08:50:09Z</time></trkpt><trkpt lat="47.55709747976753" lon="10.741002851931885"><ele>807.0</ele><time>2026-05-01T08:50:11Z</time></trkpt><trkpt lat="47.55701899576823" lon="10.740985698601325"><ele>807.0</ele><time>2026-05-01T08:50:13Z</time></trkpt><trkpt lat="47.55694461335028" lon="10.740966042362759"><ele>807.0</ele><time>2026-05-01T08:50:15Z</time></trkpt><trkpt lat="47.556862955785846" lon="10.740932128175833"><ele>807.0</ele><time>2026-05-01T08:50:18Z</time></trkpt><trkpt lat="47.55680413914768" lon="10.740823351595173"><ele>807.0</ele><time>2026-05-01T08:50:22Z</time></trkpt><trkpt lat="47.55675831265045" lon="10.740743221374489"><ele>807.0</ele><time>2026-05-01T08:50:24Z</time></trkpt><trkpt lat="47.5568006373336" lon="10.740945860730946"><ele>807.0</ele><time>2026-05-01T08:50:36Z</time></trkpt><trkpt lat="47.55686454699693" lon="10.740970318549023"><ele>807.0</ele><time>2026-05-01T08:50:37Z</time></trkpt><trkpt lat="47.55692690664992" lon="10.74099247132917"><ele>807.0</ele><time>2026-05-01T08:50:38Z</time></trkpt><trkpt lat="47.55699661822861" lon="10.74101198158503"><ele>807.0</ele><time>2026-05-01T08:50:39Z</time></trkpt><trkpt lat="47.55706440216118" lon="10.741027529856174"><ele>807.0</ele><time>2026-05-01T08:50:40Z</time></trkpt><trkpt lat="47.55713715117748" lon="10.741042991247003"><ele>807.0</ele><time>2026-05-01T08:50:41Z</time></trkpt><trkpt lat="47.557216824191535" lon="10.741067839476571"><ele>807.0</ele><time>2026-05-01T08:50:42Z</time></trkpt><trkpt lat="47.55730479637466" lon="10.74109792144329"><ele>807.0</ele><time>2026-05-01T08:50:43Z</time></trkpt><trkpt lat="47.55739543128317" lon="10.741127561324099"><ele>807.0</ele><time>2026-05-01T08:50:44Z</time></trkpt><trkpt lat="47.55748149941828" lon="10.741146965327301"><ele>807.0</ele><time>2026-05-01T08:50:45Z</time></trkpt><trkpt lat="47.557552714687596" lon="10.741160618640873"><ele>807.0</ele><time>2026-05-01T08:50:46Z</time></trkpt><trkpt lat="47.55761921233369" lon="10.741173959077187"><ele>807.0</ele><time>2026-05-01T08:50:47Z</time></trkpt><trkpt lat="47.55768498910192" lon="10.741192250144541"><ele>807.0</ele><time>2026-05-01T08:50:48Z</time></trkpt><trkpt lat="47.557747650360106" lon="10.741208586489073"><ele>807.0</ele><time>2026-05-01T08:50:49Z</time></trkpt><trkpt lat="47.5578657016071" lon="10.741240733719064"><ele>807.0</ele><time>2026-05-01T08:50:51Z</time></trkpt><trkpt lat="47.55798652203021" lon="10.741267214528222"><ele>807.0</ele><time>2026-05-01T08:50:53Z</time></trkpt><trkpt lat="47.55806694348465" lon="10.741288589288503"><ele>807.0</ele><time>2026-05-01T08:50:55Z</time></trkpt><trkpt lat="47.55817447235743" lon="10.741253819820708"><ele>807.0</ele><time>2026-05-01T08:50:59Z</time></trkpt><trkpt lat="47.558238843359554" lon="10.741281833024841"><ele>807.0</ele><time>2026-05-01T08:51:00Z</time></trkpt><trkpt lat="47.55832439298863" lon="10.741323082560683"><ele>807.0</ele><time>2026-05-01T08:51:01Z</time></trkpt><trkpt lat="47.558427894425556" lon="10.741361767681255"><ele>807.0</ele><time>2026-05-01T08:51:02Z</time></trkpt><trkpt lat="47.55852770045635" lon="10.741396998723504"><ele>807.0</ele><time>2026-05-01T08:51:03Z</time></trkpt><trkpt lat="47.55862399022078" lon="10.741423359444433"><ele>807.0</ele><time>2026-05-01T08:51:04Z</time></trkpt><trkpt lat="47.55873407489617" lon="10.741444412833294"><ele>807.0</ele><time>2026-05-01T08:51:05Z</time></trkpt><trkpt lat="47.55884976704072" lon="10.741464025215409"><ele>807.0</ele><time>2026-05-01T08:51:06Z</time></trkpt><trkpt lat="47.55896477606741" lon="10.741486813066716"><ele>807.0</ele><time>2026-05-01T08:51:07Z</time></trkpt><trkpt lat="47.559068564988095" lon="10.741512447659865"><ele>807.0</ele><time>2026-05-01T08:51:08Z</time></trkpt><trkpt lat="47.55917874245924" lon="10.741537694624043"><ele>807.0</ele><time>2026-05-01T08:51:09Z</time></trkpt><trkpt lat="47.5592889366166" lon="10.74156139988599"><ele>807.0</ele><time>2026-05-01T08:51:10Z</time></trkpt><trkpt lat="47.55939964919262" lon="10.741588427248876"><ele>807.0</ele><time>2026-05-01T08:51:11Z</time></trkpt><trkpt lat="47.55951100156487" lon="10.741615417241547"><ele>807.0</ele><time>2026-05-01T08:51:12Z</time></trkpt><trkpt lat="47.55961895823296" lon="10.741641200551165"><ele>807.0</ele><time>2026-05-01T08:51:13Z</time></trkpt><trkpt lat="47.559727101900194" lon="10.741667790020188"><ele>807.0</ele><time>2026-05-01T08:51:14Z</time></trkpt><trkpt lat="47.55983381340745" lon="10.741690630232645"><ele>807.0</ele><time>2026-05-01T08:51:15Z</time></trkpt><trkpt lat="47.55994060845874" lon="10.741721115404696"><ele>807.0</ele><time>2026-05-01T08:51:16Z</time></trkpt><trkpt lat="47.560046355481724" lon="10.741747761147565"><ele>807.0</ele><time>2026-05-01T08:51:16.999Z</time></trkpt><trkpt lat="47.560153692670646" lon="10.741773781618692"><ele>807.0</ele><time>2026-05-01T08:51:17.999Z</time></trkpt><trkpt lat="47.56026112040293" lon="10.741799293775463"><ele>807.0</ele><time>2026-05-01T08:51:18.999Z</time></trkpt><trkpt lat="47.5603681858798" lon="10.741823358442005"><ele>807.0</ele><time>2026-05-01T08:51:19.999Z</time></trkpt><trkpt lat="47.56046939662609" lon="10.741850115713401"><ele>807.0</ele><time>2026-05-01T08:51:20.999Z</time></trkpt><trkpt lat="47.560567996107196" lon="10.741882342738801"><ele>807.0</ele><time>2026-05-01T08:51:21.999Z</time></trkpt><trkpt lat="47.56066637389368" lon="10.741914680479109"><ele>806.8</ele><time>2026-05-01T08:51:22.999Z</time></trkpt><trkpt lat="47.56076743465772" lon="10.741940699444775"><ele>806.6</ele><time>2026-05-01T08:51:23.999Z</time></trkpt><trkpt lat="47.56086822392646" lon="10.741966167961703"><ele>806.4</ele><time>2026-05-01T08:51:24.999Z</time></trkpt><trkpt lat="47.56096884622571" lon="10.74199014075967"><ele>806.1999999999999</ele><time>2026-05-01T08:51:25.999Z</time></trkpt><trkpt lat="47.561071204722445" lon="10.742012789456501"><ele>806.0</ele><time>2026-05-01T08:51:26.999Z</time></trkpt><trkpt lat="47.561173217337114" lon="10.742035933946838"><ele>806.0000000000001</ele><time>2026-05-01T08:51:27.999Z</time></trkpt><trkpt lat="47.561256254184684" lon="10.742054527368758"><ele>806.0</ele><time>2026-05-01T08:51:28.999Z</time></trkpt><trkpt lat="47.56133745648548" lon="10.742081783197131"><ele>806.0</ele><time>2026-05-01T08:51:30.999Z</time></trkpt><trkpt lat="47.56125308749035" lon="10.74202193565246"><ele>806.0</ele><time>2026-05-01T08:52:12Z</time></trkpt><trkpt lat="47.561184613787596" lon="10.742008694328177"><ele>806.0000000000001</ele><time>2026-05-01T08:52:13Z</time></trkpt><trkpt lat="47.561105812230025" lon="10.741991826256006"><ele>806.0</ele><time>2026-05-01T08:52:14Z</time></trkpt><trkpt lat="47.56102482708835" lon="10.741972473023758"><ele>806.0</ele><time>2026-05-01T08:52:15Z</time></trkpt><trkpt lat="47.56087676225915" lon="10.741941642820757"><ele>806.0</ele><time>2026-05-01T08:52:16Z</time></trkpt><trkpt lat="47.560774942667756" lon="10.74191303797318"><ele>806.0</ele><time>2026-05-01T08:52:17Z</time></trkpt><trkpt lat="47.56068420151369" lon="10.741891352184178"><ele>806.0</ele><time>2026-05-01T08:52:18Z</time></trkpt><trkpt lat="47.56060488410474" lon="10.74187210944878"><ele>806.0</ele><time>2026-05-01T08:52:19Z</time></trkpt><trkpt lat="47.56053640471148" lon="10.74185281161824"><ele>806.0</ele><time>2026-05-01T08:52:20Z</time></trkpt><trkpt lat="47.56044829871438" lon="10.741821006210786"><ele>806.0</ele><time>2026-05-01T08:52:22Z</time></trkpt><trkpt lat="47.56049752573126" lon="10.741888212660706"><ele>806.0</ele><time>2026-05-01T08:52:38Z</time></trkpt><trkpt lat="47.56056470122192" lon="10.741921510726783"><ele>806.0</ele><time>2026-05-01T08:52:43Z</time></trkpt><trkpt lat="47.56073156545863" lon="10.741958623875501"><ele>806.0</ele><time>2026-05-01T08:52:45Z</time></trkpt><trkpt lat="47.56081826310675" lon="10.741976488415075"><ele>806.0</ele><time>2026-05-01T08:52:46Z</time></trkpt><trkpt lat="47.56089873504922" lon="10.741995294939457"><ele>806.0</ele><time>2026-05-01T08:52:47Z</time></trkpt><trkpt lat="47.56098308544011" lon="10.742015390212792"><ele>806.0</ele><time>2026-05-01T08:52:48Z</time></trkpt><trkpt lat="47.561074841752934" lon="10.742036664031922"><ele>806.0</ele><time>2026-05-01T08:52:49Z</time></trkpt><trkpt lat="47.561170337345224" lon="10.742061727389528"><ele>806.0</ele><time>2026-05-01T08:52:50Z</time></trkpt><trkpt lat="47.56126636872277" lon="10.742082247754125"><ele>805.8</ele><time>2026-05-01T08:52:51Z</time></trkpt><trkpt lat="47.56136653835319" lon="10.742103843211996"><ele>805.5999999999999</ele><time>2026-05-01T08:52:52Z</time></trkpt><trkpt lat="47.56146645204944" lon="10.7421273520091"><ele>805.4</ele><time>2026-05-01T08:52:53Z</time></trkpt><trkpt lat="47.56156573198883" lon="10.742151756996975"><ele>805.2</ele><time>2026-05-01T08:52:54Z</time></trkpt><trkpt lat="47.561665899106025" lon="10.742178645959694"><ele>805.0</ele><time>2026-05-01T08:52:55Z</time></trkpt><trkpt lat="47.56176465345556" lon="10.742202267209255"><ele>805.0</ele><time>2026-05-01T08:52:56Z</time></trkpt><trkpt lat="47.561862594365195" lon="10.742224081816792"><ele>805.0</ele><time>2026-05-01T08:52:57Z</time></trkpt><trkpt lat="47.56196271465157" lon="10.742247582189492"><ele>805.0</ele><time>2026-05-01T08:52:58Z</time></trkpt><trkpt lat="47.562070449999304" lon="10.742270792862046"><ele>805.0</ele><time>2026-05-01T08:52:59Z</time></trkpt><trkpt lat="47.56218736156222" lon="10.742295311277513"><ele>805.0</ele><time>2026-05-01T08:53:00Z</time></trkpt><trkpt lat="47.56230785784127" lon="10.7423238615378"><ele>805.25</ele><time>2026-05-01T08:53:01Z</time></trkpt><trkpt lat="47.56242966226643" lon="10.742353690520813"><ele>805.5</ele><time>2026-05-01T08:53:02Z</time></trkpt><trkpt lat="47.56255690777541" lon="10.742386811299472"><ele>805.75</ele><time>2026-05-01T08:53:03Z</time></trkpt><trkpt lat="47.56268771861876" lon="10.742421322334538"><ele>806.0</ele><time>2026-05-01T08:53:04Z</time></trkpt><trkpt lat="47.562822592324764" lon="10.742456392708759"><ele>805.5</ele><time>2026-05-01T08:53:05Z</time></trkpt><trkpt lat="47.56296089692499" lon="10.742491563414578"><ele>805.0</ele><time>2026-05-01T08:53:06Z</time></trkpt><trkpt lat="47.56310323016595" lon="10.742526091421725"><ele>804.5</ele><time>2026-05-01T08:53:07Z</time></trkpt><trkpt lat="47.56324929082661" lon="10.742560914230529"><ele>804.0</ele><time>2026-05-01T08:53:08Z</time></trkpt><trkpt lat="47.56339712307244" lon="10.742596760583714"><ele>804.0</ele><time>2026-05-01T08:53:09Z</time></trkpt><trkpt lat="47.56354520199632" lon="10.742633728233852"><ele>804.0</ele><time>2026-05-01T08:53:10Z</time></trkpt><trkpt lat="47.56369678363705" lon="10.742671026762276"><ele>804.0</ele><time>2026-05-01T08:53:11Z</time></trkpt><trkpt lat="47.56385391707211" lon="10.742709742156585"><ele>804.3333333333333</ele><time>2026-05-01T08:53:12Z</time></trkpt><trkpt lat="47.56401578210093" lon="10.742746659729843"><ele>804.6666666666666</ele><time>2026-05-01T08:53:13Z</time></trkpt><trkpt lat="47.56417218764899" lon="10.742782202020127"><ele>805.0</ele><time>2026-05-01T08:53:14Z</time></trkpt><trkpt lat="47.56433191985934" lon="10.742824502402277"><ele>805.0</ele><time>2026-05-01T08:53:15Z</time></trkpt><trkpt lat="47.564490882926385" lon="10.742878766699796"><ele>805.0</ele><time>2026-05-01T08:53:16Z</time></trkpt><trkpt lat="47.564648747923734" lon="10.742940268031724"><ele>805.0</ele><time>2026-05-01T08:53:17Z</time></trkpt><trkpt lat="47.56480807268604" lon="10.743005784444785"><ele>804.0</ele><time>2026-05-01T08:53:18Z</time></trkpt><trkpt lat="47.56496882467346" lon="10.743069790577328"><ele>803.0</ele><time>2026-05-01T08:53:19Z</time></trkpt><trkpt lat="47.56512789221118" lon="10.743131499780803"><ele>802.0</ele><time>2026-05-01T08:53:20Z</time></trkpt><trkpt lat="47.56528759435476" lon="10.743191753954036"><ele>802.0</ele><time>2026-05-01T08:53:21Z</time></trkpt><trkpt lat="47.56544683586754" lon="10.743258974772735"><ele>802.0</ele><time>2026-05-01T08:53:22Z</time></trkpt><trkpt lat="47.565603215563044" lon="10.743336241402561"><ele>802.0</ele><time>2026-05-01T08:53:22.999Z</time></trkpt><trkpt lat="47.56576094265612" lon="10.743412577146117"><ele>802.0</ele><time>2026-05-01T08:53:23.999Z</time></trkpt><trkpt lat="47.56592097890527" lon="10.743483593552835"><ele>802.0</ele><time>2026-05-01T08:53:24.999Z</time></trkpt><trkpt lat="47.566081972124564" lon="10.743552416890825"><ele>802.0</ele><time>2026-05-01T08:53:25.999Z</time></trkpt><trkpt lat="47.5662463621138" lon="10.743622516552879"><ele>801.6666666666666</ele><time>2026-05-01T08:53:26.999Z</time></trkpt><trkpt lat="47.56641447615227" lon="10.743694028480428"><ele>801.3333333333333</ele><time>2026-05-01T08:53:27.999Z</time></trkpt><trkpt lat="47.566583371390536" lon="10.743764990263388"><ele>801.0</ele><time>2026-05-01T08:53:28.999Z</time></trkpt><trkpt lat="47.56675557844126" lon="10.74383889654174"><ele>801.0</ele><time>2026-05-01T08:53:29.999Z</time></trkpt><trkpt lat="47.56692378643876" lon="10.743911073911415"><ele>801.0</ele><time>2026-05-01T08:53:30.999Z</time></trkpt><trkpt lat="47.56709313381182" lon="10.74398440508162"><ele>801.0</ele><time>2026-05-01T08:53:31.999Z</time></trkpt><trkpt lat="47.56726607960227" lon="10.744060418601789"><ele>801.0</ele><time>2026-05-01T08:53:32.999Z</time></trkpt><trkpt lat="47.56743910498972" lon="10.74413599227043"><ele>801.0</ele><time>2026-05-01T08:53:33.999Z</time></trkpt><trkpt lat="47.56761178136862" lon="10.74420949021832"><ele>801.0</ele><time>2026-05-01T08:53:34.999Z</time></trkpt><trkpt lat="47.567786070121024" lon="10.744284612501817"><ele>800.3333333333333</ele><time>2026-05-01T08:53:35.999Z</time></trkpt><trkpt lat="47.56796196913627" lon="10.744362420057726"><ele>799.6666666666666</ele><time>2026-05-01T08:53:37Z</time></trkpt><trkpt lat="47.56813527747728" lon="10.744441299209477"><ele>799.0</ele><time>2026-05-01T08:53:38Z</time></trkpt><trkpt lat="47.56830859286581" lon="10.744520827730984"><ele>799.0</ele><time>2026-05-01T08:53:39Z</time></trkpt><trkpt lat="47.56848004290397" lon="10.744600088667486"><ele>799.0</ele><time>2026-05-01T08:53:40Z</time></trkpt><trkpt lat="47.56865510621632" lon="10.744678899492204"><ele>799.0</ele><time>2026-05-01T08:53:41Z</time></trkpt><trkpt lat="47.568829040430565" lon="10.744756608884437"><ele>799.0</ele><time>2026-05-01T08:53:42Z</time></trkpt><trkpt lat="47.569003826267696" lon="10.744836665270082"><ele>799.0</ele><time>2026-05-01T08:53:43Z</time></trkpt><trkpt lat="47.56917803644551" lon="10.744916821119803"><ele>799.0</ele><time>2026-05-01T08:53:44Z</time></trkpt><trkpt lat="47.569355803265545" lon="10.744997902319618"><ele>797.6666666666666</ele><time>2026-05-01T08:53:45Z</time></trkpt><trkpt lat="47.569532960806136" lon="10.745076428202037"><ele>796.3333333333333</ele><time>2026-05-01T08:53:46Z</time></trkpt><trkpt lat="47.56970829654087" lon="10.74515158216634"><ele>795.0</ele><time>2026-05-01T08:53:47Z</time></trkpt><trkpt lat="47.569883716189906" lon="10.745226163456126"><ele>795.0</ele><time>2026-05-01T08:53:48Z</time></trkpt><trkpt lat="47.57005996250363" lon="10.745302521907336"><ele>795.0</ele><time>2026-05-01T08:53:49Z</time></trkpt><trkpt lat="47.57023708956134" lon="10.745380435754093"><ele>795.0</ele><time>2026-05-01T08:53:50Z</time></trkpt><trkpt lat="47.570415176769956" lon="10.745459562923424"><ele>795.0</ele><time>2026-05-01T08:53:51Z</time></trkpt><trkpt lat="47.57059369375284" lon="10.745537249284041"><ele>795.0</ele><time>2026-05-01T08:53:52Z</time></trkpt><trkpt lat="47.570771403518904" lon="10.745614839753204"><ele>795.0</ele><time>2026-05-01T08:53:53Z</time></trkpt><trkpt lat="47.57094839376666" lon="10.745691082708182"><ele>795.0</ele><time>2026-05-01T08:53:54Z</time></trkpt><trkpt lat="47.57112602673905" lon="10.745768083160407"><ele>795.0</ele><time>2026-05-01T08:53:55Z</time></trkpt><trkpt lat="47.57130536903943" lon="10.745845982495556"><ele>795.0</ele><time>2026-05-01T08:53:56Z</time></trkpt><trkpt lat="47.57148244024444" lon="10.745922585322468"><ele>794.6666666666667</ele><time>2026-05-01T08:53:57Z</time></trkpt><trkpt lat="47.57166074875528" lon="10.745996651633941"><ele>794.3333333333334</ele><time>2026-05-01T08:53:58Z</time></trkpt><trkpt lat="47.57183830270087" lon="10.746069784971084"><ele>794.0</ele><time>2026-05-01T08:53:59Z</time></trkpt><trkpt lat="47.572016266392716" lon="10.746142325751356"><ele>793.3333333333334</ele><time>2026-05-01T08:54:00Z</time></trkpt><trkpt lat="47.57219069682723" lon="10.746216572278533"><ele>792.6666666666667</ele><time>2026-05-01T08:54:01Z</time></trkpt><trkpt lat="47.57236689667696" lon="10.746292293040828"><ele>792.0</ele><time>2026-05-01T08:54:02Z</time></trkpt><trkpt lat="47.57253895543858" lon="10.746366391972668"><ele>792.0</ele><time>2026-05-01T08:54:03Z</time></trkpt><trkpt lat="47.572710232344726" lon="10.746439762929786"><ele>792.0</ele><time>2026-05-01T08:54:04Z</time></trkpt><trkpt lat="47.57288160745482" lon="10.74651060151234"><ele>792.0</ele><time>2026-05-01T08:54:05Z</time></trkpt><trkpt lat="47.57305326296557" lon="10.746582910811185"><ele>790.3333333333333</ele><time>2026-05-01T08:54:06.001Z</time></trkpt><trkpt lat="47.573223743579696" lon="10.74665142076865"><ele>788.6666666666666</ele><time>2026-05-01T08:54:07.001Z</time></trkpt><trkpt lat="47.573391317300306" lon="10.746718531934444"><ele>787.0</ele><time>2026-05-01T08:54:08.001Z</time></trkpt><trkpt lat="47.573558628669474" lon="10.746786101888162"><ele>787.3333333333333</ele><time>2026-05-01T08:54:09.001Z</time></trkpt><trkpt lat="47.57372657409947" lon="10.746853198506942"><ele>787.6666666666667</ele><time>2026-05-01T08:54:10.001Z</time></trkpt><trkpt lat="47.5738935030864" lon="10.746918221980597"><ele>788.0</ele><time>2026-05-01T08:54:11.001Z</time></trkpt><trkpt lat="47.57405975453173" lon="10.746985871450972"><ele>788.3333333333334</ele><time>2026-05-01T08:54:12.001Z</time></trkpt><trkpt lat="47.574219330740654" lon="10.7470513299408"><ele>788.6666666666667</ele><time>2026-05-01T08:54:13.001Z</time></trkpt><trkpt lat="47.57437359555626" lon="10.747112340068028"><ele>789.0</ele><time>2026-05-01T08:54:14.001Z</time></trkpt><trkpt lat="47.574517419481126" lon="10.747168250845522"><ele>789.25</ele><time>2026-05-01T08:54:15.001Z</time></trkpt><trkpt lat="47.57465680654646" lon="10.747221147558477"><ele>789.5</ele><time>2026-05-01T08:54:16.001Z</time></trkpt><trkpt lat="47.574786301511814" lon="10.747267446755657"><ele>789.75</ele><time>2026-05-01T08:54:17.001Z</time></trkpt><trkpt lat="47.5749120149119" lon="10.747310527205329"><ele>790.0</ele><time>2026-05-01T08:54:18.001Z</time></trkpt><trkpt lat="47.57503481491798" lon="10.747351336181932"><ele>790.0</ele><time>2026-05-01T08:54:19.001Z</time></trkpt><trkpt lat="47.57515481379037" lon="10.747390127195178"><ele>790.0</ele><time>2026-05-01T08:54:20.001Z</time></trkpt><trkpt lat="47.57527181164835" lon="10.747426880020182"><ele>790.0</ele><time>2026-05-01T08:54:21.001Z</time></trkpt><trkpt lat="47.57538737244697" lon="10.747459659257721"><ele>790.0</ele><time>2026-05-01T08:54:22.001Z</time></trkpt><trkpt lat="47.57549835063241" lon="10.747489918427334"><ele>789.8</ele><time>2026-05-01T08:54:23.001Z</time></trkpt><trkpt lat="47.575606424800036" lon="10.747520233885755"><ele>789.6</ele><time>2026-05-01T08:54:24.001Z</time></trkpt><trkpt lat="47.57571151172507" lon="10.747550383381206"><ele>789.4000000000001</ele><time>2026-05-01T08:54:25.001Z</time></trkpt><trkpt lat="47.575818167215864" lon="10.74758086145598"><ele>789.2</ele><time>2026-05-01T08:54:26.001Z</time></trkpt><trkpt lat="47.57592550519806" lon="10.747610112665862"><ele>789.0</ele><time>2026-05-01T08:54:27.001Z</time></trkpt><trkpt lat="47.57603318890012" lon="10.747637487547076"><ele>789.0</ele><time>2026-05-01T08:54:28.001Z</time></trkpt><trkpt lat="47.576139392385734" lon="10.747668144315835"><ele>789.0</ele><time>2026-05-01T08:54:29.001Z</time></trkpt><trkpt lat="47.57624577325989" lon="10.747709900572954"><ele>789.0</ele><time>2026-05-01T08:54:30.001Z</time></trkpt><trkpt lat="47.576349891419746" lon="10.747771002619688"><ele>789.0</ele><time>2026-05-01T08:54:31.001Z</time></trkpt><trkpt lat="47.5764524844659" lon="10.747843713086576"><ele>789.0</ele><time>2026-05-01T08:54:32.001Z</time></trkpt><trkpt lat="47.57655370422628" lon="10.74792058097025"><ele>789.2</ele><time>2026-05-01T08:54:33.001Z</time></trkpt><trkpt lat="47.57665460277621" lon="10.747996107259345"><ele>789.4000000000001</ele><time>2026-05-01T08:54:34.001Z</time></trkpt><trkpt lat="47.57675453717456" lon="10.748072720799824"><ele>789.6</ele><time>2026-05-01T08:54:35.001Z</time></trkpt><trkpt lat="47.576853787124485" lon="10.748150104598025"><ele>789.8</ele><time>2026-05-01T08:54:36.001Z</time></trkpt><trkpt lat="47.57695190108317" lon="10.748225396947088"><ele>790.0</ele><time>2026-05-01T08:54:37.001Z</time></trkpt><trkpt lat="47.57704777910352" lon="10.748299441233794"><ele>789.25</ele><time>2026-05-01T08:54:38.001Z</time></trkpt><trkpt lat="47.57714449999822" lon="10.748375484229248"><ele>788.5</ele><time>2026-05-01T08:54:39.001Z</time></trkpt><trkpt lat="47.57724480894202" lon="10.74845489219321"><ele>787.75</ele><time>2026-05-01T08:54:40.001Z</time></trkpt><trkpt lat="47.57734899801059" lon="10.748538075091021"><ele>787.0</ele><time>2026-05-01T08:54:41.001Z</time></trkpt><trkpt lat="47.57745816667835" lon="10.748627567624897"><ele>787.0</ele><time>2026-05-01T08:54:42.001Z</time></trkpt><trkpt lat="47.57757159914814" lon="10.748719185147431"><ele>787.0</ele><time>2026-05-01T08:54:43.001Z</time></trkpt><trkpt lat="47.5776885182781" lon="10.748811463715771"><ele>787.0</ele><time>2026-05-01T08:54:44.001Z</time></trkpt><trkpt lat="47.577809029162246" lon="10.748907665667872"><ele>787.0</ele><time>2026-05-01T08:54:45.001Z</time></trkpt><trkpt lat="47.57793361074659" lon="10.749006281765775"><ele>787.0</ele><time>2026-05-01T08:54:46.001Z</time></trkpt><trkpt lat="47.57805705887492" lon="10.749103365106446"><ele>787.0</ele><time>2026-05-01T08:54:47.001Z</time></trkpt><trkpt lat="47.57818105516297" lon="10.749198766145547"><ele>787.0</ele><time>2026-05-01T08:54:48.001Z</time></trkpt><trkpt lat="47.57830509235278" lon="10.749295120512466"><ele>787.0</ele><time>2026-05-01T08:54:49.001Z</time></trkpt><trkpt lat="47.578427388669205" lon="10.74939212016238"><ele>787.0</ele><time>2026-05-01T08:54:50.001Z</time></trkpt><trkpt lat="47.578546326664494" lon="10.749487137110211"><ele>787.0</ele><time>2026-05-01T08:54:51.001Z</time></trkpt><trkpt lat="47.57865820879568" lon="10.749575427932182"><ele>787.0</ele><time>2026-05-01T08:54:52.001Z</time></trkpt><trkpt lat="47.57877531551858" lon="10.749667682966324"><ele>787.0</ele><time>2026-05-01T08:54:53.001Z</time></trkpt><trkpt lat="47.57889481629039" lon="10.749759684229574"><ele>787.0</ele><time>2026-05-01T08:54:54.001Z</time></trkpt><trkpt lat="47.57901556661048" lon="10.749855963577549"><ele>787.0</ele><time>2026-05-01T08:54:55.001Z</time></trkpt><trkpt lat="47.57913661665208" lon="10.74995267607209"><ele>787.0</ele><time>2026-05-01T08:54:56.001Z</time></trkpt><trkpt lat="47.57925595736327" lon="10.750048918463357"><ele>787.0</ele><time>2026-05-01T08:54:57.001Z</time></trkpt><trkpt lat="47.57937263199436" lon="10.750145348968482"><ele>786.75</ele><time>2026-05-01T08:54:58.001Z</time></trkpt><trkpt lat="47.57948515698224" lon="10.750237900839053"><ele>786.5</ele><time>2026-05-01T08:54:59.001Z</time></trkpt><trkpt lat="47.57959504174455" lon="10.750326319801284"><ele>786.25</ele><time>2026-05-01T08:55:00.001Z</time></trkpt><trkpt lat="47.57970448386776" lon="10.750412830624606"><ele>786.0</ele><time>2026-05-01T08:55:01.001Z</time></trkpt><trkpt lat="47.57981449140088" lon="10.750502425527248"><ele>786.0</ele><time>2026-05-01T08:55:02.001Z</time></trkpt><trkpt lat="47.57992435764163" lon="10.750593002354714"><ele>786.0</ele><time>2026-05-01T08:55:03.001Z</time></trkpt><trkpt lat="47.5800321171481" lon="10.750685159343698"><ele>786.0</ele><time>2026-05-01T08:55:04.001Z</time></trkpt><trkpt lat="47.58013862008397" lon="10.750777685154983"><ele>786.0</ele><time>2026-05-01T08:55:05.001Z</time></trkpt><trkpt lat="47.580248041348305" lon="10.750871227801621"><ele>785.5</ele><time>2026-05-01T08:55:06.001Z</time></trkpt><trkpt lat="47.580360898956556" lon="10.750965398625892"><ele>785.0</ele><time>2026-05-01T08:55:07.001Z</time></trkpt><trkpt lat="47.58047177537411" lon="10.751059140347095"><ele>784.5</ele><time>2026-05-01T08:55:08.001Z</time></trkpt><trkpt lat="47.580582497317245" lon="10.751154025705011"><ele>784.0</ele><time>2026-05-01T08:55:09.001Z</time></trkpt><trkpt lat="47.580692990299525" lon="10.751244638843554"><ele>783.75</ele><time>2026-05-01T08:55:10.001Z</time></trkpt><trkpt lat="47.580803227297096" lon="10.751331554256568"><ele>783.5</ele><time>2026-05-01T08:55:11.001Z</time></trkpt><trkpt lat="47.580910586096564" lon="10.751418503619732"><ele>783.25</ele><time>2026-05-01T08:55:12.001Z</time></trkpt><trkpt lat="47.581011333921055" lon="10.75151080837921"><ele>783.0</ele><time>2026-05-01T08:55:13.001Z</time></trkpt><trkpt lat="47.58110619949632" lon="10.751602146156529"><ele>783.0</ele><time>2026-05-01T08:55:14.001Z</time></trkpt><trkpt lat="47.5811993618041" lon="10.751686205789772"><ele>783.0</ele><time>2026-05-01T08:55:15.001Z</time></trkpt><trkpt lat="47.581289166503275" lon="10.751766521398892"><ele>783.0</ele><time>2026-05-01T08:55:16.001Z</time></trkpt><trkpt lat="47.58137464427852" lon="10.75184309105334"><ele>783.0</ele><time>2026-05-01T08:55:17.001Z</time></trkpt><trkpt lat="47.58146063498879" lon="10.75192172762797"><ele>783.0</ele><time>2026-05-01T08:55:18.001Z</time></trkpt><trkpt lat="47.5815449918589" lon="10.751995625996845"><ele>783.0</ele><time>2026-05-01T08:55:19.001Z</time></trkpt><trkpt lat="47.58162186515671" lon="10.752062375236127"><ele>783.0</ele><time>2026-05-01T08:55:20.001Z</time></trkpt><trkpt lat="47.58169537861126" lon="10.752111669707123"><ele>783.0</ele><time>2026-05-01T08:55:21.001Z</time></trkpt><trkpt lat="47.58177120215637" lon="10.752137523333793"><ele>783.0</ele><time>2026-05-01T08:55:22.001Z</time></trkpt><trkpt lat="47.581839752357304" lon="10.752149540995228"><ele>783.0</ele><time>2026-05-01T08:55:23.001Z</time></trkpt><trkpt lat="47.581936735272485" lon="10.75217784525876"><ele>783.0</ele><time>2026-05-01T08:55:25.001Z</time></trkpt><trkpt lat="47.5820036827243" lon="10.752227490079452"><ele>783.2</ele><time>2026-05-01T08:55:28.001Z</time></trkpt><trkpt lat="47.58207703714467" lon="10.752353331300155"><ele>783.4</ele><time>2026-05-01T08:55:33Z</time></trkpt><trkpt lat="47.58211192506368" lon="10.75246403938727"><ele>783.6</ele><time>2026-05-01T08:55:34Z</time></trkpt><trkpt lat="47.582150819433174" lon="10.752593043952038"><ele>783.8000000000001</ele><time>2026-05-01T08:55:35Z</time></trkpt><trkpt lat="47.58219052272816" lon="10.752719367715033"><ele>784.0</ele><time>2026-05-01T08:55:36Z</time></trkpt><trkpt lat="47.58223529546568" lon="10.752860945384443"><ele>784.0</ele><time>2026-05-01T08:55:37Z</time></trkpt><trkpt lat="47.58228258704812" lon="10.753013904116957"><ele>784.0</ele><time>2026-05-01T08:55:38Z</time></trkpt><trkpt lat="47.58233410875384" lon="10.753180687498869"><ele>784.0</ele><time>2026-05-01T08:55:39Z</time></trkpt><trkpt lat="47.582390747460906" lon="10.753360342844"><ele>784.0</ele><time>2026-05-01T08:55:40Z</time></trkpt><trkpt lat="47.58244782453432" lon="10.753537771951908"><ele>783.75</ele><time>2026-05-01T08:55:41Z</time></trkpt><trkpt lat="47.58250833353296" lon="10.753724990877233"><ele>783.5</ele><time>2026-05-01T08:55:42Z</time></trkpt><trkpt lat="47.582573117937095" lon="10.75391973329816"><ele>783.25</ele><time>2026-05-01T08:55:43Z</time></trkpt><trkpt lat="47.58263982101823" lon="10.754118925271746"><ele>783.0</ele><time>2026-05-01T08:55:44Z</time></trkpt><trkpt lat="47.58271044565849" lon="10.754327519090003"><ele>783.3333333333333</ele><time>2026-05-01T08:55:45Z</time></trkpt><trkpt lat="47.58278098641845" lon="10.754534082208878"><ele>783.6666666666666</ele><time>2026-05-01T08:55:46Z</time></trkpt><trkpt lat="47.5828514347016" lon="10.754737216811035"><ele>784.0</ele><time>2026-05-01T08:55:47Z</time></trkpt><trkpt lat="47.58292273729352" lon="10.754943924897239"><ele>784.6666666666666</ele><time>2026-05-01T08:55:48Z</time></trkpt><trkpt lat="47.58299761405073" lon="10.755157184299025"><ele>785.3333333333333</ele><time>2026-05-01T08:55:49Z</time></trkpt><trkpt lat="47.58307205571806" lon="10.755369415190703"><ele>786.0</ele><time>2026-05-01T08:55:50Z</time></trkpt><trkpt lat="47.58314642628897" lon="10.755585861227209"><ele>786.3333333333333</ele><time>2026-05-01T08:55:51Z</time></trkpt><trkpt lat="47.58322067129155" lon="10.755802793219098"><ele>786.6666666666666</ele><time>2026-05-01T08:55:52Z</time></trkpt><trkpt lat="47.58329776152387" lon="10.756024727657467"><ele>787.0</ele><time>2026-05-01T08:55:53Z</time></trkpt><trkpt lat="47.58337291774296" lon="10.756247842481221"><ele>787.6666666666666</ele><time>2026-05-01T08:55:54Z</time></trkpt><trkpt lat="47.583449413153204" lon="10.756469946752707"><ele>788.3333333333333</ele><time>2026-05-01T08:55:55Z</time></trkpt><trkpt lat="47.58352614052252" lon="10.756693019352364"><ele>789.0</ele><time>2026-05-01T08:55:56Z</time></trkpt><trkpt lat="47.583602808267855" lon="10.756917709971297"><ele>789.3333333333333</ele><time>2026-05-01T08:55:57Z</time></trkpt><trkpt lat="47.58367829617605" lon="10.75714033094281"><ele>789.6666666666666</ele><time>2026-05-01T08:55:58Z</time></trkpt><trkpt lat="47.58375346650769" lon="10.757365635784582"><ele>790.0</ele><time>2026-05-01T08:55:59Z</time></trkpt><trkpt lat="47.583827652424" lon="10.757585594013062"><ele>788.6666666666666</ele><time>2026-05-01T08:56:00Z</time></trkpt><trkpt lat="47.58390230724821" lon="10.757807547166042"><ele>787.3333333333333</ele><time>2026-05-01T08:56:01Z</time></trkpt><trkpt lat="47.583978402366476" lon="10.75802985273171"><ele>786.0</ele><time>2026-05-01T08:56:02Z</time></trkpt><trkpt lat="47.58405464830852" lon="10.758252794933655"><ele>786.0</ele><time>2026-05-01T08:56:03Z</time></trkpt><trkpt lat="47.584130196130374" lon="10.758473510423963"><ele>786.0</ele><time>2026-05-01T08:56:04Z</time></trkpt><trkpt lat="47.584206671667076" lon="10.758695095806715"><ele>786.0</ele><time>2026-05-01T08:56:05Z</time></trkpt><trkpt lat="47.584282921879925" lon="10.75891977461362"><ele>786.6666666666667</ele><time>2026-05-01T08:56:06Z</time></trkpt><trkpt lat="47.58435909217566" lon="10.75914616342972"><ele>787.3333333333334</ele><time>2026-05-01T08:56:07Z</time></trkpt><trkpt lat="47.584435003666236" lon="10.759372244103876"><ele>788.0</ele><time>2026-05-01T08:56:08Z</time></trkpt><trkpt lat="47.58451137949332" lon="10.759602119307807"><ele>788.3333333333334</ele><time>2026-05-01T08:56:09Z</time></trkpt><trkpt lat="47.58458859163802" lon="10.759832029740904"><ele>788.6666666666667</ele><time>2026-05-01T08:56:10Z</time></trkpt><trkpt lat="47.58466616541298" lon="10.760063325813004"><ele>789.0</ele><time>2026-05-01T08:56:11Z</time></trkpt><trkpt lat="47.58474460112694" lon="10.760299525636833"><ele>789.0</ele><time>2026-05-01T08:56:12Z</time></trkpt><trkpt lat="47.58482145124902" lon="10.760530512484733"><ele>789.0</ele><time>2026-05-01T08:56:13Z</time></trkpt><trkpt lat="47.58489689693154" lon="10.760757179903594"><ele>789.0</ele><time>2026-05-01T08:56:14Z</time></trkpt><trkpt lat="47.58497560599811" lon="10.760993711412002"><ele>789.3333333333333</ele><time>2026-05-01T08:56:15.001Z</time></trkpt><trkpt lat="47.585058329718535" lon="10.761233961438268"><ele>789.6666666666666</ele><time>2026-05-01T08:56:16.001Z</time></trkpt><trkpt lat="47.58514296197668" lon="10.761474123009284"><ele>790.0</ele><time>2026-05-01T08:56:17.001Z</time></trkpt><trkpt lat="47.58522999808575" lon="10.761713753715359"><ele>790.3333333333333</ele><time>2026-05-01T08:56:18.001Z</time></trkpt><trkpt lat="47.58531921795272" lon="10.76195108740449"><ele>790.6666666666667</ele><time>2026-05-01T08:56:19.001Z</time></trkpt><trkpt lat="47.58541113089139" lon="10.762183784091222"><ele>791.0</ele><time>2026-05-01T08:56:20.001Z</time></trkpt><trkpt lat="47.58550558149223" lon="10.76241182692958"><ele>791.0</ele><time>2026-05-01T08:56:21.001Z</time></trkpt><trkpt lat="47.58560297513736" lon="10.76262903926148"><ele>791.0</ele><time>2026-05-01T08:56:22.001Z</time></trkpt><trkpt lat="47.58570200802918" lon="10.762835430831116"><ele>791.0</ele><time>2026-05-01T08:56:23.001Z</time></trkpt><trkpt lat="47.58580503989652" lon="10.763039303561278"><ele>791.0</ele><time>2026-05-01T08:56:24.001Z</time></trkpt><trkpt lat="47.58591359556109" lon="10.763240445359383"><ele>791.0</ele><time>2026-05-01T08:56:25.001Z</time></trkpt><trkpt lat="47.586026419425565" lon="10.763440725561257"><ele>791.0</ele><time>2026-05-01T08:56:26.001Z</time></trkpt><trkpt lat="47.58614324997171" lon="10.763637699803912"><ele>791.3333333333334</ele><time>2026-05-01T08:56:27.001Z</time></trkpt><trkpt lat="47.58626337234908" lon="10.763831570314577"><ele>791.6666666666667</ele><time>2026-05-01T08:56:28.001Z</time></trkpt><trkpt lat="47.586388674671994" lon="10.764022471996553"><ele>792.0</ele><time>2026-05-01T08:56:29.001Z</time></trkpt><trkpt lat="47.58651798823114" lon="10.764209557372778"><ele>792.3333333333333</ele><time>2026-05-01T08:56:30.001Z</time></trkpt><trkpt lat="47.58665199265775" lon="10.764391375156778"><ele>792.6666666666666</ele><time>2026-05-01T08:56:31.001Z</time></trkpt><trkpt lat="47.58678994379092" lon="10.764568896178742"><ele>793.0</ele><time>2026-05-01T08:56:32.001Z</time></trkpt><trkpt lat="47.586932796140836" lon="10.76474029286491"><ele>793.3333333333333</ele><time>2026-05-01T08:56:33.001Z</time></trkpt><trkpt lat="47.58708054554035" lon="10.764907838297171"><ele>793.6666666666667</ele><time>2026-05-01T08:56:34.001Z</time></trkpt><trkpt lat="47.58723022728734" lon="10.765069572318847"><ele>794.0</ele><time>2026-05-01T08:56:35.001Z</time></trkpt><trkpt lat="47.58738375943598" lon="10.765224660341287"><ele>794.0</ele><time>2026-05-01T08:56:36.001Z</time></trkpt><trkpt lat="47.587539373124955" lon="10.765373551635072"><ele>794.0</ele><time>2026-05-01T08:56:37.001Z</time></trkpt><trkpt lat="47.58769675685986" lon="10.765522292195504"><ele>794.0</ele><time>2026-05-01T08:56:38.001Z</time></trkpt><trkpt lat="47.58785223468447" lon="10.765671426975485"><ele>793.6666666666667</ele><time>2026-05-01T08:56:39.001Z</time></trkpt><trkpt lat="47.588006787402016" lon="10.765819919068907"><ele>793.3333333333333</ele><time>2026-05-01T08:56:40.001Z</time></trkpt><trkpt lat="47.58816260646048" lon="10.765966439659085"><ele>793.0</ele><time>2026-05-01T08:56:41.001Z</time></trkpt><trkpt lat="47.58831670619412" lon="10.766111750748395"><ele>793.0</ele><time>2026-05-01T08:56:42.001Z</time></trkpt><trkpt lat="47.588468730118585" lon="10.766256338995198"><ele>793.0</ele><time>2026-05-01T08:56:43.001Z</time></trkpt><trkpt lat="47.58861387357703" lon="10.766399147543618"><ele>793.0</ele><time>2026-05-01T08:56:44.001Z</time></trkpt><trkpt lat="47.58875227273465" lon="10.766540884472798"><ele>793.0</ele><time>2026-05-01T08:56:45.001Z</time></trkpt><trkpt lat="47.58888466484345" lon="10.766686951390374"><ele>793.0</ele><time>2026-05-01T08:56:46.001Z</time></trkpt><trkpt lat="47.589014810395085" lon="10.766838358544637"><ele>793.0</ele><time>2026-05-01T08:56:47.001Z</time></trkpt><trkpt lat="47.58914498108257" lon="10.766996632418271"><ele>793.0</ele><time>2026-05-01T08:56:48.001Z</time></trkpt><trkpt lat="47.58927318379103" lon="10.767154917935665"><ele>793.0</ele><time>2026-05-01T08:56:49.001Z</time></trkpt><trkpt lat="47.58939552007243" lon="10.767318755251948"><ele>793.0</ele><time>2026-05-01T08:56:50.001Z</time></trkpt><trkpt lat="47.58951380957577" lon="10.76748519159023"><ele>792.6666666666666</ele><time>2026-05-01T08:56:51.001Z</time></trkpt><trkpt lat="47.589628615113135" lon="10.7676574984415"><ele>792.3333333333333</ele><time>2026-05-01T08:56:52.001Z</time></trkpt><trkpt lat="47.58973869524075" lon="10.767834289913525"><ele>792.0</ele><time>2026-05-01T08:56:53.001Z</time></trkpt><trkpt lat="47.589842906901204" lon="10.768014748358981"><ele>792.0</ele><time>2026-05-01T08:56:54.001Z</time></trkpt><trkpt lat="47.589944750650886" lon="10.768202527157026"><ele>792.0</ele><time>2026-05-01T08:56:55.001Z</time></trkpt><trkpt lat="47.5900415119151" lon="10.768392869456537"><ele>792.0</ele><time>2026-05-01T08:56:56.001Z</time></trkpt><trkpt lat="47.59013279141719" lon="10.768586513497922"><ele>792.0</ele><time>2026-05-01T08:56:57.001Z</time></trkpt><trkpt lat="47.59022156621542" lon="10.768781964316467"><ele>792.0</ele><time>2026-05-01T08:56:58.001Z</time></trkpt><trkpt lat="47.590306772209225" lon="10.768978934716909"><ele>792.0</ele><time>2026-05-01T08:56:59.001Z</time></trkpt><trkpt lat="47.59038785102928" lon="10.769177253453444"><ele>793.0</ele><time>2026-05-01T08:57:00.001Z</time></trkpt><trkpt lat="47.59046763246498" lon="10.76937663995072"><ele>794.0</ele><time>2026-05-01T08:57:01.001Z</time></trkpt><trkpt lat="47.590547223591585" lon="10.76957963288179"><ele>795.0</ele><time>2026-05-01T08:57:02.001Z</time></trkpt><trkpt lat="47.59062575149855" lon="10.76978673923765"><ele>795.0</ele><time>2026-05-01T08:57:03.001Z</time></trkpt><trkpt lat="47.59070183454759" lon="10.76999239170248"><ele>795.0</ele><time>2026-05-01T08:57:04.001Z</time></trkpt><trkpt lat="47.590774455144135" lon="10.770195841437555"><ele>795.0</ele><time>2026-05-01T08:57:05.001Z</time></trkpt><trkpt lat="47.590846471151266" lon="10.770398755628667"><ele>795.6666666666667</ele><time>2026-05-01T08:57:06.001Z</time></trkpt><trkpt lat="47.590915924840665" lon="10.770598897279577"><ele>796.3333333333334</ele><time>2026-05-01T08:57:07.001Z</time></trkpt><trkpt lat="47.59098253151419" lon="10.770802452523583"><ele>797.0</ele><time>2026-05-01T08:57:08.001Z</time></trkpt><trkpt lat="47.591047708996804" lon="10.771005439308283"><ele>798.0</ele><time>2026-05-01T08:57:09.001Z</time></trkpt><trkpt lat="47.591109275455345" lon="10.771212028680859"><ele>799.0</ele><time>2026-05-01T08:57:10.001Z</time></trkpt><trkpt lat="47.591168412856156" lon="10.771416435796542"><ele>800.0</ele><time>2026-05-01T08:57:11.001Z</time></trkpt><trkpt lat="47.59122457223784" lon="10.771623260219389"><ele>798.25</ele><time>2026-05-01T08:57:12.001Z</time></trkpt><trkpt lat="47.59127784746328" lon="10.771828385874823"><ele>796.5</ele><time>2026-05-01T08:57:13.001Z</time></trkpt><trkpt lat="47.59133278597492" lon="10.772034436074552"><ele>794.75</ele><time>2026-05-01T08:57:14.001Z</time></trkpt><trkpt lat="47.59139066352234" lon="10.772239342443855"><ele>793.0</ele><time>2026-05-01T08:57:15.001Z</time></trkpt><trkpt lat="47.59144810962957" lon="10.772440532123447"><ele>793.0</ele><time>2026-05-01T08:57:16.001Z</time></trkpt><trkpt lat="47.59150280137251" lon="10.772640696753463"><ele>793.0</ele><time>2026-05-01T08:57:17.001Z</time></trkpt><trkpt lat="47.59155739948875" lon="10.772839144014355"><ele>793.0</ele><time>2026-05-01T08:57:18.001Z</time></trkpt><trkpt lat="47.591612792821934" lon="10.773038989580582"><ele>793.0</ele><time>2026-05-01T08:57:19.001Z</time></trkpt><trkpt lat="47.59166834312834" lon="10.773238267886189"><ele>793.6666666666666</ele><time>2026-05-01T08:57:20.001Z</time></trkpt><trkpt lat="47.5917246539475" lon="10.773443940795634"><ele>794.3333333333333</ele><time>2026-05-01T08:57:21.001Z</time></trkpt><trkpt lat="47.59178158018891" lon="10.773657132872339"><ele>795.0</ele><time>2026-05-01T08:57:22.001Z</time></trkpt><trkpt lat="47.5918385962524" lon="10.773876331518547"><ele>796.0</ele><time>2026-05-01T08:57:23.001Z</time></trkpt><trkpt lat="47.591894385074205" lon="10.774099372085447"><ele>797.0</ele><time>2026-05-01T08:57:24.001Z</time></trkpt><trkpt lat="47.59195246475445" lon="10.774330254027483"><ele>798.0</ele><time>2026-05-01T08:57:25.001Z</time></trkpt><trkpt lat="47.59201052256361" lon="10.77456285056803"><ele>798.0</ele><time>2026-05-01T08:57:26.001Z</time></trkpt><trkpt lat="47.5920677736397" lon="10.774799386026315"><ele>798.0</ele><time>2026-05-01T08:57:27.001Z</time></trkpt><trkpt lat="47.59212074655006" lon="10.775039650535653"><ele>798.0</ele><time>2026-05-01T08:57:28.001Z</time></trkpt><trkpt lat="47.5921684657102" lon="10.775272081902198"><ele>798.3333333333333</ele><time>2026-05-01T08:57:29.001Z</time></trkpt><trkpt lat="47.592209877409516" lon="10.775494180773784"><ele>798.6666666666666</ele><time>2026-05-01T08:57:30.001Z</time></trkpt><trkpt lat="47.59225302684098" lon="10.77572406042202"><ele>799.0</ele><time>2026-05-01T08:57:31.001Z</time></trkpt><trkpt lat="47.592296492078" lon="10.775954420014655"><ele>798.6666666666666</ele><time>2026-05-01T08:57:32.001Z</time></trkpt><trkpt lat="47.5923396087969" lon="10.776187898494781"><ele>798.3333333333333</ele><time>2026-05-01T08:57:33.001Z</time></trkpt><trkpt lat="47.59238199660025" lon="10.776422013753857"><ele>798.0</ele><time>2026-05-01T08:57:34.001Z</time></trkpt><trkpt lat="47.59242467980545" lon="10.77665429278436"><ele>797.6666666666667</ele><time>2026-05-01T08:57:35Z</time></trkpt><trkpt lat="47.592466780912524" lon="10.77689022526015"><ele>797.3333333333334</ele><time>2026-05-01T08:57:36Z</time></trkpt><trkpt lat="47.59250623667728" lon="10.77712087422652"><ele>797.0</ele><time>2026-05-01T08:57:37Z</time></trkpt><trkpt lat="47.59254389050877" lon="10.777348193121952"><ele>797.0</ele><time>2026-05-01T08:57:38Z</time></trkpt><trkpt lat="47.59258268985791" lon="10.777571116034798"><ele>797.0</ele><time>2026-05-01T08:57:39Z</time></trkpt><trkpt lat="47.592623508429874" lon="10.777791868186316"><ele>797.0</ele><time>2026-05-01T08:57:40Z</time></trkpt><trkpt lat="47.59266394725199" lon="10.778019849336967"><ele>797.6666666666667</ele><time>2026-05-01T08:57:41Z</time></trkpt><trkpt lat="47.592706169509526" lon="10.778246343669874"><ele>798.3333333333333</ele><time>2026-05-01T08:57:42Z</time></trkpt><trkpt lat="47.59274679966658" lon="10.77847052974034"><ele>799.0</ele><time>2026-05-01T08:57:43Z</time></trkpt><trkpt lat="47.59278970700607" lon="10.77869841719528"><ele>797.3333333333333</ele><time>2026-05-01T08:57:44Z</time></trkpt><trkpt lat="47.59283436844087" lon="10.778929639659111"><ele>795.6666666666667</ele><time>2026-05-01T08:57:45Z</time></trkpt><trkpt lat="47.59287996905636" lon="10.779163285836178"><ele>794.0</ele><time>2026-05-01T08:57:46Z</time></trkpt><trkpt lat="47.592925589832475" lon="10.779397743367833"><ele>791.6666666666667</ele><time>2026-05-01T08:57:47Z</time></trkpt><trkpt lat="47.59297484967897" lon="10.779631887481614"><ele>789.3333333333333</ele><time>2026-05-01T08:57:48Z</time></trkpt><trkpt lat="47.59302924555839" lon="10.77986625066548"><ele>787.0</ele><time>2026-05-01T08:57:49Z</time></trkpt><trkpt lat="47.59308908002368" lon="10.780102355375341"><ele>787.6666666666666</ele><time>2026-05-01T08:57:50Z</time></trkpt><trkpt lat="47.59315766172843" lon="10.780337339383836"><ele>788.3333333333333</ele><time>2026-05-01T08:57:51Z</time></trkpt><trkpt lat="47.593230167293925" lon="10.780566441776326"><ele>789.0</ele><time>2026-05-01T08:57:52Z</time></trkpt><trkpt lat="47.59330979146178" lon="10.780796040988132"><ele>790.0</ele><time>2026-05-01T08:57:53Z</time></trkpt><trkpt lat="47.593395384429904" lon="10.781018118623116"><ele>791.0</ele><time>2026-05-01T08:57:54Z</time></trkpt><trkpt lat="47.59348630785987" lon="10.781234716963281"><ele>792.0</ele><time>2026-05-01T08:57:55Z</time></trkpt><trkpt lat="47.59358235466008" lon="10.781443012795124"><ele>793.0</ele><time>2026-05-01T08:57:56Z</time></trkpt><trkpt lat="47.59368522422063" lon="10.781647219988297"><ele>794.0</ele><time>2026-05-01T08:57:57Z</time></trkpt><trkpt lat="47.59379221395976" lon="10.781837100797672"><ele>795.0</ele><time>2026-05-01T08:57:58Z</time></trkpt><trkpt lat="47.59390676656685" lon="10.782022756400446"><ele>795.0</ele><time>2026-05-01T08:57:59Z</time></trkpt><trkpt lat="47.59402663934551" lon="10.782199247598037"><ele>795.0</ele><time>2026-05-01T08:58:00Z</time></trkpt><trkpt lat="47.594152072101075" lon="10.782366442689579"><ele>795.0</ele><time>2026-05-01T08:58:01Z</time></trkpt><trkpt lat="47.594282444570524" lon="10.782525153923565"><ele>795.0</ele><time>2026-05-01T08:58:02Z</time></trkpt><trkpt lat="47.59441548541038" lon="10.782672588298821"><ele>795.0</ele><time>2026-05-01T08:58:03Z</time></trkpt><trkpt lat="47.594543013200465" lon="10.782805357872519"><ele>795.0</ele><time>2026-05-01T08:58:04Z</time></trkpt><trkpt lat="47.594670306718804" lon="10.782935325122432"><ele>794.6666666666667</ele><time>2026-05-01T08:58:05Z</time></trkpt><trkpt lat="47.59480151676726" lon="10.783069011454703"><ele>794.3333333333334</ele><time>2026-05-01T08:58:06Z</time></trkpt><trkpt lat="47.59493283867157" lon="10.783207432020786"><ele>794.0</ele><time>2026-05-01T08:58:07Z</time></trkpt><trkpt lat="47.59506624396958" lon="10.783348452951286"><ele>794.0</ele><time>2026-05-01T08:58:08Z</time></trkpt><trkpt lat="47.59519843059122" lon="10.783495836729635"><ele>794.0</ele><time>2026-05-01T08:58:09Z</time></trkpt><trkpt lat="47.59532244879195" lon="10.783650667650186"><ele>794.0</ele><time>2026-05-01T08:58:10Z</time></trkpt><trkpt lat="47.59543894808195" lon="10.783813746202437"><ele>794.3333333333334</ele><time>2026-05-01T08:58:11Z</time></trkpt><trkpt lat="47.59554955571273" lon="10.783986091586634"><ele>794.6666666666667</ele><time>2026-05-01T08:58:12Z</time></trkpt><trkpt lat="47.59564854926578" lon="10.784171437884995"><ele>795.0</ele><time>2026-05-01T08:58:13Z</time></trkpt><trkpt lat="47.59573817621032" lon="10.784371459451679"><ele>800.0</ele><time>2026-05-01T08:58:14Z</time></trkpt><trkpt lat="47.59582405382075" lon="10.784579852493195"><ele>805.0</ele><time>2026-05-01T08:58:15Z</time></trkpt><trkpt lat="47.595911184534934" lon="10.784788627980692"><ele>810.0</ele><time>2026-05-01T08:58:16Z</time></trkpt><trkpt lat="47.59600503940732" lon="10.784992266137477"><ele>805.6666666666667</ele><time>2026-05-01T08:58:17Z</time></trkpt><trkpt lat="47.596111319889786" lon="10.785179417837034"><ele>801.3333333333334</ele><time>2026-05-01T08:58:18Z</time></trkpt><trkpt lat="47.596234291343585" lon="10.785344513010081"><ele>797.0</ele><time>2026-05-01T08:58:19Z</time></trkpt><trkpt lat="47.59636998927854" lon="10.785484183553521"><ele>797.0</ele><time>2026-05-01T08:58:20Z</time></trkpt><trkpt lat="47.596515670705735" lon="10.785610729046509"><ele>797.0</ele><time>2026-05-01T08:58:21Z</time></trkpt><trkpt lat="47.59666967010618" lon="10.785713939794299"><ele>797.0</ele><time>2026-05-01T08:58:22Z</time></trkpt><trkpt lat="47.596827637301885" lon="10.78579696449157"><ele>797.0</ele><time>2026-05-01T08:58:23Z</time></trkpt><trkpt lat="47.59697703857648" lon="10.785865161966079"><ele>797.0</ele><time>2026-05-01T08:58:24Z</time></trkpt><trkpt lat="47.59711789261961" lon="10.785926342524244"><ele>797.0</ele><time>2026-05-01T08:58:25Z</time></trkpt><trkpt lat="47.59726011492108" lon="10.785994350761353"><ele>798.6666666666667</ele><time>2026-05-01T08:58:26Z</time></trkpt><trkpt lat="47.59739926838135" lon="10.786082578633936"><ele>800.3333333333333</ele><time>2026-05-01T08:58:27Z</time></trkpt><trkpt lat="47.597533164249704" lon="10.78619380149494"><ele>802.0</ele><time>2026-05-01T08:58:28Z</time></trkpt><trkpt lat="47.59766263097878" lon="10.786328223979202"><ele>802.0</ele><time>2026-05-01T08:58:29Z</time></trkpt><trkpt lat="47.59778309621316" lon="10.786483409400748"><ele>802.0</ele><time>2026-05-01T08:58:30Z</time></trkpt><trkpt lat="47.597894941777014" lon="10.786659501129254"><ele>802.0</ele><time>2026-05-01T08:58:31Z</time></trkpt><trkpt lat="47.59799477881089" lon="10.78685170486324"><ele>798.0</ele><time>2026-05-01T08:58:32Z</time></trkpt><trkpt lat="47.5980810216994" lon="10.787058573572331"><ele>794.0</ele><time>2026-05-01T08:58:33Z</time></trkpt><trkpt lat="47.5981533432938" lon="10.787281216443654"><ele>790.0</ele><time>2026-05-01T08:58:34Z</time></trkpt><trkpt lat="47.5982138928107" lon="10.787507972132822"><ele>792.0</ele><time>2026-05-01T08:58:35Z</time></trkpt><trkpt lat="47.59826786124916" lon="10.787732350103543"><ele>794.0</ele><time>2026-05-01T08:58:36Z</time></trkpt><trkpt lat="47.598319571452556" lon="10.78794992271194"><ele>796.0</ele><time>2026-05-01T08:58:37Z</time></trkpt><trkpt lat="47.59837221453552" lon="10.788164018914681"><ele>796.0</ele><time>2026-05-01T08:58:38Z</time></trkpt><trkpt lat="47.59842961983197" lon="10.788375081987333"><ele>796.0</ele><time>2026-05-01T08:58:39.001Z</time></trkpt><trkpt lat="47.59849742529011" lon="10.788579286191492"><ele>796.0</ele><time>2026-05-01T08:58:40.001Z</time></trkpt><trkpt lat="47.59857409692036" lon="10.78878594089502"><ele>797.0</ele><time>2026-05-01T08:58:41.001Z</time></trkpt><trkpt lat="47.59865992843279" lon="10.788991653979263"><ele>798.0</ele><time>2026-05-01T08:58:42.001Z</time></trkpt><trkpt lat="47.59875575556758" lon="10.789195422135283"><ele>799.0</ele><time>2026-05-01T08:58:43.001Z</time></trkpt><trkpt lat="47.5988609001859" lon="10.789386365803809"><ele>799.6666666666666</ele><time>2026-05-01T08:58:44.001Z</time></trkpt><trkpt lat="47.59897451206693" lon="10.78956709311097"><ele>800.3333333333333</ele><time>2026-05-01T08:58:45.001Z</time></trkpt><trkpt lat="47.59909391881371" lon="10.789737692984788"><ele>801.0</ele><time>2026-05-01T08:58:46.001Z</time></trkpt><trkpt lat="47.599218263643245" lon="10.789896836392712"><ele>801.0</ele><time>2026-05-01T08:58:47.001Z</time></trkpt><trkpt lat="47.59934976474863" lon="10.790043279817107"><ele>801.0</ele><time>2026-05-01T08:58:48.001Z</time></trkpt><trkpt lat="47.59948592584486" lon="10.79017330385113"><ele>801.0</ele><time>2026-05-01T08:58:49.001Z</time></trkpt><trkpt lat="47.5996289758636" lon="10.790292590119792"><ele>799.3333333333333</ele><time>2026-05-01T08:58:50.001Z</time></trkpt><trkpt lat="47.59977565809751" lon="10.79039914979524"><ele>797.6666666666666</ele><time>2026-05-01T08:58:51.001Z</time></trkpt><trkpt lat="47.59992851078914" lon="10.790494460704986"><ele>796.0</ele><time>2026-05-01T08:58:52.001Z</time></trkpt><trkpt lat="47.60008576882865" lon="10.790578293834757"><ele>796.0</ele><time>2026-05-01T08:58:53.001Z</time></trkpt><trkpt lat="47.600243640796826" lon="10.790654244802635"><ele>796.0</ele><time>2026-05-01T08:58:54.001Z</time></trkpt><trkpt lat="47.60040097460979" lon="10.790724929710835"><ele>796.0</ele><time>2026-05-01T08:58:55.001Z</time></trkpt><trkpt lat="47.60055256004318" lon="10.79079422835984"><ele>795.6666666666666</ele><time>2026-05-01T08:58:56.001Z</time></trkpt><trkpt lat="47.60070851278145" lon="10.790874873956882"><ele>795.3333333333333</ele><time>2026-05-01T08:58:57.001Z</time></trkpt><trkpt lat="47.60086360994784" lon="10.790971348803305"><ele>795.0</ele><time>2026-05-01T08:58:58.001Z</time></trkpt><trkpt lat="47.60101197892996" lon="10.791083147645875"><ele>795.0</ele><time>2026-05-01T08:58:59.001Z</time></trkpt><trkpt lat="47.60115569040199" lon="10.791209268121898"><ele>795.0</ele><time>2026-05-01T08:59:00.001Z</time></trkpt><trkpt lat="47.60129113284922" lon="10.791349666483073"><ele>795.0</ele><time>2026-05-01T08:59:01.001Z</time></trkpt><trkpt lat="47.601415872451334" lon="10.791502721637778"><ele>795.0</ele><time>2026-05-01T08:59:02.001Z</time></trkpt><trkpt lat="47.60152877382967" lon="10.791666785901"><ele>795.0</ele><time>2026-05-01T08:59:03.001Z</time></trkpt><trkpt lat="47.6016321549137" lon="10.791837046148059"><ele>795.0</ele><time>2026-05-01T08:59:04.001Z</time></trkpt><trkpt lat="47.60172737539871" lon="10.792014594726814"><ele>793.6666666666667</ele><time>2026-05-01T08:59:05.001Z</time></trkpt><trkpt lat="47.60182059151483" lon="10.792198794759134"><ele>792.3333333333334</ele><time>2026-05-01T08:59:06.001Z</time></trkpt><trkpt lat="47.60191353978063" lon="10.792387840912893"><ele>791.0</ele><time>2026-05-01T08:59:07.001Z</time></trkpt><trkpt lat="47.602007332601836" lon="10.792577205494274"><ele>792.0</ele><time>2026-05-01T08:59:08.001Z</time></trkpt><trkpt lat="47.6021069030672" lon="10.792765532696174"><ele>793.0</ele><time>2026-05-01T08:59:09.001Z</time></trkpt><trkpt lat="47.602212168933484" lon="10.79294322137507"><ele>794.0</ele><time>2026-05-01T08:59:10.001Z</time></trkpt><trkpt lat="47.60232384120098" lon="10.793108308536052"><ele>794.0</ele><time>2026-05-01T08:59:11.001Z</time></trkpt><trkpt lat="47.602438906639144" lon="10.793257879973254"><ele>794.0</ele><time>2026-05-01T08:59:12.001Z</time></trkpt><trkpt lat="47.60255929297691" lon="10.793397127277066"><ele>794.0</ele><time>2026-05-01T08:59:13.001Z</time></trkpt><trkpt lat="47.60268551938889" lon="10.793524348629168"><ele>795.0</ele><time>2026-05-01T08:59:14.001Z</time></trkpt><trkpt lat="47.602816481664554" lon="10.793643827938357"><ele>796.0</ele><time>2026-05-01T08:59:15.001Z</time></trkpt><trkpt lat="47.60295054147855" lon="10.793755917712565"><ele>797.0</ele><time>2026-05-01T08:59:16.001Z</time></trkpt><trkpt lat="47.60308516968574" lon="10.793865595559227"><ele>797.0</ele><time>2026-05-01T08:59:17.001Z</time></trkpt><trkpt lat="47.60322134484279" lon="10.79397649036345"><ele>797.0</ele><time>2026-05-01T08:59:18.001Z</time></trkpt><trkpt lat="47.603361180567724" lon="10.794086991694655"><ele>797.0</ele><time>2026-05-01T08:59:19.001Z</time></trkpt><trkpt lat="47.60349900431556" lon="10.794201389602996"><ele>797.0</ele><time>2026-05-01T08:59:20.001Z</time></trkpt><trkpt lat="47.60363450190528" lon="10.794323915425545"><ele>797.0</ele><time>2026-05-01T08:59:21.001Z</time></trkpt><trkpt lat="47.60376640826898" lon="10.79445441312078"><ele>797.0</ele><time>2026-05-01T08:59:22.001Z</time></trkpt><trkpt lat="47.60389606552444" lon="10.7945966159939"><ele>797.6666666666667</ele><time>2026-05-01T08:59:23.001Z</time></trkpt><trkpt lat="47.60402063615612" lon="10.794753389105384"><ele>798.3333333333333</ele><time>2026-05-01T08:59:24.001Z</time></trkpt><trkpt lat="47.60413916680661" lon="10.794919557369496"><ele>799.0</ele><time>2026-05-01T08:59:25.001Z</time></trkpt><trkpt lat="47.60425317637988" lon="10.795096790013199"><ele>799.3333333333333</ele><time>2026-05-01T08:59:26.001Z</time></trkpt><trkpt lat="47.60436111227207" lon="10.79528200594416"><ele>799.6666666666667</ele><time>2026-05-01T08:59:27.001Z</time></trkpt><trkpt lat="47.60446572227282" lon="10.795479625141093"><ele>800.0</ele><time>2026-05-01T08:59:28.001Z</time></trkpt><trkpt lat="47.60456636920541" lon="10.79568574211066"><ele>800.0</ele><time>2026-05-01T08:59:29.001Z</time></trkpt><trkpt lat="47.60466719821506" lon="10.795898612603674"><ele>800.0</ele><time>2026-05-01T08:59:30.001Z</time></trkpt><trkpt lat="47.60477064299527" lon="10.796120667831026"><ele>800.0</ele><time>2026-05-01T08:59:31.001Z</time></trkpt><trkpt lat="47.604880434943766" lon="10.796338560009108"><ele>801.3333333333334</ele><time>2026-05-01T08:59:32.001Z</time></trkpt><trkpt lat="47.60499961741002" lon="10.796559942375788"><ele>802.6666666666667</ele><time>2026-05-01T08:59:33.001Z</time></trkpt><trkpt lat="47.60513218112855" lon="10.796782104758591"><ele>804.0</ele><time>2026-05-01T08:59:34.001Z</time></trkpt><trkpt lat="47.60527384233963" lon="10.7969940704675"><ele>802.6666666666667</ele><time>2026-05-01T08:59:35.001Z</time></trkpt><trkpt lat="47.60542171663698" lon="10.797185766404896"><ele>801.3333333333334</ele><time>2026-05-01T08:59:36.001Z</time></trkpt><trkpt lat="47.605585787032155" lon="10.797374017295384"><ele>800.0</ele><time>2026-05-01T08:59:37.001Z</time></trkpt><trkpt lat="47.60576096906234" lon="10.797551375870734"><ele>800.0</ele><time>2026-05-01T08:59:38.001Z</time></trkpt><trkpt lat="47.605945094667845" lon="10.797719574158132"><ele>800.0</ele><time>2026-05-01T08:59:39.001Z</time></trkpt><trkpt lat="47.60613673181824" lon="10.797872766332935"><ele>800.0</ele><time>2026-05-01T08:59:40.001Z</time></trkpt><trkpt lat="47.606334004639685" lon="10.79800631250332"><ele>800.0</ele><time>2026-05-01T08:59:40.999Z</time></trkpt><trkpt lat="47.60653660852452" lon="10.798122936050031"><ele>800.0</ele><time>2026-05-01T08:59:41.999Z</time></trkpt><trkpt lat="47.60674198090881" lon="10.798225452919619"><ele>800.0</ele><time>2026-05-01T08:59:42.999Z</time></trkpt><trkpt lat="47.60693757016843" lon="10.798314904198294"><ele>799.3333333333334</ele><time>2026-05-01T08:59:43.999Z</time></trkpt><trkpt lat="47.6071283225448" lon="10.798400160974307"><ele>798.6666666666667</ele><time>2026-05-01T08:59:44.999Z</time></trkpt><trkpt lat="47.607322253808185" lon="10.798484517487617"><ele>798.0</ele><time>2026-05-01T08:59:45.999Z</time></trkpt><trkpt lat="47.607516958936294" lon="10.798566384991862"><ele>800.0</ele><time>2026-05-01T08:59:46.999Z</time></trkpt><trkpt lat="47.607710458635026" lon="10.798649942791222"><ele>802.0</ele><time>2026-05-01T08:59:47.999Z</time></trkpt><trkpt lat="47.60790407120646" lon="10.798738419116695"><ele>804.0</ele><time>2026-05-01T08:59:48.999Z</time></trkpt><trkpt lat="47.60809290384141" lon="10.798833578330788"><ele>804.0</ele><time>2026-05-01T08:59:49.999Z</time></trkpt><trkpt lat="47.60827304743244" lon="10.798931740406033"><ele>804.0</ele><time>2026-05-01T08:59:50.999Z</time></trkpt><trkpt lat="47.60844353803876" lon="10.799032585134743"><ele>804.0</ele><time>2026-05-01T08:59:51.999Z</time></trkpt><trkpt lat="47.60861387779865" lon="10.799144648689337"><ele>802.6666666666667</ele><time>2026-05-01T08:59:52.999Z</time></trkpt><trkpt lat="47.60878274743997" lon="10.7992656772739"><ele>801.3333333333334</ele><time>2026-05-01T08:59:53.999Z</time></trkpt><trkpt lat="47.60895088258856" lon="10.799393450082588"><ele>800.0</ele><time>2026-05-01T08:59:54.999Z</time></trkpt><trkpt lat="47.60911793485527" lon="10.79953335930268"><ele>800.0</ele><time>2026-05-01T08:59:55.999Z</time></trkpt><trkpt lat="47.60927586294412" lon="10.799679097947347"><ele>800.0</ele><time>2026-05-01T08:59:56.999Z</time></trkpt><trkpt lat="47.609426445745775" lon="10.799826374572131"><ele>800.0</ele><time>2026-05-01T08:59:57.999Z</time></trkpt><trkpt lat="47.6095679856629" lon="10.799970823300587"><ele>798.3333333333334</ele><time>2026-05-01T08:59:58.999Z</time></trkpt><trkpt lat="47.60971016675601" lon="10.800118240430706"><ele>796.6666666666667</ele><time>2026-05-01T08:59:59.999Z</time></trkpt><trkpt lat="47.609847993498114" lon="10.800260291240633"><ele>795.0</ele><time>2026-05-01T09:00:00.999Z</time></trkpt><trkpt lat="47.60998303423" lon="10.800401471341877"><ele>795.0</ele><time>2026-05-01T09:00:02Z</time></trkpt><trkpt lat="47.61011854002933" lon="10.80054388521265"><ele>795.0</ele><time>2026-05-01T09:00:03Z</time></trkpt><trkpt lat="47.610252932377236" lon="10.800684954787041"><ele>795.0</ele><time>2026-05-01T09:00:04Z</time></trkpt><trkpt lat="47.61038783250321" lon="10.800827951392014"><ele>795.0</ele><time>2026-05-01T09:00:05Z</time></trkpt><trkpt lat="47.61051980969165" lon="10.8009667493282"><ele>795.0</ele><time>2026-05-01T09:00:06Z</time></trkpt><trkpt lat="47.610654056374194" lon="10.801103430077507"><ele>795.0</ele><time>2026-05-01T09:00:07Z</time></trkpt><trkpt lat="47.610785812891024" lon="10.80124343505142"><ele>795.0</ele><time>2026-05-01T09:00:08Z</time></trkpt><trkpt lat="47.61091886158814" lon="10.801384909269931"><ele>795.0</ele><time>2026-05-01T09:00:09Z</time></trkpt><trkpt lat="47.61105128662339" lon="10.801523757621887"><ele>795.0</ele><time>2026-05-01T09:00:10Z</time></trkpt><trkpt lat="47.611184599183794" lon="10.801662740259665"><ele>795.3333333333333</ele><time>2026-05-01T09:00:11Z</time></trkpt><trkpt lat="47.61131393518882" lon="10.801797438272546"><ele>795.6666666666666</ele><time>2026-05-01T09:00:12Z</time></trkpt><trkpt lat="47.61143998248685" lon="10.801929961149524"><ele>796.0</ele><time>2026-05-01T09:00:13Z</time></trkpt><trkpt lat="47.611563401267574" lon="10.802057718327175"><ele>796.0</ele><time>2026-05-01T09:00:14Z</time></trkpt><trkpt lat="47.611686851496295" lon="10.802185769233919"><ele>796.0</ele><time>2026-05-01T09:00:15Z</time></trkpt><trkpt lat="47.61180981494114" lon="10.80231372019933"><ele>796.0</ele><time>2026-05-01T09:00:16Z</time></trkpt><trkpt lat="47.61193211316068" lon="10.802442814283303"><ele>796.0</ele><time>2026-05-01T09:00:17Z</time></trkpt><trkpt lat="47.61205381531617" lon="10.80257209835258"><ele>796.0</ele><time>2026-05-01T09:00:18Z</time></trkpt><trkpt lat="47.61217363898845" lon="10.802698672108562"><ele>796.0</ele><time>2026-05-01T09:00:19Z</time></trkpt><trkpt lat="47.612293715020606" lon="10.802824240208126"><ele>796.0</ele><time>2026-05-01T09:00:20Z</time></trkpt><trkpt lat="47.61241467743024" lon="10.802948048758275"><ele>797.0</ele><time>2026-05-01T09:00:21Z</time></trkpt><trkpt lat="47.61253719387665" lon="10.80307394237181"><ele>798.0</ele><time>2026-05-01T09:00:22Z</time></trkpt><trkpt lat="47.61265570860137" lon="10.803198236369365"><ele>799.0</ele><time>2026-05-01T09:00:23Z</time></trkpt><trkpt lat="47.61277581767756" lon="10.803324472947956"><ele>800.0</ele><time>2026-05-01T09:00:24Z</time></trkpt><trkpt lat="47.61289255209058" lon="10.803450634246973"><ele>800.25</ele><time>2026-05-01T09:00:25Z</time></trkpt><trkpt lat="47.61300113406942" lon="10.8035705719652"><ele>800.5</ele><time>2026-05-01T09:00:26Z</time></trkpt><trkpt lat="47.613101819259896" lon="10.803686201874887"><ele>800.75</ele><time>2026-05-01T09:00:27Z</time></trkpt><trkpt lat="47.61319705511067" lon="10.803798535904239"><ele>801.0</ele><time>2026-05-01T09:00:28Z</time></trkpt><trkpt lat="47.61329371015158" lon="10.803910671676384"><ele>801.0</ele><time>2026-05-01T09:00:29Z</time></trkpt><trkpt lat="47.61339055912988" lon="10.804018226086841"><ele>801.0</ele><time>2026-05-01T09:00:30Z</time></trkpt><trkpt lat="47.61348879661235" lon="10.804126400263684"><ele>801.0</ele><time>2026-05-01T09:00:31Z</time></trkpt><trkpt lat="47.61358737153676" lon="10.804234660424182"><ele>801.0</ele><time>2026-05-01T09:00:32Z</time></trkpt><trkpt lat="47.61368250860106" lon="10.804338267653838"><ele>801.4</ele><time>2026-05-01T09:00:33Z</time></trkpt><trkpt lat="47.61377662020896" lon="10.804435713362583"><ele>801.8</ele><time>2026-05-01T09:00:34Z</time></trkpt><trkpt lat="47.613867902486206" lon="10.804525889889593"><ele>802.1999999999999</ele><time>2026-05-01T09:00:35Z</time></trkpt><trkpt lat="47.613954782802516" lon="10.804610697405217"><ele>802.5999999999999</ele><time>2026-05-01T09:00:36Z</time></trkpt><trkpt lat="47.614043117972095" lon="10.804698215468235"><ele>803.0</ele><time>2026-05-01T09:00:37Z</time></trkpt><trkpt lat="47.61413281886642" lon="10.8047890245738"><ele>803.0</ele><time>2026-05-01T09:00:38Z</time></trkpt><trkpt lat="47.61422355549516" lon="10.80488181058987"><ele>803.0</ele><time>2026-05-01T09:00:39Z</time></trkpt><trkpt lat="47.61431229505267" lon="10.804976499144322"><ele>803.0</ele><time>2026-05-01T09:00:40Z</time></trkpt><trkpt lat="47.61439981042317" lon="10.805074676146777"><ele>803.0</ele><time>2026-05-01T09:00:41Z</time></trkpt><trkpt lat="47.614486857273505" lon="10.805173521266767"><ele>803.0</ele><time>2026-05-01T09:00:42Z</time></trkpt><trkpt lat="47.61457295987535" lon="10.805267541764408"><ele>803.5999999999999</ele><time>2026-05-01T09:00:43Z</time></trkpt><trkpt lat="47.614657290561816" lon="10.805361916985143"><ele>804.1999999999999</ele><time>2026-05-01T09:00:44Z</time></trkpt><trkpt lat="47.61474215515291" lon="10.805452859769172"><ele>804.8</ele><time>2026-05-01T09:00:45Z</time></trkpt><trkpt lat="47.61482301922903" lon="10.805543273244488"><ele>805.4</ele><time>2026-05-01T09:00:46Z</time></trkpt><trkpt lat="47.61489376042479" lon="10.80562166023752"><ele>806.0</ele><time>2026-05-01T09:00:47Z</time></trkpt><trkpt lat="47.61496282746202" lon="10.805699789188825"><ele>806.0000000000001</ele><time>2026-05-01T09:00:48Z</time></trkpt><trkpt lat="47.61503151581349" lon="10.805778754056009"><ele>806.0</ele><time>2026-05-01T09:00:49Z</time></trkpt><trkpt lat="47.61509809202627" lon="10.805859419740662"><ele>806.0</ele><time>2026-05-01T09:00:50Z</time></trkpt><trkpt lat="47.61516472122774" lon="10.805940188575262"><ele>806.0</ele><time>2026-05-01T09:00:51Z</time></trkpt><trkpt lat="47.61523362568233" lon="10.806023023421465"><ele>806.0000000000001</ele><time>2026-05-01T09:00:52Z</time></trkpt><trkpt lat="47.61530336182061" lon="10.80611068416079"><ele>806.0</ele><time>2026-05-01T09:00:53Z</time></trkpt><trkpt lat="47.615374582924304" lon="10.806201783895563"><ele>806.1999999999999</ele><time>2026-05-01T09:00:54Z</time></trkpt><trkpt lat="47.61544697802697" lon="10.806296974675853"><ele>806.4</ele><time>2026-05-01T09:00:55Z</time></trkpt><trkpt lat="47.615521375199116" lon="10.806395634280502"><ele>806.6</ele><time>2026-05-01T09:00:56Z</time></trkpt><trkpt lat="47.615597124590074" lon="10.806487788809275"><ele>806.8</ele><time>2026-05-01T09:00:57Z</time></trkpt><trkpt lat="47.615673294256624" lon="10.806578391296668"><ele>807.0</ele><time>2026-05-01T09:00:58Z</time></trkpt><trkpt lat="47.61575119217173" lon="10.806667456771272"><ele>807.0</ele><time>2026-05-01T09:00:59Z</time></trkpt><trkpt lat="47.61583041627774" lon="10.806756583962938"><ele>807.0</ele><time>2026-05-01T09:01:00Z</time></trkpt><trkpt lat="47.61590694024279" lon="10.806840252929199"><ele>807.0</ele><time>2026-05-01T09:01:01Z</time></trkpt><trkpt lat="47.6159842354" lon="10.80692064477758"><ele>807.0</ele><time>2026-05-01T09:01:02Z</time></trkpt><trkpt lat="47.616059644137096" lon="10.806996429311972"><ele>807.0</ele><time>2026-05-01T09:01:03Z</time></trkpt><trkpt lat="47.61613383295194" lon="10.80706684880514"><ele>807.5</ele><time>2026-05-01T09:01:04Z</time></trkpt><trkpt lat="47.616207205906846" lon="10.807128517307868"><ele>808.0</ele><time>2026-05-01T09:01:05Z</time></trkpt><trkpt lat="47.61628187674369" lon="10.807183317546013"><ele>808.5</ele><time>2026-05-01T09:01:06Z</time></trkpt><trkpt lat="47.61635679813428" lon="10.807229698572593"><ele>809.0</ele><time>2026-05-01T09:01:07Z</time></trkpt><trkpt lat="47.6164318092774" lon="10.80727393842834"><ele>809.5</ele><time>2026-05-01T09:01:08.001Z</time></trkpt><trkpt lat="47.61650992512859" lon="10.80731596571531"><ele>810.0</ele><time>2026-05-01T09:01:09.001Z</time></trkpt><trkpt lat="47.61658657837222" lon="10.807362992245126"><ele>810.0</ele><time>2026-05-01T09:01:10.001Z</time></trkpt><trkpt lat="47.61667018919915" lon="10.807411473773776"><ele>810.0</ele><time>2026-05-01T09:01:11.001Z</time></trkpt><trkpt lat="47.61675263382464" lon="10.807463066925806"><ele>810.0</ele><time>2026-05-01T09:01:12.001Z</time></trkpt><trkpt lat="47.61683916575394" lon="10.807512590850752"><ele>810.0</ele><time>2026-05-01T09:01:13.001Z</time></trkpt><trkpt lat="47.61692712141597" lon="10.807560732301596"><ele>810.0</ele><time>2026-05-01T09:01:14.001Z</time></trkpt><trkpt lat="47.617014333749154" lon="10.807611490485698"><ele>810.6</ele><time>2026-05-01T09:01:15.001Z</time></trkpt><trkpt lat="47.617103063350534" lon="10.807668457460418"><ele>811.2</ele><time>2026-05-01T09:01:16.001Z</time></trkpt><trkpt lat="47.61719006071491" lon="10.807725994396362"><ele>811.8</ele><time>2026-05-01T09:01:17.001Z</time></trkpt><trkpt lat="47.617276257141675" lon="10.80778623401715"><ele>812.4</ele><time>2026-05-01T09:01:18.001Z</time></trkpt><trkpt lat="47.61736441854991" lon="10.80784112786823"><ele>813.0</ele><time>2026-05-01T09:01:19.001Z</time></trkpt><trkpt lat="47.61745440661151" lon="10.807891755310761"><ele>813.0</ele><time>2026-05-01T09:01:20.001Z</time></trkpt><trkpt lat="47.61754635539737" lon="10.8079387055897"><ele>813.0</ele><time>2026-05-01T09:01:21.001Z</time></trkpt><trkpt lat="47.61763746962294" lon="10.807988813489041"><ele>813.0</ele><time>2026-05-01T09:01:22.001Z</time></trkpt><trkpt lat="47.61772997210324" lon="10.808043972034346"><ele>813.0</ele><time>2026-05-01T09:01:23.001Z</time></trkpt><trkpt lat="47.61782473423225" lon="10.80810286966205"><ele>813.0</ele><time>2026-05-01T09:01:24.001Z</time></trkpt><trkpt lat="47.61792180173526" lon="10.808164125338212"><ele>812.5</ele><time>2026-05-01T09:01:25.001Z</time></trkpt><trkpt lat="47.61802384865721" lon="10.808220574910024"><ele>812.0</ele><time>2026-05-01T09:01:26.001Z</time></trkpt><trkpt lat="47.618131208483646" lon="10.80827993708359"><ele>811.5</ele><time>2026-05-01T09:01:27.001Z</time></trkpt><trkpt lat="47.618242346891485" lon="10.808340163663662"><ele>811.0</ele><time>2026-05-01T09:01:28.001Z</time></trkpt><trkpt lat="47.618354069915625" lon="10.808400391012439"><ele>811.0</ele><time>2026-05-01T09:01:29.001Z</time></trkpt><trkpt lat="47.61846841628265" lon="10.808458838219895"><ele>811.0</ele><time>2026-05-01T09:01:30.001Z</time></trkpt><trkpt lat="47.618587798851784" lon="10.808517210218609"><ele>811.0</ele><time>2026-05-01T09:01:31.001Z</time></trkpt><trkpt lat="47.618710629119846" lon="10.808574406843736"><ele>811.0</ele><time>2026-05-01T09:01:32.001Z</time></trkpt><trkpt lat="47.61883567934054" lon="10.80863204285366"><ele>810.75</ele><time>2026-05-01T09:01:33.001Z</time></trkpt><trkpt lat="47.61896020689444" lon="10.808687074605814"><ele>810.5</ele><time>2026-05-01T09:01:34.001Z</time></trkpt><trkpt lat="47.61908466952814" lon="10.80874308412662"><ele>810.25</ele><time>2026-05-01T09:01:35.001Z</time></trkpt><trkpt lat="47.619209154853564" lon="10.80879688363224"><ele>810.0</ele><time>2026-05-01T09:01:36.001Z</time></trkpt><trkpt lat="47.61933006593629" lon="10.808847856925787"><ele>810.0</ele><time>2026-05-01T09:01:37.001Z</time></trkpt><trkpt lat="47.61945384626512" lon="10.808901862091755"><ele>810.0</ele><time>2026-05-01T09:01:38.001Z</time></trkpt><trkpt lat="47.61957974572279" lon="10.808956705957106"><ele>810.0</ele><time>2026-05-01T09:01:39.001Z</time></trkpt><trkpt lat="47.61970745452545" lon="10.809008327483795"><ele>810.0</ele><time>2026-05-01T09:01:40.001Z</time></trkpt><trkpt lat="47.61983582543229" lon="10.80905979351898"><ele>809.75</ele><time>2026-05-01T09:01:41.001Z</time></trkpt><trkpt lat="47.61996340057235" lon="10.809112757726963"><ele>809.5</ele><time>2026-05-01T09:01:42.001Z</time></trkpt><trkpt lat="47.62009110321838" lon="10.809166037894855"><ele>809.25</ele><time>2026-05-01T09:01:43.001Z</time></trkpt><trkpt lat="47.62021671146381" lon="10.809218872750487"><ele>809.0</ele><time>2026-05-01T09:01:44.001Z</time></trkpt><trkpt lat="47.62034176717376" lon="10.80927453043498"><ele>809.0</ele><time>2026-05-01T09:01:45.001Z</time></trkpt><trkpt lat="47.620461527285606" lon="10.809337687986304"><ele>809.0</ele><time>2026-05-01T09:01:46.001Z</time></trkpt><trkpt lat="47.620574892484406" lon="10.809401071725333"><ele>809.0</ele><time>2026-05-01T09:01:46.999Z</time></trkpt><trkpt lat="47.62067717770924" lon="10.809465103562623"><ele>809.0</ele><time>2026-05-01T09:01:47.999Z</time></trkpt><trkpt lat="47.62077824600267" lon="10.809535563836347"><ele>809.0</ele><time>2026-05-01T09:01:48.999Z</time></trkpt><trkpt lat="47.62087666697101" lon="10.8096155154942"><ele>809.0</ele><time>2026-05-01T09:01:49.999Z</time></trkpt><trkpt lat="47.620972368940635" lon="10.809705934092431"><ele>809.0</ele><time>2026-05-01T09:01:50.999Z</time></trkpt><trkpt lat="47.62106360815812" lon="10.809807496788048"><ele>809.0</ele><time>2026-05-01T09:01:51.999Z</time></trkpt><trkpt lat="47.621154346441934" lon="10.809914295406275"><ele>809.5</ele><time>2026-05-01T09:01:52.999Z</time></trkpt><trkpt lat="47.62125101200371" lon="10.810010357121465"><ele>810.0</ele><time>2026-05-01T09:01:53.999Z</time></trkpt><trkpt lat="47.62135163465896" lon="10.810111884206528"><ele>810.5</ele><time>2026-05-01T09:01:54.999Z</time></trkpt><trkpt lat="47.621447836831706" lon="10.810220780581615"><ele>811.0</ele><time>2026-05-01T09:01:55.999Z</time></trkpt><trkpt lat="47.62154045477378" lon="10.810342586740681"><ele>811.5</ele><time>2026-05-01T09:01:56.999Z</time></trkpt><trkpt lat="47.621631398398605" lon="10.810473765089444"><ele>812.0</ele><time>2026-05-01T09:01:57.999Z</time></trkpt><trkpt lat="47.62172066848481" lon="10.810607944804348"><ele>812.5</ele><time>2026-05-01T09:01:58.999Z</time></trkpt><trkpt lat="47.62181204250954" lon="10.810749445413764"><ele>813.0</ele><time>2026-05-01T09:01:59.999Z</time></trkpt><trkpt lat="47.621904178781946" lon="10.810899223640922"><ele>813.75</ele><time>2026-05-01T09:02:00.999Z</time></trkpt><trkpt lat="47.62199775877073" lon="10.811056214945358"><ele>814.5</ele><time>2026-05-01T09:02:01.999Z</time></trkpt><trkpt lat="47.62209177932438" lon="10.811220719730795"><ele>815.25</ele><time>2026-05-01T09:02:02.999Z</time></trkpt><trkpt lat="47.622186581525995" lon="10.81139369020461"><ele>816.0</ele><time>2026-05-01T09:02:03.999Z</time></trkpt><trkpt lat="47.62228571708638" lon="10.811566351086219"><ele>816.0</ele><time>2026-05-01T09:02:04.999Z</time></trkpt><trkpt lat="47.62239091534919" lon="10.811739539879465"><ele>816.0</ele><time>2026-05-01T09:02:05.999Z</time></trkpt><trkpt lat="47.62250148397542" lon="10.811919706598081"><ele>816.0</ele><time>2026-05-01T09:02:06.999Z</time></trkpt><trkpt lat="47.62261869407321" lon="10.81210428542457"><ele>816.0</ele><time>2026-05-01T09:02:07.999Z</time></trkpt><trkpt lat="47.622739696419046" lon="10.812294852760653"><ele>816.0</ele><time>2026-05-01T09:02:08.999Z</time></trkpt><trkpt lat="47.62285993273676" lon="10.812485550027372"><ele>816.0</ele><time>2026-05-01T09:02:09.999Z</time></trkpt><trkpt lat="47.622973918373354" lon="10.812680345538215"><ele>816.6666666666667</ele><time>2026-05-01T09:02:10.999Z</time></trkpt><trkpt lat="47.62308895217306" lon="10.812885906871655"><ele>817.3333333333334</ele><time>2026-05-01T09:02:11.999Z</time></trkpt><trkpt lat="47.623204793573784" lon="10.813097624672654"><ele>818.0</ele><time>2026-05-01T09:02:12.999Z</time></trkpt><trkpt lat="47.6233226520515" lon="10.813309333171478"><ele>818.6666666666667</ele><time>2026-05-01T09:02:13.999Z</time></trkpt><trkpt lat="47.623443536385345" lon="10.813525610132558"><ele>819.3333333333333</ele><time>2026-05-01T09:02:14.999Z</time></trkpt><trkpt lat="47.62356824030319" lon="10.813745035582746"><ele>820.0</ele><time>2026-05-01T09:02:16Z</time></trkpt><trkpt lat="47.623696670736706" lon="10.813967477920142"><ele>820.0</ele><time>2026-05-01T09:02:17Z</time></trkpt><trkpt lat="47.623820423982465" lon="10.81418461085025"><ele>820.0</ele><time>2026-05-01T09:02:18Z</time></trkpt><trkpt lat="47.62394571157939" lon="10.814407229647317"><ele>820.0</ele><time>2026-05-01T09:02:19Z</time></trkpt><trkpt lat="47.62407429264987" lon="10.814638323065164"><ele>820.6666666666666</ele><time>2026-05-01T09:02:20Z</time></trkpt><trkpt lat="47.62420628992891" lon="10.814877923907952"><ele>821.3333333333333</ele><time>2026-05-01T09:02:21Z</time></trkpt><trkpt lat="47.62433903373075" lon="10.815119838645515"><ele>822.0</ele><time>2026-05-01T09:02:22Z</time></trkpt><trkpt lat="47.62447358034457" lon="10.815363806631488"><ele>821.6666666666667</ele><time>2026-05-01T09:02:23Z</time></trkpt><trkpt lat="47.624610306969515" lon="10.815609537979551"><ele>821.3333333333334</ele><time>2026-05-01T09:02:24Z</time></trkpt><trkpt lat="47.62475212201892" lon="10.815859688881174"><ele>821.0</ele><time>2026-05-01T09:02:25Z</time></trkpt><trkpt lat="47.62488874883928" lon="10.816097829724267"><ele>821.6666666666667</ele><time>2026-05-01T09:02:26Z</time></trkpt><trkpt lat="47.62502669434758" lon="10.816336403739761"><ele>822.3333333333333</ele><time>2026-05-01T09:02:27Z</time></trkpt><trkpt lat="47.62516451990457" lon="10.816580002636396"><ele>823.0</ele><time>2026-05-01T09:02:28Z</time></trkpt><trkpt lat="47.62530408438681" lon="10.816828273457482"><ele>822.6666666666666</ele><time>2026-05-01T09:02:29Z</time></trkpt><trkpt lat="47.6254419687533" lon="10.817077902732787"><ele>822.3333333333333</ele><time>2026-05-01T09:02:30Z</time></trkpt><trkpt lat="47.62558006066754" lon="10.817327144758533"><ele>822.0</ele><time>2026-05-01T09:02:31Z</time></trkpt><trkpt lat="47.625717666128075" lon="10.817575691383874"><ele>822.3333333333333</ele><time>2026-05-01T09:02:32Z</time></trkpt><trkpt lat="47.625854919023304" lon="10.817824507987844"><ele>822.6666666666666</ele><time>2026-05-01T09:02:33Z</time></trkpt><trkpt lat="47.625989829529" lon="10.818070393504598"><ele>823.0</ele><time>2026-05-01T09:02:34Z</time></trkpt><trkpt lat="47.626125838803056" lon="10.818319254827802"><ele>824.0</ele><time>2026-05-01T09:02:35Z</time></trkpt><trkpt lat="47.62625890343569" lon="10.818563857986646"><ele>825.0</ele><time>2026-05-01T09:02:36Z</time></trkpt><trkpt lat="47.62638807282846" lon="10.818797989793604"><ele>826.0</ele><time>2026-05-01T09:02:37Z</time></trkpt><trkpt lat="47.62651394327456" lon="10.819010509026363"><ele>826.0</ele><time>2026-05-01T09:02:38Z</time></trkpt><trkpt lat="47.62663744331926" lon="10.819211585947066"><ele>826.0</ele><time>2026-05-01T09:02:39Z</time></trkpt><trkpt lat="47.62675697642155" lon="10.81939618055646"><ele>826.0</ele><time>2026-05-01T09:02:40Z</time></trkpt><trkpt lat="47.626874205419" lon="10.819565370473656"><ele>825.75</ele><time>2026-05-01T09:02:41Z</time></trkpt><trkpt lat="47.626989220644475" lon="10.819713973577167"><ele>825.5</ele><time>2026-05-01T09:02:42Z</time></trkpt><trkpt lat="47.627103417412144" lon="10.8198464165877"><ele>825.25</ele><time>2026-05-01T09:02:43Z</time></trkpt><trkpt lat="47.627218815903234" lon="10.819967839100942"><ele>825.0</ele><time>2026-05-01T09:02:44Z</time></trkpt><trkpt lat="47.62733815045879" lon="10.820082021564327"><ele>825.0</ele><time>2026-05-01T09:02:45Z</time></trkpt><trkpt lat="47.62746435955311" lon="10.820186367183377"><ele>825.0</ele><time>2026-05-01T09:02:46Z</time></trkpt><trkpt lat="47.62759295228558" lon="10.820280840310385"><ele>825.0</ele><time>2026-05-01T09:02:47Z</time></trkpt><trkpt lat="47.6277240050427" lon="10.820369966196969"><ele>825.0</ele><time>2026-05-01T09:02:48Z</time></trkpt><trkpt lat="47.627857450023015" lon="10.820453719964547"><ele>824.0</ele><time>2026-05-01T09:02:49Z</time></trkpt><trkpt lat="47.62798959747099" lon="10.8205291607654"><ele>823.0</ele><time>2026-05-01T09:02:50Z</time></trkpt><trkpt lat="47.628117816552724" lon="10.820590988349752"><ele>822.0</ele><time>2026-05-01T09:02:51Z</time></trkpt><trkpt lat="47.62824057399939" lon="10.82064125395159"><ele>821.0</ele><time>2026-05-01T09:02:52Z</time></trkpt><trkpt lat="47.62835260461941" lon="10.82068292789716"><ele>821.0</ele><time>2026-05-01T09:02:53Z</time></trkpt><trkpt lat="47.62845724591183" lon="10.820719693915123"><ele>821.0</ele><time>2026-05-01T09:02:54Z</time></trkpt><trkpt lat="47.628557474293" lon="10.82075010838801"><ele>821.0</ele><time>2026-05-01T09:02:55Z</time></trkpt><trkpt lat="47.62865836417976" lon="10.820773024455114"><ele>821.0</ele><time>2026-05-01T09:02:56Z</time></trkpt><trkpt lat="47.62876144766542" lon="10.820780565151804"><ele>821.0</ele><time>2026-05-01T09:02:57Z</time></trkpt><trkpt lat="47.628862372295586" lon="10.820783911289228"><ele>820.1999999999999</ele><time>2026-05-01T09:02:58Z</time></trkpt><trkpt lat="47.62896636382687" lon="10.820790143509814"><ele>819.4</ele><time>2026-05-01T09:02:59Z</time></trkpt><trkpt lat="47.62907232291638" lon="10.820797926992505"><ele>818.6</ele><time>2026-05-01T09:03:00Z</time></trkpt><trkpt lat="47.62918095572612" lon="10.820811461793609"><ele>817.8</ele><time>2026-05-01T09:03:01Z</time></trkpt><trkpt lat="47.62928977620002" lon="10.820826076805005"><ele>817.0</ele><time>2026-05-01T09:03:02Z</time></trkpt><trkpt lat="47.62940087430562" lon="10.820838296960718"><ele>816.6</ele><time>2026-05-01T09:03:03Z</time></trkpt><trkpt lat="47.629510588111266" lon="10.82084896755569"><ele>816.2</ele><time>2026-05-01T09:03:04Z</time></trkpt><trkpt lat="47.62962312401135" lon="10.820858531139486"><ele>815.8</ele><time>2026-05-01T09:03:05Z</time></trkpt><trkpt lat="47.62973271470697" lon="10.820870923603945"><ele>815.4</ele><time>2026-05-01T09:03:06Z</time></trkpt><trkpt lat="47.62983429177128" lon="10.820883710259567"><ele>815.0</ele><time>2026-05-01T09:03:07Z</time></trkpt><trkpt lat="47.62993208795075" lon="10.820895081572589"><ele>815.0</ele><time>2026-05-01T09:03:08Z</time></trkpt><trkpt lat="47.63003034037295" lon="10.820904201843703"><ele>815.0</ele><time>2026-05-01T09:03:09Z</time></trkpt><trkpt lat="47.630130258720634" lon="10.820910298631631"><ele>815.0</ele><time>2026-05-01T09:03:10Z</time></trkpt><trkpt lat="47.630231992654394" lon="10.82091102303823"><ele>815.0</ele><time>2026-05-01T09:03:11Z</time></trkpt><trkpt lat="47.630336909266624" lon="10.820909742912725"><ele>815.0</ele><time>2026-05-01T09:03:12.001Z</time></trkpt><trkpt lat="47.63044464763133" lon="10.820901543749715"><ele>814.8</ele><time>2026-05-01T09:03:13.001Z</time></trkpt><trkpt lat="47.63055297930443" lon="10.82088605612853"><ele>814.6</ele><time>2026-05-01T09:03:14.001Z</time></trkpt><trkpt lat="47.63066420164718" lon="10.820867803752005"><ele>814.4000000000001</ele><time>2026-05-01T09:03:15.001Z</time></trkpt><trkpt lat="47.630775830148814" lon="10.820848174399249"><ele>814.2</ele><time>2026-05-01T09:03:16.001Z</time></trkpt><trkpt lat="47.630889148489906" lon="10.820833870224332"><ele>814.0</ele><time>2026-05-01T09:03:17.001Z</time></trkpt><trkpt lat="47.631003132862716" lon="10.820825929544299"><ele>814.0</ele><time>2026-05-01T09:03:18.001Z</time></trkpt><trkpt lat="47.63112087294705" lon="10.820822832687423"><ele>814.0</ele><time>2026-05-01T09:03:19.001Z</time></trkpt><trkpt lat="47.63124068893158" lon="10.820827278451004"><ele>814.0</ele><time>2026-05-01T09:03:20.001Z</time></trkpt><trkpt lat="47.63136501153164" lon="10.820838958293253"><ele>814.0</ele><time>2026-05-01T09:03:21.001Z</time></trkpt><trkpt lat="47.631490774196834" lon="10.820857922516126"><ele>814.0</ele><time>2026-05-01T09:03:22.001Z</time></trkpt><trkpt lat="47.63161770550208" lon="10.820882607109608"><ele>814.0</ele><time>2026-05-01T09:03:23.001Z</time></trkpt><trkpt lat="47.63174335667671" lon="10.820918919929644"><ele>814.0</ele><time>2026-05-01T09:03:24.001Z</time></trkpt><trkpt lat="47.631871058360865" lon="10.820959308505945"><ele>814.0</ele><time>2026-05-01T09:03:25.001Z</time></trkpt><trkpt lat="47.63199736846538" lon="10.821000076506209"><ele>813.25</ele><time>2026-05-01T09:03:26.001Z</time></trkpt><trkpt lat="47.632123725299095" lon="10.821045305355922"><ele>812.5</ele><time>2026-05-01T09:03:27.001Z</time></trkpt><trkpt lat="47.63224960690738" lon="10.821098263176381"><ele>811.75</ele><time>2026-05-01T09:03:28.001Z</time></trkpt><trkpt lat="47.63237427776306" lon="10.821155299828245"><ele>811.0</ele><time>2026-05-01T09:03:29.001Z</time></trkpt><trkpt lat="47.632499606300925" lon="10.821213121779467"><ele>811.0</ele><time>2026-05-01T09:03:30.001Z</time></trkpt><trkpt lat="47.63262310364669" lon="10.821271486132026"><ele>811.0</ele><time>2026-05-01T09:03:31.001Z</time></trkpt><trkpt lat="47.632746023187316" lon="10.821333590438975"><ele>811.0</ele><time>2026-05-01T09:03:32.001Z</time></trkpt><trkpt lat="47.632868244382934" lon="10.821401238657758"><ele>811.0</ele><time>2026-05-01T09:03:33.001Z</time></trkpt><trkpt lat="47.63298827940917" lon="10.821471801771747"><ele>810.75</ele><time>2026-05-01T09:03:34.001Z</time></trkpt><trkpt lat="47.633109261863815" lon="10.821548603146177"><ele>810.5</ele><time>2026-05-01T09:03:35.001Z</time></trkpt><trkpt lat="47.63323198619245" lon="10.821629437268971"><ele>810.25</ele><time>2026-05-01T09:03:36.001Z</time></trkpt><trkpt lat="47.63335363745266" lon="10.821713808676014"><ele>810.0</ele><time>2026-05-01T09:03:37.001Z</time></trkpt><trkpt lat="47.633474168760856" lon="10.821803848221109"><ele>809.75</ele><time>2026-05-01T09:03:38.001Z</time></trkpt><trkpt lat="47.63359322739582" lon="10.82189605696283"><ele>809.5</ele><time>2026-05-01T09:03:39.001Z</time></trkpt><trkpt lat="47.63371610226183" lon="10.821991889261142"><ele>809.25</ele><time>2026-05-01T09:03:40.001Z</time></trkpt><trkpt lat="47.63384041598349" lon="10.822092506136265"><ele>809.0</ele><time>2026-05-01T09:03:41.001Z</time></trkpt><trkpt lat="47.6339699780014" lon="10.82219898359225"><ele>809.0</ele><time>2026-05-01T09:03:42.001Z</time></trkpt><trkpt lat="47.634105141100044" lon="10.822311645132896"><ele>809.0</ele><time>2026-05-01T09:03:43.001Z</time></trkpt><trkpt lat="47.6342368847353" lon="10.822423720259966"><ele>809.0</ele><time>2026-05-01T09:03:44.001Z</time></trkpt><trkpt lat="47.63437183411524" lon="10.822539966991075"><ele>809.0</ele><time>2026-05-01T09:03:45.001Z</time></trkpt><trkpt lat="47.63450860790233" lon="10.822655615432494"><ele>809.0</ele><time>2026-05-01T09:03:46.001Z</time></trkpt><trkpt lat="47.63464736772825" lon="10.822773147618348"><ele>809.0</ele><time>2026-05-01T09:03:47.001Z</time></trkpt><trkpt lat="47.6347898398659" lon="10.822891871285682"><ele>809.0</ele><time>2026-05-01T09:03:48.001Z</time></trkpt><trkpt lat="47.63493653642358" lon="10.82301482184711"><ele>809.0</ele><time>2026-05-01T09:03:49.001Z</time></trkpt><trkpt lat="47.63508491833981" lon="10.823137525762252"><ele>809.0</ele><time>2026-05-01T09:03:50.001Z</time></trkpt><trkpt lat="47.63523657072071" lon="10.823265586137445"><ele>807.0</ele><time>2026-05-01T09:03:51.001Z</time></trkpt><trkpt lat="47.63539485598335" lon="10.823398681566664"><ele>805.0</ele><time>2026-05-01T09:03:52.001Z</time></trkpt><trkpt lat="47.63555643435825" lon="10.823532441184987"><ele>803.0</ele><time>2026-05-01T09:03:52.999Z</time></trkpt><trkpt lat="47.63572380114645" lon="10.823668718708126"><ele>803.0</ele><time>2026-05-01T09:03:53.999Z</time></trkpt><trkpt lat="47.635892630429105" lon="10.82381025488025"><ele>803.0</ele><time>2026-05-01T09:03:54.999Z</time></trkpt><trkpt lat="47.63605774559486" lon="10.823949853370431"><ele>803.0</ele><time>2026-05-01T09:03:55.999Z</time></trkpt><trkpt lat="47.636222852696115" lon="10.824092606367431"><ele>803.0</ele><time>2026-05-01T09:03:56.999Z</time></trkpt><trkpt lat="47.6363874445397" lon="10.82423279124297"><ele>803.0</ele><time>2026-05-01T09:03:57.999Z</time></trkpt><trkpt lat="47.63655250455071" lon="10.82437137849274"><ele>803.0</ele><time>2026-05-01T09:03:58.999Z</time></trkpt><trkpt lat="47.6367173945603" lon="10.824510476003232"><ele>802.6666666666667</ele><time>2026-05-01T09:03:59.999Z</time></trkpt><trkpt lat="47.636878391200426" lon="10.824645444147897"><ele>802.3333333333333</ele><time>2026-05-01T09:04:00.999Z</time></trkpt><trkpt lat="47.63703628690555" lon="10.824775501750228"><ele>802.0</ele><time>2026-05-01T09:04:01.999Z</time></trkpt><trkpt lat="47.637190408677206" lon="10.824904255076415"><ele>801.0</ele><time>2026-05-01T09:04:02.999Z</time></trkpt><trkpt lat="47.637342824653615" lon="10.825033266419362"><ele>800.0</ele><time>2026-05-01T09:04:03.999Z</time></trkpt><trkpt lat="47.6374956617052" lon="10.825159087827746"><ele>799.0</ele><time>2026-05-01T09:04:04.999Z</time></trkpt><trkpt lat="47.637650456322596" lon="10.825285416540822"><ele>797.6666666666666</ele><time>2026-05-01T09:04:05.999Z</time></trkpt><trkpt lat="47.63780617332311" lon="10.825409532084015"><ele>796.3333333333333</ele><time>2026-05-01T09:04:06.999Z</time></trkpt><trkpt lat="47.63796118395744" lon="10.825534095475154"><ele>795.0</ele><time>2026-05-01T09:04:07.999Z</time></trkpt><trkpt lat="47.638112087467505" lon="10.82565685753997"><ele>795.0</ele><time>2026-05-01T09:04:08.999Z</time></trkpt><trkpt lat="47.63825667857012" lon="10.82577259559206"><ele>795.0</ele><time>2026-05-01T09:04:09.999Z</time></trkpt><trkpt lat="47.638396677081026" lon="10.825884973302184"><ele>795.0</ele><time>2026-05-01T09:04:10.999Z</time></trkpt><trkpt lat="47.638528173309275" lon="10.825990496514637"><ele>795.0</ele><time>2026-05-01T09:04:11.999Z</time></trkpt><trkpt lat="47.63865338352956" lon="10.826091277889994"><ele>795.0</ele><time>2026-05-01T09:04:12.999Z</time></trkpt><trkpt lat="47.6387724944933" lon="10.826184903402188"><ele>795.0</ele><time>2026-05-01T09:04:13.999Z</time></trkpt><trkpt lat="47.638886029899425" lon="10.826275326574885"><ele>795.0</ele><time>2026-05-01T09:04:14.999Z</time></trkpt><trkpt lat="47.638991198963446" lon="10.8263584822858"><ele>795.0</ele><time>2026-05-01T09:04:15.999Z</time></trkpt><trkpt lat="47.63909267497831" lon="10.826437002395272"><ele>795.0</ele><time>2026-05-01T09:04:16.999Z</time></trkpt><trkpt lat="47.6391915092883" lon="10.826513830311548"><ele>795.0</ele><time>2026-05-01T09:04:17.999Z</time></trkpt><trkpt lat="47.639289861396485" lon="10.826591381874834"><ele>795.0</ele><time>2026-05-01T09:04:18.999Z</time></trkpt><trkpt lat="47.639387132005744" lon="10.826666664545657"><ele>795.0</ele><time>2026-05-01T09:04:20Z</time></trkpt><trkpt lat="47.63948612615137" lon="10.826743372111775"><ele>795.75</ele><time>2026-05-01T09:04:21Z</time></trkpt><trkpt lat="47.639584342486515" lon="10.826818012747085"><ele>796.5</ele><time>2026-05-01T09:04:22Z</time></trkpt><trkpt lat="47.63968620556151" lon="10.82689370236797"><ele>797.25</ele><time>2026-05-01T09:04:23Z</time></trkpt><trkpt lat="47.63978751097603" lon="10.826969307987351"><ele>798.0</ele><time>2026-05-01T09:04:24Z</time></trkpt><trkpt lat="47.63988931061811" lon="10.827043947892095"><ele>798.0</ele><time>2026-05-01T09:04:25Z</time></trkpt><trkpt lat="47.63999180029722" lon="10.827120911774553"><ele>798.0</ele><time>2026-05-01T09:04:26Z</time></trkpt><trkpt lat="47.64009460223512" lon="10.827199776664296"><ele>798.0</ele><time>2026-05-01T09:04:27Z</time></trkpt><trkpt lat="47.64019786643378" lon="10.827276054747433"><ele>798.0</ele><time>2026-05-01T09:04:28Z</time></trkpt><trkpt lat="47.640302561588854" lon="10.827350366090354"><ele>797.25</ele><time>2026-05-01T09:04:29Z</time></trkpt><trkpt lat="47.640408916562556" lon="10.827418761057706"><ele>796.5</ele><time>2026-05-01T09:04:30Z</time></trkpt><trkpt lat="47.640520304001306" lon="10.827480791183973"><ele>795.75</ele><time>2026-05-01T09:04:31Z</time></trkpt><trkpt lat="47.64063206286259" lon="10.827530403311018"><ele>795.0</ele><time>2026-05-01T09:04:32Z</time></trkpt><trkpt lat="47.640744393342544" lon="10.827566188468188"><ele>795.0</ele><time>2026-05-01T09:04:33Z</time></trkpt><trkpt lat="47.64085803021816" lon="10.827594585008862"><ele>795.0</ele><time>2026-05-01T09:04:34Z</time></trkpt><trkpt lat="47.640972196226656" lon="10.82761248476881"><ele>795.0</ele><time>2026-05-01T09:04:35Z</time></trkpt><trkpt lat="47.641088634432684" lon="10.827623788192849"><ele>795.0</ele><time>2026-05-01T09:04:36Z</time></trkpt><trkpt lat="47.64120592473869" lon="10.827635274619329"><ele>794.75</ele><time>2026-05-01T09:04:37Z</time></trkpt><trkpt lat="47.641323270900536" lon="10.827645920441448"><ele>794.5</ele><time>2026-05-01T09:04:38Z</time></trkpt><trkpt lat="47.64144100629652" lon="10.827656537047966"><ele>794.25</ele><time>2026-05-01T09:04:39Z</time></trkpt><trkpt lat="47.64155579162874" lon="10.827667279276199"><ele>794.0</ele><time>2026-05-01T09:04:40Z</time></trkpt><trkpt lat="47.64167215665219" lon="10.827676836936092"><ele>794.0</ele><time>2026-05-01T09:04:41Z</time></trkpt><trkpt lat="47.64178848947678" lon="10.827688731267408"><ele>794.0</ele><time>2026-05-01T09:04:42Z</time></trkpt><trkpt lat="47.64190595159728" lon="10.827703239391592"><ele>794.0</ele><time>2026-05-01T09:04:43Z</time></trkpt><trkpt lat="47.642022423619075" lon="10.827714479347964"><ele>794.0</ele><time>2026-05-01T09:04:44Z</time></trkpt><trkpt lat="47.64214028739443" lon="10.827727128614358"><ele>793.0</ele><time>2026-05-01T09:04:45Z</time></trkpt><trkpt lat="47.64225731870632" lon="10.82773809227839"><ele>792.0</ele><time>2026-05-01T09:04:46Z</time></trkpt><trkpt lat="47.642374960122794" lon="10.82775051041219"><ele>791.0</ele><time>2026-05-01T09:04:47Z</time></trkpt><trkpt lat="47.642493040282744" lon="10.827762379466918"><ele>790.0</ele><time>2026-05-01T09:04:48Z</time></trkpt><trkpt lat="47.64261049676966" lon="10.827775684452323"><ele>790.0</ele><time>2026-05-01T09:04:49Z</time></trkpt><trkpt lat="47.64272790982557" lon="10.827793048014453"><ele>790.0</ele><time>2026-05-01T09:04:50Z</time></trkpt><trkpt lat="47.64284450629619" lon="10.827810530100733"><ele>790.0</ele><time>2026-05-01T09:04:51Z</time></trkpt><trkpt lat="47.64296112321106" lon="10.827828165519337"><ele>790.0</ele><time>2026-05-01T09:04:52Z</time></trkpt><trkpt lat="47.64307740432376" lon="10.827847551120044"><ele>790.25</ele><time>2026-05-01T09:04:53Z</time></trkpt><trkpt lat="47.643195051867046" lon="10.827867463246573"><ele>790.5</ele><time>2026-05-01T09:04:54Z</time></trkpt><trkpt lat="47.64331131382162" lon="10.827889696192011"><ele>790.75</ele><time>2026-05-01T09:04:55Z</time></trkpt><trkpt lat="47.64342743541296" lon="10.827912847152447"><ele>791.0</ele><time>2026-05-01T09:04:56Z</time></trkpt><trkpt lat="47.64354292603378" lon="10.827939413219845"><ele>791.0</ele><time>2026-05-01T09:04:57Z</time></trkpt><trkpt lat="47.643658619007" lon="10.827968912687124"><ele>791.0</ele><time>2026-05-01T09:04:58Z</time></trkpt><trkpt lat="47.643775938202985" lon="10.827999631127172"><ele>791.0</ele><time>2026-05-01T09:04:59Z</time></trkpt><trkpt lat="47.6438944686705" lon="10.828032525385549"><ele>791.0</ele><time>2026-05-01T09:05:00Z</time></trkpt><trkpt lat="47.64401350333729" lon="10.828066262167896"><ele>791.0</ele><time>2026-05-01T09:05:01Z</time></trkpt><trkpt lat="47.64413323115128" lon="10.828103649652041"><ele>791.0</ele><time>2026-05-01T09:05:02Z</time></trkpt><trkpt lat="47.64425228736618" lon="10.82814063644022"><ele>791.0</ele><time>2026-05-01T09:05:03Z</time></trkpt><trkpt lat="47.644371006448836" lon="10.828181665248179"><ele>791.0</ele><time>2026-05-01T09:05:04.001Z</time></trkpt><trkpt lat="47.6444893676482" lon="10.828232671098474"><ele>790.75</ele><time>2026-05-01T09:05:05.001Z</time></trkpt><trkpt lat="47.64460829702766" lon="10.828286310722655"><ele>790.5</ele><time>2026-05-01T09:05:06.001Z</time></trkpt><trkpt lat="47.644724616715266" lon="10.828344590832678"><ele>790.25</ele><time>2026-05-01T09:05:07.001Z</time></trkpt><trkpt lat="47.64484120700612" lon="10.828405954026017"><ele>790.0</ele><time>2026-05-01T09:05:08.001Z</time></trkpt><trkpt lat="47.6449522050198" lon="10.828464545627718"><ele>789.5</ele><time>2026-05-01T09:05:09.001Z</time></trkpt><trkpt lat="47.645067585859834" lon="10.828524676814462"><ele>789.0</ele><time>2026-05-01T09:05:10.001Z</time></trkpt><trkpt lat="47.64518264711238" lon="10.82858634014014"><ele>788.5</ele><time>2026-05-01T09:05:11.001Z</time></trkpt><trkpt lat="47.64529743377863" lon="10.828647701549977"><ele>788.0</ele><time>2026-05-01T09:05:12.001Z</time></trkpt><trkpt lat="47.645412510505714" lon="10.828708465030838"><ele>788.0</ele><time>2026-05-01T09:05:13.001Z</time></trkpt><trkpt lat="47.64553177165685" lon="10.828767267476028"><ele>788.0</ele><time>2026-05-01T09:05:14.001Z</time></trkpt><trkpt lat="47.64565100361154" lon="10.828826959753135"><ele>788.0</ele><time>2026-05-01T09:05:15.001Z</time></trkpt><trkpt lat="47.64577033500709" lon="10.828885386865622"><ele>788.0</ele><time>2026-05-01T09:05:16.001Z</time></trkpt><trkpt lat="47.64589058480419" lon="10.828946701170949"><ele>788.0</ele><time>2026-05-01T09:05:17.001Z</time></trkpt><trkpt lat="47.64601336840304" lon="10.82901229651456"><ele>788.0</ele><time>2026-05-01T09:05:18.001Z</time></trkpt><trkpt lat="47.64613975217435" lon="10.829080757395447"><ele>788.0</ele><time>2026-05-01T09:05:19.001Z</time></trkpt><trkpt lat="47.646269830449256" lon="10.829153218990166"><ele>788.0</ele><time>2026-05-01T09:05:20.001Z</time></trkpt><trkpt lat="47.646403913491476" lon="10.829225478602861"><ele>788.5</ele><time>2026-05-01T09:05:21.001Z</time></trkpt><trkpt lat="47.64654120969043" lon="10.82929735430751"><ele>789.0</ele><time>2026-05-01T09:05:22.001Z</time></trkpt><trkpt lat="47.64668197285354" lon="10.829371789689612"><ele>789.5</ele><time>2026-05-01T09:05:23.001Z</time></trkpt><trkpt lat="47.64682618869296" lon="10.829448883319369"><ele>790.0</ele><time>2026-05-01T09:05:24.001Z</time></trkpt><trkpt lat="47.6469763498558" lon="10.829532310337662"><ele>791.6666666666666</ele><time>2026-05-01T09:05:25.001Z</time></trkpt><trkpt lat="47.64713314810816" lon="10.82962187375348"><ele>793.3333333333333</ele><time>2026-05-01T09:05:26.001Z</time></trkpt><trkpt lat="47.64729522171618" lon="10.829717886770377"><ele>795.0</ele><time>2026-05-01T09:05:27.001Z</time></trkpt><trkpt lat="47.64745651238802" lon="10.829817362129853"><ele>795.0</ele><time>2026-05-01T09:05:28.001Z</time></trkpt><trkpt lat="47.64761064041895" lon="10.82991959170791"><ele>795.0</ele><time>2026-05-01T09:05:29.001Z</time></trkpt><trkpt lat="47.64776914465498" lon="10.830029619513432"><ele>795.0</ele><time>2026-05-01T09:05:30.001Z</time></trkpt><trkpt lat="47.6479318437078" lon="10.830147735790783"><ele>796.3333333333333</ele><time>2026-05-01T09:05:31.001Z</time></trkpt><trkpt lat="47.64809765337342" lon="10.830276113252324"><ele>797.6666666666666</ele><time>2026-05-01T09:05:32.001Z</time></trkpt><trkpt lat="47.648264492754976" lon="10.830409079866103"><ele>799.0</ele><time>2026-05-01T09:05:33.001Z</time></trkpt><trkpt lat="47.64843365970214" lon="10.830547448421056"><ele>799.0</ele><time>2026-05-01T09:05:34.001Z</time></trkpt><trkpt lat="47.64860564673479" lon="10.830691655623552"><ele>799.0</ele><time>2026-05-01T09:05:35.001Z</time></trkpt><trkpt lat="47.648769150392944" lon="10.8308350317033"><ele>799.0</ele><time>2026-05-01T09:05:36.001Z</time></trkpt><trkpt lat="47.648930117970494" lon="10.830988572068092"><ele>800.3333333333333</ele><time>2026-05-01T09:05:37.001Z</time></trkpt><trkpt lat="47.64909014803175" lon="10.831154603398694"><ele>801.6666666666667</ele><time>2026-05-01T09:05:38.001Z</time></trkpt><trkpt lat="47.64924416774602" lon="10.831334570875132"><ele>803.0</ele><time>2026-05-01T09:05:39.001Z</time></trkpt><trkpt lat="47.649398465393595" lon="10.831524199594684"><ele>803.6666666666667</ele><time>2026-05-01T09:05:40.001Z</time></trkpt><trkpt lat="47.649550923163645" lon="10.831721727044924"><ele>804.3333333333333</ele><time>2026-05-01T09:05:41.001Z</time></trkpt><trkpt lat="47.64969783838294" lon="10.831930795416524"><ele>805.0</ele><time>2026-05-01T09:05:42.001Z</time></trkpt><trkpt lat="47.64984403006531" lon="10.832143869652695"><ele>805.0</ele><time>2026-05-01T09:05:43.001Z</time></trkpt><trkpt lat="47.64998965261159" lon="10.832362032351105"><ele>805.0</ele><time>2026-05-01T09:05:44.001Z</time></trkpt><trkpt lat="47.650135082450305" lon="10.83258078443737"><ele>805.0</ele><time>2026-05-01T09:05:45.001Z</time></trkpt><trkpt lat="47.65027644232613" lon="10.832806857938646"><ele>807.0</ele><time>2026-05-01T09:05:46.001Z</time></trkpt><trkpt lat="47.650416172358604" lon="10.833040818488955"><ele>809.0</ele><time>2026-05-01T09:05:47.001Z</time></trkpt><trkpt lat="47.65054973172219" lon="10.833281180575389"><ele>811.0</ele><time>2026-05-01T09:05:48.001Z</time></trkpt><trkpt lat="47.650677339223016" lon="10.833529482516973"><ele>811.0</ele><time>2026-05-01T09:05:49.001Z</time></trkpt><trkpt lat="47.65079946907872" lon="10.833780677168322"><ele>811.0</ele><time>2026-05-01T09:05:50.001Z</time></trkpt><trkpt lat="47.650917072267795" lon="10.834027686655595"><ele>811.0</ele><time>2026-05-01T09:05:51.001Z</time></trkpt><trkpt lat="47.6510275963292" lon="10.834262576421871"><ele>813.0</ele><time>2026-05-01T09:05:52.001Z</time></trkpt><trkpt lat="47.65113035293056" lon="10.834478941372653"><ele>815.0</ele><time>2026-05-01T09:05:53.001Z</time></trkpt><trkpt lat="47.65123222794866" lon="10.834698390956563"><ele>817.0</ele><time>2026-05-01T09:05:54.001Z</time></trkpt><trkpt lat="47.651334683765576" lon="10.834917075398474"><ele>817.0</ele><time>2026-05-01T09:05:55.001Z</time></trkpt><trkpt lat="47.65143764451106" lon="10.835132421424206"><ele>817.0</ele><time>2026-05-01T09:05:56.001Z</time></trkpt><trkpt lat="47.65153771528142" lon="10.835342272794842"><ele>817.0</ele><time>2026-05-01T09:05:57.001Z</time></trkpt><trkpt lat="47.65163258293847" lon="10.835545460793947"><ele>816.3333333333333</ele><time>2026-05-01T09:05:58.001Z</time></trkpt><trkpt lat="47.65172767029819" lon="10.835750406345657"><ele>815.6666666666667</ele><time>2026-05-01T09:05:58.999Z</time></trkpt><trkpt lat="47.651819964512946" lon="10.835953097284932"><ele>815.0</ele><time>2026-05-01T09:05:59.999Z</time></trkpt><trkpt lat="47.651915518663934" lon="10.836153835126213"><ele>817.3333333333334</ele><time>2026-05-01T09:06:00.999Z</time></trkpt><trkpt lat="47.652010043780415" lon="10.836354355455997"><ele>819.6666666666667</ele><time>2026-05-01T09:06:01.999Z</time></trkpt><trkpt lat="47.652105985091914" lon="10.836558268001246"><ele>822.0</ele><time>2026-05-01T09:06:02.999Z</time></trkpt><trkpt lat="47.65220155929537" lon="10.836762601995948"><ele>821.6666666666667</ele><time>2026-05-01T09:06:03.999Z</time></trkpt><trkpt lat="47.652296836373466" lon="10.83696437427293"><ele>821.3333333333334</ele><time>2026-05-01T09:06:04.999Z</time></trkpt><trkpt lat="47.65239108726294" lon="10.83717040659862"><ele>821.0</ele><time>2026-05-01T09:06:05.999Z</time></trkpt><trkpt lat="47.65248304204782" lon="10.83737360689284"><ele>821.0</ele><time>2026-05-01T09:06:06.999Z</time></trkpt><trkpt lat="47.652576770924256" lon="10.837579877611551"><ele>821.0</ele><time>2026-05-01T09:06:07.999Z</time></trkpt><trkpt lat="47.65267266862921" lon="10.837786064459836"><ele>821.0</ele><time>2026-05-01T09:06:08.999Z</time></trkpt><trkpt lat="47.65277165834738" lon="10.837986116142183"><ele>821.3333333333334</ele><time>2026-05-01T09:06:09.999Z</time></trkpt><trkpt lat="47.65287830369623" lon="10.838179660259222"><ele>821.6666666666667</ele><time>2026-05-01T09:06:10.999Z</time></trkpt><trkpt lat="47.65299096980889" lon="10.838369396558242"><ele>822.0</ele><time>2026-05-01T09:06:11.999Z</time></trkpt><trkpt lat="47.65310746520786" lon="10.838547739107684"><ele>822.0</ele><time>2026-05-01T09:06:12.999Z</time></trkpt><trkpt lat="47.65322954666909" lon="10.838718435719489"><ele>822.0</ele><time>2026-05-01T09:06:13.999Z</time></trkpt><trkpt lat="47.65335854639897" lon="10.838880469019887"><ele>822.0</ele><time>2026-05-01T09:06:14.999Z</time></trkpt><trkpt lat="47.65349505552132" lon="10.83903323351878"><ele>821.3333333333333</ele><time>2026-05-01T09:06:15.999Z</time></trkpt><trkpt lat="47.65363566421036" lon="10.839171702152022"><ele>820.6666666666666</ele><time>2026-05-01T09:06:17Z</time></trkpt><trkpt lat="47.65378089021306" lon="10.839293357795006"><ele>820.0</ele><time>2026-05-01T09:06:18Z</time></trkpt><trkpt lat="47.6539312719648" lon="10.839399764763671"><ele>820.0</ele><time>2026-05-01T09:06:19Z</time></trkpt><trkpt lat="47.65408407835648" lon="10.839494679287865"><ele>820.0</ele><time>2026-05-01T09:06:20Z</time></trkpt><trkpt lat="47.65424010207674" lon="10.8395782736954"><ele>820.0</ele><time>2026-05-01T09:06:21Z</time></trkpt><trkpt lat="47.654398504233825" lon="10.83964793402719"><ele>821.6666666666666</ele><time>2026-05-01T09:06:22Z</time></trkpt><trkpt lat="47.65456043900668" lon="10.83970233237145"><ele>823.3333333333333</ele><time>2026-05-01T09:06:23Z</time></trkpt><trkpt lat="47.6547239328251" lon="10.839734318330121"><ele>825.0</ele><time>2026-05-01T09:06:24Z</time></trkpt><trkpt lat="47.6548895244378" lon="10.839755180365808"><ele>825.0</ele><time>2026-05-01T09:06:25Z</time></trkpt><trkpt lat="47.655058904980734" lon="10.839762464752935"><ele>825.0</ele><time>2026-05-01T09:06:26Z</time></trkpt><trkpt lat="47.655228150684046" lon="10.83976351220313"><ele>825.0</ele><time>2026-05-01T09:06:27Z</time></trkpt><trkpt lat="47.655397682101736" lon="10.839761403095471"><ele>825.6666666666667</ele><time>2026-05-01T09:06:28Z</time></trkpt><trkpt lat="47.65556805787497" lon="10.839752280608717"><ele>826.3333333333334</ele><time>2026-05-01T09:06:29Z</time></trkpt><trkpt lat="47.6557405923973" lon="10.839739745643582"><ele>827.0</ele><time>2026-05-01T09:06:30Z</time></trkpt><trkpt lat="47.65591352764767" lon="10.839730633972843"><ele>827.0</ele><time>2026-05-01T09:06:31Z</time></trkpt><trkpt lat="47.65608879115012" lon="10.839735103167122"><ele>827.0</ele><time>2026-05-01T09:06:32Z</time></trkpt><trkpt lat="47.65625224653795" lon="10.83975360749872"><ele>827.0</ele><time>2026-05-01T09:06:33Z</time></trkpt><trkpt lat="47.656418700443446" lon="10.839789019760236"><ele>827.3333333333334</ele><time>2026-05-01T09:06:34Z</time></trkpt><trkpt lat="47.656588803484276" lon="10.839844403583786"><ele>827.6666666666667</ele><time>2026-05-01T09:06:35Z</time></trkpt><trkpt lat="47.6567621858803" lon="10.839917051395322"><ele>828.0</ele><time>2026-05-01T09:06:36Z</time></trkpt><trkpt lat="47.65693369021652" lon="10.840007870461124"><ele>829.0</ele><time>2026-05-01T09:06:37Z</time></trkpt><trkpt lat="47.657103499918826" lon="10.840118701107686"><ele>830.0</ele><time>2026-05-01T09:06:38Z</time></trkpt><trkpt lat="47.65726812707317" lon="10.840247880861739"><ele>831.0</ele><time>2026-05-01T09:06:39Z</time></trkpt><trkpt lat="47.65742663259449" lon="10.84039680589476"><ele>832.0</ele><time>2026-05-01T09:06:40Z</time></trkpt><trkpt lat="47.65757816993804" lon="10.840563506932236"><ele>833.0</ele><time>2026-05-01T09:06:41Z</time></trkpt><trkpt lat="47.657728069742355" lon="10.840747965412529"><ele>834.0</ele><time>2026-05-01T09:06:42Z</time></trkpt><trkpt lat="47.65787569257208" lon="10.840943521279911"><ele>836.3333333333333</ele><time>2026-05-01T09:06:43Z</time></trkpt><trkpt lat="47.658020850774236" lon="10.841147769472935"><ele>838.6666666666666</ele><time>2026-05-01T09:06:44Z</time></trkpt><trkpt lat="47.65815520811657" lon="10.841349584714589"><ele>841.0</ele><time>2026-05-01T09:06:45Z</time></trkpt><trkpt lat="47.65829013321393" lon="10.841561083151584"><ele>841.0</ele><time>2026-05-01T09:06:46Z</time></trkpt><trkpt lat="47.65842586515845" lon="10.841779631863554"><ele>841.0</ele><time>2026-05-01T09:06:47Z</time></trkpt><trkpt lat="47.65856152896731" lon="10.84200018819871"><ele>841.0</ele><time>2026-05-01T09:06:48Z</time></trkpt><trkpt lat="47.6586970118365" lon="10.842225467696588"><ele>842.0</ele><time>2026-05-01T09:06:49Z</time></trkpt><trkpt lat="47.658836253090584" lon="10.842452013002541"><ele>843.0</ele><time>2026-05-01T09:06:50Z</time></trkpt><trkpt lat="47.65897618188303" lon="10.84266997233553"><ele>844.0</ele><time>2026-05-01T09:06:51Z</time></trkpt><trkpt lat="47.6591215100028" lon="10.84288535650769"><ele>844.0</ele><time>2026-05-01T09:06:52Z</time></trkpt><trkpt lat="47.65927289901919" lon="10.843089625099276"><ele>844.0</ele><time>2026-05-01T09:06:53Z</time></trkpt><trkpt lat="47.6594321727749" lon="10.843279699918845"><ele>844.0</ele><time>2026-05-01T09:06:54.001Z</time></trkpt><trkpt lat="47.659599031684685" lon="10.843454894117075"><ele>844.6666666666666</ele><time>2026-05-01T09:06:55.001Z</time></trkpt><trkpt lat="47.65977009001338" lon="10.843612998095633"><ele>845.3333333333333</ele><time>2026-05-01T09:06:56.001Z</time></trkpt><trkpt lat="47.659949266816334" lon="10.84376375523522"><ele>846.0</ele><time>2026-05-01T09:06:57.001Z</time></trkpt><trkpt lat="47.660132211908646" lon="10.843900383906742"><ele>846.0</ele><time>2026-05-01T09:06:58.001Z</time></trkpt><trkpt lat="47.66032289512163" lon="10.844023360671986"><ele>846.0</ele><time>2026-05-01T09:06:59.001Z</time></trkpt><trkpt lat="47.66051712509104" lon="10.844133517399001"><ele>846.0</ele><time>2026-05-01T09:07:00.001Z</time></trkpt><trkpt lat="47.66071894284914" lon="10.844239638136994"><ele>845.6666666666667</ele><time>2026-05-01T09:07:01.001Z</time></trkpt><trkpt lat="47.66092065253436" lon="10.844347741323698"><ele>845.3333333333334</ele><time>2026-05-01T09:07:02.001Z</time></trkpt><trkpt lat="47.661115390581685" lon="10.844458980123704"><ele>845.0</ele><time>2026-05-01T09:07:03.001Z</time></trkpt><trkpt lat="47.661314514014315" lon="10.844585697816989"><ele>845.0</ele><time>2026-05-01T09:07:04.001Z</time></trkpt><trkpt lat="47.661511697457236" lon="10.844731982672311"><ele>845.0</ele><time>2026-05-01T09:07:05.001Z</time></trkpt><trkpt lat="47.66170104463623" lon="10.844898441024416"><ele>845.0</ele><time>2026-05-01T09:07:06.001Z</time></trkpt><trkpt lat="47.661884098212745" lon="10.845081931031489"><ele>846.0</ele><time>2026-05-01T09:07:07.001Z</time></trkpt><trkpt lat="47.66206040673863" lon="10.845281420940099"><ele>847.0</ele><time>2026-05-01T09:07:08.001Z</time></trkpt><trkpt lat="47.6622248915968" lon="10.845491949949622"><ele>848.0</ele><time>2026-05-01T09:07:09.001Z</time></trkpt><trkpt lat="47.66238275262882" lon="10.845715436243802"><ele>848.0</ele><time>2026-05-01T09:07:10.001Z</time></trkpt><trkpt lat="47.66253389945407" lon="10.84594768011547"><ele>848.0</ele><time>2026-05-01T09:07:11.001Z</time></trkpt><trkpt lat="47.662680769275575" lon="10.84618903324085"><ele>848.0</ele><time>2026-05-01T09:07:12.001Z</time></trkpt><trkpt lat="47.662825409241584" lon="10.846436691063962"><ele>848.0</ele><time>2026-05-01T09:07:13.001Z</time></trkpt><trkpt lat="47.66296957814787" lon="10.846683559125907"><ele>848.0</ele><time>2026-05-01T09:07:14.001Z</time></trkpt><trkpt lat="47.663113147707975" lon="10.846928628060418"><ele>848.0</ele><time>2026-05-01T09:07:15.001Z</time></trkpt><trkpt lat="47.66326092908943" lon="10.847165656919813"><ele>848.0</ele><time>2026-05-01T09:07:16.001Z</time></trkpt><trkpt lat="47.66341403997982" lon="10.847392921010739"><ele>848.0</ele><time>2026-05-01T09:07:17.001Z</time></trkpt><trkpt lat="47.66357506819132" lon="10.847606557151998"><ele>848.0</ele><time>2026-05-01T09:07:18.001Z</time></trkpt><trkpt lat="47.66374419721154" lon="10.847806579689761"><ele>847.0</ele><time>2026-05-01T09:07:19.001Z</time></trkpt><trkpt lat="47.6639225595883" lon="10.847994358748567"><ele>846.0</ele><time>2026-05-01T09:07:20.001Z</time></trkpt><trkpt lat="47.66410990560495" lon="10.848166301411643"><ele>845.0</ele><time>2026-05-01T09:07:21.001Z</time></trkpt><trkpt lat="47.66430195750174" lon="10.848328494425427"><ele>844.0</ele><time>2026-05-01T09:07:22.001Z</time></trkpt><trkpt lat="47.66449951475373" lon="10.848482639136597"><ele>843.0</ele><time>2026-05-01T09:07:23.001Z</time></trkpt><trkpt lat="47.66469824487908" lon="10.848635311741313"><ele>842.0</ele><time>2026-05-01T09:07:24.001Z</time></trkpt><trkpt lat="47.66489775089608" lon="10.848786311397769"><ele>842.0</ele><time>2026-05-01T09:07:25.001Z</time></trkpt><trkpt lat="47.66509621079346" lon="10.848937122500942"><ele>842.0</ele><time>2026-05-01T09:07:26.001Z</time></trkpt><trkpt lat="47.66529645476404" lon="10.849091197990125"><ele>842.0</ele><time>2026-05-01T09:07:27.001Z</time></trkpt><trkpt lat="47.665496368088924" lon="10.849247947935986"><ele>842.0</ele><time>2026-05-01T09:07:28.001Z</time></trkpt><trkpt lat="47.66569524322115" lon="10.849405271022256"><ele>842.0</ele><time>2026-05-01T09:07:29.001Z</time></trkpt><trkpt lat="47.665893779750924" lon="10.84955943118236"><ele>842.0</ele><time>2026-05-01T09:07:30.001Z</time></trkpt><trkpt lat="47.66609091021128" lon="10.849711551051051"><ele>841.6666666666667</ele><time>2026-05-01T09:07:31.001Z</time></trkpt><trkpt lat="47.66628687135853" lon="10.849863394022586"><ele>841.3333333333333</ele><time>2026-05-01T09:07:32.001Z</time></trkpt><trkpt lat="47.66647447642658" lon="10.850015328329981"><ele>841.0</ele><time>2026-05-01T09:07:33.001Z</time></trkpt><trkpt lat="47.66665548217733" lon="10.85017609051852"><ele>840.6666666666666</ele><time>2026-05-01T09:07:34.001Z</time></trkpt><trkpt lat="47.66683326208032" lon="10.850353089853492"><ele>840.3333333333333</ele><time>2026-05-01T09:07:35.001Z</time></trkpt><trkpt lat="47.66700274900202" lon="10.850547983895837"><ele>840.0</ele><time>2026-05-01T09:07:36.001Z</time></trkpt><trkpt lat="47.667163056956944" lon="10.85076049457218"><ele>839.6666666666667</ele><time>2026-05-01T09:07:37.001Z</time></trkpt><trkpt lat="47.667319547995874" lon="10.850985098496174"><ele>839.3333333333334</ele><time>2026-05-01T09:07:38.001Z</time></trkpt><trkpt lat="47.66747391311584" lon="10.85121925566602"><ele>839.0</ele><time>2026-05-01T09:07:39.001Z</time></trkpt><trkpt lat="47.66762899254971" lon="10.85145136429894"><ele>838.3333333333334</ele><time>2026-05-01T09:07:40.001Z</time></trkpt><trkpt lat="47.667785927777594" lon="10.85167665519181"><ele>837.6666666666667</ele><time>2026-05-01T09:07:41.001Z</time></trkpt><trkpt lat="47.66794776929805" lon="10.851886146071157"><ele>837.0</ele><time>2026-05-01T09:07:42.001Z</time></trkpt><trkpt lat="47.66812007310678" lon="10.852082970821469"><ele>837.0</ele><time>2026-05-01T09:07:43.001Z</time></trkpt><trkpt lat="47.668305985153715" lon="10.852246548918115"><ele>837.0</ele><time>2026-05-01T09:07:44.001Z</time></trkpt><trkpt lat="47.66849965586654" lon="10.85239137740296"><ele>837.0</ele><time>2026-05-01T09:07:45.002Z</time></trkpt><trkpt lat="47.668698968088314" lon="10.852520162480992"><ele>836.6666666666667</ele><time>2026-05-01T09:07:46.002Z</time></trkpt><trkpt lat="47.66889835734757" lon="10.852620516885011"><ele>836.3333333333334</ele><time>2026-05-01T09:07:47.002Z</time></trkpt><trkpt lat="47.66912126701723" lon="10.852696751109484"><ele>836.0</ele><time>2026-05-01T09:07:48.002Z</time></trkpt><trkpt lat="47.66934028956456" lon="10.852738717686664"><ele>837.3333333333334</ele><time>2026-05-01T09:07:49.002Z</time></trkpt><trkpt lat="47.669561816227855" lon="10.852755778744921"><ele>838.6666666666667</ele><time>2026-05-01T09:07:50.002Z</time></trkpt><trkpt lat="47.669787050800124" lon="10.852764650350288"><ele>840.0</ele><time>2026-05-01T09:07:51.002Z</time></trkpt><trkpt lat="47.67001193785642" lon="10.852771085627019"><ele>840.0</ele><time>2026-05-01T09:07:52.002Z</time></trkpt><trkpt lat="47.67023745986178" lon="10.852788126129347"><ele>840.0</ele><time>2026-05-01T09:07:53.002Z</time></trkpt><trkpt lat="47.670460420403785" lon="10.852818870286733"><ele>840.0</ele><time>2026-05-01T09:07:54.002Z</time></trkpt><trkpt lat="47.6706767663371" lon="10.852866666550462"><ele>840.0</ele><time>2026-05-01T09:07:55.002Z</time></trkpt><trkpt lat="47.670887748718734" lon="10.852932070897436"><ele>840.0</ele><time>2026-05-01T09:07:56.002Z</time></trkpt><trkpt lat="47.67109457934013" lon="10.853015125434794"><ele>837.3333333333333</ele><time>2026-05-01T09:07:57.002Z</time></trkpt><trkpt lat="47.67130067434041" lon="10.853118520763655"><ele>834.6666666666666</ele><time>2026-05-01T09:07:58.002Z</time></trkpt><trkpt lat="47.671503446391675" lon="10.853242632042805"><ele>832.0</ele><time>2026-05-01T09:07:59.002Z</time></trkpt><trkpt lat="47.67170003163772" lon="10.853383220578905"><ele>832.6666666666666</ele><time>2026-05-01T09:08:00.002Z</time></trkpt><trkpt lat="47.67188995172622" lon="10.853527045790893"><ele>833.3333333333333</ele><time>2026-05-01T09:08:01.002Z</time></trkpt><trkpt lat="47.67207991933921" lon="10.85366761613353"><ele>834.0</ele><time>2026-05-01T09:08:02.002Z</time></trkpt><trkpt lat="47.672272223050236" lon="10.853804671155284"><ele>834.3333333333333</ele><time>2026-05-01T09:08:03.002Z</time></trkpt><trkpt lat="47.67245919453796" lon="10.853927734488545"><ele>834.6666666666666</ele><time>2026-05-01T09:08:04.002Z</time></trkpt><trkpt lat="47.67263942112118" lon="10.854024522697449"><ele>835.0</ele><time>2026-05-01T09:08:04.999Z</time></trkpt><trkpt lat="47.672830196543075" lon="10.854109765270012"><ele>835.3333333333333</ele><time>2026-05-01T09:08:05.999Z</time></trkpt><trkpt lat="47.67302629237657" lon="10.854187673548623"><ele>835.6666666666667</ele><time>2026-05-01T09:08:06.999Z</time></trkpt><trkpt lat="47.67322604959392" lon="10.854266907732947"><ele>836.0</ele><time>2026-05-01T09:08:07.999Z</time></trkpt><trkpt lat="47.67342467166759" lon="10.85434977419474"><ele>835.6666666666667</ele><time>2026-05-01T09:08:08.999Z</time></trkpt><trkpt lat="47.67362015798524" lon="10.854444601007177"><ele>835.3333333333333</ele><time>2026-05-01T09:08:09.999Z</time></trkpt><trkpt lat="47.67381075241952" lon="10.854554166504151"><ele>835.0</ele><time>2026-05-01T09:08:10.999Z</time></trkpt><trkpt lat="47.67399629059174" lon="10.854677543921689"><ele>835.0</ele><time>2026-05-01T09:08:11.999Z</time></trkpt><trkpt lat="47.67417392989351" lon="10.854818962521556"><ele>835.0</ele><time>2026-05-01T09:08:12.999Z</time></trkpt><trkpt lat="47.67434076090972" lon="10.854986651473963"><ele>835.0</ele><time>2026-05-01T09:08:13.999Z</time></trkpt><trkpt lat="47.674501029846844" lon="10.855165480452202"><ele>834.6666666666666</ele><time>2026-05-01T09:08:14.999Z</time></trkpt><trkpt lat="47.67465999037859" lon="10.855333791993935"><ele>834.3333333333333</ele><time>2026-05-01T09:08:15.999Z</time></trkpt><trkpt lat="47.67483000215267" lon="10.855492214535358"><ele>834.0</ele><time>2026-05-01T09:08:16.999Z</time></trkpt><trkpt lat="47.675010841603864" lon="10.855637612489291"><ele>834.0</ele><time>2026-05-01T09:08:17.999Z</time></trkpt><trkpt lat="47.67520173001429" lon="10.855768888104274"><ele>834.0</ele><time>2026-05-01T09:08:18.999Z</time></trkpt><trkpt lat="47.675401798298466" lon="10.855878654013903"><ele>834.0</ele><time>2026-05-01T09:08:20Z</time></trkpt><trkpt lat="47.67561056269673" lon="10.855966439330638"><ele>832.0</ele><time>2026-05-01T09:08:21Z</time></trkpt><trkpt lat="47.67582324070505" lon="10.85604129005722"><ele>830.0</ele><time>2026-05-01T09:08:22Z</time></trkpt><trkpt lat="47.67604107417916" lon="10.856100052329072"><ele>828.0</ele><time>2026-05-01T09:08:23Z</time></trkpt><trkpt lat="47.67626055183263" lon="10.856143567984338"><ele>824.5</ele><time>2026-05-01T09:08:24Z</time></trkpt><trkpt lat="47.67648417843233" lon="10.856183553576356"><ele>821.0</ele><time>2026-05-01T09:08:25Z</time></trkpt><trkpt lat="47.676706346986265" lon="10.85623212730589"><ele>821.0</ele><time>2026-05-01T09:08:26Z</time></trkpt><trkpt lat="47.676923839535675" lon="10.85630146638031"><ele>821.0</ele><time>2026-05-01T09:08:27Z</time></trkpt><trkpt lat="47.677137198835396" lon="10.856400148070932"><ele>821.0</ele><time>2026-05-01T09:08:28Z</time></trkpt><trkpt lat="47.677343208492395" lon="10.856529275073632"><ele>821.0</ele><time>2026-05-01T09:08:29Z</time></trkpt><trkpt lat="47.677541312922614" lon="10.85668711271458"><ele>821.0</ele><time>2026-05-01T09:08:30Z</time></trkpt><trkpt lat="47.67772809696245" lon="10.856866886554892"><ele>821.0</ele><time>2026-05-01T09:08:31Z</time></trkpt><trkpt lat="47.677905253868204" lon="10.8570621666695"><ele>821.6666666666667</ele><time>2026-05-01T09:08:32Z</time></trkpt><trkpt lat="47.67807750688391" lon="10.857266935172044"><ele>822.3333333333333</ele><time>2026-05-01T09:08:33Z</time></trkpt><trkpt lat="47.678251417804674" lon="10.857458460645987"><ele>823.0</ele><time>2026-05-01T09:08:34Z</time></trkpt><trkpt lat="47.67843683528144" lon="10.857624846708392"><ele>819.3333333333333</ele><time>2026-05-01T09:08:35Z</time></trkpt><trkpt lat="47.678633249624745" lon="10.857766147953514"><ele>815.6666666666667</ele><time>2026-05-01T09:08:36Z</time></trkpt><trkpt lat="47.678838564866325" lon="10.85788396790123"><ele>812.0</ele><time>2026-05-01T09:08:37Z</time></trkpt><trkpt lat="47.679054040035574" lon="10.857980813920035"><ele>812.0</ele><time>2026-05-01T09:08:38Z</time></trkpt><trkpt lat="47.67927770031166" lon="10.858055692537214"><ele>812.0</ele><time>2026-05-01T09:08:39Z</time></trkpt><trkpt lat="47.67950723206002" lon="10.858101105476141"><ele>809.5</ele><time>2026-05-01T09:08:40Z</time></trkpt><trkpt lat="47.67974216673145" lon="10.85811349203091"><ele>807.0</ele><time>2026-05-01T09:08:41Z</time></trkpt><trkpt lat="47.679982046393945" lon="10.858107729626171"><ele>807.0</ele><time>2026-05-01T09:08:42Z</time></trkpt><trkpt lat="47.68022196899981" lon="10.85809562517627"><ele>807.0</ele><time>2026-05-01T09:08:43Z</time></trkpt><trkpt lat="47.68046337757621" lon="10.8580974858263"><ele>807.0</ele><time>2026-05-01T09:08:44Z</time></trkpt><trkpt lat="47.68069715951305" lon="10.85812351361063"><ele>807.0</ele><time>2026-05-01T09:08:45Z</time></trkpt><trkpt lat="47.68093099872931" lon="10.858168186024"><ele>807.5</ele><time>2026-05-01T09:08:46Z</time></trkpt><trkpt lat="47.681169192404504" lon="10.858227988139934"><ele>808.0</ele><time>2026-05-01T09:08:47Z</time></trkpt><trkpt lat="47.68140807317578" lon="10.858303692052553"><ele>808.0</ele><time>2026-05-01T09:08:48Z</time></trkpt><trkpt lat="47.68164337627461" lon="10.858386301248192"><ele>808.0</ele><time>2026-05-01T09:08:49Z</time></trkpt><trkpt lat="47.68187896891146" lon="10.858467992696939"><ele>807.0</ele><time>2026-05-01T09:08:50Z</time></trkpt><trkpt lat="47.68211115763844" lon="10.858548595206118"><ele>806.0</ele><time>2026-05-01T09:08:51Z</time></trkpt><trkpt lat="47.68234250746549" lon="10.858633164511124"><ele>806.0</ele><time>2026-05-01T09:08:52Z</time></trkpt><trkpt lat="47.682570080627144" lon="10.858715400157772"><ele>806.0</ele><time>2026-05-01T09:08:53Z</time></trkpt><trkpt lat="47.682796758258625" lon="10.85879359570778"><ele>804.0</ele><time>2026-05-01T09:08:54.001Z</time></trkpt><trkpt lat="47.683020699141345" lon="10.858873054860444"><ele>802.0</ele><time>2026-05-01T09:08:55.001Z</time></trkpt><trkpt lat="47.68324506969696" lon="10.85895518977187"><ele>802.0</ele><time>2026-05-01T09:08:56.001Z</time></trkpt><trkpt lat="47.6834679030817" lon="10.859037241499793"><ele>802.0</ele><time>2026-05-01T09:08:57.001Z</time></trkpt><trkpt lat="47.683689626782986" lon="10.859119148557083"><ele>802.0</ele><time>2026-05-01T09:08:58.001Z</time></trkpt><trkpt lat="47.68390878587701" lon="10.85920500042808"><ele>802.0</ele><time>2026-05-01T09:08:59.001Z</time></trkpt><trkpt lat="47.68412733332588" lon="10.859292081741742"><ele>801.6666666666666</ele><time>2026-05-01T09:09:00.001Z</time></trkpt><trkpt lat="47.68434491969103" lon="10.859378576114944"><ele>801.3333333333333</ele><time>2026-05-01T09:09:01.001Z</time></trkpt><trkpt lat="47.68456152531465" lon="10.859464123779325"><ele>801.0</ele><time>2026-05-01T09:09:02.001Z</time></trkpt><trkpt lat="47.684780379115054" lon="10.859546650024857"><ele>801.0</ele><time>2026-05-01T09:09:03.001Z</time></trkpt><trkpt lat="47.684997956138915" lon="10.859629880845112"><ele>801.0</ele><time>2026-05-01T09:09:04.001Z</time></trkpt><trkpt lat="47.685216813668895" lon="10.85971320450056"><ele>802.0</ele><time>2026-05-01T09:09:05.001Z</time></trkpt><trkpt lat="47.68543766237122" lon="10.859799969361541"><ele>803.0</ele><time>2026-05-01T09:09:06.001Z</time></trkpt><trkpt lat="47.6856587326385" lon="10.8598879304729"><ele>803.0</ele><time>2026-05-01T09:09:07.001Z</time></trkpt><trkpt lat="47.685880236297024" lon="10.859974958027705"><ele>803.0</ele><time>2026-05-01T09:09:08.001Z</time></trkpt><trkpt lat="47.68610273510245" lon="10.860062802577845"><ele>802.5</ele><time>2026-05-01T09:09:09.001Z</time></trkpt><trkpt lat="47.68632493640608" lon="10.860154830878736"><ele>802.0</ele><time>2026-05-01T09:09:10.001Z</time></trkpt><trkpt lat="47.68654635614189" lon="10.860247419689134"><ele>802.0</ele><time>2026-05-01T09:09:11.001Z</time></trkpt><trkpt lat="47.68676774691843" lon="10.860337998955128"><ele>802.0</ele><time>2026-05-01T09:09:12.001Z</time></trkpt><trkpt lat="47.68698815462562" lon="10.860428424453003"><ele>799.0</ele><time>2026-05-01T09:09:13.001Z</time></trkpt><trkpt lat="47.687208216558936" lon="10.86052023840535"><ele>796.0</ele><time>2026-05-01T09:09:14.001Z</time></trkpt><trkpt lat="47.687425867669916" lon="10.860612646380654"><ele>796.0</ele><time>2026-05-01T09:09:15.001Z</time></trkpt><trkpt lat="47.68764429345348" lon="10.860707281760272"><ele>796.0</ele><time>2026-05-01T09:09:16.001Z</time></trkpt><trkpt lat="47.687860718956784" lon="10.860800853377471"><ele>796.0</ele><time>2026-05-01T09:09:17.001Z</time></trkpt><trkpt lat="47.68807241287486" lon="10.860887482572178"><ele>796.0</ele><time>2026-05-01T09:09:18.001Z</time></trkpt><trkpt lat="47.688284083606284" lon="10.860968680101877"><ele>796.0</ele><time>2026-05-01T09:09:19.001Z</time></trkpt><trkpt lat="47.68849557040624" lon="10.86103495476831"><ele>796.3333333333333</ele><time>2026-05-01T09:09:20.001Z</time></trkpt><trkpt lat="47.68871078350049" lon="10.861083699068445"><ele>796.6666666666667</ele><time>2026-05-01T09:09:21.001Z</time></trkpt><trkpt lat="47.68892926593585" lon="10.86110323946518"><ele>797.0</ele><time>2026-05-01T09:09:22.001Z</time></trkpt><trkpt lat="47.68914666601938" lon="10.861098222811533"><ele>797.0</ele><time>2026-05-01T09:09:23.001Z</time></trkpt><trkpt lat="47.689367199213414" lon="10.861075301512903"><ele>797.0</ele><time>2026-05-01T09:09:24.001Z</time></trkpt><trkpt lat="47.68958619787003" lon="10.861028814043099"><ele>797.0</ele><time>2026-05-01T09:09:25.001Z</time></trkpt><trkpt lat="47.68980587252677" lon="10.860960303516901"><ele>796.0</ele><time>2026-05-01T09:09:26.001Z</time></trkpt><trkpt lat="47.69002165589342" lon="10.86086846035439"><ele>795.0</ele><time>2026-05-01T09:09:27.001Z</time></trkpt><trkpt lat="47.69023676358213" lon="10.860769260668174"><ele>793.0</ele><time>2026-05-01T09:09:28.001Z</time></trkpt><trkpt lat="47.6904551291186" lon="10.860668795164733"><ele>791.0</ele><time>2026-05-01T09:09:29.001Z</time></trkpt><trkpt lat="47.69067620823188" lon="10.860585811601982"><ele>791.0</ele><time>2026-05-01T09:09:30.001Z</time></trkpt><trkpt lat="47.69089901707917" lon="10.860536547673352"><ele>791.0</ele><time>2026-05-01T09:09:31.001Z</time></trkpt><trkpt lat="47.69112836110149" lon="10.860526149859647"><ele>788.5</ele><time>2026-05-01T09:09:32.001Z</time></trkpt><trkpt lat="47.69135888362006" lon="10.860551149278159"><ele>786.0</ele><time>2026-05-01T09:09:33.001Z</time></trkpt><trkpt lat="47.6915866032629" lon="10.860609486865886"><ele>786.0</ele><time>2026-05-01T09:09:34.001Z</time></trkpt><trkpt lat="47.69180383664703" lon="10.860705828010268"><ele>786.0</ele><time>2026-05-01T09:09:35.001Z</time></trkpt><trkpt lat="47.69200322484662" lon="10.860830252220236"><ele>786.0</ele><time>2026-05-01T09:09:36.001Z</time></trkpt><trkpt lat="47.692185768446386" lon="10.860967713813066"><ele>784.3333333333333</ele><time>2026-05-01T09:09:37.001Z</time></trkpt><trkpt lat="47.69234660944717" lon="10.861095484251859"><ele>782.6666666666666</ele><time>2026-05-01T09:09:38.001Z</time></trkpt><trkpt lat="47.69249260691916" lon="10.861207652205785"><ele>781.0</ele><time>2026-05-01T09:09:39.001Z</time></trkpt><trkpt lat="47.692620857987215" lon="10.8613008328881"><ele>781.0</ele><time>2026-05-01T09:09:40.002Z</time></trkpt><trkpt lat="47.69274125108907" lon="10.861374704550835"><ele>781.0</ele><time>2026-05-01T09:09:41.002Z</time></trkpt><trkpt lat="47.692854699556996" lon="10.861429285990202"><ele>781.0</ele><time>2026-05-01T09:09:42.002Z</time></trkpt><trkpt lat="47.692966716062976" lon="10.861460908951484"><ele>781.0</ele><time>2026-05-01T09:09:43.002Z</time></trkpt><trkpt lat="47.69308273430303" lon="10.861487746465363"><ele>780.25</ele><time>2026-05-01T09:09:44.002Z</time></trkpt><trkpt lat="47.69320266607525" lon="10.861506967199452"><ele>779.5</ele><time>2026-05-01T09:09:45.002Z</time></trkpt><trkpt lat="47.69332499096325" lon="10.861519333377293"><ele>778.75</ele><time>2026-05-01T09:09:46.002Z</time></trkpt><trkpt lat="47.69344557019619" lon="10.861523397881163"><ele>778.0</ele><time>2026-05-01T09:09:47.002Z</time></trkpt><trkpt lat="47.693566105663876" lon="10.86151732446699"><ele>778.25</ele><time>2026-05-01T09:09:48.002Z</time></trkpt><trkpt lat="47.69368793559954" lon="10.861505984594082"><ele>778.5</ele><time>2026-05-01T09:09:49.002Z</time></trkpt><trkpt lat="47.69380834366203" lon="10.861489174725161"><ele>778.75</ele><time>2026-05-01T09:09:50.002Z</time></trkpt><trkpt lat="47.693926849690264" lon="10.861472249986637"><ele>779.0</ele><time>2026-05-01T09:09:51.002Z</time></trkpt><trkpt lat="47.69404619544669" lon="10.861453426055675"><ele>779.0</ele><time>2026-05-01T09:09:52.002Z</time></trkpt><trkpt lat="47.694167340294825" lon="10.861430977729981"><ele>779.0</ele><time>2026-05-01T09:09:53.002Z</time></trkpt><trkpt lat="47.69428687343096" lon="10.861403951124151"><ele>779.0</ele><time>2026-05-01T09:09:54.002Z</time></trkpt><trkpt lat="47.694404746433015" lon="10.861370762259435"><ele>779.0</ele><time>2026-05-01T09:09:55.002Z</time></trkpt><trkpt lat="47.69452067521798" lon="10.861326370516158"><ele>781.0</ele><time>2026-05-01T09:09:56.002Z</time></trkpt><trkpt lat="47.694636377141705" lon="10.86127583196542"><ele>783.0</ele><time>2026-05-01T09:09:57.002Z</time></trkpt><trkpt lat="47.6947531511162" lon="10.861224206474215"><ele>785.0</ele><time>2026-05-01T09:09:58.002Z</time></trkpt><trkpt lat="47.69487009507104" lon="10.86117638491523"><ele>787.0</ele><time>2026-05-01T09:09:59.002Z</time></trkpt><trkpt lat="47.69498758154515" lon="10.861131122203044"><ele>787.0</ele><time>2026-05-01T09:10:00.002Z</time></trkpt><trkpt lat="47.69510512720197" lon="10.861090483022185"><ele>787.0</ele><time>2026-05-01T09:10:01.002Z</time></trkpt><trkpt lat="47.69522449720285" lon="10.861057505310619"><ele>787.0</ele><time>2026-05-01T09:10:02.002Z</time></trkpt><trkpt lat="47.69534453480651" lon="10.861030005663487"><ele>787.0</ele><time>2026-05-01T09:10:03.002Z</time></trkpt><trkpt lat="47.695463978559545" lon="10.861010551886913"><ele>788.75</ele><time>2026-05-01T09:10:04.002Z</time></trkpt><trkpt lat="47.69558215159347" lon="10.861004139959753"><ele>790.5</ele><time>2026-05-01T09:10:05.002Z</time></trkpt><trkpt lat="47.695701914756285" lon="10.86100716456595"><ele>792.25</ele><time>2026-05-01T09:10:06.002Z</time></trkpt><trkpt lat="47.69582274929484" lon="10.861016551371632"><ele>794.0</ele><time>2026-05-01T09:10:07.002Z</time></trkpt><trkpt lat="47.69594469738639" lon="10.861027157673346"><ele>794.0</ele><time>2026-05-01T09:10:08.002Z</time></trkpt><trkpt lat="47.69606641291486" lon="10.861029705263913"><ele>794.0</ele><time>2026-05-01T09:10:09.002Z</time></trkpt><trkpt lat="47.69618840308005" lon="10.861034010936557"><ele>794.0</ele><time>2026-05-01T09:10:10.002Z</time></trkpt><trkpt lat="47.69630916470014" lon="10.861041546513698"><ele>794.0</ele><time>2026-05-01T09:10:10.999Z</time></trkpt><trkpt lat="47.696424950120594" lon="10.861044908278368"><ele>792.75</ele><time>2026-05-01T09:10:11.999Z</time></trkpt><trkpt lat="47.69653924113594" lon="10.861038178570475"><ele>791.5</ele><time>2026-05-01T09:10:12.999Z</time></trkpt><trkpt lat="47.69665167776828" lon="10.861019509762771"><ele>790.25</ele><time>2026-05-01T09:10:13.999Z</time></trkpt><trkpt lat="47.696763262345975" lon="10.860996691570701"><ele>789.0</ele><time>2026-05-01T09:10:14.999Z</time></trkpt><trkpt lat="47.696875356526" lon="10.860970889747243"><ele>785.0</ele><time>2026-05-01T09:10:15.999Z</time></trkpt><trkpt lat="47.69698974560886" lon="10.86094383684491"><ele>781.0</ele><time>2026-05-01T09:10:16.999Z</time></trkpt><trkpt lat="47.69710514374703" lon="10.86091675792064"><ele>777.0</ele><time>2026-05-01T09:10:17.999Z</time></trkpt><trkpt lat="47.69721983513309" lon="10.860891425750104"><ele>773.0</ele><time>2026-05-01T09:10:18.999Z</time></trkpt><trkpt lat="47.69733476835363" lon="10.860869020464333"><ele>773.0</ele><time>2026-05-01T09:10:19.999Z</time></trkpt><trkpt lat="47.697453083451705" lon="10.860852754391667"><ele>773.0</ele><time>2026-05-01T09:10:20.999Z</time></trkpt><trkpt lat="47.697573369424305" lon="10.860848212761999"><ele>773.0</ele><time>2026-05-01T09:10:21.999Z</time></trkpt><trkpt lat="47.697694231213376" lon="10.860857312573211"><ele>773.0</ele><time>2026-05-01T09:10:22.999Z</time></trkpt><trkpt lat="47.69781666339914" lon="10.860870756406104"><ele>771.75</ele><time>2026-05-01T09:10:23.999Z</time></trkpt><trkpt lat="47.69794084461279" lon="10.860887064264567"><ele>770.5</ele><time>2026-05-01T09:10:24.999Z</time></trkpt><trkpt lat="47.698065830872416" lon="10.860904235796063"><ele>769.25</ele><time>2026-05-01T09:10:25.999Z</time></trkpt><trkpt lat="47.69818385440514" lon="10.860922182303808"><ele>768.0</ele><time>2026-05-01T09:10:26.999Z</time></trkpt><trkpt lat="47.6983044135941" lon="10.860939244032904"><ele>768.5</ele><time>2026-05-01T09:10:27.999Z</time></trkpt><trkpt lat="47.69842728026196" lon="10.860956074072028"><ele>769.0</ele><time>2026-05-01T09:10:28.999Z</time></trkpt><trkpt lat="47.698550121178506" lon="10.86096534644729"><ele>769.5</ele><time>2026-05-01T09:10:29.999Z</time></trkpt><trkpt lat="47.698673218455966" lon="10.860964578909254"><ele>770.0</ele><time>2026-05-01T09:10:30.999Z</time></trkpt><trkpt lat="47.69879500661876" lon="10.860955518860367"><ele>768.5</ele><time>2026-05-01T09:10:31.999Z</time></trkpt><trkpt lat="47.69891313124572" lon="10.860936952228576"><ele>767.0</ele><time>2026-05-01T09:10:33Z</time></trkpt><trkpt lat="47.69902787718302" lon="10.860909447843117"><ele>765.5</ele><time>2026-05-01T09:10:34Z</time></trkpt><trkpt lat="47.69913974990598" lon="10.86087282387915"><ele>764.0</ele><time>2026-05-01T09:10:35Z</time></trkpt><trkpt lat="47.69925084134629" lon="10.860830367263745"><ele>764.0</ele><time>2026-05-01T09:10:36Z</time></trkpt><trkpt lat="47.699362652444016" lon="10.860781051451092"><ele>764.0</ele><time>2026-05-01T09:10:37Z</time></trkpt><trkpt lat="47.69947237735398" lon="10.860725290016985"><ele>764.0</ele><time>2026-05-01T09:10:38Z</time></trkpt><trkpt lat="47.69958094744469" lon="10.860661240616853"><ele>764.0</ele><time>2026-05-01T09:10:39Z</time></trkpt><trkpt lat="47.69968821187685" lon="10.86059179945353"><ele>764.5</ele><time>2026-05-01T09:10:40Z</time></trkpt><trkpt lat="47.69979497670068" lon="10.860521124523752"><ele>765.0</ele><time>2026-05-01T09:10:41Z</time></trkpt><trkpt lat="47.69989988564446" lon="10.860452019936771"><ele>765.5</ele><time>2026-05-01T09:10:42Z</time></trkpt><trkpt lat="47.700005114190546" lon="10.8603822807961"><ele>766.0</ele><time>2026-05-01T09:10:43Z</time></trkpt><trkpt lat="47.700110297562645" lon="10.860311387966274"><ele>766.0</ele><time>2026-05-01T09:10:44Z</time></trkpt><trkpt lat="47.70021862422727" lon="10.860246652540335"><ele>766.0</ele><time>2026-05-01T09:10:45Z</time></trkpt><trkpt lat="47.700331117016454" lon="10.860188628930851"><ele>766.0</ele><time>2026-05-01T09:10:46Z</time></trkpt><trkpt lat="47.70044569152931" lon="10.860141135641916"><ele>766.0</ele><time>2026-05-01T09:10:47Z</time></trkpt><trkpt lat="47.70056270425217" lon="10.860102127108977"><ele>766.5</ele><time>2026-05-01T09:10:48Z</time></trkpt><trkpt lat="47.70068446799086" lon="10.860074434838634"><ele>767.0</ele><time>2026-05-01T09:10:49Z</time></trkpt><trkpt lat="47.70080859308587" lon="10.860058393535102"><ele>767.5</ele><time>2026-05-01T09:10:50Z</time></trkpt><trkpt lat="47.70093383321148" lon="10.860052726181854"><ele>768.0</ele><time>2026-05-01T09:10:51Z</time></trkpt><trkpt lat="47.70106041385932" lon="10.860063240484884"><ele>767.5999999999999</ele><time>2026-05-01T09:10:52Z</time></trkpt><trkpt lat="47.70117818253397" lon="10.86008113968381"><ele>767.1999999999999</ele><time>2026-05-01T09:10:53Z</time></trkpt><trkpt lat="47.70128611265032" lon="10.86010670207402"><ele>766.8</ele><time>2026-05-01T09:10:54Z</time></trkpt><trkpt lat="47.701383774677424" lon="10.86013977979687"><ele>766.4</ele><time>2026-05-01T09:10:55Z</time></trkpt><trkpt lat="47.701476109698476" lon="10.860180795768793"><ele>766.0</ele><time>2026-05-01T09:10:56Z</time></trkpt><trkpt lat="47.70155885520755" lon="10.860226373445578"><ele>766.0</ele><time>2026-05-01T09:10:57Z</time></trkpt><trkpt lat="47.7016375304708" lon="10.860275011279596"><ele>766.0</ele><time>2026-05-01T09:10:58Z</time></trkpt><trkpt lat="47.70171857855064" lon="10.860327650248708"><ele>766.0</ele><time>2026-05-01T09:10:59Z</time></trkpt><trkpt lat="47.701803366605304" lon="10.86038638692368"><ele>766.0</ele><time>2026-05-01T09:11:00Z</time></trkpt><trkpt lat="47.701892425837805" lon="10.860451269869865"><ele>766.0</ele><time>2026-05-01T09:11:01Z</time></trkpt><trkpt lat="47.70198168816282" lon="10.860518005815296"><ele>765.5</ele><time>2026-05-01T09:11:02Z</time></trkpt><trkpt lat="47.70206389528836" lon="10.860581012253716"><ele>765.0</ele><time>2026-05-01T09:11:03.001Z</time></trkpt><trkpt lat="47.70213815833684" lon="10.860638721296006"><ele>764.5</ele><time>2026-05-01T09:11:04.001Z</time></trkpt><trkpt lat="47.702200941855104" lon="10.860690402361696"><ele>764.0</ele><time>2026-05-01T09:11:05.001Z</time></trkpt><trkpt lat="47.702270025467456" lon="10.860743680340331"><ele>763.5</ele><time>2026-05-01T09:11:06.001Z</time></trkpt><trkpt lat="47.70234248096156" lon="10.860799384100206"><ele>763.0</ele><time>2026-05-01T09:11:07.001Z</time></trkpt><trkpt lat="47.70241793107863" lon="10.860858353991915"><ele>763.0</ele><time>2026-05-01T09:11:08.001Z</time></trkpt><trkpt lat="47.70249233258352" lon="10.86091954431451"><ele>763.0</ele><time>2026-05-01T09:11:09.001Z</time></trkpt><trkpt lat="47.70256550735233" lon="10.860982235756676"><ele>763.0</ele><time>2026-05-01T09:11:10.001Z</time></trkpt><trkpt lat="47.70263261528935" lon="10.861040677391365"><ele>763.0</ele><time>2026-05-01T09:11:11.001Z</time></trkpt><trkpt lat="47.70269133349548" lon="10.8610940673478"><ele>763.0</ele><time>2026-05-01T09:11:12.001Z</time></trkpt><trkpt lat="47.702797328653496" lon="10.861194718390921"><ele>763.0</ele><time>2026-05-01T09:11:14.001Z</time></trkpt><trkpt lat="47.702855820945025" lon="10.86124880523628"><ele>762.6666666666667</ele><time>2026-05-01T09:11:15.001Z</time></trkpt><trkpt lat="47.70292064642852" lon="10.861306015223475"><ele>762.3333333333334</ele><time>2026-05-01T09:11:16.001Z</time></trkpt><trkpt lat="47.70299033599749" lon="10.861368878466813"><ele>762.0</ele><time>2026-05-01T09:11:17.001Z</time></trkpt><trkpt lat="47.70305815764642" lon="10.861430928356361"><ele>761.6666666666666</ele><time>2026-05-01T09:11:18.001Z</time></trkpt><trkpt lat="47.70311534856356" lon="10.861482797965598"><ele>761.3333333333333</ele><time>2026-05-01T09:11:19.001Z</time></trkpt><trkpt lat="47.7032162114262" lon="10.86157289671269"><ele>761.0</ele><time>2026-05-01T09:11:21.001Z</time></trkpt><trkpt lat="47.70332447704378" lon="10.861668052096077"><ele>761.0</ele><time>2026-05-01T09:11:23.001Z</time></trkpt><trkpt lat="47.70338384951619" lon="10.861726585617529"><ele>761.0</ele><time>2026-05-01T09:11:24.001Z</time></trkpt><trkpt lat="47.70344678262215" lon="10.86178923505473"><ele>761.0</ele><time>2026-05-01T09:11:25.001Z</time></trkpt><trkpt lat="47.70350848604849" lon="10.861852858773444"><ele>761.0</ele><time>2026-05-01T09:11:26.001Z</time></trkpt><trkpt lat="47.7035701647112" lon="10.861915482434622"><ele>761.0</ele><time>2026-05-01T09:11:27.001Z</time></trkpt><trkpt lat="47.70363365852978" lon="10.861981145625263"><ele>761.0</ele><time>2026-05-01T09:11:28.001Z</time></trkpt><trkpt lat="47.70369776429929" lon="10.862051656216263"><ele>761.3333333333333</ele><time>2026-05-01T09:11:29.001Z</time></trkpt><trkpt lat="47.70375832086429" lon="10.86212784763848"><ele>761.6666666666666</ele><time>2026-05-01T09:11:30.001Z</time></trkpt><trkpt lat="47.70380997021047" lon="10.86221136605595"><ele>762.0</ele><time>2026-05-01T09:11:31.001Z</time></trkpt><trkpt lat="47.703845838015816" lon="10.862308372493112"><ele>762.3333333333334</ele><time>2026-05-01T09:11:32.001Z</time></trkpt><trkpt lat="47.703866584856044" lon="10.862420760518326"><ele>762.6666666666667</ele><time>2026-05-01T09:11:33.001Z</time></trkpt><trkpt lat="47.7038720750167" lon="10.862539892882278"><ele>763.0</ele><time>2026-05-01T09:11:34.001Z</time></trkpt><trkpt lat="47.70387262788236" lon="10.862671735722024"><ele>763.2</ele><time>2026-05-01T09:11:35.001Z</time></trkpt><trkpt lat="47.703868915693384" lon="10.862814485681216"><ele>763.4</ele><time>2026-05-01T09:11:36.001Z</time></trkpt><trkpt lat="47.70386409251794" lon="10.862963433640916"><ele>763.6</ele><time>2026-05-01T09:11:37.001Z</time></trkpt><trkpt lat="47.703860310818385" lon="10.863118448769512"><ele>763.8000000000001</ele><time>2026-05-01T09:11:38.001Z</time></trkpt><trkpt lat="47.70385619094598" lon="10.863269543713201"><ele>764.0</ele><time>2026-05-01T09:11:39.001Z</time></trkpt><trkpt lat="47.70385202350333" lon="10.863419576618993"><ele>763.8000000000001</ele><time>2026-05-01T09:11:40.001Z</time></trkpt><trkpt lat="47.70384689478181" lon="10.863573749485683"><ele>763.6</ele><time>2026-05-01T09:11:41.001Z</time></trkpt><trkpt lat="47.70384132369505" lon="10.863728019241123"><ele>763.4</ele><time>2026-05-01T09:11:42.001Z</time></trkpt><trkpt lat="47.70383686867775" lon="10.863880182911675"><ele>763.2</ele><time>2026-05-01T09:11:43.001Z</time></trkpt><trkpt lat="47.70383494884877" lon="10.864032153816105"><ele>763.0</ele><time>2026-05-01T09:11:44.002Z</time></trkpt><trkpt lat="47.703838076002825" lon="10.86418523271536"><ele>763.2</ele><time>2026-05-01T09:11:45.002Z</time></trkpt><trkpt lat="47.703850138316206" lon="10.864337426316746"><ele>763.4</ele><time>2026-05-01T09:11:46.002Z</time></trkpt><trkpt lat="47.70387361460487" lon="10.864491294239995"><ele>763.6</ele><time>2026-05-01T09:11:47.002Z</time></trkpt><trkpt lat="47.70390854327841" lon="10.864641103944393"><ele>763.8000000000001</ele><time>2026-05-01T09:11:48.002Z</time></trkpt><trkpt lat="47.7039463160041" lon="10.864794204087527"><ele>764.0</ele><time>2026-05-01T09:11:49.002Z</time></trkpt><trkpt lat="47.70397905188248" lon="10.864948991840228"><ele>764.25</ele><time>2026-05-01T09:11:50.002Z</time></trkpt><trkpt lat="47.70400218015224" lon="10.865113433345655"><ele>764.5</ele><time>2026-05-01T09:11:51.002Z</time></trkpt><trkpt lat="47.704018151819234" lon="10.865283893545994"><ele>764.75</ele><time>2026-05-01T09:11:52.002Z</time></trkpt><trkpt lat="47.70403890823233" lon="10.86545884741438"><ele>765.0</ele><time>2026-05-01T09:11:53.002Z</time></trkpt><trkpt lat="47.70405950182704" lon="10.865640222854852"><ele>765.0</ele><time>2026-05-01T09:11:54.002Z</time></trkpt><trkpt lat="47.70407720362452" lon="10.865819202989993"><ele>765.0</ele><time>2026-05-01T09:11:55.002Z</time></trkpt><trkpt lat="47.70409510095569" lon="10.866001976404442"><ele>765.0</ele><time>2026-05-01T09:11:56.002Z</time></trkpt><trkpt lat="47.70410675980296" lon="10.86618947852428"><ele>765.0</ele><time>2026-05-01T09:11:57.002Z</time></trkpt><trkpt lat="47.704116618050044" lon="10.866384035823538"><ele>765.25</ele><time>2026-05-01T09:11:58.002Z</time></trkpt><trkpt lat="47.704123028130184" lon="10.866587449506882"><ele>765.5</ele><time>2026-05-01T09:11:59.002Z</time></trkpt><trkpt lat="47.704123973235504" lon="10.86679436333699"><ele>765.75</ele><time>2026-05-01T09:12:00.002Z</time></trkpt><trkpt lat="47.704124020847566" lon="10.867002761998421"><ele>766.0</ele><time>2026-05-01T09:12:01.002Z</time></trkpt><trkpt lat="47.704120604641744" lon="10.867211781963038"><ele>766.0</ele><time>2026-05-01T09:12:02.002Z</time></trkpt><trkpt lat="47.704117844062786" lon="10.867421124823538"><ele>766.0</ele><time>2026-05-01T09:12:03.002Z</time></trkpt><trkpt lat="47.70411794277463" lon="10.867631441471623"><ele>766.0</ele><time>2026-05-01T09:12:04.002Z</time></trkpt><trkpt lat="47.704116614609646" lon="10.867843341347506"><ele>766.0</ele><time>2026-05-01T09:12:05.002Z</time></trkpt><trkpt lat="47.70411233369155" lon="10.868054967948845"><ele>766.75</ele><time>2026-05-01T09:12:06.002Z</time></trkpt><trkpt lat="47.704104486704985" lon="10.868266808821836"><ele>767.5</ele><time>2026-05-01T09:12:07.002Z</time></trkpt><trkpt lat="47.70408888023967" lon="10.868477679501602"><ele>768.25</ele><time>2026-05-01T09:12:08.002Z</time></trkpt><trkpt lat="47.70405722721679" lon="10.868679859500812"><ele>769.0</ele><time>2026-05-01T09:12:09.002Z</time></trkpt><trkpt lat="47.70401304817776" lon="10.868872090186837"><ele>769.5</ele><time>2026-05-01T09:12:10.002Z</time></trkpt><trkpt lat="47.703959751946165" lon="10.869059230593448"><ele>770.0</ele><time>2026-05-01T09:12:11.002Z</time></trkpt><trkpt lat="47.70390196450743" lon="10.869248265702513"><ele>770.5</ele><time>2026-05-01T09:12:12.002Z</time></trkpt><trkpt lat="47.70384109837584" lon="10.869434768795347"><ele>771.0</ele><time>2026-05-01T09:12:13.002Z</time></trkpt><trkpt lat="47.70377373787533" lon="10.869619681529798"><ele>771.25</ele><time>2026-05-01T09:12:14.002Z</time></trkpt><trkpt lat="47.70370477403848" lon="10.86980399569397"><ele>771.5</ele><time>2026-05-01T09:12:15.002Z</time></trkpt><trkpt lat="47.703630403601515" lon="10.869986904658978"><ele>771.75</ele><time>2026-05-01T09:12:16.002Z</time></trkpt><trkpt lat="47.70354673024681" lon="10.870163482923973"><ele>772.0</ele><time>2026-05-01T09:12:16.999Z</time></trkpt><trkpt lat="47.70345177459062" lon="10.870335208761023"><ele>772.6666666666666</ele><time>2026-05-01T09:12:17.999Z</time></trkpt><trkpt lat="47.703347261881255" lon="10.870503070870715"><ele>773.3333333333333</ele><time>2026-05-01T09:12:18.999Z</time></trkpt><trkpt lat="47.70323341728233" lon="10.870674454932452"><ele>774.0</ele><time>2026-05-01T09:12:19.999Z</time></trkpt><trkpt lat="47.70311129360682" lon="10.87085564811978"><ele>775.6666666666667</ele><time>2026-05-01T09:12:20.999Z</time></trkpt><trkpt lat="47.70298836362076" lon="10.87105283051244"><ele>777.3333333333334</ele><time>2026-05-01T09:12:21.999Z</time></trkpt><trkpt lat="47.70287339013649" lon="10.871256316811152"><ele>779.0</ele><time>2026-05-01T09:12:22.999Z</time></trkpt><trkpt lat="47.70276515292089" lon="10.871466591142976"><ele>779.3333333333334</ele><time>2026-05-01T09:12:23.999Z</time></trkpt><trkpt lat="47.70266873323897" lon="10.871700306270508"><ele>779.6666666666667</ele><time>2026-05-01T09:12:24.999Z</time></trkpt><trkpt lat="47.70258712478292" lon="10.871951568673152"><ele>780.0</ele><time>2026-05-01T09:12:25.999Z</time></trkpt><trkpt lat="47.70251675145621" lon="10.872217027253818"><ele>781.3333333333333</ele><time>2026-05-01T09:12:26.999Z</time></trkpt><trkpt lat="47.70244889735971" lon="10.87247858278472"><ele>782.6666666666666</ele><time>2026-05-01T09:12:27.999Z</time></trkpt><trkpt lat="47.702381393652864" lon="10.872772710986276"><ele>784.0</ele><time>2026-05-01T09:12:28.999Z</time></trkpt><trkpt lat="47.70231473086131" lon="10.873055818113551"><ele>787.3333333333333</ele><time>2026-05-01T09:12:29.999Z</time></trkpt><trkpt lat="47.70225062942688" lon="10.873320772415811"><ele>790.6666666666667</ele><time>2026-05-01T09:12:30.999Z</time></trkpt><trkpt lat="47.70218570482494" lon="10.873590797110468"><ele>794.0</ele><time>2026-05-01T09:12:31.999Z</time></trkpt><trkpt lat="47.70212793653145" lon="10.873864091795577"><ele>795.6666666666667</ele><time>2026-05-01T09:12:32.999Z</time></trkpt><trkpt lat="47.70208345569078" lon="10.874143786441207"><ele>797.3333333333333</ele><time>2026-05-01T09:12:34Z</time></trkpt><trkpt lat="47.70205730377092" lon="10.87442938024546"><ele>799.0</ele><time>2026-05-01T09:12:35Z</time></trkpt><trkpt lat="47.702054443563306" lon="10.874719869159685"><ele>799.0</ele><time>2026-05-01T09:12:36Z</time></trkpt><trkpt lat="47.70207187759525" lon="10.875017883746258"><ele>799.0</ele><time>2026-05-01T09:12:37Z</time></trkpt><trkpt lat="47.702090812704355" lon="10.875324334981267"><ele>799.0</ele><time>2026-05-01T09:12:38Z</time></trkpt><trkpt lat="47.70209799931682" lon="10.875634355552258"><ele>800.3333333333333</ele><time>2026-05-01T09:12:39Z</time></trkpt><trkpt lat="47.70208729855414" lon="10.875950113118755"><ele>801.6666666666667</ele><time>2026-05-01T09:12:40Z</time></trkpt><trkpt lat="47.70205699523415" lon="10.876270860907157"><ele>803.0</ele><time>2026-05-01T09:12:41Z</time></trkpt><trkpt lat="47.70201186281386" lon="10.8765951690571"><ele>806.0</ele><time>2026-05-01T09:12:42Z</time></trkpt><trkpt lat="47.70195776430231" lon="10.876920411893098"><ele>809.0</ele><time>2026-05-01T09:12:43Z</time></trkpt><trkpt lat="47.701901739648484" lon="10.877245073836143"><ele>809.0</ele><time>2026-05-01T09:12:44Z</time></trkpt><trkpt lat="47.70186491657996" lon="10.877567771528847"><ele>809.0</ele><time>2026-05-01T09:12:45Z</time></trkpt><trkpt lat="47.70185151456764" lon="10.877886885873103"><ele>809.0</ele><time>2026-05-01T09:12:46Z</time></trkpt><trkpt lat="47.70186727328626" lon="10.878187155149057"><ele>812.6666666666667</ele><time>2026-05-01T09:12:47Z</time></trkpt><trkpt lat="47.70191852035209" lon="10.878479582756997"><ele>816.3333333333333</ele><time>2026-05-01T09:12:48Z</time></trkpt><trkpt lat="47.70200234704411" lon="10.87876340042365"><ele>820.0</ele><time>2026-05-01T09:12:49Z</time></trkpt><trkpt lat="47.702096619191884" lon="10.879052847366399"><ele>820.6666666666666</ele><time>2026-05-01T09:12:50Z</time></trkpt><trkpt lat="47.70217805171134" lon="10.879358093058478"><ele>821.3333333333333</ele><time>2026-05-01T09:12:51Z</time></trkpt><trkpt lat="47.70224116026453" lon="10.879674859277856"><ele>822.0</ele><time>2026-05-01T09:12:52Z</time></trkpt><trkpt lat="47.70229901774183" lon="10.879996200362232"><ele>822.3333333333333</ele><time>2026-05-01T09:12:53Z</time></trkpt><trkpt lat="47.702371379925474" lon="10.880310758707358"><ele>822.6666666666666</ele><time>2026-05-01T09:12:54Z</time></trkpt><trkpt lat="47.70246525822353" lon="10.880605979147166"><ele>823.0</ele><time>2026-05-01T09:12:55Z</time></trkpt><trkpt lat="47.70255328202566" lon="10.880880474544389"><ele>821.3333333333333</ele><time>2026-05-01T09:12:56Z</time></trkpt><trkpt lat="47.702618194374296" lon="10.881151312117261"><ele>819.6666666666667</ele><time>2026-05-01T09:12:57Z</time></trkpt><trkpt lat="47.70265719804786" lon="10.881441171891568"><ele>818.0</ele><time>2026-05-01T09:12:58Z</time></trkpt><trkpt lat="47.70268032887648" lon="10.881743797546514"><ele>819.0</ele><time>2026-05-01T09:12:59Z</time></trkpt><trkpt lat="47.7026904245934" lon="10.882056950751293"><ele>820.0</ele><time>2026-05-01T09:13:00Z</time></trkpt><trkpt lat="47.702684615832766" lon="10.882372435226548"><ele>821.0</ele><time>2026-05-01T09:13:01.001Z</time></trkpt><trkpt lat="47.70266021662787" lon="10.882691381626097"><ele>824.0</ele><time>2026-05-01T09:13:02.001Z</time></trkpt><trkpt lat="47.70263033890123" lon="10.883012615116181"><ele>827.0</ele><time>2026-05-01T09:13:03.001Z</time></trkpt><trkpt lat="47.70260449372815" lon="10.883320675867669"><ele>830.0</ele><time>2026-05-01T09:13:04.001Z</time></trkpt><trkpt lat="47.702604621123015" lon="10.883622274360265"><ele>830.0</ele><time>2026-05-01T09:13:05.001Z</time></trkpt><trkpt lat="47.70262956699844" lon="10.883912400425972"><ele>830.0</ele><time>2026-05-01T09:13:06.001Z</time></trkpt><trkpt lat="47.70268839341895" lon="10.884188364382593"><ele>830.0</ele><time>2026-05-01T09:13:07.001Z</time></trkpt><trkpt lat="47.702757668458474" lon="10.884436521648711"><ele>830.0</ele><time>2026-05-01T09:13:08.001Z</time></trkpt><trkpt lat="47.702823611080454" lon="10.884668273084039"><ele>830.0</ele><time>2026-05-01T09:13:09.001Z</time></trkpt><trkpt lat="47.702878211287626" lon="10.884902596037007"><ele>830.0</ele><time>2026-05-01T09:13:10.001Z</time></trkpt><trkpt lat="47.70290793205094" lon="10.885140888870746"><ele>831.3333333333334</ele><time>2026-05-01T09:13:11.001Z</time></trkpt><trkpt lat="47.70290518231215" lon="10.885381220111398"><ele>832.6666666666667</ele><time>2026-05-01T09:13:12.001Z</time></trkpt><trkpt lat="47.70289166656652" lon="10.885618157430565"><ele>834.0</ele><time>2026-05-01T09:13:13.001Z</time></trkpt><trkpt lat="47.70286590639481" lon="10.885851760635195"><ele>835.0</ele><time>2026-05-01T09:13:14.001Z</time></trkpt><trkpt lat="47.70281795150458" lon="10.886073932802793"><ele>836.0</ele><time>2026-05-01T09:13:15.001Z</time></trkpt><trkpt lat="47.70274458485602" lon="10.886285874589792"><ele>837.0</ele><time>2026-05-01T09:13:16.001Z</time></trkpt><trkpt lat="47.7026542274211" lon="10.886500302433477"><ele>837.0</ele><time>2026-05-01T09:13:17.001Z</time></trkpt><trkpt lat="47.702552526961995" lon="10.886721568592044"><ele>837.0</ele><time>2026-05-01T09:13:18.001Z</time></trkpt><trkpt lat="47.70244522972476" lon="10.886945313575932"><ele>837.0</ele><time>2026-05-01T09:13:19.001Z</time></trkpt><trkpt lat="47.702339053735" lon="10.887173656142854"><ele>838.6666666666667</ele><time>2026-05-01T09:13:20.001Z</time></trkpt><trkpt lat="47.70225442866211" lon="10.887390954153881"><ele>840.3333333333334</ele><time>2026-05-01T09:13:21.001Z</time></trkpt><trkpt lat="47.702201334275045" lon="10.887613753158789"><ele>842.0</ele><time>2026-05-01T09:13:22.001Z</time></trkpt><trkpt lat="47.70218023146233" lon="10.887848251507364"><ele>843.3333333333334</ele><time>2026-05-01T09:13:23.001Z</time></trkpt><trkpt lat="47.70219709243305" lon="10.888096484896538"><ele>844.6666666666667</ele><time>2026-05-01T09:13:24.001Z</time></trkpt><trkpt lat="47.70224106097982" lon="10.888345967014098"><ele>846.0</ele><time>2026-05-01T09:13:25.001Z</time></trkpt><trkpt lat="47.70230400588421" lon="10.888601858012171"><ele>847.0</ele><time>2026-05-01T09:13:26.001Z</time></trkpt><trkpt lat="47.70237057767433" lon="10.888863114260248"><ele>848.0</ele><time>2026-05-01T09:13:27.001Z</time></trkpt><trkpt lat="47.70243099648395" lon="10.88914304922572"><ele>849.0</ele><time>2026-05-01T09:13:28.001Z</time></trkpt><trkpt lat="47.702477287159695" lon="10.889439045606908"><ele>849.3333333333333</ele><time>2026-05-01T09:13:29.001Z</time></trkpt><trkpt lat="47.70250120907158" lon="10.889742744297674"><ele>849.6666666666666</ele><time>2026-05-01T09:13:30.001Z</time></trkpt><trkpt lat="47.70251092569614" lon="10.890049639170822"><ele>850.0</ele><time>2026-05-01T09:13:31.001Z</time></trkpt><trkpt lat="47.70251630730376" lon="10.890362025090099"><ele>850.6666666666666</ele><time>2026-05-01T09:13:32.001Z</time></trkpt><trkpt lat="47.70251881985777" lon="10.890662197189217"><ele>851.3333333333333</ele><time>2026-05-01T09:13:33.001Z</time></trkpt><trkpt lat="47.70252563409636" lon="10.890955946260384"><ele>852.0</ele><time>2026-05-01T09:13:34.001Z</time></trkpt><trkpt lat="47.702544466902864" lon="10.891248246645574"><ele>852.0</ele><time>2026-05-01T09:13:35.001Z</time></trkpt><trkpt lat="47.702576343846346" lon="10.891538782220756"><ele>852.0</ele><time>2026-05-01T09:13:36.001Z</time></trkpt><trkpt lat="47.702616085603324" lon="10.891831439459523"><ele>852.0</ele><time>2026-05-01T09:13:37.001Z</time></trkpt><trkpt lat="47.70265569961324" lon="10.892127507255372"><ele>853.0</ele><time>2026-05-01T09:13:38.002Z</time></trkpt><trkpt lat="47.70269112216296" lon="10.892420318833114"><ele>854.0</ele><time>2026-05-01T09:13:39.002Z</time></trkpt><trkpt lat="47.702719909813254" lon="10.892713980221558"><ele>855.0</ele><time>2026-05-01T09:13:40.002Z</time></trkpt><trkpt lat="47.702741397725475" lon="10.893011463314117"><ele>856.3333333333333</ele><time>2026-05-01T09:13:41.002Z</time></trkpt><trkpt lat="47.702752943538705" lon="10.893309171710236"><ele>857.6666666666666</ele><time>2026-05-01T09:13:42.002Z</time></trkpt><trkpt lat="47.70275572352392" lon="10.893609026517627"><ele>859.0</ele><time>2026-05-01T09:13:43.002Z</time></trkpt><trkpt lat="47.702753512641955" lon="10.893914338912762"><ele>860.3333333333333</ele><time>2026-05-01T09:13:44.002Z</time></trkpt><trkpt lat="47.70275112122466" lon="10.894222637323368"><ele>861.6666666666667</ele><time>2026-05-01T09:13:45.002Z</time></trkpt><trkpt lat="47.702750289520345" lon="10.894531965476451"><ele>863.0</ele><time>2026-05-01T09:13:46.002Z</time></trkpt><trkpt lat="47.70274762262287" lon="10.894819887916725"><ele>860.6666666666667</ele><time>2026-05-01T09:13:47.002Z</time></trkpt><trkpt lat="47.702744409397226" lon="10.895097545168536"><ele>858.3333333333333</ele><time>2026-05-01T09:13:48.002Z</time></trkpt><trkpt lat="47.70274146453386" lon="10.895383765706356"><ele>856.0</ele><time>2026-05-01T09:13:49.002Z</time></trkpt><trkpt lat="47.70273795726628" lon="10.895675252829497"><ele>854.6666666666666</ele><time>2026-05-01T09:13:50.002Z</time></trkpt><trkpt lat="47.70273658711818" lon="10.89597447478712"><ele>853.3333333333333</ele><time>2026-05-01T09:13:51.002Z</time></trkpt><trkpt lat="47.702735267422405" lon="10.896276323400631"><ele>852.0</ele><time>2026-05-01T09:13:52.002Z</time></trkpt><trkpt lat="47.702736529645485" lon="10.896582644836643"><ele>851.0</ele><time>2026-05-01T09:13:53.002Z</time></trkpt><trkpt lat="47.702739183766184" lon="10.896895764485569"><ele>850.0</ele><time>2026-05-01T09:13:54.002Z</time></trkpt><trkpt lat="47.70274251959115" lon="10.897209832285167"><ele>849.0</ele><time>2026-05-01T09:13:55.002Z</time></trkpt><trkpt lat="47.70274490623507" lon="10.897509941179994"><ele>849.6666666666667</ele><time>2026-05-01T09:13:56.002Z</time></trkpt><trkpt lat="47.70274414816327" lon="10.897814711699903"><ele>850.3333333333334</ele><time>2026-05-01T09:13:57.002Z</time></trkpt><trkpt lat="47.70273481950998" lon="10.898121391918979"><ele>851.0</ele><time>2026-05-01T09:13:58.002Z</time></trkpt><trkpt lat="47.70270625949554" lon="10.898423466438418"><ele>851.0</ele><time>2026-05-01T09:13:59.002Z</time></trkpt><trkpt lat="47.70266016942224" lon="10.898726113011818"><ele>851.0</ele><time>2026-05-01T09:14:00.002Z</time></trkpt><trkpt lat="47.70259607329978" lon="10.899023989015458"><ele>851.0</ele><time>2026-05-01T09:14:01.002Z</time></trkpt><trkpt lat="47.70251841750973" lon="10.899320582414791"><ele>854.3333333333334</ele><time>2026-05-01T09:14:02.002Z</time></trkpt><trkpt lat="47.70243880215852" lon="10.899625098021742"><ele>857.6666666666667</ele><time>2026-05-01T09:14:03.002Z</time></trkpt><trkpt lat="47.70236374345331" lon="10.899919914899694"><ele>861.0</ele><time>2026-05-01T09:14:04.002Z</time></trkpt><trkpt lat="47.702296971917896" lon="10.900201272729465"><ele>862.0</ele><time>2026-05-01T09:14:05.002Z</time></trkpt><trkpt lat="47.70224242835522" lon="10.90046976616073"><ele>863.0</ele><time>2026-05-01T09:14:06.002Z</time></trkpt><trkpt lat="47.70220079060172" lon="10.900724013355052"><ele>864.0</ele><time>2026-05-01T09:14:07.002Z</time></trkpt><trkpt lat="47.70216486976336" lon="10.900968564037164"><ele>865.0</ele><time>2026-05-01T09:14:08.002Z</time></trkpt><trkpt lat="47.70213711693705" lon="10.90120083757585"><ele>866.0</ele><time>2026-05-01T09:14:09.002Z</time></trkpt><trkpt lat="47.702112247130096" lon="10.901430381796303"><ele>867.0</ele><time>2026-05-01T09:14:10.002Z</time></trkpt><trkpt lat="47.702093200031285" lon="10.901645361363704"><ele>868.0</ele><time>2026-05-01T09:14:11.002Z</time></trkpt><trkpt lat="47.70207953706548" lon="10.901837416727654"><ele>869.0</ele><time>2026-05-01T09:14:12.002Z</time></trkpt><trkpt lat="47.70206767856006" lon="10.902011984953731"><ele>870.0</ele><time>2026-05-01T09:14:13.002Z</time></trkpt><trkpt lat="47.702056102906845" lon="10.902166888045429"><ele>871.0</ele><time>2026-05-01T09:14:14.002Z</time></trkpt><trkpt lat="47.70204444855717" lon="10.90230201809656"><ele>872.0</ele><time>2026-05-01T09:14:15.002Z</time></trkpt><trkpt lat="47.70203470158971" lon="10.902431250279067"><ele>872.0</ele><time>2026-05-01T09:14:16.002Z</time></trkpt><trkpt lat="47.7020263414265" lon="10.90256612902882"><ele>872.0</ele><time>2026-05-01T09:14:17.003Z</time></trkpt><trkpt lat="47.702016381323666" lon="10.902716182210266"><ele>872.0</ele><time>2026-05-01T09:14:18.003Z</time></trkpt><trkpt lat="47.70200346928108" lon="10.902883340646497"><ele>872.0</ele><time>2026-05-01T09:14:19.003Z</time></trkpt><trkpt lat="47.70199213881053" lon="10.903067292581413"><ele>872.0</ele><time>2026-05-01T09:14:20.003Z</time></trkpt><trkpt lat="47.701981405104426" lon="10.903268081507152"><ele>868.3333333333334</ele><time>2026-05-01T09:14:21.003Z</time></trkpt><trkpt lat="47.70196942983532" lon="10.903486216292757"><ele>864.6666666666667</ele><time>2026-05-01T09:14:22.003Z</time></trkpt><trkpt lat="47.70196202176869" lon="10.903718668333829"><ele>861.0</ele><time>2026-05-01T09:14:22.999Z</time></trkpt><trkpt lat="47.70196194982981" lon="10.90396396786693"><ele>861.0</ele><time>2026-05-01T09:14:23.999Z</time></trkpt><trkpt lat="47.701976719373576" lon="10.904215425168493"><ele>861.0</ele><time>2026-05-01T09:14:24.999Z</time></trkpt><trkpt lat="47.70200644266892" lon="10.904460524821662"><ele>861.0</ele><time>2026-05-01T09:14:25.999Z</time></trkpt><trkpt lat="47.70205244417534" lon="10.90470678438484"><ele>860.6666666666667</ele><time>2026-05-01T09:14:26.999Z</time></trkpt><trkpt lat="47.70211340467016" lon="10.90496082784862"><ele>860.3333333333334</ele><time>2026-05-01T09:14:27.999Z</time></trkpt><trkpt lat="47.70219110088801" lon="10.905219379291209"><ele>860.0</ele><time>2026-05-01T09:14:28.999Z</time></trkpt><trkpt lat="47.70228764211941" lon="10.90547526542403"><ele>858.6666666666667</ele><time>2026-05-01T09:14:29.999Z</time></trkpt><trkpt lat="47.70239835993634" lon="10.905732912972256"><ele>857.3333333333333</ele><time>2026-05-01T09:14:30.999Z</time></trkpt><trkpt lat="47.702514507192674" lon="10.905999742669108"><ele>856.0</ele><time>2026-05-01T09:14:31.999Z</time></trkpt><trkpt lat="47.70263248495188" lon="10.906270628156918"><ele>859.3333333333333</ele><time>2026-05-01T09:14:32.999Z</time></trkpt><trkpt lat="47.702748827845326" lon="10.906536384012666"><ele>862.6666666666667</ele><time>2026-05-01T09:14:33.999Z</time></trkpt><trkpt lat="47.702864856410805" lon="10.906815302552841"><ele>866.0</ele><time>2026-05-01T09:14:34.999Z</time></trkpt><trkpt lat="47.70297584716237" lon="10.907109492514142"><ele>866.0</ele><time>2026-05-01T09:14:35.999Z</time></trkpt><trkpt lat="47.70307816065028" lon="10.907418617331947"><ele>866.0</ele><time>2026-05-01T09:14:36.999Z</time></trkpt><trkpt lat="47.703163031752275" lon="10.90774481076508"><ele>864.0</ele><time>2026-05-01T09:14:37.999Z</time></trkpt><trkpt lat="47.703232252262886" lon="10.908086054311546"><ele>862.0</ele><time>2026-05-01T09:14:38.999Z</time></trkpt><trkpt lat="47.70328370265047" lon="10.908436072928886"><ele>858.5</ele><time>2026-05-01T09:14:39.999Z</time></trkpt><trkpt lat="47.70331836974086" lon="10.908795525005317"><ele>855.0</ele><time>2026-05-01T09:14:41Z</time></trkpt><trkpt lat="47.70334418531713" lon="10.909149549192735"><ele>852.5</ele><time>2026-05-01T09:14:42Z</time></trkpt><trkpt lat="47.703362268926" lon="10.90949352008245"><ele>850.0</ele><time>2026-05-01T09:14:43Z</time></trkpt><trkpt lat="47.7033771100969" lon="10.90983384765668"><ele>848.0</ele><time>2026-05-01T09:14:44Z</time></trkpt><trkpt lat="47.703385776771285" lon="10.910170490283493"><ele>846.0</ele><time>2026-05-01T09:14:45Z</time></trkpt><trkpt lat="47.70339434998598" lon="10.91050245924637"><ele>846.0</ele><time>2026-05-01T09:14:46Z</time></trkpt><trkpt lat="47.70340082007032" lon="10.910838357746425"><ele>846.0</ele><time>2026-05-01T09:14:47Z</time></trkpt><trkpt lat="47.70340853350534" lon="10.91117251976388"><ele>844.6666666666667</ele><time>2026-05-01T09:14:48Z</time></trkpt><trkpt lat="47.703418132235655" lon="10.911503414611767"><ele>843.3333333333334</ele><time>2026-05-01T09:14:49Z</time></trkpt><trkpt lat="47.703430343199805" lon="10.911834218098132"><ele>842.0</ele><time>2026-05-01T09:14:50Z</time></trkpt><trkpt lat="47.70343798528515" lon="10.91216541836252"><ele>841.6666666666667</ele><time>2026-05-01T09:14:51Z</time></trkpt><trkpt lat="47.703446267790966" lon="10.912498005544176"><ele>841.3333333333333</ele><time>2026-05-01T09:14:52Z</time></trkpt><trkpt lat="47.70345772680621" lon="10.912831502525885"><ele>841.0</ele><time>2026-05-01T09:14:53Z</time></trkpt><trkpt lat="47.703474237155504" lon="10.913162396197958"><ele>840.3333333333333</ele><time>2026-05-01T09:14:54Z</time></trkpt><trkpt lat="47.70349570985902" lon="10.913492836923313"><ele>839.6666666666667</ele><time>2026-05-01T09:14:55Z</time></trkpt><trkpt lat="47.70352541005475" lon="10.913821272438357"><ele>839.0</ele><time>2026-05-01T09:14:56Z</time></trkpt><trkpt lat="47.70356251409024" lon="10.914145500489704"><ele>842.0</ele><time>2026-05-01T09:14:57Z</time></trkpt><trkpt lat="47.70360770589351" lon="10.914469451156993"><ele>845.0</ele><time>2026-05-01T09:14:58Z</time></trkpt><trkpt lat="47.70365796676771" lon="10.914789775232524"><ele>848.0</ele><time>2026-05-01T09:14:59Z</time></trkpt><trkpt lat="47.70371483019337" lon="10.915112484371281"><ele>848.0</ele><time>2026-05-01T09:15:00Z</time></trkpt><trkpt lat="47.70377770828381" lon="10.915434706722664"><ele>848.0</ele><time>2026-05-01T09:15:01Z</time></trkpt><trkpt lat="47.70384219115733" lon="10.915753091802689"><ele>847.0</ele><time>2026-05-01T09:15:02Z</time></trkpt><trkpt lat="47.70390702532728" lon="10.916073327724336"><ele>846.0</ele><time>2026-05-01T09:15:03Z</time></trkpt><trkpt lat="47.703973286945946" lon="10.916389630302325"><ele>845.0</ele><time>2026-05-01T09:15:04Z</time></trkpt><trkpt lat="47.704045763808224" lon="10.916711706460802"><ele>843.5</ele><time>2026-05-01T09:15:05Z</time></trkpt><trkpt lat="47.704117329772885" lon="10.91703741083292"><ele>842.0</ele><time>2026-05-01T09:15:06Z</time></trkpt><trkpt lat="47.70418421197569" lon="10.917369250765843"><ele>841.0</ele><time>2026-05-01T09:15:07Z</time></trkpt><trkpt lat="47.70424832735362" lon="10.917704287793846"><ele>840.0</ele><time>2026-05-01T09:15:08Z</time></trkpt><trkpt lat="47.70430369975783" lon="10.9180452584596"><ele>840.0</ele><time>2026-05-01T09:15:09Z</time></trkpt><trkpt lat="47.704342255898524" lon="10.918390838808604"><ele>840.0</ele><time>2026-05-01T09:15:10Z</time></trkpt><trkpt lat="47.70435947684613" lon="10.918736054108722"><ele>839.5</ele><time>2026-05-01T09:15:11.001Z</time></trkpt><trkpt lat="47.70436087852764" lon="10.919082510220257"><ele>839.0</ele><time>2026-05-01T09:15:12.001Z</time></trkpt><trkpt lat="47.70434857947893" lon="10.919432959739959"><ele>839.0</ele><time>2026-05-01T09:15:13.001Z</time></trkpt><trkpt lat="47.704319676757926" lon="10.91977974603783"><ele>839.0</ele><time>2026-05-01T09:15:14.001Z</time></trkpt><trkpt lat="47.70427382448986" lon="10.920127906048041"><ele>839.5</ele><time>2026-05-01T09:15:15.001Z</time></trkpt><trkpt lat="47.704216869913424" lon="10.92047148937066"><ele>840.0</ele><time>2026-05-01T09:15:16.001Z</time></trkpt><trkpt lat="47.70415318307856" lon="10.920812844545733"><ele>840.0</ele><time>2026-05-01T09:15:17.001Z</time></trkpt><trkpt lat="47.70409098175742" lon="10.921135781949946"><ele>840.0</ele><time>2026-05-01T09:15:18.001Z</time></trkpt><trkpt lat="47.70403522985176" lon="10.921440678867043"><ele>840.0</ele><time>2026-05-01T09:15:19.001Z</time></trkpt><trkpt lat="47.70398592355956" lon="10.921736052066048"><ele>840.6666666666667</ele><time>2026-05-01T09:15:20.001Z</time></trkpt><trkpt lat="47.70395363252636" lon="10.922019238266218"><ele>841.3333333333334</ele><time>2026-05-01T09:15:21.001Z</time></trkpt><trkpt lat="47.703935405285954" lon="10.922289604649722"><ele>842.0</ele><time>2026-05-01T09:15:22.001Z</time></trkpt><trkpt lat="47.703931359442784" lon="10.92255487233902"><ele>841.3333333333334</ele><time>2026-05-01T09:15:23.001Z</time></trkpt><trkpt lat="47.70394297707046" lon="10.922817069785006"><ele>840.6666666666667</ele><time>2026-05-01T09:15:24.001Z</time></trkpt><trkpt lat="47.70397254596635" lon="10.92307586461298"><ele>840.0</ele><time>2026-05-01T09:15:25.001Z</time></trkpt><trkpt lat="47.70401601681694" lon="10.923329980784535"><ele>838.6666666666667</ele><time>2026-05-01T09:15:26.001Z</time></trkpt><trkpt lat="47.704072460076866" lon="10.923575320801822"><ele>837.3333333333334</ele><time>2026-05-01T09:15:27.001Z</time></trkpt><trkpt lat="47.704139908841405" lon="10.923816406113916"><ele>836.0</ele><time>2026-05-01T09:15:28.001Z</time></trkpt><trkpt lat="47.70421008792691" lon="10.924054745743343"><ele>835.6666666666667</ele><time>2026-05-01T09:15:29.001Z</time></trkpt><trkpt lat="47.70427472872587" lon="10.924292095528191"><ele>835.3333333333333</ele><time>2026-05-01T09:15:30.001Z</time></trkpt><trkpt lat="47.70433410220911" lon="10.924534970727679"><ele>835.0</ele><time>2026-05-01T09:15:31.001Z</time></trkpt><trkpt lat="47.70437944251279" lon="10.924782686864992"><ele>838.0</ele><time>2026-05-01T09:15:32.001Z</time></trkpt><trkpt lat="47.70441528873474" lon="10.925037800737675"><ele>841.0</ele><time>2026-05-01T09:15:33.001Z</time></trkpt><trkpt lat="47.70443352857776" lon="10.925294939999986"><ele>844.0</ele><time>2026-05-01T09:15:34.001Z</time></trkpt><trkpt lat="47.704436928633626" lon="10.925553233029069"><ele>844.0</ele><time>2026-05-01T09:15:35.001Z</time></trkpt><trkpt lat="47.70442724497445" lon="10.925809592374769"><ele>844.0</ele><time>2026-05-01T09:15:36.001Z</time></trkpt><trkpt lat="47.704411672583234" lon="10.926065727042767"><ele>844.0</ele><time>2026-05-01T09:15:37.001Z</time></trkpt><trkpt lat="47.7043928858988" lon="10.92631571581277"><ele>844.3333333333333</ele><time>2026-05-01T09:15:38.001Z</time></trkpt><trkpt lat="47.704371262654725" lon="10.926557295370227"><ele>844.6666666666667</ele><time>2026-05-01T09:15:39.001Z</time></trkpt><trkpt lat="47.7043566276863" lon="10.926794750111995"><ele>845.0</ele><time>2026-05-01T09:15:40.001Z</time></trkpt><trkpt lat="47.70435610354085" lon="10.927038106942184"><ele>845.3333333333334</ele><time>2026-05-01T09:15:41.001Z</time></trkpt><trkpt lat="47.70436589109794" lon="10.927287970775238"><ele>845.6666666666667</ele><time>2026-05-01T09:15:42.001Z</time></trkpt><trkpt lat="47.70438697022498" lon="10.927536759463427"><ele>846.0</ele><time>2026-05-01T09:15:43.001Z</time></trkpt><trkpt lat="47.704417985977265" lon="10.927793206268213"><ele>842.3333333333333</ele><time>2026-05-01T09:15:44.001Z</time></trkpt><trkpt lat="47.70446125574223" lon="10.928048105469154"><ele>838.6666666666666</ele><time>2026-05-01T09:15:45.001Z</time></trkpt><trkpt lat="47.70451281888268" lon="10.928302843261172"><ele>835.0</ele><time>2026-05-01T09:15:46.001Z</time></trkpt><trkpt lat="47.70457128632852" lon="10.928562263336948"><ele>835.0</ele><time>2026-05-01T09:15:47.002Z</time></trkpt><trkpt lat="47.704629465197584" lon="10.928818649379684"><ele>835.0</ele><time>2026-05-01T09:15:48.002Z</time></trkpt><trkpt lat="47.70468327388867" lon="10.92906254041759"><ele>835.0</ele><time>2026-05-01T09:15:49.002Z</time></trkpt><trkpt lat="47.70473470638329" lon="10.929310403597762"><ele>836.0</ele><time>2026-05-01T09:15:50.002Z</time></trkpt><trkpt lat="47.704780500586985" lon="10.92955965069974"><ele>837.0</ele><time>2026-05-01T09:15:51.002Z</time></trkpt><trkpt lat="47.7048171628551" lon="10.92981485569984"><ele>838.0</ele><time>2026-05-01T09:15:52.002Z</time></trkpt><trkpt lat="47.70483861579162" lon="10.930076568845614"><ele>839.6666666666666</ele><time>2026-05-01T09:15:53.002Z</time></trkpt><trkpt lat="47.704840905439305" lon="10.930336826137506"><ele>841.3333333333333</ele><time>2026-05-01T09:15:54.002Z</time></trkpt><trkpt lat="47.70482726228876" lon="10.930596073998338"><ele>843.0</ele><time>2026-05-01T09:15:55.002Z</time></trkpt><trkpt lat="47.70479804898056" lon="10.930847549075967"><ele>844.6666666666667</ele><time>2026-05-01T09:15:56.002Z</time></trkpt><trkpt lat="47.70475416477794" lon="10.931093977923531"><ele>846.3333333333334</ele><time>2026-05-01T09:15:57.002Z</time></trkpt><trkpt lat="47.704705008942426" lon="10.931338581625168"><ele>848.0</ele><time>2026-05-01T09:15:58.002Z</time></trkpt><trkpt lat="47.70465531686903" lon="10.93158432483677"><ele>849.3333333333334</ele><time>2026-05-01T09:15:59.002Z</time></trkpt><trkpt lat="47.70461215973567" lon="10.931830320194448"><ele>850.6666666666667</ele><time>2026-05-01T09:16:00.002Z</time></trkpt><trkpt lat="47.70458084543837" lon="10.932080267290779"><ele>852.0</ele><time>2026-05-01T09:16:01.002Z</time></trkpt><trkpt lat="47.70456302442364" lon="10.932332324325673"><ele>853.3333333333333</ele><time>2026-05-01T09:16:02.002Z</time></trkpt><trkpt lat="47.70455374117362" lon="10.932590110470269"><ele>854.6666666666666</ele><time>2026-05-01T09:16:03.002Z</time></trkpt><trkpt lat="47.70454999623745" lon="10.93284904425123"><ele>856.0</ele><time>2026-05-01T09:16:04.002Z</time></trkpt><trkpt lat="47.70454687845894" lon="10.933109761285744"><ele>856.0</ele><time>2026-05-01T09:16:05.002Z</time></trkpt><trkpt lat="47.70453664409404" lon="10.933368669144814"><ele>856.0</ele><time>2026-05-01T09:16:06.002Z</time></trkpt><trkpt lat="47.704515690133654" lon="10.933623932646215"><ele>856.0</ele><time>2026-05-01T09:16:07.002Z</time></trkpt><trkpt lat="47.70448218075354" lon="10.933877159865771"><ele>857.6666666666666</ele><time>2026-05-01T09:16:08.002Z</time></trkpt><trkpt lat="47.70443170297658" lon="10.934119495668442"><ele>859.3333333333333</ele><time>2026-05-01T09:16:09.002Z</time></trkpt><trkpt lat="47.704366886932526" lon="10.934351737214442"><ele>861.0</ele><time>2026-05-01T09:16:10.002Z</time></trkpt><trkpt lat="47.70429005794334" lon="10.93457387191761"><ele>859.3333333333333</ele><time>2026-05-01T09:16:11.002Z</time></trkpt><trkpt lat="47.70420533162523" lon="10.934786392459982"><ele>857.6666666666666</ele><time>2026-05-01T09:16:12.002Z</time></trkpt><trkpt lat="47.704122784768394" lon="10.934983346513464"><ele>856.0</ele><time>2026-05-01T09:16:13.002Z</time></trkpt><trkpt lat="47.70404763717494" lon="10.93516860975855"><ele>856.0</ele><time>2026-05-01T09:16:14.002Z</time></trkpt><trkpt lat="47.70397822747308" lon="10.935354613689524"><ele>856.0</ele><time>2026-05-01T09:16:15.002Z</time></trkpt><trkpt lat="47.70392090078565" lon="10.935535359047968"><ele>856.0</ele><time>2026-05-01T09:16:16.002Z</time></trkpt><trkpt lat="47.70387291299037" lon="10.935719903689858"><ele>856.0</ele><time>2026-05-01T09:16:17.002Z</time></trkpt><trkpt lat="47.70383714491152" lon="10.9359087059251"><ele>857.25</ele><time>2026-05-01T09:16:18.002Z</time></trkpt><trkpt lat="47.70381088359514" lon="10.936098718158691"><ele>858.5</ele><time>2026-05-01T09:16:19.002Z</time></trkpt><trkpt lat="47.70379404513037" lon="10.936291412132398"><ele>859.75</ele><time>2026-05-01T09:16:20.002Z</time></trkpt><trkpt lat="47.70378418995216" lon="10.936483289633726"><ele>861.0</ele><time>2026-05-01T09:16:21.002Z</time></trkpt><trkpt lat="47.70378252027099" lon="10.936676431517197"><ele>861.5</ele><time>2026-05-01T09:16:22.002Z</time></trkpt><trkpt lat="47.70378942822012" lon="10.936869808864786"><ele>862.0</ele><time>2026-05-01T09:16:23.003Z</time></trkpt><trkpt lat="47.703801905034844" lon="10.937060639419705"><ele>862.5</ele><time>2026-05-01T09:16:24.003Z</time></trkpt><trkpt lat="47.703825071949865" lon="10.937247391100737"><ele>863.0</ele><time>2026-05-01T09:16:25.003Z</time></trkpt><trkpt lat="47.7038590824736" lon="10.937429287087431"><ele>863.0</ele><time>2026-05-01T09:16:26.003Z</time></trkpt><trkpt lat="47.70390538584437" lon="10.937606850098998"><ele>863.0</ele><time>2026-05-01T09:16:27.003Z</time></trkpt><trkpt lat="47.70396010557406" lon="10.937779170961567"><ele>863.0</ele><time>2026-05-01T09:16:28.003Z</time></trkpt><trkpt lat="47.70402272393355" lon="10.937947960880585"><ele>863.0</ele><time>2026-05-01T09:16:29Z</time></trkpt><trkpt lat="47.704092147557525" lon="10.938113169498953"><ele>863.0</ele><time>2026-05-01T09:16:30Z</time></trkpt><trkpt lat="47.70416776942837" lon="10.938273190511742"><ele>863.0</ele><time>2026-05-01T09:16:31Z</time></trkpt><trkpt lat="47.704248481346994" lon="10.93842981960428"><ele>863.0</ele><time>2026-05-01T09:16:32Z</time></trkpt><trkpt lat="47.7043321330824" lon="10.938582629167328"><ele>863.0</ele><time>2026-05-01T09:16:33Z</time></trkpt><trkpt lat="47.70441458007745" lon="10.938734157679388"><ele>863.75</ele><time>2026-05-01T09:16:34Z</time></trkpt><trkpt lat="47.70450065130994" lon="10.93888527663911"><ele>864.5</ele><time>2026-05-01T09:16:35Z</time></trkpt><trkpt lat="47.704588088237536" lon="10.939034904964412"><ele>865.25</ele><time>2026-05-01T09:16:36Z</time></trkpt><trkpt lat="47.704676678486486" lon="10.939182778826655"><ele>866.0</ele><time>2026-05-01T09:16:37Z</time></trkpt><trkpt lat="47.70476547714273" lon="10.93932979185361"><ele>867.25</ele><time>2026-05-01T09:16:38Z</time></trkpt><trkpt lat="47.70485144534992" lon="10.93948010651742"><ele>868.5</ele><time>2026-05-01T09:16:39Z</time></trkpt><trkpt lat="47.704932139667015" lon="10.93963444180479"><ele>869.75</ele><time>2026-05-01T09:16:40Z</time></trkpt><trkpt lat="47.70500925928244" lon="10.93979475617619"><ele>871.0</ele><time>2026-05-01T09:16:41Z</time></trkpt><trkpt lat="47.705081505037946" lon="10.939959732774376"><ele>871.0</ele><time>2026-05-01T09:16:42Z</time></trkpt><trkpt lat="47.705146397435605" lon="10.940131093636294"><ele>871.0</ele><time>2026-05-01T09:16:43Z</time></trkpt><trkpt lat="47.70520028707345" lon="10.940310970255476"><ele>871.0</ele><time>2026-05-01T09:16:44Z</time></trkpt><trkpt lat="47.705241619369524" lon="10.940497280470609"><ele>871.0</ele><time>2026-05-01T09:16:45Z</time></trkpt><trkpt lat="47.705272284668695" lon="10.940690233338508"><ele>872.0</ele><time>2026-05-01T09:16:46Z</time></trkpt><trkpt lat="47.705294792363425" lon="10.94088445711426"><ele>873.0</ele><time>2026-05-01T09:16:47Z</time></trkpt><trkpt lat="47.70531132533993" lon="10.941084004493764"><ele>874.0</ele><time>2026-05-01T09:16:48Z</time></trkpt><trkpt lat="47.705324267516865" lon="10.941286890702333"><ele>875.0</ele><time>2026-05-01T09:16:49Z</time></trkpt><trkpt lat="47.705336561064236" lon="10.94149133307065"><ele>875.0</ele><time>2026-05-01T09:16:50Z</time></trkpt><trkpt lat="47.70534841102916" lon="10.94169625052279"><ele>875.0</ele><time>2026-05-01T09:16:51.001Z</time></trkpt><trkpt lat="47.70536018556745" lon="10.941890910767848"><ele>875.0</ele><time>2026-05-01T09:16:52.001Z</time></trkpt><trkpt lat="47.70537561660787" lon="10.942085523505467"><ele>875.0</ele><time>2026-05-01T09:16:53.001Z</time></trkpt><trkpt lat="47.705397343804435" lon="10.942282688937661"><ele>874.75</ele><time>2026-05-01T09:16:54.001Z</time></trkpt><trkpt lat="47.70542931809609" lon="10.942477841157581"><ele>874.5</ele><time>2026-05-01T09:16:55.001Z</time></trkpt><trkpt lat="47.705469176083376" lon="10.942668395161116"><ele>874.25</ele><time>2026-05-01T09:16:56.001Z</time></trkpt><trkpt lat="47.70551962693376" lon="10.942856133584907"><ele>874.0</ele><time>2026-05-01T09:16:57.001Z</time></trkpt><trkpt lat="47.7055805110539" lon="10.943038919850073"><ele>874.0</ele><time>2026-05-01T09:16:58.001Z</time></trkpt><trkpt lat="47.705657464274914" lon="10.943227487890635"><ele>874.0</ele><time>2026-05-01T09:16:59.001Z</time></trkpt><trkpt lat="47.705754808930855" lon="10.943422290543035"><ele>874.0</ele><time>2026-05-01T09:17:00.001Z</time></trkpt><trkpt lat="47.70585741627047" lon="10.943626925081338"><ele>873.3333333333333</ele><time>2026-05-01T09:17:01.001Z</time></trkpt><trkpt lat="47.70595650270337" lon="10.943847662890265"><ele>872.6666666666667</ele><time>2026-05-01T09:17:02.001Z</time></trkpt><trkpt lat="47.70604828029223" lon="10.944068214426576"><ele>872.0</ele><time>2026-05-01T09:17:03.001Z</time></trkpt><trkpt lat="47.70613096504476" lon="10.944300292686997"><ele>872.0</ele><time>2026-05-01T09:17:04.001Z</time></trkpt><trkpt lat="47.706204566027864" lon="10.944542373761006"><ele>872.0</ele><time>2026-05-01T09:17:05.001Z</time></trkpt><trkpt lat="47.70627053308923" lon="10.94479772422343"><ele>872.0</ele><time>2026-05-01T09:17:06.001Z</time></trkpt><trkpt lat="47.70632818992149" lon="10.945065018600276"><ele>871.3333333333334</ele><time>2026-05-01T09:17:07.001Z</time></trkpt><trkpt lat="47.70638162052428" lon="10.945342880222384"><ele>870.6666666666667</ele><time>2026-05-01T09:17:08.001Z</time></trkpt><trkpt lat="47.70643919671068" lon="10.945625205919821"><ele>870.0</ele><time>2026-05-01T09:17:09.001Z</time></trkpt><trkpt lat="47.706505409833426" lon="10.94591225531125"><ele>869.3333333333333</ele><time>2026-05-01T09:17:10.001Z</time></trkpt><trkpt lat="47.70657697131388" lon="10.94618921797506"><ele>868.6666666666666</ele><time>2026-05-01T09:17:11.001Z</time></trkpt><trkpt lat="47.70665867276423" lon="10.946458811925897"><ele>868.0</ele><time>2026-05-01T09:17:12.001Z</time></trkpt><trkpt lat="47.70675690755017" lon="10.946723820271174"><ele>866.6666666666666</ele><time>2026-05-01T09:17:13.001Z</time></trkpt><trkpt lat="47.70686466084489" lon="10.946987319405252"><ele>865.3333333333333</ele><time>2026-05-01T09:17:14.001Z</time></trkpt><trkpt lat="47.70698157100334" lon="10.947247699639675"><ele>864.0</ele><time>2026-05-01T09:17:15.001Z</time></trkpt><trkpt lat="47.70710042902225" lon="10.947510314933472"><ele>866.3333333333333</ele><time>2026-05-01T09:17:16.001Z</time></trkpt><trkpt lat="47.707222487415265" lon="10.947777004040363"><ele>868.6666666666666</ele><time>2026-05-01T09:17:17.001Z</time></trkpt><trkpt lat="47.70734503799545" lon="10.948044371631916"><ele>871.0</ele><time>2026-05-01T09:17:18.001Z</time></trkpt><trkpt lat="47.707471812246766" lon="10.948314220312149"><ele>871.6666666666666</ele><time>2026-05-01T09:17:19.001Z</time></trkpt><trkpt lat="47.70760033937687" lon="10.948586675118937"><ele>872.3333333333333</ele><time>2026-05-01T09:17:20.001Z</time></trkpt><trkpt lat="47.707728089810225" lon="10.94885958071677"><ele>873.0</ele><time>2026-05-01T09:17:21.001Z</time></trkpt><trkpt lat="47.70785231765886" lon="10.949121607690689"><ele>871.6666666666667</ele><time>2026-05-01T09:17:22.001Z</time></trkpt><trkpt lat="47.707977497599586" lon="10.949387086242293"><ele>870.3333333333334</ele><time>2026-05-01T09:17:23.001Z</time></trkpt><trkpt lat="47.70810674325144" lon="10.949647498677178"><ele>869.0</ele><time>2026-05-01T09:17:24.001Z</time></trkpt><trkpt lat="47.70824453149325" lon="10.949899903596902"><ele>870.6666666666667</ele><time>2026-05-01T09:17:25.002Z</time></trkpt><trkpt lat="47.70839094779703" lon="10.950143370366424"><ele>872.3333333333333</ele><time>2026-05-01T09:17:26.002Z</time></trkpt><trkpt lat="47.708546723505016" lon="10.95038179451865"><ele>874.0</ele><time>2026-05-01T09:17:27.002Z</time></trkpt><trkpt lat="47.708707922592815" lon="10.950611064499071"><ele>874.0</ele><time>2026-05-01T09:17:28.002Z</time></trkpt><trkpt lat="47.70887103292379" lon="10.950841299399006"><ele>874.0</ele><time>2026-05-01T09:17:29.002Z</time></trkpt><trkpt lat="47.70903617156668" lon="10.951072358428029"><ele>872.0</ele><time>2026-05-01T09:17:30.002Z</time></trkpt><trkpt lat="47.70920453876322" lon="10.951305733336877"><ele>870.0</ele><time>2026-05-01T09:17:31.002Z</time></trkpt><trkpt lat="47.709369892104725" lon="10.951533796812335"><ele>866.6666666666667</ele><time>2026-05-01T09:17:32.002Z</time></trkpt><trkpt lat="47.70952862071805" lon="10.951757313626374"><ele>863.3333333333334</ele><time>2026-05-01T09:17:33.002Z</time></trkpt><trkpt lat="47.70967935152919" lon="10.951988499392266"><ele>860.0</ele><time>2026-05-01T09:17:34.002Z</time></trkpt><trkpt lat="47.70981816675723" lon="10.952240739392145"><ele>860.0</ele><time>2026-05-01T09:17:35.002Z</time></trkpt><trkpt lat="47.709943569215106" lon="10.952512134498365"><ele>860.0</ele><time>2026-05-01T09:17:36.002Z</time></trkpt><trkpt lat="47.71004439302729" lon="10.952801716299557"><ele>860.0</ele><time>2026-05-01T09:17:37.002Z</time></trkpt><trkpt lat="47.71012622560747" lon="10.953102896588113"><ele>857.0</ele><time>2026-05-01T09:17:38.002Z</time></trkpt><trkpt lat="47.71019375661399" lon="10.95341668431579"><ele>854.0</ele><time>2026-05-01T09:17:39.002Z</time></trkpt><trkpt lat="47.71024130425496" lon="10.95373665101792"><ele>851.0</ele><time>2026-05-01T09:17:40.002Z</time></trkpt><trkpt lat="47.71026329499841" lon="10.954065113348678"><ele>849.6666666666667</ele><time>2026-05-01T09:17:41.002Z</time></trkpt><trkpt lat="47.710262576209495" lon="10.954397683941263"><ele>848.3333333333333</ele><time>2026-05-01T09:17:42.002Z</time></trkpt><trkpt lat="47.710240438935884" lon="10.954728412407924"><ele>847.0</ele><time>2026-05-01T09:17:43.002Z</time></trkpt><trkpt lat="47.71019869192206" lon="10.95505688149732"><ele>845.6666666666666</ele><time>2026-05-01T09:17:44.002Z</time></trkpt><trkpt lat="47.71014047544456" lon="10.955378208920942"><ele>844.3333333333333</ele><time>2026-05-01T09:17:45.002Z</time></trkpt><trkpt lat="47.71006329436644" lon="10.955692172530396"><ele>843.0</ele><time>2026-05-01T09:17:46.002Z</time></trkpt><trkpt lat="47.70999714912815" lon="10.955999295571441"><ele>843.0</ele><time>2026-05-01T09:17:47.002Z</time></trkpt><trkpt lat="47.70988109293117" lon="10.956278048155584"><ele>843.0</ele><time>2026-05-01T09:17:48.002Z</time></trkpt><trkpt lat="47.7097621540483" lon="10.95653285883002"><ele>843.0</ele><time>2026-05-01T09:17:49.002Z</time></trkpt><trkpt lat="47.70964615769216" lon="10.956770209144185"><ele>844.6666666666667</ele><time>2026-05-01T09:17:50.002Z</time></trkpt><trkpt lat="47.70953406651084" lon="10.956996542099544"><ele>846.3333333333334</ele><time>2026-05-01T09:17:51.002Z</time></trkpt><trkpt lat="47.70942559520119" lon="10.957216356903901"><ele>848.0</ele><time>2026-05-01T09:17:52.002Z</time></trkpt><trkpt lat="47.70932212510497" lon="10.957425335461938"><ele>844.6666666666667</ele><time>2026-05-01T09:17:53.002Z</time></trkpt><trkpt lat="47.70921251183189" lon="10.957642570191862"><ele>841.3333333333333</ele><time>2026-05-01T09:17:54.002Z</time></trkpt><trkpt lat="47.70910332578427" lon="10.957860161248771"><ele>838.0</ele><time>2026-05-01T09:17:55.002Z</time></trkpt><trkpt lat="47.708993123599505" lon="10.95807632008725"><ele>838.0</ele><time>2026-05-01T09:17:56.002Z</time></trkpt><trkpt lat="47.70888293912325" lon="10.9582912382285"><ele>838.0</ele><time>2026-05-01T09:17:57.002Z</time></trkpt><trkpt lat="47.708771964127955" lon="10.95850299272481"><ele>838.0</ele><time>2026-05-01T09:17:58.002Z</time></trkpt><trkpt lat="47.70866071755761" lon="10.958712538556107"><ele>837.6666666666666</ele><time>2026-05-01T09:17:59.002Z</time></trkpt><trkpt lat="47.708548415855965" lon="10.958926506831817"><ele>837.3333333333333</ele><time>2026-05-01T09:18:00.003Z</time></trkpt><trkpt lat="47.7084391748862" lon="10.959143667847368"><ele>837.0</ele><time>2026-05-01T09:18:01.003Z</time></trkpt><trkpt lat="47.70833281592812" lon="10.959361142221766"><ele>837.0</ele><time>2026-05-01T09:18:02.003Z</time></trkpt><trkpt lat="47.708232838475" lon="10.959589935003354"><ele>837.0</ele><time>2026-05-01T09:18:03.003Z</time></trkpt><trkpt lat="47.70814159415983" lon="10.9598300323856"><ele>837.0</ele><time>2026-05-01T09:18:04.003Z</time></trkpt><trkpt lat="47.7080653368414" lon="10.9600830314281"><ele>838.6666666666667</ele><time>2026-05-01T09:18:05.003Z</time></trkpt><trkpt lat="47.708004406089906" lon="10.96034595947418"><ele>840.3333333333334</ele><time>2026-05-01T09:18:06.003Z</time></trkpt><trkpt lat="47.707953062656635" lon="10.96061712664196"><ele>842.0</ele><time>2026-05-01T09:18:07.003Z</time></trkpt><trkpt lat="47.70791607898708" lon="10.96089929163671"><ele>842.3333333333334</ele><time>2026-05-01T09:18:08.003Z</time></trkpt><trkpt lat="47.70789252387927" lon="10.961185726351932"><ele>842.6666666666667</ele><time>2026-05-01T09:18:09.003Z</time></trkpt><trkpt lat="47.707889631679556" lon="10.961472514451229"><ele>843.0</ele><time>2026-05-01T09:18:10.003Z</time></trkpt><trkpt lat="47.70789878206681" lon="10.961758708002602"><ele>843.3333333333333</ele><time>2026-05-01T09:18:11.003Z</time></trkpt><trkpt lat="47.70791715893468" lon="10.962045028237135"><ele>843.6666666666666</ele><time>2026-05-01T09:18:12.003Z</time></trkpt><trkpt lat="47.70795054323428" lon="10.96233053688804"><ele>844.0</ele><time>2026-05-01T09:18:13.003Z</time></trkpt><trkpt lat="47.70800301123465" lon="10.962609777774217"><ele>842.0</ele><time>2026-05-01T09:18:14.003Z</time></trkpt><trkpt lat="47.708072894063974" lon="10.96288625903153"><ele>840.0</ele><time>2026-05-01T09:18:15.003Z</time></trkpt><trkpt lat="47.708149997404675" lon="10.963164940240908"><ele>838.0</ele><time>2026-05-01T09:18:16.003Z</time></trkpt><trkpt lat="47.7082291862597" lon="10.96344795406885"><ele>835.6666666666666</ele><time>2026-05-01T09:18:17.003Z</time></trkpt><trkpt lat="47.70830574787569" lon="10.963733374337467"><ele>833.3333333333333</ele><time>2026-05-01T09:18:18.003Z</time></trkpt><trkpt lat="47.70837809067086" lon="10.964008044944952"><ele>831.0</ele><time>2026-05-01T09:18:19.003Z</time></trkpt><trkpt lat="47.70844911808288" lon="10.964294464211228"><ele>830.3333333333333</ele><time>2026-05-01T09:18:20.003Z</time></trkpt><trkpt lat="47.708517577944185" lon="10.964582851708014"><ele>829.6666666666666</ele><time>2026-05-01T09:18:21.003Z</time></trkpt><trkpt lat="47.708583652911706" lon="10.964876889416503"><ele>829.0</ele><time>2026-05-01T09:18:22.003Z</time></trkpt><trkpt lat="47.70864652565979" lon="10.965177342538242"><ele>829.0</ele><time>2026-05-01T09:18:23.003Z</time></trkpt><trkpt lat="47.70869785340619" lon="10.965484475151074"><ele>829.0</ele><time>2026-05-01T09:18:24.003Z</time></trkpt><trkpt lat="47.70874061582679" lon="10.96579711504512"><ele>829.0</ele><time>2026-05-01T09:18:25.003Z</time></trkpt><trkpt lat="47.708780967445705" lon="10.966113180244454"><ele>827.6666666666666</ele><time>2026-05-01T09:18:26.003Z</time></trkpt><trkpt lat="47.708821620639085" lon="10.966429159226651"><ele>826.3333333333333</ele><time>2026-05-01T09:18:27.003Z</time></trkpt><trkpt lat="47.70886172054179" lon="10.966750434148183"><ele>825.0</ele><time>2026-05-01T09:18:28.003Z</time></trkpt><trkpt lat="47.70890015326955" lon="10.96707074934784"><ele>823.0</ele><time>2026-05-01T09:18:29.003Z</time></trkpt><trkpt lat="47.70893719914509" lon="10.967387303313442"><ele>821.0</ele><time>2026-05-01T09:18:30.003Z</time></trkpt><trkpt lat="47.70897690743907" lon="10.967704387281234"><ele>819.0</ele><time>2026-05-01T09:18:31.003Z</time></trkpt><trkpt lat="47.70901600994539" lon="10.968023561668971"><ele>815.6666666666667</ele><time>2026-05-01T09:18:32.003Z</time></trkpt><trkpt lat="47.7090522503316" lon="10.968336844021016"><ele>812.3333333333334</ele><time>2026-05-01T09:18:33.003Z</time></trkpt><trkpt lat="47.70908886823838" lon="10.968651008856023"><ele>809.0</ele><time>2026-05-01T09:18:34.003Z</time></trkpt><trkpt lat="47.70912728919509" lon="10.968962786368333"><ele>806.0</ele><time>2026-05-01T09:18:35.001Z</time></trkpt><trkpt lat="47.70917282651268" lon="10.969274434599228"><ele>803.0</ele><time>2026-05-01T09:18:36.001Z</time></trkpt><trkpt lat="47.7092268264675" lon="10.969584646037697"><ele>800.0</ele><time>2026-05-01T09:18:37.001Z</time></trkpt><trkpt lat="47.709287942665505" lon="10.969890700306676"><ele>800.3333333333334</ele><time>2026-05-01T09:18:38.001Z</time></trkpt><trkpt lat="47.70935773993407" lon="10.970195311402374"><ele>800.6666666666667</ele><time>2026-05-01T09:18:39.001Z</time></trkpt><trkpt lat="47.70943537313878" lon="10.970496175078333"><ele>801.0</ele><time>2026-05-01T09:18:40.001Z</time></trkpt><trkpt lat="47.70952214349828" lon="10.970785683727572"><ele>799.3333333333333</ele><time>2026-05-01T09:18:41.001Z</time></trkpt><trkpt lat="47.709616103707745" lon="10.971069956302845"><ele>797.6666666666666</ele><time>2026-05-01T09:18:42.001Z</time></trkpt><trkpt lat="47.70971000572659" lon="10.971336886124336"><ele>796.0</ele><time>2026-05-01T09:18:43.001Z</time></trkpt><trkpt lat="47.70980218968173" lon="10.97159237434769"><ele>793.6666666666666</ele><time>2026-05-01T09:18:44.001Z</time></trkpt><trkpt lat="47.70989428579403" lon="10.97185300016798"><ele>791.3333333333333</ele><time>2026-05-01T09:18:45.001Z</time></trkpt><trkpt lat="47.709985470723694" lon="10.97211449759775"><ele>789.0</ele><time>2026-05-01T09:18:46.001Z</time></trkpt><trkpt lat="47.710077894634594" lon="10.972376964080345"><ele>789.6666666666667</ele><time>2026-05-01T09:18:47.001Z</time></trkpt><trkpt lat="47.710167823148254" lon="10.972635248636466"><ele>790.3333333333334</ele><time>2026-05-01T09:18:48.001Z</time></trkpt><trkpt lat="47.710255506593256" lon="10.972880996407994"><ele>791.0</ele><time>2026-05-01T09:18:49.001Z</time></trkpt><trkpt lat="47.71034169856254" lon="10.973118989281675"><ele>791.0</ele><time>2026-05-01T09:18:50.001Z</time></trkpt><trkpt lat="47.710426834429136" lon="10.973346079054878"><ele>791.0</ele><time>2026-05-01T09:18:51.001Z</time></trkpt><trkpt lat="47.71051458068832" lon="10.973555356847317"><ele>791.0</ele><time>2026-05-01T09:18:52.001Z</time></trkpt><trkpt lat="47.71060447285605" lon="10.973743985536643"><ele>789.8</ele><time>2026-05-01T09:18:53.001Z</time></trkpt><trkpt lat="47.71068946785637" lon="10.973903369638803"><ele>788.5999999999999</ele><time>2026-05-01T09:18:54.001Z</time></trkpt><trkpt lat="47.71076348037417" lon="10.974033606543232"><ele>787.4</ele><time>2026-05-01T09:18:55.001Z</time></trkpt><trkpt lat="47.710825361018486" lon="10.974146595932865"><ele>786.2</ele><time>2026-05-01T09:18:56.001Z</time></trkpt><trkpt lat="47.71087184054101" lon="10.974254581986145"><ele>785.0</ele><time>2026-05-01T09:18:57.001Z</time></trkpt><trkpt lat="47.71090901532603" lon="10.974381463160288"><ele>783.6</ele><time>2026-05-01T09:18:58.001Z</time></trkpt><trkpt lat="47.71093290085418" lon="10.97452139798925"><ele>782.2</ele><time>2026-05-01T09:18:59.001Z</time></trkpt><trkpt lat="47.710939439935075" lon="10.97467092899467"><ele>780.8</ele><time>2026-05-01T09:19:00.001Z</time></trkpt><trkpt lat="47.71092465446261" lon="10.974829741630135"><ele>779.4</ele><time>2026-05-01T09:19:01.001Z</time></trkpt><trkpt lat="47.710894877067645" lon="10.974991303487363"><ele>778.0</ele><time>2026-05-01T09:19:02.001Z</time></trkpt><trkpt lat="47.710857122840466" lon="10.975161029231376"><ele>773.75</ele><time>2026-05-01T09:19:03.001Z</time></trkpt><trkpt lat="47.71081430234657" lon="10.97534672095168"><ele>769.5</ele><time>2026-05-01T09:19:04.001Z</time></trkpt><trkpt lat="47.7107700048001" lon="10.975546494871768"><ele>765.25</ele><time>2026-05-01T09:19:05.001Z</time></trkpt><trkpt lat="47.71072142456778" lon="10.975766420030578"><ele>761.0</ele><time>2026-05-01T09:19:06.001Z</time></trkpt><trkpt lat="47.71067165892641" lon="10.975993186672564"><ele>757.0</ele><time>2026-05-01T09:19:07.001Z</time></trkpt><trkpt lat="47.710624232312625" lon="10.976222797849706"><ele>753.0</ele><time>2026-05-01T09:19:08.001Z</time></trkpt><trkpt lat="47.710575630373" lon="10.976463427992652"><ele>749.0</ele><time>2026-05-01T09:19:09.001Z</time></trkpt><trkpt lat="47.71052549425423" lon="10.976719423205623"><ele>757.3333333333333</ele><time>2026-05-01T09:19:10.001Z</time></trkpt><trkpt lat="47.71047455596089" lon="10.976965153730342"><ele>765.6666666666666</ele><time>2026-05-01T09:19:11.001Z</time></trkpt><trkpt lat="47.71042405867329" lon="10.977208162846855"><ele>774.0</ele><time>2026-05-01T09:19:12.001Z</time></trkpt><trkpt lat="47.71037498323035" lon="10.977440818710752"><ele>778.3333333333333</ele><time>2026-05-01T09:19:13.001Z</time></trkpt><trkpt lat="47.71032678976432" lon="10.977666913486111"><ele>782.6666666666666</ele><time>2026-05-01T09:19:14.001Z</time></trkpt><trkpt lat="47.710270928713236" lon="10.977890275703192"><ele>787.0</ele><time>2026-05-01T09:19:15.001Z</time></trkpt><trkpt lat="47.71019967164158" lon="10.978107756225567"><ele>787.0</ele><time>2026-05-01T09:19:16.001Z</time></trkpt><trkpt lat="47.7101169910676" lon="10.978316149548126"><ele>787.0</ele><time>2026-05-01T09:19:17.001Z</time></trkpt><trkpt lat="47.710023354207365" lon="10.978506600303714"><ele>787.0</ele><time>2026-05-01T09:19:18.002Z</time></trkpt><trkpt lat="47.70991744839693" lon="10.978682711230862"><ele>786.6666666666666</ele><time>2026-05-01T09:19:19.002Z</time></trkpt><trkpt lat="47.70980125454064" lon="10.978838120626344"><ele>786.3333333333333</ele><time>2026-05-01T09:19:20.002Z</time></trkpt><trkpt lat="47.70967323073875" lon="10.978975849953732"><ele>786.0</ele><time>2026-05-01T09:19:21.002Z</time></trkpt><trkpt lat="47.709536094046186" lon="10.979096881467447"><ele>787.3333333333333</ele><time>2026-05-01T09:19:22.002Z</time></trkpt><trkpt lat="47.70939422295703" lon="10.979209244041337"><ele>788.6666666666666</ele><time>2026-05-01T09:19:23.002Z</time></trkpt><trkpt lat="47.709247576690885" lon="10.979319728055948"><ele>790.0</ele><time>2026-05-01T09:19:24.002Z</time></trkpt><trkpt lat="47.7091014130809" lon="10.979430293911934"><ele>790.0</ele><time>2026-05-01T09:19:25.002Z</time></trkpt><trkpt lat="47.70895811906899" lon="10.979540884064626"><ele>790.0</ele><time>2026-05-01T09:19:26.002Z</time></trkpt><trkpt lat="47.70881450704024" lon="10.979651942595552"><ele>790.0</ele><time>2026-05-01T09:19:27.002Z</time></trkpt><trkpt lat="47.708672557150635" lon="10.979764703683879"><ele>788.0</ele><time>2026-05-01T09:19:28.002Z</time></trkpt><trkpt lat="47.70853042837889" lon="10.979880680700562"><ele>786.0</ele><time>2026-05-01T09:19:29.002Z</time></trkpt><trkpt lat="47.70838927512472" lon="10.979997044496498"><ele>784.0</ele><time>2026-05-01T09:19:30.002Z</time></trkpt><trkpt lat="47.708244219259214" lon="10.980109557889085"><ele>784.0</ele><time>2026-05-01T09:19:31.002Z</time></trkpt><trkpt lat="47.70809647717815" lon="10.980217112891731"><ele>784.0</ele><time>2026-05-01T09:19:32.002Z</time></trkpt><trkpt lat="47.70794692184532" lon="10.980315378148735"><ele>784.0</ele><time>2026-05-01T09:19:33.002Z</time></trkpt><trkpt lat="47.70779397552136" lon="10.98040162942973"><ele>783.0</ele><time>2026-05-01T09:19:34.002Z</time></trkpt><trkpt lat="47.707635685121225" lon="10.980475987493188"><ele>782.0</ele><time>2026-05-01T09:19:35.002Z</time></trkpt><trkpt lat="47.707471675984685" lon="10.980539275375653"><ele>781.0</ele><time>2026-05-01T09:19:36.002Z</time></trkpt><trkpt lat="47.70730412491058" lon="10.980592224490087"><ele>781.0</ele><time>2026-05-01T09:19:37.002Z</time></trkpt><trkpt lat="47.707135367172505" lon="10.980634749411077"><ele>781.0</ele><time>2026-05-01T09:19:38.002Z</time></trkpt><trkpt lat="47.70696395781257" lon="10.980666668010038"><ele>781.0</ele><time>2026-05-01T09:19:39.002Z</time></trkpt><trkpt lat="47.706788568771906" lon="10.980686040373369"><ele>780.6666666666666</ele><time>2026-05-01T09:19:40.002Z</time></trkpt><trkpt lat="47.706610103769876" lon="10.980693276004606"><ele>780.3333333333333</ele><time>2026-05-01T09:19:41.002Z</time></trkpt><trkpt lat="47.706430914607736" lon="10.980687541341064"><ele>780.0</ele><time>2026-05-01T09:19:42.002Z</time></trkpt><trkpt lat="47.70624998415154" lon="10.980668988632091"><ele>779.3333333333333</ele><time>2026-05-01T09:19:43.002Z</time></trkpt><trkpt lat="47.70607324459993" lon="10.980639100749512"><ele>778.6666666666666</ele><time>2026-05-01T09:19:44.002Z</time></trkpt><trkpt lat="47.70589575108519" lon="10.980595902880037"><ele>778.0</ele><time>2026-05-01T09:19:45.002Z</time></trkpt><trkpt lat="47.705712863951284" lon="10.980537717449693"><ele>778.0</ele><time>2026-05-01T09:19:46.002Z</time></trkpt><trkpt lat="47.7055301746802" lon="10.980460432971686"><ele>778.0</ele><time>2026-05-01T09:19:47.002Z</time></trkpt><trkpt lat="47.70534889588856" lon="10.9803629627264"><ele>778.0</ele><time>2026-05-01T09:19:48.002Z</time></trkpt><trkpt lat="47.705170058193644" lon="10.98025338443774"><ele>779.6666666666666</ele><time>2026-05-01T09:19:49.002Z</time></trkpt><trkpt lat="47.70499202301609" lon="10.980133261261782"><ele>781.3333333333333</ele><time>2026-05-01T09:19:50.002Z</time></trkpt><trkpt lat="47.70481573975503" lon="10.980008533757175"><ele>783.0</ele><time>2026-05-01T09:19:51.002Z</time></trkpt><trkpt lat="47.70463961090525" lon="10.979884105005308"><ele>783.0</ele><time>2026-05-01T09:19:52.002Z</time></trkpt><trkpt lat="47.70446385127183" lon="10.979769273777075"><ele>783.0</ele><time>2026-05-01T09:19:53.002Z</time></trkpt><trkpt lat="47.70428434557636" lon="10.97966131477958"><ele>783.0</ele><time>2026-05-01T09:19:54.002Z</time></trkpt><trkpt lat="47.704100280529985" lon="10.97957224928065"><ele>784.3333333333333</ele><time>2026-05-01T09:19:55.002Z</time></trkpt><trkpt lat="47.70391072029971" lon="10.979501977190884"><ele>785.6666666666666</ele><time>2026-05-01T09:19:56.002Z</time></trkpt><trkpt lat="47.70371261911978" lon="10.97944611663391"><ele>787.0</ele><time>2026-05-01T09:19:57.003Z</time></trkpt><trkpt lat="47.7035101637437" lon="10.979404787811932"><ele>788.6666666666666</ele><time>2026-05-01T09:19:58.003Z</time></trkpt><trkpt lat="47.70330517480101" lon="10.97937639254457"><ele>790.3333333333333</ele><time>2026-05-01T09:19:59.003Z</time></trkpt><trkpt lat="47.70310034370718" lon="10.979364950880253"><ele>792.0</ele><time>2026-05-01T09:20:00.003Z</time></trkpt><trkpt lat="47.70289772623199" lon="10.979373325207058"><ele>792.0</ele><time>2026-05-01T09:20:01.003Z</time></trkpt><trkpt lat="47.70269511248738" lon="10.979398629768312"><ele>792.0</ele><time>2026-05-01T09:20:02.003Z</time></trkpt><trkpt lat="47.7024959987118" lon="10.979444031613964"><ele>792.0</ele><time>2026-05-01T09:20:03.003Z</time></trkpt><trkpt lat="47.702298810567235" lon="10.979504408598636"><ele>792.0</ele><time>2026-05-01T09:20:04.003Z</time></trkpt><trkpt lat="47.70210552245098" lon="10.979575560918951"><ele>792.0</ele><time>2026-05-01T09:20:05.003Z</time></trkpt><trkpt lat="47.701919716562074" lon="10.979659647241103"><ele>792.0</ele><time>2026-05-01T09:20:06.003Z</time></trkpt><trkpt lat="47.70174131430016" lon="10.979757409262175"><ele>792.0</ele><time>2026-05-01T09:20:07.003Z</time></trkpt><trkpt lat="47.70157005290869" lon="10.979874289936763"><ele>792.0</ele><time>2026-05-01T09:20:08.003Z</time></trkpt><trkpt lat="47.70140209993513" lon="10.980002744726605"><ele>792.0</ele><time>2026-05-01T09:20:09.003Z</time></trkpt><trkpt lat="47.70123489799875" lon="10.9801346974768"><ele>792.3333333333333</ele><time>2026-05-01T09:20:10.003Z</time></trkpt><trkpt lat="47.70106746564238" lon="10.980269880077506"><ele>792.6666666666666</ele><time>2026-05-01T09:20:11.003Z</time></trkpt><trkpt lat="47.70089987638464" lon="10.980404785337097"><ele>793.0</ele><time>2026-05-01T09:20:12.003Z</time></trkpt><trkpt lat="47.70073300404266" lon="10.980537431386642"><ele>793.0</ele><time>2026-05-01T09:20:13.003Z</time></trkpt><trkpt lat="47.700565747559004" lon="10.980667480762177"><ele>793.0</ele><time>2026-05-01T09:20:14.003Z</time></trkpt><trkpt lat="47.70039699064213" lon="10.980797176085332"><ele>793.0</ele><time>2026-05-01T09:20:15.003Z</time></trkpt><trkpt lat="47.70022697803294" lon="10.980929051479315"><ele>791.6666666666666</ele><time>2026-05-01T09:20:16.003Z</time></trkpt><trkpt lat="47.700053148454494" lon="10.981065490633839"><ele>790.3333333333333</ele><time>2026-05-01T09:20:17.003Z</time></trkpt><trkpt lat="47.6998744962494" lon="10.981204238949603"><ele>789.0</ele><time>2026-05-01T09:20:18.003Z</time></trkpt><trkpt lat="47.69969319526065" lon="10.981346120421703"><ele>789.0</ele><time>2026-05-01T09:20:19.003Z</time></trkpt><trkpt lat="47.69950980986817" lon="10.981489151085624"><ele>789.0</ele><time>2026-05-01T09:20:20.003Z</time></trkpt><trkpt lat="47.69932505804664" lon="10.981631647012552"><ele>789.0</ele><time>2026-05-01T09:20:21.003Z</time></trkpt><trkpt lat="47.69914448075569" lon="10.981767183295759"><ele>790.3333333333333</ele><time>2026-05-01T09:20:22.003Z</time></trkpt><trkpt lat="47.69897522252272" lon="10.981896592053323"><ele>791.6666666666666</ele><time>2026-05-01T09:20:23.003Z</time></trkpt><trkpt lat="47.698803761562544" lon="10.982030914677573"><ele>793.0</ele><time>2026-05-01T09:20:24.003Z</time></trkpt><trkpt lat="47.69863007374834" lon="10.982168463738127"><ele>795.0</ele><time>2026-05-01T09:20:25.003Z</time></trkpt><trkpt lat="47.69845641208715" lon="10.982309570521597"><ele>797.0</ele><time>2026-05-01T09:20:26.003Z</time></trkpt><trkpt lat="47.69828080985369" lon="10.982449444852936"><ele>799.0</ele><time>2026-05-01T09:20:27.003Z</time></trkpt><trkpt lat="47.6981015147494" lon="10.982586301849288"><ele>799.0</ele><time>2026-05-01T09:20:28.003Z</time></trkpt><trkpt lat="47.697919191453" lon="10.982722914541377"><ele>799.0</ele><time>2026-05-01T09:20:29.003Z</time></trkpt><trkpt lat="47.697733467331986" lon="10.98285961001759"><ele>799.0</ele><time>2026-05-01T09:20:30.003Z</time></trkpt><trkpt lat="47.69754816334915" lon="10.982996705824943"><ele>800.0</ele><time>2026-05-01T09:20:31.003Z</time></trkpt><trkpt lat="47.69736397158183" lon="10.983134041736516"><ele>801.0</ele><time>2026-05-01T09:20:32.003Z</time></trkpt><trkpt lat="47.69717911480906" lon="10.983271942210596"><ele>802.0</ele><time>2026-05-01T09:20:33.003Z</time></trkpt><trkpt lat="47.6969921858417" lon="10.98341247833448"><ele>802.3333333333333</ele><time>2026-05-01T09:20:34.003Z</time></trkpt><trkpt lat="47.69680312648552" lon="10.983558431323349"><ele>802.6666666666667</ele><time>2026-05-01T09:20:35.004Z</time></trkpt><trkpt lat="47.69661097233635" lon="10.98370530264722"><ele>803.0</ele><time>2026-05-01T09:20:36.004Z</time></trkpt><trkpt lat="47.69641791753022" lon="10.98385239788785"><ele>803.0</ele><time>2026-05-01T09:20:37.004Z</time></trkpt><trkpt lat="47.696231533580324" lon="10.983993116905514"><ele>803.0</ele><time>2026-05-01T09:20:38.004Z</time></trkpt><trkpt lat="47.69604385965139" lon="10.984136092727502"><ele>803.0</ele><time>2026-05-01T09:20:39.004Z</time></trkpt><trkpt lat="47.69585521734213" lon="10.984281968001666"><ele>802.0</ele><time>2026-05-01T09:20:40.004Z</time></trkpt><trkpt lat="47.695669099528004" lon="10.984432454438474"><ele>801.0</ele><time>2026-05-01T09:20:41.001Z</time></trkpt><trkpt lat="47.69548516041495" lon="10.9845924330315"><ele>800.0</ele><time>2026-05-01T09:20:42.001Z</time></trkpt><trkpt lat="47.69530671218935" lon="10.984759588642813"><ele>800.6666666666667</ele><time>2026-05-01T09:20:43.002Z</time></trkpt><trkpt lat="47.69513517180664" lon="10.984932395455838"><ele>801.3333333333333</ele><time>2026-05-01T09:20:44.001Z</time></trkpt><trkpt lat="47.694968207374714" lon="10.985112130716002"><ele>802.0</ele><time>2026-05-01T09:20:45.001Z</time></trkpt><trkpt lat="47.69480422728458" lon="10.985298567403513"><ele>802.3333333333333</ele><time>2026-05-01T09:20:46.001Z</time></trkpt><trkpt lat="47.69464600524339" lon="10.985492269401835"><ele>802.6666666666667</ele><time>2026-05-01T09:20:47.001Z</time></trkpt><trkpt lat="47.69449295919073" lon="10.985691245113635"><ele>803.0</ele><time>2026-05-01T09:20:48.001Z</time></trkpt><trkpt lat="47.69434719667338" lon="10.985898519575244"><ele>803.6666666666667</ele><time>2026-05-01T09:20:49.001Z</time></trkpt><trkpt lat="47.69420584255089" lon="10.986112882043777"><ele>804.3333333333333</ele><time>2026-05-01T09:20:50.001Z</time></trkpt><trkpt lat="47.694067012118936" lon="10.986332940649508"><ele>805.0</ele><time>2026-05-01T09:20:51.001Z</time></trkpt><trkpt lat="47.693930808067364" lon="10.986558706962432"><ele>805.6666666666666</ele><time>2026-05-01T09:20:52.001Z</time></trkpt><trkpt lat="47.69379945660304" lon="10.98678956498581"><ele>806.3333333333333</ele><time>2026-05-01T09:20:53.001Z</time></trkpt><trkpt lat="47.69367313135418" lon="10.987023851410006"><ele>807.0</ele><time>2026-05-01T09:20:54.001Z</time></trkpt><trkpt lat="47.69355156225861" lon="10.987266333970018"><ele>806.3333333333333</ele><time>2026-05-01T09:20:55.001Z</time></trkpt><trkpt lat="47.69343651249615" lon="10.987517493861812"><ele>805.6666666666666</ele><time>2026-05-01T09:20:56.001Z</time></trkpt><trkpt lat="47.69332777279889" lon="10.987770015530941"><ele>805.0</ele><time>2026-05-01T09:20:57.001Z</time></trkpt><trkpt lat="47.69321793254948" lon="10.988027152433165"><ele>805.0</ele><time>2026-05-01T09:20:58.001Z</time></trkpt><trkpt lat="47.693104973098265" lon="10.98828630683342"><ele>805.0</ele><time>2026-05-01T09:20:59.001Z</time></trkpt><trkpt lat="47.692993505932556" lon="10.988541925671278"><ele>805.0</ele><time>2026-05-01T09:21:00.001Z</time></trkpt><trkpt lat="47.69288384367974" lon="10.988790386798566"><ele>804.6666666666666</ele><time>2026-05-01T09:21:01.001Z</time></trkpt><trkpt lat="47.692774248224595" lon="10.989028114728438"><ele>804.3333333333333</ele><time>2026-05-01T09:21:02.001Z</time></trkpt><trkpt lat="47.69266007936379" lon="10.989263586185736"><ele>804.0</ele><time>2026-05-01T09:21:03.001Z</time></trkpt><trkpt lat="47.692539654221726" lon="10.989496638078496"><ele>804.0</ele><time>2026-05-01T09:21:04.001Z</time></trkpt><trkpt lat="47.69241655613409" lon="10.989726065977738"><ele>804.0</ele><time>2026-05-01T09:21:05.001Z</time></trkpt><trkpt lat="47.692291206235225" lon="10.989953527482891"><ele>804.0</ele><time>2026-05-01T09:21:06.001Z</time></trkpt><trkpt lat="47.692166569782714" lon="10.99017964155534"><ele>803.6666666666667</ele><time>2026-05-01T09:21:07.001Z</time></trkpt><trkpt lat="47.69204478018308" lon="10.99039713615579"><ele>803.3333333333334</ele><time>2026-05-01T09:21:08.001Z</time></trkpt><trkpt lat="47.69192775795256" lon="10.990606995527887"><ele>803.0</ele><time>2026-05-01T09:21:09.001Z</time></trkpt><trkpt lat="47.69181460480044" lon="10.990813849863668"><ele>802.6666666666667</ele><time>2026-05-01T09:21:10.001Z</time></trkpt><trkpt lat="47.691707040408026" lon="10.991016280270042"><ele>802.3333333333333</ele><time>2026-05-01T09:21:11.001Z</time></trkpt><trkpt lat="47.69160475863545" lon="10.991215765451638"><ele>802.0</ele><time>2026-05-01T09:21:12.001Z</time></trkpt><trkpt lat="47.6915057823583" lon="10.991418793330107"><ele>802.0</ele><time>2026-05-01T09:21:13.001Z</time></trkpt><trkpt lat="47.69140835024203" lon="10.991626423174687"><ele>802.0</ele><time>2026-05-01T09:21:14.002Z</time></trkpt><trkpt lat="47.69131538644739" lon="10.991848557245765"><ele>802.0</ele><time>2026-05-01T09:21:15.002Z</time></trkpt><trkpt lat="47.691225708741406" lon="10.99208543680599"><ele>801.6666666666666</ele><time>2026-05-01T09:21:16.002Z</time></trkpt><trkpt lat="47.69113808431392" lon="10.992336790333905"><ele>801.3333333333333</ele><time>2026-05-01T09:21:17.002Z</time></trkpt><trkpt lat="47.69105186724615" lon="10.992603461723121"><ele>801.0</ele><time>2026-05-01T09:21:18.002Z</time></trkpt><trkpt lat="47.69096421305988" lon="10.992877573408931"><ele>801.0</ele><time>2026-05-01T09:21:19.002Z</time></trkpt><trkpt lat="47.69087427381257" lon="10.993153844168658"><ele>801.0</ele><time>2026-05-01T09:21:20.002Z</time></trkpt><trkpt lat="47.69078151106428" lon="10.993429795220607"><ele>801.0</ele><time>2026-05-01T09:21:21.002Z</time></trkpt><trkpt lat="47.69068746091766" lon="10.993701931979398"><ele>801.6666666666667</ele><time>2026-05-01T09:21:22.002Z</time></trkpt><trkpt lat="47.69059237085391" lon="10.993970257986721"><ele>802.3333333333334</ele><time>2026-05-01T09:21:23.002Z</time></trkpt><trkpt lat="47.69049517178774" lon="10.994236570010333"><ele>803.0</ele><time>2026-05-01T09:21:24.002Z</time></trkpt><trkpt lat="47.69039620855639" lon="10.994496794863617"><ele>803.6666666666667</ele><time>2026-05-01T09:21:25.002Z</time></trkpt><trkpt lat="47.69029343519208" lon="10.99475726237434"><ele>804.3333333333333</ele><time>2026-05-01T09:21:26.002Z</time></trkpt><trkpt lat="47.69018572565707" lon="10.995018388549354"><ele>805.0</ele><time>2026-05-01T09:21:27.002Z</time></trkpt><trkpt lat="47.690074819713885" lon="10.995273511809415"><ele>803.6666666666666</ele><time>2026-05-01T09:21:28.002Z</time></trkpt><trkpt lat="47.68995935014302" lon="10.995533282715227"><ele>802.3333333333333</ele><time>2026-05-01T09:21:29.002Z</time></trkpt><trkpt lat="47.68984485991707" lon="10.995785671419828"><ele>801.0</ele><time>2026-05-01T09:21:30.002Z</time></trkpt><trkpt lat="47.689727424165625" lon="10.996038056532875"><ele>800.6666666666667</ele><time>2026-05-01T09:21:31.002Z</time></trkpt><trkpt lat="47.68960904355186" lon="10.996286582399696"><ele>800.3333333333334</ele><time>2026-05-01T09:21:32.002Z</time></trkpt><trkpt lat="47.689492063468876" lon="10.996531322212837"><ele>800.0</ele><time>2026-05-01T09:21:33.002Z</time></trkpt><trkpt lat="47.689375793710916" lon="10.996769844508236"><ele>798.3333333333334</ele><time>2026-05-01T09:21:34.002Z</time></trkpt><trkpt lat="47.68925928916691" lon="10.997003352831252"><ele>796.6666666666667</ele><time>2026-05-01T09:21:35.002Z</time></trkpt><trkpt lat="47.68914362018643" lon="10.997235747883087"><ele>795.0</ele><time>2026-05-01T09:21:36.002Z</time></trkpt><trkpt lat="47.689029668628876" lon="10.997466039095379"><ele>795.0</ele><time>2026-05-01T09:21:37.002Z</time></trkpt><trkpt lat="47.68891576930945" lon="10.997693911511824"><ele>795.0</ele><time>2026-05-01T09:21:38.002Z</time></trkpt><trkpt lat="47.688801048415094" lon="10.997920797671076"><ele>795.0</ele><time>2026-05-01T09:21:39.002Z</time></trkpt><trkpt lat="47.68868636644712" lon="10.998146376364433"><ele>795.3333333333333</ele><time>2026-05-01T09:21:40.002Z</time></trkpt><trkpt lat="47.68857328421724" lon="10.99837273899725"><ele>795.6666666666666</ele><time>2026-05-01T09:21:41.002Z</time></trkpt><trkpt lat="47.68846253269438" lon="10.99860106737171"><ele>796.0</ele><time>2026-05-01T09:21:42.002Z</time></trkpt><trkpt lat="47.68835525170458" lon="10.998831645444572"><ele>796.0</ele><time>2026-05-01T09:21:43.002Z</time></trkpt><trkpt lat="47.688253588669255" lon="10.999063959861637"><ele>796.0</ele><time>2026-05-01T09:21:44.002Z</time></trkpt><trkpt lat="47.688155493590735" lon="10.999300054973173"><ele>796.0</ele><time>2026-05-01T09:21:45.002Z</time></trkpt><trkpt lat="47.688059112615065" lon="10.999540453792108"><ele>796.3333333333333</ele><time>2026-05-01T09:21:46.002Z</time></trkpt><trkpt lat="47.68796576697048" lon="10.99978372551363"><ele>796.6666666666667</ele><time>2026-05-01T09:21:47.002Z</time></trkpt><trkpt lat="47.68787566658399" lon="11.000030508662263"><ele>797.0</ele><time>2026-05-01T09:21:48.002Z</time></trkpt><trkpt lat="47.68778964419539" lon="11.0002789814953"><ele>797.3333333333334</ele><time>2026-05-01T09:21:49.002Z</time></trkpt><trkpt lat="47.68770677111917" lon="11.00052966935766"><ele>797.6666666666667</ele><time>2026-05-01T09:21:50.002Z</time></trkpt><trkpt lat="47.687630468201604" lon="11.00076800062653"><ele>798.0</ele><time>2026-05-01T09:21:51.002Z</time></trkpt><trkpt lat="47.68755616361642" lon="11.001005083402383"><ele>799.3333333333333</ele><time>2026-05-01T09:21:52.002Z</time></trkpt><trkpt lat="47.68748151585768" lon="11.001245080411643"><ele>800.6666666666666</ele><time>2026-05-01T09:21:53.002Z</time></trkpt><trkpt lat="47.68740849508093" lon="11.001485311002883"><ele>802.0</ele><time>2026-05-01T09:21:54.002Z</time></trkpt><trkpt lat="47.68733882307554" lon="11.001718158776061"><ele>805.0</ele><time>2026-05-01T09:21:55.002Z</time></trkpt><trkpt lat="47.68726913897086" lon="11.001946912947174"><ele>808.0</ele><time>2026-05-01T09:21:56.002Z</time></trkpt><trkpt lat="47.68720061017869" lon="11.002177445874718"><ele>811.0</ele><time>2026-05-01T09:21:57.002Z</time></trkpt><trkpt lat="47.68713649706108" lon="11.002404792559346"><ele>812.3333333333333</ele><time>2026-05-01T09:21:58.002Z</time></trkpt><trkpt lat="47.68707562798677" lon="11.002631354917511"><ele>813.6666666666667</ele><time>2026-05-01T09:21:59.003Z</time></trkpt><trkpt lat="47.68701602465939" lon="11.00285746281751"><ele>815.0</ele><time>2026-05-01T09:22:00.003Z</time></trkpt><trkpt lat="47.68695755468432" lon="11.00308264021611"><ele>814.3333333333334</ele><time>2026-05-01T09:22:01.003Z</time></trkpt><trkpt lat="47.68690231585331" lon="11.00330498723088"><ele>813.6666666666667</ele><time>2026-05-01T09:22:02.003Z</time></trkpt><trkpt lat="47.68684720150976" lon="11.003526801271022"><ele>813.0</ele><time>2026-05-01T09:22:03.003Z</time></trkpt><trkpt lat="47.68679124932566" lon="11.003748242669916"><ele>814.3333333333333</ele><time>2026-05-01T09:22:04.003Z</time></trkpt><trkpt lat="47.68673326522138" lon="11.003974435578773"><ele>815.6666666666666</ele><time>2026-05-01T09:22:05.003Z</time></trkpt><trkpt lat="47.686674796945795" lon="11.004202592434137"><ele>817.0</ele><time>2026-05-01T09:22:06.003Z</time></trkpt><trkpt lat="47.68661912822337" lon="11.004435949375287"><ele>817.3333333333333</ele><time>2026-05-01T09:22:07.003Z</time></trkpt><trkpt lat="47.68656549957692" lon="11.004676019322668"><ele>817.6666666666667</ele><time>2026-05-01T09:22:08.003Z</time></trkpt><trkpt lat="47.68650685731101" lon="11.004918665212003"><ele>818.0</ele><time>2026-05-01T09:22:09.003Z</time></trkpt><trkpt lat="47.68644424081573" lon="11.005165424017129"><ele>818.6666666666667</ele><time>2026-05-01T09:22:10.003Z</time></trkpt><trkpt lat="47.68637879511867" lon="11.005413559409666"><ele>819.3333333333333</ele><time>2026-05-01T09:22:11.003Z</time></trkpt><trkpt lat="47.686311806374356" lon="11.0056659648551"><ele>820.0</ele><time>2026-05-01T09:22:12.003Z</time></trkpt><trkpt lat="47.68624310006782" lon="11.00591893135249"><ele>821.0</ele><time>2026-05-01T09:22:13.003Z</time></trkpt><trkpt lat="47.68617160197083" lon="11.006167217074491"><ele>822.0</ele><time>2026-05-01T09:22:14.003Z</time></trkpt><trkpt lat="47.68609609697749" lon="11.006415769913508"><ele>823.0</ele><time>2026-05-01T09:22:15.003Z</time></trkpt><trkpt lat="47.686020625732795" lon="11.006650272277863"><ele>824.3333333333333</ele><time>2026-05-01T09:22:16.003Z</time></trkpt><trkpt lat="47.68593858021481" lon="11.006888049766626"><ele>825.6666666666667</ele><time>2026-05-01T09:22:17.003Z</time></trkpt><trkpt lat="47.68585215027865" lon="11.007125528420127"><ele>827.0</ele><time>2026-05-01T09:22:18.003Z</time></trkpt><trkpt lat="47.68576204407115" lon="11.007359664788641"><ele>826.6666666666667</ele><time>2026-05-01T09:22:19.003Z</time></trkpt><trkpt lat="47.68566908071004" lon="11.007588294010612"><ele>826.3333333333333</ele><time>2026-05-01T09:22:20.003Z</time></trkpt><trkpt lat="47.68557523492372" lon="11.00780845980294"><ele>826.0</ele><time>2026-05-01T09:22:21.003Z</time></trkpt><trkpt lat="47.68547394712862" lon="11.008024384200324"><ele>826.0</ele><time>2026-05-01T09:22:22.003Z</time></trkpt><trkpt lat="47.685368905637965" lon="11.008239682664833"><ele>826.0</ele><time>2026-05-01T09:22:23.003Z</time></trkpt><trkpt lat="47.68526612266261" lon="11.008442046171512"><ele>826.0</ele><time>2026-05-01T09:22:24.003Z</time></trkpt><trkpt lat="47.68516120112805" lon="11.008635271411254"><ele>827.0</ele><time>2026-05-01T09:22:25.003Z</time></trkpt><trkpt lat="47.68505213308699" lon="11.00882450938751"><ele>828.0</ele><time>2026-05-01T09:22:26.003Z</time></trkpt><trkpt lat="47.68494188209004" lon="11.00900700209547"><ele>829.0</ele><time>2026-05-01T09:22:27.003Z</time></trkpt><trkpt lat="47.684831393871136" lon="11.009185432669666"><ele>829.3333333333333</ele><time>2026-05-01T09:22:28.003Z</time></trkpt><trkpt lat="47.68472130914745" lon="11.009360267699526"><ele>829.6666666666667</ele><time>2026-05-01T09:22:29.003Z</time></trkpt><trkpt lat="47.68460785747829" lon="11.009532326156549"><ele>830.0</ele><time>2026-05-01T09:22:30.003Z</time></trkpt><trkpt lat="47.68449321593285" lon="11.0096976828295"><ele>830.0</ele><time>2026-05-01T09:22:31.003Z</time></trkpt><trkpt lat="47.68437629878303" lon="11.009858449889064"><ele>830.0</ele><time>2026-05-01T09:22:32.003Z</time></trkpt><trkpt lat="47.68425651634807" lon="11.010016936310379"><ele>830.0</ele><time>2026-05-01T09:22:33.003Z</time></trkpt><trkpt lat="47.684132382926556" lon="11.010174470099745"><ele>832.6666666666667</ele><time>2026-05-01T09:22:34.003Z</time></trkpt><trkpt lat="47.684006075805236" lon="11.01032935764965"><ele>835.3333333333333</ele><time>2026-05-01T09:22:35.003Z</time></trkpt><trkpt lat="47.68388090015899" lon="11.010483399896797"><ele>838.0</ele><time>2026-05-01T09:22:36.003Z</time></trkpt><trkpt lat="47.68375686209821" lon="11.010634097549113"><ele>838.0</ele><time>2026-05-01T09:22:37.003Z</time></trkpt><trkpt lat="47.683630621300026" lon="11.010784458030543"><ele>838.0</ele><time>2026-05-01T09:22:38.003Z</time></trkpt><trkpt lat="47.68350641524196" lon="11.010931201191053"><ele>838.0</ele><time>2026-05-01T09:22:39.003Z</time></trkpt><trkpt lat="47.68338250966914" lon="11.011076760286182"><ele>838.0</ele><time>2026-05-01T09:22:40.004Z</time></trkpt><trkpt lat="47.683259152544004" lon="11.011218922252946"><ele>838.0</ele><time>2026-05-01T09:22:41.004Z</time></trkpt><trkpt lat="47.68313414586511" lon="11.011360239454863"><ele>838.0</ele><time>2026-05-01T09:22:42.004Z</time></trkpt><trkpt lat="47.683007798162826" lon="11.011503498550237"><ele>838.0</ele><time>2026-05-01T09:22:43.004Z</time></trkpt><trkpt lat="47.68287339027975" lon="11.01164598642614"><ele>838.0</ele><time>2026-05-01T09:22:44.004Z</time></trkpt><trkpt lat="47.682730758779016" lon="11.011785364805618"><ele>838.0</ele><time>2026-05-01T09:22:45.004Z</time></trkpt><trkpt lat="47.682583446095386" lon="11.011923318539896"><ele>839.3333333333333</ele><time>2026-05-01T09:22:46.004Z</time></trkpt><trkpt lat="47.68243206882116" lon="11.01206180777039"><ele>840.6666666666667</ele><time>2026-05-01T09:22:47.002Z</time></trkpt><trkpt lat="47.68228418999594" lon="11.01219255418361"><ele>842.0</ele><time>2026-05-01T09:22:48.002Z</time></trkpt><trkpt lat="47.682147554885624" lon="11.012311368096936"><ele>842.0</ele><time>2026-05-01T09:22:49.002Z</time></trkpt><trkpt lat="47.68201951581835" lon="11.01242152612996"><ele>842.0</ele><time>2026-05-01T09:22:50.002Z</time></trkpt><trkpt lat="47.681888532875" lon="11.012536419952283"><ele>842.0</ele><time>2026-05-01T09:22:51.002Z</time></trkpt><trkpt lat="47.68175825585994" lon="11.012654774915669"><ele>845.0</ele><time>2026-05-01T09:22:52.002Z</time></trkpt><trkpt lat="47.68162717411155" lon="11.012777811961096"><ele>848.0</ele><time>2026-05-01T09:22:53.001Z</time></trkpt><trkpt lat="47.681493131103075" lon="11.01290941596321"><ele>851.0</ele><time>2026-05-01T09:22:54.001Z</time></trkpt><trkpt lat="47.68136039874027" lon="11.013048686040998"><ele>851.0</ele><time>2026-05-01T09:22:55.001Z</time></trkpt><trkpt lat="47.681229301930614" lon="11.013193195936159"><ele>851.0</ele><time>2026-05-01T09:22:56.001Z</time></trkpt><trkpt lat="47.68110453557386" lon="11.013346625177839"><ele>851.0</ele><time>2026-05-01T09:22:57.001Z</time></trkpt><trkpt lat="47.68098378051917" lon="11.013505606498704"><ele>851.3333333333334</ele><time>2026-05-01T09:22:58.001Z</time></trkpt><trkpt lat="47.68086638472549" lon="11.01366871738513"><ele>851.6666666666667</ele><time>2026-05-01T09:22:59.001Z</time></trkpt><trkpt lat="47.68075256337632" lon="11.013834369368379"><ele>852.0</ele><time>2026-05-01T09:23:00.001Z</time></trkpt><trkpt lat="47.68064234904336" lon="11.014004563588593"><ele>852.3333333333333</ele><time>2026-05-01T09:23:01.001Z</time></trkpt><trkpt lat="47.68053533505232" lon="11.014184405773198"><ele>852.6666666666666</ele><time>2026-05-01T09:23:02.001Z</time></trkpt><trkpt lat="47.680426287086135" lon="11.014367024001281"><ele>853.0</ele><time>2026-05-01T09:23:03.001Z</time></trkpt><trkpt lat="47.6803164049822" lon="11.014553862801398"><ele>853.0</ele><time>2026-05-01T09:23:04.001Z</time></trkpt><trkpt lat="47.68020245815124" lon="11.0147455835923"><ele>853.0</ele><time>2026-05-01T09:23:05.001Z</time></trkpt><trkpt lat="47.68008863711865" lon="11.014936466381933"><ele>853.0</ele><time>2026-05-01T09:23:06.001Z</time></trkpt><trkpt lat="47.679972342306186" lon="11.015131828210905"><ele>853.0</ele><time>2026-05-01T09:23:07.001Z</time></trkpt><trkpt lat="47.67985652129941" lon="11.015324348480066"><ele>853.0</ele><time>2026-05-01T09:23:08.001Z</time></trkpt><trkpt lat="47.67973674570953" lon="11.0155174472581"><ele>853.0</ele><time>2026-05-01T09:23:09.001Z</time></trkpt><trkpt lat="47.679615444423895" lon="11.015707736934438"><ele>853.0</ele><time>2026-05-01T09:23:10.001Z</time></trkpt><trkpt lat="47.67949382190425" lon="11.015893981015532"><ele>853.0</ele><time>2026-05-01T09:23:11.001Z</time></trkpt><trkpt lat="47.67937158933606" lon="11.016075887376536"><ele>853.0</ele><time>2026-05-01T09:23:12.001Z</time></trkpt><trkpt lat="47.67924699290759" lon="11.016253466218323"><ele>854.0</ele><time>2026-05-01T09:23:13.001Z</time></trkpt><trkpt lat="47.67912046724268" lon="11.01642704859797"><ele>855.0</ele><time>2026-05-01T09:23:14.001Z</time></trkpt><trkpt lat="47.6789942052454" lon="11.016597687772746"><ele>856.0</ele><time>2026-05-01T09:23:15.001Z</time></trkpt><trkpt lat="47.67887002449338" lon="11.01676809992369"><ele>857.0</ele><time>2026-05-01T09:23:16.001Z</time></trkpt><trkpt lat="47.67875068436169" lon="11.016929573766992"><ele>858.0</ele><time>2026-05-01T09:23:17.001Z</time></trkpt><trkpt lat="47.67863360020613" lon="11.017086750906318"><ele>859.0</ele><time>2026-05-01T09:23:18.001Z</time></trkpt><trkpt lat="47.67851081213673" lon="11.01724899208079"><ele>859.6666666666666</ele><time>2026-05-01T09:23:19.001Z</time></trkpt><trkpt lat="47.6783864148944" lon="11.017414276221077"><ele>860.3333333333333</ele><time>2026-05-01T09:23:20.001Z</time></trkpt><trkpt lat="47.67825766694857" lon="11.017581304332124"><ele>861.0</ele><time>2026-05-01T09:23:21.002Z</time></trkpt><trkpt lat="47.67812686977701" lon="11.017751707355497"><ele>861.0</ele><time>2026-05-01T09:23:22.002Z</time></trkpt><trkpt lat="47.67799326243728" lon="11.017921960066353"><ele>861.0</ele><time>2026-05-01T09:23:23.002Z</time></trkpt><trkpt lat="47.677860389830485" lon="11.018094145922378"><ele>861.0</ele><time>2026-05-01T09:23:24.002Z</time></trkpt><trkpt lat="47.67773044947834" lon="11.018267950128955"><ele>864.0</ele><time>2026-05-01T09:23:25.002Z</time></trkpt><trkpt lat="47.67760341323567" lon="11.01844303720813"><ele>867.0</ele><time>2026-05-01T09:23:26.002Z</time></trkpt><trkpt lat="47.677476504868565" lon="11.018617101488992"><ele>870.0</ele><time>2026-05-01T09:23:27.002Z</time></trkpt><trkpt lat="47.67734972683942" lon="11.018787792076557"><ele>870.0</ele><time>2026-05-01T09:23:28.002Z</time></trkpt><trkpt lat="47.677222442446265" lon="11.018962145109846"><ele>870.0</ele><time>2026-05-01T09:23:29.002Z</time></trkpt><trkpt lat="47.677097938738626" lon="11.01913585265566"><ele>870.0</ele><time>2026-05-01T09:23:30.002Z</time></trkpt><trkpt lat="47.67697711424309" lon="11.019307626094575"><ele>871.0</ele><time>2026-05-01T09:23:31.002Z</time></trkpt><trkpt lat="47.6768566982375" lon="11.01947855651332"><ele>872.0</ele><time>2026-05-01T09:23:32.002Z</time></trkpt><trkpt lat="47.67673966671431" lon="11.01964940749209"><ele>873.0</ele><time>2026-05-01T09:23:33.002Z</time></trkpt><trkpt lat="47.67662673451086" lon="11.01981913851213"><ele>873.0</ele><time>2026-05-01T09:23:34.002Z</time></trkpt><trkpt lat="47.67651499590426" lon="11.019989829601318"><ele>873.0</ele><time>2026-05-01T09:23:35.002Z</time></trkpt><trkpt lat="47.6763997127089" lon="11.020163340535754"><ele>873.0</ele><time>2026-05-01T09:23:36.002Z</time></trkpt><trkpt lat="47.676284887791056" lon="11.020334592009311"><ele>873.0</ele><time>2026-05-01T09:23:37.002Z</time></trkpt><trkpt lat="47.67617127224275" lon="11.02050843619757"><ele>873.0</ele><time>2026-05-01T09:23:38.002Z</time></trkpt><trkpt lat="47.676058436005256" lon="11.020682018116068"><ele>873.0</ele><time>2026-05-01T09:23:39.002Z</time></trkpt><trkpt lat="47.67594661610228" lon="11.020852243316483"><ele>874.0</ele><time>2026-05-01T09:23:40.002Z</time></trkpt><trkpt lat="47.675835835001" lon="11.021020759941594"><ele>875.0</ele><time>2026-05-01T09:23:41.002Z</time></trkpt><trkpt lat="47.67572299852096" lon="11.021192922170915"><ele>876.0</ele><time>2026-05-01T09:23:42.002Z</time></trkpt><trkpt lat="47.6756098243472" lon="11.021369814943464"><ele>876.0</ele><time>2026-05-01T09:23:43.002Z</time></trkpt><trkpt lat="47.67549533329204" lon="11.021552231939463"><ele>876.0</ele><time>2026-05-01T09:23:44.002Z</time></trkpt><trkpt lat="47.675380256642754" lon="11.021737672103585"><ele>876.0</ele><time>2026-05-01T09:23:45.002Z</time></trkpt><trkpt lat="47.67526588552135" lon="11.021922462452741"><ele>878.3333333333333</ele><time>2026-05-01T09:23:46.002Z</time></trkpt><trkpt lat="47.67515053526316" lon="11.022108431525435"><ele>880.6666666666666</ele><time>2026-05-01T09:23:47.002Z</time></trkpt><trkpt lat="47.67503768424846" lon="11.0222928600812"><ele>883.0</ele><time>2026-05-01T09:23:48.002Z</time></trkpt><trkpt lat="47.67492575761695" lon="11.022480393760677"><ele>883.0</ele><time>2026-05-01T09:23:49.002Z</time></trkpt><trkpt lat="47.674816894014135" lon="11.022664607328146"><ele>883.0</ele><time>2026-05-01T09:23:50.002Z</time></trkpt><trkpt lat="47.674709500321526" lon="11.022849943692153"><ele>883.0</ele><time>2026-05-01T09:23:51.002Z</time></trkpt><trkpt lat="47.67460452283927" lon="11.023033689038177"><ele>883.0</ele><time>2026-05-01T09:23:52.002Z</time></trkpt><trkpt lat="47.674502144478254" lon="11.023219602396608"><ele>883.0</ele><time>2026-05-01T09:23:53.002Z</time></trkpt><trkpt lat="47.6744098976884" lon="11.023397263280405"><ele>883.0</ele><time>2026-05-01T09:23:54.002Z</time></trkpt><trkpt lat="47.674318460701585" lon="11.023578377089478"><ele>882.6666666666666</ele><time>2026-05-01T09:23:55.002Z</time></trkpt><trkpt lat="47.67422686416008" lon="11.023768774143484"><ele>882.3333333333333</ele><time>2026-05-01T09:23:56.002Z</time></trkpt><trkpt lat="47.67413619511348" lon="11.023963959233134"><ele>882.0</ele><time>2026-05-01T09:23:57.002Z</time></trkpt><trkpt lat="47.674050713328896" lon="11.024164066721912"><ele>880.0</ele><time>2026-05-01T09:23:58.002Z</time></trkpt><trkpt lat="47.67396939801168" lon="11.024366604141491"><ele>878.0</ele><time>2026-05-01T09:23:59.002Z</time></trkpt><trkpt lat="47.673891353899876" lon="11.024573425614895"><ele>876.0</ele><time>2026-05-01T09:24:00.002Z</time></trkpt><trkpt lat="47.67381802569982" lon="11.024782029835714"><ele>874.6666666666667</ele><time>2026-05-01T09:24:01.002Z</time></trkpt><trkpt lat="47.6737499631532" lon="11.02499796290507"><ele>873.3333333333334</ele><time>2026-05-01T09:24:02.002Z</time></trkpt><trkpt lat="47.673684266875746" lon="11.025219960682945"><ele>872.0</ele><time>2026-05-01T09:24:03.002Z</time></trkpt><trkpt lat="47.67361955758793" lon="11.025449745638966"><ele>873.0</ele><time>2026-05-01T09:24:04.002Z</time></trkpt><trkpt lat="47.67355618251906" lon="11.025681135004628"><ele>874.0</ele><time>2026-05-01T09:24:05.002Z</time></trkpt><trkpt lat="47.67349243082167" lon="11.025918291979819"><ele>875.0</ele><time>2026-05-01T09:24:06.002Z</time></trkpt><trkpt lat="47.67342730224018" lon="11.026156889926185"><ele>875.0</ele><time>2026-05-01T09:24:07.002Z</time></trkpt><trkpt lat="47.6733588261979" lon="11.026397550789511"><ele>875.0</ele><time>2026-05-01T09:24:08.002Z</time></trkpt><trkpt lat="47.673283810631844" lon="11.02663420918692"><ele>875.0</ele><time>2026-05-01T09:24:09.002Z</time></trkpt><trkpt lat="47.67320643352539" lon="11.026861056321087"><ele>873.6666666666667</ele><time>2026-05-01T09:24:10.003Z</time></trkpt><trkpt lat="47.67313033878912" lon="11.02707446592963"><ele>872.3333333333333</ele><time>2026-05-01T09:24:11.003Z</time></trkpt><trkpt lat="47.67305326050219" lon="11.027279112517265"><ele>871.0</ele><time>2026-05-01T09:24:12.003Z</time></trkpt><trkpt lat="47.67297033421075" lon="11.027478342198654"><ele>871.3333333333333</ele><time>2026-05-01T09:24:13.003Z</time></trkpt><trkpt lat="47.672879133860874" lon="11.027676691653934"><ele>871.6666666666667</ele><time>2026-05-01T09:24:14.003Z</time></trkpt><trkpt lat="47.67278232475163" lon="11.027868418322853"><ele>872.0</ele><time>2026-05-01T09:24:15.003Z</time></trkpt><trkpt lat="47.672678789494014" lon="11.02805554138827"><ele>872.0</ele><time>2026-05-01T09:24:16.003Z</time></trkpt><trkpt lat="47.672572117161266" lon="11.028234666235669"><ele>872.0</ele><time>2026-05-01T09:24:17.003Z</time></trkpt><trkpt lat="47.67246733597149" lon="11.028403257600052"><ele>872.0</ele><time>2026-05-01T09:24:18.003Z</time></trkpt><trkpt lat="47.67236201600148" lon="11.028559501303057"><ele>872.0</ele><time>2026-05-01T09:24:19.003Z</time></trkpt><trkpt lat="47.67225333976432" lon="11.028705915125505"><ele>872.0</ele><time>2026-05-01T09:24:20.003Z</time></trkpt><trkpt lat="47.67213894089672" lon="11.028845026998757"><ele>872.0</ele><time>2026-05-01T09:24:21.003Z</time></trkpt><trkpt lat="47.672017326266214" lon="11.028982817230196"><ele>872.0</ele><time>2026-05-01T09:24:22.003Z</time></trkpt><trkpt lat="47.671892616168854" lon="11.029114467164467"><ele>871.0</ele><time>2026-05-01T09:24:23.003Z</time></trkpt><trkpt lat="47.67177045069051" lon="11.029237588637772"><ele>870.0</ele><time>2026-05-01T09:24:24.003Z</time></trkpt><trkpt lat="47.6716567514989" lon="11.029344040923558"><ele>869.0</ele><time>2026-05-01T09:24:25.003Z</time></trkpt><trkpt lat="47.67155558491736" lon="11.02941989813379"><ele>868.0</ele><time>2026-05-01T09:24:26.003Z</time></trkpt><trkpt lat="47.67145540303607" lon="11.029459260259403"><ele>868.0</ele><time>2026-05-01T09:24:27.003Z</time></trkpt><trkpt lat="47.671346560802085" lon="11.029423963220069"><ele>868.0</ele><time>2026-05-01T09:24:28.003Z</time></trkpt><trkpt lat="47.67125940661682" lon="11.029365434066493"><ele>868.0</ele><time>2026-05-01T09:24:29.003Z</time></trkpt><trkpt lat="47.67118638182299" lon="11.02926125925783"><ele>868.0</ele><time>2026-05-01T09:24:30.003Z</time></trkpt><trkpt lat="47.67111765645263" lon="11.029144827539142"><ele>868.0</ele><time>2026-05-01T09:24:31.003Z</time></trkpt><trkpt lat="47.671042262166196" lon="11.029050890780523"><ele>868.3333333333333</ele><time>2026-05-01T09:24:32.003Z</time></trkpt><trkpt lat="47.67094757220112" lon="11.029024009714991"><ele>868.6666666666666</ele><time>2026-05-01T09:24:33.003Z</time></trkpt><trkpt lat="47.67086188929628" lon="11.029041193623788"><ele>869.0</ele><time>2026-05-01T09:24:34.003Z</time></trkpt><trkpt lat="47.67077528824374" lon="11.029072919253679"><ele>869.3333333333333</ele><time>2026-05-01T09:24:36.003Z</time></trkpt><trkpt lat="47.67069487042193" lon="11.029095010390185"><ele>869.6666666666666</ele><time>2026-05-01T09:24:42.003Z</time></trkpt><trkpt lat="47.670604708544474" lon="11.029098578566863"><ele>870.0</ele><time>2026-05-01T09:24:53.001Z</time></trkpt><trkpt lat="47.67052203465662" lon="11.029108799384172"><ele>870.0</ele><time>2026-05-01T09:24:55.001Z</time></trkpt><trkpt lat="47.670437867196306" lon="11.029115116823519"><ele>870.0</ele><time>2026-05-01T09:24:59.001Z</time></trkpt><trkpt lat="47.67036768877905" lon="11.029124650519961"><ele>870.0</ele><time>2026-05-01T09:25:03.001Z</time></trkpt><trkpt lat="47.67028805533793" lon="11.029201801792198"><ele>870.0</ele><time>2026-05-01T09:25:13.001Z</time></trkpt><trkpt lat="47.670265116897305" lon="11.029301877549408"><ele>870.0</ele><time>2026-05-01T09:25:14.001Z</time></trkpt><trkpt lat="47.67026071061956" lon="11.029437354977684"><ele>870.0</ele><time>2026-05-01T09:25:15.001Z</time></trkpt><trkpt lat="47.67026389595627" lon="11.029577382591672"><ele>869.5</ele><time>2026-05-01T09:25:16.001Z</time></trkpt><trkpt lat="47.67027396851949" lon="11.029734558634296"><ele>869.0</ele><time>2026-05-01T09:25:17.001Z</time></trkpt><trkpt lat="47.670283969698865" lon="11.029916617164565"><ele>868.5</ele><time>2026-05-01T09:25:18.001Z</time></trkpt><trkpt lat="47.670294597726404" lon="11.030121491062392"><ele>868.0</ele><time>2026-05-01T09:25:19.001Z</time></trkpt><trkpt lat="47.67030319331098" lon="11.030335780417921"><ele>866.0</ele><time>2026-05-01T09:25:20.001Z</time></trkpt><trkpt lat="47.670311631139555" lon="11.03055432727841"><ele>864.0</ele><time>2026-05-01T09:25:21.001Z</time></trkpt><trkpt lat="47.67031980293542" lon="11.030786943369332"><ele>862.0</ele><time>2026-05-01T09:25:22.001Z</time></trkpt><trkpt lat="47.67032842250412" lon="11.031026107919294"><ele>861.0</ele><time>2026-05-01T09:25:23.001Z</time></trkpt><trkpt lat="47.670337889507486" lon="11.031282021261683"><ele>860.0</ele><time>2026-05-01T09:25:24.001Z</time></trkpt><trkpt lat="47.67034637390268" lon="11.031560706431943"><ele>859.0</ele><time>2026-05-01T09:25:25.001Z</time></trkpt><trkpt lat="47.67035444182753" lon="11.031838426102512"><ele>858.3333333333333</ele><time>2026-05-01T09:25:26.001Z</time></trkpt><trkpt lat="47.67035839674146" lon="11.03211879602463"><ele>857.6666666666667</ele><time>2026-05-01T09:25:27.001Z</time></trkpt><trkpt lat="47.670356767760765" lon="11.032413593719207"><ele>857.0</ele><time>2026-05-01T09:25:28.001Z</time></trkpt><trkpt lat="47.67034240422729" lon="11.032713560250027"><ele>855.3333333333334</ele><time>2026-05-01T09:25:29.001Z</time></trkpt><trkpt lat="47.67030979822892" lon="11.033014700894261"><ele>853.6666666666667</ele><time>2026-05-01T09:25:30.001Z</time></trkpt><trkpt lat="47.670270712876594" lon="11.033318896878221"><ele>852.0</ele><time>2026-05-01T09:25:31.001Z</time></trkpt><trkpt lat="47.67022523324621" lon="11.0336193768516"><ele>850.3333333333333</ele><time>2026-05-01T09:25:32.001Z</time></trkpt><trkpt lat="47.67017634757019" lon="11.033911728491972"><ele>848.6666666666666</ele><time>2026-05-01T09:25:33.001Z</time></trkpt><trkpt lat="47.67012396606569" lon="11.034198716525419"><ele>847.0</ele><time>2026-05-01T09:25:34.001Z</time></trkpt><trkpt lat="47.67007173037029" lon="11.034478093236867"><ele>847.0</ele><time>2026-05-01T09:25:35.001Z</time></trkpt><trkpt lat="47.670022420953906" lon="11.034753919784638"><ele>847.0</ele><time>2026-05-01T09:25:36.001Z</time></trkpt><trkpt lat="47.66998252137321" lon="11.0350177588195"><ele>847.0</ele><time>2026-05-01T09:25:37.001Z</time></trkpt><trkpt lat="47.669951561224785" lon="11.035271508331967"><ele>848.0</ele><time>2026-05-01T09:25:38.002Z</time></trkpt><trkpt lat="47.66992606331374" lon="11.035524072270483"><ele>849.0</ele><time>2026-05-01T09:25:39.002Z</time></trkpt><trkpt lat="47.66990873033037" lon="11.035772298285192"><ele>850.0</ele><time>2026-05-01T09:25:40.002Z</time></trkpt><trkpt lat="47.66989665294409" lon="11.036018384247463"><ele>850.25</ele><time>2026-05-01T09:25:41.002Z</time></trkpt><trkpt lat="47.669890915515445" lon="11.036252209219409"><ele>850.5</ele><time>2026-05-01T09:25:42.002Z</time></trkpt><trkpt lat="47.66988976813573" lon="11.036473888543215"><ele>850.75</ele><time>2026-05-01T09:25:43.002Z</time></trkpt><trkpt lat="47.669890714537416" lon="11.036678552133724"><ele>851.0</ele><time>2026-05-01T09:25:44.002Z</time></trkpt><trkpt lat="47.66989529787655" lon="11.036881991288919"><ele>851.5</ele><time>2026-05-01T09:25:45.002Z</time></trkpt><trkpt lat="47.669902448659926" lon="11.03708995457711"><ele>852.0</ele><time>2026-05-01T09:25:46.002Z</time></trkpt><trkpt lat="47.669908238906395" lon="11.037304234971355"><ele>852.5</ele><time>2026-05-01T09:25:47.002Z</time></trkpt><trkpt lat="47.66991516805671" lon="11.037514866667587"><ele>853.0</ele><time>2026-05-01T09:25:48.002Z</time></trkpt><trkpt lat="47.66992074213346" lon="11.037708127515716"><ele>854.0</ele><time>2026-05-01T09:25:49.002Z</time></trkpt><trkpt lat="47.66992309639949" lon="11.03788128714087"><ele>855.0</ele><time>2026-05-01T09:25:50.002Z</time></trkpt><trkpt lat="47.66992271461781" lon="11.038047276339919"><ele>856.0</ele><time>2026-05-01T09:25:51.002Z</time></trkpt><trkpt lat="47.66991859073282" lon="11.038215553221415"><ele>857.0</ele><time>2026-05-01T09:25:52.002Z</time></trkpt><trkpt lat="47.66991190145682" lon="11.038386745758057"><ele>857.6</ele><time>2026-05-01T09:25:53.002Z</time></trkpt><trkpt lat="47.66990072199575" lon="11.038549471822172"><ele>858.2</ele><time>2026-05-01T09:25:54.002Z</time></trkpt><trkpt lat="47.66988800842883" lon="11.038707338200682"><ele>858.8</ele><time>2026-05-01T09:25:55.002Z</time></trkpt><trkpt lat="47.66986797838496" lon="11.038868569819588"><ele>859.4</ele><time>2026-05-01T09:25:56.002Z</time></trkpt><trkpt lat="47.66984032407927" lon="11.039034366838932"><ele>860.0</ele><time>2026-05-01T09:25:57.002Z</time></trkpt><trkpt lat="47.66980750437629" lon="11.03920267196675"><ele>860.25</ele><time>2026-05-01T09:25:58.002Z</time></trkpt><trkpt lat="47.66977053426081" lon="11.03937108347317"><ele>860.5</ele><time>2026-05-01T09:25:59.002Z</time></trkpt><trkpt lat="47.669732114998745" lon="11.03953614715393"><ele>860.75</ele><time>2026-05-01T09:26:00.002Z</time></trkpt><trkpt lat="47.66969313282859" lon="11.039694352642556"><ele>861.0</ele><time>2026-05-01T09:26:01.002Z</time></trkpt><trkpt lat="47.66965509959807" lon="11.039839617342434"><ele>861.0</ele><time>2026-05-01T09:26:02.002Z</time></trkpt><trkpt lat="47.66961836324409" lon="11.03998279637566"><ele>860.9999999999999</ele><time>2026-05-01T09:26:03.002Z</time></trkpt><trkpt lat="47.66957814471569" lon="11.040132116894895"><ele>860.9999999999999</ele><time>2026-05-01T09:26:04.002Z</time></trkpt><trkpt lat="47.6695396825989" lon="11.040284832991295"><ele>861.0</ele><time>2026-05-01T09:26:05.002Z</time></trkpt><trkpt lat="47.6695032108178" lon="11.040441749859259"><ele>861.0</ele><time>2026-05-01T09:26:06.002Z</time></trkpt><trkpt lat="47.669468908091176" lon="11.040602127222687"><ele>862.0</ele><time>2026-05-01T09:26:07.002Z</time></trkpt><trkpt lat="47.66943924048485" lon="11.040758949254743"><ele>862.9999999999999</ele><time>2026-05-01T09:26:08.002Z</time></trkpt><trkpt lat="47.66941300254452" lon="11.04091166489562"><ele>863.9999999999999</ele><time>2026-05-01T09:26:09.002Z</time></trkpt><trkpt lat="47.669394455473196" lon="11.041064682695861"><ele>865.0</ele><time>2026-05-01T09:26:10.002Z</time></trkpt><trkpt lat="47.66937880513436" lon="11.041221476206896"><ele>866.0</ele><time>2026-05-01T09:26:11.002Z</time></trkpt><trkpt lat="47.66936800999222" lon="11.041379525759076"><ele>866.0</ele><time>2026-05-01T09:26:12.002Z</time></trkpt><trkpt lat="47.669359240023745" lon="11.041534295409397"><ele>865.9999999999999</ele><time>2026-05-01T09:26:13.002Z</time></trkpt><trkpt lat="47.66935143403657" lon="11.041688130148849"><ele>865.9999999999999</ele><time>2026-05-01T09:26:14.002Z</time></trkpt><trkpt lat="47.669347976128655" lon="11.041833338309036"><ele>866.0</ele><time>2026-05-01T09:26:15.002Z</time></trkpt><trkpt lat="47.66934955116077" lon="11.041967938860886"><ele>866.0</ele><time>2026-05-01T09:26:16.002Z</time></trkpt><trkpt lat="47.66935247757758" lon="11.042091085595917"><ele>865.5999999999999</ele><time>2026-05-01T09:26:17.002Z</time></trkpt><trkpt lat="47.669357734944384" lon="11.042202519422974"><ele>865.1999999999999</ele><time>2026-05-01T09:26:18.002Z</time></trkpt><trkpt lat="47.66936405001954" lon="11.042327866426248"><ele>864.8000000000001</ele><time>2026-05-01T09:26:19.002Z</time></trkpt><trkpt lat="47.66937135435323" lon="11.042467820512721"><ele>864.4000000000001</ele><time>2026-05-01T09:26:20.002Z</time></trkpt><trkpt lat="47.66938215339648" lon="11.042627705306035"><ele>864.0</ele><time>2026-05-01T09:26:21.002Z</time></trkpt><trkpt lat="47.66939785550765" lon="11.042801991133377"><ele>863.5</ele><time>2026-05-01T09:26:22.002Z</time></trkpt><trkpt lat="47.66941405764219" lon="11.042986470989131"><ele>863.0</ele><time>2026-05-01T09:26:23.002Z</time></trkpt><trkpt lat="47.66942822382115" lon="11.043164988728659"><ele>862.5</ele><time>2026-05-01T09:26:24.002Z</time></trkpt><trkpt lat="47.66943507699413" lon="11.043351734874422"><ele>862.0</ele><time>2026-05-01T09:26:25.002Z</time></trkpt><trkpt lat="47.669432462068144" lon="11.04354262419915"><ele>862.0</ele><time>2026-05-01T09:26:26.002Z</time></trkpt><trkpt lat="47.66941800139267" lon="11.043737537014039"><ele>862.0</ele><time>2026-05-01T09:26:27.002Z</time></trkpt><trkpt lat="47.6693953919556" lon="11.043936543876807"><ele>862.0</ele><time>2026-05-01T09:26:28.003Z</time></trkpt><trkpt lat="47.66936352854824" lon="11.04412977218968"><ele>862.0</ele><time>2026-05-01T09:26:29.003Z</time></trkpt><trkpt lat="47.66932281077649" lon="11.044314910333089"><ele>860.75</ele><time>2026-05-01T09:26:30.003Z</time></trkpt><trkpt lat="47.66927325380001" lon="11.0444897313816"><ele>859.5</ele><time>2026-05-01T09:26:31.003Z</time></trkpt><trkpt lat="47.66921654513399" lon="11.044653412285115"><ele>858.25</ele><time>2026-05-01T09:26:32.003Z</time></trkpt><trkpt lat="47.669152217057075" lon="11.044811678416142"><ele>857.0</ele><time>2026-05-01T09:26:33.003Z</time></trkpt><trkpt lat="47.66907486727677" lon="11.044962621372395"><ele>855.75</ele><time>2026-05-01T09:26:34.003Z</time></trkpt><trkpt lat="47.668989019539495" lon="11.045104618528892"><ele>854.5</ele><time>2026-05-01T09:26:35.003Z</time></trkpt><trkpt lat="47.66889388679763" lon="11.045234041657064"><ele>853.25</ele><time>2026-05-01T09:26:36.003Z</time></trkpt><trkpt lat="47.66879608654135" lon="11.045358485870125"><ele>852.0</ele><time>2026-05-01T09:26:37.003Z</time></trkpt><trkpt lat="47.66869723940305" lon="11.045479454522237"><ele>852.75</ele><time>2026-05-01T09:26:38.003Z</time></trkpt><trkpt lat="47.66860176769216" lon="11.045594919310295"><ele>853.5</ele><time>2026-05-01T09:26:39.003Z</time></trkpt><trkpt lat="47.66850841234878" lon="11.045713280717157"><ele>854.25</ele><time>2026-05-01T09:26:40.003Z</time></trkpt><trkpt lat="47.66841882133998" lon="11.045840674990059"><ele>855.0</ele><time>2026-05-01T09:26:41.003Z</time></trkpt><trkpt lat="47.66834130030944" lon="11.045981218551033"><ele>852.75</ele><time>2026-05-01T09:26:42.003Z</time></trkpt><trkpt lat="47.66828777722959" lon="11.046141734297363"><ele>850.5</ele><time>2026-05-01T09:26:43.003Z</time></trkpt><trkpt lat="47.66825878801462" lon="11.046322450850639"><ele>848.25</ele><time>2026-05-01T09:26:44.003Z</time></trkpt><trkpt lat="47.66823695237901" lon="11.046499185755032"><ele>846.0</ele><time>2026-05-01T09:26:45.003Z</time></trkpt><trkpt lat="47.668216709591476" lon="11.046685665694676"><ele>844.75</ele><time>2026-05-01T09:26:46.003Z</time></trkpt><trkpt lat="47.66818998850005" lon="11.04686751269943"><ele>843.5</ele><time>2026-05-01T09:26:47.003Z</time></trkpt><trkpt lat="47.668154276358436" lon="11.047047924265954"><ele>842.25</ele><time>2026-05-01T09:26:48.003Z</time></trkpt><trkpt lat="47.6681085801485" lon="11.04722092356482"><ele>841.0</ele><time>2026-05-01T09:26:49.003Z</time></trkpt><trkpt lat="47.668047925716444" lon="11.04738313768357"><ele>841.5</ele><time>2026-05-01T09:26:50.003Z</time></trkpt><trkpt lat="47.66797872291909" lon="11.04753566015233"><ele>842.0</ele><time>2026-05-01T09:26:51.003Z</time></trkpt><trkpt lat="47.667902879455085" lon="11.047683966592652"><ele>842.5</ele><time>2026-05-01T09:26:52.003Z</time></trkpt><trkpt lat="47.667825568268675" lon="11.047830630036948"><ele>843.0</ele><time>2026-05-01T09:26:53.003Z</time></trkpt><trkpt lat="47.667751529631566" lon="11.047979325402846"><ele>843.0</ele><time>2026-05-01T09:26:54.003Z</time></trkpt><trkpt lat="47.66768298346522" lon="11.048128134647783"><ele>843.0</ele><time>2026-05-01T09:26:55.003Z</time></trkpt><trkpt lat="47.667622689230605" lon="11.048277309410613"><ele>843.0</ele><time>2026-05-01T09:26:56.003Z</time></trkpt><trkpt lat="47.66756965033904" lon="11.048430685928706"><ele>843.0</ele><time>2026-05-01T09:26:57.003Z</time></trkpt><trkpt lat="47.66752038975437" lon="11.048590071814397"><ele>840.5</ele><time>2026-05-01T09:26:58.003Z</time></trkpt><trkpt lat="47.66747195881206" lon="11.048747390966568"><ele>838.0</ele><time>2026-05-01T09:26:59.001Z</time></trkpt><trkpt lat="47.667418662048604" lon="11.048903871514888"><ele>835.5</ele><time>2026-05-01T09:27:00.001Z</time></trkpt><trkpt lat="47.66736074956915" lon="11.04905378305074"><ele>833.0</ele><time>2026-05-01T09:27:01.001Z</time></trkpt><trkpt lat="47.66729748663177" lon="11.049199726235926"><ele>832.0</ele><time>2026-05-01T09:27:02.001Z</time></trkpt><trkpt lat="47.66723412823615" lon="11.049347706966314"><ele>831.0</ele><time>2026-05-01T09:27:03.001Z</time></trkpt><trkpt lat="47.66717734855189" lon="11.049503346692909"><ele>830.0</ele><time>2026-05-01T09:27:04.001Z</time></trkpt><trkpt lat="47.66712701044145" lon="11.049666470649889"><ele>829.0</ele><time>2026-05-01T09:27:05.001Z</time></trkpt><trkpt lat="47.66708177313905" lon="11.04983213488173"><ele>828.8000000000001</ele><time>2026-05-01T09:27:06.001Z</time></trkpt><trkpt lat="47.667036545816366" lon="11.049994952197993"><ele>828.6</ele><time>2026-05-01T09:27:07.001Z</time></trkpt><trkpt lat="47.66699172221117" lon="11.050152365512892"><ele>828.4</ele><time>2026-05-01T09:27:08.001Z</time></trkpt><trkpt lat="47.66693863824632" lon="11.050289209992293"><ele>828.2</ele><time>2026-05-01T09:27:09.001Z</time></trkpt><trkpt lat="47.666872213508945" lon="11.05041058939387"><ele>828.0</ele><time>2026-05-01T09:27:10.001Z</time></trkpt><trkpt lat="47.66679308454067" lon="11.05051890117405"><ele>828.0</ele><time>2026-05-01T09:27:11.001Z</time></trkpt><trkpt lat="47.66670377276013" lon="11.050608985554122"><ele>828.0</ele><time>2026-05-01T09:27:12.001Z</time></trkpt><trkpt lat="47.6666136518021" lon="11.050684671615485"><ele>828.0</ele><time>2026-05-01T09:27:13.001Z</time></trkpt><trkpt lat="47.666520567917594" lon="11.050750766035776"><ele>828.0</ele><time>2026-05-01T09:27:14.001Z</time></trkpt><trkpt lat="47.66643680977563" lon="11.05082603555244"><ele>828.0</ele><time>2026-05-01T09:27:15.001Z</time></trkpt><trkpt lat="47.666368139015695" lon="11.050923788640858"><ele>827.4</ele><time>2026-05-01T09:27:16.001Z</time></trkpt><trkpt lat="47.666318478216944" lon="11.05104237223719"><ele>826.8</ele><time>2026-05-01T09:27:17.001Z</time></trkpt><trkpt lat="47.66629275159047" lon="11.051183921010093"><ele>826.2</ele><time>2026-05-01T09:27:18.001Z</time></trkpt><trkpt lat="47.66629227465121" lon="11.051330610980669"><ele>825.6</ele><time>2026-05-01T09:27:19.001Z</time></trkpt><trkpt lat="47.66632727716619" lon="11.051477709230316"><ele>825.0</ele><time>2026-05-01T09:27:20.001Z</time></trkpt><trkpt lat="47.666372221435026" lon="11.051611229356517"><ele>824.6</ele><time>2026-05-01T09:27:21.001Z</time></trkpt><trkpt lat="47.66642197478836" lon="11.051743652164454"><ele>824.2</ele><time>2026-05-01T09:27:22.001Z</time></trkpt><trkpt lat="47.66647433048806" lon="11.051875626676123"><ele>823.8</ele><time>2026-05-01T09:27:23.001Z</time></trkpt><trkpt lat="47.666523877252736" lon="11.052010513476507"><ele>823.4</ele><time>2026-05-01T09:27:24.001Z</time></trkpt><trkpt lat="47.6665674376132" lon="11.052144601170696"><ele>823.0</ele><time>2026-05-01T09:27:25.001Z</time></trkpt><trkpt lat="47.66660635867795" lon="11.05228573446792"><ele>823.0</ele><time>2026-05-01T09:27:26.001Z</time></trkpt><trkpt lat="47.666649599741746" lon="11.052421123851518"><ele>823.0</ele><time>2026-05-01T09:27:27.001Z</time></trkpt><trkpt lat="47.6666936654459" lon="11.052554918657702"><ele>823.0</ele><time>2026-05-01T09:27:28.001Z</time></trkpt><trkpt lat="47.6667305234163" lon="11.052692932883971"><ele>823.0</ele><time>2026-05-01T09:27:29.001Z</time></trkpt><trkpt lat="47.66675743313981" lon="11.052836593684875"><ele>823.0</ele><time>2026-05-01T09:27:30.001Z</time></trkpt><trkpt lat="47.666772421146895" lon="11.052986207943839"><ele>822.8</ele><time>2026-05-01T09:27:31.001Z</time></trkpt><trkpt lat="47.6667758239422" lon="11.053139813645325"><ele>822.5999999999999</ele><time>2026-05-01T09:27:32.001Z</time></trkpt><trkpt lat="47.66677537105456" lon="11.053300817431879"><ele>822.4000000000001</ele><time>2026-05-01T09:27:33.001Z</time></trkpt><trkpt lat="47.66677209996533" lon="11.053466776681743"><ele>822.2</ele><time>2026-05-01T09:27:34.001Z</time></trkpt><trkpt lat="47.66677964398005" lon="11.053640238920309"><ele>822.0</ele><time>2026-05-01T09:27:35.001Z</time></trkpt><trkpt lat="47.666802401494614" lon="11.053811305992726"><ele>821.5</ele><time>2026-05-01T09:27:36.001Z</time></trkpt><trkpt lat="47.666833299411664" lon="11.053983696015958"><ele>821.0</ele><time>2026-05-01T09:27:37.001Z</time></trkpt><trkpt lat="47.666866287791464" lon="11.054155579102487"><ele>820.5</ele><time>2026-05-01T09:27:38.001Z</time></trkpt><trkpt lat="47.66689886463218" lon="11.054328953141864"><ele>820.0</ele><time>2026-05-01T09:27:39.001Z</time></trkpt><trkpt lat="47.66692511037569" lon="11.05450504029146"><ele>819.25</ele><time>2026-05-01T09:27:40.001Z</time></trkpt><trkpt lat="47.6669470574403" lon="11.054686303041024"><ele>818.5</ele><time>2026-05-01T09:27:41.001Z</time></trkpt><trkpt lat="47.66696456773815" lon="11.054867029819492"><ele>817.75</ele><time>2026-05-01T09:27:42.001Z</time></trkpt><trkpt lat="47.6669822795718" lon="11.055051412416825"><ele>817.0</ele><time>2026-05-01T09:27:43.001Z</time></trkpt><trkpt lat="47.66699928003276" lon="11.055233496694733"><ele>817.0</ele><time>2026-05-01T09:27:44.001Z</time></trkpt><trkpt lat="47.6670158286599" lon="11.05540154207283"><ele>817.0</ele><time>2026-05-01T09:27:45.001Z</time></trkpt><trkpt lat="47.667031066102574" lon="11.05557389765772"><ele>817.0</ele><time>2026-05-01T09:27:46.001Z</time></trkpt><trkpt lat="47.667046889899275" lon="11.055745990129095"><ele>817.0</ele><time>2026-05-01T09:27:47.001Z</time></trkpt><trkpt lat="47.66706357899722" lon="11.055919223948392"><ele>816.75</ele><time>2026-05-01T09:27:48.001Z</time></trkpt><trkpt lat="47.66707855571921" lon="11.05609851395092"><ele>816.5</ele><time>2026-05-01T09:27:49.001Z</time></trkpt><trkpt lat="47.66708963388476" lon="11.05627825221274"><ele>816.25</ele><time>2026-05-01T09:27:50.001Z</time></trkpt><trkpt lat="47.66709970521436" lon="11.056460887775874"><ele>816.0</ele><time>2026-05-01T09:27:51.001Z</time></trkpt><trkpt lat="47.66711144961027" lon="11.056642481354466"><ele>815.75</ele><time>2026-05-01T09:27:52.001Z</time></trkpt><trkpt lat="47.667125717049956" lon="11.05682693647426"><ele>815.5</ele><time>2026-05-01T09:27:53.001Z</time></trkpt><trkpt lat="47.66714076990877" lon="11.057010489212484"><ele>815.25</ele><time>2026-05-01T09:27:54.001Z</time></trkpt><trkpt lat="47.66715368878131" lon="11.057198265754774"><ele>815.0</ele><time>2026-05-01T09:27:55.001Z</time></trkpt><trkpt lat="47.667165342482406" lon="11.0573856002364"><ele>814.5</ele><time>2026-05-01T09:27:56.001Z</time></trkpt><trkpt lat="47.66717611516031" lon="11.057573517011265"><ele>814.0</ele><time>2026-05-01T09:27:57.002Z</time></trkpt><trkpt lat="47.66718733840451" lon="11.0577603411975"><ele>813.5</ele><time>2026-05-01T09:27:58.002Z</time></trkpt><trkpt lat="47.66719798757884" lon="11.057945770124437"><ele>813.0</ele><time>2026-05-01T09:27:59.002Z</time></trkpt><trkpt lat="47.667210583090615" lon="11.058130357586403"><ele>812.75</ele><time>2026-05-01T09:28:00.002Z</time></trkpt><trkpt lat="47.66722222027364" lon="11.0583143770382"><ele>812.5</ele><time>2026-05-01T09:28:01.002Z</time></trkpt><trkpt lat="47.66723615092414" lon="11.05849849616132"><ele>812.25</ele><time>2026-05-01T09:28:02.002Z</time></trkpt><trkpt lat="47.66725214796762" lon="11.058681080550771"><ele>812.0</ele><time>2026-05-01T09:28:03.002Z</time></trkpt><trkpt lat="47.66726882985067" lon="11.058863355466315"><ele>812.0</ele><time>2026-05-01T09:28:04.002Z</time></trkpt><trkpt lat="47.66728357042037" lon="11.059046971054421"><ele>812.0</ele><time>2026-05-01T09:28:05.002Z</time></trkpt><trkpt lat="47.66729477142563" lon="11.0592277501548"><ele>812.0</ele><time>2026-05-01T09:28:06.002Z</time></trkpt><trkpt lat="47.66730612428574" lon="11.059409356458799"><ele>812.0</ele><time>2026-05-01T09:28:07.002Z</time></trkpt><trkpt lat="47.66731663693057" lon="11.059589897617318"><ele>811.25</ele><time>2026-05-01T09:28:08.002Z</time></trkpt><trkpt lat="47.66732714020454" lon="11.059770140225256"><ele>810.5</ele><time>2026-05-01T09:28:09.002Z</time></trkpt><trkpt lat="47.66733533103744" lon="11.059950303427327"><ele>809.75</ele><time>2026-05-01T09:28:10.002Z</time></trkpt><trkpt lat="47.66734001952465" lon="11.06012969491499"><ele>809.0</ele><time>2026-05-01T09:28:11.002Z</time></trkpt><trkpt lat="47.667340918109325" lon="11.060310723149884"><ele>808.5</ele><time>2026-05-01T09:28:12.002Z</time></trkpt><trkpt lat="47.66733779356799" lon="11.060492793479385"><ele>808.0</ele><time>2026-05-01T09:28:13.002Z</time></trkpt><trkpt lat="47.66733140214295" lon="11.060678654165596"><ele>807.5</ele><time>2026-05-01T09:28:14.002Z</time></trkpt><trkpt lat="47.66732193861618" lon="11.060864946921974"><ele>807.0</ele><time>2026-05-01T09:28:15.002Z</time></trkpt><trkpt lat="47.66730891573078" lon="11.061053846170381"><ele>806.5</ele><time>2026-05-01T09:28:16.002Z</time></trkpt><trkpt lat="47.667293712209414" lon="11.061242385947207"><ele>806.0</ele><time>2026-05-01T09:28:17.002Z</time></trkpt><trkpt lat="47.66727628533979" lon="11.0614312225018"><ele>805.5</ele><time>2026-05-01T09:28:18.002Z</time></trkpt><trkpt lat="47.66725971056918" lon="11.06161730483246"><ele>805.0</ele><time>2026-05-01T09:28:19.002Z</time></trkpt><trkpt lat="47.66724127806131" lon="11.06180531142965"><ele>805.0</ele><time>2026-05-01T09:28:20.002Z</time></trkpt><trkpt lat="47.66722332264755" lon="11.06199513776037"><ele>805.0</ele><time>2026-05-01T09:28:21.002Z</time></trkpt><trkpt lat="47.66720512442165" lon="11.062185716866695"><ele>805.0</ele><time>2026-05-01T09:28:22.002Z</time></trkpt><trkpt lat="47.66718628562737" lon="11.062376140028038"><ele>805.0</ele><time>2026-05-01T09:28:23.002Z</time></trkpt><trkpt lat="47.66716820663979" lon="11.062568405597132"><ele>805.25</ele><time>2026-05-01T09:28:24.002Z</time></trkpt><trkpt lat="47.667149362755836" lon="11.062762436117334"><ele>805.5</ele><time>2026-05-01T09:28:25.002Z</time></trkpt><trkpt lat="47.66713089789566" lon="11.062965333674358"><ele>805.75</ele><time>2026-05-01T09:28:26.002Z</time></trkpt><trkpt lat="47.66711396462083" lon="11.06318232127263"><ele>806.0</ele><time>2026-05-01T09:28:27.002Z</time></trkpt><trkpt lat="47.667097433154304" lon="11.063415339419063"><ele>805.3333333333334</ele><time>2026-05-01T09:28:28.002Z</time></trkpt><trkpt lat="47.66707247634379" lon="11.063665304501386"><ele>804.6666666666667</ele><time>2026-05-01T09:28:29.002Z</time></trkpt><trkpt lat="47.66704888949063" lon="11.063926874923801"><ele>804.0</ele><time>2026-05-01T09:28:30.002Z</time></trkpt><trkpt lat="47.66702479654026" lon="11.064194238034718"><ele>804.0</ele><time>2026-05-01T09:28:31.002Z</time></trkpt><trkpt lat="47.666998710227055" lon="11.06445516789672"><ele>804.0</ele><time>2026-05-01T09:28:32.002Z</time></trkpt><trkpt lat="47.66697082425292" lon="11.064733084530902"><ele>804.0</ele><time>2026-05-01T09:28:33.002Z</time></trkpt><trkpt lat="47.66694335041756" lon="11.065022651179532"><ele>796.3333333333333</ele><time>2026-05-01T09:28:34.002Z</time></trkpt><trkpt lat="47.666916306343595" lon="11.065322766153582"><ele>788.6666666666666</ele><time>2026-05-01T09:28:35.002Z</time></trkpt><trkpt lat="47.666890372263715" lon="11.065621841389497"><ele>781.0</ele><time>2026-05-01T09:28:36.002Z</time></trkpt><trkpt lat="47.666867885209214" lon="11.065923302491935"><ele>781.0</ele><time>2026-05-01T09:28:37.002Z</time></trkpt><trkpt lat="47.66684765759443" lon="11.06623751088944"><ele>781.0</ele><time>2026-05-01T09:28:38.002Z</time></trkpt><trkpt lat="47.666827812324286" lon="11.066558054491466"><ele>781.0</ele><time>2026-05-01T09:28:39.002Z</time></trkpt><trkpt lat="47.66681048484797" lon="11.066884928872671"><ele>780.5</ele><time>2026-05-01T09:28:40.002Z</time></trkpt><trkpt lat="47.66679563316157" lon="11.06721715477381"><ele>780.0</ele><time>2026-05-01T09:28:41.002Z</time></trkpt><trkpt lat="47.66678577711247" lon="11.067553355947283"><ele>780.0</ele><time>2026-05-01T09:28:42.002Z</time></trkpt><trkpt lat="47.666782968227714" lon="11.067893333477674"><ele>780.0</ele><time>2026-05-01T09:28:43.002Z</time></trkpt><trkpt lat="47.66678877596026" lon="11.068234079500524"><ele>780.5</ele><time>2026-05-01T09:28:44.002Z</time></trkpt><trkpt lat="47.66680385579145" lon="11.068566094077378"><ele>781.0</ele><time>2026-05-01T09:28:45.002Z</time></trkpt><trkpt lat="47.66681920307965" lon="11.068904679933356"><ele>779.0</ele><time>2026-05-01T09:28:46.002Z</time></trkpt><trkpt lat="47.66683702366888" lon="11.069246007599636"><ele>777.0</ele><time>2026-05-01T09:28:47.002Z</time></trkpt><trkpt lat="47.66685480733842" lon="11.069585031686259"><ele>777.0</ele><time>2026-05-01T09:28:48.003Z</time></trkpt><trkpt lat="47.66687076047549" lon="11.069922439237441"><ele>777.0</ele><time>2026-05-01T09:28:49.003Z</time></trkpt><trkpt lat="47.666884811753455" lon="11.07025637356245"><ele>775.3333333333333</ele><time>2026-05-01T09:28:50.003Z</time></trkpt><trkpt lat="47.66690111800155" lon="11.070589009496395"><ele>773.6666666666666</ele><time>2026-05-01T09:28:51.003Z</time></trkpt><trkpt lat="47.666915650932644" lon="11.070920880843092"><ele>772.0</ele><time>2026-05-01T09:28:52.003Z</time></trkpt><trkpt lat="47.66692897143931" lon="11.071253728821036"><ele>771.6666666666666</ele><time>2026-05-01T09:28:53.003Z</time></trkpt><trkpt lat="47.66693888154837" lon="11.071586328541404"><ele>771.3333333333333</ele><time>2026-05-01T09:28:54.003Z</time></trkpt><trkpt lat="47.66694732196664" lon="11.071919357716585"><ele>771.0</ele><time>2026-05-01T09:28:55.003Z</time></trkpt><trkpt lat="47.666953969885746" lon="11.0722551478719"><ele>784.0</ele><time>2026-05-01T09:28:56.003Z</time></trkpt><trkpt lat="47.6669585439624" lon="11.072589674084167"><ele>797.0</ele><time>2026-05-01T09:28:57.003Z</time></trkpt><trkpt lat="47.66696281140362" lon="11.072924038500293"><ele>797.0</ele><time>2026-05-01T09:28:58.003Z</time></trkpt><trkpt lat="47.66696525469525" lon="11.073256483934108"><ele>797.0</ele><time>2026-05-01T09:28:59.003Z</time></trkpt><trkpt lat="47.66696606619971" lon="11.073587602712058"><ele>797.0</ele><time>2026-05-01T09:29:00.003Z</time></trkpt><trkpt lat="47.666965252754984" lon="11.07391732149187"><ele>797.6666666666667</ele><time>2026-05-01T09:29:01.003Z</time></trkpt><trkpt lat="47.66696136143155" lon="11.074243172961216"><ele>798.3333333333333</ele><time>2026-05-01T09:29:02.003Z</time></trkpt><trkpt lat="47.66695616069657" lon="11.07457009470378"><ele>799.0</ele><time>2026-05-01T09:29:03.003Z</time></trkpt><trkpt lat="47.66694953793305" lon="11.074896369470395"><ele>788.6666666666666</ele><time>2026-05-01T09:29:04.003Z</time></trkpt><trkpt lat="47.666942742293195" lon="11.075225365419055"><ele>778.3333333333333</ele><time>2026-05-01T09:29:05.001Z</time></trkpt><trkpt lat="47.6669373013234" lon="11.075552498070689"><ele>768.0</ele><time>2026-05-01T09:29:06.001Z</time></trkpt><trkpt lat="47.66693009077494" lon="11.07588275104297"><ele>768.0</ele><time>2026-05-01T09:29:07.001Z</time></trkpt><trkpt lat="47.66692169238039" lon="11.07621415629602"><ele>768.0</ele><time>2026-05-01T09:29:08.001Z</time></trkpt><trkpt lat="47.66690970323822" lon="11.076545111499131"><ele>768.0</ele><time>2026-05-01T09:29:09.001Z</time></trkpt><trkpt lat="47.66689589729326" lon="11.076876503963785"><ele>767.5</ele><time>2026-05-01T09:29:10.001Z</time></trkpt><trkpt lat="47.66687847189371" lon="11.077208733766776"><ele>767.0</ele><time>2026-05-01T09:29:11.001Z</time></trkpt><trkpt lat="47.66686026239829" lon="11.077543502566508"><ele>766.0</ele><time>2026-05-01T09:29:12.001Z</time></trkpt><trkpt lat="47.66684108173779" lon="11.077877712015132"><ele>765.0</ele><time>2026-05-01T09:29:13.001Z</time></trkpt><trkpt lat="47.666821693029725" lon="11.078215108391609"><ele>765.5</ele><time>2026-05-01T09:29:14.001Z</time></trkpt><trkpt lat="47.6668015906498" lon="11.078553749871672"><ele>766.0</ele><time>2026-05-01T09:29:15.001Z</time></trkpt><trkpt lat="47.66678146572673" lon="11.07889056964939"><ele>766.0</ele><time>2026-05-01T09:29:16.001Z</time></trkpt><trkpt lat="47.66675312646694" lon="11.079226396446701"><ele>766.0</ele><time>2026-05-01T09:29:17.001Z</time></trkpt><trkpt lat="47.666720971036064" lon="11.079562882452182"><ele>766.0</ele><time>2026-05-01T09:29:18.001Z</time></trkpt><trkpt lat="47.66669031361515" lon="11.079901224604328"><ele>766.0</ele><time>2026-05-01T09:29:19.001Z</time></trkpt><trkpt lat="47.66666004070891" lon="11.08024051319733"><ele>765.5</ele><time>2026-05-01T09:29:20.001Z</time></trkpt><trkpt lat="47.66662786848692" lon="11.080578164345402"><ele>765.0</ele><time>2026-05-01T09:29:21.001Z</time></trkpt><trkpt lat="47.666591396835564" lon="11.080910679340237"><ele>764.3333333333334</ele><time>2026-05-01T09:29:22.001Z</time></trkpt><trkpt lat="47.666554589258304" lon="11.081229076988958"><ele>763.6666666666667</ele><time>2026-05-01T09:29:23.001Z</time></trkpt><trkpt lat="47.666513925558554" lon="11.081546735204078"><ele>763.0</ele><time>2026-05-01T09:29:24.001Z</time></trkpt><trkpt lat="47.66647222543376" lon="11.081871993542899"><ele>762.6666666666667</ele><time>2026-05-01T09:29:25.001Z</time></trkpt><trkpt lat="47.666424880068426" lon="11.08219568654574"><ele>762.3333333333334</ele><time>2026-05-01T09:29:26.001Z</time></trkpt><trkpt lat="47.6663677596481" lon="11.082515343954425"><ele>762.0</ele><time>2026-05-01T09:29:27.001Z</time></trkpt><trkpt lat="47.666305787612934" lon="11.082817259656046"><ele>761.6666666666666</ele><time>2026-05-01T09:29:28.001Z</time></trkpt><trkpt lat="47.66624725602005" lon="11.083112675798668"><ele>761.3333333333333</ele><time>2026-05-01T09:29:29.001Z</time></trkpt><trkpt lat="47.66619250024796" lon="11.083393739410086"><ele>761.0</ele><time>2026-05-01T09:29:30.001Z</time></trkpt><trkpt lat="47.6661364044216" lon="11.08366706941849"><ele>756.0</ele><time>2026-05-01T09:29:31.001Z</time></trkpt><trkpt lat="47.66607989719605" lon="11.083937525433083"><ele>751.0</ele><time>2026-05-01T09:29:32.001Z</time></trkpt><trkpt lat="47.66602299423914" lon="11.084211438063647"><ele>746.0</ele><time>2026-05-01T09:29:33.001Z</time></trkpt><trkpt lat="47.6659664736633" lon="11.084484190426707"><ele>745.6666666666666</ele><time>2026-05-01T09:29:34.001Z</time></trkpt><trkpt lat="47.665912302811755" lon="11.08475823971145"><ele>745.3333333333334</ele><time>2026-05-01T09:29:35.001Z</time></trkpt><trkpt lat="47.66586147598797" lon="11.085032460836047"><ele>745.0</ele><time>2026-05-01T09:29:36.001Z</time></trkpt><trkpt lat="47.6658155853557" lon="11.08530939931552"><ele>745.6666666666667</ele><time>2026-05-01T09:29:37.001Z</time></trkpt><trkpt lat="47.66577767334392" lon="11.085590148455298"><ele>746.3333333333334</ele><time>2026-05-01T09:29:38.001Z</time></trkpt><trkpt lat="47.66574524034654" lon="11.085873449791482"><ele>747.0</ele><time>2026-05-01T09:29:39.001Z</time></trkpt><trkpt lat="47.66571908471184" lon="11.086156822028729"><ele>747.6666666666666</ele><time>2026-05-01T09:29:40.001Z</time></trkpt><trkpt lat="47.66569720997618" lon="11.086445763292629"><ele>748.3333333333333</ele><time>2026-05-01T09:29:41.001Z</time></trkpt><trkpt lat="47.66568207638973" lon="11.086732786276515"><ele>749.0</ele><time>2026-05-01T09:29:42.001Z</time></trkpt><trkpt lat="47.66567555161622" lon="11.087022057145292"><ele>749.0</ele><time>2026-05-01T09:29:43.001Z</time></trkpt><trkpt lat="47.66567511895575" lon="11.087309974633362"><ele>749.0</ele><time>2026-05-01T09:29:44.001Z</time></trkpt><trkpt lat="47.665681112994974" lon="11.087596640504623"><ele>749.0</ele><time>2026-05-01T09:29:45.001Z</time></trkpt><trkpt lat="47.66569281405456" lon="11.08788299038499"><ele>749.0</ele><time>2026-05-01T09:29:46.001Z</time></trkpt><trkpt lat="47.66571100872241" lon="11.088168316835459"><ele>749.0</ele><time>2026-05-01T09:29:47.001Z</time></trkpt><trkpt lat="47.66573570504072" lon="11.088452536975703"><ele>749.0</ele><time>2026-05-01T09:29:48.001Z</time></trkpt><trkpt lat="47.665764059514494" lon="11.088735873639484"><ele>748.0</ele><time>2026-05-01T09:29:49.001Z</time></trkpt><trkpt lat="47.66579708974122" lon="11.089021602008566"><ele>747.0</ele><time>2026-05-01T09:29:50.001Z</time></trkpt><trkpt lat="47.665832441662545" lon="11.089308347694905"><ele>746.0</ele><time>2026-05-01T09:29:51.001Z</time></trkpt><trkpt lat="47.66586925379942" lon="11.0895981883974"><ele>745.0</ele><time>2026-05-01T09:29:52.001Z</time></trkpt><trkpt lat="47.66590740831478" lon="11.08989277703608"><ele>744.0</ele><time>2026-05-01T09:29:53.001Z</time></trkpt><trkpt lat="47.665944615874814" lon="11.090194981365736"><ele>743.0</ele><time>2026-05-01T09:29:54.001Z</time></trkpt><trkpt lat="47.66598389774693" lon="11.090502080943795"><ele>740.0</ele><time>2026-05-01T09:29:55.001Z</time></trkpt><trkpt lat="47.666025231042596" lon="11.090816373187735"><ele>737.0</ele><time>2026-05-01T09:29:56.001Z</time></trkpt><trkpt lat="47.66606647947401" lon="11.091133288993078"><ele>734.0</ele><time>2026-05-01T09:29:57.001Z</time></trkpt><trkpt lat="47.66610605771192" lon="11.091442729472044"><ele>737.6666666666666</ele><time>2026-05-01T09:29:58.001Z</time></trkpt><trkpt lat="47.6661461052859" lon="11.091760891734255"><ele>741.3333333333334</ele><time>2026-05-01T09:29:59.001Z</time></trkpt><trkpt lat="47.666185280631105" lon="11.09208249747309"><ele>745.0</ele><time>2026-05-01T09:30:00.001Z</time></trkpt><trkpt lat="47.66622421512229" lon="11.09240731025001"><ele>744.3333333333334</ele><time>2026-05-01T09:30:01.001Z</time></trkpt><trkpt lat="47.66626205876906" lon="11.092735201305004"><ele>743.6666666666666</ele><time>2026-05-01T09:30:02.001Z</time></trkpt><trkpt lat="47.6662983899934" lon="11.093063693532756"><ele>743.0</ele><time>2026-05-01T09:30:03.001Z</time></trkpt><trkpt lat="47.66633361673264" lon="11.093388661928314"><ele>742.3333333333333</ele><time>2026-05-01T09:30:04.001Z</time></trkpt><trkpt lat="47.666366563884566" lon="11.093708221192394"><ele>741.6666666666666</ele><time>2026-05-01T09:30:05.001Z</time></trkpt><trkpt lat="47.66639624879593" lon="11.094023424682476"><ele>741.0</ele><time>2026-05-01T09:30:06.001Z</time></trkpt><trkpt lat="47.666424220383256" lon="11.094337604344348"><ele>739.6666666666666</ele><time>2026-05-01T09:30:07.001Z</time></trkpt><trkpt lat="47.66645214288896" lon="11.094654003317913"><ele>738.3333333333333</ele><time>2026-05-01T09:30:08.001Z</time></trkpt><trkpt lat="47.66648187589295" lon="11.09496841951122"><ele>737.0</ele><time>2026-05-01T09:30:09.001Z</time></trkpt><trkpt lat="47.66651039014335" lon="11.095286475249553"><ele>736.0</ele><time>2026-05-01T09:30:10.001Z</time></trkpt><trkpt lat="47.666539089745946" lon="11.095603942489552"><ele>735.0</ele><time>2026-05-01T09:30:11.001Z</time></trkpt><trkpt lat="47.66656479996979" lon="11.095919613911528"><ele>734.0</ele><time>2026-05-01T09:30:12.001Z</time></trkpt><trkpt lat="47.66658738064641" lon="11.096226063750793"><ele>733.3333333333333</ele><time>2026-05-01T09:30:13.002Z</time></trkpt><trkpt lat="47.66660940446304" lon="11.096522535499675"><ele>732.6666666666666</ele><time>2026-05-01T09:30:14.002Z</time></trkpt><trkpt lat="47.666631362953474" lon="11.096827970591194"><ele>732.0</ele><time>2026-05-01T09:30:15.002Z</time></trkpt><trkpt lat="47.666652255993846" lon="11.097133561200085"><ele>731.0</ele><time>2026-05-01T09:30:16.002Z</time></trkpt><trkpt lat="47.666671125958196" lon="11.097443436405232"><ele>730.0</ele><time>2026-05-01T09:30:17.002Z</time></trkpt><trkpt lat="47.66668770059627" lon="11.09775703456652"><ele>729.0</ele><time>2026-05-01T09:30:18.002Z</time></trkpt><trkpt lat="47.66670743191421" lon="11.098073248862729"><ele>728.0</ele><time>2026-05-01T09:30:19.002Z</time></trkpt><trkpt lat="47.66672818016429" lon="11.098393068693607"><ele>727.0</ele><time>2026-05-01T09:30:20.002Z</time></trkpt><trkpt lat="47.66675181466529" lon="11.098715494347516"><ele>726.0</ele><time>2026-05-01T09:30:21.002Z</time></trkpt><trkpt lat="47.666776763839685" lon="11.099038346527834"><ele>725.6666666666666</ele><time>2026-05-01T09:30:22.002Z</time></trkpt><trkpt lat="47.66679868392168" lon="11.099360089235605"><ele>725.3333333333333</ele><time>2026-05-01T09:30:23.002Z</time></trkpt><trkpt lat="47.66681802938685" lon="11.099681201932038"><ele>725.0</ele><time>2026-05-01T09:30:24.002Z</time></trkpt><trkpt lat="47.66683601747145" lon="11.10000091504532"><ele>725.0</ele><time>2026-05-01T09:30:25.002Z</time></trkpt><trkpt lat="47.66685431183208" lon="11.10031912553315"><ele>725.0</ele><time>2026-05-01T09:30:26.002Z</time></trkpt><trkpt lat="47.66687352082366" lon="11.100636560124652"><ele>725.0</ele><time>2026-05-01T09:30:27.002Z</time></trkpt><trkpt lat="47.66689380628613" lon="11.100952662250062"><ele>724.6666666666666</ele><time>2026-05-01T09:30:28.002Z</time></trkpt><trkpt lat="47.66691686648146" lon="11.101268386428053"><ele>724.3333333333334</ele><time>2026-05-01T09:30:29.002Z</time></trkpt><trkpt lat="47.666941229340296" lon="11.10158440655665"><ele>724.0</ele><time>2026-05-01T09:30:30.002Z</time></trkpt><trkpt lat="47.66696910790255" lon="11.101898920379796"><ele>724.0</ele><time>2026-05-01T09:30:31.002Z</time></trkpt><trkpt lat="47.666998147300944" lon="11.102214413937123"><ele>724.0</ele><time>2026-05-01T09:30:32.002Z</time></trkpt><trkpt lat="47.66702524776941" lon="11.102528813064067"><ele>724.0</ele><time>2026-05-01T09:30:33.002Z</time></trkpt><trkpt lat="47.667054312326584" lon="11.102842740872697"><ele>721.6666666666667</ele><time>2026-05-01T09:30:34.002Z</time></trkpt><trkpt lat="47.66708588292703" lon="11.10315641789667"><ele>719.3333333333334</ele><time>2026-05-01T09:30:35.002Z</time></trkpt><trkpt lat="47.667125085697656" lon="11.103471005820293"><ele>717.0</ele><time>2026-05-01T09:30:36.002Z</time></trkpt><trkpt lat="47.667174713576216" lon="11.103783259357995"><ele>715.0</ele><time>2026-05-01T09:30:37.002Z</time></trkpt><trkpt lat="47.66723482190419" lon="11.104089128294666"><ele>713.0</ele><time>2026-05-01T09:30:38.002Z</time></trkpt><trkpt lat="47.66730280021743" lon="11.104397125164006"><ele>711.0</ele><time>2026-05-01T09:30:39.002Z</time></trkpt><trkpt lat="47.66738091839876" lon="11.104702422235086"><ele>710.0</ele><time>2026-05-01T09:30:40.002Z</time></trkpt><trkpt lat="47.66746870313895" lon="11.105000752794753"><ele>709.0</ele><time>2026-05-01T09:30:41.002Z</time></trkpt><trkpt lat="47.66756715923042" lon="11.10529029303739"><ele>708.0</ele><time>2026-05-01T09:30:42.002Z</time></trkpt><trkpt lat="47.66767614949789" lon="11.105568152223201"><ele>710.6666666666666</ele><time>2026-05-01T09:30:43.002Z</time></trkpt><trkpt lat="47.66778713185955" lon="11.105827045027075"><ele>713.3333333333333</ele><time>2026-05-01T09:30:44.002Z</time></trkpt><trkpt lat="47.667897145011864" lon="11.106072691995491"><ele>716.0</ele><time>2026-05-01T09:30:45.002Z</time></trkpt><trkpt lat="47.66800647335291" lon="11.1063119827507"><ele>716.0</ele><time>2026-05-01T09:30:46.002Z</time></trkpt><trkpt lat="47.6681184957777" lon="11.106557527939033"><ele>716.0</ele><time>2026-05-01T09:30:47.002Z</time></trkpt><trkpt lat="47.66822887818276" lon="11.106805673382405"><ele>716.0</ele><time>2026-05-01T09:30:48.002Z</time></trkpt><trkpt lat="47.66833525123137" lon="11.107056823148925"><ele>714.0</ele><time>2026-05-01T09:30:49.002Z</time></trkpt><trkpt lat="47.66843600955424" lon="11.107313866147143"><ele>712.0</ele><time>2026-05-01T09:30:50.002Z</time></trkpt><trkpt lat="47.6685238770154" lon="11.107576438806653"><ele>710.0</ele><time>2026-05-01T09:30:51.002Z</time></trkpt><trkpt lat="47.66860245188432" lon="11.10785000638587"><ele>710.0</ele><time>2026-05-01T09:30:52.002Z</time></trkpt><trkpt lat="47.66867074368802" lon="11.108133270615987"><ele>710.0</ele><time>2026-05-01T09:30:53.002Z</time></trkpt><trkpt lat="47.66872886068671" lon="11.108421208891354"><ele>710.0</ele><time>2026-05-01T09:30:54.002Z</time></trkpt><trkpt lat="47.66877645509859" lon="11.108713712689857"><ele>709.0</ele><time>2026-05-01T09:30:55.002Z</time></trkpt><trkpt lat="47.66880818470855" lon="11.109007841745449"><ele>708.0</ele><time>2026-05-01T09:30:56.002Z</time></trkpt><trkpt lat="47.66882296895431" lon="11.10929757455242"><ele>707.0</ele><time>2026-05-01T09:30:57.002Z</time></trkpt><trkpt lat="47.66882395385283" lon="11.10958947637854"><ele>706.3333333333333</ele><time>2026-05-01T09:30:58.002Z</time></trkpt><trkpt lat="47.66881090473951" lon="11.10987891327604"><ele>705.6666666666666</ele><time>2026-05-01T09:30:59.002Z</time></trkpt><trkpt lat="47.66878918901705" lon="11.110165369169875"><ele>705.0</ele><time>2026-05-01T09:31:00.002Z</time></trkpt><trkpt lat="47.66875626112918" lon="11.110448359681081"><ele>705.0</ele><time>2026-05-01T09:31:01.002Z</time></trkpt><trkpt lat="47.668712292747166" lon="11.110725690087037"><ele>705.0</ele><time>2026-05-01T09:31:02.002Z</time></trkpt><trkpt lat="47.66865657376926" lon="11.110996281201702"><ele>705.0</ele><time>2026-05-01T09:31:03.002Z</time></trkpt><trkpt lat="47.668590654835036" lon="11.111260810726614"><ele>701.6666666666666</ele><time>2026-05-01T09:31:04.002Z</time></trkpt><trkpt lat="47.6685162565589" lon="11.111526075723408"><ele>698.3333333333333</ele><time>2026-05-01T09:31:05.003Z</time></trkpt><trkpt lat="47.66843623977018" lon="11.111790226175085"><ele>695.0</ele><time>2026-05-01T09:31:06.003Z</time></trkpt><trkpt lat="47.668352236818876" lon="11.112053063991926"><ele>695.0</ele><time>2026-05-01T09:31:07.003Z</time></trkpt><trkpt lat="47.6682674380557" lon="11.112308027331041"><ele>695.0</ele><time>2026-05-01T09:31:08.003Z</time></trkpt><trkpt lat="47.668189316616704" lon="11.112551515096104"><ele>695.0</ele><time>2026-05-01T09:31:09.003Z</time></trkpt><trkpt lat="47.66811475786349" lon="11.112803395844933"><ele>697.0</ele><time>2026-05-01T09:31:10.003Z</time></trkpt><trkpt lat="47.66804636927474" lon="11.113058999960431"><ele>699.0</ele><time>2026-05-01T09:31:11Z</time></trkpt><trkpt lat="47.66798543832519" lon="11.113313408788198"><ele>701.0</ele><time>2026-05-01T09:31:12Z</time></trkpt><trkpt lat="47.667931205242844" lon="11.113577037452346"><ele>703.6666666666666</ele><time>2026-05-01T09:31:13Z</time></trkpt><trkpt lat="47.66788328138412" lon="11.11384547012332"><ele>706.3333333333334</ele><time>2026-05-01T09:31:14Z</time></trkpt><trkpt lat="47.667848806456604" lon="11.11411625796326"><ele>709.0</ele><time>2026-05-01T09:31:15Z</time></trkpt><trkpt lat="47.66781402734734" lon="11.11438998065555"><ele>709.3333333333334</ele><time>2026-05-01T09:31:16Z</time></trkpt><trkpt lat="47.66778341355677" lon="11.114667098109537"><ele>709.6666666666666</ele><time>2026-05-01T09:31:17Z</time></trkpt><trkpt lat="47.667756331065" lon="11.114943158185236"><ele>710.0</ele><time>2026-05-01T09:31:18Z</time></trkpt><trkpt lat="47.66773090442681" lon="11.11522151287153"><ele>705.3333333333333</ele><time>2026-05-01T09:31:19Z</time></trkpt><trkpt lat="47.66770815374105" lon="11.115502872978482"><ele>700.6666666666666</ele><time>2026-05-01T09:31:20Z</time></trkpt><trkpt lat="47.66768789791998" lon="11.115784229362609"><ele>696.0</ele><time>2026-05-01T09:31:21Z</time></trkpt><trkpt lat="47.6676697661935" lon="11.116068713892725"><ele>696.0</ele><time>2026-05-01T09:31:22Z</time></trkpt><trkpt lat="47.667652267334226" lon="11.116353683182526"><ele>696.0</ele><time>2026-05-01T09:31:23Z</time></trkpt><trkpt lat="47.66763571983108" lon="11.116640013099346"><ele>696.0</ele><time>2026-05-01T09:31:24Z</time></trkpt><trkpt lat="47.667619642398094" lon="11.11692921968479"><ele>696.0</ele><time>2026-05-01T09:31:25Z</time></trkpt><trkpt lat="47.667609082408276" lon="11.11721776117568"><ele>696.0</ele><time>2026-05-01T09:31:26Z</time></trkpt><trkpt lat="47.66760050279595" lon="11.11751070220175"><ele>696.0</ele><time>2026-05-01T09:31:27Z</time></trkpt><trkpt lat="47.66759440926167" lon="11.117806694622093"><ele>696.0</ele><time>2026-05-01T09:31:28Z</time></trkpt><trkpt lat="47.667589894788016" lon="11.11810254823001"><ele>696.0</ele><time>2026-05-01T09:31:29Z</time></trkpt><trkpt lat="47.667588474796474" lon="11.1184018815176"><ele>696.0</ele><time>2026-05-01T09:31:30Z</time></trkpt><trkpt lat="47.66758898518935" lon="11.118703021321242"><ele>695.3333333333334</ele><time>2026-05-01T09:31:31Z</time></trkpt><trkpt lat="47.66759282374618" lon="11.119002903515138"><ele>694.6666666666667</ele><time>2026-05-01T09:31:32.001Z</time></trkpt><trkpt lat="47.66759742083155" lon="11.119305118805801"><ele>694.0</ele><time>2026-05-01T09:31:33.001Z</time></trkpt><trkpt lat="47.66759978206639" lon="11.119604428734261"><ele>692.6666666666667</ele><time>2026-05-01T09:31:34.001Z</time></trkpt><trkpt lat="47.66760186224" lon="11.119907124729181"><ele>691.3333333333334</ele><time>2026-05-01T09:31:35.001Z</time></trkpt><trkpt lat="47.66760171083182" lon="11.120203937434328"><ele>690.0</ele><time>2026-05-01T09:31:36.001Z</time></trkpt><trkpt lat="47.66760044010028" lon="11.120506069390913"><ele>690.0</ele><time>2026-05-01T09:31:37.001Z</time></trkpt><trkpt lat="47.667600936475935" lon="11.120812400458787"><ele>690.0</ele><time>2026-05-01T09:31:38.001Z</time></trkpt><trkpt lat="47.66760369642807" lon="11.12111770257262"><ele>690.0</ele><time>2026-05-01T09:31:39.001Z</time></trkpt><trkpt lat="47.667603869108426" lon="11.121426339276946"><ele>690.0</ele><time>2026-05-01T09:31:40.001Z</time></trkpt><trkpt lat="47.667600976074425" lon="11.121736463241012"><ele>690.0</ele><time>2026-05-01T09:31:41.001Z</time></trkpt><trkpt lat="47.6675960794707" lon="11.122047953088083"><ele>690.0</ele><time>2026-05-01T09:31:42.001Z</time></trkpt><trkpt lat="47.667590968216196" lon="11.122360460131285"><ele>689.6666666666666</ele><time>2026-05-01T09:31:43.001Z</time></trkpt><trkpt lat="47.667583119127094" lon="11.12267303714592"><ele>689.3333333333333</ele><time>2026-05-01T09:31:44.001Z</time></trkpt><trkpt lat="47.66757512582136" lon="11.122986769523132"><ele>689.0</ele><time>2026-05-01T09:31:45.001Z</time></trkpt><trkpt lat="47.66756713187753" lon="11.123301912276789"><ele>689.6666666666666</ele><time>2026-05-01T09:31:46.001Z</time></trkpt><trkpt lat="47.66756240455527" lon="11.123616001308404"><ele>690.3333333333334</ele><time>2026-05-01T09:31:47.001Z</time></trkpt><trkpt lat="47.66755138793657" lon="11.123932291530888"><ele>691.0</ele><time>2026-05-01T09:31:48.001Z</time></trkpt><trkpt lat="47.66753799482972" lon="11.124248542802825"><ele>691.6666666666667</ele><time>2026-05-01T09:31:49.001Z</time></trkpt><trkpt lat="47.667523070864426" lon="11.12456278771738"><ele>692.3333333333334</ele><time>2026-05-01T09:31:50.001Z</time></trkpt><trkpt lat="47.66750247251628" lon="11.12487740125277"><ele>693.0</ele><time>2026-05-01T09:31:51.001Z</time></trkpt><trkpt lat="47.66748341273009" lon="11.125196533952643"><ele>693.0</ele><time>2026-05-01T09:31:52.001Z</time></trkpt><trkpt lat="47.667463240581405" lon="11.125510495079709"><ele>693.0</ele><time>2026-05-01T09:31:53.001Z</time></trkpt><trkpt lat="47.66744235666437" lon="11.125823889928725"><ele>693.0</ele><time>2026-05-01T09:31:54.001Z</time></trkpt><trkpt lat="47.66742171159816" lon="11.126138565682494"><ele>693.3333333333334</ele><time>2026-05-01T09:31:55.001Z</time></trkpt><trkpt lat="47.667403020604375" lon="11.126453254373232"><ele>693.6666666666667</ele><time>2026-05-01T09:31:56.001Z</time></trkpt><trkpt lat="47.66738655348496" lon="11.126768629056949"><ele>694.0</ele><time>2026-05-01T09:31:57.001Z</time></trkpt><trkpt lat="47.66736774585151" lon="11.127082701606477"><ele>694.0</ele><time>2026-05-01T09:31:58.001Z</time></trkpt><trkpt lat="47.66735591068374" lon="11.127382640388037"><ele>694.0</ele><time>2026-05-01T09:31:59.001Z</time></trkpt><trkpt lat="47.667340329449395" lon="11.127689266821521"><ele>694.0</ele><time>2026-05-01T09:32:00.001Z</time></trkpt><trkpt lat="47.66732456150615" lon="11.128001170541983"><ele>696.0</ele><time>2026-05-01T09:32:01.001Z</time></trkpt><trkpt lat="47.66730830144116" lon="11.12831935352784"><ele>698.0</ele><time>2026-05-01T09:32:02.001Z</time></trkpt><trkpt lat="47.6672914940472" lon="11.128640881264364"><ele>700.0</ele><time>2026-05-01T09:32:03.001Z</time></trkpt><trkpt lat="47.66727741371812" lon="11.128963311135644"><ele>700.3333333333334</ele><time>2026-05-01T09:32:04.001Z</time></trkpt><trkpt lat="47.66726204492507" lon="11.12928889806909"><ele>700.6666666666666</ele><time>2026-05-01T09:32:05.001Z</time></trkpt><trkpt lat="47.667246538345374" lon="11.129613865584325"><ele>701.0</ele><time>2026-05-01T09:32:06.001Z</time></trkpt><trkpt lat="47.66723075599678" lon="11.12992441748942"><ele>701.6666666666666</ele><time>2026-05-01T09:32:07.001Z</time></trkpt><trkpt lat="47.66722260859549" lon="11.130214690049055"><ele>702.3333333333334</ele><time>2026-05-01T09:32:08.001Z</time></trkpt><trkpt lat="47.667214597396274" lon="11.130481374888353"><ele>703.0</ele><time>2026-05-01T09:32:09.001Z</time></trkpt><trkpt lat="47.66720798701565" lon="11.130723264948687"><ele>701.5</ele><time>2026-05-01T09:32:10.001Z</time></trkpt><trkpt lat="47.66720188796965" lon="11.130948937501973"><ele>700.0</ele><time>2026-05-01T09:32:11.001Z</time></trkpt><trkpt lat="47.66719447577789" lon="11.131165451915157"><ele>698.5</ele><time>2026-05-01T09:32:12.001Z</time></trkpt><trkpt lat="47.66718973126654" lon="11.131379354676566"><ele>697.0</ele><time>2026-05-01T09:32:13.001Z</time></trkpt><trkpt lat="47.66718709382266" lon="11.131593780324332"><ele>694.6666666666667</ele><time>2026-05-01T09:32:14.001Z</time></trkpt><trkpt lat="47.66718424663997" lon="11.131813008221346"><ele>692.3333333333334</ele><time>2026-05-01T09:32:15.001Z</time></trkpt><trkpt lat="47.66718041100926" lon="11.132035091266935"><ele>690.0</ele><time>2026-05-01T09:32:16.001Z</time></trkpt><trkpt lat="47.667172978878476" lon="11.132260940902075"><ele>690.0</ele><time>2026-05-01T09:32:17.001Z</time></trkpt><trkpt lat="47.66716648402069" lon="11.132489859938524"><ele>690.0</ele><time>2026-05-01T09:32:18.001Z</time></trkpt><trkpt lat="47.66716321669187" lon="11.132720788512733"><ele>690.0</ele><time>2026-05-01T09:32:19.001Z</time></trkpt><trkpt lat="47.66716389245642" lon="11.132957120680132"><ele>690.0</ele><time>2026-05-01T09:32:20.001Z</time></trkpt><trkpt lat="47.66716798574462" lon="11.133189460185545"><ele>690.0</ele><time>2026-05-01T09:32:21.001Z</time></trkpt><trkpt lat="47.66717196340205" lon="11.133422765618523"><ele>690.0</ele><time>2026-05-01T09:32:22.001Z</time></trkpt><trkpt lat="47.66717618324872" lon="11.133650045338463"><ele>692.5</ele><time>2026-05-01T09:32:23.001Z</time></trkpt><trkpt lat="47.66717910198826" lon="11.13386930590714"><ele>695.0</ele><time>2026-05-01T09:32:24.001Z</time></trkpt><trkpt lat="47.667176613321516" lon="11.13408674361"><ele>697.5</ele><time>2026-05-01T09:32:25.001Z</time></trkpt><trkpt lat="47.66716784075995" lon="11.134300883338737"><ele>700.0</ele><time>2026-05-01T09:32:26.002Z</time></trkpt><trkpt lat="47.66715830290913" lon="11.134521831690725"><ele>702.3333333333334</ele><time>2026-05-01T09:32:27.002Z</time></trkpt><trkpt lat="47.667153433602316" lon="11.134743264372423"><ele>704.6666666666666</ele><time>2026-05-01T09:32:28.002Z</time></trkpt><trkpt lat="47.667148763561045" lon="11.134968980793412"><ele>707.0</ele><time>2026-05-01T09:32:29.002Z</time></trkpt><trkpt lat="47.66714392338865" lon="11.135194921889438"><ele>707.0</ele><time>2026-05-01T09:32:30.002Z</time></trkpt><trkpt lat="47.66713899172746" lon="11.13541003378585"><ele>707.0</ele><time>2026-05-01T09:32:31.002Z</time></trkpt><trkpt lat="47.667134751327424" lon="11.135602982552566"><ele>707.0</ele><time>2026-05-01T09:32:32.002Z</time></trkpt><trkpt lat="47.66713161070993" lon="11.13578381568428"><ele>707.0</ele><time>2026-05-01T09:32:33.002Z</time></trkpt><trkpt lat="47.66712966861639" lon="11.135954707707768"><ele>706.0</ele><time>2026-05-01T09:32:34.002Z</time></trkpt><trkpt lat="47.66713166530331" lon="11.13612494738986"><ele>705.0</ele><time>2026-05-01T09:32:35.002Z</time></trkpt><trkpt lat="47.66713180211323" lon="11.13629238471975"><ele>704.0</ele><time>2026-05-01T09:32:36.002Z</time></trkpt><trkpt lat="47.667131449542836" lon="11.136460034558064"><ele>703.0</ele><time>2026-05-01T09:32:37.002Z</time></trkpt><trkpt lat="47.667132154379935" lon="11.136628280520249"><ele>701.25</ele><time>2026-05-01T09:32:38.002Z</time></trkpt><trkpt lat="47.66713450882524" lon="11.136800715193166"><ele>699.5</ele><time>2026-05-01T09:32:39.002Z</time></trkpt><trkpt lat="47.66713580905354" lon="11.136977907688983"><ele>697.75</ele><time>2026-05-01T09:32:40.002Z</time></trkpt><trkpt lat="47.66714000306018" lon="11.137158612346093"><ele>696.0</ele><time>2026-05-01T09:32:41.002Z</time></trkpt><trkpt lat="47.66714586444117" lon="11.137342415651537"><ele>696.5</ele><time>2026-05-01T09:32:42.002Z</time></trkpt><trkpt lat="47.66715476577185" lon="11.137530702767034"><ele>697.0</ele><time>2026-05-01T09:32:43.002Z</time></trkpt><trkpt lat="47.66716608257107" lon="11.137721631210225"><ele>697.5</ele><time>2026-05-01T09:32:44.002Z</time></trkpt><trkpt lat="47.667178618510874" lon="11.13791329406805"><ele>698.0</ele><time>2026-05-01T09:32:45.002Z</time></trkpt><trkpt lat="47.66719327650549" lon="11.138104825439374"><ele>698.0</ele><time>2026-05-01T09:32:46.002Z</time></trkpt><trkpt lat="47.66721207610558" lon="11.138297573476251"><ele>698.0</ele><time>2026-05-01T09:32:47.002Z</time></trkpt><trkpt lat="47.66723461482509" lon="11.138489763729314"><ele>698.0</ele><time>2026-05-01T09:32:48.002Z</time></trkpt><trkpt lat="47.66726526237343" lon="11.138683513717874"><ele>698.0</ele><time>2026-05-01T09:32:49.002Z</time></trkpt><trkpt lat="47.667301662068155" lon="11.138877810721416"><ele>697.75</ele><time>2026-05-01T09:32:50.002Z</time></trkpt><trkpt lat="47.667341508686235" lon="11.139072949576015"><ele>697.5</ele><time>2026-05-01T09:32:51.002Z</time></trkpt><trkpt lat="47.66738318826791" lon="11.139272025015082"><ele>697.25</ele><time>2026-05-01T09:32:52.002Z</time></trkpt><trkpt lat="47.66742571308682" lon="11.139472797643892"><ele>697.0</ele><time>2026-05-01T09:32:53.002Z</time></trkpt><trkpt lat="47.66746800137575" lon="11.139674798144613"><ele>697.0</ele><time>2026-05-01T09:32:54.002Z</time></trkpt><trkpt lat="47.66750945414313" lon="11.139876439720366"><ele>697.0</ele><time>2026-05-01T09:32:55.002Z</time></trkpt><trkpt lat="47.66755149056831" lon="11.140078656725324"><ele>697.0</ele><time>2026-05-01T09:32:56.002Z</time></trkpt><trkpt lat="47.66759153721999" lon="11.140283060294628"><ele>697.0</ele><time>2026-05-01T09:32:57.002Z</time></trkpt><trkpt lat="47.66762673932557" lon="11.140489795049133"><ele>696.75</ele><time>2026-05-01T09:32:58.002Z</time></trkpt><trkpt lat="47.667657423529114" lon="11.140697402241742"><ele>696.5</ele><time>2026-05-01T09:32:59.002Z</time></trkpt><trkpt lat="47.66768111276237" lon="11.14090649840527"><ele>696.25</ele><time>2026-05-01T09:33:00.002Z</time></trkpt><trkpt lat="47.66769935890138" lon="11.14111517270667"><ele>696.0</ele><time>2026-05-01T09:33:01.002Z</time></trkpt><trkpt lat="47.667714017883334" lon="11.141322384199617"><ele>695.25</ele><time>2026-05-01T09:33:02.002Z</time></trkpt><trkpt lat="47.66772467553441" lon="11.141521331456389"><ele>694.5</ele><time>2026-05-01T09:33:03.002Z</time></trkpt><trkpt lat="47.66773193219019" lon="11.141719312219331"><ele>693.75</ele><time>2026-05-01T09:33:04.002Z</time></trkpt><trkpt lat="47.66773769500626" lon="11.141914820565923"><ele>693.0</ele><time>2026-05-01T09:33:05.002Z</time></trkpt><trkpt lat="47.66774234311799" lon="11.142110186892964"><ele>692.5</ele><time>2026-05-01T09:33:06.002Z</time></trkpt><trkpt lat="47.667747356739135" lon="11.142305304772153"><ele>692.0</ele><time>2026-05-01T09:33:07.002Z</time></trkpt><trkpt lat="47.66775303798133" lon="11.1425030015953"><ele>691.5</ele><time>2026-05-01T09:33:08.002Z</time></trkpt><trkpt lat="47.66775925627094" lon="11.142701638567807"><ele>691.0</ele><time>2026-05-01T09:33:09.002Z</time></trkpt><trkpt lat="47.66776543673716" lon="11.142902398308358"><ele>690.75</ele><time>2026-05-01T09:33:10.002Z</time></trkpt><trkpt lat="47.66777391205105" lon="11.143105127284345"><ele>690.5</ele><time>2026-05-01T09:33:11.002Z</time></trkpt><trkpt lat="47.66778572931238" lon="11.143304876148893"><ele>690.25</ele><time>2026-05-01T09:33:12.002Z</time></trkpt><trkpt lat="47.667803566052044" lon="11.143508313517646"><ele>690.0</ele><time>2026-05-01T09:33:13.002Z</time></trkpt><trkpt lat="47.667828502000276" lon="11.143710480096708"><ele>692.25</ele><time>2026-05-01T09:33:14.002Z</time></trkpt><trkpt lat="47.667857710735944" lon="11.143911108788524"><ele>694.5</ele><time>2026-05-01T09:33:15.002Z</time></trkpt><trkpt lat="47.6678888769758" lon="11.144115021144644"><ele>696.75</ele><time>2026-05-01T09:33:16.002Z</time></trkpt><trkpt lat="47.667923897658106" lon="11.144316353677128"><ele>699.0</ele><time>2026-05-01T09:33:17Z</time></trkpt><trkpt lat="47.66796333974336" lon="11.144516722112371"><ele>699.0</ele><time>2026-05-01T09:33:18Z</time></trkpt><trkpt lat="47.66800694249823" lon="11.14471580530317"><ele>699.0</ele><time>2026-05-01T09:33:19Z</time></trkpt><trkpt lat="47.66805315787141" lon="11.144912462579004"><ele>699.0</ele><time>2026-05-01T09:33:20Z</time></trkpt><trkpt lat="47.6680989259676" lon="11.145109771946027"><ele>699.0</ele><time>2026-05-01T09:33:21Z</time></trkpt><trkpt lat="47.66814579560234" lon="11.145311486642445"><ele>699.3333333333334</ele><time>2026-05-01T09:33:22Z</time></trkpt><trkpt lat="47.668192026778605" lon="11.145515191843637"><ele>699.6666666666667</ele><time>2026-05-01T09:33:23Z</time></trkpt><trkpt lat="47.668239977035235" lon="11.145726169727638"><ele>700.0</ele><time>2026-05-01T09:33:24Z</time></trkpt><trkpt lat="47.6682895035625" lon="11.145945419422818"><ele>700.0</ele><time>2026-05-01T09:33:25Z</time></trkpt><trkpt lat="47.66833536186603" lon="11.146172640206936"><ele>700.0</ele><time>2026-05-01T09:33:26Z</time></trkpt><trkpt lat="47.66837861731222" lon="11.146406509688235"><ele>700.0</ele><time>2026-05-01T09:33:27Z</time></trkpt><trkpt lat="47.66841555501337" lon="11.14663659874603"><ele>699.3333333333334</ele><time>2026-05-01T09:33:28Z</time></trkpt><trkpt lat="47.66845115481109" lon="11.1468768369104"><ele>698.6666666666666</ele><time>2026-05-01T09:33:29Z</time></trkpt><trkpt lat="47.668486431016326" lon="11.147123937971827"><ele>698.0</ele><time>2026-05-01T09:33:30Z</time></trkpt><trkpt lat="47.66851778763298" lon="11.14737763939758"><ele>698.0</ele><time>2026-05-01T09:33:31Z</time></trkpt><trkpt lat="47.66854878181643" lon="11.147641668778327"><ele>698.0</ele><time>2026-05-01T09:33:32Z</time></trkpt><trkpt lat="47.66858211998224" lon="11.147907352285596"><ele>698.0</ele><time>2026-05-01T09:33:33Z</time></trkpt><trkpt lat="47.6686178343021" lon="11.148172276430664"><ele>701.3333333333333</ele><time>2026-05-01T09:33:34Z</time></trkpt><trkpt lat="47.668651290683975" lon="11.148430990952377"><ele>704.6666666666666</ele><time>2026-05-01T09:33:35Z</time></trkpt><trkpt lat="47.66868510103045" lon="11.148690942863372"><ele>708.0</ele><time>2026-05-01T09:33:36Z</time></trkpt><trkpt lat="47.66871882365472" lon="11.148945356675393"><ele>707.0</ele><time>2026-05-01T09:33:37Z</time></trkpt><trkpt lat="47.66875185570821" lon="11.14919726685964"><ele>706.0</ele><time>2026-05-01T09:33:38Z</time></trkpt><trkpt lat="47.66878667503094" lon="11.14945266727914"><ele>705.0</ele><time>2026-05-01T09:33:39Z</time></trkpt><trkpt lat="47.66882373727553" lon="11.149703371531565"><ele>705.6666666666666</ele><time>2026-05-01T09:33:40Z</time></trkpt><trkpt lat="47.6688586623958" lon="11.149961550901336"><ele>706.3333333333333</ele><time>2026-05-01T09:33:41Z</time></trkpt><trkpt lat="47.6688919236771" lon="11.150221854897755"><ele>707.0</ele><time>2026-05-01T09:33:42Z</time></trkpt><trkpt lat="47.66892198300893" lon="11.150487043029003"><ele>708.6666666666666</ele><time>2026-05-01T09:33:43Z</time></trkpt><trkpt lat="47.66895297356818" lon="11.15075384991461"><ele>710.3333333333334</ele><time>2026-05-01T09:33:44Z</time></trkpt><trkpt lat="47.66897876807187" lon="11.15102014602263"><ele>712.0</ele><time>2026-05-01T09:33:45.001Z</time></trkpt><trkpt lat="47.6690029327828" lon="11.15128453747905"><ele>712.0</ele><time>2026-05-01T09:33:46.001Z</time></trkpt><trkpt lat="47.66902407198648" lon="11.15154189821522"><ele>712.0</ele><time>2026-05-01T09:33:47.001Z</time></trkpt><trkpt lat="47.66904044603113" lon="11.151785433097478"><ele>712.0</ele><time>2026-05-01T09:33:48.001Z</time></trkpt><trkpt lat="47.669048928792705" lon="11.152015501989467"><ele>712.0</ele><time>2026-05-01T09:33:49.001Z</time></trkpt><trkpt lat="47.66905943608822" lon="11.15224915888444"><ele>712.0</ele><time>2026-05-01T09:33:50.001Z</time></trkpt><trkpt lat="47.66906818721679" lon="11.152483777899347"><ele>712.0</ele><time>2026-05-01T09:33:51.001Z</time></trkpt><trkpt lat="47.66907815508987" lon="11.152716932961614"><ele>710.6666666666667</ele><time>2026-05-01T09:33:52.001Z</time></trkpt><trkpt lat="47.66908644178284" lon="11.152957539052377"><ele>709.3333333333334</ele><time>2026-05-01T09:33:53.001Z</time></trkpt><trkpt lat="47.669095515186" lon="11.15320191204034"><ele>708.0</ele><time>2026-05-01T09:33:54.001Z</time></trkpt><trkpt lat="47.66910416818903" lon="11.153451621387841"><ele>708.0</ele><time>2026-05-01T09:33:55.001Z</time></trkpt><trkpt lat="47.66911763731006" lon="11.153706917659536"><ele>708.0</ele><time>2026-05-01T09:33:56.001Z</time></trkpt><trkpt lat="47.66913566682883" lon="11.15396151829829"><ele>708.0</ele><time>2026-05-01T09:33:57.001Z</time></trkpt><trkpt lat="47.66915768832244" lon="11.15421990716528"><ele>709.0</ele><time>2026-05-01T09:33:58.001Z</time></trkpt><trkpt lat="47.66918644353905" lon="11.154480817955653"><ele>710.0</ele><time>2026-05-01T09:33:59.001Z</time></trkpt><trkpt lat="47.66922215521394" lon="11.154735519710785"><ele>711.0</ele><time>2026-05-01T09:34:00.001Z</time></trkpt><trkpt lat="47.6692665391682" lon="11.154989413601774"><ele>711.3333333333334</ele><time>2026-05-01T09:34:01.001Z</time></trkpt><trkpt lat="47.66931766949518" lon="11.155237115758867"><ele>711.6666666666667</ele><time>2026-05-01T09:34:02.001Z</time></trkpt><trkpt lat="47.669374978245095" lon="11.15548017312285"><ele>712.0</ele><time>2026-05-01T09:34:03.001Z</time></trkpt><trkpt lat="47.669437759779555" lon="11.155718870730542"><ele>709.6666666666667</ele><time>2026-05-01T09:34:04.001Z</time></trkpt><trkpt lat="47.669512304381676" lon="11.15595200335719"><ele>707.3333333333334</ele><time>2026-05-01T09:34:05.001Z</time></trkpt><trkpt lat="47.66959498674911" lon="11.156174371657963"><ele>705.0</ele><time>2026-05-01T09:34:06.001Z</time></trkpt><trkpt lat="47.66968988436465" lon="11.15638835814711"><ele>707.0</ele><time>2026-05-01T09:34:07.001Z</time></trkpt><trkpt lat="47.66978965504332" lon="11.156601860656467"><ele>709.0</ele><time>2026-05-01T09:34:08.001Z</time></trkpt><trkpt lat="47.669893960611724" lon="11.156814388818663"><ele>711.0</ele><time>2026-05-01T09:34:09.001Z</time></trkpt><trkpt lat="47.6699867449612" lon="11.157038165780484"><ele>711.0</ele><time>2026-05-01T09:34:10.001Z</time></trkpt><trkpt lat="47.67006818266885" lon="11.15726922987119"><ele>711.0</ele><time>2026-05-01T09:34:11.001Z</time></trkpt><trkpt lat="47.67014320797564" lon="11.15750981585795"><ele>711.0</ele><time>2026-05-01T09:34:12.001Z</time></trkpt><trkpt lat="47.67020688690291" lon="11.157757696630146"><ele>711.3333333333334</ele><time>2026-05-01T09:34:13.001Z</time></trkpt><trkpt lat="47.670260714357326" lon="11.158011672928357"><ele>711.6666666666667</ele><time>2026-05-01T09:34:14.001Z</time></trkpt><trkpt lat="47.670304815688205" lon="11.158266578374892"><ele>712.0</ele><time>2026-05-01T09:34:15.001Z</time></trkpt><trkpt lat="47.670336719629006" lon="11.158522309165901"><ele>712.0</ele><time>2026-05-01T09:34:16.001Z</time></trkpt><trkpt lat="47.6703569975725" lon="11.158781112425956"><ele>712.0</ele><time>2026-05-01T09:34:17.001Z</time></trkpt><trkpt lat="47.67037197897265" lon="11.159043290660115"><ele>712.0</ele><time>2026-05-01T09:34:18.001Z</time></trkpt><trkpt lat="47.67038383716058" lon="11.159308716159051"><ele>708.6666666666667</ele><time>2026-05-01T09:34:19.001Z</time></trkpt><trkpt lat="47.67039396703475" lon="11.159580327209156"><ele>705.3333333333334</ele><time>2026-05-01T09:34:20.001Z</time></trkpt><trkpt lat="47.670407605218905" lon="11.159855936944528"><ele>702.0</ele><time>2026-05-01T09:34:21.001Z</time></trkpt><trkpt lat="47.67042361066662" lon="11.160133044513174"><ele>701.0</ele><time>2026-05-01T09:34:22.001Z</time></trkpt><trkpt lat="47.670437995043976" lon="11.160416120507595"><ele>700.0</ele><time>2026-05-01T09:34:23.001Z</time></trkpt><trkpt lat="47.67045430749449" lon="11.160701773959033"><ele>699.0</ele><time>2026-05-01T09:34:24.001Z</time></trkpt><trkpt lat="47.67047097992579" lon="11.160984864590489"><ele>699.0</ele><time>2026-05-01T09:34:25.001Z</time></trkpt><trkpt lat="47.67048633093525" lon="11.161254190799998"><ele>699.0</ele><time>2026-05-01T09:34:26.001Z</time></trkpt><trkpt lat="47.67050219620099" lon="11.161506219850752"><ele>699.0</ele><time>2026-05-01T09:34:27.001Z</time></trkpt><trkpt lat="47.67052180390817" lon="11.16175136804577"><ele>699.0</ele><time>2026-05-01T09:34:28.001Z</time></trkpt><trkpt lat="47.67054714556163" lon="11.161993652657959"><ele>699.0</ele><time>2026-05-01T09:34:29.001Z</time></trkpt><trkpt lat="47.67057775992716" lon="11.16223390272879"><ele>699.0</ele><time>2026-05-01T09:34:30.001Z</time></trkpt><trkpt lat="47.67061262538764" lon="11.162470997713381"><ele>700.0</ele><time>2026-05-01T09:34:31.001Z</time></trkpt><trkpt lat="47.670654303259155" lon="11.162703435975677"><ele>701.0</ele><time>2026-05-01T09:34:32.001Z</time></trkpt><trkpt lat="47.67069635273363" lon="11.1629350551342"><ele>702.0</ele><time>2026-05-01T09:34:33.001Z</time></trkpt><trkpt lat="47.67074458311231" lon="11.163163649171425"><ele>702.3333333333334</ele><time>2026-05-01T09:34:34.001Z</time></trkpt><trkpt lat="47.67079595464977" lon="11.163385174646807"><ele>702.6666666666667</ele><time>2026-05-01T09:34:35.001Z</time></trkpt><trkpt lat="47.670852688562505" lon="11.16360809865822"><ele>703.0</ele><time>2026-05-01T09:34:36.001Z</time></trkpt><trkpt lat="47.67091066560767" lon="11.163826312979033"><ele>703.0</ele><time>2026-05-01T09:34:37.002Z</time></trkpt><trkpt lat="47.67097448739442" lon="11.164041511621965"><ele>703.0</ele><time>2026-05-01T09:34:38.002Z</time></trkpt><trkpt lat="47.67104742009525" lon="11.164256122925314"><ele>703.0</ele><time>2026-05-01T09:34:39.002Z</time></trkpt><trkpt lat="47.67113335607386" lon="11.164469819296304"><ele>704.6666666666667</ele><time>2026-05-01T09:34:40.002Z</time></trkpt><trkpt lat="47.67122789369482" lon="11.164683449430381"><ele>706.3333333333334</ele><time>2026-05-01T09:34:41.002Z</time></trkpt><trkpt lat="47.67133109205926" lon="11.164888787845047"><ele>708.0</ele><time>2026-05-01T09:34:42.002Z</time></trkpt><trkpt lat="47.67144748470015" lon="11.165089570483373"><ele>704.6666666666666</ele><time>2026-05-01T09:34:43.002Z</time></trkpt><trkpt lat="47.67157212586101" lon="11.16528495681221"><ele>701.3333333333333</ele><time>2026-05-01T09:34:44.002Z</time></trkpt><trkpt lat="47.67170037508278" lon="11.165475669459477"><ele>698.0</ele><time>2026-05-01T09:34:45.002Z</time></trkpt><trkpt lat="47.67183174337148" lon="11.165668496042187"><ele>694.6666666666666</ele><time>2026-05-01T09:34:46.002Z</time></trkpt><trkpt lat="47.671961379547" lon="11.165868572983584"><ele>691.3333333333334</ele><time>2026-05-01T09:34:47.002Z</time></trkpt><trkpt lat="47.672078219727304" lon="11.1660803493814"><ele>688.0</ele><time>2026-05-01T09:34:48.002Z</time></trkpt><trkpt lat="47.672186713590754" lon="11.166304063790552"><ele>687.0</ele><time>2026-05-01T09:34:49.002Z</time></trkpt><trkpt lat="47.67227447447723" lon="11.166544519308035"><ele>686.0</ele><time>2026-05-01T09:34:50.002Z</time></trkpt><trkpt lat="47.67234278656489" lon="11.16679572371314"><ele>685.0</ele><time>2026-05-01T09:34:51.002Z</time></trkpt><trkpt lat="47.672399087953444" lon="11.16705581787158"><ele>685.0</ele><time>2026-05-01T09:34:52.002Z</time></trkpt><trkpt lat="47.67244012386324" lon="11.167315153174876"><ele>685.0</ele><time>2026-05-01T09:34:53.002Z</time></trkpt><trkpt lat="47.672468710356334" lon="11.167574406169699"><ele>685.0</ele><time>2026-05-01T09:34:54.002Z</time></trkpt><trkpt lat="47.67248575657808" lon="11.167830378733752"><ele>685.0</ele><time>2026-05-01T09:34:55.002Z</time></trkpt><trkpt lat="47.67249428933407" lon="11.168087010266197"><ele>685.0</ele><time>2026-05-01T09:34:56.002Z</time></trkpt><trkpt lat="47.67249923444656" lon="11.168341484049197"><ele>685.0</ele><time>2026-05-01T09:34:57.002Z</time></trkpt><trkpt lat="47.67250363468696" lon="11.168587288125945"><ele>685.6666666666667</ele><time>2026-05-01T09:34:58.002Z</time></trkpt><trkpt lat="47.672510372182295" lon="11.168824544290404"><ele>686.3333333333334</ele><time>2026-05-01T09:34:59.002Z</time></trkpt><trkpt lat="47.67252114748706" lon="11.169072947956007"><ele>687.0</ele><time>2026-05-01T09:35:00.002Z</time></trkpt><trkpt lat="47.672534679405615" lon="11.169325950256741"><ele>688.3333333333334</ele><time>2026-05-01T09:35:01.002Z</time></trkpt><trkpt lat="47.672550156016825" lon="11.169586235627419"><ele>689.6666666666667</ele><time>2026-05-01T09:35:02.002Z</time></trkpt><trkpt lat="47.6725647811327" lon="11.169854191015238"><ele>691.0</ele><time>2026-05-01T09:35:03.002Z</time></trkpt><trkpt lat="47.67257868650209" lon="11.170114038281666"><ele>692.0</ele><time>2026-05-01T09:35:04.002Z</time></trkpt><trkpt lat="47.67259069576239" lon="11.17037319243785"><ele>693.0</ele><time>2026-05-01T09:35:05.002Z</time></trkpt><trkpt lat="47.672599795178805" lon="11.17063179930562"><ele>694.0</ele><time>2026-05-01T09:35:06.002Z</time></trkpt><trkpt lat="47.67260334631383" lon="11.170890973870707"><ele>695.3333333333334</ele><time>2026-05-01T09:35:07.002Z</time></trkpt><trkpt lat="47.672601675622595" lon="11.171148873138076"><ele>696.6666666666666</ele><time>2026-05-01T09:35:08.002Z</time></trkpt><trkpt lat="47.6725946009291" lon="11.171404124411474"><ele>698.0</ele><time>2026-05-01T09:35:09.002Z</time></trkpt><trkpt lat="47.67258299757311" lon="11.17165733514761"><ele>699.3333333333333</ele><time>2026-05-01T09:35:10.002Z</time></trkpt><trkpt lat="47.67256780667235" lon="11.171895183745784"><ele>700.6666666666666</ele><time>2026-05-01T09:35:11.002Z</time></trkpt><trkpt lat="47.672550276840596" lon="11.17211632499546"><ele>702.0</ele><time>2026-05-01T09:35:12.002Z</time></trkpt><trkpt lat="47.672534693330824" lon="11.172328217347173"><ele>703.25</ele><time>2026-05-01T09:35:13.002Z</time></trkpt><trkpt lat="47.672518429940325" lon="11.172541863456182"><ele>704.5</ele><time>2026-05-01T09:35:14.002Z</time></trkpt><trkpt lat="47.672507468313135" lon="11.1727532229552"><ele>705.75</ele><time>2026-05-01T09:35:15.002Z</time></trkpt><trkpt lat="47.67250134519232" lon="11.172967278658017"><ele>707.0</ele><time>2026-05-01T09:35:16.002Z</time></trkpt><trkpt lat="47.67250036742777" lon="11.173184721886008"><ele>707.0</ele><time>2026-05-01T09:35:17.002Z</time></trkpt><trkpt lat="47.672504805940044" lon="11.173409010993286"><ele>707.0</ele><time>2026-05-01T09:35:18.002Z</time></trkpt><trkpt lat="47.67251578818774" lon="11.173638788836639"><ele>707.0</ele><time>2026-05-01T09:35:19.002Z</time></trkpt><trkpt lat="47.67253204265777" lon="11.173866535509932"><ele>708.0</ele><time>2026-05-01T09:35:20.002Z</time></trkpt><trkpt lat="47.6725560127851" lon="11.174098470139983"><ele>709.0</ele><time>2026-05-01T09:35:21.002Z</time></trkpt><trkpt lat="47.67258739615385" lon="11.1743283459843"><ele>710.0</ele><time>2026-05-01T09:35:22.002Z</time></trkpt><trkpt lat="47.672620836380055" lon="11.174554540991432"><ele>710.0</ele><time>2026-05-01T09:35:23Z</time></trkpt><trkpt lat="47.67265407326236" lon="11.174780174820961"><ele>710.0</ele><time>2026-05-01T09:35:24Z</time></trkpt><trkpt lat="47.67268586632541" lon="11.175000341276718"><ele>710.0</ele><time>2026-05-01T09:35:25Z</time></trkpt><trkpt lat="47.67271451559279" lon="11.175219290338617"><ele>711.25</ele><time>2026-05-01T09:35:26Z</time></trkpt><trkpt lat="47.67274052118466" lon="11.175435181313128"><ele>712.5</ele><time>2026-05-01T09:35:27Z</time></trkpt><trkpt lat="47.6727611963787" lon="11.175655006772152"><ele>713.75</ele><time>2026-05-01T09:35:28Z</time></trkpt><trkpt lat="47.67277674118145" lon="11.175878884203826"><ele>715.0</ele><time>2026-05-01T09:35:29Z</time></trkpt><trkpt lat="47.672786119050684" lon="11.176104435123978"><ele>716.3333333333334</ele><time>2026-05-01T09:35:30Z</time></trkpt><trkpt lat="47.67279272418394" lon="11.176327262506222"><ele>717.6666666666666</ele><time>2026-05-01T09:35:31Z</time></trkpt><trkpt lat="47.67279923792517" lon="11.176553228610715"><ele>719.0</ele><time>2026-05-01T09:35:32Z</time></trkpt><trkpt lat="47.67280681909009" lon="11.176778434162244"><ele>719.5</ele><time>2026-05-01T09:35:33Z</time></trkpt><trkpt lat="47.6728184934088" lon="11.177000523795119"><ele>720.0</ele><time>2026-05-01T09:35:34Z</time></trkpt><trkpt lat="47.67283680636379" lon="11.177221334987198"><ele>720.5</ele><time>2026-05-01T09:35:35Z</time></trkpt><trkpt lat="47.67285957755081" lon="11.177439337299557"><ele>721.0</ele><time>2026-05-01T09:35:36Z</time></trkpt><trkpt lat="47.67288202431144" lon="11.177657471255193"><ele>721.0</ele><time>2026-05-01T09:35:37Z</time></trkpt><trkpt lat="47.672901864000806" lon="11.17787388012616"><ele>721.0</ele><time>2026-05-01T09:35:38Z</time></trkpt><trkpt lat="47.672920002267475" lon="11.17808210333574"><ele>721.0</ele><time>2026-05-01T09:35:39Z</time></trkpt><trkpt lat="47.67293103535473" lon="11.178282137845306"><ele>721.0</ele><time>2026-05-01T09:35:40Z</time></trkpt><trkpt lat="47.6729338764207" lon="11.178484503521213"><ele>720.75</ele><time>2026-05-01T09:35:41Z</time></trkpt><trkpt lat="47.6729326050533" lon="11.178694940571615"><ele>720.5</ele><time>2026-05-01T09:35:42Z</time></trkpt><trkpt lat="47.67292538573619" lon="11.178910027731147"><ele>720.25</ele><time>2026-05-01T09:35:43Z</time></trkpt><trkpt lat="47.672916858069904" lon="11.179129567171232"><ele>720.0</ele><time>2026-05-01T09:35:44Z</time></trkpt><trkpt lat="47.672909506842416" lon="11.17934550958575"><ele>718.0</ele><time>2026-05-01T09:35:45Z</time></trkpt><trkpt lat="47.672909042551964" lon="11.17956302244857"><ele>716.0</ele><time>2026-05-01T09:35:46Z</time></trkpt><trkpt lat="47.67291948793841" lon="11.179781165297255"><ele>714.0</ele><time>2026-05-01T09:35:47Z</time></trkpt><trkpt lat="47.67294111358965" lon="11.18000104579516"><ele>712.0</ele><time>2026-05-01T09:35:48Z</time></trkpt><trkpt lat="47.67297780472109" lon="11.180217683411406"><ele>712.3333333333334</ele><time>2026-05-01T09:35:49Z</time></trkpt><trkpt lat="47.67302311200347" lon="11.180433275287061"><ele>712.6666666666666</ele><time>2026-05-01T09:35:50Z</time></trkpt><trkpt lat="47.673082631643446" lon="11.18064046412527"><ele>713.0</ele><time>2026-05-01T09:35:51Z</time></trkpt><trkpt lat="47.6731462730446" lon="11.180843813590853"><ele>713.0</ele><time>2026-05-01T09:35:52Z</time></trkpt><trkpt lat="47.673207415407276" lon="11.181041681543462"><ele>713.0</ele><time>2026-05-01T09:35:53.001Z</time></trkpt><trkpt lat="47.6732600337812" lon="11.181228439108196"><ele>713.0</ele><time>2026-05-01T09:35:54.001Z</time></trkpt><trkpt lat="47.67330022498966" lon="11.181418955498446"><ele>713.0</ele><time>2026-05-01T09:35:55.001Z</time></trkpt><trkpt lat="47.67332570749893" lon="11.181610647426561"><ele>714.5</ele><time>2026-05-01T09:35:56.001Z</time></trkpt><trkpt lat="47.67333908972511" lon="11.18180497387677"><ele>716.0</ele><time>2026-05-01T09:35:57.001Z</time></trkpt><trkpt lat="47.67333932373775" lon="11.181989067672658"><ele>717.5</ele><time>2026-05-01T09:35:58.001Z</time></trkpt><trkpt lat="47.67332848023665" lon="11.182164597823881"><ele>719.0</ele><time>2026-05-01T09:35:59.001Z</time></trkpt><trkpt lat="47.67331075291466" lon="11.182331993954818"><ele>719.2</ele><time>2026-05-01T09:36:00.001Z</time></trkpt><trkpt lat="47.673292156040134" lon="11.182489866431933"><ele>719.4000000000001</ele><time>2026-05-01T09:36:01.001Z</time></trkpt><trkpt lat="47.6732743354532" lon="11.182649091328333"><ele>719.6</ele><time>2026-05-01T09:36:02.001Z</time></trkpt><trkpt lat="47.67325913452266" lon="11.182811703941544"><ele>719.8</ele><time>2026-05-01T09:36:03.001Z</time></trkpt><trkpt lat="47.6732501343471" lon="11.182975635029273"><ele>720.0</ele><time>2026-05-01T09:36:04.001Z</time></trkpt><trkpt lat="47.67325002493366" lon="11.183139476642008"><ele>720.0</ele><time>2026-05-01T09:36:05.001Z</time></trkpt><trkpt lat="47.67325540910247" lon="11.183303637284201"><ele>720.0</ele><time>2026-05-01T09:36:06.001Z</time></trkpt><trkpt lat="47.6732648571895" lon="11.183469797318525"><ele>720.0</ele><time>2026-05-01T09:36:07.001Z</time></trkpt><trkpt lat="47.67327287937757" lon="11.183643643729171"><ele>720.0</ele><time>2026-05-01T09:36:08.001Z</time></trkpt><trkpt lat="47.67327803852963" lon="11.1838237654634"><ele>720.0</ele><time>2026-05-01T09:36:09.001Z</time></trkpt><trkpt lat="47.673283616281935" lon="11.184005906427606"><ele>720.0</ele><time>2026-05-01T09:36:10.001Z</time></trkpt><trkpt lat="47.67329059616695" lon="11.184182317921985"><ele>720.0</ele><time>2026-05-01T09:36:11.001Z</time></trkpt><trkpt lat="47.67329778718275" lon="11.184358650050356"><ele>720.0</ele><time>2026-05-01T09:36:12.001Z</time></trkpt><trkpt lat="47.67330330422997" lon="11.184536834637562"><ele>721.25</ele><time>2026-05-01T09:36:13.001Z</time></trkpt><trkpt lat="47.67331314928147" lon="11.184711144331661"><ele>722.5</ele><time>2026-05-01T09:36:14.001Z</time></trkpt><trkpt lat="47.67332070715805" lon="11.184883739269326"><ele>723.75</ele><time>2026-05-01T09:36:15.001Z</time></trkpt><trkpt lat="47.67332852334305" lon="11.185055565773897"><ele>725.0</ele><time>2026-05-01T09:36:16.001Z</time></trkpt><trkpt lat="47.673336816537905" lon="11.185226207992802"><ele>725.25</ele><time>2026-05-01T09:36:17.001Z</time></trkpt><trkpt lat="47.67334768811408" lon="11.185397555211301"><ele>725.5</ele><time>2026-05-01T09:36:18.001Z</time></trkpt><trkpt lat="47.67336207636375" lon="11.185567206940203"><ele>725.75</ele><time>2026-05-01T09:36:19.001Z</time></trkpt><trkpt lat="47.673378607826486" lon="11.185737009569493"><ele>726.0</ele><time>2026-05-01T09:36:20.001Z</time></trkpt><trkpt lat="47.67339679841363" lon="11.185907977153088"><ele>724.25</ele><time>2026-05-01T09:36:21.001Z</time></trkpt><trkpt lat="47.67342030093658" lon="11.186079957943722"><ele>722.5</ele><time>2026-05-01T09:36:22.001Z</time></trkpt><trkpt lat="47.673445853526836" lon="11.186252160408788"><ele>720.75</ele><time>2026-05-01T09:36:23.001Z</time></trkpt><trkpt lat="47.67347334342033" lon="11.186428022203177"><ele>719.0</ele><time>2026-05-01T09:36:24.001Z</time></trkpt><trkpt lat="47.67350399674242" lon="11.186606977310985"><ele>717.75</ele><time>2026-05-01T09:36:25.001Z</time></trkpt><trkpt lat="47.67353545518303" lon="11.186780685373371"><ele>716.5</ele><time>2026-05-01T09:36:26.001Z</time></trkpt><trkpt lat="47.67357096432489" lon="11.186946708015492"><ele>715.25</ele><time>2026-05-01T09:36:27.001Z</time></trkpt><trkpt lat="47.67360846673237" lon="11.18712171270253"><ele>714.0</ele><time>2026-05-01T09:36:28.001Z</time></trkpt><trkpt lat="47.67364863549379" lon="11.187297869668777"><ele>715.0</ele><time>2026-05-01T09:36:29.001Z</time></trkpt><trkpt lat="47.67369167791996" lon="11.187479134478885"><ele>716.0</ele><time>2026-05-01T09:36:30.001Z</time></trkpt><trkpt lat="47.67373877026866" lon="11.187657466210135"><ele>717.0</ele><time>2026-05-01T09:36:31.001Z</time></trkpt><trkpt lat="47.67379332100646" lon="11.18783158981733"><ele>718.0</ele><time>2026-05-01T09:36:32.001Z</time></trkpt><trkpt lat="47.67386033631448" lon="11.187991464165048"><ele>718.0</ele><time>2026-05-01T09:36:33.001Z</time></trkpt><trkpt lat="47.67393605191706" lon="11.188142071391589"><ele>718.0</ele><time>2026-05-01T09:36:34.001Z</time></trkpt><trkpt lat="47.67402110517649" lon="11.18828072292591"><ele>718.0</ele><time>2026-05-01T09:36:35.001Z</time></trkpt><trkpt lat="47.6741106582972" lon="11.188404554941666"><ele>718.0</ele><time>2026-05-01T09:36:36.001Z</time></trkpt><trkpt lat="47.67419443632211" lon="11.188511626357226"><ele>717.5999999999999</ele><time>2026-05-01T09:36:37.001Z</time></trkpt><trkpt lat="47.67427384030518" lon="11.188611827065072"><ele>717.1999999999999</ele><time>2026-05-01T09:36:38.001Z</time></trkpt><trkpt lat="47.6743512702366" lon="11.188711789204357"><ele>716.8</ele><time>2026-05-01T09:36:39.001Z</time></trkpt><trkpt lat="47.67442640736006" lon="11.188813475369981"><ele>716.4</ele><time>2026-05-01T09:36:40.001Z</time></trkpt><trkpt lat="47.67450267515622" lon="11.18892271473293"><ele>716.0</ele><time>2026-05-01T09:36:41.001Z</time></trkpt><trkpt lat="47.67457576225713" lon="11.189042363427582"><ele>715.1999999999999</ele><time>2026-05-01T09:36:42.001Z</time></trkpt><trkpt lat="47.67464254485632" lon="11.189170543367297"><ele>714.4</ele><time>2026-05-01T09:36:43.001Z</time></trkpt><trkpt lat="47.674698725668605" lon="11.189307275973144"><ele>713.6</ele><time>2026-05-01T09:36:44.002Z</time></trkpt><trkpt lat="47.67473951938308" lon="11.18945443538624"><ele>712.8</ele><time>2026-05-01T09:36:45.002Z</time></trkpt><trkpt lat="47.674767916873456" lon="11.189610188068622"><ele>712.0</ele><time>2026-05-01T09:36:46.002Z</time></trkpt><trkpt lat="47.674789718270816" lon="11.189756402259217"><ele>711.6</ele><time>2026-05-01T09:36:47.002Z</time></trkpt><trkpt lat="47.67482166056553" lon="11.189893124548826"><ele>711.2</ele><time>2026-05-01T09:36:48.002Z</time></trkpt><trkpt lat="47.67487283426071" lon="11.190017727167792"><ele>710.8</ele><time>2026-05-01T09:36:49.002Z</time></trkpt><trkpt lat="47.67494388278937" lon="11.190122144380167"><ele>710.4</ele><time>2026-05-01T09:36:50.002Z</time></trkpt><trkpt lat="47.675035832569755" lon="11.190203772476732"><ele>710.0</ele><time>2026-05-01T09:36:51.002Z</time></trkpt><trkpt lat="47.67513349791743" lon="11.190262341725779"><ele>710.0</ele><time>2026-05-01T09:36:52.002Z</time></trkpt><trkpt lat="47.67523641217209" lon="11.190301626963501"><ele>710.0</ele><time>2026-05-01T09:36:53.002Z</time></trkpt><trkpt lat="47.67533352294948" lon="11.190334158874622"><ele>710.0</ele><time>2026-05-01T09:36:54.002Z</time></trkpt><trkpt lat="47.675428407992314" lon="11.190367618763464"><ele>710.0</ele><time>2026-05-01T09:36:55.002Z</time></trkpt><trkpt lat="47.675520775679445" lon="11.190410090545429"><ele>710.0</ele><time>2026-05-01T09:36:56.002Z</time></trkpt><trkpt lat="47.67561520717239" lon="11.190463081945145"><ele>709.8</ele><time>2026-05-01T09:36:57.002Z</time></trkpt><trkpt lat="47.67571136261467" lon="11.190530286414177"><ele>709.6</ele><time>2026-05-01T09:36:58.002Z</time></trkpt><trkpt lat="47.675803607571346" lon="11.19060339813106"><ele>709.4000000000001</ele><time>2026-05-01T09:36:59.002Z</time></trkpt><trkpt lat="47.67588811990256" lon="11.190686390115946"><ele>709.2</ele><time>2026-05-01T09:37:00.002Z</time></trkpt><trkpt lat="47.67596602158387" lon="11.190780615419918"><ele>709.0</ele><time>2026-05-01T09:37:01.002Z</time></trkpt><trkpt lat="47.676032286053655" lon="11.190887198039661"><ele>709.0</ele><time>2026-05-01T09:37:02.002Z</time></trkpt><trkpt lat="47.67608849656563" lon="11.191002555424829"><ele>709.0</ele><time>2026-05-01T09:37:03.002Z</time></trkpt><trkpt lat="47.676133384640906" lon="11.191123718337211"><ele>709.0</ele><time>2026-05-01T09:37:04.002Z</time></trkpt><trkpt lat="47.67617273721362" lon="11.191239596895011"><ele>709.0</ele><time>2026-05-01T09:37:05.002Z</time></trkpt><trkpt lat="47.67620983643491" lon="11.191350759846255"><ele>709.0</ele><time>2026-05-01T09:37:06.002Z</time></trkpt><trkpt lat="47.67624523237379" lon="11.191462476222043"><ele>709.0</ele><time>2026-05-01T09:37:07.002Z</time></trkpt><trkpt lat="47.67628143777883" lon="11.191575769420721"><ele>707.8000000000001</ele><time>2026-05-01T09:37:08.002Z</time></trkpt><trkpt lat="47.67631987001884" lon="11.19169607698044"><ele>706.6</ele><time>2026-05-01T09:37:09.002Z</time></trkpt><trkpt lat="47.67636253184488" lon="11.191826731943364"><ele>705.4</ele><time>2026-05-01T09:37:10.002Z</time></trkpt><trkpt lat="47.676408623258176" lon="11.19196152592228"><ele>704.2</ele><time>2026-05-01T09:37:11.002Z</time></trkpt><trkpt lat="47.676456687472644" lon="11.192107016899687"><ele>703.0</ele><time>2026-05-01T09:37:12.002Z</time></trkpt><trkpt lat="47.676504225392954" lon="11.192256107519983"><ele>703.4</ele><time>2026-05-01T09:37:13.002Z</time></trkpt><trkpt lat="47.67654915236558" lon="11.1924034675952"><ele>703.8</ele><time>2026-05-01T09:37:14.002Z</time></trkpt><trkpt lat="47.67659581198503" lon="11.192555592196936"><ele>704.2</ele><time>2026-05-01T09:37:15.002Z</time></trkpt><trkpt lat="47.67664312666303" lon="11.192707179791054"><ele>704.6</ele><time>2026-05-01T09:37:16.002Z</time></trkpt><trkpt lat="47.6767015183291" lon="11.192855213561687"><ele>705.0</ele><time>2026-05-01T09:37:17.002Z</time></trkpt><trkpt lat="47.676769207980406" lon="11.192993182590824"><ele>705.0</ele><time>2026-05-01T09:37:18.002Z</time></trkpt><trkpt lat="47.67684671485427" lon="11.193118487960424"><ele>705.0</ele><time>2026-05-01T09:37:19.002Z</time></trkpt><trkpt lat="47.6769295421958" lon="11.193236994335159"><ele>705.0</ele><time>2026-05-01T09:37:20.002Z</time></trkpt><trkpt lat="47.67701873671069" lon="11.193346111890735"><ele>705.0</ele><time>2026-05-01T09:37:21.002Z</time></trkpt><trkpt lat="47.677109114710206" lon="11.193449001222096"><ele>703.0</ele><time>2026-05-01T09:37:22.002Z</time></trkpt><trkpt lat="47.67719637521317" lon="11.193547404805551"><ele>701.0</ele><time>2026-05-01T09:37:23.002Z</time></trkpt><trkpt lat="47.677278526774934" lon="11.193640927597793"><ele>699.0</ele><time>2026-05-01T09:37:24.002Z</time></trkpt><trkpt lat="47.67735899762362" lon="11.193738340799781"><ele>697.0</ele><time>2026-05-01T09:37:25.002Z</time></trkpt><trkpt lat="47.67743488970792" lon="11.19384173073699"><ele>695.0</ele><time>2026-05-01T09:37:26.002Z</time></trkpt><trkpt lat="47.677507974414475" lon="11.193953556043363"><ele>695.4</ele><time>2026-05-01T09:37:27.002Z</time></trkpt><trkpt lat="47.67757568998429" lon="11.194069815757869"><ele>695.8</ele><time>2026-05-01T09:37:28.002Z</time></trkpt><trkpt lat="47.67763964467866" lon="11.194186564569183"><ele>696.2</ele><time>2026-05-01T09:37:29Z</time></trkpt><trkpt lat="47.67770172005538" lon="11.194299319770348"><ele>696.6</ele><time>2026-05-01T09:37:30Z</time></trkpt><trkpt lat="47.67776073755541" lon="11.19440802655184"><ele>697.0</ele><time>2026-05-01T09:37:31Z</time></trkpt><trkpt lat="47.677819716113504" lon="11.194515945181148"><ele>695.5</ele><time>2026-05-01T09:37:32Z</time></trkpt><trkpt lat="47.677876032565315" lon="11.19461334130611"><ele>694.0</ele><time>2026-05-01T09:37:33Z</time></trkpt><trkpt lat="47.67792663859924" lon="11.194704057955882"><ele>692.5</ele><time>2026-05-01T09:37:34Z</time></trkpt><trkpt lat="47.6779677478773" lon="11.19478059987803"><ele>691.0</ele><time>2026-05-01T09:37:35Z</time></trkpt><trkpt lat="47.67803907017221" lon="11.194946135404559"><ele>689.5</ele><time>2026-05-01T09:37:37Z</time></trkpt><trkpt lat="47.67808048430663" lon="11.195040524196283"><ele>688.0</ele><time>2026-05-01T09:37:38Z</time></trkpt><trkpt lat="47.67813632145254" lon="11.195129929692719"><ele>688.0</ele><time>2026-05-01T09:37:39Z</time></trkpt><trkpt lat="47.678207059282414" lon="11.195199188497309"><ele>688.0</ele><time>2026-05-01T09:37:40Z</time></trkpt><trkpt lat="47.67829104339498" lon="11.195241659066603"><ele>688.0</ele><time>2026-05-01T09:37:41Z</time></trkpt><trkpt lat="47.67838228318229" lon="11.19526244300095"><ele>688.0</ele><time>2026-05-01T09:37:42Z</time></trkpt><trkpt lat="47.67847581274306" lon="11.195247307966099"><ele>688.0</ele><time>2026-05-01T09:37:43Z</time></trkpt><trkpt lat="47.6785675342925" lon="11.195207260488035"><ele>688.0</ele><time>2026-05-01T09:37:44Z</time></trkpt><trkpt lat="47.67865167875738" lon="11.195136253749984"><ele>688.0</ele><time>2026-05-01T09:37:45Z</time></trkpt><trkpt lat="47.67872894198722" lon="11.19504656274773"><ele>688.0</ele><time>2026-05-01T09:37:46Z</time></trkpt><trkpt lat="47.67879179049692" lon="11.194937146845898"><ele>688.0</ele><time>2026-05-01T09:37:47Z</time></trkpt><trkpt lat="47.67884225459305" lon="11.194811012510371"><ele>688.0</ele><time>2026-05-01T09:37:48Z</time></trkpt><trkpt lat="47.678883549388445" lon="11.194670971013876"><ele>687.5999999999999</ele><time>2026-05-01T09:37:49Z</time></trkpt><trkpt lat="47.67892768496693" lon="11.194526337388579"><ele>687.1999999999999</ele><time>2026-05-01T09:37:50Z</time></trkpt><trkpt lat="47.67897735081703" lon="11.194379685272587"><ele>686.8</ele><time>2026-05-01T09:37:51Z</time></trkpt><trkpt lat="47.67903002920226" lon="11.194228724564388"><ele>686.4</ele><time>2026-05-01T09:37:52Z</time></trkpt><trkpt lat="47.67908593271528" lon="11.194084181717486"><ele>686.0</ele><time>2026-05-01T09:37:53Z</time></trkpt><trkpt lat="47.679150863902144" lon="11.19394214505125"><ele>686.0</ele><time>2026-05-01T09:37:54Z</time></trkpt><trkpt lat="47.6792230919616" lon="11.193816864962598"><ele>686.0</ele><time>2026-05-01T09:37:55Z</time></trkpt><trkpt lat="47.679304286036526" lon="11.193706464574106"><ele>686.0</ele><time>2026-05-01T09:37:56Z</time></trkpt><trkpt lat="47.679395334003594" lon="11.193625161555982"><ele>686.0</ele><time>2026-05-01T09:37:57Z</time></trkpt><trkpt lat="47.6794900512379" lon="11.193576837302624"><ele>686.0</ele><time>2026-05-01T09:37:58Z</time></trkpt><trkpt lat="47.679585598784634" lon="11.193555686197957"><ele>686.0</ele><time>2026-05-01T09:37:59Z</time></trkpt><trkpt lat="47.679680383675226" lon="11.19355367384873"><ele>686.0</ele><time>2026-05-01T09:38:00Z</time></trkpt><trkpt lat="47.67975881731242" lon="11.193569448923519"><ele>686.0</ele><time>2026-05-01T09:38:01.001Z</time></trkpt><trkpt lat="47.67982862081344" lon="11.193598112287985"><ele>686.0</ele><time>2026-05-01T09:38:02.001Z</time></trkpt><trkpt lat="47.67989287190124" lon="11.193640482362072"><ele>686.0</ele><time>2026-05-01T09:38:03.001Z</time></trkpt><trkpt lat="47.67995443757578" lon="11.193693692331998"><ele>686.0</ele><time>2026-05-01T09:38:04.001Z</time></trkpt><trkpt lat="47.68000959496845" lon="11.193748436604931"><ele>686.0</ele><time>2026-05-01T09:38:05.001Z</time></trkpt><trkpt lat="47.68008945269104" lon="11.193835558898654"><ele>686.0</ele><time>2026-05-01T09:38:07.001Z</time></trkpt><trkpt lat="47.680157362780044" lon="11.193914568306946"><ele>686.0</ele><time>2026-05-01T09:38:10.001Z</time></trkpt><trkpt lat="47.68021874079422" lon="11.193991387107735"><ele>686.0</ele><time>2026-05-01T09:38:13.001Z</time></trkpt><trkpt lat="47.680276506206376" lon="11.19407647109287"><ele>686.0</ele><time>2026-05-01T09:38:15.001Z</time></trkpt><trkpt lat="47.680316528620125" lon="11.194218190192549"><ele>686.5</ele><time>2026-05-01T09:38:17.001Z</time></trkpt><trkpt lat="47.68029524572325" lon="11.194310656943886"><ele>687.0</ele><time>2026-05-01T09:38:18.001Z</time></trkpt><trkpt lat="47.68024271517573" lon="11.194394825527743"><ele>687.5</ele><time>2026-05-01T09:38:19.001Z</time></trkpt><trkpt lat="47.68017294356491" lon="11.194465926257248"><ele>688.0</ele><time>2026-05-01T09:38:20.001Z</time></trkpt><trkpt lat="47.680089061265505" lon="11.194538056249911"><ele>688.5</ele><time>2026-05-01T09:38:21.001Z</time></trkpt><trkpt lat="47.68000764963312" lon="11.194608613018707"><ele>689.0</ele><time>2026-05-01T09:38:22.001Z</time></trkpt><trkpt lat="47.67992315883982" lon="11.194683583432274"><ele>689.0</ele><time>2026-05-01T09:38:23.001Z</time></trkpt><trkpt lat="47.67983768644639" lon="11.194769580947549"><ele>689.0</ele><time>2026-05-01T09:38:24.001Z</time></trkpt><trkpt lat="47.67974851735447" lon="11.194864694762263"><ele>689.0</ele><time>2026-05-01T09:38:25.001Z</time></trkpt><trkpt lat="47.67965897352742" lon="11.19497178443746"><ele>689.0</ele><time>2026-05-01T09:38:26.001Z</time></trkpt><trkpt lat="47.67957556041553" lon="11.195097000793785"><ele>689.0</ele><time>2026-05-01T09:38:27.001Z</time></trkpt><trkpt lat="47.67949545494758" lon="11.195235694288888"><ele>688.75</ele><time>2026-05-01T09:38:28.001Z</time></trkpt><trkpt lat="47.67941835931389" lon="11.195382349731519"><ele>688.5</ele><time>2026-05-01T09:38:29.001Z</time></trkpt><trkpt lat="47.67934512835144" lon="11.195527527181195"><ele>688.25</ele><time>2026-05-01T09:38:30.001Z</time></trkpt><trkpt lat="47.67927984591938" lon="11.195677119541"><ele>688.0</ele><time>2026-05-01T09:38:31.001Z</time></trkpt><trkpt lat="47.67922952106828" lon="11.195824173551499"><ele>688.6666666666667</ele><time>2026-05-01T09:38:32.001Z</time></trkpt><trkpt lat="47.67919692778763" lon="11.195962075382756"><ele>689.3333333333334</ele><time>2026-05-01T09:38:33.001Z</time></trkpt><trkpt lat="47.67917975935458" lon="11.196082128090069"><ele>690.0</ele><time>2026-05-01T09:38:34.001Z</time></trkpt><trkpt lat="47.679170180519655" lon="11.196236632103382"><ele>690.6666666666666</ele><time>2026-05-01T09:38:36.001Z</time></trkpt><trkpt lat="47.67916775031008" lon="11.196342550452087"><ele>691.3333333333333</ele><time>2026-05-01T09:38:39.001Z</time></trkpt><trkpt lat="47.67914110715527" lon="11.19643351620051"><ele>692.0</ele><time>2026-05-01T09:39:58Z</time></trkpt><trkpt lat="47.6791326616525" lon="11.196565938729137"><ele>692.4000000000001</ele><time>2026-05-01T09:40:00Z</time></trkpt><trkpt lat="47.679147361153284" lon="11.196694575224933"><ele>692.8000000000001</ele><time>2026-05-01T09:40:02.001Z</time></trkpt><trkpt lat="47.679207391986424" lon="11.196773296268052"><ele>693.2</ele><time>2026-05-01T09:40:04.001Z</time></trkpt><trkpt lat="47.679285091194195" lon="11.196784513906902"><ele>693.6</ele><time>2026-05-01T09:40:06.001Z</time></trkpt><trkpt lat="47.67938582936966" lon="11.196781170501623"><ele>694.0</ele><time>2026-05-01T09:40:08.001Z</time></trkpt><trkpt lat="47.6795050148525" lon="11.19677301616024"><ele>695.1666666666667</ele><time>2026-05-01T09:40:10.001Z</time></trkpt><trkpt lat="47.679581802409864" lon="11.196764760850431"><ele>696.3333333333334</ele><time>2026-05-01T09:40:11.001Z</time></trkpt><trkpt lat="47.67966508294385" lon="11.196751420999528"><ele>697.5</ele><time>2026-05-01T09:40:12.001Z</time></trkpt><trkpt lat="47.67974734878938" lon="11.196744860098859"><ele>698.6666666666666</ele><time>2026-05-01T09:40:13.001Z</time></trkpt><trkpt lat="47.679828698681554" lon="11.196743130431065"><ele>699.8333333333333</ele><time>2026-05-01T09:40:14.001Z</time></trkpt><trkpt lat="47.67991236879607" lon="11.196749115729279"><ele>701.0</ele><time>2026-05-01T09:40:15.001Z</time></trkpt><trkpt lat="47.679996954388464" lon="11.196757569244422"><ele>701.0</ele><time>2026-05-01T09:40:16.001Z</time></trkpt><trkpt lat="47.6800838954405" lon="11.196770932184263"><ele>701.0</ele><time>2026-05-01T09:40:17.001Z</time></trkpt><trkpt lat="47.6801727607932" lon="11.196786363865849"><ele>701.0</ele><time>2026-05-01T09:40:18.001Z</time></trkpt><trkpt lat="47.68026005420705" lon="11.19680162388201"><ele>701.0</ele><time>2026-05-01T09:40:19.001Z</time></trkpt><trkpt lat="47.680341251992246" lon="11.196813971484364"><ele>701.0</ele><time>2026-05-01T09:40:20.001Z</time></trkpt><trkpt lat="47.680423491533965" lon="11.196826360424236"><ele>701.0</ele><time>2026-05-01T09:40:21.001Z</time></trkpt><trkpt lat="47.68050578964076" lon="11.196837389909543"><ele>701.1666666666666</ele><time>2026-05-01T09:40:22.001Z</time></trkpt><trkpt lat="47.68058682894097" lon="11.196846771099024"><ele>701.3333333333333</ele><time>2026-05-01T09:40:23.001Z</time></trkpt><trkpt lat="47.68066795522053" lon="11.196853651236736"><ele>701.5</ele><time>2026-05-01T09:40:24.001Z</time></trkpt><trkpt lat="47.680749347484074" lon="11.196856593434063"><ele>701.6666666666666</ele><time>2026-05-01T09:40:25.001Z</time></trkpt><trkpt lat="47.680828319639126" lon="11.196858687219361"><ele>701.8333333333334</ele><time>2026-05-01T09:40:26.001Z</time></trkpt><trkpt lat="47.680900043480385" lon="11.196863543654606"><ele>702.0</ele><time>2026-05-01T09:40:27.001Z</time></trkpt><trkpt lat="47.68102492960047" lon="11.196889670727076"><ele>702.0</ele><time>2026-05-01T09:40:29.001Z</time></trkpt><trkpt lat="47.68108720832912" lon="11.196917359409218"><ele>702.0</ele><time>2026-05-01T09:40:30.001Z</time></trkpt><trkpt lat="47.68118105531814" lon="11.197010258869021"><ele>702.0</ele><time>2026-05-01T09:40:32.001Z</time></trkpt><trkpt lat="47.681245703207374" lon="11.197156922398088"><ele>702.0</ele><time>2026-05-01T09:40:34.001Z</time></trkpt><trkpt lat="47.6812659691167" lon="11.19735154443748"><ele>702.0</ele><time>2026-05-01T09:40:36.001Z</time></trkpt><trkpt lat="47.68126349387279" lon="11.197466642895497"><ele>701.2</ele><time>2026-05-01T09:40:37.001Z</time></trkpt><trkpt lat="47.68126200321862" lon="11.197599320370221"><ele>700.4000000000001</ele><time>2026-05-01T09:40:38.001Z</time></trkpt><trkpt lat="47.68126777913888" lon="11.197740125062653"><ele>699.5999999999999</ele><time>2026-05-01T09:40:39.001Z</time></trkpt><trkpt lat="47.68127584006855" lon="11.197885374698775"><ele>698.8</ele><time>2026-05-01T09:40:40.001Z</time></trkpt><trkpt lat="47.68128500817296" lon="11.198029563150255"><ele>698.0</ele><time>2026-05-01T09:40:41.001Z</time></trkpt><trkpt lat="47.681293702983325" lon="11.198173338237615"><ele>697.6666666666666</ele><time>2026-05-01T09:40:42.001Z</time></trkpt><trkpt lat="47.681303688621604" lon="11.198308720657144"><ele>697.3333333333333</ele><time>2026-05-01T09:40:43.001Z</time></trkpt><trkpt lat="47.68131302341547" lon="11.198446189417627"><ele>697.0</ele><time>2026-05-01T09:40:44.001Z</time></trkpt><trkpt lat="47.681321303316366" lon="11.19857722702619"><ele>696.6666666666666</ele><time>2026-05-01T09:40:45.001Z</time></trkpt><trkpt lat="47.68132937754542" lon="11.198705900483452"><ele>696.3333333333334</ele><time>2026-05-01T09:40:46.001Z</time></trkpt><trkpt lat="47.68133808882044" lon="11.198832197433578"><ele>696.0</ele><time>2026-05-01T09:40:47.001Z</time></trkpt><trkpt lat="47.681346891876544" lon="11.198951009005542"><ele>696.2857142857142</ele><time>2026-05-01T09:40:48.001Z</time></trkpt><trkpt lat="47.681356377343874" lon="11.199060660299333"><ele>696.5714285714286</ele><time>2026-05-01T09:40:49.001Z</time></trkpt><trkpt lat="47.68136384400648" lon="11.19916369033233"><ele>696.8571428571429</ele><time>2026-05-01T09:40:50.001Z</time></trkpt><trkpt lat="47.681371438491375" lon="11.19926477446482"><ele>697.1428571428571</ele><time>2026-05-01T09:40:51.001Z</time></trkpt><trkpt lat="47.68137985862091" lon="11.199367851422489"><ele>697.4285714285714</ele><time>2026-05-01T09:40:52.001Z</time></trkpt><trkpt lat="47.68138804293619" lon="11.199471917057785"><ele>697.7142857142857</ele><time>2026-05-01T09:40:53.002Z</time></trkpt><trkpt lat="47.68139365289151" lon="11.19957872474572"><ele>698.0</ele><time>2026-05-01T09:40:54.002Z</time></trkpt><trkpt lat="47.68139805274064" lon="11.19968714774681"><ele>698.0</ele><time>2026-05-01T09:40:55.002Z</time></trkpt><trkpt lat="47.681401749138054" lon="11.199797133711833"><ele>698.0</ele><time>2026-05-01T09:40:56.002Z</time></trkpt><trkpt lat="47.68140736900134" lon="11.199913376601941"><ele>698.0</ele><time>2026-05-01T09:40:57.002Z</time></trkpt><trkpt lat="47.68141480260541" lon="11.200032429318464"><ele>698.0</ele><time>2026-05-01T09:40:58.002Z</time></trkpt><trkpt lat="47.681419621060954" lon="11.200157978391426"><ele>698.0</ele><time>2026-05-01T09:40:59.002Z</time></trkpt><trkpt lat="47.681422383662415" lon="11.200281606530147"><ele>698.0</ele><time>2026-05-01T09:41:00.002Z</time></trkpt><trkpt lat="47.68142477018574" lon="11.200395624968623"><ele>698.4</ele><time>2026-05-01T09:41:01.002Z</time></trkpt><trkpt lat="47.68142721764811" lon="11.20049633861443"><ele>698.8</ele><time>2026-05-01T09:41:02.002Z</time></trkpt><trkpt lat="47.68143436664171" lon="11.200651818952942"><ele>699.2</ele><time>2026-05-01T09:41:04.002Z</time></trkpt><trkpt lat="47.68144735210045" lon="11.200810151641234"><ele>699.6</ele><time>2026-05-01T09:41:06.002Z</time></trkpt><trkpt lat="47.6814583190331" lon="11.200994528049945"><ele>700.0</ele><time>2026-05-01T09:41:08.002Z</time></trkpt><trkpt lat="47.68146191723531" lon="11.201177418522393"><ele>700.0</ele><time>2026-05-01T09:41:10.002Z</time></trkpt><trkpt lat="47.68146477237824" lon="11.201272973975444"><ele>700.0</ele><time>2026-05-01T09:41:11.002Z</time></trkpt><trkpt lat="47.681467639980255" lon="11.201375077142988"><ele>700.0</ele><time>2026-05-01T09:41:12.002Z</time></trkpt><trkpt lat="47.681470392373306" lon="11.201479034031388"><ele>700.0</ele><time>2026-05-01T09:41:13.002Z</time></trkpt><trkpt lat="47.68147201881286" lon="11.201583404982554"><ele>700.0</ele><time>2026-05-01T09:41:14.002Z</time></trkpt><trkpt lat="47.681471412454215" lon="11.2016785630252"><ele>700.0</ele><time>2026-05-01T09:41:15.002Z</time></trkpt><trkpt lat="47.68147997833439" lon="11.201836866544888"><ele>700.0</ele><time>2026-05-01T09:41:17.002Z</time></trkpt><trkpt lat="47.68152894593443" lon="11.201969233487901"><ele>699.6666666666667</ele><time>2026-05-01T09:41:19.002Z</time></trkpt><trkpt lat="47.68161578508054" lon="11.20206484981666"><ele>699.3333333333334</ele><time>2026-05-01T09:41:21.002Z</time></trkpt><trkpt lat="47.681717188078316" lon="11.202150443977018"><ele>699.0</ele><time>2026-05-01T09:41:23.002Z</time></trkpt><trkpt lat="47.68177275507856" lon="11.202195211633509"><ele>698.6666666666666</ele><time>2026-05-01T09:41:24.002Z</time></trkpt><trkpt lat="47.68183336226499" lon="11.202243007400488"><ele>698.3333333333333</ele><time>2026-05-01T09:41:25.002Z</time></trkpt><trkpt lat="47.681900898278975" lon="11.202293062689598"><ele>698.0</ele><time>2026-05-01T09:41:26.002Z</time></trkpt><trkpt lat="47.6819692702117" lon="11.202344900117263"><ele>697.8333333333333</ele><time>2026-05-01T09:41:27.002Z</time></trkpt><trkpt lat="47.68204002463904" lon="11.202401219208385"><ele>697.6666666666666</ele><time>2026-05-01T09:41:28.002Z</time></trkpt><trkpt lat="47.682107801390345" lon="11.202463348092245"><ele>697.5</ele><time>2026-05-01T09:41:29.002Z</time></trkpt><trkpt lat="47.68217847268516" lon="11.202532448896179"><ele>697.3333333333334</ele><time>2026-05-01T09:41:30.002Z</time></trkpt><trkpt lat="47.68225262929916" lon="11.202609012554113"><ele>697.1666666666667</ele><time>2026-05-01T09:41:31.002Z</time></trkpt><trkpt lat="47.68233084793114" lon="11.202693899440561"><ele>697.0</ele><time>2026-05-01T09:41:32.002Z</time></trkpt><trkpt lat="47.68241171479501" lon="11.202781748317884"><ele>697.0</ele><time>2026-05-01T09:41:33.002Z</time></trkpt><trkpt lat="47.68249050426068" lon="11.202868522821944"><ele>697.0</ele><time>2026-05-01T09:41:34.002Z</time></trkpt><trkpt lat="47.68257517860674" lon="11.202957282228926"><ele>697.0</ele><time>2026-05-01T09:41:35.002Z</time></trkpt><trkpt lat="47.68266257389559" lon="11.203044020964704"><ele>697.0</ele><time>2026-05-01T09:41:36.002Z</time></trkpt><trkpt lat="47.68274632695365" lon="11.203125676847428"><ele>697.0</ele><time>2026-05-01T09:41:37.002Z</time></trkpt><trkpt lat="47.68282817239068" lon="11.203202861707457"><ele>696.4000000000001</ele><time>2026-05-01T09:41:38.002Z</time></trkpt><trkpt lat="47.68291391226481" lon="11.203278392610445"><ele>695.8000000000001</ele><time>2026-05-01T09:41:39.002Z</time></trkpt><trkpt lat="47.68300533527857" lon="11.203347448649714"><ele>695.2</ele><time>2026-05-01T09:41:40.002Z</time></trkpt><trkpt lat="47.68309333781143" lon="11.203405205415361"><ele>694.6</ele><time>2026-05-01T09:41:41Z</time></trkpt><trkpt lat="47.683168749480856" lon="11.20345070343298"><ele>694.0</ele><time>2026-05-01T09:41:42Z</time></trkpt><trkpt lat="47.68324857982495" lon="11.203540111031094"><ele>694.0</ele><time>2026-05-01T09:41:44Z</time></trkpt><trkpt lat="47.68325432968846" lon="11.203674300076417"><ele>694.0</ele><time>2026-05-01T09:41:46Z</time></trkpt><trkpt lat="47.68321013900718" lon="11.20374827022707"><ele>694.0</ele><time>2026-05-01T09:41:49Z</time></trkpt><trkpt lat="47.6831713588064" lon="11.203667213592047"><ele>694.0</ele><time>2026-05-01T09:41:53Z</time></trkpt><trkpt lat="47.68313463177365" lon="11.203586827771982"><ele>694.0</ele><time>2026-05-01T09:41:56Z</time></trkpt><trkpt lat="47.68305902493357" lon="11.203610334650605"><ele>694.0</ele><time>2026-05-01T09:41:59Z</time></trkpt><trkpt lat="47.68308191582585" lon="11.203711071548682"><ele>694.0</ele><time>2026-05-01T09:45:27.002Z</time></trkpt><trkpt lat="47.683043106901025" lon="11.20379423714224"><ele>694.0</ele><time>2026-05-01T09:45:33.002Z</time></trkpt><trkpt lat="47.683037958004" lon="11.203910517175109"><ele>694.0</ele><time>2026-05-01T09:45:34.002Z</time></trkpt><trkpt lat="47.68302154" lon="11.20374298"><ele>694.0</ele><time>2026-05-01T09:45:54.853Z</time></trkpt><trkpt lat="47.682952198055915" lon="11.203723787699122"><ele>694.0</ele><time>2026-05-01T09:46:37.003Z</time></trkpt><trkpt lat="47.682988139836496" lon="11.203645144828307"><ele>694.0</ele><time>2026-05-01T09:46:43Z</time></trkpt><trkpt lat="47.683083289040155" lon="11.203660476591601"><ele>694.0</ele><time>2026-05-01T09:48:34.002Z</time></trkpt><trkpt lat="47.68308694448746" lon="11.203755185788133"><ele>694.0</ele><time>2026-05-01T09:49:13Z</time></trkpt><trkpt lat="47.68316176453287" lon="11.203763200737118"><ele>694.0</ele><time>2026-05-01T10:23:45Z</time></trkpt><trkpt lat="47.68324162245718" lon="11.203725982132427"><ele>694.0</ele><time>2026-05-01T10:23:48Z</time></trkpt><trkpt lat="47.68329465264336" lon="11.203646412311718"><ele>694.0</ele><time>2026-05-01T10:23:50Z</time></trkpt><trkpt lat="47.68333400952491" lon="11.203553812183365"><ele>694.0</ele><time>2026-05-01T10:23:52Z</time></trkpt><trkpt lat="47.68340971182332" lon="11.203495842832952"><ele>694.0</ele><time>2026-05-01T10:23:54Z</time></trkpt><trkpt lat="47.68352278903295" lon="11.203553718184326"><ele>694.0</ele><time>2026-05-01T10:23:56Z</time></trkpt><trkpt lat="47.68359091888325" lon="11.203591978901404"><ele>694.0</ele><time>2026-05-01T10:23:57Z</time></trkpt><trkpt lat="47.68367151093678" lon="11.203609716670412"><ele>694.0</ele><time>2026-05-01T10:23:58Z</time></trkpt><trkpt lat="47.68374977459824" lon="11.203623317732188"><ele>694.0</ele><time>2026-05-01T10:23:59Z</time></trkpt><trkpt lat="47.68383812667639" lon="11.203650721051757"><ele>694.0</ele><time>2026-05-01T10:24:00Z</time></trkpt><trkpt lat="47.68393239998739" lon="11.203669845117693"><ele>694.0</ele><time>2026-05-01T10:24:01Z</time></trkpt><trkpt lat="47.684037705153365" lon="11.203685653841214"><ele>693.8000000000001</ele><time>2026-05-01T10:24:02Z</time></trkpt><trkpt lat="47.68414397626962" lon="11.203695471910162"><ele>693.6</ele><time>2026-05-01T10:24:03Z</time></trkpt><trkpt lat="47.6842496999103" lon="11.203701627947542"><ele>693.4</ele><time>2026-05-01T10:24:04Z</time></trkpt><trkpt lat="47.68435442674856" lon="11.20371080436278"><ele>693.2</ele><time>2026-05-01T10:24:05Z</time></trkpt><trkpt lat="47.68446134447095" lon="11.203718421264504"><ele>693.0</ele><time>2026-05-01T10:24:06Z</time></trkpt><trkpt lat="47.68456803035089" lon="11.203725321723981"><ele>692.4</ele><time>2026-05-01T10:24:07Z</time></trkpt><trkpt lat="47.68467695550416" lon="11.203731086994932"><ele>691.8</ele><time>2026-05-01T10:24:08Z</time></trkpt><trkpt lat="47.68478658209317" lon="11.203734831767376"><ele>691.2</ele><time>2026-05-01T10:24:09Z</time></trkpt><trkpt lat="47.6848969229902" lon="11.203737271461849"><ele>690.6</ele><time>2026-05-01T10:24:10Z</time></trkpt><trkpt lat="47.685006093623144" lon="11.20374548000253"><ele>690.0</ele><time>2026-05-01T10:24:11Z</time></trkpt><trkpt lat="47.6851183833304" lon="11.203751718636312"><ele>690.0</ele><time>2026-05-01T10:24:12Z</time></trkpt><trkpt lat="47.68523416432416" lon="11.20375828842807"><ele>690.0</ele><time>2026-05-01T10:24:13Z</time></trkpt><trkpt lat="47.685349361719624" lon="11.203768592200754"><ele>690.0</ele><time>2026-05-01T10:24:14Z</time></trkpt><trkpt lat="47.68546794024139" lon="11.203778251341555"><ele>690.0</ele><time>2026-05-01T10:24:15Z</time></trkpt><trkpt lat="47.685586282051986" lon="11.20378759837232"><ele>689.25</ele><time>2026-05-01T10:24:16Z</time></trkpt><trkpt lat="47.68570654616433" lon="11.203798698296195"><ele>688.5</ele><time>2026-05-01T10:24:17Z</time></trkpt><trkpt lat="47.68582561266837" lon="11.203809927376707"><ele>687.75</ele><time>2026-05-01T10:24:18Z</time></trkpt><trkpt lat="47.685945906182404" lon="11.203824096346592"><ele>687.0</ele><time>2026-05-01T10:24:19Z</time></trkpt><trkpt lat="47.68606738830472" lon="11.20382610739875"><ele>687.0</ele><time>2026-05-01T10:24:20Z</time></trkpt><trkpt lat="47.68618878264092" lon="11.203829881828536"><ele>687.0</ele><time>2026-05-01T10:24:21Z</time></trkpt><trkpt lat="47.68631163148693" lon="11.203829025119452"><ele>687.0</ele><time>2026-05-01T10:24:22Z</time></trkpt><trkpt lat="47.68643435821067" lon="11.203826367640637"><ele>687.0</ele><time>2026-05-01T10:24:23Z</time></trkpt><trkpt lat="47.686555572149075" lon="11.203815178715498"><ele>687.0</ele><time>2026-05-01T10:24:24Z</time></trkpt><trkpt lat="47.68667490787643" lon="11.203799468131281"><ele>687.0</ele><time>2026-05-01T10:24:25Z</time></trkpt><trkpt lat="47.68679076827326" lon="11.203774191759432"><ele>687.0</ele><time>2026-05-01T10:24:26Z</time></trkpt><trkpt lat="47.68690579536537" lon="11.20373835348006"><ele>687.0</ele><time>2026-05-01T10:24:27.001Z</time></trkpt><trkpt lat="47.68701987119112" lon="11.203704657804657"><ele>686.75</ele><time>2026-05-01T10:24:28.001Z</time></trkpt><trkpt lat="47.68713334109046" lon="11.203668839228612"><ele>686.5</ele><time>2026-05-01T10:24:29Z</time></trkpt><trkpt lat="47.68724681867526" lon="11.203636804127223"><ele>686.25</ele><time>2026-05-01T10:24:30Z</time></trkpt><trkpt lat="47.68735639146116" lon="11.203606886026414"><ele>686.0</ele><time>2026-05-01T10:24:31Z</time></trkpt><trkpt lat="47.68746892738116" lon="11.203575564829714"><ele>686.0</ele><time>2026-05-01T10:24:32Z</time></trkpt><trkpt lat="47.68758503704796" lon="11.203539391978692"><ele>686.0</ele><time>2026-05-01T10:24:33Z</time></trkpt><trkpt lat="47.687705029068766" lon="11.203502382297986"><ele>686.0</ele><time>2026-05-01T10:24:34Z</time></trkpt><trkpt lat="47.68783131649563" lon="11.203465814810698"><ele>686.0</ele><time>2026-05-01T10:24:35Z</time></trkpt><trkpt lat="47.687963253757175" lon="11.203428185820052"><ele>685.25</ele><time>2026-05-01T10:24:36Z</time></trkpt><trkpt lat="47.68809863473721" lon="11.203388907496654"><ele>684.5</ele><time>2026-05-01T10:24:37Z</time></trkpt><trkpt lat="47.68823690469861" lon="11.203349685367563"><ele>683.75</ele><time>2026-05-01T10:24:38Z</time></trkpt><trkpt lat="47.68837399171276" lon="11.203312850085416"><ele>683.0</ele><time>2026-05-01T10:24:39Z</time></trkpt><trkpt lat="47.68850855005695" lon="11.203279558766399"><ele>683.25</ele><time>2026-05-01T10:24:40Z</time></trkpt><trkpt lat="47.68864989518631" lon="11.203243650183854"><ele>683.5</ele><time>2026-05-01T10:24:41Z</time></trkpt><trkpt lat="47.688792667646645" lon="11.20320736418192"><ele>683.75</ele><time>2026-05-01T10:24:42Z</time></trkpt><trkpt lat="47.688937143864" lon="11.203170049924148"><ele>684.0</ele><time>2026-05-01T10:24:43Z</time></trkpt><trkpt lat="47.689077494314844" lon="11.203139006655142"><ele>684.0</ele><time>2026-05-01T10:24:44Z</time></trkpt><trkpt lat="47.68920989795617" lon="11.20310542646236"><ele>684.0</ele><time>2026-05-01T10:24:45Z</time></trkpt><trkpt lat="47.68934172824892" lon="11.20307571985691"><ele>684.0</ele><time>2026-05-01T10:24:46Z</time></trkpt><trkpt lat="47.68947133265741" lon="11.203051810678026"><ele>684.0</ele><time>2026-05-01T10:24:47Z</time></trkpt><trkpt lat="47.68959905089056" lon="11.203026761104136"><ele>683.5</ele><time>2026-05-01T10:24:48Z</time></trkpt><trkpt lat="47.68972724771607" lon="11.20300323838658"><ele>683.0</ele><time>2026-05-01T10:24:49Z</time></trkpt><trkpt lat="47.68985661334572" lon="11.202979414436511"><ele>682.5</ele><time>2026-05-01T10:24:50Z</time></trkpt><trkpt lat="47.68998731858228" lon="11.202956418598117"><ele>682.0</ele><time>2026-05-01T10:24:51Z</time></trkpt><trkpt lat="47.6901206081344" lon="11.202941246126993"><ele>682.0</ele><time>2026-05-01T10:24:52Z</time></trkpt><trkpt lat="47.690253357637225" lon="11.202920941482596"><ele>682.0</ele><time>2026-05-01T10:24:53Z</time></trkpt><trkpt lat="47.69038408934556" lon="11.20289859776338"><ele>682.0</ele><time>2026-05-01T10:24:54Z</time></trkpt><trkpt lat="47.690517788856354" lon="11.202879465487591"><ele>682.0</ele><time>2026-05-01T10:24:55Z</time></trkpt><trkpt lat="47.69065155900818" lon="11.202867740325331"><ele>682.25</ele><time>2026-05-01T10:24:56Z</time></trkpt><trkpt lat="47.69078694980909" lon="11.202858292157082"><ele>682.5</ele><time>2026-05-01T10:24:57Z</time></trkpt><trkpt lat="47.69092394187484" lon="11.202850439454581"><ele>682.75</ele><time>2026-05-01T10:24:58Z</time></trkpt><trkpt lat="47.691060003777494" lon="11.202841356634188"><ele>683.0</ele><time>2026-05-01T10:24:59Z</time></trkpt><trkpt lat="47.69119793267859" lon="11.202831821329228"><ele>682.5</ele><time>2026-05-01T10:25:00Z</time></trkpt><trkpt lat="47.69133537814941" lon="11.202826862539833"><ele>682.0</ele><time>2026-05-01T10:25:01Z</time></trkpt><trkpt lat="47.69146970915299" lon="11.202826793295529"><ele>681.5</ele><time>2026-05-01T10:25:02Z</time></trkpt><trkpt lat="47.69160199963754" lon="11.202833886168722"><ele>681.0</ele><time>2026-05-01T10:25:03Z</time></trkpt><trkpt lat="47.691735938899114" lon="11.202838966107883"><ele>681.0</ele><time>2026-05-01T10:25:04Z</time></trkpt><trkpt lat="47.69187466212004" lon="11.202852314428398"><ele>681.0</ele><time>2026-05-01T10:25:05Z</time></trkpt><trkpt lat="47.69201810903898" lon="11.202871941637188"><ele>681.0</ele><time>2026-05-01T10:25:06Z</time></trkpt><trkpt lat="47.69216718402023" lon="11.2029051996807"><ele>681.0</ele><time>2026-05-01T10:25:07Z</time></trkpt><trkpt lat="47.69231845953128" lon="11.20295494768895"><ele>681.0</ele><time>2026-05-01T10:25:08Z</time></trkpt><trkpt lat="47.69246847489908" lon="11.203021492476735"><ele>681.0</ele><time>2026-05-01T10:25:09Z</time></trkpt><trkpt lat="47.6926166603194" lon="11.203098876321278"><ele>681.0</ele><time>2026-05-01T10:25:10Z</time></trkpt><trkpt lat="47.69276404712698" lon="11.203178425862147"><ele>681.0</ele><time>2026-05-01T10:25:11Z</time></trkpt><trkpt lat="47.69290981498333" lon="11.20326491974491"><ele>681.0</ele><time>2026-05-01T10:25:12Z</time></trkpt><trkpt lat="47.693052727432985" lon="11.203360745059808"><ele>681.0</ele><time>2026-05-01T10:25:13Z</time></trkpt><trkpt lat="47.6931956937721" lon="11.203471687641041"><ele>681.0</ele><time>2026-05-01T10:25:14Z</time></trkpt><trkpt lat="47.69334009256018" lon="11.203581988571841"><ele>681.0</ele><time>2026-05-01T10:25:15Z</time></trkpt><trkpt lat="47.693485293998855" lon="11.203688818122998"><ele>681.0</ele><time>2026-05-01T10:25:16Z</time></trkpt><trkpt lat="47.69363380090759" lon="11.203778425023678"><ele>679.6666666666666</ele><time>2026-05-01T10:25:17Z</time></trkpt><trkpt lat="47.6937825806162" lon="11.203850202545345"><ele>678.3333333333333</ele><time>2026-05-01T10:25:18Z</time></trkpt><trkpt lat="47.69393627751116" lon="11.203906981440596"><ele>677.0</ele><time>2026-05-01T10:25:19Z</time></trkpt><trkpt lat="47.694092562246716" lon="11.20395833868028"><ele>678.3333333333333</ele><time>2026-05-01T10:25:20Z</time></trkpt><trkpt lat="47.69424581114219" lon="11.204008834445117"><ele>679.6666666666666</ele><time>2026-05-01T10:25:21Z</time></trkpt><trkpt lat="47.694396585043776" lon="11.204049538747148"><ele>681.0</ele><time>2026-05-01T10:25:22Z</time></trkpt><trkpt lat="47.694549116970066" lon="11.204082273231142"><ele>681.6666666666666</ele><time>2026-05-01T10:25:23Z</time></trkpt><trkpt lat="47.69470231643861" lon="11.204103788232912"><ele>682.3333333333333</ele><time>2026-05-01T10:25:24Z</time></trkpt><trkpt lat="47.6948539629665" lon="11.204121732027799"><ele>683.0</ele><time>2026-05-01T10:25:25Z</time></trkpt><trkpt lat="47.6950058421715" lon="11.204143789030619"><ele>683.0</ele><time>2026-05-01T10:25:26Z</time></trkpt><trkpt lat="47.69515440403209" lon="11.204172964166213"><ele>683.0</ele><time>2026-05-01T10:25:27Z</time></trkpt><trkpt lat="47.69529450241143" lon="11.204210156193156"><ele>683.0</ele><time>2026-05-01T10:25:28Z</time></trkpt><trkpt lat="47.69542378956889" lon="11.204263350832019"><ele>683.0</ele><time>2026-05-01T10:25:29Z</time></trkpt><trkpt lat="47.69554853053085" lon="11.204340137600433"><ele>682.75</ele><time>2026-05-01T10:25:30Z</time></trkpt><trkpt lat="47.695663982744314" lon="11.204441243976433"><ele>682.5</ele><time>2026-05-01T10:25:31Z</time></trkpt><trkpt lat="47.69577449853781" lon="11.204546326529469"><ele>682.25</ele><time>2026-05-01T10:25:32Z</time></trkpt><trkpt lat="47.69589162611805" lon="11.204653424947496"><ele>682.0</ele><time>2026-05-01T10:25:33Z</time></trkpt><trkpt lat="47.69601713361457" lon="11.204762731334261"><ele>681.0</ele><time>2026-05-01T10:25:34Z</time></trkpt><trkpt lat="47.696149579383444" lon="11.204874856216964"><ele>680.0</ele><time>2026-05-01T10:25:35Z</time></trkpt><trkpt lat="47.696291773249506" lon="11.20499736120055"><ele>679.0</ele><time>2026-05-01T10:25:36Z</time></trkpt><trkpt lat="47.69644362040154" lon="11.20512760037839"><ele>679.0</ele><time>2026-05-01T10:25:37Z</time></trkpt><trkpt lat="47.69660026256943" lon="11.205261991208598"><ele>679.0</ele><time>2026-05-01T10:25:38Z</time></trkpt><trkpt lat="47.69675350528689" lon="11.205395915688072"><ele>679.0</ele><time>2026-05-01T10:25:39Z</time></trkpt><trkpt lat="47.696908329311825" lon="11.205544316949627"><ele>678.0</ele><time>2026-05-01T10:25:40Z</time></trkpt><trkpt lat="47.69706255233322" lon="11.205708437290655"><ele>677.0</ele><time>2026-05-01T10:25:41Z</time></trkpt><trkpt lat="47.69718636823286" lon="11.205926375759422"><ele>676.0</ele><time>2026-05-01T10:25:42Z</time></trkpt><trkpt lat="47.69731658535673" lon="11.206140605798337"><ele>676.0</ele><time>2026-05-01T10:25:43Z</time></trkpt><trkpt lat="47.69746262914154" lon="11.206332678638747"><ele>676.0</ele><time>2026-05-01T10:25:44Z</time></trkpt><trkpt lat="47.697609865217125" lon="11.20651707565236"><ele>676.0</ele><time>2026-05-01T10:25:45Z</time></trkpt><trkpt lat="47.69777450579195" lon="11.206668572502"><ele>676.3333333333334</ele><time>2026-05-01T10:25:46Z</time></trkpt><trkpt lat="47.6979511208241" lon="11.20678693306088"><ele>676.6666666666666</ele><time>2026-05-01T10:25:47Z</time></trkpt><trkpt lat="47.69813678799649" lon="11.206879831536481"><ele>677.0</ele><time>2026-05-01T10:25:48Z</time></trkpt><trkpt lat="47.6983243715968" lon="11.206947240267725"><ele>677.0</ele><time>2026-05-01T10:25:49Z</time></trkpt><trkpt lat="47.69851517499169" lon="11.206987170899637"><ele>677.0</ele><time>2026-05-01T10:25:50Z</time></trkpt><trkpt lat="47.69870903075531" lon="11.206994465173617"><ele>677.0</ele><time>2026-05-01T10:25:51Z</time></trkpt><trkpt lat="47.69890504806514" lon="11.206971222761615"><ele>677.6666666666666</ele><time>2026-05-01T10:25:52Z</time></trkpt><trkpt lat="47.6991018102229" lon="11.206906917873425"><ele>678.3333333333334</ele><time>2026-05-01T10:25:53Z</time></trkpt><trkpt lat="47.69928988339402" lon="11.20682411257237"><ele>679.0</ele><time>2026-05-01T10:25:54Z</time></trkpt><trkpt lat="47.699485640640795" lon="11.206739877936899"><ele>679.6666666666667</ele><time>2026-05-01T10:25:55Z</time></trkpt><trkpt lat="47.69968121210069" lon="11.206668310840469"><ele>680.3333333333334</ele><time>2026-05-01T10:25:56Z</time></trkpt><trkpt lat="47.69987091608073" lon="11.206617711901217"><ele>681.0</ele><time>2026-05-01T10:25:57Z</time></trkpt><trkpt lat="47.70006881565333" lon="11.206610185405863"><ele>681.3333333333334</ele><time>2026-05-01T10:25:58Z</time></trkpt><trkpt lat="47.70026937166671" lon="11.206624422455356"><ele>681.6666666666667</ele><time>2026-05-01T10:25:59Z</time></trkpt><trkpt lat="47.70047722469143" lon="11.206666350931695"><ele>682.0</ele><time>2026-05-01T10:26:00Z</time></trkpt><trkpt lat="47.70068844798756" lon="11.20671151136112"><ele>682.0</ele><time>2026-05-01T10:26:01Z</time></trkpt><trkpt lat="47.700903925884965" lon="11.206764219887518"><ele>682.0</ele><time>2026-05-01T10:26:02Z</time></trkpt><trkpt lat="47.701119809065254" lon="11.20682768010026"><ele>682.0</ele><time>2026-05-01T10:26:03Z</time></trkpt><trkpt lat="47.70133692572416" lon="11.206902149870492"><ele>682.0</ele><time>2026-05-01T10:26:04Z</time></trkpt><trkpt lat="47.70155348749634" lon="11.20698570425082"><ele>682.0</ele><time>2026-05-01T10:26:05Z</time></trkpt><trkpt lat="47.70176715068603" lon="11.207078603025455"><ele>682.0</ele><time>2026-05-01T10:26:06Z</time></trkpt><trkpt lat="47.70197213633576" lon="11.207171915688885"><ele>682.3333333333334</ele><time>2026-05-01T10:26:07Z</time></trkpt><trkpt lat="47.702182646294624" lon="11.207276843323527"><ele>682.6666666666666</ele><time>2026-05-01T10:26:08Z</time></trkpt><trkpt lat="47.70239381853229" lon="11.207395437547316"><ele>683.0</ele><time>2026-05-01T10:26:09Z</time></trkpt><trkpt lat="47.70260257862576" lon="11.207516233161055"><ele>682.0</ele><time>2026-05-01T10:26:10Z</time></trkpt><trkpt lat="47.7028114577163" lon="11.207642291405863"><ele>681.0</ele><time>2026-05-01T10:26:11Z</time></trkpt><trkpt lat="47.70301697655621" lon="11.207772299505525"><ele>680.0</ele><time>2026-05-01T10:26:12Z</time></trkpt><trkpt lat="47.70321921693083" lon="11.207907780278067"><ele>680.0</ele><time>2026-05-01T10:26:13Z</time></trkpt><trkpt lat="47.703422501321484" lon="11.208041089879858"><ele>680.0</ele><time>2026-05-01T10:26:14Z</time></trkpt><trkpt lat="47.70362901772432" lon="11.20816226336288"><ele>680.0</ele><time>2026-05-01T10:26:15Z</time></trkpt><trkpt lat="47.7038423881523" lon="11.208256453620843"><ele>677.5</ele><time>2026-05-01T10:26:16Z</time></trkpt><trkpt lat="47.70406174378118" lon="11.208337222076269"><ele>675.0</ele><time>2026-05-01T10:26:17Z</time></trkpt><trkpt lat="47.70428092069202" lon="11.208433222226011"><ele>673.0</ele><time>2026-05-01T10:26:18Z</time></trkpt><trkpt lat="47.70448725041371" lon="11.208585939468655"><ele>671.0</ele><time>2026-05-01T10:26:19Z</time></trkpt><trkpt lat="47.70469267685207" lon="11.20875155489226"><ele>671.0</ele><time>2026-05-01T10:26:20Z</time></trkpt><trkpt lat="47.70489248155341" lon="11.208941457153447"><ele>671.0</ele><time>2026-05-01T10:26:21Z</time></trkpt><trkpt lat="47.70510141092479" lon="11.209120071458855"><ele>669.0</ele><time>2026-05-01T10:26:22Z</time></trkpt><trkpt lat="47.705301772620416" lon="11.209319266409603"><ele>667.0</ele><time>2026-05-01T10:26:23Z</time></trkpt><trkpt lat="47.70550573249537" lon="11.209505111192486"><ele>667.0</ele><time>2026-05-01T10:26:24Z</time></trkpt><trkpt lat="47.70571205579577" lon="11.209682555033295"><ele>667.0</ele><time>2026-05-01T10:26:25Z</time></trkpt><trkpt lat="47.70591636380464" lon="11.209859801162933"><ele>666.0</ele><time>2026-05-01T10:26:26Z</time></trkpt><trkpt lat="47.70611874770495" lon="11.210038203004318"><ele>665.0</ele><time>2026-05-01T10:26:27Z</time></trkpt><trkpt lat="47.70632086623762" lon="11.210217914325133"><ele>665.0</ele><time>2026-05-01T10:26:28Z</time></trkpt><trkpt lat="47.706521773441715" lon="11.210399776676695"><ele>665.0</ele><time>2026-05-01T10:26:29Z</time></trkpt><trkpt lat="47.70672333129648" lon="11.210579641913903"><ele>664.5</ele><time>2026-05-01T10:26:30Z</time></trkpt><trkpt lat="47.70692667947304" lon="11.210753666270188"><ele>664.0</ele><time>2026-05-01T10:26:31Z</time></trkpt><trkpt lat="47.70713248517094" lon="11.210915541119324"><ele>664.0</ele><time>2026-05-01T10:26:32Z</time></trkpt><trkpt lat="47.707341801621034" lon="11.211063859434095"><ele>664.0</ele><time>2026-05-01T10:26:33Z</time></trkpt><trkpt lat="47.70755283891416" lon="11.211199173679"><ele>665.0</ele><time>2026-05-01T10:26:34Z</time></trkpt><trkpt lat="47.707766122535276" lon="11.211325575555028"><ele>666.0</ele><time>2026-05-01T10:26:35Z</time></trkpt><trkpt lat="47.707980504222064" lon="11.21143369067506"><ele>667.0</ele><time>2026-05-01T10:26:36Z</time></trkpt><trkpt lat="47.708196682102404" lon="11.211503895973413"><ele>668.0</ele><time>2026-05-01T10:26:37Z</time></trkpt><trkpt lat="47.70841565460077" lon="11.211542017120918"><ele>669.0</ele><time>2026-05-01T10:26:38Z</time></trkpt><trkpt lat="47.70864038035586" lon="11.211567358387391"><ele>671.0</ele><time>2026-05-01T10:26:39Z</time></trkpt><trkpt lat="47.7088606931277" lon="11.21164010069351"><ele>673.0</ele><time>2026-05-01T10:26:40Z</time></trkpt><trkpt lat="47.70908350461734" lon="11.211688605295006"><ele>673.0</ele><time>2026-05-01T10:26:41Z</time></trkpt><trkpt lat="47.70931669641619" lon="11.21166064015618"><ele>673.0</ele><time>2026-05-01T10:26:42Z</time></trkpt><trkpt lat="47.70954632467249" lon="11.21170827855229"><ele>673.5</ele><time>2026-05-01T10:26:43Z</time></trkpt><trkpt lat="47.70977747666432" lon="11.211768383620667"><ele>674.0</ele><time>2026-05-01T10:26:44Z</time></trkpt><trkpt lat="47.71000770451713" lon="11.211839215938385"><ele>674.0</ele><time>2026-05-01T10:26:45Z</time></trkpt><trkpt lat="47.710234788651526" lon="11.211925949104527"><ele>674.0</ele><time>2026-05-01T10:26:46Z</time></trkpt><trkpt lat="47.7104521695149" lon="11.212039827417698"><ele>674.6666666666666</ele><time>2026-05-01T10:26:47Z</time></trkpt><trkpt lat="47.71066226179181" lon="11.212158875362595"><ele>675.3333333333334</ele><time>2026-05-01T10:26:48Z</time></trkpt><trkpt lat="47.71085626620373" lon="11.212286190136918"><ele>676.0</ele><time>2026-05-01T10:26:49Z</time></trkpt><trkpt lat="47.71103433023453" lon="11.212409664455327"><ele>677.3333333333334</ele><time>2026-05-01T10:26:50Z</time></trkpt><trkpt lat="47.71120491893186" lon="11.212530965166586"><ele>678.6666666666666</ele><time>2026-05-01T10:26:51Z</time></trkpt><trkpt lat="47.7113671771502" lon="11.212640445177815"><ele>680.0</ele><time>2026-05-01T10:26:52Z</time></trkpt><trkpt lat="47.711519063615256" lon="11.212744272444654"><ele>680.0</ele><time>2026-05-01T10:26:53Z</time></trkpt><trkpt lat="47.71165733098882" lon="11.21283989929129"><ele>680.0</ele><time>2026-05-01T10:26:54Z</time></trkpt><trkpt lat="47.711788849049796" lon="11.212931579301063"><ele>680.0</ele><time>2026-05-01T10:26:55Z</time></trkpt><trkpt lat="47.71191566728919" lon="11.213021058309996"><ele>680.0</ele><time>2026-05-01T10:26:56Z</time></trkpt><trkpt lat="47.712032590574026" lon="11.213108224257672"><ele>680.75</ele><time>2026-05-01T10:26:57Z</time></trkpt><trkpt lat="47.71214654360184" lon="11.213203502621976"><ele>681.5</ele><time>2026-05-01T10:26:58Z</time></trkpt><trkpt lat="47.712252384662264" lon="11.213320038102689"><ele>682.25</ele><time>2026-05-01T10:26:59Z</time></trkpt><trkpt lat="47.71234714323196" lon="11.213449501192477"><ele>683.0</ele><time>2026-05-01T10:27:00Z</time></trkpt><trkpt lat="47.712429631916486" lon="11.213590707223126"><ele>683.0</ele><time>2026-05-01T10:27:01Z</time></trkpt><trkpt lat="47.71249543335695" lon="11.213745787172611"><ele>683.0</ele><time>2026-05-01T10:27:02Z</time></trkpt><trkpt lat="47.712565059083104" lon="11.213900090501728"><ele>683.0</ele><time>2026-05-01T10:27:03Z</time></trkpt><trkpt lat="47.712632150911425" lon="11.214057951903497"><ele>683.0</ele><time>2026-05-01T10:27:04Z</time></trkpt><trkpt lat="47.71269746836411" lon="11.214215131370436"><ele>683.25</ele><time>2026-05-01T10:27:05Z</time></trkpt><trkpt lat="47.71276445092425" lon="11.214372822863028"><ele>683.5</ele><time>2026-05-01T10:27:06Z</time></trkpt><trkpt lat="47.712827541463035" lon="11.214534251993099"><ele>683.75</ele><time>2026-05-01T10:27:07Z</time></trkpt><trkpt lat="47.712886080690005" lon="11.21469677319093"><ele>684.0</ele><time>2026-05-01T10:27:08Z</time></trkpt><trkpt lat="47.712937799320734" lon="11.214863970982645"><ele>684.0</ele><time>2026-05-01T10:27:09Z</time></trkpt><trkpt lat="47.71298209117611" lon="11.21503908409919"><ele>684.0</ele><time>2026-05-01T10:27:10Z</time></trkpt><trkpt lat="47.71302092686823" lon="11.215215513861205"><ele>684.0</ele><time>2026-05-01T10:27:11Z</time></trkpt><trkpt lat="47.71306033617806" lon="11.215392216986775"><ele>684.0</ele><time>2026-05-01T10:27:12Z</time></trkpt><trkpt lat="47.713097929423796" lon="11.215568787445035"><ele>683.25</ele><time>2026-05-01T10:27:13Z</time></trkpt><trkpt lat="47.713137782065274" lon="11.215743731671392"><ele>682.5</ele><time>2026-05-01T10:27:14Z</time></trkpt><trkpt lat="47.713178103705744" lon="11.215916693131222"><ele>681.75</ele><time>2026-05-01T10:27:15Z</time></trkpt><trkpt lat="47.713219717962474" lon="11.216090917046976"><ele>681.0</ele><time>2026-05-01T10:27:16Z</time></trkpt><trkpt lat="47.71325761156234" lon="11.216263552943389"><ele>681.0</ele><time>2026-05-01T10:27:17Z</time></trkpt><trkpt lat="47.71329649559" lon="11.21643695915731"><ele>681.0</ele><time>2026-05-01T10:27:18Z</time></trkpt><trkpt lat="47.71333606255193" lon="11.216610548145056"><ele>681.0</ele><time>2026-05-01T10:27:19Z</time></trkpt><trkpt lat="47.71337622881168" lon="11.216785706050059"><ele>681.0</ele><time>2026-05-01T10:27:20Z</time></trkpt><trkpt lat="47.71341661136108" lon="11.216961901171855"><ele>680.0</ele><time>2026-05-01T10:27:21Z</time></trkpt><trkpt lat="47.71345601747424" lon="11.217138711216144"><ele>679.0</ele><time>2026-05-01T10:27:22Z</time></trkpt><trkpt lat="47.71349287332242" lon="11.217315952404448"><ele>678.0</ele><time>2026-05-01T10:27:23Z</time></trkpt><trkpt lat="47.713534042202" lon="11.217489622748214"><ele>677.0</ele><time>2026-05-01T10:27:24Z</time></trkpt><trkpt lat="47.713573877539424" lon="11.217667324439775"><ele>676.5</ele><time>2026-05-01T10:27:25Z</time></trkpt><trkpt lat="47.713615088806215" lon="11.217844845098634"><ele>676.0</ele><time>2026-05-01T10:27:26Z</time></trkpt><trkpt lat="47.713653552633886" lon="11.218023527290853"><ele>675.5</ele><time>2026-05-01T10:27:27Z</time></trkpt><trkpt lat="47.713696737078955" lon="11.218202330213932"><ele>675.0</ele><time>2026-05-01T10:27:28Z</time></trkpt><trkpt lat="47.713736106140246" lon="11.218384896544238"><ele>674.0</ele><time>2026-05-01T10:27:29Z</time></trkpt><trkpt lat="47.71377864049607" lon="11.21856645817103"><ele>673.0</ele><time>2026-05-01T10:27:30Z</time></trkpt><trkpt lat="47.71381556504383" lon="11.218738055332176"><ele>672.0</ele><time>2026-05-01T10:27:31Z</time></trkpt><trkpt lat="47.71385504458437" lon="11.218914308636313"><ele>671.0</ele><time>2026-05-01T10:27:32Z</time></trkpt><trkpt lat="47.71389618626071" lon="11.219094793544098"><ele>670.25</ele><time>2026-05-01T10:27:33Z</time></trkpt><trkpt lat="47.71393622402731" lon="11.21927466994791"><ele>669.5</ele><time>2026-05-01T10:27:34Z</time></trkpt><trkpt lat="47.71397779234341" lon="11.219457776437569"><ele>668.75</ele><time>2026-05-01T10:27:35Z</time></trkpt><trkpt lat="47.71401968614147" lon="11.219651262395706"><ele>668.0</ele><time>2026-05-01T10:27:36Z</time></trkpt><trkpt lat="47.7140664261049" lon="11.219864285950864"><ele>667.0</ele><time>2026-05-01T10:27:37Z</time></trkpt><trkpt lat="47.71411605792237" lon="11.220095010381783"><ele>666.0</ele><time>2026-05-01T10:27:38Z</time></trkpt><trkpt lat="47.71417263124497" lon="11.220340648292817"><ele>665.0</ele><time>2026-05-01T10:27:39Z</time></trkpt><trkpt lat="47.71423230604115" lon="11.220595214109137"><ele>665.0</ele><time>2026-05-01T10:27:40Z</time></trkpt><trkpt lat="47.71429703790026" lon="11.220850530257968"><ele>665.0</ele><time>2026-05-01T10:27:41Z</time></trkpt><trkpt lat="47.7143629887183" lon="11.221093392863393"><ele>665.0</ele><time>2026-05-01T10:27:42Z</time></trkpt><trkpt lat="47.71443484664159" lon="11.221338644940245"><ele>664.3333333333333</ele><time>2026-05-01T10:27:43Z</time></trkpt><trkpt lat="47.714513577162435" lon="11.22158413094393"><ele>663.6666666666666</ele><time>2026-05-01T10:27:44Z</time></trkpt><trkpt lat="47.714602238133835" lon="11.221826163283957"><ele>663.0</ele><time>2026-05-01T10:27:45Z</time></trkpt><trkpt lat="47.71469831048021" lon="11.222061651208003"><ele>663.0</ele><time>2026-05-01T10:27:46Z</time></trkpt><trkpt lat="47.71481360663245" lon="11.222281287558664"><ele>663.0</ele><time>2026-05-01T10:27:47Z</time></trkpt><trkpt lat="47.71491506988814" lon="11.222525656302516"><ele>663.0</ele><time>2026-05-01T10:27:48Z</time></trkpt><trkpt lat="47.71505399780326" lon="11.222727128255118"><ele>663.0</ele><time>2026-05-01T10:27:49Z</time></trkpt><trkpt lat="47.715205650334006" lon="11.222910792421953"><ele>663.0</ele><time>2026-05-01T10:27:50Z</time></trkpt><trkpt lat="47.715365570224435" lon="11.223073144778722"><ele>663.0</ele><time>2026-05-01T10:27:51Z</time></trkpt><trkpt lat="47.71553820499744" lon="11.223218897702557"><ele>664.0</ele><time>2026-05-01T10:27:52Z</time></trkpt><trkpt lat="47.71572072260941" lon="11.22334402296151"><ele>665.0</ele><time>2026-05-01T10:27:53Z</time></trkpt><trkpt lat="47.7159162840281" lon="11.223424330302855"><ele>666.0</ele><time>2026-05-01T10:27:54Z</time></trkpt><trkpt lat="47.716108161744565" lon="11.223527566059351"><ele>666.3333333333334</ele><time>2026-05-01T10:27:55Z</time></trkpt><trkpt lat="47.716304272821546" lon="11.223589389747215"><ele>666.6666666666667</ele><time>2026-05-01T10:27:56Z</time></trkpt><trkpt lat="47.71649691081134" lon="11.223628089185866"><ele>667.0</ele><time>2026-05-01T10:27:57Z</time></trkpt><trkpt lat="47.71668365383371" lon="11.223648286443444"><ele>667.0</ele><time>2026-05-01T10:27:58Z</time></trkpt><trkpt lat="47.716864932925056" lon="11.22365428584584"><ele>667.0</ele><time>2026-05-01T10:27:59Z</time></trkpt><trkpt lat="47.717039964690414" lon="11.223659813312583"><ele>667.0</ele><time>2026-05-01T10:28:00Z</time></trkpt><trkpt lat="47.71721257921017" lon="11.223643758907597"><ele>667.6666666666667</ele><time>2026-05-01T10:28:01Z</time></trkpt><trkpt lat="47.717381171192024" lon="11.223690534984977"><ele>668.3333333333334</ele><time>2026-05-01T10:28:02Z</time></trkpt><trkpt lat="47.717548013324624" lon="11.223730931223358"><ele>669.0</ele><time>2026-05-01T10:28:03Z</time></trkpt><trkpt lat="47.71771107739369" lon="11.223787126052569"><ele>669.0</ele><time>2026-05-01T10:28:04Z</time></trkpt><trkpt lat="47.71787268147229" lon="11.223854155609374"><ele>669.0</ele><time>2026-05-01T10:28:05Z</time></trkpt><trkpt lat="47.71802957332806" lon="11.223946054031105"><ele>669.0</ele><time>2026-05-01T10:28:06Z</time></trkpt><trkpt lat="47.71818921687936" lon="11.224039948843883"><ele>669.0</ele><time>2026-05-01T10:28:07Z</time></trkpt><trkpt lat="47.718339014255726" lon="11.224164579587423"><ele>669.0</ele><time>2026-05-01T10:28:08Z</time></trkpt><trkpt lat="47.71848119085532" lon="11.224304613002829"><ele>669.0</ele><time>2026-05-01T10:28:09Z</time></trkpt><trkpt lat="47.71861655494436" lon="11.224454148060321"><ele>669.0</ele><time>2026-05-01T10:28:10Z</time></trkpt><trkpt lat="47.71874731387413" lon="11.224613228876985"><ele>669.0</ele><time>2026-05-01T10:28:11Z</time></trkpt><trkpt lat="47.71886217176489" lon="11.224795638070429"><ele>669.0</ele><time>2026-05-01T10:28:12Z</time></trkpt><trkpt lat="47.71898585198852" lon="11.224963810520519"><ele>669.0</ele><time>2026-05-01T10:28:13Z</time></trkpt><trkpt lat="47.71911020919936" lon="11.22513399449186"><ele>669.0</ele><time>2026-05-01T10:28:14Z</time></trkpt><trkpt lat="47.71923405763291" lon="11.225304601409777"><ele>669.0</ele><time>2026-05-01T10:28:15Z</time></trkpt><trkpt lat="47.71935743614391" lon="11.225469882056949"><ele>669.6666666666666</ele><time>2026-05-01T10:28:16Z</time></trkpt><trkpt lat="47.71947770357655" lon="11.225624980275661"><ele>670.3333333333333</ele><time>2026-05-01T10:28:17Z</time></trkpt><trkpt lat="47.71959944949938" lon="11.225777265821073"><ele>671.0</ele><time>2026-05-01T10:28:18Z</time></trkpt><trkpt lat="47.7197298439264" lon="11.225925810478365"><ele>671.0</ele><time>2026-05-01T10:28:19Z</time></trkpt><trkpt lat="47.719865948950535" lon="11.226069132527561"><ele>671.0</ele><time>2026-05-01T10:28:20Z</time></trkpt><trkpt lat="47.72000708914527" lon="11.22620592754009"><ele>671.0</ele><time>2026-05-01T10:28:21Z</time></trkpt><trkpt lat="47.72015164850046" lon="11.22633615640982"><ele>670.6666666666666</ele><time>2026-05-01T10:28:22Z</time></trkpt><trkpt lat="47.72029750452389" lon="11.226459834093191"><ele>670.3333333333334</ele><time>2026-05-01T10:28:23Z</time></trkpt><trkpt lat="47.72045017186096" lon="11.226574883948686"><ele>670.0</ele><time>2026-05-01T10:28:24Z</time></trkpt><trkpt lat="47.72060226378166" lon="11.22667524026931"><ele>672.3333333333334</ele><time>2026-05-01T10:28:25Z</time></trkpt><trkpt lat="47.72075512450447" lon="11.226770025263201"><ele>674.6666666666666</ele><time>2026-05-01T10:28:26Z</time></trkpt><trkpt lat="47.720904444109635" lon="11.226861394851454"><ele>677.0</ele><time>2026-05-01T10:28:27Z</time></trkpt><trkpt lat="47.72104814076004" lon="11.226970870764262"><ele>677.6666666666666</ele><time>2026-05-01T10:28:28Z</time></trkpt><trkpt lat="47.72118079021241" lon="11.227098386870034"><ele>678.3333333333334</ele><time>2026-05-01T10:28:29Z</time></trkpt><trkpt lat="47.721309713420304" lon="11.227238070537554"><ele>679.0</ele><time>2026-05-01T10:28:30Z</time></trkpt><trkpt lat="47.721420513580256" lon="11.227399279096677"><ele>680.6666666666667</ele><time>2026-05-01T10:28:31Z</time></trkpt><trkpt lat="47.72152489357788" lon="11.227575372523967"><ele>682.3333333333334</ele><time>2026-05-01T10:28:32Z</time></trkpt><trkpt lat="47.7216258676714" lon="11.227762703833609"><ele>684.0</ele><time>2026-05-01T10:28:33Z</time></trkpt><trkpt lat="47.72172397612918" lon="11.227967581401689"><ele>684.0</ele><time>2026-05-01T10:28:34Z</time></trkpt><trkpt lat="47.72181030032226" lon="11.22817498437002"><ele>684.0</ele><time>2026-05-01T10:28:35Z</time></trkpt><trkpt lat="47.72188706773627" lon="11.228393495262871"><ele>684.0</ele><time>2026-05-01T10:28:36Z</time></trkpt><trkpt lat="47.721959130165956" lon="11.228613351910026"><ele>683.3333333333334</ele><time>2026-05-01T10:28:37Z</time></trkpt><trkpt lat="47.72202171087519" lon="11.228838139665514"><ele>682.6666666666667</ele><time>2026-05-01T10:28:38Z</time></trkpt><trkpt lat="47.722077143908535" lon="11.229067182984515"><ele>682.0</ele><time>2026-05-01T10:28:39Z</time></trkpt><trkpt lat="47.72212652919744" lon="11.229302023465278"><ele>681.0</ele><time>2026-05-01T10:28:40Z</time></trkpt><trkpt lat="47.72217213468134" lon="11.229540752284331"><ele>680.0</ele><time>2026-05-01T10:28:41Z</time></trkpt><trkpt lat="47.72221467615342" lon="11.229783351650683"><ele>679.0</ele><time>2026-05-01T10:28:42Z</time></trkpt><trkpt lat="47.72225545794537" lon="11.230031589188528"><ele>679.0</ele><time>2026-05-01T10:28:43Z</time></trkpt><trkpt lat="47.72229251480761" lon="11.230291630777868"><ele>679.0</ele><time>2026-05-01T10:28:44Z</time></trkpt><trkpt lat="47.72232487345225" lon="11.23056187091872"><ele>679.0</ele><time>2026-05-01T10:28:45Z</time></trkpt><trkpt lat="47.722355893936076" lon="11.230842629472923"><ele>679.6666666666667</ele><time>2026-05-01T10:28:46Z</time></trkpt><trkpt lat="47.72238350735525" lon="11.23113012496303"><ele>680.3333333333334</ele><time>2026-05-01T10:28:47Z</time></trkpt><trkpt lat="47.72240906491686" lon="11.231426592628905"><ele>681.0</ele><time>2026-05-01T10:28:48Z</time></trkpt><trkpt lat="47.722432479137595" lon="11.231726804068334"><ele>681.6666666666666</ele><time>2026-05-01T10:28:49Z</time></trkpt><trkpt lat="47.72245037550181" lon="11.232021736533149"><ele>682.3333333333333</ele><time>2026-05-01T10:28:50Z</time></trkpt><trkpt lat="47.722463957841626" lon="11.232307552876206"><ele>683.0</ele><time>2026-05-01T10:28:51Z</time></trkpt><trkpt lat="47.72247466044914" lon="11.232605285935783"><ele>683.0</ele><time>2026-05-01T10:28:52Z</time></trkpt><trkpt lat="47.72248489311794" lon="11.232912380281926"><ele>683.0</ele><time>2026-05-01T10:28:53Z</time></trkpt><trkpt lat="47.72249829098556" lon="11.233224026407754"><ele>683.0</ele><time>2026-05-01T10:28:54Z</time></trkpt><trkpt lat="47.72251288407651" lon="11.233536204236096"><ele>683.0</ele><time>2026-05-01T10:28:55Z</time></trkpt><trkpt lat="47.722528916975754" lon="11.233844572476668"><ele>683.0</ele><time>2026-05-01T10:28:56Z</time></trkpt><trkpt lat="47.72254753019139" lon="11.234154337329903"><ele>683.0</ele><time>2026-05-01T10:28:57Z</time></trkpt><trkpt lat="47.72257062879951" lon="11.234466482807862"><ele>683.0</ele><time>2026-05-01T10:28:58Z</time></trkpt><trkpt lat="47.72259495389317" lon="11.234777373533914"><ele>683.0</ele><time>2026-05-01T10:28:59Z</time></trkpt><trkpt lat="47.72262255243155" lon="11.23508542003458"><ele>683.0</ele><time>2026-05-01T10:29:00Z</time></trkpt><trkpt lat="47.72265728830395" lon="11.235387391562899"><ele>685.3333333333333</ele><time>2026-05-01T10:29:01Z</time></trkpt><trkpt lat="47.7226977243643" lon="11.235688927311728"><ele>687.6666666666666</ele><time>2026-05-01T10:29:02Z</time></trkpt><trkpt lat="47.722741876050684" lon="11.235987921942051"><ele>690.0</ele><time>2026-05-01T10:29:03Z</time></trkpt><trkpt lat="47.7227894031589" lon="11.236299016033804"><ele>689.0</ele><time>2026-05-01T10:29:04Z</time></trkpt><trkpt lat="47.722833726291974" lon="11.236614737659387"><ele>688.0</ele><time>2026-05-01T10:29:05Z</time></trkpt><trkpt lat="47.72287302401138" lon="11.236940445603057"><ele>687.0</ele><time>2026-05-01T10:29:06Z</time></trkpt><trkpt lat="47.72290519253193" lon="11.23727067253496"><ele>684.3333333333334</ele><time>2026-05-01T10:29:07Z</time></trkpt><trkpt lat="47.72292683681558" lon="11.237593331995097"><ele>681.6666666666667</ele><time>2026-05-01T10:29:08Z</time></trkpt><trkpt lat="47.7229417783641" lon="11.23792870274871"><ele>679.0</ele><time>2026-05-01T10:29:09Z</time></trkpt><trkpt lat="47.72295155989001" lon="11.238272098762561"><ele>678.0</ele><time>2026-05-01T10:29:10Z</time></trkpt><trkpt lat="47.72294900095816" lon="11.23861597016372"><ele>677.0</ele><time>2026-05-01T10:29:11Z</time></trkpt><trkpt lat="47.72293491467627" lon="11.238958599499036"><ele>678.5</ele><time>2026-05-01T10:29:12Z</time></trkpt><trkpt lat="47.722903579263395" lon="11.239294776188832"><ele>680.0</ele><time>2026-05-01T10:29:13Z</time></trkpt><trkpt lat="47.72285731572671" lon="11.239626486423314"><ele>680.5</ele><time>2026-05-01T10:29:14Z</time></trkpt><trkpt lat="47.72278463410382" lon="11.239948205190865"><ele>681.0</ele><time>2026-05-01T10:29:15Z</time></trkpt><trkpt lat="47.72267803365704" lon="11.24024284796427"><ele>681.0</ele><time>2026-05-01T10:29:16Z</time></trkpt><trkpt lat="47.72254277058939" lon="11.240508223577033"><ele>681.0</ele><time>2026-05-01T10:29:17Z</time></trkpt><trkpt lat="47.72239538852223" lon="11.240768956078025"><ele>684.6666666666666</ele><time>2026-05-01T10:29:18Z</time></trkpt><trkpt lat="47.72225012916671" lon="11.241035570080705"><ele>688.3333333333333</ele><time>2026-05-01T10:29:19Z</time></trkpt><trkpt lat="47.72210912797078" lon="11.241284074025687"><ele>692.0</ele><time>2026-05-01T10:29:20Z</time></trkpt><trkpt lat="47.7219935101012" lon="11.241538337457749"><ele>691.3333333333333</ele><time>2026-05-01T10:29:21Z</time></trkpt><trkpt lat="47.721905012791616" lon="11.241814891337622"><ele>690.6666666666666</ele><time>2026-05-01T10:29:22Z</time></trkpt><trkpt lat="47.72185055465858" lon="11.242112280166436"><ele>690.0</ele><time>2026-05-01T10:29:23Z</time></trkpt><trkpt lat="47.72182084785455" lon="11.24242378770652"><ele>692.0</ele><time>2026-05-01T10:29:24Z</time></trkpt><trkpt lat="47.7218476398823" lon="11.242734824037871"><ele>694.0</ele><time>2026-05-01T10:29:25Z</time></trkpt><trkpt lat="47.72190081130501" lon="11.24304103327611"><ele>696.0</ele><time>2026-05-01T10:29:26Z</time></trkpt><trkpt lat="47.72194804361115" lon="11.243360385684122"><ele>698.0</ele><time>2026-05-01T10:29:27Z</time></trkpt><trkpt lat="47.72200564230429" lon="11.243684856438056"><ele>700.0</ele><time>2026-05-01T10:29:28Z</time></trkpt><trkpt lat="47.72205786949265" lon="11.244020401268452"><ele>695.0</ele><time>2026-05-01T10:29:29Z</time></trkpt><trkpt lat="47.722105883480786" lon="11.24437110939682"><ele>690.0</ele><time>2026-05-01T10:29:30Z</time></trkpt><trkpt lat="47.72214867396989" lon="11.244727780481997"><ele>686.0</ele><time>2026-05-01T10:29:31Z</time></trkpt><trkpt lat="47.72218940020446" lon="11.24508851556392"><ele>682.0</ele><time>2026-05-01T10:29:32Z</time></trkpt><trkpt lat="47.72222877697063" lon="11.245450180747092"><ele>679.0</ele><time>2026-05-01T10:29:33Z</time></trkpt><trkpt lat="47.72226796534915" lon="11.245809096870394"><ele>676.0</ele><time>2026-05-01T10:29:34Z</time></trkpt><trkpt lat="47.7223074511749" lon="11.246168987926279"><ele>675.0</ele><time>2026-05-01T10:29:35Z</time></trkpt><trkpt lat="47.72234426247747" lon="11.246527056748"><ele>674.0</ele><time>2026-05-01T10:29:36Z</time></trkpt><trkpt lat="47.72238065389751" lon="11.24688288634446"><ele>674.0</ele><time>2026-05-01T10:29:37Z</time></trkpt><trkpt lat="47.72241648601279" lon="11.247233247014579"><ele>674.0</ele><time>2026-05-01T10:29:38Z</time></trkpt><trkpt lat="47.72245213093694" lon="11.247581777256542"><ele>674.0</ele><time>2026-05-01T10:29:39Z</time></trkpt><trkpt lat="47.722487776658596" lon="11.247930315347698"><ele>674.0</ele><time>2026-05-01T10:29:40Z</time></trkpt><trkpt lat="47.722524611379384" lon="11.24827778059847"><ele>674.0</ele><time>2026-05-01T10:29:41Z</time></trkpt><trkpt lat="47.72256411966485" lon="11.248623951187817"><ele>674.0</ele><time>2026-05-01T10:29:42Z</time></trkpt><trkpt lat="47.7226132337049" lon="11.24896624765373"><ele>674.0</ele><time>2026-05-01T10:29:43Z</time></trkpt><trkpt lat="47.722673867673606" lon="11.2493010349151"><ele>674.0</ele><time>2026-05-01T10:29:44Z</time></trkpt><trkpt lat="47.72273461773309" lon="11.249638115066523"><ele>670.5</ele><time>2026-05-01T10:29:45Z</time></trkpt><trkpt lat="47.72277854161493" lon="11.24997948510105"><ele>667.0</ele><time>2026-05-01T10:29:46Z</time></trkpt><trkpt lat="47.722817406924875" lon="11.250327008867313"><ele>666.0</ele><time>2026-05-01T10:29:47Z</time></trkpt><trkpt lat="47.72285741037687" lon="11.250670786661866"><ele>665.0</ele><time>2026-05-01T10:29:48Z</time></trkpt><trkpt lat="47.722864615140274" lon="11.25102527935606"><ele>665.0</ele><time>2026-05-01T10:29:49Z</time></trkpt><trkpt lat="47.72287275228641" lon="11.251377611766427"><ele>665.0</ele><time>2026-05-01T10:29:50Z</time></trkpt><trkpt lat="47.722883631451985" lon="11.25172904900866"><ele>662.5</ele><time>2026-05-01T10:29:51Z</time></trkpt><trkpt lat="47.722901501975734" lon="11.252076666569932"><ele>660.0</ele><time>2026-05-01T10:29:52Z</time></trkpt><trkpt lat="47.722927201926396" lon="11.252423089705822"><ele>660.0</ele><time>2026-05-01T10:29:53Z</time></trkpt><trkpt lat="47.72296033966797" lon="11.252771139611903"><ele>660.0</ele><time>2026-05-01T10:29:54Z</time></trkpt><trkpt lat="47.72299750875485" lon="11.253120165497334"><ele>660.0</ele><time>2026-05-01T10:29:55Z</time></trkpt><trkpt lat="47.72303916028082" lon="11.253470891451041"><ele>660.0</ele><time>2026-05-01T10:29:56Z</time></trkpt><trkpt lat="47.72308632716261" lon="11.253821818237228"><ele>659.5</ele><time>2026-05-01T10:29:57Z</time></trkpt><trkpt lat="47.723137243315556" lon="11.25416932184952"><ele>659.0</ele><time>2026-05-01T10:29:58Z</time></trkpt><trkpt lat="47.723188810406505" lon="11.254511192077688"><ele>658.0</ele><time>2026-05-01T10:29:59Z</time></trkpt><trkpt lat="47.72323914135667" lon="11.254853358368495"><ele>657.0</ele><time>2026-05-01T10:30:00Z</time></trkpt><trkpt lat="47.72328781739326" lon="11.255194087437754"><ele>657.0</ele><time>2026-05-01T10:30:01Z</time></trkpt><trkpt lat="47.723336854794724" lon="11.255533940442787"><ele>657.0</ele><time>2026-05-01T10:30:02Z</time></trkpt><trkpt lat="47.72338443450616" lon="11.255872326368237"><ele>657.5</ele><time>2026-05-01T10:30:03Z</time></trkpt><trkpt lat="47.72343243429102" lon="11.256212264588601"><ele>658.0</ele><time>2026-05-01T10:30:04Z</time></trkpt><trkpt lat="47.72348260989882" lon="11.256552232357123"><ele>658.0</ele><time>2026-05-01T10:30:05Z</time></trkpt><trkpt lat="47.723529940652206" lon="11.256891102658985"><ele>658.0</ele><time>2026-05-01T10:30:06Z</time></trkpt><trkpt lat="47.723572967680155" lon="11.257228103346579"><ele>656.5</ele><time>2026-05-01T10:30:07Z</time></trkpt><trkpt lat="47.72361461632219" lon="11.257567647689335"><ele>655.0</ele><time>2026-05-01T10:30:08Z</time></trkpt><trkpt lat="47.72365335907947" lon="11.257907153722101"><ele>655.0</ele><time>2026-05-01T10:30:09Z</time></trkpt><trkpt lat="47.723688109081465" lon="11.25824521838047"><ele>655.0</ele><time>2026-05-01T10:30:10Z</time></trkpt><trkpt lat="47.72371850146313" lon="11.258581835050634"><ele>655.0</ele><time>2026-05-01T10:30:11Z</time></trkpt><trkpt lat="47.72374463544886" lon="11.258914726047825"><ele>655.0</ele><time>2026-05-01T10:30:12Z</time></trkpt><trkpt lat="47.72376988874541" lon="11.259243626878538"><ele>655.0</ele><time>2026-05-01T10:30:13Z</time></trkpt><trkpt lat="47.723794693662676" lon="11.259569574478743"><ele>655.0</ele><time>2026-05-01T10:30:14Z</time></trkpt><trkpt lat="47.72381853825462" lon="11.259886804016698"><ele>655.0</ele><time>2026-05-01T10:30:15Z</time></trkpt><trkpt lat="47.72383940465427" lon="11.260178309433975"><ele>655.0</ele><time>2026-05-01T10:30:16Z</time></trkpt><trkpt lat="47.72385840225414" lon="11.260452164511177"><ele>656.0</ele><time>2026-05-01T10:30:17Z</time></trkpt><trkpt lat="47.72387850092509" lon="11.260709039482913"><ele>657.0</ele><time>2026-05-01T10:30:18Z</time></trkpt><trkpt lat="47.72389945061528" lon="11.260964324835978"><ele>658.0</ele><time>2026-05-01T10:30:19Z</time></trkpt><trkpt lat="47.72392259380709" lon="11.26121878916282"><ele>659.0</ele><time>2026-05-01T10:30:20Z</time></trkpt><trkpt lat="47.723956648016454" lon="11.26148832793789"><ele>660.0</ele><time>2026-05-01T10:30:21Z</time></trkpt><trkpt lat="47.72400874166951" lon="11.261762469912249"><ele>661.0</ele><time>2026-05-01T10:30:22Z</time></trkpt><trkpt lat="47.72408356673157" lon="11.262040170045104"><ele>661.0</ele><time>2026-05-01T10:30:23Z</time></trkpt><trkpt lat="47.724179236703996" lon="11.262313595648834"><ele>661.0</ele><time>2026-05-01T10:30:24Z</time></trkpt><trkpt lat="47.72429063938964" lon="11.262586852205942"><ele>661.0</ele><time>2026-05-01T10:30:25Z</time></trkpt><trkpt lat="47.72440890081382" lon="11.262861901853205"><ele>660.6666666666667</ele><time>2026-05-01T10:30:26Z</time></trkpt><trkpt lat="47.72452516966873" lon="11.263146843604257"><ele>660.3333333333334</ele><time>2026-05-01T10:30:27Z</time></trkpt><trkpt lat="47.72462940314023" lon="11.263442948073678"><ele>660.0</ele><time>2026-05-01T10:30:28Z</time></trkpt><trkpt lat="47.724713098338235" lon="11.263754493338505"><ele>661.0</ele><time>2026-05-01T10:30:29Z</time></trkpt><trkpt lat="47.72477176114035" lon="11.26407961894971"><ele>662.0</ele><time>2026-05-01T10:30:30Z</time></trkpt><trkpt lat="47.72482023970184" lon="11.264412579879181"><ele>662.0</ele><time>2026-05-01T10:30:31Z</time></trkpt><trkpt lat="47.72486668751081" lon="11.26474753609784"><ele>662.0</ele><time>2026-05-01T10:30:32Z</time></trkpt><trkpt lat="47.72491517550878" lon="11.265077740937176"><ele>663.0</ele><time>2026-05-01T10:30:33Z</time></trkpt><trkpt lat="47.72496109992252" lon="11.265392894294681"><ele>664.0</ele><time>2026-05-01T10:30:34Z</time></trkpt><trkpt lat="47.72500445655999" lon="11.265716710245222"><ele>665.0</ele><time>2026-05-01T10:30:35Z</time></trkpt><trkpt lat="47.725046392852626" lon="11.266047223446341"><ele>665.5</ele><time>2026-05-01T10:30:36Z</time></trkpt><trkpt lat="47.72508982824475" lon="11.266376726550105"><ele>666.0</ele><time>2026-05-01T10:30:37Z</time></trkpt><trkpt lat="47.72513598821181" lon="11.266702668098683"><ele>665.0</ele><time>2026-05-01T10:30:38Z</time></trkpt><trkpt lat="47.72517834386102" lon="11.267023119934453"><ele>664.0</ele><time>2026-05-01T10:30:39Z</time></trkpt><trkpt lat="47.725220488594275" lon="11.267340655055815"><ele>663.0</ele><time>2026-05-01T10:30:40Z</time></trkpt><trkpt lat="47.725272295760256" lon="11.267655236694251"><ele>661.3333333333334</ele><time>2026-05-01T10:30:41Z</time></trkpt><trkpt lat="47.72532663214988" lon="11.267969565036445"><ele>659.6666666666667</ele><time>2026-05-01T10:30:42Z</time></trkpt><trkpt lat="47.72539702745802" lon="11.268278548162185"><ele>658.0</ele><time>2026-05-01T10:30:43Z</time></trkpt><trkpt lat="47.72547494211829" lon="11.268580417239345"><ele>657.6666666666667</ele><time>2026-05-01T10:30:44Z</time></trkpt><trkpt lat="47.72555966846872" lon="11.268878128704394"><ele>657.3333333333334</ele><time>2026-05-01T10:30:45Z</time></trkpt><trkpt lat="47.72564554026813" lon="11.26917359578562"><ele>657.0</ele><time>2026-05-01T10:30:46Z</time></trkpt><trkpt lat="47.72573160541149" lon="11.269466928400151"><ele>656.3333333333334</ele><time>2026-05-01T10:30:47Z</time></trkpt><trkpt lat="47.72581536414928" lon="11.269756179268809"><ele>655.6666666666667</ele><time>2026-05-01T10:30:48Z</time></trkpt><trkpt lat="47.725896353461664" lon="11.270032596366816"><ele>655.0</ele><time>2026-05-01T10:30:49Z</time></trkpt><trkpt lat="47.72597461033802" lon="11.270295861149247"><ele>655.0</ele><time>2026-05-01T10:30:50Z</time></trkpt><trkpt lat="47.72604256000073" lon="11.270540140828501"><ele>655.0</ele><time>2026-05-01T10:30:51Z</time></trkpt><trkpt lat="47.726100024099736" lon="11.270751558918354"><ele>655.0</ele><time>2026-05-01T10:30:52Z</time></trkpt><trkpt lat="47.72615380665964" lon="11.2709275448521"><ele>654.8</ele><time>2026-05-01T10:30:53Z</time></trkpt><trkpt lat="47.72621655633858" lon="11.271074700363602"><ele>654.6</ele><time>2026-05-01T10:30:54Z</time></trkpt><trkpt lat="47.72627158890388" lon="11.27119647960918"><ele>654.4000000000001</ele><time>2026-05-01T10:30:55Z</time></trkpt><trkpt lat="47.726304631843384" lon="11.27131448303484"><ele>654.2</ele><time>2026-05-01T10:30:56Z</time></trkpt><trkpt lat="47.72632575566737" lon="11.271457466001149"><ele>654.0</ele><time>2026-05-01T10:30:57Z</time></trkpt><trkpt lat="47.72632639712704" lon="11.27162848224068"><ele>654.0</ele><time>2026-05-01T10:30:58Z</time></trkpt><trkpt lat="47.7263069223576" lon="11.271815247562833"><ele>654.0</ele><time>2026-05-01T10:30:59Z</time></trkpt><trkpt lat="47.726281588921985" lon="11.272024044077714"><ele>654.0</ele><time>2026-05-01T10:31:00Z</time></trkpt><trkpt lat="47.72626958745902" lon="11.272258872531406"><ele>654.0</ele><time>2026-05-01T10:31:01Z</time></trkpt><trkpt lat="47.72626997044464" lon="11.272511597441838"><ele>654.6666666666666</ele><time>2026-05-01T10:31:02Z</time></trkpt><trkpt lat="47.72627007599906" lon="11.272783892977564"><ele>655.3333333333333</ele><time>2026-05-01T10:31:03Z</time></trkpt><trkpt lat="47.72626494303361" lon="11.273049840869051"><ele>656.0</ele><time>2026-05-01T10:31:04Z</time></trkpt><trkpt lat="47.72625778385129" lon="11.273319372829077"><ele>656.0</ele><time>2026-05-01T10:31:05Z</time></trkpt><trkpt lat="47.726243218778684" lon="11.273600377039871"><ele>656.0</ele><time>2026-05-01T10:31:06Z</time></trkpt><trkpt lat="47.72621899676389" lon="11.27388985074693"><ele>656.0</ele><time>2026-05-01T10:31:07Z</time></trkpt><trkpt lat="47.726183472789835" lon="11.274183853006573"><ele>655.3333333333333</ele><time>2026-05-01T10:31:08Z</time></trkpt><trkpt lat="47.72613421212402" lon="11.274477838029032"><ele>654.6666666666666</ele><time>2026-05-01T10:31:09Z</time></trkpt><trkpt lat="47.72607564633597" lon="11.274770804805968"><ele>654.0</ele><time>2026-05-01T10:31:10Z</time></trkpt><trkpt lat="47.72601192635211" lon="11.275049281551333"><ele>653.6666666666666</ele><time>2026-05-01T10:31:11Z</time></trkpt><trkpt lat="47.725942212472674" lon="11.275333960961136"><ele>653.3333333333333</ele><time>2026-05-01T10:31:12Z</time></trkpt><trkpt lat="47.72586507111679" lon="11.27561703822129"><ele>653.0</ele><time>2026-05-01T10:31:13Z</time></trkpt><trkpt lat="47.72578659941946" lon="11.275893547889954"><ele>652.6666666666666</ele><time>2026-05-01T10:31:14Z</time></trkpt><trkpt lat="47.725711186772735" lon="11.27616990804338"><ele>652.3333333333334</ele><time>2026-05-01T10:31:15Z</time></trkpt><trkpt lat="47.725639378335345" lon="11.276455996589204"><ele>652.0</ele><time>2026-05-01T10:31:16Z</time></trkpt><trkpt lat="47.725565170251556" lon="11.276754105456869"><ele>652.0</ele><time>2026-05-01T10:31:17Z</time></trkpt><trkpt lat="47.72549174069138" lon="11.277060367568335"><ele>652.0</ele><time>2026-05-01T10:31:18Z</time></trkpt><trkpt lat="47.72542370722544" lon="11.277383713062665"><ele>652.0</ele><time>2026-05-01T10:31:19Z</time></trkpt><trkpt lat="47.72536687026114" lon="11.277709115810582"><ele>653.0</ele><time>2026-05-01T10:31:20Z</time></trkpt><trkpt lat="47.72532665988099" lon="11.278050645360366"><ele>654.0</ele><time>2026-05-01T10:31:21Z</time></trkpt><trkpt lat="47.725293747170106" lon="11.2783986385197"><ele>654.0</ele><time>2026-05-01T10:31:22Z</time></trkpt><trkpt lat="47.725271650641005" lon="11.278733043987414"><ele>654.0</ele><time>2026-05-01T10:31:23Z</time></trkpt><trkpt lat="47.725261357256" lon="11.279072897970497"><ele>653.5</ele><time>2026-05-01T10:31:24Z</time></trkpt><trkpt lat="47.72526776291814" lon="11.279422238344889"><ele>653.0</ele><time>2026-05-01T10:31:25Z</time></trkpt><trkpt lat="47.72528714053608" lon="11.279773361383759"><ele>651.5</ele><time>2026-05-01T10:31:26Z</time></trkpt><trkpt lat="47.72531672094413" lon="11.280124417228915"><ele>650.0</ele><time>2026-05-01T10:31:27Z</time></trkpt><trkpt lat="47.72535688213937" lon="11.280472108037902"><ele>649.0</ele><time>2026-05-01T10:31:28Z</time></trkpt><trkpt lat="47.72540499264324" lon="11.280815732545634"><ele>648.0</ele><time>2026-05-01T10:31:29Z</time></trkpt><trkpt lat="47.725458722279896" lon="11.281154767318833"><ele>649.0</ele><time>2026-05-01T10:31:30Z</time></trkpt><trkpt lat="47.72551810208487" lon="11.281491949333057"><ele>650.0</ele><time>2026-05-01T10:31:31Z</time></trkpt><trkpt lat="47.725583355019886" lon="11.28182877892444"><ele>650.0</ele><time>2026-05-01T10:31:32Z</time></trkpt><trkpt lat="47.72565791568315" lon="11.282162206963779"><ele>650.0</ele><time>2026-05-01T10:31:33Z</time></trkpt><trkpt lat="47.725739317383095" lon="11.282490469552556"><ele>650.5</ele><time>2026-05-01T10:31:34Z</time></trkpt><trkpt lat="47.72582540296958" lon="11.28281600441762"><ele>651.0</ele><time>2026-05-01T10:31:35Z</time></trkpt><trkpt lat="47.72591770899446" lon="11.283137229019346"><ele>651.0</ele><time>2026-05-01T10:31:36Z</time></trkpt><trkpt lat="47.72601668834596" lon="11.283456557337548"><ele>651.0</ele><time>2026-05-01T10:31:37Z</time></trkpt><trkpt lat="47.72611951285567" lon="11.283773324423418"><ele>650.0</ele><time>2026-05-01T10:31:38Z</time></trkpt><trkpt lat="47.72622666431845" lon="11.284090349673573"><ele>649.0</ele><time>2026-05-01T10:31:39Z</time></trkpt><trkpt lat="47.72633982718298" lon="11.284403568353676"><ele>649.0</ele><time>2026-05-01T10:31:40Z</time></trkpt><trkpt lat="47.72646051127398" lon="11.28471097439509"><ele>649.0</ele><time>2026-05-01T10:31:41Z</time></trkpt><trkpt lat="47.72659179165099" lon="11.285011246246341"><ele>651.5</ele><time>2026-05-01T10:31:42Z</time></trkpt><trkpt lat="47.72673294485701" lon="11.28530234644006"><ele>654.0</ele><time>2026-05-01T10:31:43Z</time></trkpt><trkpt lat="47.72688208423046" lon="11.285589177163105"><ele>653.5</ele><time>2026-05-01T10:31:44Z</time></trkpt><trkpt lat="47.7270382998199" lon="11.285871462389236"><ele>653.0</ele><time>2026-05-01T10:31:45Z</time></trkpt><trkpt lat="47.727197476843926" lon="11.286147969379755"><ele>653.0</ele><time>2026-05-01T10:31:46Z</time></trkpt><trkpt lat="47.727361626931504" lon="11.286416723949339"><ele>653.0</ele><time>2026-05-01T10:31:47Z</time></trkpt><trkpt lat="47.72752894477457" lon="11.286677284457564"><ele>654.5</ele><time>2026-05-01T10:31:48Z</time></trkpt><trkpt lat="47.72770022225945" lon="11.286932294438792"><ele>656.0</ele><time>2026-05-01T10:31:49Z</time></trkpt><trkpt lat="47.72787608670673" lon="11.28717829854066"><ele>653.5</ele><time>2026-05-01T10:31:50Z</time></trkpt><trkpt lat="47.728057916098564" lon="11.28741585326378"><ele>651.0</ele><time>2026-05-01T10:31:51Z</time></trkpt><trkpt lat="47.728243414972674" lon="11.287651186052098"><ele>651.0</ele><time>2026-05-01T10:31:52Z</time></trkpt><trkpt lat="47.72842423974031" lon="11.287883311703645"><ele>651.0</ele><time>2026-05-01T10:31:53Z</time></trkpt><trkpt lat="47.728592700619124" lon="11.288106684493703"><ele>647.0</ele><time>2026-05-01T10:31:54Z</time></trkpt><trkpt lat="47.72876041110553" lon="11.288333505171071"><ele>643.0</ele><time>2026-05-01T10:31:55Z</time></trkpt><trkpt lat="47.72892745005565" lon="11.288573501522496"><ele>643.0</ele><time>2026-05-01T10:31:56Z</time></trkpt><trkpt lat="47.729091302474686" lon="11.288829743740866"><ele>643.0</ele><time>2026-05-01T10:31:57Z</time></trkpt><trkpt lat="47.72924675810429" lon="11.289100067583862"><ele>640.0</ele><time>2026-05-01T10:31:58Z</time></trkpt><trkpt lat="47.729393909276965" lon="11.289381556008346"><ele>637.0</ele><time>2026-05-01T10:31:59Z</time></trkpt><trkpt lat="47.729531754152326" lon="11.28967234875463"><ele>637.5</ele><time>2026-05-01T10:32:00Z</time></trkpt><trkpt lat="47.72965983216193" lon="11.289969079696354"><ele>638.0</ele><time>2026-05-01T10:32:01Z</time></trkpt><trkpt lat="47.729777244963" lon="11.29026860949823"><ele>638.0</ele><time>2026-05-01T10:32:02Z</time></trkpt><trkpt lat="47.72988514454282" lon="11.290574100154393"><ele>638.0</ele><time>2026-05-01T10:32:03Z</time></trkpt><trkpt lat="47.729983535800564" lon="11.290888315329584"><ele>636.5</ele><time>2026-05-01T10:32:04Z</time></trkpt><trkpt lat="47.73007270221991" lon="11.291208082002479"><ele>635.0</ele><time>2026-05-01T10:32:05Z</time></trkpt><trkpt lat="47.73015414982033" lon="11.291534178759363"><ele>636.0</ele><time>2026-05-01T10:32:06Z</time></trkpt><trkpt lat="47.73022672468193" lon="11.291866807126139"><ele>637.0</ele><time>2026-05-01T10:32:07Z</time></trkpt><trkpt lat="47.73029164367111" lon="11.292202801731115"><ele>635.0</ele><time>2026-05-01T10:32:08Z</time></trkpt><trkpt lat="47.730351951791" lon="11.29254141812756"><ele>633.0</ele><time>2026-05-01T10:32:09Z</time></trkpt><trkpt lat="47.73040957952595" lon="11.292880627692119"><ele>631.0</ele><time>2026-05-01T10:32:10Z</time></trkpt><trkpt lat="47.73046917243668" lon="11.293218974548193"><ele>629.0</ele><time>2026-05-01T10:32:11Z</time></trkpt><trkpt lat="47.73053142964817" lon="11.29355293842851"><ele>629.0</ele><time>2026-05-01T10:32:12Z</time></trkpt><trkpt lat="47.730597614540294" lon="11.293872567492699"><ele>629.0</ele><time>2026-05-01T10:32:13Z</time></trkpt><trkpt lat="47.730679935711926" lon="11.294180003924211"><ele>629.0</ele><time>2026-05-01T10:32:14Z</time></trkpt><trkpt lat="47.73077931242008" lon="11.294482722215633"><ele>630.0</ele><time>2026-05-01T10:32:15Z</time></trkpt><trkpt lat="47.730892798027" lon="11.294779264497212"><ele>631.0</ele><time>2026-05-01T10:32:16Z</time></trkpt><trkpt lat="47.73101869719484" lon="11.29507284262631"><ele>629.0</ele><time>2026-05-01T10:32:17Z</time></trkpt><trkpt lat="47.731152058036216" lon="11.295366315730433"><ele>627.0</ele><time>2026-05-01T10:32:18Z</time></trkpt><trkpt lat="47.73128603861523" lon="11.295658931179831"><ele>627.0</ele><time>2026-05-01T10:32:19Z</time></trkpt><trkpt lat="47.73141524074375" lon="11.2959407338201"><ele>627.0</ele><time>2026-05-01T10:32:20Z</time></trkpt><trkpt lat="47.73153576619711" lon="11.296215768609057"><ele>627.6666666666666</ele><time>2026-05-01T10:32:21Z</time></trkpt><trkpt lat="47.73164675366173" lon="11.296483735587405"><ele>628.3333333333333</ele><time>2026-05-01T10:32:22Z</time></trkpt><trkpt lat="47.73174857421245" lon="11.296748166925513"><ele>629.0</ele><time>2026-05-01T10:32:23Z</time></trkpt><trkpt lat="47.731844725776284" lon="11.297023445522608"><ele>625.3333333333333</ele><time>2026-05-01T10:32:24Z</time></trkpt><trkpt lat="47.73193567366171" lon="11.29730677878602"><ele>621.6666666666666</ele><time>2026-05-01T10:32:25Z</time></trkpt><trkpt lat="47.73201855749269" lon="11.29759510653364"><ele>618.0</ele><time>2026-05-01T10:32:26Z</time></trkpt><trkpt lat="47.73208982065746" lon="11.297891387000776"><ele>616.6666666666666</ele><time>2026-05-01T10:32:27Z</time></trkpt><trkpt lat="47.73214612649149" lon="11.298189845622069"><ele>615.3333333333333</ele><time>2026-05-01T10:32:28Z</time></trkpt><trkpt lat="47.73216084333763" lon="11.298496289287936"><ele>614.0</ele><time>2026-05-01T10:32:29Z</time></trkpt><trkpt lat="47.732184889717736" lon="11.298806874738254"><ele>613.6666666666666</ele><time>2026-05-01T10:32:30Z</time></trkpt><trkpt lat="47.732217658592354" lon="11.299118875554976"><ele>613.3333333333334</ele><time>2026-05-01T10:32:31Z</time></trkpt><trkpt lat="47.73222188212377" lon="11.299436309616707"><ele>613.0</ele><time>2026-05-01T10:32:32Z</time></trkpt><trkpt lat="47.73221703446781" lon="11.299754744020305"><ele>613.0</ele><time>2026-05-01T10:32:33Z</time></trkpt><trkpt lat="47.73218727004086" lon="11.300060739075203"><ele>613.0</ele><time>2026-05-01T10:32:34Z</time></trkpt><trkpt lat="47.73215729105821" lon="11.300350202880304"><ele>613.0</ele><time>2026-05-01T10:32:35Z</time></trkpt><trkpt lat="47.732142592003335" lon="11.300621685267684"><ele>611.6666666666667</ele><time>2026-05-01T10:32:36Z</time></trkpt><trkpt lat="47.732103822986325" lon="11.300858164859365"><ele>610.3333333333334</ele><time>2026-05-01T10:32:37Z</time></trkpt><trkpt lat="47.73206314752459" lon="11.301090709029207"><ele>609.0</ele><time>2026-05-01T10:32:38Z</time></trkpt><trkpt lat="47.732020250850915" lon="11.301324671578918"><ele>609.0</ele><time>2026-05-01T10:32:39Z</time></trkpt><trkpt lat="47.73197569242862" lon="11.301562122341217"><ele>609.0</ele><time>2026-05-01T10:32:40Z</time></trkpt><trkpt lat="47.73192703914756" lon="11.301803646507608"><ele>609.0</ele><time>2026-05-01T10:32:41Z</time></trkpt><trkpt lat="47.731876398557574" lon="11.302047752095364"><ele>608.6666666666666</ele><time>2026-05-01T10:32:42Z</time></trkpt><trkpt lat="47.73182432468602" lon="11.302292807718207"><ele>608.3333333333333</ele><time>2026-05-01T10:32:43Z</time></trkpt><trkpt lat="47.73177066597963" lon="11.302536283436314"><ele>608.0</ele><time>2026-05-01T10:32:44Z</time></trkpt><trkpt lat="47.7317181141963" lon="11.302776330946216"><ele>608.0</ele><time>2026-05-01T10:32:45Z</time></trkpt><trkpt lat="47.73166545792127" lon="11.303015629375404"><ele>608.0</ele><time>2026-05-01T10:32:46Z</time></trkpt><trkpt lat="47.731612216283274" lon="11.303259025201902"><ele>608.0</ele><time>2026-05-01T10:32:47Z</time></trkpt><trkpt lat="47.731541918760996" lon="11.303495265493966"><ele>607.6666666666666</ele><time>2026-05-01T10:32:48Z</time></trkpt><trkpt lat="47.73150724535622" lon="11.30375232062809"><ele>607.3333333333334</ele><time>2026-05-01T10:32:49Z</time></trkpt><trkpt lat="47.7314573374437" lon="11.304001846146235"><ele>607.0</ele><time>2026-05-01T10:32:50Z</time></trkpt><trkpt lat="47.731408565004095" lon="11.30425750640343"><ele>607.0</ele><time>2026-05-01T10:32:51Z</time></trkpt><trkpt lat="47.731440623191766" lon="11.304551927489506"><ele>607.0</ele><time>2026-05-01T10:32:52Z</time></trkpt><trkpt lat="47.731434428561315" lon="11.304774800396858"><ele>607.0</ele><time>2026-05-01T10:32:52.999Z</time></trkpt><trkpt lat="47.731466877263586" lon="11.305000067061533"><ele>607.0</ele><time>2026-05-01T10:32:53.999Z</time></trkpt><trkpt lat="47.73153659383727" lon="11.305100592632511"><ele>607.0</ele><time>2026-05-01T10:32:54.999Z</time></trkpt><trkpt lat="47.731588643134735" lon="11.305239472039384"><ele>607.0</ele><time>2026-05-01T10:32:55.999Z</time></trkpt><trkpt lat="47.73164504852568" lon="11.305442450676018"><ele>607.0</ele><time>2026-05-01T10:32:56.999Z</time></trkpt><trkpt lat="47.731124290080984" lon="11.306166645375683"><ele>607.3333333333334</ele><time>2026-05-01T10:32:57.999Z</time></trkpt><trkpt lat="47.731097226045826" lon="11.306464792845402"><ele>607.6666666666666</ele><time>2026-05-01T10:32:58.999Z</time></trkpt><trkpt lat="47.731071312952835" lon="11.306750495613462"><ele>608.0</ele><time>2026-05-01T10:32:59.999Z</time></trkpt><trkpt lat="47.73104437438054" lon="11.307043723516555"><ele>606.6666666666666</ele><time>2026-05-01T10:33:00.999Z</time></trkpt><trkpt lat="47.73102139672173" lon="11.307342843094688"><ele>605.3333333333334</ele><time>2026-05-01T10:33:01.999Z</time></trkpt><trkpt lat="47.73100156098346" lon="11.307644137388158"><ele>604.0</ele><time>2026-05-01T10:33:02.999Z</time></trkpt><trkpt lat="47.73098409675257" lon="11.307944432429151"><ele>605.0</ele><time>2026-05-01T10:33:03.999Z</time></trkpt><trkpt lat="47.730973576092495" lon="11.308247063266611"><ele>606.0</ele><time>2026-05-01T10:33:04.999Z</time></trkpt><trkpt lat="47.73096492000756" lon="11.308549527020249"><ele>607.0</ele><time>2026-05-01T10:33:05.999Z</time></trkpt><trkpt lat="47.73095628883933" lon="11.308850922664126"><ele>606.3333333333334</ele><time>2026-05-01T10:33:06.999Z</time></trkpt><trkpt lat="47.730949871295344" lon="11.309153373441815"><ele>605.6666666666666</ele><time>2026-05-01T10:33:07.999Z</time></trkpt><trkpt lat="47.73094434538398" lon="11.309460876610533"><ele>605.0</ele><time>2026-05-01T10:33:09Z</time></trkpt><trkpt lat="47.73093861687172" lon="11.309757905880057"><ele>605.0</ele><time>2026-05-01T10:33:10Z</time></trkpt><trkpt lat="47.73093189878035" lon="11.310060073312597"><ele>605.0</ele><time>2026-05-01T10:33:11Z</time></trkpt><trkpt lat="47.73092544379081" lon="11.310368428041073"><ele>605.0</ele><time>2026-05-01T10:33:12Z</time></trkpt><trkpt lat="47.730919538648045" lon="11.310681943962782"><ele>605.6666666666666</ele><time>2026-05-01T10:33:13Z</time></trkpt><trkpt lat="47.73091314518869" lon="11.310995260753197"><ele>606.3333333333334</ele><time>2026-05-01T10:33:14Z</time></trkpt><trkpt lat="47.73090735092101" lon="11.311308613088274"><ele>607.0</ele><time>2026-05-01T10:33:15Z</time></trkpt><trkpt lat="47.73090184129552" lon="11.311620457787845"><ele>607.0</ele><time>2026-05-01T10:33:16Z</time></trkpt><trkpt lat="47.73089835927156" lon="11.311932411924115"><ele>607.0</ele><time>2026-05-01T10:33:17Z</time></trkpt><trkpt lat="47.73089225065466" lon="11.312246958481706"><ele>607.0</ele><time>2026-05-01T10:33:18Z</time></trkpt><trkpt lat="47.73088137618691" lon="11.312565771909517"><ele>607.3333333333334</ele><time>2026-05-01T10:33:19Z</time></trkpt><trkpt lat="47.73086985989576" lon="11.312886485552143"><ele>607.6666666666666</ele><time>2026-05-01T10:33:20Z</time></trkpt><trkpt lat="47.73085776319549" lon="11.313208535336877"><ele>608.0</ele><time>2026-05-01T10:33:21Z</time></trkpt><trkpt lat="47.7308401864285" lon="11.313529694012578"><ele>608.3333333333333</ele><time>2026-05-01T10:33:22Z</time></trkpt><trkpt lat="47.73081868379774" lon="11.3138496142467"><ele>608.6666666666666</ele><time>2026-05-01T10:33:23Z</time></trkpt><trkpt lat="47.73079242164193" lon="11.314167980546298"><ele>609.0</ele><time>2026-05-01T10:33:24Z</time></trkpt><trkpt lat="47.73075960905586" lon="11.314481096639712"><ele>609.6666666666666</ele><time>2026-05-01T10:33:25Z</time></trkpt><trkpt lat="47.73072127447455" lon="11.314788308118553"><ele>610.3333333333333</ele><time>2026-05-01T10:33:26Z</time></trkpt><trkpt lat="47.730679897390424" lon="11.315091721025444"><ele>611.0</ele><time>2026-05-01T10:33:27Z</time></trkpt><trkpt lat="47.7306383357196" lon="11.31539283120955"><ele>611.3333333333333</ele><time>2026-05-01T10:33:28Z</time></trkpt><trkpt lat="47.73059265253568" lon="11.31568701334566"><ele>611.6666666666666</ele><time>2026-05-01T10:33:29Z</time></trkpt><trkpt lat="47.73054383355131" lon="11.315960784480408"><ele>612.0</ele><time>2026-05-01T10:33:30Z</time></trkpt><trkpt lat="47.73049334765203" lon="11.316215890148923"><ele>612.6666666666666</ele><time>2026-05-01T10:33:31Z</time></trkpt><trkpt lat="47.73044304870562" lon="11.316461211477952"><ele>613.3333333333333</ele><time>2026-05-01T10:33:32Z</time></trkpt><trkpt lat="47.7303887337223" lon="11.3167018678806"><ele>614.0</ele><time>2026-05-01T10:33:33Z</time></trkpt><trkpt lat="47.73033281230525" lon="11.316941159959844"><ele>614.0</ele><time>2026-05-01T10:33:34Z</time></trkpt><trkpt lat="47.73027904425184" lon="11.317165352306294"><ele>614.0</ele><time>2026-05-01T10:33:35Z</time></trkpt><trkpt lat="47.7302259207462" lon="11.317376807043521"><ele>614.0</ele><time>2026-05-01T10:33:36Z</time></trkpt><trkpt lat="47.73017241086403" lon="11.317584196598313"><ele>613.75</ele><time>2026-05-01T10:33:37Z</time></trkpt><trkpt lat="47.73011699828092" lon="11.317793076203209"><ele>613.5</ele><time>2026-05-01T10:33:38Z</time></trkpt><trkpt lat="47.73006214340772" lon="11.317999847253354"><ele>613.25</ele><time>2026-05-01T10:33:39Z</time></trkpt><trkpt lat="47.730006800282794" lon="11.318203682290093"><ele>613.0</ele><time>2026-05-01T10:33:40Z</time></trkpt><trkpt lat="47.72995800838596" lon="11.318386062161322"><ele>613.0</ele><time>2026-05-01T10:33:41Z</time></trkpt><trkpt lat="47.729913690415316" lon="11.318544317247339"><ele>613.0</ele><time>2026-05-01T10:33:42Z</time></trkpt><trkpt lat="47.729877095657855" lon="11.31867859755627"><ele>613.0</ele><time>2026-05-01T10:33:43Z</time></trkpt><trkpt lat="47.72984377365236" lon="11.318797579455554"><ele>613.0</ele><time>2026-05-01T10:33:44Z</time></trkpt><trkpt lat="47.729814391314875" lon="11.318909771021112"><ele>613.0</ele><time>2026-05-01T10:33:45Z</time></trkpt><trkpt lat="47.72978298720498" lon="11.319040037925527"><ele>613.0</ele><time>2026-05-01T10:33:46Z</time></trkpt><trkpt lat="47.729749619683105" lon="11.319179759062486"><ele>613.0</ele><time>2026-05-01T10:33:47Z</time></trkpt><trkpt lat="47.72971197001693" lon="11.319328693950997"><ele>613.0</ele><time>2026-05-01T10:33:48Z</time></trkpt><trkpt lat="47.72967316352925" lon="11.319482469568598"><ele>613.0</ele><time>2026-05-01T10:33:49Z</time></trkpt><trkpt lat="47.729633748990345" lon="11.319640631729698"><ele>613.0</ele><time>2026-05-01T10:33:50Z</time></trkpt><trkpt lat="47.72959175687878" lon="11.319802860118727"><ele>612.8</ele><time>2026-05-01T10:33:51Z</time></trkpt><trkpt lat="47.72955021510677" lon="11.319967174541123"><ele>612.5999999999999</ele><time>2026-05-01T10:33:52Z</time></trkpt><trkpt lat="47.72950732455651" lon="11.320129039382447"><ele>612.4000000000001</ele><time>2026-05-01T10:33:53Z</time></trkpt><trkpt lat="47.72946833219216" lon="11.320282239793675"><ele>612.2</ele><time>2026-05-01T10:33:54Z</time></trkpt><trkpt lat="47.72943165512863" lon="11.320417897230504"><ele>612.0</ele><time>2026-05-01T10:33:55Z</time></trkpt><trkpt lat="47.729394445364704" lon="11.320555249079607"><ele>612.5</ele><time>2026-05-01T10:33:56Z</time></trkpt><trkpt lat="47.72935610116498" lon="11.320702178118847"><ele>613.0</ele><time>2026-05-01T10:33:57Z</time></trkpt><trkpt lat="47.72929154361902" lon="11.32084730734904"><ele>613.5</ele><time>2026-05-01T10:33:58Z</time></trkpt><trkpt lat="47.72926948922589" lon="11.321036220649807"><ele>614.0</ele><time>2026-05-01T10:33:59Z</time></trkpt><trkpt lat="47.729218102822124" lon="11.321236277411211"><ele>613.75</ele><time>2026-05-01T10:34:00Z</time></trkpt><trkpt lat="47.72916456041983" lon="11.321428968752427"><ele>613.5</ele><time>2026-05-01T10:34:01Z</time></trkpt><trkpt lat="47.729108044733636" lon="11.321631659002575"><ele>613.25</ele><time>2026-05-01T10:34:02Z</time></trkpt><trkpt lat="47.72905108761135" lon="11.321845376135325"><ele>613.0</ele><time>2026-05-01T10:34:03Z</time></trkpt><trkpt lat="47.72899285994879" lon="11.322065025864106"><ele>612.3333333333334</ele><time>2026-05-01T10:34:04Z</time></trkpt><trkpt lat="47.728933195899145" lon="11.322287480669992"><ele>611.6666666666666</ele><time>2026-05-01T10:34:05Z</time></trkpt><trkpt lat="47.728872409206346" lon="11.322512272733174"><ele>611.0</ele><time>2026-05-01T10:34:06Z</time></trkpt><trkpt lat="47.72881210793021" lon="11.322739304779367"><ele>611.0</ele><time>2026-05-01T10:34:07Z</time></trkpt><trkpt lat="47.72875158297808" lon="11.322967009142253"><ele>611.0</ele><time>2026-05-01T10:34:08Z</time></trkpt><trkpt lat="47.72869120779018" lon="11.323197788446697"><ele>611.0</ele><time>2026-05-01T10:34:09Z</time></trkpt><trkpt lat="47.72863030925593" lon="11.323431634523597"><ele>611.0</ele><time>2026-05-01T10:34:10Z</time></trkpt><trkpt lat="47.72856945185895" lon="11.323668602076706"><ele>611.0</ele><time>2026-05-01T10:34:11Z</time></trkpt><trkpt lat="47.728508503848296" lon="11.32390802592895"><ele>611.0</ele><time>2026-05-01T10:34:12Z</time></trkpt><trkpt lat="47.72844707890984" lon="11.324144366919633"><ele>611.0</ele><time>2026-05-01T10:34:13Z</time></trkpt><trkpt lat="47.72838281429319" lon="11.324390533147188"><ele>611.0</ele><time>2026-05-01T10:34:14Z</time></trkpt><trkpt lat="47.72832090523249" lon="11.324641074859404"><ele>611.0</ele><time>2026-05-01T10:34:15Z</time></trkpt><trkpt lat="47.72826217735348" lon="11.324882223684202"><ele>611.3333333333333</ele><time>2026-05-01T10:34:16Z</time></trkpt><trkpt lat="47.728208043723846" lon="11.325109885501842"><ele>611.6666666666666</ele><time>2026-05-01T10:34:17Z</time></trkpt><trkpt lat="47.72815848340565" lon="11.325324961199252"><ele>612.0</ele><time>2026-05-01T10:34:18Z</time></trkpt><trkpt lat="47.72811003662894" lon="11.325525952242819"><ele>612.25</ele><time>2026-05-01T10:34:19Z</time></trkpt><trkpt lat="47.728059083032406" lon="11.325716100332242"><ele>612.5</ele><time>2026-05-01T10:34:20Z</time></trkpt><trkpt lat="47.728006261947435" lon="11.325895521495948"><ele>612.75</ele><time>2026-05-01T10:34:21Z</time></trkpt><trkpt lat="47.72795259976363" lon="11.32608369773295"><ele>613.0</ele><time>2026-05-01T10:34:22Z</time></trkpt><trkpt lat="47.72789446118883" lon="11.326285837472419"><ele>612.3333333333334</ele><time>2026-05-01T10:34:23Z</time></trkpt><trkpt lat="47.72783846372104" lon="11.326506998424543"><ele>611.6666666666666</ele><time>2026-05-01T10:34:24Z</time></trkpt><trkpt lat="47.72778736342304" lon="11.326743925176608"><ele>611.0</ele><time>2026-05-01T10:34:25Z</time></trkpt><trkpt lat="47.7277383301236" lon="11.326990391931261"><ele>610.3333333333333</ele><time>2026-05-01T10:34:26Z</time></trkpt><trkpt lat="47.72769310054834" lon="11.327252375579059"><ele>609.6666666666666</ele><time>2026-05-01T10:34:27Z</time></trkpt><trkpt lat="47.727652495660465" lon="11.32751829115868"><ele>609.0</ele><time>2026-05-01T10:34:28Z</time></trkpt><trkpt lat="47.727617477440745" lon="11.327788464243413"><ele>609.3333333333334</ele><time>2026-05-01T10:34:29Z</time></trkpt><trkpt lat="47.72759378586705" lon="11.32806470317772"><ele>609.6666666666667</ele><time>2026-05-01T10:34:30Z</time></trkpt><trkpt lat="47.72757169607524" lon="11.328333771991892"><ele>610.0</ele><time>2026-05-01T10:34:31Z</time></trkpt><trkpt lat="47.72755137557989" lon="11.328614343443064"><ele>610.0</ele><time>2026-05-01T10:34:32Z</time></trkpt><trkpt lat="47.72753704695758" lon="11.328901386504644"><ele>610.0</ele><time>2026-05-01T10:34:33Z</time></trkpt><trkpt lat="47.72752734963664" lon="11.329192843101742"><ele>610.0</ele><time>2026-05-01T10:34:34Z</time></trkpt><trkpt lat="47.727524496813814" lon="11.329485490198836"><ele>609.3333333333334</ele><time>2026-05-01T10:34:35Z</time></trkpt><trkpt lat="47.727524990403026" lon="11.329775612644026"><ele>608.6666666666666</ele><time>2026-05-01T10:34:36Z</time></trkpt><trkpt lat="47.72753397543742" lon="11.330058898547755"><ele>608.0</ele><time>2026-05-01T10:34:37Z</time></trkpt><trkpt lat="47.72754038710933" lon="11.330340977496483"><ele>608.3333333333333</ele><time>2026-05-01T10:34:38Z</time></trkpt><trkpt lat="47.72755105813378" lon="11.330619806462586"><ele>608.6666666666666</ele><time>2026-05-01T10:34:39Z</time></trkpt><trkpt lat="47.727528644436525" lon="11.330902049469925"><ele>609.0</ele><time>2026-05-01T10:34:40Z</time></trkpt><trkpt lat="47.727543983427296" lon="11.331181860432135"><ele>609.6666666666666</ele><time>2026-05-01T10:34:41Z</time></trkpt><trkpt lat="47.72755850177827" lon="11.33144670150132"><ele>610.3333333333333</ele><time>2026-05-01T10:34:42Z</time></trkpt><trkpt lat="47.72757337677996" lon="11.331718049289611"><ele>611.0</ele><time>2026-05-01T10:34:43Z</time></trkpt><trkpt lat="47.72758938673311" lon="11.331988332903396"><ele>610.6666666666666</ele><time>2026-05-01T10:34:44Z</time></trkpt><trkpt lat="47.72760552357151" lon="11.33225065948119"><ele>610.3333333333334</ele><time>2026-05-01T10:34:45Z</time></trkpt><trkpt lat="47.72761937299584" lon="11.332514740437524"><ele>610.0</ele><time>2026-05-01T10:34:46Z</time></trkpt><trkpt lat="47.72763245030056" lon="11.332781762162293"><ele>610.0</ele><time>2026-05-01T10:34:47Z</time></trkpt><trkpt lat="47.72764520825816" lon="11.333052145424338"><ele>610.0</ele><time>2026-05-01T10:34:48Z</time></trkpt><trkpt lat="47.727656550189025" lon="11.333324811426506"><ele>610.0</ele><time>2026-05-01T10:34:49Z</time></trkpt><trkpt lat="47.72766482482132" lon="11.333606795618062"><ele>610.3333333333334</ele><time>2026-05-01T10:34:50Z</time></trkpt><trkpt lat="47.72766944978095" lon="11.333896472083836"><ele>610.6666666666666</ele><time>2026-05-01T10:34:51Z</time></trkpt><trkpt lat="47.727671075555506" lon="11.334190973971353"><ele>611.0</ele><time>2026-05-01T10:34:52Z</time></trkpt><trkpt lat="47.72766827485168" lon="11.33448398191735"><ele>610.6666666666666</ele><time>2026-05-01T10:34:53Z</time></trkpt><trkpt lat="47.72765740058284" lon="11.33476696042371"><ele>610.3333333333334</ele><time>2026-05-01T10:34:54Z</time></trkpt><trkpt lat="47.72764486464362" lon="11.335031797311306"><ele>610.0</ele><time>2026-05-01T10:34:55Z</time></trkpt><trkpt lat="47.72762941016995" lon="11.335290368998146"><ele>610.0</ele><time>2026-05-01T10:34:56Z</time></trkpt><trkpt lat="47.727607946389796" lon="11.335550869064956"><ele>610.0</ele><time>2026-05-01T10:34:57Z</time></trkpt><trkpt lat="47.7275829084743" lon="11.335815263823417"><ele>610.0</ele><time>2026-05-01T10:34:58Z</time></trkpt><trkpt lat="47.72755618056887" lon="11.336077214748448"><ele>609.6666666666667</ele><time>2026-05-01T10:34:59Z</time></trkpt><trkpt lat="47.727525142241106" lon="11.336338149764144"><ele>609.3333333333334</ele><time>2026-05-01T10:35:00Z</time></trkpt><trkpt lat="47.72749296747761" lon="11.336596351372526"><ele>609.0</ele><time>2026-05-01T10:35:01Z</time></trkpt><trkpt lat="47.72746032374113" lon="11.336857789213859"><ele>608.6666666666666</ele><time>2026-05-01T10:35:02Z</time></trkpt><trkpt lat="47.72742738218861" lon="11.33712161223387"><ele>608.3333333333333</ele><time>2026-05-01T10:35:03Z</time></trkpt><trkpt lat="47.727393136135284" lon="11.337387574466293"><ele>608.0</ele><time>2026-05-01T10:35:04Z</time></trkpt><trkpt lat="47.72735820729404" lon="11.337659904844115"><ele>608.0</ele><time>2026-05-01T10:35:05Z</time></trkpt><trkpt lat="47.72732348402564" lon="11.337933806560539"><ele>608.0</ele><time>2026-05-01T10:35:06Z</time></trkpt><trkpt lat="47.72728773562556" lon="11.33821076441987"><ele>608.0</ele><time>2026-05-01T10:35:07Z</time></trkpt><trkpt lat="47.72725350923798" lon="11.338490104199176"><ele>608.0</ele><time>2026-05-01T10:35:08Z</time></trkpt><trkpt lat="47.7272244740559" lon="11.338770665784235"><ele>608.0</ele><time>2026-05-01T10:35:09Z</time></trkpt><trkpt lat="47.727199026093935" lon="11.339053760403159"><ele>608.0</ele><time>2026-05-01T10:35:10Z</time></trkpt><trkpt lat="47.72718000130043" lon="11.33933499588878"><ele>608.3333333333333</ele><time>2026-05-01T10:35:11Z</time></trkpt><trkpt lat="47.727165069661034" lon="11.339613069994604"><ele>608.6666666666666</ele><time>2026-05-01T10:35:12Z</time></trkpt><trkpt lat="47.72715249383401" lon="11.33989129459986"><ele>609.0</ele><time>2026-05-01T10:35:13Z</time></trkpt><trkpt lat="47.72714309928595" lon="11.340169223899467"><ele>609.0</ele><time>2026-05-01T10:35:14Z</time></trkpt><trkpt lat="47.72713767100256" lon="11.340450916994277"><ele>609.0</ele><time>2026-05-01T10:35:15Z</time></trkpt><trkpt lat="47.72713626266341" lon="11.340732214841822"><ele>609.0</ele><time>2026-05-01T10:35:16Z</time></trkpt><trkpt lat="47.7271398741692" lon="11.341011343964079"><ele>609.3333333333334</ele><time>2026-05-01T10:35:17Z</time></trkpt><trkpt lat="47.72714974971774" lon="11.34129087610829"><ele>609.6666666666667</ele><time>2026-05-01T10:35:18Z</time></trkpt><trkpt lat="47.72716328673395" lon="11.341568676723394"><ele>610.0</ele><time>2026-05-01T10:35:19Z</time></trkpt><trkpt lat="47.72718091324419" lon="11.341846597167963"><ele>610.0</ele><time>2026-05-01T10:35:20Z</time></trkpt><trkpt lat="47.727203159146626" lon="11.342131245676658"><ele>610.0</ele><time>2026-05-01T10:35:21Z</time></trkpt><trkpt lat="47.72723062483426" lon="11.342421573171212"><ele>610.0</ele><time>2026-05-01T10:35:22Z</time></trkpt><trkpt lat="47.72726412803484" lon="11.342714014019693"><ele>609.6666666666667</ele><time>2026-05-01T10:35:23Z</time></trkpt><trkpt lat="47.72730300531815" lon="11.34300408903291"><ele>609.3333333333334</ele><time>2026-05-01T10:35:24Z</time></trkpt><trkpt lat="47.727345756471166" lon="11.343287466230588"><ele>609.0</ele><time>2026-05-01T10:35:25Z</time></trkpt><trkpt lat="47.72739293680577" lon="11.343565467732544"><ele>608.6666666666666</ele><time>2026-05-01T10:35:26Z</time></trkpt><trkpt lat="47.72744185419001" lon="11.343836249384097"><ele>608.3333333333333</ele><time>2026-05-01T10:35:27Z</time></trkpt><trkpt lat="47.72749368373851" lon="11.344102479812571"><ele>608.0</ele><time>2026-05-01T10:35:28Z</time></trkpt><trkpt lat="47.72754638446382" lon="11.344367343851978"><ele>608.0</ele><time>2026-05-01T10:35:29Z</time></trkpt><trkpt lat="47.727598724988624" lon="11.34463202554928"><ele>608.0</ele><time>2026-05-01T10:35:30Z</time></trkpt><trkpt lat="47.72765039454105" lon="11.344895978403182"><ele>608.0</ele><time>2026-05-01T10:35:31Z</time></trkpt><trkpt lat="47.72770195136739" lon="11.345159355424851"><ele>607.3333333333333</ele><time>2026-05-01T10:35:32Z</time></trkpt><trkpt lat="47.72775348565124" lon="11.345422617276748"><ele>606.6666666666666</ele><time>2026-05-01T10:35:33Z</time></trkpt><trkpt lat="47.727804732621536" lon="11.345684417294914"><ele>606.0</ele><time>2026-05-01T10:35:34Z</time></trkpt><trkpt lat="47.727855510406854" lon="11.345949342122061"><ele>606.0</ele><time>2026-05-01T10:35:35Z</time></trkpt><trkpt lat="47.727906943637635" lon="11.346220310451084"><ele>606.0</ele><time>2026-05-01T10:35:36Z</time></trkpt><trkpt lat="47.72795642539304" lon="11.346496081688041"><ele>606.0</ele><time>2026-05-01T10:35:37Z</time></trkpt><trkpt lat="47.72800193633277" lon="11.346776831698886"><ele>606.0</ele><time>2026-05-01T10:35:38Z</time></trkpt><trkpt lat="47.728042109566346" lon="11.347061479536194"><ele>606.0</ele><time>2026-05-01T10:35:39Z</time></trkpt><trkpt lat="47.728072536151146" lon="11.347346182829854"><ele>606.0</ele><time>2026-05-01T10:35:40Z</time></trkpt><trkpt lat="47.72809281440692" lon="11.347623603592666"><ele>606.0</ele><time>2026-05-01T10:35:41Z</time></trkpt><trkpt lat="47.728107788604845" lon="11.347889906245351"><ele>606.0</ele><time>2026-05-01T10:35:42Z</time></trkpt><trkpt lat="47.72812104035928" lon="11.348159120427706"><ele>606.0</ele><time>2026-05-01T10:35:43Z</time></trkpt><trkpt lat="47.7281296565453" lon="11.3484282073943"><ele>606.0</ele><time>2026-05-01T10:35:44Z</time></trkpt><trkpt lat="47.728132751501995" lon="11.348700309336957"><ele>606.0</ele><time>2026-05-01T10:35:45Z</time></trkpt><trkpt lat="47.72813260433023" lon="11.34897496692039"><ele>606.0</ele><time>2026-05-01T10:35:46Z</time></trkpt><trkpt lat="47.72812904492025" lon="11.349248063022076"><ele>605.6666666666666</ele><time>2026-05-01T10:35:47Z</time></trkpt><trkpt lat="47.72812140465054" lon="11.349510126273499"><ele>605.3333333333333</ele><time>2026-05-01T10:35:48Z</time></trkpt><trkpt lat="47.72811240153875" lon="11.34977078161217"><ele>605.0</ele><time>2026-05-01T10:35:49Z</time></trkpt><trkpt lat="47.728136272266916" lon="11.350033359656692"><ele>604.6666666666666</ele><time>2026-05-01T10:35:50Z</time></trkpt><trkpt lat="47.72812261942025" lon="11.350291915593349"><ele>604.3333333333334</ele><time>2026-05-01T10:35:51Z</time></trkpt><trkpt lat="47.728105950869214" lon="11.350549343083788"><ele>604.0</ele><time>2026-05-01T10:35:52Z</time></trkpt><trkpt lat="47.72808798980702" lon="11.350808672158186"><ele>604.0</ele><time>2026-05-01T10:35:53Z</time></trkpt><trkpt lat="47.72803495895507" lon="11.351067492585054"><ele>604.0</ele><time>2026-05-01T10:35:54Z</time></trkpt><trkpt lat="47.728016310891675" lon="11.351337809117192"><ele>604.0</ele><time>2026-05-01T10:35:55Z</time></trkpt><trkpt lat="47.727997481494896" lon="11.35161077894754"><ele>603.6666666666667</ele><time>2026-05-01T10:35:56Z</time></trkpt><trkpt lat="47.72797920931453" lon="11.351885436854186"><ele>603.3333333333334</ele><time>2026-05-01T10:35:57Z</time></trkpt><trkpt lat="47.727962851630764" lon="11.352161773390048"><ele>603.0</ele><time>2026-05-01T10:35:58Z</time></trkpt><trkpt lat="47.72794983763587" lon="11.352437585037336"><ele>602.6666666666666</ele><time>2026-05-01T10:35:59Z</time></trkpt><trkpt lat="47.72793788595198" lon="11.352710621965908"><ele>602.3333333333333</ele><time>2026-05-01T10:36:00Z</time></trkpt><trkpt lat="47.72792880470975" lon="11.352984035255618"><ele>602.0</ele><time>2026-05-01T10:36:01Z</time></trkpt><trkpt lat="47.72792205197126" lon="11.3532592158951"><ele>602.0</ele><time>2026-05-01T10:36:02Z</time></trkpt><trkpt lat="47.72791946264079" lon="11.35353554235482"><ele>602.0</ele><time>2026-05-01T10:36:03Z</time></trkpt><trkpt lat="47.7279219320254" lon="11.353810901178717"><ele>602.0</ele><time>2026-05-01T10:36:04Z</time></trkpt><trkpt lat="47.72792720064489" lon="11.354085523976071"><ele>602.0</ele><time>2026-05-01T10:36:05Z</time></trkpt><trkpt lat="47.72793596287422" lon="11.354360378470103"><ele>602.0</ele><time>2026-05-01T10:36:06Z</time></trkpt><trkpt lat="47.727951785056774" lon="11.354635012963563"><ele>602.0</ele><time>2026-05-01T10:36:07Z</time></trkpt><trkpt lat="47.72797093373208" lon="11.354909966086703"><ele>602.0</ele><time>2026-05-01T10:36:08Z</time></trkpt><trkpt lat="47.727992612187876" lon="11.355185551476959"><ele>602.0</ele><time>2026-05-01T10:36:09Z</time></trkpt><trkpt lat="47.728036741875684" lon="11.355463565114706"><ele>602.0</ele><time>2026-05-01T10:36:10Z</time></trkpt><trkpt lat="47.72806833465756" lon="11.355745738797685"><ele>602.0</ele><time>2026-05-01T10:36:11Z</time></trkpt><trkpt lat="47.72810591612048" lon="11.356028316754582"><ele>602.0</ele><time>2026-05-01T10:36:12Z</time></trkpt><trkpt lat="47.72814711034261" lon="11.356308548580808"><ele>602.0</ele><time>2026-05-01T10:36:13Z</time></trkpt><trkpt lat="47.72818949627594" lon="11.356583496589712"><ele>602.0</ele><time>2026-05-01T10:36:14Z</time></trkpt><trkpt lat="47.728232166009406" lon="11.356846364597567"><ele>602.0</ele><time>2026-05-01T10:36:15Z</time></trkpt><trkpt lat="47.72827459824685" lon="11.357100329380406"><ele>602.0</ele><time>2026-05-01T10:36:16Z</time></trkpt><trkpt lat="47.72831776053217" lon="11.35736025588261"><ele>602.0</ele><time>2026-05-01T10:36:17Z</time></trkpt><trkpt lat="47.72836079944192" lon="11.357622285399973"><ele>602.0</ele><time>2026-05-01T10:36:18Z</time></trkpt><trkpt lat="47.72840288019742" lon="11.357884539732677"><ele>602.0</ele><time>2026-05-01T10:36:19Z</time></trkpt><trkpt lat="47.72844409803739" lon="11.358148468898829"><ele>602.0</ele><time>2026-05-01T10:36:20Z</time></trkpt><trkpt lat="47.72848611651505" lon="11.358412201936796"><ele>602.0</ele><time>2026-05-01T10:36:21Z</time></trkpt><trkpt lat="47.72852541069899" lon="11.358678717815986"><ele>602.0</ele><time>2026-05-01T10:36:22Z</time></trkpt><trkpt lat="47.728543131884734" lon="11.358954723831856"><ele>601.6666666666666</ele><time>2026-05-01T10:36:23Z</time></trkpt><trkpt lat="47.72857349247096" lon="11.3592282088483"><ele>601.3333333333334</ele><time>2026-05-01T10:36:24Z</time></trkpt><trkpt lat="47.72861869865977" lon="11.35949824024544"><ele>601.0</ele><time>2026-05-01T10:36:25Z</time></trkpt><trkpt lat="47.72863952709816" lon="11.359771176289742"><ele>601.0</ele><time>2026-05-01T10:36:26Z</time></trkpt><trkpt lat="47.72865439261973" lon="11.360041700950193"><ele>601.0</ele><time>2026-05-01T10:36:27Z</time></trkpt><trkpt lat="47.728662625096625" lon="11.360311530162926"><ele>601.0</ele><time>2026-05-01T10:36:28Z</time></trkpt><trkpt lat="47.72866548953217" lon="11.360582115615511"><ele>601.3333333333334</ele><time>2026-05-01T10:36:29Z</time></trkpt><trkpt lat="47.72866028503476" lon="11.36085495213018"><ele>601.6666666666666</ele><time>2026-05-01T10:36:30Z</time></trkpt><trkpt lat="47.728648612800576" lon="11.361127487227138"><ele>602.0</ele><time>2026-05-01T10:36:31Z</time></trkpt><trkpt lat="47.728632789773734" lon="11.361398318798212"><ele>601.6666666666666</ele><time>2026-05-01T10:36:32Z</time></trkpt><trkpt lat="47.72861268982948" lon="11.361669199935092"><ele>601.3333333333334</ele><time>2026-05-01T10:36:33Z</time></trkpt><trkpt lat="47.72858710035181" lon="11.361938986487921"><ele>601.0</ele><time>2026-05-01T10:36:34Z</time></trkpt><trkpt lat="47.72855730564916" lon="11.362210179036392"><ele>601.0</ele><time>2026-05-01T10:36:35Z</time></trkpt><trkpt lat="47.72851638461303" lon="11.362484723876756"><ele>601.0</ele><time>2026-05-01T10:36:36Z</time></trkpt><trkpt lat="47.728464191685674" lon="11.362762633437352"><ele>601.0</ele><time>2026-05-01T10:36:37Z</time></trkpt><trkpt lat="47.72840494821354" lon="11.36303844495128"><ele>600.6666666666667</ele><time>2026-05-01T10:36:38Z</time></trkpt><trkpt lat="47.72834084302457" lon="11.3633112071016"><ele>600.3333333333334</ele><time>2026-05-01T10:36:39Z</time></trkpt><trkpt lat="47.72827377845461" lon="11.3635737725841"><ele>600.0</ele><time>2026-05-01T10:36:40Z</time></trkpt><trkpt lat="47.728204491301156" lon="11.36382851355347"><ele>599.6666666666666</ele><time>2026-05-01T10:36:41Z</time></trkpt><trkpt lat="47.72813282458001" lon="11.364080042265805"><ele>599.3333333333333</ele><time>2026-05-01T10:36:42Z</time></trkpt><trkpt lat="47.72806107616867" lon="11.364327553998473"><ele>599.0</ele><time>2026-05-01T10:36:43Z</time></trkpt><trkpt lat="47.72798710748252" lon="11.364573438606465"><ele>598.3333333333333</ele><time>2026-05-01T10:36:44Z</time></trkpt><trkpt lat="47.72790767356634" lon="11.364831616450587"><ele>597.6666666666666</ele><time>2026-05-01T10:36:45Z</time></trkpt><trkpt lat="47.7278224213316" lon="11.365093919025849"><ele>597.0</ele><time>2026-05-01T10:36:46Z</time></trkpt><trkpt lat="47.72773666143985" lon="11.36535119499369"><ele>596.6666666666666</ele><time>2026-05-01T10:36:47Z</time></trkpt><trkpt lat="47.72765342201614" lon="11.365605597908429"><ele>596.3333333333333</ele><time>2026-05-01T10:36:48Z</time></trkpt><trkpt lat="47.72756640686479" lon="11.36586774322847"><ele>596.0</ele><time>2026-05-01T10:36:49Z</time></trkpt><trkpt lat="47.72747698174392" lon="11.366139391629172"><ele>596.0</ele><time>2026-05-01T10:36:50Z</time></trkpt><trkpt lat="47.727390078336654" lon="11.366404131901662"><ele>596.0</ele><time>2026-05-01T10:36:51Z</time></trkpt><trkpt lat="47.727305025861575" lon="11.366662043270972"><ele>596.0</ele><time>2026-05-01T10:36:52Z</time></trkpt><trkpt lat="47.72722150047533" lon="11.36691723836993"><ele>596.0</ele><time>2026-05-01T10:36:53Z</time></trkpt><trkpt lat="47.72713851445262" lon="11.367173456618197"><ele>596.0</ele><time>2026-05-01T10:36:54Z</time></trkpt><trkpt lat="47.72705537951798" lon="11.367429347519357"><ele>596.0</ele><time>2026-05-01T10:36:55Z</time></trkpt><trkpt lat="47.72697202164956" lon="11.367686737021316"><ele>596.6666666666666</ele><time>2026-05-01T10:36:56Z</time></trkpt><trkpt lat="47.726886193296224" lon="11.367950726950975"><ele>597.3333333333334</ele><time>2026-05-01T10:36:57Z</time></trkpt><trkpt lat="47.72679993305255" lon="11.368219312996937"><ele>598.0</ele><time>2026-05-01T10:36:58Z</time></trkpt><trkpt lat="47.72671101197072" lon="11.368488833063585"><ele>598.0</ele><time>2026-05-01T10:36:59Z</time></trkpt><trkpt lat="47.726621315803406" lon="11.368758178890642"><ele>598.0</ele><time>2026-05-01T10:37:00Z</time></trkpt><trkpt lat="47.726534281482145" lon="11.369028452019801"><ele>598.0</ele><time>2026-05-01T10:37:01Z</time></trkpt><trkpt lat="47.726449865429664" lon="11.369292104630151"><ele>598.0</ele><time>2026-05-01T10:37:02Z</time></trkpt><trkpt lat="47.726368067707725" lon="11.36955383847226"><ele>598.0</ele><time>2026-05-01T10:37:03Z</time></trkpt><trkpt lat="47.7262887787813" lon="11.369816856338177"><ele>598.0</ele><time>2026-05-01T10:37:04Z</time></trkpt><trkpt lat="47.7262107322549" lon="11.370083684594011"><ele>598.0</ele><time>2026-05-01T10:37:05Z</time></trkpt><trkpt lat="47.72613265278362" lon="11.370355519217812"><ele>598.0</ele><time>2026-05-01T10:37:06Z</time></trkpt><trkpt lat="47.72605884825469" lon="11.370631011271353"><ele>598.0</ele><time>2026-05-01T10:37:07Z</time></trkpt><trkpt lat="47.72598793719738" lon="11.370908909604854"><ele>598.0</ele><time>2026-05-01T10:37:08Z</time></trkpt><trkpt lat="47.72592008409932" lon="11.371186434009942"><ele>598.0</ele><time>2026-05-01T10:37:09Z</time></trkpt><trkpt lat="47.72585702712397" lon="11.371470606743204"><ele>598.0</ele><time>2026-05-01T10:37:10Z</time></trkpt><trkpt lat="47.72580067005303" lon="11.371758070124832"><ele>598.0</ele><time>2026-05-01T10:37:11Z</time></trkpt><trkpt lat="47.725752002359094" lon="11.372034493457384"><ele>598.0</ele><time>2026-05-01T10:37:12Z</time></trkpt><trkpt lat="47.725711217619775" lon="11.372297929456822"><ele>598.0</ele><time>2026-05-01T10:37:13Z</time></trkpt><trkpt lat="47.72567347461771" lon="11.372567416355963"><ele>598.3333333333334</ele><time>2026-05-01T10:37:14Z</time></trkpt><trkpt lat="47.725640708181835" lon="11.372836325950228"><ele>598.6666666666666</ele><time>2026-05-01T10:37:15Z</time></trkpt><trkpt lat="47.725613248646695" lon="11.373102879840559"><ele>599.0</ele><time>2026-05-01T10:37:16Z</time></trkpt><trkpt lat="47.7255880237839" lon="11.37337497749242"><ele>599.0</ele><time>2026-05-01T10:37:17Z</time></trkpt><trkpt lat="47.72556793815289" lon="11.373652992987298"><ele>599.0</ele><time>2026-05-01T10:37:18Z</time></trkpt><trkpt lat="47.72555467948328" lon="11.373938932838024"><ele>599.0</ele><time>2026-05-01T10:37:19Z</time></trkpt><trkpt lat="47.72552920758307" lon="11.374228438073864"><ele>599.0</ele><time>2026-05-01T10:37:20Z</time></trkpt><trkpt lat="47.72552272910055" lon="11.374521882162563"><ele>599.0</ele><time>2026-05-01T10:37:21Z</time></trkpt><trkpt lat="47.725520746428955" lon="11.37481841462681"><ele>599.0</ele><time>2026-05-01T10:37:22Z</time></trkpt><trkpt lat="47.72553865148165" lon="11.375112350441215"><ele>599.0</ele><time>2026-05-01T10:37:23Z</time></trkpt><trkpt lat="47.72554447946944" lon="11.375406005671659"><ele>599.0</ele><time>2026-05-01T10:37:24Z</time></trkpt><trkpt lat="47.725537848307006" lon="11.375700711795083"><ele>599.0</ele><time>2026-05-01T10:37:25Z</time></trkpt><trkpt lat="47.7255491594516" lon="11.375995678507525"><ele>598.6666666666666</ele><time>2026-05-01T10:37:26Z</time></trkpt><trkpt lat="47.72556145845632" lon="11.376288929041808"><ele>598.3333333333334</ele><time>2026-05-01T10:37:27Z</time></trkpt><trkpt lat="47.72557630764402" lon="11.376583149684512"><ele>598.0</ele><time>2026-05-01T10:37:28Z</time></trkpt><trkpt lat="47.72560746525466" lon="11.376870915432537"><ele>598.0</ele><time>2026-05-01T10:37:29Z</time></trkpt><trkpt lat="47.725597062621176" lon="11.377157345716359"><ele>598.0</ele><time>2026-05-01T10:37:30Z</time></trkpt><trkpt lat="47.7255960914301" lon="11.377444064264667"><ele>598.0</ele><time>2026-05-01T10:37:31Z</time></trkpt><trkpt lat="47.72558661417927" lon="11.377727386310795"><ele>599.0</ele><time>2026-05-01T10:37:32Z</time></trkpt><trkpt lat="47.725566767727585" lon="11.378012621236328"><ele>600.0</ele><time>2026-05-01T10:37:33Z</time></trkpt><trkpt lat="47.72553900117299" lon="11.378295177481203"><ele>601.0</ele><time>2026-05-01T10:37:34Z</time></trkpt><trkpt lat="47.72550466120812" lon="11.37857795024597"><ele>601.3333333333334</ele><time>2026-05-01T10:37:35Z</time></trkpt><trkpt lat="47.72548080371256" lon="11.378867509738146"><ele>601.6666666666666</ele><time>2026-05-01T10:37:36Z</time></trkpt><trkpt lat="47.725431009055214" lon="11.379152232372919"><ele>602.0</ele><time>2026-05-01T10:37:37Z</time></trkpt><trkpt lat="47.72537793390942" lon="11.379436530791997"><ele>601.6666666666666</ele><time>2026-05-01T10:37:38Z</time></trkpt><trkpt lat="47.725320920393244" lon="11.379720604544099"><ele>601.3333333333334</ele><time>2026-05-01T10:37:39Z</time></trkpt><trkpt lat="47.72525906481071" lon="11.38000511950694"><ele>601.0</ele><time>2026-05-01T10:37:40Z</time></trkpt><trkpt lat="47.725197300369665" lon="11.380274832311407"><ele>600.3333333333334</ele><time>2026-05-01T10:37:41Z</time></trkpt><trkpt lat="47.725135840287784" lon="11.380534713045993"><ele>599.6666666666666</ele><time>2026-05-01T10:37:42Z</time></trkpt><trkpt lat="47.72507379866505" lon="11.380790575471963"><ele>599.0</ele><time>2026-05-01T10:37:43Z</time></trkpt><trkpt lat="47.72500850519245" lon="11.381052063488111"><ele>599.0</ele><time>2026-05-01T10:37:44Z</time></trkpt><trkpt lat="47.72493959559819" lon="11.381314453088446"><ele>599.0</ele><time>2026-05-01T10:37:45Z</time></trkpt><trkpt lat="47.72486950674896" lon="11.38158174740523"><ele>599.0</ele><time>2026-05-01T10:37:46Z</time></trkpt><trkpt lat="47.72479980803004" lon="11.381854059853746"><ele>599.3333333333333</ele><time>2026-05-01T10:37:47Z</time></trkpt><trkpt lat="47.72472993233192" lon="11.38212913556644"><ele>599.6666666666666</ele><time>2026-05-01T10:37:48Z</time></trkpt><trkpt lat="47.72465961624452" lon="11.382406472428498"><ele>600.0</ele><time>2026-05-01T10:37:49Z</time></trkpt><trkpt lat="47.72459003481238" lon="11.382683427065032"><ele>600.0</ele><time>2026-05-01T10:37:50Z</time></trkpt><trkpt lat="47.72451911166313" lon="11.382954785699376"><ele>600.0</ele><time>2026-05-01T10:37:51Z</time></trkpt><trkpt lat="47.724450105604255" lon="11.383221889171642"><ele>600.0</ele><time>2026-05-01T10:37:52Z</time></trkpt><trkpt lat="47.72438148285161" lon="11.383484956946111"><ele>600.6666666666666</ele><time>2026-05-01T10:37:53Z</time></trkpt><trkpt lat="47.72431236134654" lon="11.383751035296616"><ele>601.3333333333333</ele><time>2026-05-01T10:37:54Z</time></trkpt><trkpt lat="47.72424003335133" lon="11.38402427013435"><ele>602.0</ele><time>2026-05-01T10:37:55Z</time></trkpt><trkpt lat="47.72416678175816" lon="11.384302158622713"><ele>602.0</ele><time>2026-05-01T10:37:56Z</time></trkpt><trkpt lat="47.72409248577463" lon="11.384584130812646"><ele>602.0</ele><time>2026-05-01T10:37:57Z</time></trkpt><trkpt lat="47.72401816942907" lon="11.38486778419188"><ele>602.0</ele><time>2026-05-01T10:37:58Z</time></trkpt><trkpt lat="47.72394322009107" lon="11.385154545281669"><ele>602.3333333333333</ele><time>2026-05-01T10:37:59Z</time></trkpt><trkpt lat="47.7238669858987" lon="11.385444420093533"><ele>602.6666666666666</ele><time>2026-05-01T10:38:00Z</time></trkpt><trkpt lat="47.723794635720374" lon="11.385722064112574"><ele>603.0</ele><time>2026-05-01T10:38:01Z</time></trkpt><trkpt lat="47.72372225027738" lon="11.386004679115649"><ele>603.0</ele><time>2026-05-01T10:38:02Z</time></trkpt><trkpt lat="47.72365125048939" lon="11.386286308834626"><ele>603.0</ele><time>2026-05-01T10:38:03Z</time></trkpt><trkpt lat="47.723585618409466" lon="11.386557645708086"><ele>603.0</ele><time>2026-05-01T10:38:04Z</time></trkpt><trkpt lat="47.72352281692781" lon="11.386834483173953"><ele>603.3333333333334</ele><time>2026-05-01T10:38:05Z</time></trkpt><trkpt lat="47.723462100589394" lon="11.387113281987421"><ele>603.6666666666667</ele><time>2026-05-01T10:38:06Z</time></trkpt><trkpt lat="47.723403753992436" lon="11.387392073361232"><ele>604.0</ele><time>2026-05-01T10:38:07Z</time></trkpt><trkpt lat="47.72335115513495" lon="11.387660211589392"><ele>604.3333333333334</ele><time>2026-05-01T10:38:08Z</time></trkpt><trkpt lat="47.7233063261543" lon="11.38791916435462"><ele>604.6666666666666</ele><time>2026-05-01T10:38:09Z</time></trkpt><trkpt lat="47.723264199959175" lon="11.38818072701337"><ele>605.0</ele><time>2026-05-01T10:38:10Z</time></trkpt><trkpt lat="47.72322855264294" lon="11.388434650256043"><ele>605.0</ele><time>2026-05-01T10:38:11Z</time></trkpt><trkpt lat="47.723198358596534" lon="11.388688063160599"><ele>605.0</ele><time>2026-05-01T10:38:12Z</time></trkpt><trkpt lat="47.72317049276433" lon="11.388943611784581"><ele>605.0</ele><time>2026-05-01T10:38:13Z</time></trkpt><trkpt lat="47.723144036040196" lon="11.389195599362637"><ele>604.0</ele><time>2026-05-01T10:38:14Z</time></trkpt><trkpt lat="47.72311938861562" lon="11.389445978442385"><ele>603.0</ele><time>2026-05-01T10:38:15Z</time></trkpt><trkpt lat="47.723099219456735" lon="11.389690844983061"><ele>602.0</ele><time>2026-05-01T10:38:16Z</time></trkpt><trkpt lat="47.72308027337649" lon="11.389934791670418"><ele>602.0</ele><time>2026-05-01T10:38:17Z</time></trkpt><trkpt lat="47.72306257922252" lon="11.390181983579122"><ele>602.0</ele><time>2026-05-01T10:38:18Z</time></trkpt><trkpt lat="47.72302884558816" lon="11.390427194978546"><ele>602.0</ele><time>2026-05-01T10:38:19Z</time></trkpt><trkpt lat="47.72301090685858" lon="11.39067667901202"><ele>602.6666666666666</ele><time>2026-05-01T10:38:20Z</time></trkpt><trkpt lat="47.72299355476539" lon="11.390930385037342"><ele>603.3333333333334</ele><time>2026-05-01T10:38:21Z</time></trkpt><trkpt lat="47.72297703823814" lon="11.391183612044589"><ele>604.0</ele><time>2026-05-01T10:38:22Z</time></trkpt><trkpt lat="47.7229601682038" lon="11.391440369640263"><ele>605.0</ele><time>2026-05-01T10:38:23Z</time></trkpt><trkpt lat="47.72294321898055" lon="11.391698658165122"><ele>606.0</ele><time>2026-05-01T10:38:24Z</time></trkpt><trkpt lat="47.72292629854889" lon="11.391956507816488"><ele>607.0</ele><time>2026-05-01T10:38:25Z</time></trkpt><trkpt lat="47.72290958809168" lon="11.392211157719556"><ele>607.0</ele><time>2026-05-01T10:38:26Z</time></trkpt><trkpt lat="47.72289318664417" lon="11.392461098570012"><ele>607.0</ele><time>2026-05-01T10:38:27Z</time></trkpt><trkpt lat="47.72287682152789" lon="11.392710485883338"><ele>607.0</ele><time>2026-05-01T10:38:28Z</time></trkpt><trkpt lat="47.722860023679225" lon="11.392961715069791"><ele>606.6666666666667</ele><time>2026-05-01T10:38:29Z</time></trkpt><trkpt lat="47.72284288191972" lon="11.393214468967816"><ele>606.3333333333334</ele><time>2026-05-01T10:38:30Z</time></trkpt><trkpt lat="47.72282553696338" lon="11.393470218985474"><ele>606.0</ele><time>2026-05-01T10:38:31Z</time></trkpt><trkpt lat="47.72280665495726" lon="11.393728298724053"><ele>606.0</ele><time>2026-05-01T10:38:32Z</time></trkpt><trkpt lat="47.72278459683958" lon="11.393992768548802"><ele>606.0</ele><time>2026-05-01T10:38:33Z</time></trkpt><trkpt lat="47.722758858914155" lon="11.39426231158919"><ele>606.0</ele><time>2026-05-01T10:38:34Z</time></trkpt><trkpt lat="47.72273079142846" lon="11.39453010729654"><ele>606.3333333333334</ele><time>2026-05-01T10:38:35Z</time></trkpt><trkpt lat="47.722700375524305" lon="11.39478049210387"><ele>606.6666666666667</ele><time>2026-05-01T10:38:36Z</time></trkpt><trkpt lat="47.72266443437537" lon="11.395016722180106"><ele>607.0</ele><time>2026-05-01T10:38:37Z</time></trkpt><trkpt lat="47.722622237234816" lon="11.395265090819025"><ele>607.0</ele><time>2026-05-01T10:38:38Z</time></trkpt><trkpt lat="47.722575525702034" lon="11.395509347590599"><ele>607.0</ele><time>2026-05-01T10:38:39Z</time></trkpt><trkpt lat="47.72252515614871" lon="11.39574213665093"><ele>607.0</ele><time>2026-05-01T10:38:40Z</time></trkpt><trkpt lat="47.722472500177716" lon="11.395959668083771"><ele>607.0</ele><time>2026-05-01T10:38:41Z</time></trkpt><trkpt lat="47.72241738586135" lon="11.3961719104615"><ele>607.0</ele><time>2026-05-01T10:38:42Z</time></trkpt><trkpt lat="47.7223574652759" lon="11.396380867147318"><ele>607.0</ele><time>2026-05-01T10:38:43Z</time></trkpt><trkpt lat="47.722295601198745" lon="11.39658558689981"><ele>607.0</ele><time>2026-05-01T10:38:44Z</time></trkpt><trkpt lat="47.72225733820393" lon="11.39679899355701"><ele>607.0</ele><time>2026-05-01T10:38:45Z</time></trkpt><trkpt lat="47.72219393940418" lon="11.39699165234763"><ele>607.0</ele><time>2026-05-01T10:38:46Z</time></trkpt><trkpt lat="47.7221265697273" lon="11.397188085145128"><ele>607.0</ele><time>2026-05-01T10:38:47Z</time></trkpt><trkpt lat="47.72205744648859" lon="11.397385825304967"><ele>607.0</ele><time>2026-05-01T10:38:48Z</time></trkpt><trkpt lat="47.72196645512351" lon="11.397573340684115"><ele>607.0</ele><time>2026-05-01T10:38:49Z</time></trkpt><trkpt lat="47.72189729095283" lon="11.397783108714309"><ele>607.0</ele><time>2026-05-01T10:38:50Z</time></trkpt><trkpt lat="47.721833538833536" lon="11.39799108070947"><ele>607.6666666666667</ele><time>2026-05-01T10:38:51Z</time></trkpt><trkpt lat="47.72177340038161" lon="11.398200617781098"><ele>608.3333333333334</ele><time>2026-05-01T10:38:52Z</time></trkpt><trkpt lat="47.721733460308926" lon="11.39842703137663"><ele>609.0</ele><time>2026-05-01T10:38:53Z</time></trkpt><trkpt lat="47.72168290330174" lon="11.39865168168473"><ele>609.0</ele><time>2026-05-01T10:38:54Z</time></trkpt><trkpt lat="47.72164067017391" lon="11.398883473687484"><ele>609.0</ele><time>2026-05-01T10:38:55Z</time></trkpt><trkpt lat="47.72160538977717" lon="11.399118330375133"><ele>609.0</ele><time>2026-05-01T10:38:56Z</time></trkpt><trkpt lat="47.72156055942657" lon="11.399349240035827"><ele>609.0</ele><time>2026-05-01T10:38:57Z</time></trkpt><trkpt lat="47.72153954357445" lon="11.399586905178985"><ele>609.0</ele><time>2026-05-01T10:38:58Z</time></trkpt><trkpt lat="47.72154126769435" lon="11.399824462735264"><ele>609.0</ele><time>2026-05-01T10:38:59Z</time></trkpt><trkpt lat="47.72153472033163" lon="11.400063600381984"><ele>609.0</ele><time>2026-05-01T10:39:00Z</time></trkpt><trkpt lat="47.72153461546811" lon="11.400308194166733"><ele>609.0</ele><time>2026-05-01T10:39:01Z</time></trkpt><trkpt lat="47.721541040306775" lon="11.400557282980525"><ele>609.0</ele><time>2026-05-01T10:39:02Z</time></trkpt><trkpt lat="47.721553927459915" lon="11.40080907659338"><ele>609.0</ele><time>2026-05-01T10:39:03Z</time></trkpt><trkpt lat="47.72157347291958" lon="11.401062592362813"><ele>609.0</ele><time>2026-05-01T10:39:04Z</time></trkpt><trkpt lat="47.72160292394131" lon="11.401316492567915"><ele>609.0</ele><time>2026-05-01T10:39:05Z</time></trkpt><trkpt lat="47.72164300116542" lon="11.401569520271174"><ele>609.6666666666666</ele><time>2026-05-01T10:39:06Z</time></trkpt><trkpt lat="47.72169253174211" lon="11.40182137174593"><ele>610.3333333333333</ele><time>2026-05-01T10:39:07Z</time></trkpt><trkpt lat="47.72173409795828" lon="11.402080313709176"><ele>611.0</ele><time>2026-05-01T10:39:08Z</time></trkpt><trkpt lat="47.721799892900336" lon="11.402331311434054"><ele>611.0</ele><time>2026-05-01T10:39:09Z</time></trkpt><trkpt lat="47.72187663898523" lon="11.40257858529189"><ele>611.0</ele><time>2026-05-01T10:39:10Z</time></trkpt><trkpt lat="47.72195681583686" lon="11.402810929287059"><ele>611.0</ele><time>2026-05-01T10:39:11Z</time></trkpt><trkpt lat="47.72204892314926" lon="11.40304232604532"><ele>611.0</ele><time>2026-05-01T10:39:12Z</time></trkpt><trkpt lat="47.72214824707194" lon="11.403268781992308"><ele>611.0</ele><time>2026-05-01T10:39:13Z</time></trkpt><trkpt lat="47.722257008907434" lon="11.403489592476683"><ele>611.0</ele><time>2026-05-01T10:39:14Z</time></trkpt><trkpt lat="47.72237435615403" lon="11.403703076766051"><ele>611.0</ele><time>2026-05-01T10:39:15Z</time></trkpt><trkpt lat="47.72249954696501" lon="11.403911785179053"><ele>611.0</ele><time>2026-05-01T10:39:16Z</time></trkpt><trkpt lat="47.722635492524056" lon="11.404109149653987"><ele>611.0</ele><time>2026-05-01T10:39:17Z</time></trkpt><trkpt lat="47.72278079687978" lon="11.404272668038098"><ele>611.0</ele><time>2026-05-01T10:39:18Z</time></trkpt><trkpt lat="47.722911727550496" lon="11.404432292172988"><ele>611.0</ele><time>2026-05-01T10:39:19Z</time></trkpt><trkpt lat="47.723044459791964" lon="11.404577017797932"><ele>611.0</ele><time>2026-05-01T10:39:20Z</time></trkpt><trkpt lat="47.723176819104125" lon="11.404733922347152"><ele>611.3333333333333</ele><time>2026-05-01T10:39:21Z</time></trkpt><trkpt lat="47.72332161794544" lon="11.404864631013181"><ele>611.6666666666666</ele><time>2026-05-01T10:39:22Z</time></trkpt><trkpt lat="47.723477293715185" lon="11.404967264355568"><ele>612.0</ele><time>2026-05-01T10:39:23Z</time></trkpt><trkpt lat="47.723620127319045" lon="11.40508205209805"><ele>612.0</ele><time>2026-05-01T10:39:24Z</time></trkpt><trkpt lat="47.723766238420595" lon="11.405192553058379"><ele>612.0</ele><time>2026-05-01T10:39:25Z</time></trkpt><trkpt lat="47.723920318391265" lon="11.405300331127174"><ele>612.0</ele><time>2026-05-01T10:39:26Z</time></trkpt><trkpt lat="47.72408302135855" lon="11.405411655871744"><ele>611.6666666666666</ele><time>2026-05-01T10:39:27Z</time></trkpt><trkpt lat="47.72425368720283" lon="11.40552047577454"><ele>611.3333333333333</ele><time>2026-05-01T10:39:28Z</time></trkpt><trkpt lat="47.72443275676242" lon="11.40562922857267"><ele>611.0</ele><time>2026-05-01T10:39:29Z</time></trkpt><trkpt lat="47.7246179041447" lon="11.405740324661524"><ele>611.0</ele><time>2026-05-01T10:39:30Z</time></trkpt><trkpt lat="47.724795636905675" lon="11.405879086773924"><ele>611.0</ele><time>2026-05-01T10:39:31Z</time></trkpt><trkpt lat="47.72497726139773" lon="11.405995187523272"><ele>611.0</ele><time>2026-05-01T10:39:32Z</time></trkpt><trkpt lat="47.72515507600308" lon="11.406108852805614"><ele>610.6666666666666</ele><time>2026-05-01T10:39:33Z</time></trkpt><trkpt lat="47.72532284026457" lon="11.40621609347581"><ele>610.3333333333334</ele><time>2026-05-01T10:39:34Z</time></trkpt><trkpt lat="47.72549794760865" lon="11.406301853924857"><ele>610.0</ele><time>2026-05-01T10:39:35Z</time></trkpt><trkpt lat="47.72566887513467" lon="11.406410236906533"><ele>610.3333333333334</ele><time>2026-05-01T10:39:36Z</time></trkpt><trkpt lat="47.7258422600065" lon="11.40651960366642"><ele>610.6666666666666</ele><time>2026-05-01T10:39:37Z</time></trkpt><trkpt lat="47.7260103427615" lon="11.406653504770151"><ele>611.0</ele><time>2026-05-01T10:39:38Z</time></trkpt><trkpt lat="47.72619178654201" lon="11.406743498333592"><ele>611.0</ele><time>2026-05-01T10:39:39Z</time></trkpt><trkpt lat="47.726365693808496" lon="11.406857299278315"><ele>611.0</ele><time>2026-05-01T10:39:40Z</time></trkpt><trkpt lat="47.72653424163271" lon="11.406966139112246"><ele>611.0</ele><time>2026-05-01T10:39:41Z</time></trkpt><trkpt lat="47.7266991587002" lon="11.40707118561285"><ele>611.0</ele><time>2026-05-01T10:39:42Z</time></trkpt><trkpt lat="47.72686662736877" lon="11.407177786243949"><ele>611.0</ele><time>2026-05-01T10:39:43Z</time></trkpt><trkpt lat="47.72703796758316" lon="11.407290402995184"><ele>611.0</ele><time>2026-05-01T10:39:44Z</time></trkpt><trkpt lat="47.727211884440216" lon="11.407405958490417"><ele>611.0</ele><time>2026-05-01T10:39:45Z</time></trkpt><trkpt lat="47.72739044207461" lon="11.407527121145325"><ele>611.0</ele><time>2026-05-01T10:39:46Z</time></trkpt><trkpt lat="47.72756241474447" lon="11.407678989554084"><ele>611.0</ele><time>2026-05-01T10:39:47Z</time></trkpt><trkpt lat="47.72774106566977" lon="11.407817215009542"><ele>611.0</ele><time>2026-05-01T10:39:48Z</time></trkpt><trkpt lat="47.72790949566379" lon="11.407964659737582"><ele>611.0</ele><time>2026-05-01T10:39:49Z</time></trkpt><trkpt lat="47.72808267636244" lon="11.408101040914742"><ele>611.0</ele><time>2026-05-01T10:39:50Z</time></trkpt><trkpt lat="47.728229319025665" lon="11.408295292840913"><ele>611.0</ele><time>2026-05-01T10:39:51Z</time></trkpt><trkpt lat="47.72837828585874" lon="11.408482969461781"><ele>611.0</ele><time>2026-05-01T10:39:52Z</time></trkpt><trkpt lat="47.728519081874694" lon="11.408680504634399"><ele>611.0</ele><time>2026-05-01T10:39:53Z</time></trkpt><trkpt lat="47.72865620593395" lon="11.408882192984775"><ele>610.6666666666666</ele><time>2026-05-01T10:39:54Z</time></trkpt><trkpt lat="47.72878780130136" lon="11.40909509503829"><ele>610.3333333333334</ele><time>2026-05-01T10:39:55Z</time></trkpt><trkpt lat="47.728910491510845" lon="11.409326516389076"><ele>610.0</ele><time>2026-05-01T10:39:56Z</time></trkpt><trkpt lat="47.72902292958695" lon="11.409564589200842"><ele>610.3333333333334</ele><time>2026-05-01T10:39:57Z</time></trkpt><trkpt lat="47.72912029308839" lon="11.40980017926146"><ele>610.6666666666666</ele><time>2026-05-01T10:39:58Z</time></trkpt><trkpt lat="47.72920041280894" lon="11.410028209913147"><ele>611.0</ele><time>2026-05-01T10:39:59Z</time></trkpt><trkpt lat="47.729269270675736" lon="11.410247365961993"><ele>611.0</ele><time>2026-05-01T10:40:00Z</time></trkpt><trkpt lat="47.72933326588394" lon="11.410469719349528"><ele>611.0</ele><time>2026-05-01T10:40:01Z</time></trkpt><trkpt lat="47.72939471546302" lon="11.410698305029245"><ele>611.0</ele><time>2026-05-01T10:40:02Z</time></trkpt><trkpt lat="47.729449738583284" lon="11.410932929139793"><ele>610.6666666666666</ele><time>2026-05-01T10:40:03Z</time></trkpt><trkpt lat="47.72949737754947" lon="11.411174704913186"><ele>610.3333333333334</ele><time>2026-05-01T10:40:04Z</time></trkpt><trkpt lat="47.72953590469636" lon="11.411422657517262"><ele>610.0</ele><time>2026-05-01T10:40:05Z</time></trkpt><trkpt lat="47.72956457639156" lon="11.411681315642086"><ele>610.0</ele><time>2026-05-01T10:40:06Z</time></trkpt><trkpt lat="47.72958492894794" lon="11.411944229377575"><ele>610.0</ele><time>2026-05-01T10:40:07Z</time></trkpt><trkpt lat="47.729598317413085" lon="11.412200191906644"><ele>610.0</ele><time>2026-05-01T10:40:08Z</time></trkpt><trkpt lat="47.72960640162072" lon="11.412451269044862"><ele>611.0</ele><time>2026-05-01T10:40:09Z</time></trkpt><trkpt lat="47.729603601084655" lon="11.412697552267646"><ele>612.0</ele><time>2026-05-01T10:40:10Z</time></trkpt><trkpt lat="47.7295904660723" lon="11.412947508533241"><ele>613.0</ele><time>2026-05-01T10:40:11Z</time></trkpt><trkpt lat="47.72956979040704" lon="11.413194019815855"><ele>613.6666666666667</ele><time>2026-05-01T10:40:12Z</time></trkpt><trkpt lat="47.729544400714694" lon="11.413440986874189"><ele>614.3333333333334</ele><time>2026-05-01T10:40:13Z</time></trkpt><trkpt lat="47.72951365423626" lon="11.41367952628066"><ele>615.0</ele><time>2026-05-01T10:40:14Z</time></trkpt><trkpt lat="47.72947775134633" lon="11.413905167754628"><ele>615.0</ele><time>2026-05-01T10:40:15Z</time></trkpt><trkpt lat="47.72943134986794" lon="11.414132990888268"><ele>615.0</ele><time>2026-05-01T10:40:16Z</time></trkpt><trkpt lat="47.729377392521705" lon="11.414361105067961"><ele>615.0</ele><time>2026-05-01T10:40:17Z</time></trkpt><trkpt lat="47.72931324474438" lon="11.414589815665773"><ele>615.3333333333334</ele><time>2026-05-01T10:40:18Z</time></trkpt><trkpt lat="47.72923923815769" lon="11.414821012114112"><ele>615.6666666666667</ele><time>2026-05-01T10:40:19Z</time></trkpt><trkpt lat="47.729168755905775" lon="11.415063434706441"><ele>616.0</ele><time>2026-05-01T10:40:20Z</time></trkpt><trkpt lat="47.72907408005267" lon="11.415292020738983"><ele>616.0</ele><time>2026-05-01T10:40:21Z</time></trkpt><trkpt lat="47.72897112978465" lon="11.415514259120302"><ele>616.0</ele><time>2026-05-01T10:40:22Z</time></trkpt><trkpt lat="47.72886322387491" lon="11.415731499997504"><ele>616.0</ele><time>2026-05-01T10:40:23Z</time></trkpt><trkpt lat="47.728752162660875" lon="11.41594445510593"><ele>616.0</ele><time>2026-05-01T10:40:24Z</time></trkpt><trkpt lat="47.72863840113339" lon="11.41615274290136"><ele>616.0</ele><time>2026-05-01T10:40:25Z</time></trkpt><trkpt lat="47.72852143436962" lon="11.416356433920125"><ele>616.0</ele><time>2026-05-01T10:40:26Z</time></trkpt><trkpt lat="47.72839602574251" lon="11.416553975464339"><ele>616.6666666666667</ele><time>2026-05-01T10:40:27Z</time></trkpt><trkpt lat="47.72826598581171" lon="11.416749873802054"><ele>617.3333333333334</ele><time>2026-05-01T10:40:28Z</time></trkpt><trkpt lat="47.72813166733485" lon="11.416945770446926"><ele>618.0</ele><time>2026-05-01T10:40:29Z</time></trkpt><trkpt lat="47.7279919933614" lon="11.417139936900243"><ele>619.0</ele><time>2026-05-01T10:40:30Z</time></trkpt><trkpt lat="47.72783781287431" lon="11.41733027073857"><ele>620.0</ele><time>2026-05-01T10:40:31Z</time></trkpt><trkpt lat="47.72769026778396" lon="11.417499347122622"><ele>621.0</ele><time>2026-05-01T10:40:32Z</time></trkpt><trkpt lat="47.727544695142484" lon="11.417664464758815"><ele>621.0</ele><time>2026-05-01T10:40:33Z</time></trkpt><trkpt lat="47.72740820938106" lon="11.417818042613618"><ele>621.0</ele><time>2026-05-01T10:40:34Z</time></trkpt><trkpt lat="47.72727129100465" lon="11.417976393005997"><ele>621.0</ele><time>2026-05-01T10:40:35Z</time></trkpt><trkpt lat="47.72713158068016" lon="11.418137617160157"><ele>622.6666666666666</ele><time>2026-05-01T10:40:36Z</time></trkpt><trkpt lat="47.726988912112056" lon="11.418298214509411"><ele>624.3333333333333</ele><time>2026-05-01T10:40:37Z</time></trkpt><trkpt lat="47.7268431534571" lon="11.418460103360552"><ele>626.0</ele><time>2026-05-01T10:40:38Z</time></trkpt><trkpt lat="47.7266959203882" lon="11.418623668643042"><ele>626.0</ele><time>2026-05-01T10:40:39Z</time></trkpt><trkpt lat="47.72655048812515" lon="11.418792685481286"><ele>626.0</ele><time>2026-05-01T10:40:40Z</time></trkpt><trkpt lat="47.72641192063774" lon="11.418974357838334"><ele>626.0</ele><time>2026-05-01T10:40:41Z</time></trkpt><trkpt lat="47.726283637397934" lon="11.419162096159111"><ele>626.6666666666666</ele><time>2026-05-01T10:40:42Z</time></trkpt><trkpt lat="47.72616532733134" lon="11.4193580961644"><ele>627.3333333333334</ele><time>2026-05-01T10:40:43Z</time></trkpt><trkpt lat="47.72605750517803" lon="11.419561743310304"><ele>628.0</ele><time>2026-05-01T10:40:44Z</time></trkpt><trkpt lat="47.72595660321457" lon="11.41977314110662"><ele>629.0</ele><time>2026-05-01T10:40:45Z</time></trkpt><trkpt lat="47.72586518866958" lon="11.419995753709756"><ele>630.0</ele><time>2026-05-01T10:40:46Z</time></trkpt><trkpt lat="47.72579096651974" lon="11.420242880353136"><ele>631.0</ele><time>2026-05-01T10:40:47Z</time></trkpt><trkpt lat="47.72572001735185" lon="11.420487769045701"><ele>632.0</ele><time>2026-05-01T10:40:48Z</time></trkpt><trkpt lat="47.725660001615964" lon="11.42074293718352"><ele>633.0</ele><time>2026-05-01T10:40:49Z</time></trkpt><trkpt lat="47.72561313943688" lon="11.42100427278402"><ele>634.0</ele><time>2026-05-01T10:40:50Z</time></trkpt><trkpt lat="47.72557797442086" lon="11.421273093320389"><ele>635.6666666666667</ele><time>2026-05-01T10:40:51Z</time></trkpt><trkpt lat="47.725553229114375" lon="11.421545158474979"><ele>637.3333333333334</ele><time>2026-05-01T10:40:52Z</time></trkpt><trkpt lat="47.72554182646117" lon="11.421818226340468"><ele>639.0</ele><time>2026-05-01T10:40:53Z</time></trkpt><trkpt lat="47.725542088408226" lon="11.422084337457534"><ele>639.3333333333334</ele><time>2026-05-01T10:40:54Z</time></trkpt><trkpt lat="47.72555210751073" lon="11.422343349912284"><ele>639.6666666666667</ele><time>2026-05-01T10:40:55Z</time></trkpt><trkpt lat="47.72557337262275" lon="11.422595858140554"><ele>640.0</ele><time>2026-05-01T10:40:56Z</time></trkpt><trkpt lat="47.725605344404805" lon="11.42283933317218"><ele>640.3333333333334</ele><time>2026-05-01T10:40:57Z</time></trkpt><trkpt lat="47.72563104116848" lon="11.42308786285507"><ele>640.6666666666666</ele><time>2026-05-01T10:40:58Z</time></trkpt><trkpt lat="47.72569830881651" lon="11.423319486949913"><ele>641.0</ele><time>2026-05-01T10:40:59Z</time></trkpt><trkpt lat="47.72575902016491" lon="11.42355008252462"><ele>641.0</ele><time>2026-05-01T10:41:00Z</time></trkpt><trkpt lat="47.725831599572395" lon="11.423775189420724"><ele>641.0</ele><time>2026-05-01T10:41:01Z</time></trkpt><trkpt lat="47.725912501474426" lon="11.423996246511644"><ele>641.0</ele><time>2026-05-01T10:41:02Z</time></trkpt><trkpt lat="47.72599862954565" lon="11.424214935062224"><ele>638.0</ele><time>2026-05-01T10:41:03Z</time></trkpt><trkpt lat="47.726091320504224" lon="11.424435727560928"><ele>635.0</ele><time>2026-05-01T10:41:04Z</time></trkpt><trkpt lat="47.72619373891456" lon="11.424654846507657"><ele>632.0</ele><time>2026-05-01T10:41:05Z</time></trkpt><trkpt lat="47.72630857301468" lon="11.424872009369976"><ele>631.6666666666666</ele><time>2026-05-01T10:41:06Z</time></trkpt><trkpt lat="47.72643636586137" lon="11.425092919141871"><ele>631.3333333333334</ele><time>2026-05-01T10:41:07Z</time></trkpt><trkpt lat="47.726575801402085" lon="11.425314925644363"><ele>631.0</ele><time>2026-05-01T10:41:08Z</time></trkpt><trkpt lat="47.726721434889036" lon="11.425534306708037"><ele>631.3333333333334</ele><time>2026-05-01T10:41:09Z</time></trkpt><trkpt lat="47.72685499598797" lon="11.425768045554245"><ele>631.6666666666666</ele><time>2026-05-01T10:41:10Z</time></trkpt><trkpt lat="47.726992460779506" lon="11.425976853891783"><ele>632.0</ele><time>2026-05-01T10:41:11Z</time></trkpt><trkpt lat="47.72711738109894" lon="11.42618079052836"><ele>632.0</ele><time>2026-05-01T10:41:12Z</time></trkpt><trkpt lat="47.72723882943822" lon="11.426395144018244"><ele>632.0</ele><time>2026-05-01T10:41:13Z</time></trkpt><trkpt lat="47.727353128426195" lon="11.426617025380954"><ele>632.0</ele><time>2026-05-01T10:41:14Z</time></trkpt><trkpt lat="47.727466318146654" lon="11.426845696689986"><ele>632.0</ele><time>2026-05-01T10:41:15Z</time></trkpt><trkpt lat="47.72757455906341" lon="11.427083617235073"><ele>632.0</ele><time>2026-05-01T10:41:16Z</time></trkpt><trkpt lat="47.72767888385491" lon="11.427319477167359"><ele>632.0</ele><time>2026-05-01T10:41:17Z</time></trkpt><trkpt lat="47.72777732698514" lon="11.427535868762018"><ele>631.0</ele><time>2026-05-01T10:41:18Z</time></trkpt><trkpt lat="47.72788701357261" lon="11.427722777654528"><ele>630.0</ele><time>2026-05-01T10:41:19Z</time></trkpt><trkpt lat="47.72798849592863" lon="11.427918314244678"><ele>629.0</ele><time>2026-05-01T10:41:20Z</time></trkpt><trkpt lat="47.72809964005419" lon="11.428107350884465"><ele>628.6666666666666</ele><time>2026-05-01T10:41:21Z</time></trkpt><trkpt lat="47.72821797155736" lon="11.42829056866158"><ele>628.3333333333334</ele><time>2026-05-01T10:41:22Z</time></trkpt><trkpt lat="47.72833283204058" lon="11.428478390062265"><ele>628.0</ele><time>2026-05-01T10:41:23Z</time></trkpt><trkpt lat="47.728461363323575" lon="11.428649033271931"><ele>626.6666666666667</ele><time>2026-05-01T10:41:24Z</time></trkpt><trkpt lat="47.72859608762835" lon="11.42881075854445"><ele>625.3333333333334</ele><time>2026-05-01T10:41:25Z</time></trkpt><trkpt lat="47.72873314291083" lon="11.428965526213286"><ele>624.0</ele><time>2026-05-01T10:41:26Z</time></trkpt><trkpt lat="47.728870760942826" lon="11.429120929089256"><ele>624.0</ele><time>2026-05-01T10:41:27Z</time></trkpt><trkpt lat="47.729003608771286" lon="11.429276921222279"><ele>624.0</ele><time>2026-05-01T10:41:28Z</time></trkpt><trkpt lat="47.729128147290226" lon="11.429425239875814"><ele>624.0</ele><time>2026-05-01T10:41:29Z</time></trkpt><trkpt lat="47.72924266515826" lon="11.42956866226112"><ele>624.0</ele><time>2026-05-01T10:41:30Z</time></trkpt><trkpt lat="47.72936495098469" lon="11.429684034130183"><ele>624.0</ele><time>2026-05-01T10:41:31Z</time></trkpt><trkpt lat="47.729465150088615" lon="11.429835236647005"><ele>624.0</ele><time>2026-05-01T10:41:32Z</time></trkpt><trkpt lat="47.729563602519534" lon="11.42998950243209"><ele>624.0</ele><time>2026-05-01T10:41:33Z</time></trkpt><trkpt lat="47.729658753467106" lon="11.430148406639258"><ele>624.0</ele><time>2026-05-01T10:41:34Z</time></trkpt><trkpt lat="47.72975117912101" lon="11.430312254591676"><ele>624.0</ele><time>2026-05-01T10:41:35Z</time></trkpt><trkpt lat="47.72983967064068" lon="11.430482111247962"><ele>624.0</ele><time>2026-05-01T10:41:36Z</time></trkpt><trkpt lat="47.729926898215545" lon="11.43065856797989"><ele>624.0</ele><time>2026-05-01T10:41:37Z</time></trkpt><trkpt lat="47.73001060334636" lon="11.430838125277557"><ele>624.0</ele><time>2026-05-01T10:41:38Z</time></trkpt><trkpt lat="47.73009149842277" lon="11.43101966465272"><ele>624.0</ele><time>2026-05-01T10:41:39Z</time></trkpt><trkpt lat="47.73016360240824" lon="11.43120672376402"><ele>624.0</ele><time>2026-05-01T10:41:40Z</time></trkpt><trkpt lat="47.73021406232101" lon="11.431408412333427"><ele>624.0</ele><time>2026-05-01T10:41:41Z</time></trkpt><trkpt lat="47.73027423002297" lon="11.431608797138525"><ele>622.3333333333334</ele><time>2026-05-01T10:41:42Z</time></trkpt><trkpt lat="47.730343701830535" lon="11.43180883577623"><ele>620.6666666666667</ele><time>2026-05-01T10:41:43Z</time></trkpt><trkpt lat="47.730393432118156" lon="11.432025497849443"><ele>619.0</ele><time>2026-05-01T10:41:44Z</time></trkpt><trkpt lat="47.730423844673304" lon="11.432256007926679"><ele>619.0</ele><time>2026-05-01T10:41:45Z</time></trkpt><trkpt lat="47.73046359324586" lon="11.432487566770366"><ele>619.0</ele><time>2026-05-01T10:41:46Z</time></trkpt><trkpt lat="47.73050203746105" lon="11.432731856618906"><ele>619.0</ele><time>2026-05-01T10:41:47Z</time></trkpt><trkpt lat="47.730539603455796" lon="11.432982665512084"><ele>619.3333333333334</ele><time>2026-05-01T10:41:48Z</time></trkpt><trkpt lat="47.73057213105136" lon="11.433239499531696"><ele>619.6666666666666</ele><time>2026-05-01T10:41:49Z</time></trkpt><trkpt lat="47.73060381045757" lon="11.433506123503639"><ele>620.0</ele><time>2026-05-01T10:41:50Z</time></trkpt><trkpt lat="47.730631611187846" lon="11.433770296308575"><ele>619.6666666666666</ele><time>2026-05-01T10:41:51Z</time></trkpt><trkpt lat="47.730663904732566" lon="11.434040158978817"><ele>619.3333333333334</ele><time>2026-05-01T10:41:52Z</time></trkpt><trkpt lat="47.730702880371126" lon="11.434307864977532"><ele>619.0</ele><time>2026-05-01T10:41:53Z</time></trkpt><trkpt lat="47.73073906620275" lon="11.434576993672694"><ele>618.3333333333334</ele><time>2026-05-01T10:41:54Z</time></trkpt><trkpt lat="47.73078127492238" lon="11.434846194803958"><ele>617.6666666666666</ele><time>2026-05-01T10:41:55Z</time></trkpt><trkpt lat="47.730827521303304" lon="11.435120805494478"><ele>617.0</ele><time>2026-05-01T10:41:56Z</time></trkpt><trkpt lat="47.7308784026612" lon="11.435398022724232"><ele>616.3333333333333</ele><time>2026-05-01T10:41:57Z</time></trkpt><trkpt lat="47.73092971004108" lon="11.435665383658263"><ele>615.6666666666666</ele><time>2026-05-01T10:41:58Z</time></trkpt><trkpt lat="47.73098633104557" lon="11.435943663465258"><ele>615.0</ele><time>2026-05-01T10:41:59Z</time></trkpt><trkpt lat="47.73104618280624" lon="11.436223400234427"><ele>614.6666666666666</ele><time>2026-05-01T10:42:00Z</time></trkpt><trkpt lat="47.731111439099365" lon="11.436496082003043"><ele>614.3333333333333</ele><time>2026-05-01T10:42:01Z</time></trkpt><trkpt lat="47.731174423900846" lon="11.436752317469267"><ele>614.0</ele><time>2026-05-01T10:42:02Z</time></trkpt><trkpt lat="47.7312398681292" lon="11.437008423468795"><ele>614.3333333333333</ele><time>2026-05-01T10:42:03Z</time></trkpt><trkpt lat="47.73131193942171" lon="11.437267248958706"><ele>614.6666666666666</ele><time>2026-05-01T10:42:04Z</time></trkpt><trkpt lat="47.731390044028124" lon="11.437526539286058"><ele>615.0</ele><time>2026-05-01T10:42:05Z</time></trkpt><trkpt lat="47.73146824372466" lon="11.437775476555355"><ele>615.6666666666666</ele><time>2026-05-01T10:42:06Z</time></trkpt><trkpt lat="47.731546978887266" lon="11.438012686766916"><ele>616.3333333333333</ele><time>2026-05-01T10:42:07Z</time></trkpt><trkpt lat="47.73162774400899" lon="11.43823946095926"><ele>617.0</ele><time>2026-05-01T10:42:08Z</time></trkpt><trkpt lat="47.7317079870355" lon="11.438457497094024"><ele>617.0</ele><time>2026-05-01T10:42:09Z</time></trkpt><trkpt lat="47.73179048207248" lon="11.438678516131983"><ele>617.0</ele><time>2026-05-01T10:42:10Z</time></trkpt><trkpt lat="47.731873891133624" lon="11.438895407333744"><ele>617.0</ele><time>2026-05-01T10:42:11Z</time></trkpt><trkpt lat="47.73195514165026" lon="11.43910304119206"><ele>617.0</ele><time>2026-05-01T10:42:12Z</time></trkpt><trkpt lat="47.73204179136753" lon="11.439322101016405"><ele>617.0</ele><time>2026-05-01T10:42:13Z</time></trkpt><trkpt lat="47.73213376301854" lon="11.439547799843274"><ele>617.0</ele><time>2026-05-01T10:42:14Z</time></trkpt><trkpt lat="47.732232124008455" lon="11.439781710400894"><ele>618.6666666666666</ele><time>2026-05-01T10:42:15Z</time></trkpt><trkpt lat="47.73234282265568" lon="11.440037419100204"><ele>620.3333333333334</ele><time>2026-05-01T10:42:16Z</time></trkpt><trkpt lat="47.732472528796734" lon="11.4403348966771"><ele>622.0</ele><time>2026-05-01T10:42:17Z</time></trkpt><trkpt lat="47.73261609670551" lon="11.440661957885734"><ele>623.5</ele><time>2026-05-01T10:42:18Z</time></trkpt><trkpt lat="47.73275644855222" lon="11.440971892086575"><ele>625.0</ele><time>2026-05-01T10:42:19Z</time></trkpt><trkpt lat="47.732888739968104" lon="11.441251685072183"><ele>627.3333333333334</ele><time>2026-05-01T10:42:20Z</time></trkpt><trkpt lat="47.73300435021649" lon="11.44148617432302"><ele>629.6666666666666</ele><time>2026-05-01T10:42:21Z</time></trkpt><trkpt lat="47.73310525519628" lon="11.441684814516691"><ele>632.0</ele><time>2026-05-01T10:42:22Z</time></trkpt><trkpt lat="47.733197367126984" lon="11.441859488946688"><ele>632.0</ele><time>2026-05-01T10:42:23Z</time></trkpt><trkpt lat="47.733292701839915" lon="11.442035734458145"><ele>632.0</ele><time>2026-05-01T10:42:24Z</time></trkpt><trkpt lat="47.73339041620644" lon="11.442214980794516"><ele>632.0</ele><time>2026-05-01T10:42:25Z</time></trkpt><trkpt lat="47.73348519201997" lon="11.442383266965326"><ele>631.6666666666666</ele><time>2026-05-01T10:42:26Z</time></trkpt><trkpt lat="47.733577167221405" lon="11.44254551451515"><ele>631.3333333333334</ele><time>2026-05-01T10:42:27Z</time></trkpt><trkpt lat="47.733679202767455" lon="11.44271846730592"><ele>631.0</ele><time>2026-05-01T10:42:28Z</time></trkpt><trkpt lat="47.733791348742116" lon="11.442898536328206"><ele>632.3333333333334</ele><time>2026-05-01T10:42:29Z</time></trkpt><trkpt lat="47.73390616069484" lon="11.443071833793141"><ele>633.6666666666666</ele><time>2026-05-01T10:42:30Z</time></trkpt><trkpt lat="47.734022002795015" lon="11.443238252987957"><ele>635.0</ele><time>2026-05-01T10:42:31.001Z</time></trkpt><trkpt lat="47.73413757155052" lon="11.443400230662693"><ele>635.0</ele><time>2026-05-01T10:42:32.001Z</time></trkpt><trkpt lat="47.73425409560149" lon="11.44356066981736"><ele>635.0</ele><time>2026-05-01T10:42:33.001Z</time></trkpt><trkpt lat="47.73437401938882" lon="11.44372579001244"><ele>635.0</ele><time>2026-05-01T10:42:34.001Z</time></trkpt><trkpt lat="47.73449352337844" lon="11.443899204561836"><ele>635.3333333333333</ele><time>2026-05-01T10:42:35.001Z</time></trkpt><trkpt lat="47.7346089189021" lon="11.444083308179295"><ele>635.6666666666666</ele><time>2026-05-01T10:42:36.001Z</time></trkpt><trkpt lat="47.734719394718105" lon="11.444275347781133"><ele>636.0</ele><time>2026-05-01T10:42:37.001Z</time></trkpt><trkpt lat="47.73482667381183" lon="11.444473420515463"><ele>637.3333333333334</ele><time>2026-05-01T10:42:38.001Z</time></trkpt><trkpt lat="47.73493169008384" lon="11.444681883906894"><ele>638.6666666666667</ele><time>2026-05-01T10:42:39.001Z</time></trkpt><trkpt lat="47.73503448113588" lon="11.444894125648966"><ele>640.0</ele><time>2026-05-01T10:42:40.001Z</time></trkpt><trkpt lat="47.73513622731076" lon="11.445100044954822"><ele>638.3333333333334</ele><time>2026-05-01T10:42:41.001Z</time></trkpt><trkpt lat="47.735238307900794" lon="11.445308805968567"><ele>636.6666666666666</ele><time>2026-05-01T10:42:42.001Z</time></trkpt><trkpt lat="47.73534413371025" lon="11.445528596399733"><ele>635.0</ele><time>2026-05-01T10:42:43.001Z</time></trkpt><trkpt lat="47.73546007630115" lon="11.445764707247909"><ele>635.0</ele><time>2026-05-01T10:42:44.001Z</time></trkpt><trkpt lat="47.73559906799794" lon="11.44603633082572"><ele>635.0</ele><time>2026-05-01T10:42:45.001Z</time></trkpt><trkpt lat="47.735764486058756" lon="11.446333216365353"><ele>636.0</ele><time>2026-05-01T10:42:46.001Z</time></trkpt><trkpt lat="47.735945859655935" lon="11.446624936385819"><ele>637.0</ele><time>2026-05-01T10:42:47.001Z</time></trkpt><trkpt lat="47.7361408595511" lon="11.44690035476174"><ele>640.0</ele><time>2026-05-01T10:42:48.001Z</time></trkpt><trkpt lat="47.736337293130596" lon="11.44714483704467"><ele>643.0</ele><time>2026-05-01T10:42:49.001Z</time></trkpt><trkpt lat="47.73652151346209" lon="11.447365952437048"><ele>643.0</ele><time>2026-05-01T10:42:50.001Z</time></trkpt><trkpt lat="47.736694049211216" lon="11.447553878989615"><ele>643.0</ele><time>2026-05-01T10:42:51.001Z</time></trkpt><trkpt lat="47.73685319663878" lon="11.447721847341082"><ele>643.0</ele><time>2026-05-01T10:42:52.001Z</time></trkpt><trkpt lat="47.736989837981156" lon="11.447866396088706"><ele>644.3333333333334</ele><time>2026-05-01T10:42:53.001Z</time></trkpt><trkpt lat="47.73712106950447" lon="11.448005598465004"><ele>645.6666666666666</ele><time>2026-05-01T10:42:54.001Z</time></trkpt><trkpt lat="47.73724847200512" lon="11.448160100732713"><ele>647.0</ele><time>2026-05-01T10:42:55.001Z</time></trkpt><trkpt lat="47.737379175627005" lon="11.448317407247877"><ele>647.0</ele><time>2026-05-01T10:42:56.001Z</time></trkpt><trkpt lat="47.737505098486224" lon="11.44848199661986"><ele>647.0</ele><time>2026-05-01T10:42:57.001Z</time></trkpt><trkpt lat="47.73762291988525" lon="11.448656123275747"><ele>647.0</ele><time>2026-05-01T10:42:58.001Z</time></trkpt><trkpt lat="47.737734997412566" lon="11.448832855662483"><ele>648.6666666666666</ele><time>2026-05-01T10:42:59.001Z</time></trkpt><trkpt lat="47.73784376989481" lon="11.449009124483458"><ele>650.3333333333334</ele><time>2026-05-01T10:43:00.001Z</time></trkpt><trkpt lat="47.73795181796663" lon="11.449183211799543"><ele>652.0</ele><time>2026-05-01T10:43:01.001Z</time></trkpt><trkpt lat="47.73806047969653" lon="11.449354608191653"><ele>652.0</ele><time>2026-05-01T10:43:02.001Z</time></trkpt><trkpt lat="47.73817389067494" lon="11.449525153973411"><ele>652.0</ele><time>2026-05-01T10:43:03.001Z</time></trkpt><trkpt lat="47.738290256040905" lon="11.449684324253672"><ele>652.0</ele><time>2026-05-01T10:43:04.001Z</time></trkpt><trkpt lat="47.73840977559968" lon="11.449830501862138"><ele>652.5</ele><time>2026-05-01T10:43:05.001Z</time></trkpt><trkpt lat="47.738530485487686" lon="11.449968281646369"><ele>653.0</ele><time>2026-05-01T10:43:06.001Z</time></trkpt><trkpt lat="47.738652584476384" lon="11.450099568010488"><ele>653.5</ele><time>2026-05-01T10:43:07.001Z</time></trkpt><trkpt lat="47.738770085166884" lon="11.450216881066822"><ele>654.0</ele><time>2026-05-01T10:43:08.001Z</time></trkpt><trkpt lat="47.73887795776813" lon="11.450316026722797"><ele>654.75</ele><time>2026-05-01T10:43:09.001Z</time></trkpt><trkpt lat="47.73898453492317" lon="11.450408744510387"><ele>655.5</ele><time>2026-05-01T10:43:10.001Z</time></trkpt><trkpt lat="47.73909494809052" lon="11.450506481103604"><ele>656.25</ele><time>2026-05-01T10:43:11.001Z</time></trkpt><trkpt lat="47.73920802877212" lon="11.4506102100422"><ele>657.0</ele><time>2026-05-01T10:43:12.001Z</time></trkpt><trkpt lat="47.739315727929615" lon="11.450711073641846"><ele>657.4000000000001</ele><time>2026-05-01T10:43:13.001Z</time></trkpt><trkpt lat="47.739407828527916" lon="11.450803450759885"><ele>657.8000000000001</ele><time>2026-05-01T10:43:14.001Z</time></trkpt><trkpt lat="47.739486630125434" lon="11.450892789309973"><ele>658.2</ele><time>2026-05-01T10:43:15.001Z</time></trkpt><trkpt lat="47.73955905097393" lon="11.450980295381656"><ele>658.6</ele><time>2026-05-01T10:43:16.001Z</time></trkpt><trkpt lat="47.73962747644143" lon="11.451065810952633"><ele>659.0</ele><time>2026-05-01T10:43:17.001Z</time></trkpt><trkpt lat="47.73969838255209" lon="11.451152826345322"><ele>659.0</ele><time>2026-05-01T10:43:18.001Z</time></trkpt><trkpt lat="47.739772452785964" lon="11.45124228917992"><ele>659.0</ele><time>2026-05-01T10:43:19.001Z</time></trkpt><trkpt lat="47.739848865647566" lon="11.451332576332602"><ele>659.0</ele><time>2026-05-01T10:43:20.001Z</time></trkpt><trkpt lat="47.73992732718552" lon="11.451425048711167"><ele>659.0</ele><time>2026-05-01T10:43:21.001Z</time></trkpt><trkpt lat="47.740007235226315" lon="11.451514454078845"><ele>659.0</ele><time>2026-05-01T10:43:22.001Z</time></trkpt><trkpt lat="47.740091979712346" lon="11.451599957340935"><ele>659.4000000000001</ele><time>2026-05-01T10:43:23.001Z</time></trkpt><trkpt lat="47.740180490566836" lon="11.45168111502355"><ele>659.8</ele><time>2026-05-01T10:43:24.001Z</time></trkpt><trkpt lat="47.74027109674655" lon="11.451757463772937"><ele>660.2</ele><time>2026-05-01T10:43:25.001Z</time></trkpt><trkpt lat="47.740361827543225" lon="11.451833843026455"><ele>660.5999999999999</ele><time>2026-05-01T10:43:26.001Z</time></trkpt><trkpt lat="47.74045238265451" lon="11.451914559011293"><ele>661.0</ele><time>2026-05-01T10:43:27.001Z</time></trkpt><trkpt lat="47.74055269637853" lon="11.451975138097144"><ele>661.8</ele><time>2026-05-01T10:43:28.001Z</time></trkpt><trkpt lat="47.74064356396727" lon="11.452064817311168"><ele>662.5999999999999</ele><time>2026-05-01T10:43:29.001Z</time></trkpt><trkpt lat="47.7407338641673" lon="11.452156285614565"><ele>663.4</ele><time>2026-05-01T10:43:30.001Z</time></trkpt><trkpt lat="47.74082419150558" lon="11.452245000330226"><ele>664.2</ele><time>2026-05-01T10:43:31.001Z</time></trkpt><trkpt lat="47.740904436378614" lon="11.452332987712314"><ele>665.0</ele><time>2026-05-01T10:43:32.001Z</time></trkpt><trkpt lat="47.74096285980994" lon="11.452445578862136"><ele>665.0</ele><time>2026-05-01T10:43:33.001Z</time></trkpt><trkpt lat="47.74102632370647" lon="11.452547822816234"><ele>665.0</ele><time>2026-05-01T10:43:34.001Z</time></trkpt><trkpt lat="47.74107933434024" lon="11.452643288563992"><ele>665.0</ele><time>2026-05-01T10:43:35.001Z</time></trkpt><trkpt lat="47.74113332123605" lon="11.45275157739022"><ele>665.0</ele><time>2026-05-01T10:43:37.001Z</time></trkpt><trkpt lat="47.741300065103715" lon="11.453030950258443"><ele>665.6</ele><time>2026-05-01T10:43:48.001Z</time></trkpt><trkpt lat="47.74130519849295" lon="11.453171328794408"><ele>666.2</ele><time>2026-05-01T10:43:49.001Z</time></trkpt><trkpt lat="47.74135982080073" lon="11.453312571804766"><ele>666.8</ele><time>2026-05-01T10:43:50.001Z</time></trkpt><trkpt lat="47.74141518105024" lon="11.453455006696053"><ele>667.4</ele><time>2026-05-01T10:43:51.001Z</time></trkpt><trkpt lat="47.74147006403334" lon="11.453596213805861"><ele>668.0</ele><time>2026-05-01T10:43:52.001Z</time></trkpt><trkpt lat="47.741537873068474" lon="11.453766850754443"><ele>669.0</ele><time>2026-05-01T10:43:53.001Z</time></trkpt><trkpt lat="47.74161480522494" lon="11.45395826316074"><ele>670.0</ele><time>2026-05-01T10:43:54.001Z</time></trkpt><trkpt lat="47.74168966211083" lon="11.454143623849674"><ele>671.0</ele><time>2026-05-01T10:43:55.001Z</time></trkpt><trkpt lat="47.741760618598526" lon="11.454315354972833"><ele>672.0</ele><time>2026-05-01T10:43:56.001Z</time></trkpt><trkpt lat="47.741833671840446" lon="11.454483872644472"><ele>671.75</ele><time>2026-05-01T10:43:57.001Z</time></trkpt><trkpt lat="47.74190907750298" lon="11.454649656113718"><ele>671.5</ele><time>2026-05-01T10:43:58.001Z</time></trkpt><trkpt lat="47.74198623414745" lon="11.454815115908387"><ele>671.25</ele><time>2026-05-01T10:43:59.001Z</time></trkpt><trkpt lat="47.742066092136824" lon="11.45497988211592"><ele>671.0</ele><time>2026-05-01T10:44:00.001Z</time></trkpt><trkpt lat="47.74214697870131" lon="11.455142951042648"><ele>671.0</ele><time>2026-05-01T10:44:01.001Z</time></trkpt><trkpt lat="47.742231053494834" lon="11.45530300310549"><ele>671.0</ele><time>2026-05-01T10:44:02.001Z</time></trkpt><trkpt lat="47.74231206169933" lon="11.455453603069206"><ele>671.0</ele><time>2026-05-01T10:44:03.001Z</time></trkpt><trkpt lat="47.74239203500123" lon="11.455601321873704"><ele>671.0</ele><time>2026-05-01T10:44:04.001Z</time></trkpt><trkpt lat="47.742476186206815" lon="11.455752038072411"><ele>671.0</ele><time>2026-05-01T10:44:05.001Z</time></trkpt><trkpt lat="47.7425633434772" lon="11.45590713874268"><ele>671.0</ele><time>2026-05-01T10:44:06.001Z</time></trkpt><trkpt lat="47.74265341425578" lon="11.456063671438374"><ele>671.0</ele><time>2026-05-01T10:44:07.001Z</time></trkpt><trkpt lat="47.74274586345722" lon="11.456224337563702"><ele>671.0</ele><time>2026-05-01T10:44:08.001Z</time></trkpt><trkpt lat="47.7428393801925" lon="11.456386453439483"><ele>671.5</ele><time>2026-05-01T10:44:09.001Z</time></trkpt><trkpt lat="47.74293308962566" lon="11.456544068681634"><ele>672.0</ele><time>2026-05-01T10:44:10.001Z</time></trkpt><trkpt lat="47.743025678274144" lon="11.456695603602135"><ele>672.5</ele><time>2026-05-01T10:44:11.001Z</time></trkpt><trkpt lat="47.74311875752465" lon="11.45684591589689"><ele>673.0</ele><time>2026-05-01T10:44:12.001Z</time></trkpt><trkpt lat="47.743215956543" lon="11.456999112674891"><ele>673.75</ele><time>2026-05-01T10:44:13.001Z</time></trkpt><trkpt lat="47.743314070697586" lon="11.457150497552286"><ele>674.5</ele><time>2026-05-01T10:44:14.001Z</time></trkpt><trkpt lat="47.74341490682925" lon="11.45730225620865"><ele>675.25</ele><time>2026-05-01T10:44:15.001Z</time></trkpt><trkpt lat="47.743515031283586" lon="11.45745024771153"><ele>676.0</ele><time>2026-05-01T10:44:16.001Z</time></trkpt><trkpt lat="47.74361498691181" lon="11.457593060096467"><ele>676.0</ele><time>2026-05-01T10:44:17.001Z</time></trkpt><trkpt lat="47.743712934387744" lon="11.457727596751477"><ele>676.0</ele><time>2026-05-01T10:44:18.001Z</time></trkpt><trkpt lat="47.74383244538259" lon="11.457831896339265"><ele>676.0</ele><time>2026-05-01T10:44:19.001Z</time></trkpt><trkpt lat="47.743935869104455" lon="11.457966670264808"><ele>676.0</ele><time>2026-05-01T10:44:20.001Z</time></trkpt><trkpt lat="47.74403987546062" lon="11.458100485296137"><ele>677.25</ele><time>2026-05-01T10:44:21.001Z</time></trkpt><trkpt lat="47.744132197235594" lon="11.458247170947061"><ele>678.5</ele><time>2026-05-01T10:44:22.001Z</time></trkpt><trkpt lat="47.744238816728654" lon="11.458380579969994"><ele>679.75</ele><time>2026-05-01T10:44:23.001Z</time></trkpt><trkpt lat="47.74433632653963" lon="11.458522622363896"><ele>681.0</ele><time>2026-05-01T10:44:24.001Z</time></trkpt><trkpt lat="47.744407296061695" lon="11.45869796176869"><ele>681.5</ele><time>2026-05-01T10:44:25.001Z</time></trkpt><trkpt lat="47.74449776956895" lon="11.458843824580702"><ele>682.0</ele><time>2026-05-01T10:44:26.001Z</time></trkpt><trkpt lat="47.744586263274044" lon="11.45898974277303"><ele>682.5</ele><time>2026-05-01T10:44:27.001Z</time></trkpt><trkpt lat="47.744667259692406" lon="11.459137553408343"><ele>683.0</ele><time>2026-05-01T10:44:28.001Z</time></trkpt><trkpt lat="47.744747833935016" lon="11.45928368198251"><ele>683.0</ele><time>2026-05-01T10:44:29.001Z</time></trkpt><trkpt lat="47.74482523527341" lon="11.459431136999536"><ele>683.0</ele><time>2026-05-01T10:44:30.001Z</time></trkpt><trkpt lat="47.74489625384802" lon="11.459567954500585"><ele>683.0</ele><time>2026-05-01T10:44:31.001Z</time></trkpt><trkpt lat="47.744960722525306" lon="11.45969545014155"><ele>683.0</ele><time>2026-05-01T10:44:32.001Z</time></trkpt><trkpt lat="47.74501300664575" lon="11.459808473083994"><ele>683.0</ele><time>2026-05-01T10:44:33.001Z</time></trkpt><trkpt lat="47.74505785781231" lon="11.459911803685648"><ele>682.8333333333333</ele><time>2026-05-01T10:44:34.001Z</time></trkpt><trkpt lat="47.745122919832326" lon="11.459986690971823"><ele>682.6666666666666</ele><time>2026-05-01T10:44:35.001Z</time></trkpt><trkpt lat="47.745142096326205" lon="11.460096512933369"><ele>682.5</ele><time>2026-05-01T10:44:36.001Z</time></trkpt><trkpt lat="47.74514884953844" lon="11.460212827536749"><ele>682.3333333333334</ele><time>2026-05-01T10:44:37.001Z</time></trkpt><trkpt lat="47.74513935514283" lon="11.460325259667762"><ele>682.1666666666667</ele><time>2026-05-01T10:44:38.001Z</time></trkpt><trkpt lat="47.74520188531879" lon="11.460424749107052"><ele>682.0</ele><time>2026-05-01T10:44:39.001Z</time></trkpt><trkpt lat="47.74526988437951" lon="11.460505545070632"><ele>682.0</ele><time>2026-05-01T10:44:40.001Z</time></trkpt><trkpt lat="47.745340776601786" lon="11.46058266258689"><ele>682.0</ele><time>2026-05-01T10:44:41.001Z</time></trkpt><trkpt lat="47.74541669563978" lon="11.460675576096001"><ele>682.0</ele><time>2026-05-01T10:44:42.001Z</time></trkpt><trkpt lat="47.745480462596916" lon="11.460800908080564"><ele>682.0</ele><time>2026-05-01T10:44:43.001Z</time></trkpt><trkpt lat="47.745500890919125" lon="11.460973377066118"><ele>682.0</ele><time>2026-05-01T10:44:44.001Z</time></trkpt><trkpt lat="47.74555342385521" lon="11.461121978169807"><ele>682.0</ele><time>2026-05-01T10:44:45.001Z</time></trkpt><trkpt lat="47.74560793098521" lon="11.46127591661139"><ele>682.0</ele><time>2026-05-01T10:44:46.001Z</time></trkpt><trkpt lat="47.74566031989665" lon="11.46143136041955"><ele>682.0</ele><time>2026-05-01T10:44:47.001Z</time></trkpt><trkpt lat="47.74571227380988" lon="11.461591128620753"><ele>682.0</ele><time>2026-05-01T10:44:48.001Z</time></trkpt><trkpt lat="47.74576091775203" lon="11.461758022634104"><ele>682.5</ele><time>2026-05-01T10:44:49.001Z</time></trkpt><trkpt lat="47.745808586708705" lon="11.461927227611703"><ele>683.0</ele><time>2026-05-01T10:44:50.001Z</time></trkpt><trkpt lat="47.745853778649106" lon="11.4620947664576"><ele>683.5</ele><time>2026-05-01T10:44:51.001Z</time></trkpt><trkpt lat="47.74589849494133" lon="11.462270159957193"><ele>684.0</ele><time>2026-05-01T10:44:52.001Z</time></trkpt><trkpt lat="47.745941903589305" lon="11.462452424611445"><ele>684.0</ele><time>2026-05-01T10:44:53.001Z</time></trkpt><trkpt lat="47.745985293428696" lon="11.462638621734417"><ele>684.0</ele><time>2026-05-01T10:44:54.001Z</time></trkpt><trkpt lat="47.746027998378715" lon="11.462828326860715"><ele>684.0</ele><time>2026-05-01T10:44:55.001Z</time></trkpt><trkpt lat="47.746068456049905" lon="11.463022471087031"><ele>684.0</ele><time>2026-05-01T10:44:56.001Z</time></trkpt><trkpt lat="47.74610859840529" lon="11.463219096504249"><ele>683.75</ele><time>2026-05-01T10:44:57.001Z</time></trkpt><trkpt lat="47.746146004996355" lon="11.46341294040048"><ele>683.5</ele><time>2026-05-01T10:44:58.001Z</time></trkpt><trkpt lat="47.746179743788765" lon="11.463602515940504"><ele>683.25</ele><time>2026-05-01T10:44:59.001Z</time></trkpt><trkpt lat="47.74621120053637" lon="11.463784539835771"><ele>683.0</ele><time>2026-05-01T10:45:00.001Z</time></trkpt><trkpt lat="47.74624086501995" lon="11.463969920584422"><ele>683.0</ele><time>2026-05-01T10:45:01.001Z</time></trkpt><trkpt lat="47.74626889511675" lon="11.46415871151726"><ele>683.0</ele><time>2026-05-01T10:45:02.001Z</time></trkpt><trkpt lat="47.74629558521135" lon="11.464348908763561"><ele>683.0</ele><time>2026-05-01T10:45:03.001Z</time></trkpt><trkpt lat="47.74631660833879" lon="11.46453923989536"><ele>683.0</ele><time>2026-05-01T10:45:04.001Z</time></trkpt><trkpt lat="47.74633245755199" lon="11.464731222807945"><ele>684.25</ele><time>2026-05-01T10:45:05.001Z</time></trkpt><trkpt lat="47.746345803682956" lon="11.464923404119519"><ele>685.5</ele><time>2026-05-01T10:45:06.001Z</time></trkpt><trkpt lat="47.7463573468442" lon="11.46511401427159"><ele>686.75</ele><time>2026-05-01T10:45:07.001Z</time></trkpt><trkpt lat="47.746364848000226" lon="11.465305118712678"><ele>688.0</ele><time>2026-05-01T10:45:08.001Z</time></trkpt><trkpt lat="47.74636969956574" lon="11.465496626402755"><ele>687.75</ele><time>2026-05-01T10:45:09.001Z</time></trkpt><trkpt lat="47.746370659416435" lon="11.46569265089093"><ele>687.5</ele><time>2026-05-01T10:45:10.001Z</time></trkpt><trkpt lat="47.74636673561061" lon="11.465889093871096"><ele>687.25</ele><time>2026-05-01T10:45:11.001Z</time></trkpt><trkpt lat="47.746359807266316" lon="11.466085781030744"><ele>687.0</ele><time>2026-05-01T10:45:12.001Z</time></trkpt><trkpt lat="47.746350037490835" lon="11.466283294793415"><ele>687.0</ele><time>2026-05-01T10:45:13.001Z</time></trkpt><trkpt lat="47.746351914854024" lon="11.466483122632237"><ele>687.0</ele><time>2026-05-01T10:45:14.001Z</time></trkpt><trkpt lat="47.74631890191088" lon="11.466675537370007"><ele>687.0</ele><time>2026-05-01T10:45:15.001Z</time></trkpt><trkpt lat="47.7463013622661" lon="11.466872997264359"><ele>687.0</ele><time>2026-05-01T10:45:16.001Z</time></trkpt><trkpt lat="47.74628195896227" lon="11.467066689468005"><ele>686.75</ele><time>2026-05-01T10:45:17.001Z</time></trkpt><trkpt lat="47.74626063835717" lon="11.467263014373797"><ele>686.5</ele><time>2026-05-01T10:45:18.001Z</time></trkpt><trkpt lat="47.74623469594805" lon="11.467460298733377"><ele>686.25</ele><time>2026-05-01T10:45:19.001Z</time></trkpt><trkpt lat="47.74620952040114" lon="11.467658871821547"><ele>686.0</ele><time>2026-05-01T10:45:20.001Z</time></trkpt><trkpt lat="47.74618524423026" lon="11.467857520967504"><ele>686.25</ele><time>2026-05-01T10:45:21.001Z</time></trkpt><trkpt lat="47.74616091715203" lon="11.468060735665906"><ele>686.5</ele><time>2026-05-01T10:45:22.001Z</time></trkpt><trkpt lat="47.746136237369186" lon="11.468266896663737"><ele>686.75</ele><time>2026-05-01T10:45:23.001Z</time></trkpt><trkpt lat="47.746112641988" lon="11.468477112012614"><ele>687.0</ele><time>2026-05-01T10:45:24.001Z</time></trkpt><trkpt lat="47.746091614391126" lon="11.468684386234461"><ele>687.25</ele><time>2026-05-01T10:45:25.001Z</time></trkpt><trkpt lat="47.74607361744616" lon="11.468891727554404"><ele>687.5</ele><time>2026-05-01T10:45:26.001Z</time></trkpt><trkpt lat="47.746058968252505" lon="11.469100058007932"><ele>687.75</ele><time>2026-05-01T10:45:27.001Z</time></trkpt><trkpt lat="47.74604916617161" lon="11.469309957843974"><ele>688.0</ele><time>2026-05-01T10:45:28.001Z</time></trkpt><trkpt lat="47.74604606292537" lon="11.469522439508212"><ele>688.25</ele><time>2026-05-01T10:45:29.001Z</time></trkpt><trkpt lat="47.746051049252465" lon="11.469736946719014"><ele>688.5</ele><time>2026-05-01T10:45:30.001Z</time></trkpt><trkpt lat="47.746061609824984" lon="11.46995007932268"><ele>688.75</ele><time>2026-05-01T10:45:31.001Z</time></trkpt><trkpt lat="47.74607568913934" lon="11.470163711927421"><ele>689.0</ele><time>2026-05-01T10:45:32.001Z</time></trkpt><trkpt lat="47.74609135939758" lon="11.470375123059203"><ele>690.25</ele><time>2026-05-01T10:45:33.001Z</time></trkpt><trkpt lat="47.74611872932046" lon="11.470588480589342"><ele>691.5</ele><time>2026-05-01T10:45:34.001Z</time></trkpt><trkpt lat="47.7461461940928" lon="11.47079682701059"><ele>692.75</ele><time>2026-05-01T10:45:35.001Z</time></trkpt><trkpt lat="47.74617341794802" lon="11.471003345859199"><ele>694.0</ele><time>2026-05-01T10:45:36.001Z</time></trkpt><trkpt lat="47.74620127295344" lon="11.471214652582091"><ele>694.5</ele><time>2026-05-01T10:45:37.001Z</time></trkpt><trkpt lat="47.746228984266104" lon="11.471426468132226"><ele>695.0</ele><time>2026-05-01T10:45:38.001Z</time></trkpt><trkpt lat="47.746255221976426" lon="11.471635922571101"><ele>695.5</ele><time>2026-05-01T10:45:39.001Z</time></trkpt><trkpt lat="47.74628214982667" lon="11.47185088636384"><ele>696.0</ele><time>2026-05-01T10:45:40.001Z</time></trkpt><trkpt lat="47.74630929287039" lon="11.472081636863873"><ele>697.0</ele><time>2026-05-01T10:45:41.001Z</time></trkpt><trkpt lat="47.74633599726352" lon="11.472336797290636"><ele>698.0</ele><time>2026-05-01T10:45:42.001Z</time></trkpt><trkpt lat="47.746361549646345" lon="11.47261437321781"><ele>699.0</ele><time>2026-05-01T10:45:43.001Z</time></trkpt><trkpt lat="47.746385173013095" lon="11.472911410309894"><ele>699.0</ele><time>2026-05-01T10:45:44.001Z</time></trkpt><trkpt lat="47.746405929080936" lon="11.473212728866939"><ele>699.0</ele><time>2026-05-01T10:45:45.001Z</time></trkpt><trkpt lat="47.746423271270764" lon="11.473514763031787"><ele>699.0</ele><time>2026-05-01T10:45:46.001Z</time></trkpt><trkpt lat="47.74643792034734" lon="11.473833531264837"><ele>700.3333333333334</ele><time>2026-05-01T10:45:47.001Z</time></trkpt><trkpt lat="47.74645087246534" lon="11.474164146355927"><ele>701.6666666666667</ele><time>2026-05-01T10:45:48.001Z</time></trkpt><trkpt lat="47.746463435109305" lon="11.474488198220353"><ele>703.0</ele><time>2026-05-01T10:45:49.001Z</time></trkpt><trkpt lat="47.74647511887716" lon="11.474802578100878"><ele>702.6666666666667</ele><time>2026-05-01T10:45:50.001Z</time></trkpt><trkpt lat="47.74648967202228" lon="11.475120551628688"><ele>702.3333333333334</ele><time>2026-05-01T10:45:51.001Z</time></trkpt><trkpt lat="47.746507713722345" lon="11.475438342002358"><ele>702.0</ele><time>2026-05-01T10:45:52.001Z</time></trkpt><trkpt lat="47.74652756997637" lon="11.475753784425292"><ele>702.0</ele><time>2026-05-01T10:45:53.001Z</time></trkpt><trkpt lat="47.74655145449154" lon="11.476078068587993"><ele>702.0</ele><time>2026-05-01T10:45:54.001Z</time></trkpt><trkpt lat="47.74657978214415" lon="11.476408413464794"><ele>702.0</ele><time>2026-05-01T10:45:55.001Z</time></trkpt><trkpt lat="47.746613236635476" lon="11.476745684296088"><ele>702.6666666666666</ele><time>2026-05-01T10:45:56.001Z</time></trkpt><trkpt lat="47.74664958044925" lon="11.477075115941052"><ele>703.3333333333333</ele><time>2026-05-01T10:45:57.001Z</time></trkpt><trkpt lat="47.746686594421064" lon="11.477399741645732"><ele>704.0</ele><time>2026-05-01T10:45:58.001Z</time></trkpt><trkpt lat="47.74672719083955" lon="11.477733039601516"><ele>707.0</ele><time>2026-05-01T10:45:59.001Z</time></trkpt><trkpt lat="47.74677277352895" lon="11.478064503552249"><ele>710.0</ele><time>2026-05-01T10:46:00.001Z</time></trkpt><trkpt lat="47.74682265546799" lon="11.47838882940846"><ele>710.0</ele><time>2026-05-01T10:46:01.001Z</time></trkpt><trkpt lat="47.74687226477462" lon="11.4786965335928"><ele>710.0</ele><time>2026-05-01T10:46:02.001Z</time></trkpt><trkpt lat="47.74693947826052" lon="11.478990838494044"><ele>710.0</ele><time>2026-05-01T10:46:03.001Z</time></trkpt><trkpt lat="47.746993224951524" lon="11.479277373042018"><ele>708.0</ele><time>2026-05-01T10:46:04.001Z</time></trkpt><trkpt lat="47.74704861370941" lon="11.479569219374333"><ele>706.0</ele><time>2026-05-01T10:46:05.001Z</time></trkpt><trkpt lat="47.74710858185396" lon="11.47986202494624"><ele>704.0</ele><time>2026-05-01T10:46:06.001Z</time></trkpt><trkpt lat="47.74716838180579" lon="11.480150571128682"><ele>704.0</ele><time>2026-05-01T10:46:07.001Z</time></trkpt><trkpt lat="47.747214306090356" lon="11.480431210343557"><ele>704.0</ele><time>2026-05-01T10:46:08.001Z</time></trkpt><trkpt lat="47.74727774130509" lon="11.480711582599604"><ele>704.0</ele><time>2026-05-01T10:46:09.001Z</time></trkpt><trkpt lat="47.74734476933147" lon="11.480990373555672"><ele>705.0</ele><time>2026-05-01T10:46:10.001Z</time></trkpt><trkpt lat="47.747413039447615" lon="11.481264809829336"><ele>706.0</ele><time>2026-05-01T10:46:11.001Z</time></trkpt><trkpt lat="47.747482944363114" lon="11.481539044631257"><ele>707.0</ele><time>2026-05-01T10:46:12.001Z</time></trkpt><trkpt lat="47.74755572696158" lon="11.48181407617416"><ele>707.0</ele><time>2026-05-01T10:46:13.001Z</time></trkpt><trkpt lat="47.747630790238176" lon="11.48208875197418"><ele>707.0</ele><time>2026-05-01T10:46:14.001Z</time></trkpt><trkpt lat="47.74770797165515" lon="11.482369755327365"><ele>707.0</ele><time>2026-05-01T10:46:15.001Z</time></trkpt><trkpt lat="47.74778693062553" lon="11.482657030631712"><ele>707.6666666666666</ele><time>2026-05-01T10:46:16.001Z</time></trkpt><trkpt lat="47.74786684152572" lon="11.482945214567092"><ele>708.3333333333334</ele><time>2026-05-01T10:46:17.001Z</time></trkpt><trkpt lat="47.74794581326933" lon="11.48323347131814"><ele>709.0</ele><time>2026-05-01T10:46:18.001Z</time></trkpt><trkpt lat="47.748023842763764" lon="11.48352298985097"><ele>710.0</ele><time>2026-05-01T10:46:19.001Z</time></trkpt><trkpt lat="47.74810009555646" lon="11.48381594461917"><ele>711.0</ele><time>2026-05-01T10:46:20.001Z</time></trkpt><trkpt lat="47.748173284389516" lon="11.484114384786704"><ele>712.0</ele><time>2026-05-01T10:46:21.001Z</time></trkpt><trkpt lat="47.74824325546021" lon="11.48441545495446"><ele>712.0</ele><time>2026-05-01T10:46:22.001Z</time></trkpt><trkpt lat="47.74830761655075" lon="11.48471810170864"><ele>712.0</ele><time>2026-05-01T10:46:23.001Z</time></trkpt><trkpt lat="47.74836769045791" lon="11.485021368731413"><ele>712.0</ele><time>2026-05-01T10:46:24.001Z</time></trkpt><trkpt lat="47.74842352891817" lon="11.485327441878717"><ele>712.3333333333334</ele><time>2026-05-01T10:46:25.001Z</time></trkpt><trkpt lat="47.748477632527596" lon="11.485639566236216"><ele>712.6666666666666</ele><time>2026-05-01T10:46:26.001Z</time></trkpt><trkpt lat="47.748528165457316" lon="11.485956663423417"><ele>713.0</ele><time>2026-05-01T10:46:27.001Z</time></trkpt><trkpt lat="47.74857385708958" lon="11.486278736456438"><ele>713.0</ele><time>2026-05-01T10:46:28.001Z</time></trkpt><trkpt lat="47.74861555691598" lon="11.486604931671083"><ele>713.0</ele><time>2026-05-01T10:46:29.001Z</time></trkpt><trkpt lat="47.748653193855915" lon="11.486931567857056"><ele>713.0</ele><time>2026-05-01T10:46:30.001Z</time></trkpt><trkpt lat="47.74868680173114" lon="11.487260987666629"><ele>713.6666666666666</ele><time>2026-05-01T10:46:31.001Z</time></trkpt><trkpt lat="47.74871432387739" lon="11.48759091932423"><ele>714.3333333333334</ele><time>2026-05-01T10:46:32.001Z</time></trkpt><trkpt lat="47.74873803858715" lon="11.487920434434026"><ele>715.0</ele><time>2026-05-01T10:46:33.001Z</time></trkpt><trkpt lat="47.748756694498184" lon="11.48824972528522"><ele>715.3333333333334</ele><time>2026-05-01T10:46:34.001Z</time></trkpt><trkpt lat="47.74877180421184" lon="11.488577894812414"><ele>715.6666666666666</ele><time>2026-05-01T10:46:35.001Z</time></trkpt><trkpt lat="47.74877581682166" lon="11.488909574339381"><ele>716.0</ele><time>2026-05-01T10:46:36.001Z</time></trkpt><trkpt lat="47.74878988086887" lon="11.48924485798215"><ele>715.0</ele><time>2026-05-01T10:46:37.001Z</time></trkpt><trkpt lat="47.748783417518524" lon="11.489582792445049"><ele>714.0</ele><time>2026-05-01T10:46:38.001Z</time></trkpt><trkpt lat="47.748774245931514" lon="11.489923818454091"><ele>714.0</ele><time>2026-05-01T10:46:39.001Z</time></trkpt><trkpt lat="47.748762459219954" lon="11.490262252859262"><ele>714.0</ele><time>2026-05-01T10:46:40.001Z</time></trkpt><trkpt lat="47.748747716656936" lon="11.490583081027188"><ele>714.0</ele><time>2026-05-01T10:46:41.001Z</time></trkpt><trkpt lat="47.74873106521096" lon="11.490888543022583"><ele>714.0</ele><time>2026-05-01T10:46:42.001Z</time></trkpt><trkpt lat="47.74871179188785" lon="11.491197234295482"><ele>714.0</ele><time>2026-05-01T10:46:43.001Z</time></trkpt><trkpt lat="47.748685809486204" lon="11.491508527027626"><ele>714.0</ele><time>2026-05-01T10:46:44.001Z</time></trkpt><trkpt lat="47.748656138136404" lon="11.491823262128"><ele>714.0</ele><time>2026-05-01T10:46:45.001Z</time></trkpt><trkpt lat="47.74862159864229" lon="11.492141532816929"><ele>714.0</ele><time>2026-05-01T10:46:46.001Z</time></trkpt><trkpt lat="47.74858429954577" lon="11.49245981182017"><ele>714.0</ele><time>2026-05-01T10:46:47.001Z</time></trkpt><trkpt lat="47.74854984575988" lon="11.492781711255269"><ele>714.3333333333334</ele><time>2026-05-01T10:46:48.001Z</time></trkpt><trkpt lat="47.74852141744919" lon="11.493106171180392"><ele>714.6666666666667</ele><time>2026-05-01T10:46:49.001Z</time></trkpt><trkpt lat="47.74849745275963" lon="11.493433381465366"><ele>715.0</ele><time>2026-05-01T10:46:50.001Z</time></trkpt><trkpt lat="47.748476722890835" lon="11.493763006198886"><ele>716.3333333333334</ele><time>2026-05-01T10:46:51.001Z</time></trkpt><trkpt lat="47.74845947457646" lon="11.49409218461658"><ele>717.6666666666666</ele><time>2026-05-01T10:46:52.001Z</time></trkpt><trkpt lat="47.74844341000598" lon="11.494421888352733"><ele>719.0</ele><time>2026-05-01T10:46:53.001Z</time></trkpt><trkpt lat="47.74842935481179" lon="11.494744163375666"><ele>720.6666666666666</ele><time>2026-05-01T10:46:54.001Z</time></trkpt><trkpt lat="47.74841892937151" lon="11.49505922818157"><ele>722.3333333333334</ele><time>2026-05-01T10:46:55.001Z</time></trkpt><trkpt lat="47.748412917419394" lon="11.495370745305712"><ele>724.0</ele><time>2026-05-01T10:46:56.001Z</time></trkpt><trkpt lat="47.748406886474825" lon="11.495678356161415"><ele>724.3333333333334</ele><time>2026-05-01T10:46:57.001Z</time></trkpt><trkpt lat="47.74839820456166" lon="11.495986142318822"><ele>724.6666666666666</ele><time>2026-05-01T10:46:58.001Z</time></trkpt><trkpt lat="47.74838352747652" lon="11.49629469504698"><ele>725.0</ele><time>2026-05-01T10:46:59.001Z</time></trkpt><trkpt lat="47.74836259224861" lon="11.496602240314928"><ele>724.0</ele><time>2026-05-01T10:47:00.001Z</time></trkpt><trkpt lat="47.74833705501127" lon="11.496893667634286"><ele>723.0</ele><time>2026-05-01T10:47:01.001Z</time></trkpt><trkpt lat="47.74830863587629" lon="11.497179294963175"><ele>722.0</ele><time>2026-05-01T10:47:02.001Z</time></trkpt><trkpt lat="47.748281705894065" lon="11.497458647393756"><ele>720.6666666666666</ele><time>2026-05-01T10:47:03.001Z</time></trkpt><trkpt lat="47.74825674447555" lon="11.497733274365633"><ele>719.3333333333334</ele><time>2026-05-01T10:47:04.001Z</time></trkpt><trkpt lat="47.74823442181019" lon="11.49800862121392"><ele>718.0</ele><time>2026-05-01T10:47:05.001Z</time></trkpt><trkpt lat="47.74821632361449" lon="11.498273476680136"><ele>717.0</ele><time>2026-05-01T10:47:06.001Z</time></trkpt><trkpt lat="47.74820724300274" lon="11.498536417484901"><ele>716.0</ele><time>2026-05-01T10:47:07.001Z</time></trkpt><trkpt lat="47.74820388100374" lon="11.498805387994627"><ele>715.0</ele><time>2026-05-01T10:47:08.001Z</time></trkpt><trkpt lat="47.74820371019108" lon="11.499077008542896"><ele>715.0</ele><time>2026-05-01T10:47:09.001Z</time></trkpt><trkpt lat="47.74820782386948" lon="11.49935010711566"><ele>715.0</ele><time>2026-05-01T10:47:10.001Z</time></trkpt><trkpt lat="47.748215402302606" lon="11.499624985515199"><ele>715.0</ele><time>2026-05-01T10:47:11.001Z</time></trkpt><trkpt lat="47.748225752489816" lon="11.499903498562327"><ele>715.3333333333334</ele><time>2026-05-01T10:47:12.001Z</time></trkpt><trkpt lat="47.74823973350074" lon="11.50018482728237"><ele>715.6666666666666</ele><time>2026-05-01T10:47:13.001Z</time></trkpt><trkpt lat="47.74825716284905" lon="11.500470904368134"><ele>716.0</ele><time>2026-05-01T10:47:14.001Z</time></trkpt><trkpt lat="47.748275828394725" lon="11.500760019586545"><ele>716.6666666666666</ele><time>2026-05-01T10:47:15.001Z</time></trkpt><trkpt lat="47.74830175866126" lon="11.501050642347714"><ele>717.3333333333334</ele><time>2026-05-01T10:47:16.001Z</time></trkpt><trkpt lat="47.748330930760865" lon="11.501339153264889"><ele>718.0</ele><time>2026-05-01T10:47:17.001Z</time></trkpt><trkpt lat="47.74836114088332" lon="11.501611134632446"><ele>718.6666666666667</ele><time>2026-05-01T10:47:18.001Z</time></trkpt><trkpt lat="47.74839491452065" lon="11.501888087910801"><ele>719.3333333333334</ele><time>2026-05-01T10:47:19.001Z</time></trkpt><trkpt lat="47.74843102756218" lon="11.502167395183827"><ele>720.0</ele><time>2026-05-01T10:47:20.001Z</time></trkpt><trkpt lat="47.74846584590298" lon="11.502443395828289"><ele>722.0</ele><time>2026-05-01T10:47:21.001Z</time></trkpt><trkpt lat="47.74849510976608" lon="11.502707207128244"><ele>724.0</ele><time>2026-05-01T10:47:22.001Z</time></trkpt><trkpt lat="47.748515318586215" lon="11.502969294200973"><ele>726.0</ele><time>2026-05-01T10:47:23.001Z</time></trkpt><trkpt lat="47.748526981764385" lon="11.503237600701805"><ele>728.0</ele><time>2026-05-01T10:47:24.001Z</time></trkpt><trkpt lat="47.74852657123072" lon="11.503510146419151"><ele>730.0</ele><time>2026-05-01T10:47:25.001Z</time></trkpt><trkpt lat="47.748519132160844" lon="11.503786926437616"><ele>732.0</ele><time>2026-05-01T10:47:26.001Z</time></trkpt><trkpt lat="47.74850384897062" lon="11.504064669567304"><ele>733.0</ele><time>2026-05-01T10:47:27.001Z</time></trkpt><trkpt lat="47.74848356720595" lon="11.504323433741597"><ele>734.0</ele><time>2026-05-01T10:47:28.001Z</time></trkpt><trkpt lat="47.74845742266018" lon="11.50456854201691"><ele>735.0</ele><time>2026-05-01T10:47:29.001Z</time></trkpt><trkpt lat="47.74842219615033" lon="11.50481799237285"><ele>733.0</ele><time>2026-05-01T10:47:30.001Z</time></trkpt><trkpt lat="47.748384020143554" lon="11.505071900869897"><ele>731.0</ele><time>2026-05-01T10:47:31.001Z</time></trkpt><trkpt lat="47.748345911561586" lon="11.505324697457352"><ele>729.0</ele><time>2026-05-01T10:47:32.001Z</time></trkpt><trkpt lat="47.748311220210745" lon="11.505565790975293"><ele>728.3333333333334</ele><time>2026-05-01T10:47:33.001Z</time></trkpt><trkpt lat="47.74828242723391" lon="11.505807097863578"><ele>727.6666666666667</ele><time>2026-05-01T10:47:34.001Z</time></trkpt><trkpt lat="47.7482626554459" lon="11.506044686480898"><ele>727.0</ele><time>2026-05-01T10:47:35.001Z</time></trkpt><trkpt lat="47.748249529857745" lon="11.506281862728034"><ele>725.0</ele><time>2026-05-01T10:47:36.001Z</time></trkpt><trkpt lat="47.74824117383383" lon="11.506520964102792"><ele>723.0</ele><time>2026-05-01T10:47:37.001Z</time></trkpt><trkpt lat="47.74823873875591" lon="11.50676311683533"><ele>721.0</ele><time>2026-05-01T10:47:38.001Z</time></trkpt><trkpt lat="47.74824148440484" lon="11.507009553715305"><ele>720.3333333333334</ele><time>2026-05-01T10:47:39.001Z</time></trkpt><trkpt lat="47.748252443928806" lon="11.507255891885066"><ele>719.6666666666666</ele><time>2026-05-01T10:47:40.001Z</time></trkpt><trkpt lat="47.748267169750875" lon="11.50750342481724"><ele>719.0</ele><time>2026-05-01T10:47:41.001Z</time></trkpt><trkpt lat="47.74828214171363" lon="11.507750319296276"><ele>719.3333333333333</ele><time>2026-05-01T10:47:42.001Z</time></trkpt><trkpt lat="47.7482911332796" lon="11.507992479185244"><ele>719.6666666666666</ele><time>2026-05-01T10:47:43.001Z</time></trkpt><trkpt lat="47.7482976535486" lon="11.508232671367013"><ele>720.0</ele><time>2026-05-01T10:47:44.001Z</time></trkpt><trkpt lat="47.74830229093528" lon="11.50847563114639"><ele>720.0</ele><time>2026-05-01T10:47:45.001Z</time></trkpt><trkpt lat="47.74830322475397" lon="11.508720810192607"><ele>720.0</ele><time>2026-05-01T10:47:46.001Z</time></trkpt><trkpt lat="47.74830135280028" lon="11.508966609545933"><ele>720.0</ele><time>2026-05-01T10:47:47.001Z</time></trkpt><trkpt lat="47.748295872891404" lon="11.509216082340469"><ele>718.6666666666666</ele><time>2026-05-01T10:47:48.001Z</time></trkpt><trkpt lat="47.74828787278091" lon="11.5094662582785"><ele>717.3333333333333</ele><time>2026-05-01T10:47:49.001Z</time></trkpt><trkpt lat="47.74828021095803" lon="11.509717897838561"><ele>716.0</ele><time>2026-05-01T10:47:50.001Z</time></trkpt><trkpt lat="47.748272023539776" lon="11.509968013039224"><ele>715.3333333333333</ele><time>2026-05-01T10:47:51.001Z</time></trkpt><trkpt lat="47.74826592045228" lon="11.510220279453206"><ele>714.6666666666666</ele><time>2026-05-01T10:47:52.001Z</time></trkpt><trkpt lat="47.748267053887375" lon="11.51047266559281"><ele>714.0</ele><time>2026-05-01T10:47:53.001Z</time></trkpt><trkpt lat="47.748270594321895" lon="11.510723859401422"><ele>714.0</ele><time>2026-05-01T10:47:54.001Z</time></trkpt><trkpt lat="47.74824956575779" lon="11.510979473769323"><ele>714.0</ele><time>2026-05-01T10:47:55.001Z</time></trkpt><trkpt lat="47.748261733072496" lon="11.51123220402722"><ele>714.0</ele><time>2026-05-01T10:47:56.001Z</time></trkpt><trkpt lat="47.748277005483565" lon="11.511487627659834"><ele>714.3333333333334</ele><time>2026-05-01T10:47:57.001Z</time></trkpt><trkpt lat="47.74829282422777" lon="11.511744172723589"><ele>714.6666666666667</ele><time>2026-05-01T10:47:58.001Z</time></trkpt><trkpt lat="47.74830768055319" lon="11.511993367192284"><ele>715.0</ele><time>2026-05-01T10:47:59.001Z</time></trkpt><trkpt lat="47.74832081054152" lon="11.512238967112419"><ele>715.0</ele><time>2026-05-01T10:48:00.001Z</time></trkpt><trkpt lat="47.748332492093986" lon="11.512490885346613"><ele>715.0</ele><time>2026-05-01T10:48:01.001Z</time></trkpt><trkpt lat="47.74834003713615" lon="11.512744730715488"><ele>715.0</ele><time>2026-05-01T10:48:02.001Z</time></trkpt><trkpt lat="47.74834246576085" lon="11.513001693476136"><ele>714.3333333333334</ele><time>2026-05-01T10:48:03.001Z</time></trkpt><trkpt lat="47.74834160779788" lon="11.513258720011734"><ele>713.6666666666666</ele><time>2026-05-01T10:48:04.001Z</time></trkpt><trkpt lat="47.74835344273253" lon="11.513516745954549"><ele>713.0</ele><time>2026-05-01T10:48:05.001Z</time></trkpt><trkpt lat="47.74832498407353" lon="11.513772205630028"><ele>713.0</ele><time>2026-05-01T10:48:06.001Z</time></trkpt><trkpt lat="47.74830916440787" lon="11.514026822939506"><ele>713.0</ele><time>2026-05-01T10:48:07.001Z</time></trkpt><trkpt lat="47.74829101297879" lon="11.514280510369426"><ele>713.0</ele><time>2026-05-01T10:48:08.001Z</time></trkpt><trkpt lat="47.74827307955366" lon="11.514533220409731"><ele>710.0</ele><time>2026-05-01T10:48:09.001Z</time></trkpt><trkpt lat="47.748257677526276" lon="11.514785521934984"><ele>707.0</ele><time>2026-05-01T10:48:10.001Z</time></trkpt><trkpt lat="47.748260298373786" lon="11.515040874590992"><ele>704.0</ele><time>2026-05-01T10:48:11.001Z</time></trkpt><trkpt lat="47.74824483668035" lon="11.515294792674426"><ele>703.6666666666666</ele><time>2026-05-01T10:48:12.001Z</time></trkpt><trkpt lat="47.74823006409659" lon="11.515547035089469"><ele>703.3333333333334</ele><time>2026-05-01T10:48:13.001Z</time></trkpt><trkpt lat="47.748218899580344" lon="11.515796910475402"><ele>703.0</ele><time>2026-05-01T10:48:14.001Z</time></trkpt><trkpt lat="47.74821505448802" lon="11.516044113426057"><ele>702.6666666666667</ele><time>2026-05-01T10:48:15.001Z</time></trkpt><trkpt lat="47.74822083966874" lon="11.516291573126527"><ele>702.3333333333334</ele><time>2026-05-01T10:48:16.001Z</time></trkpt><trkpt lat="47.74824478786088" lon="11.51653906130446"><ele>702.0</ele><time>2026-05-01T10:48:17.001Z</time></trkpt><trkpt lat="47.748275210318596" lon="11.51678867779979"><ele>702.0</ele><time>2026-05-01T10:48:18.001Z</time></trkpt><trkpt lat="47.7483172349371" lon="11.517042750008182"><ele>702.0</ele><time>2026-05-01T10:48:19.001Z</time></trkpt><trkpt lat="47.74836590739537" lon="11.517299934261073"><ele>702.0</ele><time>2026-05-01T10:48:20.001Z</time></trkpt><trkpt lat="47.74842671414637" lon="11.517555223557983"><ele>702.0</ele><time>2026-05-01T10:48:21.001Z</time></trkpt><trkpt lat="47.748501573124344" lon="11.517803361433002"><ele>702.0</ele><time>2026-05-01T10:48:22.001Z</time></trkpt><trkpt lat="47.7485914518757" lon="11.518042302389613"><ele>702.0</ele><time>2026-05-01T10:48:23.001Z</time></trkpt><trkpt lat="47.74869441933183" lon="11.518264175991366"><ele>702.0</ele><time>2026-05-01T10:48:24.001Z</time></trkpt><trkpt lat="47.748790597865195" lon="11.518489098222268"><ele>702.0</ele><time>2026-05-01T10:48:25.001Z</time></trkpt><trkpt lat="47.74890440525034" lon="11.51868472407709"><ele>702.0</ele><time>2026-05-01T10:48:26.001Z</time></trkpt><trkpt lat="47.749024230147796" lon="11.518871675780623"><ele>703.0</ele><time>2026-05-01T10:48:27.001Z</time></trkpt><trkpt lat="47.749153730751324" lon="11.519037776262074"><ele>704.0</ele><time>2026-05-01T10:48:28.001Z</time></trkpt><trkpt lat="47.74927236530352" lon="11.519228768616657"><ele>705.0</ele><time>2026-05-01T10:48:29.001Z</time></trkpt><trkpt lat="47.74938674303593" lon="11.519425838273966"><ele>704.0</ele><time>2026-05-01T10:48:30.001Z</time></trkpt><trkpt lat="47.74949452274663" lon="11.519629336058172"><ele>703.0</ele><time>2026-05-01T10:48:31.001Z</time></trkpt><trkpt lat="47.74959598584224" lon="11.519838153327028"><ele>702.0</ele><time>2026-05-01T10:48:32.001Z</time></trkpt><trkpt lat="47.749674448879524" lon="11.52006386327847"><ele>702.0</ele><time>2026-05-01T10:48:33.001Z</time></trkpt><trkpt lat="47.74975716802059" lon="11.520283144036261"><ele>702.0</ele><time>2026-05-01T10:48:34.001Z</time></trkpt><trkpt lat="47.749824081306016" lon="11.520510037904888"><ele>702.0</ele><time>2026-05-01T10:48:35.001Z</time></trkpt><trkpt lat="47.74988221007641" lon="11.520737830076293"><ele>703.3333333333334</ele><time>2026-05-01T10:48:36.001Z</time></trkpt><trkpt lat="47.749930566453514" lon="11.520972257870238"><ele>704.6666666666667</ele><time>2026-05-01T10:48:37.001Z</time></trkpt><trkpt lat="47.74997826045615" lon="11.5212084497174"><ele>706.0</ele><time>2026-05-01T10:48:38.001Z</time></trkpt><trkpt lat="47.75002342044493" lon="11.521448647026698"><ele>707.6666666666667</ele><time>2026-05-01T10:48:39.001Z</time></trkpt><trkpt lat="47.75007075485851" lon="11.52169077880842"><ele>709.3333333333334</ele><time>2026-05-01T10:48:40.001Z</time></trkpt><trkpt lat="47.750126103833175" lon="11.52193062743026"><ele>711.0</ele><time>2026-05-01T10:48:41.001Z</time></trkpt><trkpt lat="47.75019181290718" lon="11.522164900292045"><ele>706.6666666666666</ele><time>2026-05-01T10:48:42.001Z</time></trkpt><trkpt lat="47.75026761288168" lon="11.522395166609025"><ele>702.3333333333333</ele><time>2026-05-01T10:48:43.001Z</time></trkpt><trkpt lat="47.75035218745308" lon="11.522618227030069"><ele>698.0</ele><time>2026-05-01T10:48:44.001Z</time></trkpt><trkpt lat="47.75045004991541" lon="11.522836548224987"><ele>698.3333333333333</ele><time>2026-05-01T10:48:45.001Z</time></trkpt><trkpt lat="47.750555465296856" lon="11.523044027377352"><ele>698.6666666666666</ele><time>2026-05-01T10:48:46.001Z</time></trkpt><trkpt lat="47.750681725417444" lon="11.523232573597332"><ele>699.0</ele><time>2026-05-01T10:48:47.001Z</time></trkpt><trkpt lat="47.75078622398711" lon="11.52344947823834"><ele>699.0</ele><time>2026-05-01T10:48:48.001Z</time></trkpt><trkpt lat="47.75090385205625" lon="11.523652054288082"><ele>699.0</ele><time>2026-05-01T10:48:49.001Z</time></trkpt><trkpt lat="47.75101205966591" lon="11.523848073039643"><ele>699.0</ele><time>2026-05-01T10:48:50.001Z</time></trkpt><trkpt lat="47.751107258001475" lon="11.524045007501512"><ele>699.0</ele><time>2026-05-01T10:48:51.001Z</time></trkpt><trkpt lat="47.75119820110172" lon="11.524250660903395"><ele>699.0</ele><time>2026-05-01T10:48:52.001Z</time></trkpt><trkpt lat="47.75128084555823" lon="11.524466455318938"><ele>699.0</ele><time>2026-05-01T10:48:53.001Z</time></trkpt><trkpt lat="47.751352115767396" lon="11.52468925600596"><ele>699.0</ele><time>2026-05-01T10:48:54.001Z</time></trkpt><trkpt lat="47.75141725990328" lon="11.524920925128681"><ele>699.0</ele><time>2026-05-01T10:48:55.001Z</time></trkpt><trkpt lat="47.751470437436076" lon="11.525156166958633"><ele>699.0</ele><time>2026-05-01T10:48:56.001Z</time></trkpt><trkpt lat="47.75151433089572" lon="11.525399954218656"><ele>697.0</ele><time>2026-05-01T10:48:57.001Z</time></trkpt><trkpt lat="47.75154753683041" lon="11.525640683185928"><ele>695.0</ele><time>2026-05-01T10:48:58.001Z</time></trkpt><trkpt lat="47.751570311809324" lon="11.52588288449363"><ele>693.0</ele><time>2026-05-01T10:48:59.001Z</time></trkpt><trkpt lat="47.75158104055684" lon="11.526125396420793"><ele>691.6666666666666</ele><time>2026-05-01T10:49:00.001Z</time></trkpt><trkpt lat="47.75158046852526" lon="11.52637374684544"><ele>690.3333333333333</ele><time>2026-05-01T10:49:01.001Z</time></trkpt><trkpt lat="47.75157436906204" lon="11.5266215436069"><ele>689.0</ele><time>2026-05-01T10:49:02.001Z</time></trkpt><trkpt lat="47.751555016828746" lon="11.526865138918536"><ele>687.3333333333333</ele><time>2026-05-01T10:49:03.001Z</time></trkpt><trkpt lat="47.751528332945036" lon="11.527110073980706"><ele>685.6666666666666</ele><time>2026-05-01T10:49:04.001Z</time></trkpt><trkpt lat="47.75149299880752" lon="11.527349903516619"><ele>684.0</ele><time>2026-05-01T10:49:05.001Z</time></trkpt><trkpt lat="47.751454755099296" lon="11.527593902968128"><ele>684.0</ele><time>2026-05-01T10:49:06.001Z</time></trkpt><trkpt lat="47.751416182544446" lon="11.527840000494084"><ele>684.0</ele><time>2026-05-01T10:49:07.001Z</time></trkpt><trkpt lat="47.751377605387994" lon="11.528086127380119"><ele>684.0</ele><time>2026-05-01T10:49:08.001Z</time></trkpt><trkpt lat="47.751338817297786" lon="11.528333600050757"><ele>683.6666666666666</ele><time>2026-05-01T10:49:09.001Z</time></trkpt><trkpt lat="47.75130092648791" lon="11.528578418780151"><ele>683.3333333333333</ele><time>2026-05-01T10:49:10.001Z</time></trkpt><trkpt lat="47.751264100274206" lon="11.528818668969603"><ele>683.0</ele><time>2026-05-01T10:49:11.001Z</time></trkpt><trkpt lat="47.751230208828474" lon="11.529056704941942"><ele>683.0</ele><time>2026-05-01T10:49:12.001Z</time></trkpt><trkpt lat="47.75119832715504" lon="11.529293898024708"><ele>683.0</ele><time>2026-05-01T10:49:13.001Z</time></trkpt><trkpt lat="47.751169568498526" lon="11.529537498664002"><ele>683.0</ele><time>2026-05-01T10:49:14.001Z</time></trkpt><trkpt lat="47.75114435784429" lon="11.529781326138872"><ele>682.6666666666666</ele><time>2026-05-01T10:49:15.001Z</time></trkpt><trkpt lat="47.75111971835714" lon="11.530027552637257"><ele>682.3333333333334</ele><time>2026-05-01T10:49:16.001Z</time></trkpt><trkpt lat="47.75109794511858" lon="11.530273551930323"><ele>682.0</ele><time>2026-05-01T10:49:17.001Z</time></trkpt><trkpt lat="47.75108355569323" lon="11.530521239070238"><ele>682.0</ele><time>2026-05-01T10:49:18.001Z</time></trkpt><trkpt lat="47.751073065502965" lon="11.530764791235633"><ele>682.0</ele><time>2026-05-01T10:49:19.001Z</time></trkpt><trkpt lat="47.751065363097986" lon="11.530994824761011"><ele>682.0</ele><time>2026-05-01T10:49:20.001Z</time></trkpt><trkpt lat="47.751061717667284" lon="11.531216972322639"><ele>682.0</ele><time>2026-05-01T10:49:21.001Z</time></trkpt><trkpt lat="47.751063102930566" lon="11.531444290241431"><ele>682.0</ele><time>2026-05-01T10:49:22.001Z</time></trkpt><trkpt lat="47.751066182236144" lon="11.531672919498178"><ele>682.0</ele><time>2026-05-01T10:49:23.001Z</time></trkpt><trkpt lat="47.7510798318092" lon="11.531901756333381"><ele>680.0</ele><time>2026-05-01T10:49:24.001Z</time></trkpt><trkpt lat="47.75109588120689" lon="11.53212354516108"><ele>678.0</ele><time>2026-05-01T10:49:25.001Z</time></trkpt><trkpt lat="47.751128229107515" lon="11.532348554864857"><ele>676.0</ele><time>2026-05-01T10:49:26.001Z</time></trkpt><trkpt lat="47.75114594650554" lon="11.532585908385226"><ele>676.0</ele><time>2026-05-01T10:49:27.001Z</time></trkpt><trkpt lat="47.75116579614216" lon="11.532830618915153"><ele>676.0</ele><time>2026-05-01T10:49:28.001Z</time></trkpt><trkpt lat="47.75119407059248" lon="11.533080472007402"><ele>676.0</ele><time>2026-05-01T10:49:29.001Z</time></trkpt><trkpt lat="47.751225344037444" lon="11.533332510004847"><ele>675.6666666666667</ele><time>2026-05-01T10:49:30.001Z</time></trkpt><trkpt lat="47.751261443409604" lon="11.533584020788954"><ele>675.3333333333334</ele><time>2026-05-01T10:49:31.001Z</time></trkpt><trkpt lat="47.75130350386619" lon="11.533837235051696"><ele>675.0</ele><time>2026-05-01T10:49:32.001Z</time></trkpt><trkpt lat="47.7513500192489" lon="11.534087526806887"><ele>675.0</ele><time>2026-05-01T10:49:33.001Z</time></trkpt><trkpt lat="47.75140116834285" lon="11.53433994138962"><ele>675.0</ele><time>2026-05-01T10:49:34.001Z</time></trkpt><trkpt lat="47.75145636035168" lon="11.534588670546572"><ele>675.0</ele><time>2026-05-01T10:49:35.001Z</time></trkpt><trkpt lat="47.751515293126126" lon="11.534839081952326"><ele>674.6666666666666</ele><time>2026-05-01T10:49:36.001Z</time></trkpt><trkpt lat="47.75157853190126" lon="11.535085611985513"><ele>674.3333333333333</ele><time>2026-05-01T10:49:37.001Z</time></trkpt><trkpt lat="47.751629986113265" lon="11.535339948722463"><ele>674.0</ele><time>2026-05-01T10:49:38.001Z</time></trkpt><trkpt lat="47.75169981859654" lon="11.535578956968074"><ele>674.3333333333333</ele><time>2026-05-01T10:49:39.001Z</time></trkpt><trkpt lat="47.75177156452714" lon="11.535815431762245"><ele>674.6666666666666</ele><time>2026-05-01T10:49:40Z</time></trkpt><trkpt lat="47.75184950410997" lon="11.53604831313086"><ele>675.0</ele><time>2026-05-01T10:49:41Z</time></trkpt><trkpt lat="47.7519344570569" lon="11.536273750547558"><ele>675.0</ele><time>2026-05-01T10:49:42Z</time></trkpt><trkpt lat="47.752022938581455" lon="11.536494983686461"><ele>675.0</ele><time>2026-05-01T10:49:43Z</time></trkpt><trkpt lat="47.75211411677879" lon="11.536714259423"><ele>675.0</ele><time>2026-05-01T10:49:44Z</time></trkpt><trkpt lat="47.75220867602537" lon="11.536925717085763"><ele>679.0</ele><time>2026-05-01T10:49:45Z</time></trkpt><trkpt lat="47.7523070082451" lon="11.537136957807483"><ele>683.0</ele><time>2026-05-01T10:49:46Z</time></trkpt><trkpt lat="47.75240760715495" lon="11.537344901608481"><ele>687.0</ele><time>2026-05-01T10:49:47Z</time></trkpt><trkpt lat="47.75252332883281" lon="11.537535872549185"><ele>687.0</ele><time>2026-05-01T10:49:48Z</time></trkpt><trkpt lat="47.75263052838305" lon="11.5377347234776"><ele>687.0</ele><time>2026-05-01T10:49:49Z</time></trkpt><trkpt lat="47.75274297810303" lon="11.537930026518175"><ele>687.0</ele><time>2026-05-01T10:49:50Z</time></trkpt><trkpt lat="47.75285972558679" lon="11.538123328981293"><ele>685.3333333333334</ele><time>2026-05-01T10:49:51Z</time></trkpt><trkpt lat="47.75298344755872" lon="11.538315169340244"><ele>683.6666666666667</ele><time>2026-05-01T10:49:52Z</time></trkpt><trkpt lat="47.75310969468522" lon="11.53850445944064"><ele>682.0</ele><time>2026-05-01T10:49:53Z</time></trkpt><trkpt lat="47.75322698853829" lon="11.538710834830605"><ele>681.3333333333334</ele><time>2026-05-01T10:49:54Z</time></trkpt><trkpt lat="47.753370643824894" lon="11.538883093519603"><ele>680.6666666666666</ele><time>2026-05-01T10:49:55Z</time></trkpt><trkpt lat="47.75350308708771" lon="11.539073062368946"><ele>680.0</ele><time>2026-05-01T10:49:56Z</time></trkpt><trkpt lat="47.75363578943912" lon="11.539265528560374"><ele>680.0</ele><time>2026-05-01T10:49:57Z</time></trkpt><trkpt lat="47.753770639275785" lon="11.539456970644745"><ele>680.0</ele><time>2026-05-01T10:49:58Z</time></trkpt><trkpt lat="47.75390692946947" lon="11.539648908699684"><ele>680.0</ele><time>2026-05-01T10:49:59Z</time></trkpt><trkpt lat="47.75404380495845" lon="11.539840713539027"><ele>685.0</ele><time>2026-05-01T10:50:00Z</time></trkpt><trkpt lat="47.754181266072926" lon="11.54003648485798"><ele>690.0</ele><time>2026-05-01T10:50:01Z</time></trkpt><trkpt lat="47.754318560835976" lon="11.54023458197653"><ele>695.0</ele><time>2026-05-01T10:50:02Z</time></trkpt><trkpt lat="47.75444781836144" lon="11.540424830559166"><ele>696.0</ele><time>2026-05-01T10:50:03Z</time></trkpt><trkpt lat="47.754579542707404" lon="11.540614684575468"><ele>697.0</ele><time>2026-05-01T10:50:04.001Z</time></trkpt><trkpt lat="47.75471321321287" lon="11.54080077570373"><ele>698.0</ele><time>2026-05-01T10:50:05.001Z</time></trkpt><trkpt lat="47.75484533584598" lon="11.540987082637406"><ele>698.0</ele><time>2026-05-01T10:50:06.001Z</time></trkpt><trkpt lat="47.75497385002352" lon="11.541177070805173"><ele>698.0</ele><time>2026-05-01T10:50:07.001Z</time></trkpt><trkpt lat="47.75509570805107" lon="11.54137309458732"><ele>698.0</ele><time>2026-05-01T10:50:08.001Z</time></trkpt><trkpt lat="47.755207262603626" lon="11.541577912912196"><ele>698.0</ele><time>2026-05-01T10:50:09.001Z</time></trkpt><trkpt lat="47.75531401792169" lon="11.54179121020476"><ele>698.0</ele><time>2026-05-01T10:50:10.001Z</time></trkpt><trkpt lat="47.755409319241096" lon="11.542018787168232"><ele>698.0</ele><time>2026-05-01T10:50:11.001Z</time></trkpt><trkpt lat="47.755488874188174" lon="11.542266182885864"><ele>698.0</ele><time>2026-05-01T10:50:12.001Z</time></trkpt><trkpt lat="47.755567555978935" lon="11.54251491949822"><ele>698.0</ele><time>2026-05-01T10:50:13.001Z</time></trkpt><trkpt lat="47.75563237933748" lon="11.542777769294544"><ele>698.0</ele><time>2026-05-01T10:50:14.001Z</time></trkpt><trkpt lat="47.755687161137104" lon="11.543047583350821"><ele>698.6666666666666</ele><time>2026-05-01T10:50:15.001Z</time></trkpt><trkpt lat="47.75572820735267" lon="11.543323205018412"><ele>699.3333333333334</ele><time>2026-05-01T10:50:16.001Z</time></trkpt><trkpt lat="47.75573788362692" lon="11.54360778027073"><ele>700.0</ele><time>2026-05-01T10:50:17.001Z</time></trkpt><trkpt lat="47.755748577008085" lon="11.543889436451275"><ele>698.3333333333334</ele><time>2026-05-01T10:50:18.001Z</time></trkpt><trkpt lat="47.7557475331109" lon="11.544166421733436"><ele>696.6666666666666</ele><time>2026-05-01T10:50:19.001Z</time></trkpt><trkpt lat="47.75573057427304" lon="11.544444335235044"><ele>695.0</ele><time>2026-05-01T10:50:20.001Z</time></trkpt><trkpt lat="47.755703639173966" lon="11.544726710883744"><ele>693.6666666666666</ele><time>2026-05-01T10:50:21.001Z</time></trkpt><trkpt lat="47.75566667937318" lon="11.54500115260818"><ele>692.3333333333334</ele><time>2026-05-01T10:50:22.001Z</time></trkpt><trkpt lat="47.7556130754924" lon="11.545262266296973"><ele>691.0</ele><time>2026-05-01T10:50:23.001Z</time></trkpt><trkpt lat="47.75555015852069" lon="11.545517497974226"><ele>690.3333333333334</ele><time>2026-05-01T10:50:24.001Z</time></trkpt><trkpt lat="47.755473584268834" lon="11.545762789296989"><ele>689.6666666666666</ele><time>2026-05-01T10:50:25.001Z</time></trkpt><trkpt lat="47.755382543786176" lon="11.54600539553128"><ele>689.0</ele><time>2026-05-01T10:50:26.001Z</time></trkpt><trkpt lat="47.75527942940878" lon="11.546255205901657"><ele>689.6666666666666</ele><time>2026-05-01T10:50:27.001Z</time></trkpt><trkpt lat="47.75518336720089" lon="11.546506015730747"><ele>690.3333333333334</ele><time>2026-05-01T10:50:28.001Z</time></trkpt><trkpt lat="47.75506085525999" lon="11.54672176804201"><ele>691.0</ele><time>2026-05-01T10:50:29.001Z</time></trkpt><trkpt lat="47.75496707507415" lon="11.546968185126845"><ele>688.6666666666667</ele><time>2026-05-01T10:50:30.001Z</time></trkpt><trkpt lat="47.75486110995334" lon="11.54720058107772"><ele>686.3333333333334</ele><time>2026-05-01T10:50:31.001Z</time></trkpt><trkpt lat="47.75477538115948" lon="11.547441539084733"><ele>684.0</ele><time>2026-05-01T10:50:32.001Z</time></trkpt><trkpt lat="47.75469997832338" lon="11.547695497914722"><ele>682.3333333333334</ele><time>2026-05-01T10:50:33.001Z</time></trkpt><trkpt lat="47.75463408858445" lon="11.547964685393854"><ele>680.6666666666667</ele><time>2026-05-01T10:50:34.001Z</time></trkpt><trkpt lat="47.7545684483559" lon="11.548215011278097"><ele>679.0</ele><time>2026-05-01T10:50:35.001Z</time></trkpt><trkpt lat="47.75450632261364" lon="11.548474007056225"><ele>677.6666666666667</ele><time>2026-05-01T10:50:36.001Z</time></trkpt><trkpt lat="47.75446764792612" lon="11.548748543305672"><ele>676.3333333333334</ele><time>2026-05-01T10:50:37.001Z</time></trkpt><trkpt lat="47.754449146889435" lon="11.549026513083207"><ele>675.0</ele><time>2026-05-01T10:50:38.001Z</time></trkpt><trkpt lat="47.75444422557264" lon="11.549301187296441"><ele>673.6666666666666</ele><time>2026-05-01T10:50:39.001Z</time></trkpt><trkpt lat="47.75445293942412" lon="11.549586796671266"><ele>672.3333333333333</ele><time>2026-05-01T10:50:40.001Z</time></trkpt><trkpt lat="47.75447611360771" lon="11.54984800418546"><ele>671.0</ele><time>2026-05-01T10:50:41.001Z</time></trkpt><trkpt lat="47.754481548469975" lon="11.550110413785498"><ele>671.0</ele><time>2026-05-01T10:50:42.001Z</time></trkpt><trkpt lat="47.75450920073957" lon="11.550366016226167"><ele>671.0</ele><time>2026-05-01T10:50:43.001Z</time></trkpt><trkpt lat="47.754539801845404" lon="11.550621216937321"><ele>671.0</ele><time>2026-05-01T10:50:44.001Z</time></trkpt><trkpt lat="47.754572360117876" lon="11.550873953595875"><ele>669.6666666666666</ele><time>2026-05-01T10:50:45.001Z</time></trkpt><trkpt lat="47.754609392861845" lon="11.551126879540597"><ele>668.3333333333334</ele><time>2026-05-01T10:50:46.001Z</time></trkpt><trkpt lat="47.75465167807645" lon="11.551380888340063"><ele>667.0</ele><time>2026-05-01T10:50:47.001Z</time></trkpt><trkpt lat="47.7547094149612" lon="11.551628671921927"><ele>666.3333333333334</ele><time>2026-05-01T10:50:48.001Z</time></trkpt><trkpt lat="47.75474757381538" lon="11.551886800956007"><ele>665.6666666666666</ele><time>2026-05-01T10:50:49.001Z</time></trkpt><trkpt lat="47.754786841578934" lon="11.552141462596417"><ele>665.0</ele><time>2026-05-01T10:50:50.001Z</time></trkpt><trkpt lat="47.75482178606786" lon="11.552394323076081"><ele>664.3333333333333</ele><time>2026-05-01T10:50:51.001Z</time></trkpt><trkpt lat="47.75485754046748" lon="11.552650375062093"><ele>663.6666666666666</ele><time>2026-05-01T10:50:52.001Z</time></trkpt><trkpt lat="47.75488618597375" lon="11.552904085755287"><ele>663.0</ele><time>2026-05-01T10:50:53.001Z</time></trkpt><trkpt lat="47.75490984185406" lon="11.553158284099492"><ele>663.0</ele><time>2026-05-01T10:50:54.001Z</time></trkpt><trkpt lat="47.75492985634366" lon="11.553410811337903"><ele>663.0</ele><time>2026-05-01T10:50:55.001Z</time></trkpt><trkpt lat="47.75494725223361" lon="11.553665083433579"><ele>663.0</ele><time>2026-05-01T10:50:56.001Z</time></trkpt><trkpt lat="47.75495642337875" lon="11.553927988098502"><ele>661.3333333333334</ele><time>2026-05-01T10:50:57.001Z</time></trkpt><trkpt lat="47.75495517876066" lon="11.554194405742681"><ele>659.6666666666667</ele><time>2026-05-01T10:50:58.001Z</time></trkpt><trkpt lat="47.754945748445124" lon="11.55446259139595"><ele>658.0</ele><time>2026-05-01T10:50:59.001Z</time></trkpt><trkpt lat="47.75492613412291" lon="11.554731318877533"><ele>657.6666666666667</ele><time>2026-05-01T10:51:00.001Z</time></trkpt><trkpt lat="47.75489207129481" lon="11.5549967843411"><ele>657.3333333333334</ele><time>2026-05-01T10:51:01.001Z</time></trkpt><trkpt lat="47.75484824343371" lon="11.555257733012947"><ele>657.0</ele><time>2026-05-01T10:51:02.001Z</time></trkpt><trkpt lat="47.754797040998476" lon="11.555511078326747"><ele>653.6666666666666</ele><time>2026-05-01T10:51:03.001Z</time></trkpt><trkpt lat="47.75473760145179" lon="11.555756712615834"><ele>650.3333333333333</ele><time>2026-05-01T10:51:04.001Z</time></trkpt><trkpt lat="47.75467430759508" lon="11.555989668023907"><ele>647.0</ele><time>2026-05-01T10:51:05.001Z</time></trkpt><trkpt lat="47.75460288278194" lon="11.556213041617617"><ele>647.6666666666666</ele><time>2026-05-01T10:51:06.001Z</time></trkpt><trkpt lat="47.754519095821685" lon="11.55643701810073"><ele>648.3333333333334</ele><time>2026-05-01T10:51:07.001Z</time></trkpt><trkpt lat="47.75442710506281" lon="11.556656921564974"><ele>649.0</ele><time>2026-05-01T10:51:08.001Z</time></trkpt><trkpt lat="47.75432898487998" lon="11.55686793549417"><ele>648.3333333333334</ele><time>2026-05-01T10:51:09.001Z</time></trkpt><trkpt lat="47.7542259447058" lon="11.557064274925466"><ele>647.6666666666666</ele><time>2026-05-01T10:51:10.001Z</time></trkpt><trkpt lat="47.75412582454265" lon="11.557242391309185"><ele>647.0</ele><time>2026-05-01T10:51:11.001Z</time></trkpt><trkpt lat="47.75402181153626" lon="11.55741922928837"><ele>647.0</ele><time>2026-05-01T10:51:12.001Z</time></trkpt><trkpt lat="47.7539166923435" lon="11.55758971220854"><ele>647.0</ele><time>2026-05-01T10:51:13.001Z</time></trkpt><trkpt lat="47.75381146547779" lon="11.557759456947654"><ele>647.0</ele><time>2026-05-01T10:51:14.001Z</time></trkpt><trkpt lat="47.75370176674701" lon="11.557934588670102"><ele>646.3333333333333</ele><time>2026-05-01T10:51:15.001Z</time></trkpt><trkpt lat="47.75359243435433" lon="11.558115406151078"><ele>645.6666666666666</ele><time>2026-05-01T10:51:16.001Z</time></trkpt><trkpt lat="47.753484166854356" lon="11.558300291542675"><ele>645.0</ele><time>2026-05-01T10:51:17.001Z</time></trkpt><trkpt lat="47.7533797158377" lon="11.558493298801345"><ele>646.3333333333334</ele><time>2026-05-01T10:51:18.001Z</time></trkpt><trkpt lat="47.753276778752245" lon="11.558691775527155"><ele>647.6666666666667</ele><time>2026-05-01T10:51:19.001Z</time></trkpt><trkpt lat="47.753177441692344" lon="11.558892910538932"><ele>649.0</ele><time>2026-05-01T10:51:20.001Z</time></trkpt><trkpt lat="47.753072372882045" lon="11.559084411988389"><ele>649.6666666666667</ele><time>2026-05-01T10:51:21.001Z</time></trkpt><trkpt lat="47.752987883878994" lon="11.559294007839403"><ele>650.3333333333334</ele><time>2026-05-01T10:51:22.001Z</time></trkpt><trkpt lat="47.752911433899484" lon="11.559505752817559"><ele>651.0</ele><time>2026-05-01T10:51:23.001Z</time></trkpt><trkpt lat="47.75283980487319" lon="11.559715301452808"><ele>651.0</ele><time>2026-05-01T10:51:24.001Z</time></trkpt><trkpt lat="47.75277518236654" lon="11.55992193535102"><ele>651.0</ele><time>2026-05-01T10:51:25.001Z</time></trkpt><trkpt lat="47.75271694233754" lon="11.560125615421741"><ele>651.0</ele><time>2026-05-01T10:51:26.001Z</time></trkpt><trkpt lat="47.75266282655964" lon="11.560329268171087"><ele>651.0</ele><time>2026-05-01T10:51:27.001Z</time></trkpt><trkpt lat="47.752611347163324" lon="11.560535538251065"><ele>651.0</ele><time>2026-05-01T10:51:28.001Z</time></trkpt><trkpt lat="47.752561579772475" lon="11.56074396826617"><ele>651.0</ele><time>2026-05-01T10:51:29.001Z</time></trkpt><trkpt lat="47.75251427238993" lon="11.560954864503596"><ele>651.0</ele><time>2026-05-01T10:51:30.001Z</time></trkpt><trkpt lat="47.75246860981365" lon="11.561171879851432"><ele>650.6666666666666</ele><time>2026-05-01T10:51:31.001Z</time></trkpt><trkpt lat="47.75242527028297" lon="11.561398312429152"><ele>650.3333333333333</ele><time>2026-05-01T10:51:32.001Z</time></trkpt><trkpt lat="47.75238550440627" lon="11.56163193557892"><ele>650.0</ele><time>2026-05-01T10:51:33.001Z</time></trkpt><trkpt lat="47.75234754254971" lon="11.561872933864784"><ele>650.0</ele><time>2026-05-01T10:51:34.001Z</time></trkpt><trkpt lat="47.75231288814779" lon="11.562118664810532"><ele>650.0</ele><time>2026-05-01T10:51:35.001Z</time></trkpt><trkpt lat="47.75228159044984" lon="11.562372056889169"><ele>650.0</ele><time>2026-05-01T10:51:36.001Z</time></trkpt><trkpt lat="47.75228752251266" lon="11.562633851521603"><ele>649.6666666666666</ele><time>2026-05-01T10:51:37.001Z</time></trkpt><trkpt lat="47.75226534058582" lon="11.56288979024732"><ele>649.3333333333334</ele><time>2026-05-01T10:51:38.001Z</time></trkpt><trkpt lat="47.75224860044856" lon="11.563144898342223"><ele>649.0</ele><time>2026-05-01T10:51:39.001Z</time></trkpt><trkpt lat="47.75223419873049" lon="11.563392926545397"><ele>649.0</ele><time>2026-05-01T10:51:40.001Z</time></trkpt><trkpt lat="47.75222419326741" lon="11.56364411558063"><ele>649.0</ele><time>2026-05-01T10:51:41.001Z</time></trkpt><trkpt lat="47.7521792995296" lon="11.563897672575445"><ele>649.0</ele><time>2026-05-01T10:51:42.001Z</time></trkpt><trkpt lat="47.75217711010359" lon="11.564158557270432"><ele>649.6666666666667</ele><time>2026-05-01T10:51:43.001Z</time></trkpt><trkpt lat="47.75217912974322" lon="11.564423473734909"><ele>650.3333333333334</ele><time>2026-05-01T10:51:44.001Z</time></trkpt><trkpt lat="47.752185910745006" lon="11.564694334727191"><ele>651.0</ele><time>2026-05-01T10:51:45.001Z</time></trkpt><trkpt lat="47.752197413648055" lon="11.564962507793314"><ele>651.3333333333334</ele><time>2026-05-01T10:51:46Z</time></trkpt><trkpt lat="47.75221397320292" lon="11.565230891295531"><ele>651.6666666666667</ele><time>2026-05-01T10:51:47Z</time></trkpt><trkpt lat="47.75223481244349" lon="11.565497448059416"><ele>652.0</ele><time>2026-05-01T10:51:48Z</time></trkpt><trkpt lat="47.75225831300865" lon="11.565757689199144"><ele>652.0</ele><time>2026-05-01T10:51:49Z</time></trkpt><trkpt lat="47.752285387688424" lon="11.566021366120054"><ele>652.0</ele><time>2026-05-01T10:51:50Z</time></trkpt><trkpt lat="47.75231755031451" lon="11.566280816328097"><ele>652.0</ele><time>2026-05-01T10:51:51Z</time></trkpt><trkpt lat="47.75235673487731" lon="11.566538594764978"><ele>652.6666666666667</ele><time>2026-05-01T10:51:52Z</time></trkpt><trkpt lat="47.752400096379894" lon="11.566790890141442"><ele>653.3333333333334</ele><time>2026-05-01T10:51:53Z</time></trkpt><trkpt lat="47.75244597146938" lon="11.567044720664574"><ele>654.0</ele><time>2026-05-01T10:51:54Z</time></trkpt><trkpt lat="47.7524970674164" lon="11.567292953782589"><ele>654.3333333333334</ele><time>2026-05-01T10:51:55Z</time></trkpt><trkpt lat="47.75254941908988" lon="11.5675388322227"><ele>654.6666666666667</ele><time>2026-05-01T10:51:56Z</time></trkpt><trkpt lat="47.752602540791266" lon="11.567784210840301"><ele>655.0</ele><time>2026-05-01T10:51:57Z</time></trkpt><trkpt lat="47.752662024613045" lon="11.56802873093928"><ele>657.0</ele><time>2026-05-01T10:51:58Z</time></trkpt><trkpt lat="47.75272664852963" lon="11.568268878881316"><ele>659.0</ele><time>2026-05-01T10:51:59Z</time></trkpt><trkpt lat="47.75279502873311" lon="11.568504850773095"><ele>661.0</ele><time>2026-05-01T10:52:00Z</time></trkpt><trkpt lat="47.75286578111405" lon="11.568738464652233"><ele>661.0</ele><time>2026-05-01T10:52:01Z</time></trkpt><trkpt lat="47.75294072680732" lon="11.568968094482614"><ele>661.0</ele><time>2026-05-01T10:52:02Z</time></trkpt><trkpt lat="47.75301592091161" lon="11.569184885287447"><ele>661.0</ele><time>2026-05-01T10:52:03Z</time></trkpt><trkpt lat="47.75309467340771" lon="11.569405012247048"><ele>662.0</ele><time>2026-05-01T10:52:04Z</time></trkpt><trkpt lat="47.75317727713394" lon="11.569626996880299"><ele>663.0</ele><time>2026-05-01T10:52:05Z</time></trkpt><trkpt lat="47.753259604775906" lon="11.569850910286508"><ele>664.0</ele><time>2026-05-01T10:52:06Z</time></trkpt><trkpt lat="47.753338066693054" lon="11.570079380324353"><ele>664.0</ele><time>2026-05-01T10:52:07Z</time></trkpt><trkpt lat="47.753415424145885" lon="11.57031004877667"><ele>664.0</ele><time>2026-05-01T10:52:08Z</time></trkpt><trkpt lat="47.75348641258256" lon="11.570540522150209"><ele>664.0</ele><time>2026-05-01T10:52:09Z</time></trkpt><trkpt lat="47.75354780181964" lon="11.570775408470965"><ele>668.0</ele><time>2026-05-01T10:52:10Z</time></trkpt><trkpt lat="47.75359723770384" lon="11.57101263743249"><ele>672.0</ele><time>2026-05-01T10:52:11Z</time></trkpt><trkpt lat="47.75363708121906" lon="11.571252163928502"><ele>676.0</ele><time>2026-05-01T10:52:12Z</time></trkpt><trkpt lat="47.75366467884065" lon="11.571494205241573"><ele>677.6666666666667</ele><time>2026-05-01T10:52:13Z</time></trkpt><trkpt lat="47.753685877583436" lon="11.571741855378356"><ele>679.3333333333334</ele><time>2026-05-01T10:52:14Z</time></trkpt><trkpt lat="47.75370138679675" lon="11.571989419472084"><ele>681.0</ele><time>2026-05-01T10:52:15Z</time></trkpt><trkpt lat="47.75371025210316" lon="11.572237794836795"><ele>682.6666666666666</ele><time>2026-05-01T10:52:16Z</time></trkpt><trkpt lat="47.753716754403065" lon="11.572490700752718"><ele>684.3333333333333</ele><time>2026-05-01T10:52:17Z</time></trkpt><trkpt lat="47.75372473722934" lon="11.572738310675474"><ele>686.0</ele><time>2026-05-01T10:52:18Z</time></trkpt><trkpt lat="47.75373832547691" lon="11.572988277283851"><ele>688.3333333333333</ele><time>2026-05-01T10:52:19Z</time></trkpt><trkpt lat="47.753760135796455" lon="11.573230633705666"><ele>690.6666666666666</ele><time>2026-05-01T10:52:20Z</time></trkpt><trkpt lat="47.753796532267565" lon="11.573468176711033"><ele>693.0</ele><time>2026-05-01T10:52:21Z</time></trkpt><trkpt lat="47.753849044472744" lon="11.573696710002045"><ele>694.6666666666666</ele><time>2026-05-01T10:52:22.001Z</time></trkpt><trkpt lat="47.753922043980026" lon="11.573915145944424"><ele>696.3333333333333</ele><time>2026-05-01T10:52:23.001Z</time></trkpt><trkpt lat="47.75401403884876" lon="11.574119745547959"><ele>698.0</ele><time>2026-05-01T10:52:24.001Z</time></trkpt><trkpt lat="47.75412714071455" lon="11.574308984161377"><ele>698.0</ele><time>2026-05-01T10:52:25.001Z</time></trkpt><trkpt lat="47.75425692997459" lon="11.574475589180667"><ele>698.0</ele><time>2026-05-01T10:52:26.001Z</time></trkpt><trkpt lat="47.7544018479552" lon="11.574618211886694"><ele>698.0</ele><time>2026-05-01T10:52:27.001Z</time></trkpt><trkpt lat="47.754557538737586" lon="11.574722475200693"><ele>697.6666666666666</ele><time>2026-05-01T10:52:28.001Z</time></trkpt><trkpt lat="47.754710453254646" lon="11.574830325478848"><ele>697.3333333333334</ele><time>2026-05-01T10:52:29.001Z</time></trkpt><trkpt lat="47.754868917837754" lon="11.57492537290271"><ele>697.0</ele><time>2026-05-01T10:52:30.001Z</time></trkpt><trkpt lat="47.755028957747705" lon="11.575023898287311"><ele>697.0</ele><time>2026-05-01T10:52:31.001Z</time></trkpt><trkpt lat="47.755184455886706" lon="11.57514837681955"><ele>697.0</ele><time>2026-05-01T10:52:32.001Z</time></trkpt><trkpt lat="47.75534031978813" lon="11.575261171001173"><ele>697.0</ele><time>2026-05-01T10:52:33.001Z</time></trkpt><trkpt lat="47.75548094355462" lon="11.575402245679431"><ele>697.3333333333334</ele><time>2026-05-01T10:52:34.001Z</time></trkpt><trkpt lat="47.75562457416779" lon="11.575547656983424"><ele>697.6666666666666</ele><time>2026-05-01T10:52:35.001Z</time></trkpt><trkpt lat="47.75576334770317" lon="11.57570574100597"><ele>698.0</ele><time>2026-05-01T10:52:36.001Z</time></trkpt><trkpt lat="47.75589375064588" lon="11.575878032795655"><ele>698.0</ele><time>2026-05-01T10:52:37.001Z</time></trkpt><trkpt lat="47.75602240366802" lon="11.57606659623751"><ele>698.0</ele><time>2026-05-01T10:52:38.001Z</time></trkpt><trkpt lat="47.756148681126014" lon="11.576254420410713"><ele>698.0</ele><time>2026-05-01T10:52:39.001Z</time></trkpt><trkpt lat="47.75627540434027" lon="11.576442907582102"><ele>697.3333333333333</ele><time>2026-05-01T10:52:40.001Z</time></trkpt><trkpt lat="47.75640747908515" lon="11.576618065677868"><ele>696.6666666666666</ele><time>2026-05-01T10:52:41.001Z</time></trkpt><trkpt lat="47.7565370974712" lon="11.576756642084453"><ele>696.0</ele><time>2026-05-01T10:52:42.001Z</time></trkpt><trkpt lat="47.75666629685062" lon="11.576904371474694"><ele>695.6666666666666</ele><time>2026-05-01T10:52:43.001Z</time></trkpt><trkpt lat="47.75680710716329" lon="11.577042051327608"><ele>695.3333333333333</ele><time>2026-05-01T10:52:44.001Z</time></trkpt><trkpt lat="47.75695232781722" lon="11.577166577462982"><ele>695.0</ele><time>2026-05-01T10:52:45.001Z</time></trkpt><trkpt lat="47.75710325852588" lon="11.577270744513232"><ele>696.6666666666666</ele><time>2026-05-01T10:52:46.001Z</time></trkpt><trkpt lat="47.75725819155292" lon="11.577358384195323"><ele>698.3333333333334</ele><time>2026-05-01T10:52:47.001Z</time></trkpt><trkpt lat="47.757416285457126" lon="11.577433101042875"><ele>700.0</ele><time>2026-05-01T10:52:48.001Z</time></trkpt><trkpt lat="47.75757733745222" lon="11.57749633954454"><ele>699.6666666666667</ele><time>2026-05-01T10:52:49.001Z</time></trkpt><trkpt lat="47.75773925271802" lon="11.5775520483542"><ele>699.3333333333334</ele><time>2026-05-01T10:52:50.001Z</time></trkpt><trkpt lat="47.75790498551542" lon="11.577599120164846"><ele>699.0</ele><time>2026-05-01T10:52:51.001Z</time></trkpt><trkpt lat="47.75807373177485" lon="11.577629897675848"><ele>699.0</ele><time>2026-05-01T10:52:52.001Z</time></trkpt><trkpt lat="47.75824733241894" lon="11.577643903504265"><ele>699.0</ele><time>2026-05-01T10:52:53.001Z</time></trkpt><trkpt lat="47.75842039003428" lon="11.57763775842222"><ele>699.0</ele><time>2026-05-01T10:52:54.001Z</time></trkpt><trkpt lat="47.75858585959696" lon="11.577628369307934"><ele>699.25</ele><time>2026-05-01T10:52:55.001Z</time></trkpt><trkpt lat="47.758740600778935" lon="11.57762629049819"><ele>699.5</ele><time>2026-05-01T10:52:56.001Z</time></trkpt><trkpt lat="47.75888459845096" lon="11.577644563292798"><ele>699.75</ele><time>2026-05-01T10:52:57.001Z</time></trkpt><trkpt lat="47.75901356401884" lon="11.577681606453776"><ele>700.0</ele><time>2026-05-01T10:52:58.001Z</time></trkpt><trkpt lat="47.75912712742888" lon="11.577738345047333"><ele>700.0</ele><time>2026-05-01T10:52:59.001Z</time></trkpt><trkpt lat="47.75922821208005" lon="11.57780358724286"><ele>700.0</ele><time>2026-05-01T10:53:00.001Z</time></trkpt><trkpt lat="47.75931728331392" lon="11.577867423634975"><ele>700.0</ele><time>2026-05-01T10:53:01.001Z</time></trkpt><trkpt lat="47.75938122840985" lon="11.57792799781369"><ele>700.0</ele><time>2026-05-01T10:53:02.001Z</time></trkpt><trkpt lat="47.75946834736272" lon="11.578033783187259"><ele>700.0</ele><time>2026-05-01T10:53:04.001Z</time></trkpt><trkpt lat="47.75952442979467" lon="11.578110829537565"><ele>701.2</ele><time>2026-05-01T10:53:06.001Z</time></trkpt><trkpt lat="47.759571778352466" lon="11.578174848529668"><ele>702.4</ele><time>2026-05-01T10:53:10.001Z</time></trkpt><trkpt lat="47.759670851450245" lon="11.578343656324595"><ele>703.5999999999999</ele><time>2026-05-01T10:53:41.001Z</time></trkpt><trkpt lat="47.75972175599131" lon="11.578455019219744"><ele>704.8</ele><time>2026-05-01T10:53:42.001Z</time></trkpt><trkpt lat="47.75976962158326" lon="11.578576618092237"><ele>706.0</ele><time>2026-05-01T10:53:43.001Z</time></trkpt><trkpt lat="47.759791648793374" lon="11.57871033380055"><ele>706.1999999999999</ele><time>2026-05-01T10:53:44.001Z</time></trkpt><trkpt lat="47.75982119571707" lon="11.57885696791003"><ele>706.4</ele><time>2026-05-01T10:53:45.001Z</time></trkpt><trkpt lat="47.75983964246124" lon="11.579016279880625"><ele>706.6</ele><time>2026-05-01T10:53:46.001Z</time></trkpt><trkpt lat="47.759852218238905" lon="11.579182214436146"><ele>706.8</ele><time>2026-05-01T10:53:47.001Z</time></trkpt><trkpt lat="47.75986264961999" lon="11.579342892729924"><ele>707.0</ele><time>2026-05-01T10:53:48.001Z</time></trkpt><trkpt lat="47.7598733680233" lon="11.579500986223382"><ele>706.8</ele><time>2026-05-01T10:53:49.001Z</time></trkpt><trkpt lat="47.75988502165687" lon="11.579657253152629"><ele>706.6</ele><time>2026-05-01T10:53:50.001Z</time></trkpt><trkpt lat="47.75989654419281" lon="11.579814041907788"><ele>706.4</ele><time>2026-05-01T10:53:51.001Z</time></trkpt><trkpt lat="47.759908120009264" lon="11.579971555678803"><ele>706.1999999999999</ele><time>2026-05-01T10:53:52Z</time></trkpt><trkpt lat="47.75992004352756" lon="11.580126709133674"><ele>706.0</ele><time>2026-05-01T10:53:53Z</time></trkpt><trkpt lat="47.75993237847888" lon="11.580285611443044"><ele>706.5999999999999</ele><time>2026-05-01T10:53:54Z</time></trkpt><trkpt lat="47.75996126259513" lon="11.580440443532138"><ele>707.2</ele><time>2026-05-01T10:53:55Z</time></trkpt><trkpt lat="47.759972451948194" lon="11.580597847138275"><ele>707.8</ele><time>2026-05-01T10:53:56Z</time></trkpt><trkpt lat="47.759984395216584" lon="11.580748018449883"><ele>708.4000000000001</ele><time>2026-05-01T10:53:57Z</time></trkpt><trkpt lat="47.75999523388806" lon="11.580899056064348"><ele>709.0</ele><time>2026-05-01T10:53:58Z</time></trkpt><trkpt lat="47.76000592011193" lon="11.581052913843296"><ele>709.6</ele><time>2026-05-01T10:53:59Z</time></trkpt><trkpt lat="47.76001809196429" lon="11.581210750163255"><ele>710.2</ele><time>2026-05-01T10:54:00Z</time></trkpt><trkpt lat="47.760028732159526" lon="11.581367485927572"><ele>710.8000000000001</ele><time>2026-05-01T10:54:01Z</time></trkpt><trkpt lat="47.76003964642346" lon="11.581523507892008"><ele>711.4000000000001</ele><time>2026-05-01T10:54:02Z</time></trkpt><trkpt lat="47.760054342244786" lon="11.581686879619948"><ele>712.0</ele><time>2026-05-01T10:54:03Z</time></trkpt><trkpt lat="47.76006716782916" lon="11.581848914889692"><ele>712.5</ele><time>2026-05-01T10:54:04Z</time></trkpt><trkpt lat="47.76006189873585" lon="11.582018461707106"><ele>713.0</ele><time>2026-05-01T10:54:05Z</time></trkpt><trkpt lat="47.760085768990734" lon="11.58219243630495"><ele>713.5</ele><time>2026-05-01T10:54:06Z</time></trkpt><trkpt lat="47.760094203930805" lon="11.582368970440053"><ele>714.0</ele><time>2026-05-01T10:54:07Z</time></trkpt><trkpt lat="47.7600979732173" lon="11.582544177576157"><ele>714.0</ele><time>2026-05-01T10:54:08Z</time></trkpt><trkpt lat="47.76010089188008" lon="11.582719858105966"><ele>714.0</ele><time>2026-05-01T10:54:09Z</time></trkpt><trkpt lat="47.760102525529256" lon="11.582896014490315"><ele>714.0</ele><time>2026-05-01T10:54:10Z</time></trkpt><trkpt lat="47.76010393955514" lon="11.583073246128311"><ele>714.0</ele><time>2026-05-01T10:54:11Z</time></trkpt><trkpt lat="47.760106318425265" lon="11.583234921420019"><ele>713.8333333333334</ele><time>2026-05-01T10:54:12Z</time></trkpt><trkpt lat="47.76010665796306" lon="11.583367873440798"><ele>713.6666666666666</ele><time>2026-05-01T10:54:13Z</time></trkpt><trkpt lat="47.76010902695166" lon="11.583480275928562"><ele>713.5</ele><time>2026-05-01T10:54:14Z</time></trkpt><trkpt lat="47.760110834747046" lon="11.58357878645141"><ele>713.3333333333333</ele><time>2026-05-01T10:54:15Z</time></trkpt><trkpt lat="47.760115484261114" lon="11.58374328222961"><ele>713.1666666666666</ele><time>2026-05-01T10:54:17Z</time></trkpt><trkpt lat="47.76011519625415" lon="11.583864718160699"><ele>713.0</ele><time>2026-05-01T10:54:19Z</time></trkpt><trkpt lat="47.76011403666483" lon="11.583959821728271"><ele>713.0</ele><time>2026-05-01T10:54:21Z</time></trkpt><trkpt lat="47.76011524169994" lon="11.584060383188314"><ele>713.0</ele><time>2026-05-01T10:54:24Z</time></trkpt><trkpt lat="47.760113387415196" lon="11.584184371539141"><ele>713.0</ele><time>2026-05-01T10:54:27Z</time></trkpt><trkpt lat="47.760112680411204" lon="11.584329008147238"><ele>713.0</ele><time>2026-05-01T10:54:29Z</time></trkpt><trkpt lat="47.76011287210717" lon="11.584428214248108"><ele>713.0</ele><time>2026-05-01T10:54:30Z</time></trkpt><trkpt lat="47.76010851017917" lon="11.58454806824495"><ele>713.0</ele><time>2026-05-01T10:54:31Z</time></trkpt><trkpt lat="47.7601013537069" lon="11.58468029154915"><ele>713.5999999999999</ele><time>2026-05-01T10:54:32Z</time></trkpt><trkpt lat="47.76009329149783" lon="11.584802998777032"><ele>714.1999999999999</ele><time>2026-05-01T10:54:33Z</time></trkpt><trkpt lat="47.760086613696444" lon="11.584923079880081"><ele>714.8</ele><time>2026-05-01T10:54:34Z</time></trkpt><trkpt lat="47.7600759687479" lon="11.585054559277603"><ele>715.4</ele><time>2026-05-01T10:54:35Z</time></trkpt><trkpt lat="47.760064247695" lon="11.585201528038768"><ele>716.0</ele><time>2026-05-01T10:54:36Z</time></trkpt><trkpt lat="47.76005298347664" lon="11.585358732132805"><ele>716.0</ele><time>2026-05-01T10:54:37Z</time></trkpt><trkpt lat="47.760038869446916" lon="11.58552254765305"><ele>716.0</ele><time>2026-05-01T10:54:38.001Z</time></trkpt><trkpt lat="47.760026924431244" lon="11.585698560828527"><ele>716.0</ele><time>2026-05-01T10:54:39.001Z</time></trkpt><trkpt lat="47.76000919830076" lon="11.585885354478417"><ele>716.0</ele><time>2026-05-01T10:54:40.001Z</time></trkpt><trkpt lat="47.75999205849811" lon="11.58606720757398"><ele>716.0</ele><time>2026-05-01T10:54:41.001Z</time></trkpt><trkpt lat="47.759974076663006" lon="11.58624608004391"><ele>716.0</ele><time>2026-05-01T10:54:42.001Z</time></trkpt><trkpt lat="47.75995552872745" lon="11.586427829617692"><ele>716.0</ele><time>2026-05-01T10:54:43.001Z</time></trkpt><trkpt lat="47.759917868356666" lon="11.586608896483336"><ele>716.0</ele><time>2026-05-01T10:54:44.001Z</time></trkpt><trkpt lat="47.7598972370539" lon="11.586792991514564"><ele>716.0</ele><time>2026-05-01T10:54:45.001Z</time></trkpt><trkpt lat="47.759878789387436" lon="11.586959742437518"><ele>716.0</ele><time>2026-05-01T10:54:46.001Z</time></trkpt><trkpt lat="47.759863080039274" lon="11.587103480584126"><ele>716.0</ele><time>2026-05-01T10:54:47.001Z</time></trkpt><trkpt lat="47.759849461143894" lon="11.58723478283398"><ele>716.0</ele><time>2026-05-01T10:54:48.001Z</time></trkpt><trkpt lat="47.759836300907175" lon="11.5873616631701"><ele>716.0</ele><time>2026-05-01T10:54:49.001Z</time></trkpt><trkpt lat="47.75982243618717" lon="11.587495335437131"><ele>716.1999999999999</ele><time>2026-05-01T10:54:50.001Z</time></trkpt><trkpt lat="47.759807418844154" lon="11.587640120395074"><ele>716.4</ele><time>2026-05-01T10:54:51.001Z</time></trkpt><trkpt lat="47.75979197622932" lon="11.587789005472231"><ele>716.6</ele><time>2026-05-01T10:54:52.001Z</time></trkpt><trkpt lat="47.75977624331992" lon="11.587940688538254"><ele>716.8</ele><time>2026-05-01T10:54:53.001Z</time></trkpt><trkpt lat="47.75975947664868" lon="11.588097350582498"><ele>717.0</ele><time>2026-05-01T10:54:54.001Z</time></trkpt><trkpt lat="47.75974182889166" lon="11.588264027088378"><ele>717.0</ele><time>2026-05-01T10:54:55.001Z</time></trkpt><trkpt lat="47.75972346835264" lon="11.588436876903538"><ele>717.0</ele><time>2026-05-01T10:54:56.001Z</time></trkpt><trkpt lat="47.759703022183416" lon="11.58861742790548"><ele>717.0</ele><time>2026-05-01T10:54:57.001Z</time></trkpt><trkpt lat="47.75968213237279" lon="11.58880448351574"><ele>717.0</ele><time>2026-05-01T10:54:58.001Z</time></trkpt><trkpt lat="47.75966046102934" lon="11.589007591943862"><ele>717.0</ele><time>2026-05-01T10:54:59.001Z</time></trkpt><trkpt lat="47.75963927233523" lon="11.589222308942892"><ele>717.0</ele><time>2026-05-01T10:55:00.001Z</time></trkpt><trkpt lat="47.759619321277306" lon="11.589449452695714"><ele>717.0</ele><time>2026-05-01T10:55:01.001Z</time></trkpt><trkpt lat="47.75960027493354" lon="11.589698324786145"><ele>717.3333333333334</ele><time>2026-05-01T10:55:02.001Z</time></trkpt><trkpt lat="47.759588760637754" lon="11.58993178486273"><ele>717.6666666666667</ele><time>2026-05-01T10:55:03.001Z</time></trkpt><trkpt lat="47.7595826630342" lon="11.590170603377768"><ele>718.0</ele><time>2026-05-01T10:55:04.001Z</time></trkpt><trkpt lat="47.75958926395173" lon="11.590413047419597"><ele>718.3333333333334</ele><time>2026-05-01T10:55:05.001Z</time></trkpt><trkpt lat="47.75960547943133" lon="11.590653121319258"><ele>718.6666666666666</ele><time>2026-05-01T10:55:06.001Z</time></trkpt><trkpt lat="47.75962660390339" lon="11.590891681436052"><ele>719.0</ele><time>2026-05-01T10:55:07.001Z</time></trkpt><trkpt lat="47.759657840798184" lon="11.59112643287143"><ele>717.6666666666666</ele><time>2026-05-01T10:55:08.001Z</time></trkpt><trkpt lat="47.759696563319025" lon="11.591360681097317"><ele>716.3333333333334</ele><time>2026-05-01T10:55:09.001Z</time></trkpt><trkpt lat="47.75974092247705" lon="11.591594891058499"><ele>715.0</ele><time>2026-05-01T10:55:10.001Z</time></trkpt><trkpt lat="47.7597926959823" lon="11.591821009567001"><ele>714.3333333333334</ele><time>2026-05-01T10:55:11.001Z</time></trkpt><trkpt lat="47.75984917316236" lon="11.592045280743623"><ele>713.6666666666666</ele><time>2026-05-01T10:55:12.001Z</time></trkpt><trkpt lat="47.75990964472601" lon="11.592261521677807"><ele>713.0</ele><time>2026-05-01T10:55:13.001Z</time></trkpt><trkpt lat="47.75997109724536" lon="11.592463967424676"><ele>713.0</ele><time>2026-05-01T10:55:14.001Z</time></trkpt><trkpt lat="47.76003218549413" lon="11.592663369613819"><ele>713.0</ele><time>2026-05-01T10:55:15.001Z</time></trkpt><trkpt lat="47.76009459032868" lon="11.592867374835352"><ele>713.0</ele><time>2026-05-01T10:55:16.001Z</time></trkpt><trkpt lat="47.76015699587168" lon="11.5930729742415"><ele>713.0</ele><time>2026-05-01T10:55:17.001Z</time></trkpt><trkpt lat="47.76021988447767" lon="11.593280620737467"><ele>713.0</ele><time>2026-05-01T10:55:18.001Z</time></trkpt><trkpt lat="47.760283405287744" lon="11.593496064967256"><ele>713.0</ele><time>2026-05-01T10:55:19.001Z</time></trkpt><trkpt lat="47.76034393447767" lon="11.59370710598927"><ele>713.0</ele><time>2026-05-01T10:55:20.001Z</time></trkpt><trkpt lat="47.76040207019251" lon="11.59392049297422"><ele>713.0</ele><time>2026-05-01T10:55:21.001Z</time></trkpt><trkpt lat="47.760452680223054" lon="11.594115921121226"><ele>713.0</ele><time>2026-05-01T10:55:22.001Z</time></trkpt><trkpt lat="47.760513495500234" lon="11.594296358661765"><ele>713.0</ele><time>2026-05-01T10:55:23.001Z</time></trkpt><trkpt lat="47.760538617337744" lon="11.594472655760384"><ele>711.8333333333333</ele><time>2026-05-01T10:55:24.001Z</time></trkpt><trkpt lat="47.76054212579814" lon="11.594621389518164"><ele>710.6666666666666</ele><time>2026-05-01T10:55:25.001Z</time></trkpt><trkpt lat="47.76051194581642" lon="11.594769443619006"><ele>709.5</ele><time>2026-05-01T10:55:26.001Z</time></trkpt><trkpt lat="47.76054468630695" lon="11.594888745642015"><ele>708.3333333333334</ele><time>2026-05-01T10:55:27.001Z</time></trkpt><trkpt lat="47.7605574723817" lon="11.594997072840817"><ele>707.1666666666667</ele><time>2026-05-01T10:55:28.001Z</time></trkpt><trkpt lat="47.76056573038242" lon="11.595105389492044"><ele>706.0</ele><time>2026-05-01T10:55:29.001Z</time></trkpt><trkpt lat="47.760567476972746" lon="11.59521421317569"><ele>704.0</ele><time>2026-05-01T10:55:30.001Z</time></trkpt><trkpt lat="47.760567394009726" lon="11.59534286506206"><ele>702.0</ele><time>2026-05-01T10:55:31.001Z</time></trkpt><trkpt lat="47.76018827498001" lon="11.595551292489962"><ele>702.0</ele><time>2026-05-01T10:55:32.001Z</time></trkpt><trkpt lat="47.76016707785893" lon="11.595704045785462"><ele>702.0</ele><time>2026-05-01T10:55:33.001Z</time></trkpt><trkpt lat="47.76016309336781" lon="11.595850882571051"><ele>702.0</ele><time>2026-05-01T10:55:34.001Z</time></trkpt><trkpt lat="47.76017702185426" lon="11.595993634075182"><ele>702.0</ele><time>2026-05-01T10:55:35.001Z</time></trkpt><trkpt lat="47.76020696981831" lon="11.59613101517402"><ele>702.0</ele><time>2026-05-01T10:55:36.001Z</time></trkpt><trkpt lat="47.760247698022575" lon="11.596263639194134"><ele>701.75</ele><time>2026-05-01T10:55:37.001Z</time></trkpt><trkpt lat="47.760302869960434" lon="11.59639136331014"><ele>701.5</ele><time>2026-05-01T10:55:38.001Z</time></trkpt><trkpt lat="47.76036967268324" lon="11.596528582942272"><ele>701.25</ele><time>2026-05-01T10:55:39.001Z</time></trkpt><trkpt lat="47.76044210452842" lon="11.596673335606095"><ele>701.0</ele><time>2026-05-01T10:55:40.001Z</time></trkpt><trkpt lat="47.76051660122665" lon="11.596829209530929"><ele>701.0</ele><time>2026-05-01T10:55:41.001Z</time></trkpt><trkpt lat="47.76058325018669" lon="11.596992615996774"><ele>701.0</ele><time>2026-05-01T10:55:42.001Z</time></trkpt><trkpt lat="47.76063689326874" lon="11.5971417721518"><ele>701.0</ele><time>2026-05-01T10:55:43.001Z</time></trkpt><trkpt lat="47.7606762036266" lon="11.597279983583695"><ele>701.0</ele><time>2026-05-01T10:55:44.001Z</time></trkpt><trkpt lat="47.76070016428487" lon="11.597427306948589"><ele>701.0</ele><time>2026-05-01T10:55:45.001Z</time></trkpt><trkpt lat="47.76069541096204" lon="11.597581883957927"><ele>701.25</ele><time>2026-05-01T10:55:46.001Z</time></trkpt><trkpt lat="47.76067277344522" lon="11.597748389670883"><ele>701.5</ele><time>2026-05-01T10:55:47.001Z</time></trkpt><trkpt lat="47.76062315585838" lon="11.597926547469346"><ele>701.75</ele><time>2026-05-01T10:55:48.001Z</time></trkpt><trkpt lat="47.76060854561286" lon="11.598135324231144"><ele>702.0</ele><time>2026-05-01T10:55:49.001Z</time></trkpt><trkpt lat="47.76057190816354" lon="11.598344797529574"><ele>702.0</ele><time>2026-05-01T10:55:50.001Z</time></trkpt><trkpt lat="47.7605334023026" lon="11.598545258773882"><ele>702.0</ele><time>2026-05-01T10:55:51.001Z</time></trkpt><trkpt lat="47.76046857420962" lon="11.598748351020598"><ele>702.0</ele><time>2026-05-01T10:55:52.001Z</time></trkpt><trkpt lat="47.76041197284081" lon="11.598973901298617"><ele>701.0</ele><time>2026-05-01T10:55:53.001Z</time></trkpt><trkpt lat="47.760348152006706" lon="11.599207516495264"><ele>700.0</ele><time>2026-05-01T10:55:54.001Z</time></trkpt><trkpt lat="47.76027931243228" lon="11.599451293513608"><ele>699.0</ele><time>2026-05-01T10:55:55.001Z</time></trkpt><trkpt lat="47.760208162887686" lon="11.599703250603332"><ele>700.0</ele><time>2026-05-01T10:55:56.001Z</time></trkpt><trkpt lat="47.760130923305155" lon="11.599966597343931"><ele>701.0</ele><time>2026-05-01T10:55:57.001Z</time></trkpt><trkpt lat="47.76005169266774" lon="11.600241354267503"><ele>702.0</ele><time>2026-05-01T10:55:58Z</time></trkpt><trkpt lat="47.759978696047064" lon="11.600501749593944"><ele>702.6666666666666</ele><time>2026-05-01T10:55:59Z</time></trkpt><trkpt lat="47.759906206123034" lon="11.600767085373878"><ele>703.3333333333333</ele><time>2026-05-01T10:56:00Z</time></trkpt><trkpt lat="47.759835105309186" lon="11.601049472035177"><ele>704.0</ele><time>2026-05-01T10:56:01Z</time></trkpt><trkpt lat="47.7597838770728" lon="11.601347587335022"><ele>704.0</ele><time>2026-05-01T10:56:02Z</time></trkpt><trkpt lat="47.75971734770388" lon="11.601646170772964"><ele>704.0</ele><time>2026-05-01T10:56:03Z</time></trkpt><trkpt lat="47.75966178245597" lon="11.60195675145038"><ele>704.0</ele><time>2026-05-01T10:56:04Z</time></trkpt><trkpt lat="47.75961546062641" lon="11.602281407822305"><ele>705.0</ele><time>2026-05-01T10:56:05Z</time></trkpt><trkpt lat="47.75955254120765" lon="11.602612898011026"><ele>706.0</ele><time>2026-05-01T10:56:06Z</time></trkpt><trkpt lat="47.75951299879887" lon="11.602956583579152"><ele>706.3333333333334</ele><time>2026-05-01T10:56:07Z</time></trkpt><trkpt lat="47.75948069821531" lon="11.603282537141746"><ele>706.6666666666666</ele><time>2026-05-01T10:56:08Z</time></trkpt><trkpt lat="47.759451235175234" lon="11.603617727210654"><ele>707.0</ele><time>2026-05-01T10:56:09Z</time></trkpt><trkpt lat="47.75943011817718" lon="11.603967791752746"><ele>707.5</ele><time>2026-05-01T10:56:10Z</time></trkpt><trkpt lat="47.75941796540795" lon="11.604322760835268"><ele>708.0</ele><time>2026-05-01T10:56:11Z</time></trkpt><trkpt lat="47.75941177053136" lon="11.604685391729177"><ele>706.5</ele><time>2026-05-01T10:56:12Z</time></trkpt><trkpt lat="47.759414088198675" lon="11.605048820907875"><ele>705.0</ele><time>2026-05-01T10:56:13Z</time></trkpt><trkpt lat="47.75942687837782" lon="11.605398807443963"><ele>703.0</ele><time>2026-05-01T10:56:14Z</time></trkpt><trkpt lat="47.759446655876985" lon="11.60575061514961"><ele>701.0</ele><time>2026-05-01T10:56:15Z</time></trkpt><trkpt lat="47.759470591609215" lon="11.606109568395695"><ele>701.5</ele><time>2026-05-01T10:56:16Z</time></trkpt><trkpt lat="47.75949980021858" lon="11.606472670911968"><ele>702.0</ele><time>2026-05-01T10:56:17Z</time></trkpt><trkpt lat="47.75953551294296" lon="11.606840368465829"><ele>701.0</ele><time>2026-05-01T10:56:18Z</time></trkpt><trkpt lat="47.75957363173384" lon="11.60721063287857"><ele>700.0</ele><time>2026-05-01T10:56:19Z</time></trkpt><trkpt lat="47.75961795193361" lon="11.60757869101175"><ele>699.0</ele><time>2026-05-01T10:56:20Z</time></trkpt><trkpt lat="47.75966792684673" lon="11.60794194548861"><ele>698.0</ele><time>2026-05-01T10:56:21Z</time></trkpt><trkpt lat="47.75971974703024" lon="11.608303197934411"><ele>700.5</ele><time>2026-05-01T10:56:22Z</time></trkpt><trkpt lat="47.75977479760505" lon="11.608659786793533"><ele>703.0</ele><time>2026-05-01T10:56:23Z</time></trkpt><trkpt lat="47.75983289588038" lon="11.609013313841142"><ele>703.0</ele><time>2026-05-01T10:56:24Z</time></trkpt><trkpt lat="47.75989264363408" lon="11.609359925562787"><ele>703.0</ele><time>2026-05-01T10:56:25Z</time></trkpt><trkpt lat="47.75995580004117" lon="11.60971214824065"><ele>704.0</ele><time>2026-05-01T10:56:26Z</time></trkpt><trkpt lat="47.76002095921533" lon="11.61006864737458"><ele>705.0</ele><time>2026-05-01T10:56:27Z</time></trkpt><trkpt lat="47.7600869282622" lon="11.610429577495498"><ele>703.5</ele><time>2026-05-01T10:56:28Z</time></trkpt><trkpt lat="47.76015343660847" lon="11.610793456832937"><ele>702.0</ele><time>2026-05-01T10:56:29Z</time></trkpt><trkpt lat="47.760218952895805" lon="11.61115190655236"><ele>702.5</ele><time>2026-05-01T10:56:30Z</time></trkpt><trkpt lat="47.76028070594813" lon="11.61148976703473"><ele>703.0</ele><time>2026-05-01T10:56:31Z</time></trkpt><trkpt lat="47.76034139196983" lon="11.611813980547453"><ele>702.5</ele><time>2026-05-01T10:56:32Z</time></trkpt><trkpt lat="47.76042022394225" lon="11.61213638211461"><ele>702.0</ele><time>2026-05-01T10:56:33Z</time></trkpt><trkpt lat="47.76046858965249" lon="11.612471758653582"><ele>702.0</ele><time>2026-05-01T10:56:34Z</time></trkpt><trkpt lat="47.76051626425495" lon="11.61281240270472"><ele>702.0</ele><time>2026-05-01T10:56:35Z</time></trkpt><trkpt lat="47.76055918131653" lon="11.613154728583828"><ele>701.0</ele><time>2026-05-01T10:56:36Z</time></trkpt><trkpt lat="47.76059953166074" lon="11.613499297586515"><ele>700.0</ele><time>2026-05-01T10:56:37Z</time></trkpt><trkpt lat="47.76063552636434" lon="11.613842818763192"><ele>700.0</ele><time>2026-05-01T10:56:38Z</time></trkpt><trkpt lat="47.76066711879698" lon="11.614187611551564"><ele>700.0</ele><time>2026-05-01T10:56:39Z</time></trkpt><trkpt lat="47.76069128488328" lon="11.614535622449742"><ele>700.0</ele><time>2026-05-01T10:56:40Z</time></trkpt><trkpt lat="47.760707881047615" lon="11.614884852469476"><ele>700.0</ele><time>2026-05-01T10:56:41Z</time></trkpt><trkpt lat="47.76072100499035" lon="11.615236264918838"><ele>699.5</ele><time>2026-05-01T10:56:42Z</time></trkpt><trkpt lat="47.76072445023181" lon="11.615587377885435"><ele>699.0</ele><time>2026-05-01T10:56:43Z</time></trkpt><trkpt lat="47.76071722278491" lon="11.615938700385936"><ele>699.5</ele><time>2026-05-01T10:56:44Z</time></trkpt><trkpt lat="47.76069730344955" lon="11.616288153661646"><ele>700.0</ele><time>2026-05-01T10:56:45Z</time></trkpt><trkpt lat="47.76066703180693" lon="11.616635307672025"><ele>700.0</ele><time>2026-05-01T10:56:46Z</time></trkpt><trkpt lat="47.76063171320622" lon="11.616977554608031"><ele>700.0</ele><time>2026-05-01T10:56:47Z</time></trkpt><trkpt lat="47.76059429458106" lon="11.61731805987373"><ele>701.0</ele><time>2026-05-01T10:56:48Z</time></trkpt><trkpt lat="47.76056170594445" lon="11.617658245788173"><ele>702.0</ele><time>2026-05-01T10:56:49Z</time></trkpt><trkpt lat="47.76053457257093" lon="11.617999721220345"><ele>703.5</ele><time>2026-05-01T10:56:50Z</time></trkpt><trkpt lat="47.76051784644303" lon="11.618344549864982"><ele>705.0</ele><time>2026-05-01T10:56:51Z</time></trkpt><trkpt lat="47.76051268236883" lon="11.618691966385978"><ele>707.0</ele><time>2026-05-01T10:56:52Z</time></trkpt><trkpt lat="47.76050917077648" lon="11.619038895751538"><ele>709.0</ele><time>2026-05-01T10:56:53.001Z</time></trkpt><trkpt lat="47.760523578125266" lon="11.619384391049781"><ele>709.6666666666667</ele><time>2026-05-01T10:56:54.001Z</time></trkpt><trkpt lat="47.7605429843181" lon="11.619728221778896"><ele>710.3333333333334</ele><time>2026-05-01T10:56:55.001Z</time></trkpt><trkpt lat="47.76056330317488" lon="11.620046458948012"><ele>711.0</ele><time>2026-05-01T10:56:56.001Z</time></trkpt><trkpt lat="47.76058557321886" lon="11.620345966830856"><ele>711.6666666666666</ele><time>2026-05-01T10:56:57.001Z</time></trkpt><trkpt lat="47.76061434214202" lon="11.620648775945615"><ele>712.3333333333333</ele><time>2026-05-01T10:56:58.001Z</time></trkpt><trkpt lat="47.76064958635071" lon="11.620949986576354"><ele>713.0</ele><time>2026-05-01T10:56:59.001Z</time></trkpt><trkpt lat="47.76069139799767" lon="11.621250048281325"><ele>713.0</ele><time>2026-05-01T10:57:00.001Z</time></trkpt><trkpt lat="47.760739029869846" lon="11.621548129412709"><ele>713.0</ele><time>2026-05-01T10:57:01.001Z</time></trkpt><trkpt lat="47.76078999070291" lon="11.621832176722958"><ele>713.0</ele><time>2026-05-01T10:57:02.001Z</time></trkpt><trkpt lat="47.76084150345187" lon="11.622094808351687"><ele>713.3333333333333</ele><time>2026-05-01T10:57:03.001Z</time></trkpt><trkpt lat="47.76089712599103" lon="11.622346257813094"><ele>713.6666666666666</ele><time>2026-05-01T10:57:04.001Z</time></trkpt><trkpt lat="47.7609583051862" lon="11.622602052563536"><ele>714.0</ele><time>2026-05-01T10:57:05.001Z</time></trkpt><trkpt lat="47.76102259861675" lon="11.6228566558945"><ele>713.6666666666666</ele><time>2026-05-01T10:57:06.001Z</time></trkpt><trkpt lat="47.761086130815315" lon="11.623102665314713"><ele>713.3333333333333</ele><time>2026-05-01T10:57:07.001Z</time></trkpt><trkpt lat="47.76115154511763" lon="11.623345316017033"><ele>713.0</ele><time>2026-05-01T10:57:08.001Z</time></trkpt><trkpt lat="47.761222014801845" lon="11.623589815142328"><ele>712.6666666666666</ele><time>2026-05-01T10:57:09.001Z</time></trkpt><trkpt lat="47.7612977574024" lon="11.623837977142822"><ele>712.3333333333334</ele><time>2026-05-01T10:57:10.001Z</time></trkpt><trkpt lat="47.76137509905788" lon="11.624090508004716"><ele>712.0</ele><time>2026-05-01T10:57:11.001Z</time></trkpt><trkpt lat="47.76145450354291" lon="11.624349790541173"><ele>712.3333333333334</ele><time>2026-05-01T10:57:12.001Z</time></trkpt><trkpt lat="47.761535175994425" lon="11.624617702727424"><ele>712.6666666666666</ele><time>2026-05-01T10:57:13.001Z</time></trkpt><trkpt lat="47.761617773779335" lon="11.624896073207138"><ele>713.0</ele><time>2026-05-01T10:57:14.001Z</time></trkpt><trkpt lat="47.76169948819553" lon="11.62518379679002"><ele>713.6666666666666</ele><time>2026-05-01T10:57:15.001Z</time></trkpt><trkpt lat="47.76177990268067" lon="11.625477841993364"><ele>714.3333333333334</ele><time>2026-05-01T10:57:16.001Z</time></trkpt><trkpt lat="47.76186036089268" lon="11.625781436258098"><ele>715.0</ele><time>2026-05-01T10:57:17.001Z</time></trkpt><trkpt lat="47.7619389837111" lon="11.626089568114676"><ele>716.6666666666667</ele><time>2026-05-01T10:57:18.001Z</time></trkpt><trkpt lat="47.76201704107629" lon="11.62639546636244"><ele>718.3333333333334</ele><time>2026-05-01T10:57:19.001Z</time></trkpt><trkpt lat="47.762088136971016" lon="11.626677866843414"><ele>720.0</ele><time>2026-05-01T10:57:20.001Z</time></trkpt><trkpt lat="47.76215190157465" lon="11.626944024150339"><ele>720.0</ele><time>2026-05-01T10:57:21.001Z</time></trkpt><trkpt lat="47.762208966515665" lon="11.627193473889289"><ele>720.0</ele><time>2026-05-01T10:57:22.001Z</time></trkpt><trkpt lat="47.762265275362445" lon="11.627442922470545"><ele>720.0</ele><time>2026-05-01T10:57:23.001Z</time></trkpt><trkpt lat="47.762323274952756" lon="11.627694829005925"><ele>720.6666666666666</ele><time>2026-05-01T10:57:24.001Z</time></trkpt><trkpt lat="47.76237987225962" lon="11.627952371108536"><ele>721.3333333333333</ele><time>2026-05-01T10:57:25.001Z</time></trkpt><trkpt lat="47.76243385051143" lon="11.628213522425224"><ele>722.0</ele><time>2026-05-01T10:57:26.001Z</time></trkpt><trkpt lat="47.76248589844248" lon="11.628475343671306"><ele>722.0</ele><time>2026-05-01T10:57:27.001Z</time></trkpt><trkpt lat="47.76253486538215" lon="11.628732893617242"><ele>722.0</ele><time>2026-05-01T10:57:28.001Z</time></trkpt><trkpt lat="47.7625824929484" lon="11.628989010551416"><ele>722.0</ele><time>2026-05-01T10:57:29.001Z</time></trkpt><trkpt lat="47.76263022579235" lon="11.629242696609246"><ele>721.6666666666666</ele><time>2026-05-01T10:57:30.001Z</time></trkpt><trkpt lat="47.76267958964551" lon="11.629504245592667"><ele>721.3333333333334</ele><time>2026-05-01T10:57:31.001Z</time></trkpt><trkpt lat="47.76272700336004" lon="11.629776470275539"><ele>721.0</ele><time>2026-05-01T10:57:32.001Z</time></trkpt><trkpt lat="47.76277327570154" lon="11.630059368607856"><ele>722.0</ele><time>2026-05-01T10:57:33.001Z</time></trkpt><trkpt lat="47.762815414874396" lon="11.6303543312748"><ele>723.0</ele><time>2026-05-01T10:57:34.001Z</time></trkpt><trkpt lat="47.76285594518257" lon="11.630659716789033"><ele>724.0</ele><time>2026-05-01T10:57:35.001Z</time></trkpt><trkpt lat="47.76289692101173" lon="11.63096908812962"><ele>723.6666666666667</ele><time>2026-05-01T10:57:36.001Z</time></trkpt><trkpt lat="47.762939773111675" lon="11.63128896920901"><ele>723.3333333333334</ele><time>2026-05-01T10:57:37.001Z</time></trkpt><trkpt lat="47.762956256240656" lon="11.631617853691711"><ele>723.0</ele><time>2026-05-01T10:57:38.001Z</time></trkpt><trkpt lat="47.762997966081244" lon="11.631939575436533"><ele>722.6666666666666</ele><time>2026-05-01T10:57:39.001Z</time></trkpt><trkpt lat="47.76303817958219" lon="11.632262830844336"><ele>722.3333333333333</ele><time>2026-05-01T10:57:40.001Z</time></trkpt><trkpt lat="47.76307848775294" lon="11.632592476534628"><ele>722.0</ele><time>2026-05-01T10:57:41.001Z</time></trkpt><trkpt lat="47.76311950614648" lon="11.632927930603309"><ele>722.0</ele><time>2026-05-01T10:57:42.001Z</time></trkpt><trkpt lat="47.76315973348796" lon="11.633252935269525"><ele>722.0</ele><time>2026-05-01T10:57:43.001Z</time></trkpt><trkpt lat="47.76320192554959" lon="11.633576017587623"><ele>722.0</ele><time>2026-05-01T10:57:44.001Z</time></trkpt><trkpt lat="47.76324956226355" lon="11.63390874059494"><ele>722.0</ele><time>2026-05-01T10:57:45.001Z</time></trkpt><trkpt lat="47.76330147916728" lon="11.634247108552639"><ele>722.0</ele><time>2026-05-01T10:57:46.001Z</time></trkpt><trkpt lat="47.76335528321805" lon="11.63458910604599"><ele>722.0</ele><time>2026-05-01T10:57:47.001Z</time></trkpt><trkpt lat="47.76341520799051" lon="11.634934897853116"><ele>722.0</ele><time>2026-05-01T10:57:48.001Z</time></trkpt><trkpt lat="47.76348222911501" lon="11.635280185420418"><ele>724.0</ele><time>2026-05-01T10:57:49.001Z</time></trkpt><trkpt lat="47.76355266214678" lon="11.635623242734589"><ele>726.0</ele><time>2026-05-01T10:57:50.001Z</time></trkpt><trkpt lat="47.763626042743525" lon="11.635965518000697"><ele>725.5</ele><time>2026-05-01T10:57:51.001Z</time></trkpt><trkpt lat="47.7637004758904" lon="11.636294754165721"><ele>725.0</ele><time>2026-05-01T10:57:52.001Z</time></trkpt><trkpt lat="47.76377352955134" lon="11.636600679652407"><ele>725.0</ele><time>2026-05-01T10:57:53.001Z</time></trkpt><trkpt lat="47.76384666386832" lon="11.636902317465413"><ele>725.0</ele><time>2026-05-01T10:57:54.001Z</time></trkpt><trkpt lat="47.7639236175408" lon="11.637207506032565"><ele>725.0</ele><time>2026-05-01T10:57:55.001Z</time></trkpt><trkpt lat="47.76400147822745" lon="11.63750657712184"><ele>724.0</ele><time>2026-05-01T10:57:56.001Z</time></trkpt><trkpt lat="47.76408208019378" lon="11.637797868190786"><ele>723.0</ele><time>2026-05-01T10:57:57.001Z</time></trkpt><trkpt lat="47.764166914655874" lon="11.638086400004637"><ele>722.0</ele><time>2026-05-01T10:57:58.001Z</time></trkpt><trkpt lat="47.76425391158013" lon="11.638378963421676"><ele>721.0</ele><time>2026-05-01T10:57:59.001Z</time></trkpt><trkpt lat="47.764347747430335" lon="11.63867405585298"><ele>720.0</ele><time>2026-05-01T10:58:00.001Z</time></trkpt><trkpt lat="47.764447304163234" lon="11.638975949062894"><ele>719.0</ele><time>2026-05-01T10:58:01.001Z</time></trkpt><trkpt lat="47.76455289817544" lon="11.639272275462082"><ele>720.0</ele><time>2026-05-01T10:58:02.001Z</time></trkpt><trkpt lat="47.764660453160495" lon="11.639569898383305"><ele>721.0</ele><time>2026-05-01T10:58:03.001Z</time></trkpt><trkpt lat="47.76477039272132" lon="11.639867246319417"><ele>721.0</ele><time>2026-05-01T10:58:04Z</time></trkpt><trkpt lat="47.764885980784065" lon="11.640162970161699"><ele>721.0</ele><time>2026-05-01T10:58:05Z</time></trkpt><trkpt lat="47.76500611784106" lon="11.640456061784578"><ele>721.5</ele><time>2026-05-01T10:58:06Z</time></trkpt><trkpt lat="47.76512602110544" lon="11.640741663147375"><ele>722.0</ele><time>2026-05-01T10:58:07Z</time></trkpt><trkpt lat="47.765248323124" lon="11.641023913564409"><ele>722.0</ele><time>2026-05-01T10:58:08Z</time></trkpt><trkpt lat="47.76537298958472" lon="11.641301516569785"><ele>722.0</ele><time>2026-05-01T10:58:09Z</time></trkpt><trkpt lat="47.765499655213624" lon="11.64157870204107"><ele>722.0</ele><time>2026-05-01T10:58:10Z</time></trkpt><trkpt lat="47.765627044206404" lon="11.641855848627669"><ele>722.0</ele><time>2026-05-01T10:58:11Z</time></trkpt><trkpt lat="47.765754378714725" lon="11.642135126908117"><ele>722.5</ele><time>2026-05-01T10:58:12Z</time></trkpt><trkpt lat="47.76588747501228" lon="11.64241051632121"><ele>723.0</ele><time>2026-05-01T10:58:13Z</time></trkpt><trkpt lat="47.76602239848812" lon="11.642683449561588"><ele>725.0</ele><time>2026-05-01T10:58:14Z</time></trkpt><trkpt lat="47.766149514983965" lon="11.64296611182202"><ele>727.0</ele><time>2026-05-01T10:58:15Z</time></trkpt><trkpt lat="47.76627560199718" lon="11.643255179445418"><ele>727.0</ele><time>2026-05-01T10:58:16Z</time></trkpt><trkpt lat="47.76639936460909" lon="11.643546446610015"><ele>727.0</ele><time>2026-05-01T10:58:17Z</time></trkpt><trkpt lat="47.76652115860603" lon="11.643839742862125"><ele>727.0</ele><time>2026-05-01T10:58:18Z</time></trkpt><trkpt lat="47.76663640505239" lon="11.644139037361017"><ele>727.0</ele><time>2026-05-01T10:58:19Z</time></trkpt><trkpt lat="47.76674892977436" lon="11.644445232789192"><ele>726.5</ele><time>2026-05-01T10:58:20Z</time></trkpt><trkpt lat="47.766862105002026" lon="11.644753195778236"><ele>726.0</ele><time>2026-05-01T10:58:21Z</time></trkpt><trkpt lat="47.76697582087202" lon="11.645062628159371"><ele>725.0</ele><time>2026-05-01T10:58:22Z</time></trkpt><trkpt lat="47.76709231547684" lon="11.645371723519599"><ele>724.0</ele><time>2026-05-01T10:58:23Z</time></trkpt><trkpt lat="47.76720968944735" lon="11.645683164321426"><ele>724.0</ele><time>2026-05-01T10:58:24Z</time></trkpt><trkpt lat="47.76736408361252" lon="11.645968182775789"><ele>724.0</ele><time>2026-05-01T10:58:25Z</time></trkpt><trkpt lat="47.76747756634079" lon="11.646289619940283"><ele>724.5</ele><time>2026-05-01T10:58:26Z</time></trkpt><trkpt lat="47.7675894203425" lon="11.646611990849673"><ele>725.0</ele><time>2026-05-01T10:58:27Z</time></trkpt><trkpt lat="47.767700137735865" lon="11.646935548787917"><ele>725.5</ele><time>2026-05-01T10:58:28Z</time></trkpt><trkpt lat="47.767806724922515" lon="11.647263754748481"><ele>726.0</ele><time>2026-05-01T10:58:29Z</time></trkpt><trkpt lat="47.76791090844382" lon="11.64759663808606"><ele>728.0</ele><time>2026-05-01T10:58:30Z</time></trkpt><trkpt lat="47.768015160612386" lon="11.647933168415527"><ele>730.0</ele><time>2026-05-01T10:58:31Z</time></trkpt><trkpt lat="47.76811899009333" lon="11.648269349685409"><ele>730.0</ele><time>2026-05-01T10:58:32Z</time></trkpt><trkpt lat="47.76822201919317" lon="11.648608178549633"><ele>730.0</ele><time>2026-05-01T10:58:33Z</time></trkpt><trkpt lat="47.768323433454" lon="11.648946695612775"><ele>730.0</ele><time>2026-05-01T10:58:34Z</time></trkpt><trkpt lat="47.768420458921454" lon="11.649269830587144"><ele>730.0</ele><time>2026-05-01T10:58:35Z</time></trkpt><trkpt lat="47.768519926871924" lon="11.649596865071825"><ele>735.0</ele><time>2026-05-01T10:58:36Z</time></trkpt><trkpt lat="47.76862054360131" lon="11.649927752552596"><ele>740.0</ele><time>2026-05-01T10:58:37Z</time></trkpt><trkpt lat="47.76872163117149" lon="11.65026272554951"><ele>741.0</ele><time>2026-05-01T10:58:38Z</time></trkpt><trkpt lat="47.76882376546129" lon="11.650598822788131"><ele>742.0</ele><time>2026-05-01T10:58:39Z</time></trkpt><trkpt lat="47.76892660700169" lon="11.650933674188089"><ele>743.5</ele><time>2026-05-01T10:58:40Z</time></trkpt><trkpt lat="47.7690259962075" lon="11.651264364858418"><ele>745.0</ele><time>2026-05-01T10:58:41Z</time></trkpt><trkpt lat="47.76912085068141" lon="11.65158607730365"><ele>745.0</ele><time>2026-05-01T10:58:42Z</time></trkpt><trkpt lat="47.76921432760519" lon="11.651904724321437"><ele>745.0</ele><time>2026-05-01T10:58:43Z</time></trkpt><trkpt lat="47.769305963150224" lon="11.65222336166394"><ele>744.5</ele><time>2026-05-01T10:58:44Z</time></trkpt><trkpt lat="47.769397777968464" lon="11.652539602114773"><ele>744.0</ele><time>2026-05-01T10:58:45Z</time></trkpt><trkpt lat="47.76948818206303" lon="11.652856657323623"><ele>744.0</ele><time>2026-05-01T10:58:46Z</time></trkpt><trkpt lat="47.76957546314237" lon="11.653178198477585"><ele>744.0</ele><time>2026-05-01T10:58:47Z</time></trkpt><trkpt lat="47.76965497277692" lon="11.653505949706254"><ele>743.5</ele><time>2026-05-01T10:58:48Z</time></trkpt><trkpt lat="47.76972858181909" lon="11.653842199987299"><ele>743.0</ele><time>2026-05-01T10:58:49Z</time></trkpt><trkpt lat="47.76979699818318" lon="11.654181596763525"><ele>746.5</ele><time>2026-05-01T10:58:50Z</time></trkpt><trkpt lat="47.76986699375086" lon="11.654525176851832"><ele>750.0</ele><time>2026-05-01T10:58:51Z</time></trkpt><trkpt lat="47.76993479570858" lon="11.65487098071216"><ele>750.0</ele><time>2026-05-01T10:58:52Z</time></trkpt><trkpt lat="47.7699988298651" lon="11.6552209268133"><ele>750.0</ele><time>2026-05-01T10:58:53Z</time></trkpt><trkpt lat="47.77005925081086" lon="11.655576138278436"><ele>750.0</ele><time>2026-05-01T10:58:54Z</time></trkpt><trkpt lat="47.77011578731108" lon="11.65592526229317"><ele>750.0</ele><time>2026-05-01T10:58:55Z</time></trkpt><trkpt lat="47.770162696744165" lon="11.656269554787455"><ele>748.0</ele><time>2026-05-01T10:58:56Z</time></trkpt><trkpt lat="47.770207511626566" lon="11.656612740340162"><ele>746.0</ele><time>2026-05-01T10:58:57Z</time></trkpt><trkpt lat="47.77025204394029" lon="11.656962614218633"><ele>746.0</ele><time>2026-05-01T10:58:58Z</time></trkpt><trkpt lat="47.77029818387658" lon="11.657319123072853"><ele>746.0</ele><time>2026-05-01T10:58:59Z</time></trkpt><trkpt lat="47.77034391876264" lon="11.657675276023237"><ele>743.5</ele><time>2026-05-01T10:59:00Z</time></trkpt><trkpt lat="47.77039021027075" lon="11.658029031128462"><ele>741.0</ele><time>2026-05-01T10:59:01Z</time></trkpt><trkpt lat="47.77043329182153" lon="11.658376081953204"><ele>737.5</ele><time>2026-05-01T10:59:02.001Z</time></trkpt><trkpt lat="47.77047144068752" lon="11.65871703851149"><ele>734.0</ele><time>2026-05-01T10:59:03.001Z</time></trkpt><trkpt lat="47.77050525390129" lon="11.659060756022264"><ele>734.0</ele><time>2026-05-01T10:59:04.001Z</time></trkpt><trkpt lat="47.77053992654333" lon="11.65940736981042"><ele>734.0</ele><time>2026-05-01T10:59:05.001Z</time></trkpt><trkpt lat="47.77057747150849" lon="11.659752923900957"><ele>732.5</ele><time>2026-05-01T10:59:06.001Z</time></trkpt><trkpt lat="47.77061390810044" lon="11.660099513562114"><ele>731.0</ele><time>2026-05-01T10:59:07.001Z</time></trkpt><trkpt lat="47.77065037694658" lon="11.660445317598807"><ele>731.0</ele><time>2026-05-01T10:59:08.001Z</time></trkpt><trkpt lat="47.77068729236612" lon="11.660792023833265"><ele>731.0</ele><time>2026-05-01T10:59:09.001Z</time></trkpt><trkpt lat="47.77071971105297" lon="11.661138594712298"><ele>732.0</ele><time>2026-05-01T10:59:10.001Z</time></trkpt><trkpt lat="47.770751061938164" lon="11.66148122278302"><ele>733.0</ele><time>2026-05-01T10:59:11.001Z</time></trkpt><trkpt lat="47.770784382329744" lon="11.66182428411152"><ele>734.5</ele><time>2026-05-01T10:59:12.001Z</time></trkpt><trkpt lat="47.77081786422832" lon="11.662166386770108"><ele>736.0</ele><time>2026-05-01T10:59:13.001Z</time></trkpt><trkpt lat="47.7708505942415" lon="11.662506783918637"><ele>738.5</ele><time>2026-05-01T10:59:14.001Z</time></trkpt><trkpt lat="47.770880793835154" lon="11.66284400144332"><ele>741.0</ele><time>2026-05-01T10:59:15.001Z</time></trkpt><trkpt lat="47.770907806181334" lon="11.66317995906073"><ele>741.0</ele><time>2026-05-01T10:59:16.001Z</time></trkpt><trkpt lat="47.77092776033824" lon="11.663517656598515"><ele>741.0</ele><time>2026-05-01T10:59:17.001Z</time></trkpt><trkpt lat="47.770942167861385" lon="11.663855545530756"><ele>741.0</ele><time>2026-05-01T10:59:18.001Z</time></trkpt><trkpt lat="47.77095312815911" lon="11.664192541151063"><ele>741.0</ele><time>2026-05-01T10:59:19.001Z</time></trkpt><trkpt lat="47.77096197263653" lon="11.664528243427398"><ele>741.0</ele><time>2026-05-01T10:59:20.001Z</time></trkpt><trkpt lat="47.77097115102821" lon="11.664858453759289"><ele>741.0</ele><time>2026-05-01T10:59:21.001Z</time></trkpt><trkpt lat="47.77098153949605" lon="11.665170120518944"><ele>741.0</ele><time>2026-05-01T10:59:22.001Z</time></trkpt><trkpt lat="47.770993943733814" lon="11.66545439870473"><ele>741.6666666666666</ele><time>2026-05-01T10:59:23.001Z</time></trkpt><trkpt lat="47.771008667418805" lon="11.665711096810533"><ele>742.3333333333333</ele><time>2026-05-01T10:59:24.001Z</time></trkpt><trkpt lat="47.77102539161023" lon="11.665936947467845"><ele>743.0</ele><time>2026-05-01T10:59:25.001Z</time></trkpt><trkpt lat="47.77104563812752" lon="11.66613290523065"><ele>743.0</ele><time>2026-05-01T10:59:26.001Z</time></trkpt><trkpt lat="47.77106600114352" lon="11.666310026088134"><ele>743.0</ele><time>2026-05-01T10:59:27.001Z</time></trkpt><trkpt lat="47.7710921147205" lon="11.666474240219527"><ele>743.0</ele><time>2026-05-01T10:59:28.001Z</time></trkpt><trkpt lat="47.771127379167226" lon="11.666645074273774"><ele>743.0</ele><time>2026-05-01T10:59:29.001Z</time></trkpt><trkpt lat="47.77116710509346" lon="11.666809885492166"><ele>743.5</ele><time>2026-05-01T10:59:30.001Z</time></trkpt><trkpt lat="47.77120872145821" lon="11.666969751530983"><ele>744.0</ele><time>2026-05-01T10:59:31.001Z</time></trkpt><trkpt lat="47.771252666385024" lon="11.667128229185023"><ele>744.5</ele><time>2026-05-01T10:59:32.001Z</time></trkpt><trkpt lat="47.771296749806076" lon="11.667286673868476"><ele>745.0</ele><time>2026-05-01T10:59:33.001Z</time></trkpt><trkpt lat="47.77133953508824" lon="11.667447014141215"><ele>745.0</ele><time>2026-05-01T10:59:34.001Z</time></trkpt><trkpt lat="47.771381157583484" lon="11.667608482520304"><ele>745.0</ele><time>2026-05-01T10:59:35.001Z</time></trkpt><trkpt lat="47.77142151283411" lon="11.66777054574108"><ele>745.0</ele><time>2026-05-01T10:59:36.001Z</time></trkpt><trkpt lat="47.77146351546709" lon="11.667930564256404"><ele>745.0</ele><time>2026-05-01T10:59:37.001Z</time></trkpt><trkpt lat="47.771506163872765" lon="11.668090128944225"><ele>745.2</ele><time>2026-05-01T10:59:38.001Z</time></trkpt><trkpt lat="47.771549052859676" lon="11.668246325640082"><ele>745.4</ele><time>2026-05-01T10:59:39.001Z</time></trkpt><trkpt lat="47.77159454079356" lon="11.66839922037878"><ele>745.5999999999999</ele><time>2026-05-01T10:59:40.001Z</time></trkpt><trkpt lat="47.77164124701362" lon="11.668546184651627"><ele>745.8</ele><time>2026-05-01T10:59:41.001Z</time></trkpt><trkpt lat="47.771693012740506" lon="11.668686771803362"><ele>746.0</ele><time>2026-05-01T10:59:42.001Z</time></trkpt><trkpt lat="47.77175224226881" lon="11.66881929677211"><ele>746.0</ele><time>2026-05-01T10:59:43.001Z</time></trkpt><trkpt lat="47.771826215552345" lon="11.668937717329177"><ele>746.0</ele><time>2026-05-01T10:59:44.001Z</time></trkpt><trkpt lat="47.771920599250414" lon="11.669032443949098"><ele>746.0</ele><time>2026-05-01T10:59:45.001Z</time></trkpt><trkpt lat="47.772020901416674" lon="11.669115296009162"><ele>746.0</ele><time>2026-05-01T10:59:46.001Z</time></trkpt><trkpt lat="47.77212023571706" lon="11.669196445977304"><ele>746.0</ele><time>2026-05-01T10:59:47.001Z</time></trkpt><trkpt lat="47.77221018492091" lon="11.66929100344326"><ele>746.0</ele><time>2026-05-01T10:59:48.001Z</time></trkpt><trkpt lat="47.77228299086828" lon="11.669411460500333"><ele>746.0</ele><time>2026-05-01T10:59:49.001Z</time></trkpt><trkpt lat="47.772327701167725" lon="11.66955793630378"><ele>746.0</ele><time>2026-05-01T10:59:50.001Z</time></trkpt><trkpt lat="47.772316997201294" lon="11.669720908537318"><ele>746.0</ele><time>2026-05-01T10:59:51.001Z</time></trkpt><trkpt lat="47.77231518982188" lon="11.669886504924227"><ele>747.1999999999999</ele><time>2026-05-01T10:59:52.001Z</time></trkpt><trkpt lat="47.77230565198588" lon="11.67005866597702"><ele>748.4</ele><time>2026-05-01T10:59:53.001Z</time></trkpt><trkpt lat="47.772277703257515" lon="11.670221635628947"><ele>749.6</ele><time>2026-05-01T10:59:54.001Z</time></trkpt><trkpt lat="47.772236663228306" lon="11.670368109457568"><ele>750.8</ele><time>2026-05-01T10:59:55.001Z</time></trkpt><trkpt lat="47.772175437895775" lon="11.670487379228287"><ele>752.0</ele><time>2026-05-01T10:59:56.001Z</time></trkpt><trkpt lat="47.77209409838761" lon="11.670593779535695"><ele>752.5</ele><time>2026-05-01T10:59:57.001Z</time></trkpt><trkpt lat="47.7720054919758" lon="11.670697255241002"><ele>753.0</ele><time>2026-05-01T10:59:58.001Z</time></trkpt><trkpt lat="47.771909845682686" lon="11.670789572956624"><ele>753.5</ele><time>2026-05-01T10:59:59.001Z</time></trkpt><trkpt lat="47.77182671700964" lon="11.67091384898751"><ele>754.0</ele><time>2026-05-01T11:00:00.001Z</time></trkpt><trkpt lat="47.771736117160124" lon="11.671022593755666"><ele>754.25</ele><time>2026-05-01T11:00:01.001Z</time></trkpt><trkpt lat="47.77165587943056" lon="11.671143540095686"><ele>754.5</ele><time>2026-05-01T11:00:02.001Z</time></trkpt><trkpt lat="47.77158105193339" lon="11.671276913563203"><ele>754.75</ele><time>2026-05-01T11:00:03.001Z</time></trkpt><trkpt lat="47.77151819647378" lon="11.671434969841016"><ele>755.0</ele><time>2026-05-01T11:00:04.001Z</time></trkpt><trkpt lat="47.77146302586052" lon="11.671590899791449"><ele>755.0</ele><time>2026-05-01T11:00:05.001Z</time></trkpt><trkpt lat="47.77139462826019" lon="11.6717485143686"><ele>755.0</ele><time>2026-05-01T11:00:06.001Z</time></trkpt><trkpt lat="47.771341744701864" lon="11.671917261419889"><ele>755.0</ele><time>2026-05-01T11:00:07.001Z</time></trkpt><trkpt lat="47.77129497799357" lon="11.672090129329744"><ele>755.0</ele><time>2026-05-01T11:00:08.001Z</time></trkpt><trkpt lat="47.771252501901465" lon="11.672266136264764"><ele>756.5</ele><time>2026-05-01T11:00:09.001Z</time></trkpt><trkpt lat="47.77121359902056" lon="11.672444228539808"><ele>758.0</ele><time>2026-05-01T11:00:10Z</time></trkpt><trkpt lat="47.77117611552914" lon="11.67262434878235"><ele>759.5</ele><time>2026-05-01T11:00:11Z</time></trkpt><trkpt lat="47.7711399408753" lon="11.672805439796557"><ele>761.0</ele><time>2026-05-01T11:00:12Z</time></trkpt><trkpt lat="47.77110314240339" lon="11.672989653655367"><ele>762.0</ele><time>2026-05-01T11:00:13Z</time></trkpt><trkpt lat="47.77106647559822" lon="11.67317320841202"><ele>763.0</ele><time>2026-05-01T11:00:14Z</time></trkpt><trkpt lat="47.771022505042865" lon="11.673355992027744"><ele>764.0</ele><time>2026-05-01T11:00:15Z</time></trkpt><trkpt lat="47.77097305456964" lon="11.673518760202587"><ele>765.0</ele><time>2026-05-01T11:00:16Z</time></trkpt><trkpt lat="47.770922372629414" lon="11.673663916414254"><ele>766.75</ele><time>2026-05-01T11:00:17Z</time></trkpt><trkpt lat="47.770868444263215" lon="11.67382132360124"><ele>768.5</ele><time>2026-05-01T11:00:18Z</time></trkpt><trkpt lat="47.770818235355506" lon="11.673980850344424"><ele>770.25</ele><time>2026-05-01T11:00:19Z</time></trkpt><trkpt lat="47.77077462669142" lon="11.674144217466646"><ele>772.0</ele><time>2026-05-01T11:00:20Z</time></trkpt><trkpt lat="47.770766386507944" lon="11.674323592135057"><ele>772.2</ele><time>2026-05-01T11:00:21Z</time></trkpt><trkpt lat="47.77075966343541" lon="11.67449013473987"><ele>772.4000000000001</ele><time>2026-05-01T11:00:22Z</time></trkpt><trkpt lat="47.77077767346405" lon="11.674653567003071"><ele>772.5999999999999</ele><time>2026-05-01T11:00:23Z</time></trkpt><trkpt lat="47.77081399410398" lon="11.674805406021513"><ele>772.8</ele><time>2026-05-01T11:00:24Z</time></trkpt><trkpt lat="47.770864263221824" lon="11.674956006748559"><ele>773.0</ele><time>2026-05-01T11:00:25Z</time></trkpt><trkpt lat="47.77091590446958" lon="11.675117134353309"><ele>772.75</ele><time>2026-05-01T11:00:26Z</time></trkpt><trkpt lat="47.770962502332544" lon="11.675284609868312"><ele>772.5</ele><time>2026-05-01T11:00:27Z</time></trkpt><trkpt lat="47.77100847991567" lon="11.675455759614408"><ele>772.25</ele><time>2026-05-01T11:00:28Z</time></trkpt><trkpt lat="47.771050761450105" lon="11.675629969414596"><ele>772.0</ele><time>2026-05-01T11:00:29Z</time></trkpt><trkpt lat="47.77108586602036" lon="11.675808891979907"><ele>772.0</ele><time>2026-05-01T11:00:30Z</time></trkpt><trkpt lat="47.771108587246125" lon="11.675993617621971"><ele>772.0</ele><time>2026-05-01T11:00:31Z</time></trkpt><trkpt lat="47.77110127268442" lon="11.676183267477056"><ele>772.0</ele><time>2026-05-01T11:00:32Z</time></trkpt><trkpt lat="47.77111680927045" lon="11.676373303380082"><ele>772.0</ele><time>2026-05-01T11:00:33Z</time></trkpt><trkpt lat="47.77111752772475" lon="11.67656274477554"><ele>772.25</ele><time>2026-05-01T11:00:34Z</time></trkpt><trkpt lat="47.7711036632134" lon="11.67675286802173"><ele>772.5</ele><time>2026-05-01T11:00:35Z</time></trkpt><trkpt lat="47.77112151140796" lon="11.67695121880923"><ele>772.75</ele><time>2026-05-01T11:00:36Z</time></trkpt><trkpt lat="47.77112505044296" lon="11.677153509200659"><ele>773.0</ele><time>2026-05-01T11:00:37Z</time></trkpt><trkpt lat="47.77112734240452" lon="11.677353894495377"><ele>773.5</ele><time>2026-05-01T11:00:38Z</time></trkpt><trkpt lat="47.77113125403576" lon="11.677550568204094"><ele>774.0</ele><time>2026-05-01T11:00:39Z</time></trkpt><trkpt lat="47.77111873023109" lon="11.677743966037708"><ele>774.5</ele><time>2026-05-01T11:00:40Z</time></trkpt><trkpt lat="47.77114862385896" lon="11.677938993239575"><ele>775.0</ele><time>2026-05-01T11:00:41Z</time></trkpt><trkpt lat="47.771169200088195" lon="11.678136331536836"><ele>775.0</ele><time>2026-05-01T11:00:42Z</time></trkpt><trkpt lat="47.77119691820581" lon="11.678334386800056"><ele>775.0</ele><time>2026-05-01T11:00:43Z</time></trkpt><trkpt lat="47.77122766131723" lon="11.678536107598077"><ele>775.0</ele><time>2026-05-01T11:00:44Z</time></trkpt><trkpt lat="47.77126003604513" lon="11.678745040971737"><ele>775.0</ele><time>2026-05-01T11:00:45Z</time></trkpt><trkpt lat="47.771295137031046" lon="11.678962241561829"><ele>775.0</ele><time>2026-05-01T11:00:46Z</time></trkpt><trkpt lat="47.77131515809939" lon="11.679188240378645"><ele>775.0</ele><time>2026-05-01T11:00:47Z</time></trkpt><trkpt lat="47.771350160469154" lon="11.679402082778841"><ele>775.0</ele><time>2026-05-01T11:00:48Z</time></trkpt><trkpt lat="47.77138456595454" lon="11.679619399586567"><ele>775.0</ele><time>2026-05-01T11:00:49Z</time></trkpt><trkpt lat="47.77141697046578" lon="11.679839328440554"><ele>775.0</ele><time>2026-05-01T11:00:50Z</time></trkpt><trkpt lat="47.77144918871094" lon="11.680058691939323"><ele>775.0</ele><time>2026-05-01T11:00:51Z</time></trkpt><trkpt lat="47.77148187581919" lon="11.680276558557503"><ele>775.0</ele><time>2026-05-01T11:00:52Z</time></trkpt><trkpt lat="47.771531465713686" lon="11.68049030400182"><ele>775.0</ele><time>2026-05-01T11:00:53Z</time></trkpt><trkpt lat="47.771549976342705" lon="11.680713139580842"><ele>775.0</ele><time>2026-05-01T11:00:54Z</time></trkpt><trkpt lat="47.771584461717794" lon="11.680929464036574"><ele>775.0</ele><time>2026-05-01T11:00:55Z</time></trkpt><trkpt lat="47.77161996374264" lon="11.681149961102248"><ele>775.0</ele><time>2026-05-01T11:00:56Z</time></trkpt><trkpt lat="47.77165627921342" lon="11.681371060422414"><ele>775.0</ele><time>2026-05-01T11:00:57Z</time></trkpt><trkpt lat="47.7716970260468" lon="11.681592379746533"><ele>775.0</ele><time>2026-05-01T11:00:58Z</time></trkpt><trkpt lat="47.77173906629805" lon="11.681814233464781"><ele>775.0</ele><time>2026-05-01T11:00:59Z</time></trkpt><trkpt lat="47.77178150023115" lon="11.682036468643327"><ele>775.0</ele><time>2026-05-01T11:01:00Z</time></trkpt><trkpt lat="47.77182494107597" lon="11.682255781391932"><ele>775.0</ele><time>2026-05-01T11:01:01Z</time></trkpt><trkpt lat="47.77186924244262" lon="11.682471000755006"><ele>775.0</ele><time>2026-05-01T11:01:02Z</time></trkpt><trkpt lat="47.771915212578435" lon="11.68268405428536"><ele>775.0</ele><time>2026-05-01T11:01:03Z</time></trkpt><trkpt lat="47.771961926533955" lon="11.682897090245199"><ele>775.0</ele><time>2026-05-01T11:01:04Z</time></trkpt><trkpt lat="47.77200823508784" lon="11.683109257234463"><ele>775.0</ele><time>2026-05-01T11:01:05Z</time></trkpt><trkpt lat="47.772054321336476" lon="11.683320405707873"><ele>775.0</ele><time>2026-05-01T11:01:06Z</time></trkpt><trkpt lat="47.772099393967274" lon="11.683531166082599"><ele>775.0</ele><time>2026-05-01T11:01:07Z</time></trkpt><trkpt lat="47.77215862635906" lon="11.683734315521399"><ele>775.25</ele><time>2026-05-01T11:01:08Z</time></trkpt><trkpt lat="47.77219917995255" lon="11.68394584995161"><ele>775.5</ele><time>2026-05-01T11:01:09Z</time></trkpt><trkpt lat="47.77223771109538" lon="11.684157903609503"><ele>775.75</ele><time>2026-05-01T11:01:10Z</time></trkpt><trkpt lat="47.77227215541653" lon="11.684370817746407"><ele>776.0</ele><time>2026-05-01T11:01:11Z</time></trkpt><trkpt lat="47.77230419651832" lon="11.684585186579726"><ele>776.0</ele><time>2026-05-01T11:01:12Z</time></trkpt><trkpt lat="47.77233306484443" lon="11.684800591646932"><ele>776.0</ele><time>2026-05-01T11:01:13Z</time></trkpt><trkpt lat="47.77236181359133" lon="11.685017589817924"><ele>776.0</ele><time>2026-05-01T11:01:14Z</time></trkpt><trkpt lat="47.772390294292194" lon="11.685234403996931"><ele>776.0</ele><time>2026-05-01T11:01:15Z</time></trkpt><trkpt lat="47.77241446831317" lon="11.685456784847608"><ele>775.6666666666667</ele><time>2026-05-01T11:01:16Z</time></trkpt><trkpt lat="47.77243232389864" lon="11.685679192707086"><ele>775.3333333333333</ele><time>2026-05-01T11:01:17Z</time></trkpt><trkpt lat="47.77244740529214" lon="11.685903865746882"><ele>775.0</ele><time>2026-05-01T11:01:18Z</time></trkpt><trkpt lat="47.77246199051907" lon="11.686129667684051"><ele>774.6666666666666</ele><time>2026-05-01T11:01:19Z</time></trkpt><trkpt lat="47.772475521851376" lon="11.686355061323772"><ele>774.3333333333333</ele><time>2026-05-01T11:01:20Z</time></trkpt><trkpt lat="47.77248694450937" lon="11.686580749455063"><ele>774.0</ele><time>2026-05-01T11:01:21.001Z</time></trkpt><trkpt lat="47.77249680820082" lon="11.68680577717317"><ele>774.5</ele><time>2026-05-01T11:01:22.001Z</time></trkpt><trkpt lat="47.772507547420204" lon="11.687025040726699"><ele>775.0</ele><time>2026-05-01T11:01:23.001Z</time></trkpt><trkpt lat="47.77251929546802" lon="11.687239436929241"><ele>775.5</ele><time>2026-05-01T11:01:24.001Z</time></trkpt><trkpt lat="47.77253210068029" lon="11.687452101597833"><ele>776.0</ele><time>2026-05-01T11:01:25.001Z</time></trkpt><trkpt lat="47.77254754590862" lon="11.687663289868214"><ele>776.0</ele><time>2026-05-01T11:01:26.001Z</time></trkpt><trkpt lat="47.77256591646342" lon="11.687874442017213"><ele>776.0</ele><time>2026-05-01T11:01:27.001Z</time></trkpt><trkpt lat="47.772586625827955" lon="11.688084650646529"><ele>776.0</ele><time>2026-05-01T11:01:28.001Z</time></trkpt><trkpt lat="47.772608728917" lon="11.68829431514805"><ele>776.0</ele><time>2026-05-01T11:01:29.001Z</time></trkpt><trkpt lat="47.772632384699165" lon="11.68850066337052"><ele>775.75</ele><time>2026-05-01T11:01:30.001Z</time></trkpt><trkpt lat="47.77265780170686" lon="11.688701076927186"><ele>775.5</ele><time>2026-05-01T11:01:31.001Z</time></trkpt><trkpt lat="47.77268365279302" lon="11.688892274823457"><ele>775.25</ele><time>2026-05-01T11:01:32.001Z</time></trkpt><trkpt lat="47.77271077100501" lon="11.689071192679142"><ele>775.0</ele><time>2026-05-01T11:01:33.001Z</time></trkpt><trkpt lat="47.77273929712434" lon="11.689240703356754"><ele>774.8</ele><time>2026-05-01T11:01:34.001Z</time></trkpt><trkpt lat="47.772767628318434" lon="11.689404010503882"><ele>774.6</ele><time>2026-05-01T11:01:35.001Z</time></trkpt><trkpt lat="47.77279554116693" lon="11.689560556687711"><ele>774.4000000000001</ele><time>2026-05-01T11:01:36.001Z</time></trkpt><trkpt lat="47.77282094057783" lon="11.689704585640373"><ele>774.2</ele><time>2026-05-01T11:01:37.001Z</time></trkpt><trkpt lat="47.77284359939534" lon="11.689841820066686"><ele>774.0</ele><time>2026-05-01T11:01:38.001Z</time></trkpt><trkpt lat="47.7728635879206" lon="11.68997296005299"><ele>774.5</ele><time>2026-05-01T11:01:39.001Z</time></trkpt><trkpt lat="47.772876239901365" lon="11.690100645498456"><ele>775.0</ele><time>2026-05-01T11:01:40.001Z</time></trkpt><trkpt lat="47.77286644631384" lon="11.69022856095764"><ele>775.5</ele><time>2026-05-01T11:01:41.001Z</time></trkpt><trkpt lat="47.77286013841744" lon="11.690354456740836"><ele>776.0</ele><time>2026-05-01T11:01:42.001Z</time></trkpt><trkpt lat="47.77287276660583" lon="11.690475434680552"><ele>776.5</ele><time>2026-05-01T11:01:43.001Z</time></trkpt><trkpt lat="47.772926794340876" lon="11.690579474541849"><ele>777.0</ele><time>2026-05-01T11:01:44.001Z</time></trkpt><trkpt lat="47.77300542660929" lon="11.690667742084228"><ele>778.5</ele><time>2026-05-01T11:01:45.001Z</time></trkpt><trkpt lat="47.77308044563566" lon="11.690775698504124"><ele>780.0</ele><time>2026-05-01T11:01:46.001Z</time></trkpt><trkpt lat="47.77313704775965" lon="11.69092429129338"><ele>781.5</ele><time>2026-05-01T11:01:47.001Z</time></trkpt><trkpt lat="47.773185058914635" lon="11.69110547235913"><ele>783.0</ele><time>2026-05-01T11:01:48.001Z</time></trkpt><trkpt lat="47.773236592968075" lon="11.691307151518181"><ele>784.0</ele><time>2026-05-01T11:01:49.001Z</time></trkpt><trkpt lat="47.77329940694925" lon="11.69152448670739"><ele>785.0</ele><time>2026-05-01T11:01:50.001Z</time></trkpt><trkpt lat="47.77336886676085" lon="11.691757756838001"><ele>786.0</ele><time>2026-05-01T11:01:51.001Z</time></trkpt><trkpt lat="47.77344347269725" lon="11.691994390176509"><ele>787.3333333333333</ele><time>2026-05-01T11:01:52.001Z</time></trkpt><trkpt lat="47.77351234158332" lon="11.692233030438032"><ele>788.6666666666666</ele><time>2026-05-01T11:01:53.001Z</time></trkpt><trkpt lat="47.77358133346813" lon="11.692491367782056"><ele>790.0</ele><time>2026-05-01T11:01:54.001Z</time></trkpt><trkpt lat="47.77365097337982" lon="11.692767876741344"><ele>793.0</ele><time>2026-05-01T11:01:55.001Z</time></trkpt><trkpt lat="47.7737148191739" lon="11.693038058435388"><ele>796.0</ele><time>2026-05-01T11:01:56.001Z</time></trkpt><trkpt lat="47.77376668041985" lon="11.693309500190534"><ele>799.0</ele><time>2026-05-01T11:01:57.001Z</time></trkpt><trkpt lat="47.77381319097937" lon="11.693588094976008"><ele>796.0</ele><time>2026-05-01T11:01:58.001Z</time></trkpt><trkpt lat="47.77386190704522" lon="11.693865795888101"><ele>793.0</ele><time>2026-05-01T11:01:59.001Z</time></trkpt><trkpt lat="47.77391501286235" lon="11.694139632110703"><ele>790.0</ele><time>2026-05-01T11:02:00.001Z</time></trkpt><trkpt lat="47.7739716760603" lon="11.69439906443617"><ele>787.6666666666666</ele><time>2026-05-01T11:02:01.001Z</time></trkpt><trkpt lat="47.77402963249439" lon="11.694648200826057"><ele>785.3333333333333</ele><time>2026-05-01T11:02:02.001Z</time></trkpt><trkpt lat="47.77409320469286" lon="11.694901151148622"><ele>783.0</ele><time>2026-05-01T11:02:03.001Z</time></trkpt><trkpt lat="47.77416467234927" lon="11.695156812439299"><ele>782.0</ele><time>2026-05-01T11:02:04.001Z</time></trkpt><trkpt lat="47.774244974476865" lon="11.6954102332753"><ele>781.0</ele><time>2026-05-01T11:02:05.001Z</time></trkpt><trkpt lat="47.774332832877114" lon="11.69566687758477"><ele>780.0</ele><time>2026-05-01T11:02:06.001Z</time></trkpt><trkpt lat="47.77442453932958" lon="11.69592305648972"><ele>778.0</ele><time>2026-05-01T11:02:07.001Z</time></trkpt><trkpt lat="47.77451513708511" lon="11.696170434780687"><ele>776.0</ele><time>2026-05-01T11:02:08.001Z</time></trkpt><trkpt lat="47.774610252447715" lon="11.69642901078658"><ele>774.0</ele><time>2026-05-01T11:02:09.001Z</time></trkpt><trkpt lat="47.77470571079961" lon="11.696688116521855"><ele>774.3333333333333</ele><time>2026-05-01T11:02:10.001Z</time></trkpt><trkpt lat="47.77480189454224" lon="11.696943386465696"><ele>774.6666666666666</ele><time>2026-05-01T11:02:11.001Z</time></trkpt><trkpt lat="47.77489534064539" lon="11.697201767561566"><ele>775.0</ele><time>2026-05-01T11:02:12.001Z</time></trkpt><trkpt lat="47.774989603012905" lon="11.697461649484534"><ele>775.0</ele><time>2026-05-01T11:02:13.001Z</time></trkpt><trkpt lat="47.775080784209905" lon="11.697720166790571"><ele>775.0</ele><time>2026-05-01T11:02:14.001Z</time></trkpt><trkpt lat="47.77516823180036" lon="11.697982222221482"><ele>775.0</ele><time>2026-05-01T11:02:15.001Z</time></trkpt><trkpt lat="47.77523587050044" lon="11.698262511443764"><ele>774.6666666666666</ele><time>2026-05-01T11:02:16Z</time></trkpt><trkpt lat="47.77531653687784" lon="11.69854315979844"><ele>774.3333333333333</ele><time>2026-05-01T11:02:17Z</time></trkpt><trkpt lat="47.775396702464754" lon="11.69883391619473"><ele>774.0</ele><time>2026-05-01T11:02:18Z</time></trkpt><trkpt lat="47.77548818953452" lon="11.699128194349734"><ele>776.0</ele><time>2026-05-01T11:02:19Z</time></trkpt><trkpt lat="47.775562807102844" lon="11.699435066713754"><ele>778.0</ele><time>2026-05-01T11:02:20Z</time></trkpt><trkpt lat="47.77563744795255" lon="11.699745339431828"><ele>780.0</ele><time>2026-05-01T11:02:21Z</time></trkpt><trkpt lat="47.775690223933644" lon="11.700067230308473"><ele>780.3333333333333</ele><time>2026-05-01T11:02:22Z</time></trkpt><trkpt lat="47.77576966391129" lon="11.700376603788415"><ele>780.6666666666666</ele><time>2026-05-01T11:02:23Z</time></trkpt><trkpt lat="47.775827930451534" lon="11.700698300868842"><ele>781.0</ele><time>2026-05-01T11:02:24Z</time></trkpt><trkpt lat="47.77586915717058" lon="11.701026591900018"><ele>780.6666666666666</ele><time>2026-05-01T11:02:25Z</time></trkpt><trkpt lat="47.77591987998645" lon="11.70134970067681"><ele>780.3333333333333</ele><time>2026-05-01T11:02:26Z</time></trkpt><trkpt lat="47.77596619539199" lon="11.701659339535693"><ele>780.0</ele><time>2026-05-01T11:02:27Z</time></trkpt><trkpt lat="47.77601056302698" lon="11.701976177474416"><ele>779.3333333333333</ele><time>2026-05-01T11:02:28Z</time></trkpt><trkpt lat="47.77605335255511" lon="11.702295676921858"><ele>778.6666666666666</ele><time>2026-05-01T11:02:29Z</time></trkpt><trkpt lat="47.77609565257178" lon="11.702618876182626"><ele>778.0</ele><time>2026-05-01T11:02:30Z</time></trkpt><trkpt lat="47.776138040127805" lon="11.702942744186169"><ele>778.0</ele><time>2026-05-01T11:02:31Z</time></trkpt><trkpt lat="47.77617979474482" lon="11.703265684797225"><ele>778.0</ele><time>2026-05-01T11:02:32Z</time></trkpt><trkpt lat="47.77622162483801" lon="11.703589419056305"><ele>778.0</ele><time>2026-05-01T11:02:33Z</time></trkpt><trkpt lat="47.77626354198325" lon="11.703912805430287"><ele>778.0</ele><time>2026-05-01T11:02:34Z</time></trkpt><trkpt lat="47.77632889346504" lon="11.704230576899961"><ele>778.0</ele><time>2026-05-01T11:02:35Z</time></trkpt><trkpt lat="47.77637695039219" lon="11.704557324698474"><ele>778.0</ele><time>2026-05-01T11:02:36Z</time></trkpt><trkpt lat="47.77642946906585" lon="11.704885113008917"><ele>777.0</ele><time>2026-05-01T11:02:37Z</time></trkpt><trkpt lat="47.77648606609665" lon="11.705213947205015"><ele>776.0</ele><time>2026-05-01T11:02:38Z</time></trkpt><trkpt lat="47.77652353197093" lon="11.705549565153108"><ele>776.0</ele><time>2026-05-01T11:02:39Z</time></trkpt><trkpt lat="47.776585621896956" lon="11.705855916024753"><ele>776.0</ele><time>2026-05-01T11:02:40Z</time></trkpt><trkpt lat="47.77664994033347" lon="11.706143842606208"><ele>776.0</ele><time>2026-05-01T11:02:41Z</time></trkpt><trkpt lat="47.77671856159157" lon="11.706420223916922"><ele>776.3333333333334</ele><time>2026-05-01T11:02:42Z</time></trkpt><trkpt lat="47.77678645710547" lon="11.706682767013588"><ele>776.6666666666667</ele><time>2026-05-01T11:02:43Z</time></trkpt><trkpt lat="47.776857717377155" lon="11.706945451950377"><ele>777.0</ele><time>2026-05-01T11:02:44Z</time></trkpt><trkpt lat="47.77693506026539" lon="11.707201922651885"><ele>776.0</ele><time>2026-05-01T11:02:45Z</time></trkpt><trkpt lat="47.777029381932685" lon="11.707444372195244"><ele>775.0</ele><time>2026-05-01T11:02:46Z</time></trkpt><trkpt lat="47.77711141562354" lon="11.707692367846311"><ele>774.0</ele><time>2026-05-01T11:02:47Z</time></trkpt><trkpt lat="47.7771982906728" lon="11.707934351250934"><ele>774.0</ele><time>2026-05-01T11:02:48Z</time></trkpt><trkpt lat="47.77728490205172" lon="11.708176611493247"><ele>774.0</ele><time>2026-05-01T11:02:49Z</time></trkpt><trkpt lat="47.77737724279253" lon="11.708421495820406"><ele>774.0</ele><time>2026-05-01T11:02:50Z</time></trkpt><trkpt lat="47.77747628884943" lon="11.708666750827117"><ele>774.0</ele><time>2026-05-01T11:02:51Z</time></trkpt><trkpt lat="47.77757462859361" lon="11.70891459547078"><ele>774.0</ele><time>2026-05-01T11:02:52Z</time></trkpt><trkpt lat="47.777674386106426" lon="11.709163383299119"><ele>774.0</ele><time>2026-05-01T11:02:53Z</time></trkpt><trkpt lat="47.777772166942086" lon="11.709411040253675"><ele>775.6666666666667</ele><time>2026-05-01T11:02:54Z</time></trkpt><trkpt lat="47.77787006417402" lon="11.70965740435703"><ele>777.3333333333334</ele><time>2026-05-01T11:02:55Z</time></trkpt><trkpt lat="47.7779665105335" lon="11.709909276874582"><ele>779.0</ele><time>2026-05-01T11:02:56Z</time></trkpt><trkpt lat="47.778061283741735" lon="11.710167325432712"><ele>779.0</ele><time>2026-05-01T11:02:57Z</time></trkpt><trkpt lat="47.77814970082447" lon="11.710429323224995"><ele>779.0</ele><time>2026-05-01T11:02:58Z</time></trkpt><trkpt lat="47.778233363642386" lon="11.710696086833252"><ele>779.0</ele><time>2026-05-01T11:02:59Z</time></trkpt><trkpt lat="47.7783118457663" lon="11.710965924404775"><ele>778.6666666666667</ele><time>2026-05-01T11:03:00Z</time></trkpt><trkpt lat="47.77838265002814" lon="11.711241801059824"><ele>778.3333333333333</ele><time>2026-05-01T11:03:01Z</time></trkpt><trkpt lat="47.77844726950072" lon="11.711521076305944"><ele>778.0</ele><time>2026-05-01T11:03:02Z</time></trkpt><trkpt lat="47.778502976330316" lon="11.711805367940276"><ele>776.3333333333333</ele><time>2026-05-01T11:03:03Z</time></trkpt><trkpt lat="47.778553038834104" lon="11.712093276475443"><ele>774.6666666666667</ele><time>2026-05-01T11:03:04Z</time></trkpt><trkpt lat="47.77859898999779" lon="11.712378765134087"><ele>773.0</ele><time>2026-05-01T11:03:05Z</time></trkpt><trkpt lat="47.77863700581366" lon="11.712652191809692"><ele>773.0</ele><time>2026-05-01T11:03:06Z</time></trkpt><trkpt lat="47.77866897742344" lon="11.712928210901115"><ele>773.0</ele><time>2026-05-01T11:03:07Z</time></trkpt><trkpt lat="47.77869700528706" lon="11.71320629932594"><ele>773.0</ele><time>2026-05-01T11:03:08Z</time></trkpt><trkpt lat="47.77872033645456" lon="11.713485617612225"><ele>772.3333333333334</ele><time>2026-05-01T11:03:09Z</time></trkpt><trkpt lat="47.77873787286979" lon="11.713766805949941"><ele>771.6666666666667</ele><time>2026-05-01T11:03:10Z</time></trkpt><trkpt lat="47.77874986943378" lon="11.714049766740501"><ele>771.0</ele><time>2026-05-01T11:03:11Z</time></trkpt><trkpt lat="47.778754913976904" lon="11.714332933756424"><ele>770.3333333333333</ele><time>2026-05-01T11:03:12Z</time></trkpt><trkpt lat="47.77875050282991" lon="11.714615724982695"><ele>769.6666666666666</ele><time>2026-05-01T11:03:13Z</time></trkpt><trkpt lat="47.778738781936305" lon="11.71489718024816"><ele>769.0</ele><time>2026-05-01T11:03:14Z</time></trkpt><trkpt lat="47.778720697300244" lon="11.715177038325994"><ele>768.3333333333333</ele><time>2026-05-01T11:03:15Z</time></trkpt><trkpt lat="47.77869698826549" lon="11.715455399336774"><ele>767.6666666666666</ele><time>2026-05-01T11:03:16Z</time></trkpt><trkpt lat="47.77866928288287" lon="11.715734654171323"><ele>767.0</ele><time>2026-05-01T11:03:17Z</time></trkpt><trkpt lat="47.778639002610866" lon="11.716017265620435"><ele>767.6666666666666</ele><time>2026-05-01T11:03:18Z</time></trkpt><trkpt lat="47.77860789628403" lon="11.716303205065785"><ele>768.3333333333333</ele><time>2026-05-01T11:03:19Z</time></trkpt><trkpt lat="47.778574218385636" lon="11.716587679341831"><ele>769.0</ele><time>2026-05-01T11:03:20Z</time></trkpt><trkpt lat="47.77853891673369" lon="11.716869829359256"><ele>768.6666666666666</ele><time>2026-05-01T11:03:21Z</time></trkpt><trkpt lat="47.77850288275679" lon="11.717147236549462"><ele>768.3333333333333</ele><time>2026-05-01T11:03:22Z</time></trkpt><trkpt lat="47.778468656972834" lon="11.71742166802332"><ele>768.0</ele><time>2026-05-01T11:03:23Z</time></trkpt><trkpt lat="47.77843908661486" lon="11.717694506194439"><ele>767.0</ele><time>2026-05-01T11:03:24Z</time></trkpt><trkpt lat="47.77841570928617" lon="11.717966242229213"><ele>766.0</ele><time>2026-05-01T11:03:25Z</time></trkpt><trkpt lat="47.778397540575234" lon="11.71824087695136"><ele>765.0</ele><time>2026-05-01T11:03:26Z</time></trkpt><trkpt lat="47.778381733116824" lon="11.718517905523875"><ele>764.6666666666666</ele><time>2026-05-01T11:03:27Z</time></trkpt><trkpt lat="47.77836735686688" lon="11.718795179494274"><ele>764.3333333333333</ele><time>2026-05-01T11:03:28Z</time></trkpt><trkpt lat="47.77835385127766" lon="11.719074079181857"><ele>764.0</ele><time>2026-05-01T11:03:29Z</time></trkpt><trkpt lat="47.77833905053807" lon="11.719353091950051"><ele>764.3333333333333</ele><time>2026-05-01T11:03:30Z</time></trkpt><trkpt lat="47.778324427517745" lon="11.719627264992289"><ele>764.6666666666666</ele><time>2026-05-01T11:03:31Z</time></trkpt><trkpt lat="47.77830865492907" lon="11.719895362383287"><ele>765.0</ele><time>2026-05-01T11:03:32.001Z</time></trkpt><trkpt lat="47.77829195511535" lon="11.72016085447663"><ele>764.0</ele><time>2026-05-01T11:03:33.001Z</time></trkpt><trkpt lat="47.77827576224424" lon="11.720427083404324"><ele>763.0</ele><time>2026-05-01T11:03:34.001Z</time></trkpt><trkpt lat="47.77826037602212" lon="11.720687981514937"><ele>762.0</ele><time>2026-05-01T11:03:35.001Z</time></trkpt><trkpt lat="47.77824874086784" lon="11.720933660957803"><ele>761.75</ele><time>2026-05-01T11:03:36.001Z</time></trkpt><trkpt lat="47.77824193435231" lon="11.72116556675767"><ele>761.5</ele><time>2026-05-01T11:03:37.001Z</time></trkpt><trkpt lat="47.778240783647995" lon="11.72138743880296"><ele>761.25</ele><time>2026-05-01T11:03:38.001Z</time></trkpt><trkpt lat="47.77824314370361" lon="11.721600184135085"><ele>761.0</ele><time>2026-05-01T11:03:39.001Z</time></trkpt><trkpt lat="47.778246756294855" lon="11.721803923278618"><ele>760.75</ele><time>2026-05-01T11:03:40.001Z</time></trkpt><trkpt lat="47.77825079397735" lon="11.721997622952602"><ele>760.5</ele><time>2026-05-01T11:03:41.001Z</time></trkpt><trkpt lat="47.77825277279097" lon="11.722180459282775"><ele>760.25</ele><time>2026-05-01T11:03:42.001Z</time></trkpt><trkpt lat="47.77825443763907" lon="11.722352532494789"><ele>760.0</ele><time>2026-05-01T11:03:43.001Z</time></trkpt><trkpt lat="47.77825721849298" lon="11.7225125687315"><ele>760.0</ele><time>2026-05-01T11:03:44.001Z</time></trkpt><trkpt lat="47.77826121423388" lon="11.722662503758828"><ele>760.0</ele><time>2026-05-01T11:03:45.001Z</time></trkpt><trkpt lat="47.77826521959342" lon="11.722798862449608"><ele>760.0</ele><time>2026-05-01T11:03:46.001Z</time></trkpt><trkpt lat="47.778268303617594" lon="11.722913805531615"><ele>760.0</ele><time>2026-05-01T11:03:47.001Z</time></trkpt><trkpt lat="47.77827059537954" lon="11.723083745857238"><ele>760.0</ele><time>2026-05-01T11:03:49.001Z</time></trkpt><trkpt lat="47.77827324442279" lon="11.723194148305332"><ele>760.0</ele><time>2026-05-01T11:03:51.001Z</time></trkpt><trkpt lat="47.77832079135954" lon="11.723422873184989"><ele>760.0</ele><time>2026-05-01T11:04:59Z</time></trkpt><trkpt lat="47.77832918745507" lon="11.723548427137576"><ele>760.0</ele><time>2026-05-01T11:05:00Z</time></trkpt><trkpt lat="47.778338877449315" lon="11.723693753084733"><ele>760.0</ele><time>2026-05-01T11:05:01Z</time></trkpt><trkpt lat="47.778348372168544" lon="11.723838109300058"><ele>760.0</ele><time>2026-05-01T11:05:02Z</time></trkpt><trkpt lat="47.77829695549523" lon="11.72401778302004"><ele>759.5</ele><time>2026-05-01T11:05:03Z</time></trkpt><trkpt lat="47.77830828321412" lon="11.724223584560947"><ele>759.0</ele><time>2026-05-01T11:05:04Z</time></trkpt><trkpt lat="47.778321382605874" lon="11.724444888709575"><ele>758.5</ele><time>2026-05-01T11:05:05Z</time></trkpt><trkpt lat="47.77839793752087" lon="11.724652262918642"><ele>758.0</ele><time>2026-05-01T11:05:06Z</time></trkpt><trkpt lat="47.77841573378322" lon="11.724887438668615"><ele>757.6666666666666</ele><time>2026-05-01T11:05:07Z</time></trkpt><trkpt lat="47.7784372410628" lon="11.7251425284165"><ele>757.3333333333334</ele><time>2026-05-01T11:05:08Z</time></trkpt><trkpt lat="47.77845799372276" lon="11.72541390961903"><ele>757.0</ele><time>2026-05-01T11:05:09Z</time></trkpt><trkpt lat="47.77847649755347" lon="11.725696171343166"><ele>757.0</ele><time>2026-05-01T11:05:10Z</time></trkpt><trkpt lat="47.77842772168896" lon="11.72597816726186"><ele>757.0</ele><time>2026-05-01T11:05:11Z</time></trkpt><trkpt lat="47.778435326760565" lon="11.726250817222917"><ele>757.0</ele><time>2026-05-01T11:05:12Z</time></trkpt><trkpt lat="47.77844006317099" lon="11.726534319408904"><ele>756.6666666666667</ele><time>2026-05-01T11:05:13Z</time></trkpt><trkpt lat="47.77843867885546" lon="11.726830173105487"><ele>756.3333333333334</ele><time>2026-05-01T11:05:14Z</time></trkpt><trkpt lat="47.77843347895592" lon="11.727131793486357"><ele>756.0</ele><time>2026-05-01T11:05:15Z</time></trkpt><trkpt lat="47.7784239373323" lon="11.7274214379638"><ele>757.0</ele><time>2026-05-01T11:05:16Z</time></trkpt><trkpt lat="47.7784090953721" lon="11.727711754136477"><ele>758.0</ele><time>2026-05-01T11:05:17Z</time></trkpt><trkpt lat="47.77838954437631" lon="11.728008996268999"><ele>759.0</ele><time>2026-05-01T11:05:18Z</time></trkpt><trkpt lat="47.77836897575039" lon="11.728302632842611"><ele>758.6666666666666</ele><time>2026-05-01T11:05:19Z</time></trkpt><trkpt lat="47.778346886589944" lon="11.728588405027242"><ele>758.3333333333333</ele><time>2026-05-01T11:05:20Z</time></trkpt><trkpt lat="47.77832206565624" lon="11.728869303667018"><ele>758.0</ele><time>2026-05-01T11:05:21Z</time></trkpt><trkpt lat="47.77829495168237" lon="11.7291538055275"><ele>757.0</ele><time>2026-05-01T11:05:22Z</time></trkpt><trkpt lat="47.77826895755367" lon="11.729441304801894"><ele>756.0</ele><time>2026-05-01T11:05:23Z</time></trkpt><trkpt lat="47.7782454514418" lon="11.729730388191225"><ele>755.0</ele><time>2026-05-01T11:05:24Z</time></trkpt><trkpt lat="47.77822263462532" lon="11.730021467066381"><ele>754.6666666666666</ele><time>2026-05-01T11:05:25Z</time></trkpt><trkpt lat="47.77820089618321" lon="11.73031308896796"><ele>754.3333333333334</ele><time>2026-05-01T11:05:26Z</time></trkpt><trkpt lat="47.77818221027371" lon="11.730605758191805"><ele>754.0</ele><time>2026-05-01T11:05:27Z</time></trkpt><trkpt lat="47.77816538722179" lon="11.730898300637284"><ele>753.3333333333334</ele><time>2026-05-01T11:05:28Z</time></trkpt><trkpt lat="47.778151115285475" lon="11.731192157513844"><ele>752.6666666666666</ele><time>2026-05-01T11:05:29Z</time></trkpt><trkpt lat="47.77814105240178" lon="11.731485499581156"><ele>752.0</ele><time>2026-05-01T11:05:30Z</time></trkpt><trkpt lat="47.77813208756003" lon="11.731779308502311"><ele>752.6666666666666</ele><time>2026-05-01T11:05:31Z</time></trkpt><trkpt lat="47.7781263017053" lon="11.732075355382896"><ele>753.3333333333334</ele><time>2026-05-01T11:05:32Z</time></trkpt><trkpt lat="47.778126273916584" lon="11.732369974571368"><ele>754.0</ele><time>2026-05-01T11:05:33Z</time></trkpt><trkpt lat="47.77812767213075" lon="11.732665171897896"><ele>754.0</ele><time>2026-05-01T11:05:34Z</time></trkpt><trkpt lat="47.77813009378204" lon="11.732961612824537"><ele>754.0</ele><time>2026-05-01T11:05:35Z</time></trkpt><trkpt lat="47.778132522240945" lon="11.733258887131916"><ele>754.0</ele><time>2026-05-01T11:05:36Z</time></trkpt><trkpt lat="47.77813586543746" lon="11.733558771729225"><ele>753.6666666666667</ele><time>2026-05-01T11:05:37Z</time></trkpt><trkpt lat="47.77813999029927" lon="11.7338586754486"><ele>753.3333333333334</ele><time>2026-05-01T11:05:38Z</time></trkpt><trkpt lat="47.778144095589305" lon="11.734157156156781"><ele>753.0</ele><time>2026-05-01T11:05:39Z</time></trkpt><trkpt lat="47.778187721255094" lon="11.734452431502802"><ele>751.6666666666666</ele><time>2026-05-01T11:05:40Z</time></trkpt><trkpt lat="47.77818951438211" lon="11.73474599122938"><ele>750.3333333333333</ele><time>2026-05-01T11:05:41Z</time></trkpt><trkpt lat="47.7781880982045" lon="11.735039742653914"><ele>749.0</ele><time>2026-05-01T11:05:42Z</time></trkpt><trkpt lat="47.778186713529614" lon="11.735334628852108"><ele>749.0</ele><time>2026-05-01T11:05:43Z</time></trkpt><trkpt lat="47.77818221317141" lon="11.735628764763748"><ele>749.0</ele><time>2026-05-01T11:05:44Z</time></trkpt><trkpt lat="47.77813914059904" lon="11.735923584517765"><ele>749.0</ele><time>2026-05-01T11:05:45Z</time></trkpt><trkpt lat="47.77812781632771" lon="11.73621890248135"><ele>748.6666666666666</ele><time>2026-05-01T11:05:46Z</time></trkpt><trkpt lat="47.77811373238019" lon="11.736517829629314"><ele>748.3333333333334</ele><time>2026-05-01T11:05:47Z</time></trkpt><trkpt lat="47.77809716010246" lon="11.736817664852063"><ele>748.0</ele><time>2026-05-01T11:05:48Z</time></trkpt><trkpt lat="47.77807652381425" lon="11.737118110276661"><ele>748.0</ele><time>2026-05-01T11:05:49Z</time></trkpt><trkpt lat="47.77805299882808" lon="11.737418334050215"><ele>748.0</ele><time>2026-05-01T11:05:50Z</time></trkpt><trkpt lat="47.778025181067264" lon="11.73771546600935"><ele>748.0</ele><time>2026-05-01T11:05:51Z</time></trkpt><trkpt lat="47.7779944279414" lon="11.738011255538828"><ele>747.0</ele><time>2026-05-01T11:05:52Z</time></trkpt><trkpt lat="47.777960589012984" lon="11.738304694759233"><ele>746.0</ele><time>2026-05-01T11:05:53Z</time></trkpt><trkpt lat="47.77792462582949" lon="11.738595119270492"><ele>745.0</ele><time>2026-05-01T11:05:54Z</time></trkpt><trkpt lat="47.777885524211804" lon="11.738885953238041"><ele>744.6666666666667</ele><time>2026-05-01T11:05:55Z</time></trkpt><trkpt lat="47.777843927864915" lon="11.739177554852436"><ele>744.3333333333334</ele><time>2026-05-01T11:05:56.001Z</time></trkpt><trkpt lat="47.777797786993204" lon="11.73947657031254"><ele>744.0</ele><time>2026-05-01T11:05:57.001Z</time></trkpt><trkpt lat="47.7777502998244" lon="11.739781740598382"><ele>744.0</ele><time>2026-05-01T11:05:58.001Z</time></trkpt><trkpt lat="47.77770108567566" lon="11.740080712609778"><ele>744.0</ele><time>2026-05-01T11:05:59.001Z</time></trkpt><trkpt lat="47.77765067897176" lon="11.740380111260016"><ele>744.0</ele><time>2026-05-01T11:06:00.001Z</time></trkpt><trkpt lat="47.777598388078566" lon="11.740690701351262"><ele>744.0</ele><time>2026-05-01T11:06:01.001Z</time></trkpt><trkpt lat="47.777544973352555" lon="11.741007966630335"><ele>744.0</ele><time>2026-05-01T11:06:02.001Z</time></trkpt><trkpt lat="47.77749166728317" lon="11.74132845732605"><ele>744.0</ele><time>2026-05-01T11:06:03.001Z</time></trkpt><trkpt lat="47.77744173717032" lon="11.741649473234286"><ele>745.6666666666666</ele><time>2026-05-01T11:06:04.001Z</time></trkpt><trkpt lat="47.77739376808673" lon="11.741964277507341"><ele>747.3333333333333</ele><time>2026-05-01T11:06:05.001Z</time></trkpt><trkpt lat="47.77734610018321" lon="11.742283676750885"><ele>749.0</ele><time>2026-05-01T11:06:06.001Z</time></trkpt><trkpt lat="47.77729988509461" lon="11.742607046322666"><ele>750.3333333333333</ele><time>2026-05-01T11:06:07.001Z</time></trkpt><trkpt lat="47.77725636117069" lon="11.742934408673843"><ele>751.6666666666666</ele><time>2026-05-01T11:06:08.001Z</time></trkpt><trkpt lat="47.77721723837501" lon="11.743260916611785"><ele>753.0</ele><time>2026-05-01T11:06:09.001Z</time></trkpt><trkpt lat="47.77718244127081" lon="11.743590993118312"><ele>753.6666666666666</ele><time>2026-05-01T11:06:10.001Z</time></trkpt><trkpt lat="47.77715354244001" lon="11.743921205847249"><ele>754.3333333333333</ele><time>2026-05-01T11:06:11.001Z</time></trkpt><trkpt lat="47.7771278383067" lon="11.744250656090138"><ele>755.0</ele><time>2026-05-01T11:06:12.001Z</time></trkpt><trkpt lat="47.777104325334925" lon="11.744578696905513"><ele>757.0</ele><time>2026-05-01T11:06:13.001Z</time></trkpt><trkpt lat="47.777081776358656" lon="11.744908300200956"><ele>759.0</ele><time>2026-05-01T11:06:14.001Z</time></trkpt><trkpt lat="47.777061872579814" lon="11.745236609595809"><ele>761.0</ele><time>2026-05-01T11:06:15.001Z</time></trkpt><trkpt lat="47.77704556906231" lon="11.745565414045998"><ele>760.6666666666666</ele><time>2026-05-01T11:06:16.001Z</time></trkpt><trkpt lat="47.7770340925099" lon="11.745895520931715"><ele>760.3333333333334</ele><time>2026-05-01T11:06:17.001Z</time></trkpt><trkpt lat="47.77702732015515" lon="11.74622671474976"><ele>760.0</ele><time>2026-05-01T11:06:18.001Z</time></trkpt><trkpt lat="47.777025189662446" lon="11.746557543742808"><ele>757.0</ele><time>2026-05-01T11:06:19.001Z</time></trkpt><trkpt lat="47.77702628891425" lon="11.746886137981042"><ele>754.0</ele><time>2026-05-01T11:06:20.001Z</time></trkpt><trkpt lat="47.77702799450515" lon="11.747216369859911"><ele>751.0</ele><time>2026-05-01T11:06:21.001Z</time></trkpt><trkpt lat="47.77703227114198" lon="11.747547126373856"><ele>750.3333333333334</ele><time>2026-05-01T11:06:22.001Z</time></trkpt><trkpt lat="47.77704105110967" lon="11.747879893656375"><ele>749.6666666666666</ele><time>2026-05-01T11:06:23.001Z</time></trkpt><trkpt lat="47.77705139657707" lon="11.748213264953126"><ele>749.0</ele><time>2026-05-01T11:06:24.001Z</time></trkpt><trkpt lat="47.77706659773512" lon="11.748548701230268"><ele>749.0</ele><time>2026-05-01T11:06:25.001Z</time></trkpt><trkpt lat="47.77708423258349" lon="11.748886139170567"><ele>749.0</ele><time>2026-05-01T11:06:26.001Z</time></trkpt><trkpt lat="47.77710309902203" lon="11.749225618999832"><ele>751.5</ele><time>2026-05-01T11:06:27.001Z</time></trkpt><trkpt lat="47.77712308544462" lon="11.74956760695728"><ele>754.0</ele><time>2026-05-01T11:06:28Z</time></trkpt><trkpt lat="47.77714421929266" lon="11.749912574736072"><ele>756.5</ele><time>2026-05-01T11:06:29Z</time></trkpt><trkpt lat="47.77716380319711" lon="11.750259587827735"><ele>759.0</ele><time>2026-05-01T11:06:30Z</time></trkpt><trkpt lat="47.77718277057444" lon="11.750610150270079"><ele>759.0</ele><time>2026-05-01T11:06:31Z</time></trkpt><trkpt lat="47.77719867278041" lon="11.750960582289318"><ele>759.0</ele><time>2026-05-01T11:06:32Z</time></trkpt><trkpt lat="47.77720673462331" lon="11.751310420739326"><ele>759.0</ele><time>2026-05-01T11:06:33Z</time></trkpt><trkpt lat="47.77720879940603" lon="11.751661346162111"><ele>759.0</ele><time>2026-05-01T11:06:34Z</time></trkpt><trkpt lat="47.77720610329508" lon="11.752009444238896"><ele>759.0</ele><time>2026-05-01T11:06:35Z</time></trkpt><trkpt lat="47.777198530692104" lon="11.752340932627495"><ele>759.0</ele><time>2026-05-01T11:06:36Z</time></trkpt><trkpt lat="47.777184874469626" lon="11.752658603606791"><ele>759.0</ele><time>2026-05-01T11:06:37Z</time></trkpt><trkpt lat="47.77716784464161" lon="11.752963394106079"><ele>759.0</ele><time>2026-05-01T11:06:38Z</time></trkpt><trkpt lat="47.777148899403166" lon="11.753254160996992"><ele>759.0</ele><time>2026-05-01T11:06:39Z</time></trkpt><trkpt lat="47.777126958510976" lon="11.753540306770958"><ele>759.0</ele><time>2026-05-01T11:06:40Z</time></trkpt><trkpt lat="47.77710662403162" lon="11.75381881978022"><ele>759.0</ele><time>2026-05-01T11:06:41Z</time></trkpt><trkpt lat="47.77708767767416" lon="11.754092219309047"><ele>759.0</ele><time>2026-05-01T11:06:42Z</time></trkpt><trkpt lat="47.77706860758723" lon="11.754366969822689"><ele>759.0</ele><time>2026-05-01T11:06:43Z</time></trkpt><trkpt lat="47.77705193857025" lon="11.75464540528666"><ele>758.6666666666666</ele><time>2026-05-01T11:06:44Z</time></trkpt><trkpt lat="47.77704277096319" lon="11.754923606338458"><ele>758.3333333333333</ele><time>2026-05-01T11:06:45Z</time></trkpt><trkpt lat="47.77704145838703" lon="11.755200635028611"><ele>758.0</ele><time>2026-05-01T11:06:46Z</time></trkpt><trkpt lat="47.777044710499396" lon="11.755479374491578"><ele>756.3333333333333</ele><time>2026-05-01T11:06:47Z</time></trkpt><trkpt lat="47.777048981795076" lon="11.75575938245747"><ele>754.6666666666666</ele><time>2026-05-01T11:06:48Z</time></trkpt><trkpt lat="47.777053229481915" lon="11.756037842813974"><ele>753.0</ele><time>2026-05-01T11:06:49Z</time></trkpt><trkpt lat="47.7770858961656" lon="11.756311578090784"><ele>747.6666666666666</ele><time>2026-05-01T11:06:50Z</time></trkpt><trkpt lat="47.77708865117976" lon="11.756583851882462"><ele>742.3333333333333</ele><time>2026-05-01T11:06:51Z</time></trkpt><trkpt lat="47.7770986569785" lon="11.756856005742264"><ele>737.0</ele><time>2026-05-01T11:06:52Z</time></trkpt><trkpt lat="47.777107458664254" lon="11.757128553973757"><ele>734.6666666666666</ele><time>2026-05-01T11:06:53Z</time></trkpt><trkpt lat="47.77711523758132" lon="11.757400424478181"><ele>732.3333333333334</ele><time>2026-05-01T11:06:54Z</time></trkpt><trkpt lat="47.777127361463876" lon="11.757671878786416"><ele>730.0</ele><time>2026-05-01T11:06:55Z</time></trkpt><trkpt lat="47.7771373669024" lon="11.757946213889364"><ele>729.6666666666667</ele><time>2026-05-01T11:06:56Z</time></trkpt><trkpt lat="47.77714945525758" lon="11.758225219122467"><ele>729.3333333333334</ele><time>2026-05-01T11:06:57Z</time></trkpt><trkpt lat="47.77715940517179" lon="11.758506360200172"><ele>729.0</ele><time>2026-05-01T11:06:58Z</time></trkpt><trkpt lat="47.777169909284815" lon="11.758789610135288"><ele>729.0</ele><time>2026-05-01T11:06:59Z</time></trkpt><trkpt lat="47.77717951422496" lon="11.759074524687751"><ele>729.0</ele><time>2026-05-01T11:07:00Z</time></trkpt><trkpt lat="47.777184572622964" lon="11.759351319010902"><ele>729.0</ele><time>2026-05-01T11:07:01Z</time></trkpt><trkpt lat="47.777188758554274" lon="11.759623953340874"><ele>728.6666666666666</ele><time>2026-05-01T11:07:02Z</time></trkpt><trkpt lat="47.7771917119472" lon="11.75989992722614"><ele>728.3333333333333</ele><time>2026-05-01T11:07:03Z</time></trkpt><trkpt lat="47.77719260726342" lon="11.76017846516797"><ele>728.0</ele><time>2026-05-01T11:07:04Z</time></trkpt><trkpt lat="47.77719135981917" lon="11.76045876689071"><ele>727.6666666666666</ele><time>2026-05-01T11:07:05Z</time></trkpt><trkpt lat="47.77718618169707" lon="11.760740485729535"><ele>727.3333333333334</ele><time>2026-05-01T11:07:06Z</time></trkpt><trkpt lat="47.77718103297172" lon="11.761020653700715"><ele>727.0</ele><time>2026-05-01T11:07:07Z</time></trkpt><trkpt lat="47.77717561363392" lon="11.761299284037069"><ele>727.0</ele><time>2026-05-01T11:07:08Z</time></trkpt><trkpt lat="47.77717198565129" lon="11.761575671947696"><ele>727.0</ele><time>2026-05-01T11:07:09Z</time></trkpt><trkpt lat="47.777168907014406" lon="11.761852949265661"><ele>727.0</ele><time>2026-05-01T11:07:10Z</time></trkpt><trkpt lat="47.777166642776585" lon="11.762132703474009"><ele>727.0</ele><time>2026-05-01T11:07:11Z</time></trkpt><trkpt lat="47.77716564367426" lon="11.762413444140135"><ele>727.0</ele><time>2026-05-01T11:07:12Z</time></trkpt><trkpt lat="47.777165775707566" lon="11.762700654192278"><ele>727.0</ele><time>2026-05-01T11:07:13Z</time></trkpt><trkpt lat="47.77716711955553" lon="11.762991353725802"><ele>727.0</ele><time>2026-05-01T11:07:14Z</time></trkpt><trkpt lat="47.77717034751871" lon="11.76328560760587"><ele>727.0</ele><time>2026-05-01T11:07:15Z</time></trkpt><trkpt lat="47.777174435832634" lon="11.763582015480116"><ele>727.0</ele><time>2026-05-01T11:07:16Z</time></trkpt><trkpt lat="47.77717926420116" lon="11.763878835405666"><ele>727.0</ele><time>2026-05-01T11:07:17Z</time></trkpt><trkpt lat="47.777183997259456" lon="11.764173256078719"><ele>727.0</ele><time>2026-05-01T11:07:18Z</time></trkpt><trkpt lat="47.77719311442522" lon="11.764464006414656"><ele>727.0</ele><time>2026-05-01T11:07:19Z</time></trkpt><trkpt lat="47.77720693808249" lon="11.764752745002374"><ele>726.6666666666667</ele><time>2026-05-01T11:07:20Z</time></trkpt><trkpt lat="47.7772265775983" lon="11.765041059430718"><ele>726.3333333333334</ele><time>2026-05-01T11:07:21Z</time></trkpt><trkpt lat="47.777256037467836" lon="11.765328179764383"><ele>726.0</ele><time>2026-05-01T11:07:22Z</time></trkpt><trkpt lat="47.77729380092611" lon="11.765613934894176"><ele>724.6666666666666</ele><time>2026-05-01T11:07:23Z</time></trkpt><trkpt lat="47.77733828227873" lon="11.765897975242602"><ele>723.3333333333333</ele><time>2026-05-01T11:07:24Z</time></trkpt><trkpt lat="47.77739053635926" lon="11.766179133791983"><ele>722.0</ele><time>2026-05-01T11:07:25Z</time></trkpt><trkpt lat="47.77744460259084" lon="11.766458788655779"><ele>721.6666666666666</ele><time>2026-05-01T11:07:26Z</time></trkpt><trkpt lat="47.777500691831015" lon="11.766737594538908"><ele>721.3333333333334</ele><time>2026-05-01T11:07:27Z</time></trkpt><trkpt lat="47.77755609494476" lon="11.767008674977903"><ele>721.0</ele><time>2026-05-01T11:07:28Z</time></trkpt><trkpt lat="47.77760819929725" lon="11.767274427079355"><ele>721.0</ele><time>2026-05-01T11:07:29Z</time></trkpt><trkpt lat="47.7776602921676" lon="11.767549879552222"><ele>721.0</ele><time>2026-05-01T11:07:30Z</time></trkpt><trkpt lat="47.77770941279618" lon="11.767830880313905"><ele>721.0</ele><time>2026-05-01T11:07:31Z</time></trkpt><trkpt lat="47.77775571938348" lon="11.768119831491504"><ele>721.0</ele><time>2026-05-01T11:07:32Z</time></trkpt><trkpt lat="47.7778004686238" lon="11.768413381053424"><ele>721.0</ele><time>2026-05-01T11:07:33Z</time></trkpt><trkpt lat="47.777839888189035" lon="11.76871167976954"><ele>721.0</ele><time>2026-05-01T11:07:34Z</time></trkpt><trkpt lat="47.777870809161" lon="11.769009210797883"><ele>721.0</ele><time>2026-05-01T11:07:35Z</time></trkpt><trkpt lat="47.77789093870223" lon="11.769307193825236"><ele>721.0</ele><time>2026-05-01T11:07:36Z</time></trkpt><trkpt lat="47.777905195797544" lon="11.769601951542649"><ele>721.0</ele><time>2026-05-01T11:07:37Z</time></trkpt><trkpt lat="47.77791045161077" lon="11.76989213856579"><ele>718.3333333333334</ele><time>2026-05-01T11:07:38Z</time></trkpt><trkpt lat="47.77791138919147" lon="11.770184771076908"><ele>715.6666666666666</ele><time>2026-05-01T11:07:39Z</time></trkpt><trkpt lat="47.77790699566927" lon="11.77047712489013"><ele>713.0</ele><time>2026-05-01T11:07:40Z</time></trkpt><trkpt lat="47.77789321835877" lon="11.77076945451615"><ele>712.3333333333333</ele><time>2026-05-01T11:07:41Z</time></trkpt><trkpt lat="47.7778724952881" lon="11.771058344057517"><ele>711.6666666666666</ele><time>2026-05-01T11:07:42Z</time></trkpt><trkpt lat="47.77784117626301" lon="11.77134398559778"><ele>711.0</ele><time>2026-05-01T11:07:43Z</time></trkpt><trkpt lat="47.77779913586688" lon="11.771626874958717"><ele>711.0</ele><time>2026-05-01T11:07:44Z</time></trkpt><trkpt lat="47.77775205777121" lon="11.771907400271276"><ele>711.0</ele><time>2026-05-01T11:07:45Z</time></trkpt><trkpt lat="47.77770107562328" lon="11.772187992308357"><ele>711.0</ele><time>2026-05-01T11:07:46Z</time></trkpt><trkpt lat="47.777651290345446" lon="11.772468748536982"><ele>706.0</ele><time>2026-05-01T11:07:47Z</time></trkpt><trkpt lat="47.77760434775262" lon="11.772749802134115"><ele>701.0</ele><time>2026-05-01T11:07:48Z</time></trkpt><trkpt lat="47.77756512402107" lon="11.773031149995433"><ele>696.0</ele><time>2026-05-01T11:07:49Z</time></trkpt><trkpt lat="47.777548166724365" lon="11.773317339515996"><ele>696.3333333333334</ele><time>2026-05-01T11:07:50Z</time></trkpt><trkpt lat="47.77755933176681" lon="11.773605944206878"><ele>696.6666666666667</ele><time>2026-05-01T11:07:51Z</time></trkpt><trkpt lat="47.77759281512361" lon="11.773893147390853"><ele>697.0</ele><time>2026-05-01T11:07:52Z</time></trkpt><trkpt lat="47.77765106754124" lon="11.774175978619361"><ele>699.6666666666667</ele><time>2026-05-01T11:07:53Z</time></trkpt><trkpt lat="47.77771756212327" lon="11.77445501972322"><ele>702.3333333333334</ele><time>2026-05-01T11:07:54Z</time></trkpt><trkpt lat="47.777763687923134" lon="11.774746356949237"><ele>705.0</ele><time>2026-05-01T11:07:55Z</time></trkpt><trkpt lat="47.7778278871224" lon="11.77503368964133"><ele>703.6666666666666</ele><time>2026-05-01T11:07:56Z</time></trkpt><trkpt lat="47.777886407081716" lon="11.775318929503204"><ele>702.3333333333333</ele><time>2026-05-01T11:07:57Z</time></trkpt><trkpt lat="47.77793538160221" lon="11.775611532874745"><ele>701.0</ele><time>2026-05-01T11:07:58Z</time></trkpt><trkpt lat="47.777975653251254" lon="11.775907346013279"><ele>700.0</ele><time>2026-05-01T11:07:59.001Z</time></trkpt><trkpt lat="47.778010096471135" lon="11.776205669696912"><ele>699.0</ele><time>2026-05-01T11:08:00.001Z</time></trkpt><trkpt lat="47.778044296994494" lon="11.776504500121236"><ele>698.0</ele><time>2026-05-01T11:08:01.001Z</time></trkpt><trkpt lat="47.77808055795555" lon="11.776804674433494"><ele>696.6666666666666</ele><time>2026-05-01T11:08:02.001Z</time></trkpt><trkpt lat="47.77812333900367" lon="11.777102681256292"><ele>695.3333333333334</ele><time>2026-05-01T11:08:03.001Z</time></trkpt><trkpt lat="47.77816847965939" lon="11.777395252587656"><ele>694.0</ele><time>2026-05-01T11:08:04.001Z</time></trkpt><trkpt lat="47.778221096716386" lon="11.777686033394938"><ele>692.6666666666667</ele><time>2026-05-01T11:08:05.001Z</time></trkpt><trkpt lat="47.778285679688146" lon="11.777970582583153"><ele>691.3333333333334</ele><time>2026-05-01T11:08:06.001Z</time></trkpt><trkpt lat="47.778358607191485" lon="11.778249102076664"><ele>690.0</ele><time>2026-05-01T11:08:07.001Z</time></trkpt><trkpt lat="47.77843839918859" lon="11.778524659227788"><ele>691.6666666666666</ele><time>2026-05-01T11:08:08.001Z</time></trkpt><trkpt lat="47.7785263254779" lon="11.778793416325872"><ele>693.3333333333333</ele><time>2026-05-01T11:08:09.001Z</time></trkpt><trkpt lat="47.778622506161554" lon="11.779055217632646"><ele>695.0</ele><time>2026-05-01T11:08:10.001Z</time></trkpt><trkpt lat="47.778727722877136" lon="11.779305571515238"><ele>694.3333333333333</ele><time>2026-05-01T11:08:11.001Z</time></trkpt><trkpt lat="47.778852141008386" lon="11.779537159127829"><ele>693.6666666666666</ele><time>2026-05-01T11:08:12.001Z</time></trkpt><trkpt lat="47.778970409672326" lon="11.779775344155182"><ele>693.0</ele><time>2026-05-01T11:08:13.001Z</time></trkpt><trkpt lat="47.77909680866015" lon="11.780005503771443"><ele>694.6666666666666</ele><time>2026-05-01T11:08:14.001Z</time></trkpt><trkpt lat="47.779230389760066" lon="11.780226964446818"><ele>696.3333333333333</ele><time>2026-05-01T11:08:15.001Z</time></trkpt><trkpt lat="47.77937089562942" lon="11.780438780427394"><ele>698.0</ele><time>2026-05-01T11:08:16.001Z</time></trkpt><trkpt lat="47.77951056778199" lon="11.780642816943745"><ele>698.0</ele><time>2026-05-01T11:08:17.001Z</time></trkpt><trkpt lat="47.77965524679127" lon="11.78083787366722"><ele>698.0</ele><time>2026-05-01T11:08:18.001Z</time></trkpt><trkpt lat="47.779797536580205" lon="11.781036222467268"><ele>698.0</ele><time>2026-05-01T11:08:19.001Z</time></trkpt><trkpt lat="47.77993763879017" lon="11.781233098379095"><ele>698.3333333333333</ele><time>2026-05-01T11:08:20.001Z</time></trkpt><trkpt lat="47.780088521695276" lon="11.78141823371859"><ele>698.6666666666666</ele><time>2026-05-01T11:08:21.001Z</time></trkpt><trkpt lat="47.78022873943547" lon="11.781623804469891"><ele>699.0</ele><time>2026-05-01T11:08:22.001Z</time></trkpt><trkpt lat="47.780363920381774" lon="11.781837463747074"><ele>693.6666666666666</ele><time>2026-05-01T11:08:23.001Z</time></trkpt><trkpt lat="47.78049643166017" lon="11.782059174661358"><ele>688.3333333333333</ele><time>2026-05-01T11:08:24.001Z</time></trkpt><trkpt lat="47.78062703366684" lon="11.78228810539267"><ele>683.0</ele><time>2026-05-01T11:08:25.001Z</time></trkpt><trkpt lat="47.78074552840136" lon="11.782531256799151"><ele>682.3333333333333</ele><time>2026-05-01T11:08:26.001Z</time></trkpt><trkpt lat="47.7808517726153" lon="11.782782902153052"><ele>681.6666666666666</ele><time>2026-05-01T11:08:27.001Z</time></trkpt><trkpt lat="47.780948553856156" lon="11.783035713859123"><ele>681.0</ele><time>2026-05-01T11:08:28.001Z</time></trkpt><trkpt lat="47.78103535335949" lon="11.783281644941209"><ele>682.6666666666666</ele><time>2026-05-01T11:08:29.001Z</time></trkpt><trkpt lat="47.78111202362724" lon="11.78351548867671"><ele>684.3333333333333</ele><time>2026-05-01T11:08:30.001Z</time></trkpt><trkpt lat="47.78118193152739" lon="11.783750017706026"><ele>686.0</ele><time>2026-05-01T11:08:31.001Z</time></trkpt><trkpt lat="47.781238444236855" lon="11.783973447658898"><ele>686.0</ele><time>2026-05-01T11:08:32.001Z</time></trkpt><trkpt lat="47.78128396283138" lon="11.784201569930953"><ele>686.0</ele><time>2026-05-01T11:08:33.001Z</time></trkpt><trkpt lat="47.781326518078785" lon="11.78442791468899"><ele>686.0</ele><time>2026-05-01T11:08:34Z</time></trkpt><trkpt lat="47.78136269705244" lon="11.784649948153707"><ele>685.0</ele><time>2026-05-01T11:08:35Z</time></trkpt><trkpt lat="47.78140094052552" lon="11.784872148120328"><ele>684.0</ele><time>2026-05-01T11:08:36Z</time></trkpt><trkpt lat="47.78143899776863" lon="11.785089418228141"><ele>683.0</ele><time>2026-05-01T11:08:37Z</time></trkpt><trkpt lat="47.7814787624111" lon="11.78530611862235"><ele>680.6666666666666</ele><time>2026-05-01T11:08:38Z</time></trkpt><trkpt lat="47.781520260099406" lon="11.785521894701029"><ele>678.3333333333334</ele><time>2026-05-01T11:08:39Z</time></trkpt><trkpt lat="47.78156277039996" lon="11.785736626275684"><ele>676.0</ele><time>2026-05-01T11:08:40Z</time></trkpt><trkpt lat="47.78160820656002" lon="11.78595470771755"><ele>675.3333333333334</ele><time>2026-05-01T11:08:41Z</time></trkpt><trkpt lat="47.78165847061038" lon="11.78617115870674"><ele>674.6666666666666</ele><time>2026-05-01T11:08:42Z</time></trkpt><trkpt lat="47.78171329425366" lon="11.786387110731033"><ele>674.0</ele><time>2026-05-01T11:08:43Z</time></trkpt><trkpt lat="47.781775668037334" lon="11.786599645013558"><ele>674.0</ele><time>2026-05-01T11:08:44Z</time></trkpt><trkpt lat="47.78184039807653" lon="11.786811156838565"><ele>674.0</ele><time>2026-05-01T11:08:45Z</time></trkpt><trkpt lat="47.78190649385478" lon="11.787022111115975"><ele>674.0</ele><time>2026-05-01T11:08:46Z</time></trkpt><trkpt lat="47.78197222708647" lon="11.787234067364992"><ele>674.0</ele><time>2026-05-01T11:08:47Z</time></trkpt><trkpt lat="47.78203659495968" lon="11.787443681204204"><ele>674.0</ele><time>2026-05-01T11:08:48Z</time></trkpt><trkpt lat="47.78209890311065" lon="11.787653063154444"><ele>674.0</ele><time>2026-05-01T11:08:49Z</time></trkpt><trkpt lat="47.78215954034956" lon="11.787861760037375"><ele>676.5</ele><time>2026-05-01T11:08:50Z</time></trkpt><trkpt lat="47.78221382104364" lon="11.788070351231855"><ele>679.0</ele><time>2026-05-01T11:08:51Z</time></trkpt><trkpt lat="47.78226006125612" lon="11.788277136909278"><ele>681.5</ele><time>2026-05-01T11:08:52Z</time></trkpt><trkpt lat="47.782297404857445" lon="11.788473598711619"><ele>684.0</ele><time>2026-05-01T11:08:53Z</time></trkpt><trkpt lat="47.78232715375965" lon="11.788676159788476"><ele>685.0</ele><time>2026-05-01T11:08:54Z</time></trkpt><trkpt lat="47.78235249179045" lon="11.788880145350353"><ele>686.0</ele><time>2026-05-01T11:08:55Z</time></trkpt><trkpt lat="47.782380531250894" lon="11.789082819722907"><ele>687.0</ele><time>2026-05-01T11:08:56Z</time></trkpt><trkpt lat="47.78241543513521" lon="11.78928159397454"><ele>688.0</ele><time>2026-05-01T11:08:57Z</time></trkpt><trkpt lat="47.78246615625687" lon="11.789471332917016"><ele>690.25</ele><time>2026-05-01T11:08:58Z</time></trkpt><trkpt lat="47.782542430925204" lon="11.789635921315224"><ele>692.5</ele><time>2026-05-01T11:08:59Z</time></trkpt><trkpt lat="47.78263881525259" lon="11.78977246004377"><ele>694.75</ele><time>2026-05-01T11:09:00Z</time></trkpt><trkpt lat="47.78275117282173" lon="11.78988050651135"><ele>697.0</ele><time>2026-05-01T11:09:01Z</time></trkpt><trkpt lat="47.782875595049184" lon="11.789961408994401"><ele>697.75</ele><time>2026-05-01T11:09:02Z</time></trkpt><trkpt lat="47.783004496989776" lon="11.79001077215423"><ele>698.5</ele><time>2026-05-01T11:09:03Z</time></trkpt><trkpt lat="47.78313853403082" lon="11.790042270003868"><ele>699.25</ele><time>2026-05-01T11:09:04Z</time></trkpt><trkpt lat="47.783278107859935" lon="11.790060375728117"><ele>700.0</ele><time>2026-05-01T11:09:05Z</time></trkpt><trkpt lat="47.78342487106518" lon="11.790070249599662"><ele>701.0</ele><time>2026-05-01T11:09:06Z</time></trkpt><trkpt lat="47.78357734805526" lon="11.79007459416173"><ele>702.0</ele><time>2026-05-01T11:09:07Z</time></trkpt><trkpt lat="47.783734765594936" lon="11.79007213905379"><ele>703.0</ele><time>2026-05-01T11:09:08Z</time></trkpt><trkpt lat="47.78389238593942" lon="11.790072766882307"><ele>703.0</ele><time>2026-05-01T11:09:09Z</time></trkpt><trkpt lat="47.78405104027049" lon="11.790070837226594"><ele>703.0</ele><time>2026-05-01T11:09:10Z</time></trkpt><trkpt lat="47.78420798134557" lon="11.790068411787226"><ele>703.0</ele><time>2026-05-01T11:09:11Z</time></trkpt><trkpt lat="47.784362401869224" lon="11.790075313320568"><ele>703.0</ele><time>2026-05-01T11:09:12Z</time></trkpt><trkpt lat="47.78451027324719" lon="11.790095614033984"><ele>703.0</ele><time>2026-05-01T11:09:13Z</time></trkpt><trkpt lat="47.78465193087881" lon="11.79013262711624"><ele>703.0</ele><time>2026-05-01T11:09:14Z</time></trkpt><trkpt lat="47.78478396520488" lon="11.790201646030773"><ele>703.0</ele><time>2026-05-01T11:09:15Z</time></trkpt><trkpt lat="47.78489942322368" lon="11.790312448115776"><ele>705.75</ele><time>2026-05-01T11:09:16Z</time></trkpt><trkpt lat="47.784980279686934" lon="11.790469728915923"><ele>708.5</ele><time>2026-05-01T11:09:17Z</time></trkpt><trkpt lat="47.78501352143493" lon="11.790657887323167"><ele>711.25</ele><time>2026-05-01T11:09:18Z</time></trkpt><trkpt lat="47.78505703277757" lon="11.790847255969375"><ele>714.0</ele><time>2026-05-01T11:09:19Z</time></trkpt><trkpt lat="47.785049633060844" lon="11.791055860527296"><ele>717.0</ele><time>2026-05-01T11:09:20Z</time></trkpt><trkpt lat="47.78502974487569" lon="11.79127973379986"><ele>720.0</ele><time>2026-05-01T11:09:21Z</time></trkpt><trkpt lat="47.78497837840775" lon="11.791494818723438"><ele>723.0</ele><time>2026-05-01T11:09:22Z</time></trkpt><trkpt lat="47.78492074206633" lon="11.791702188914513"><ele>725.0</ele><time>2026-05-01T11:09:23Z</time></trkpt><trkpt lat="47.78484086184102" lon="11.791897710641313"><ele>727.0</ele><time>2026-05-01T11:09:24Z</time></trkpt><trkpt lat="47.78476630720122" lon="11.792102849035828"><ele>729.0</ele><time>2026-05-01T11:09:25Z</time></trkpt><trkpt lat="47.78466443402222" lon="11.79228758453872"><ele>729.0</ele><time>2026-05-01T11:09:26Z</time></trkpt><trkpt lat="47.7845689538148" lon="11.792474949603312"><ele>729.0</ele><time>2026-05-01T11:09:27Z</time></trkpt><trkpt lat="47.7844745634018" lon="11.79266795512476"><ele>729.0</ele><time>2026-05-01T11:09:28Z</time></trkpt><trkpt lat="47.784382799081705" lon="11.792864012240615"><ele>729.5</ele><time>2026-05-01T11:09:29Z</time></trkpt><trkpt lat="47.784299360921544" lon="11.793058650544044"><ele>730.0</ele><time>2026-05-01T11:09:30Z</time></trkpt><trkpt lat="47.784232289173296" lon="11.793251557412164"><ele>730.5</ele><time>2026-05-01T11:09:31Z</time></trkpt><trkpt lat="47.78419642308155" lon="11.793443397972304"><ele>731.0</ele><time>2026-05-01T11:09:32Z</time></trkpt><trkpt lat="47.784183324776166" lon="11.79363701748862"><ele>731.5</ele><time>2026-05-01T11:09:33Z</time></trkpt><trkpt lat="47.78418271421245" lon="11.793842652813895"><ele>732.0</ele><time>2026-05-01T11:09:34Z</time></trkpt><trkpt lat="47.784202923592275" lon="11.794060929477792"><ele>732.5</ele><time>2026-05-01T11:09:35Z</time></trkpt><trkpt lat="47.78423079760484" lon="11.794293049904534"><ele>733.0</ele><time>2026-05-01T11:09:36Z</time></trkpt><trkpt lat="47.78425801048553" lon="11.794521439806571"><ele>733.25</ele><time>2026-05-01T11:09:37Z</time></trkpt><trkpt lat="47.78428008962459" lon="11.794736923672545"><ele>733.5</ele><time>2026-05-01T11:09:38Z</time></trkpt><trkpt lat="47.784298679523246" lon="11.79493704447859"><ele>733.75</ele><time>2026-05-01T11:09:39Z</time></trkpt><trkpt lat="47.784313892778336" lon="11.795144563512446"><ele>734.0</ele><time>2026-05-01T11:09:40Z</time></trkpt><trkpt lat="47.78432908204311" lon="11.79535867963923"><ele>734.0</ele><time>2026-05-01T11:09:41Z</time></trkpt><trkpt lat="47.78434180601306" lon="11.795578966738551"><ele>734.0</ele><time>2026-05-01T11:09:42Z</time></trkpt><trkpt lat="47.78435524085607" lon="11.79580052493169"><ele>734.0</ele><time>2026-05-01T11:09:43Z</time></trkpt><trkpt lat="47.78436792248235" lon="11.796023896115836"><ele>734.0</ele><time>2026-05-01T11:09:44Z</time></trkpt><trkpt lat="47.7843620974178" lon="11.796251230622802"><ele>732.6666666666666</ele><time>2026-05-01T11:09:45Z</time></trkpt><trkpt lat="47.78437306547194" lon="11.79647769896512"><ele>731.3333333333334</ele><time>2026-05-01T11:09:46Z</time></trkpt><trkpt lat="47.784385762544694" lon="11.796706669523624"><ele>730.0</ele><time>2026-05-01T11:09:47Z</time></trkpt><trkpt lat="47.784401416790004" lon="11.796940799437031"><ele>730.0</ele><time>2026-05-01T11:09:48Z</time></trkpt><trkpt lat="47.784419082137155" lon="11.797179466141115"><ele>730.0</ele><time>2026-05-01T11:09:49Z</time></trkpt><trkpt lat="47.78443992406032" lon="11.797431064255857"><ele>730.0</ele><time>2026-05-01T11:09:50Z</time></trkpt><trkpt lat="47.78446458729592" lon="11.797700245488752"><ele>730.0</ele><time>2026-05-01T11:09:51Z</time></trkpt><trkpt lat="47.78449412624497" lon="11.797977974123587"><ele>730.0</ele><time>2026-05-01T11:09:52Z</time></trkpt><trkpt lat="47.78452238462708" lon="11.798248447611927"><ele>730.0</ele><time>2026-05-01T11:09:53Z</time></trkpt><trkpt lat="47.78454966134102" lon="11.798513242315579"><ele>731.3333333333334</ele><time>2026-05-01T11:09:54Z</time></trkpt><trkpt lat="47.78459303888968" lon="11.798784085411725"><ele>732.6666666666666</ele><time>2026-05-01T11:09:55Z</time></trkpt><trkpt lat="47.78461867564477" lon="11.799067205494458"><ele>734.0</ele><time>2026-05-01T11:09:56Z</time></trkpt><trkpt lat="47.78464241958103" lon="11.799353382856044"><ele>734.0</ele><time>2026-05-01T11:09:57Z</time></trkpt><trkpt lat="47.784661110329395" lon="11.79964092485987"><ele>734.0</ele><time>2026-05-01T11:09:58Z</time></trkpt><trkpt lat="47.78467342940991" lon="11.799924642744218"><ele>734.0</ele><time>2026-05-01T11:09:59Z</time></trkpt><trkpt lat="47.78468011575095" lon="11.800205956264678"><ele>734.3333333333333</ele><time>2026-05-01T11:10:00Z</time></trkpt><trkpt lat="47.784664846645086" lon="11.800484449900019"><ele>734.6666666666666</ele><time>2026-05-01T11:10:01Z</time></trkpt><trkpt lat="47.78466383110984" lon="11.80076219930623"><ele>735.0</ele><time>2026-05-01T11:10:02Z</time></trkpt><trkpt lat="47.78465855213655" lon="11.80104046531851"><ele>735.3333333333334</ele><time>2026-05-01T11:10:03Z</time></trkpt><trkpt lat="47.784644986520725" lon="11.801320396608478"><ele>735.6666666666667</ele><time>2026-05-01T11:10:04Z</time></trkpt><trkpt lat="47.78462753742592" lon="11.801601535680275"><ele>736.0</ele><time>2026-05-01T11:10:05Z</time></trkpt><trkpt lat="47.78460646972904" lon="11.801887188846543"><ele>738.0</ele><time>2026-05-01T11:10:06Z</time></trkpt><trkpt lat="47.784581581160246" lon="11.802175982907919"><ele>740.0</ele><time>2026-05-01T11:10:07Z</time></trkpt><trkpt lat="47.78455423278776" lon="11.802466859706659"><ele>742.0</ele><time>2026-05-01T11:10:08Z</time></trkpt><trkpt lat="47.784525944942644" lon="11.802759140716281"><ele>745.0</ele><time>2026-05-01T11:10:09Z</time></trkpt><trkpt lat="47.78449406112005" lon="11.80305211882513"><ele>748.0</ele><time>2026-05-01T11:10:10Z</time></trkpt><trkpt lat="47.78446254807679" lon="11.803343488738395"><ele>751.0</ele><time>2026-05-01T11:10:11Z</time></trkpt><trkpt lat="47.78444787621295" lon="11.803637946151111"><ele>751.3333333333334</ele><time>2026-05-01T11:10:12Z</time></trkpt><trkpt lat="47.7844154749147" lon="11.80392668110212"><ele>751.6666666666666</ele><time>2026-05-01T11:10:13Z</time></trkpt><trkpt lat="47.78438467257651" lon="11.804213127869556"><ele>752.0</ele><time>2026-05-01T11:10:14Z</time></trkpt><trkpt lat="47.78435624642007" lon="11.804496996499491"><ele>753.3333333333333</ele><time>2026-05-01T11:10:15Z</time></trkpt><trkpt lat="47.78433035456691" lon="11.80478093825421"><ele>754.6666666666666</ele><time>2026-05-01T11:10:16Z</time></trkpt><trkpt lat="47.78430635919188" lon="11.805062585163155"><ele>756.0</ele><time>2026-05-01T11:10:17Z</time></trkpt><trkpt lat="47.78428579024495" lon="11.80534612478482"><ele>756.0</ele><time>2026-05-01T11:10:18Z</time></trkpt><trkpt lat="47.78427287325328" lon="11.805631441060157"><ele>756.0</ele><time>2026-05-01T11:10:19Z</time></trkpt><trkpt lat="47.784267569567525" lon="11.80591879708528"><ele>756.0</ele><time>2026-05-01T11:10:20Z</time></trkpt><trkpt lat="47.784271196295606" lon="11.80620621795317"><ele>755.6666666666666</ele><time>2026-05-01T11:10:21.001Z</time></trkpt><trkpt lat="47.78428536073246" lon="11.806491145849687"><ele>755.3333333333333</ele><time>2026-05-01T11:10:22.001Z</time></trkpt><trkpt lat="47.784308418466026" lon="11.806777236079142"><ele>755.0</ele><time>2026-05-01T11:10:23.001Z</time></trkpt><trkpt lat="47.784333842715284" lon="11.807061371315465"><ele>755.0</ele><time>2026-05-01T11:10:24.001Z</time></trkpt><trkpt lat="47.78435912641595" lon="11.807345272807629"><ele>755.0</ele><time>2026-05-01T11:10:25.001Z</time></trkpt><trkpt lat="47.78438354179609" lon="11.807624880749085"><ele>755.0</ele><time>2026-05-01T11:10:26.001Z</time></trkpt><trkpt lat="47.784403572200596" lon="11.807897655752347"><ele>755.0</ele><time>2026-05-01T11:10:27.001Z</time></trkpt><trkpt lat="47.784416442806005" lon="11.80816793776672"><ele>755.0</ele><time>2026-05-01T11:10:28.001Z</time></trkpt><trkpt lat="47.78442486488766" lon="11.808436481644598"><ele>755.0</ele><time>2026-05-01T11:10:29.001Z</time></trkpt><trkpt lat="47.78442028084925" lon="11.808704189739927"><ele>754.3333333333333</ele><time>2026-05-01T11:10:30.001Z</time></trkpt><trkpt lat="47.78440559859093" lon="11.808977165407516"><ele>753.6666666666666</ele><time>2026-05-01T11:10:31.001Z</time></trkpt><trkpt lat="47.78438205093217" lon="11.809251807075894"><ele>753.0</ele><time>2026-05-01T11:10:32.001Z</time></trkpt><trkpt lat="47.78435101493777" lon="11.809525836532629"><ele>751.6666666666666</ele><time>2026-05-01T11:10:33.001Z</time></trkpt><trkpt lat="47.784301272234316" lon="11.809791549722332"><ele>750.3333333333333</ele><time>2026-05-01T11:10:34.001Z</time></trkpt><trkpt lat="47.78426466839461" lon="11.81005607676153"><ele>749.0</ele><time>2026-05-01T11:10:35.001Z</time></trkpt><trkpt lat="47.78423038154822" lon="11.810318653919225"><ele>748.0</ele><time>2026-05-01T11:10:36.001Z</time></trkpt><trkpt lat="47.78421230363489" lon="11.810584736645245"><ele>747.0</ele><time>2026-05-01T11:10:37.001Z</time></trkpt><trkpt lat="47.78418351750857" lon="11.810850151938316"><ele>746.0</ele><time>2026-05-01T11:10:38.001Z</time></trkpt><trkpt lat="47.78416199808073" lon="11.811121666846944"><ele>745.3333333333333</ele><time>2026-05-01T11:10:39.001Z</time></trkpt><trkpt lat="47.78414572346569" lon="11.811397819153441"><ele>744.6666666666666</ele><time>2026-05-01T11:10:40Z</time></trkpt><trkpt lat="47.784134049856135" lon="11.81167240617047"><ele>744.0</ele><time>2026-05-01T11:10:41Z</time></trkpt><trkpt lat="47.78412551477706" lon="11.811948817532143"><ele>743.0</ele><time>2026-05-01T11:10:42Z</time></trkpt><trkpt lat="47.78409847373018" lon="11.812237449489675"><ele>742.0</ele><time>2026-05-01T11:10:43Z</time></trkpt><trkpt lat="47.78411083985548" lon="11.812531903693854"><ele>741.0</ele><time>2026-05-01T11:10:44Z</time></trkpt><trkpt lat="47.784107549095935" lon="11.812828751108217"><ele>740.0</ele><time>2026-05-01T11:10:45Z</time></trkpt><trkpt lat="47.784088579793064" lon="11.813126042351376"><ele>739.0</ele><time>2026-05-01T11:10:46Z</time></trkpt><trkpt lat="47.78408124614483" lon="11.813420420379556"><ele>738.0</ele><time>2026-05-01T11:10:47Z</time></trkpt><trkpt lat="47.78407241572369" lon="11.813713735281885"><ele>737.6666666666666</ele><time>2026-05-01T11:10:48Z</time></trkpt><trkpt lat="47.7840570526055" lon="11.814006819559697"><ele>737.3333333333333</ele><time>2026-05-01T11:10:49Z</time></trkpt><trkpt lat="47.78403633401432" lon="11.814297741435723"><ele>737.0</ele><time>2026-05-01T11:10:50Z</time></trkpt><trkpt lat="47.78400899347208" lon="11.81458957297657"><ele>736.3333333333333</ele><time>2026-05-01T11:10:51Z</time></trkpt><trkpt lat="47.783992318879896" lon="11.814884703583665"><ele>735.6666666666666</ele><time>2026-05-01T11:10:52Z</time></trkpt><trkpt lat="47.7839513042202" lon="11.815175342541934"><ele>735.0</ele><time>2026-05-01T11:10:53Z</time></trkpt><trkpt lat="47.78390568198676" lon="11.815464597864999"><ele>735.0</ele><time>2026-05-01T11:10:54Z</time></trkpt><trkpt lat="47.78385349909504" lon="11.815749521320567"><ele>735.0</ele><time>2026-05-01T11:10:55Z</time></trkpt><trkpt lat="47.78379577933407" lon="11.81603138248177"><ele>735.0</ele><time>2026-05-01T11:10:56Z</time></trkpt><trkpt lat="47.783733227135286" lon="11.81630814270769"><ele>735.3333333333334</ele><time>2026-05-01T11:10:57Z</time></trkpt><trkpt lat="47.783663705521704" lon="11.816579971827057"><ele>735.6666666666667</ele><time>2026-05-01T11:10:58Z</time></trkpt><trkpt lat="47.783587547009816" lon="11.816847074168043"><ele>736.0</ele><time>2026-05-01T11:10:59Z</time></trkpt><trkpt lat="47.783505536860744" lon="11.817110418430468"><ele>736.3333333333334</ele><time>2026-05-01T11:11:00Z</time></trkpt><trkpt lat="47.78340430464315" lon="11.817358561806527"><ele>736.6666666666666</ele><time>2026-05-01T11:11:01Z</time></trkpt><trkpt lat="47.783308395138036" lon="11.817609631732749"><ele>737.0</ele><time>2026-05-01T11:11:02Z</time></trkpt><trkpt lat="47.783208595897314" lon="11.817855868907868"><ele>734.0</ele><time>2026-05-01T11:11:03Z</time></trkpt><trkpt lat="47.783106505185664" lon="11.818100683658498"><ele>731.0</ele><time>2026-05-01T11:11:04Z</time></trkpt><trkpt lat="47.78300204099722" lon="11.818343372519353"><ele>728.0</ele><time>2026-05-01T11:11:05Z</time></trkpt><trkpt lat="47.782895999323344" lon="11.818587256818175"><ele>725.0</ele><time>2026-05-01T11:11:06Z</time></trkpt><trkpt lat="47.78279001141488" lon="11.818831017446746"><ele>722.0</ele><time>2026-05-01T11:11:07Z</time></trkpt><trkpt lat="47.78268299413008" lon="11.81907706767867"><ele>719.0</ele><time>2026-05-01T11:11:08Z</time></trkpt><trkpt lat="47.7825759461567" lon="11.819323893362423"><ele>718.3333333333333</ele><time>2026-05-01T11:11:09Z</time></trkpt><trkpt lat="47.78246967602456" lon="11.819571419779868"><ele>717.6666666666666</ele><time>2026-05-01T11:11:10Z</time></trkpt><trkpt lat="47.78236594790423" lon="11.819820608429827"><ele>717.0</ele><time>2026-05-01T11:11:11Z</time></trkpt><trkpt lat="47.782263545295635" lon="11.820072497193747"><ele>717.3333333333334</ele><time>2026-05-01T11:11:12Z</time></trkpt><trkpt lat="47.782163488926415" lon="11.820328204070206"><ele>717.6666666666667</ele><time>2026-05-01T11:11:13Z</time></trkpt><trkpt lat="47.78206744695641" lon="11.820585465073213"><ele>718.0</ele><time>2026-05-01T11:11:14Z</time></trkpt><trkpt lat="47.78197466427295" lon="11.820846354182844"><ele>717.6666666666667</ele><time>2026-05-01T11:11:15Z</time></trkpt><trkpt lat="47.78188280757652" lon="11.821110294178872"><ele>717.3333333333334</ele><time>2026-05-01T11:11:16Z</time></trkpt><trkpt lat="47.781795960807486" lon="11.82137705476311"><ele>717.0</ele><time>2026-05-01T11:11:17Z</time></trkpt><trkpt lat="47.78171336697194" lon="11.821647665472112"><ele>717.6666666666666</ele><time>2026-05-01T11:11:18Z</time></trkpt><trkpt lat="47.78163370003561" lon="11.821919669435644"><ele>718.3333333333333</ele><time>2026-05-01T11:11:19Z</time></trkpt><trkpt lat="47.78155716660644" lon="11.822191279871586"><ele>719.0</ele><time>2026-05-01T11:11:20Z</time></trkpt><trkpt lat="47.781483624065835" lon="11.822463668065385"><ele>719.0</ele><time>2026-05-01T11:11:21Z</time></trkpt><trkpt lat="47.781416383186155" lon="11.82273444927474"><ele>719.0</ele><time>2026-05-01T11:11:22Z</time></trkpt><trkpt lat="47.78135130868047" lon="11.823002255869127"><ele>719.0</ele><time>2026-05-01T11:11:23Z</time></trkpt><trkpt lat="47.78128827450435" lon="11.823267335661185"><ele>719.0</ele><time>2026-05-01T11:11:24Z</time></trkpt><trkpt lat="47.78122607075662" lon="11.823530286013005"><ele>719.0</ele><time>2026-05-01T11:11:25Z</time></trkpt><trkpt lat="47.78116753803876" lon="11.823793809378875"><ele>719.0</ele><time>2026-05-01T11:11:26Z</time></trkpt><trkpt lat="47.78111320920455" lon="11.82405563065377"><ele>717.6666666666666</ele><time>2026-05-01T11:11:27Z</time></trkpt><trkpt lat="47.78106151727233" lon="11.824318337854265"><ele>716.3333333333334</ele><time>2026-05-01T11:11:28Z</time></trkpt><trkpt lat="47.781012779705215" lon="11.824583704439313"><ele>715.0</ele><time>2026-05-01T11:11:29Z</time></trkpt><trkpt lat="47.780964050014184" lon="11.824848705540129"><ele>712.6666666666667</ele><time>2026-05-01T11:11:30Z</time></trkpt><trkpt lat="47.78091658389563" lon="11.82511491207753"><ele>710.3333333333334</ele><time>2026-05-01T11:11:31Z</time></trkpt><trkpt lat="47.78087310161258" lon="11.825375485955554"><ele>708.0</ele><time>2026-05-01T11:11:32Z</time></trkpt><trkpt lat="47.78083382263582" lon="11.825634586852086"><ele>707.0</ele><time>2026-05-01T11:11:33Z</time></trkpt><trkpt lat="47.78079706091401" lon="11.825894479239707"><ele>706.0</ele><time>2026-05-01T11:11:34Z</time></trkpt><trkpt lat="47.7807620411566" lon="11.826154560296102"><ele>705.0</ele><time>2026-05-01T11:11:35Z</time></trkpt><trkpt lat="47.780728868380876" lon="11.826412937157595"><ele>704.3333333333334</ele><time>2026-05-01T11:11:36Z</time></trkpt><trkpt lat="47.78069707933294" lon="11.826672437514366"><ele>703.6666666666667</ele><time>2026-05-01T11:11:37Z</time></trkpt><trkpt lat="47.78066902014558" lon="11.826930593176765"><ele>703.0</ele><time>2026-05-01T11:11:38Z</time></trkpt><trkpt lat="47.780643617724614" lon="11.82718848606622"><ele>702.6666666666667</ele><time>2026-05-01T11:11:39Z</time></trkpt><trkpt lat="47.780621633246724" lon="11.827444786533398"><ele>702.3333333333334</ele><time>2026-05-01T11:11:40Z</time></trkpt><trkpt lat="47.78060101987354" lon="11.827701650053369"><ele>702.0</ele><time>2026-05-01T11:11:41Z</time></trkpt><trkpt lat="47.78058079851011" lon="11.827956787622442"><ele>704.6666666666666</ele><time>2026-05-01T11:11:42Z</time></trkpt><trkpt lat="47.78056259637733" lon="11.82821277718917"><ele>707.3333333333333</ele><time>2026-05-01T11:11:43Z</time></trkpt><trkpt lat="47.78054858755602" lon="11.828471091914157"><ele>710.0</ele><time>2026-05-01T11:11:44Z</time></trkpt><trkpt lat="47.78054120553073" lon="11.828724220950276"><ele>713.0</ele><time>2026-05-01T11:11:45Z</time></trkpt><trkpt lat="47.78053946502182" lon="11.828979377819504"><ele>716.0</ele><time>2026-05-01T11:11:46Z</time></trkpt><trkpt lat="47.78053979670871" lon="11.829232273818304"><ele>719.0</ele><time>2026-05-01T11:11:47Z</time></trkpt><trkpt lat="47.78054321395329" lon="11.829486361974757"><ele>719.3333333333333</ele><time>2026-05-01T11:11:48Z</time></trkpt><trkpt lat="47.78054979844038" lon="11.829739723625526"><ele>719.6666666666666</ele><time>2026-05-01T11:11:49Z</time></trkpt><trkpt lat="47.78056028571216" lon="11.829990580999755"><ele>720.0</ele><time>2026-05-01T11:11:50Z</time></trkpt><trkpt lat="47.78057528409605" lon="11.830234182216811"><ele>719.3333333333334</ele><time>2026-05-01T11:11:51Z</time></trkpt><trkpt lat="47.78059637286625" lon="11.830479938497916"><ele>718.6666666666667</ele><time>2026-05-01T11:11:52Z</time></trkpt><trkpt lat="47.780622691444734" lon="11.8307286727733"><ele>718.0</ele><time>2026-05-01T11:11:53Z</time></trkpt><trkpt lat="47.78065595144886" lon="11.830977256476618"><ele>717.6666666666667</ele><time>2026-05-01T11:11:54Z</time></trkpt><trkpt lat="47.78069550644314" lon="11.831223980982509"><ele>717.3333333333334</ele><time>2026-05-01T11:11:55Z</time></trkpt><trkpt lat="47.780739144422064" lon="11.831466252306267"><ele>717.0</ele><time>2026-05-01T11:11:56Z</time></trkpt><trkpt lat="47.780787698033116" lon="11.831707170540149"><ele>716.6666666666666</ele><time>2026-05-01T11:11:57Z</time></trkpt><trkpt lat="47.78084742938876" lon="11.831946186367958"><ele>716.3333333333333</ele><time>2026-05-01T11:11:58Z</time></trkpt><trkpt lat="47.7809130370282" lon="11.832172391657117"><ele>716.0</ele><time>2026-05-01T11:11:59Z</time></trkpt><trkpt lat="47.780987758767324" lon="11.832393870592117"><ele>716.0</ele><time>2026-05-01T11:12:00Z</time></trkpt><trkpt lat="47.78107385677413" lon="11.83260276604945"><ele>716.0</ele><time>2026-05-01T11:12:01Z</time></trkpt><trkpt lat="47.781172316964486" lon="11.832796265824426"><ele>716.0</ele><time>2026-05-01T11:12:02Z</time></trkpt><trkpt lat="47.78127787477264" lon="11.832975575530575"><ele>716.0</ele><time>2026-05-01T11:12:03Z</time></trkpt><trkpt lat="47.78140764606186" lon="11.833112496615847"><ele>716.0</ele><time>2026-05-01T11:12:04Z</time></trkpt><trkpt lat="47.781527133029954" lon="11.833252396065438"><ele>716.0</ele><time>2026-05-01T11:12:05Z</time></trkpt><trkpt lat="47.78165592452638" lon="11.833368622000883"><ele>716.0</ele><time>2026-05-01T11:12:06Z</time></trkpt><trkpt lat="47.78178457227162" lon="11.833448394463694"><ele>716.0</ele><time>2026-05-01T11:12:07Z</time></trkpt><trkpt lat="47.78190463760025" lon="11.83350175397598"><ele>716.0</ele><time>2026-05-01T11:12:08Z</time></trkpt><trkpt lat="47.782006296919285" lon="11.833535328480222"><ele>716.0</ele><time>2026-05-01T11:12:09Z</time></trkpt><trkpt lat="47.78208810350055" lon="11.833556173578149"><ele>716.0</ele><time>2026-05-01T11:12:10Z</time></trkpt><trkpt lat="47.78218944732302" lon="11.833576355559423"><ele>716.0</ele><time>2026-05-01T11:12:12Z</time></trkpt><trkpt lat="47.78225362982578" lon="11.833591943437263"><ele>716.0</ele><time>2026-05-01T11:12:15Z</time></trkpt><trkpt lat="47.78231666524933" lon="11.833624742552992"><ele>716.0</ele><time>2026-05-01T11:12:19Z</time></trkpt><trkpt lat="47.78239138425368" lon="11.833609723627315"><ele>716.0</ele><time>2026-05-01T11:12:26Z</time></trkpt><trkpt lat="47.78244502373615" lon="11.83372845551149"><ele>716.0</ele><time>2026-05-01T11:12:27Z</time></trkpt><trkpt lat="47.78253417532023" lon="11.833819224371018"><ele>716.0</ele><time>2026-05-01T11:12:29Z</time></trkpt><trkpt lat="47.78259061862847" lon="11.83389267956755"><ele>716.0</ele><time>2026-05-01T11:12:31Z</time></trkpt><trkpt lat="47.78264729930901" lon="11.83395526057288"><ele>716.0</ele><time>2026-05-01T11:12:33Z</time></trkpt><trkpt lat="47.782745290431635" lon="11.83406182739963"><ele>716.0</ele><time>2026-05-01T11:12:35Z</time></trkpt><trkpt lat="47.78282573552476" lon="11.834129243479994"><ele>716.0</ele><time>2026-05-01T11:12:36.001Z</time></trkpt><trkpt lat="47.78291585101746" lon="11.83420358957578"><ele>715.5999999999999</ele><time>2026-05-01T11:12:37.001Z</time></trkpt><trkpt lat="47.78300255990984" lon="11.834285209676262"><ele>715.2</ele><time>2026-05-01T11:12:38.001Z</time></trkpt><trkpt lat="47.783088511782715" lon="11.834368293619445"><ele>714.8</ele><time>2026-05-01T11:12:39.001Z</time></trkpt><trkpt lat="47.78317995052149" lon="11.834452258705964"><ele>714.4000000000001</ele><time>2026-05-01T11:12:40.001Z</time></trkpt><trkpt lat="47.78327651188073" lon="11.834534943026936"><ele>714.0</ele><time>2026-05-01T11:12:41.001Z</time></trkpt><trkpt lat="47.7833668874003" lon="11.834613022047465"><ele>714.2</ele><time>2026-05-01T11:12:42.001Z</time></trkpt><trkpt lat="47.78345456266012" lon="11.834686811826613"><ele>714.4000000000001</ele><time>2026-05-01T11:12:43.001Z</time></trkpt><trkpt lat="47.7835435306472" lon="11.834761897197788"><ele>714.6</ele><time>2026-05-01T11:12:44.001Z</time></trkpt><trkpt lat="47.78363342741389" lon="11.834838473841325"><ele>714.8</ele><time>2026-05-01T11:12:45.001Z</time></trkpt><trkpt lat="47.78372905064047" lon="11.83491882692502"><ele>715.0</ele><time>2026-05-01T11:12:46Z</time></trkpt><trkpt lat="47.78382341469354" lon="11.83500052968478"><ele>715.0</ele><time>2026-05-01T11:12:47Z</time></trkpt><trkpt lat="47.78391859958671" lon="11.835090149227472"><ele>715.0</ele><time>2026-05-01T11:12:48Z</time></trkpt><trkpt lat="47.784016622544655" lon="11.835183583308028"><ele>715.0</ele><time>2026-05-01T11:12:49Z</time></trkpt><trkpt lat="47.78411225093761" lon="11.835282216547274"><ele>715.0</ele><time>2026-05-01T11:12:50Z</time></trkpt><trkpt lat="47.78420939188754" lon="11.83538378507481"><ele>714.75</ele><time>2026-05-01T11:12:51Z</time></trkpt><trkpt lat="47.78430824039567" lon="11.835487168794067"><ele>714.5</ele><time>2026-05-01T11:12:52Z</time></trkpt><trkpt lat="47.78440677522047" lon="11.835593387645757"><ele>714.25</ele><time>2026-05-01T11:12:53Z</time></trkpt><trkpt lat="47.78450722150871" lon="11.835702405108378"><ele>714.0</ele><time>2026-05-01T11:12:54Z</time></trkpt><trkpt lat="47.78460595594347" lon="11.835809437278154"><ele>714.0</ele><time>2026-05-01T11:12:55Z</time></trkpt><trkpt lat="47.78470163597595" lon="11.835918073646463"><ele>714.0</ele><time>2026-05-01T11:12:56Z</time></trkpt><trkpt lat="47.78479794466475" lon="11.83602381869007"><ele>714.0</ele><time>2026-05-01T11:12:57Z</time></trkpt><trkpt lat="47.78489301884069" lon="11.836127501409413"><ele>714.0</ele><time>2026-05-01T11:12:58Z</time></trkpt><trkpt lat="47.78499106296493" lon="11.83622754622669"><ele>714.25</ele><time>2026-05-01T11:12:59Z</time></trkpt><trkpt lat="47.78509118262479" lon="11.836321433433492"><ele>714.5</ele><time>2026-05-01T11:13:00Z</time></trkpt><trkpt lat="47.785198641741935" lon="11.836412701267667"><ele>714.75</ele><time>2026-05-01T11:13:01Z</time></trkpt><trkpt lat="47.78530814399343" lon="11.836497978397365"><ele>715.0</ele><time>2026-05-01T11:13:02Z</time></trkpt><trkpt lat="47.78542081818325" lon="11.836574316099222"><ele>714.25</ele><time>2026-05-01T11:13:03Z</time></trkpt><trkpt lat="47.78553928687188" lon="11.836650012981293"><ele>713.5</ele><time>2026-05-01T11:13:04Z</time></trkpt><trkpt lat="47.78565905632198" lon="11.836721264811993"><ele>712.75</ele><time>2026-05-01T11:13:05Z</time></trkpt><trkpt lat="47.78577787692323" lon="11.83679303849829"><ele>712.0</ele><time>2026-05-01T11:13:06Z</time></trkpt><trkpt lat="47.78589383900447" lon="11.83686731011476"><ele>711.75</ele><time>2026-05-01T11:13:07Z</time></trkpt><trkpt lat="47.786003475216354" lon="11.836948188985307"><ele>711.5</ele><time>2026-05-01T11:13:08Z</time></trkpt><trkpt lat="47.786112373361924" lon="11.837041575379844"><ele>711.25</ele><time>2026-05-01T11:13:09Z</time></trkpt><trkpt lat="47.786214733370464" lon="11.837143833430739"><ele>711.0</ele><time>2026-05-01T11:13:10Z</time></trkpt><trkpt lat="47.786314030362355" lon="11.837253205777763"><ele>711.0</ele><time>2026-05-01T11:13:11Z</time></trkpt><trkpt lat="47.78641115327985" lon="11.837369830121808"><ele>711.0</ele><time>2026-05-01T11:13:12Z</time></trkpt><trkpt lat="47.78650794061839" lon="11.83748789893148"><ele>711.0</ele><time>2026-05-01T11:13:13Z</time></trkpt><trkpt lat="47.78660400201732" lon="11.837606677082814"><ele>711.0</ele><time>2026-05-01T11:13:14Z</time></trkpt><trkpt lat="47.786703081053695" lon="11.837720761267871"><ele>712.0</ele><time>2026-05-01T11:13:15Z</time></trkpt><trkpt lat="47.786791348981176" lon="11.837853309868011"><ele>713.0</ele><time>2026-05-01T11:13:16Z</time></trkpt><trkpt lat="47.78689982581543" lon="11.837956513399604"><ele>714.0</ele><time>2026-05-01T11:13:17Z</time></trkpt><trkpt lat="47.78701641921742" lon="11.838037120720292"><ele>715.0</ele><time>2026-05-01T11:13:18Z</time></trkpt><trkpt lat="47.787122695527984" lon="11.838129862249199"><ele>715.0</ele><time>2026-05-01T11:13:19Z</time></trkpt><trkpt lat="47.78723586533963" lon="11.838206712311486"><ele>715.0</ele><time>2026-05-01T11:13:20Z</time></trkpt><trkpt lat="47.78735066734851" lon="11.838273983462601"><ele>715.0</ele><time>2026-05-01T11:13:21Z</time></trkpt><trkpt lat="47.78746578483917" lon="11.838333247199515"><ele>715.0</ele><time>2026-05-01T11:13:22Z</time></trkpt><trkpt lat="47.78758438267545" lon="11.838387555374847"><ele>714.8</ele><time>2026-05-01T11:13:23Z</time></trkpt><trkpt lat="47.78769989583234" lon="11.838439482696858"><ele>714.6</ele><time>2026-05-01T11:13:24Z</time></trkpt><trkpt lat="47.78781248664177" lon="11.838489551240464"><ele>714.4000000000001</ele><time>2026-05-01T11:13:25Z</time></trkpt><trkpt lat="47.78791271615309" lon="11.838534121282366"><ele>714.2</ele><time>2026-05-01T11:13:26Z</time></trkpt><trkpt lat="47.78800632488874" lon="11.838570616822174"><ele>714.0</ele><time>2026-05-01T11:13:27Z</time></trkpt><trkpt lat="47.78809439661628" lon="11.838602095301713"><ele>714.0</ele><time>2026-05-01T11:13:28Z</time></trkpt><trkpt lat="47.78817057520494" lon="11.838629494869032"><ele>714.0</ele><time>2026-05-01T11:13:29Z</time></trkpt><trkpt lat="47.78823729638391" lon="11.838653837331368"><ele>714.0</ele><time>2026-05-01T11:13:30Z</time></trkpt><trkpt lat="47.78833827467139" lon="11.838690810643753"><ele>714.0</ele><time>2026-05-01T11:13:32Z</time></trkpt><trkpt lat="47.78854086235868" lon="11.838720209125928"><ele>714.0</ele><time>2026-05-01T11:14:10Z</time></trkpt><trkpt lat="47.78860740051992" lon="11.838746958329494"><ele>714.0</ele><time>2026-05-01T11:14:11Z</time></trkpt><trkpt lat="47.788663172155516" lon="11.838808848804442"><ele>714.0</ele><time>2026-05-01T11:14:12Z</time></trkpt><trkpt lat="47.78879249951085" lon="11.838867208207132"><ele>714.0</ele><time>2026-05-01T11:14:14Z</time></trkpt><trkpt lat="47.78887433324325" lon="11.838901591853901"><ele>714.0</ele><time>2026-05-01T11:14:15Z</time></trkpt><trkpt lat="47.78896521545131" lon="11.8389374412338"><ele>714.0</ele><time>2026-05-01T11:14:16Z</time></trkpt><trkpt lat="47.789068609960694" lon="11.838977320423712"><ele>714.0</ele><time>2026-05-01T11:14:17Z</time></trkpt><trkpt lat="47.789179044057285" lon="11.839019235280448"><ele>714.0</ele><time>2026-05-01T11:14:18Z</time></trkpt><trkpt lat="47.7892893404077" lon="11.83906109781688"><ele>714.0</ele><time>2026-05-01T11:14:19Z</time></trkpt><trkpt lat="47.7893997351103" lon="11.83910118444935"><ele>714.0</ele><time>2026-05-01T11:14:20Z</time></trkpt><trkpt lat="47.78951057402451" lon="11.839127066376992"><ele>714.0</ele><time>2026-05-01T11:14:21Z</time></trkpt><trkpt lat="47.78961581806898" lon="11.839164507727302"><ele>714.0</ele><time>2026-05-01T11:14:22Z</time></trkpt><trkpt lat="47.78970929992109" lon="11.839197331327666"><ele>714.0</ele><time>2026-05-01T11:14:23Z</time></trkpt><trkpt lat="47.7897922328344" lon="11.839225356203986"><ele>714.0</ele><time>2026-05-01T11:14:24Z</time></trkpt><trkpt lat="47.78987679486353" lon="11.839249954151537"><ele>714.0</ele><time>2026-05-01T11:14:25Z</time></trkpt><trkpt lat="47.78996545249996" lon="11.839301991723763"><ele>714.0</ele><time>2026-05-01T11:14:26Z</time></trkpt><trkpt lat="47.79006375536257" lon="11.839338688999717"><ele>714.0</ele><time>2026-05-01T11:14:27Z</time></trkpt><trkpt lat="47.7901711724572" lon="11.839378788610988"><ele>714.0</ele><time>2026-05-01T11:14:28Z</time></trkpt><trkpt lat="47.79028777122054" lon="11.839422315954065"><ele>714.0</ele><time>2026-05-01T11:14:29Z</time></trkpt><trkpt lat="47.79040531837693" lon="11.8394661972384"><ele>713.5</ele><time>2026-05-01T11:14:30Z</time></trkpt><trkpt lat="47.79052073727554" lon="11.83950864882524"><ele>713.0</ele><time>2026-05-01T11:14:31Z</time></trkpt><trkpt lat="47.790636153711944" lon="11.839550566359216"><ele>712.5</ele><time>2026-05-01T11:14:32Z</time></trkpt><trkpt lat="47.79074355185417" lon="11.839589571756"><ele>712.0</ele><time>2026-05-01T11:14:33Z</time></trkpt><trkpt lat="47.790849880949935" lon="11.839628188943609"><ele>712.0</ele><time>2026-05-01T11:14:34Z</time></trkpt><trkpt lat="47.79095547233485" lon="11.839667273924974"><ele>712.0</ele><time>2026-05-01T11:14:35Z</time></trkpt><trkpt lat="47.79106708104493" lon="11.839707777347302"><ele>712.0</ele><time>2026-05-01T11:14:36Z</time></trkpt><trkpt lat="47.7911851429391" lon="11.839752336595572"><ele>712.0</ele><time>2026-05-01T11:14:37Z</time></trkpt><trkpt lat="47.791304419194866" lon="11.839796968159032"><ele>712.25</ele><time>2026-05-01T11:14:38Z</time></trkpt><trkpt lat="47.79142025372" lon="11.839839152853187"><ele>712.5</ele><time>2026-05-01T11:14:39Z</time></trkpt><trkpt lat="47.79153438107664" lon="11.839879922557738"><ele>712.75</ele><time>2026-05-01T11:14:40Z</time></trkpt><trkpt lat="47.79164908951393" lon="11.839919517583873"><ele>713.0</ele><time>2026-05-01T11:14:41Z</time></trkpt><trkpt lat="47.79176447375823" lon="11.839959345885463"><ele>712.5</ele><time>2026-05-01T11:14:42Z</time></trkpt><trkpt lat="47.79188288947976" lon="11.84000022058512"><ele>712.0</ele><time>2026-05-01T11:14:43Z</time></trkpt><trkpt lat="47.792000021800355" lon="11.840040652298233"><ele>711.5</ele><time>2026-05-01T11:14:44Z</time></trkpt><trkpt lat="47.79211839966144" lon="11.840081513935836"><ele>711.0</ele><time>2026-05-01T11:14:45Z</time></trkpt><trkpt lat="47.79223630264993" lon="11.840122284847237"><ele>711.0</ele><time>2026-05-01T11:14:46Z</time></trkpt><trkpt lat="47.79235122631394" lon="11.840162867087791"><ele>711.0</ele><time>2026-05-01T11:14:47Z</time></trkpt><trkpt lat="47.7924569492405" lon="11.840200729482868"><ele>711.0</ele><time>2026-05-01T11:14:48Z</time></trkpt><trkpt lat="47.79256021986651" lon="11.84023870327136"><ele>711.0</ele><time>2026-05-01T11:14:49Z</time></trkpt><trkpt lat="47.792667609342516" lon="11.840256297025572"><ele>711.0</ele><time>2026-05-01T11:14:50Z</time></trkpt><trkpt lat="47.792770360323736" lon="11.840297617861898"><ele>711.0</ele><time>2026-05-01T11:14:51.001Z</time></trkpt><trkpt lat="47.79287488469111" lon="11.840330605658167"><ele>711.0</ele><time>2026-05-01T11:14:52Z</time></trkpt><trkpt lat="47.79297932824785" lon="11.840365279281935"><ele>711.0</ele><time>2026-05-01T11:14:53Z</time></trkpt><trkpt lat="47.793083409962684" lon="11.840396728680028"><ele>711.0</ele><time>2026-05-01T11:14:54Z</time></trkpt><trkpt lat="47.793187181198114" lon="11.840425731951353"><ele>711.0</ele><time>2026-05-01T11:14:55Z</time></trkpt><trkpt lat="47.793291014146064" lon="11.840479232663963"><ele>711.0</ele><time>2026-05-01T11:14:56Z</time></trkpt><trkpt lat="47.793394764260505" lon="11.84050833825446"><ele>711.0</ele><time>2026-05-01T11:14:57Z</time></trkpt><trkpt lat="47.79349017240964" lon="11.840535103601335"><ele>711.0</ele><time>2026-05-01T11:14:58Z</time></trkpt><trkpt lat="47.79357354770326" lon="11.840558754363236"><ele>711.0</ele><time>2026-05-01T11:14:59Z</time></trkpt><trkpt lat="47.793644776142024" lon="11.840579332733922"><ele>711.0</ele><time>2026-05-01T11:15:00Z</time></trkpt><trkpt lat="47.79371637180174" lon="11.840574675975997"><ele>711.0</ele><time>2026-05-01T11:15:01Z</time></trkpt><trkpt lat="47.79378327563433" lon="11.840593849027131"><ele>711.0</ele><time>2026-05-01T11:15:02Z</time></trkpt><trkpt lat="47.79384932372018" lon="11.840613280353015"><ele>711.0</ele><time>2026-05-01T11:15:03Z</time></trkpt><trkpt lat="47.79391344018692" lon="11.840636637098063"><ele>711.0</ele><time>2026-05-01T11:15:04Z</time></trkpt><trkpt lat="47.79397895181689" lon="11.840669644827495"><ele>711.0</ele><time>2026-05-01T11:15:05Z</time></trkpt><trkpt lat="47.79404483466829" lon="11.840719530780756"><ele>711.0</ele><time>2026-05-01T11:15:06Z</time></trkpt><trkpt lat="47.79410808584447" lon="11.840791720809149"><ele>711.0</ele><time>2026-05-01T11:15:07Z</time></trkpt><trkpt lat="47.79417638973197" lon="11.840875246917365"><ele>711.0</ele><time>2026-05-01T11:15:08Z</time></trkpt><trkpt lat="47.79425482581319" lon="11.84094159827662"><ele>711.5</ele><time>2026-05-01T11:15:09Z</time></trkpt><trkpt lat="47.79434454778065" lon="11.841000382598539"><ele>712.0</ele><time>2026-05-01T11:15:10Z</time></trkpt><trkpt lat="47.794444661673644" lon="11.841078548793321"><ele>712.5</ele><time>2026-05-01T11:15:11Z</time></trkpt><trkpt lat="47.794521099980706" lon="11.84122267177174"><ele>713.0</ele><time>2026-05-01T11:15:12Z</time></trkpt><trkpt lat="47.79462898417323" lon="11.841326373999374"><ele>713.0</ele><time>2026-05-01T11:15:13Z</time></trkpt><trkpt lat="47.794745811483715" lon="11.841411949483753"><ele>713.0</ele><time>2026-05-01T11:15:14Z</time></trkpt><trkpt lat="47.79486897604583" lon="11.841508440099162"><ele>713.0</ele><time>2026-05-01T11:15:15Z</time></trkpt><trkpt lat="47.7949983223746" lon="11.841613887079966"><ele>713.0</ele><time>2026-05-01T11:15:16Z</time></trkpt><trkpt lat="47.79511917415125" lon="11.841717086824978"><ele>715.75</ele><time>2026-05-01T11:15:17Z</time></trkpt><trkpt lat="47.795237670476624" lon="11.841826428772658"><ele>718.5</ele><time>2026-05-01T11:15:18Z</time></trkpt><trkpt lat="47.795358179063925" lon="11.841946125655284"><ele>721.25</ele><time>2026-05-01T11:15:19Z</time></trkpt><trkpt lat="47.79548148631863" lon="11.842070252151357"><ele>724.0</ele><time>2026-05-01T11:15:20Z</time></trkpt><trkpt lat="47.79560481515362" lon="11.84219718950829"><ele>724.0</ele><time>2026-05-01T11:15:21Z</time></trkpt><trkpt lat="47.79572757573715" lon="11.842332245919089"><ele>724.0</ele><time>2026-05-01T11:15:22Z</time></trkpt><trkpt lat="47.795849549958014" lon="11.842475930127241"><ele>724.0</ele><time>2026-05-01T11:15:23Z</time></trkpt><trkpt lat="47.79597278223386" lon="11.84262817272363"><ele>725.0</ele><time>2026-05-01T11:15:24Z</time></trkpt><trkpt lat="47.796096090033714" lon="11.842788592042934"><ele>726.0</ele><time>2026-05-01T11:15:25Z</time></trkpt><trkpt lat="47.796219581359125" lon="11.842957270195411"><ele>727.0</ele><time>2026-05-01T11:15:26Z</time></trkpt><trkpt lat="47.796343915650795" lon="11.843135435436647"><ele>727.0</ele><time>2026-05-01T11:15:27Z</time></trkpt><trkpt lat="47.796460194099794" lon="11.843311116247275"><ele>727.0</ele><time>2026-05-01T11:15:28Z</time></trkpt><trkpt lat="47.79658577688831" lon="11.84347829676932"><ele>727.0</ele><time>2026-05-01T11:15:29Z</time></trkpt><trkpt lat="47.79668976306681" lon="11.843686034199488"><ele>726.0</ele><time>2026-05-01T11:15:30Z</time></trkpt><trkpt lat="47.79680492770406" lon="11.843885991740764"><ele>725.0</ele><time>2026-05-01T11:15:31Z</time></trkpt><trkpt lat="47.79691752382839" lon="11.844089126823674"><ele>724.0</ele><time>2026-05-01T11:15:32Z</time></trkpt><trkpt lat="47.79702965654653" lon="11.84430031608232"><ele>723.3333333333334</ele><time>2026-05-01T11:15:33Z</time></trkpt><trkpt lat="47.7971405705168" lon="11.844517389604952"><ele>722.6666666666666</ele><time>2026-05-01T11:15:34Z</time></trkpt><trkpt lat="47.797247883603035" lon="11.844739725160135"><ele>722.0</ele><time>2026-05-01T11:15:35Z</time></trkpt><trkpt lat="47.79735080401651" lon="11.844963507666847"><ele>721.6666666666666</ele><time>2026-05-01T11:15:36Z</time></trkpt><trkpt lat="47.79744346829302" lon="11.845177519720487"><ele>721.3333333333334</ele><time>2026-05-01T11:15:37Z</time></trkpt><trkpt lat="47.79752814508428" lon="11.845382940243642"><ele>721.0</ele><time>2026-05-01T11:15:38Z</time></trkpt><trkpt lat="47.7976097216715" lon="11.845586972264325"><ele>722.0</ele><time>2026-05-01T11:15:39Z</time></trkpt><trkpt lat="47.797689847634224" lon="11.845794450225236"><ele>723.0</ele><time>2026-05-01T11:15:40Z</time></trkpt><trkpt lat="47.797769460602765" lon="11.846008764495906"><ele>724.0</ele><time>2026-05-01T11:15:41Z</time></trkpt><trkpt lat="47.797844654887015" lon="11.846228210675402"><ele>725.0</ele><time>2026-05-01T11:15:42Z</time></trkpt><trkpt lat="47.79792058300994" lon="11.846453075467267"><ele>726.0</ele><time>2026-05-01T11:15:43Z</time></trkpt><trkpt lat="47.7979960829865" lon="11.846684092850555"><ele>727.0</ele><time>2026-05-01T11:15:44Z</time></trkpt><trkpt lat="47.79806870101727" lon="11.846920134835186"><ele>727.3333333333334</ele><time>2026-05-01T11:15:45Z</time></trkpt><trkpt lat="47.79814144978932" lon="11.847160015487393"><ele>727.6666666666666</ele><time>2026-05-01T11:15:46Z</time></trkpt><trkpt lat="47.79821361002872" lon="11.847397881867575"><ele>728.0</ele><time>2026-05-01T11:15:47Z</time></trkpt><trkpt lat="47.79828903169486" lon="11.847638193638625"><ele>728.3333333333333</ele><time>2026-05-01T11:15:48Z</time></trkpt><trkpt lat="47.79836574664753" lon="11.847867483502595"><ele>728.6666666666666</ele><time>2026-05-01T11:15:49Z</time></trkpt><trkpt lat="47.79844532769849" lon="11.848087016920024"><ele>729.0</ele><time>2026-05-01T11:15:50Z</time></trkpt><trkpt lat="47.7985355348441" lon="11.848312360683947"><ele>731.3333333333334</ele><time>2026-05-01T11:15:51Z</time></trkpt><trkpt lat="47.798631309627616" lon="11.848533248621296"><ele>733.6666666666667</ele><time>2026-05-01T11:15:52Z</time></trkpt><trkpt lat="47.79873407317761" lon="11.848747129603133"><ele>736.0</ele><time>2026-05-01T11:15:53Z</time></trkpt><trkpt lat="47.79884912285278" lon="11.848950748350655"><ele>736.0</ele><time>2026-05-01T11:15:54Z</time></trkpt><trkpt lat="47.79898512077114" lon="11.84912220407319"><ele>736.0</ele><time>2026-05-01T11:15:55Z</time></trkpt><trkpt lat="47.79911483303533" lon="11.84930424554679"><ele>736.0</ele><time>2026-05-01T11:15:56Z</time></trkpt><trkpt lat="47.79924607860062" lon="11.849471051496728"><ele>738.0</ele><time>2026-05-01T11:15:57Z</time></trkpt><trkpt lat="47.79939701872782" lon="11.849612969401921"><ele>740.0</ele><time>2026-05-01T11:15:58Z</time></trkpt><trkpt lat="47.79955453093561" lon="11.849737002949112"><ele>742.0</ele><time>2026-05-01T11:15:59Z</time></trkpt><trkpt lat="47.799724731028235" lon="11.849819749384537"><ele>742.0</ele><time>2026-05-01T11:16:00Z</time></trkpt><trkpt lat="47.79988977140372" lon="11.849908318669936"><ele>742.0</ele><time>2026-05-01T11:16:01Z</time></trkpt><trkpt lat="47.80005902173452" lon="11.849993706484973"><ele>742.0</ele><time>2026-05-01T11:16:02Z</time></trkpt><trkpt lat="47.800226659398575" lon="11.850078664510926"><ele>741.3333333333334</ele><time>2026-05-01T11:16:03Z</time></trkpt><trkpt lat="47.80038831934177" lon="11.850175915363483"><ele>740.6666666666666</ele><time>2026-05-01T11:16:04Z</time></trkpt><trkpt lat="47.80054467608345" lon="11.8502801326103"><ele>740.0</ele><time>2026-05-01T11:16:05Z</time></trkpt><trkpt lat="47.8006840179646" lon="11.85042186292293"><ele>740.0</ele><time>2026-05-01T11:16:06Z</time></trkpt><trkpt lat="47.800823120298965" lon="11.850560445008163"><ele>740.0</ele><time>2026-05-01T11:16:07Z</time></trkpt><trkpt lat="47.80095547941942" lon="11.850712780839338"><ele>740.0</ele><time>2026-05-01T11:16:08Z</time></trkpt><trkpt lat="47.801081296507355" lon="11.850880559969776"><ele>739.6666666666666</ele><time>2026-05-01T11:16:09Z</time></trkpt><trkpt lat="47.80119590354287" lon="11.85106376415082"><ele>739.3333333333334</ele><time>2026-05-01T11:16:10Z</time></trkpt><trkpt lat="47.801301981187095" lon="11.851258314038796"><ele>739.0</ele><time>2026-05-01T11:16:11Z</time></trkpt><trkpt lat="47.80139713434968" lon="11.851464281955598"><ele>739.0</ele><time>2026-05-01T11:16:12Z</time></trkpt><trkpt lat="47.80148426602199" lon="11.85168516561179"><ele>739.0</ele><time>2026-05-01T11:16:13Z</time></trkpt><trkpt lat="47.80156735179144" lon="11.851910420271397"><ele>739.0</ele><time>2026-05-01T11:16:14Z</time></trkpt><trkpt lat="47.80164352164321" lon="11.852141596546305"><ele>738.6666666666667</ele><time>2026-05-01T11:16:15Z</time></trkpt><trkpt lat="47.80171979018079" lon="11.852378724934594"><ele>738.3333333333334</ele><time>2026-05-01T11:16:16Z</time></trkpt><trkpt lat="47.80179810273596" lon="11.852616910255282"><ele>738.0</ele><time>2026-05-01T11:16:17Z</time></trkpt><trkpt lat="47.801879212102264" lon="11.852856709897672"><ele>737.6666666666666</ele><time>2026-05-01T11:16:18Z</time></trkpt><trkpt lat="47.801967199149196" lon="11.853097769438042"><ele>737.3333333333333</ele><time>2026-05-01T11:16:19Z</time></trkpt><trkpt lat="47.80206453950517" lon="11.85332575180116"><ele>737.0</ele><time>2026-05-01T11:16:20Z</time></trkpt><trkpt lat="47.80217598658582" lon="11.853554635613477"><ele>737.0</ele><time>2026-05-01T11:16:21Z</time></trkpt><trkpt lat="47.80230562915418" lon="11.853776007797086"><ele>737.0</ele><time>2026-05-01T11:16:22Z</time></trkpt><trkpt lat="47.80244987835267" lon="11.853982551494958"><ele>737.0</ele><time>2026-05-01T11:16:23Z</time></trkpt><trkpt lat="47.80260576584179" lon="11.854170420909973"><ele>732.6666666666666</ele><time>2026-05-01T11:16:24Z</time></trkpt><trkpt lat="47.802766383697964" lon="11.854350929340407"><ele>728.3333333333334</ele><time>2026-05-01T11:16:25Z</time></trkpt><trkpt lat="47.802933271162736" lon="11.854524161360029"><ele>724.0</ele><time>2026-05-01T11:16:26Z</time></trkpt><trkpt lat="47.80309598747962" lon="11.854687579060917"><ele>724.0</ele><time>2026-05-01T11:16:27Z</time></trkpt><trkpt lat="47.80325470579561" lon="11.854846981498152"><ele>724.0</ele><time>2026-05-01T11:16:28Z</time></trkpt><trkpt lat="47.80341550662256" lon="11.855018414748967"><ele>724.0</ele><time>2026-05-01T11:16:29Z</time></trkpt><trkpt lat="47.80357590983284" lon="11.855199968971904"><ele>720.6666666666667</ele><time>2026-05-01T11:16:30Z</time></trkpt><trkpt lat="47.803731655385654" lon="11.855388412591598"><ele>717.3333333333334</ele><time>2026-05-01T11:16:31Z</time></trkpt><trkpt lat="47.803875491594944" lon="11.855596476296983"><ele>714.0</ele><time>2026-05-01T11:16:32Z</time></trkpt><trkpt lat="47.80401190310854" lon="11.85581579232022"><ele>713.3333333333334</ele><time>2026-05-01T11:16:33Z</time></trkpt><trkpt lat="47.804134684793645" lon="11.856048290318286"><ele>712.6666666666667</ele><time>2026-05-01T11:16:34Z</time></trkpt><trkpt lat="47.80423600356124" lon="11.856296181339403"><ele>712.0</ele><time>2026-05-01T11:16:35Z</time></trkpt><trkpt lat="47.80432408494828" lon="11.856557790687457"><ele>711.0</ele><time>2026-05-01T11:16:36Z</time></trkpt><trkpt lat="47.80439594710636" lon="11.856827491553227"><ele>710.0</ele><time>2026-05-01T11:16:37Z</time></trkpt><trkpt lat="47.80446851965715" lon="11.857105695344602"><ele>709.0</ele><time>2026-05-01T11:16:38Z</time></trkpt><trkpt lat="47.804547350749736" lon="11.85739190870979"><ele>708.3333333333334</ele><time>2026-05-01T11:16:39Z</time></trkpt><trkpt lat="47.8046414486172" lon="11.857667912198584"><ele>707.6666666666666</ele><time>2026-05-01T11:16:40Z</time></trkpt><trkpt lat="47.804748748183506" lon="11.857937990126086"><ele>707.0</ele><time>2026-05-01T11:16:41Z</time></trkpt><trkpt lat="47.80486912795372" lon="11.85820370098879"><ele>706.3333333333333</ele><time>2026-05-01T11:16:42Z</time></trkpt><trkpt lat="47.805001130092855" lon="11.858464313743973"><ele>705.6666666666666</ele><time>2026-05-01T11:16:43Z</time></trkpt><trkpt lat="47.80514749258222" lon="11.858719574851705"><ele>705.0</ele><time>2026-05-01T11:16:44Z</time></trkpt><trkpt lat="47.80530271308971" lon="11.858967052997388"><ele>705.0</ele><time>2026-05-01T11:16:45Z</time></trkpt><trkpt lat="47.80545959052034" lon="11.859215652618714"><ele>705.0</ele><time>2026-05-01T11:16:46Z</time></trkpt><trkpt lat="47.80561259580207" lon="11.859452049982071"><ele>705.3333333333334</ele><time>2026-05-01T11:16:47Z</time></trkpt><trkpt lat="47.8057545784583" lon="11.85967531150526"><ele>705.6666666666667</ele><time>2026-05-01T11:16:48Z</time></trkpt><trkpt lat="47.80589143939175" lon="11.859893677687612"><ele>706.0</ele><time>2026-05-01T11:16:49Z</time></trkpt><trkpt lat="47.80602582969884" lon="11.860116665835681"><ele>704.6666666666667</ele><time>2026-05-01T11:16:50Z</time></trkpt><trkpt lat="47.80615165501532" lon="11.860352337314987"><ele>703.3333333333334</ele><time>2026-05-01T11:16:51Z</time></trkpt><trkpt lat="47.806270638814134" lon="11.860590420616553"><ele>702.0</ele><time>2026-05-01T11:16:52Z</time></trkpt><trkpt lat="47.80638386195809" lon="11.860844328894558"><ele>699.6666666666666</ele><time>2026-05-01T11:16:53Z</time></trkpt><trkpt lat="47.80648224930788" lon="11.861089710298307"><ele>697.3333333333333</ele><time>2026-05-01T11:16:54Z</time></trkpt><trkpt lat="47.806572915494826" lon="11.861340251149759"><ele>695.0</ele><time>2026-05-01T11:16:55Z</time></trkpt><trkpt lat="47.80664849700044" lon="11.861598287260547"><ele>694.3333333333333</ele><time>2026-05-01T11:16:56Z</time></trkpt><trkpt lat="47.806715008336425" lon="11.861857034007382"><ele>693.6666666666666</ele><time>2026-05-01T11:16:57Z</time></trkpt><trkpt lat="47.80676948485445" lon="11.862122231538843"><ele>693.0</ele><time>2026-05-01T11:16:58Z</time></trkpt><trkpt lat="47.80681616462825" lon="11.862396310443865"><ele>693.0</ele><time>2026-05-01T11:16:59Z</time></trkpt><trkpt lat="47.806844292668245" lon="11.862656142599441"><ele>693.0</ele><time>2026-05-01T11:17:00Z</time></trkpt><trkpt lat="47.80685856427191" lon="11.86291816809616"><ele>693.0</ele><time>2026-05-01T11:17:01Z</time></trkpt><trkpt lat="47.806854854123614" lon="11.863178932361496"><ele>693.0</ele><time>2026-05-01T11:17:02Z</time></trkpt><trkpt lat="47.80683533038789" lon="11.863439143445468"><ele>693.0</ele><time>2026-05-01T11:17:03Z</time></trkpt><trkpt lat="47.80682756979237" lon="11.863695157826276"><ele>693.0</ele><time>2026-05-01T11:17:04Z</time></trkpt><trkpt lat="47.80674429456656" lon="11.863932221528458"><ele>692.0</ele><time>2026-05-01T11:17:05Z</time></trkpt><trkpt lat="47.80670681554329" lon="11.864167676991276"><ele>691.0</ele><time>2026-05-01T11:17:06Z</time></trkpt><trkpt lat="47.80650504228173" lon="11.864356442666606"><ele>690.0</ele><time>2026-05-01T11:17:07Z</time></trkpt><trkpt lat="47.806368325164144" lon="11.864556038454552"><ele>690.0</ele><time>2026-05-01T11:17:08Z</time></trkpt><trkpt lat="47.806227026043004" lon="11.864722022232149"><ele>690.0</ele><time>2026-05-01T11:17:09Z</time></trkpt><trkpt lat="47.80609736222547" lon="11.864917719910549"><ele>690.0</ele><time>2026-05-01T11:17:10Z</time></trkpt><trkpt lat="47.805973306311145" lon="11.86511120592461"><ele>689.0</ele><time>2026-05-01T11:17:11Z</time></trkpt><trkpt lat="47.80586466005269" lon="11.865326848616027"><ele>688.0</ele><time>2026-05-01T11:17:12Z</time></trkpt><trkpt lat="47.805768338216666" lon="11.865561856503096"><ele>687.0</ele><time>2026-05-01T11:17:13Z</time></trkpt><trkpt lat="47.805685680125634" lon="11.865811505263848"><ele>687.0</ele><time>2026-05-01T11:17:14Z</time></trkpt><trkpt lat="47.80561994154771" lon="11.866073344529482"><ele>687.0</ele><time>2026-05-01T11:17:15Z</time></trkpt><trkpt lat="47.80556653245536" lon="11.86635082412568"><ele>687.0</ele><time>2026-05-01T11:17:16Z</time></trkpt><trkpt lat="47.805526208779256" lon="11.866633827282364"><ele>685.6666666666666</ele><time>2026-05-01T11:17:17Z</time></trkpt><trkpt lat="47.805494859804185" lon="11.86691544305687"><ele>684.3333333333333</ele><time>2026-05-01T11:17:18Z</time></trkpt><trkpt lat="47.80548839557103" lon="11.867205167053712"><ele>683.0</ele><time>2026-05-01T11:17:19Z</time></trkpt><trkpt lat="47.80550490631171" lon="11.867492786277772"><ele>681.6666666666666</ele><time>2026-05-01T11:17:20Z</time></trkpt><trkpt lat="47.80553846633301" lon="11.867779530252278"><ele>680.3333333333334</ele><time>2026-05-01T11:17:21Z</time></trkpt><trkpt lat="47.80559033775444" lon="11.868068426871133"><ele>679.0</ele><time>2026-05-01T11:17:22Z</time></trkpt><trkpt lat="47.80565095231226" lon="11.868363256707585"><ele>677.6666666666667</ele><time>2026-05-01T11:17:23Z</time></trkpt><trkpt lat="47.805720204263594" lon="11.868664660403848"><ele>676.3333333333334</ele><time>2026-05-01T11:17:24Z</time></trkpt><trkpt lat="47.80579271778388" lon="11.868957743938546"><ele>675.0</ele><time>2026-05-01T11:17:25Z</time></trkpt><trkpt lat="47.80586393699791" lon="11.8692355145093"><ele>674.3333333333334</ele><time>2026-05-01T11:17:26Z</time></trkpt><trkpt lat="47.80594051904419" lon="11.869499179257465"><ele>673.6666666666667</ele><time>2026-05-01T11:17:27Z</time></trkpt><trkpt lat="47.806016301705064" lon="11.869772734502034"><ele>673.0</ele><time>2026-05-01T11:17:28Z</time></trkpt><trkpt lat="47.80607977530878" lon="11.87004310304645"><ele>667.0</ele><time>2026-05-01T11:17:29Z</time></trkpt><trkpt lat="47.806130073118766" lon="11.870306310436264"><ele>661.0</ele><time>2026-05-01T11:17:30Z</time></trkpt><trkpt lat="47.806174764285956" lon="11.870568724078042"><ele>655.0</ele><time>2026-05-01T11:17:31Z</time></trkpt><trkpt lat="47.80620277470634" lon="11.870842374017208"><ele>652.3333333333334</ele><time>2026-05-01T11:17:32Z</time></trkpt><trkpt lat="47.80623547022873" lon="11.87111776558108"><ele>649.6666666666666</ele><time>2026-05-01T11:17:33Z</time></trkpt><trkpt lat="47.80625454466438" lon="11.871395820227928"><ele>647.0</ele><time>2026-05-01T11:17:34Z</time></trkpt><trkpt lat="47.80627116126619" lon="11.871674566462383"><ele>646.0</ele><time>2026-05-01T11:17:35Z</time></trkpt><trkpt lat="47.8062753973623" lon="11.871957098323271"><ele>645.0</ele><time>2026-05-01T11:17:36Z</time></trkpt><trkpt lat="47.80627735204286" lon="11.872242257269077"><ele>644.0</ele><time>2026-05-01T11:17:37Z</time></trkpt><trkpt lat="47.8062666821026" lon="11.872528013480741"><ele>643.3333333333333</ele><time>2026-05-01T11:17:38Z</time></trkpt><trkpt lat="47.80624960177168" lon="11.872814376808085"><ele>642.6666666666666</ele><time>2026-05-01T11:17:39Z</time></trkpt><trkpt lat="47.80623383625575" lon="11.873100350770166"><ele>642.0</ele><time>2026-05-01T11:17:40Z</time></trkpt><trkpt lat="47.80622513311686" lon="11.873386579934516"><ele>641.0</ele><time>2026-05-01T11:17:41Z</time></trkpt><trkpt lat="47.80622428963551" lon="11.873672395279668"><ele>640.0</ele><time>2026-05-01T11:17:42Z</time></trkpt><trkpt lat="47.80622880995498" lon="11.873955240592208"><ele>639.0</ele><time>2026-05-01T11:17:43Z</time></trkpt><trkpt lat="47.80624181476768" lon="11.874235935428153"><ele>639.0</ele><time>2026-05-01T11:17:44Z</time></trkpt><trkpt lat="47.806262817492666" lon="11.87451519332331"><ele>639.0</ele><time>2026-05-01T11:17:45Z</time></trkpt><trkpt lat="47.806290429643965" lon="11.874791028900507"><ele>639.0</ele><time>2026-05-01T11:17:46Z</time></trkpt><trkpt lat="47.80632886515288" lon="11.875065860914336"><ele>639.0</ele><time>2026-05-01T11:17:47Z</time></trkpt><trkpt lat="47.8063774491954" lon="11.875339359784162"><ele>639.0</ele><time>2026-05-01T11:17:48Z</time></trkpt><trkpt lat="47.806431161146925" lon="11.875610868947541"><ele>639.0</ele><time>2026-05-01T11:17:49Z</time></trkpt><trkpt lat="47.80649668085506" lon="11.87587591754297"><ele>638.6666666666666</ele><time>2026-05-01T11:17:50Z</time></trkpt><trkpt lat="47.806579629983936" lon="11.87612899770384"><ele>638.3333333333333</ele><time>2026-05-01T11:17:51Z</time></trkpt><trkpt lat="47.80667409896527" lon="11.876375082959617"><ele>638.0</ele><time>2026-05-01T11:17:52Z</time></trkpt><trkpt lat="47.80677928225601" lon="11.87661263684008"><ele>636.6666666666666</ele><time>2026-05-01T11:17:53Z</time></trkpt><trkpt lat="47.806890897911074" lon="11.876839480518957"><ele>635.3333333333334</ele><time>2026-05-01T11:17:54Z</time></trkpt><trkpt lat="47.807012982592866" lon="11.877058156322013"><ele>634.0</ele><time>2026-05-01T11:17:55Z</time></trkpt><trkpt lat="47.80714566073244" lon="11.877266155427161"><ele>634.0</ele><time>2026-05-01T11:17:56Z</time></trkpt><trkpt lat="47.80728662222258" lon="11.877458372275242"><ele>634.0</ele><time>2026-05-01T11:17:57Z</time></trkpt><trkpt lat="47.807436903647286" lon="11.877637531649615"><ele>634.0</ele><time>2026-05-01T11:17:58Z</time></trkpt><trkpt lat="47.80759555208791" lon="11.87780377573695"><ele>634.0</ele><time>2026-05-01T11:17:59Z</time></trkpt><trkpt lat="47.80775885431669" lon="11.877961418396605"><ele>634.0</ele><time>2026-05-01T11:18:00Z</time></trkpt><trkpt lat="47.80792722241524" lon="11.878109968526392"><ele>634.0</ele><time>2026-05-01T11:18:01Z</time></trkpt><trkpt lat="47.808100848072115" lon="11.878249528092113"><ele>634.0</ele><time>2026-05-01T11:18:02Z</time></trkpt><trkpt lat="47.808277691014176" lon="11.878384310736529"><ele>634.0</ele><time>2026-05-01T11:18:03Z</time></trkpt><trkpt lat="47.80845476167101" lon="11.87851391504429"><ele>634.0</ele><time>2026-05-01T11:18:04Z</time></trkpt><trkpt lat="47.808631554484755" lon="11.878640533504432"><ele>637.3333333333334</ele><time>2026-05-01T11:18:05Z</time></trkpt><trkpt lat="47.808809416177816" lon="11.878766859288808"><ele>640.6666666666666</ele><time>2026-05-01T11:18:06Z</time></trkpt><trkpt lat="47.80898433593317" lon="11.878899546934262"><ele>644.0</ele><time>2026-05-01T11:18:07Z</time></trkpt><trkpt lat="47.80915538637225" lon="11.879040457531833"><ele>644.0</ele><time>2026-05-01T11:18:08Z</time></trkpt><trkpt lat="47.80931974767888" lon="11.879192705587691"><ele>644.0</ele><time>2026-05-01T11:18:09Z</time></trkpt><trkpt lat="47.80946048298803" lon="11.87939008284048"><ele>644.0</ele><time>2026-05-01T11:18:10Z</time></trkpt><trkpt lat="47.80960392871438" lon="11.879548413433705"><ele>648.0</ele><time>2026-05-01T11:18:11Z</time></trkpt><trkpt lat="47.8097320885689" lon="11.879711477858693"><ele>652.0</ele><time>2026-05-01T11:18:12Z</time></trkpt><trkpt lat="47.80985217660845" lon="11.87989020002074"><ele>656.0</ele><time>2026-05-01T11:18:13Z</time></trkpt><trkpt lat="47.80995829758496" lon="11.880060988059178"><ele>652.6666666666666</ele><time>2026-05-01T11:18:14Z</time></trkpt><trkpt lat="47.810055112422525" lon="11.88024380060212"><ele>649.3333333333334</ele><time>2026-05-01T11:18:15Z</time></trkpt><trkpt lat="47.810142624232654" lon="11.880443181912526"><ele>646.0</ele><time>2026-05-01T11:18:16Z</time></trkpt><trkpt lat="47.81022278992054" lon="11.880650017705277"><ele>651.6666666666667</ele><time>2026-05-01T11:18:17Z</time></trkpt><trkpt lat="47.81029552790519" lon="11.880865057255523"><ele>657.3333333333334</ele><time>2026-05-01T11:18:18Z</time></trkpt><trkpt lat="47.810358342491" lon="11.88108631129491"><ele>663.0</ele><time>2026-05-01T11:18:19Z</time></trkpt><trkpt lat="47.81040913748303" lon="11.881315901659516"><ele>663.0</ele><time>2026-05-01T11:18:20Z</time></trkpt><trkpt lat="47.81044210915464" lon="11.881549230359617"><ele>663.0</ele><time>2026-05-01T11:18:21Z</time></trkpt><trkpt lat="47.810466806192125" lon="11.881783381400561"><ele>663.0</ele><time>2026-05-01T11:18:22Z</time></trkpt><trkpt lat="47.81047847321443" lon="11.882014658776017"><ele>663.3333333333334</ele><time>2026-05-01T11:18:23Z</time></trkpt><trkpt lat="47.81048331742509" lon="11.882250630653806"><ele>663.6666666666667</ele><time>2026-05-01T11:18:24Z</time></trkpt><trkpt lat="47.81047325019226" lon="11.88248570543969"><ele>664.0</ele><time>2026-05-01T11:18:25Z</time></trkpt><trkpt lat="47.81045184261813" lon="11.882723499731721"><ele>666.6666666666667</ele><time>2026-05-01T11:18:26Z</time></trkpt><trkpt lat="47.810424192561825" lon="11.882958792728786"><ele>669.3333333333334</ele><time>2026-05-01T11:18:27Z</time></trkpt><trkpt lat="47.810383811377896" lon="11.883185013831753"><ele>672.0</ele><time>2026-05-01T11:18:28Z</time></trkpt><trkpt lat="47.81033934286543" lon="11.883413786447429"><ele>674.0</ele><time>2026-05-01T11:18:29Z</time></trkpt><trkpt lat="47.81029333014806" lon="11.883640417537505"><ele>676.0</ele><time>2026-05-01T11:18:30Z</time></trkpt><trkpt lat="47.81024710570023" lon="11.88386666150522"><ele>678.0</ele><time>2026-05-01T11:18:31Z</time></trkpt><trkpt lat="47.81020263348975" lon="11.884094208069635"><ele>678.6666666666666</ele><time>2026-05-01T11:18:32Z</time></trkpt><trkpt lat="47.81016372865508" lon="11.884324225210083"><ele>679.3333333333333</ele><time>2026-05-01T11:18:33Z</time></trkpt><trkpt lat="47.810130237379134" lon="11.884554171389205"><ele>680.0</ele><time>2026-05-01T11:18:34Z</time></trkpt><trkpt lat="47.810107078912544" lon="11.884790203019659"><ele>680.0</ele><time>2026-05-01T11:18:35Z</time></trkpt><trkpt lat="47.810104787916615" lon="11.885035766619847"><ele>680.0</ele><time>2026-05-01T11:18:36Z</time></trkpt><trkpt lat="47.810120435191635" lon="11.885278179840011"><ele>680.0</ele><time>2026-05-01T11:18:37Z</time></trkpt><trkpt lat="47.81015150583418" lon="11.885510170962323"><ele>680.0</ele><time>2026-05-01T11:18:38Z</time></trkpt><trkpt lat="47.81020657996408" lon="11.885736506623967"><ele>680.0</ele><time>2026-05-01T11:18:39Z</time></trkpt><trkpt lat="47.81027629197892" lon="11.885946896642805"><ele>680.0</ele><time>2026-05-01T11:18:40Z</time></trkpt><trkpt lat="47.81035866848345" lon="11.886150546325036"><ele>679.6666666666666</ele><time>2026-05-01T11:18:41Z</time></trkpt><trkpt lat="47.81046115074577" lon="11.886335573837046"><ele>679.3333333333334</ele><time>2026-05-01T11:18:42Z</time></trkpt><trkpt lat="47.810578850012426" lon="11.88650001403173"><ele>679.0</ele><time>2026-05-01T11:18:43Z</time></trkpt><trkpt lat="47.81071555808742" lon="11.886615087850993"><ele>679.0</ele><time>2026-05-01T11:18:44Z</time></trkpt><trkpt lat="47.810849051421194" lon="11.88673211356366"><ele>679.0</ele><time>2026-05-01T11:18:45Z</time></trkpt><trkpt lat="47.8109926758594" lon="11.886824863263232"><ele>679.0</ele><time>2026-05-01T11:18:46Z</time></trkpt><trkpt lat="47.811141326017086" lon="11.88689224019633"><ele>679.6666666666667</ele><time>2026-05-01T11:18:47Z</time></trkpt><trkpt lat="47.81129389321348" lon="11.886939920048533"><ele>680.3333333333334</ele><time>2026-05-01T11:18:48Z</time></trkpt><trkpt lat="47.81144957081004" lon="11.886972100619815"><ele>681.0</ele><time>2026-05-01T11:18:49Z</time></trkpt><trkpt lat="47.81160648340512" lon="11.88698820239003"><ele>681.0</ele><time>2026-05-01T11:18:50Z</time></trkpt><trkpt lat="47.81176739222714" lon="11.886985264635966"><ele>681.0</ele><time>2026-05-01T11:18:51Z</time></trkpt><trkpt lat="47.811931122953446" lon="11.886969220002886"><ele>681.0</ele><time>2026-05-01T11:18:52Z</time></trkpt><trkpt lat="47.81209719053605" lon="11.886944283591996"><ele>682.0</ele><time>2026-05-01T11:18:53Z</time></trkpt><trkpt lat="47.81226339087884" lon="11.886912055136804"><ele>683.0</ele><time>2026-05-01T11:18:54Z</time></trkpt><trkpt lat="47.81242720494211" lon="11.886882576122993"><ele>684.0</ele><time>2026-05-01T11:18:55Z</time></trkpt><trkpt lat="47.812588855766855" lon="11.88686163361671"><ele>684.0</ele><time>2026-05-01T11:18:56Z</time></trkpt><trkpt lat="47.81275302375476" lon="11.88685773728377"><ele>684.0</ele><time>2026-05-01T11:18:57Z</time></trkpt><trkpt lat="47.8129225920308" lon="11.886870424418092"><ele>684.0</ele><time>2026-05-01T11:18:58Z</time></trkpt><trkpt lat="47.81309206528941" lon="11.88689433552891"><ele>684.0</ele><time>2026-05-01T11:18:59Z</time></trkpt><trkpt lat="47.813262149296065" lon="11.886928833881608"><ele>684.0</ele><time>2026-05-01T11:19:00Z</time></trkpt><trkpt lat="47.81343366163359" lon="11.886982095235993"><ele>684.0</ele><time>2026-05-01T11:19:01Z</time></trkpt><trkpt lat="47.81360419658563" lon="11.887058478120657"><ele>684.6666666666666</ele><time>2026-05-01T11:19:02Z</time></trkpt><trkpt lat="47.81377121669329" lon="11.887150147729256"><ele>685.3333333333333</ele><time>2026-05-01T11:19:03Z</time></trkpt><trkpt lat="47.81393661168066" lon="11.88725651121073"><ele>686.0</ele><time>2026-05-01T11:19:04Z</time></trkpt><trkpt lat="47.814098044860806" lon="11.88737483827324"><ele>686.0</ele><time>2026-05-01T11:19:05Z</time></trkpt><trkpt lat="47.81425564772967" lon="11.887504310120425"><ele>686.0</ele><time>2026-05-01T11:19:06Z</time></trkpt><trkpt lat="47.81441125662262" lon="11.887644683919186"><ele>686.0</ele><time>2026-05-01T11:19:07Z</time></trkpt><trkpt lat="47.81455568949087" lon="11.8878129627289"><ele>686.6666666666666</ele><time>2026-05-01T11:19:08Z</time></trkpt><trkpt lat="47.81470621533772" lon="11.887971475311813"><ele>687.3333333333334</ele><time>2026-05-01T11:19:09Z</time></trkpt><trkpt lat="47.81485611485469" lon="11.888131966107695"><ele>688.0</ele><time>2026-05-01T11:19:10Z</time></trkpt><trkpt lat="47.81499691151148" lon="11.888286127412035"><ele>687.3333333333334</ele><time>2026-05-01T11:19:11Z</time></trkpt><trkpt lat="47.815134673145835" lon="11.888433045906554"><ele>686.6666666666666</ele><time>2026-05-01T11:19:12Z</time></trkpt><trkpt lat="47.81528661464038" lon="11.888553906086722"><ele>686.0</ele><time>2026-05-01T11:19:13Z</time></trkpt><trkpt lat="47.81543181388967" lon="11.888691424678061"><ele>687.3333333333333</ele><time>2026-05-01T11:19:14Z</time></trkpt><trkpt lat="47.81558341367782" lon="11.888813808912513"><ele>688.6666666666666</ele><time>2026-05-01T11:19:15Z</time></trkpt><trkpt lat="47.81574066310323" lon="11.888923992688026"><ele>690.0</ele><time>2026-05-01T11:19:16Z</time></trkpt><trkpt lat="47.81590114657548" lon="11.889025920163176"><ele>689.3333333333334</ele><time>2026-05-01T11:19:17Z</time></trkpt><trkpt lat="47.81606322075334" lon="11.889116700749886"><ele>688.6666666666667</ele><time>2026-05-01T11:19:18Z</time></trkpt><trkpt lat="47.81622658035347" lon="11.889201627030339"><ele>688.0</ele><time>2026-05-01T11:19:19Z</time></trkpt><trkpt lat="47.81638956093215" lon="11.88928577877757"><ele>688.0</ele><time>2026-05-01T11:19:20Z</time></trkpt><trkpt lat="47.816554168935824" lon="11.889371548869649"><ele>688.0</ele><time>2026-05-01T11:19:21Z</time></trkpt><trkpt lat="47.816719566323286" lon="11.88945932529024"><ele>688.0</ele><time>2026-05-01T11:19:22Z</time></trkpt><trkpt lat="47.81688499566174" lon="11.88955177061799"><ele>688.0</ele><time>2026-05-01T11:19:23Z</time></trkpt><trkpt lat="47.81704885343928" lon="11.889650184500118"><ele>688.0</ele><time>2026-05-01T11:19:24Z</time></trkpt><trkpt lat="47.81721445838008" lon="11.889751588614892"><ele>688.0</ele><time>2026-05-01T11:19:25Z</time></trkpt><trkpt lat="47.81737895307471" lon="11.889852394677034"><ele>688.0</ele><time>2026-05-01T11:19:26Z</time></trkpt><trkpt lat="47.81754576700516" lon="11.889956535608611"><ele>688.0</ele><time>2026-05-01T11:19:27Z</time></trkpt><trkpt lat="47.81770935479151" lon="11.890062519370604"><ele>688.0</ele><time>2026-05-01T11:19:28Z</time></trkpt><trkpt lat="47.81787021431725" lon="11.890170871083267"><ele>686.6666666666667</ele><time>2026-05-01T11:19:29Z</time></trkpt><trkpt lat="47.81802771357488" lon="11.890283205611311"><ele>685.3333333333334</ele><time>2026-05-01T11:19:30Z</time></trkpt><trkpt lat="47.818187900362894" lon="11.890395054874736"><ele>684.0</ele><time>2026-05-01T11:19:31Z</time></trkpt><trkpt lat="47.818349462969934" lon="11.8905041290395"><ele>683.6666666666666</ele><time>2026-05-01T11:19:32Z</time></trkpt><trkpt lat="47.818511093066796" lon="11.890614457960055"><ele>683.3333333333333</ele><time>2026-05-01T11:19:33Z</time></trkpt><trkpt lat="47.81867443985344" lon="11.890723084196201"><ele>683.0</ele><time>2026-05-01T11:19:34Z</time></trkpt><trkpt lat="47.81883782238982" lon="11.890831521162703"><ele>682.6666666666666</ele><time>2026-05-01T11:19:35Z</time></trkpt><trkpt lat="47.818998649058734" lon="11.890945977337509"><ele>682.3333333333334</ele><time>2026-05-01T11:19:36Z</time></trkpt><trkpt lat="47.81914345933438" lon="11.891091429375901"><ele>682.0</ele><time>2026-05-01T11:19:37Z</time></trkpt><trkpt lat="47.81928956627256" lon="11.891233747970778"><ele>681.6666666666667</ele><time>2026-05-01T11:19:38Z</time></trkpt><trkpt lat="47.81943550886793" lon="11.89137844595127"><ele>681.3333333333334</ele><time>2026-05-01T11:19:39Z</time></trkpt><trkpt lat="47.819588743745086" lon="11.89150488462511"><ele>681.0</ele><time>2026-05-01T11:19:40Z</time></trkpt><trkpt lat="47.81973151214032" lon="11.891654218593228"><ele>681.6666666666666</ele><time>2026-05-01T11:19:41Z</time></trkpt><trkpt lat="47.81987827362123" lon="11.891796964988776"><ele>682.3333333333333</ele><time>2026-05-01T11:19:42Z</time></trkpt><trkpt lat="47.82002861753864" lon="11.891932498491775"><ele>683.0</ele><time>2026-05-01T11:19:43Z</time></trkpt><trkpt lat="47.820179982788794" lon="11.892065297715579"><ele>685.0</ele><time>2026-05-01T11:19:44Z</time></trkpt><trkpt lat="47.82033567079328" lon="11.892189179297848"><ele>687.0</ele><time>2026-05-01T11:19:45Z</time></trkpt><trkpt lat="47.82049338381672" lon="11.892302236437976"><ele>689.0</ele><time>2026-05-01T11:19:46Z</time></trkpt><trkpt lat="47.82065647135076" lon="11.892408358889258"><ele>689.0</ele><time>2026-05-01T11:19:47Z</time></trkpt><trkpt lat="47.8208217024289" lon="11.892514469875513"><ele>689.0</ele><time>2026-05-01T11:19:48Z</time></trkpt><trkpt lat="47.820988938777354" lon="11.89262408526353"><ele>689.0</ele><time>2026-05-01T11:19:49Z</time></trkpt><trkpt lat="47.82115360378542" lon="11.892742533337067"><ele>687.6666666666666</ele><time>2026-05-01T11:19:50Z</time></trkpt><trkpt lat="47.82131847779308" lon="11.892857655010575"><ele>686.3333333333334</ele><time>2026-05-01T11:19:51Z</time></trkpt><trkpt lat="47.82148693519442" lon="11.892969621403267"><ele>685.0</ele><time>2026-05-01T11:19:52Z</time></trkpt><trkpt lat="47.82165186914578" lon="11.89307594474744"><ele>682.3333333333334</ele><time>2026-05-01T11:19:53Z</time></trkpt><trkpt lat="47.82181596960472" lon="11.893192594974568"><ele>679.6666666666666</ele><time>2026-05-01T11:19:54Z</time></trkpt><trkpt lat="47.821986055685066" lon="11.893304669648854"><ele>677.0</ele><time>2026-05-01T11:19:55Z</time></trkpt><trkpt lat="47.82216643036451" lon="11.89341787706367"><ele>676.6666666666666</ele><time>2026-05-01T11:19:56Z</time></trkpt><trkpt lat="47.82234837050029" lon="11.893535536271875"><ele>676.3333333333334</ele><time>2026-05-01T11:19:57Z</time></trkpt><trkpt lat="47.82253649734289" lon="11.893656913795812"><ele>676.0</ele><time>2026-05-01T11:19:58Z</time></trkpt><trkpt lat="47.82272589327111" lon="11.89378452806293"><ele>676.0</ele><time>2026-05-01T11:19:59Z</time></trkpt><trkpt lat="47.82290909664747" lon="11.893910673072194"><ele>676.0</ele><time>2026-05-01T11:20:00Z</time></trkpt><trkpt lat="47.82309389354311" lon="11.89405199933801"><ele>676.0</ele><time>2026-05-01T11:20:01Z</time></trkpt><trkpt lat="47.823276528769284" lon="11.894195740583728"><ele>677.0</ele><time>2026-05-01T11:20:02Z</time></trkpt><trkpt lat="47.823458437273565" lon="11.89434421824561"><ele>678.0</ele><time>2026-05-01T11:20:03Z</time></trkpt><trkpt lat="47.82363638281008" lon="11.89450277953149"><ele>679.0</ele><time>2026-05-01T11:20:04Z</time></trkpt><trkpt lat="47.823811680564404" lon="11.894663692576417"><ele>677.0</ele><time>2026-05-01T11:20:05Z</time></trkpt><trkpt lat="47.823982770985204" lon="11.894825910236918"><ele>675.0</ele><time>2026-05-01T11:20:06Z</time></trkpt><trkpt lat="47.8241522304289" lon="11.894985710762576"><ele>673.0</ele><time>2026-05-01T11:20:07Z</time></trkpt><trkpt lat="47.82431707031894" lon="11.895141688309097"><ele>671.6666666666667</ele><time>2026-05-01T11:20:08Z</time></trkpt><trkpt lat="47.824475976795696" lon="11.895293255288003"><ele>670.3333333333334</ele><time>2026-05-01T11:20:09Z</time></trkpt><trkpt lat="47.8246326915309" lon="11.89544497764435"><ele>669.0</ele><time>2026-05-01T11:20:10Z</time></trkpt><trkpt lat="47.824792920109495" lon="11.895598856907482"><ele>669.0</ele><time>2026-05-01T11:20:11Z</time></trkpt><trkpt lat="47.82495253292991" lon="11.895754292469398"><ele>669.0</ele><time>2026-05-01T11:20:12Z</time></trkpt><trkpt lat="47.82511172483779" lon="11.89590966852551"><ele>669.0</ele><time>2026-05-01T11:20:13Z</time></trkpt><trkpt lat="47.825267304165216" lon="11.896061238356621"><ele>669.6666666666666</ele><time>2026-05-01T11:20:14Z</time></trkpt><trkpt lat="47.8254205909003" lon="11.89620784424405"><ele>670.3333333333333</ele><time>2026-05-01T11:20:15Z</time></trkpt><trkpt lat="47.82557019804266" lon="11.896353548008667"><ele>671.0</ele><time>2026-05-01T11:20:16Z</time></trkpt><trkpt lat="47.82571513521188" lon="11.896496976878952"><ele>671.0</ele><time>2026-05-01T11:20:17Z</time></trkpt><trkpt lat="47.82584857089809" lon="11.89662942337358"><ele>671.0</ele><time>2026-05-01T11:20:18Z</time></trkpt><trkpt lat="47.8259758804337" lon="11.896756228371537"><ele>671.0</ele><time>2026-05-01T11:20:19Z</time></trkpt><trkpt lat="47.82609710334594" lon="11.89687935077499"><ele>671.75</ele><time>2026-05-01T11:20:20Z</time></trkpt><trkpt lat="47.82621173058524" lon="11.896995480063238"><ele>672.5</ele><time>2026-05-01T11:20:21Z</time></trkpt><trkpt lat="47.82632439668575" lon="11.897109955390068"><ele>673.25</ele><time>2026-05-01T11:20:22Z</time></trkpt><trkpt lat="47.8264334405561" lon="11.897226343828514"><ele>674.0</ele><time>2026-05-01T11:20:23Z</time></trkpt><trkpt lat="47.82654051910546" lon="11.897339392683454"><ele>674.0</ele><time>2026-05-01T11:20:24Z</time></trkpt><trkpt lat="47.82664577466294" lon="11.897450238282746"><ele>674.0</ele><time>2026-05-01T11:20:25Z</time></trkpt><trkpt lat="47.826751619650864" lon="11.89755902424845"><ele>674.0</ele><time>2026-05-01T11:20:26Z</time></trkpt><trkpt lat="47.82685719711987" lon="11.897665779641386"><ele>674.0</ele><time>2026-05-01T11:20:27Z</time></trkpt><trkpt lat="47.82696383090604" lon="11.897769688108205"><ele>675.25</ele><time>2026-05-01T11:20:28Z</time></trkpt><trkpt lat="47.827072264259684" lon="11.897872563262025"><ele>676.5</ele><time>2026-05-01T11:20:29Z</time></trkpt><trkpt lat="47.82718362552409" lon="11.897976628615382"><ele>677.75</ele><time>2026-05-01T11:20:30Z</time></trkpt><trkpt lat="47.8272970882058" lon="11.898082757238264"><ele>679.0</ele><time>2026-05-01T11:20:31Z</time></trkpt><trkpt lat="47.82741308368623" lon="11.898193357527319"><ele>679.0</ele><time>2026-05-01T11:20:32Z</time></trkpt><trkpt lat="47.827529694931684" lon="11.898308300502407"><ele>679.0</ele><time>2026-05-01T11:20:33Z</time></trkpt><trkpt lat="47.82764719322563" lon="11.898425805589664"><ele>679.0</ele><time>2026-05-01T11:20:34Z</time></trkpt><trkpt lat="47.82776259872005" lon="11.89855010952368"><ele>679.0</ele><time>2026-05-01T11:20:35Z</time></trkpt><trkpt lat="47.82786353259607" lon="11.898706165227487"><ele>681.0</ele><time>2026-05-01T11:20:36Z</time></trkpt><trkpt lat="47.8279690412116" lon="11.898856047787115"><ele>683.0</ele><time>2026-05-01T11:20:37Z</time></trkpt><trkpt lat="47.82808530449585" lon="11.899003496227706"><ele>685.0</ele><time>2026-05-01T11:20:38Z</time></trkpt><trkpt lat="47.82818873248687" lon="11.899182488568568"><ele>687.0</ele><time>2026-05-01T11:20:39Z</time></trkpt><trkpt lat="47.82829245381868" lon="11.89937357572774"><ele>689.0</ele><time>2026-05-01T11:20:40Z</time></trkpt><trkpt lat="47.82839097496508" lon="11.899574351216966"><ele>691.0</ele><time>2026-05-01T11:20:41Z</time></trkpt><trkpt lat="47.82848087182018" lon="11.899781349346696"><ele>691.6666666666667</ele><time>2026-05-01T11:20:42Z</time></trkpt><trkpt lat="47.828561169298794" lon="11.899993284187417"><ele>692.3333333333334</ele><time>2026-05-01T11:20:43Z</time></trkpt><trkpt lat="47.828634836839825" lon="11.90020855251155"><ele>693.0</ele><time>2026-05-01T11:20:44Z</time></trkpt><trkpt lat="47.8286982083057" lon="11.900427188278924"><ele>693.5</ele><time>2026-05-01T11:20:45Z</time></trkpt><trkpt lat="47.82875205055817" lon="11.90063850981376"><ele>694.0</ele><time>2026-05-01T11:20:46Z</time></trkpt><trkpt lat="47.82879514692301" lon="11.900840604774785"><ele>694.5</ele><time>2026-05-01T11:20:47Z</time></trkpt><trkpt lat="47.82883069560665" lon="11.901039472278255"><ele>695.0</ele><time>2026-05-01T11:20:48Z</time></trkpt><trkpt lat="47.82886111840178" lon="11.901237182282411"><ele>695.75</ele><time>2026-05-01T11:20:49Z</time></trkpt><trkpt lat="47.82888476197806" lon="11.901432913691186"><ele>696.5</ele><time>2026-05-01T11:20:50Z</time></trkpt><trkpt lat="47.82890446616527" lon="11.901621442648144"><ele>697.25</ele><time>2026-05-01T11:20:51Z</time></trkpt><trkpt lat="47.828922080064316" lon="11.901792520349114"><ele>698.0</ele><time>2026-05-01T11:20:52Z</time></trkpt><trkpt lat="47.828937675240454" lon="11.901958526052564"><ele>699.0</ele><time>2026-05-01T11:20:53Z</time></trkpt><trkpt lat="47.82895451447561" lon="11.902118979244648"><ele>700.0</ele><time>2026-05-01T11:20:54Z</time></trkpt><trkpt lat="47.8289738209208" lon="11.902277316041719"><ele>701.0</ele><time>2026-05-01T11:20:55Z</time></trkpt><trkpt lat="47.8289946475741" lon="11.902429410862467"><ele>702.0</ele><time>2026-05-01T11:20:56Z</time></trkpt><trkpt lat="47.829018170894095" lon="11.902576348331918"><ele>703.0</ele><time>2026-05-01T11:20:57Z</time></trkpt><trkpt lat="47.82904060483313" lon="11.902713279332744"><ele>703.1428571428571</ele><time>2026-05-01T11:20:58Z</time></trkpt><trkpt lat="47.82906281116778" lon="11.90283632146323"><ele>703.2857142857143</ele><time>2026-05-01T11:20:59Z</time></trkpt><trkpt lat="47.82907131437634" lon="11.902943519501152"><ele>703.4285714285714</ele><time>2026-05-01T11:21:00Z</time></trkpt><trkpt lat="47.829075129350635" lon="11.903038064400784"><ele>703.5714285714286</ele><time>2026-05-01T11:21:01Z</time></trkpt><trkpt lat="47.829067543102205" lon="11.903133096898252"><ele>703.7142857142857</ele><time>2026-05-01T11:21:02Z</time></trkpt><trkpt lat="47.829043456057846" lon="11.903220562165417"><ele>703.8571428571429</ele><time>2026-05-01T11:21:03Z</time></trkpt><trkpt lat="47.8290024283567" lon="11.903306455249083"><ele>704.0</ele><time>2026-05-01T11:21:04Z</time></trkpt><trkpt lat="47.82896181436853" lon="11.903395341092763"><ele>704.1666666666666</ele><time>2026-05-01T11:21:05Z</time></trkpt><trkpt lat="47.82890063945333" lon="11.903477875045025"><ele>704.3333333333333</ele><time>2026-05-01T11:21:06Z</time></trkpt><trkpt lat="47.82888032730492" lon="11.903593132183744"><ele>704.5</ele><time>2026-05-01T11:21:07Z</time></trkpt><trkpt lat="47.82887420466618" lon="11.903717740245195"><ele>704.6666666666666</ele><time>2026-05-01T11:21:08Z</time></trkpt><trkpt lat="47.828929358717694" lon="11.903829896831274"><ele>704.8333333333334</ele><time>2026-05-01T11:21:09Z</time></trkpt><trkpt lat="47.82897507931079" lon="11.903905192115934"><ele>705.0</ele><time>2026-05-01T11:21:10Z</time></trkpt><trkpt lat="47.82904034043666" lon="11.90397707042232"><ele>705.0</ele><time>2026-05-01T11:21:11Z</time></trkpt><trkpt lat="47.829118526719085" lon="11.90403023763094"><ele>705.0</ele><time>2026-05-01T11:21:12Z</time></trkpt><trkpt lat="47.82919336016457" lon="11.904084762572433"><ele>705.0</ele><time>2026-05-01T11:21:13Z</time></trkpt><trkpt lat="47.82928055921918" lon="11.904141526011708"><ele>705.0</ele><time>2026-05-01T11:21:14Z</time></trkpt><trkpt lat="47.829370008648624" lon="11.904212644607108"><ele>705.0</ele><time>2026-05-01T11:21:15Z</time></trkpt><trkpt lat="47.82945516258422" lon="11.904303164820917"><ele>705.8</ele><time>2026-05-01T11:21:16Z</time></trkpt><trkpt lat="47.829534632708025" lon="11.904413864549444"><ele>706.6</ele><time>2026-05-01T11:21:17Z</time></trkpt><trkpt lat="47.82960279461031" lon="11.904544510889021"><ele>707.4000000000001</ele><time>2026-05-01T11:21:18Z</time></trkpt><trkpt lat="47.8296579541854" lon="11.90468955103816"><ele>708.2</ele><time>2026-05-01T11:21:19Z</time></trkpt><trkpt lat="47.82969605180737" lon="11.90485075203583"><ele>709.0</ele><time>2026-05-01T11:21:20Z</time></trkpt><trkpt lat="47.82972228240997" lon="11.905016121997496"><ele>709.5</ele><time>2026-05-01T11:21:21Z</time></trkpt><trkpt lat="47.82974066278286" lon="11.9051822066793"><ele>710.0</ele><time>2026-05-01T11:21:22Z</time></trkpt><trkpt lat="47.82975786062962" lon="11.90535180008271"><ele>710.5</ele><time>2026-05-01T11:21:23Z</time></trkpt><trkpt lat="47.82977811987494" lon="11.905524747914455"><ele>711.0</ele><time>2026-05-01T11:21:24Z</time></trkpt><trkpt lat="47.82979653266473" lon="11.905701880799302"><ele>711.0</ele><time>2026-05-01T11:21:25Z</time></trkpt><trkpt lat="47.82982153381839" lon="11.905880234805812"><ele>711.0</ele><time>2026-05-01T11:21:26Z</time></trkpt><trkpt lat="47.82984271587931" lon="11.906056183158208"><ele>711.0</ele><time>2026-05-01T11:21:27Z</time></trkpt><trkpt lat="47.829849661828064" lon="11.906231833692745"><ele>711.0</ele><time>2026-05-01T11:21:28Z</time></trkpt><trkpt lat="47.82986859393577" lon="11.90639369525313"><ele>711.0</ele><time>2026-05-01T11:21:29Z</time></trkpt><trkpt lat="47.82989101370368" lon="11.906556613430029"><ele>711.0</ele><time>2026-05-01T11:21:30Z</time></trkpt><trkpt lat="47.829924737658104" lon="11.906701674283351"><ele>711.0</ele><time>2026-05-01T11:21:31Z</time></trkpt><trkpt lat="47.829995071479935" lon="11.906807902475204"><ele>711.0</ele><time>2026-05-01T11:21:32Z</time></trkpt><trkpt lat="47.83005601213452" lon="11.906919688724123"><ele>711.0</ele><time>2026-05-01T11:21:33Z</time></trkpt><trkpt lat="47.83012712568828" lon="11.907023617436534"><ele>712.1999999999999</ele><time>2026-05-01T11:21:34Z</time></trkpt><trkpt lat="47.83020115218585" lon="11.907129632702649"><ele>713.4</ele><time>2026-05-01T11:21:35Z</time></trkpt><trkpt lat="47.830273944606546" lon="11.907244604931392"><ele>714.6</ele><time>2026-05-01T11:21:36Z</time></trkpt><trkpt lat="47.83031939981176" lon="11.907381054750719"><ele>715.8</ele><time>2026-05-01T11:21:37Z</time></trkpt><trkpt lat="47.83036467931785" lon="11.907498616148299"><ele>717.0</ele><time>2026-05-01T11:21:38Z</time></trkpt><trkpt lat="47.830407624886796" lon="11.907608874870718"><ele>717.0</ele><time>2026-05-01T11:21:39Z</time></trkpt><trkpt lat="47.83042713118818" lon="11.907748429964277"><ele>717.0</ele><time>2026-05-01T11:21:40Z</time></trkpt><trkpt lat="47.8304348482775" lon="11.907902695631922"><ele>717.0</ele><time>2026-05-01T11:21:41Z</time></trkpt><trkpt lat="47.830437595965414" lon="11.908072871836065"><ele>717.0</ele><time>2026-05-01T11:21:42Z</time></trkpt><trkpt lat="47.830431670819145" lon="11.90826745022639"><ele>717.0</ele><time>2026-05-01T11:21:43Z</time></trkpt><trkpt lat="47.830421680930435" lon="11.908493396780733"><ele>717.3333333333334</ele><time>2026-05-01T11:21:44Z</time></trkpt><trkpt lat="47.8304149475587" lon="11.908729791741354"><ele>717.6666666666667</ele><time>2026-05-01T11:21:45Z</time></trkpt><trkpt lat="47.830404087712544" lon="11.90897518350499"><ele>718.0</ele><time>2026-05-01T11:21:46Z</time></trkpt><trkpt lat="47.83038311362327" lon="11.909215170115239"><ele>718.0</ele><time>2026-05-01T11:21:47Z</time></trkpt><trkpt lat="47.830362823748814" lon="11.909482250178094"><ele>718.0</ele><time>2026-05-01T11:21:48Z</time></trkpt><trkpt lat="47.830323346929426" lon="11.909756096685431"><ele>718.0</ele><time>2026-05-01T11:21:49Z</time></trkpt><trkpt lat="47.83028676983828" lon="11.91003958512796"><ele>718.3333333333334</ele><time>2026-05-01T11:21:50Z</time></trkpt><trkpt lat="47.83023637237477" lon="11.910331281854996"><ele>718.6666666666666</ele><time>2026-05-01T11:21:51Z</time></trkpt><trkpt lat="47.83017533785008" lon="11.910624345520858"><ele>719.0</ele><time>2026-05-01T11:21:52Z</time></trkpt><trkpt lat="47.83011412932259" lon="11.910915209578874"><ele>718.0</ele><time>2026-05-01T11:21:53Z</time></trkpt><trkpt lat="47.83004676768534" lon="11.911221799636072"><ele>717.0</ele><time>2026-05-01T11:21:54Z</time></trkpt><trkpt lat="47.82996150759634" lon="11.911546039742147"><ele>719.0</ele><time>2026-05-01T11:21:55Z</time></trkpt><trkpt lat="47.82988201097276" lon="11.91187437407278"><ele>721.0</ele><time>2026-05-01T11:21:56Z</time></trkpt><trkpt lat="47.82977430566607" lon="11.912202097691244"><ele>721.0</ele><time>2026-05-01T11:21:57Z</time></trkpt><trkpt lat="47.82965480230146" lon="11.912536905615754"><ele>721.0</ele><time>2026-05-01T11:21:58Z</time></trkpt><trkpt lat="47.82951903813132" lon="11.912863483884879"><ele>722.0</ele><time>2026-05-01T11:21:59Z</time></trkpt><trkpt lat="47.82939645285776" lon="11.913185404124464"><ele>723.0</ele><time>2026-05-01T11:22:00Z</time></trkpt><trkpt lat="47.82925308309752" lon="11.913482391053785"><ele>718.0</ele><time>2026-05-01T11:22:01Z</time></trkpt><trkpt lat="47.82910202139438" lon="11.913775092074191"><ele>713.0</ele><time>2026-05-01T11:22:02Z</time></trkpt><trkpt lat="47.82894735935127" lon="11.91405713974195"><ele>714.0</ele><time>2026-05-01T11:22:03Z</time></trkpt><trkpt lat="47.82879114579248" lon="11.91435014322113"><ele>715.0</ele><time>2026-05-01T11:22:04Z</time></trkpt><trkpt lat="47.82863645407862" lon="11.91463317357581"><ele>715.0</ele><time>2026-05-01T11:22:05Z</time></trkpt><trkpt lat="47.82848103549335" lon="11.914923022475708"><ele>715.0</ele><time>2026-05-01T11:22:06Z</time></trkpt><trkpt lat="47.828323654940476" lon="11.915210585870827"><ele>711.5</ele><time>2026-05-01T11:22:07Z</time></trkpt><trkpt lat="47.82816550870131" lon="11.915502979768839"><ele>708.0</ele><time>2026-05-01T11:22:08Z</time></trkpt><trkpt lat="47.82801399409336" lon="11.91579054892512"><ele>711.0</ele><time>2026-05-01T11:22:09Z</time></trkpt><trkpt lat="47.82786388804865" lon="11.916072501261228"><ele>714.0</ele><time>2026-05-01T11:22:10Z</time></trkpt><trkpt lat="47.82771289415342" lon="11.916364149840595"><ele>710.0</ele><time>2026-05-01T11:22:11Z</time></trkpt><trkpt lat="47.82756717443381" lon="11.916648170448706"><ele>706.0</ele><time>2026-05-01T11:22:12Z</time></trkpt><trkpt lat="47.82741299878941" lon="11.916942937475387"><ele>706.0</ele><time>2026-05-01T11:22:13Z</time></trkpt><trkpt lat="47.827263616662336" lon="11.917232878220235"><ele>706.0</ele><time>2026-05-01T11:22:14Z</time></trkpt><trkpt lat="47.827110894954956" lon="11.917519551007235"><ele>708.0</ele><time>2026-05-01T11:22:15Z</time></trkpt><trkpt lat="47.82696141606542" lon="11.917808746837666"><ele>710.0</ele><time>2026-05-01T11:22:16Z</time></trkpt><trkpt lat="47.82681020446883" lon="11.918092115205415"><ele>704.0</ele><time>2026-05-01T11:22:17Z</time></trkpt><trkpt lat="47.82666251868578" lon="11.918370220898234"><ele>698.0</ele><time>2026-05-01T11:22:18Z</time></trkpt><trkpt lat="47.82651371115443" lon="11.918648075596897"><ele>698.0</ele><time>2026-05-01T11:22:19Z</time></trkpt><trkpt lat="47.826364546532574" lon="11.918930636294904"><ele>698.0</ele><time>2026-05-01T11:22:20Z</time></trkpt><trkpt lat="47.82621709235937" lon="11.91921367950176"><ele>699.0</ele><time>2026-05-01T11:22:21Z</time></trkpt><trkpt lat="47.82606914891016" lon="11.919489766235722"><ele>700.0</ele><time>2026-05-01T11:22:22Z</time></trkpt><trkpt lat="47.825922308415194" lon="11.9197654860081"><ele>698.0</ele><time>2026-05-01T11:22:23Z</time></trkpt><trkpt lat="47.825776299398754" lon="11.920043077512185"><ele>696.0</ele><time>2026-05-01T11:22:24Z</time></trkpt><trkpt lat="47.82562958882727" lon="11.920321599069092"><ele>696.0</ele><time>2026-05-01T11:22:25Z</time></trkpt><trkpt lat="47.82548204867387" lon="11.920598018604897"><ele>696.0</ele><time>2026-05-01T11:22:26Z</time></trkpt><trkpt lat="47.82533357004173" lon="11.9208742870667"><ele>697.0</ele><time>2026-05-01T11:22:27Z</time></trkpt><trkpt lat="47.8251843426352" lon="11.921150784341782"><ele>698.0</ele><time>2026-05-01T11:22:28Z</time></trkpt><trkpt lat="47.82503460390985" lon="11.921428470900805"><ele>694.5</ele><time>2026-05-01T11:22:29Z</time></trkpt><trkpt lat="47.824884690477354" lon="11.921705653645526"><ele>691.0</ele><time>2026-05-01T11:22:30Z</time></trkpt><trkpt lat="47.82474007858162" lon="11.921980987097179"><ele>690.0</ele><time>2026-05-01T11:22:31Z</time></trkpt><trkpt lat="47.82459655633476" lon="11.922255776704263"><ele>689.0</ele><time>2026-05-01T11:22:32Z</time></trkpt><trkpt lat="47.824449617143095" lon="11.922531147276578"><ele>684.5</ele><time>2026-05-01T11:22:33Z</time></trkpt><trkpt lat="47.82430195012841" lon="11.922804872230802"><ele>680.0</ele><time>2026-05-01T11:22:34Z</time></trkpt><trkpt lat="47.82415596926368" lon="11.923076339220838"><ele>680.0</ele><time>2026-05-01T11:22:35Z</time></trkpt><trkpt lat="47.824007875211606" lon="11.923351170691747"><ele>680.0</ele><time>2026-05-01T11:22:36Z</time></trkpt><trkpt lat="47.823863884875905" lon="11.9236266511581"><ele>681.5</ele><time>2026-05-01T11:22:37Z</time></trkpt><trkpt lat="47.823716428815075" lon="11.923900755653968"><ele>683.0</ele><time>2026-05-01T11:22:38Z</time></trkpt><trkpt lat="47.82357095956566" lon="11.924174963707296"><ele>677.0</ele><time>2026-05-01T11:22:39Z</time></trkpt><trkpt lat="47.823429567075706" lon="11.924454419895069"><ele>671.0</ele><time>2026-05-01T11:22:40Z</time></trkpt><trkpt lat="47.82328427502828" lon="11.924739086519413"><ele>671.0</ele><time>2026-05-01T11:22:41Z</time></trkpt><trkpt lat="47.823146330143274" lon="11.925027408065445"><ele>671.0</ele><time>2026-05-01T11:22:42Z</time></trkpt><trkpt lat="47.82301709715922" lon="11.925324223246266"><ele>671.0</ele><time>2026-05-01T11:22:43Z</time></trkpt><trkpt lat="47.82289487310959" lon="11.925628690847834"><ele>671.0</ele><time>2026-05-01T11:22:44Z</time></trkpt><trkpt lat="47.82278329989318" lon="11.925936072487376"><ele>672.0</ele><time>2026-05-01T11:22:45Z</time></trkpt><trkpt lat="47.82267771668418" lon="11.926251929047002"><ele>673.0</ele><time>2026-05-01T11:22:46Z</time></trkpt><trkpt lat="47.822582337753865" lon="11.926579918614035"><ele>665.5</ele><time>2026-05-01T11:22:47Z</time></trkpt><trkpt lat="47.82248709762141" lon="11.92691758404102"><ele>658.0</ele><time>2026-05-01T11:22:48Z</time></trkpt><trkpt lat="47.8223988801922" lon="11.92725783296421"><ele>656.5</ele><time>2026-05-01T11:22:49Z</time></trkpt><trkpt lat="47.82231784001984" lon="11.927603131828489"><ele>655.0</ele><time>2026-05-01T11:22:50Z</time></trkpt><trkpt lat="47.82224323686421" lon="11.927953600656853"><ele>655.0</ele><time>2026-05-01T11:22:51Z</time></trkpt><trkpt lat="47.82217854935362" lon="11.928306419262476"><ele>655.0</ele><time>2026-05-01T11:22:52Z</time></trkpt><trkpt lat="47.82212561558647" lon="11.928658987029666"><ele>654.0</ele><time>2026-05-01T11:22:53Z</time></trkpt><trkpt lat="47.82208229541706" lon="11.929008949195268"><ele>653.0</ele><time>2026-05-01T11:22:54Z</time></trkpt><trkpt lat="47.82203537790042" lon="11.929358461354852"><ele>651.5</ele><time>2026-05-01T11:22:55Z</time></trkpt><trkpt lat="47.82198999004059" lon="11.929709104493986"><ele>650.0</ele><time>2026-05-01T11:22:56Z</time></trkpt><trkpt lat="47.821969016179274" lon="11.930065830355185"><ele>649.0</ele><time>2026-05-01T11:22:57Z</time></trkpt><trkpt lat="47.82196418710515" lon="11.93042257198527"><ele>648.0</ele><time>2026-05-01T11:22:58Z</time></trkpt><trkpt lat="47.82195641307986" lon="11.93077960610273"><ele>645.0</ele><time>2026-05-01T11:22:59Z</time></trkpt><trkpt lat="47.82195628817109" lon="11.931135766163862"><ele>642.0</ele><time>2026-05-01T11:23:00Z</time></trkpt><trkpt lat="47.82196812146873" lon="11.931492366436562"><ele>640.0</ele><time>2026-05-01T11:23:01Z</time></trkpt><trkpt lat="47.821988721444384" lon="11.93185145784706"><ele>638.0</ele><time>2026-05-01T11:23:02Z</time></trkpt><trkpt lat="47.822013647845765" lon="11.932208190295151"><ele>636.5</ele><time>2026-05-01T11:23:03Z</time></trkpt><trkpt lat="47.82204492288142" lon="11.93256100836709"><ele>635.0</ele><time>2026-05-01T11:23:04Z</time></trkpt><trkpt lat="47.82208742757428" lon="11.932912467448576"><ele>635.0</ele><time>2026-05-01T11:23:05Z</time></trkpt><trkpt lat="47.822138275315126" lon="11.93326099912057"><ele>635.0</ele><time>2026-05-01T11:23:06Z</time></trkpt><trkpt lat="47.82219596707037" lon="11.93360860357346"><ele>633.5</ele><time>2026-05-01T11:23:07Z</time></trkpt><trkpt lat="47.82226183126279" lon="11.933953405040556"><ele>632.0</ele><time>2026-05-01T11:23:08Z</time></trkpt><trkpt lat="47.82233715731601" lon="11.93429482535864"><ele>628.5</ele><time>2026-05-01T11:23:09Z</time></trkpt><trkpt lat="47.82241943141516" lon="11.934631240117447"><ele>625.0</ele><time>2026-05-01T11:23:10Z</time></trkpt><trkpt lat="47.82251111447427" lon="11.93496511802866"><ele>624.0</ele><time>2026-05-01T11:23:11Z</time></trkpt><trkpt lat="47.82261081911691" lon="11.935299182856554"><ele>623.0</ele><time>2026-05-01T11:23:12Z</time></trkpt><trkpt lat="47.82271573160025" lon="11.935627445170146"><ele>617.5</ele><time>2026-05-01T11:23:13Z</time></trkpt><trkpt lat="47.822828728123504" lon="11.935951438444361"><ele>612.0</ele><time>2026-05-01T11:23:14Z</time></trkpt><trkpt lat="47.82294995278765" lon="11.93626921643312"><ele>612.0</ele><time>2026-05-01T11:23:15Z</time></trkpt><trkpt lat="47.823077113988255" lon="11.93658108786258"><ele>612.0</ele><time>2026-05-01T11:23:16Z</time></trkpt><trkpt lat="47.823210771415724" lon="11.936887527257705"><ele>610.5</ele><time>2026-05-01T11:23:17Z</time></trkpt><trkpt lat="47.823355851082106" lon="11.937187259842787"><ele>609.0</ele><time>2026-05-01T11:23:18Z</time></trkpt><trkpt lat="47.823503160773825" lon="11.93747969432887"><ele>604.0</ele><time>2026-05-01T11:23:19Z</time></trkpt><trkpt lat="47.82365741180502" lon="11.937765326826586"><ele>599.0</ele><time>2026-05-01T11:23:20Z</time></trkpt><trkpt lat="47.8238204981732" lon="11.93804357359913"><ele>599.0</ele><time>2026-05-01T11:23:21Z</time></trkpt><trkpt lat="47.82398895523514" lon="11.938315706863815"><ele>599.0</ele><time>2026-05-01T11:23:22Z</time></trkpt><trkpt lat="47.82415914667175" lon="11.938586020787474"><ele>605.0</ele><time>2026-05-01T11:23:23Z</time></trkpt><trkpt lat="47.824323196419975" lon="11.938850890102055"><ele>611.0</ele><time>2026-05-01T11:23:24Z</time></trkpt><trkpt lat="47.82448263656436" lon="11.939108690703582"><ele>601.5</ele><time>2026-05-01T11:23:25Z</time></trkpt><trkpt lat="47.82464286495024" lon="11.939373064989649"><ele>592.0</ele><time>2026-05-01T11:23:26Z</time></trkpt><trkpt lat="47.82480709488127" lon="11.939641724648279"><ele>592.0</ele><time>2026-05-01T11:23:27Z</time></trkpt><trkpt lat="47.82497229618373" lon="11.939915102211993"><ele>592.0</ele><time>2026-05-01T11:23:28Z</time></trkpt><trkpt lat="47.825136323752425" lon="11.940183692575262"><ele>587.0</ele><time>2026-05-01T11:23:29Z</time></trkpt><trkpt lat="47.82530590761071" lon="11.940452386950758"><ele>582.0</ele><time>2026-05-01T11:23:30Z</time></trkpt><trkpt lat="47.825468890180986" lon="11.94072287576538"><ele>581.0</ele><time>2026-05-01T11:23:31Z</time></trkpt><trkpt lat="47.825627843559744" lon="11.940997161181587"><ele>580.0</ele><time>2026-05-01T11:23:32Z</time></trkpt><trkpt lat="47.82577987627035" lon="11.941279268934501"><ele>580.0</ele><time>2026-05-01T11:23:33Z</time></trkpt><trkpt lat="47.825923766762955" lon="11.941575708891104"><ele>580.0</ele><time>2026-05-01T11:23:34Z</time></trkpt><trkpt lat="47.82606019738422" lon="11.941878973747658"><ele>576.5</ele><time>2026-05-01T11:23:35Z</time></trkpt><trkpt lat="47.826191402028435" lon="11.942186772005533"><ele>573.0</ele><time>2026-05-01T11:23:36Z</time></trkpt><trkpt lat="47.82631603763869" lon="11.942498117849318"><ele>572.5</ele><time>2026-05-01T11:23:37Z</time></trkpt><trkpt lat="47.82642902866686" lon="11.942821602749294"><ele>572.0</ele><time>2026-05-01T11:23:38Z</time></trkpt><trkpt lat="47.82653635756444" lon="11.943148494687067"><ele>570.5</ele><time>2026-05-01T11:23:39Z</time></trkpt><trkpt lat="47.8266391086538" lon="11.943478117400426"><ele>569.0</ele><time>2026-05-01T11:23:40Z</time></trkpt><trkpt lat="47.82673151611715" lon="11.943809259153284"><ele>569.0</ele><time>2026-05-01T11:23:41Z</time></trkpt><trkpt lat="47.82681886306417" lon="11.944146578348652"><ele>569.0</ele><time>2026-05-01T11:23:42Z</time></trkpt><trkpt lat="47.8268942131973" lon="11.944489547209429"><ele>569.5</ele><time>2026-05-01T11:23:43Z</time></trkpt><trkpt lat="47.82696426580436" lon="11.944835356453247"><ele>570.0</ele><time>2026-05-01T11:23:44Z</time></trkpt><trkpt lat="47.827026487247004" lon="11.945183581842644"><ele>570.0</ele><time>2026-05-01T11:23:45Z</time></trkpt><trkpt lat="47.8270803140824" lon="11.945533338692"><ele>570.0</ele><time>2026-05-01T11:23:46Z</time></trkpt><trkpt lat="47.82712720824984" lon="11.945886610747465"><ele>570.0</ele><time>2026-05-01T11:23:47Z</time></trkpt><trkpt lat="47.82716530836724" lon="11.946246337334658"><ele>570.0</ele><time>2026-05-01T11:23:48Z</time></trkpt><trkpt lat="47.827194352360834" lon="11.94661090049"><ele>567.5</ele><time>2026-05-01T11:23:49Z</time></trkpt><trkpt lat="47.827215197751386" lon="11.946977965352023"><ele>565.0</ele><time>2026-05-01T11:23:50Z</time></trkpt><trkpt lat="47.82722850687116" lon="11.94735365919696"><ele>562.0</ele><time>2026-05-01T11:23:51Z</time></trkpt><trkpt lat="47.827231588526445" lon="11.947725139197678"><ele>559.0</ele><time>2026-05-01T11:23:52Z</time></trkpt><trkpt lat="47.82722825751849" lon="11.948087127299313"><ele>557.0</ele><time>2026-05-01T11:23:53Z</time></trkpt><trkpt lat="47.82721717478299" lon="11.948436939846934"><ele>555.0</ele><time>2026-05-01T11:23:54Z</time></trkpt><trkpt lat="47.82719631146087" lon="11.948790975334093"><ele>555.0</ele><time>2026-05-01T11:23:55Z</time></trkpt><trkpt lat="47.82716484063661" lon="11.949153300034421"><ele>555.0</ele><time>2026-05-01T11:23:56Z</time></trkpt><trkpt lat="47.82712295989325" lon="11.949520648233213"><ele>555.5</ele><time>2026-05-01T11:23:57Z</time></trkpt><trkpt lat="47.82707448042803" lon="11.949894180213034"><ele>556.0</ele><time>2026-05-01T11:23:58Z</time></trkpt><trkpt lat="47.827023765088576" lon="11.950271858889746"><ele>556.0</ele><time>2026-05-01T11:23:59Z</time></trkpt><trkpt lat="47.82697213728398" lon="11.950650110989628"><ele>556.0</ele><time>2026-05-01T11:24:00Z</time></trkpt><trkpt lat="47.826924356130306" lon="11.951023326043675"><ele>555.5</ele><time>2026-05-01T11:24:01Z</time></trkpt><trkpt lat="47.826877036621255" lon="11.951392006135444"><ele>555.0</ele><time>2026-05-01T11:24:02Z</time></trkpt><trkpt lat="47.82683047024214" lon="11.951757260860065"><ele>553.5</ele><time>2026-05-01T11:24:03Z</time></trkpt><trkpt lat="47.82678408484267" lon="11.952116191291871"><ele>552.0</ele><time>2026-05-01T11:24:04Z</time></trkpt><trkpt lat="47.82673863383993" lon="11.952467047704618"><ele>551.6666666666666</ele><time>2026-05-01T11:24:05Z</time></trkpt><trkpt lat="47.82669541464061" lon="11.952801220869853"><ele>551.3333333333333</ele><time>2026-05-01T11:24:06Z</time></trkpt><trkpt lat="47.82665500641623" lon="11.95311993183049"><ele>551.0</ele><time>2026-05-01T11:24:07Z</time></trkpt><trkpt lat="47.82661208369895" lon="11.953430052500877"><ele>550.3333333333333</ele><time>2026-05-01T11:24:08Z</time></trkpt><trkpt lat="47.82656704902144" lon="11.953746145958764"><ele>549.6666666666666</ele><time>2026-05-01T11:24:09Z</time></trkpt><trkpt lat="47.826523050316815" lon="11.954065796949482"><ele>549.0</ele><time>2026-05-01T11:24:10Z</time></trkpt><trkpt lat="47.82647818126866" lon="11.954380810514433"><ele>548.6666666666666</ele><time>2026-05-01T11:24:11Z</time></trkpt><trkpt lat="47.826436076814986" lon="11.954685027966383"><ele>548.3333333333333</ele><time>2026-05-01T11:24:12Z</time></trkpt><trkpt lat="47.82639752193922" lon="11.95497818374899"><ele>548.0</ele><time>2026-05-01T11:24:13Z</time></trkpt><trkpt lat="47.826360745195544" lon="11.955260821931637"><ele>547.6666666666666</ele><time>2026-05-01T11:24:14Z</time></trkpt><trkpt lat="47.82632698312872" lon="11.955543136010434"><ele>547.3333333333334</ele><time>2026-05-01T11:24:15Z</time></trkpt><trkpt lat="47.82629111801704" lon="11.955820130721543"><ele>547.0</ele><time>2026-05-01T11:24:16Z</time></trkpt><trkpt lat="47.82625193389288" lon="11.956101176246772"><ele>546.3333333333334</ele><time>2026-05-01T11:24:17Z</time></trkpt><trkpt lat="47.82621365299194" lon="11.956381173134552"><ele>545.6666666666666</ele><time>2026-05-01T11:24:18Z</time></trkpt><trkpt lat="47.82617389286923" lon="11.956677806900439"><ele>545.0</ele><time>2026-05-01T11:24:19Z</time></trkpt><trkpt lat="47.82613348599811" lon="11.956984448997712"><ele>544.0</ele><time>2026-05-01T11:24:20Z</time></trkpt><trkpt lat="47.826090868755905" lon="11.957296769129663"><ele>543.0</ele><time>2026-05-01T11:24:21Z</time></trkpt><trkpt lat="47.826052191340736" lon="11.957619135161943"><ele>542.0</ele><time>2026-05-01T11:24:22Z</time></trkpt><trkpt lat="47.82601493082785" lon="11.95794568603398"><ele>541.5</ele><time>2026-05-01T11:24:23Z</time></trkpt><trkpt lat="47.825972735879866" lon="11.95827758265558"><ele>541.0</ele><time>2026-05-01T11:24:24Z</time></trkpt><trkpt lat="47.825917868739054" lon="11.958613671172802"><ele>539.0</ele><time>2026-05-01T11:24:25Z</time></trkpt><trkpt lat="47.82584730305496" lon="11.958950193475765"><ele>537.0</ele><time>2026-05-01T11:24:26Z</time></trkpt><trkpt lat="47.82576780246155" lon="11.959287321237843"><ele>533.0</ele><time>2026-05-01T11:24:27Z</time></trkpt><trkpt lat="47.82567965982037" lon="11.959628103073625"><ele>529.0</ele><time>2026-05-01T11:24:28Z</time></trkpt><trkpt lat="47.825583324693106" lon="11.959959983649943"><ele>524.5</ele><time>2026-05-01T11:24:29Z</time></trkpt><trkpt lat="47.82547260814799" lon="11.960295685437082"><ele>520.0</ele><time>2026-05-01T11:24:30Z</time></trkpt><trkpt lat="47.825353364126755" lon="11.96062954738302"><ele>519.0</ele><time>2026-05-01T11:24:31Z</time></trkpt><trkpt lat="47.82522546805788" lon="11.960961775052384"><ele>518.0</ele><time>2026-05-01T11:24:32Z</time></trkpt><trkpt lat="47.825090897425575" lon="11.96128773736278"><ele>518.0</ele><time>2026-05-01T11:24:33Z</time></trkpt><trkpt lat="47.82495373056857" lon="11.961600457459605"><ele>518.0</ele><time>2026-05-01T11:24:34Z</time></trkpt><trkpt lat="47.82482223166152" lon="11.961901148743099"><ele>518.5</ele><time>2026-05-01T11:24:35Z</time></trkpt><trkpt lat="47.82467586043932" lon="11.962210549927628"><ele>519.0</ele><time>2026-05-01T11:24:36Z</time></trkpt><trkpt lat="47.82452817005519" lon="11.962529827589737"><ele>520.5</ele><time>2026-05-01T11:24:37Z</time></trkpt><trkpt lat="47.82437653186443" lon="11.962857741811245"><ele>522.0</ele><time>2026-05-01T11:24:38Z</time></trkpt><trkpt lat="47.82422608730453" lon="11.963188453802323"><ele>520.0</ele><time>2026-05-01T11:24:39Z</time></trkpt><trkpt lat="47.82407985812276" lon="11.96352527482921"><ele>518.0</ele><time>2026-05-01T11:24:40Z</time></trkpt><trkpt lat="47.82393501931455" lon="11.963861699815581"><ele>518.0</ele><time>2026-05-01T11:24:41Z</time></trkpt><trkpt lat="47.82378703390722" lon="11.964192490773241"><ele>518.0</ele><time>2026-05-01T11:24:42Z</time></trkpt><trkpt lat="47.82363829037946" lon="11.964516420966898"><ele>517.5</ele><time>2026-05-01T11:24:43Z</time></trkpt><trkpt lat="47.82348883898277" lon="11.964837069382908"><ele>517.0</ele><time>2026-05-01T11:24:44Z</time></trkpt><trkpt lat="47.823340234624844" lon="11.96515849024733"><ele>517.0</ele><time>2026-05-01T11:24:45Z</time></trkpt><trkpt lat="47.82319883575361" lon="11.965487154095381"><ele>517.0</ele><time>2026-05-01T11:24:46Z</time></trkpt><trkpt lat="47.82306717338169" lon="11.965813966253126"><ele>517.5</ele><time>2026-05-01T11:24:47Z</time></trkpt><trkpt lat="47.82293908883967" lon="11.966139879296543"><ele>518.0</ele><time>2026-05-01T11:24:48Z</time></trkpt><trkpt lat="47.82281723021865" lon="11.96646906543563"><ele>517.5</ele><time>2026-05-01T11:24:49Z</time></trkpt><trkpt lat="47.822700584845784" lon="11.96680714615058"><ele>517.0</ele><time>2026-05-01T11:24:50Z</time></trkpt><trkpt lat="47.82258993914031" lon="11.967156893895769"><ele>514.5</ele><time>2026-05-01T11:24:51Z</time></trkpt><trkpt lat="47.82248860848215" lon="11.967507317587911"><ele>512.0</ele><time>2026-05-01T11:24:52Z</time></trkpt><trkpt lat="47.82239167309693" lon="11.967870257916386"><ele>511.0</ele><time>2026-05-01T11:24:53Z</time></trkpt><trkpt lat="47.822299398952374" lon="11.968234671798267"><ele>510.0</ele><time>2026-05-01T11:24:54Z</time></trkpt><trkpt lat="47.82221374944492" lon="11.968593665876243"><ele>509.0</ele><time>2026-05-01T11:24:55Z</time></trkpt><trkpt lat="47.82213565154875" lon="11.968955252197173"><ele>508.0</ele><time>2026-05-01T11:24:56Z</time></trkpt><trkpt lat="47.8220610585625" lon="11.969308126194852"><ele>507.0</ele><time>2026-05-01T11:24:57Z</time></trkpt><trkpt lat="47.82199882186098" lon="11.969664928661395"><ele>506.0</ele><time>2026-05-01T11:24:58Z</time></trkpt><trkpt lat="47.821937978986895" lon="11.970021747630543"><ele>505.0</ele><time>2026-05-01T11:24:59Z</time></trkpt><trkpt lat="47.82187978394809" lon="11.970384113066222"><ele>504.0</ele><time>2026-05-01T11:25:00Z</time></trkpt><trkpt lat="47.82182795219812" lon="11.970750598593014"><ele>503.5</ele><time>2026-05-01T11:25:01Z</time></trkpt><trkpt lat="47.821781696896984" lon="11.97111755725263"><ele>503.0</ele><time>2026-05-01T11:25:02Z</time></trkpt><trkpt lat="47.82174365097814" lon="11.971481693069558"><ele>503.0</ele><time>2026-05-01T11:25:03Z</time></trkpt><trkpt lat="47.821712701644216" lon="11.971843399356285"><ele>503.0</ele><time>2026-05-01T11:25:04Z</time></trkpt><trkpt lat="47.82167844707299" lon="11.972204487059464"><ele>502.5</ele><time>2026-05-01T11:25:05Z</time></trkpt><trkpt lat="47.82165957836403" lon="11.972561770699597"><ele>502.0</ele><time>2026-05-01T11:25:06Z</time></trkpt><trkpt lat="47.82164606075116" lon="11.972919653075847"><ele>502.0</ele><time>2026-05-01T11:25:07Z</time></trkpt><trkpt lat="47.82164164411364" lon="11.97327748339461"><ele>502.0</ele><time>2026-05-01T11:25:08Z</time></trkpt><trkpt lat="47.82163599993353" lon="11.973624262884593"><ele>502.0</ele><time>2026-05-01T11:25:09Z</time></trkpt><trkpt lat="47.821637908074855" lon="11.973968437855644"><ele>502.0</ele><time>2026-05-01T11:25:10Z</time></trkpt><trkpt lat="47.82164371251739" lon="11.974313049461003"><ele>503.5</ele><time>2026-05-01T11:25:11Z</time></trkpt><trkpt lat="47.82165080826996" lon="11.974661566720307"><ele>505.0</ele><time>2026-05-01T11:25:12Z</time></trkpt><trkpt lat="47.82165485839502" lon="11.9750113763053"><ele>504.5</ele><time>2026-05-01T11:25:13Z</time></trkpt><trkpt lat="47.82166329115839" lon="11.975355895993019"><ele>504.0</ele><time>2026-05-01T11:25:14Z</time></trkpt><trkpt lat="47.821668625804556" lon="11.97569786716495"><ele>502.5</ele><time>2026-05-01T11:25:15Z</time></trkpt><trkpt lat="47.82167344224599" lon="11.976033809092046"><ele>501.0</ele><time>2026-05-01T11:25:16Z</time></trkpt><trkpt lat="47.821679350570314" lon="11.976373738734534"><ele>499.5</ele><time>2026-05-01T11:25:17Z</time></trkpt><trkpt lat="47.821686942174885" lon="11.976716844007326"><ele>498.0</ele><time>2026-05-01T11:25:18Z</time></trkpt><trkpt lat="47.82169834869712" lon="11.977060039536097"><ele>498.0</ele><time>2026-05-01T11:25:19Z</time></trkpt><trkpt lat="47.8217081611696" lon="11.977400446622262"><ele>498.0</ele><time>2026-05-01T11:25:20Z</time></trkpt><trkpt lat="47.82171900075417" lon="11.977737514638498"><ele>497.0</ele><time>2026-05-01T11:25:21Z</time></trkpt><trkpt lat="47.82172538877661" lon="11.978071014827917"><ele>496.0</ele><time>2026-05-01T11:25:22Z</time></trkpt><trkpt lat="47.82173093697428" lon="11.97840280645808"><ele>495.0</ele><time>2026-05-01T11:25:23Z</time></trkpt><trkpt lat="47.82173808008566" lon="11.978738534886062"><ele>494.5</ele><time>2026-05-01T11:25:24Z</time></trkpt><trkpt lat="47.82174363775588" lon="11.979077675249608"><ele>494.0</ele><time>2026-05-01T11:25:25Z</time></trkpt><trkpt lat="47.82175200356856" lon="11.979420252089586"><ele>494.0</ele><time>2026-05-01T11:25:26Z</time></trkpt><trkpt lat="47.82176168345381" lon="11.979779366715292"><ele>494.0</ele><time>2026-05-01T11:25:27Z</time></trkpt><trkpt lat="47.82176784005675" lon="11.980149815203722"><ele>492.0</ele><time>2026-05-01T11:25:28Z</time></trkpt><trkpt lat="47.821769132212005" lon="11.980528491774443"><ele>490.0</ele><time>2026-05-01T11:25:29Z</time></trkpt><trkpt lat="47.82177240596388" lon="11.98089730715647"><ele>490.0</ele><time>2026-05-01T11:25:30Z</time></trkpt><trkpt lat="47.821777704441324" lon="11.981253897110875"><ele>490.0</ele><time>2026-05-01T11:25:31Z</time></trkpt><trkpt lat="47.821785334262565" lon="11.981606389465496"><ele>489.5</ele><time>2026-05-01T11:25:32Z</time></trkpt><trkpt lat="47.821796941837945" lon="11.98196243079107"><ele>489.0</ele><time>2026-05-01T11:25:33Z</time></trkpt><trkpt lat="47.82181485411971" lon="11.98232961264221"><ele>488.5</ele><time>2026-05-01T11:25:34Z</time></trkpt><trkpt lat="47.82183236560098" lon="11.982712479127638"><ele>488.0</ele><time>2026-05-01T11:25:35Z</time></trkpt><trkpt lat="47.82184767025755" lon="11.983100851408274"><ele>487.5</ele><time>2026-05-01T11:25:36Z</time></trkpt><trkpt lat="47.82186045838153" lon="11.983488650890198"><ele>487.0</ele><time>2026-05-01T11:25:37Z</time></trkpt><trkpt lat="47.821869379075686" lon="11.983874622217321"><ele>486.5</ele><time>2026-05-01T11:25:38Z</time></trkpt><trkpt lat="47.82187510522635" lon="11.984244286998573"><ele>486.0</ele><time>2026-05-01T11:25:39Z</time></trkpt><trkpt lat="47.821880522872156" lon="11.984618548588907"><ele>486.0</ele><time>2026-05-01T11:25:40Z</time></trkpt><trkpt lat="47.82188628147878" lon="11.984993284427672"><ele>486.0</ele><time>2026-05-01T11:25:41Z</time></trkpt><trkpt lat="47.82189333715681" lon="11.985366462097227"><ele>486.0</ele><time>2026-05-01T11:25:42Z</time></trkpt><trkpt lat="47.821900141679016" lon="11.98573821385223"><ele>486.0</ele><time>2026-05-01T11:25:43Z</time></trkpt><trkpt lat="47.821908029879864" lon="11.986102213403884"><ele>486.0</ele><time>2026-05-01T11:25:44Z</time></trkpt><trkpt lat="47.821912717006754" lon="11.98646722496863"><ele>486.0</ele><time>2026-05-01T11:25:45Z</time></trkpt><trkpt lat="47.82191654739978" lon="11.986834711312268"><ele>485.5</ele><time>2026-05-01T11:25:46Z</time></trkpt><trkpt lat="47.821922629962145" lon="11.98720546596209"><ele>485.0</ele><time>2026-05-01T11:25:47Z</time></trkpt><trkpt lat="47.82192616970968" lon="11.987581969323221"><ele>483.5</ele><time>2026-05-01T11:25:48Z</time></trkpt><trkpt lat="47.821931929210606" lon="11.98796036563893"><ele>482.0</ele><time>2026-05-01T11:25:49Z</time></trkpt><trkpt lat="47.821935891304086" lon="11.988342434603954"><ele>481.0</ele><time>2026-05-01T11:25:50Z</time></trkpt><trkpt lat="47.82194024417732" lon="11.988726654230735"><ele>480.0</ele><time>2026-05-01T11:25:51Z</time></trkpt><trkpt lat="47.82194053219487" lon="11.98911343630796"><ele>480.0</ele><time>2026-05-01T11:25:52Z</time></trkpt><trkpt lat="47.82193732856089" lon="11.989503024051935"><ele>480.0</ele><time>2026-05-01T11:25:53Z</time></trkpt><trkpt lat="47.821928680953015" lon="11.989894472111786"><ele>480.0</ele><time>2026-05-01T11:25:54Z</time></trkpt><trkpt lat="47.821916121851864" lon="11.990290754574724"><ele>480.0</ele><time>2026-05-01T11:25:55Z</time></trkpt><trkpt lat="47.821899932139026" lon="11.990692595060379"><ele>480.0</ele><time>2026-05-01T11:25:56Z</time></trkpt><trkpt lat="47.8218819011793" lon="11.991096796185547"><ele>480.0</ele><time>2026-05-01T11:25:57Z</time></trkpt><trkpt lat="47.82186021724928" lon="11.99150338562137"><ele>479.5</ele><time>2026-05-01T11:25:58Z</time></trkpt><trkpt lat="47.821834260950396" lon="11.991914355081875"><ele>479.0</ele><time>2026-05-01T11:25:59Z</time></trkpt><trkpt lat="47.82180693539378" lon="11.992328216780333"><ele>478.5</ele><time>2026-05-01T11:26:00Z</time></trkpt><trkpt lat="47.8217749540431" lon="11.992744655587455"><ele>478.0</ele><time>2026-05-01T11:26:01Z</time></trkpt><trkpt lat="47.82174370249557" lon="11.9931654705624"><ele>477.5</ele><time>2026-05-01T11:26:02Z</time></trkpt><trkpt lat="47.8217155159162" lon="11.993583506967168"><ele>477.0</ele><time>2026-05-01T11:26:03Z</time></trkpt><trkpt lat="47.82168887130213" lon="11.993998550949001"><ele>476.5</ele><time>2026-05-01T11:26:04Z</time></trkpt><trkpt lat="47.82166267401031" lon="11.994410852488885"><ele>476.0</ele><time>2026-05-01T11:26:05Z</time></trkpt><trkpt lat="47.821637210921125" lon="11.994825051823701"><ele>476.0</ele><time>2026-05-01T11:26:06Z</time></trkpt><trkpt lat="47.82161260482774" lon="11.995237488275583"><ele>476.0</ele><time>2026-05-01T11:26:07Z</time></trkpt><trkpt lat="47.82158542125392" lon="11.995648807212865"><ele>475.5</ele><time>2026-05-01T11:26:08Z</time></trkpt><trkpt lat="47.82155724856825" lon="11.996058310374336"><ele>475.0</ele><time>2026-05-01T11:26:09Z</time></trkpt><trkpt lat="47.8215298141839" lon="11.996468826117674"><ele>475.5</ele><time>2026-05-01T11:26:10Z</time></trkpt><trkpt lat="47.821504219052905" lon="11.996881211077238"><ele>476.0</ele><time>2026-05-01T11:26:11Z</time></trkpt><trkpt lat="47.82147889739113" lon="11.99729723030277"><ele>475.0</ele><time>2026-05-01T11:26:12Z</time></trkpt><trkpt lat="47.82145385301954" lon="11.997714668029257"><ele>474.0</ele><time>2026-05-01T11:26:13Z</time></trkpt><trkpt lat="47.82142146590471" lon="11.998132134908897"><ele>473.5</ele><time>2026-05-01T11:26:14Z</time></trkpt><trkpt lat="47.821396319590285" lon="11.998551575464528"><ele>473.0</ele><time>2026-05-01T11:26:15Z</time></trkpt><trkpt lat="47.82136405152506" lon="11.998970544788623"><ele>473.5</ele><time>2026-05-01T11:26:16Z</time></trkpt><trkpt lat="47.82133481342937" lon="11.999392492846928"><ele>474.0</ele><time>2026-05-01T11:26:17Z</time></trkpt><trkpt lat="47.82130394386103" lon="11.999814637176538"><ele>474.0</ele><time>2026-05-01T11:26:18Z</time></trkpt><trkpt lat="47.82127711981425" lon="12.000236934398302"><ele>474.0</ele><time>2026-05-01T11:26:19Z</time></trkpt><trkpt lat="47.821244802494206" lon="12.000653772106455"><ele>474.0</ele><time>2026-05-01T11:26:20Z</time></trkpt><trkpt lat="47.821216135719666" lon="12.00106728046472"><ele>474.0</ele><time>2026-05-01T11:26:21Z</time></trkpt><trkpt lat="47.821191195791414" lon="12.001478128083756"><ele>473.5</ele><time>2026-05-01T11:26:22Z</time></trkpt><trkpt lat="47.821164287614245" lon="12.001887178025543"><ele>473.0</ele><time>2026-05-01T11:26:23Z</time></trkpt><trkpt lat="47.82113960515018" lon="12.002292788756684"><ele>473.5</ele><time>2026-05-01T11:26:24Z</time></trkpt><trkpt lat="47.82111407500877" lon="12.002695250420128"><ele>474.0</ele><time>2026-05-01T11:26:25Z</time></trkpt><trkpt lat="47.821089341602914" lon="12.003100021800185"><ele>474.0</ele><time>2026-05-01T11:26:26Z</time></trkpt><trkpt lat="47.82106517579908" lon="12.003507694955154"><ele>474.0</ele><time>2026-05-01T11:26:27Z</time></trkpt><trkpt lat="47.8210399516381" lon="12.003915561497854"><ele>473.5</ele><time>2026-05-01T11:26:28Z</time></trkpt><trkpt lat="47.82101294464172" lon="12.00432539700791"><ele>473.0</ele><time>2026-05-01T11:26:29Z</time></trkpt><trkpt lat="47.82098692582316" lon="12.00473600986586"><ele>473.0</ele><time>2026-05-01T11:26:30Z</time></trkpt><trkpt lat="47.820961166773955" lon="12.00514518160537"><ele>473.0</ele><time>2026-05-01T11:26:31Z</time></trkpt><trkpt lat="47.820933878584654" lon="12.005552577845949"><ele>473.0</ele><time>2026-05-01T11:26:32Z</time></trkpt><trkpt lat="47.8209084801113" lon="12.005963875626753"><ele>473.0</ele><time>2026-05-01T11:26:33Z</time></trkpt><trkpt lat="47.820879551764385" lon="12.00637819329841"><ele>473.0</ele><time>2026-05-01T11:26:34Z</time></trkpt><trkpt lat="47.82085017690356" lon="12.006793512218795"><ele>473.0</ele><time>2026-05-01T11:26:35Z</time></trkpt><trkpt lat="47.8208208911941" lon="12.00721023025436"><ele>473.5</ele><time>2026-05-01T11:26:36Z</time></trkpt><trkpt lat="47.820792738932504" lon="12.007627316027136"><ele>474.0</ele><time>2026-05-01T11:26:37Z</time></trkpt><trkpt lat="47.82076732270124" lon="12.00804442606959"><ele>474.0</ele><time>2026-05-01T11:26:38Z</time></trkpt><trkpt lat="47.820742458414614" lon="12.008461592266913"><ele>474.0</ele><time>2026-05-01T11:26:39Z</time></trkpt><trkpt lat="47.820715810724586" lon="12.008881084153806"><ele>472.5</ele><time>2026-05-01T11:26:40Z</time></trkpt><trkpt lat="47.82069140355268" lon="12.009302078414523"><ele>471.0</ele><time>2026-05-01T11:26:41Z</time></trkpt><trkpt lat="47.82066036443057" lon="12.009720503193826"><ele>471.0</ele><time>2026-05-01T11:26:42Z</time></trkpt><trkpt lat="47.820627382275696" lon="12.010137211212001"><ele>471.0</ele><time>2026-05-01T11:26:43Z</time></trkpt><trkpt lat="47.820594631453616" lon="12.010554783190127"><ele>471.0</ele><time>2026-05-01T11:26:44Z</time></trkpt><trkpt lat="47.820564641428184" lon="12.010973296279344"><ele>471.0</ele><time>2026-05-01T11:26:45Z</time></trkpt><trkpt lat="47.82053504599453" lon="12.011386364954143"><ele>470.5</ele><time>2026-05-01T11:26:46Z</time></trkpt><trkpt lat="47.82051226343755" lon="12.011779412734503"><ele>470.0</ele><time>2026-05-01T11:26:47Z</time></trkpt><trkpt lat="47.820488098099325" lon="12.012186560537781"><ele>470.0</ele><time>2026-05-01T11:26:48Z</time></trkpt><trkpt lat="47.82046339854381" lon="12.012598588725123"><ele>470.0</ele><time>2026-05-01T11:26:49Z</time></trkpt><trkpt lat="47.82043655165686" lon="12.01301614573872"><ele>470.5</ele><time>2026-05-01T11:26:50Z</time></trkpt><trkpt lat="47.820411149167214" lon="12.013438438947556"><ele>471.0</ele><time>2026-05-01T11:26:51Z</time></trkpt><trkpt lat="47.82038358012006" lon="12.013865786619842"><ele>471.5</ele><time>2026-05-01T11:26:52Z</time></trkpt><trkpt lat="47.82035312186686" lon="12.014289390406876"><ele>472.0</ele><time>2026-05-01T11:26:53Z</time></trkpt><trkpt lat="47.82032366484198" lon="12.014710241984208"><ele>471.0</ele><time>2026-05-01T11:26:54Z</time></trkpt><trkpt lat="47.82029765746752" lon="12.015128279927657"><ele>470.0</ele><time>2026-05-01T11:26:55Z</time></trkpt><trkpt lat="47.82026642621599" lon="12.015549590849922"><ele>470.0</ele><time>2026-05-01T11:26:56Z</time></trkpt><trkpt lat="47.820233654276734" lon="12.015970297654299"><ele>470.0</ele><time>2026-05-01T11:26:57Z</time></trkpt><trkpt lat="47.82019028025312" lon="12.016391795185704"><ele>469.5</ele><time>2026-05-01T11:26:58Z</time></trkpt><trkpt lat="47.82014084356772" lon="12.016818717234987"><ele>469.0</ele><time>2026-05-01T11:26:59Z</time></trkpt><trkpt lat="47.820090955656454" lon="12.017246725327047"><ele>468.5</ele><time>2026-05-01T11:27:00Z</time></trkpt><trkpt lat="47.8200363923005" lon="12.01767470434544"><ele>468.0</ele><time>2026-05-01T11:27:01Z</time></trkpt><trkpt lat="47.81998328950998" lon="12.018098179744692"><ele>468.0</ele><time>2026-05-01T11:27:02Z</time></trkpt><trkpt lat="47.81992163086546" lon="12.018519288359524"><ele>468.0</ele><time>2026-05-01T11:27:03Z</time></trkpt><trkpt lat="47.819853264475654" lon="12.018936089073922"><ele>468.0</ele><time>2026-05-01T11:27:04Z</time></trkpt><trkpt lat="47.81977716173777" lon="12.019346543939589"><ele>468.0</ele><time>2026-05-01T11:27:05Z</time></trkpt><trkpt lat="47.81970188797786" lon="12.019759173798446"><ele>468.5</ele><time>2026-05-01T11:27:06Z</time></trkpt><trkpt lat="47.81962389397318" lon="12.020167338851204"><ele>469.0</ele><time>2026-05-01T11:27:07Z</time></trkpt><trkpt lat="47.81954105503679" lon="12.020578221020303"><ele>469.0</ele><time>2026-05-01T11:27:08Z</time></trkpt><trkpt lat="47.819456939436876" lon="12.020987317225817"><ele>469.0</ele><time>2026-05-01T11:27:09Z</time></trkpt><trkpt lat="47.81937077660419" lon="12.021395159687355"><ele>468.5</ele><time>2026-05-01T11:27:10Z</time></trkpt><trkpt lat="47.81928556442895" lon="12.021801827483998"><ele>468.0</ele><time>2026-05-01T11:27:11Z</time></trkpt><trkpt lat="47.81920426274052" lon="12.022208935679403"><ele>468.5</ele><time>2026-05-01T11:27:12Z</time></trkpt><trkpt lat="47.81912406471884" lon="12.022613928857716"><ele>469.0</ele><time>2026-05-01T11:27:13Z</time></trkpt><trkpt lat="47.81904391834861" lon="12.023019159766754"><ele>470.0</ele><time>2026-05-01T11:27:14Z</time></trkpt><trkpt lat="47.818962665616304" lon="12.023422371873904"><ele>471.0</ele><time>2026-05-01T11:27:15Z</time></trkpt><trkpt lat="47.81888124353412" lon="12.023821932490847"><ele>469.5</ele><time>2026-05-01T11:27:16Z</time></trkpt><trkpt lat="47.81879906409554" lon="12.024221797962095"><ele>468.0</ele><time>2026-05-01T11:27:17Z</time></trkpt><trkpt lat="47.8187183658079" lon="12.024613989978894"><ele>468.0</ele><time>2026-05-01T11:27:18Z</time></trkpt><trkpt lat="47.818637261826645" lon="12.025004397213989"><ele>468.0</ele><time>2026-05-01T11:27:19Z</time></trkpt><trkpt lat="47.81855736973919" lon="12.025393635217009"><ele>468.0</ele><time>2026-05-01T11:27:20Z</time></trkpt><trkpt lat="47.818479362210184" lon="12.025783623541141"><ele>468.0</ele><time>2026-05-01T11:27:21Z</time></trkpt><trkpt lat="47.81840477293102" lon="12.026174269934975"><ele>468.5</ele><time>2026-05-01T11:27:22Z</time></trkpt><trkpt lat="47.81832811388996" lon="12.02656505797382"><ele>469.0</ele><time>2026-05-01T11:27:23Z</time></trkpt><trkpt lat="47.81825495589921" lon="12.026957102337384"><ele>469.0</ele><time>2026-05-01T11:27:24Z</time></trkpt><trkpt lat="47.81817949745196" lon="12.027349765768722"><ele>469.0</ele><time>2026-05-01T11:27:25Z</time></trkpt><trkpt lat="47.818110691447245" lon="12.027742970630513"><ele>469.5</ele><time>2026-05-01T11:27:26Z</time></trkpt><trkpt lat="47.81804900907467" lon="12.028139608601858"><ele>470.0</ele><time>2026-05-01T11:27:27Z</time></trkpt><trkpt lat="47.8179894054977" lon="12.02853614164481"><ele>471.5</ele><time>2026-05-01T11:27:28Z</time></trkpt><trkpt lat="47.81793528874142" lon="12.028934573190137"><ele>473.0</ele><time>2026-05-01T11:27:29Z</time></trkpt><trkpt lat="47.81788166928139" lon="12.029333786953359"><ele>474.0</ele><time>2026-05-01T11:27:30Z</time></trkpt><trkpt lat="47.817835723179684" lon="12.029736350251126"><ele>475.0</ele><time>2026-05-01T11:27:31Z</time></trkpt><trkpt lat="47.81778997299528" lon="12.030141862472286"><ele>475.5</ele><time>2026-05-01T11:27:32Z</time></trkpt><trkpt lat="47.817755324744006" lon="12.030553369263036"><ele>476.0</ele><time>2026-05-01T11:27:33Z</time></trkpt><trkpt lat="47.81772338267226" lon="12.030972290878202"><ele>476.0</ele><time>2026-05-01T11:27:34Z</time></trkpt><trkpt lat="47.81769499763961" lon="12.031396537519779"><ele>476.0</ele><time>2026-05-01T11:27:35Z</time></trkpt><trkpt lat="47.81767069823213" lon="12.031823328844274"><ele>473.5</ele><time>2026-05-01T11:27:36Z</time></trkpt><trkpt lat="47.81765023989215" lon="12.032255331589305"><ele>471.0</ele><time>2026-05-01T11:27:37Z</time></trkpt><trkpt lat="47.81762602995203" lon="12.032693310577429"><ele>471.0</ele><time>2026-05-01T11:27:38Z</time></trkpt><trkpt lat="47.81759953229538" lon="12.03312308039534"><ele>471.0</ele><time>2026-05-01T11:27:39Z</time></trkpt><trkpt lat="47.81757506859693" lon="12.033556965882125"><ele>470.5</ele><time>2026-05-01T11:27:40Z</time></trkpt><trkpt lat="47.81755461783399" lon="12.033992401908336"><ele>470.0</ele><time>2026-05-01T11:27:41Z</time></trkpt><trkpt lat="47.8175328608797" lon="12.034425195834517"><ele>470.0</ele><time>2026-05-01T11:27:42Z</time></trkpt><trkpt lat="47.81751138329289" lon="12.034858088953648"><ele>470.0</ele><time>2026-05-01T11:27:43Z</time></trkpt><trkpt lat="47.817487428339945" lon="12.035288831435127"><ele>470.5</ele><time>2026-05-01T11:27:44Z</time></trkpt><trkpt lat="47.81746448423462" lon="12.03571569408512"><ele>471.0</ele><time>2026-05-01T11:27:45Z</time></trkpt><trkpt lat="47.81744584769569" lon="12.036143408594354"><ele>470.0</ele><time>2026-05-01T11:27:46Z</time></trkpt><trkpt lat="47.81742406827319" lon="12.03656389211463"><ele>469.0</ele><time>2026-05-01T11:27:47Z</time></trkpt><trkpt lat="47.8174065435371" lon="12.036982333029362"><ele>469.0</ele><time>2026-05-01T11:27:48Z</time></trkpt><trkpt lat="47.81738877136987" lon="12.037384621220776"><ele>469.0</ele><time>2026-05-01T11:27:49Z</time></trkpt><trkpt lat="47.81737032074797" lon="12.03776597568526"><ele>468.5</ele><time>2026-05-01T11:27:50Z</time></trkpt><trkpt lat="47.81735142096911" lon="12.038154218188197"><ele>468.0</ele><time>2026-05-01T11:27:51Z</time></trkpt><trkpt lat="47.81733241031693" lon="12.038548512783636"><ele>467.5</ele><time>2026-05-01T11:27:52Z</time></trkpt><trkpt lat="47.817310781183934" lon="12.038947651156779"><ele>467.0</ele><time>2026-05-01T11:27:53Z</time></trkpt><trkpt lat="47.81728948564309" lon="12.039347711233551"><ele>468.0</ele><time>2026-05-01T11:27:54Z</time></trkpt><trkpt lat="47.817268372668295" lon="12.039751013456947"><ele>469.0</ele><time>2026-05-01T11:27:55Z</time></trkpt><trkpt lat="47.81724715613124" lon="12.040156536416315"><ele>471.0</ele><time>2026-05-01T11:27:56Z</time></trkpt><trkpt lat="47.81722616841717" lon="12.040565331709958"><ele>473.0</ele><time>2026-05-01T11:27:57Z</time></trkpt><trkpt lat="47.817205060656605" lon="12.040976071597198"><ele>473.0</ele><time>2026-05-01T11:27:58Z</time></trkpt><trkpt lat="47.817186141601084" lon="12.041389504155607"><ele>473.0</ele><time>2026-05-01T11:27:59Z</time></trkpt><trkpt lat="47.817165441223274" lon="12.04180622947999"><ele>473.0</ele><time>2026-05-01T11:28:00Z</time></trkpt><trkpt lat="47.8171462625309" lon="12.042223401727254"><ele>473.0</ele><time>2026-05-01T11:28:01Z</time></trkpt><trkpt lat="47.81712642629352" lon="12.042641731158687"><ele>473.0</ele><time>2026-05-01T11:28:02Z</time></trkpt><trkpt lat="47.81710734596216" lon="12.043059464979944"><ele>473.0</ele><time>2026-05-01T11:28:03Z</time></trkpt><trkpt lat="47.81708690148214" lon="12.043473157334503"><ele>471.0</ele><time>2026-05-01T11:28:04Z</time></trkpt><trkpt lat="47.81706559351154" lon="12.043884882831895"><ele>469.0</ele><time>2026-05-01T11:28:05Z</time></trkpt><trkpt lat="47.817039141720144" lon="12.044295073958448"><ele>469.0</ele><time>2026-05-01T11:28:06Z</time></trkpt><trkpt lat="47.81700736947423" lon="12.044703642756016"><ele>469.0</ele><time>2026-05-01T11:28:07Z</time></trkpt><trkpt lat="47.81696970567971" lon="12.045110392165478"><ele>468.0</ele><time>2026-05-01T11:28:08Z</time></trkpt><trkpt lat="47.81693075075969" lon="12.045518258531386"><ele>467.0</ele><time>2026-05-01T11:28:09Z</time></trkpt><trkpt lat="47.81689352327488" lon="12.04593068188632"><ele>466.0</ele><time>2026-05-01T11:28:10Z</time></trkpt><trkpt lat="47.816856127115614" lon="12.046346572494423"><ele>465.0</ele><time>2026-05-01T11:28:11Z</time></trkpt><trkpt lat="47.81681447961382" lon="12.046765211372362"><ele>464.5</ele><time>2026-05-01T11:28:12Z</time></trkpt><trkpt lat="47.81677030503065" lon="12.047186553212628"><ele>464.0</ele><time>2026-05-01T11:28:13Z</time></trkpt><trkpt lat="47.8167248592169" lon="12.047609149627077"><ele>464.0</ele><time>2026-05-01T11:28:14Z</time></trkpt><trkpt lat="47.816675978762596" lon="12.04803231884168"><ele>464.0</ele><time>2026-05-01T11:28:15Z</time></trkpt><trkpt lat="47.816625254453434" lon="12.048455601393687"><ele>464.5</ele><time>2026-05-01T11:28:16Z</time></trkpt><trkpt lat="47.81657272701299" lon="12.048878091417436"><ele>465.0</ele><time>2026-05-01T11:28:17Z</time></trkpt><trkpt lat="47.81652150995711" lon="12.049301670370946"><ele>465.5</ele><time>2026-05-01T11:28:18Z</time></trkpt><trkpt lat="47.81647025895693" lon="12.049724306925917"><ele>466.0</ele><time>2026-05-01T11:28:19Z</time></trkpt><trkpt lat="47.81641820511675" lon="12.0501459607367"><ele>465.0</ele><time>2026-05-01T11:28:20Z</time></trkpt><trkpt lat="47.816365131417534" lon="12.050566610321633"><ele>464.0</ele><time>2026-05-01T11:28:21Z</time></trkpt><trkpt lat="47.816312264714185" lon="12.05098624511389"><ele>463.0</ele><time>2026-05-01T11:28:22Z</time></trkpt><trkpt lat="47.81625951172017" lon="12.05140350016006"><ele>462.0</ele><time>2026-05-01T11:28:23Z</time></trkpt><trkpt lat="47.81620941020193" lon="12.051817488116702"><ele>461.0</ele><time>2026-05-01T11:28:24Z</time></trkpt><trkpt lat="47.816159956470486" lon="12.052226771043028"><ele>460.0</ele><time>2026-05-01T11:28:25Z</time></trkpt><trkpt lat="47.81610931901474" lon="12.052631210347858"><ele>460.0</ele><time>2026-05-01T11:28:26Z</time></trkpt><trkpt lat="47.81605894506638" lon="12.053034924797737"><ele>460.0</ele><time>2026-05-01T11:28:27Z</time></trkpt><trkpt lat="47.81601162050284" lon="12.053440264712194"><ele>462.5</ele><time>2026-05-01T11:28:28Z</time></trkpt><trkpt lat="47.81596353146355" lon="12.053849182215114"><ele>465.0</ele><time>2026-05-01T11:28:29Z</time></trkpt><trkpt lat="47.81590999511867" lon="12.05425700255764"><ele>465.5</ele><time>2026-05-01T11:28:30Z</time></trkpt><trkpt lat="47.81584947060953" lon="12.05466150579003"><ele>466.0</ele><time>2026-05-01T11:28:31Z</time></trkpt><trkpt lat="47.81578883919024" lon="12.05506551116364"><ele>465.5</ele><time>2026-05-01T11:28:32Z</time></trkpt><trkpt lat="47.81572762693711" lon="12.05546748127319"><ele>465.0</ele><time>2026-05-01T11:28:33Z</time></trkpt><trkpt lat="47.81566785674924" lon="12.055869903669961"><ele>465.0</ele><time>2026-05-01T11:28:34Z</time></trkpt><trkpt lat="47.815611209695156" lon="12.056274570331551"><ele>465.0</ele><time>2026-05-01T11:28:35Z</time></trkpt><trkpt lat="47.815562134434536" lon="12.056682144714154"><ele>466.5</ele><time>2026-05-01T11:28:36Z</time></trkpt><trkpt lat="47.815518928889745" lon="12.057092357973382"><ele>468.0</ele><time>2026-05-01T11:28:37Z</time></trkpt><trkpt lat="47.81547330006778" lon="12.057505411086488"><ele>468.5</ele><time>2026-05-01T11:28:38Z</time></trkpt><trkpt lat="47.815424765892075" lon="12.057914430056671"><ele>469.0</ele><time>2026-05-01T11:28:39Z</time></trkpt><trkpt lat="47.815375354319904" lon="12.058324203463727"><ele>470.5</ele><time>2026-05-01T11:28:40Z</time></trkpt><trkpt lat="47.815320743840736" lon="12.058727403200555"><ele>472.0</ele><time>2026-05-01T11:28:41Z</time></trkpt><trkpt lat="47.81526900828162" lon="12.059122484456458"><ele>474.5</ele><time>2026-05-01T11:28:42Z</time></trkpt><trkpt lat="47.81522200579011" lon="12.059497511718249"><ele>477.0</ele><time>2026-05-01T11:28:43Z</time></trkpt><trkpt lat="47.81517377007091" lon="12.059881638435899"><ele>476.0</ele><time>2026-05-01T11:28:44Z</time></trkpt><trkpt lat="47.81512606074284" lon="12.06027316588612"><ele>475.0</ele><time>2026-05-01T11:28:45Z</time></trkpt><trkpt lat="47.81507995535301" lon="12.060668440883516"><ele>474.0</ele><time>2026-05-01T11:28:46Z</time></trkpt><trkpt lat="47.81503077642725" lon="12.061068719260152"><ele>473.0</ele><time>2026-05-01T11:28:47Z</time></trkpt><trkpt lat="47.81497980794293" lon="12.061469480733017"><ele>473.5</ele><time>2026-05-01T11:28:48Z</time></trkpt><trkpt lat="47.81492838267056" lon="12.06187060348948"><ele>474.0</ele><time>2026-05-01T11:28:49Z</time></trkpt><trkpt lat="47.81487743751135" lon="12.062275236042952"><ele>475.0</ele><time>2026-05-01T11:28:50Z</time></trkpt><trkpt lat="47.81482719346277" lon="12.062682113886208"><ele>476.0</ele><time>2026-05-01T11:28:51Z</time></trkpt><trkpt lat="47.81477934899646" lon="12.063085233159041"><ele>476.5</ele><time>2026-05-01T11:28:52Z</time></trkpt><trkpt lat="47.8147338432475" lon="12.063488215948718"><ele>477.0</ele><time>2026-05-01T11:28:53Z</time></trkpt><trkpt lat="47.81468357473816" lon="12.063889358232135"><ele>476.5</ele><time>2026-05-01T11:28:54Z</time></trkpt><trkpt lat="47.81462684710225" lon="12.064293286401988"><ele>476.0</ele><time>2026-05-01T11:28:55Z</time></trkpt><trkpt lat="47.81456789788932" lon="12.064696443725069"><ele>476.0</ele><time>2026-05-01T11:28:56Z</time></trkpt><trkpt lat="47.81450431602261" lon="12.065102435828901"><ele>476.0</ele><time>2026-05-01T11:28:57Z</time></trkpt><trkpt lat="47.8144407495632" lon="12.065506209218805"><ele>475.5</ele><time>2026-05-01T11:28:58Z</time></trkpt><trkpt lat="47.81438198772148" lon="12.06590643453676"><ele>475.0</ele><time>2026-05-01T11:28:59Z</time></trkpt><trkpt lat="47.81432434939616" lon="12.066308649625423"><ele>475.5</ele><time>2026-05-01T11:29:00Z</time></trkpt><trkpt lat="47.81426282438311" lon="12.066707110405739"><ele>476.0</ele><time>2026-05-01T11:29:01Z</time></trkpt><trkpt lat="47.81420307134265" lon="12.067107587059478"><ele>475.0</ele><time>2026-05-01T11:29:02Z</time></trkpt><trkpt lat="47.81414338358115" lon="12.067506430866807"><ele>474.0</ele><time>2026-05-01T11:29:03Z</time></trkpt><trkpt lat="47.814086671539485" lon="12.067905974421713"><ele>473.5</ele><time>2026-05-01T11:29:04Z</time></trkpt><trkpt lat="47.814023745274625" lon="12.06830582771308"><ele>473.0</ele><time>2026-05-01T11:29:05Z</time></trkpt><trkpt lat="47.813963247415735" lon="12.068706195523912"><ele>473.0</ele><time>2026-05-01T11:29:06Z</time></trkpt><trkpt lat="47.81390579546198" lon="12.069107799043003"><ele>473.0</ele><time>2026-05-01T11:29:07Z</time></trkpt><trkpt lat="47.81384565269357" lon="12.069503382502125"><ele>474.0</ele><time>2026-05-01T11:29:08Z</time></trkpt><trkpt lat="47.81378584645552" lon="12.069895409145916"><ele>475.0</ele><time>2026-05-01T11:29:09Z</time></trkpt><trkpt lat="47.81372673583317" lon="12.070285178566351"><ele>475.0</ele><time>2026-05-01T11:29:10Z</time></trkpt><trkpt lat="47.81366826993091" lon="12.070677284902953"><ele>475.0</ele><time>2026-05-01T11:29:11Z</time></trkpt><trkpt lat="47.81361158510211" lon="12.071067695061132"><ele>475.0</ele><time>2026-05-01T11:29:12Z</time></trkpt><trkpt lat="47.81355639073801" lon="12.071459241317516"><ele>475.0</ele><time>2026-05-01T11:29:13Z</time></trkpt><trkpt lat="47.81350264968769" lon="12.071849352009114"><ele>475.0</ele><time>2026-05-01T11:29:14Z</time></trkpt><trkpt lat="47.81345104312004" lon="12.072240380822386"><ele>475.0</ele><time>2026-05-01T11:29:15Z</time></trkpt><trkpt lat="47.81340312495521" lon="12.072635724190485"><ele>473.0</ele><time>2026-05-01T11:29:16Z</time></trkpt><trkpt lat="47.81335594109788" lon="12.07303165476946"><ele>471.0</ele><time>2026-05-01T11:29:17Z</time></trkpt><trkpt lat="47.81330704616717" lon="12.07343103004934"><ele>470.5</ele><time>2026-05-01T11:29:18Z</time></trkpt><trkpt lat="47.813250139776535" lon="12.073834310299087"><ele>470.0</ele><time>2026-05-01T11:29:19Z</time></trkpt><trkpt lat="47.81319023634294" lon="12.074236739832738"><ele>469.5</ele><time>2026-05-01T11:29:20Z</time></trkpt><trkpt lat="47.813126894884945" lon="12.074640796564195"><ele>469.0</ele><time>2026-05-01T11:29:21Z</time></trkpt><trkpt lat="47.81306432408539" lon="12.075044182323886"><ele>468.5</ele><time>2026-05-01T11:29:22Z</time></trkpt><trkpt lat="47.813001720773386" lon="12.075446504594105"><ele>468.0</ele><time>2026-05-01T11:29:23Z</time></trkpt><trkpt lat="47.812941770230246" lon="12.075850334152431"><ele>468.5</ele><time>2026-05-01T11:29:24Z</time></trkpt><trkpt lat="47.81288504868239" lon="12.07625026925044"><ele>469.0</ele><time>2026-05-01T11:29:25Z</time></trkpt><trkpt lat="47.812831406218216" lon="12.07664990335428"><ele>469.0</ele><time>2026-05-01T11:29:26Z</time></trkpt><trkpt lat="47.81277203430315" lon="12.077046419929747"><ele>469.0</ele><time>2026-05-01T11:29:27Z</time></trkpt><trkpt lat="47.81271446557504" lon="12.077438619965049"><ele>467.5</ele><time>2026-05-01T11:29:28Z</time></trkpt><trkpt lat="47.81265563940997" lon="12.077831431075142"><ele>466.0</ele><time>2026-05-01T11:29:29Z</time></trkpt><trkpt lat="47.81259902233502" lon="12.07822442947386"><ele>466.5</ele><time>2026-05-01T11:29:30Z</time></trkpt><trkpt lat="47.81254570890926" lon="12.078619327486297"><ele>467.0</ele><time>2026-05-01T11:29:31Z</time></trkpt><trkpt lat="47.81248583234669" lon="12.079015521332652"><ele>467.5</ele><time>2026-05-01T11:29:32Z</time></trkpt><trkpt lat="47.812425915311955" lon="12.079412585579538"><ele>468.0</ele><time>2026-05-01T11:29:33Z</time></trkpt><trkpt lat="47.812365476130374" lon="12.07980950653984"><ele>467.0</ele><time>2026-05-01T11:29:34Z</time></trkpt><trkpt lat="47.81230650575739" lon="12.080203574081516"><ele>466.0</ele><time>2026-05-01T11:29:35Z</time></trkpt><trkpt lat="47.812250862460196" lon="12.080595901835533"><ele>466.5</ele><time>2026-05-01T11:29:36Z</time></trkpt><trkpt lat="47.81219438735303" lon="12.08098691976101"><ele>467.0</ele><time>2026-05-01T11:29:37Z</time></trkpt><trkpt lat="47.81213747359467" lon="12.08137627614389"><ele>467.0</ele><time>2026-05-01T11:29:38Z</time></trkpt><trkpt lat="47.81207997465391" lon="12.08176458863372"><ele>467.0</ele><time>2026-05-01T11:29:39Z</time></trkpt><trkpt lat="47.81202431608388" lon="12.082152211386898"><ele>467.0</ele><time>2026-05-01T11:29:40Z</time></trkpt><trkpt lat="47.81196777115833" lon="12.082536647440609"><ele>467.0</ele><time>2026-05-01T11:29:41Z</time></trkpt><trkpt lat="47.81191165169288" lon="12.082916207633888"><ele>467.0</ele><time>2026-05-01T11:29:42Z</time></trkpt><trkpt lat="47.811856563738274" lon="12.083291828704045"><ele>467.0</ele><time>2026-05-01T11:29:43Z</time></trkpt><trkpt lat="47.81180055694374" lon="12.08366845729385"><ele>467.0</ele><time>2026-05-01T11:29:44Z</time></trkpt><trkpt lat="47.81174307777438" lon="12.084050907839753"><ele>467.0</ele><time>2026-05-01T11:29:45Z</time></trkpt><trkpt lat="47.81168635384636" lon="12.08443705689655"><ele>467.5</ele><time>2026-05-01T11:29:46Z</time></trkpt><trkpt lat="47.81162899525391" lon="12.084829151476058"><ele>468.0</ele><time>2026-05-01T11:29:47Z</time></trkpt><trkpt lat="47.81157039382732" lon="12.085225140531689"><ele>468.0</ele><time>2026-05-01T11:29:48Z</time></trkpt><trkpt lat="47.81151104196426" lon="12.085623631419274"><ele>468.0</ele><time>2026-05-01T11:29:49Z</time></trkpt><trkpt lat="47.811452611555076" lon="12.086025849322406"><ele>468.0</ele><time>2026-05-01T11:29:50Z</time></trkpt><trkpt lat="47.811393627101204" lon="12.086429907165565"><ele>468.0</ele><time>2026-05-01T11:29:51Z</time></trkpt><trkpt lat="47.81133218339439" lon="12.086835432429082"><ele>468.0</ele><time>2026-05-01T11:29:52Z</time></trkpt><trkpt lat="47.811272172935354" lon="12.087241367269733"><ele>468.0</ele><time>2026-05-01T11:29:53Z</time></trkpt><trkpt lat="47.81121227636971" lon="12.0876468134951"><ele>468.0</ele><time>2026-05-01T11:29:54Z</time></trkpt><trkpt lat="47.81115273406531" lon="12.088050754920616"><ele>468.0</ele><time>2026-05-01T11:29:55Z</time></trkpt><trkpt lat="47.81109374193346" lon="12.088455708399504"><ele>468.0</ele><time>2026-05-01T11:29:56Z</time></trkpt><trkpt lat="47.811033278340155" lon="12.088859182399327"><ele>468.0</ele><time>2026-05-01T11:29:57Z</time></trkpt><trkpt lat="47.810973817884665" lon="12.089261543259603"><ele>468.0</ele><time>2026-05-01T11:29:58Z</time></trkpt><trkpt lat="47.810912405670244" lon="12.089666653454932"><ele>468.0</ele><time>2026-05-01T11:29:59Z</time></trkpt><trkpt lat="47.810853450884146" lon="12.090071121160728"><ele>468.5</ele><time>2026-05-01T11:30:00Z</time></trkpt><trkpt lat="47.81079512143098" lon="12.090475672691758"><ele>469.0</ele><time>2026-05-01T11:30:01Z</time></trkpt><trkpt lat="47.810737660407355" lon="12.090879364408062"><ele>468.0</ele><time>2026-05-01T11:30:02Z</time></trkpt><trkpt lat="47.81067939416577" lon="12.09127921184619"><ele>467.0</ele><time>2026-05-01T11:30:03Z</time></trkpt><trkpt lat="47.810620525807614" lon="12.091668119808837"><ele>467.0</ele><time>2026-05-01T11:30:04Z</time></trkpt><trkpt lat="47.81056414560407" lon="12.092051146280278"><ele>467.0</ele><time>2026-05-01T11:30:05Z</time></trkpt><trkpt lat="47.810502911483205" lon="12.092447280494394"><ele>468.0</ele><time>2026-05-01T11:30:06Z</time></trkpt><trkpt lat="47.81044402936652" lon="12.092846818834365"><ele>469.0</ele><time>2026-05-01T11:30:07Z</time></trkpt><trkpt lat="47.81038528486403" lon="12.093249616967471"><ele>470.0</ele><time>2026-05-01T11:30:08Z</time></trkpt><trkpt lat="47.810325970148824" lon="12.093653244212922"><ele>471.0</ele><time>2026-05-01T11:30:09Z</time></trkpt><trkpt lat="47.81026926056846" lon="12.094053404642896"><ele>470.0</ele><time>2026-05-01T11:30:10Z</time></trkpt><trkpt lat="47.81021396215481" lon="12.094450441497345"><ele>469.0</ele><time>2026-05-01T11:30:11Z</time></trkpt><trkpt lat="47.81015900699852" lon="12.094845594270481"><ele>467.0</ele><time>2026-05-01T11:30:12Z</time></trkpt><trkpt lat="47.81010282207543" lon="12.095241442369243"><ele>465.0</ele><time>2026-05-01T11:30:13Z</time></trkpt><trkpt lat="47.81004466862859" lon="12.095636895894547"><ele>465.0</ele><time>2026-05-01T11:30:14Z</time></trkpt><trkpt lat="47.80998710166461" lon="12.09603228836106"><ele>465.0</ele><time>2026-05-01T11:30:15Z</time></trkpt><trkpt lat="47.809929128740706" lon="12.096429214815505"><ele>465.5</ele><time>2026-05-01T11:30:16Z</time></trkpt><trkpt lat="47.80987062072384" lon="12.096827272643246"><ele>466.0</ele><time>2026-05-01T11:30:17Z</time></trkpt><trkpt lat="47.80981146186618" lon="12.097223346766254"><ele>464.5</ele><time>2026-05-01T11:30:18Z</time></trkpt><trkpt lat="47.80975250017736" lon="12.097617207578983"><ele>463.0</ele><time>2026-05-01T11:30:19Z</time></trkpt><trkpt lat="47.80969466965324" lon="12.09800869464505"><ele>462.0</ele><time>2026-05-01T11:30:20Z</time></trkpt><trkpt lat="47.80963733454981" lon="12.098401507513836"><ele>461.0</ele><time>2026-05-01T11:30:21Z</time></trkpt><trkpt lat="47.80957842606107" lon="12.098792391422563"><ele>460.5</ele><time>2026-05-01T11:30:22Z</time></trkpt><trkpt lat="47.80952323553445" lon="12.09918565092441"><ele>460.0</ele><time>2026-05-01T11:30:23Z</time></trkpt><trkpt lat="47.809468017728115" lon="12.09958185956233"><ele>460.0</ele><time>2026-05-01T11:30:24Z</time></trkpt><trkpt lat="47.80941749928278" lon="12.099975155918456"><ele>460.0</ele><time>2026-05-01T11:30:25Z</time></trkpt><trkpt lat="47.80936975265735" lon="12.100371692144517"><ele>460.0</ele><time>2026-05-01T11:30:26Z</time></trkpt><trkpt lat="47.8093208285124" lon="12.100766119510228"><ele>460.0</ele><time>2026-05-01T11:30:27Z</time></trkpt><trkpt lat="47.8092731434001" lon="12.101162480900166"><ele>460.0</ele><time>2026-05-01T11:30:28Z</time></trkpt><trkpt lat="47.809227005114245" lon="12.101557959532872"><ele>460.0</ele><time>2026-05-01T11:30:29Z</time></trkpt><trkpt lat="47.80918442356161" lon="12.101953569854677"><ele>459.5</ele><time>2026-05-01T11:30:30Z</time></trkpt><trkpt lat="47.80914415192854" lon="12.102347429455598"><ele>459.0</ele><time>2026-05-01T11:30:31Z</time></trkpt><trkpt lat="47.80910580616837" lon="12.10274134544371"><ele>459.5</ele><time>2026-05-01T11:30:32Z</time></trkpt><trkpt lat="47.80906797234767" lon="12.10313577386124"><ele>460.0</ele><time>2026-05-01T11:30:33Z</time></trkpt><trkpt lat="47.80903016655862" lon="12.103528255588222"><ele>460.0</ele><time>2026-05-01T11:30:34Z</time></trkpt><trkpt lat="47.80899224482376" lon="12.103920277327939"><ele>460.0</ele><time>2026-05-01T11:30:35Z</time></trkpt><trkpt lat="47.80895643646207" lon="12.104310477843738"><ele>460.0</ele><time>2026-05-01T11:30:36Z</time></trkpt><trkpt lat="47.80891974532072" lon="12.104698520178198"><ele>460.0</ele><time>2026-05-01T11:30:37Z</time></trkpt><trkpt lat="47.80888601987122" lon="12.105083863036006"><ele>460.0</ele><time>2026-05-01T11:30:38Z</time></trkpt><trkpt lat="47.80885362295954" lon="12.10546633484709"><ele>460.0</ele><time>2026-05-01T11:30:39Z</time></trkpt><trkpt lat="47.80882123230421" lon="12.105850830457292"><ele>459.5</ele><time>2026-05-01T11:30:40Z</time></trkpt><trkpt lat="47.808790326538194" lon="12.106235132414342"><ele>459.0</ele><time>2026-05-01T11:30:41Z</time></trkpt><trkpt lat="47.8087567768262" lon="12.106619566889037"><ele>459.0</ele><time>2026-05-01T11:30:42Z</time></trkpt><trkpt lat="47.80872097624563" lon="12.107003993795631"><ele>459.0</ele><time>2026-05-01T11:30:43Z</time></trkpt><trkpt lat="47.80868523091375" lon="12.107389484350078"><ele>458.5</ele><time>2026-05-01T11:30:44Z</time></trkpt><trkpt lat="47.808648657103824" lon="12.10777551265215"><ele>458.0</ele><time>2026-05-01T11:30:45Z</time></trkpt><trkpt lat="47.80861187186771" lon="12.10816148191874"><ele>458.5</ele><time>2026-05-01T11:30:46Z</time></trkpt><trkpt lat="47.808575579553924" lon="12.108545949248146"><ele>459.0</ele><time>2026-05-01T11:30:47Z</time></trkpt><trkpt lat="47.80854202079739" lon="12.108930724880448"><ele>459.0</ele><time>2026-05-01T11:30:48Z</time></trkpt><trkpt lat="47.80850903611578" lon="12.109316074636293"><ele>459.0</ele><time>2026-05-01T11:30:49Z</time></trkpt><trkpt lat="47.808478880305316" lon="12.109700357164085"><ele>458.0</ele><time>2026-05-01T11:30:50Z</time></trkpt><trkpt lat="47.80844670294578" lon="12.110083358098775"><ele>457.0</ele><time>2026-05-01T11:30:51Z</time></trkpt><trkpt lat="47.80841613425094" lon="12.11046022149525"><ele>457.5</ele><time>2026-05-01T11:30:52Z</time></trkpt><trkpt lat="47.808384250035786" lon="12.110819044985588"><ele>458.0</ele><time>2026-05-01T11:30:53Z</time></trkpt><trkpt lat="47.80835179712575" lon="12.111168926390148"><ele>458.0</ele><time>2026-05-01T11:30:54Z</time></trkpt><trkpt lat="47.80831906421273" lon="12.111535851162046"><ele>458.0</ele><time>2026-05-01T11:30:55Z</time></trkpt><trkpt lat="47.80828630109374" lon="12.111915359296383"><ele>458.5</ele><time>2026-05-01T11:30:56Z</time></trkpt><trkpt lat="47.808252026333555" lon="12.112302598571201"><ele>459.0</ele><time>2026-05-01T11:30:57Z</time></trkpt><trkpt lat="47.80821802117588" lon="12.112699459780321"><ele>458.0</ele><time>2026-05-01T11:30:58Z</time></trkpt><trkpt lat="47.80818181542976" lon="12.113103914221384"><ele>457.0</ele><time>2026-05-01T11:30:59Z</time></trkpt><trkpt lat="47.80814344190715" lon="12.113511691862087"><ele>457.0</ele><time>2026-05-01T11:31:00Z</time></trkpt><trkpt lat="47.80810502449926" lon="12.113923578919126"><ele>457.0</ele><time>2026-05-01T11:31:01Z</time></trkpt><trkpt lat="47.808068009232535" lon="12.114342791864077"><ele>457.0</ele><time>2026-05-01T11:31:02Z</time></trkpt><trkpt lat="47.80803116732626" lon="12.11476623524455"><ele>457.0</ele><time>2026-05-01T11:31:03Z</time></trkpt><trkpt lat="47.807993686021966" lon="12.115192598155884"><ele>457.0</ele><time>2026-05-01T11:31:04Z</time></trkpt><trkpt lat="47.80795786115416" lon="12.1156196491145"><ele>457.0</ele><time>2026-05-01T11:31:05Z</time></trkpt><trkpt lat="47.8079219467647" lon="12.11604524754242"><ele>457.0</ele><time>2026-05-01T11:31:06Z</time></trkpt><trkpt lat="47.807885047538164" lon="12.116470031692113"><ele>457.0</ele><time>2026-05-01T11:31:07Z</time></trkpt><trkpt lat="47.80784843232861" lon="12.116890841098568"><ele>456.5</ele><time>2026-05-01T11:31:08Z</time></trkpt><trkpt lat="47.80781332410798" lon="12.117308553742811"><ele>456.0</ele><time>2026-05-01T11:31:09Z</time></trkpt><trkpt lat="47.807775605335564" lon="12.117728746864358"><ele>455.0</ele><time>2026-05-01T11:31:10Z</time></trkpt><trkpt lat="47.80774105657593" lon="12.118149183976874"><ele>454.0</ele><time>2026-05-01T11:31:11Z</time></trkpt><trkpt lat="47.80770484398616" lon="12.118567342280475"><ele>454.0</ele><time>2026-05-01T11:31:12Z</time></trkpt><trkpt lat="47.80766812760082" lon="12.118986186926831"><ele>454.0</ele><time>2026-05-01T11:31:13Z</time></trkpt><trkpt lat="47.8076298101396" lon="12.119403220361775"><ele>454.5</ele><time>2026-05-01T11:31:14Z</time></trkpt><trkpt lat="47.80758829623646" lon="12.119819022304014"><ele>455.0</ele><time>2026-05-01T11:31:15Z</time></trkpt><trkpt lat="47.807550005898186" lon="12.120229803498672"><ele>455.0</ele><time>2026-05-01T11:31:16Z</time></trkpt><trkpt lat="47.80750830105228" lon="12.120637502340877"><ele>455.0</ele><time>2026-05-01T11:31:17Z</time></trkpt><trkpt lat="47.807477652772164" lon="12.121044305882977"><ele>454.0</ele><time>2026-05-01T11:31:18Z</time></trkpt><trkpt lat="47.80744600750761" lon="12.121450000049109"><ele>453.0</ele><time>2026-05-01T11:31:19Z</time></trkpt><trkpt lat="47.80741671524084" lon="12.121855419521141"><ele>452.5</ele><time>2026-05-01T11:31:20Z</time></trkpt><trkpt lat="47.807386775756314" lon="12.12225914442942"><ele>452.0</ele><time>2026-05-01T11:31:21Z</time></trkpt><trkpt lat="47.80735742977877" lon="12.122661247468239"><ele>452.0</ele><time>2026-05-01T11:31:22Z</time></trkpt><trkpt lat="47.80733037912392" lon="12.123067681131069"><ele>452.0</ele><time>2026-05-01T11:31:23Z</time></trkpt><trkpt lat="47.807301567733624" lon="12.123475534601003"><ele>452.0</ele><time>2026-05-01T11:31:24Z</time></trkpt><trkpt lat="47.80727947240454" lon="12.12389108454565"><ele>452.0</ele><time>2026-05-01T11:31:25Z</time></trkpt><trkpt lat="47.807247139312054" lon="12.124302532853733"><ele>452.0</ele><time>2026-05-01T11:31:26Z</time></trkpt><trkpt lat="47.807209239917555" lon="12.124720306963061"><ele>452.0</ele><time>2026-05-01T11:31:27Z</time></trkpt><trkpt lat="47.80717206473711" lon="12.125142639456117"><ele>453.0</ele><time>2026-05-01T11:31:28Z</time></trkpt><trkpt lat="47.8071343804105" lon="12.125567078369233"><ele>454.0</ele><time>2026-05-01T11:31:29Z</time></trkpt><trkpt lat="47.80709705840116" lon="12.125993240970226"><ele>454.0</ele><time>2026-05-01T11:31:30Z</time></trkpt><trkpt lat="47.80705809999347" lon="12.126422109166743"><ele>454.0</ele><time>2026-05-01T11:31:31Z</time></trkpt><trkpt lat="47.807019098915035" lon="12.126850712316353"><ele>454.0</ele><time>2026-05-01T11:31:32Z</time></trkpt><trkpt lat="47.8069803090809" lon="12.12728051255736"><ele>454.0</ele><time>2026-05-01T11:31:33Z</time></trkpt><trkpt lat="47.80694240253117" lon="12.127708941492504"><ele>453.5</ele><time>2026-05-01T11:31:34Z</time></trkpt><trkpt lat="47.80690465781824" lon="12.128136856323168"><ele>453.0</ele><time>2026-05-01T11:31:35Z</time></trkpt><trkpt lat="47.80686893186204" lon="12.12856721449084"><ele>452.5</ele><time>2026-05-01T11:31:36Z</time></trkpt><trkpt lat="47.80683129229025" lon="12.128995980077802"><ele>452.0</ele><time>2026-05-01T11:31:37Z</time></trkpt><trkpt lat="47.80679160047266" lon="12.129422961693109"><ele>452.0</ele><time>2026-05-01T11:31:38Z</time></trkpt><trkpt lat="47.80675061340813" lon="12.129849708582828"><ele>452.0</ele><time>2026-05-01T11:31:39Z</time></trkpt><trkpt lat="47.80670937180294" lon="12.130279036009751"><ele>452.5</ele><time>2026-05-01T11:31:40Z</time></trkpt><trkpt lat="47.80666952233823" lon="12.130708727023737"><ele>453.0</ele><time>2026-05-01T11:31:41Z</time></trkpt><trkpt lat="47.80663073912083" lon="12.131141640446756"><ele>452.0</ele><time>2026-05-01T11:31:42Z</time></trkpt><trkpt lat="47.80659374583918" lon="12.131575067983634"><ele>451.0</ele><time>2026-05-01T11:31:43Z</time></trkpt><trkpt lat="47.80655550297493" lon="12.132009801503449"><ele>451.5</ele><time>2026-05-01T11:31:44Z</time></trkpt><trkpt lat="47.80651803345073" lon="12.13244452006779"><ele>452.0</ele><time>2026-05-01T11:31:45Z</time></trkpt><trkpt lat="47.8064797958655" lon="12.132867547554659"><ele>452.5</ele><time>2026-05-01T11:31:46Z</time></trkpt><trkpt lat="47.806442188592015" lon="12.133264372408016"><ele>453.0</ele><time>2026-05-01T11:31:47Z</time></trkpt><trkpt lat="47.806404192859" lon="12.133666972491577"><ele>453.0</ele><time>2026-05-01T11:31:48Z</time></trkpt><trkpt lat="47.806362602815206" lon="12.134080526238076"><ele>453.0</ele><time>2026-05-01T11:31:49Z</time></trkpt><trkpt lat="47.806321572373506" lon="12.13447508319198"><ele>453.0</ele><time>2026-05-01T11:31:50Z</time></trkpt><trkpt lat="47.80628518488199" lon="12.134855668006386"><ele>453.0</ele><time>2026-05-01T11:31:51Z</time></trkpt><trkpt lat="47.80625340859602" lon="12.135251435480548"><ele>453.0</ele><time>2026-05-01T11:31:52Z</time></trkpt><trkpt lat="47.80622135146529" lon="12.135655275038433"><ele>453.0</ele><time>2026-05-01T11:31:53Z</time></trkpt><trkpt lat="47.80618414332804" lon="12.136065913227224"><ele>453.5</ele><time>2026-05-01T11:31:54Z</time></trkpt><trkpt lat="47.80614452935038" lon="12.13646662847991"><ele>454.0</ele><time>2026-05-01T11:31:55Z</time></trkpt><trkpt lat="47.80610429843125" lon="12.136856814653457"><ele>454.5</ele><time>2026-05-01T11:31:56Z</time></trkpt><trkpt lat="47.806062518114246" lon="12.137244189946875"><ele>455.0</ele><time>2026-05-01T11:31:57Z</time></trkpt><trkpt lat="47.806024239251855" lon="12.137634226030166"><ele>454.0</ele><time>2026-05-01T11:31:58Z</time></trkpt><trkpt lat="47.805988647263874" lon="12.138027688562152"><ele>453.0</ele><time>2026-05-01T11:31:59Z</time></trkpt><trkpt lat="47.80595456622466" lon="12.138423850412911"><ele>453.0</ele><time>2026-05-01T11:32:00Z</time></trkpt><trkpt lat="47.805921790133446" lon="12.138822457713664"><ele>453.0</ele><time>2026-05-01T11:32:01Z</time></trkpt><trkpt lat="47.80588718650177" lon="12.139221704467646"><ele>453.0</ele><time>2026-05-01T11:32:02Z</time></trkpt><trkpt lat="47.805851103702075" lon="12.139624374715508"><ele>453.0</ele><time>2026-05-01T11:32:03Z</time></trkpt><trkpt lat="47.80581427992029" lon="12.140038019640857"><ele>453.0</ele><time>2026-05-01T11:32:04Z</time></trkpt><trkpt lat="47.80577686512682" lon="12.140463115004971"><ele>453.0</ele><time>2026-05-01T11:32:05Z</time></trkpt><trkpt lat="47.80574097713552" lon="12.140893467605167"><ele>452.5</ele><time>2026-05-01T11:32:06Z</time></trkpt><trkpt lat="47.80570183223578" lon="12.141326062895063"><ele>452.0</ele><time>2026-05-01T11:32:07Z</time></trkpt><trkpt lat="47.80566105783084" lon="12.141755607403265"><ele>452.0</ele><time>2026-05-01T11:32:08Z</time></trkpt><trkpt lat="47.80562073964618" lon="12.142182131625084"><ele>452.0</ele><time>2026-05-01T11:32:09Z</time></trkpt><trkpt lat="47.80558174193374" lon="12.142605469454384"><ele>452.5</ele><time>2026-05-01T11:32:10Z</time></trkpt><trkpt lat="47.80554482412888" lon="12.143028207295036"><ele>453.0</ele><time>2026-05-01T11:32:11Z</time></trkpt><trkpt lat="47.8055080243521" lon="12.143454530425087"><ele>454.0</ele><time>2026-05-01T11:32:12Z</time></trkpt><trkpt lat="47.80547006435204" lon="12.143881729974527"><ele>455.0</ele><time>2026-05-01T11:32:13Z</time></trkpt><trkpt lat="47.80542658670233" lon="12.14431006349368"><ele>457.0</ele><time>2026-05-01T11:32:14Z</time></trkpt><trkpt lat="47.805380365480964" lon="12.144736464205057"><ele>459.0</ele><time>2026-05-01T11:32:15Z</time></trkpt><trkpt lat="47.805337680001536" lon="12.145159392900407"><ele>459.0</ele><time>2026-05-01T11:32:16Z</time></trkpt><trkpt lat="47.80530206706273" lon="12.145579216802025"><ele>459.0</ele><time>2026-05-01T11:32:17Z</time></trkpt><trkpt lat="47.805273169372576" lon="12.14599561218305"><ele>456.5</ele><time>2026-05-01T11:32:18Z</time></trkpt><trkpt lat="47.80524964792471" lon="12.146408549173346"><ele>454.0</ele><time>2026-05-01T11:32:19Z</time></trkpt><trkpt lat="47.805227720505435" lon="12.14681809295141"><ele>451.5</ele><time>2026-05-01T11:32:20Z</time></trkpt><trkpt lat="47.80520582749136" lon="12.147225033162002"><ele>449.0</ele><time>2026-05-01T11:32:21Z</time></trkpt><trkpt lat="47.805182648476276" lon="12.147628311479968"><ele>448.5</ele><time>2026-05-01T11:32:22Z</time></trkpt><trkpt lat="47.80515920606811" lon="12.148028543305822"><ele>448.0</ele><time>2026-05-01T11:32:23Z</time></trkpt><trkpt lat="47.8051341519113" lon="12.148428634981073"><ele>449.5</ele><time>2026-05-01T11:32:24Z</time></trkpt><trkpt lat="47.8051088640519" lon="12.148830155339095"><ele>451.0</ele><time>2026-05-01T11:32:25Z</time></trkpt><trkpt lat="47.80508235680541" lon="12.149234480164623"><ele>451.5</ele><time>2026-05-01T11:32:26Z</time></trkpt><trkpt lat="47.80505529462529" lon="12.149639140325695"><ele>452.0</ele><time>2026-05-01T11:32:27Z</time></trkpt><trkpt lat="47.80502859025001" lon="12.150042709591826"><ele>452.0</ele><time>2026-05-01T11:32:28Z</time></trkpt><trkpt lat="47.80500410219543" lon="12.150444946314131"><ele>452.0</ele><time>2026-05-01T11:32:29Z</time></trkpt><trkpt lat="47.8049785819695" lon="12.150848950447404"><ele>452.0</ele><time>2026-05-01T11:32:30Z</time></trkpt><trkpt lat="47.80495042322136" lon="12.151253598308125"><ele>452.0</ele><time>2026-05-01T11:32:31Z</time></trkpt><trkpt lat="47.80492230975653" lon="12.15165850494652"><ele>451.5</ele><time>2026-05-01T11:32:32Z</time></trkpt><trkpt lat="47.80489576845544" lon="12.152064342661472"><ele>451.0</ele><time>2026-05-01T11:32:33Z</time></trkpt><trkpt lat="47.804869701414724" lon="12.152471724933326"><ele>450.0</ele><time>2026-05-01T11:32:34Z</time></trkpt><trkpt lat="47.804843960592635" lon="12.15288079935699"><ele>449.0</ele><time>2026-05-01T11:32:35Z</time></trkpt><trkpt lat="47.80481854301217" lon="12.153293124083168"><ele>449.0</ele><time>2026-05-01T11:32:36Z</time></trkpt><trkpt lat="47.804792275919425" lon="12.153708693704706"><ele>449.0</ele><time>2026-05-01T11:32:37Z</time></trkpt><trkpt lat="47.80476411946361" lon="12.154124819082524"><ele>449.0</ele><time>2026-05-01T11:32:38Z</time></trkpt><trkpt lat="47.804733599022356" lon="12.154541594681845"><ele>449.0</ele><time>2026-05-01T11:32:39Z</time></trkpt><trkpt lat="47.80469963869576" lon="12.154954494734751"><ele>449.0</ele><time>2026-05-01T11:32:40Z</time></trkpt><trkpt lat="47.80466178573896" lon="12.1553644173902"><ele>449.0</ele><time>2026-05-01T11:32:41Z</time></trkpt><trkpt lat="47.80461920855953" lon="12.155772388691469"><ele>449.0</ele><time>2026-05-01T11:32:42Z</time></trkpt><trkpt lat="47.8045724998609" lon="12.156175202426489"><ele>449.0</ele><time>2026-05-01T11:32:43Z</time></trkpt><trkpt lat="47.804522289886826" lon="12.156575863387804"><ele>449.0</ele><time>2026-05-01T11:32:44Z</time></trkpt><trkpt lat="47.80446834073805" lon="12.156975733633432"><ele>449.0</ele><time>2026-05-01T11:32:45Z</time></trkpt><trkpt lat="47.804411639842215" lon="12.157376146030131"><ele>449.0</ele><time>2026-05-01T11:32:46Z</time></trkpt><trkpt lat="47.804354193237586" lon="12.157773495227808"><ele>449.0</ele><time>2026-05-01T11:32:47Z</time></trkpt><trkpt lat="47.80429870698034" lon="12.158172153187913"><ele>449.5</ele><time>2026-05-01T11:32:48Z</time></trkpt><trkpt lat="47.80424509531763" lon="12.15857221178147"><ele>450.0</ele><time>2026-05-01T11:32:49Z</time></trkpt><trkpt lat="47.80419152251182" lon="12.158973382380681"><ele>450.0</ele><time>2026-05-01T11:32:50Z</time></trkpt><trkpt lat="47.80414080774323" lon="12.159375863877"><ele>450.0</ele><time>2026-05-01T11:32:51Z</time></trkpt><trkpt lat="47.804094129654395" lon="12.159780179566702"><ele>450.0</ele><time>2026-05-01T11:32:52Z</time></trkpt><trkpt lat="47.80404331859439" lon="12.160184936681288"><ele>450.0</ele><time>2026-05-01T11:32:53Z</time></trkpt><trkpt lat="47.80398798676727" lon="12.160587465413313"><ele>450.0</ele><time>2026-05-01T11:32:54Z</time></trkpt><trkpt lat="47.803929738708675" lon="12.160990639983472"><ele>450.0</ele><time>2026-05-01T11:32:55Z</time></trkpt><trkpt lat="47.80387101949819" lon="12.16139437858096"><ele>450.0</ele><time>2026-05-01T11:32:56Z</time></trkpt><trkpt lat="47.80381410793362" lon="12.161799706696437"><ele>450.0</ele><time>2026-05-01T11:32:57Z</time></trkpt><trkpt lat="47.80375856039321" lon="12.1622061082624"><ele>451.0</ele><time>2026-05-01T11:32:58Z</time></trkpt><trkpt lat="47.80370147373127" lon="12.162613302571836"><ele>452.0</ele><time>2026-05-01T11:32:59Z</time></trkpt><trkpt lat="47.803642421254466" lon="12.16302146516026"><ele>454.5</ele><time>2026-05-01T11:33:00Z</time></trkpt><trkpt lat="47.80358152554971" lon="12.163429032290248"><ele>457.0</ele><time>2026-05-01T11:33:01Z</time></trkpt><trkpt lat="47.803523339581254" lon="12.1638342823966"><ele>457.5</ele><time>2026-05-01T11:33:02Z</time></trkpt><trkpt lat="47.803464229287684" lon="12.164239175288193"><ele>458.0</ele><time>2026-05-01T11:33:03Z</time></trkpt><trkpt lat="47.80340759960105" lon="12.164643523538496"><ele>460.0</ele><time>2026-05-01T11:33:04Z</time></trkpt><trkpt lat="47.80335070883236" lon="12.165046846077228"><ele>462.0</ele><time>2026-05-01T11:33:05Z</time></trkpt><trkpt lat="47.80329559124099" lon="12.165448454148994"><ele>464.5</ele><time>2026-05-01T11:33:06Z</time></trkpt><trkpt lat="47.80324241095324" lon="12.165849894220605"><ele>467.0</ele><time>2026-05-01T11:33:07Z</time></trkpt><trkpt lat="47.80318790636346" lon="12.166250105550215"><ele>471.5</ele><time>2026-05-01T11:33:08Z</time></trkpt><trkpt lat="47.80313156558043" lon="12.1666523600031"><ele>476.0</ele><time>2026-05-01T11:33:09Z</time></trkpt><trkpt lat="47.80307411898817" lon="12.167056960237732"><ele>479.0</ele><time>2026-05-01T11:33:10Z</time></trkpt><trkpt lat="47.803018739689904" lon="12.167462323057002"><ele>482.0</ele><time>2026-05-01T11:33:11Z</time></trkpt><trkpt lat="47.8029622913716" lon="12.16786802275583"><ele>481.5</ele><time>2026-05-01T11:33:12Z</time></trkpt><trkpt lat="47.80290494946424" lon="12.16827414724744"><ele>481.0</ele><time>2026-05-01T11:33:13Z</time></trkpt><trkpt lat="47.802849245931995" lon="12.168680717980374"><ele>482.0</ele><time>2026-05-01T11:33:14Z</time></trkpt><trkpt lat="47.802794885492034" lon="12.169087991855523"><ele>483.0</ele><time>2026-05-01T11:33:15Z</time></trkpt><trkpt lat="47.80274389635952" lon="12.169497896349752"><ele>483.5</ele><time>2026-05-01T11:33:16Z</time></trkpt><trkpt lat="47.8026983864575" lon="12.169908519811418"><ele>484.0</ele><time>2026-05-01T11:33:17Z</time></trkpt><trkpt lat="47.80265765877478" lon="12.170317732867836"><ele>478.5</ele><time>2026-05-01T11:33:18Z</time></trkpt><trkpt lat="47.80261606552332" lon="12.170724818078828"><ele>473.0</ele><time>2026-05-01T11:33:19Z</time></trkpt><trkpt lat="47.802573667546746" lon="12.171132903908251"><ele>473.5</ele><time>2026-05-01T11:33:20Z</time></trkpt><trkpt lat="47.80253658262018" lon="12.171543627727726"><ele>474.0</ele><time>2026-05-01T11:33:21Z</time></trkpt><trkpt lat="47.802506240431136" lon="12.17195424673183"><ele>474.5</ele><time>2026-05-01T11:33:22Z</time></trkpt><trkpt lat="47.802483259413634" lon="12.172368877993911"><ele>475.0</ele><time>2026-05-01T11:33:23Z</time></trkpt><trkpt lat="47.802465338596626" lon="12.172786826296342"><ele>474.0</ele><time>2026-05-01T11:33:24Z</time></trkpt><trkpt lat="47.80245461828828" lon="12.17320692880675"><ele>473.0</ele><time>2026-05-01T11:33:25Z</time></trkpt><trkpt lat="47.80244995003525" lon="12.173622667278565"><ele>473.5</ele><time>2026-05-01T11:33:26Z</time></trkpt><trkpt lat="47.80244675819844" lon="12.174030554896534"><ele>474.0</ele><time>2026-05-01T11:33:27Z</time></trkpt><trkpt lat="47.80244201046291" lon="12.174420241267716"><ele>474.0</ele><time>2026-05-01T11:33:28Z</time></trkpt><trkpt lat="47.80243413298846" lon="12.174824951977481"><ele>474.0</ele><time>2026-05-01T11:33:29Z</time></trkpt><trkpt lat="47.80242472161474" lon="12.175235013179416"><ele>474.0</ele><time>2026-05-01T11:33:30Z</time></trkpt><trkpt lat="47.80241746154073" lon="12.175648402335096"><ele>474.0</ele><time>2026-05-01T11:33:31Z</time></trkpt><trkpt lat="47.80241259462526" lon="12.176063774477646"><ele>474.0</ele><time>2026-05-01T11:33:32Z</time></trkpt><trkpt lat="47.80240571004528" lon="12.176477718139418"><ele>474.0</ele><time>2026-05-01T11:33:33Z</time></trkpt><trkpt lat="47.80239853766389" lon="12.176890895251464"><ele>474.5</ele><time>2026-05-01T11:33:34Z</time></trkpt><trkpt lat="47.80238986236944" lon="12.177302565899424"><ele>475.0</ele><time>2026-05-01T11:33:35Z</time></trkpt><trkpt lat="47.80238277339116" lon="12.177711881479723"><ele>475.0</ele><time>2026-05-01T11:33:36Z</time></trkpt><trkpt lat="47.80237691058083" lon="12.178119150771474"><ele>475.0</ele><time>2026-05-01T11:33:37Z</time></trkpt><trkpt lat="47.802368725933846" lon="12.178526867567252"><ele>476.0</ele><time>2026-05-01T11:33:38Z</time></trkpt><trkpt lat="47.80236018221379" lon="12.17893301793256"><ele>477.0</ele><time>2026-05-01T11:33:39Z</time></trkpt><trkpt lat="47.80234977845309" lon="12.17933822543082"><ele>477.0</ele><time>2026-05-01T11:33:40Z</time></trkpt><trkpt lat="47.80234187809735" lon="12.179742007370727"><ele>477.0</ele><time>2026-05-01T11:33:41Z</time></trkpt><trkpt lat="47.80233478538313" lon="12.180145409869647"><ele>477.0</ele><time>2026-05-01T11:33:42Z</time></trkpt><trkpt lat="47.802328926904615" lon="12.18055268541303"><ele>477.0</ele><time>2026-05-01T11:33:43Z</time></trkpt><trkpt lat="47.802318743075524" lon="12.180962480248612"><ele>478.0</ele><time>2026-05-01T11:33:44Z</time></trkpt><trkpt lat="47.80230924770436" lon="12.181378752563917"><ele>479.0</ele><time>2026-05-01T11:33:45Z</time></trkpt><trkpt lat="47.802298780030675" lon="12.18179051588096"><ele>480.5</ele><time>2026-05-01T11:33:46Z</time></trkpt><trkpt lat="47.802295092141875" lon="12.182203416558915"><ele>482.0</ele><time>2026-05-01T11:33:47Z</time></trkpt><trkpt lat="47.80228937983509" lon="12.182615513906102"><ele>483.0</ele><time>2026-05-01T11:33:48Z</time></trkpt><trkpt lat="47.80228434126739" lon="12.183023368498267"><ele>484.0</ele><time>2026-05-01T11:33:49Z</time></trkpt><trkpt lat="47.80227589636252" lon="12.183429669784253"><ele>484.0</ele><time>2026-05-01T11:33:50Z</time></trkpt><trkpt lat="47.80226624188954" lon="12.183835961444164"><ele>484.0</ele><time>2026-05-01T11:33:51Z</time></trkpt><trkpt lat="47.80225533068822" lon="12.184243631325511"><ele>484.0</ele><time>2026-05-01T11:33:52Z</time></trkpt><trkpt lat="47.80224089264148" lon="12.184653217228561"><ele>484.0</ele><time>2026-05-01T11:33:53Z</time></trkpt><trkpt lat="47.80221928958595" lon="12.185060881873781"><ele>484.5</ele><time>2026-05-01T11:33:54Z</time></trkpt><trkpt lat="47.80218625098006" lon="12.18546826725078"><ele>485.0</ele><time>2026-05-01T11:33:55Z</time></trkpt><trkpt lat="47.802143797282" lon="12.185874267247602"><ele>486.0</ele><time>2026-05-01T11:33:56Z</time></trkpt><trkpt lat="47.802088261822306" lon="12.186279473985064"><ele>487.0</ele><time>2026-05-01T11:33:57Z</time></trkpt><trkpt lat="47.80202536676989" lon="12.186684468299754"><ele>487.0</ele><time>2026-05-01T11:33:58Z</time></trkpt><trkpt lat="47.801952209353004" lon="12.187086920558624"><ele>487.0</ele><time>2026-05-01T11:33:59Z</time></trkpt><trkpt lat="47.80187047321342" lon="12.187485267251674"><ele>488.5</ele><time>2026-05-01T11:34:00Z</time></trkpt><trkpt lat="47.80177949365952" lon="12.187878954779157"><ele>490.0</ele><time>2026-05-01T11:34:01Z</time></trkpt><trkpt lat="47.801679717730075" lon="12.188268976090393"><ele>490.5</ele><time>2026-05-01T11:34:02Z</time></trkpt><trkpt lat="47.80156932631236" lon="12.18865345697811"><ele>491.0</ele><time>2026-05-01T11:34:03Z</time></trkpt><trkpt lat="47.80144692144607" lon="12.18903057994427"><ele>492.5</ele><time>2026-05-01T11:34:04Z</time></trkpt><trkpt lat="47.801310944449" lon="12.189397950494731"><ele>494.0</ele><time>2026-05-01T11:34:05Z</time></trkpt><trkpt lat="47.80116254401117" lon="12.1897577754343"><ele>495.5</ele><time>2026-05-01T11:34:06Z</time></trkpt><trkpt lat="47.801008536255814" lon="12.190114632349152"><ele>497.0</ele><time>2026-05-01T11:34:07Z</time></trkpt><trkpt lat="47.800845866094384" lon="12.190470323568828"><ele>496.0</ele><time>2026-05-01T11:34:08Z</time></trkpt><trkpt lat="47.8006781353883" lon="12.190819703578072"><ele>495.0</ele><time>2026-05-01T11:34:09Z</time></trkpt><trkpt lat="47.80049874724076" lon="12.191157872815625"><ele>495.0</ele><time>2026-05-01T11:34:10Z</time></trkpt><trkpt lat="47.8003120167548" lon="12.19148399922676"><ele>495.0</ele><time>2026-05-01T11:34:11Z</time></trkpt><trkpt lat="47.800119406660265" lon="12.191802550687365"><ele>496.0</ele><time>2026-05-01T11:34:12Z</time></trkpt><trkpt lat="47.79992191716206" lon="12.192112257710937"><ele>497.0</ele><time>2026-05-01T11:34:13Z</time></trkpt><trkpt lat="47.799720273212834" lon="12.192417929217312"><ele>497.0</ele><time>2026-05-01T11:34:14Z</time></trkpt><trkpt lat="47.799517466288165" lon="12.192722581297858"><ele>497.0</ele><time>2026-05-01T11:34:15Z</time></trkpt><trkpt lat="47.79931542834838" lon="12.193028393239935"><ele>500.0</ele><time>2026-05-01T11:34:16Z</time></trkpt><trkpt lat="47.799117348994905" lon="12.193338342032703"><ele>503.0</ele><time>2026-05-01T11:34:17Z</time></trkpt><trkpt lat="47.79892090311358" lon="12.193648057543195"><ele>503.0</ele><time>2026-05-01T11:34:18Z</time></trkpt><trkpt lat="47.79872333435874" lon="12.193956513454102"><ele>503.0</ele><time>2026-05-01T11:34:19Z</time></trkpt><trkpt lat="47.79852476658304" lon="12.194262888841518"><ele>505.0</ele><time>2026-05-01T11:34:20Z</time></trkpt><trkpt lat="47.79832716955624" lon="12.194568542877386"><ele>507.0</ele><time>2026-05-01T11:34:21Z</time></trkpt><trkpt lat="47.79813321477625" lon="12.194876074812747"><ele>508.0</ele><time>2026-05-01T11:34:22Z</time></trkpt><trkpt lat="47.79794539405195" lon="12.19519366321162"><ele>509.0</ele><time>2026-05-01T11:34:23Z</time></trkpt><trkpt lat="47.7977664196913" lon="12.19552240592043"><ele>509.5</ele><time>2026-05-01T11:34:24Z</time></trkpt><trkpt lat="47.79759868986111" lon="12.195857828230718"><ele>510.0</ele><time>2026-05-01T11:34:25Z</time></trkpt><trkpt lat="47.79743862339741" lon="12.196202683020918"><ele>511.5</ele><time>2026-05-01T11:34:26Z</time></trkpt><trkpt lat="47.79728738912538" lon="12.196553439336617"><ele>513.0</ele><time>2026-05-01T11:34:27Z</time></trkpt><trkpt lat="47.79714372919146" lon="12.19691157274942"><ele>513.0</ele><time>2026-05-01T11:34:28Z</time></trkpt><trkpt lat="47.79700281928814" lon="12.197267137837247"><ele>513.0</ele><time>2026-05-01T11:34:29Z</time></trkpt><trkpt lat="47.79687703547461" lon="12.197612600589453"><ele>518.5</ele><time>2026-05-01T11:34:30Z</time></trkpt><trkpt lat="47.796766977032526" lon="12.197943420829878"><ele>524.0</ele><time>2026-05-01T11:34:31Z</time></trkpt><trkpt lat="47.796658980202444" lon="12.198287582146259"><ele>524.0</ele><time>2026-05-01T11:34:32Z</time></trkpt><trkpt lat="47.79655967739357" lon="12.198638507337186"><ele>524.0</ele><time>2026-05-01T11:34:33Z</time></trkpt><trkpt lat="47.79646988801264" lon="12.198991766402184"><ele>523.5</ele><time>2026-05-01T11:34:34Z</time></trkpt><trkpt lat="47.796387512773485" lon="12.199328656161361"><ele>523.0</ele><time>2026-05-01T11:34:35Z</time></trkpt><trkpt lat="47.796313455058474" lon="12.199668436108386"><ele>524.0</ele><time>2026-05-01T11:34:36Z</time></trkpt><trkpt lat="47.79624913617625" lon="12.200009704425211"><ele>525.0</ele><time>2026-05-01T11:34:37Z</time></trkpt><trkpt lat="47.79619012847083" lon="12.200356471278013"><ele>525.5</ele><time>2026-05-01T11:34:38Z</time></trkpt><trkpt lat="47.796132941315236" lon="12.2007046262353"><ele>526.0</ele><time>2026-05-01T11:34:39Z</time></trkpt><trkpt lat="47.79608753572609" lon="12.20104868324668"><ele>526.0</ele><time>2026-05-01T11:34:40Z</time></trkpt><trkpt lat="47.79605395049056" lon="12.201402935001811"><ele>526.0</ele><time>2026-05-01T11:34:41Z</time></trkpt><trkpt lat="47.796023153633314" lon="12.201765063191703"><ele>528.0</ele><time>2026-05-01T11:34:42Z</time></trkpt><trkpt lat="47.79599422285818" lon="12.202130851174681"><ele>530.0</ele><time>2026-05-01T11:34:43Z</time></trkpt><trkpt lat="47.79597200709131" lon="12.20250097973281"><ele>530.0</ele><time>2026-05-01T11:34:44Z</time></trkpt><trkpt lat="47.79595804418293" lon="12.20285159415273"><ele>530.0</ele><time>2026-05-01T11:34:45Z</time></trkpt><trkpt lat="47.79595137454747" lon="12.203197896018933"><ele>527.5</ele><time>2026-05-01T11:34:46Z</time></trkpt><trkpt lat="47.79594862610708" lon="12.203565250579867"><ele>525.0</ele><time>2026-05-01T11:34:47Z</time></trkpt><trkpt lat="47.79595016313912" lon="12.20394395937588"><ele>521.5</ele><time>2026-05-01T11:34:48Z</time></trkpt><trkpt lat="47.79596001789777" lon="12.204329332448333"><ele>518.0</ele><time>2026-05-01T11:34:49Z</time></trkpt><trkpt lat="47.79597736702131" lon="12.204724607580179"><ele>523.5</ele><time>2026-05-01T11:34:50Z</time></trkpt><trkpt lat="47.79600558311241" lon="12.205123038835588"><ele>529.0</ele><time>2026-05-01T11:34:51Z</time></trkpt><trkpt lat="47.796043979511936" lon="12.205523730864671"><ele>527.0</ele><time>2026-05-01T11:34:52Z</time></trkpt><trkpt lat="47.79608763855102" lon="12.205921293714514"><ele>525.0</ele><time>2026-05-01T11:34:53Z</time></trkpt><trkpt lat="47.79613758442783" lon="12.206314403352998"><ele>524.0</ele><time>2026-05-01T11:34:54Z</time></trkpt><trkpt lat="47.796194409378934" lon="12.206702608509318"><ele>523.0</ele><time>2026-05-01T11:34:55Z</time></trkpt><trkpt lat="47.79625443587256" lon="12.207084247419534"><ele>521.0</ele><time>2026-05-01T11:34:56Z</time></trkpt><trkpt lat="47.7963167626881" lon="12.207464802120274"><ele>519.0</ele><time>2026-05-01T11:34:57Z</time></trkpt><trkpt lat="47.79637689390037" lon="12.207852845301481"><ele>518.5</ele><time>2026-05-01T11:34:58Z</time></trkpt><trkpt lat="47.79643606523045" lon="12.20824319363381"><ele>518.0</ele><time>2026-05-01T11:34:59Z</time></trkpt><trkpt lat="47.79649441408393" lon="12.208636583865452"><ele>518.0</ele><time>2026-05-01T11:35:00Z</time></trkpt><trkpt lat="47.79655335325343" lon="12.209030725873964"><ele>518.0</ele><time>2026-05-01T11:35:01Z</time></trkpt><trkpt lat="47.79661516872477" lon="12.209425421710685"><ele>518.0</ele><time>2026-05-01T11:35:02Z</time></trkpt><trkpt lat="47.79667105516468" lon="12.209817253105813"><ele>518.0</ele><time>2026-05-01T11:35:03Z</time></trkpt><trkpt lat="47.79671922839419" lon="12.210211273287415"><ele>518.5</ele><time>2026-05-01T11:35:04Z</time></trkpt><trkpt lat="47.79676127421643" lon="12.21061155220508"><ele>519.0</ele><time>2026-05-01T11:35:05Z</time></trkpt><trkpt lat="47.796788588676286" lon="12.211018982252174"><ele>518.5</ele><time>2026-05-01T11:35:06Z</time></trkpt><trkpt lat="47.796805679631426" lon="12.211434118595749"><ele>518.0</ele><time>2026-05-01T11:35:07Z</time></trkpt><trkpt lat="47.79681016840282" lon="12.211855151268876"><ele>518.0</ele><time>2026-05-01T11:35:08Z</time></trkpt><trkpt lat="47.79680440295426" lon="12.212282095833874"><ele>518.0</ele><time>2026-05-01T11:35:09Z</time></trkpt><trkpt lat="47.79678974509999" lon="12.21271187723848"><ele>517.0</ele><time>2026-05-01T11:35:10Z</time></trkpt><trkpt lat="47.79676589556583" lon="12.21314335042369"><ele>516.0</ele><time>2026-05-01T11:35:11Z</time></trkpt><trkpt lat="47.79673139078512" lon="12.213576200574467"><ele>516.5</ele><time>2026-05-01T11:35:12Z</time></trkpt><trkpt lat="47.79669015356855" lon="12.214006821198064"><ele>517.0</ele><time>2026-05-01T11:35:13Z</time></trkpt><trkpt lat="47.79664651799506" lon="12.21443772086214"><ele>517.5</ele><time>2026-05-01T11:35:14Z</time></trkpt><trkpt lat="47.79660396172442" lon="12.214867936256876"><ele>518.0</ele><time>2026-05-01T11:35:15Z</time></trkpt><trkpt lat="47.796564199862196" lon="12.215297102591062"><ele>519.5</ele><time>2026-05-01T11:35:16Z</time></trkpt><trkpt lat="47.796525316321656" lon="12.215726195325722"><ele>521.0</ele><time>2026-05-01T11:35:17Z</time></trkpt><trkpt lat="47.796487569396746" lon="12.216154606197101"><ele>524.0</ele><time>2026-05-01T11:35:18Z</time></trkpt><trkpt lat="47.79645088859651" lon="12.216584153307567"><ele>527.0</ele><time>2026-05-01T11:35:19Z</time></trkpt><trkpt lat="47.79641340961224" lon="12.217016128781552"><ele>529.0</ele><time>2026-05-01T11:35:20Z</time></trkpt><trkpt lat="47.79638346000202" lon="12.217450507053035"><ele>531.0</ele><time>2026-05-01T11:35:21Z</time></trkpt><trkpt lat="47.79636833873588" lon="12.217886568832148"><ele>533.0</ele><time>2026-05-01T11:35:22Z</time></trkpt><trkpt lat="47.796370208891716" lon="12.218324068594477"><ele>535.0</ele><time>2026-05-01T11:35:23Z</time></trkpt><trkpt lat="47.79638724489291" lon="12.218761712761834"><ele>533.0</ele><time>2026-05-01T11:35:24Z</time></trkpt><trkpt lat="47.79641476494457" lon="12.219191459673368"><ele>531.0</ele><time>2026-05-01T11:35:25Z</time></trkpt><trkpt lat="47.79645610984005" lon="12.219621789948274"><ele>529.5</ele><time>2026-05-01T11:35:26Z</time></trkpt><trkpt lat="47.7965076066451" lon="12.220049052573955"><ele>528.0</ele><time>2026-05-01T11:35:27Z</time></trkpt><trkpt lat="47.796568683208804" lon="12.220474736448447"><ele>528.5</ele><time>2026-05-01T11:35:28Z</time></trkpt><trkpt lat="47.79663615280187" lon="12.220897810533026"><ele>529.0</ele><time>2026-05-01T11:35:29Z</time></trkpt><trkpt lat="47.796702960574905" lon="12.221317679190534"><ele>526.5</ele><time>2026-05-01T11:35:30Z</time></trkpt><trkpt lat="47.79676744825127" lon="12.221732330396305"><ele>524.0</ele><time>2026-05-01T11:35:31Z</time></trkpt><trkpt lat="47.796827822114494" lon="12.222144857330994"><ele>530.5</ele><time>2026-05-01T11:35:32Z</time></trkpt><trkpt lat="47.796892072406905" lon="12.222561432689133"><ele>537.0</ele><time>2026-05-01T11:35:33Z</time></trkpt><trkpt lat="47.79695395064874" lon="12.222979563689687"><ele>531.0</ele><time>2026-05-01T11:35:34Z</time></trkpt><trkpt lat="47.797016091196284" lon="12.223399494105033"><ele>525.0</ele><time>2026-05-01T11:35:35Z</time></trkpt><trkpt lat="47.79707825048139" lon="12.223818526513634"><ele>524.0</ele><time>2026-05-01T11:35:36Z</time></trkpt><trkpt lat="47.79714296115117" lon="12.224232922070875"><ele>523.0</ele><time>2026-05-01T11:35:37Z</time></trkpt><trkpt lat="47.79720681904019" lon="12.224643657477188"><ele>524.0</ele><time>2026-05-01T11:35:38Z</time></trkpt><trkpt lat="47.797270057795764" lon="12.225054148499293"><ele>525.0</ele><time>2026-05-01T11:35:39Z</time></trkpt><trkpt lat="47.79733405416103" lon="12.225465219510285"><ele>525.5</ele><time>2026-05-01T11:35:40Z</time></trkpt><trkpt lat="47.797398086046115" lon="12.225877012729155"><ele>526.0</ele><time>2026-05-01T11:35:41Z</time></trkpt><trkpt lat="47.797459805678834" lon="12.226286988469985"><ele>527.5</ele><time>2026-05-01T11:35:42Z</time></trkpt><trkpt lat="47.797522966170646" lon="12.226695175891315"><ele>529.0</ele><time>2026-05-01T11:35:43Z</time></trkpt><trkpt lat="47.79758422286045" lon="12.227103972865049"><ele>530.0</ele><time>2026-05-01T11:35:44Z</time></trkpt><trkpt lat="47.79764220556176" lon="12.227514405139896"><ele>531.0</ele><time>2026-05-01T11:35:45Z</time></trkpt><trkpt lat="47.79769529190609" lon="12.227926534304762"><ele>537.0</ele><time>2026-05-01T11:35:46Z</time></trkpt><trkpt lat="47.79774552904927" lon="12.228338382684006"><ele>543.0</ele><time>2026-05-01T11:35:47Z</time></trkpt><trkpt lat="47.79779552552579" lon="12.228751498265567"><ele>545.0</ele><time>2026-05-01T11:35:48Z</time></trkpt><trkpt lat="47.79784119020576" lon="12.229167350945747"><ele>547.0</ele><time>2026-05-01T11:35:49Z</time></trkpt><trkpt lat="47.7978798033918" lon="12.229586056566665"><ele>549.5</ele><time>2026-05-01T11:35:50Z</time></trkpt><trkpt lat="47.79791312837163" lon="12.2300072875726"><ele>552.0</ele><time>2026-05-01T11:35:51Z</time></trkpt><trkpt lat="47.79794540500989" lon="12.230430971771598"><ele>549.0</ele><time>2026-05-01T11:35:52Z</time></trkpt><trkpt lat="47.79797871094041" lon="12.230855939964254"><ele>546.0</ele><time>2026-05-01T11:35:53Z</time></trkpt><trkpt lat="47.7980112209664" lon="12.2312815452198"><ele>543.5</ele><time>2026-05-01T11:35:54Z</time></trkpt><trkpt lat="47.79804014230766" lon="12.231705531698335"><ele>541.0</ele><time>2026-05-01T11:35:55Z</time></trkpt><trkpt lat="47.79806806387966" lon="12.232130201948852"><ele>539.5</ele><time>2026-05-01T11:35:56Z</time></trkpt><trkpt lat="47.79809547645375" lon="12.232552401349864"><ele>538.0</ele><time>2026-05-01T11:35:57Z</time></trkpt><trkpt lat="47.7981175331815" lon="12.232969793554746"><ele>539.5</ele><time>2026-05-01T11:35:58Z</time></trkpt><trkpt lat="47.79813558979291" lon="12.233384424159283"><ele>541.0</ele><time>2026-05-01T11:35:59Z</time></trkpt><trkpt lat="47.79814812302603" lon="12.233795041459635"><ele>544.0</ele><time>2026-05-01T11:36:00Z</time></trkpt><trkpt lat="47.798160551691645" lon="12.234201994941147"><ele>547.0</ele><time>2026-05-01T11:36:01Z</time></trkpt><trkpt lat="47.7981732512312" lon="12.234610291561074"><ele>546.5</ele><time>2026-05-01T11:36:02Z</time></trkpt><trkpt lat="47.7981847151057" lon="12.23502240539298"><ele>546.0</ele><time>2026-05-01T11:36:03Z</time></trkpt><trkpt lat="47.798195690879396" lon="12.235437336199116"><ele>547.5</ele><time>2026-05-01T11:36:04Z</time></trkpt><trkpt lat="47.79820407968741" lon="12.23585450491964"><ele>549.0</ele><time>2026-05-01T11:36:05Z</time></trkpt><trkpt lat="47.798206360958034" lon="12.236274552678388"><ele>551.0</ele><time>2026-05-01T11:36:06Z</time></trkpt><trkpt lat="47.798200784127836" lon="12.236695207628282"><ele>553.0</ele><time>2026-05-01T11:36:07Z</time></trkpt><trkpt lat="47.79818936434565" lon="12.237116967471579"><ele>554.5</ele><time>2026-05-01T11:36:08Z</time></trkpt><trkpt lat="47.79817486414253" lon="12.237543119741494"><ele>556.0</ele><time>2026-05-01T11:36:09Z</time></trkpt><trkpt lat="47.7981606708979" lon="12.237971519122105"><ele>556.5</ele><time>2026-05-01T11:36:10Z</time></trkpt><trkpt lat="47.798146469034876" lon="12.238403521334284"><ele>557.0</ele><time>2026-05-01T11:36:11Z</time></trkpt><trkpt lat="47.79813298767914" lon="12.238839145080558"><ele>556.0</ele><time>2026-05-01T11:36:12Z</time></trkpt><trkpt lat="47.79812178869501" lon="12.239276675904126"><ele>555.0</ele><time>2026-05-01T11:36:13Z</time></trkpt><trkpt lat="47.79811000113412" lon="12.239713904679437"><ele>554.5</ele><time>2026-05-01T11:36:14Z</time></trkpt><trkpt lat="47.798098471857145" lon="12.240153543080584"><ele>554.0</ele><time>2026-05-01T11:36:15Z</time></trkpt><trkpt lat="47.7980878217545" lon="12.240589602728894"><ele>554.5</ele><time>2026-05-01T11:36:16Z</time></trkpt><trkpt lat="47.79807621731044" lon="12.241020646252075"><ele>555.0</ele><time>2026-05-01T11:36:17Z</time></trkpt><trkpt lat="47.798062382336255" lon="12.24145158723791"><ele>555.0</ele><time>2026-05-01T11:36:18Z</time></trkpt><trkpt lat="47.79805178385391" lon="12.241884692419706"><ele>555.0</ele><time>2026-05-01T11:36:19Z</time></trkpt><trkpt lat="47.798042644238464" lon="12.242318095812651"><ele>555.0</ele><time>2026-05-01T11:36:20Z</time></trkpt><trkpt lat="47.798034224986054" lon="12.242749535744132"><ele>555.0</ele><time>2026-05-01T11:36:21Z</time></trkpt><trkpt lat="47.7980248847077" lon="12.243179378554524"><ele>556.5</ele><time>2026-05-01T11:36:22Z</time></trkpt><trkpt lat="47.79801145109598" lon="12.24360889726184"><ele>558.0</ele><time>2026-05-01T11:36:23Z</time></trkpt><trkpt lat="47.79799560909765" lon="12.244039606543705"><ele>558.5</ele><time>2026-05-01T11:36:24Z</time></trkpt><trkpt lat="47.797981723627" lon="12.244472310671062"><ele>559.0</ele><time>2026-05-01T11:36:25Z</time></trkpt><trkpt lat="47.797973122844375" lon="12.24490589780607"><ele>559.0</ele><time>2026-05-01T11:36:26Z</time></trkpt><trkpt lat="47.79796800946064" lon="12.245336026977844"><ele>559.0</ele><time>2026-05-01T11:36:27Z</time></trkpt><trkpt lat="47.79797201736644" lon="12.245757235998086"><ele>559.0</ele><time>2026-05-01T11:36:28Z</time></trkpt><trkpt lat="47.79798372393664" lon="12.24616001827239"><ele>559.0</ele><time>2026-05-01T11:36:29Z</time></trkpt><trkpt lat="47.79799397254855" lon="12.246574285924021"><ele>557.5</ele><time>2026-05-01T11:36:30Z</time></trkpt><trkpt lat="47.79800051093805" lon="12.246999646006559"><ele>556.0</ele><time>2026-05-01T11:36:31Z</time></trkpt><trkpt lat="47.79800912213611" lon="12.247430011664605"><ele>555.5</ele><time>2026-05-01T11:36:32Z</time></trkpt><trkpt lat="47.79802441238204" lon="12.247863618360805"><ele>555.0</ele><time>2026-05-01T11:36:33Z</time></trkpt><trkpt lat="47.79804291530999" lon="12.248301659937708"><ele>557.5</ele><time>2026-05-01T11:36:34Z</time></trkpt><trkpt lat="47.79806788928048" lon="12.248738652483235"><ele>560.0</ele><time>2026-05-01T11:36:35Z</time></trkpt><trkpt lat="47.79808943212482" lon="12.249178120840412"><ele>561.0</ele><time>2026-05-01T11:36:36Z</time></trkpt><trkpt lat="47.798113365377795" lon="12.249617082101741"><ele>562.0</ele><time>2026-05-01T11:36:37Z</time></trkpt><trkpt lat="47.7981372475913" lon="12.250046842487944"><ele>562.0</ele><time>2026-05-01T11:36:38Z</time></trkpt><trkpt lat="47.79816083081346" lon="12.250469467108188"><ele>562.0</ele><time>2026-05-01T11:36:39Z</time></trkpt><trkpt lat="47.798189073216584" lon="12.250887641447289"><ele>562.0</ele><time>2026-05-01T11:36:40Z</time></trkpt><trkpt lat="47.79821887454253" lon="12.251305945776805"><ele>562.0</ele><time>2026-05-01T11:36:41Z</time></trkpt><trkpt lat="47.79825185812828" lon="12.251724203313366"><ele>562.5</ele><time>2026-05-01T11:36:42Z</time></trkpt><trkpt lat="47.79828975289379" lon="12.252138887505064"><ele>563.0</ele><time>2026-05-01T11:36:43Z</time></trkpt><trkpt lat="47.798330303609916" lon="12.252552797945745"><ele>563.0</ele><time>2026-05-01T11:36:44Z</time></trkpt><trkpt lat="47.79837322619847" lon="12.252964336585997"><ele>563.0</ele><time>2026-05-01T11:36:45Z</time></trkpt><trkpt lat="47.798419266659806" lon="12.25337658840956"><ele>564.0</ele><time>2026-05-01T11:36:46Z</time></trkpt><trkpt lat="47.79846521419517" lon="12.253791560046832"><ele>565.0</ele><time>2026-05-01T11:36:47Z</time></trkpt><trkpt lat="47.798512543846634" lon="12.254208837979217"><ele>568.5</ele><time>2026-05-01T11:36:48Z</time></trkpt><trkpt lat="47.79856113930616" lon="12.2546250779858"><ele>572.0</ele><time>2026-05-01T11:36:49Z</time></trkpt><trkpt lat="47.79861297522808" lon="12.255042639804518"><ele>572.0</ele><time>2026-05-01T11:36:50Z</time></trkpt><trkpt lat="47.79866770965127" lon="12.255459218009953"><ele>572.0</ele><time>2026-05-01T11:36:51Z</time></trkpt><trkpt lat="47.79872398129125" lon="12.2558736066087"><ele>570.5</ele><time>2026-05-01T11:36:52Z</time></trkpt><trkpt lat="47.798782055401446" lon="12.256290753929093"><ele>569.0</ele><time>2026-05-01T11:36:53Z</time></trkpt><trkpt lat="47.79883989448214" lon="12.256705304966058"><ele>568.5</ele><time>2026-05-01T11:36:54Z</time></trkpt><trkpt lat="47.79890307795985" lon="12.257117879192988"><ele>568.0</ele><time>2026-05-01T11:36:55Z</time></trkpt><trkpt lat="47.79896948687852" lon="12.257530236400868"><ele>566.5</ele><time>2026-05-01T11:36:56Z</time></trkpt><trkpt lat="47.799039055082446" lon="12.257940607416879"><ele>565.0</ele><time>2026-05-01T11:36:57Z</time></trkpt><trkpt lat="47.79910714049343" lon="12.258349928966165"><ele>564.5</ele><time>2026-05-01T11:36:58Z</time></trkpt><trkpt lat="47.799179040608806" lon="12.25875727868576"><ele>564.0</ele><time>2026-05-01T11:36:59Z</time></trkpt><trkpt lat="47.79925165915128" lon="12.259164759602166"><ele>564.0</ele><time>2026-05-01T11:37:00Z</time></trkpt><trkpt lat="47.799324466116055" lon="12.259570236532088"><ele>564.0</ele><time>2026-05-01T11:37:01Z</time></trkpt><trkpt lat="47.79940029250287" lon="12.259969560508077"><ele>566.0</ele><time>2026-05-01T11:37:02Z</time></trkpt><trkpt lat="47.79947892770307" lon="12.260364006152821"><ele>568.0</ele><time>2026-05-01T11:37:03Z</time></trkpt><trkpt lat="47.79955915892993" lon="12.260758757838776"><ele>568.0</ele><time>2026-05-01T11:37:04Z</time></trkpt><trkpt lat="47.799643619544554" lon="12.26115119299687"><ele>568.0</ele><time>2026-05-01T11:37:05Z</time></trkpt><trkpt lat="47.799724736910974" lon="12.261545914374972"><ele>567.5</ele><time>2026-05-01T11:37:06Z</time></trkpt><trkpt lat="47.799811790949036" lon="12.261941574730054"><ele>567.0</ele><time>2026-05-01T11:37:07Z</time></trkpt><trkpt lat="47.7998990297472" lon="12.262338376440074"><ele>567.0</ele><time>2026-05-01T11:37:08Z</time></trkpt><trkpt lat="47.799988475101635" lon="12.262738023675048"><ele>567.0</ele><time>2026-05-01T11:37:09Z</time></trkpt><trkpt lat="47.80008421785367" lon="12.2631336147173"><ele>567.5</ele><time>2026-05-01T11:37:10Z</time></trkpt><trkpt lat="47.80018240476842" lon="12.26352984805107"><ele>568.0</ele><time>2026-05-01T11:37:11Z</time></trkpt><trkpt lat="47.800281391553405" lon="12.263923417768844"><ele>568.5</ele><time>2026-05-01T11:37:12Z</time></trkpt><trkpt lat="47.80038103878269" lon="12.264314784192942"><ele>569.0</ele><time>2026-05-01T11:37:13Z</time></trkpt><trkpt lat="47.800481880266446" lon="12.264702452357986"><ele>569.0</ele><time>2026-05-01T11:37:14Z</time></trkpt><trkpt lat="47.80058691686976" lon="12.265086087742887"><ele>569.0</ele><time>2026-05-01T11:37:15Z</time></trkpt><trkpt lat="47.80069101238343" lon="12.265466507384632"><ele>569.5</ele><time>2026-05-01T11:37:16Z</time></trkpt><trkpt lat="47.80079746150076" lon="12.265847145292497"><ele>570.0</ele><time>2026-05-01T11:37:17Z</time></trkpt><trkpt lat="47.80090402924892" lon="12.266228697148769"><ele>572.5</ele><time>2026-05-01T11:37:18Z</time></trkpt><trkpt lat="47.801013550847316" lon="12.266604677586754"><ele>575.0</ele><time>2026-05-01T11:37:19Z</time></trkpt><trkpt lat="47.80112512153103" lon="12.26697775925534"><ele>576.0</ele><time>2026-05-01T11:37:20Z</time></trkpt><trkpt lat="47.801239982078165" lon="12.267351083521618"><ele>577.0</ele><time>2026-05-01T11:37:21Z</time></trkpt><trkpt lat="47.80135395210678" lon="12.267725251327173"><ele>577.0</ele><time>2026-05-01T11:37:22Z</time></trkpt><trkpt lat="47.80147181430602" lon="12.26809658100895"><ele>577.0</ele><time>2026-05-01T11:37:23Z</time></trkpt><trkpt lat="47.80159300972664" lon="12.268466670216805"><ele>577.0</ele><time>2026-05-01T11:37:24Z</time></trkpt><trkpt lat="47.80171441042476" lon="12.26883638059145"><ele>577.0</ele><time>2026-05-01T11:37:25Z</time></trkpt><trkpt lat="47.801833370552934" lon="12.269207619879708"><ele>577.0</ele><time>2026-05-01T11:37:26Z</time></trkpt><trkpt lat="47.80195197039231" lon="12.269578564169466"><ele>577.0</ele><time>2026-05-01T11:37:27Z</time></trkpt><trkpt lat="47.80207019976847" lon="12.269949280174927"><ele>577.0</ele><time>2026-05-01T11:37:28Z</time></trkpt><trkpt lat="47.80219195220064" lon="12.270320204985817"><ele>577.0</ele><time>2026-05-01T11:37:29Z</time></trkpt><trkpt lat="47.80231442077368" lon="12.270695670708141"><ele>578.5</ele><time>2026-05-01T11:37:30Z</time></trkpt><trkpt lat="47.80243368284363" lon="12.27107398534472"><ele>580.0</ele><time>2026-05-01T11:37:31Z</time></trkpt><trkpt lat="47.802552336258316" lon="12.271452866815764"><ele>581.0</ele><time>2026-05-01T11:37:32Z</time></trkpt><trkpt lat="47.802674277800236" lon="12.271835242942847"><ele>582.0</ele><time>2026-05-01T11:37:33Z</time></trkpt><trkpt lat="47.80279757606365" lon="12.272216465147523"><ele>582.0</ele><time>2026-05-01T11:37:34Z</time></trkpt><trkpt lat="47.80292432131925" lon="12.272597707672174"><ele>582.0</ele><time>2026-05-01T11:37:35Z</time></trkpt><trkpt lat="47.803049680101864" lon="12.272983165300985"><ele>582.0</ele><time>2026-05-01T11:37:36Z</time></trkpt><trkpt lat="47.80317025997476" lon="12.273369179809892"><ele>582.0</ele><time>2026-05-01T11:37:37Z</time></trkpt><trkpt lat="47.8032895587915" lon="12.273757413894327"><ele>582.0</ele><time>2026-05-01T11:37:38Z</time></trkpt><trkpt lat="47.80340334915092" lon="12.274151519653728"><ele>582.0</ele><time>2026-05-01T11:37:39Z</time></trkpt><trkpt lat="47.803506776161875" lon="12.274549756705252"><ele>585.0</ele><time>2026-05-01T11:37:40Z</time></trkpt><trkpt lat="47.80360092382402" lon="12.274950026145738"><ele>588.0</ele><time>2026-05-01T11:37:41Z</time></trkpt><trkpt lat="47.80368703899401" lon="12.275359328680382"><ele>588.5</ele><time>2026-05-01T11:37:42Z</time></trkpt><trkpt lat="47.80376824872914" lon="12.2757738325096"><ele>589.0</ele><time>2026-05-01T11:37:43Z</time></trkpt><trkpt lat="47.80384141922735" lon="12.27619146096609"><ele>590.0</ele><time>2026-05-01T11:37:44Z</time></trkpt><trkpt lat="47.80390701813858" lon="12.276613380814265"><ele>591.0</ele><time>2026-05-01T11:37:45Z</time></trkpt><trkpt lat="47.80397049371716" lon="12.277035482965786"><ele>592.5</ele><time>2026-05-01T11:37:46Z</time></trkpt><trkpt lat="47.80402559294663" lon="12.277462516285398"><ele>594.0</ele><time>2026-05-01T11:37:47Z</time></trkpt><trkpt lat="47.804070208339056" lon="12.27789427811333"><ele>595.5</ele><time>2026-05-01T11:37:48Z</time></trkpt><trkpt lat="47.80410626566332" lon="12.278329816186483"><ele>597.0</ele><time>2026-05-01T11:37:49Z</time></trkpt><trkpt lat="47.80413804035796" lon="12.278766065299797"><ele>598.5</ele><time>2026-05-01T11:37:50Z</time></trkpt><trkpt lat="47.804160129449436" lon="12.279202650273978"><ele>600.0</ele><time>2026-05-01T11:37:51Z</time></trkpt><trkpt lat="47.8041735373875" lon="12.279635774891899"><ele>601.0</ele><time>2026-05-01T11:37:52Z</time></trkpt><trkpt lat="47.804179618170025" lon="12.280062153485728"><ele>602.0</ele><time>2026-05-01T11:37:53Z</time></trkpt><trkpt lat="47.80417821537384" lon="12.280482382973434"><ele>602.0</ele><time>2026-05-01T11:37:54Z</time></trkpt><trkpt lat="47.804170585474594" lon="12.280899082299202"><ele>602.0</ele><time>2026-05-01T11:37:55Z</time></trkpt><trkpt lat="47.804165594777324" lon="12.281315969569501"><ele>602.5</ele><time>2026-05-01T11:37:56Z</time></trkpt><trkpt lat="47.80416212772259" lon="12.281732125246503"><ele>603.0</ele><time>2026-05-01T11:37:57Z</time></trkpt><trkpt lat="47.80416179752205" lon="12.282128738844937"><ele>602.5</ele><time>2026-05-01T11:37:58Z</time></trkpt><trkpt lat="47.804161522589176" lon="12.282521756160458"><ele>602.0</ele><time>2026-05-01T11:37:59Z</time></trkpt><trkpt lat="47.80416159724194" lon="12.282930114885685"><ele>602.0</ele><time>2026-05-01T11:38:00Z</time></trkpt><trkpt lat="47.80416075521473" lon="12.28334691337061"><ele>602.0</ele><time>2026-05-01T11:38:01Z</time></trkpt><trkpt lat="47.80416352262921" lon="12.283771904136373"><ele>602.5</ele><time>2026-05-01T11:38:02Z</time></trkpt><trkpt lat="47.80417253755001" lon="12.284203945328324"><ele>603.0</ele><time>2026-05-01T11:38:03Z</time></trkpt><trkpt lat="47.804184387353665" lon="12.284640037477274"><ele>602.5</ele><time>2026-05-01T11:38:04Z</time></trkpt><trkpt lat="47.80419345787118" lon="12.285080510395623"><ele>602.0</ele><time>2026-05-01T11:38:05Z</time></trkpt><trkpt lat="47.80419595798673" lon="12.285523624168901"><ele>603.0</ele><time>2026-05-01T11:38:06Z</time></trkpt><trkpt lat="47.8041943162546" lon="12.285961514571309"><ele>604.0</ele><time>2026-05-01T11:38:07Z</time></trkpt><trkpt lat="47.80419047981707" lon="12.286396589219418"><ele>604.0</ele><time>2026-05-01T11:38:08Z</time></trkpt><trkpt lat="47.80418803597578" lon="12.28683024023793"><ele>604.0</ele><time>2026-05-01T11:38:09Z</time></trkpt><trkpt lat="47.804188715272545" lon="12.287263726308757"><ele>603.0</ele><time>2026-05-01T11:38:10Z</time></trkpt><trkpt lat="47.80419032392519" lon="12.28769574630313"><ele>602.0</ele><time>2026-05-01T11:38:11Z</time></trkpt><trkpt lat="47.804193832397836" lon="12.288121920233031"><ele>601.0</ele><time>2026-05-01T11:38:12Z</time></trkpt><trkpt lat="47.80419450337259" lon="12.28854796265973"><ele>600.0</ele><time>2026-05-01T11:38:13Z</time></trkpt><trkpt lat="47.80418855159003" lon="12.288972569312156"><ele>600.0</ele><time>2026-05-01T11:38:14Z</time></trkpt><trkpt lat="47.80417854609216" lon="12.289399601643801"><ele>600.0</ele><time>2026-05-01T11:38:15Z</time></trkpt><trkpt lat="47.80416531062891" lon="12.28982553519892"><ele>599.5</ele><time>2026-05-01T11:38:16Z</time></trkpt><trkpt lat="47.80415344846194" lon="12.290247957845333"><ele>599.0</ele><time>2026-05-01T11:38:17Z</time></trkpt><trkpt lat="47.80414738020426" lon="12.290666968939679"><ele>597.5</ele><time>2026-05-01T11:38:18Z</time></trkpt><trkpt lat="47.804148621810434" lon="12.291084589354957"><ele>596.0</ele><time>2026-05-01T11:38:19Z</time></trkpt><trkpt lat="47.804148215875514" lon="12.291501221069746"><ele>596.0</ele><time>2026-05-01T11:38:20Z</time></trkpt><trkpt lat="47.80414647432372" lon="12.29191515904551"><ele>596.0</ele><time>2026-05-01T11:38:21Z</time></trkpt><trkpt lat="47.80414519942352" lon="12.29233095704294"><ele>596.0</ele><time>2026-05-01T11:38:22Z</time></trkpt><trkpt lat="47.8041436463855" lon="12.292745528328307"><ele>596.0</ele><time>2026-05-01T11:38:23Z</time></trkpt><trkpt lat="47.80413774018746" lon="12.29315876413981"><ele>596.0</ele><time>2026-05-01T11:38:24Z</time></trkpt><trkpt lat="47.80412399075761" lon="12.29357091434083"><ele>596.0</ele><time>2026-05-01T11:38:25Z</time></trkpt><trkpt lat="47.80410375140264" lon="12.29398636881937"><ele>596.0</ele><time>2026-05-01T11:38:26Z</time></trkpt><trkpt lat="47.804079212848706" lon="12.294404529218937"><ele>596.0</ele><time>2026-05-01T11:38:27Z</time></trkpt><trkpt lat="47.80405033049339" lon="12.29482300415267"><ele>596.0</ele><time>2026-05-01T11:38:28Z</time></trkpt><trkpt lat="47.80401691594109" lon="12.295242456864841"><ele>596.0</ele><time>2026-05-01T11:38:29Z</time></trkpt><trkpt lat="47.803983591878556" lon="12.295660068229134"><ele>596.0</ele><time>2026-05-01T11:38:30Z</time></trkpt><trkpt lat="47.803948778630556" lon="12.29608045923701"><ele>596.0</ele><time>2026-05-01T11:38:31Z</time></trkpt><trkpt lat="47.80391594793193" lon="12.296504320502144"><ele>596.0</ele><time>2026-05-01T11:38:32Z</time></trkpt><trkpt lat="47.80387870802995" lon="12.296927818781397"><ele>596.0</ele><time>2026-05-01T11:38:33Z</time></trkpt><trkpt lat="47.803845507223" lon="12.297356046103502"><ele>593.0</ele><time>2026-05-01T11:38:34Z</time></trkpt><trkpt lat="47.803803664319744" lon="12.297782533940898"><ele>590.0</ele><time>2026-05-01T11:38:35Z</time></trkpt><trkpt lat="47.80376086601259" lon="12.298210392016225"><ele>589.0</ele><time>2026-05-01T11:38:36Z</time></trkpt><trkpt lat="47.80371548551729" lon="12.298641912951162"><ele>588.0</ele><time>2026-05-01T11:38:37Z</time></trkpt><trkpt lat="47.80367479908031" lon="12.299069760673131"><ele>588.0</ele><time>2026-05-01T11:38:38Z</time></trkpt><trkpt lat="47.803636609688105" lon="12.299492165528836"><ele>588.0</ele><time>2026-05-01T11:38:39Z</time></trkpt><trkpt lat="47.80359762150536" lon="12.29989480593847"><ele>595.5</ele><time>2026-05-01T11:38:40Z</time></trkpt><trkpt lat="47.80355974348085" lon="12.30027670188064"><ele>603.0</ele><time>2026-05-01T11:38:41Z</time></trkpt><trkpt lat="47.80352299251105" lon="12.300653520102218"><ele>603.5</ele><time>2026-05-01T11:38:42Z</time></trkpt><trkpt lat="47.80348715615378" lon="12.301039109120401"><ele>604.0</ele><time>2026-05-01T11:38:43Z</time></trkpt><trkpt lat="47.80345480811531" lon="12.301421628384194"><ele>604.0</ele><time>2026-05-01T11:38:44Z</time></trkpt><trkpt lat="47.803413629744014" lon="12.301781659264325"><ele>604.0</ele><time>2026-05-01T11:38:45Z</time></trkpt><trkpt lat="47.80336941326111" lon="12.302125257160414"><ele>605.5</ele><time>2026-05-01T11:38:46Z</time></trkpt><trkpt lat="47.80331279304175" lon="12.302465069789363"><ele>607.0</ele><time>2026-05-01T11:38:47Z</time></trkpt><trkpt lat="47.80324796166218" lon="12.302808428856306"><ele>607.5</ele><time>2026-05-01T11:38:48Z</time></trkpt><trkpt lat="47.80317632740868" lon="12.303149647671564"><ele>608.0</ele><time>2026-05-01T11:38:49Z</time></trkpt><trkpt lat="47.80309433320206" lon="12.303496601634613"><ele>608.0</ele><time>2026-05-01T11:38:50Z</time></trkpt><trkpt lat="47.80300684282656" lon="12.303841709272902"><ele>608.0</ele><time>2026-05-01T11:38:51Z</time></trkpt><trkpt lat="47.80291745561626" lon="12.304190532023156"><ele>608.5</ele><time>2026-05-01T11:38:52Z</time></trkpt><trkpt lat="47.802831008348335" lon="12.304546233422359"><ele>609.0</ele><time>2026-05-01T11:38:53Z</time></trkpt><trkpt lat="47.8027478120733" lon="12.304905522701766"><ele>611.5</ele><time>2026-05-01T11:38:54Z</time></trkpt><trkpt lat="47.802664190298074" lon="12.305266248428758"><ele>614.0</ele><time>2026-05-01T11:38:55Z</time></trkpt><trkpt lat="47.802576520588865" lon="12.305628844053222"><ele>616.0</ele><time>2026-05-01T11:38:56Z</time></trkpt><trkpt lat="47.80249040001198" lon="12.305995710765586"><ele>618.0</ele><time>2026-05-01T11:38:57Z</time></trkpt><trkpt lat="47.80240416746929" lon="12.306365843343352"><ele>620.5</ele><time>2026-05-01T11:38:58Z</time></trkpt><trkpt lat="47.802314934572784" lon="12.306737100518106"><ele>623.0</ele><time>2026-05-01T11:38:59Z</time></trkpt><trkpt lat="47.80222580732705" lon="12.307114575175094"><ele>622.0</ele><time>2026-05-01T11:39:00Z</time></trkpt><trkpt lat="47.80214686185529" lon="12.307493293409737"><ele>621.0</ele><time>2026-05-01T11:39:01Z</time></trkpt><trkpt lat="47.80207637567868" lon="12.307872687871603"><ele>620.0</ele><time>2026-05-01T11:39:02Z</time></trkpt><trkpt lat="47.80201966566124" lon="12.308243528381054"><ele>619.0</ele><time>2026-05-01T11:39:03Z</time></trkpt><trkpt lat="47.801979350384116" lon="12.308608486448186"><ele>618.0</ele><time>2026-05-01T11:39:04Z</time></trkpt><trkpt lat="47.801944168104654" lon="12.308965586071832"><ele>617.0</ele><time>2026-05-01T11:39:05Z</time></trkpt><trkpt lat="47.801922151050135" lon="12.30932066198972"><ele>617.0</ele><time>2026-05-01T11:39:06Z</time></trkpt><trkpt lat="47.80190225595567" lon="12.309678690992722"><ele>617.0</ele><time>2026-05-01T11:39:07Z</time></trkpt><trkpt lat="47.80189040815834" lon="12.31004011626914"><ele>617.0</ele><time>2026-05-01T11:39:08Z</time></trkpt><trkpt lat="47.80188258103651" lon="12.310404065383947"><ele>617.0</ele><time>2026-05-01T11:39:09Z</time></trkpt><trkpt lat="47.801883282495595" lon="12.310765652077402"><ele>617.0</ele><time>2026-05-01T11:39:10Z</time></trkpt><trkpt lat="47.80189098713131" lon="12.311127363464001"><ele>617.0</ele><time>2026-05-01T11:39:11Z</time></trkpt><trkpt lat="47.801906790333625" lon="12.31147746094034"><ele>615.5</ele><time>2026-05-01T11:39:12Z</time></trkpt><trkpt lat="47.801927041573684" lon="12.311824338303419"><ele>614.0</ele><time>2026-05-01T11:39:13Z</time></trkpt><trkpt lat="47.8019556964688" lon="12.312166976366942"><ele>612.0</ele><time>2026-05-01T11:39:14Z</time></trkpt><trkpt lat="47.801994277094664" lon="12.312510340495617"><ele>610.0</ele><time>2026-05-01T11:39:15Z</time></trkpt><trkpt lat="47.80203969295595" lon="12.312850562575532"><ele>609.5</ele><time>2026-05-01T11:39:16Z</time></trkpt><trkpt lat="47.80208758634441" lon="12.313183671872725"><ele>609.0</ele><time>2026-05-01T11:39:17Z</time></trkpt><trkpt lat="47.80214205357818" lon="12.31351097577658"><ele>609.0</ele><time>2026-05-01T11:39:18Z</time></trkpt><trkpt lat="47.80220164730907" lon="12.313828863666032"><ele>609.0</ele><time>2026-05-01T11:39:19Z</time></trkpt><trkpt lat="47.802265713300294" lon="12.314137924841823"><ele>609.0</ele><time>2026-05-01T11:39:20Z</time></trkpt><trkpt lat="47.80233174833006" lon="12.314427016914845"><ele>609.0</ele><time>2026-05-01T11:39:21Z</time></trkpt><trkpt lat="47.80239803691644" lon="12.31471093777393"><ele>609.0</ele><time>2026-05-01T11:39:22Z</time></trkpt><trkpt lat="47.802462460178106" lon="12.314996956022695"><ele>609.0</ele><time>2026-05-01T11:39:23Z</time></trkpt><trkpt lat="47.802530584959456" lon="12.31527658674218"><ele>609.0</ele><time>2026-05-01T11:39:24Z</time></trkpt><trkpt lat="47.80259122765549" lon="12.315547377696403"><ele>609.0</ele><time>2026-05-01T11:39:25Z</time></trkpt><trkpt lat="47.80264903402759" lon="12.315803742342402"><ele>609.0</ele><time>2026-05-01T11:39:26Z</time></trkpt><trkpt lat="47.80270511422781" lon="12.316063941291604"><ele>609.3333333333334</ele><time>2026-05-01T11:39:27Z</time></trkpt><trkpt lat="47.80275883760622" lon="12.316320116866592"><ele>609.6666666666667</ele><time>2026-05-01T11:39:28Z</time></trkpt><trkpt lat="47.80281272281313" lon="12.316577661271582"><ele>610.0</ele><time>2026-05-01T11:39:29Z</time></trkpt><trkpt lat="47.80286893114339" lon="12.316835521143824"><ele>610.0</ele><time>2026-05-01T11:39:30Z</time></trkpt><trkpt lat="47.80292527834978" lon="12.317096777529011"><ele>610.0</ele><time>2026-05-01T11:39:31Z</time></trkpt><trkpt lat="47.80298169572156" lon="12.317353971068965"><ele>610.0</ele><time>2026-05-01T11:39:32Z</time></trkpt><trkpt lat="47.803038807469264" lon="12.317613578970718"><ele>609.3333333333334</ele><time>2026-05-01T11:39:33Z</time></trkpt><trkpt lat="47.80309674061526" lon="12.317874066517286"><ele>608.6666666666666</ele><time>2026-05-01T11:39:34Z</time></trkpt><trkpt lat="47.80315175855128" lon="12.318133304918362"><ele>608.0</ele><time>2026-05-01T11:39:35Z</time></trkpt><trkpt lat="47.803209735051276" lon="12.318393813702984"><ele>607.6666666666666</ele><time>2026-05-01T11:39:36Z</time></trkpt><trkpt lat="47.80326597428069" lon="12.31866169171313"><ele>607.3333333333334</ele><time>2026-05-01T11:39:37Z</time></trkpt><trkpt lat="47.803322138762624" lon="12.318931201140227"><ele>607.0</ele><time>2026-05-01T11:39:38Z</time></trkpt><trkpt lat="47.803378553897694" lon="12.319200034283746"><ele>607.0</ele><time>2026-05-01T11:39:39Z</time></trkpt><trkpt lat="47.803439273766365" lon="12.319474548287541"><ele>607.0</ele><time>2026-05-01T11:39:40Z</time></trkpt><trkpt lat="47.80350121606841" lon="12.319750180816216"><ele>607.0</ele><time>2026-05-01T11:39:41Z</time></trkpt><trkpt lat="47.80356164715551" lon="12.320029662802337"><ele>607.0</ele><time>2026-05-01T11:39:42Z</time></trkpt><trkpt lat="47.80362254660548" lon="12.320311490550182"><ele>607.0</ele><time>2026-05-01T11:39:43Z</time></trkpt><trkpt lat="47.80368426572399" lon="12.320598484646146"><ele>607.0</ele><time>2026-05-01T11:39:44Z</time></trkpt><trkpt lat="47.803747216986075" lon="12.320894313059597"><ele>607.0</ele><time>2026-05-01T11:39:45Z</time></trkpt><trkpt lat="47.80381251145275" lon="12.32119526524084"><ele>607.0</ele><time>2026-05-01T11:39:46Z</time></trkpt><trkpt lat="47.803876130131265" lon="12.321492219714232"><ele>607.0</ele><time>2026-05-01T11:39:47Z</time></trkpt><trkpt lat="47.80393538960005" lon="12.321772853177816"><ele>607.0</ele><time>2026-05-01T11:39:48Z</time></trkpt><trkpt lat="47.80399811304314" lon="12.322063431510529"><ele>607.0</ele><time>2026-05-01T11:39:49Z</time></trkpt><trkpt lat="47.804060527328204" lon="12.322361819249373"><ele>607.0</ele><time>2026-05-01T11:39:50Z</time></trkpt><trkpt lat="47.804127289774456" lon="12.322667032298485"><ele>607.3333333333334</ele><time>2026-05-01T11:39:51Z</time></trkpt><trkpt lat="47.80419443813835" lon="12.32297529219189"><ele>607.6666666666666</ele><time>2026-05-01T11:39:52Z</time></trkpt><trkpt lat="47.80426236109472" lon="12.32328577210283"><ele>608.0</ele><time>2026-05-01T11:39:53Z</time></trkpt><trkpt lat="47.80433133358954" lon="12.323597533264463"><ele>610.5</ele><time>2026-05-01T11:39:54Z</time></trkpt><trkpt lat="47.80439865521997" lon="12.323915517890406"><ele>613.0</ele><time>2026-05-01T11:39:55Z</time></trkpt><trkpt lat="47.80446981929793" lon="12.324236844734134"><ele>613.0</ele><time>2026-05-01T11:39:56Z</time></trkpt><trkpt lat="47.804539407522064" lon="12.324558145569686"><ele>613.0</ele><time>2026-05-01T11:39:57Z</time></trkpt><trkpt lat="47.80460875287247" lon="12.324877995904282"><ele>612.0</ele><time>2026-05-01T11:39:58Z</time></trkpt><trkpt lat="47.804686266042744" lon="12.325203840870152"><ele>611.0</ele><time>2026-05-01T11:39:59Z</time></trkpt><trkpt lat="47.80477605306224" lon="12.325550179889627"><ele>609.5</ele><time>2026-05-01T11:40:00Z</time></trkpt><trkpt lat="47.804869711737666" lon="12.325918640625583"><ele>608.0</ele><time>2026-05-01T11:40:01Z</time></trkpt><trkpt lat="47.80495785077586" lon="12.326310118129886"><ele>607.0</ele><time>2026-05-01T11:40:02Z</time></trkpt><trkpt lat="47.80504166591468" lon="12.326718521310694"><ele>606.0</ele><time>2026-05-01T11:40:03Z</time></trkpt><trkpt lat="47.80512949231542" lon="12.327140428864618"><ele>608.0</ele><time>2026-05-01T11:40:04Z</time></trkpt><trkpt lat="47.805216074762455" lon="12.327555739866245"><ele>610.0</ele><time>2026-05-01T11:40:05Z</time></trkpt><trkpt lat="47.8053058722953" lon="12.327971672903594"><ele>614.0</ele><time>2026-05-01T11:40:06Z</time></trkpt><trkpt lat="47.80539750994699" lon="12.328396720173442"><ele>618.0</ele><time>2026-05-01T11:40:07Z</time></trkpt><trkpt lat="47.805491120755434" lon="12.328823996953234"><ele>619.0</ele><time>2026-05-01T11:40:08Z</time></trkpt><trkpt lat="47.80558377874352" lon="12.329252270954166"><ele>620.0</ele><time>2026-05-01T11:40:09Z</time></trkpt><trkpt lat="47.805674120777894" lon="12.32968021328939"><ele>618.0</ele><time>2026-05-01T11:40:10Z</time></trkpt><trkpt lat="47.805765477506036" lon="12.330103133118367"><ele>616.0</ele><time>2026-05-01T11:40:11Z</time></trkpt><trkpt lat="47.805855444073714" lon="12.330518163558262"><ele>611.0</ele><time>2026-05-01T11:40:12Z</time></trkpt><trkpt lat="47.80594410038673" lon="12.330926874943898"><ele>606.0</ele><time>2026-05-01T11:40:13Z</time></trkpt><trkpt lat="47.8060327316529" lon="12.33133422400835"><ele>604.5</ele><time>2026-05-01T11:40:14Z</time></trkpt><trkpt lat="47.80612083384231" lon="12.331744682473806"><ele>603.0</ele><time>2026-05-01T11:40:15Z</time></trkpt><trkpt lat="47.80621211109549" lon="12.332152612156628"><ele>604.0</ele><time>2026-05-01T11:40:16Z</time></trkpt><trkpt lat="47.80630813951765" lon="12.332549268558656"><ele>605.0</ele><time>2026-05-01T11:40:17Z</time></trkpt><trkpt lat="47.80641749732126" lon="12.332942206954941"><ele>604.0</ele><time>2026-05-01T11:40:18Z</time></trkpt><trkpt lat="47.80653584342258" lon="12.33332730362515"><ele>603.0</ele><time>2026-05-01T11:40:19Z</time></trkpt><trkpt lat="47.80665896187253" lon="12.333710692004153"><ele>603.5</ele><time>2026-05-01T11:40:20Z</time></trkpt><trkpt lat="47.80678543603334" lon="12.334093953950013"><ele>604.0</ele><time>2026-05-01T11:40:21Z</time></trkpt><trkpt lat="47.80691425917378" lon="12.334470211002934"><ele>607.0</ele><time>2026-05-01T11:40:22Z</time></trkpt><trkpt lat="47.80704613436587" lon="12.334846253615876"><ele>610.0</ele><time>2026-05-01T11:40:23Z</time></trkpt><trkpt lat="47.807175878962475" lon="12.335218010850948"><ele>613.5</ele><time>2026-05-01T11:40:24Z</time></trkpt><trkpt lat="47.80731369690111" lon="12.3355869465215"><ele>617.0</ele><time>2026-05-01T11:40:25Z</time></trkpt><trkpt lat="47.807459305531545" lon="12.33594166007956"><ele>617.0</ele><time>2026-05-01T11:40:26Z</time></trkpt><trkpt lat="47.80760405403372" lon="12.336296713010741"><ele>617.0</ele><time>2026-05-01T11:40:27Z</time></trkpt><trkpt lat="47.80774848332018" lon="12.336651659282934"><ele>619.0</ele><time>2026-05-01T11:40:28Z</time></trkpt><trkpt lat="47.807891495614946" lon="12.33700635300613"><ele>621.0</ele><time>2026-05-01T11:40:29Z</time></trkpt><trkpt lat="47.80803483580774" lon="12.33736276707726"><ele>621.0</ele><time>2026-05-01T11:40:30Z</time></trkpt><trkpt lat="47.80817512824815" lon="12.337719726535944"><ele>621.0</ele><time>2026-05-01T11:40:31Z</time></trkpt><trkpt lat="47.8083183006496" lon="12.338085092419284"><ele>622.0</ele><time>2026-05-01T11:40:32Z</time></trkpt><trkpt lat="47.80846024876954" lon="12.33845206561811"><ele>623.0</ele><time>2026-05-01T11:40:33Z</time></trkpt><trkpt lat="47.8085978448934" lon="12.338824991398626"><ele>624.0</ele><time>2026-05-01T11:40:34Z</time></trkpt><trkpt lat="47.8087294805638" lon="12.339206267233083"><ele>625.0</ele><time>2026-05-01T11:40:35Z</time></trkpt><trkpt lat="47.80885933036232" lon="12.339591572067773"><ele>624.0</ele><time>2026-05-01T11:40:36Z</time></trkpt><trkpt lat="47.8089897816553" lon="12.339981833361492"><ele>623.0</ele><time>2026-05-01T11:40:37Z</time></trkpt><trkpt lat="47.80911778466917" lon="12.340373571891334"><ele>621.5</ele><time>2026-05-01T11:40:38Z</time></trkpt><trkpt lat="47.80924582268696" lon="12.34076388641308"><ele>620.0</ele><time>2026-05-01T11:40:39Z</time></trkpt><trkpt lat="47.80937160398748" lon="12.341159698167269"><ele>620.0</ele><time>2026-05-01T11:40:40Z</time></trkpt><trkpt lat="47.80948920427307" lon="12.341561372454578"><ele>620.0</ele><time>2026-05-01T11:40:41Z</time></trkpt><trkpt lat="47.80960147822241" lon="12.341967979061684"><ele>619.0</ele><time>2026-05-01T11:40:42Z</time></trkpt><trkpt lat="47.8097066681982" lon="12.342380380768367"><ele>618.0</ele><time>2026-05-01T11:40:43Z</time></trkpt><trkpt lat="47.8098082957262" lon="12.342792845110548"><ele>615.0</ele><time>2026-05-01T11:40:44Z</time></trkpt><trkpt lat="47.80990915175128" lon="12.343201297208802"><ele>612.0</ele><time>2026-05-01T11:40:45Z</time></trkpt><trkpt lat="47.8100098823764" lon="12.34360169713933"><ele>611.5</ele><time>2026-05-01T11:40:46Z</time></trkpt><trkpt lat="47.810110249794725" lon="12.343999936807796"><ele>611.0</ele><time>2026-05-01T11:40:47Z</time></trkpt><trkpt lat="47.81021203180249" lon="12.34439494647242"><ele>613.5</ele><time>2026-05-01T11:40:48Z</time></trkpt><trkpt lat="47.81031343222528" lon="12.344790199407539"><ele>616.0</ele><time>2026-05-01T11:40:49Z</time></trkpt><trkpt lat="47.81040876517749" lon="12.345187993313615"><ele>617.0</ele><time>2026-05-01T11:40:50Z</time></trkpt><trkpt lat="47.810495319402214" lon="12.345591220852745"><ele>618.0</ele><time>2026-05-01T11:40:51Z</time></trkpt><trkpt lat="47.81057801096665" lon="12.345998890236958"><ele>616.5</ele><time>2026-05-01T11:40:52Z</time></trkpt><trkpt lat="47.810658855440415" lon="12.346411318552407"><ele>615.0</ele><time>2026-05-01T11:40:53Z</time></trkpt><trkpt lat="47.81073879931269" lon="12.346823634503064"><ele>614.5</ele><time>2026-05-01T11:40:54Z</time></trkpt><trkpt lat="47.810821055174216" lon="12.347235349120744"><ele>614.0</ele><time>2026-05-01T11:40:55Z</time></trkpt><trkpt lat="47.81090457132434" lon="12.347639607923705"><ele>614.0</ele><time>2026-05-01T11:40:56Z</time></trkpt><trkpt lat="47.81098679263611" lon="12.348030739164386"><ele>614.0</ele><time>2026-05-01T11:40:57Z</time></trkpt><trkpt lat="47.81106505677512" lon="12.348399355359659"><ele>613.0</ele><time>2026-05-01T11:40:58Z</time></trkpt><trkpt lat="47.811140553825894" lon="12.348749119004808"><ele>612.0</ele><time>2026-05-01T11:40:59Z</time></trkpt><trkpt lat="47.81121204525661" lon="12.349087879063923"><ele>610.0</ele><time>2026-05-01T11:41:00Z</time></trkpt><trkpt lat="47.81128050314564" lon="12.349428224856522"><ele>608.0</ele><time>2026-05-01T11:41:01Z</time></trkpt><trkpt lat="47.81135067845168" lon="12.34976091022543"><ele>606.0</ele><time>2026-05-01T11:41:02Z</time></trkpt><trkpt lat="47.811422181337484" lon="12.35007898711091"><ele>604.0</ele><time>2026-05-01T11:41:03Z</time></trkpt><trkpt lat="47.81149757832913" lon="12.350401986471477"><ele>602.0</ele><time>2026-05-01T11:41:04Z</time></trkpt><trkpt lat="47.8115735507096" lon="12.350729216553855"><ele>600.0</ele><time>2026-05-01T11:41:05Z</time></trkpt><trkpt lat="47.81165246063565" lon="12.35105329504617"><ele>597.0</ele><time>2026-05-01T11:41:06Z</time></trkpt><trkpt lat="47.81173145363054" lon="12.351376700564423"><ele>594.0</ele><time>2026-05-01T11:41:07Z</time></trkpt><trkpt lat="47.81180913890021" lon="12.351697485662692"><ele>591.5</ele><time>2026-05-01T11:41:08Z</time></trkpt><trkpt lat="47.81188460189351" lon="12.352018042804971"><ele>589.0</ele><time>2026-05-01T11:41:09Z</time></trkpt><trkpt lat="47.81196135053722" lon="12.352337592339836"><ele>587.3333333333334</ele><time>2026-05-01T11:41:10Z</time></trkpt><trkpt lat="47.812037543059354" lon="12.352655152583944"><ele>585.6666666666666</ele><time>2026-05-01T11:41:11Z</time></trkpt><trkpt lat="47.81211587173257" lon="12.352965519036205"><ele>584.0</ele><time>2026-05-01T11:41:12Z</time></trkpt><trkpt lat="47.81219537747533" lon="12.353268832205119"><ele>583.3333333333333</ele><time>2026-05-01T11:41:13Z</time></trkpt><trkpt lat="47.812280132829514" lon="12.353569696399589"><ele>582.6666666666666</ele><time>2026-05-01T11:41:14Z</time></trkpt><trkpt lat="47.812371765272545" lon="12.353868025108081"><ele>582.0</ele><time>2026-05-01T11:41:15Z</time></trkpt><trkpt lat="47.81247366230884" lon="12.35415888076647"><ele>581.3333333333334</ele><time>2026-05-01T11:41:16Z</time></trkpt><trkpt lat="47.81257931955544" lon="12.354444536250673"><ele>580.6666666666667</ele><time>2026-05-01T11:41:17Z</time></trkpt><trkpt lat="47.81269045529969" lon="12.354724502656536"><ele>580.0</ele><time>2026-05-01T11:41:18Z</time></trkpt><trkpt lat="47.81280938359987" lon="12.354998362027725"><ele>579.0</ele><time>2026-05-01T11:41:19Z</time></trkpt><trkpt lat="47.812932095168215" lon="12.355273904549257"><ele>578.0</ele><time>2026-05-01T11:41:20Z</time></trkpt><trkpt lat="47.813058421716256" lon="12.355553436346662"><ele>577.0</ele><time>2026-05-01T11:41:21Z</time></trkpt><trkpt lat="47.81318575550686" lon="12.355837380243486"><ele>574.0</ele><time>2026-05-01T11:41:22Z</time></trkpt><trkpt lat="47.813314154707385" lon="12.356125055334918"><ele>571.0</ele><time>2026-05-01T11:41:23Z</time></trkpt><trkpt lat="47.813442401085524" lon="12.356412834982157"><ele>568.5</ele><time>2026-05-01T11:41:24Z</time></trkpt><trkpt lat="47.813570220358045" lon="12.356700076697848"><ele>566.0</ele><time>2026-05-01T11:41:25Z</time></trkpt><trkpt lat="47.81369964857592" lon="12.356987286830863"><ele>564.5</ele><time>2026-05-01T11:41:26Z</time></trkpt><trkpt lat="47.81382638706262" lon="12.357276634869514"><ele>563.0</ele><time>2026-05-01T11:41:27Z</time></trkpt><trkpt lat="47.81395497687689" lon="12.357567034485598"><ele>563.0</ele><time>2026-05-01T11:41:28Z</time></trkpt><trkpt lat="47.81408266469899" lon="12.357860003207342"><ele>563.0</ele><time>2026-05-01T11:41:29Z</time></trkpt><trkpt lat="47.81420581311361" lon="12.358158615557166"><ele>560.5</ele><time>2026-05-01T11:41:30Z</time></trkpt><trkpt lat="47.81432470483941" lon="12.358461640177701"><ele>558.0</ele><time>2026-05-01T11:41:31Z</time></trkpt><trkpt lat="47.81443763449722" lon="12.358770139532991"><ele>554.0</ele><time>2026-05-01T11:41:32Z</time></trkpt><trkpt lat="47.81454004441033" lon="12.359085079079383"><ele>550.0</ele><time>2026-05-01T11:41:33Z</time></trkpt><trkpt lat="47.81463270553366" lon="12.359407549789221"><ele>548.0</ele><time>2026-05-01T11:41:34Z</time></trkpt><trkpt lat="47.814718585104295" lon="12.359733507551377"><ele>546.0</ele><time>2026-05-01T11:41:35Z</time></trkpt><trkpt lat="47.814797857883356" lon="12.360060928942685"><ele>546.0</ele><time>2026-05-01T11:41:36Z</time></trkpt><trkpt lat="47.81486878726007" lon="12.360392820927762"><ele>546.0</ele><time>2026-05-01T11:41:37Z</time></trkpt><trkpt lat="47.81493428445423" lon="12.360728095984122"><ele>543.5</ele><time>2026-05-01T11:41:38Z</time></trkpt><trkpt lat="47.814992432029285" lon="12.361068514645785"><ele>541.0</ele><time>2026-05-01T11:41:39Z</time></trkpt><trkpt lat="47.815042807086044" lon="12.361410731006462"><ele>540.5</ele><time>2026-05-01T11:41:40Z</time></trkpt><trkpt lat="47.81508814936908" lon="12.361755994375883"><ele>540.0</ele><time>2026-05-01T11:41:41Z</time></trkpt><trkpt lat="47.81513481223358" lon="12.362102478531632"><ele>535.5</ele><time>2026-05-01T11:41:42Z</time></trkpt><trkpt lat="47.81518275473125" lon="12.362451519450262"><ele>531.0</ele><time>2026-05-01T11:41:43Z</time></trkpt><trkpt lat="47.81523202636291" lon="12.362799133979488"><ele>531.0</ele><time>2026-05-01T11:41:44Z</time></trkpt><trkpt lat="47.815281436239005" lon="12.363141463864062"><ele>531.0</ele><time>2026-05-01T11:41:45Z</time></trkpt><trkpt lat="47.81532681561862" lon="12.363471522789883"><ele>531.0</ele><time>2026-05-01T11:41:46Z</time></trkpt><trkpt lat="47.815372549883584" lon="12.363806361922572"><ele>531.0</ele><time>2026-05-01T11:41:47Z</time></trkpt><trkpt lat="47.81541619364208" lon="12.364145693461415"><ele>530.5</ele><time>2026-05-01T11:41:48Z</time></trkpt><trkpt lat="47.815462173568164" lon="12.364487559436274"><ele>530.0</ele><time>2026-05-01T11:41:49Z</time></trkpt><trkpt lat="47.81550968841436" lon="12.364832846242034"><ele>529.5</ele><time>2026-05-01T11:41:50Z</time></trkpt><trkpt lat="47.815561688043076" lon="12.36517531596819"><ele>529.0</ele><time>2026-05-01T11:41:51Z</time></trkpt><trkpt lat="47.815614854996404" lon="12.365513700223309"><ele>529.5</ele><time>2026-05-01T11:41:52Z</time></trkpt><trkpt lat="47.81567334063094" lon="12.365849702110943"><ele>530.0</ele><time>2026-05-01T11:41:53Z</time></trkpt><trkpt lat="47.81573635292163" lon="12.366183283181892"><ele>528.5</ele><time>2026-05-01T11:41:54Z</time></trkpt><trkpt lat="47.81580225430365" lon="12.366517972797974"><ele>527.0</ele><time>2026-05-01T11:41:55Z</time></trkpt><trkpt lat="47.81587313983406" lon="12.366851624606776"><ele>527.0</ele><time>2026-05-01T11:41:56Z</time></trkpt><trkpt lat="47.81594310140942" lon="12.36718406886691"><ele>527.0</ele><time>2026-05-01T11:41:57Z</time></trkpt><trkpt lat="47.81601549707365" lon="12.36751485878281"><ele>526.0</ele><time>2026-05-01T11:41:58Z</time></trkpt><trkpt lat="47.81609089720969" lon="12.367844042617103"><ele>525.0</ele><time>2026-05-01T11:41:59Z</time></trkpt><trkpt lat="47.816168666404586" lon="12.36817183317858"><ele>524.0</ele><time>2026-05-01T11:42:00Z</time></trkpt><trkpt lat="47.81624919126841" lon="12.368496284128156"><ele>523.0</ele><time>2026-05-01T11:42:01Z</time></trkpt><trkpt lat="47.816331799122615" lon="12.368820021050144"><ele>523.5</ele><time>2026-05-01T11:42:02Z</time></trkpt><trkpt lat="47.81641690806389" lon="12.369143062715164"><ele>524.0</ele><time>2026-05-01T11:42:03Z</time></trkpt><trkpt lat="47.81650378351453" lon="12.369464752092895"><ele>524.5</ele><time>2026-05-01T11:42:04Z</time></trkpt><trkpt lat="47.816595606335696" lon="12.369782450658189"><ele>525.0</ele><time>2026-05-01T11:42:05Z</time></trkpt><trkpt lat="47.81669441034889" lon="12.370096327353897"><ele>525.0</ele><time>2026-05-01T11:42:06Z</time></trkpt><trkpt lat="47.81680101302396" lon="12.370407636554596"><ele>525.0</ele><time>2026-05-01T11:42:07Z</time></trkpt><trkpt lat="47.816910795822515" lon="12.370716146117624"><ele>524.0</ele><time>2026-05-01T11:42:08Z</time></trkpt><trkpt lat="47.817021386831115" lon="12.371023735232814"><ele>523.0</ele><time>2026-05-01T11:42:09Z</time></trkpt><trkpt lat="47.817136371171244" lon="12.371330868662808"><ele>522.5</ele><time>2026-05-01T11:42:10Z</time></trkpt><trkpt lat="47.81725719042872" lon="12.371634511540604"><ele>522.0</ele><time>2026-05-01T11:42:11Z</time></trkpt><trkpt lat="47.81738459649471" lon="12.3719340211776"><ele>522.0</ele><time>2026-05-01T11:42:12Z</time></trkpt><trkpt lat="47.81751533217741" lon="12.372230766987666"><ele>522.0</ele><time>2026-05-01T11:42:13Z</time></trkpt><trkpt lat="47.817651518119575" lon="12.372521979998195"><ele>521.5</ele><time>2026-05-01T11:42:14Z</time></trkpt><trkpt lat="47.817792670236386" lon="12.372809466041408"><ele>521.0</ele><time>2026-05-01T11:42:15Z</time></trkpt><trkpt lat="47.81793954711187" lon="12.3730921121818"><ele>521.0</ele><time>2026-05-01T11:42:16Z</time></trkpt><trkpt lat="47.81808946994396" lon="12.373373324353578"><ele>521.0</ele><time>2026-05-01T11:42:17Z</time></trkpt><trkpt lat="47.81823874521937" lon="12.373656740095146"><ele>521.0</ele><time>2026-05-01T11:42:18Z</time></trkpt><trkpt lat="47.81838631094101" lon="12.373939754599581"><ele>521.0</ele><time>2026-05-01T11:42:19Z</time></trkpt><trkpt lat="47.818534456517526" lon="12.374223456444865"><ele>521.5</ele><time>2026-05-01T11:42:20Z</time></trkpt><trkpt lat="47.8186797518702" lon="12.374510559340228"><ele>522.0</ele><time>2026-05-01T11:42:21Z</time></trkpt><trkpt lat="47.818825714436855" lon="12.37479729750889"><ele>523.0</ele><time>2026-05-01T11:42:22Z</time></trkpt><trkpt lat="47.818971979661484" lon="12.375080249619103"><ele>524.0</ele><time>2026-05-01T11:42:23Z</time></trkpt><trkpt lat="47.8191175206901" lon="12.375363029789733"><ele>524.5</ele><time>2026-05-01T11:42:24Z</time></trkpt><trkpt lat="47.81926423699739" lon="12.37564344551505"><ele>525.0</ele><time>2026-05-01T11:42:25Z</time></trkpt><trkpt lat="47.8194125361717" lon="12.375919668262826"><ele>523.0</ele><time>2026-05-01T11:42:26Z</time></trkpt><trkpt lat="47.81955924001227" lon="12.376196205780085"><ele>521.0</ele><time>2026-05-01T11:42:27Z</time></trkpt><trkpt lat="47.81970295242525" lon="12.376475539330198"><ele>521.0</ele><time>2026-05-01T11:42:28Z</time></trkpt><trkpt lat="47.819844102321596" lon="12.37675800380514"><ele>521.0</ele><time>2026-05-01T11:42:29Z</time></trkpt><trkpt lat="47.81998708506136" lon="12.377040991319708"><ele>521.5</ele><time>2026-05-01T11:42:30Z</time></trkpt><trkpt lat="47.82012946677925" lon="12.37732260289758"><ele>522.0</ele><time>2026-05-01T11:42:31Z</time></trkpt><trkpt lat="47.820274709499515" lon="12.377601400773642"><ele>521.5</ele><time>2026-05-01T11:42:32Z</time></trkpt><trkpt lat="47.820423818662064" lon="12.377874965955868"><ele>521.0</ele><time>2026-05-01T11:42:33Z</time></trkpt><trkpt lat="47.82057726025947" lon="12.378145146476369"><ele>521.0</ele><time>2026-05-01T11:42:34Z</time></trkpt><trkpt lat="47.82073631177415" lon="12.378410614070123"><ele>521.0</ele><time>2026-05-01T11:42:35Z</time></trkpt><trkpt lat="47.82090063553906" lon="12.378670386224078"><ele>519.5</ele><time>2026-05-01T11:42:36Z</time></trkpt><trkpt lat="47.82106971117005" lon="12.378924023944329"><ele>518.0</ele><time>2026-05-01T11:42:37Z</time></trkpt><trkpt lat="47.82124290448133" lon="12.37917353321691"><ele>518.0</ele><time>2026-05-01T11:42:38Z</time></trkpt><trkpt lat="47.82141925766381" lon="12.37941759025878"><ele>518.0</ele><time>2026-05-01T11:42:39Z</time></trkpt><trkpt lat="47.82159903587021" lon="12.37965650217829"><ele>518.5</ele><time>2026-05-01T11:42:40Z</time></trkpt><trkpt lat="47.82178372007102" lon="12.379889687389554"><ele>519.0</ele><time>2026-05-01T11:42:41Z</time></trkpt><trkpt lat="47.82197174351785" lon="12.380117055303492"><ele>519.0</ele><time>2026-05-01T11:42:42Z</time></trkpt><trkpt lat="47.82216332886503" lon="12.380336283744128"><ele>519.0</ele><time>2026-05-01T11:42:43Z</time></trkpt><trkpt lat="47.822355722229624" lon="12.380547724375173"><ele>519.5</ele><time>2026-05-01T11:42:44Z</time></trkpt><trkpt lat="47.82254361398766" lon="12.380750399324075"><ele>520.0</ele><time>2026-05-01T11:42:45Z</time></trkpt><trkpt lat="47.82272678093822" lon="12.380948451876005"><ele>520.0</ele><time>2026-05-01T11:42:46Z</time></trkpt><trkpt lat="47.822916442173" lon="12.381144545525846"><ele>520.0</ele><time>2026-05-01T11:42:47Z</time></trkpt><trkpt lat="47.823109819745376" lon="12.381338953055064"><ele>519.5</ele><time>2026-05-01T11:42:48Z</time></trkpt><trkpt lat="47.82330629431419" lon="12.381529345740146"><ele>519.0</ele><time>2026-05-01T11:42:49Z</time></trkpt><trkpt lat="47.823509781724404" lon="12.381706508865323"><ele>518.0</ele><time>2026-05-01T11:42:50Z</time></trkpt><trkpt lat="47.82371587382532" lon="12.381883783132103"><ele>517.0</ele><time>2026-05-01T11:42:51Z</time></trkpt><trkpt lat="47.82392993252792" lon="12.382052804461743"><ele>517.0</ele><time>2026-05-01T11:42:52Z</time></trkpt><trkpt lat="47.8241407610785" lon="12.38222566631699"><ele>517.0</ele><time>2026-05-01T11:42:53Z</time></trkpt><trkpt lat="47.824353526060634" lon="12.382400658400645"><ele>516.5</ele><time>2026-05-01T11:42:54Z</time></trkpt><trkpt lat="47.82456834904426" lon="12.382573543462293"><ele>516.0</ele><time>2026-05-01T11:42:55Z</time></trkpt><trkpt lat="47.82478479882677" lon="12.382745457473055"><ele>516.0</ele><time>2026-05-01T11:42:56Z</time></trkpt><trkpt lat="47.82499929214755" lon="12.3829184980807"><ele>516.0</ele><time>2026-05-01T11:42:57Z</time></trkpt><trkpt lat="47.82521244552715" lon="12.383090589384379"><ele>516.5</ele><time>2026-05-01T11:42:58Z</time></trkpt><trkpt lat="47.825422816675925" lon="12.383261658598233"><ele>517.0</ele><time>2026-05-01T11:42:59Z</time></trkpt><trkpt lat="47.8256348401561" lon="12.383426864635876"><ele>517.0</ele><time>2026-05-01T11:43:00Z</time></trkpt><trkpt lat="47.825849998969524" lon="12.383584849080917"><ele>517.0</ele><time>2026-05-01T11:43:01Z</time></trkpt><trkpt lat="47.82606707437307" lon="12.383734810298007"><ele>517.0</ele><time>2026-05-01T11:43:02Z</time></trkpt><trkpt lat="47.82628742050503" lon="12.3838770283046"><ele>517.0</ele><time>2026-05-01T11:43:03Z</time></trkpt><trkpt lat="47.82651254974396" lon="12.384016237512425"><ele>517.0</ele><time>2026-05-01T11:43:04Z</time></trkpt><trkpt lat="47.82673764195564" lon="12.384158779078396"><ele>517.0</ele><time>2026-05-01T11:43:05Z</time></trkpt><trkpt lat="47.82696328271619" lon="12.384305901618525"><ele>518.0</ele><time>2026-05-01T11:43:06Z</time></trkpt><trkpt lat="47.82718674289903" lon="12.384456484166451"><ele>519.0</ele><time>2026-05-01T11:43:07Z</time></trkpt><trkpt lat="47.82741026985936" lon="12.384603695089442"><ele>518.0</ele><time>2026-05-01T11:43:08Z</time></trkpt><trkpt lat="47.82763253458427" lon="12.384749062345962"><ele>517.0</ele><time>2026-05-01T11:43:09Z</time></trkpt><trkpt lat="47.827852960079326" lon="12.38489584922095"><ele>519.5</ele><time>2026-05-01T11:43:10Z</time></trkpt><trkpt lat="47.828072426507845" lon="12.385038690211177"><ele>522.0</ele><time>2026-05-01T11:43:11Z</time></trkpt><trkpt lat="47.828291458437434" lon="12.385177972002522"><ele>523.0</ele><time>2026-05-01T11:43:12Z</time></trkpt><trkpt lat="47.82850988256659" lon="12.385316676092591"><ele>524.0</ele><time>2026-05-01T11:43:13Z</time></trkpt><trkpt lat="47.82872645679782" lon="12.385457447208719"><ele>522.0</ele><time>2026-05-01T11:43:14Z</time></trkpt><trkpt lat="47.82894263561441" lon="12.385599142402528"><ele>520.0</ele><time>2026-05-01T11:43:15Z</time></trkpt><trkpt lat="47.82915987530825" lon="12.385740970203186"><ele>519.0</ele><time>2026-05-01T11:43:16Z</time></trkpt><trkpt lat="47.829378016734005" lon="12.385889451765747"><ele>518.0</ele><time>2026-05-01T11:43:17Z</time></trkpt><trkpt lat="47.82959537572874" lon="12.386045832594643"><ele>518.0</ele><time>2026-05-01T11:43:18Z</time></trkpt><trkpt lat="47.82981206738149" lon="12.386207711288998"><ele>518.0</ele><time>2026-05-01T11:43:19Z</time></trkpt><trkpt lat="47.830025871549296" lon="12.386379202666976"><ele>519.0</ele><time>2026-05-01T11:43:20Z</time></trkpt><trkpt lat="47.83023643109133" lon="12.386562324192882"><ele>520.0</ele><time>2026-05-01T11:43:21Z</time></trkpt><trkpt lat="47.83044446154311" lon="12.386753273623937"><ele>520.0</ele><time>2026-05-01T11:43:22Z</time></trkpt><trkpt lat="47.83065027378993" lon="12.38695733444255"><ele>520.0</ele><time>2026-05-01T11:43:23Z</time></trkpt><trkpt lat="47.830851540472636" lon="12.387170837660047"><ele>521.0</ele><time>2026-05-01T11:43:24Z</time></trkpt><trkpt lat="47.831049930105785" lon="12.387391995068436"><ele>522.0</ele><time>2026-05-01T11:43:25Z</time></trkpt><trkpt lat="47.831243711518695" lon="12.387624215798555"><ele>522.0</ele><time>2026-05-01T11:43:26Z</time></trkpt><trkpt lat="47.8314308526394" lon="12.387867150156106"><ele>522.0</ele><time>2026-05-01T11:43:27Z</time></trkpt><trkpt lat="47.83161394027606" lon="12.388119448930988"><ele>521.0</ele><time>2026-05-01T11:43:28Z</time></trkpt><trkpt lat="47.83179461863632" lon="12.388380034487511"><ele>520.0</ele><time>2026-05-01T11:43:29Z</time></trkpt><trkpt lat="47.83197116887408" lon="12.388648256059962"><ele>519.5</ele><time>2026-05-01T11:43:30Z</time></trkpt><trkpt lat="47.832141778312845" lon="12.388926809051444"><ele>519.0</ele><time>2026-05-01T11:43:31Z</time></trkpt><trkpt lat="47.8323020302458" lon="12.389210501799099"><ele>519.0</ele><time>2026-05-01T11:43:32Z</time></trkpt><trkpt lat="47.83244724950384" lon="12.38948520130586"><ele>519.0</ele><time>2026-05-01T11:43:33Z</time></trkpt><trkpt lat="47.83258745932765" lon="12.389767464230255"><ele>520.0</ele><time>2026-05-01T11:43:34Z</time></trkpt><trkpt lat="47.832725200323935" lon="12.390060804035206"><ele>521.0</ele><time>2026-05-01T11:43:35Z</time></trkpt><trkpt lat="47.83285817226332" lon="12.390366114038681"><ele>520.5</ele><time>2026-05-01T11:43:36Z</time></trkpt><trkpt lat="47.83298751245805" lon="12.390678868474026"><ele>520.0</ele><time>2026-05-01T11:43:37Z</time></trkpt><trkpt lat="47.83311209137205" lon="12.39100003209053"><ele>520.0</ele><time>2026-05-01T11:43:38Z</time></trkpt><trkpt lat="47.833231410819586" lon="12.391328204208834"><ele>520.0</ele><time>2026-05-01T11:43:39Z</time></trkpt><trkpt lat="47.83334552245572" lon="12.391663916398437"><ele>520.0</ele><time>2026-05-01T11:43:40Z</time></trkpt><trkpt lat="47.833452257828334" lon="12.39201077067694"><ele>520.0</ele><time>2026-05-01T11:43:41Z</time></trkpt><trkpt lat="47.83355125897018" lon="12.392365532959403"><ele>521.5</ele><time>2026-05-01T11:43:42Z</time></trkpt><trkpt lat="47.83364121491944" lon="12.392727170238063"><ele>523.0</ele><time>2026-05-01T11:43:43Z</time></trkpt><trkpt lat="47.833722824200585" lon="12.393094067518678"><ele>523.0</ele><time>2026-05-01T11:43:44Z</time></trkpt><trkpt lat="47.83379771431038" lon="12.393467010882112"><ele>523.0</ele><time>2026-05-01T11:43:45Z</time></trkpt><trkpt lat="47.8338659185867" lon="12.393847577023527"><ele>521.0</ele><time>2026-05-01T11:43:46Z</time></trkpt><trkpt lat="47.83392812702658" lon="12.394234167865141"><ele>519.0</ele><time>2026-05-01T11:43:47Z</time></trkpt><trkpt lat="47.83398017632438" lon="12.39462586634593"><ele>518.0</ele><time>2026-05-01T11:43:48Z</time></trkpt><trkpt lat="47.834024731090246" lon="12.395021148174983"><ele>517.0</ele><time>2026-05-01T11:43:49Z</time></trkpt><trkpt lat="47.83406032639205" lon="12.395420364287027"><ele>517.5</ele><time>2026-05-01T11:43:50Z</time></trkpt><trkpt lat="47.8340870745695" lon="12.395823277875564"><ele>518.0</ele><time>2026-05-01T11:43:51Z</time></trkpt><trkpt lat="47.83410303687535" lon="12.396228200283833"><ele>518.0</ele><time>2026-05-01T11:43:52Z</time></trkpt><trkpt lat="47.834112009986946" lon="12.396636597833938"><ele>518.0</ele><time>2026-05-01T11:43:53Z</time></trkpt><trkpt lat="47.83411175043793" lon="12.397046445120855"><ele>517.0</ele><time>2026-05-01T11:43:54Z</time></trkpt><trkpt lat="47.8341016474404" lon="12.397453674450857"><ele>516.0</ele><time>2026-05-01T11:43:55Z</time></trkpt><trkpt lat="47.83408370763845" lon="12.397857932331382"><ele>516.0</ele><time>2026-05-01T11:43:56Z</time></trkpt><trkpt lat="47.83405736934477" lon="12.398260428619679"><ele>516.0</ele><time>2026-05-01T11:43:57Z</time></trkpt><trkpt lat="47.83402560712925" lon="12.398660099282923"><ele>516.0</ele><time>2026-05-01T11:43:58Z</time></trkpt><trkpt lat="47.83399177135" lon="12.399059623745446"><ele>516.0</ele><time>2026-05-01T11:43:59Z</time></trkpt><trkpt lat="47.83395987190684" lon="12.399456118712"><ele>516.0</ele><time>2026-05-01T11:44:00Z</time></trkpt><trkpt lat="47.833929584313886" lon="12.399853339666883"><ele>516.0</ele><time>2026-05-01T11:44:01Z</time></trkpt><trkpt lat="47.83389993638564" lon="12.40025005054533"><ele>516.0</ele><time>2026-05-01T11:44:02Z</time></trkpt><trkpt lat="47.83387138910174" lon="12.400646176552177"><ele>516.0</ele><time>2026-05-01T11:44:03Z</time></trkpt><trkpt lat="47.833839383267076" lon="12.401040931916784"><ele>516.0</ele><time>2026-05-01T11:44:04Z</time></trkpt><trkpt lat="47.83380893284813" lon="12.401434929211664"><ele>516.0</ele><time>2026-05-01T11:44:05Z</time></trkpt><trkpt lat="47.83377765501828" lon="12.401827320348954"><ele>517.5</ele><time>2026-05-01T11:44:06Z</time></trkpt><trkpt lat="47.833746189920554" lon="12.402221670206222"><ele>519.0</ele><time>2026-05-01T11:44:07Z</time></trkpt><trkpt lat="47.833715674330776" lon="12.402618061904377"><ele>520.0</ele><time>2026-05-01T11:44:08Z</time></trkpt><trkpt lat="47.833683836642926" lon="12.403016146547824"><ele>521.0</ele><time>2026-05-01T11:44:09Z</time></trkpt><trkpt lat="47.83365051319289" lon="12.403416729838494"><ele>521.0</ele><time>2026-05-01T11:44:10Z</time></trkpt><trkpt lat="47.83361816994983" lon="12.403818499781133"><ele>521.0</ele><time>2026-05-01T11:44:11Z</time></trkpt><trkpt lat="47.8335872690554" lon="12.404222947951013"><ele>519.5</ele><time>2026-05-01T11:44:12Z</time></trkpt><trkpt lat="47.83355633360339" lon="12.404626239041777"><ele>518.0</ele><time>2026-05-01T11:44:13Z</time></trkpt><trkpt lat="47.83352370689616" lon="12.405028459812042"><ele>519.0</ele><time>2026-05-01T11:44:14Z</time></trkpt><trkpt lat="47.83349198658199" lon="12.405430263815255"><ele>520.0</ele><time>2026-05-01T11:44:15Z</time></trkpt><trkpt lat="47.8334629653678" lon="12.40583058004325"><ele>520.0</ele><time>2026-05-01T11:44:16Z</time></trkpt><trkpt lat="47.833438150038454" lon="12.406231417003562"><ele>520.0</ele><time>2026-05-01T11:44:17Z</time></trkpt><trkpt lat="47.833416502226044" lon="12.40663242874663"><ele>519.0</ele><time>2026-05-01T11:44:18Z</time></trkpt><trkpt lat="47.83339805032576" lon="12.407033843144921"><ele>518.0</ele><time>2026-05-01T11:44:19Z</time></trkpt><trkpt lat="47.83338196232584" lon="12.4074332540561"><ele>517.0</ele><time>2026-05-01T11:44:20Z</time></trkpt><trkpt lat="47.83337401478378" lon="12.407830746126676"><ele>516.0</ele><time>2026-05-01T11:44:21Z</time></trkpt><trkpt lat="47.83337246946371" lon="12.408227315470388"><ele>516.0</ele><time>2026-05-01T11:44:22Z</time></trkpt><trkpt lat="47.83337613156182" lon="12.408621945522249"><ele>516.0</ele><time>2026-05-01T11:44:23Z</time></trkpt><trkpt lat="47.83338198033843" lon="12.409015078672352"><ele>518.0</ele><time>2026-05-01T11:44:24Z</time></trkpt><trkpt lat="47.833391897894685" lon="12.40940497201145"><ele>520.0</ele><time>2026-05-01T11:44:25Z</time></trkpt><trkpt lat="47.83340933370834" lon="12.40979166390581"><ele>521.5</ele><time>2026-05-01T11:44:26Z</time></trkpt><trkpt lat="47.83343185420269" lon="12.41018050162533"><ele>523.0</ele><time>2026-05-01T11:44:27Z</time></trkpt><trkpt lat="47.83345897206251" lon="12.410572908535176"><ele>522.0</ele><time>2026-05-01T11:44:28Z</time></trkpt><trkpt lat="47.83348908274574" lon="12.410969273445998"><ele>521.0</ele><time>2026-05-01T11:44:29Z</time></trkpt><trkpt lat="47.83352000761835" lon="12.411368250892203"><ele>521.0</ele><time>2026-05-01T11:44:30Z</time></trkpt><trkpt lat="47.83355194390469" lon="12.411769199909894"><ele>521.0</ele><time>2026-05-01T11:44:31Z</time></trkpt><trkpt lat="47.83358327701785" lon="12.41217516274215"><ele>521.0</ele><time>2026-05-01T11:44:32Z</time></trkpt><trkpt lat="47.833614481348036" lon="12.412585668887663"><ele>521.0</ele><time>2026-05-01T11:44:33Z</time></trkpt><trkpt lat="47.833646499235314" lon="12.41299872585407"><ele>521.0</ele><time>2026-05-01T11:44:34Z</time></trkpt><trkpt lat="47.83367912927366" lon="12.413415200328533"><ele>521.0</ele><time>2026-05-01T11:44:35Z</time></trkpt><trkpt lat="47.833712580265406" lon="12.413832803759096"><ele>521.0</ele><time>2026-05-01T11:44:36Z</time></trkpt><trkpt lat="47.8337433977659" lon="12.414250747408458"><ele>521.0</ele><time>2026-05-01T11:44:37Z</time></trkpt><trkpt lat="47.8337730216976" lon="12.414666687588504"><ele>521.0</ele><time>2026-05-01T11:44:38Z</time></trkpt><trkpt lat="47.833804302453984" lon="12.41508702098242"><ele>521.0</ele><time>2026-05-01T11:44:39Z</time></trkpt><trkpt lat="47.83383523968822" lon="12.41550941584613"><ele>520.0</ele><time>2026-05-01T11:44:40Z</time></trkpt><trkpt lat="47.83386559139016" lon="12.415933703474202"><ele>519.0</ele><time>2026-05-01T11:44:41Z</time></trkpt><trkpt lat="47.83389400286891" lon="12.416358206282435"><ele>519.0</ele><time>2026-05-01T11:44:42Z</time></trkpt><trkpt lat="47.83391933852382" lon="12.416782333896283"><ele>519.0</ele><time>2026-05-01T11:44:43Z</time></trkpt><trkpt lat="47.83393905704949" lon="12.417202148881051"><ele>519.0</ele><time>2026-05-01T11:44:44Z</time></trkpt><trkpt lat="47.8339539738752" lon="12.4176183850285"><ele>519.0</ele><time>2026-05-01T11:44:45Z</time></trkpt><trkpt lat="47.833963651612336" lon="12.418037695142274"><ele>519.0</ele><time>2026-05-01T11:44:46Z</time></trkpt><trkpt lat="47.833969749383186" lon="12.418457681747487"><ele>519.0</ele><time>2026-05-01T11:44:47Z</time></trkpt><trkpt lat="47.833971454577906" lon="12.418877058573418"><ele>521.0</ele><time>2026-05-01T11:44:48Z</time></trkpt><trkpt lat="47.833968317875964" lon="12.419294046772157"><ele>523.0</ele><time>2026-05-01T11:44:49Z</time></trkpt><trkpt lat="47.833964475095755" lon="12.419712072750228"><ele>523.5</ele><time>2026-05-01T11:44:50Z</time></trkpt><trkpt lat="47.83395985411803" lon="12.420135114448692"><ele>524.0</ele><time>2026-05-01T11:44:51Z</time></trkpt><trkpt lat="47.83395480858276" lon="12.420558650730989"><ele>522.0</ele><time>2026-05-01T11:44:52Z</time></trkpt><trkpt lat="47.83394855469521" lon="12.420980882798053"><ele>520.0</ele><time>2026-05-01T11:44:53Z</time></trkpt><trkpt lat="47.833941739944244" lon="12.421401756418817"><ele>519.5</ele><time>2026-05-01T11:44:54Z</time></trkpt><trkpt lat="47.83393378859946" lon="12.42182246746461"><ele>519.0</ele><time>2026-05-01T11:44:55Z</time></trkpt><trkpt lat="47.83392479076935" lon="12.422240506487192"><ele>518.5</ele><time>2026-05-01T11:44:56Z</time></trkpt><trkpt lat="47.83391657072261" lon="12.422654196313589"><ele>518.0</ele><time>2026-05-01T11:44:57Z</time></trkpt><trkpt lat="47.833909348913124" lon="12.423045152181595"><ele>518.0</ele><time>2026-05-01T11:44:58Z</time></trkpt><trkpt lat="47.83390397556613" lon="12.42343376621631"><ele>518.0</ele><time>2026-05-01T11:44:59Z</time></trkpt><trkpt lat="47.83389768850711" lon="12.42382558219717"><ele>518.5</ele><time>2026-05-01T11:45:00Z</time></trkpt><trkpt lat="47.83389226704195" lon="12.424230410214813"><ele>519.0</ele><time>2026-05-01T11:45:01Z</time></trkpt><trkpt lat="47.83388610966632" lon="12.424642505493797"><ele>519.0</ele><time>2026-05-01T11:45:02Z</time></trkpt><trkpt lat="47.83388108555012" lon="12.425059059988056"><ele>519.0</ele><time>2026-05-01T11:45:03Z</time></trkpt><trkpt lat="47.83387747340543" lon="12.425479225731321"><ele>519.0</ele><time>2026-05-01T11:45:04Z</time></trkpt><trkpt lat="47.83387294297095" lon="12.425901279912226"><ele>519.0</ele><time>2026-05-01T11:45:05Z</time></trkpt><trkpt lat="47.83386479204141" lon="12.426325101306698"><ele>518.5</ele><time>2026-05-01T11:45:06Z</time></trkpt><trkpt lat="47.83385563985152" lon="12.426750376206265"><ele>518.0</ele><time>2026-05-01T11:45:07Z</time></trkpt><trkpt lat="47.833847326717205" lon="12.42717503647684"><ele>518.0</ele><time>2026-05-01T11:45:08Z</time></trkpt><trkpt lat="47.83383973458446" lon="12.427600497135229"><ele>518.0</ele><time>2026-05-01T11:45:09Z</time></trkpt><trkpt lat="47.8338324249214" lon="12.428026250429635"><ele>517.5</ele><time>2026-05-01T11:45:10Z</time></trkpt><trkpt lat="47.83382395675171" lon="12.428447165284732"><ele>517.0</ele><time>2026-05-01T11:45:11Z</time></trkpt><trkpt lat="47.83381616972393" lon="12.428861881017793"><ele>516.0</ele><time>2026-05-01T11:45:12Z</time></trkpt><trkpt lat="47.83380867086389" lon="12.429272581238937"><ele>515.0</ele><time>2026-05-01T11:45:13Z</time></trkpt><trkpt lat="47.83380167550845" lon="12.42968207127806"><ele>515.0</ele><time>2026-05-01T11:45:14Z</time></trkpt><trkpt lat="47.83379545228128" lon="12.430094234003956"><ele>515.0</ele><time>2026-05-01T11:45:15Z</time></trkpt><trkpt lat="47.833789186618496" lon="12.430508756443508"><ele>517.0</ele><time>2026-05-01T11:45:16Z</time></trkpt><trkpt lat="47.83378326222279" lon="12.430925630852801"><ele>519.0</ele><time>2026-05-01T11:45:17Z</time></trkpt><trkpt lat="47.83378368508987" lon="12.431345162488947"><ele>519.0</ele><time>2026-05-01T11:45:18Z</time></trkpt><trkpt lat="47.83378731949357" lon="12.431766756452204"><ele>519.0</ele><time>2026-05-01T11:45:19Z</time></trkpt><trkpt lat="47.83378999242986" lon="12.432190058503386"><ele>519.0</ele><time>2026-05-01T11:45:20Z</time></trkpt><trkpt lat="47.83379127164727" lon="12.43261493080734"><ele>519.0</ele><time>2026-05-01T11:45:21Z</time></trkpt><trkpt lat="47.83378898143763" lon="12.433041324700767"><ele>519.5</ele><time>2026-05-01T11:45:22Z</time></trkpt><trkpt lat="47.833780552241386" lon="12.433468346952525"><ele>520.0</ele><time>2026-05-01T11:45:23Z</time></trkpt><trkpt lat="47.833771752895196" lon="12.433896601406556"><ele>520.0</ele><time>2026-05-01T11:45:24Z</time></trkpt><trkpt lat="47.83376996743891" lon="12.434322404238005"><ele>520.0</ele><time>2026-05-01T11:45:25Z</time></trkpt><trkpt lat="47.83377106705961" lon="12.434746901397801"><ele>521.0</ele><time>2026-05-01T11:45:26Z</time></trkpt><trkpt lat="47.83377252080453" lon="12.435170003369858"><ele>522.0</ele><time>2026-05-01T11:45:27Z</time></trkpt><trkpt lat="47.833774438819745" lon="12.435592475361103"><ele>520.0</ele><time>2026-05-01T11:45:28Z</time></trkpt><trkpt lat="47.83378502331565" lon="12.436013976286349"><ele>518.0</ele><time>2026-05-01T11:45:29Z</time></trkpt><trkpt lat="47.833801413236266" lon="12.436436177816667"><ele>518.0</ele><time>2026-05-01T11:45:30Z</time></trkpt><trkpt lat="47.83382227708042" lon="12.436859195253541"><ele>518.0</ele><time>2026-05-01T11:45:31Z</time></trkpt><trkpt lat="47.83385110640672" lon="12.437281131596645"><ele>518.5</ele><time>2026-05-01T11:45:32Z</time></trkpt><trkpt lat="47.833885222466236" lon="12.437701759663117"><ele>519.0</ele><time>2026-05-01T11:45:33Z</time></trkpt><trkpt lat="47.83392663431126" lon="12.438123402538155"><ele>519.5</ele><time>2026-05-01T11:45:34Z</time></trkpt><trkpt lat="47.833971682949375" lon="12.438544490422876"><ele>520.0</ele><time>2026-05-01T11:45:35Z</time></trkpt><trkpt lat="47.83401908995052" lon="12.438966006130787"><ele>520.5</ele><time>2026-05-01T11:45:36Z</time></trkpt><trkpt lat="47.83407065342474" lon="12.439386947773016"><ele>521.0</ele><time>2026-05-01T11:45:37Z</time></trkpt><trkpt lat="47.83412721030082" lon="12.439807411167969"><ele>521.0</ele><time>2026-05-01T11:45:38Z</time></trkpt><trkpt lat="47.83419002013515" lon="12.44022680870102"><ele>521.0</ele><time>2026-05-01T11:45:39Z</time></trkpt><trkpt lat="47.834260916892596" lon="12.440645858828828"><ele>519.0</ele><time>2026-05-01T11:45:40Z</time></trkpt><trkpt lat="47.8343363497431" lon="12.44106434113506"><ele>517.0</ele><time>2026-05-01T11:45:41Z</time></trkpt><trkpt lat="47.834414154455935" lon="12.441480717349691"><ele>517.0</ele><time>2026-05-01T11:45:42Z</time></trkpt><trkpt lat="47.83449413901997" lon="12.44189489950169"><ele>517.0</ele><time>2026-05-01T11:45:43Z</time></trkpt><trkpt lat="47.834579165662284" lon="12.442303674681892"><ele>517.0</ele><time>2026-05-01T11:45:44Z</time></trkpt><trkpt lat="47.83466786569658" lon="12.442707367058789"><ele>517.0</ele><time>2026-05-01T11:45:45Z</time></trkpt><trkpt lat="47.834762418047596" lon="12.443109262528953"><ele>517.5</ele><time>2026-05-01T11:45:46Z</time></trkpt><trkpt lat="47.83486465700175" lon="12.443506240885808"><ele>518.0</ele><time>2026-05-01T11:45:47Z</time></trkpt><trkpt lat="47.83497022315951" lon="12.44390261321967"><ele>518.0</ele><time>2026-05-01T11:45:48Z</time></trkpt><trkpt lat="47.83508136770844" lon="12.444294662046572"><ele>518.0</ele><time>2026-05-01T11:45:49Z</time></trkpt><trkpt lat="47.835193470242444" lon="12.444684044754778"><ele>518.5</ele><time>2026-05-01T11:45:50Z</time></trkpt><trkpt lat="47.83530652874229" lon="12.445069303958864"><ele>519.0</ele><time>2026-05-01T11:45:51Z</time></trkpt><trkpt lat="47.83542252056965" lon="12.445451177677723"><ele>518.0</ele><time>2026-05-01T11:45:52Z</time></trkpt><trkpt lat="47.83554049050237" lon="12.445827321290679"><ele>517.0</ele><time>2026-05-01T11:45:53Z</time></trkpt><trkpt lat="47.83566088592325" lon="12.446201597378215"><ele>517.0</ele><time>2026-05-01T11:45:54Z</time></trkpt><trkpt lat="47.8357839998713" lon="12.446570841447905"><ele>517.0</ele><time>2026-05-01T11:45:55Z</time></trkpt><trkpt lat="47.83590911661887" lon="12.446938340369547"><ele>517.5</ele><time>2026-05-01T11:45:56Z</time></trkpt><trkpt lat="47.83603158581169" lon="12.447310083335942"><ele>518.0</ele><time>2026-05-01T11:45:57Z</time></trkpt><trkpt lat="47.83615133351323" lon="12.447683311290442"><ele>518.5</ele><time>2026-05-01T11:45:58Z</time></trkpt><trkpt lat="47.83627385148264" lon="12.448054770554185"><ele>519.0</ele><time>2026-05-01T11:45:59Z</time></trkpt><trkpt lat="47.8363941621709" lon="12.44842504944399"><ele>519.0</ele><time>2026-05-01T11:46:00Z</time></trkpt><trkpt lat="47.8365162845082" lon="12.448796743488748"><ele>519.0</ele><time>2026-05-01T11:46:01Z</time></trkpt><trkpt lat="47.83663540397107" lon="12.449172664003072"><ele>519.0</ele><time>2026-05-01T11:46:02Z</time></trkpt><trkpt lat="47.83674735434673" lon="12.449558052356178"><ele>519.0</ele><time>2026-05-01T11:46:03Z</time></trkpt><trkpt lat="47.83685173945187" lon="12.449951414217898"><ele>518.5</ele><time>2026-05-01T11:46:04Z</time></trkpt><trkpt lat="47.836949305801575" lon="12.450351700115046"><ele>518.0</ele><time>2026-05-01T11:46:05Z</time></trkpt><trkpt lat="47.83703958656673" lon="12.450759358467566"><ele>518.0</ele><time>2026-05-01T11:46:06Z</time></trkpt><trkpt lat="47.83712572163357" lon="12.451171391664667"><ele>518.0</ele><time>2026-05-01T11:46:07Z</time></trkpt><trkpt lat="47.83720811905989" lon="12.451585749135752"><ele>518.0</ele><time>2026-05-01T11:46:08Z</time></trkpt><trkpt lat="47.8372868779364" lon="12.45200211132418"><ele>518.0</ele><time>2026-05-01T11:46:09Z</time></trkpt><trkpt lat="47.83735768287935" lon="12.45242345681721"><ele>518.0</ele><time>2026-05-01T11:46:10Z</time></trkpt><trkpt lat="47.837417135486724" lon="12.45284874116094"><ele>518.0</ele><time>2026-05-01T11:46:11Z</time></trkpt><trkpt lat="47.83746553118595" lon="12.453277531141516"><ele>518.0</ele><time>2026-05-01T11:46:12Z</time></trkpt><trkpt lat="47.83750514209272" lon="12.453711343581288"><ele>518.0</ele><time>2026-05-01T11:46:13Z</time></trkpt><trkpt lat="47.83753746015066" lon="12.45414604552869"><ele>517.5</ele><time>2026-05-01T11:46:14Z</time></trkpt><trkpt lat="47.83756359552826" lon="12.454581755892509"><ele>517.0</ele><time>2026-05-01T11:46:15Z</time></trkpt><trkpt lat="47.837586783524706" lon="12.455016924421887"><ele>517.0</ele><time>2026-05-01T11:46:16Z</time></trkpt><trkpt lat="47.83760793461831" lon="12.45545298193017"><ele>517.0</ele><time>2026-05-01T11:46:17Z</time></trkpt><trkpt lat="47.83762754755124" lon="12.455889183016202"><ele>516.5</ele><time>2026-05-01T11:46:18Z</time></trkpt><trkpt lat="47.8376426398729" lon="12.456324845518282"><ele>516.0</ele><time>2026-05-01T11:46:19Z</time></trkpt><trkpt lat="47.837652684287164" lon="12.456761314105604"><ele>516.5</ele><time>2026-05-01T11:46:20Z</time></trkpt><trkpt lat="47.8376637101922" lon="12.457199191209439"><ele>517.0</ele><time>2026-05-01T11:46:21Z</time></trkpt><trkpt lat="47.83767778879178" lon="12.457639347096583"><ele>517.0</ele><time>2026-05-01T11:46:22Z</time></trkpt><trkpt lat="47.83769694141248" lon="12.458078304879027"><ele>517.0</ele><time>2026-05-01T11:46:23Z</time></trkpt><trkpt lat="47.83772134358683" lon="12.458517002640045"><ele>517.0</ele><time>2026-05-01T11:46:24Z</time></trkpt><trkpt lat="47.83774729077867" lon="12.458953568080569"><ele>517.0</ele><time>2026-05-01T11:46:25Z</time></trkpt><trkpt lat="47.83777231064163" lon="12.459368617614254"><ele>516.5</ele><time>2026-05-01T11:46:26Z</time></trkpt><trkpt lat="47.837795545591796" lon="12.45977073014507"><ele>516.0</ele><time>2026-05-01T11:46:27Z</time></trkpt><trkpt lat="47.83781714891957" lon="12.460191546835539"><ele>516.0</ele><time>2026-05-01T11:46:28Z</time></trkpt><trkpt lat="47.83783697340674" lon="12.460617093683744"><ele>516.0</ele><time>2026-05-01T11:46:29Z</time></trkpt><trkpt lat="47.83785507303022" lon="12.461043122567576"><ele>516.0</ele><time>2026-05-01T11:46:30Z</time></trkpt><trkpt lat="47.837874059965166" lon="12.461466286000165"><ele>516.0</ele><time>2026-05-01T11:46:31Z</time></trkpt><trkpt lat="47.837899951353954" lon="12.461880114107238"><ele>516.0</ele><time>2026-05-01T11:46:32Z</time></trkpt><trkpt lat="47.83793368495805" lon="12.462288123812241"><ele>516.0</ele><time>2026-05-01T11:46:33Z</time></trkpt><trkpt lat="47.837966640910786" lon="12.462702216830854"><ele>516.5</ele><time>2026-05-01T11:46:34Z</time></trkpt><trkpt lat="47.83799633357735" lon="12.46312011347267"><ele>517.0</ele><time>2026-05-01T11:46:35Z</time></trkpt><trkpt lat="47.838019156921234" lon="12.463539840044914"><ele>517.0</ele><time>2026-05-01T11:46:36Z</time></trkpt><trkpt lat="47.838036862467355" lon="12.463957721466757"><ele>517.0</ele><time>2026-05-01T11:46:37Z</time></trkpt><trkpt lat="47.83805618189387" lon="12.464374710850919"><ele>517.5</ele><time>2026-05-01T11:46:38Z</time></trkpt><trkpt lat="47.83807660176415" lon="12.464791116690085"><ele>518.0</ele><time>2026-05-01T11:46:39Z</time></trkpt><trkpt lat="47.838099828579786" lon="12.465210294592902"><ele>518.5</ele><time>2026-05-01T11:46:40Z</time></trkpt><trkpt lat="47.83811994575656" lon="12.465634494557237"><ele>519.0</ele><time>2026-05-01T11:46:41Z</time></trkpt><trkpt lat="47.8381396644887" lon="12.466060042644521"><ele>519.0</ele><time>2026-05-01T11:46:42Z</time></trkpt><trkpt lat="47.83815774372336" lon="12.466488653989146"><ele>519.0</ele><time>2026-05-01T11:46:43Z</time></trkpt><trkpt lat="47.838175507424" lon="12.466919015287719"><ele>519.5</ele><time>2026-05-01T11:46:44Z</time></trkpt><trkpt lat="47.83819868051017" lon="12.467352754628932"><ele>520.0</ele><time>2026-05-01T11:46:45Z</time></trkpt><trkpt lat="47.83822323254202" lon="12.467791506008686"><ele>520.0</ele><time>2026-05-01T11:46:46Z</time></trkpt><trkpt lat="47.83824764428964" lon="12.468233005390756"><ele>520.0</ele><time>2026-05-01T11:46:47Z</time></trkpt><trkpt lat="47.83827128173675" lon="12.468677048681947"><ele>519.0</ele><time>2026-05-01T11:46:48Z</time></trkpt><trkpt lat="47.83829415680224" lon="12.469119964741257"><ele>518.0</ele><time>2026-05-01T11:46:49Z</time></trkpt><trkpt lat="47.83831463596492" lon="12.469561396940058"><ele>517.5</ele><time>2026-05-01T11:46:50Z</time></trkpt><trkpt lat="47.838334309892225" lon="12.470001523507932"><ele>517.0</ele><time>2026-05-01T11:46:51Z</time></trkpt><trkpt lat="47.83835627070811" lon="12.470440594763573"><ele>517.5</ele><time>2026-05-01T11:46:52Z</time></trkpt><trkpt lat="47.83837949739308" lon="12.470881500211817"><ele>518.0</ele><time>2026-05-01T11:46:53Z</time></trkpt><trkpt lat="47.838400668845104" lon="12.471322435373294"><ele>518.5</ele><time>2026-05-01T11:46:54Z</time></trkpt><trkpt lat="47.83842003290462" lon="12.471762832315157"><ele>519.0</ele><time>2026-05-01T11:46:55Z</time></trkpt><trkpt lat="47.83843904011313" lon="12.472202231199422"><ele>519.0</ele><time>2026-05-01T11:46:56Z</time></trkpt><trkpt lat="47.838459693455206" lon="12.472638373821516"><ele>519.0</ele><time>2026-05-01T11:46:57Z</time></trkpt><trkpt lat="47.83848183584128" lon="12.473072546981955"><ele>519.0</ele><time>2026-05-01T11:46:58Z</time></trkpt><trkpt lat="47.83850488114128" lon="12.473500749788291"><ele>519.0</ele><time>2026-05-01T11:46:59Z</time></trkpt><trkpt lat="47.83852490729076" lon="12.473927158291414"><ele>518.5</ele><time>2026-05-01T11:47:00Z</time></trkpt><trkpt lat="47.83854487102911" lon="12.474354612903726"><ele>518.0</ele><time>2026-05-01T11:47:01Z</time></trkpt><trkpt lat="47.83856454567763" lon="12.474782033110982"><ele>518.0</ele><time>2026-05-01T11:47:02Z</time></trkpt><trkpt lat="47.83858535653482" lon="12.475212291753381"><ele>518.0</ele><time>2026-05-01T11:47:03Z</time></trkpt><trkpt lat="47.838605581231974" lon="12.475646111656756"><ele>518.0</ele><time>2026-05-01T11:47:04Z</time></trkpt><trkpt lat="47.838627769616366" lon="12.4760804670908"><ele>518.0</ele><time>2026-05-01T11:47:05Z</time></trkpt><trkpt lat="47.838649308216" lon="12.476515754115137"><ele>518.0</ele><time>2026-05-01T11:47:06Z</time></trkpt><trkpt lat="47.838670589904446" lon="12.47695043629977"><ele>518.0</ele><time>2026-05-01T11:47:07Z</time></trkpt><trkpt lat="47.83869193980318" lon="12.477383890537139"><ele>518.0</ele><time>2026-05-01T11:47:08Z</time></trkpt><trkpt lat="47.8387084461858" lon="12.477814270806515"><ele>518.0</ele><time>2026-05-01T11:47:09Z</time></trkpt><trkpt lat="47.838717218889876" lon="12.478247313480487"><ele>518.0</ele><time>2026-05-01T11:47:10Z</time></trkpt><trkpt lat="47.8387229413727" lon="12.47867973647089"><ele>518.0</ele><time>2026-05-01T11:47:11Z</time></trkpt><trkpt lat="47.83873228257185" lon="12.479110791110038"><ele>519.5</ele><time>2026-05-01T11:47:12Z</time></trkpt><trkpt lat="47.83875008972215" lon="12.47953351303206"><ele>521.0</ele><time>2026-05-01T11:47:13Z</time></trkpt><trkpt lat="47.83876892857138" lon="12.479949380446305"><ele>521.0</ele><time>2026-05-01T11:47:14Z</time></trkpt><trkpt lat="47.83878285880772" lon="12.480355488120468"><ele>521.0</ele><time>2026-05-01T11:47:15Z</time></trkpt><trkpt lat="47.838793191719006" lon="12.480752903131409"><ele>520.5</ele><time>2026-05-01T11:47:16Z</time></trkpt><trkpt lat="47.838797329704796" lon="12.481138595072917"><ele>520.0</ele><time>2026-05-01T11:47:17Z</time></trkpt><trkpt lat="47.838796971092435" lon="12.481504197728919"><ele>520.0</ele><time>2026-05-01T11:47:18Z</time></trkpt><trkpt lat="47.83879267019717" lon="12.481867683166817"><ele>520.0</ele><time>2026-05-01T11:47:19Z</time></trkpt><trkpt lat="47.83878642269753" lon="12.482231621616373"><ele>519.5</ele><time>2026-05-01T11:47:20Z</time></trkpt><trkpt lat="47.838776616766786" lon="12.482593759856604"><ele>519.0</ele><time>2026-05-01T11:47:21Z</time></trkpt><trkpt lat="47.83876186359681" lon="12.482956530211421"><ele>519.0</ele><time>2026-05-01T11:47:22Z</time></trkpt><trkpt lat="47.838743416680735" lon="12.483306338210083"><ele>519.0</ele><time>2026-05-01T11:47:23Z</time></trkpt><trkpt lat="47.8387215420363" lon="12.483648970410258"><ele>518.0</ele><time>2026-05-01T11:47:24Z</time></trkpt><trkpt lat="47.83869602385789" lon="12.483997504899323"><ele>517.0</ele><time>2026-05-01T11:47:25Z</time></trkpt><trkpt lat="47.838666823963905" lon="12.484350192449433"><ele>517.5</ele><time>2026-05-01T11:47:26Z</time></trkpt><trkpt lat="47.83863685399702" lon="12.48470796311297"><ele>518.0</ele><time>2026-05-01T11:47:27Z</time></trkpt><trkpt lat="47.838604665542114" lon="12.485064800494207"><ele>518.0</ele><time>2026-05-01T11:47:28Z</time></trkpt><trkpt lat="47.83856722648045" lon="12.485418825198924"><ele>518.0</ele><time>2026-05-01T11:47:29Z</time></trkpt><trkpt lat="47.8385249230611" lon="12.485772179716559"><ele>518.5</ele><time>2026-05-01T11:47:30Z</time></trkpt><trkpt lat="47.83847662155072" lon="12.486126932108697"><ele>519.0</ele><time>2026-05-01T11:47:31Z</time></trkpt><trkpt lat="47.838425148739404" lon="12.48648405063669"><ele>519.5</ele><time>2026-05-01T11:47:32Z</time></trkpt><trkpt lat="47.83837281734359" lon="12.486838830558762"><ele>520.0</ele><time>2026-05-01T11:47:33Z</time></trkpt><trkpt lat="47.83831873544751" lon="12.487187571610214"><ele>520.0</ele><time>2026-05-01T11:47:34Z</time></trkpt><trkpt lat="47.83826270301601" lon="12.48753344980583"><ele>520.0</ele><time>2026-05-01T11:47:35Z</time></trkpt><trkpt lat="47.8382011708237" lon="12.487880716538998"><ele>521.0</ele><time>2026-05-01T11:47:36Z</time></trkpt><trkpt lat="47.83813504408192" lon="12.488224865317434"><ele>522.0</ele><time>2026-05-01T11:47:37Z</time></trkpt><trkpt lat="47.838069213276455" lon="12.488569591511483"><ele>522.0</ele><time>2026-05-01T11:47:38Z</time></trkpt><trkpt lat="47.83799964380741" lon="12.48891633344357"><ele>522.0</ele><time>2026-05-01T11:47:39Z</time></trkpt><trkpt lat="47.83792497590454" lon="12.489266250790186"><ele>522.0</ele><time>2026-05-01T11:47:40Z</time></trkpt><trkpt lat="47.837847157230215" lon="12.489619896502031"><ele>522.0</ele><time>2026-05-01T11:47:41Z</time></trkpt><trkpt lat="47.83776774789018" lon="12.489963989461305"><ele>522.0</ele><time>2026-05-01T11:47:42Z</time></trkpt><trkpt lat="47.83769131023917" lon="12.490288244609049"><ele>522.0</ele><time>2026-05-01T11:47:43Z</time></trkpt><trkpt lat="47.837615931298515" lon="12.490601208034848"><ele>521.0</ele><time>2026-05-01T11:47:44Z</time></trkpt><trkpt lat="47.83753552113566" lon="12.490918985825704"><ele>520.0</ele><time>2026-05-01T11:47:45Z</time></trkpt><trkpt lat="47.83745383196803" lon="12.491243376184165"><ele>520.0</ele><time>2026-05-01T11:47:46Z</time></trkpt><trkpt lat="47.83737321581932" lon="12.49156919392171"><ele>520.0</ele><time>2026-05-01T11:47:47Z</time></trkpt><trkpt lat="47.837294474880586" lon="12.49189277214174"><ele>521.5</ele><time>2026-05-01T11:47:48Z</time></trkpt><trkpt lat="47.83721527905467" lon="12.492209900199754"><ele>523.0</ele><time>2026-05-01T11:47:49Z</time></trkpt><trkpt lat="47.83714002953281" lon="12.492525881634178"><ele>523.0</ele><time>2026-05-01T11:47:50Z</time></trkpt><trkpt lat="47.83706473756638" lon="12.492841197046936"><ele>523.0</ele><time>2026-05-01T11:47:51Z</time></trkpt><trkpt lat="47.836989283416045" lon="12.493153445956228"><ele>523.0</ele><time>2026-05-01T11:47:52Z</time></trkpt><trkpt lat="47.83691525924862" lon="12.493455525088418"><ele>524.0</ele><time>2026-05-01T11:47:53Z</time></trkpt><trkpt lat="47.83684232407698" lon="12.493753174853014"><ele>525.0</ele><time>2026-05-01T11:47:54Z</time></trkpt><trkpt lat="47.83676995610566" lon="12.494046587006833"><ele>526.0</ele><time>2026-05-01T11:47:55Z</time></trkpt><trkpt lat="47.83669742472945" lon="12.49433628042584"><ele>526.3333333333334</ele><time>2026-05-01T11:47:56Z</time></trkpt><trkpt lat="47.836625237287464" lon="12.494630214753474"><ele>526.6666666666666</ele><time>2026-05-01T11:47:57Z</time></trkpt><trkpt lat="47.83655290804476" lon="12.494925298716767"><ele>527.0</ele><time>2026-05-01T11:47:58Z</time></trkpt><trkpt lat="47.836480015085044" lon="12.495221491234487"><ele>526.6666666666666</ele><time>2026-05-01T11:47:59Z</time></trkpt><trkpt lat="47.83640714342396" lon="12.49551495662456"><ele>526.3333333333334</ele><time>2026-05-01T11:48:00Z</time></trkpt><trkpt lat="47.83633596460566" lon="12.495805609615331"><ele>526.0</ele><time>2026-05-01T11:48:01Z</time></trkpt><trkpt lat="47.83626647831805" lon="12.496091599906077"><ele>526.0</ele><time>2026-05-01T11:48:02Z</time></trkpt><trkpt lat="47.83619490457844" lon="12.496381967598635"><ele>526.0</ele><time>2026-05-01T11:48:03Z</time></trkpt><trkpt lat="47.836122674034364" lon="12.496676469469211"><ele>526.0</ele><time>2026-05-01T11:48:04Z</time></trkpt><trkpt lat="47.83605061941786" lon="12.496973116025137"><ele>525.3333333333334</ele><time>2026-05-01T11:48:05Z</time></trkpt><trkpt lat="47.83597865453864" lon="12.497275932711794"><ele>524.6666666666666</ele><time>2026-05-01T11:48:06Z</time></trkpt><trkpt lat="47.83590555804231" lon="12.49758133499943"><ele>524.0</ele><time>2026-05-01T11:48:07Z</time></trkpt><trkpt lat="47.83583181377988" lon="12.497888861957847"><ele>524.0</ele><time>2026-05-01T11:48:08Z</time></trkpt><trkpt lat="47.83575729760019" lon="12.498197964234073"><ele>524.0</ele><time>2026-05-01T11:48:09Z</time></trkpt><trkpt lat="47.83568205976687" lon="12.498503098232165"><ele>524.0</ele><time>2026-05-01T11:48:10Z</time></trkpt><trkpt lat="47.83560733801965" lon="12.498808226716895"><ele>524.3333333333333</ele><time>2026-05-01T11:48:11Z</time></trkpt><trkpt lat="47.835533087049185" lon="12.499112827009657"><ele>524.6666666666666</ele><time>2026-05-01T11:48:12Z</time></trkpt><trkpt lat="47.83546047107613" lon="12.499412200249068"><ele>525.0</ele><time>2026-05-01T11:48:13Z</time></trkpt><trkpt lat="47.83538891907099" lon="12.499696809321009"><ele>525.3333333333334</ele><time>2026-05-01T11:48:14Z</time></trkpt><trkpt lat="47.8353175984043" lon="12.499979347304642"><ele>525.6666666666667</ele><time>2026-05-01T11:48:15Z</time></trkpt><trkpt lat="47.83524577795531" lon="12.500265535296759"><ele>526.0</ele><time>2026-05-01T11:48:16Z</time></trkpt><trkpt lat="47.83517395977918" lon="12.500556178389461"><ele>525.6666666666667</ele><time>2026-05-01T11:48:17Z</time></trkpt><trkpt lat="47.83510142999276" lon="12.500841108813258"><ele>525.3333333333334</ele><time>2026-05-01T11:48:18Z</time></trkpt><trkpt lat="47.835033519604124" lon="12.501112432347504"><ele>525.0</ele><time>2026-05-01T11:48:19Z</time></trkpt><trkpt lat="47.83496866620443" lon="12.50137119818745"><ele>525.0</ele><time>2026-05-01T11:48:20Z</time></trkpt><trkpt lat="47.83490725544826" lon="12.501622744408357"><ele>525.0</ele><time>2026-05-01T11:48:21Z</time></trkpt><trkpt lat="47.83484452474883" lon="12.501872824577148"><ele>525.0</ele><time>2026-05-01T11:48:22Z</time></trkpt><trkpt lat="47.83478355401695" lon="12.502119919142752"><ele>525.6666666666666</ele><time>2026-05-01T11:48:23Z</time></trkpt><trkpt lat="47.83472461504749" lon="12.502364493939691"><ele>526.3333333333333</ele><time>2026-05-01T11:48:24Z</time></trkpt><trkpt lat="47.83466688607959" lon="12.502599522665676"><ele>527.0</ele><time>2026-05-01T11:48:25Z</time></trkpt><trkpt lat="47.83460909197756" lon="12.502831346589915"><ele>527.3333333333333</ele><time>2026-05-01T11:48:26Z</time></trkpt><trkpt lat="47.83455462833996" lon="12.503062830625344"><ele>527.6666666666666</ele><time>2026-05-01T11:48:27Z</time></trkpt><trkpt lat="47.834497106998214" lon="12.503290083317848"><ele>528.0</ele><time>2026-05-01T11:48:28Z</time></trkpt><trkpt lat="47.83444256161061" lon="12.503517227828162"><ele>528.0</ele><time>2026-05-01T11:48:29Z</time></trkpt><trkpt lat="47.83438587784902" lon="12.503742288984197"><ele>528.0</ele><time>2026-05-01T11:48:30Z</time></trkpt><trkpt lat="47.83433003014233" lon="12.503967143991353"><ele>528.0</ele><time>2026-05-01T11:48:31Z</time></trkpt><trkpt lat="47.83427587945001" lon="12.504190118209713"><ele>527.0</ele><time>2026-05-01T11:48:32Z</time></trkpt><trkpt lat="47.83422074827994" lon="12.504410322350433"><ele>526.0</ele><time>2026-05-01T11:48:33Z</time></trkpt><trkpt lat="47.834166671481505" lon="12.504630367078232"><ele>525.0</ele><time>2026-05-01T11:48:34Z</time></trkpt><trkpt lat="47.834113876910386" lon="12.504847941536505"><ele>525.0</ele><time>2026-05-01T11:48:35Z</time></trkpt><trkpt lat="47.83406130400924" lon="12.505058495139426"><ele>525.0</ele><time>2026-05-01T11:48:36Z</time></trkpt><trkpt lat="47.83401119729788" lon="12.505253689128363"><ele>525.0</ele><time>2026-05-01T11:48:37Z</time></trkpt><trkpt lat="47.83396077047114" lon="12.505450259257385"><ele>525.0</ele><time>2026-05-01T11:48:38Z</time></trkpt><trkpt lat="47.833909923129646" lon="12.505648604100449"><ele>525.0</ele><time>2026-05-01T11:48:39Z</time></trkpt><trkpt lat="47.83385642416762" lon="12.505850224331615"><ele>525.0</ele><time>2026-05-01T11:48:40Z</time></trkpt><trkpt lat="47.83380222491732" lon="12.506055216054412"><ele>525.0</ele><time>2026-05-01T11:48:41Z</time></trkpt><trkpt lat="47.83374676604462" lon="12.50626389575611"><ele>525.0</ele><time>2026-05-01T11:48:42Z</time></trkpt><trkpt lat="47.83369014291232" lon="12.506475728050138"><ele>525.0</ele><time>2026-05-01T11:48:43Z</time></trkpt><trkpt lat="47.8336346204063" lon="12.50668996907449"><ele>525.0</ele><time>2026-05-01T11:48:44Z</time></trkpt><trkpt lat="47.833581199182106" lon="12.506904129754744"><ele>525.0</ele><time>2026-05-01T11:48:45Z</time></trkpt><trkpt lat="47.83352882522923" lon="12.507115450286895"><ele>525.0</ele><time>2026-05-01T11:48:46Z</time></trkpt><trkpt lat="47.833475639230954" lon="12.507323681279576"><ele>525.0</ele><time>2026-05-01T11:48:47Z</time></trkpt><trkpt lat="47.83342294760419" lon="12.50752997202626"><ele>525.0</ele><time>2026-05-01T11:48:48Z</time></trkpt><trkpt lat="47.833370188367624" lon="12.507736867552806"><ele>525.0</ele><time>2026-05-01T11:48:49Z</time></trkpt><trkpt lat="47.83331937131347" lon="12.507946221001532"><ele>524.5</ele><time>2026-05-01T11:48:50Z</time></trkpt><trkpt lat="47.833267308932605" lon="12.508156263851227"><ele>524.0</ele><time>2026-05-01T11:48:51Z</time></trkpt><trkpt lat="47.83321585192721" lon="12.508366162539893"><ele>523.5</ele><time>2026-05-01T11:48:52Z</time></trkpt><trkpt lat="47.83316486109465" lon="12.508571306855774"><ele>523.0</ele><time>2026-05-01T11:48:53Z</time></trkpt><trkpt lat="47.83311395484369" lon="12.508776108430487"><ele>523.0</ele><time>2026-05-01T11:48:54Z</time></trkpt><trkpt lat="47.833062680740056" lon="12.508984043726132"><ele>523.0</ele><time>2026-05-01T11:48:55Z</time></trkpt><trkpt lat="47.83301061914084" lon="12.509196008470518"><ele>523.0</ele><time>2026-05-01T11:48:56Z</time></trkpt><trkpt lat="47.83295920325259" lon="12.509411901540467"><ele>523.0</ele><time>2026-05-01T11:48:57Z</time></trkpt><trkpt lat="47.832905620107596" lon="12.509636638475376"><ele>523.0</ele><time>2026-05-01T11:48:58Z</time></trkpt><trkpt lat="47.832849086282565" lon="12.509869451453929"><ele>523.0</ele><time>2026-05-01T11:48:59Z</time></trkpt><trkpt lat="47.83279425519151" lon="12.510113171826463"><ele>523.0</ele><time>2026-05-01T11:49:00Z</time></trkpt><trkpt lat="47.83273683353896" lon="12.510364952170752"><ele>523.0</ele><time>2026-05-01T11:49:01Z</time></trkpt><trkpt lat="47.832678765754395" lon="12.510620120006978"><ele>523.0</ele><time>2026-05-01T11:49:02Z</time></trkpt><trkpt lat="47.832616642438595" lon="12.510878878624121"><ele>523.0</ele><time>2026-05-01T11:49:03Z</time></trkpt><trkpt lat="47.83255216988634" lon="12.511141490914309"><ele>523.0</ele><time>2026-05-01T11:49:04Z</time></trkpt><trkpt lat="47.83248656603356" lon="12.511405660322136"><ele>523.0</ele><time>2026-05-01T11:49:05Z</time></trkpt><trkpt lat="47.83242150006081" lon="12.511664989495657"><ele>522.6666666666667</ele><time>2026-05-01T11:49:06Z</time></trkpt><trkpt lat="47.83235660296096" lon="12.511923537785206"><ele>522.3333333333334</ele><time>2026-05-01T11:49:07Z</time></trkpt><trkpt lat="47.83229139197992" lon="12.512188134596208"><ele>522.0</ele><time>2026-05-01T11:49:08Z</time></trkpt><trkpt lat="47.83222951049999" lon="12.512451093026618"><ele>521.6666666666666</ele><time>2026-05-01T11:49:09Z</time></trkpt><trkpt lat="47.83216998355714" lon="12.512701680475136"><ele>521.3333333333333</ele><time>2026-05-01T11:49:10Z</time></trkpt><trkpt lat="47.83211631125909" lon="12.512950284004795"><ele>521.0</ele><time>2026-05-01T11:49:11Z</time></trkpt><trkpt lat="47.832059901475404" lon="12.513206434818635"><ele>521.0</ele><time>2026-05-01T11:49:12Z</time></trkpt><trkpt lat="47.83200043220492" lon="12.513468383691155"><ele>521.0</ele><time>2026-05-01T11:49:13Z</time></trkpt><trkpt lat="47.83193682733913" lon="12.513738328652426"><ele>521.0</ele><time>2026-05-01T11:49:14Z</time></trkpt><trkpt lat="47.83187123334998" lon="12.514018223738125"><ele>520.3333333333333</ele><time>2026-05-01T11:49:15Z</time></trkpt><trkpt lat="47.8318034736564" lon="12.514305251184116"><ele>519.6666666666666</ele><time>2026-05-01T11:49:16Z</time></trkpt><trkpt lat="47.831733467593104" lon="12.514598952212292"><ele>519.0</ele><time>2026-05-01T11:49:17Z</time></trkpt><trkpt lat="47.83166314141156" lon="12.514897448335157"><ele>519.0</ele><time>2026-05-01T11:49:18Z</time></trkpt><trkpt lat="47.831594290758915" lon="12.515203515882954"><ele>519.0</ele><time>2026-05-01T11:49:19Z</time></trkpt><trkpt lat="47.831524199795446" lon="12.51552509782177"><ele>519.0</ele><time>2026-05-01T11:49:20Z</time></trkpt><trkpt lat="47.83145996868566" lon="12.51583369870828"><ele>520.0</ele><time>2026-05-01T11:49:21Z</time></trkpt><trkpt lat="47.83136418913995" lon="12.516202066402785"><ele>521.0</ele><time>2026-05-01T11:49:22Z</time></trkpt><trkpt lat="47.831280621342955" lon="12.516557562782978"><ele>522.5</ele><time>2026-05-01T11:49:23Z</time></trkpt><trkpt lat="47.83119427643705" lon="12.516924774538847"><ele>524.0</ele><time>2026-05-01T11:49:24Z</time></trkpt><trkpt lat="47.83111324784517" lon="12.517302618844344"><ele>524.0</ele><time>2026-05-01T11:49:25Z</time></trkpt><trkpt lat="47.83103269881921" lon="12.51768965565681"><ele>524.0</ele><time>2026-05-01T11:49:26Z</time></trkpt><trkpt lat="47.830953662663454" lon="12.518080024591672"><ele>522.0</ele><time>2026-05-01T11:49:27Z</time></trkpt><trkpt lat="47.83087827837731" lon="12.518452668035206"><ele>520.0</ele><time>2026-05-01T11:49:28Z</time></trkpt><trkpt lat="47.830806505358034" lon="12.518830069033744"><ele>520.0</ele><time>2026-05-01T11:49:29Z</time></trkpt><trkpt lat="47.83073964485432" lon="12.519212691786631"><ele>520.0</ele><time>2026-05-01T11:49:30Z</time></trkpt><trkpt lat="47.83067577315296" lon="12.51959705230974"><ele>520.0</ele><time>2026-05-01T11:49:31Z</time></trkpt><trkpt lat="47.830613833975384" lon="12.51998540995223"><ele>520.0</ele><time>2026-05-01T11:49:32Z</time></trkpt><trkpt lat="47.8305536993607" lon="12.520374497071305"><ele>520.0</ele><time>2026-05-01T11:49:33Z</time></trkpt><trkpt lat="47.830492534912594" lon="12.520766529007972"><ele>520.0</ele><time>2026-05-01T11:49:34Z</time></trkpt><trkpt lat="47.83042895071011" lon="12.52115987820904"><ele>519.0</ele><time>2026-05-01T11:49:35Z</time></trkpt><trkpt lat="47.8303650898072" lon="12.52155532598513"><ele>518.0</ele><time>2026-05-01T11:49:36Z</time></trkpt><trkpt lat="47.830301504579765" lon="12.521951087747123"><ele>518.5</ele><time>2026-05-01T11:49:37Z</time></trkpt><trkpt lat="47.83023765135911" lon="12.522348114239211"><ele>519.0</ele><time>2026-05-01T11:49:38Z</time></trkpt><trkpt lat="47.830173042151706" lon="12.522744799165357"><ele>519.5</ele><time>2026-05-01T11:49:39Z</time></trkpt><trkpt lat="47.830108146045475" lon="12.523141468702281"><ele>520.0</ele><time>2026-05-01T11:49:40Z</time></trkpt><trkpt lat="47.83004594210101" lon="12.523541103110409"><ele>520.5</ele><time>2026-05-01T11:49:41Z</time></trkpt><trkpt lat="47.82998153273725" lon="12.52394568701881"><ele>521.0</ele><time>2026-05-01T11:49:42Z</time></trkpt><trkpt lat="47.82991967359189" lon="12.524353186062843"><ele>522.5</ele><time>2026-05-01T11:49:43Z</time></trkpt><trkpt lat="47.829853650790646" lon="12.524760734771382"><ele>524.0</ele><time>2026-05-01T11:49:44Z</time></trkpt><trkpt lat="47.82978941469177" lon="12.525165344542325"><ele>524.0</ele><time>2026-05-01T11:49:45Z</time></trkpt><trkpt lat="47.82972668252451" lon="12.525572239207957"><ele>524.0</ele><time>2026-05-01T11:49:46Z</time></trkpt><trkpt lat="47.82966630293874" lon="12.525980799099512"><ele>525.0</ele><time>2026-05-01T11:49:47Z</time></trkpt><trkpt lat="47.82960882126382" lon="12.526391819270112"><ele>526.0</ele><time>2026-05-01T11:49:48Z</time></trkpt><trkpt lat="47.829551725388455" lon="12.526805388892285"><ele>526.5</ele><time>2026-05-01T11:49:49Z</time></trkpt><trkpt lat="47.829490419806255" lon="12.527219899355387"><ele>527.0</ele><time>2026-05-01T11:49:50Z</time></trkpt><trkpt lat="47.82942460436921" lon="12.52763234708074"><ele>527.0</ele><time>2026-05-01T11:49:51Z</time></trkpt><trkpt lat="47.8293585007111" lon="12.528050931050782"><ele>527.0</ele><time>2026-05-01T11:49:52Z</time></trkpt><trkpt lat="47.829289887969246" lon="12.528471312475627"><ele>529.0</ele><time>2026-05-01T11:49:53Z</time></trkpt><trkpt lat="47.829228071201285" lon="12.528894151426085"><ele>531.0</ele><time>2026-05-01T11:49:54Z</time></trkpt><trkpt lat="47.82916930522531" lon="12.529318068059016"><ele>531.5</ele><time>2026-05-01T11:49:55Z</time></trkpt><trkpt lat="47.829116479883744" lon="12.529744662920828"><ele>532.0</ele><time>2026-05-01T11:49:56Z</time></trkpt><trkpt lat="47.82906618221095" lon="12.53017381630978"><ele>532.5</ele><time>2026-05-01T11:49:57Z</time></trkpt><trkpt lat="47.829020561937476" lon="12.530605244086274"><ele>533.0</ele><time>2026-05-01T11:49:58Z</time></trkpt><trkpt lat="47.828979437358285" lon="12.531038605873052"><ele>534.0</ele><time>2026-05-01T11:49:59Z</time></trkpt><trkpt lat="47.828938214165895" lon="12.531471340833136"><ele>535.0</ele><time>2026-05-01T11:50:00Z</time></trkpt><trkpt lat="47.828896652965064" lon="12.531905254834626"><ele>536.0</ele><time>2026-05-01T11:50:01Z</time></trkpt><trkpt lat="47.82885801944283" lon="12.532338761521489"><ele>537.0</ele><time>2026-05-01T11:50:02Z</time></trkpt><trkpt lat="47.82881517476124" lon="12.532776067349024"><ele>537.5</ele><time>2026-05-01T11:50:03Z</time></trkpt><trkpt lat="47.82877636252011" lon="12.533211605071083"><ele>538.0</ele><time>2026-05-01T11:50:04Z</time></trkpt><trkpt lat="47.82874000027251" lon="12.533645711500007"><ele>539.5</ele><time>2026-05-01T11:50:05Z</time></trkpt><trkpt lat="47.828708707189115" lon="12.534079754713273"><ele>541.0</ele><time>2026-05-01T11:50:06Z</time></trkpt><trkpt lat="47.82868038998357" lon="12.534511207186055"><ele>541.0</ele><time>2026-05-01T11:50:07Z</time></trkpt><trkpt lat="47.82865293915343" lon="12.534937370512202"><ele>541.0</ele><time>2026-05-01T11:50:08Z</time></trkpt><trkpt lat="47.828623686060475" lon="12.535349395820736"><ele>541.5</ele><time>2026-05-01T11:50:09Z</time></trkpt><trkpt lat="47.82859696095555" lon="12.535741316042259"><ele>542.0</ele><time>2026-05-01T11:50:10Z</time></trkpt><trkpt lat="47.828568748847964" lon="12.536145494167755"><ele>543.0</ele><time>2026-05-01T11:50:11Z</time></trkpt><trkpt lat="47.828540262905285" lon="12.53655647026536"><ele>544.0</ele><time>2026-05-01T11:50:12Z</time></trkpt><trkpt lat="47.828512782843404" lon="12.536972725153792"><ele>543.5</ele><time>2026-05-01T11:50:13Z</time></trkpt><trkpt lat="47.82848510671989" lon="12.537392100734445"><ele>543.0</ele><time>2026-05-01T11:50:14Z</time></trkpt><trkpt lat="47.828455167173125" lon="12.537812525516506"><ele>544.0</ele><time>2026-05-01T11:50:15Z</time></trkpt><trkpt lat="47.82842480289456" lon="12.538234746325315"><ele>545.0</ele><time>2026-05-01T11:50:16Z</time></trkpt><trkpt lat="47.82839244021332" lon="12.538658710871282"><ele>547.0</ele><time>2026-05-01T11:50:17Z</time></trkpt><trkpt lat="47.828359405573366" lon="12.539083710583267"><ele>549.0</ele><time>2026-05-01T11:50:18Z</time></trkpt><trkpt lat="47.82832767089461" lon="12.53950861081553"><ele>549.5</ele><time>2026-05-01T11:50:19Z</time></trkpt><trkpt lat="47.82829670143581" lon="12.53993264042366"><ele>550.0</ele><time>2026-05-01T11:50:20Z</time></trkpt><trkpt lat="47.82826439870919" lon="12.540352303695702"><ele>550.5</ele><time>2026-05-01T11:50:21Z</time></trkpt><trkpt lat="47.8282269191541" lon="12.54076933167535"><ele>551.0</ele><time>2026-05-01T11:50:22Z</time></trkpt><trkpt lat="47.82818745094698" lon="12.541184243521533"><ele>552.5</ele><time>2026-05-01T11:50:23Z</time></trkpt><trkpt lat="47.82814396698024" lon="12.541597606754259"><ele>554.0</ele><time>2026-05-01T11:50:24Z</time></trkpt><trkpt lat="47.828096953830865" lon="12.542006310297374"><ele>556.0</ele><time>2026-05-01T11:50:25Z</time></trkpt><trkpt lat="47.828045829185925" lon="12.542413643271"><ele>558.0</ele><time>2026-05-01T11:50:26Z</time></trkpt><trkpt lat="47.827993650800046" lon="12.542821346175081"><ele>558.5</ele><time>2026-05-01T11:50:27Z</time></trkpt><trkpt lat="47.82794358740994" lon="12.54322970525254"><ele>559.0</ele><time>2026-05-01T11:50:28Z</time></trkpt><trkpt lat="47.82789519893469" lon="12.543640014156214"><ele>559.5</ele><time>2026-05-01T11:50:29Z</time></trkpt><trkpt lat="47.82785316061332" lon="12.544052951118216"><ele>560.0</ele><time>2026-05-01T11:50:30Z</time></trkpt><trkpt lat="47.82781648870572" lon="12.544467954291953"><ele>557.0</ele><time>2026-05-01T11:50:31Z</time></trkpt><trkpt lat="47.82777919828749" lon="12.54488695303227"><ele>554.0</ele><time>2026-05-01T11:50:32Z</time></trkpt><trkpt lat="47.82773920101582" lon="12.54530925912661"><ele>553.5</ele><time>2026-05-01T11:50:33Z</time></trkpt><trkpt lat="47.827693569972894" lon="12.545731690797268"><ele>553.0</ele><time>2026-05-01T11:50:34Z</time></trkpt><trkpt lat="47.827645162229324" lon="12.546153034890034"><ele>551.0</ele><time>2026-05-01T11:50:35Z</time></trkpt><trkpt lat="47.82759610140204" lon="12.546573893181108"><ele>549.0</ele><time>2026-05-01T11:50:36Z</time></trkpt><trkpt lat="47.82755011138734" lon="12.546994591844506"><ele>550.0</ele><time>2026-05-01T11:50:37Z</time></trkpt><trkpt lat="47.82750870390743" lon="12.547413628562767"><ele>551.0</ele><time>2026-05-01T11:50:38Z</time></trkpt><trkpt lat="47.827468922450954" lon="12.547831532142801"><ele>556.0</ele><time>2026-05-01T11:50:39Z</time></trkpt><trkpt lat="47.82743545624794" lon="12.548248870109294"><ele>561.0</ele><time>2026-05-01T11:50:40Z</time></trkpt><trkpt lat="47.82741411791689" lon="12.54866656455929"><ele>564.0</ele><time>2026-05-01T11:50:41Z</time></trkpt><trkpt lat="47.827405894182206" lon="12.54908449612397"><ele>567.0</ele><time>2026-05-01T11:50:42Z</time></trkpt><trkpt lat="47.8274064933326" lon="12.549505608039073"><ele>569.5</ele><time>2026-05-01T11:50:43Z</time></trkpt><trkpt lat="47.82740449420227" lon="12.549928402919061"><ele>572.0</ele><time>2026-05-01T11:50:44Z</time></trkpt><trkpt lat="47.827396591258974" lon="12.550349654183421"><ele>573.5</ele><time>2026-05-01T11:50:45Z</time></trkpt><trkpt lat="47.827384566380836" lon="12.55076924353246"><ele>575.0</ele><time>2026-05-01T11:50:46Z</time></trkpt><trkpt lat="47.827374278114085" lon="12.551188915749766"><ele>574.0</ele><time>2026-05-01T11:50:47Z</time></trkpt><trkpt lat="47.8273660785115" lon="12.551605372947183"><ele>573.0</ele><time>2026-05-01T11:50:48Z</time></trkpt><trkpt lat="47.82735083932725" lon="12.552017903948315"><ele>572.0</ele><time>2026-05-01T11:50:49Z</time></trkpt><trkpt lat="47.827325126807736" lon="12.552425215085421"><ele>571.0</ele><time>2026-05-01T11:50:50Z</time></trkpt><trkpt lat="47.827286923015414" lon="12.552831408649348"><ele>572.0</ele><time>2026-05-01T11:50:51Z</time></trkpt><trkpt lat="47.82724007679775" lon="12.553239725945788"><ele>573.0</ele><time>2026-05-01T11:50:52Z</time></trkpt><trkpt lat="47.827188800514804" lon="12.553646912454727"><ele>577.0</ele><time>2026-05-01T11:50:53Z</time></trkpt><trkpt lat="47.82712992995832" lon="12.554052849995804"><ele>581.0</ele><time>2026-05-01T11:50:54Z</time></trkpt><trkpt lat="47.82706784545428" lon="12.554456871936054"><ele>579.5</ele><time>2026-05-01T11:50:55Z</time></trkpt><trkpt lat="47.82700895626476" lon="12.554861633662997"><ele>578.0</ele><time>2026-05-01T11:50:56Z</time></trkpt><trkpt lat="47.826950780031844" lon="12.555266880533932"><ele>577.5</ele><time>2026-05-01T11:50:57Z</time></trkpt><trkpt lat="47.82689555273221" lon="12.55567255413979"><ele>577.0</ele><time>2026-05-01T11:50:58Z</time></trkpt><trkpt lat="47.826840048938514" lon="12.55607726691024"><ele>575.5</ele><time>2026-05-01T11:50:59Z</time></trkpt><trkpt lat="47.82678195437498" lon="12.556478656500477"><ele>574.0</ele><time>2026-05-01T11:51:00Z</time></trkpt><trkpt lat="47.82672255430641" lon="12.556876410390498"><ele>574.0</ele><time>2026-05-01T11:51:01Z</time></trkpt><trkpt lat="47.826665512646464" lon="12.557271642798204"><ele>574.0</ele><time>2026-05-01T11:51:02Z</time></trkpt><trkpt lat="47.82660870095707" lon="12.557666491178857"><ele>575.5</ele><time>2026-05-01T11:51:03Z</time></trkpt><trkpt lat="47.82655265220179" lon="12.558060965558004"><ele>577.0</ele><time>2026-05-01T11:51:04Z</time></trkpt><trkpt lat="47.82649660078316" lon="12.558457988048875"><ele>578.5</ele><time>2026-05-01T11:51:05Z</time></trkpt><trkpt lat="47.826446737607206" lon="12.558838727293379"><ele>580.0</ele><time>2026-05-01T11:51:06Z</time></trkpt><trkpt lat="47.82640400658836" lon="12.55920985700376"><ele>580.5</ele><time>2026-05-01T11:51:07Z</time></trkpt><trkpt lat="47.82636583321917" lon="12.55959992347197"><ele>581.0</ele><time>2026-05-01T11:51:08Z</time></trkpt><trkpt lat="47.826335341370495" lon="12.559996692718027"><ele>582.5</ele><time>2026-05-01T11:51:09Z</time></trkpt><trkpt lat="47.82631105754542" lon="12.560401612903961"><ele>584.0</ele><time>2026-05-01T11:51:10Z</time></trkpt><trkpt lat="47.82629202311012" lon="12.560812172046944"><ele>585.5</ele><time>2026-05-01T11:51:11Z</time></trkpt><trkpt lat="47.82627633061562" lon="12.561226221989747"><ele>587.0</ele><time>2026-05-01T11:51:12Z</time></trkpt><trkpt lat="47.82626263749327" lon="12.561643773366686"><ele>588.0</ele><time>2026-05-01T11:51:13Z</time></trkpt><trkpt lat="47.82625418041763" lon="12.562063317535296"><ele>589.0</ele><time>2026-05-01T11:51:14Z</time></trkpt><trkpt lat="47.82624806350202" lon="12.562482786193199"><ele>589.5</ele><time>2026-05-01T11:51:15Z</time></trkpt><trkpt lat="47.82624933542076" lon="12.562902320892542"><ele>590.0</ele><time>2026-05-01T11:51:16Z</time></trkpt><trkpt lat="47.8262577299645" lon="12.56332151351873"><ele>590.5</ele><time>2026-05-01T11:51:17Z</time></trkpt><trkpt lat="47.82627634908159" lon="12.563737272997942"><ele>591.0</ele><time>2026-05-01T11:51:18Z</time></trkpt><trkpt lat="47.826300431711694" lon="12.564149404938792"><ele>592.0</ele><time>2026-05-01T11:51:19Z</time></trkpt><trkpt lat="47.82632857823165" lon="12.564560400402767"><ele>593.0</ele><time>2026-05-01T11:51:20Z</time></trkpt><trkpt lat="47.826362947453966" lon="12.56496762755512"><ele>594.5</ele><time>2026-05-01T11:51:21Z</time></trkpt><trkpt lat="47.8263999476974" lon="12.565372498234886"><ele>596.0</ele><time>2026-05-01T11:51:22Z</time></trkpt><trkpt lat="47.826440042478886" lon="12.565775677099932"><ele>596.0</ele><time>2026-05-01T11:51:23Z</time></trkpt><trkpt lat="47.826483050901984" lon="12.56617804185111"><ele>596.0</ele><time>2026-05-01T11:51:24Z</time></trkpt><trkpt lat="47.82653023530684" lon="12.566578978824966"><ele>595.5</ele><time>2026-05-01T11:51:25Z</time></trkpt><trkpt lat="47.82658251050172" lon="12.566978874501343"><ele>595.0</ele><time>2026-05-01T11:51:26Z</time></trkpt><trkpt lat="47.826635802342985" lon="12.5673788893892"><ele>595.0</ele><time>2026-05-01T11:51:27Z</time></trkpt><trkpt lat="47.82668868716229" lon="12.567775712332404"><ele>595.0</ele><time>2026-05-01T11:51:28Z</time></trkpt><trkpt lat="47.82674034416005" lon="12.568172849112948"><ele>595.5</ele><time>2026-05-01T11:51:29Z</time></trkpt><trkpt lat="47.82679166221651" lon="12.568575175512711"><ele>596.0</ele><time>2026-05-01T11:51:30Z</time></trkpt><trkpt lat="47.82684429329944" lon="12.568977042937142"><ele>601.5</ele><time>2026-05-01T11:51:31Z</time></trkpt><trkpt lat="47.826902892412335" lon="12.569374280734593"><ele>607.0</ele><time>2026-05-01T11:51:32Z</time></trkpt><trkpt lat="47.82696621929857" lon="12.56977158205078"><ele>607.0</ele><time>2026-05-01T11:51:33Z</time></trkpt><trkpt lat="47.82702710018229" lon="12.570172980833169"><ele>607.0</ele><time>2026-05-01T11:51:34Z</time></trkpt><trkpt lat="47.827084987348286" lon="12.570576362066763"><ele>605.5</ele><time>2026-05-01T11:51:35Z</time></trkpt><trkpt lat="47.82713656821809" lon="12.570982456582332"><ele>604.0</ele><time>2026-05-01T11:51:36Z</time></trkpt><trkpt lat="47.82718743856356" lon="12.571391285938477"><ele>603.5</ele><time>2026-05-01T11:51:37Z</time></trkpt><trkpt lat="47.82724139642966" lon="12.57180067164566"><ele>603.0</ele><time>2026-05-01T11:51:38Z</time></trkpt><trkpt lat="47.827291308477484" lon="12.572208949168733"><ele>602.5</ele><time>2026-05-01T11:51:39Z</time></trkpt><trkpt lat="47.82734018974024" lon="12.572616525170409"><ele>602.0</ele><time>2026-05-01T11:51:40Z</time></trkpt><trkpt lat="47.82738734787499" lon="12.573024223241124"><ele>601.5</ele><time>2026-05-01T11:51:41Z</time></trkpt><trkpt lat="47.82743159368187" lon="12.573431693954966"><ele>601.0</ele><time>2026-05-01T11:51:42Z</time></trkpt><trkpt lat="47.82747228274762" lon="12.57384075688962"><ele>600.5</ele><time>2026-05-01T11:51:43Z</time></trkpt><trkpt lat="47.82751308080033" lon="12.574250364274715"><ele>600.0</ele><time>2026-05-01T11:51:44Z</time></trkpt><trkpt lat="47.82755004338384" lon="12.57466224637721"><ele>599.0</ele><time>2026-05-01T11:51:45Z</time></trkpt><trkpt lat="47.82759012871955" lon="12.575073326734179"><ele>598.0</ele><time>2026-05-01T11:51:46Z</time></trkpt><trkpt lat="47.82762971702983" lon="12.575484737336026"><ele>602.5</ele><time>2026-05-01T11:51:47Z</time></trkpt><trkpt lat="47.82766993245917" lon="12.575893217963195"><ele>607.0</ele><time>2026-05-01T11:51:48Z</time></trkpt><trkpt lat="47.82770884150282" lon="12.576296742110248"><ele>607.0</ele><time>2026-05-01T11:51:49Z</time></trkpt><trkpt lat="47.827749472312675" lon="12.576701698838153"><ele>607.0</ele><time>2026-05-01T11:51:50Z</time></trkpt><trkpt lat="47.82778895390956" lon="12.577106704231923"><ele>607.0</ele><time>2026-05-01T11:51:51Z</time></trkpt><trkpt lat="47.82783016603077" lon="12.57751177590534"><ele>607.0</ele><time>2026-05-01T11:51:52Z</time></trkpt><trkpt lat="47.82787056400965" lon="12.577916049792698"><ele>606.0</ele><time>2026-05-01T11:51:53Z</time></trkpt><trkpt lat="47.82790871972157" lon="12.578297330919158"><ele>605.0</ele><time>2026-05-01T11:51:54Z</time></trkpt><trkpt lat="47.82794514946424" lon="12.578667854044477"><ele>602.5</ele><time>2026-05-01T11:51:55Z</time></trkpt><trkpt lat="47.82798013814958" lon="12.579050805837664"><ele>600.0</ele><time>2026-05-01T11:51:56Z</time></trkpt><trkpt lat="47.828016746590414" lon="12.579441129314096"><ele>598.0</ele><time>2026-05-01T11:51:57Z</time></trkpt><trkpt lat="47.82805634555181" lon="12.57983667132171"><ele>596.0</ele><time>2026-05-01T11:51:58Z</time></trkpt><trkpt lat="47.82810201940329" lon="12.580228762723127"><ele>594.5</ele><time>2026-05-01T11:51:59Z</time></trkpt><trkpt lat="47.828140109119325" lon="12.580610441004474"><ele>593.0</ele><time>2026-05-01T11:52:00Z</time></trkpt><trkpt lat="47.828172856461066" lon="12.580971329418587"><ele>592.0</ele><time>2026-05-01T11:52:01Z</time></trkpt><trkpt lat="47.82820492305005" lon="12.581318904592234"><ele>591.0</ele><time>2026-05-01T11:52:02Z</time></trkpt><trkpt lat="47.82824116293932" lon="12.581674428896966"><ele>590.5</ele><time>2026-05-01T11:52:03Z</time></trkpt><trkpt lat="47.82827595069299" lon="12.582037402366376"><ele>590.0</ele><time>2026-05-01T11:52:04Z</time></trkpt><trkpt lat="47.82831134781621" lon="12.582405583114639"><ele>590.0</ele><time>2026-05-01T11:52:05Z</time></trkpt><trkpt lat="47.828347303794416" lon="12.582779853622087"><ele>590.0</ele><time>2026-05-01T11:52:06.001Z</time></trkpt><trkpt lat="47.8283820056485" lon="12.583160329398806"><ele>591.0</ele><time>2026-05-01T11:52:07.001Z</time></trkpt><trkpt lat="47.82841669954961" lon="12.583546614166883"><ele>592.0</ele><time>2026-05-01T11:52:08.001Z</time></trkpt><trkpt lat="47.82844329077288" lon="12.58394229675696"><ele>594.0</ele><time>2026-05-01T11:52:09.001Z</time></trkpt><trkpt lat="47.82845618533978" lon="12.584346042588077"><ele>596.0</ele><time>2026-05-01T11:52:10.001Z</time></trkpt><trkpt lat="47.82846228839685" lon="12.584752627251188"><ele>600.5</ele><time>2026-05-01T11:52:11.001Z</time></trkpt><trkpt lat="47.82845824274213" lon="12.585165203332147"><ele>605.0</ele><time>2026-05-01T11:52:12.001Z</time></trkpt><trkpt lat="47.82844704692808" lon="12.585574729787819"><ele>610.0</ele><time>2026-05-01T11:52:13.001Z</time></trkpt><trkpt lat="47.8284273949612" lon="12.58597945328774"><ele>615.0</ele><time>2026-05-01T11:52:14.001Z</time></trkpt><trkpt lat="47.82839943964821" lon="12.586373961871871"><ele>617.0</ele><time>2026-05-01T11:52:15.001Z</time></trkpt><trkpt lat="47.8283692880615" lon="12.586747567603265"><ele>619.0</ele><time>2026-05-01T11:52:16.001Z</time></trkpt><trkpt lat="47.82834266942654" lon="12.587111212018396"><ele>619.0</ele><time>2026-05-01T11:52:17.001Z</time></trkpt><trkpt lat="47.828318844358265" lon="12.587472239017526"><ele>619.0</ele><time>2026-05-01T11:52:18.001Z</time></trkpt><trkpt lat="47.82829678747465" lon="12.587827225465837"><ele>617.0</ele><time>2026-05-01T11:52:19.001Z</time></trkpt><trkpt lat="47.828277522476796" lon="12.588181315902194"><ele>615.0</ele><time>2026-05-01T11:52:20.001Z</time></trkpt><trkpt lat="47.82825360890883" lon="12.588522568753396"><ele>614.5</ele><time>2026-05-01T11:52:21.001Z</time></trkpt><trkpt lat="47.82822632318577" lon="12.588871480322789"><ele>614.0</ele><time>2026-05-01T11:52:22.001Z</time></trkpt><trkpt lat="47.828200009292544" lon="12.589217704133208"><ele>613.5</ele><time>2026-05-01T11:52:23.001Z</time></trkpt><trkpt lat="47.828174649699186" lon="12.589571824202599"><ele>613.0</ele><time>2026-05-01T11:52:24.001Z</time></trkpt><trkpt lat="47.82815595682849" lon="12.589924222414439"><ele>613.0</ele><time>2026-05-01T11:52:25.001Z</time></trkpt><trkpt lat="47.82813751781029" lon="12.590273582795067"><ele>613.0</ele><time>2026-05-01T11:52:26.001Z</time></trkpt><trkpt lat="47.82811926884869" lon="12.590619565548272"><ele>613.5</ele><time>2026-05-01T11:52:27.001Z</time></trkpt><trkpt lat="47.828104044735376" lon="12.59096725811095"><ele>614.0</ele><time>2026-05-01T11:52:28.001Z</time></trkpt><trkpt lat="47.828089299949795" lon="12.591311367023033"><ele>614.0</ele><time>2026-05-01T11:52:29.001Z</time></trkpt><trkpt lat="47.828074221216134" lon="12.591643603090391"><ele>614.0</ele><time>2026-05-01T11:52:30.001Z</time></trkpt><trkpt lat="47.82806188927317" lon="12.591962690782125"><ele>614.0</ele><time>2026-05-01T11:52:31.001Z</time></trkpt><trkpt lat="47.8280467914" lon="12.592290588850707"><ele>612.5</ele><time>2026-05-01T11:52:32.001Z</time></trkpt><trkpt lat="47.82803166701614" lon="12.592625739898569"><ele>611.0</ele><time>2026-05-01T11:52:33.001Z</time></trkpt><trkpt lat="47.82801978519946" lon="12.592974361688883"><ele>610.0</ele><time>2026-05-01T11:52:34.001Z</time></trkpt><trkpt lat="47.828011222241045" lon="12.59333146099584"><ele>609.0</ele><time>2026-05-01T11:52:35.001Z</time></trkpt><trkpt lat="47.82800302409555" lon="12.593701865779876"><ele>609.0</ele><time>2026-05-01T11:52:36.001Z</time></trkpt><trkpt lat="47.82799265189992" lon="12.59408229655855"><ele>609.0</ele><time>2026-05-01T11:52:37.001Z</time></trkpt><trkpt lat="47.82798210570337" lon="12.594467986162654"><ele>609.5</ele><time>2026-05-01T11:52:38.001Z</time></trkpt><trkpt lat="47.827976198909376" lon="12.594862644481466"><ele>610.0</ele><time>2026-05-01T11:52:39.001Z</time></trkpt><trkpt lat="47.82796704398346" lon="12.595261952932328"><ele>609.5</ele><time>2026-05-01T11:52:40.001Z</time></trkpt><trkpt lat="47.827957970918376" lon="12.59566577679968"><ele>609.0</ele><time>2026-05-01T11:52:41.001Z</time></trkpt><trkpt lat="47.82794559761455" lon="12.59607761402384"><ele>609.0</ele><time>2026-05-01T11:52:42.001Z</time></trkpt><trkpt lat="47.82793377865846" lon="12.5964931952427"><ele>609.0</ele><time>2026-05-01T11:52:43.001Z</time></trkpt><trkpt lat="47.827924124540594" lon="12.59690715616741"><ele>610.0</ele><time>2026-05-01T11:52:44.001Z</time></trkpt><trkpt lat="47.827921623397" lon="12.59731607298488"><ele>611.0</ele><time>2026-05-01T11:52:45.001Z</time></trkpt><trkpt lat="47.82792734771509" lon="12.597722647349968"><ele>610.5</ele><time>2026-05-01T11:52:46.001Z</time></trkpt><trkpt lat="47.827941693411844" lon="12.598131270968887"><ele>610.0</ele><time>2026-05-01T11:52:47.001Z</time></trkpt><trkpt lat="47.82796590935966" lon="12.598538426763639"><ele>609.5</ele><time>2026-05-01T11:52:48.001Z</time></trkpt><trkpt lat="47.827997187013366" lon="12.598945848640893"><ele>609.0</ele><time>2026-05-01T11:52:49.001Z</time></trkpt><trkpt lat="47.828031890160254" lon="12.599353555703498"><ele>607.5</ele><time>2026-05-01T11:52:50.001Z</time></trkpt><trkpt lat="47.82806738171006" lon="12.599763865450699"><ele>606.0</ele><time>2026-05-01T11:52:51.001Z</time></trkpt><trkpt lat="47.82810359857446" lon="12.600175071748058"><ele>603.0</ele><time>2026-05-01T11:52:52.001Z</time></trkpt><trkpt lat="47.8281384062875" lon="12.600585748749953"><ele>600.0</ele><time>2026-05-01T11:52:53.001Z</time></trkpt><trkpt lat="47.82817396257674" lon="12.601000012906148"><ele>595.5</ele><time>2026-05-01T11:52:54.001Z</time></trkpt><trkpt lat="47.82820680093457" lon="12.601418032903785"><ele>591.0</ele><time>2026-05-01T11:52:55.001Z</time></trkpt><trkpt lat="47.828240313781656" lon="12.601839948200078"><ele>589.0</ele><time>2026-05-01T11:52:56.001Z</time></trkpt><trkpt lat="47.828273587025485" lon="12.602265798541737"><ele>587.0</ele><time>2026-05-01T11:52:57.001Z</time></trkpt><trkpt lat="47.8283079289314" lon="12.602697407621193"><ele>589.5</ele><time>2026-05-01T11:52:58.001Z</time></trkpt><trkpt lat="47.82834338286033" lon="12.603134555802837"><ele>592.0</ele><time>2026-05-01T11:52:59.001Z</time></trkpt><trkpt lat="47.828378769397176" lon="12.60357274976063"><ele>596.0</ele><time>2026-05-01T11:53:00.001Z</time></trkpt><trkpt lat="47.82841249584222" lon="12.604011766779609"><ele>600.0</ele><time>2026-05-01T11:53:01.001Z</time></trkpt><trkpt lat="47.82844677998733" lon="12.604450780159892"><ele>609.0</ele><time>2026-05-01T11:53:02.001Z</time></trkpt><trkpt lat="47.828482224531406" lon="12.604891270917419"><ele>618.0</ele><time>2026-05-01T11:53:03.001Z</time></trkpt><trkpt lat="47.828516523910466" lon="12.605330568847148"><ele>622.5</ele><time>2026-05-01T11:53:04.001Z</time></trkpt><trkpt lat="47.82854946464752" lon="12.605768762150936"><ele>627.0</ele><time>2026-05-01T11:53:05.001Z</time></trkpt><trkpt lat="47.82858216695471" lon="12.606207635327177"><ele>630.0</ele><time>2026-05-01T11:53:06.001Z</time></trkpt><trkpt lat="47.828614683402954" lon="12.606646804409046"><ele>633.0</ele><time>2026-05-01T11:53:07.001Z</time></trkpt><trkpt lat="47.82864725866686" lon="12.607085940902564"><ele>635.0</ele><time>2026-05-01T11:53:08.001Z</time></trkpt><trkpt lat="47.828677172815205" lon="12.607524445573983"><ele>637.0</ele><time>2026-05-01T11:53:09.001Z</time></trkpt><trkpt lat="47.82869752864911" lon="12.607962966354714"><ele>638.5</ele><time>2026-05-01T11:53:10.001Z</time></trkpt><trkpt lat="47.82871080822462" lon="12.60840144068996"><ele>640.0</ele><time>2026-05-01T11:53:11.001Z</time></trkpt><trkpt lat="47.82871813471251" lon="12.60883898045371"><ele>643.5</ele><time>2026-05-01T11:53:12.001Z</time></trkpt><trkpt lat="47.8287219373418" lon="12.609277201757704"><ele>647.0</ele><time>2026-05-01T11:53:13.001Z</time></trkpt><trkpt lat="47.82871898263376" lon="12.609713045130388"><ele>649.5</ele><time>2026-05-01T11:53:14.001Z</time></trkpt><trkpt lat="47.82871011833805" lon="12.610149781150861"><ele>652.0</ele><time>2026-05-01T11:53:15.001Z</time></trkpt><trkpt lat="47.82869706559628" lon="12.610584129575981"><ele>655.0</ele><time>2026-05-01T11:53:16.001Z</time></trkpt><trkpt lat="47.82867889761759" lon="12.611018353945058"><ele>658.0</ele><time>2026-05-01T11:53:17.001Z</time></trkpt><trkpt lat="47.828654049919336" lon="12.611451299023432"><ele>661.5</ele><time>2026-05-01T11:53:18.001Z</time></trkpt><trkpt lat="47.82862278106877" lon="12.611879388952064"><ele>665.0</ele><time>2026-05-01T11:53:19.001Z</time></trkpt><trkpt lat="47.82858408809374" lon="12.612300112315687"><ele>670.0</ele><time>2026-05-01T11:53:20.001Z</time></trkpt><trkpt lat="47.82853906940307" lon="12.612713588923123"><ele>675.0</ele><time>2026-05-01T11:53:21.001Z</time></trkpt><trkpt lat="47.828485732772236" lon="12.613122959949841"><ele>668.5</ele><time>2026-05-01T11:53:22.001Z</time></trkpt><trkpt lat="47.82842441904003" lon="12.613528328930684"><ele>662.0</ele><time>2026-05-01T11:53:23.001Z</time></trkpt><trkpt lat="47.82835598626672" lon="12.613929995434717"><ele>662.0</ele><time>2026-05-01T11:53:24.001Z</time></trkpt><trkpt lat="47.828281127467484" lon="12.614328943186068"><ele>662.0</ele><time>2026-05-01T11:53:25.001Z</time></trkpt><trkpt lat="47.82820543725854" lon="12.614729690268991"><ele>664.0</ele><time>2026-05-01T11:53:26.001Z</time></trkpt><trkpt lat="47.82812823489224" lon="12.615130732819502"><ele>666.0</ele><time>2026-05-01T11:53:27.001Z</time></trkpt><trkpt lat="47.828054324489216" lon="12.615533185615512"><ele>669.0</ele><time>2026-05-01T11:53:28.001Z</time></trkpt><trkpt lat="47.82798224135929" lon="12.615938965140803"><ele>672.0</ele><time>2026-05-01T11:53:29.001Z</time></trkpt><trkpt lat="47.82791110575994" lon="12.61634780624704"><ele>673.5</ele><time>2026-05-01T11:53:30.001Z</time></trkpt><trkpt lat="47.827840532512205" lon="12.616759716535901"><ele>675.0</ele><time>2026-05-01T11:53:31.001Z</time></trkpt><trkpt lat="47.827768622043116" lon="12.617172007147412"><ele>676.0</ele><time>2026-05-01T11:53:32.001Z</time></trkpt><trkpt lat="47.827703045582126" lon="12.617587037419094"><ele>677.0</ele><time>2026-05-01T11:53:33.001Z</time></trkpt><trkpt lat="47.8276446831844" lon="12.618006104253528"><ele>669.0</ele><time>2026-05-01T11:53:34.001Z</time></trkpt><trkpt lat="47.827601700823216" lon="12.618431244411727"><ele>661.0</ele><time>2026-05-01T11:53:35.001Z</time></trkpt><trkpt lat="47.82757208313095" lon="12.618862270197928"><ele>661.0</ele><time>2026-05-01T11:53:36.001Z</time></trkpt><trkpt lat="47.82755606264405" lon="12.61929856866278"><ele>661.0</ele><time>2026-05-01T11:53:37.001Z</time></trkpt><trkpt lat="47.82755384398044" lon="12.619738881239101"><ele>661.0</ele><time>2026-05-01T11:53:38.001Z</time></trkpt><trkpt lat="47.827562748397035" lon="12.62018284334602"><ele>661.0</ele><time>2026-05-01T11:53:39.001Z</time></trkpt><trkpt lat="47.82757979536698" lon="12.620630013639392"><ele>661.0</ele><time>2026-05-01T11:53:40.001Z</time></trkpt><trkpt lat="47.82760077538512" lon="12.621080663915441"><ele>661.0</ele><time>2026-05-01T11:53:41.001Z</time></trkpt><trkpt lat="47.82762960705258" lon="12.621529968137798"><ele>662.5</ele><time>2026-05-01T11:53:42.001Z</time></trkpt><trkpt lat="47.827673979078796" lon="12.621972740781834"><ele>664.0</ele><time>2026-05-01T11:53:43.001Z</time></trkpt><trkpt lat="47.82773923204647" lon="12.622406121747519"><ele>658.0</ele><time>2026-05-01T11:53:44.001Z</time></trkpt><trkpt lat="47.827818476824035" lon="12.622834880311434"><ele>652.0</ele><time>2026-05-01T11:53:45.001Z</time></trkpt><trkpt lat="47.82789929081995" lon="12.623265524739377"><ele>650.0</ele><time>2026-05-01T11:53:46.001Z</time></trkpt><trkpt lat="47.827977813141985" lon="12.623695293184086"><ele>648.0</ele><time>2026-05-01T11:53:47.001Z</time></trkpt><trkpt lat="47.828051781173635" lon="12.624110105505949"><ele>648.0</ele><time>2026-05-01T11:53:48.001Z</time></trkpt><trkpt lat="47.828121832928296" lon="12.62450767936193"><ele>648.0</ele><time>2026-05-01T11:53:49.001Z</time></trkpt><trkpt lat="47.8281903095432" lon="12.624915258149814"><ele>648.5</ele><time>2026-05-01T11:53:50.001Z</time></trkpt><trkpt lat="47.8282596886996" lon="12.625333969650093"><ele>649.0</ele><time>2026-05-01T11:53:51.001Z</time></trkpt><trkpt lat="47.82833264344885" lon="12.625755486484103"><ele>648.5</ele><time>2026-05-01T11:53:52.001Z</time></trkpt><trkpt lat="47.82840875349153" lon="12.626177410955808"><ele>648.0</ele><time>2026-05-01T11:53:53.001Z</time></trkpt><trkpt lat="47.82848333475809" lon="12.62659882315088"><ele>643.5</ele><time>2026-05-01T11:53:54.001Z</time></trkpt><trkpt lat="47.82855902508558" lon="12.627021813560553"><ele>639.0</ele><time>2026-05-01T11:53:55.001Z</time></trkpt><trkpt lat="47.8286344747243" lon="12.627445133163931"><ele>637.5</ele><time>2026-05-01T11:53:56.001Z</time></trkpt><trkpt lat="47.82871109022917" lon="12.6278702570524"><ele>636.0</ele><time>2026-05-01T11:53:57.001Z</time></trkpt><trkpt lat="47.82878666857372" lon="12.628298693968329"><ele>634.5</ele><time>2026-05-01T11:53:58.001Z</time></trkpt><trkpt lat="47.828859203795744" lon="12.628733356040215"><ele>633.0</ele><time>2026-05-01T11:53:59.001Z</time></trkpt><trkpt lat="47.82892692358871" lon="12.629171984090542"><ele>631.5</ele><time>2026-05-01T11:54:00.001Z</time></trkpt><trkpt lat="47.82898597362124" lon="12.62961210905903"><ele>630.0</ele><time>2026-05-01T11:54:01.001Z</time></trkpt><trkpt lat="47.82903383011181" lon="12.630056543243363"><ele>629.0</ele><time>2026-05-01T11:54:02.001Z</time></trkpt><trkpt lat="47.82907601614416" lon="12.630503087124323"><ele>628.0</ele><time>2026-05-01T11:54:03.001Z</time></trkpt><trkpt lat="47.82911359834063" lon="12.630953908826454"><ele>626.5</ele><time>2026-05-01T11:54:04.001Z</time></trkpt><trkpt lat="47.82914643520982" lon="12.631407672512411"><ele>625.0</ele><time>2026-05-01T11:54:05.001Z</time></trkpt><trkpt lat="47.82917093432974" lon="12.63186148832969"><ele>622.5</ele><time>2026-05-01T11:54:06.001Z</time></trkpt><trkpt lat="47.82918936965115" lon="12.632311963757212"><ele>620.0</ele><time>2026-05-01T11:54:07.001Z</time></trkpt><trkpt lat="47.82920161245032" lon="12.63275492800338"><ele>619.5</ele><time>2026-05-01T11:54:08.001Z</time></trkpt><trkpt lat="47.82920923583633" lon="12.633191145645492"><ele>619.0</ele><time>2026-05-01T11:54:09.001Z</time></trkpt><trkpt lat="47.82920672243019" lon="12.633626556401486"><ele>619.0</ele><time>2026-05-01T11:54:10.001Z</time></trkpt><trkpt lat="47.82919486879158" lon="12.634065548818246"><ele>619.0</ele><time>2026-05-01T11:54:11.001Z</time></trkpt><trkpt lat="47.829179289716286" lon="12.634506700026812"><ele>618.0</ele><time>2026-05-01T11:54:12.001Z</time></trkpt><trkpt lat="47.82915641433461" lon="12.634947786131747"><ele>617.0</ele><time>2026-05-01T11:54:13.001Z</time></trkpt><trkpt lat="47.82912666204189" lon="12.635390139628834"><ele>615.5</ele><time>2026-05-01T11:54:14.001Z</time></trkpt><trkpt lat="47.829092265728406" lon="12.635830719168986"><ele>614.0</ele><time>2026-05-01T11:54:15.001Z</time></trkpt><trkpt lat="47.829053143401936" lon="12.636270285540906"><ele>614.0</ele><time>2026-05-01T11:54:16.001Z</time></trkpt><trkpt lat="47.82901392436402" lon="12.636706276437867"><ele>614.0</ele><time>2026-05-01T11:54:17.001Z</time></trkpt><trkpt lat="47.82897603265268" lon="12.637136121395407"><ele>613.5</ele><time>2026-05-01T11:54:18.001Z</time></trkpt><trkpt lat="47.828939199758594" lon="12.637552584616499"><ele>613.0</ele><time>2026-05-01T11:54:19.001Z</time></trkpt><trkpt lat="47.82890298449093" lon="12.637964623545535"><ele>612.0</ele><time>2026-05-01T11:54:20.001Z</time></trkpt><trkpt lat="47.82886775238117" lon="12.638380804241457"><ele>611.0</ele><time>2026-05-01T11:54:21.001Z</time></trkpt><trkpt lat="47.82883181903099" lon="12.638796055716377"><ele>611.0</ele><time>2026-05-01T11:54:22.001Z</time></trkpt><trkpt lat="47.82879493006762" lon="12.639210543068964"><ele>611.0</ele><time>2026-05-01T11:54:23.001Z</time></trkpt><trkpt lat="47.828755893927394" lon="12.639624085496225"><ele>610.5</ele><time>2026-05-01T11:54:24.001Z</time></trkpt><trkpt lat="47.828716376824744" lon="12.640037127382511"><ele>610.0</ele><time>2026-05-01T11:54:25.001Z</time></trkpt><trkpt lat="47.82867603534081" lon="12.640451078249944"><ele>608.0</ele><time>2026-05-01T11:54:26.001Z</time></trkpt><trkpt lat="47.82863420474386" lon="12.640864105017503"><ele>606.0</ele><time>2026-05-01T11:54:27.001Z</time></trkpt><trkpt lat="47.82858758364524" lon="12.64127777050974"><ele>603.5</ele><time>2026-05-01T11:54:28.001Z</time></trkpt><trkpt lat="47.82853541996309" lon="12.64168847434298"><ele>601.0</ele><time>2026-05-01T11:54:29.001Z</time></trkpt><trkpt lat="47.828473043471284" lon="12.642098433054626"><ele>601.0</ele><time>2026-05-01T11:54:30.001Z</time></trkpt><trkpt lat="47.828402936539604" lon="12.642509152324775"><ele>601.0</ele><time>2026-05-01T11:54:31.001Z</time></trkpt><trkpt lat="47.82832333261563" lon="12.642918636238822"><ele>601.0</ele><time>2026-05-01T11:54:32.001Z</time></trkpt><trkpt lat="47.828243372831594" lon="12.643323459922494"><ele>601.0</ele><time>2026-05-01T11:54:33.001Z</time></trkpt><trkpt lat="47.82816195508368" lon="12.643727146492083"><ele>601.0</ele><time>2026-05-01T11:54:34.001Z</time></trkpt><trkpt lat="47.82807425596094" lon="12.644126480292355"><ele>601.0</ele><time>2026-05-01T11:54:35.001Z</time></trkpt><trkpt lat="47.82797452391121" lon="12.644519190345333"><ele>600.5</ele><time>2026-05-01T11:54:36.001Z</time></trkpt><trkpt lat="47.827864583904834" lon="12.64490545358975"><ele>600.0</ele><time>2026-05-01T11:54:37.001Z</time></trkpt><trkpt lat="47.82774721695755" lon="12.64528957807421"><ele>603.0</ele><time>2026-05-01T11:54:38.001Z</time></trkpt><trkpt lat="47.82762394278071" lon="12.645670628516333"><ele>606.0</ele><time>2026-05-01T11:54:39.001Z</time></trkpt><trkpt lat="47.827495463731495" lon="12.646050058943551"><ele>606.5</ele><time>2026-05-01T11:54:40.001Z</time></trkpt><trkpt lat="47.82737252655467" lon="12.646430889556502"><ele>607.0</ele><time>2026-05-01T11:54:41.001Z</time></trkpt><trkpt lat="47.827257133343075" lon="12.64682030636787"><ele>608.0</ele><time>2026-05-01T11:54:42.001Z</time></trkpt><trkpt lat="47.82714246804929" lon="12.647213792277116"><ele>609.0</ele><time>2026-05-01T11:54:43.001Z</time></trkpt><trkpt lat="47.82702502042081" lon="12.647610598323107"><ele>609.0</ele><time>2026-05-01T11:54:44Z</time></trkpt><trkpt lat="47.82690718835229" lon="12.648005165255611"><ele>609.0</ele><time>2026-05-01T11:54:45Z</time></trkpt><trkpt lat="47.8267915683831" lon="12.64839551206557"><ele>609.0</ele><time>2026-05-01T11:54:46Z</time></trkpt><trkpt lat="47.826673826476835" lon="12.648784145318997"><ele>609.0</ele><time>2026-05-01T11:54:47Z</time></trkpt><trkpt lat="47.82655684615122" lon="12.64917259993984"><ele>611.5</ele><time>2026-05-01T11:54:48Z</time></trkpt><trkpt lat="47.82644009121546" lon="12.64956040172968"><ele>614.0</ele><time>2026-05-01T11:54:49Z</time></trkpt><trkpt lat="47.82632099314947" lon="12.649949740694355"><ele>617.0</ele><time>2026-05-01T11:54:50Z</time></trkpt><trkpt lat="47.826200958130386" lon="12.650341598333748"><ele>620.0</ele><time>2026-05-01T11:54:51Z</time></trkpt><trkpt lat="47.82608141482364" lon="12.650736364976098"><ele>616.5</ele><time>2026-05-01T11:54:52Z</time></trkpt><trkpt lat="47.825965787458614" lon="12.651135845906888"><ele>613.0</ele><time>2026-05-01T11:54:53Z</time></trkpt><trkpt lat="47.82585500256964" lon="12.651540064630014"><ele>613.0</ele><time>2026-05-01T11:54:54Z</time></trkpt><trkpt lat="47.82574930048681" lon="12.651947754166262"><ele>613.0</ele><time>2026-05-01T11:54:55Z</time></trkpt><trkpt lat="47.82564934085742" lon="12.652359286734834"><ele>614.0</ele><time>2026-05-01T11:54:56Z</time></trkpt><trkpt lat="47.82556019968559" lon="12.652773659356594"><ele>615.0</ele><time>2026-05-01T11:54:57Z</time></trkpt><trkpt lat="47.825478601979505" lon="12.653191780357576"><ele>615.5</ele><time>2026-05-01T11:54:58Z</time></trkpt><trkpt lat="47.82540603434481" lon="12.653616486873403"><ele>616.0</ele><time>2026-05-01T11:54:59Z</time></trkpt><trkpt lat="47.82533908060567" lon="12.654043398762752"><ele>611.5</ele><time>2026-05-01T11:55:00Z</time></trkpt><trkpt lat="47.825282687663716" lon="12.654468143841742"><ele>607.0</ele><time>2026-05-01T11:55:01Z</time></trkpt><trkpt lat="47.825232260447144" lon="12.6548708281156"><ele>607.0</ele><time>2026-05-01T11:55:02Z</time></trkpt><trkpt lat="47.825187860618776" lon="12.655284508669359"><ele>607.0</ele><time>2026-05-01T11:55:03Z</time></trkpt><trkpt lat="47.82515196381041" lon="12.655708633305434"><ele>606.5</ele><time>2026-05-01T11:55:04Z</time></trkpt><trkpt lat="47.82512110976896" lon="12.656137727381548"><ele>606.0</ele><time>2026-05-01T11:55:05Z</time></trkpt><trkpt lat="47.82509971970245" lon="12.65657312873933"><ele>605.0</ele><time>2026-05-01T11:55:06Z</time></trkpt><trkpt lat="47.825087404240485" lon="12.657012929132604"><ele>604.0</ele><time>2026-05-01T11:55:07Z</time></trkpt><trkpt lat="47.82508376054108" lon="12.657452767591266"><ele>605.0</ele><time>2026-05-01T11:55:08Z</time></trkpt><trkpt lat="47.825089083632875" lon="12.657890944136327"><ele>606.0</ele><time>2026-05-01T11:55:09.001Z</time></trkpt><trkpt lat="47.82510132116715" lon="12.658326071970965"><ele>606.5</ele><time>2026-05-01T11:55:10.001Z</time></trkpt><trkpt lat="47.8251200650572" lon="12.658758403106978"><ele>607.0</ele><time>2026-05-01T11:55:11.001Z</time></trkpt><trkpt lat="47.8251411643284" lon="12.659190892223029"><ele>611.5</ele><time>2026-05-01T11:55:12.001Z</time></trkpt><trkpt lat="47.82516335580402" lon="12.659623389451951"><ele>616.0</ele><time>2026-05-01T11:55:13.001Z</time></trkpt><trkpt lat="47.82518789837351" lon="12.660057201730012"><ele>615.5</ele><time>2026-05-01T11:55:14.001Z</time></trkpt><trkpt lat="47.82521351107141" lon="12.660491855480096"><ele>615.0</ele><time>2026-05-01T11:55:15.001Z</time></trkpt><trkpt lat="47.82523725581115" lon="12.660927459717911"><ele>615.0</ele><time>2026-05-01T11:55:16.001Z</time></trkpt><trkpt lat="47.825260011037585" lon="12.661361697245892"><ele>615.0</ele><time>2026-05-01T11:55:17.001Z</time></trkpt><trkpt lat="47.825278700496966" lon="12.66179715668168"><ele>615.5</ele><time>2026-05-01T11:55:18.001Z</time></trkpt><trkpt lat="47.82529677204389" lon="12.662232289956284"><ele>616.0</ele><time>2026-05-01T11:55:19.001Z</time></trkpt><trkpt lat="47.825314358998284" lon="12.662667774894274"><ele>616.0</ele><time>2026-05-01T11:55:20.001Z</time></trkpt><trkpt lat="47.82533195016948" lon="12.663103263210683"><ele>616.0</ele><time>2026-05-01T11:55:21.001Z</time></trkpt><trkpt lat="47.82535009304059" lon="12.663539723760428"><ele>617.0</ele><time>2026-05-01T11:55:22.001Z</time></trkpt><trkpt lat="47.82536937422138" lon="12.663973158785343"><ele>618.0</ele><time>2026-05-01T11:55:23.001Z</time></trkpt><trkpt lat="47.825383849131676" lon="12.664402684719908"><ele>618.0</ele><time>2026-05-01T11:55:24.001Z</time></trkpt><trkpt lat="47.82539391342704" lon="12.664827447492556"><ele>618.0</ele><time>2026-05-01T11:55:25.001Z</time></trkpt><trkpt lat="47.82540060094321" lon="12.665252320294035"><ele>618.0</ele><time>2026-05-01T11:55:26.001Z</time></trkpt><trkpt lat="47.82540714769932" lon="12.665678039308116"><ele>618.0</ele><time>2026-05-01T11:55:27.001Z</time></trkpt><trkpt lat="47.82541870555387" lon="12.666103529115771"><ele>618.0</ele><time>2026-05-01T11:55:28.001Z</time></trkpt><trkpt lat="47.825433905957624" lon="12.666529984853602"><ele>618.0</ele><time>2026-05-01T11:55:29.001Z</time></trkpt><trkpt lat="47.825451243336126" lon="12.6669573093693"><ele>618.0</ele><time>2026-05-01T11:55:30.001Z</time></trkpt><trkpt lat="47.82546426361409" lon="12.667383364350142"><ele>618.0</ele><time>2026-05-01T11:55:31.001Z</time></trkpt><trkpt lat="47.82546897426894" lon="12.667810432206165"><ele>618.0</ele><time>2026-05-01T11:55:32.001Z</time></trkpt><trkpt lat="47.82546196897568" lon="12.668232381769702"><ele>618.0</ele><time>2026-05-01T11:55:33.001Z</time></trkpt><trkpt lat="47.825444271333" lon="12.668651878739551"><ele>618.0</ele><time>2026-05-01T11:55:34.001Z</time></trkpt><trkpt lat="47.82541450663668" lon="12.669067724721813"><ele>618.0</ele><time>2026-05-01T11:55:35.001Z</time></trkpt><trkpt lat="47.82537626075578" lon="12.66947970188195"><ele>619.0</ele><time>2026-05-01T11:55:36.001Z</time></trkpt><trkpt lat="47.82532995716086" lon="12.669886260020585"><ele>620.0</ele><time>2026-05-01T11:55:37.001Z</time></trkpt><trkpt lat="47.82527445006732" lon="12.6702871092881"><ele>620.5</ele><time>2026-05-01T11:55:38.001Z</time></trkpt><trkpt lat="47.825206180578334" lon="12.670682981907117"><ele>621.0</ele><time>2026-05-01T11:55:39.001Z</time></trkpt><trkpt lat="47.82512947625227" lon="12.671078606407352"><ele>620.0</ele><time>2026-05-01T11:55:40.001Z</time></trkpt><trkpt lat="47.82505130437179" lon="12.671471739000912"><ele>619.0</ele><time>2026-05-01T11:55:41.001Z</time></trkpt><trkpt lat="47.82497357385402" lon="12.671866019501117"><ele>620.5</ele><time>2026-05-01T11:55:42.001Z</time></trkpt><trkpt lat="47.82489611700385" lon="12.672260757340835"><ele>622.0</ele><time>2026-05-01T11:55:43.001Z</time></trkpt><trkpt lat="47.824820575619476" lon="12.672655448942372"><ele>623.0</ele><time>2026-05-01T11:55:44.001Z</time></trkpt><trkpt lat="47.824749011366045" lon="12.673045872812304"><ele>624.0</ele><time>2026-05-01T11:55:45.001Z</time></trkpt><trkpt lat="47.82467904754826" lon="12.673424045553833"><ele>627.0</ele><time>2026-05-01T11:55:46.001Z</time></trkpt><trkpt lat="47.82461082673799" lon="12.67379404575934"><ele>630.0</ele><time>2026-05-01T11:55:47.001Z</time></trkpt><trkpt lat="47.82454033716535" lon="12.674178371809854"><ele>633.0</ele><time>2026-05-01T11:55:48.001Z</time></trkpt><trkpt lat="47.82447335484372" lon="12.674568646709869"><ele>636.0</ele><time>2026-05-01T11:55:49.001Z</time></trkpt><trkpt lat="47.8244184699388" lon="12.674965944418922"><ele>643.0</ele><time>2026-05-01T11:55:50.001Z</time></trkpt><trkpt lat="47.82437985564984" lon="12.675369894718546"><ele>650.0</ele><time>2026-05-01T11:55:51.001Z</time></trkpt><trkpt lat="47.824357336733925" lon="12.675780532247934"><ele>649.0</ele><time>2026-05-01T11:55:52.001Z</time></trkpt><trkpt lat="47.82434233597414" lon="12.676196654741469"><ele>648.0</ele><time>2026-05-01T11:55:53.001Z</time></trkpt><trkpt lat="47.824335379396246" lon="12.676617998968581"><ele>648.0</ele><time>2026-05-01T11:55:54.001Z</time></trkpt><trkpt lat="47.82435410622188" lon="12.677039295942508"><ele>648.0</ele><time>2026-05-01T11:55:55.001Z</time></trkpt><trkpt lat="47.82436485875118" lon="12.677465301769516"><ele>648.0</ele><time>2026-05-01T11:55:56.001Z</time></trkpt><trkpt lat="47.824383414227924" lon="12.67789236639862"><ele>648.0</ele><time>2026-05-01T11:55:57.001Z</time></trkpt><trkpt lat="47.82441680037609" lon="12.678317307206923"><ele>645.0</ele><time>2026-05-01T11:55:58.001Z</time></trkpt><trkpt lat="47.82446312165479" lon="12.678741199602676"><ele>642.0</ele><time>2026-05-01T11:55:59.001Z</time></trkpt><trkpt lat="47.82452189769019" lon="12.679155494302444"><ele>636.0</ele><time>2026-05-01T11:56:00.001Z</time></trkpt><trkpt lat="47.824587926104655" lon="12.679572659528175"><ele>630.0</ele><time>2026-05-01T11:56:01.001Z</time></trkpt><trkpt lat="47.82466538787937" lon="12.679985686470006"><ele>627.0</ele><time>2026-05-01T11:56:02.001Z</time></trkpt><trkpt lat="47.82476128564284" lon="12.68039169962043"><ele>624.0</ele><time>2026-05-01T11:56:03.001Z</time></trkpt><trkpt lat="47.82486111799712" lon="12.680789557706913"><ele>623.5</ele><time>2026-05-01T11:56:04.001Z</time></trkpt><trkpt lat="47.82497459741904" lon="12.681183401424601"><ele>623.0</ele><time>2026-05-01T11:56:05.001Z</time></trkpt><trkpt lat="47.82510040019583" lon="12.681567529889998"><ele>625.0</ele><time>2026-05-01T11:56:06.001Z</time></trkpt><trkpt lat="47.82523036027836" lon="12.681947454734967"><ele>627.0</ele><time>2026-05-01T11:56:07.001Z</time></trkpt><trkpt lat="47.825368475308416" lon="12.682322108627051"><ele>627.0</ele><time>2026-05-01T11:56:08.001Z</time></trkpt><trkpt lat="47.8255068244049" lon="12.68269781053858"><ele>627.0</ele><time>2026-05-01T11:56:09.001Z</time></trkpt><trkpt lat="47.8256434430737" lon="12.683072898925385"><ele>628.0</ele><time>2026-05-01T11:56:10.001Z</time></trkpt><trkpt lat="47.825774001283385" lon="12.683455616809972"><ele>629.0</ele><time>2026-05-01T11:56:11.001Z</time></trkpt><trkpt lat="47.82590470692974" lon="12.683841288902187"><ele>630.0</ele><time>2026-05-01T11:56:12.001Z</time></trkpt><trkpt lat="47.8260361453097" lon="12.684228244711731"><ele>631.0</ele><time>2026-05-01T11:56:13.001Z</time></trkpt><trkpt lat="47.82616704210075" lon="12.684611651530561"><ele>631.0</ele><time>2026-05-01T11:56:14.001Z</time></trkpt><trkpt lat="47.82629604131748" lon="12.684997365734688"><ele>631.0</ele><time>2026-05-01T11:56:15.001Z</time></trkpt><trkpt lat="47.826420192198555" lon="12.6853846393995"><ele>631.5</ele><time>2026-05-01T11:56:16.001Z</time></trkpt><trkpt lat="47.826542657445216" lon="12.685774092147057"><ele>632.0</ele><time>2026-05-01T11:56:17.001Z</time></trkpt><trkpt lat="47.82666778981843" lon="12.686163339086544"><ele>632.0</ele><time>2026-05-01T11:56:18.001Z</time></trkpt><trkpt lat="47.82679530446852" lon="12.686550191809285"><ele>632.0</ele><time>2026-05-01T11:56:19.001Z</time></trkpt><trkpt lat="47.82692411916633" lon="12.686935223282457"><ele>633.5</ele><time>2026-05-01T11:56:20.001Z</time></trkpt><trkpt lat="47.82705371762935" lon="12.687319587916626"><ele>635.0</ele><time>2026-05-01T11:56:21.001Z</time></trkpt><trkpt lat="47.82718045924412" lon="12.687704401883273"><ele>635.0</ele><time>2026-05-01T11:56:22.001Z</time></trkpt><trkpt lat="47.82730070152574" lon="12.688093927042729"><ele>635.0</ele><time>2026-05-01T11:56:23.001Z</time></trkpt><trkpt lat="47.82740817902163" lon="12.688492911000084"><ele>636.0</ele><time>2026-05-01T11:56:24.001Z</time></trkpt><trkpt lat="47.827501354455386" lon="12.688899685832935"><ele>637.0</ele><time>2026-05-01T11:56:25.001Z</time></trkpt><trkpt lat="47.827579883791266" lon="12.689315557504976"><ele>636.5</ele><time>2026-05-01T11:56:26.001Z</time></trkpt><trkpt lat="47.82764723970004" lon="12.689735504887524"><ele>636.0</ele><time>2026-05-01T11:56:27.001Z</time></trkpt><trkpt lat="47.827704356898145" lon="12.69016086716732"><ele>636.5</ele><time>2026-05-01T11:56:28.001Z</time></trkpt><trkpt lat="47.827755951508735" lon="12.690584366713312"><ele>637.0</ele><time>2026-05-01T11:56:29.001Z</time></trkpt><trkpt lat="47.82780327795988" lon="12.69100368842944"><ele>640.5</ele><time>2026-05-01T11:56:30.001Z</time></trkpt><trkpt lat="47.82784817046464" lon="12.691398740668076"><ele>644.0</ele><time>2026-05-01T11:56:31.001Z</time></trkpt><trkpt lat="47.8278929051864" lon="12.691783874616632"><ele>646.5</ele><time>2026-05-01T11:56:32.001Z</time></trkpt><trkpt lat="47.82794183292536" lon="12.692185885477631"><ele>649.0</ele><time>2026-05-01T11:56:33.001Z</time></trkpt><trkpt lat="47.82799486924946" lon="12.69259026895405"><ele>650.5</ele><time>2026-05-01T11:56:34.001Z</time></trkpt><trkpt lat="47.828047122584145" lon="12.692996154512267"><ele>652.0</ele><time>2026-05-01T11:56:35.001Z</time></trkpt><trkpt lat="47.82809643035458" lon="12.69340462536995"><ele>651.5</ele><time>2026-05-01T11:56:36.001Z</time></trkpt><trkpt lat="47.828143693198065" lon="12.69381168420113"><ele>651.0</ele><time>2026-05-01T11:56:37.001Z</time></trkpt><trkpt lat="47.82819105223013" lon="12.694219813540803"><ele>652.0</ele><time>2026-05-01T11:56:38.001Z</time></trkpt><trkpt lat="47.82823953551084" lon="12.694630296464245"><ele>653.0</ele><time>2026-05-01T11:56:39.001Z</time></trkpt><trkpt lat="47.8282879203742" lon="12.695044489207783"><ele>652.0</ele><time>2026-05-01T11:56:40.001Z</time></trkpt><trkpt lat="47.82833682240521" lon="12.69545985892152"><ele>651.0</ele><time>2026-05-01T11:56:41.001Z</time></trkpt><trkpt lat="47.82838842003751" lon="12.695875424488584"><ele>650.0</ele><time>2026-05-01T11:56:42.001Z</time></trkpt><trkpt lat="47.82844537067727" lon="12.696294902772287"><ele>649.0</ele><time>2026-05-01T11:56:43.001Z</time></trkpt><trkpt lat="47.82850597554133" lon="12.696723855596053"><ele>648.5</ele><time>2026-05-01T11:56:44.001Z</time></trkpt><trkpt lat="47.828566264920084" lon="12.697157562186081"><ele>648.0</ele><time>2026-05-01T11:56:45.001Z</time></trkpt><trkpt lat="47.82862453223801" lon="12.697595016409274"><ele>648.5</ele><time>2026-05-01T11:56:46.001Z</time></trkpt><trkpt lat="47.828680616679755" lon="12.698035917370255"><ele>649.0</ele><time>2026-05-01T11:56:47.001Z</time></trkpt><trkpt lat="47.828736240776735" lon="12.69847977907084"><ele>649.0</ele><time>2026-05-01T11:56:48.001Z</time></trkpt><trkpt lat="47.82878610493016" lon="12.698924514257502"><ele>649.0</ele><time>2026-05-01T11:56:49.001Z</time></trkpt><trkpt lat="47.82883540277748" lon="12.699368528213535"><ele>646.5</ele><time>2026-05-01T11:56:50Z</time></trkpt><trkpt lat="47.828884797117894" lon="12.69981119380824"><ele>644.0</ele><time>2026-05-01T11:56:51Z</time></trkpt><trkpt lat="47.82893581305123" lon="12.700252233303473"><ele>643.5</ele><time>2026-05-01T11:56:52Z</time></trkpt><trkpt lat="47.828976459384364" lon="12.700692876357326"><ele>643.0</ele><time>2026-05-01T11:56:53Z</time></trkpt><trkpt lat="47.82900263440983" lon="12.701133645617482"><ele>643.0</ele><time>2026-05-01T11:56:54Z</time></trkpt><trkpt lat="47.829011310839114" lon="12.70157317001318"><ele>643.0</ele><time>2026-05-01T11:56:55Z</time></trkpt><trkpt lat="47.82901255018929" lon="12.702011950833937"><ele>644.5</ele><time>2026-05-01T11:56:56Z</time></trkpt><trkpt lat="47.82900897120249" lon="12.702450458370837"><ele>646.0</ele><time>2026-05-01T11:56:57Z</time></trkpt><trkpt lat="47.82901073227872" lon="12.702888190368455"><ele>646.5</ele><time>2026-05-01T11:56:58Z</time></trkpt><trkpt lat="47.82902129507524" lon="12.70332186931252"><ele>647.0</ele><time>2026-05-01T11:56:59Z</time></trkpt><trkpt lat="47.829034040526956" lon="12.703750228793792"><ele>647.0</ele><time>2026-05-01T11:57:00Z</time></trkpt><trkpt lat="47.82904784966936" lon="12.704172864234396"><ele>647.0</ele><time>2026-05-01T11:57:01Z</time></trkpt><trkpt lat="47.8290614701688" lon="12.704595812132055"><ele>646.5</ele><time>2026-05-01T11:57:02Z</time></trkpt><trkpt lat="47.82907320850949" lon="12.705016955065753"><ele>646.0</ele><time>2026-05-01T11:57:03Z</time></trkpt><trkpt lat="47.82908323103055" lon="12.705438221749342"><ele>645.5</ele><time>2026-05-01T11:57:04Z</time></trkpt><trkpt lat="47.82909473572509" lon="12.70585705712155"><ele>645.0</ele><time>2026-05-01T11:57:05Z</time></trkpt><trkpt lat="47.829106770618004" lon="12.706273847562848"><ele>646.0</ele><time>2026-05-01T11:57:06Z</time></trkpt><trkpt lat="47.82911679305344" lon="12.706686421310017"><ele>647.0</ele><time>2026-05-01T11:57:07Z</time></trkpt><trkpt lat="47.82912776275945" lon="12.707098204015507"><ele>649.0</ele><time>2026-05-01T11:57:08Z</time></trkpt><trkpt lat="47.82913987536281" lon="12.707507066539874"><ele>651.0</ele><time>2026-05-01T11:57:09Z</time></trkpt><trkpt lat="47.829151834151055" lon="12.70791637615985"><ele>651.0</ele><time>2026-05-01T11:57:10Z</time></trkpt><trkpt lat="47.82916324161363" lon="12.70832437709043"><ele>651.0</ele><time>2026-05-01T11:57:11Z</time></trkpt><trkpt lat="47.82917414439796" lon="12.708734203205081"><ele>650.5</ele><time>2026-05-01T11:57:12Z</time></trkpt><trkpt lat="47.829183112672084" lon="12.709145995367862"><ele>650.0</ele><time>2026-05-01T11:57:13Z</time></trkpt><trkpt lat="47.82919280223718" lon="12.709558546565576"><ele>650.0</ele><time>2026-05-01T11:57:14Z</time></trkpt><trkpt lat="47.82920031611979" lon="12.709973170074669"><ele>650.0</ele><time>2026-05-01T11:57:15Z</time></trkpt><trkpt lat="47.82920567084778" lon="12.71038629543181"><ele>650.5</ele><time>2026-05-01T11:57:16Z</time></trkpt><trkpt lat="47.829211519109705" lon="12.710800838307842"><ele>651.0</ele><time>2026-05-01T11:57:17Z</time></trkpt><trkpt lat="47.82921810762019" lon="12.711216882124111"><ele>651.5</ele><time>2026-05-01T11:57:18Z</time></trkpt><trkpt lat="47.8292241036515" lon="12.71163504380779"><ele>652.0</ele><time>2026-05-01T11:57:19Z</time></trkpt><trkpt lat="47.82922777729608" lon="12.712054252381364"><ele>652.0</ele><time>2026-05-01T11:57:20.001Z</time></trkpt><trkpt lat="47.829229329193666" lon="12.712475717900944"><ele>652.0</ele><time>2026-05-01T11:57:21.001Z</time></trkpt><trkpt lat="47.82922761507555" lon="12.712898067870801"><ele>653.0</ele><time>2026-05-01T11:57:22.001Z</time></trkpt><trkpt lat="47.82922661575696" lon="12.713322729700954"><ele>654.0</ele><time>2026-05-01T11:57:23.001Z</time></trkpt><trkpt lat="47.82922348446788" lon="12.713748330129246"><ele>655.5</ele><time>2026-05-01T11:57:24.001Z</time></trkpt><trkpt lat="47.8292167811154" lon="12.714173670781733"><ele>657.0</ele><time>2026-05-01T11:57:25.001Z</time></trkpt><trkpt lat="47.82920738942412" lon="12.714601092024818"><ele>658.5</ele><time>2026-05-01T11:57:26.001Z</time></trkpt><trkpt lat="47.8291944871656" lon="12.715030215462836"><ele>660.0</ele><time>2026-05-01T11:57:27.001Z</time></trkpt><trkpt lat="47.82918224436792" lon="12.715461596588904"><ele>661.5</ele><time>2026-05-01T11:57:28.001Z</time></trkpt><trkpt lat="47.82916795378923" lon="12.715893518156346"><ele>663.0</ele><time>2026-05-01T11:57:29.001Z</time></trkpt><trkpt lat="47.829154139459746" lon="12.716329940730365"><ele>663.5</ele><time>2026-05-01T11:57:30.001Z</time></trkpt><trkpt lat="47.82914133761214" lon="12.716765149986616"><ele>664.0</ele><time>2026-05-01T11:57:31.001Z</time></trkpt><trkpt lat="47.82912918826165" lon="12.71718887342952"><ele>662.0</ele><time>2026-05-01T11:57:32.001Z</time></trkpt><trkpt lat="47.829118321329354" lon="12.717602209317713"><ele>660.0</ele><time>2026-05-01T11:57:33.001Z</time></trkpt><trkpt lat="47.82910806538834" lon="12.718027733982426"><ele>658.5</ele><time>2026-05-01T11:57:34.001Z</time></trkpt><trkpt lat="47.82910101274992" lon="12.718458118344948"><ele>657.0</ele><time>2026-05-01T11:57:35.001Z</time></trkpt><trkpt lat="47.82909692710227" lon="12.718890606201931"><ele>656.5</ele><time>2026-05-01T11:57:36.001Z</time></trkpt><trkpt lat="47.8290934584275" lon="12.719325949059806"><ele>656.0</ele><time>2026-05-01T11:57:37.001Z</time></trkpt><trkpt lat="47.829090165202764" lon="12.71976131599543"><ele>656.0</ele><time>2026-05-01T11:57:38.001Z</time></trkpt><trkpt lat="47.829087650661975" lon="12.720193285519347"><ele>656.0</ele><time>2026-05-01T11:57:39.001Z</time></trkpt><trkpt lat="47.82909011662506" lon="12.720621233545867"><ele>656.5</ele><time>2026-05-01T11:57:40.001Z</time></trkpt><trkpt lat="47.829101046880226" lon="12.721045789308299"><ele>657.0</ele><time>2026-05-01T11:57:41.001Z</time></trkpt><trkpt lat="47.82911571311282" lon="12.721473254119246"><ele>658.0</ele><time>2026-05-01T11:57:42.001Z</time></trkpt><trkpt lat="47.82913297283921" lon="12.72189912458995"><ele>659.0</ele><time>2026-05-01T11:57:43.001Z</time></trkpt><trkpt lat="47.82915615205603" lon="12.722324532837378"><ele>660.0</ele><time>2026-05-01T11:57:44.001Z</time></trkpt><trkpt lat="47.82918144615133" lon="12.722746593846015"><ele>661.0</ele><time>2026-05-01T11:57:45.001Z</time></trkpt><trkpt lat="47.829209860550925" lon="12.723165163381399"><ele>661.5</ele><time>2026-05-01T11:57:46.001Z</time></trkpt><trkpt lat="47.82924083177423" lon="12.723582586992869"><ele>662.0</ele><time>2026-05-01T11:57:47.001Z</time></trkpt><trkpt lat="47.82927935924217" lon="12.724001849822274"><ele>661.5</ele><time>2026-05-01T11:57:48.001Z</time></trkpt><trkpt lat="47.82932398717386" lon="12.724419925505474"><ele>661.0</ele><time>2026-05-01T11:57:49.001Z</time></trkpt><trkpt lat="47.82937553003828" lon="12.724838489847471"><ele>662.0</ele><time>2026-05-01T11:57:50.001Z</time></trkpt><trkpt lat="47.82943152271019" lon="12.725257211118672"><ele>663.0</ele><time>2026-05-01T11:57:51.001Z</time></trkpt><trkpt lat="47.82949022919077" lon="12.725675521477658"><ele>664.0</ele><time>2026-05-01T11:57:52.001Z</time></trkpt><trkpt lat="47.829550888556625" lon="12.726092448832164"><ele>665.0</ele><time>2026-05-01T11:57:53.001Z</time></trkpt><trkpt lat="47.82961404910882" lon="12.726508578330764"><ele>667.0</ele><time>2026-05-01T11:57:54.001Z</time></trkpt><trkpt lat="47.829682618156966" lon="12.72692342542463"><ele>669.0</ele><time>2026-05-01T11:57:55.001Z</time></trkpt><trkpt lat="47.829751667114074" lon="12.727339262911977"><ele>670.0</ele><time>2026-05-01T11:57:56.001Z</time></trkpt><trkpt lat="47.82981902291722" lon="12.727753564130879"><ele>671.0</ele><time>2026-05-01T11:57:57.001Z</time></trkpt><trkpt lat="47.8298835494395" lon="12.728173267154258"><ele>672.0</ele><time>2026-05-01T11:57:58.001Z</time></trkpt><trkpt lat="47.829942088431736" lon="12.728596614056311"><ele>673.0</ele><time>2026-05-01T11:57:59.001Z</time></trkpt><trkpt lat="47.829996188214345" lon="12.72901934964754"><ele>671.0</ele><time>2026-05-01T11:58:00.001Z</time></trkpt><trkpt lat="47.83005325949118" lon="12.729439960392476"><ele>669.0</ele><time>2026-05-01T11:58:01.001Z</time></trkpt><trkpt lat="47.830113936565894" lon="12.729851855390557"><ele>668.0</ele><time>2026-05-01T11:58:02.001Z</time></trkpt><trkpt lat="47.830178434649945" lon="12.730251438577405"><ele>667.0</ele><time>2026-05-01T11:58:03.001Z</time></trkpt><trkpt lat="47.830242853889835" lon="12.730643682865775"><ele>667.0</ele><time>2026-05-01T11:58:04.001Z</time></trkpt><trkpt lat="47.83030173475434" lon="12.731029838597545"><ele>667.0</ele><time>2026-05-01T11:58:05.001Z</time></trkpt><trkpt lat="47.83035992266384" lon="12.731415506938538"><ele>667.0</ele><time>2026-05-01T11:58:06.001Z</time></trkpt><trkpt lat="47.830423171784936" lon="12.731799670897757"><ele>667.0</ele><time>2026-05-01T11:58:07.001Z</time></trkpt><trkpt lat="47.83048655211101" lon="12.73217956058702"><ele>667.0</ele><time>2026-05-01T11:58:08.001Z</time></trkpt><trkpt lat="47.830548390877155" lon="12.732557063931864"><ele>667.0</ele><time>2026-05-01T11:58:09.001Z</time></trkpt><trkpt lat="47.83061209675862" lon="12.73293394352224"><ele>667.0</ele><time>2026-05-01T11:58:10.001Z</time></trkpt><trkpt lat="47.830673397594516" lon="12.733301519459268"><ele>667.0</ele><time>2026-05-01T11:58:11.001Z</time></trkpt><trkpt lat="47.830732178342394" lon="12.73365410879015"><ele>667.0</ele><time>2026-05-01T11:58:12.001Z</time></trkpt><trkpt lat="47.83078800992217" lon="12.733984295667126"><ele>667.0</ele><time>2026-05-01T11:58:13.001Z</time></trkpt><trkpt lat="47.83083636163224" lon="12.734306954479878"><ele>667.6666666666667</ele><time>2026-05-01T11:58:14.001Z</time></trkpt><trkpt lat="47.8308859814055" lon="12.734628231531854"><ele>668.3333333333334</ele><time>2026-05-01T11:58:15.001Z</time></trkpt><trkpt lat="47.83093237873039" lon="12.73494941737233"><ele>669.0</ele><time>2026-05-01T11:58:16.001Z</time></trkpt><trkpt lat="47.83097534686784" lon="12.735269462268594"><ele>669.3333333333334</ele><time>2026-05-01T11:58:17.001Z</time></trkpt><trkpt lat="47.83101258349387" lon="12.735588809343582"><ele>669.6666666666667</ele><time>2026-05-01T11:58:18.001Z</time></trkpt><trkpt lat="47.83104752897835" lon="12.735906348773899"><ele>670.0</ele><time>2026-05-01T11:58:19.001Z</time></trkpt><trkpt lat="47.831077266506945" lon="12.736226195592357"><ele>670.0</ele><time>2026-05-01T11:58:20.001Z</time></trkpt><trkpt lat="47.831103122703034" lon="12.73655301698372"><ele>670.0</ele><time>2026-05-01T11:58:21.001Z</time></trkpt><trkpt lat="47.83112312538723" lon="12.736893272359728"><ele>671.5</ele><time>2026-05-01T11:58:22.001Z</time></trkpt><trkpt lat="47.83114034526689" lon="12.737242738169279"><ele>673.0</ele><time>2026-05-01T11:58:23.001Z</time></trkpt><trkpt lat="47.83115030632904" lon="12.737599340106833"><ele>674.0</ele><time>2026-05-01T11:58:24.001Z</time></trkpt><trkpt lat="47.83115489727756" lon="12.73795612629754"><ele>675.0</ele><time>2026-05-01T11:58:25.001Z</time></trkpt><trkpt lat="47.83115391795186" lon="12.738315297197992"><ele>675.0</ele><time>2026-05-01T11:58:26.001Z</time></trkpt><trkpt lat="47.83115039799445" lon="12.73867199687939"><ele>675.0</ele><time>2026-05-01T11:58:27.001Z</time></trkpt><trkpt lat="47.831140950353195" lon="12.73903692292761"><ele>676.0</ele><time>2026-05-01T11:58:28.001Z</time></trkpt><trkpt lat="47.831122001394775" lon="12.739406023249671"><ele>677.0</ele><time>2026-05-01T11:58:29.001Z</time></trkpt><trkpt lat="47.83109728907379" lon="12.739774910352352"><ele>677.0</ele><time>2026-05-01T11:58:30.001Z</time></trkpt><trkpt lat="47.83106728455137" lon="12.740145206886524"><ele>677.0</ele><time>2026-05-01T11:58:31.001Z</time></trkpt><trkpt lat="47.831032809151" lon="12.740513704576085"><ele>677.0</ele><time>2026-05-01T11:58:32.001Z</time></trkpt><trkpt lat="47.83099138326022" lon="12.740883187187636"><ele>677.0</ele><time>2026-05-01T11:58:33.001Z</time></trkpt><trkpt lat="47.83094624432473" lon="12.741252470343168"><ele>680.0</ele><time>2026-05-01T11:58:34.001Z</time></trkpt><trkpt lat="47.83089576571819" lon="12.741619383126343"><ele>683.0</ele><time>2026-05-01T11:58:35.001Z</time></trkpt><trkpt lat="47.83083981711764" lon="12.741987083503684"><ele>683.5</ele><time>2026-05-01T11:58:36.001Z</time></trkpt><trkpt lat="47.83077364552396" lon="12.742352219274935"><ele>684.0</ele><time>2026-05-01T11:58:37.001Z</time></trkpt><trkpt lat="47.83070579220064" lon="12.74271951167064"><ele>684.5</ele><time>2026-05-01T11:58:38.001Z</time></trkpt><trkpt lat="47.830628013696476" lon="12.7430837166459"><ele>685.0</ele><time>2026-05-01T11:58:39.001Z</time></trkpt><trkpt lat="47.83054978383038" lon="12.743448312393875"><ele>685.0</ele><time>2026-05-01T11:58:40.001Z</time></trkpt><trkpt lat="47.83046223074181" lon="12.743815447022161"><ele>685.0</ele><time>2026-05-01T11:58:41.001Z</time></trkpt><trkpt lat="47.8303691992369" lon="12.744178469081975"><ele>684.5</ele><time>2026-05-01T11:58:42.001Z</time></trkpt><trkpt lat="47.83026274485807" lon="12.74454058098082"><ele>684.0</ele><time>2026-05-01T11:58:43.001Z</time></trkpt><trkpt lat="47.83015695374089" lon="12.744898766377029"><ele>691.5</ele><time>2026-05-01T11:58:44.001Z</time></trkpt><trkpt lat="47.830046897964856" lon="12.745257243477598"><ele>699.0</ele><time>2026-05-01T11:58:45.001Z</time></trkpt><trkpt lat="47.8299286260853" lon="12.745606512742716"><ele>699.0</ele><time>2026-05-01T11:58:46.001Z</time></trkpt><trkpt lat="47.82981115080592" lon="12.74593457668766"><ele>699.0</ele><time>2026-05-01T11:58:47.001Z</time></trkpt><trkpt lat="47.82968857460192" lon="12.746264101113441"><ele>695.0</ele><time>2026-05-01T11:58:48.001Z</time></trkpt><trkpt lat="47.82956254003946" lon="12.746590126954997"><ele>691.0</ele><time>2026-05-01T11:58:49.001Z</time></trkpt><trkpt lat="47.829425308481824" lon="12.746912574081394"><ele>696.0</ele><time>2026-05-01T11:58:50.001Z</time></trkpt><trkpt lat="47.82928213184014" lon="12.747227767015936"><ele>701.0</ele><time>2026-05-01T11:58:51.001Z</time></trkpt><trkpt lat="47.829134700867066" lon="12.747535382456396"><ele>694.0</ele><time>2026-05-01T11:58:52.001Z</time></trkpt><trkpt lat="47.828984550189745" lon="12.747832794897453"><ele>687.0</ele><time>2026-05-01T11:58:53.001Z</time></trkpt><trkpt lat="47.828837090060695" lon="12.748124793213455"><ele>687.0</ele><time>2026-05-01T11:58:54.001Z</time></trkpt><trkpt lat="47.82869325374649" lon="12.748412855732093"><ele>687.0</ele><time>2026-05-01T11:58:55.001Z</time></trkpt><trkpt lat="47.8285513376134" lon="12.748699451811595"><ele>694.0</ele><time>2026-05-01T11:58:56Z</time></trkpt><trkpt lat="47.82841042504195" lon="12.748984936987515"><ele>701.0</ele><time>2026-05-01T11:58:57Z</time></trkpt><trkpt lat="47.82827164433529" lon="12.74926939522012"><ele>699.0</ele><time>2026-05-01T11:58:58Z</time></trkpt><trkpt lat="47.8281355756644" lon="12.749552332861429"><ele>697.0</ele><time>2026-05-01T11:58:59Z</time></trkpt><trkpt lat="47.82799915691898" lon="12.74983423405648"><ele>697.0</ele><time>2026-05-01T11:59:00Z</time></trkpt><trkpt lat="47.82786264303735" lon="12.750116618618193"><ele>697.0</ele><time>2026-05-01T11:59:01Z</time></trkpt><trkpt lat="47.827724606835595" lon="12.750393812914469"><ele>698.5</ele><time>2026-05-01T11:59:02Z</time></trkpt><trkpt lat="47.82758947301316" lon="12.750667741796125"><ele>700.0</ele><time>2026-05-01T11:59:03Z</time></trkpt><trkpt lat="47.82746015889514" lon="12.750947190107972"><ele>699.5</ele><time>2026-05-01T11:59:04Z</time></trkpt><trkpt lat="47.82733765465685" lon="12.751239347975625"><ele>699.0</ele><time>2026-05-01T11:59:05Z</time></trkpt><trkpt lat="47.82722634019601" lon="12.751540825204065"><ele>699.0</ele><time>2026-05-01T11:59:06Z</time></trkpt><trkpt lat="47.82711654482938" lon="12.751849164546016"><ele>699.0</ele><time>2026-05-01T11:59:07Z</time></trkpt><trkpt lat="47.8270118903953" lon="12.752164102839604"><ele>697.5</ele><time>2026-05-01T11:59:08Z</time></trkpt><trkpt lat="47.82691307852266" lon="12.752488869421526"><ele>696.0</ele><time>2026-05-01T11:59:09Z</time></trkpt><trkpt lat="47.826824704251514" lon="12.752821834825218"><ele>697.5</ele><time>2026-05-01T11:59:10Z</time></trkpt><trkpt lat="47.8267426777237" lon="12.753159199263207"><ele>699.0</ele><time>2026-05-01T11:59:11Z</time></trkpt><trkpt lat="47.82666785000048" lon="12.753502324057184"><ele>698.5</ele><time>2026-05-01T11:59:12Z</time></trkpt><trkpt lat="47.82660000531384" lon="12.753850863696586"><ele>698.0</ele><time>2026-05-01T11:59:13Z</time></trkpt><trkpt lat="47.82653996559599" lon="12.754203182062396"><ele>697.5</ele><time>2026-05-01T11:59:14Z</time></trkpt><trkpt lat="47.826486646873754" lon="12.754557699941616"><ele>697.0</ele><time>2026-05-01T11:59:15Z</time></trkpt><trkpt lat="47.82644340189125" lon="12.75491668273189"><ele>697.0</ele><time>2026-05-01T11:59:16Z</time></trkpt><trkpt lat="47.826407878436406" lon="12.75527877167544"><ele>697.0</ele><time>2026-05-01T11:59:17Z</time></trkpt><trkpt lat="47.82638177439103" lon="12.75564389416251"><ele>697.0</ele><time>2026-05-01T11:59:18Z</time></trkpt><trkpt lat="47.82636359571273" lon="12.756009796379152"><ele>697.0</ele><time>2026-05-01T11:59:19Z</time></trkpt><trkpt lat="47.82635163012006" lon="12.756374080026243"><ele>698.5</ele><time>2026-05-01T11:59:20Z</time></trkpt><trkpt lat="47.826348291172714" lon="12.756734905381027"><ele>700.0</ele><time>2026-05-01T11:59:21Z</time></trkpt><trkpt lat="47.82635240627277" lon="12.75708263391544"><ele>700.5</ele><time>2026-05-01T11:59:22Z</time></trkpt><trkpt lat="47.82636557302458" lon="12.757415302828122"><ele>701.0</ele><time>2026-05-01T11:59:23Z</time></trkpt><trkpt lat="47.82638787328612" lon="12.757750843942123"><ele>701.0</ele><time>2026-05-01T11:59:24Z</time></trkpt><trkpt lat="47.82641355025006" lon="12.758084819457505"><ele>701.0</ele><time>2026-05-01T11:59:25Z</time></trkpt><trkpt lat="47.826440988813594" lon="12.758410888685923"><ele>701.0</ele><time>2026-05-01T11:59:26Z</time></trkpt><trkpt lat="47.82646452742633" lon="12.75872446994616"><ele>701.0</ele><time>2026-05-01T11:59:27Z</time></trkpt><trkpt lat="47.82648543855921" lon="12.75903027057236"><ele>701.0</ele><time>2026-05-01T11:59:28Z</time></trkpt><trkpt lat="47.82650398897316" lon="12.759339189578196"><ele>701.0</ele><time>2026-05-01T11:59:29Z</time></trkpt><trkpt lat="47.82651927083582" lon="12.759645616648953"><ele>701.0</ele><time>2026-05-01T11:59:30Z</time></trkpt><trkpt lat="47.826539267300205" lon="12.759948486876354"><ele>701.0</ele><time>2026-05-01T11:59:31Z</time></trkpt><trkpt lat="47.82656076511144" lon="12.760248994977713"><ele>701.0</ele><time>2026-05-01T11:59:32Z</time></trkpt><trkpt lat="47.82658515765395" lon="12.760546496122831"><ele>699.6666666666666</ele><time>2026-05-01T11:59:33.001Z</time></trkpt><trkpt lat="47.82661036983767" lon="12.760841974696476"><ele>698.3333333333334</ele><time>2026-05-01T11:59:34.001Z</time></trkpt><trkpt lat="47.82663584452756" lon="12.76113537803078"><ele>697.0</ele><time>2026-05-01T11:59:35.001Z</time></trkpt><trkpt lat="47.826655365132375" lon="12.761428521766634"><ele>695.0</ele><time>2026-05-01T11:59:36.001Z</time></trkpt><trkpt lat="47.82667298002962" lon="12.761721950722423"><ele>693.0</ele><time>2026-05-01T11:59:37.001Z</time></trkpt><trkpt lat="47.82669309323439" lon="12.762016538485932"><ele>691.0</ele><time>2026-05-01T11:59:38.001Z</time></trkpt><trkpt lat="47.82671295687678" lon="12.762312110248542"><ele>691.0</ele><time>2026-05-01T11:59:39.001Z</time></trkpt><trkpt lat="47.826732549429614" lon="12.762610195888579"><ele>691.0</ele><time>2026-05-01T11:59:40.001Z</time></trkpt><trkpt lat="47.82675168701139" lon="12.762909363549216"><ele>691.0</ele><time>2026-05-01T11:59:41.001Z</time></trkpt><trkpt lat="47.826772572771816" lon="12.76321506262856"><ele>694.0</ele><time>2026-05-01T11:59:42.001Z</time></trkpt><trkpt lat="47.826794042796706" lon="12.763530462184287"><ele>697.0</ele><time>2026-05-01T11:59:43.001Z</time></trkpt><trkpt lat="47.826815123411095" lon="12.763855609792781"><ele>700.0</ele><time>2026-05-01T11:59:44.001Z</time></trkpt><trkpt lat="47.826836406353245" lon="12.76418780408298"><ele>700.5</ele><time>2026-05-01T11:59:45.001Z</time></trkpt><trkpt lat="47.82685418340669" lon="12.764528395092926"><ele>701.0</ele><time>2026-05-01T11:59:46.001Z</time></trkpt><trkpt lat="47.82687679104494" lon="12.76487242358545"><ele>701.5</ele><time>2026-05-01T11:59:47.001Z</time></trkpt><trkpt lat="47.82690073415997" lon="12.765224517468827"><ele>702.0</ele><time>2026-05-01T11:59:48.001Z</time></trkpt><trkpt lat="47.826927598913855" lon="12.76558411478381"><ele>702.0</ele><time>2026-05-01T11:59:49.001Z</time></trkpt><trkpt lat="47.82695011339166" lon="12.76595013911222"><ele>702.0</ele><time>2026-05-01T11:59:50.001Z</time></trkpt><trkpt lat="47.8269751172242" lon="12.76632099991333"><ele>701.5</ele><time>2026-05-01T11:59:51.001Z</time></trkpt><trkpt lat="47.82700384226607" lon="12.76669525520925"><ele>701.0</ele><time>2026-05-01T11:59:52.001Z</time></trkpt><trkpt lat="47.827032099992124" lon="12.767074604209126"><ele>701.0</ele><time>2026-05-01T11:59:53.001Z</time></trkpt><trkpt lat="47.82705837204082" lon="12.767458257202703"><ele>701.0</ele><time>2026-05-01T11:59:54.001Z</time></trkpt><trkpt lat="47.82708288304839" lon="12.76783461656746"><ele>700.0</ele><time>2026-05-01T11:59:55.001Z</time></trkpt><trkpt lat="47.827103918422075" lon="12.768195176934451"><ele>699.0</ele><time>2026-05-01T11:59:56.001Z</time></trkpt><trkpt lat="47.82712135030227" lon="12.768568995489598"><ele>698.5</ele><time>2026-05-01T11:59:57.001Z</time></trkpt><trkpt lat="47.82713499967783" lon="12.76894955693763"><ele>698.0</ele><time>2026-05-01T11:59:58.001Z</time></trkpt><trkpt lat="47.82714374674858" lon="12.76933422659157"><ele>697.5</ele><time>2026-05-01T11:59:59.001Z</time></trkpt><trkpt lat="47.82714835230167" lon="12.769724945575124"><ele>697.0</ele><time>2026-05-01T12:00:00.001Z</time></trkpt><trkpt lat="47.827151156218356" lon="12.770116551581477"><ele>697.0</ele><time>2026-05-01T12:00:01.001Z</time></trkpt><trkpt lat="47.82714816267468" lon="12.770510930544168"><ele>697.0</ele><time>2026-05-01T12:00:02.001Z</time></trkpt><trkpt lat="47.827138773176905" lon="12.770906425168837"><ele>698.5</ele><time>2026-05-01T12:00:03.001Z</time></trkpt><trkpt lat="47.82712424755888" lon="12.77130175514623"><ele>700.0</ele><time>2026-05-01T12:00:04.001Z</time></trkpt><trkpt lat="47.827102360804524" lon="12.771696043370191"><ele>699.5</ele><time>2026-05-01T12:00:05.001Z</time></trkpt><trkpt lat="47.82707748415913" lon="12.772087770798445"><ele>699.0</ele><time>2026-05-01T12:00:06.001Z</time></trkpt><trkpt lat="47.82704748816715" lon="12.772476655087367"><ele>698.0</ele><time>2026-05-01T12:00:07.001Z</time></trkpt><trkpt lat="47.82701504748974" lon="12.772862546440539"><ele>697.0</ele><time>2026-05-01T12:00:08.001Z</time></trkpt><trkpt lat="47.82697868696311" lon="12.77324611441155"><ele>695.5</ele><time>2026-05-01T12:00:09.001Z</time></trkpt><trkpt lat="47.826942244880435" lon="12.77362460324616"><ele>694.0</ele><time>2026-05-01T12:00:10.001Z</time></trkpt><trkpt lat="47.826906202478945" lon="12.773983690689828"><ele>694.0</ele><time>2026-05-01T12:00:11.001Z</time></trkpt><trkpt lat="47.826872589041905" lon="12.774331971001885"><ele>694.0</ele><time>2026-05-01T12:00:12.001Z</time></trkpt><trkpt lat="47.826841451903206" lon="12.774674661164577"><ele>695.5</ele><time>2026-05-01T12:00:13.001Z</time></trkpt><trkpt lat="47.82680950032726" lon="12.775020836581987"><ele>697.0</ele><time>2026-05-01T12:00:14.001Z</time></trkpt><trkpt lat="47.826778481676435" lon="12.775370890725137"><ele>697.0</ele><time>2026-05-01T12:00:15.001Z</time></trkpt><trkpt lat="47.82674513688985" lon="12.775724416385422"><ele>697.0</ele><time>2026-05-01T12:00:16.001Z</time></trkpt><trkpt lat="47.82670481111464" lon="12.776077179524819"><ele>697.0</ele><time>2026-05-01T12:00:17.001Z</time></trkpt><trkpt lat="47.82666890699592" lon="12.77643849924495"><ele>697.0</ele><time>2026-05-01T12:00:18.001Z</time></trkpt><trkpt lat="47.826631560523985" lon="12.776806772516668"><ele>696.5</ele><time>2026-05-01T12:00:19.001Z</time></trkpt><trkpt lat="47.82660197694751" lon="12.777180992022046"><ele>696.0</ele><time>2026-05-01T12:00:20.001Z</time></trkpt><trkpt lat="47.82657692363785" lon="12.777559310429211"><ele>695.5</ele><time>2026-05-01T12:00:21.001Z</time></trkpt><trkpt lat="47.82655572406117" lon="12.77794312809957"><ele>695.0</ele><time>2026-05-01T12:00:22.001Z</time></trkpt><trkpt lat="47.826541080276215" lon="12.778331309838856"><ele>694.0</ele><time>2026-05-01T12:00:23.001Z</time></trkpt><trkpt lat="47.82653091834701" lon="12.778722041690719"><ele>693.0</ele><time>2026-05-01T12:00:24.001Z</time></trkpt><trkpt lat="47.82652409606165" lon="12.779111185737314"><ele>691.0</ele><time>2026-05-01T12:00:25.001Z</time></trkpt><trkpt lat="47.82652194018612" lon="12.77950102963394"><ele>689.0</ele><time>2026-05-01T12:00:26.001Z</time></trkpt><trkpt lat="47.82652314425084" lon="12.779892190271108"><ele>688.0</ele><time>2026-05-01T12:00:27.001Z</time></trkpt><trkpt lat="47.82652919373588" lon="12.780284045740819"><ele>687.0</ele><time>2026-05-01T12:00:28.001Z</time></trkpt><trkpt lat="47.82654091659891" lon="12.78067408195852"><ele>687.0</ele><time>2026-05-01T12:00:29.001Z</time></trkpt><trkpt lat="47.8265571791383" lon="12.781059663121022"><ele>687.0</ele><time>2026-05-01T12:00:30.001Z</time></trkpt><trkpt lat="47.8265775192669" lon="12.781433396538395"><ele>687.0</ele><time>2026-05-01T12:00:31.001Z</time></trkpt><trkpt lat="47.82660005517791" lon="12.78179370275981"><ele>687.0</ele><time>2026-05-01T12:00:32.001Z</time></trkpt><trkpt lat="47.8266286833791" lon="12.782158974106652"><ele>687.5</ele><time>2026-05-01T12:00:33.001Z</time></trkpt><trkpt lat="47.826660443659364" lon="12.782529184060607"><ele>688.0</ele><time>2026-05-01T12:00:34.001Z</time></trkpt><trkpt lat="47.826698055028565" lon="12.782902338804531"><ele>688.0</ele><time>2026-05-01T12:00:35.001Z</time></trkpt><trkpt lat="47.82673842799696" lon="12.783280054196693"><ele>688.0</ele><time>2026-05-01T12:00:36.001Z</time></trkpt><trkpt lat="47.826782990346146" lon="12.783660700110001"><ele>684.5</ele><time>2026-05-01T12:00:37.001Z</time></trkpt><trkpt lat="47.82683488349567" lon="12.784041166713003"><ele>681.0</ele><time>2026-05-01T12:00:38.001Z</time></trkpt><trkpt lat="47.82689199428956" lon="12.78442060995976"><ele>679.5</ele><time>2026-05-01T12:00:39.001Z</time></trkpt><trkpt lat="47.82695642074521" lon="12.784798869326927"><ele>678.0</ele><time>2026-05-01T12:00:40.001Z</time></trkpt><trkpt lat="47.82702455845735" lon="12.78517746387361"><ele>677.0</ele><time>2026-05-01T12:00:41.001Z</time></trkpt><trkpt lat="47.827094703443805" lon="12.78555529222719"><ele>676.0</ele><time>2026-05-01T12:00:42.001Z</time></trkpt><trkpt lat="47.827166837325805" lon="12.785932379306976"><ele>675.5</ele><time>2026-05-01T12:00:43.001Z</time></trkpt><trkpt lat="47.827238777684585" lon="12.786310858803665"><ele>675.0</ele><time>2026-05-01T12:00:44.001Z</time></trkpt><trkpt lat="47.82730903248708" lon="12.78668816302729"><ele>674.5</ele><time>2026-05-01T12:00:45.001Z</time></trkpt><trkpt lat="47.82737768377548" lon="12.787061772474301"><ele>674.0</ele><time>2026-05-01T12:00:46.001Z</time></trkpt><trkpt lat="47.82744392256486" lon="12.78742601169839"><ele>674.0</ele><time>2026-05-01T12:00:47.001Z</time></trkpt><trkpt lat="47.82750853439432" lon="12.787773445982037"><ele>674.0</ele><time>2026-05-01T12:00:48.001Z</time></trkpt><trkpt lat="47.827574473445914" lon="12.78812497805243"><ele>674.0</ele><time>2026-05-01T12:00:49.001Z</time></trkpt><trkpt lat="47.82764304211949" lon="12.788484245259436"><ele>674.0</ele><time>2026-05-01T12:00:50.001Z</time></trkpt><trkpt lat="47.82771268461106" lon="12.788850063649658"><ele>671.0</ele><time>2026-05-01T12:00:51.001Z</time></trkpt><trkpt lat="47.82778449349611" lon="12.789220617818991"><ele>668.0</ele><time>2026-05-01T12:00:52.001Z</time></trkpt><trkpt lat="47.82785707485114" lon="12.789592250766203"><ele>667.5</ele><time>2026-05-01T12:00:53.001Z</time></trkpt><trkpt lat="47.82792884553597" lon="12.789965848870274"><ele>667.0</ele><time>2026-05-01T12:00:54.001Z</time></trkpt><trkpt lat="47.8279995272683" lon="12.790344058879569"><ele>666.5</ele><time>2026-05-01T12:00:55.001Z</time></trkpt><trkpt lat="47.828069813262026" lon="12.790722683702532"><ele>666.0</ele><time>2026-05-01T12:00:56.001Z</time></trkpt><trkpt lat="47.82813926422752" lon="12.791088661094475"><ele>667.5</ele><time>2026-05-01T12:00:57.001Z</time></trkpt><trkpt lat="47.82820756702375" lon="12.79144476521287"><ele>669.0</ele><time>2026-05-01T12:00:58.001Z</time></trkpt><trkpt lat="47.82827705887332" lon="12.791801574328913"><ele>670.0</ele><time>2026-05-01T12:00:59.001Z</time></trkpt><trkpt lat="47.828346881561856" lon="12.792161317841058"><ele>671.0</ele><time>2026-05-01T12:01:00.001Z</time></trkpt><trkpt lat="47.82841727588239" lon="12.79251744751043"><ele>662.0</ele><time>2026-05-01T12:01:01.001Z</time></trkpt><trkpt lat="47.82848625339492" lon="12.792873984244892"><ele>653.0</ele><time>2026-05-01T12:01:02Z</time></trkpt><trkpt lat="47.82855409625786" lon="12.79323290890832"><ele>650.5</ele><time>2026-05-01T12:01:03Z</time></trkpt><trkpt lat="47.82862093177236" lon="12.793589511650358"><ele>648.0</ele><time>2026-05-01T12:01:04Z</time></trkpt><trkpt lat="47.82868672537676" lon="12.793945658346532"><ele>648.0</ele><time>2026-05-01T12:01:05Z</time></trkpt><trkpt lat="47.82875189707358" lon="12.79430326220129"><ele>648.0</ele><time>2026-05-01T12:01:06Z</time></trkpt><trkpt lat="47.828813462907846" lon="12.79466246726507"><ele>648.0</ele><time>2026-05-01T12:01:07Z</time></trkpt><trkpt lat="47.828875254702545" lon="12.79502726997683"><ele>648.0</ele><time>2026-05-01T12:01:08Z</time></trkpt><trkpt lat="47.82893673591996" lon="12.79539241044725"><ele>647.5</ele><time>2026-05-01T12:01:09Z</time></trkpt><trkpt lat="47.82899583135815" lon="12.795761168467664"><ele>647.0</ele><time>2026-05-01T12:01:10Z</time></trkpt><trkpt lat="47.8290504459141" lon="12.796131873751163"><ele>646.0</ele><time>2026-05-01T12:01:11Z</time></trkpt><trkpt lat="47.82909589784784" lon="12.796508190678562"><ele>645.0</ele><time>2026-05-01T12:01:12Z</time></trkpt><trkpt lat="47.829131860091" lon="12.796886544462467"><ele>640.5</ele><time>2026-05-01T12:01:13Z</time></trkpt><trkpt lat="47.829160818654316" lon="12.797267845415545"><ele>636.0</ele><time>2026-05-01T12:01:14Z</time></trkpt><trkpt lat="47.8291813182065" lon="12.797650343707215"><ele>636.0</ele><time>2026-05-01T12:01:15Z</time></trkpt><trkpt lat="47.829196411475195" lon="12.798030763141153"><ele>636.0</ele><time>2026-05-01T12:01:16Z</time></trkpt><trkpt lat="47.82920241640598" lon="12.798413138480127"><ele>637.5</ele><time>2026-05-01T12:01:17Z</time></trkpt><trkpt lat="47.82920301071817" lon="12.798795505246098"><ele>639.0</ele><time>2026-05-01T12:01:18Z</time></trkpt><trkpt lat="47.829196923661804" lon="12.799176151884907"><ele>636.0</ele><time>2026-05-01T12:01:19Z</time></trkpt><trkpt lat="47.82919166034438" lon="12.799552050968723"><ele>633.0</ele><time>2026-05-01T12:01:20Z</time></trkpt><trkpt lat="47.82918633693521" lon="12.799919128489067"><ele>628.0</ele><time>2026-05-01T12:01:21Z</time></trkpt><trkpt lat="47.829181896310075" lon="12.800273393718653"><ele>623.0</ele><time>2026-05-01T12:01:22Z</time></trkpt><trkpt lat="47.8291769718768" lon="12.800618595297154"><ele>623.0</ele><time>2026-05-01T12:01:23Z</time></trkpt><trkpt lat="47.82917396438583" lon="12.800971768557902"><ele>623.0</ele><time>2026-05-01T12:01:24Z</time></trkpt><trkpt lat="47.82917414335115" lon="12.80133718149076"><ele>621.5</ele><time>2026-05-01T12:01:25Z</time></trkpt><trkpt lat="47.82917762294922" lon="12.801711136001863"><ele>620.0</ele><time>2026-05-01T12:01:26Z</time></trkpt><trkpt lat="47.829181278874934" lon="12.802093658049799"><ele>619.0</ele><time>2026-05-01T12:01:27Z</time></trkpt><trkpt lat="47.829180407366565" lon="12.802483534854138"><ele>618.0</ele><time>2026-05-01T12:01:28Z</time></trkpt><trkpt lat="47.82917789939728" lon="12.802877773784823"><ele>616.5</ele><time>2026-05-01T12:01:29Z</time></trkpt><trkpt lat="47.829170949098476" lon="12.803278069672277"><ele>615.0</ele><time>2026-05-01T12:01:30Z</time></trkpt><trkpt lat="47.8291645580966" lon="12.803677594878927"><ele>615.0</ele><time>2026-05-01T12:01:31Z</time></trkpt><trkpt lat="47.829159306563646" lon="12.804077720737945"><ele>615.0</ele><time>2026-05-01T12:01:32Z</time></trkpt><trkpt lat="47.82915358904289" lon="12.804481720807997"><ele>615.5</ele><time>2026-05-01T12:01:33Z</time></trkpt><trkpt lat="47.82914895036191" lon="12.804889933418014"><ele>616.0</ele><time>2026-05-01T12:01:34Z</time></trkpt><trkpt lat="47.82914369340238" lon="12.805303477493275"><ele>616.0</ele><time>2026-05-01T12:01:35Z</time></trkpt><trkpt lat="47.82913349463586" lon="12.805720220508245"><ele>616.0</ele><time>2026-05-01T12:01:36Z</time></trkpt><trkpt lat="47.82912872546509" lon="12.80614288653856"><ele>614.5</ele><time>2026-05-01T12:01:37Z</time></trkpt><trkpt lat="47.82912203854574" lon="12.806567381608605"><ele>613.0</ele><time>2026-05-01T12:01:38Z</time></trkpt><trkpt lat="47.82911955663909" lon="12.806985307538417"><ele>611.0</ele><time>2026-05-01T12:01:39Z</time></trkpt><trkpt lat="47.82911413227497" lon="12.807401277009772"><ele>609.0</ele><time>2026-05-01T12:01:40Z</time></trkpt><trkpt lat="47.829105474285434" lon="12.807817042414738"><ele>608.5</ele><time>2026-05-01T12:01:41Z</time></trkpt><trkpt lat="47.82909729358325" lon="12.80823486011276"><ele>608.0</ele><time>2026-05-01T12:01:42Z</time></trkpt><trkpt lat="47.829088170451755" lon="12.808652407764738"><ele>607.5</ele><time>2026-05-01T12:01:43Z</time></trkpt><trkpt lat="47.829075461153806" lon="12.809067597853563"><ele>607.0</ele><time>2026-05-01T12:01:44Z</time></trkpt><trkpt lat="47.82905477215472" lon="12.809480946560601"><ele>605.5</ele><time>2026-05-01T12:01:45Z</time></trkpt><trkpt lat="47.82902246954206" lon="12.809895398673541"><ele>604.0</ele><time>2026-05-01T12:01:46Z</time></trkpt><trkpt lat="47.828978954406516" lon="12.810306111968432"><ele>602.5</ele><time>2026-05-01T12:01:47Z</time></trkpt><trkpt lat="47.828919773373116" lon="12.810712045263388"><ele>601.0</ele><time>2026-05-01T12:01:48Z</time></trkpt><trkpt lat="47.82885098340672" lon="12.811112930249639"><ele>600.5</ele><time>2026-05-01T12:01:49.001Z</time></trkpt><trkpt lat="47.82877512501697" lon="12.811507805106096"><ele>600.0</ele><time>2026-05-01T12:01:50.001Z</time></trkpt><trkpt lat="47.82869406750095" lon="12.811901792049802"><ele>598.5</ele><time>2026-05-01T12:01:51.001Z</time></trkpt><trkpt lat="47.828607723954484" lon="12.812292684143662"><ele>597.0</ele><time>2026-05-01T12:01:52.001Z</time></trkpt><trkpt lat="47.82852234711351" lon="12.812682576781615"><ele>602.0</ele><time>2026-05-01T12:01:53.001Z</time></trkpt><trkpt lat="47.82842811985664" lon="12.813069389669373"><ele>607.0</ele><time>2026-05-01T12:01:54.001Z</time></trkpt><trkpt lat="47.828322224432384" lon="12.813451303562216"><ele>605.0</ele><time>2026-05-01T12:01:55.001Z</time></trkpt><trkpt lat="47.82820609778329" lon="12.813826653177195"><ele>603.0</ele><time>2026-05-01T12:01:56.001Z</time></trkpt><trkpt lat="47.82808354288618" lon="12.81419541101733"><ele>603.0</ele><time>2026-05-01T12:01:57.001Z</time></trkpt><trkpt lat="47.82795271125492" lon="12.814558780370552"><ele>603.0</ele><time>2026-05-01T12:01:58.001Z</time></trkpt><trkpt lat="47.82781896292367" lon="12.814918161956188"><ele>602.0</ele><time>2026-05-01T12:01:59.001Z</time></trkpt><trkpt lat="47.82768493279628" lon="12.815272588436956"><ele>601.0</ele><time>2026-05-01T12:02:00.001Z</time></trkpt><trkpt lat="47.827546254003444" lon="12.815625939651625"><ele>602.0</ele><time>2026-05-01T12:02:01.001Z</time></trkpt><trkpt lat="47.82741133858384" lon="12.815979289994669"><ele>603.0</ele><time>2026-05-01T12:02:02.001Z</time></trkpt><trkpt lat="47.82727348954038" lon="12.816338824484717"><ele>603.0</ele><time>2026-05-01T12:02:03.001Z</time></trkpt><trkpt lat="47.82713645637828" lon="12.816696709975346"><ele>603.0</ele><time>2026-05-01T12:02:04.001Z</time></trkpt><trkpt lat="47.827002279366766" lon="12.817061891295932"><ele>601.5</ele><time>2026-05-01T12:02:05.001Z</time></trkpt><trkpt lat="47.82686638143341" lon="12.81741989021592"><ele>600.0</ele><time>2026-05-01T12:02:06.001Z</time></trkpt><trkpt lat="47.82673500894294" lon="12.817765925480039"><ele>605.0</ele><time>2026-05-01T12:02:07.001Z</time></trkpt><trkpt lat="47.826599384564034" lon="12.818097838942094"><ele>610.0</ele><time>2026-05-01T12:02:08.001Z</time></trkpt><trkpt lat="47.82645985218125" lon="12.818444237980685"><ele>607.0</ele><time>2026-05-01T12:02:09.001Z</time></trkpt><trkpt lat="47.826316807495175" lon="12.818797715963381"><ele>604.0</ele><time>2026-05-01T12:02:10.001Z</time></trkpt><trkpt lat="47.826175674180455" lon="12.81915824936225"><ele>602.5</ele><time>2026-05-01T12:02:11.001Z</time></trkpt><trkpt lat="47.82602699413342" lon="12.819520107524994"><ele>601.0</ele><time>2026-05-01T12:02:12.001Z</time></trkpt><trkpt lat="47.82586904300685" lon="12.819868496254463"><ele>608.0</ele><time>2026-05-01T12:02:13.001Z</time></trkpt><trkpt lat="47.82570487815003" lon="12.82021064778034"><ele>615.0</ele><time>2026-05-01T12:02:14.001Z</time></trkpt><trkpt lat="47.825533344667555" lon="12.820543216540399"><ele>615.0</ele><time>2026-05-01T12:02:15.001Z</time></trkpt><trkpt lat="47.825355195883866" lon="12.82086466286744"><ele>615.0</ele><time>2026-05-01T12:02:16.001Z</time></trkpt><trkpt lat="47.82516861140575" lon="12.821187466062767"><ele>616.0</ele><time>2026-05-01T12:02:17.001Z</time></trkpt><trkpt lat="47.82497456255728" lon="12.821493484077841"><ele>617.0</ele><time>2026-05-01T12:02:18.001Z</time></trkpt><trkpt lat="47.82477703089961" lon="12.821793574716903"><ele>614.5</ele><time>2026-05-01T12:02:19.001Z</time></trkpt><trkpt lat="47.8245758800028" lon="12.822086268727924"><ele>612.0</ele><time>2026-05-01T12:02:20.001Z</time></trkpt><trkpt lat="47.82438145083864" lon="12.822353510855702"><ele>614.0</ele><time>2026-05-01T12:02:21.001Z</time></trkpt><trkpt lat="47.82419567258948" lon="12.822590607157649"><ele>616.0</ele><time>2026-05-01T12:02:22.001Z</time></trkpt><trkpt lat="47.82402464005756" lon="12.822811065069335"><ele>616.0</ele><time>2026-05-01T12:02:23.001Z</time></trkpt><trkpt lat="47.82385467908173" lon="12.82302412276985"><ele>616.0</ele><time>2026-05-01T12:02:24.001Z</time></trkpt><trkpt lat="47.82368293404634" lon="12.823240030562893"><ele>616.0</ele><time>2026-05-01T12:02:25.001Z</time></trkpt><trkpt lat="47.82351026158999" lon="12.823472792204829"><ele>613.5</ele><time>2026-05-01T12:02:26.001Z</time></trkpt><trkpt lat="47.82333010871969" lon="12.8237245954686"><ele>611.0</ele><time>2026-05-01T12:02:27.001Z</time></trkpt><trkpt lat="47.823158383867906" lon="12.823970664414606"><ele>611.0</ele><time>2026-05-01T12:02:28.001Z</time></trkpt><trkpt lat="47.82296892277782" lon="12.824227910121882"><ele>611.0</ele><time>2026-05-01T12:02:29.001Z</time></trkpt><trkpt lat="47.82277563288478" lon="12.824476013306512"><ele>603.0</ele><time>2026-05-01T12:02:30.001Z</time></trkpt><trkpt lat="47.82255962735199" lon="12.824721443880764"><ele>595.0</ele><time>2026-05-01T12:02:31.001Z</time></trkpt><trkpt lat="47.82234614134957" lon="12.824980094777192"><ele>595.5</ele><time>2026-05-01T12:02:32.001Z</time></trkpt><trkpt lat="47.82212631629237" lon="12.825239271387025"><ele>596.0</ele><time>2026-05-01T12:02:33.001Z</time></trkpt><trkpt lat="47.82190595778566" lon="12.825495485082616"><ele>606.5</ele><time>2026-05-01T12:02:34.001Z</time></trkpt><trkpt lat="47.821683118649744" lon="12.825749753803622"><ele>617.0</ele><time>2026-05-01T12:02:35.001Z</time></trkpt><trkpt lat="47.82146652740399" lon="12.826018434145254"><ele>619.0</ele><time>2026-05-01T12:02:36.001Z</time></trkpt><trkpt lat="47.821247939433924" lon="12.826288289306579"><ele>621.0</ele><time>2026-05-01T12:02:37.001Z</time></trkpt><trkpt lat="47.82103447662481" lon="12.826566087171248"><ele>621.5</ele><time>2026-05-01T12:02:38.001Z</time></trkpt><trkpt lat="47.82081063933728" lon="12.826835549162945"><ele>622.0</ele><time>2026-05-01T12:02:39.001Z</time></trkpt><trkpt lat="47.820589615462985" lon="12.827110885253937"><ele>622.0</ele><time>2026-05-01T12:02:40.001Z</time></trkpt><trkpt lat="47.82037148447054" lon="12.827382465706451"><ele>622.0</ele><time>2026-05-01T12:02:41.001Z</time></trkpt><trkpt lat="47.82015890182485" lon="12.82764593860603"><ele>621.5</ele><time>2026-05-01T12:02:42.001Z</time></trkpt><trkpt lat="47.81993819440817" lon="12.827925780108274"><ele>621.0</ele><time>2026-05-01T12:02:43.001Z</time></trkpt><trkpt lat="47.81970974681738" lon="12.828184441579262"><ele>621.0</ele><time>2026-05-01T12:02:44.001Z</time></trkpt><trkpt lat="47.81946800290622" lon="12.828431609768229"><ele>621.0</ele><time>2026-05-01T12:02:45.001Z</time></trkpt><trkpt lat="47.81921502128244" lon="12.82867190206918"><ele>620.0</ele><time>2026-05-01T12:02:46.001Z</time></trkpt><trkpt lat="47.818980273219786" lon="12.82890581526"><ele>619.0</ele><time>2026-05-01T12:02:47.001Z</time></trkpt><trkpt lat="47.81872627259259" lon="12.829104159215811"><ele>619.5</ele><time>2026-05-01T12:02:48.001Z</time></trkpt><trkpt lat="47.81847278303427" lon="12.829311758826309"><ele>620.0</ele><time>2026-05-01T12:02:49.001Z</time></trkpt><trkpt lat="47.818220895105064" lon="12.829517612863494"><ele>620.0</ele><time>2026-05-01T12:02:50.001Z</time></trkpt><trkpt lat="47.817990835909555" lon="12.82970278164081"><ele>620.0</ele><time>2026-05-01T12:02:51.001Z</time></trkpt><trkpt lat="47.81775041666389" lon="12.829909316296565"><ele>620.0</ele><time>2026-05-01T12:02:52.001Z</time></trkpt><trkpt lat="47.81750763946197" lon="12.830120200782478"><ele>620.0</ele><time>2026-05-01T12:02:53.001Z</time></trkpt><trkpt lat="47.81726425609616" lon="12.830335115487962"><ele>620.0</ele><time>2026-05-01T12:02:54.001Z</time></trkpt><trkpt lat="47.817021200766995" lon="12.830547706725795"><ele>620.0</ele><time>2026-05-01T12:02:55.001Z</time></trkpt><trkpt lat="47.81677880543579" lon="12.83076166558163"><ele>620.5</ele><time>2026-05-01T12:02:56.001Z</time></trkpt><trkpt lat="47.8165345495878" lon="12.830971537489637"><ele>621.0</ele><time>2026-05-01T12:02:57.001Z</time></trkpt><trkpt lat="47.81629269693072" lon="12.83118259052468"><ele>621.5</ele><time>2026-05-01T12:02:58.001Z</time></trkpt><trkpt lat="47.81604926792622" lon="12.83139769851277"><ele>622.0</ele><time>2026-05-01T12:02:59.001Z</time></trkpt><trkpt lat="47.81580595027071" lon="12.831611358183965"><ele>623.0</ele><time>2026-05-01T12:03:00.001Z</time></trkpt><trkpt lat="47.81555983244678" lon="12.83182018759643"><ele>624.0</ele><time>2026-05-01T12:03:01.001Z</time></trkpt><trkpt lat="47.81531130543686" lon="12.832019133998973"><ele>625.0</ele><time>2026-05-01T12:03:02.001Z</time></trkpt><trkpt lat="47.81505447647854" lon="12.832214655694319"><ele>626.0</ele><time>2026-05-01T12:03:03.001Z</time></trkpt><trkpt lat="47.814799515477944" lon="12.832416296853845"><ele>626.0</ele><time>2026-05-01T12:03:04.001Z</time></trkpt><trkpt lat="47.814547206550664" lon="12.832630396487595"><ele>626.0</ele><time>2026-05-01T12:03:05.001Z</time></trkpt><trkpt lat="47.81429295611499" lon="12.832855509346693"><ele>623.5</ele><time>2026-05-01T12:03:06.001Z</time></trkpt><trkpt lat="47.81403876425037" lon="12.833085142783343"><ele>621.0</ele><time>2026-05-01T12:03:07.001Z</time></trkpt><trkpt lat="47.81378374363975" lon="12.833321085049906"><ele>618.5</ele><time>2026-05-01T12:03:08Z</time></trkpt><trkpt lat="47.81353413826574" lon="12.83354096466141"><ele>616.0</ele><time>2026-05-01T12:03:09Z</time></trkpt><trkpt lat="47.81329426625757" lon="12.833752639418632"><ele>616.0</ele><time>2026-05-01T12:03:10Z</time></trkpt><trkpt lat="47.81305012605477" lon="12.833967407783096"><ele>616.0</ele><time>2026-05-01T12:03:11Z</time></trkpt><trkpt lat="47.812799801889355" lon="12.83418861746907"><ele>620.5</ele><time>2026-05-01T12:03:12Z</time></trkpt><trkpt lat="47.81255218456704" lon="12.834421831156629"><ele>625.0</ele><time>2026-05-01T12:03:13Z</time></trkpt><trkpt lat="47.812309910754074" lon="12.834669668124965"><ele>625.0</ele><time>2026-05-01T12:03:14Z</time></trkpt><trkpt lat="47.812075934741245" lon="12.83492882414626"><ele>625.0</ele><time>2026-05-01T12:03:15Z</time></trkpt><trkpt lat="47.81184766584162" lon="12.835197917764248"><ele>620.5</ele><time>2026-05-01T12:03:16Z</time></trkpt><trkpt lat="47.81162173812901" lon="12.835475383319341"><ele>616.0</ele><time>2026-05-01T12:03:17Z</time></trkpt><trkpt lat="47.811401317133914" lon="12.835761169758076"><ele>614.0</ele><time>2026-05-01T12:03:18Z</time></trkpt><trkpt lat="47.811183371913316" lon="12.836053388929956"><ele>612.0</ele><time>2026-05-01T12:03:19Z</time></trkpt><trkpt lat="47.8109722175711" lon="12.8363561123986"><ele>608.0</ele><time>2026-05-01T12:03:20Z</time></trkpt><trkpt lat="47.81076640127834" lon="12.836666037277084"><ele>604.0</ele><time>2026-05-01T12:03:21Z</time></trkpt><trkpt lat="47.81056965971947" lon="12.836984565884668"><ele>604.0</ele><time>2026-05-01T12:03:22Z</time></trkpt><trkpt lat="47.81037626442847" lon="12.837306208028982"><ele>604.0</ele><time>2026-05-01T12:03:23Z</time></trkpt><trkpt lat="47.81018525777013" lon="12.83763008168474"><ele>605.0</ele><time>2026-05-01T12:03:24Z</time></trkpt><trkpt lat="47.80999442547561" lon="12.837950244813566"><ele>606.0</ele><time>2026-05-01T12:03:25Z</time></trkpt><trkpt lat="47.80980088769476" lon="12.838267227245002"><ele>607.5</ele><time>2026-05-01T12:03:26Z</time></trkpt><trkpt lat="47.80961046088243" lon="12.838582372853049"><ele>609.0</ele><time>2026-05-01T12:03:27Z</time></trkpt><trkpt lat="47.80942040182575" lon="12.838894564183276"><ele>608.5</ele><time>2026-05-01T12:03:28Z</time></trkpt><trkpt lat="47.80923151750578" lon="12.839209445989745"><ele>608.0</ele><time>2026-05-01T12:03:29Z</time></trkpt><trkpt lat="47.80904081322872" lon="12.83952519817471"><ele>607.0</ele><time>2026-05-01T12:03:30Z</time></trkpt><trkpt lat="47.808851736642524" lon="12.83984254178148"><ele>606.0</ele><time>2026-05-01T12:03:31Z</time></trkpt><trkpt lat="47.80866461603251" lon="12.840157766503435"><ele>601.0</ele><time>2026-05-01T12:03:32Z</time></trkpt><trkpt lat="47.80847744219727" lon="12.840470613440141"><ele>596.0</ele><time>2026-05-01T12:03:33Z</time></trkpt><trkpt lat="47.80828897994999" lon="12.840777806435739"><ele>593.5</ele><time>2026-05-01T12:03:34Z</time></trkpt><trkpt lat="47.808101033570644" lon="12.841082542651334"><ele>591.0</ele><time>2026-05-01T12:03:35Z</time></trkpt><trkpt lat="47.80791526710033" lon="12.841396617076207"><ele>591.0</ele><time>2026-05-01T12:03:36Z</time></trkpt><trkpt lat="47.807728640517446" lon="12.841715444362336"><ele>591.0</ele><time>2026-05-01T12:03:37Z</time></trkpt><trkpt lat="47.80753965294996" lon="12.842036478357876"><ele>591.0</ele><time>2026-05-01T12:03:38Z</time></trkpt><trkpt lat="47.80734918174231" lon="12.842357664858309"><ele>591.0</ele><time>2026-05-01T12:03:39Z</time></trkpt><trkpt lat="47.80715493852908" lon="12.842674116396472"><ele>590.0</ele><time>2026-05-01T12:03:40Z</time></trkpt><trkpt lat="47.806963946494754" lon="12.842985698842968"><ele>589.0</ele><time>2026-05-01T12:03:41Z</time></trkpt><trkpt lat="47.806773967037316" lon="12.843295527861082"><ele>590.0</ele><time>2026-05-01T12:03:42Z</time></trkpt><trkpt lat="47.8065864102697" lon="12.843605572552601"><ele>591.0</ele><time>2026-05-01T12:03:43Z</time></trkpt><trkpt lat="47.80639677679111" lon="12.843918566615054"><ele>591.0</ele><time>2026-05-01T12:03:44Z</time></trkpt><trkpt lat="47.806205767608795" lon="12.844235300250832"><ele>591.0</ele><time>2026-05-01T12:03:45Z</time></trkpt><trkpt lat="47.8060132691085" lon="12.84455545294151"><ele>587.5</ele><time>2026-05-01T12:03:46Z</time></trkpt><trkpt lat="47.80581808802486" lon="12.844877281229316"><ele>584.0</ele><time>2026-05-01T12:03:47Z</time></trkpt><trkpt lat="47.80562122362523" lon="12.845197971688501"><ele>582.0</ele><time>2026-05-01T12:03:48Z</time></trkpt><trkpt lat="47.80543055538942" lon="12.845509809836328"><ele>580.0</ele><time>2026-05-01T12:03:49Z</time></trkpt><trkpt lat="47.80524241507447" lon="12.845819684777597"><ele>576.0</ele><time>2026-05-01T12:03:50Z</time></trkpt><trkpt lat="47.80504887529374" lon="12.84613980628802"><ele>572.0</ele><time>2026-05-01T12:03:51Z</time></trkpt><trkpt lat="47.80485023536145" lon="12.846470387320485"><ele>568.0</ele><time>2026-05-01T12:03:52Z</time></trkpt><trkpt lat="47.8046518971791" lon="12.846803162348575"><ele>564.0</ele><time>2026-05-01T12:03:53Z</time></trkpt><trkpt lat="47.80445730072607" lon="12.847126637897436"><ele>564.0</ele><time>2026-05-01T12:03:54Z</time></trkpt><trkpt lat="47.80426368048469" lon="12.847453687601412"><ele>564.0</ele><time>2026-05-01T12:03:55Z</time></trkpt><trkpt lat="47.80406751996437" lon="12.847777726781908"><ele>564.0</ele><time>2026-05-01T12:03:56Z</time></trkpt><trkpt lat="47.80387141293703" lon="12.84810309059562"><ele>564.0</ele><time>2026-05-01T12:03:57Z</time></trkpt><trkpt lat="47.803675303907106" lon="12.848425519505245"><ele>560.5</ele><time>2026-05-01T12:03:58Z</time></trkpt><trkpt lat="47.80348161461277" lon="12.84874463433375"><ele>557.0</ele><time>2026-05-01T12:03:59Z</time></trkpt><trkpt lat="47.803290347830874" lon="12.849059483167789"><ele>555.0</ele><time>2026-05-01T12:04:00Z</time></trkpt><trkpt lat="47.803099233662245" lon="12.849373570567387"><ele>553.0</ele><time>2026-05-01T12:04:01.001Z</time></trkpt><trkpt lat="47.80290722233894" lon="12.849688390655528"><ele>553.0</ele><time>2026-05-01T12:04:02.001Z</time></trkpt><trkpt lat="47.802718332927974" lon="12.850003931927082"><ele>553.0</ele><time>2026-05-01T12:04:03.001Z</time></trkpt><trkpt lat="47.802525507766305" lon="12.850320219262837"><ele>551.5</ele><time>2026-05-01T12:04:04.001Z</time></trkpt><trkpt lat="47.80233513669692" lon="12.850636654060546"><ele>550.0</ele><time>2026-05-01T12:04:05.001Z</time></trkpt><trkpt lat="47.802142739223136" lon="12.8509557530598"><ele>550.0</ele><time>2026-05-01T12:04:06.001Z</time></trkpt><trkpt lat="47.80195043261903" lon="12.85127467799627"><ele>550.0</ele><time>2026-05-01T12:04:07.001Z</time></trkpt><trkpt lat="47.80175984821723" lon="12.851593287345068"><ele>546.5</ele><time>2026-05-01T12:04:08.001Z</time></trkpt><trkpt lat="47.801567667421224" lon="12.851909990100438"><ele>543.0</ele><time>2026-05-01T12:04:09.001Z</time></trkpt><trkpt lat="47.80137629233912" lon="12.852228413296197"><ele>543.0</ele><time>2026-05-01T12:04:10.001Z</time></trkpt><trkpt lat="47.80118441318559" lon="12.852548059609344"><ele>543.0</ele><time>2026-05-01T12:04:11.001Z</time></trkpt><trkpt lat="47.800990114948306" lon="12.852872108647158"><ele>542.0</ele><time>2026-05-01T12:04:12.001Z</time></trkpt><trkpt lat="47.80079445548581" lon="12.853194496183239"><ele>541.0</ele><time>2026-05-01T12:04:13.001Z</time></trkpt><trkpt lat="47.80059869090244" lon="12.853519334241502"><ele>539.0</ele><time>2026-05-01T12:04:14.001Z</time></trkpt><trkpt lat="47.80040277413648" lon="12.853846309139332"><ele>537.0</ele><time>2026-05-01T12:04:15.001Z</time></trkpt><trkpt lat="47.800208466892585" lon="12.854173187367106"><ele>536.0</ele><time>2026-05-01T12:04:16.001Z</time></trkpt><trkpt lat="47.80001738017246" lon="12.854495394109426"><ele>535.0</ele><time>2026-05-01T12:04:17.001Z</time></trkpt><trkpt lat="47.79982846340412" lon="12.854810845554722"><ele>534.0</ele><time>2026-05-01T12:04:18.001Z</time></trkpt><trkpt lat="47.79963808208239" lon="12.85512620756605"><ele>533.0</ele><time>2026-05-01T12:04:19.001Z</time></trkpt><trkpt lat="47.79945359043259" lon="12.855438936363877"><ele>532.5</ele><time>2026-05-01T12:04:20.001Z</time></trkpt><trkpt lat="47.79928189802578" lon="12.855745012494655"><ele>532.0</ele><time>2026-05-01T12:04:21.001Z</time></trkpt><trkpt lat="47.799110171735016" lon="12.856055227828922"><ele>530.0</ele><time>2026-05-01T12:04:22.001Z</time></trkpt><trkpt lat="47.79892870018802" lon="12.856360117907679"><ele>528.0</ele><time>2026-05-01T12:04:23.001Z</time></trkpt><trkpt lat="47.798740053540904" lon="12.856669003596942"><ele>527.5</ele><time>2026-05-01T12:04:24.001Z</time></trkpt><trkpt lat="47.79854706487206" lon="12.85698403869401"><ele>527.0</ele><time>2026-05-01T12:04:25.001Z</time></trkpt><trkpt lat="47.79835594580746" lon="12.857298144337877"><ele>527.0</ele><time>2026-05-01T12:04:26.001Z</time></trkpt><trkpt lat="47.798165626649556" lon="12.857615228301157"><ele>527.0</ele><time>2026-05-01T12:04:27.001Z</time></trkpt><trkpt lat="47.79797317608037" lon="12.85793336540455"><ele>525.5</ele><time>2026-05-01T12:04:28.001Z</time></trkpt><trkpt lat="47.797782635894094" lon="12.858256054052418"><ele>524.0</ele><time>2026-05-01T12:04:29.001Z</time></trkpt><trkpt lat="47.79758857713696" lon="12.858578236479064"><ele>522.0</ele><time>2026-05-01T12:04:30.001Z</time></trkpt><trkpt lat="47.79739351197653" lon="12.85889934901046"><ele>520.0</ele><time>2026-05-01T12:04:31.001Z</time></trkpt><trkpt lat="47.79719902574598" lon="12.859217783328283"><ele>519.0</ele><time>2026-05-01T12:04:32.001Z</time></trkpt><trkpt lat="47.79700559727386" lon="12.859533750376638"><ele>518.0</ele><time>2026-05-01T12:04:33.001Z</time></trkpt><trkpt lat="47.79681235449402" lon="12.859852252265876"><ele>516.5</ele><time>2026-05-01T12:04:34.001Z</time></trkpt><trkpt lat="47.7966178756934" lon="12.860169092051969"><ele>515.0</ele><time>2026-05-01T12:04:35.001Z</time></trkpt><trkpt lat="47.796422037338274" lon="12.860482779578403"><ele>515.0</ele><time>2026-05-01T12:04:36.001Z</time></trkpt><trkpt lat="47.79622331017245" lon="12.8607943867043"><ele>515.0</ele><time>2026-05-01T12:04:37.001Z</time></trkpt><trkpt lat="47.796020285075315" lon="12.86109647608274"><ele>513.5</ele><time>2026-05-01T12:04:38.001Z</time></trkpt><trkpt lat="47.7958139366476" lon="12.861397121992395"><ele>512.0</ele><time>2026-05-01T12:04:39.001Z</time></trkpt><trkpt lat="47.79560252513359" lon="12.86169776176113"><ele>512.5</ele><time>2026-05-01T12:04:40.001Z</time></trkpt><trkpt lat="47.79538704942812" lon="12.861990503747998"><ele>513.0</ele><time>2026-05-01T12:04:41.001Z</time></trkpt><trkpt lat="47.795169040260944" lon="12.8622764267703"><ele>512.0</ele><time>2026-05-01T12:04:42.001Z</time></trkpt><trkpt lat="47.794945217594076" lon="12.862555883112684"><ele>511.0</ele><time>2026-05-01T12:04:43.001Z</time></trkpt><trkpt lat="47.794717787049485" lon="12.862827875616862"><ele>510.5</ele><time>2026-05-01T12:04:44.001Z</time></trkpt><trkpt lat="47.794483058941644" lon="12.863085750146118"><ele>510.0</ele><time>2026-05-01T12:04:45.001Z</time></trkpt><trkpt lat="47.79424285679172" lon="12.863335185990408"><ele>508.5</ele><time>2026-05-01T12:04:46.001Z</time></trkpt><trkpt lat="47.79400207099217" lon="12.8635851660542"><ele>507.0</ele><time>2026-05-01T12:04:47.001Z</time></trkpt><trkpt lat="47.793759408613774" lon="12.863839682658993"><ele>507.0</ele><time>2026-05-01T12:04:48.001Z</time></trkpt><trkpt lat="47.793518236090385" lon="12.864091559772806"><ele>507.0</ele><time>2026-05-01T12:04:49.001Z</time></trkpt><trkpt lat="47.79328319524667" lon="12.864331597707416"><ele>505.0</ele><time>2026-05-01T12:04:50.001Z</time></trkpt><trkpt lat="47.79304399277787" lon="12.864572972581641"><ele>503.0</ele><time>2026-05-01T12:04:51.001Z</time></trkpt><trkpt lat="47.792798563058575" lon="12.864825333844902"><ele>501.5</ele><time>2026-05-01T12:04:52.001Z</time></trkpt><trkpt lat="47.79254913417454" lon="12.865095517698633"><ele>500.0</ele><time>2026-05-01T12:04:53.001Z</time></trkpt><trkpt lat="47.79229963573883" lon="12.865369179393632"><ele>500.0</ele><time>2026-05-01T12:04:54.001Z</time></trkpt><trkpt lat="47.792044802289986" lon="12.865638985842574"><ele>500.0</ele><time>2026-05-01T12:04:55.001Z</time></trkpt><trkpt lat="47.79176218800683" lon="12.865962692934644"><ele>498.5</ele><time>2026-05-01T12:04:56.001Z</time></trkpt><trkpt lat="47.79150684949896" lon="12.866219682256487"><ele>497.0</ele><time>2026-05-01T12:04:57.001Z</time></trkpt><trkpt lat="47.7912574555161" lon="12.866482739679402"><ele>497.0</ele><time>2026-05-01T12:04:58.001Z</time></trkpt><trkpt lat="47.79100420381256" lon="12.866742145088471"><ele>497.0</ele><time>2026-05-01T12:04:59.001Z</time></trkpt><trkpt lat="47.79075265860534" lon="12.867000572434126"><ele>497.0</ele><time>2026-05-01T12:05:00.001Z</time></trkpt><trkpt lat="47.79049871281177" lon="12.867260177341228"><ele>497.0</ele><time>2026-05-01T12:05:01.001Z</time></trkpt><trkpt lat="47.79024092090831" lon="12.867507373926175"><ele>495.5</ele><time>2026-05-01T12:05:02.001Z</time></trkpt><trkpt lat="47.7899836711224" lon="12.86775813795616"><ele>494.0</ele><time>2026-05-01T12:05:03.001Z</time></trkpt><trkpt lat="47.78972605065895" lon="12.868001906631404"><ele>494.0</ele><time>2026-05-01T12:05:04.001Z</time></trkpt><trkpt lat="47.7894704065347" lon="12.868245504500647"><ele>494.0</ele><time>2026-05-01T12:05:05.001Z</time></trkpt><trkpt lat="47.78922433041569" lon="12.868493591770125"><ele>493.0</ele><time>2026-05-01T12:05:06.001Z</time></trkpt><trkpt lat="47.78898443393112" lon="12.868740795418208"><ele>492.0</ele><time>2026-05-01T12:05:07.001Z</time></trkpt><trkpt lat="47.788750256473215" lon="12.868982422054726"><ele>492.0</ele><time>2026-05-01T12:05:08.001Z</time></trkpt><trkpt lat="47.788512493793476" lon="12.869227122092822"><ele>492.0</ele><time>2026-05-01T12:05:09.001Z</time></trkpt><trkpt lat="47.788272680609474" lon="12.869470662998486"><ele>491.5</ele><time>2026-05-01T12:05:10.001Z</time></trkpt><trkpt lat="47.78803252632185" lon="12.869709435427678"><ele>491.0</ele><time>2026-05-01T12:05:11.001Z</time></trkpt><trkpt lat="47.78779678393397" lon="12.86994212613108"><ele>490.5</ele><time>2026-05-01T12:05:12.001Z</time></trkpt><trkpt lat="47.78756247589813" lon="12.870180900945053"><ele>490.0</ele><time>2026-05-01T12:05:13.001Z</time></trkpt><trkpt lat="47.78733316233293" lon="12.87040995966295"><ele>490.0</ele><time>2026-05-01T12:05:14Z</time></trkpt><trkpt lat="47.78710390814712" lon="12.87064560232452"><ele>490.0</ele><time>2026-05-01T12:05:15Z</time></trkpt><trkpt lat="47.78688449745396" lon="12.870783787793114"><ele>490.5</ele><time>2026-05-01T12:05:16Z</time></trkpt><trkpt lat="47.78665118755625" lon="12.871034261010708"><ele>491.0</ele><time>2026-05-01T12:05:17Z</time></trkpt><trkpt lat="47.786420088979256" lon="12.87128788149993"><ele>491.0</ele><time>2026-05-01T12:05:18Z</time></trkpt><trkpt lat="47.786181111645966" lon="12.871545776929134"><ele>491.0</ele><time>2026-05-01T12:05:19Z</time></trkpt><trkpt lat="47.78594294117302" lon="12.87179074279248"><ele>491.0</ele><time>2026-05-01T12:05:20Z</time></trkpt><trkpt lat="47.78569377925841" lon="12.87203360947634"><ele>491.0</ele><time>2026-05-01T12:05:21Z</time></trkpt><trkpt lat="47.785456681761154" lon="12.872279258711975"><ele>491.0</ele><time>2026-05-01T12:05:22Z</time></trkpt><trkpt lat="47.7852182703306" lon="12.87252436175518"><ele>491.0</ele><time>2026-05-01T12:05:23Z</time></trkpt><trkpt lat="47.784985405138094" lon="12.872762837516785"><ele>490.5</ele><time>2026-05-01T12:05:24Z</time></trkpt><trkpt lat="47.78474837296132" lon="12.873001627547284"><ele>490.0</ele><time>2026-05-01T12:05:25Z</time></trkpt><trkpt lat="47.784516367828545" lon="12.873238906933528"><ele>488.0</ele><time>2026-05-01T12:05:26Z</time></trkpt><trkpt lat="47.78428075247969" lon="12.873477921151133"><ele>486.0</ele><time>2026-05-01T12:05:27Z</time></trkpt><trkpt lat="47.784042148552786" lon="12.873712716791452"><ele>486.0</ele><time>2026-05-01T12:05:28Z</time></trkpt><trkpt lat="47.783799313456726" lon="12.873940368790196"><ele>486.0</ele><time>2026-05-01T12:05:29Z</time></trkpt><trkpt lat="47.78356201895571" lon="12.87416940157173"><ele>484.5</ele><time>2026-05-01T12:05:30Z</time></trkpt><trkpt lat="47.783326034003146" lon="12.874406810258225"><ele>483.0</ele><time>2026-05-01T12:05:31Z</time></trkpt><trkpt lat="47.78309620249923" lon="12.874656846712758"><ele>483.0</ele><time>2026-05-01T12:05:32Z</time></trkpt><trkpt lat="47.782871696732414" lon="12.874916895770117"><ele>483.0</ele><time>2026-05-01T12:05:33Z</time></trkpt><trkpt lat="47.782650674286536" lon="12.875185666725773"><ele>481.5</ele><time>2026-05-01T12:05:34Z</time></trkpt><trkpt lat="47.782432483948334" lon="12.875460470191987"><ele>480.0</ele><time>2026-05-01T12:05:35Z</time></trkpt><trkpt lat="47.78221564812521" lon="12.875739045363074"><ele>478.5</ele><time>2026-05-01T12:05:36Z</time></trkpt><trkpt lat="47.782001200108276" lon="12.876024193992517"><ele>477.0</ele><time>2026-05-01T12:05:37Z</time></trkpt><trkpt lat="47.78179011903564" lon="12.87631318623887"><ele>476.5</ele><time>2026-05-01T12:05:38Z</time></trkpt><trkpt lat="47.78157944954411" lon="12.876606842594528"><ele>476.0</ele><time>2026-05-01T12:05:39Z</time></trkpt><trkpt lat="47.78137429525868" lon="12.876905559418919"><ele>475.5</ele><time>2026-05-01T12:05:40Z</time></trkpt><trkpt lat="47.78117398310045" lon="12.877206864953651"><ele>475.0</ele><time>2026-05-01T12:05:41Z</time></trkpt><trkpt lat="47.78097725731256" lon="12.877507660647437"><ele>474.5</ele><time>2026-05-01T12:05:42Z</time></trkpt><trkpt lat="47.78078282827194" lon="12.877801944579879"><ele>474.0</ele><time>2026-05-01T12:05:43Z</time></trkpt><trkpt lat="47.780592880121034" lon="12.878096057718126"><ele>474.0</ele><time>2026-05-01T12:05:44Z</time></trkpt><trkpt lat="47.78040412550878" lon="12.878390541271964"><ele>474.0</ele><time>2026-05-01T12:05:45Z</time></trkpt><trkpt lat="47.78021668621091" lon="12.878689228935299"><ele>473.0</ele><time>2026-05-01T12:05:46Z</time></trkpt><trkpt lat="47.7800265622771" lon="12.878985286229232"><ele>472.0</ele><time>2026-05-01T12:05:47Z</time></trkpt><trkpt lat="47.77983584489445" lon="12.879278460424345"><ele>471.0</ele><time>2026-05-01T12:05:48Z</time></trkpt><trkpt lat="47.779647645954185" lon="12.87957421509708"><ele>470.0</ele><time>2026-05-01T12:05:49Z</time></trkpt><trkpt lat="47.77945747457619" lon="12.879866416957563"><ele>470.5</ele><time>2026-05-01T12:05:50Z</time></trkpt><trkpt lat="47.779268869588556" lon="12.88016092323439"><ele>471.0</ele><time>2026-05-01T12:05:51Z</time></trkpt><trkpt lat="47.7790814971968" lon="12.880456386106601"><ele>471.0</ele><time>2026-05-01T12:05:52Z</time></trkpt><trkpt lat="47.77889902840795" lon="12.880752105665627"><ele>471.0</ele><time>2026-05-01T12:05:53Z</time></trkpt><trkpt lat="47.778706734689436" lon="12.881045620860721"><ele>470.5</ele><time>2026-05-01T12:05:54Z</time></trkpt><trkpt lat="47.77851533735569" lon="12.881338856445227"><ele>470.0</ele><time>2026-05-01T12:05:55Z</time></trkpt><trkpt lat="47.77832634942816" lon="12.881636926424822"><ele>469.5</ele><time>2026-05-01T12:05:56Z</time></trkpt><trkpt lat="47.778135051785156" lon="12.881934446290437"><ele>469.0</ele><time>2026-05-01T12:05:57Z</time></trkpt><trkpt lat="47.777943728285095" lon="12.882228109248535"><ele>469.0</ele><time>2026-05-01T12:05:58Z</time></trkpt><trkpt lat="47.77775460482321" lon="12.882525999362715"><ele>469.0</ele><time>2026-05-01T12:05:59Z</time></trkpt><trkpt lat="47.777565238863595" lon="12.88282343818988"><ele>469.0</ele><time>2026-05-01T12:06:00Z</time></trkpt><trkpt lat="47.7773749217596" lon="12.883122083821348"><ele>469.0</ele><time>2026-05-01T12:06:01Z</time></trkpt><trkpt lat="47.77718315714159" lon="12.883419940105139"><ele>468.0</ele><time>2026-05-01T12:06:02Z</time></trkpt><trkpt lat="47.77698852616019" lon="12.883715367451657"><ele>467.0</ele><time>2026-05-01T12:06:03Z</time></trkpt><trkpt lat="47.77679307083782" lon="12.884010969031909"><ele>466.0</ele><time>2026-05-01T12:06:04Z</time></trkpt><trkpt lat="47.776598183666465" lon="12.884308320463251"><ele>465.0</ele><time>2026-05-01T12:06:05Z</time></trkpt><trkpt lat="47.776403483372896" lon="12.88460853718478"><ele>465.0</ele><time>2026-05-01T12:06:06Z</time></trkpt><trkpt lat="47.77621009793235" lon="12.884910542972461"><ele>465.0</ele><time>2026-05-01T12:06:07Z</time></trkpt><trkpt lat="47.77601711552226" lon="12.885218460099368"><ele>465.0</ele><time>2026-05-01T12:06:08Z</time></trkpt><trkpt lat="47.775824547662424" lon="12.885524601087969"><ele>465.0</ele><time>2026-05-01T12:06:09Z</time></trkpt><trkpt lat="47.77563034143361" lon="12.885829100045399"><ele>464.5</ele><time>2026-05-01T12:06:10Z</time></trkpt><trkpt lat="47.77543751316952" lon="12.886121956808493"><ele>464.0</ele><time>2026-05-01T12:06:11Z</time></trkpt><trkpt lat="47.775247633680735" lon="12.886415020266293"><ele>464.0</ele><time>2026-05-01T12:06:12Z</time></trkpt><trkpt lat="47.7750658782682" lon="12.886698282648986"><ele>464.0</ele><time>2026-05-01T12:06:13Z</time></trkpt><trkpt lat="47.77487620110843" lon="12.886987854353253"><ele>464.0</ele><time>2026-05-01T12:06:14Z</time></trkpt><trkpt lat="47.7746806408834" lon="12.887288687318755"><ele>464.0</ele><time>2026-05-01T12:06:15.001Z</time></trkpt><trkpt lat="47.774482964555126" lon="12.887591322782093"><ele>463.5</ele><time>2026-05-01T12:06:16.001Z</time></trkpt><trkpt lat="47.77428462630861" lon="12.887901684509075"><ele>463.0</ele><time>2026-05-01T12:06:17.001Z</time></trkpt><trkpt lat="47.77408606191266" lon="12.888211481858562"><ele>462.5</ele><time>2026-05-01T12:06:18.001Z</time></trkpt><trkpt lat="47.77388787268239" lon="12.888516297680482"><ele>462.0</ele><time>2026-05-01T12:06:19.001Z</time></trkpt><trkpt lat="47.77369239582774" lon="12.888819574836996"><ele>462.0</ele><time>2026-05-01T12:06:20.001Z</time></trkpt><trkpt lat="47.77349910832232" lon="12.889118841831102"><ele>462.0</ele><time>2026-05-01T12:06:21.001Z</time></trkpt><trkpt lat="47.77330728476116" lon="12.889416316400807"><ele>462.5</ele><time>2026-05-01T12:06:22.001Z</time></trkpt><trkpt lat="47.773118907764314" lon="12.889707678542193"><ele>463.0</ele><time>2026-05-01T12:06:23.001Z</time></trkpt><trkpt lat="47.77293802805333" lon="12.889987053391055"><ele>463.0</ele><time>2026-05-01T12:06:24.001Z</time></trkpt><trkpt lat="47.772763362089265" lon="12.89026042596739"><ele>463.0</ele><time>2026-05-01T12:06:25.001Z</time></trkpt><trkpt lat="47.77258673833717" lon="12.89054046199203"><ele>462.0</ele><time>2026-05-01T12:06:26.001Z</time></trkpt><trkpt lat="47.77240575867848" lon="12.890819804408197"><ele>461.0</ele><time>2026-05-01T12:06:27.001Z</time></trkpt><trkpt lat="47.77222848752942" lon="12.891100771498984"><ele>461.0</ele><time>2026-05-01T12:06:28.001Z</time></trkpt><trkpt lat="47.77205143918528" lon="12.891387752547251"><ele>461.0</ele><time>2026-05-01T12:06:29.001Z</time></trkpt><trkpt lat="47.77187349081462" lon="12.89168197240637"><ele>460.5</ele><time>2026-05-01T12:06:30.001Z</time></trkpt><trkpt lat="47.77169353220855" lon="12.891975794916764"><ele>460.0</ele><time>2026-05-01T12:06:31.001Z</time></trkpt><trkpt lat="47.77150702083464" lon="12.89227367646966"><ele>460.0</ele><time>2026-05-01T12:06:32.001Z</time></trkpt><trkpt lat="47.771309051029945" lon="12.892585325436121"><ele>460.0</ele><time>2026-05-01T12:06:33.001Z</time></trkpt><trkpt lat="47.77111099742043" lon="12.892891548005572"><ele>460.0</ele><time>2026-05-01T12:06:34.001Z</time></trkpt><trkpt lat="47.77091336455489" lon="12.893195599449932"><ele>460.0</ele><time>2026-05-01T12:06:35.001Z</time></trkpt><trkpt lat="47.770718332119515" lon="12.893499317088214"><ele>460.0</ele><time>2026-05-01T12:06:36.001Z</time></trkpt><trkpt lat="47.770524762677866" lon="12.893801578024313"><ele>460.0</ele><time>2026-05-01T12:06:37.001Z</time></trkpt><trkpt lat="47.770330146760166" lon="12.894103719538304"><ele>459.0</ele><time>2026-05-01T12:06:38.001Z</time></trkpt><trkpt lat="47.770133012479576" lon="12.894408062538503"><ele>458.0</ele><time>2026-05-01T12:06:39.001Z</time></trkpt><trkpt lat="47.76993351124565" lon="12.894715874011146"><ele>458.0</ele><time>2026-05-01T12:06:40.001Z</time></trkpt><trkpt lat="47.76973618589821" lon="12.89502239390502"><ele>458.0</ele><time>2026-05-01T12:06:41.001Z</time></trkpt><trkpt lat="47.76953585813026" lon="12.895321331118613"><ele>458.0</ele><time>2026-05-01T12:06:42.001Z</time></trkpt><trkpt lat="47.76934118149158" lon="12.895628613972958"><ele>458.0</ele><time>2026-05-01T12:06:43.001Z</time></trkpt><trkpt lat="47.769161360471216" lon="12.895953043271396"><ele>458.5</ele><time>2026-05-01T12:06:44.001Z</time></trkpt><trkpt lat="47.76899812106507" lon="12.8962948024892"><ele>459.0</ele><time>2026-05-01T12:06:45.001Z</time></trkpt><trkpt lat="47.76884778317137" lon="12.896648904239335"><ele>458.5</ele><time>2026-05-01T12:06:46.001Z</time></trkpt><trkpt lat="47.768702397641775" lon="12.897012529175878"><ele>458.0</ele><time>2026-05-01T12:06:47.001Z</time></trkpt><trkpt lat="47.76856229318217" lon="12.897379333860554"><ele>457.0</ele><time>2026-05-01T12:06:48.001Z</time></trkpt><trkpt lat="47.76842837725667" lon="12.897749534964147"><ele>456.0</ele><time>2026-05-01T12:06:49.001Z</time></trkpt><trkpt lat="47.76830116607375" lon="12.898121664701318"><ele>455.5</ele><time>2026-05-01T12:06:50.001Z</time></trkpt><trkpt lat="47.76818156201917" lon="12.898499963635937"><ele>455.0</ele><time>2026-05-01T12:06:51.001Z</time></trkpt><trkpt lat="47.76807014492619" lon="12.898877874786708"><ele>455.0</ele><time>2026-05-01T12:06:52.001Z</time></trkpt><trkpt lat="47.76796544216781" lon="12.899261979436945"><ele>455.0</ele><time>2026-05-01T12:06:53.001Z</time></trkpt><trkpt lat="47.767867967914434" lon="12.899652386059183"><ele>455.0</ele><time>2026-05-01T12:06:54.001Z</time></trkpt><trkpt lat="47.76777153257934" lon="12.900042817389467"><ele>455.0</ele><time>2026-05-01T12:06:55.001Z</time></trkpt><trkpt lat="47.76767610029328" lon="12.900430806888474"><ele>455.5</ele><time>2026-05-01T12:06:56.001Z</time></trkpt><trkpt lat="47.767578598263164" lon="12.900816518070169"><ele>456.0</ele><time>2026-05-01T12:06:57.001Z</time></trkpt><trkpt lat="47.767479685846475" lon="12.901199651810375"><ele>456.0</ele><time>2026-05-01T12:06:58.001Z</time></trkpt><trkpt lat="47.76738259826701" lon="12.901584091248813"><ele>456.0</ele><time>2026-05-01T12:06:59.001Z</time></trkpt><trkpt lat="47.76728411833833" lon="12.901969135572887"><ele>455.5</ele><time>2026-05-01T12:07:00.001Z</time></trkpt><trkpt lat="47.76718559203947" lon="12.902352591896195"><ele>455.0</ele><time>2026-05-01T12:07:01.001Z</time></trkpt><trkpt lat="47.7670876813904" lon="12.90273750640504"><ele>456.0</ele><time>2026-05-01T12:07:02.001Z</time></trkpt><trkpt lat="47.766991371263934" lon="12.90312133807998"><ele>457.0</ele><time>2026-05-01T12:07:03.001Z</time></trkpt><trkpt lat="47.76689407617086" lon="12.903505891084379"><ele>457.0</ele><time>2026-05-01T12:07:04.001Z</time></trkpt><trkpt lat="47.766796708516644" lon="12.9038902382416"><ele>457.0</ele><time>2026-05-01T12:07:05.001Z</time></trkpt><trkpt lat="47.76669685301919" lon="12.904272681808896"><ele>457.0</ele><time>2026-05-01T12:07:06.001Z</time></trkpt><trkpt lat="47.76659785945018" lon="12.904655912519708"><ele>457.0</ele><time>2026-05-01T12:07:07.001Z</time></trkpt><trkpt lat="47.76649921982414" lon="12.905039996480442"><ele>457.0</ele><time>2026-05-01T12:07:08.001Z</time></trkpt><trkpt lat="47.7663937607384" lon="12.905422027384644"><ele>457.0</ele><time>2026-05-01T12:07:09.001Z</time></trkpt><trkpt lat="47.76630169779625" lon="12.905806341469733"><ele>456.5</ele><time>2026-05-01T12:07:10.001Z</time></trkpt><trkpt lat="47.7662158025505" lon="12.9061988483935"><ele>456.0</ele><time>2026-05-01T12:07:11.001Z</time></trkpt><trkpt lat="47.76615193627089" lon="12.90659660840646"><ele>455.0</ele><time>2026-05-01T12:07:12.001Z</time></trkpt><trkpt lat="47.76609032968969" lon="12.906996110251724"><ele>454.0</ele><time>2026-05-01T12:07:13.001Z</time></trkpt><trkpt lat="47.76604160845095" lon="12.907400162844942"><ele>453.0</ele><time>2026-05-01T12:07:14.001Z</time></trkpt><trkpt lat="47.76600844879371" lon="12.90780683449724"><ele>452.0</ele><time>2026-05-01T12:07:15.001Z</time></trkpt><trkpt lat="47.765978490928205" lon="12.908216109654147"><ele>452.5</ele><time>2026-05-01T12:07:16.001Z</time></trkpt><trkpt lat="47.76596103778661" lon="12.90862479725706"><ele>453.0</ele><time>2026-05-01T12:07:17.001Z</time></trkpt><trkpt lat="47.76595619979579" lon="12.90903704559198"><ele>452.0</ele><time>2026-05-01T12:07:18.001Z</time></trkpt><trkpt lat="47.76596535469964" lon="12.909447252252129"><ele>451.0</ele><time>2026-05-01T12:07:19.001Z</time></trkpt><trkpt lat="47.76598659233155" lon="12.909838654452436"><ele>451.0</ele><time>2026-05-01T12:07:20Z</time></trkpt><trkpt lat="47.76601507488798" lon="12.910204211635431"><ele>451.0</ele><time>2026-05-01T12:07:21Z</time></trkpt><trkpt lat="47.76604635739136" lon="12.910548369857358"><ele>451.0</ele><time>2026-05-01T12:07:22Z</time></trkpt><trkpt lat="47.7660789601041" lon="12.910876920507766"><ele>451.0</ele><time>2026-05-01T12:07:23Z</time></trkpt><trkpt lat="47.7661094673583" lon="12.911206720450503"><ele>451.0</ele><time>2026-05-01T12:07:24Z</time></trkpt><trkpt lat="47.76613810015348" lon="12.911539193039602"><ele>450.6666666666667</ele><time>2026-05-01T12:07:25Z</time></trkpt><trkpt lat="47.76616577205614" lon="12.911864461090914"><ele>450.33333333333337</ele><time>2026-05-01T12:07:26Z</time></trkpt><trkpt lat="47.7661921353515" lon="12.91216751017451"><ele>450.0</ele><time>2026-05-01T12:07:27Z</time></trkpt><trkpt lat="47.7662175982524" lon="12.912442339135511"><ele>450.33333333333337</ele><time>2026-05-01T12:07:28Z</time></trkpt><trkpt lat="47.766239941545216" lon="12.912700057994838"><ele>450.6666666666667</ele><time>2026-05-01T12:07:29Z</time></trkpt><trkpt lat="47.76626424626248" lon="12.912976962650944"><ele>451.0</ele><time>2026-05-01T12:07:30Z</time></trkpt><trkpt lat="47.76629045889848" lon="12.913258393887205"><ele>451.0</ele><time>2026-05-01T12:07:31Z</time></trkpt><trkpt lat="47.766314617689126" lon="12.913546467016708"><ele>451.0</ele><time>2026-05-01T12:07:32Z</time></trkpt><trkpt lat="47.76634331946974" lon="12.913840898082645"><ele>451.0</ele><time>2026-05-01T12:07:33Z</time></trkpt><trkpt lat="47.76636911061057" lon="12.914131963332506"><ele>450.6666666666667</ele><time>2026-05-01T12:07:34Z</time></trkpt><trkpt lat="47.766397677941654" lon="12.91440542880365"><ele>450.33333333333337</ele><time>2026-05-01T12:07:35Z</time></trkpt><trkpt lat="47.76642165145672" lon="12.91468483186642"><ele>450.0</ele><time>2026-05-01T12:07:36Z</time></trkpt><trkpt lat="47.766447216927" lon="12.914972656856055"><ele>449.66666666666663</ele><time>2026-05-01T12:07:37Z</time></trkpt><trkpt lat="47.76647294851537" lon="12.91526191156128"><ele>449.3333333333333</ele><time>2026-05-01T12:07:38Z</time></trkpt><trkpt lat="47.76649823536271" lon="12.915555779272237"><ele>449.0</ele><time>2026-05-01T12:07:39Z</time></trkpt><trkpt lat="47.76652474730149" lon="12.915853698302703"><ele>449.0</ele><time>2026-05-01T12:07:40Z</time></trkpt><trkpt lat="47.76655161273254" lon="12.91615491538866"><ele>449.0</ele><time>2026-05-01T12:07:41Z</time></trkpt><trkpt lat="47.76657874005664" lon="12.916458435343456"><ele>449.0</ele><time>2026-05-01T12:07:42Z</time></trkpt><trkpt lat="47.76660615957658" lon="12.916759707755308"><ele>449.0</ele><time>2026-05-01T12:07:43Z</time></trkpt><trkpt lat="47.766631903739864" lon="12.917054665800675"><ele>449.0</ele><time>2026-05-01T12:07:44Z</time></trkpt><trkpt lat="47.766655282930664" lon="12.917345038415572"><ele>449.0</ele><time>2026-05-01T12:07:45Z</time></trkpt><trkpt lat="47.766679400630366" lon="12.917635486676781"><ele>448.66666666666663</ele><time>2026-05-01T12:07:46Z</time></trkpt><trkpt lat="47.76670488188264" lon="12.917927227586684"><ele>448.33333333333337</ele><time>2026-05-01T12:07:47Z</time></trkpt><trkpt lat="47.76673125108159" lon="12.918219477502545"><ele>448.0</ele><time>2026-05-01T12:07:48Z</time></trkpt><trkpt lat="47.76675599095791" lon="12.918511814931637"><ele>448.6666666666667</ele><time>2026-05-01T12:07:49Z</time></trkpt><trkpt lat="47.76678121849613" lon="12.918807691501614"><ele>449.33333333333337</ele><time>2026-05-01T12:07:50Z</time></trkpt><trkpt lat="47.76680639374616" lon="12.919106607057453"><ele>450.0</ele><time>2026-05-01T12:07:51Z</time></trkpt><trkpt lat="47.76683230115364" lon="12.919406115091943"><ele>449.33333333333337</ele><time>2026-05-01T12:07:52Z</time></trkpt><trkpt lat="47.76685765164418" lon="12.919709718897698"><ele>448.6666666666667</ele><time>2026-05-01T12:07:53Z</time></trkpt><trkpt lat="47.766884349448326" lon="12.920013530766619"><ele>448.0</ele><time>2026-05-01T12:07:54Z</time></trkpt><trkpt lat="47.766910980914155" lon="12.920317650806846"><ele>448.0</ele><time>2026-05-01T12:07:55Z</time></trkpt><trkpt lat="47.76693776144061" lon="12.920620916364607"><ele>448.0</ele><time>2026-05-01T12:07:56Z</time></trkpt><trkpt lat="47.76696497132295" lon="12.920923582033598"><ele>448.0</ele><time>2026-05-01T12:07:57Z</time></trkpt><trkpt lat="47.76699116467684" lon="12.921225304340803"><ele>449.0</ele><time>2026-05-01T12:07:58Z</time></trkpt><trkpt lat="47.76701574079079" lon="12.921522286638563"><ele>450.0</ele><time>2026-05-01T12:07:59Z</time></trkpt><trkpt lat="47.767040813047146" lon="12.921814949575953"><ele>451.0</ele><time>2026-05-01T12:08:00Z</time></trkpt><trkpt lat="47.7670672699479" lon="12.922105951239644"><ele>452.0</ele><time>2026-05-01T12:08:01Z</time></trkpt><trkpt lat="47.767093297302445" lon="12.922396604054036"><ele>453.0</ele><time>2026-05-01T12:08:02Z</time></trkpt><trkpt lat="47.76712010979445" lon="12.922689916368522"><ele>454.0</ele><time>2026-05-01T12:08:03Z</time></trkpt><trkpt lat="47.7671449775944" lon="12.922983030056935"><ele>454.33333333333337</ele><time>2026-05-01T12:08:04Z</time></trkpt><trkpt lat="47.76716755596571" lon="12.923278864150998"><ele>454.66666666666663</ele><time>2026-05-01T12:08:05Z</time></trkpt><trkpt lat="47.76719065913894" lon="12.923577493622297"><ele>455.0</ele><time>2026-05-01T12:08:06Z</time></trkpt><trkpt lat="47.767213235746425" lon="12.92387758650209"><ele>455.0</ele><time>2026-05-01T12:08:07Z</time></trkpt><trkpt lat="47.76723958917957" lon="12.924172915378875"><ele>455.0</ele><time>2026-05-01T12:08:08Z</time></trkpt><trkpt lat="47.76726589184335" lon="12.924462572390583"><ele>455.0</ele><time>2026-05-01T12:08:09Z</time></trkpt><trkpt lat="47.76729226101768" lon="12.924753873981363"><ele>454.66666666666663</ele><time>2026-05-01T12:08:10Z</time></trkpt><trkpt lat="47.76731947891067" lon="12.925047137181892"><ele>454.33333333333337</ele><time>2026-05-01T12:08:11Z</time></trkpt><trkpt lat="47.76734660898875" lon="12.92534122009053"><ele>454.0</ele><time>2026-05-01T12:08:12Z</time></trkpt><trkpt lat="47.767370449159124" lon="12.925635130993406"><ele>454.33333333333337</ele><time>2026-05-01T12:08:13Z</time></trkpt><trkpt lat="47.767394336364625" lon="12.925924772715714"><ele>454.66666666666663</ele><time>2026-05-01T12:08:14Z</time></trkpt><trkpt lat="47.76742069434889" lon="12.926210109179507"><ele>455.0</ele><time>2026-05-01T12:08:15Z</time></trkpt><trkpt lat="47.76744946745155" lon="12.926488273272366"><ele>456.0</ele><time>2026-05-01T12:08:16Z</time></trkpt><trkpt lat="47.76747462063395" lon="12.926754531881972"><ele>457.0</ele><time>2026-05-01T12:08:17Z</time></trkpt><trkpt lat="47.76749780386567" lon="12.92702184787977"><ele>458.0</ele><time>2026-05-01T12:08:18Z</time></trkpt><trkpt lat="47.76752224969205" lon="12.92728900115524"><ele>458.0</ele><time>2026-05-01T12:08:19Z</time></trkpt><trkpt lat="47.76754811464025" lon="12.927556895704264"><ele>458.0</ele><time>2026-05-01T12:08:20Z</time></trkpt><trkpt lat="47.767573830275055" lon="12.927825884752504"><ele>458.0</ele><time>2026-05-01T12:08:21Z</time></trkpt><trkpt lat="47.76759923148167" lon="12.928094699432744"><ele>457.3333333333333</ele><time>2026-05-01T12:08:22Z</time></trkpt><trkpt lat="47.76762374256308" lon="12.928363661828925"><ele>456.66666666666663</ele><time>2026-05-01T12:08:23Z</time></trkpt><trkpt lat="47.767647243468616" lon="12.928632301217428"><ele>456.0</ele><time>2026-05-01T12:08:24Z</time></trkpt><trkpt lat="47.767671276867205" lon="12.92890010674282"><ele>456.0</ele><time>2026-05-01T12:08:25Z</time></trkpt><trkpt lat="47.76769518143576" lon="12.929166336361485"><ele>456.0</ele><time>2026-05-01T12:08:26.001Z</time></trkpt><trkpt lat="47.767720308707666" lon="12.929428188184646"><ele>456.0</ele><time>2026-05-01T12:08:27.001Z</time></trkpt><trkpt lat="47.767745383293004" lon="12.929688493324889"><ele>458.66666666666663</ele><time>2026-05-01T12:08:28.001Z</time></trkpt><trkpt lat="47.76776920005744" lon="12.929950127684242"><ele>461.3333333333333</ele><time>2026-05-01T12:08:29.001Z</time></trkpt><trkpt lat="47.767792062458625" lon="12.930213082058257"><ele>464.0</ele><time>2026-05-01T12:08:30.001Z</time></trkpt><trkpt lat="47.76781509692786" lon="12.930481400047114"><ele>465.3333333333333</ele><time>2026-05-01T12:08:31.001Z</time></trkpt><trkpt lat="47.76783838835595" lon="12.93075269136301"><ele>466.66666666666663</ele><time>2026-05-01T12:08:32.001Z</time></trkpt><trkpt lat="47.767860430602376" lon="12.931021574203237"><ele>468.0</ele><time>2026-05-01T12:08:33.001Z</time></trkpt><trkpt lat="47.76788394810602" lon="12.931278249175353"><ele>468.33333333333337</ele><time>2026-05-01T12:08:34.001Z</time></trkpt><trkpt lat="47.76790667953114" lon="12.931536836181873"><ele>468.6666666666667</ele><time>2026-05-01T12:08:35.001Z</time></trkpt><trkpt lat="47.7679288851532" lon="12.93179515627291"><ele>469.0</ele><time>2026-05-01T12:08:36.001Z</time></trkpt><trkpt lat="47.767952021183234" lon="12.93205369872982"><ele>469.33333333333337</ele><time>2026-05-01T12:08:37.001Z</time></trkpt><trkpt lat="47.76797423334172" lon="12.932313098033157"><ele>469.66666666666663</ele><time>2026-05-01T12:08:38.001Z</time></trkpt><trkpt lat="47.767997050273166" lon="12.93257261076262"><ele>470.0</ele><time>2026-05-01T12:08:39.001Z</time></trkpt><trkpt lat="47.76801978491548" lon="12.93282986705019"><ele>471.66666666666663</ele><time>2026-05-01T12:08:40.001Z</time></trkpt><trkpt lat="47.76804203135502" lon="12.933086531329161"><ele>473.33333333333337</ele><time>2026-05-01T12:08:41.001Z</time></trkpt><trkpt lat="47.768062012140824" lon="12.933339967483805"><ele>475.0</ele><time>2026-05-01T12:08:42.001Z</time></trkpt><trkpt lat="47.76807856387821" lon="12.93359039072496"><ele>475.6666666666667</ele><time>2026-05-01T12:08:43.001Z</time></trkpt><trkpt lat="47.76809197142486" lon="12.933837126601635"><ele>476.33333333333337</ele><time>2026-05-01T12:08:44.001Z</time></trkpt><trkpt lat="47.76810382630848" lon="12.934071836279136"><ele>477.0</ele><time>2026-05-01T12:08:45.001Z</time></trkpt><trkpt lat="47.76811149649642" lon="12.934304050941748"><ele>477.0</ele><time>2026-05-01T12:08:46.001Z</time></trkpt><trkpt lat="47.76811781028637" lon="12.93453816589142"><ele>477.0</ele><time>2026-05-01T12:08:47.001Z</time></trkpt><trkpt lat="47.76812527063444" lon="12.934773768709384"><ele>477.0</ele><time>2026-05-01T12:08:48.001Z</time></trkpt><trkpt lat="47.76813395579944" lon="12.935008743043136"><ele>478.33333333333337</ele><time>2026-05-01T12:08:49.001Z</time></trkpt><trkpt lat="47.768142010244276" lon="12.935244894860322"><ele>479.6666666666667</ele><time>2026-05-01T12:08:50.001Z</time></trkpt><trkpt lat="47.7681497447029" lon="12.935486063722301"><ele>481.0</ele><time>2026-05-01T12:08:51.001Z</time></trkpt><trkpt lat="47.76815760461187" lon="12.935729644317501"><ele>481.0</ele><time>2026-05-01T12:08:52.001Z</time></trkpt><trkpt lat="47.76816490877028" lon="12.935975068468826"><ele>481.0</ele><time>2026-05-01T12:08:53.001Z</time></trkpt><trkpt lat="47.76817089765424" lon="12.93622279935724"><ele>481.0</ele><time>2026-05-01T12:08:54.001Z</time></trkpt><trkpt lat="47.7681766084412" lon="12.936471930458076"><ele>481.0</ele><time>2026-05-01T12:08:55.001Z</time></trkpt><trkpt lat="47.76818411148655" lon="12.936720823255232"><ele>481.0</ele><time>2026-05-01T12:08:56.001Z</time></trkpt><trkpt lat="47.76819239261032" lon="12.936969907114086"><ele>481.0</ele><time>2026-05-01T12:08:57.001Z</time></trkpt><trkpt lat="47.76819994949318" lon="12.937221708759163"><ele>481.0</ele><time>2026-05-01T12:08:58.001Z</time></trkpt><trkpt lat="47.768208156206335" lon="12.937471917825716"><ele>481.0</ele><time>2026-05-01T12:08:59.001Z</time></trkpt><trkpt lat="47.76821580226401" lon="12.93772257481444"><ele>481.0</ele><time>2026-05-01T12:09:00.001Z</time></trkpt><trkpt lat="47.76822345054736" lon="12.937974891316886"><ele>481.33333333333337</ele><time>2026-05-01T12:09:01.001Z</time></trkpt><trkpt lat="47.768229600808304" lon="12.938225361777928"><ele>481.66666666666663</ele><time>2026-05-01T12:09:02.001Z</time></trkpt><trkpt lat="47.76823525269548" lon="12.938475577762631"><ele>482.0</ele><time>2026-05-01T12:09:03.001Z</time></trkpt><trkpt lat="47.768241168344474" lon="12.938727330892364"><ele>482.0</ele><time>2026-05-01T12:09:04.001Z</time></trkpt><trkpt lat="47.76824752100063" lon="12.938981325823804"><ele>482.0</ele><time>2026-05-01T12:09:05.001Z</time></trkpt><trkpt lat="47.76825278926977" lon="12.939235292900849"><ele>482.0</ele><time>2026-05-01T12:09:06.001Z</time></trkpt><trkpt lat="47.768255622859876" lon="12.939488643695539"><ele>482.0</ele><time>2026-05-01T12:09:07.001Z</time></trkpt><trkpt lat="47.768265695921954" lon="12.939741466001312"><ele>482.0</ele><time>2026-05-01T12:09:08.001Z</time></trkpt><trkpt lat="47.768267609442" lon="12.939996444277986"><ele>482.0</ele><time>2026-05-01T12:09:09.001Z</time></trkpt><trkpt lat="47.768274705608974" lon="12.94025387790478"><ele>482.0</ele><time>2026-05-01T12:09:10.001Z</time></trkpt><trkpt lat="47.76828047008798" lon="12.940512507049155"><ele>482.0</ele><time>2026-05-01T12:09:11.001Z</time></trkpt><trkpt lat="47.76828773886175" lon="12.940774472711343"><ele>482.0</ele><time>2026-05-01T12:09:12.001Z</time></trkpt><trkpt lat="47.768295458333746" lon="12.94103850054958"><ele>482.0</ele><time>2026-05-01T12:09:13.001Z</time></trkpt><trkpt lat="47.76829899018034" lon="12.941301002803387"><ele>482.0</ele><time>2026-05-01T12:09:14.001Z</time></trkpt><trkpt lat="47.768301382744845" lon="12.94156217972404"><ele>482.0</ele><time>2026-05-01T12:09:15.001Z</time></trkpt><trkpt lat="47.768302887124804" lon="12.941823162003834"><ele>482.0</ele><time>2026-05-01T12:09:16.001Z</time></trkpt><trkpt lat="47.76830253174194" lon="12.94208163582275"><ele>482.0</ele><time>2026-05-01T12:09:17.001Z</time></trkpt><trkpt lat="47.76830580796438" lon="12.942340252942833"><ele>482.0</ele><time>2026-05-01T12:09:18.001Z</time></trkpt><trkpt lat="47.7683201672288" lon="12.942599447383069"><ele>482.0</ele><time>2026-05-01T12:09:19.001Z</time></trkpt><trkpt lat="47.76832922827708" lon="12.942865826426242"><ele>482.0</ele><time>2026-05-01T12:09:20.001Z</time></trkpt><trkpt lat="47.768340220915334" lon="12.943133909732067"><ele>482.0</ele><time>2026-05-01T12:09:21.001Z</time></trkpt><trkpt lat="47.76835099640579" lon="12.94339812389798"><ele>481.66666666666663</ele><time>2026-05-01T12:09:22.001Z</time></trkpt><trkpt lat="47.76836359289226" lon="12.94367451030955"><ele>481.33333333333337</ele><time>2026-05-01T12:09:23.001Z</time></trkpt><trkpt lat="47.768375664909634" lon="12.943956717646182"><ele>481.0</ele><time>2026-05-01T12:09:24.001Z</time></trkpt><trkpt lat="47.768388159728744" lon="12.944237591328633"><ele>480.33333333333337</ele><time>2026-05-01T12:09:25.001Z</time></trkpt><trkpt lat="47.76839784702325" lon="12.944512662784302"><ele>479.66666666666663</ele><time>2026-05-01T12:09:26Z</time></trkpt><trkpt lat="47.76840624251" lon="12.944788839566334"><ele>479.0</ele><time>2026-05-01T12:09:27Z</time></trkpt><trkpt lat="47.76841420930921" lon="12.945072607556279"><ele>478.3333333333333</ele><time>2026-05-01T12:09:28Z</time></trkpt><trkpt lat="47.76842232880693" lon="12.945359299349699"><ele>477.66666666666663</ele><time>2026-05-01T12:09:29Z</time></trkpt><trkpt lat="47.768430648791494" lon="12.945649217467361"><ele>477.0</ele><time>2026-05-01T12:09:30Z</time></trkpt><trkpt lat="47.76843694634906" lon="12.945936760610026"><ele>476.66666666666663</ele><time>2026-05-01T12:09:31Z</time></trkpt><trkpt lat="47.76844124007716" lon="12.946219640096738"><ele>476.3333333333333</ele><time>2026-05-01T12:09:32Z</time></trkpt><trkpt lat="47.76844500091246" lon="12.946500448560796"><ele>476.0</ele><time>2026-05-01T12:09:33Z</time></trkpt><trkpt lat="47.76844928508633" lon="12.946785306193378"><ele>475.0</ele><time>2026-05-01T12:09:34Z</time></trkpt><trkpt lat="47.768455981648565" lon="12.947076901701209"><ele>474.0</ele><time>2026-05-01T12:09:35Z</time></trkpt><trkpt lat="47.76846327160481" lon="12.9473708436335"><ele>473.0</ele><time>2026-05-01T12:09:36Z</time></trkpt><trkpt lat="47.76846958090241" lon="12.947664631360515"><ele>472.66666666666663</ele><time>2026-05-01T12:09:37Z</time></trkpt><trkpt lat="47.7684754451835" lon="12.947959631448164"><ele>472.33333333333337</ele><time>2026-05-01T12:09:38Z</time></trkpt><trkpt lat="47.768481113774705" lon="12.948256143917776"><ele>472.0</ele><time>2026-05-01T12:09:39Z</time></trkpt><trkpt lat="47.76848845966942" lon="12.948552078237357"><ele>471.33333333333337</ele><time>2026-05-01T12:09:40Z</time></trkpt><trkpt lat="47.768495902714974" lon="12.948853193708542"><ele>470.66666666666663</ele><time>2026-05-01T12:09:41Z</time></trkpt><trkpt lat="47.76850384407707" lon="12.949142877370912"><ele>470.0</ele><time>2026-05-01T12:09:42Z</time></trkpt><trkpt lat="47.76851243650232" lon="12.949444847922322"><ele>468.66666666666663</ele><time>2026-05-01T12:09:43Z</time></trkpt><trkpt lat="47.76852018454097" lon="12.949753542989429"><ele>467.33333333333337</ele><time>2026-05-01T12:09:44Z</time></trkpt><trkpt lat="47.76852680605091" lon="12.950061267473856"><ele>466.0</ele><time>2026-05-01T12:09:45Z</time></trkpt><trkpt lat="47.768534587956495" lon="12.950372030049571"><ele>466.0</ele><time>2026-05-01T12:09:46Z</time></trkpt><trkpt lat="47.76854410892149" lon="12.950679662243099"><ele>466.0</ele><time>2026-05-01T12:09:47Z</time></trkpt><trkpt lat="47.76855944044099" lon="12.950986046732528"><ele>466.0</ele><time>2026-05-01T12:09:48Z</time></trkpt><trkpt lat="47.768579306979866" lon="12.951311110812243"><ele>464.5</ele><time>2026-05-01T12:09:49Z</time></trkpt><trkpt lat="47.76860060340692" lon="12.95165456698853"><ele>463.0</ele><time>2026-05-01T12:09:50Z</time></trkpt><trkpt lat="47.76861437917512" lon="12.952009760211162"><ele>461.5</ele><time>2026-05-01T12:09:51Z</time></trkpt><trkpt lat="47.76862482644903" lon="12.952366334153005"><ele>460.0</ele><time>2026-05-01T12:09:52Z</time></trkpt><trkpt lat="47.7686298520049" lon="12.952717894745987"><ele>455.5</ele><time>2026-05-01T12:09:53Z</time></trkpt><trkpt lat="47.76863516767885" lon="12.95308181724244"><ele>451.0</ele><time>2026-05-01T12:09:54Z</time></trkpt><trkpt lat="47.76864689589105" lon="12.953444689976376"><ele>448.0</ele><time>2026-05-01T12:09:55Z</time></trkpt><trkpt lat="47.76865341849104" lon="12.953808602870568"><ele>445.0</ele><time>2026-05-01T12:09:56Z</time></trkpt><trkpt lat="47.768660590120525" lon="12.954173618918453"><ele>442.5</ele><time>2026-05-01T12:09:57Z</time></trkpt><trkpt lat="47.768667533431405" lon="12.954540336069236"><ele>440.0</ele><time>2026-05-01T12:09:58Z</time></trkpt><trkpt lat="47.768675291084875" lon="12.954909733838704"><ele>440.5</ele><time>2026-05-01T12:09:59Z</time></trkpt><trkpt lat="47.768683813423024" lon="12.955278610705614"><ele>441.0</ele><time>2026-05-01T12:10:00Z</time></trkpt><trkpt lat="47.768695039577935" lon="12.95564720672384"><ele>440.5</ele><time>2026-05-01T12:10:01Z</time></trkpt><trkpt lat="47.76870383665712" lon="12.956016086309265"><ele>440.0</ele><time>2026-05-01T12:10:02Z</time></trkpt><trkpt lat="47.768713653662644" lon="12.956382085441707"><ele>440.5</ele><time>2026-05-01T12:10:03Z</time></trkpt><trkpt lat="47.76872154290807" lon="12.956750726383179"><ele>441.0</ele><time>2026-05-01T12:10:04Z</time></trkpt><trkpt lat="47.76872844063714" lon="12.95711766487286"><ele>441.0</ele><time>2026-05-01T12:10:05Z</time></trkpt><trkpt lat="47.76873781187231" lon="12.957487033962327"><ele>441.0</ele><time>2026-05-01T12:10:06Z</time></trkpt><trkpt lat="47.768747196550834" lon="12.957854249365324"><ele>440.0</ele><time>2026-05-01T12:10:07Z</time></trkpt><trkpt lat="47.76875515709936" lon="12.958218401391505"><ele>439.0</ele><time>2026-05-01T12:10:08Z</time></trkpt><trkpt lat="47.76876353630142" lon="12.95857749625525"><ele>439.0</ele><time>2026-05-01T12:10:09Z</time></trkpt><trkpt lat="47.7687694653182" lon="12.958932445333035"><ele>439.0</ele><time>2026-05-01T12:10:10Z</time></trkpt><trkpt lat="47.76877563680184" lon="12.959281116829619"><ele>438.0</ele><time>2026-05-01T12:10:11Z</time></trkpt><trkpt lat="47.768781864064316" lon="12.959626724651894"><ele>437.0</ele><time>2026-05-01T12:10:12Z</time></trkpt><trkpt lat="47.768781909671944" lon="12.959972576365749"><ele>436.5</ele><time>2026-05-01T12:10:13Z</time></trkpt><trkpt lat="47.76878170772032" lon="12.960320515607041"><ele>436.0</ele><time>2026-05-01T12:10:14Z</time></trkpt><trkpt lat="47.7687871321884" lon="12.96066766544247"><ele>438.5</ele><time>2026-05-01T12:10:15Z</time></trkpt><trkpt lat="47.768793484050256" lon="12.961013921378877"><ele>441.0</ele><time>2026-05-01T12:10:16Z</time></trkpt><trkpt lat="47.768801529695565" lon="12.961357258172974"><ele>443.0</ele><time>2026-05-01T12:10:17Z</time></trkpt><trkpt lat="47.76880911696555" lon="12.961700229542583"><ele>445.0</ele><time>2026-05-01T12:10:18Z</time></trkpt><trkpt lat="47.76881641713849" lon="12.96204077949711"><ele>445.0</ele><time>2026-05-01T12:10:19Z</time></trkpt><trkpt lat="47.76882651409916" lon="12.962381215809296"><ele>445.0</ele><time>2026-05-01T12:10:20Z</time></trkpt><trkpt lat="47.76883748733063" lon="12.962718626889444"><ele>445.5</ele><time>2026-05-01T12:10:21Z</time></trkpt><trkpt lat="47.768844431701716" lon="12.963054779882295"><ele>446.0</ele><time>2026-05-01T12:10:22Z</time></trkpt><trkpt lat="47.768854528397284" lon="12.963388297834364"><ele>444.66666666666663</ele><time>2026-05-01T12:10:23Z</time></trkpt><trkpt lat="47.76886280867659" lon="12.963716840214481"><ele>443.33333333333337</ele><time>2026-05-01T12:10:24Z</time></trkpt><trkpt lat="47.76886859712538" lon="12.964041667389711"><ele>442.0</ele><time>2026-05-01T12:10:25Z</time></trkpt><trkpt lat="47.76887323960232" lon="12.964366552153122"><ele>440.6666666666667</ele><time>2026-05-01T12:10:26Z</time></trkpt><trkpt lat="47.76887919278132" lon="12.964695975624547"><ele>439.33333333333337</ele><time>2026-05-01T12:10:27Z</time></trkpt><trkpt lat="47.76888646094645" lon="12.965023971912654"><ele>438.0</ele><time>2026-05-01T12:10:28Z</time></trkpt><trkpt lat="47.76889638081661" lon="12.965348846872855"><ele>437.66666666666663</ele><time>2026-05-01T12:10:29Z</time></trkpt><trkpt lat="47.76890636937409" lon="12.965674136299677"><ele>437.3333333333333</ele><time>2026-05-01T12:10:30Z</time></trkpt><trkpt lat="47.768914083371484" lon="12.965999764166853"><ele>437.0</ele><time>2026-05-01T12:10:31Z</time></trkpt><trkpt lat="47.768922653278445" lon="12.96632428338965"><ele>436.66666666666663</ele><time>2026-05-01T12:10:32Z</time></trkpt><trkpt lat="47.76893632841189" lon="12.96664795551658"><ele>436.33333333333337</ele><time>2026-05-01T12:10:33Z</time></trkpt><trkpt lat="47.768956673127256" lon="12.96697058671192"><ele>436.0</ele><time>2026-05-01T12:10:34Z</time></trkpt><trkpt lat="47.76898482732092" lon="12.967295107303"><ele>435.6666666666667</ele><time>2026-05-01T12:10:35Z</time></trkpt><trkpt lat="47.76901885649243" lon="12.9676189550854"><ele>435.33333333333337</ele><time>2026-05-01T12:10:36Z</time></trkpt><trkpt lat="47.76905596272494" lon="12.967942738544119"><ele>435.0</ele><time>2026-05-01T12:10:37Z</time></trkpt><trkpt lat="47.76909569740113" lon="12.968264717596222"><ele>435.0</ele><time>2026-05-01T12:10:38Z</time></trkpt><trkpt lat="47.76914293072975" lon="12.968584320179401"><ele>435.0</ele><time>2026-05-01T12:10:39Z</time></trkpt><trkpt lat="47.76919479181749" lon="12.968901837832648"><ele>435.0</ele><time>2026-05-01T12:10:40Z</time></trkpt><trkpt lat="47.76925016721493" lon="12.969219620202688"><ele>435.0</ele><time>2026-05-01T12:10:41Z</time></trkpt><trkpt lat="47.76931014253496" lon="12.969538512752571"><ele>435.0</ele><time>2026-05-01T12:10:42Z</time></trkpt><trkpt lat="47.769375841060885" lon="12.969859017383436"><ele>435.0</ele><time>2026-05-01T12:10:43Z</time></trkpt><trkpt lat="47.76944637007308" lon="12.97018382016005"><ele>435.5</ele><time>2026-05-01T12:10:44Z</time></trkpt><trkpt lat="47.769524324300264" lon="12.970504105694877"><ele>436.0</ele><time>2026-05-01T12:10:45Z</time></trkpt><trkpt lat="47.76960911071983" lon="12.970821746407388"><ele>435.5</ele><time>2026-05-01T12:10:46Z</time></trkpt><trkpt lat="47.769697968237516" lon="12.97113821517431"><ele>435.0</ele><time>2026-05-01T12:10:47Z</time></trkpt><trkpt lat="47.7697898031384" lon="12.97145306175884"><ele>435.5</ele><time>2026-05-01T12:10:48.001Z</time></trkpt><trkpt lat="47.76988490724109" lon="12.971766456195638"><ele>436.0</ele><time>2026-05-01T12:10:49.001Z</time></trkpt><trkpt lat="47.76998742653172" lon="12.972073767988187"><ele>436.0</ele><time>2026-05-01T12:10:50.001Z</time></trkpt><trkpt lat="47.7700935514531" lon="12.972380040572183"><ele>436.0</ele><time>2026-05-01T12:10:51.001Z</time></trkpt><trkpt lat="47.77020460455789" lon="12.972680769891438"><ele>437.0</ele><time>2026-05-01T12:10:52.001Z</time></trkpt><trkpt lat="47.77032192374831" lon="12.97297679717038"><ele>438.0</ele><time>2026-05-01T12:10:53.001Z</time></trkpt><trkpt lat="47.770445997353114" lon="12.97326716791363"><ele>438.5</ele><time>2026-05-01T12:10:54.001Z</time></trkpt><trkpt lat="47.770576817607555" lon="12.97355759494335"><ele>439.0</ele><time>2026-05-01T12:10:55.001Z</time></trkpt><trkpt lat="47.77070893905512" lon="12.973845611602309"><ele>439.0</ele><time>2026-05-01T12:10:56.001Z</time></trkpt><trkpt lat="47.77084624122723" lon="12.974131428389114"><ele>439.0</ele><time>2026-05-01T12:10:57.001Z</time></trkpt><trkpt lat="47.77098952098424" lon="12.974413944728663"><ele>437.5</ele><time>2026-05-01T12:10:58.001Z</time></trkpt><trkpt lat="47.77113884322043" lon="12.974691854895578"><ele>436.0</ele><time>2026-05-01T12:10:59.001Z</time></trkpt><trkpt lat="47.771287439075685" lon="12.97495962252862"><ele>437.0</ele><time>2026-05-01T12:11:00.001Z</time></trkpt><trkpt lat="47.77143893881092" lon="12.975218094791183"><ele>438.0</ele><time>2026-05-01T12:11:01.001Z</time></trkpt><trkpt lat="47.77159508749327" lon="12.975474807447197"><ele>438.0</ele><time>2026-05-01T12:11:02.001Z</time></trkpt><trkpt lat="47.77175784134648" lon="12.975732753206326"><ele>438.0</ele><time>2026-05-01T12:11:03.001Z</time></trkpt><trkpt lat="47.77192778909833" lon="12.975985197914676"><ele>438.0</ele><time>2026-05-01T12:11:04.001Z</time></trkpt><trkpt lat="47.772103812827815" lon="12.976232001814846"><ele>438.0</ele><time>2026-05-01T12:11:05.001Z</time></trkpt><trkpt lat="47.77228393200005" lon="12.976469686475522"><ele>441.0</ele><time>2026-05-01T12:11:06.001Z</time></trkpt><trkpt lat="47.77246830814195" lon="12.976700638991531"><ele>444.0</ele><time>2026-05-01T12:11:07.001Z</time></trkpt><trkpt lat="47.772655700542494" lon="12.97692810854003"><ele>443.0</ele><time>2026-05-01T12:11:08.001Z</time></trkpt><trkpt lat="47.77284651725935" lon="12.977151843593255"><ele>442.0</ele><time>2026-05-01T12:11:09.001Z</time></trkpt><trkpt lat="47.77304080166059" lon="12.977367127726612"><ele>442.5</ele><time>2026-05-01T12:11:10.001Z</time></trkpt><trkpt lat="47.77323686044637" lon="12.97757370671811"><ele>443.0</ele><time>2026-05-01T12:11:11.001Z</time></trkpt><trkpt lat="47.7734359050627" lon="12.977773649208535"><ele>442.0</ele><time>2026-05-01T12:11:12.001Z</time></trkpt><trkpt lat="47.77363615679572" lon="12.977964920195971"><ele>441.0</ele><time>2026-05-01T12:11:13.001Z</time></trkpt><trkpt lat="47.77383754860224" lon="12.978147018139232"><ele>441.0</ele><time>2026-05-01T12:11:14.001Z</time></trkpt><trkpt lat="47.774043188316185" lon="12.978319630505503"><ele>441.0</ele><time>2026-05-01T12:11:15.001Z</time></trkpt><trkpt lat="47.774249265269766" lon="12.978489136035634"><ele>440.5</ele><time>2026-05-01T12:11:16.001Z</time></trkpt><trkpt lat="47.77445468669478" lon="12.97865332728409"><ele>440.0</ele><time>2026-05-01T12:11:17.001Z</time></trkpt><trkpt lat="47.77466281306218" lon="12.97880812977329"><ele>440.0</ele><time>2026-05-01T12:11:18.001Z</time></trkpt><trkpt lat="47.77487755216983" lon="12.978959530542971"><ele>440.0</ele><time>2026-05-01T12:11:19.001Z</time></trkpt><trkpt lat="47.775097085476425" lon="12.979094047086665"><ele>440.5</ele><time>2026-05-01T12:11:20.001Z</time></trkpt><trkpt lat="47.775316160087904" lon="12.979223155246903"><ele>441.0</ele><time>2026-05-01T12:11:21.001Z</time></trkpt><trkpt lat="47.77554060597769" lon="12.979345783817262"><ele>441.0</ele><time>2026-05-01T12:11:22.001Z</time></trkpt><trkpt lat="47.775767920473434" lon="12.979458089570006"><ele>441.0</ele><time>2026-05-01T12:11:23.001Z</time></trkpt><trkpt lat="47.775992407081" lon="12.979563748138329"><ele>439.0</ele><time>2026-05-01T12:11:24.001Z</time></trkpt><trkpt lat="47.776219483214696" lon="12.979660968871736"><ele>437.0</ele><time>2026-05-01T12:11:25.001Z</time></trkpt><trkpt lat="47.77644585193141" lon="12.979750541269798"><ele>437.0</ele><time>2026-05-01T12:11:26.001Z</time></trkpt><trkpt lat="47.77667476932453" lon="12.979830896598651"><ele>437.0</ele><time>2026-05-01T12:11:27.001Z</time></trkpt><trkpt lat="47.77690534621627" lon="12.979903291321065"><ele>436.5</ele><time>2026-05-01T12:11:28.001Z</time></trkpt><trkpt lat="47.777135822904214" lon="12.979964638732277"><ele>436.0</ele><time>2026-05-01T12:11:29.001Z</time></trkpt><trkpt lat="47.77736691356045" lon="12.98001915015855"><ele>436.0</ele><time>2026-05-01T12:11:30.001Z</time></trkpt><trkpt lat="47.777595244796366" lon="12.980066765478128"><ele>436.0</ele><time>2026-05-01T12:11:31.001Z</time></trkpt><trkpt lat="47.777825033050846" lon="12.98010657519813"><ele>436.0</ele><time>2026-05-01T12:11:32Z</time></trkpt><trkpt lat="47.778057105126486" lon="12.980145226905297"><ele>436.0</ele><time>2026-05-01T12:11:33Z</time></trkpt><trkpt lat="47.77828757091363" lon="12.98018104414786"><ele>435.0</ele><time>2026-05-01T12:11:34Z</time></trkpt><trkpt lat="47.778519970957674" lon="12.980217482528927"><ele>434.0</ele><time>2026-05-01T12:11:35Z</time></trkpt><trkpt lat="47.778752354459535" lon="12.980259769847489"><ele>434.0</ele><time>2026-05-01T12:11:36Z</time></trkpt><trkpt lat="47.778986370671014" lon="12.980301784412134"><ele>434.0</ele><time>2026-05-01T12:11:37Z</time></trkpt><trkpt lat="47.77922140968212" lon="12.98034273905162"><ele>433.5</ele><time>2026-05-01T12:11:38Z</time></trkpt><trkpt lat="47.77945743837751" lon="12.980383610595897"><ele>433.0</ele><time>2026-05-01T12:11:39Z</time></trkpt><trkpt lat="47.77969575772866" lon="12.980422989131771"><ele>433.0</ele><time>2026-05-01T12:11:40Z</time></trkpt><trkpt lat="47.77993251831007" lon="12.9804621919961"><ele>433.0</ele><time>2026-05-01T12:11:41Z</time></trkpt><trkpt lat="47.78016902641118" lon="12.980500625886753"><ele>433.5</ele><time>2026-05-01T12:11:42Z</time></trkpt><trkpt lat="47.780404330579856" lon="12.980539644248866"><ele>434.0</ele><time>2026-05-01T12:11:43Z</time></trkpt><trkpt lat="47.78063876182359" lon="12.980579738184108"><ele>434.0</ele><time>2026-05-01T12:11:44Z</time></trkpt><trkpt lat="47.780872256162475" lon="12.980619540845483"><ele>434.0</ele><time>2026-05-01T12:11:45Z</time></trkpt><trkpt lat="47.78110554535808" lon="12.980658323068255"><ele>435.5</ele><time>2026-05-01T12:11:46Z</time></trkpt><trkpt lat="47.78133818321544" lon="12.980696827640857"><ele>437.0</ele><time>2026-05-01T12:11:47Z</time></trkpt><trkpt lat="47.78157251065974" lon="12.980735753436718"><ele>437.0</ele><time>2026-05-01T12:11:48Z</time></trkpt><trkpt lat="47.781808079604446" lon="12.980774637322321"><ele>437.0</ele><time>2026-05-01T12:11:49Z</time></trkpt><trkpt lat="47.78204497654988" lon="12.980813645273164"><ele>436.0</ele><time>2026-05-01T12:11:50Z</time></trkpt><trkpt lat="47.782283476329205" lon="12.980855135190664"><ele>435.0</ele><time>2026-05-01T12:11:51Z</time></trkpt><trkpt lat="47.782524227394056" lon="12.980896240046842"><ele>434.5</ele><time>2026-05-01T12:11:52Z</time></trkpt><trkpt lat="47.782763529819235" lon="12.980938062536511"><ele>434.0</ele><time>2026-05-01T12:11:53Z</time></trkpt><trkpt lat="47.783000248900144" lon="12.980975804801655"><ele>434.0</ele><time>2026-05-01T12:11:54Z</time></trkpt><trkpt lat="47.783235609089346" lon="12.98101089427328"><ele>434.0</ele><time>2026-05-01T12:11:55Z</time></trkpt><trkpt lat="47.78347041449787" lon="12.98104775864915"><ele>435.0</ele><time>2026-05-01T12:11:56Z</time></trkpt><trkpt lat="47.78370527606408" lon="12.981090187819657"><ele>436.0</ele><time>2026-05-01T12:11:57Z</time></trkpt><trkpt lat="47.7839402867147" lon="12.981134943716002"><ele>436.0</ele><time>2026-05-01T12:11:58Z</time></trkpt><trkpt lat="47.78417575277909" lon="12.981178428097511"><ele>436.0</ele><time>2026-05-01T12:11:59Z</time></trkpt><trkpt lat="47.78441359196552" lon="12.981219698907847"><ele>436.5</ele><time>2026-05-01T12:12:00Z</time></trkpt><trkpt lat="47.784655110668716" lon="12.981258862170176"><ele>437.0</ele><time>2026-05-01T12:12:01Z</time></trkpt><trkpt lat="47.7848980910609" lon="12.981297976734316"><ele>437.0</ele><time>2026-05-01T12:12:02Z</time></trkpt><trkpt lat="47.78514226542445" lon="12.981337229262653"><ele>437.0</ele><time>2026-05-01T12:12:03Z</time></trkpt><trkpt lat="47.785386265758504" lon="12.981376724689271"><ele>437.5</ele><time>2026-05-01T12:12:04Z</time></trkpt><trkpt lat="47.7856320438119" lon="12.981416940020974"><ele>438.0</ele><time>2026-05-01T12:12:05Z</time></trkpt><trkpt lat="47.78587396667246" lon="12.981459049332601"><ele>437.0</ele><time>2026-05-01T12:12:06Z</time></trkpt><trkpt lat="47.78610684047781" lon="12.98149767822731"><ele>436.0</ele><time>2026-05-01T12:12:07Z</time></trkpt><trkpt lat="47.78634477673876" lon="12.981539239191646"><ele>436.0</ele><time>2026-05-01T12:12:08Z</time></trkpt><trkpt lat="47.78658597952556" lon="12.981579118872334"><ele>436.0</ele><time>2026-05-01T12:12:09Z</time></trkpt><trkpt lat="47.78683064422114" lon="12.981617411027157"><ele>436.0</ele><time>2026-05-01T12:12:10Z</time></trkpt><trkpt lat="47.78707588134502" lon="12.981656027684322"><ele>436.0</ele><time>2026-05-01T12:12:11Z</time></trkpt><trkpt lat="47.787318344426794" lon="12.98169670691731"><ele>436.0</ele><time>2026-05-01T12:12:12Z</time></trkpt><trkpt lat="47.787555436975516" lon="12.981738558045295"><ele>436.0</ele><time>2026-05-01T12:12:13Z</time></trkpt><trkpt lat="47.7877925030888" lon="12.981780922754293"><ele>436.0</ele><time>2026-05-01T12:12:14Z</time></trkpt><trkpt lat="47.78803037238943" lon="12.981823166904183"><ele>436.0</ele><time>2026-05-01T12:12:15Z</time></trkpt><trkpt lat="47.78826788933429" lon="12.98186935161901"><ele>436.0</ele><time>2026-05-01T12:12:16Z</time></trkpt><trkpt lat="47.78850433877105" lon="12.981922778998724"><ele>436.0</ele><time>2026-05-01T12:12:17Z</time></trkpt><trkpt lat="47.78874485946812" lon="12.981975016155799"><ele>436.0</ele><time>2026-05-01T12:12:18Z</time></trkpt><trkpt lat="47.788988252211325" lon="12.98202553833225"><ele>436.0</ele><time>2026-05-01T12:12:19Z</time></trkpt><trkpt lat="47.789234985282064" lon="12.982071528246124"><ele>436.5</ele><time>2026-05-01T12:12:20Z</time></trkpt><trkpt lat="47.7894818499568" lon="12.982118584056186"><ele>437.0</ele><time>2026-05-01T12:12:21Z</time></trkpt><trkpt lat="47.78972909147714" lon="12.982178825582064"><ele>437.0</ele><time>2026-05-01T12:12:22Z</time></trkpt><trkpt lat="47.7899753795091" lon="12.982240676297938"><ele>437.0</ele><time>2026-05-01T12:12:23Z</time></trkpt><trkpt lat="47.79022036022129" lon="12.982313448024108"><ele>438.0</ele><time>2026-05-01T12:12:24Z</time></trkpt><trkpt lat="47.79046661476383" lon="12.982395529516571"><ele>439.0</ele><time>2026-05-01T12:12:25Z</time></trkpt><trkpt lat="47.79071038669211" lon="12.982482676251665"><ele>438.0</ele><time>2026-05-01T12:12:26Z</time></trkpt><trkpt lat="47.79094335255659" lon="12.98256639535558"><ele>437.0</ele><time>2026-05-01T12:12:27Z</time></trkpt><trkpt lat="47.79116571577793" lon="12.982646841799346"><ele>437.0</ele><time>2026-05-01T12:12:28Z</time></trkpt><trkpt lat="47.791390697549275" lon="12.982735775358522"><ele>437.0</ele><time>2026-05-01T12:12:29Z</time></trkpt><trkpt lat="47.791616716338446" lon="12.982830002755593"><ele>436.5</ele><time>2026-05-01T12:12:30Z</time></trkpt><trkpt lat="47.791841429712655" lon="12.98293180551971"><ele>436.0</ele><time>2026-05-01T12:12:31Z</time></trkpt><trkpt lat="47.79206788485735" lon="12.983037886813461"><ele>436.0</ele><time>2026-05-01T12:12:32Z</time></trkpt><trkpt lat="47.79229407803822" lon="12.98315141893303"><ele>436.0</ele><time>2026-05-01T12:12:33Z</time></trkpt><trkpt lat="47.792518870212575" lon="12.983270894711394"><ele>435.0</ele><time>2026-05-01T12:12:34Z</time></trkpt><trkpt lat="47.79273985932833" lon="12.983395748710674"><ele>434.0</ele><time>2026-05-01T12:12:35Z</time></trkpt><trkpt lat="47.79296002841558" lon="12.983524205277718"><ele>434.0</ele><time>2026-05-01T12:12:36Z</time></trkpt><trkpt lat="47.793176644817365" lon="12.983657753889647"><ele>434.0</ele><time>2026-05-01T12:12:37Z</time></trkpt><trkpt lat="47.79339233738923" lon="12.983794882066057"><ele>435.0</ele><time>2026-05-01T12:12:38Z</time></trkpt><trkpt lat="47.7936070433282" lon="12.983938255456358"><ele>436.0</ele><time>2026-05-01T12:12:39Z</time></trkpt><trkpt lat="47.793820391926005" lon="12.984086330340523"><ele>434.0</ele><time>2026-05-01T12:12:40Z</time></trkpt><trkpt lat="47.79403338188257" lon="12.984237024369662"><ele>432.0</ele><time>2026-05-01T12:12:41Z</time></trkpt><trkpt lat="47.79424590763563" lon="12.984388705421791"><ele>433.0</ele><time>2026-05-01T12:12:42Z</time></trkpt><trkpt lat="47.79445756420341" lon="12.984544751766613"><ele>434.0</ele><time>2026-05-01T12:12:43Z</time></trkpt><trkpt lat="47.79466864312513" lon="12.984704548412415"><ele>434.0</ele><time>2026-05-01T12:12:44Z</time></trkpt><trkpt lat="47.79488054009501" lon="12.984869768136216"><ele>434.0</ele><time>2026-05-01T12:12:45Z</time></trkpt><trkpt lat="47.795096283671285" lon="12.985033698171145"><ele>433.5</ele><time>2026-05-01T12:12:46Z</time></trkpt><trkpt lat="47.7953129816104" lon="12.985198556678105"><ele>433.0</ele><time>2026-05-01T12:12:47Z</time></trkpt><trkpt lat="47.795531597940986" lon="12.985368601941033"><ele>433.0</ele><time>2026-05-01T12:12:48Z</time></trkpt><trkpt lat="47.79575295365801" lon="12.985536925938094"><ele>433.0</ele><time>2026-05-01T12:12:49Z</time></trkpt><trkpt lat="47.795973909104084" lon="12.98570456081369"><ele>433.0</ele><time>2026-05-01T12:12:50Z</time></trkpt><trkpt lat="47.79618719257331" lon="12.985865558903575"><ele>433.0</ele><time>2026-05-01T12:12:51Z</time></trkpt><trkpt lat="47.79639276290383" lon="12.986022469446892"><ele>433.0</ele><time>2026-05-01T12:12:52Z</time></trkpt><trkpt lat="47.7966032690516" lon="12.98618489375796"><ele>433.0</ele><time>2026-05-01T12:12:53Z</time></trkpt><trkpt lat="47.79681667552666" lon="12.98634810470326"><ele>434.5</ele><time>2026-05-01T12:12:54Z</time></trkpt><trkpt lat="47.79703114693625" lon="12.986516090680047"><ele>436.0</ele><time>2026-05-01T12:12:55Z</time></trkpt><trkpt lat="47.79724737315502" lon="12.986686374846574"><ele>436.0</ele><time>2026-05-01T12:12:56Z</time></trkpt><trkpt lat="47.79746494881722" lon="12.986856527977034"><ele>436.0</ele><time>2026-05-01T12:12:57Z</time></trkpt><trkpt lat="47.797678103520994" lon="12.987023930289663"><ele>436.0</ele><time>2026-05-01T12:12:58Z</time></trkpt><trkpt lat="47.79789052016323" lon="12.987185999030388"><ele>436.0</ele><time>2026-05-01T12:12:59Z</time></trkpt><trkpt lat="47.79810076308854" lon="12.987345543412145"><ele>436.0</ele><time>2026-05-01T12:13:00Z</time></trkpt><trkpt lat="47.79830995383663" lon="12.987504167543284"><ele>436.0</ele><time>2026-05-01T12:13:01Z</time></trkpt><trkpt lat="47.79851944800168" lon="12.987662083924997"><ele>435.5</ele><time>2026-05-01T12:13:02Z</time></trkpt><trkpt lat="47.798727690039804" lon="12.987821322942292"><ele>435.0</ele><time>2026-05-01T12:13:03.001Z</time></trkpt><trkpt lat="47.79893372018759" lon="12.987979549465994"><ele>435.0</ele><time>2026-05-01T12:13:04.001Z</time></trkpt><trkpt lat="47.79913836630076" lon="12.988136856462425"><ele>435.0</ele><time>2026-05-01T12:13:05.001Z</time></trkpt><trkpt lat="47.79934228739539" lon="12.988295395066991"><ele>437.5</ele><time>2026-05-01T12:13:06.001Z</time></trkpt><trkpt lat="47.79954519019727" lon="12.988453059370256"><ele>440.0</ele><time>2026-05-01T12:13:07.001Z</time></trkpt><trkpt lat="47.799748357672755" lon="12.988610320513093"><ele>440.0</ele><time>2026-05-01T12:13:08.001Z</time></trkpt><trkpt lat="47.799949414882605" lon="12.98876754424123"><ele>440.0</ele><time>2026-05-01T12:13:09.001Z</time></trkpt><trkpt lat="47.80015046025877" lon="12.988924845114221"><ele>438.0</ele><time>2026-05-01T12:13:10.001Z</time></trkpt><trkpt lat="47.80035213825971" lon="12.989079685677037"><ele>436.0</ele><time>2026-05-01T12:13:11.001Z</time></trkpt><trkpt lat="47.80055253777077" lon="12.989232229269161"><ele>435.0</ele><time>2026-05-01T12:13:12.001Z</time></trkpt><trkpt lat="47.80075504644637" lon="12.989386248577063"><ele>434.0</ele><time>2026-05-01T12:13:13.001Z</time></trkpt><trkpt lat="47.80095696234805" lon="12.989539193028099"><ele>435.5</ele><time>2026-05-01T12:13:14.001Z</time></trkpt><trkpt lat="47.80116236569653" lon="12.989693623549869"><ele>437.0</ele><time>2026-05-01T12:13:15.001Z</time></trkpt><trkpt lat="47.801367386032176" lon="12.989849654728307"><ele>434.5</ele><time>2026-05-01T12:13:16.001Z</time></trkpt><trkpt lat="47.801573390177225" lon="12.9900085475522"><ele>432.0</ele><time>2026-05-01T12:13:17.001Z</time></trkpt><trkpt lat="47.80177834992298" lon="12.9901698306212"><ele>432.5</ele><time>2026-05-01T12:13:18.001Z</time></trkpt><trkpt lat="47.80198230725348" lon="12.990331213878584"><ele>433.0</ele><time>2026-05-01T12:13:19.001Z</time></trkpt><trkpt lat="47.80218751726776" lon="12.990491184115813"><ele>433.0</ele><time>2026-05-01T12:13:20.001Z</time></trkpt><trkpt lat="47.80239198912303" lon="12.99065097340254"><ele>433.0</ele><time>2026-05-01T12:13:21.001Z</time></trkpt><trkpt lat="47.80259723698135" lon="12.990806273639121"><ele>432.5</ele><time>2026-05-01T12:13:22.001Z</time></trkpt><trkpt lat="47.802802015968595" lon="12.990966808696145"><ele>432.0</ele><time>2026-05-01T12:13:23.001Z</time></trkpt><trkpt lat="47.80300654572191" lon="12.991126838552145"><ele>432.0</ele><time>2026-05-01T12:13:24.001Z</time></trkpt><trkpt lat="47.80321180802853" lon="12.991287778576973"><ele>432.0</ele><time>2026-05-01T12:13:25.001Z</time></trkpt><trkpt lat="47.803419936198054" lon="12.991450088527447"><ele>432.0</ele><time>2026-05-01T12:13:26.001Z</time></trkpt><trkpt lat="47.80362749339385" lon="12.991613948458953"><ele>432.0</ele><time>2026-05-01T12:13:27.001Z</time></trkpt><trkpt lat="47.803838775660935" lon="12.991777146055693"><ele>432.0</ele><time>2026-05-01T12:13:28.001Z</time></trkpt><trkpt lat="47.8040500107069" lon="12.991940864904638"><ele>432.0</ele><time>2026-05-01T12:13:29.001Z</time></trkpt><trkpt lat="47.80425945087375" lon="12.992101849649417"><ele>432.0</ele><time>2026-05-01T12:13:30.001Z</time></trkpt><trkpt lat="47.804469473417655" lon="12.992258864517373"><ele>432.0</ele><time>2026-05-01T12:13:31.001Z</time></trkpt><trkpt lat="47.80467844087022" lon="12.99241567200178"><ele>430.5</ele><time>2026-05-01T12:13:32.001Z</time></trkpt><trkpt lat="47.804888647054234" lon="12.992569927625388"><ele>429.0</ele><time>2026-05-01T12:13:33.001Z</time></trkpt><trkpt lat="47.805099265943056" lon="12.992725320039156"><ele>428.5</ele><time>2026-05-01T12:13:34.001Z</time></trkpt><trkpt lat="47.80531141666314" lon="12.992881423031402"><ele>428.0</ele><time>2026-05-01T12:13:35.001Z</time></trkpt><trkpt lat="47.805523609753585" lon="12.993037820142886"><ele>428.0</ele><time>2026-05-01T12:13:36.001Z</time></trkpt><trkpt lat="47.80573551577755" lon="12.993198867918618"><ele>428.0</ele><time>2026-05-01T12:13:37.001Z</time></trkpt><trkpt lat="47.805946594135825" lon="12.993362657219679"><ele>429.0</ele><time>2026-05-01T12:13:38Z</time></trkpt><trkpt lat="47.80615737988754" lon="12.993529043129223"><ele>430.0</ele><time>2026-05-01T12:13:39Z</time></trkpt><trkpt lat="47.80637010724946" lon="12.99369563041652"><ele>430.0</ele><time>2026-05-01T12:13:40Z</time></trkpt><trkpt lat="47.806584505244565" lon="12.993860377871565"><ele>430.0</ele><time>2026-05-01T12:13:41Z</time></trkpt><trkpt lat="47.806797756990456" lon="12.994023947294277"><ele>429.0</ele><time>2026-05-01T12:13:42Z</time></trkpt><trkpt lat="47.80701041854052" lon="12.994187637279886"><ele>428.0</ele><time>2026-05-01T12:13:43Z</time></trkpt><trkpt lat="47.80722489965273" lon="12.994351943159261"><ele>428.0</ele><time>2026-05-01T12:13:44Z</time></trkpt><trkpt lat="47.807441466154756" lon="12.9945177300782"><ele>428.0</ele><time>2026-05-01T12:13:45Z</time></trkpt><trkpt lat="47.80765763564479" lon="12.994685566528615"><ele>428.5</ele><time>2026-05-01T12:13:46Z</time></trkpt><trkpt lat="47.80787383359241" lon="12.994855732629665"><ele>429.0</ele><time>2026-05-01T12:13:47Z</time></trkpt><trkpt lat="47.8080915692864" lon="12.995023491214894"><ele>429.0</ele><time>2026-05-01T12:13:48Z</time></trkpt><trkpt lat="47.80831007218909" lon="12.995187569362345"><ele>429.0</ele><time>2026-05-01T12:13:49Z</time></trkpt><trkpt lat="47.808529032476606" lon="12.995351709632764"><ele>428.5</ele><time>2026-05-01T12:13:50Z</time></trkpt><trkpt lat="47.80874851518461" lon="12.995516621857304"><ele>428.0</ele><time>2026-05-01T12:13:51Z</time></trkpt><trkpt lat="47.808967198279255" lon="12.9956829542794"><ele>427.5</ele><time>2026-05-01T12:13:52Z</time></trkpt><trkpt lat="47.80918411656901" lon="12.995849492699408"><ele>427.0</ele><time>2026-05-01T12:13:53Z</time></trkpt><trkpt lat="47.809400630717406" lon="12.996016584384048"><ele>427.0</ele><time>2026-05-01T12:13:54Z</time></trkpt><trkpt lat="47.80961611919549" lon="12.996181283342036"><ele>427.0</ele><time>2026-05-01T12:13:55Z</time></trkpt><trkpt lat="47.80983098513905" lon="12.99634920767436"><ele>427.0</ele><time>2026-05-01T12:13:56Z</time></trkpt><trkpt lat="47.81004471451283" lon="12.996516381245685"><ele>427.0</ele><time>2026-05-01T12:13:57Z</time></trkpt><trkpt lat="47.81025523502363" lon="12.996680651465015"><ele>427.5</ele><time>2026-05-01T12:13:58Z</time></trkpt><trkpt lat="47.81045763659435" lon="12.996839933937487"><ele>428.0</ele><time>2026-05-01T12:13:59Z</time></trkpt><trkpt lat="47.810659698112616" lon="12.997000874340742"><ele>428.0</ele><time>2026-05-01T12:14:00Z</time></trkpt><trkpt lat="47.810861229318796" lon="12.997161797622633"><ele>428.0</ele><time>2026-05-01T12:14:01Z</time></trkpt><trkpt lat="47.81106965855027" lon="12.997330028855739"><ele>427.5</ele><time>2026-05-01T12:14:02Z</time></trkpt><trkpt lat="47.81127834705139" lon="12.997502032044428"><ele>427.0</ele><time>2026-05-01T12:14:03Z</time></trkpt><trkpt lat="47.81148831432415" lon="12.997680887573111"><ele>426.5</ele><time>2026-05-01T12:14:04Z</time></trkpt><trkpt lat="47.811699024429835" lon="12.997864990870191"><ele>426.0</ele><time>2026-05-01T12:14:05Z</time></trkpt><trkpt lat="47.81190914641856" lon="12.998056619859259"><ele>426.0</ele><time>2026-05-01T12:14:06Z</time></trkpt><trkpt lat="47.81211750427658" lon="12.998253176655684"><ele>426.0</ele><time>2026-05-01T12:14:07Z</time></trkpt><trkpt lat="47.81232475983643" lon="12.998452398728412"><ele>427.0</ele><time>2026-05-01T12:14:08Z</time></trkpt><trkpt lat="47.81253248566063" lon="12.998653787829037"><ele>428.0</ele><time>2026-05-01T12:14:09Z</time></trkpt><trkpt lat="47.812740577551054" lon="12.99885416021105"><ele>428.5</ele><time>2026-05-01T12:14:10Z</time></trkpt><trkpt lat="47.81294890267877" lon="12.999054086022632"><ele>429.0</ele><time>2026-05-01T12:14:11Z</time></trkpt><trkpt lat="47.81315583622314" lon="12.999256193094775"><ele>429.5</ele><time>2026-05-01T12:14:12Z</time></trkpt><trkpt lat="47.81336139531497" lon="12.9994574264679"><ele>430.0</ele><time>2026-05-01T12:14:13Z</time></trkpt><trkpt lat="47.813565903731295" lon="12.99965916033104"><ele>430.0</ele><time>2026-05-01T12:14:14Z</time></trkpt><trkpt lat="47.81377020721044" lon="12.999858766021472"><ele>430.0</ele><time>2026-05-01T12:14:15Z</time></trkpt><trkpt lat="47.81397417947359" lon="13.000057014988574"><ele>430.0</ele><time>2026-05-01T12:14:16Z</time></trkpt><trkpt lat="47.8141764964428" lon="13.000258185490802"><ele>430.0</ele><time>2026-05-01T12:14:17Z</time></trkpt><trkpt lat="47.814377466805745" lon="13.000457158043181"><ele>430.5</ele><time>2026-05-01T12:14:18Z</time></trkpt><trkpt lat="47.81457505258343" lon="13.000652025448924"><ele>431.0</ele><time>2026-05-01T12:14:19Z</time></trkpt><trkpt lat="47.814771770814254" lon="13.000845580514788"><ele>429.0</ele><time>2026-05-01T12:14:20Z</time></trkpt><trkpt lat="47.81496858563051" lon="13.00103419989265"><ele>427.0</ele><time>2026-05-01T12:14:21Z</time></trkpt><trkpt lat="47.815164692921805" lon="13.00122266378151"><ele>426.5</ele><time>2026-05-01T12:14:22Z</time></trkpt><trkpt lat="47.8153596607683" lon="13.00141188674936"><ele>426.0</ele><time>2026-05-01T12:14:23Z</time></trkpt><trkpt lat="47.815555057654734" lon="13.001598062035566"><ele>425.0</ele><time>2026-05-01T12:14:24Z</time></trkpt><trkpt lat="47.815750522027685" lon="13.001785760723903"><ele>424.0</ele><time>2026-05-01T12:14:25Z</time></trkpt><trkpt lat="47.815946000275915" lon="13.001973490146415"><ele>425.0</ele><time>2026-05-01T12:14:26Z</time></trkpt><trkpt lat="47.81614027256605" lon="13.002163260049425"><ele>426.0</ele><time>2026-05-01T12:14:27Z</time></trkpt><trkpt lat="47.8163361896109" lon="13.002354094302449"><ele>426.5</ele><time>2026-05-01T12:14:28Z</time></trkpt><trkpt lat="47.81653068561973" lon="13.002548497947098"><ele>427.0</ele><time>2026-05-01T12:14:29Z</time></trkpt><trkpt lat="47.81672461343431" lon="13.002741618092852"><ele>426.0</ele><time>2026-05-01T12:14:30Z</time></trkpt><trkpt lat="47.81691881926143" lon="13.002933551465592"><ele>425.0</ele><time>2026-05-01T12:14:31Z</time></trkpt><trkpt lat="47.817113036643086" lon="13.003124831020815"><ele>425.0</ele><time>2026-05-01T12:14:32Z</time></trkpt><trkpt lat="47.81730679551345" lon="13.003315785666985"><ele>425.0</ele><time>2026-05-01T12:14:33Z</time></trkpt><trkpt lat="47.817499881709175" lon="13.00350543406455"><ele>423.5</ele><time>2026-05-01T12:14:34Z</time></trkpt><trkpt lat="47.81769236133654" lon="13.003693871657134"><ele>422.0</ele><time>2026-05-01T12:14:35Z</time></trkpt><trkpt lat="47.81788483595683" lon="13.003883510157374"><ele>422.0</ele><time>2026-05-01T12:14:36Z</time></trkpt><trkpt lat="47.818076707603794" lon="13.004073182818802"><ele>422.0</ele><time>2026-05-01T12:14:37Z</time></trkpt><trkpt lat="47.81826738472415" lon="13.004259791308865"><ele>421.0</ele><time>2026-05-01T12:14:38Z</time></trkpt><trkpt lat="47.818458950445915" lon="13.004446745330855"><ele>420.0</ele><time>2026-05-01T12:14:39Z</time></trkpt><trkpt lat="47.8186496872436" lon="13.004633208867935"><ele>419.66666666666663</ele><time>2026-05-01T12:14:40Z</time></trkpt><trkpt lat="47.8188380819705" lon="13.004817536308554"><ele>419.3333333333333</ele><time>2026-05-01T12:14:41Z</time></trkpt><trkpt lat="47.81901883412551" lon="13.004991461622112"><ele>419.0</ele><time>2026-05-01T12:14:42Z</time></trkpt><trkpt lat="47.819188616016596" lon="13.005154750056429"><ele>419.66666666666663</ele><time>2026-05-01T12:14:43Z</time></trkpt><trkpt lat="47.81934730857174" lon="13.005309211659624"><ele>420.33333333333337</ele><time>2026-05-01T12:14:44Z</time></trkpt><trkpt lat="47.81949361616673" lon="13.005453865334196"><ele>421.0</ele><time>2026-05-01T12:14:45Z</time></trkpt><trkpt lat="47.819641636682725" lon="13.005597473361696"><ele>421.0</ele><time>2026-05-01T12:14:46Z</time></trkpt><trkpt lat="47.81979325235905" lon="13.005747382057804"><ele>421.0</ele><time>2026-05-01T12:14:47Z</time></trkpt><trkpt lat="47.81994852480693" lon="13.005900044029321"><ele>421.0</ele><time>2026-05-01T12:14:48Z</time></trkpt><trkpt lat="47.82010026595092" lon="13.00605211785141"><ele>421.0</ele><time>2026-05-01T12:14:49Z</time></trkpt><trkpt lat="47.8202583123635" lon="13.006207502070575"><ele>421.0</ele><time>2026-05-01T12:14:50Z</time></trkpt><trkpt lat="47.820420118021566" lon="13.006362196761879"><ele>421.0</ele><time>2026-05-01T12:14:51Z</time></trkpt><trkpt lat="47.8205811111257" lon="13.006518242914016"><ele>420.6666666666667</ele><time>2026-05-01T12:14:52Z</time></trkpt><trkpt lat="47.820738841111535" lon="13.00667619342912"><ele>420.33333333333337</ele><time>2026-05-01T12:14:53Z</time></trkpt><trkpt lat="47.820897519389085" lon="13.006837334122055"><ele>420.0</ele><time>2026-05-01T12:14:54Z</time></trkpt><trkpt lat="47.821054196131904" lon="13.007003180329507"><ele>419.33333333333337</ele><time>2026-05-01T12:14:55Z</time></trkpt><trkpt lat="47.82121240362828" lon="13.00717047859367"><ele>418.6666666666667</ele><time>2026-05-01T12:14:56Z</time></trkpt><trkpt lat="47.82136896276679" lon="13.00734453729549"><ele>418.0</ele><time>2026-05-01T12:14:57Z</time></trkpt><trkpt lat="47.82152357628843" lon="13.007524462426908"><ele>417.6666666666667</ele><time>2026-05-01T12:14:58Z</time></trkpt><trkpt lat="47.821673466431214" lon="13.007713997570967"><ele>417.33333333333337</ele><time>2026-05-01T12:14:59Z</time></trkpt><trkpt lat="47.82182224428031" lon="13.007919757779689"><ele>417.0</ele><time>2026-05-01T12:15:00Z</time></trkpt><trkpt lat="47.82196718251766" lon="13.008131868320708"><ele>417.0</ele><time>2026-05-01T12:15:01Z</time></trkpt><trkpt lat="47.82210967184471" lon="13.008347970959315"><ele>417.0</ele><time>2026-05-01T12:15:02Z</time></trkpt><trkpt lat="47.82224914747781" lon="13.008567734606366"><ele>417.0</ele><time>2026-05-01T12:15:03Z</time></trkpt><trkpt lat="47.822384667267" lon="13.00879440460519"><ele>417.0</ele><time>2026-05-01T12:15:04Z</time></trkpt><trkpt lat="47.82251751365083" lon="13.009028750077551"><ele>417.0</ele><time>2026-05-01T12:15:05Z</time></trkpt><trkpt lat="47.822644874839895" lon="13.00927684139968"><ele>417.0</ele><time>2026-05-01T12:15:06.001Z</time></trkpt><trkpt lat="47.8227703490777" lon="13.009528097491572"><ele>416.66666666666663</ele><time>2026-05-01T12:15:07.001Z</time></trkpt><trkpt lat="47.822894289259" lon="13.009781813274119"><ele>416.3333333333333</ele><time>2026-05-01T12:15:08.001Z</time></trkpt><trkpt lat="47.82301226213126" lon="13.010049024351654"><ele>416.0</ele><time>2026-05-01T12:15:09.001Z</time></trkpt><trkpt lat="47.82312787032733" lon="13.010317579871208"><ele>416.0</ele><time>2026-05-01T12:15:10.001Z</time></trkpt><trkpt lat="47.82322245052671" lon="13.010538412220212"><ele>416.0</ele><time>2026-05-01T12:15:11.001Z</time></trkpt><trkpt lat="47.82332524028883" lon="13.010807411852273"><ele>416.0</ele><time>2026-05-01T12:15:12.001Z</time></trkpt><trkpt lat="47.823424842771814" lon="13.011079979317099"><ele>415.3333333333333</ele><time>2026-05-01T12:15:13.001Z</time></trkpt><trkpt lat="47.8235213275082" lon="13.011350689675469"><ele>414.66666666666663</ele><time>2026-05-01T12:15:14.001Z</time></trkpt><trkpt lat="47.82361473061902" lon="13.011626063966016"><ele>414.0</ele><time>2026-05-01T12:15:15.001Z</time></trkpt><trkpt lat="47.823703790919886" lon="13.011906824508685"><ele>414.0</ele><time>2026-05-01T12:15:16.001Z</time></trkpt><trkpt lat="47.82378400549876" lon="13.01218937158614"><ele>414.0</ele><time>2026-05-01T12:15:17.001Z</time></trkpt><trkpt lat="47.82386020701704" lon="13.012476605168338"><ele>414.0</ele><time>2026-05-01T12:15:18.001Z</time></trkpt><trkpt lat="47.82392977100454" lon="13.012763405974361"><ele>414.66666666666663</ele><time>2026-05-01T12:15:19.001Z</time></trkpt><trkpt lat="47.82399667517897" lon="13.013052218307669"><ele>415.3333333333333</ele><time>2026-05-01T12:15:20.001Z</time></trkpt><trkpt lat="47.82406680862062" lon="13.013342945913896"><ele>416.0</ele><time>2026-05-01T12:15:21.001Z</time></trkpt><trkpt lat="47.824133943550386" lon="13.013622370219156"><ele>416.0</ele><time>2026-05-01T12:15:22.001Z</time></trkpt><trkpt lat="47.82405078406191" lon="13.013677017407076"><ele>416.0</ele><time>2026-05-01T12:15:23.001Z</time></trkpt><trkpt lat="47.82427366762601" lon="13.013954736168792"><ele>416.0</ele><time>2026-05-01T12:15:24.001Z</time></trkpt><trkpt lat="47.82435290784498" lon="13.014220213422428"><ele>415.0</ele><time>2026-05-01T12:15:25.001Z</time></trkpt><trkpt lat="47.82443059853428" lon="13.01450853807303"><ele>414.0</ele><time>2026-05-01T12:15:26.001Z</time></trkpt><trkpt lat="47.824493418193306" lon="13.014797343388373"><ele>413.0</ele><time>2026-05-01T12:15:27.001Z</time></trkpt><trkpt lat="47.82454732412454" lon="13.015065389515899"><ele>412.0</ele><time>2026-05-01T12:15:28.001Z</time></trkpt><trkpt lat="47.824600251809294" lon="13.015343965289706"><ele>411.0</ele><time>2026-05-01T12:15:29.001Z</time></trkpt><trkpt lat="47.824656902434306" lon="13.015615245981541"><ele>410.0</ele><time>2026-05-01T12:15:30.001Z</time></trkpt><trkpt lat="47.82471578900101" lon="13.015891353951556"><ele>410.0</ele><time>2026-05-01T12:15:31.001Z</time></trkpt><trkpt lat="47.824782995399836" lon="13.016170820993358"><ele>410.0</ele><time>2026-05-01T12:15:32.001Z</time></trkpt><trkpt lat="47.82484498596425" lon="13.016446972942688"><ele>410.0</ele><time>2026-05-01T12:15:33.001Z</time></trkpt><trkpt lat="47.82490664959369" lon="13.01672057203867"><ele>410.66666666666663</ele><time>2026-05-01T12:15:34.001Z</time></trkpt><trkpt lat="47.824968056523446" lon="13.01699242524374"><ele>411.33333333333337</ele><time>2026-05-01T12:15:35.001Z</time></trkpt><trkpt lat="47.82502838514044" lon="13.017268063085828"><ele>412.0</ele><time>2026-05-01T12:15:36.001Z</time></trkpt><trkpt lat="47.82508927537834" lon="13.017542887739651"><ele>412.0</ele><time>2026-05-01T12:15:37.001Z</time></trkpt><trkpt lat="47.82515088541978" lon="13.017820400948942"><ele>412.0</ele><time>2026-05-01T12:15:38.001Z</time></trkpt><trkpt lat="47.82521289735131" lon="13.018095970957546"><ele>412.0</ele><time>2026-05-01T12:15:39.001Z</time></trkpt><trkpt lat="47.82527334270632" lon="13.018372222218757"><ele>412.0</ele><time>2026-05-01T12:15:40.001Z</time></trkpt><trkpt lat="47.82533329119806" lon="13.018648628100902"><ele>412.0</ele><time>2026-05-01T12:15:41.001Z</time></trkpt><trkpt lat="47.825395621863336" lon="13.018924464236955"><ele>412.0</ele><time>2026-05-01T12:15:42.001Z</time></trkpt><trkpt lat="47.82545765447158" lon="13.019203363481914"><ele>412.0</ele><time>2026-05-01T12:15:43.001Z</time></trkpt><trkpt lat="47.82552231116259" lon="13.0194812183389"><ele>412.0</ele><time>2026-05-01T12:15:44Z</time></trkpt><trkpt lat="47.82558751653157" lon="13.019761716362922"><ele>412.0</ele><time>2026-05-01T12:15:45Z</time></trkpt><trkpt lat="47.82565081091982" lon="13.020042035606028"><ele>412.0</ele><time>2026-05-01T12:15:46Z</time></trkpt><trkpt lat="47.825717789543454" lon="13.020325990873323"><ele>412.0</ele><time>2026-05-01T12:15:47Z</time></trkpt><trkpt lat="47.82578037525379" lon="13.020612581526448"><ele>412.0</ele><time>2026-05-01T12:15:48Z</time></trkpt><trkpt lat="47.82584326727941" lon="13.020900290952007"><ele>412.0</ele><time>2026-05-01T12:15:49Z</time></trkpt><trkpt lat="47.825910134533025" lon="13.021182004019392"><ele>412.0</ele><time>2026-05-01T12:15:50Z</time></trkpt><trkpt lat="47.82597283225932" lon="13.021451785753822"><ele>412.0</ele><time>2026-05-01T12:15:51Z</time></trkpt><trkpt lat="47.826036876865025" lon="13.021728412553966"><ele>412.6666666666667</ele><time>2026-05-01T12:15:52Z</time></trkpt><trkpt lat="47.82610298977422" lon="13.02200851397153"><ele>413.33333333333337</ele><time>2026-05-01T12:15:53Z</time></trkpt><trkpt lat="47.82616887226168" lon="13.022292040636252"><ele>414.0</ele><time>2026-05-01T12:15:54Z</time></trkpt><trkpt lat="47.82623394131344" lon="13.022576615194657"><ele>414.33333333333337</ele><time>2026-05-01T12:15:55Z</time></trkpt><trkpt lat="47.82629942472743" lon="13.022861305675034"><ele>414.6666666666667</ele><time>2026-05-01T12:15:56Z</time></trkpt><trkpt lat="47.826366809066975" lon="13.023146851554014"><ele>415.0</ele><time>2026-05-01T12:15:57Z</time></trkpt><trkpt lat="47.82643341400692" lon="13.023434472980268"><ele>415.0</ele><time>2026-05-01T12:15:58Z</time></trkpt><trkpt lat="47.82650088231455" lon="13.023718589675232"><ele>415.0</ele><time>2026-05-01T12:15:59Z</time></trkpt><trkpt lat="47.826567268984334" lon="13.024004351562612"><ele>415.0</ele><time>2026-05-01T12:16:00Z</time></trkpt><trkpt lat="47.826633806550284" lon="13.024288435462154"><ele>414.6666666666667</ele><time>2026-05-01T12:16:01Z</time></trkpt><trkpt lat="47.82669794704601" lon="13.02457382583212"><ele>414.33333333333337</ele><time>2026-05-01T12:16:02Z</time></trkpt><trkpt lat="47.826761805259416" lon="13.024857952263321"><ele>414.0</ele><time>2026-05-01T12:16:03Z</time></trkpt><trkpt lat="47.826825713752285" lon="13.025139911302276"><ele>414.0</ele><time>2026-05-01T12:16:04Z</time></trkpt><trkpt lat="47.82688756500526" lon="13.02542296010618"><ele>414.0</ele><time>2026-05-01T12:16:05Z</time></trkpt><trkpt lat="47.826950787806226" lon="13.025706277998141"><ele>414.0</ele><time>2026-05-01T12:16:06Z</time></trkpt><trkpt lat="47.82701464348918" lon="13.025991607893602"><ele>414.0</ele><time>2026-05-01T12:16:07Z</time></trkpt><trkpt lat="47.82707905267968" lon="13.026274184689967"><ele>414.0</ele><time>2026-05-01T12:16:08Z</time></trkpt><trkpt lat="47.82714577740812" lon="13.026562253638085"><ele>414.0</ele><time>2026-05-01T12:16:09Z</time></trkpt><trkpt lat="47.82721465743128" lon="13.026864375125188"><ele>415.0</ele><time>2026-05-01T12:16:10Z</time></trkpt><trkpt lat="47.827285269180805" lon="13.027176393801957"><ele>416.0</ele><time>2026-05-01T12:16:11Z</time></trkpt><trkpt lat="47.82735914803051" lon="13.027498544899439"><ele>416.0</ele><time>2026-05-01T12:16:12Z</time></trkpt><trkpt lat="47.82743342679543" lon="13.027825845998661"><ele>416.0</ele><time>2026-05-01T12:16:13Z</time></trkpt><trkpt lat="47.82750720691195" lon="13.028142798302097"><ele>416.0</ele><time>2026-05-01T12:16:14Z</time></trkpt><trkpt lat="47.827582271770375" lon="13.02846891358574"><ele>416.0</ele><time>2026-05-01T12:16:15Z</time></trkpt><trkpt lat="47.82765791181507" lon="13.028798031739358"><ele>416.0</ele><time>2026-05-01T12:16:16Z</time></trkpt><trkpt lat="47.82773822047226" lon="13.029139182001845"><ele>416.0</ele><time>2026-05-01T12:16:17Z</time></trkpt><trkpt lat="47.82781689556315" lon="13.029481383236236"><ele>414.0</ele><time>2026-05-01T12:16:18Z</time></trkpt><trkpt lat="47.82789433289266" lon="13.029821594637976"><ele>412.0</ele><time>2026-05-01T12:16:19Z</time></trkpt><trkpt lat="47.827970264028" lon="13.03015701085188"><ele>411.5</ele><time>2026-05-01T12:16:20Z</time></trkpt><trkpt lat="47.828047556911116" lon="13.03048962887974"><ele>411.0</ele><time>2026-05-01T12:16:21Z</time></trkpt><trkpt lat="47.828125594570864" lon="13.03081825995491"><ele>411.0</ele><time>2026-05-01T12:16:22Z</time></trkpt><trkpt lat="47.82820193366495" lon="13.031147341148507"><ele>411.0</ele><time>2026-05-01T12:16:23Z</time></trkpt><trkpt lat="47.82827834279427" lon="13.031474694699726"><ele>413.0</ele><time>2026-05-01T12:16:24Z</time></trkpt><trkpt lat="47.82835346137534" lon="13.031804136555749"><ele>415.0</ele><time>2026-05-01T12:16:25Z</time></trkpt><trkpt lat="47.828429604524175" lon="13.03213639308232"><ele>415.0</ele><time>2026-05-01T12:16:26Z</time></trkpt><trkpt lat="47.82850610075095" lon="13.032471195526348"><ele>415.0</ele><time>2026-05-01T12:16:27Z</time></trkpt><trkpt lat="47.82858217075906" lon="13.032807867184761"><ele>415.0</ele><time>2026-05-01T12:16:28Z</time></trkpt><trkpt lat="47.82865834445291" lon="13.033145532740901"><ele>415.0</ele><time>2026-05-01T12:16:29Z</time></trkpt><trkpt lat="47.82873538674791" lon="13.033485028517267"><ele>414.5</ele><time>2026-05-01T12:16:30Z</time></trkpt><trkpt lat="47.828812161235234" lon="13.03382406327579"><ele>414.0</ele><time>2026-05-01T12:16:31Z</time></trkpt><trkpt lat="47.828889785359074" lon="13.034161606363611"><ele>415.0</ele><time>2026-05-01T12:16:32Z</time></trkpt><trkpt lat="47.82896807543055" lon="13.034498674743677"><ele>416.0</ele><time>2026-05-01T12:16:33Z</time></trkpt><trkpt lat="47.82904621273637" lon="13.034834048966216"><ele>419.0</ele><time>2026-05-01T12:16:34Z</time></trkpt><trkpt lat="47.82912412834936" lon="13.035167974374628"><ele>422.0</ele><time>2026-05-01T12:16:35Z</time></trkpt><trkpt lat="47.829200672480475" lon="13.035503004578121"><ele>423.5</ele><time>2026-05-01T12:16:36Z</time></trkpt><trkpt lat="47.82927618787798" lon="13.03584060525517"><ele>425.0</ele><time>2026-05-01T12:16:37Z</time></trkpt><trkpt lat="47.82934948301835" lon="13.036181419337092"><ele>425.0</ele><time>2026-05-01T12:16:38Z</time></trkpt><trkpt lat="47.82942170468478" lon="13.036524410896224"><ele>425.0</ele><time>2026-05-01T12:16:39Z</time></trkpt><trkpt lat="47.829489756437006" lon="13.036870266608654"><ele>428.5</ele><time>2026-05-01T12:16:40Z</time></trkpt><trkpt lat="47.82955044562826" lon="13.037216803173825"><ele>432.0</ele><time>2026-05-01T12:16:41Z</time></trkpt><trkpt lat="47.82960640090082" lon="13.037561863237315"><ele>434.0</ele><time>2026-05-01T12:16:42Z</time></trkpt><trkpt lat="47.829653289966366" lon="13.037909205349022"><ele>436.0</ele><time>2026-05-01T12:16:43Z</time></trkpt><trkpt lat="47.82969332305904" lon="13.038256722478792"><ele>438.0</ele><time>2026-05-01T12:16:44Z</time></trkpt><trkpt lat="47.82973000544549" lon="13.038604609251129"><ele>440.0</ele><time>2026-05-01T12:16:45Z</time></trkpt><trkpt lat="47.829766701831545" lon="13.038955780443795"><ele>441.0</ele><time>2026-05-01T12:16:46Z</time></trkpt><trkpt lat="47.829800022762555" lon="13.039309165813846"><ele>442.0</ele><time>2026-05-01T12:16:47Z</time></trkpt><trkpt lat="47.829831605669334" lon="13.039661353666414"><ele>443.0</ele><time>2026-05-01T12:16:48Z</time></trkpt><trkpt lat="47.82986806193005" lon="13.040015603192042"><ele>444.0</ele><time>2026-05-01T12:16:49Z</time></trkpt><trkpt lat="47.82990484027146" lon="13.04036890806857"><ele>444.0</ele><time>2026-05-01T12:16:50Z</time></trkpt><trkpt lat="47.829940416937525" lon="13.040721478493637"><ele>444.0</ele><time>2026-05-01T12:16:51Z</time></trkpt><trkpt lat="47.82997348001814" lon="13.041074302865576"><ele>444.5</ele><time>2026-05-01T12:16:52Z</time></trkpt><trkpt lat="47.83000740199488" lon="13.041428961399628"><ele>445.0</ele><time>2026-05-01T12:16:53Z</time></trkpt><trkpt lat="47.83004222335654" lon="13.041782877954219"><ele>446.0</ele><time>2026-05-01T12:16:54Z</time></trkpt><trkpt lat="47.830076030147204" lon="13.042139096343089"><ele>447.0</ele><time>2026-05-01T12:16:55Z</time></trkpt><trkpt lat="47.83011024606152" lon="13.042493453831133"><ele>450.0</ele><time>2026-05-01T12:16:56Z</time></trkpt><trkpt lat="47.8301434222609" lon="13.042847316413422"><ele>453.0</ele><time>2026-05-01T12:16:57Z</time></trkpt><trkpt lat="47.83017460364011" lon="13.043201988535511"><ele>453.5</ele><time>2026-05-01T12:16:58Z</time></trkpt><trkpt lat="47.83020520632776" lon="13.043556373635594"><ele>454.0</ele><time>2026-05-01T12:16:59Z</time></trkpt><trkpt lat="47.830237196223756" lon="13.04390356129668"><ele>454.0</ele><time>2026-05-01T12:17:00Z</time></trkpt><trkpt lat="47.83027106618" lon="13.044238288788206"><ele>454.0</ele><time>2026-05-01T12:17:01Z</time></trkpt><trkpt lat="47.830304122815654" lon="13.044565324213567"><ele>454.0</ele><time>2026-05-01T12:17:02Z</time></trkpt><trkpt lat="47.830338796071686" lon="13.044894116603725"><ele>453.5</ele><time>2026-05-01T12:17:03Z</time></trkpt><trkpt lat="47.8303755937395" lon="13.045226181540187"><ele>453.0</ele><time>2026-05-01T12:17:04Z</time></trkpt><trkpt lat="47.83041426559252" lon="13.045566494068833"><ele>453.5</ele><time>2026-05-01T12:17:05Z</time></trkpt><trkpt lat="47.830452587141515" lon="13.045908459950153"><ele>454.0</ele><time>2026-05-01T12:17:06Z</time></trkpt><trkpt lat="47.83048942353147" lon="13.04625252685365"><ele>454.0</ele><time>2026-05-01T12:17:07Z</time></trkpt><trkpt lat="47.830524410434286" lon="13.04660420573513"><ele>454.0</ele><time>2026-05-01T12:17:08Z</time></trkpt><trkpt lat="47.830559771616535" lon="13.04696103560404"><ele>454.0</ele><time>2026-05-01T12:17:09Z</time></trkpt><trkpt lat="47.830593067022726" lon="13.047323731807891"><ele>454.0</ele><time>2026-05-01T12:17:10Z</time></trkpt><trkpt lat="47.83062760913105" lon="13.047694297522687"><ele>453.5</ele><time>2026-05-01T12:17:11Z</time></trkpt><trkpt lat="47.83066108120351" lon="13.048064716448048"><ele>453.0</ele><time>2026-05-01T12:17:12Z</time></trkpt><trkpt lat="47.830691955969385" lon="13.048434371232139"><ele>453.0</ele><time>2026-05-01T12:17:13Z</time></trkpt><trkpt lat="47.83072392723803" lon="13.048802373948652"><ele>453.0</ele><time>2026-05-01T12:17:14Z</time></trkpt><trkpt lat="47.83075453655626" lon="13.04916740366551"><ele>452.0</ele><time>2026-05-01T12:17:15Z</time></trkpt><trkpt lat="47.8307845513661" lon="13.049533941799973"><ele>451.0</ele><time>2026-05-01T12:17:16Z</time></trkpt><trkpt lat="47.83080837270788" lon="13.049901051746982"><ele>452.0</ele><time>2026-05-01T12:17:17Z</time></trkpt><trkpt lat="47.830831118846774" lon="13.050272908032712"><ele>453.0</ele><time>2026-05-01T12:17:18Z</time></trkpt><trkpt lat="47.83085139992701" lon="13.050649006116492"><ele>454.0</ele><time>2026-05-01T12:17:19Z</time></trkpt><trkpt lat="47.830873432769685" lon="13.05102184565067"><ele>455.0</ele><time>2026-05-01T12:17:20Z</time></trkpt><trkpt lat="47.83089343822028" lon="13.051388064412135"><ele>455.0</ele><time>2026-05-01T12:17:21Z</time></trkpt><trkpt lat="47.83091629720156" lon="13.051736382705686"><ele>455.0</ele><time>2026-05-01T12:17:22Z</time></trkpt><trkpt lat="47.83093792988153" lon="13.052089511849962"><ele>455.0</ele><time>2026-05-01T12:17:23Z</time></trkpt><trkpt lat="47.830959746228785" lon="13.052449956471175"><ele>455.0</ele><time>2026-05-01T12:17:24Z</time></trkpt><trkpt lat="47.83098002387254" lon="13.05281650684619"><ele>456.5</ele><time>2026-05-01T12:17:25Z</time></trkpt><trkpt lat="47.83099922879029" lon="13.053184314943872"><ele>458.0</ele><time>2026-05-01T12:17:26Z</time></trkpt><trkpt lat="47.83101830034437" lon="13.053552763431258"><ele>458.0</ele><time>2026-05-01T12:17:27Z</time></trkpt><trkpt lat="47.83103723761514" lon="13.053922812937682"><ele>458.0</ele><time>2026-05-01T12:17:28Z</time></trkpt><trkpt lat="47.8310577721761" lon="13.054292846494906"><ele>453.0</ele><time>2026-05-01T12:17:29.001Z</time></trkpt><trkpt lat="47.831081220804386" lon="13.05466142619007"><ele>448.0</ele><time>2026-05-01T12:17:30.001Z</time></trkpt><trkpt lat="47.83110182732825" lon="13.055031185624005"><ele>448.0</ele><time>2026-05-01T12:17:31.001Z</time></trkpt><trkpt lat="47.83112115070688" lon="13.055401040847077"><ele>448.0</ele><time>2026-05-01T12:17:32.001Z</time></trkpt><trkpt lat="47.83113771773396" lon="13.055771039077557"><ele>447.5</ele><time>2026-05-01T12:17:33.001Z</time></trkpt><trkpt lat="47.83115435549285" lon="13.056143033461142"><ele>447.0</ele><time>2026-05-01T12:17:34.001Z</time></trkpt><trkpt lat="47.83117013244986" lon="13.056514413059428"><ele>447.5</ele><time>2026-05-01T12:17:35.001Z</time></trkpt><trkpt lat="47.831179826200184" lon="13.056884069384147"><ele>448.0</ele><time>2026-05-01T12:17:36.001Z</time></trkpt><trkpt lat="47.831180625240584" lon="13.057250021620929"><ele>455.0</ele><time>2026-05-01T12:17:37.001Z</time></trkpt><trkpt lat="47.83117067320484" lon="13.05761344770714"><ele>462.0</ele><time>2026-05-01T12:17:38.001Z</time></trkpt><trkpt lat="47.831153194832424" lon="13.057975277443271"><ele>461.0</ele><time>2026-05-01T12:17:39.001Z</time></trkpt><trkpt lat="47.831128683118294" lon="13.058340272612734"><ele>460.0</ele><time>2026-05-01T12:17:40.001Z</time></trkpt><trkpt lat="47.83109787809564" lon="13.058705473024741"><ele>460.0</ele><time>2026-05-01T12:17:41.001Z</time></trkpt><trkpt lat="47.83105698423404" lon="13.059070162779742"><ele>460.0</ele><time>2026-05-01T12:17:42.001Z</time></trkpt><trkpt lat="47.83101123443444" lon="13.059434119517423"><ele>453.0</ele><time>2026-05-01T12:17:43.001Z</time></trkpt><trkpt lat="47.830963731024596" lon="13.059794655593938"><ele>446.0</ele><time>2026-05-01T12:17:44.001Z</time></trkpt><trkpt lat="47.830917498687405" lon="13.060148061981119"><ele>445.0</ele><time>2026-05-01T12:17:45.001Z</time></trkpt><trkpt lat="47.830870672999325" lon="13.060498498266762"><ele>444.0</ele><time>2026-05-01T12:17:46.001Z</time></trkpt><trkpt lat="47.83082161175386" lon="13.060844122476967"><ele>444.0</ele><time>2026-05-01T12:17:47.001Z</time></trkpt><trkpt lat="47.83077368645611" lon="13.06118844228293"><ele>444.0</ele><time>2026-05-01T12:17:48.001Z</time></trkpt><trkpt lat="47.83072472805986" lon="13.061532307150955"><ele>449.0</ele><time>2026-05-01T12:17:49.001Z</time></trkpt><trkpt lat="47.830678606407695" lon="13.061877653509512"><ele>454.0</ele><time>2026-05-01T12:17:50Z</time></trkpt><trkpt lat="47.83062974004396" lon="13.062216186839473"><ele>456.0</ele><time>2026-05-01T12:17:51Z</time></trkpt><trkpt lat="47.83058301707369" lon="13.062554709818691"><ele>458.0</ele><time>2026-05-01T12:17:52Z</time></trkpt><trkpt lat="47.83053716264989" lon="13.062890217187308"><ele>458.0</ele><time>2026-05-01T12:17:53Z</time></trkpt><trkpt lat="47.83049449896192" lon="13.063213506066209"><ele>458.0</ele><time>2026-05-01T12:17:54Z</time></trkpt><trkpt lat="47.830454766023394" lon="13.063517179112445"><ele>458.0</ele><time>2026-05-01T12:17:55Z</time></trkpt><trkpt lat="47.83041674191058" lon="13.063812493812"><ele>459.0</ele><time>2026-05-01T12:17:56Z</time></trkpt><trkpt lat="47.83038083047706" lon="13.064111025957352"><ele>460.0</ele><time>2026-05-01T12:17:57Z</time></trkpt><trkpt lat="47.83034997763415" lon="13.064406014934349"><ele>461.0</ele><time>2026-05-01T12:17:58Z</time></trkpt><trkpt lat="47.83032518920029" lon="13.06469840053828"><ele>464.0</ele><time>2026-05-01T12:17:59Z</time></trkpt><trkpt lat="47.830307384521454" lon="13.06498538028555"><ele>467.0</ele><time>2026-05-01T12:18:00Z</time></trkpt><trkpt lat="47.83029912101382" lon="13.065273973484253"><ele>470.0</ele><time>2026-05-01T12:18:01Z</time></trkpt><trkpt lat="47.83029878871268" lon="13.065561518492803"><ele>470.66666666666663</ele><time>2026-05-01T12:18:02Z</time></trkpt><trkpt lat="47.830307918175244" lon="13.065852443514837"><ele>471.33333333333337</ele><time>2026-05-01T12:18:03Z</time></trkpt><trkpt lat="47.83032566141259" lon="13.066145467230134"><ele>472.0</ele><time>2026-05-01T12:18:04Z</time></trkpt><trkpt lat="47.830350434783085" lon="13.06644035506274"><ele>473.0</ele><time>2026-05-01T12:18:05Z</time></trkpt><trkpt lat="47.830381948458246" lon="13.066733732521396"><ele>474.0</ele><time>2026-05-01T12:18:06Z</time></trkpt><trkpt lat="47.830420825206566" lon="13.06702098826868"><ele>475.0</ele><time>2026-05-01T12:18:07Z</time></trkpt><trkpt lat="47.83046729322343" lon="13.067304188332349"><ele>475.0</ele><time>2026-05-01T12:18:08Z</time></trkpt><trkpt lat="47.83052164202614" lon="13.067581694288902"><ele>475.0</ele><time>2026-05-01T12:18:09Z</time></trkpt><trkpt lat="47.83058380528242" lon="13.067855090494174"><ele>475.0</ele><time>2026-05-01T12:18:10Z</time></trkpt><trkpt lat="47.83065145067353" lon="13.068125946490847"><ele>476.0</ele><time>2026-05-01T12:18:11Z</time></trkpt><trkpt lat="47.83072660077121" lon="13.068393662681093"><ele>477.0</ele><time>2026-05-01T12:18:12Z</time></trkpt><trkpt lat="47.83080999938621" lon="13.06865617340198"><ele>478.0</ele><time>2026-05-01T12:18:13Z</time></trkpt><trkpt lat="47.83090078841818" lon="13.068914759400165"><ele>483.33333333333337</ele><time>2026-05-01T12:18:14Z</time></trkpt><trkpt lat="47.83099672067416" lon="13.069168770183625"><ele>488.66666666666663</ele><time>2026-05-01T12:18:15Z</time></trkpt><trkpt lat="47.831101456702484" lon="13.069416889789363"><ele>494.0</ele><time>2026-05-01T12:18:16Z</time></trkpt><trkpt lat="47.83121366523867" lon="13.069661016363733"><ele>494.0</ele><time>2026-05-01T12:18:17Z</time></trkpt><trkpt lat="47.8313315123085" lon="13.069897981000457"><ele>494.0</ele><time>2026-05-01T12:18:18Z</time></trkpt><trkpt lat="47.831453906920785" lon="13.070129062490834"><ele>494.0</ele><time>2026-05-01T12:18:19Z</time></trkpt><trkpt lat="47.83158457692327" lon="13.070351600017226"><ele>492.66666666666663</ele><time>2026-05-01T12:18:20Z</time></trkpt><trkpt lat="47.831719051473556" lon="13.070565754691222"><ele>491.33333333333337</ele><time>2026-05-01T12:18:21Z</time></trkpt><trkpt lat="47.831858099626494" lon="13.070769108389264"><ele>490.0</ele><time>2026-05-01T12:18:22Z</time></trkpt><trkpt lat="47.83200111739211" lon="13.070963761702904"><ele>492.6666666666667</ele><time>2026-05-01T12:18:23Z</time></trkpt><trkpt lat="47.83214757002091" lon="13.071151409650197"><ele>495.33333333333337</ele><time>2026-05-01T12:18:24Z</time></trkpt><trkpt lat="47.83229927511843" lon="13.07133072942266"><ele>498.0</ele><time>2026-05-01T12:18:25Z</time></trkpt><trkpt lat="47.83245625977739" lon="13.071500504583911"><ele>497.66666666666663</ele><time>2026-05-01T12:18:26Z</time></trkpt><trkpt lat="47.83261403728365" lon="13.071659403619384"><ele>497.3333333333333</ele><time>2026-05-01T12:18:27Z</time></trkpt><trkpt lat="47.83277832236646" lon="13.071809557135628"><ele>497.0</ele><time>2026-05-01T12:18:28Z</time></trkpt><trkpt lat="47.83294762011134" lon="13.071950504938396"><ele>497.0</ele><time>2026-05-01T12:18:29Z</time></trkpt><trkpt lat="47.83312590596146" lon="13.07207878290743"><ele>497.0</ele><time>2026-05-01T12:18:30Z</time></trkpt><trkpt lat="47.83330467873305" lon="13.072206009530607"><ele>497.0</ele><time>2026-05-01T12:18:31Z</time></trkpt><trkpt lat="47.833487814504565" lon="13.072327020884495"><ele>496.0</ele><time>2026-05-01T12:18:32Z</time></trkpt><trkpt lat="47.83367420969541" lon="13.072446807845054"><ele>495.0</ele><time>2026-05-01T12:18:33Z</time></trkpt><trkpt lat="47.83386140720953" lon="13.072563450502683"><ele>494.0</ele><time>2026-05-01T12:18:34Z</time></trkpt><trkpt lat="47.83405154372856" lon="13.072674931225501"><ele>494.0</ele><time>2026-05-01T12:18:35Z</time></trkpt><trkpt lat="47.83424343703763" lon="13.072782619713003"><ele>494.0</ele><time>2026-05-01T12:18:36Z</time></trkpt><trkpt lat="47.8344339583534" lon="13.072896629699805"><ele>494.0</ele><time>2026-05-01T12:18:37Z</time></trkpt><trkpt lat="47.83462407354365" lon="13.073007977898289"><ele>492.3333333333333</ele><time>2026-05-01T12:18:38Z</time></trkpt><trkpt lat="47.83481470277398" lon="13.073117832434745"><ele>490.66666666666663</ele><time>2026-05-01T12:18:39Z</time></trkpt><trkpt lat="47.83500320244383" lon="13.073227211383058"><ele>489.0</ele><time>2026-05-01T12:18:40Z</time></trkpt><trkpt lat="47.835189464804124" lon="13.073337410872123"><ele>485.0</ele><time>2026-05-01T12:18:41Z</time></trkpt><trkpt lat="47.83537005807147" lon="13.073444333151143"><ele>481.0</ele><time>2026-05-01T12:18:42Z</time></trkpt><trkpt lat="47.835549524845085" lon="13.07354929124537"><ele>477.0</ele><time>2026-05-01T12:18:43Z</time></trkpt><trkpt lat="47.83572731200609" lon="13.07365403441716"><ele>477.0</ele><time>2026-05-01T12:18:44Z</time></trkpt><trkpt lat="47.83590505290983" lon="13.073761388652551"><ele>477.0</ele><time>2026-05-01T12:18:45Z</time></trkpt><trkpt lat="47.836085614197906" lon="13.073864582802909"><ele>477.0</ele><time>2026-05-01T12:18:46Z</time></trkpt><trkpt lat="47.836268786856365" lon="13.07396776247948"><ele>476.66666666666663</ele><time>2026-05-01T12:18:47Z</time></trkpt><trkpt lat="47.836449209451196" lon="13.074075683172454"><ele>476.3333333333333</ele><time>2026-05-01T12:18:48Z</time></trkpt><trkpt lat="47.83663182216572" lon="13.07418296847308"><ele>476.0</ele><time>2026-05-01T12:18:49Z</time></trkpt><trkpt lat="47.836816461869766" lon="13.074293010948802"><ele>483.3333333333333</ele><time>2026-05-01T12:18:50Z</time></trkpt><trkpt lat="47.83700383482494" lon="13.074405270635332"><ele>490.66666666666663</ele><time>2026-05-01T12:18:51Z</time></trkpt><trkpt lat="47.837192941004616" lon="13.07451965731081"><ele>498.0</ele><time>2026-05-01T12:18:52Z</time></trkpt><trkpt lat="47.83738230238354" lon="13.074631863925495"><ele>498.0</ele><time>2026-05-01T12:18:53Z</time></trkpt><trkpt lat="47.83756869117749" lon="13.074743133632738"><ele>498.0</ele><time>2026-05-01T12:18:54Z</time></trkpt><trkpt lat="47.8377396875157" lon="13.0748453932332"><ele>498.0</ele><time>2026-05-01T12:18:55Z</time></trkpt><trkpt lat="47.83791228345118" lon="13.074955488417295"><ele>501.66666666666663</ele><time>2026-05-01T12:18:56Z</time></trkpt><trkpt lat="47.8380848366129" lon="13.075078222523615"><ele>505.3333333333333</ele><time>2026-05-01T12:18:57Z</time></trkpt><trkpt lat="47.83825980812175" lon="13.075212026469712"><ele>509.0</ele><time>2026-05-01T12:18:58Z</time></trkpt><trkpt lat="47.83843243353695" lon="13.075361464369122"><ele>510.0</ele><time>2026-05-01T12:18:59Z</time></trkpt><trkpt lat="47.83860222699156" lon="13.075521699486284"><ele>511.0</ele><time>2026-05-01T12:19:00Z</time></trkpt><trkpt lat="47.83876771785948" lon="13.075694509587583"><ele>512.0</ele><time>2026-05-01T12:19:01Z</time></trkpt><trkpt lat="47.83892622349264" lon="13.075880608043615"><ele>512.0</ele><time>2026-05-01T12:19:02Z</time></trkpt><trkpt lat="47.83907930814627" lon="13.076073345258946"><ele>512.0</ele><time>2026-05-01T12:19:03Z</time></trkpt><trkpt lat="47.839227509250286" lon="13.076262265272504"><ele>512.0</ele><time>2026-05-01T12:19:04Z</time></trkpt><trkpt lat="47.83937195504221" lon="13.076450938803124"><ele>516.3333333333333</ele><time>2026-05-01T12:19:05Z</time></trkpt><trkpt lat="47.839515801430835" lon="13.076636304004142"><ele>520.6666666666666</ele><time>2026-05-01T12:19:06Z</time></trkpt><trkpt lat="47.839656517266505" lon="13.076821224285855"><ele>525.0</ele><time>2026-05-01T12:19:07Z</time></trkpt><trkpt lat="47.83979557665274" lon="13.077006220412592"><ele>525.0</ele><time>2026-05-01T12:19:08Z</time></trkpt><trkpt lat="47.83993399220856" lon="13.07718677502504"><ele>525.0</ele><time>2026-05-01T12:19:09Z</time></trkpt><trkpt lat="47.84007436839155" lon="13.077363032859417"><ele>525.0</ele><time>2026-05-01T12:19:10Z</time></trkpt><trkpt lat="47.840220359642515" lon="13.077538645071796"><ele>526.3333333333334</ele><time>2026-05-01T12:19:11Z</time></trkpt><trkpt lat="47.840374713541074" lon="13.077709476349025"><ele>527.6666666666667</ele><time>2026-05-01T12:19:12Z</time></trkpt><trkpt lat="47.840535519165" lon="13.077875549727176"><ele>529.0</ele><time>2026-05-01T12:19:13Z</time></trkpt><trkpt lat="47.840699315138785" lon="13.078035140023067"><ele>529.0</ele><time>2026-05-01T12:19:14Z</time></trkpt><trkpt lat="47.840866347308186" lon="13.078183267951406"><ele>529.0</ele><time>2026-05-01T12:19:15Z</time></trkpt><trkpt lat="47.84103432145751" lon="13.078316396812681"><ele>529.0</ele><time>2026-05-01T12:19:16Z</time></trkpt><trkpt lat="47.84120777920524" lon="13.078438982820368"><ele>526.6666666666667</ele><time>2026-05-01T12:19:17Z</time></trkpt><trkpt lat="47.84138190410118" lon="13.078551993296317"><ele>524.3333333333334</ele><time>2026-05-01T12:19:18Z</time></trkpt><trkpt lat="47.84155820617797" lon="13.078651869615825"><ele>522.0</ele><time>2026-05-01T12:19:19Z</time></trkpt><trkpt lat="47.841741742663196" lon="13.078742570758747"><ele>522.0</ele><time>2026-05-01T12:19:20Z</time></trkpt><trkpt lat="47.841926854679045" lon="13.078821954859285"><ele>522.0</ele><time>2026-05-01T12:19:21Z</time></trkpt><trkpt lat="47.84211450516712" lon="13.078889172538377"><ele>522.0</ele><time>2026-05-01T12:19:22Z</time></trkpt><trkpt lat="47.84230209141738" lon="13.078945245572184"><ele>522.0</ele><time>2026-05-01T12:19:23Z</time></trkpt><trkpt lat="47.84248957573413" lon="13.078991440103113"><ele>522.0</ele><time>2026-05-01T12:19:24Z</time></trkpt><trkpt lat="47.84267430789063" lon="13.079025176208738"><ele>522.0</ele><time>2026-05-01T12:19:25Z</time></trkpt><trkpt lat="47.84286259598632" lon="13.079046349539524"><ele>518.3333333333334</ele><time>2026-05-01T12:19:26Z</time></trkpt><trkpt lat="47.84304991270359" lon="13.079057031437465"><ele>514.6666666666667</ele><time>2026-05-01T12:19:27Z</time></trkpt><trkpt lat="47.84323726003315" lon="13.079060569860744"><ele>511.0</ele><time>2026-05-01T12:19:28Z</time></trkpt><trkpt lat="47.843426305253196" lon="13.07905954815044"><ele>512.6666666666667</ele><time>2026-05-01T12:19:29Z</time></trkpt><trkpt lat="47.84361608459742" lon="13.079055823340235"><ele>514.3333333333334</ele><time>2026-05-01T12:19:30Z</time></trkpt><trkpt lat="47.843811715793144" lon="13.079051714945965"><ele>516.0</ele><time>2026-05-01T12:19:31Z</time></trkpt><trkpt lat="47.84400294984571" lon="13.079047690796756"><ele>516.0</ele><time>2026-05-01T12:19:32Z</time></trkpt><trkpt lat="47.84419503892539" lon="13.079041957354699"><ele>516.0</ele><time>2026-05-01T12:19:33Z</time></trkpt><trkpt lat="47.844386052652474" lon="13.079040167713755"><ele>516.0</ele><time>2026-05-01T12:19:34Z</time></trkpt><trkpt lat="47.84457564945825" lon="13.079042908729054"><ele>516.0</ele><time>2026-05-01T12:19:35Z</time></trkpt><trkpt lat="47.84476725611763" lon="13.079043126820043"><ele>516.0</ele><time>2026-05-01T12:19:36Z</time></trkpt><trkpt lat="47.844957212805774" lon="13.079040569918709"><ele>516.0</ele><time>2026-05-01T12:19:37Z</time></trkpt><trkpt lat="47.84514772517469" lon="13.079037405114233"><ele>516.0</ele><time>2026-05-01T12:19:38Z</time></trkpt><trkpt lat="47.84533986153581" lon="13.079037896482037"><ele>516.0</ele><time>2026-05-01T12:19:39.001Z</time></trkpt><trkpt lat="47.84553326476969" lon="13.07904905697021"><ele>516.0</ele><time>2026-05-01T12:19:40.001Z</time></trkpt><trkpt lat="47.84572976484385" lon="13.07906829893032"><ele>513.0</ele><time>2026-05-01T12:19:41.001Z</time></trkpt><trkpt lat="47.845928068735844" lon="13.079101542250633"><ele>510.0</ele><time>2026-05-01T12:19:42.001Z</time></trkpt><trkpt lat="47.8461282784859" lon="13.079149379991753"><ele>507.0</ele><time>2026-05-01T12:19:43.001Z</time></trkpt><trkpt lat="47.846328112958105" lon="13.079208308819364"><ele>505.66666666666663</ele><time>2026-05-01T12:19:44.001Z</time></trkpt><trkpt lat="47.846526438463364" lon="13.079275628721154"><ele>504.3333333333333</ele><time>2026-05-01T12:19:45.001Z</time></trkpt><trkpt lat="47.8467222396919" lon="13.079357551733533"><ele>503.0</ele><time>2026-05-01T12:19:46.001Z</time></trkpt><trkpt lat="47.8469157245433" lon="13.079455465717412"><ele>503.0</ele><time>2026-05-01T12:19:47.001Z</time></trkpt><trkpt lat="47.84710887493797" lon="13.079564891958334"><ele>503.0</ele><time>2026-05-01T12:19:48.001Z</time></trkpt><trkpt lat="47.84729889941712" lon="13.079687063607784"><ele>503.0</ele><time>2026-05-01T12:19:49.001Z</time></trkpt><trkpt lat="47.84748624693155" lon="13.079819946345676"><ele>504.3333333333333</ele><time>2026-05-01T12:19:50.001Z</time></trkpt><trkpt lat="47.84766978963258" lon="13.079963081638347"><ele>505.66666666666663</ele><time>2026-05-01T12:19:51.001Z</time></trkpt><trkpt lat="47.847848401134456" lon="13.080121551433786"><ele>507.0</ele><time>2026-05-01T12:19:52.001Z</time></trkpt><trkpt lat="47.84802102900285" lon="13.080290183920576"><ele>507.0</ele><time>2026-05-01T12:19:53.001Z</time></trkpt><trkpt lat="47.8481813187583" lon="13.080459695274781"><ele>507.0</ele><time>2026-05-01T12:19:54.001Z</time></trkpt><trkpt lat="47.848330130262234" lon="13.080627578080176"><ele>507.0</ele><time>2026-05-01T12:19:55.001Z</time></trkpt><trkpt lat="47.84847474898519" lon="13.080804175652949"><ele>505.33333333333337</ele><time>2026-05-01T12:19:56Z</time></trkpt><trkpt lat="47.848613177494144" lon="13.080986811898615"><ele>503.6666666666667</ele><time>2026-05-01T12:19:57Z</time></trkpt><trkpt lat="47.84875002265261" lon="13.081183358289802"><ele>502.0</ele><time>2026-05-01T12:19:58Z</time></trkpt><trkpt lat="47.84888115256469" lon="13.08139189783611"><ele>502.0</ele><time>2026-05-01T12:19:59Z</time></trkpt><trkpt lat="47.849004774049384" lon="13.08159743538149"><ele>502.0</ele><time>2026-05-01T12:20:00Z</time></trkpt><trkpt lat="47.84911508766375" lon="13.081803383731389"><ele>502.0</ele><time>2026-05-01T12:20:01Z</time></trkpt><trkpt lat="47.849222525143965" lon="13.082011710745704"><ele>501.0</ele><time>2026-05-01T12:20:02Z</time></trkpt><trkpt lat="47.84932904836782" lon="13.082225906702174"><ele>500.0</ele><time>2026-05-01T12:20:03Z</time></trkpt><trkpt lat="47.8494284481796" lon="13.08244968418383"><ele>499.0</ele><time>2026-05-01T12:20:04Z</time></trkpt><trkpt lat="47.849523099541166" lon="13.08268286322348"><ele>501.0</ele><time>2026-05-01T12:20:05Z</time></trkpt><trkpt lat="47.849613805947776" lon="13.082925666270038"><ele>503.0</ele><time>2026-05-01T12:20:06Z</time></trkpt><trkpt lat="47.849697828008786" lon="13.083171774719563"><ele>505.0</ele><time>2026-05-01T12:20:07Z</time></trkpt><trkpt lat="47.84977411753604" lon="13.083420733851815"><ele>505.0</ele><time>2026-05-01T12:20:08Z</time></trkpt><trkpt lat="47.84984410688832" lon="13.083673196285012"><ele>505.0</ele><time>2026-05-01T12:20:09Z</time></trkpt><trkpt lat="47.84990780865219" lon="13.083926525102699"><ele>505.0</ele><time>2026-05-01T12:20:10Z</time></trkpt><trkpt lat="47.849966566271895" lon="13.084177915811685"><ele>505.0</ele><time>2026-05-01T12:20:11Z</time></trkpt><trkpt lat="47.85001805050749" lon="13.084428286643021"><ele>505.0</ele><time>2026-05-01T12:20:12Z</time></trkpt><trkpt lat="47.8500675555911" lon="13.084683435858452"><ele>505.0</ele><time>2026-05-01T12:20:13Z</time></trkpt><trkpt lat="47.85011653658797" lon="13.084936909053496"><ele>509.0</ele><time>2026-05-01T12:20:14Z</time></trkpt><trkpt lat="47.85016515528324" lon="13.085193069089394"><ele>513.0</ele><time>2026-05-01T12:20:15Z</time></trkpt><trkpt lat="47.85021126034504" lon="13.0854474868081"><ele>517.0</ele><time>2026-05-01T12:20:16Z</time></trkpt><trkpt lat="47.850257726979464" lon="13.085699404417374"><ele>517.0</ele><time>2026-05-01T12:20:17Z</time></trkpt><trkpt lat="47.85030004728438" lon="13.085951545027918"><ele>517.0</ele><time>2026-05-01T12:20:18Z</time></trkpt><trkpt lat="47.85034412782097" lon="13.086204012586139"><ele>517.0</ele><time>2026-05-01T12:20:19Z</time></trkpt><trkpt lat="47.850388375825816" lon="13.086453466343691"><ele>516.6666666666667</ele><time>2026-05-01T12:20:20Z</time></trkpt><trkpt lat="47.85043218121956" lon="13.0867016275529"><ele>516.3333333333334</ele><time>2026-05-01T12:20:21Z</time></trkpt><trkpt lat="47.85047956172468" lon="13.08695084539433"><ele>516.0</ele><time>2026-05-01T12:20:22Z</time></trkpt><trkpt lat="47.85052719587254" lon="13.087206027785017"><ele>517.3333333333334</ele><time>2026-05-01T12:20:23Z</time></trkpt><trkpt lat="47.85057401981347" lon="13.087463608661018"><ele>518.6666666666667</ele><time>2026-05-01T12:20:24Z</time></trkpt><trkpt lat="47.85061955254403" lon="13.087724747782211"><ele>520.0</ele><time>2026-05-01T12:20:25Z</time></trkpt><trkpt lat="47.85066644431723" lon="13.087990056262871"><ele>520.6666666666667</ele><time>2026-05-01T12:20:26Z</time></trkpt><trkpt lat="47.850714365079064" lon="13.08825992795179"><ele>521.3333333333334</ele><time>2026-05-01T12:20:27Z</time></trkpt><trkpt lat="47.85076403999634" lon="13.088535700721582"><ele>522.0</ele><time>2026-05-01T12:20:28Z</time></trkpt><trkpt lat="47.85081319744669" lon="13.08881775208576"><ele>522.0</ele><time>2026-05-01T12:20:29Z</time></trkpt><trkpt lat="47.85086190100706" lon="13.089102141238568"><ele>522.0</ele><time>2026-05-01T12:20:30Z</time></trkpt><trkpt lat="47.8509052800041" lon="13.089378922370734"><ele>522.0</ele><time>2026-05-01T12:20:31Z</time></trkpt><trkpt lat="47.8509446554722" lon="13.089639663711472"><ele>522.0</ele><time>2026-05-01T12:20:32Z</time></trkpt><trkpt lat="47.85098376171228" lon="13.089905260017797"><ele>522.0</ele><time>2026-05-01T12:20:33Z</time></trkpt><trkpt lat="47.85101881432665" lon="13.090176136055941"><ele>522.0</ele><time>2026-05-01T12:20:34Z</time></trkpt><trkpt lat="47.85105300545339" lon="13.09045424363089"><ele>522.0</ele><time>2026-05-01T12:20:35Z</time></trkpt><trkpt lat="47.851085363856434" lon="13.090736648536518"><ele>522.0</ele><time>2026-05-01T12:20:36Z</time></trkpt><trkpt lat="47.851113115818364" lon="13.09101866231714"><ele>522.0</ele><time>2026-05-01T12:20:37Z</time></trkpt><trkpt lat="47.851138422909486" lon="13.091289184683726"><ele>521.3333333333334</ele><time>2026-05-01T12:20:38Z</time></trkpt><trkpt lat="47.851162581212996" lon="13.091565743314362"><ele>520.6666666666667</ele><time>2026-05-01T12:20:39Z</time></trkpt><trkpt lat="47.851181847849645" lon="13.091851399046263"><ele>520.0</ele><time>2026-05-01T12:20:40Z</time></trkpt><trkpt lat="47.85119427278014" lon="13.09213151800702"><ele>520.0</ele><time>2026-05-01T12:20:41Z</time></trkpt><trkpt lat="47.851206982425055" lon="13.092417883658326"><ele>520.0</ele><time>2026-05-01T12:20:42Z</time></trkpt><trkpt lat="47.85121726592723" lon="13.092708208460337"><ele>520.0</ele><time>2026-05-01T12:20:43Z</time></trkpt><trkpt lat="47.85122611017572" lon="13.093000004538826"><ele>520.6666666666667</ele><time>2026-05-01T12:20:44Z</time></trkpt><trkpt lat="47.851234294952384" lon="13.09328889919959"><ele>521.3333333333334</ele><time>2026-05-01T12:20:45Z</time></trkpt><trkpt lat="47.851241219345134" lon="13.093577138526241"><ele>522.0</ele><time>2026-05-01T12:20:46Z</time></trkpt><trkpt lat="47.85124634376871" lon="13.093863778701973"><ele>522.6666666666666</ele><time>2026-05-01T12:20:47Z</time></trkpt><trkpt lat="47.85125025737256" lon="13.094150225343274"><ele>523.3333333333333</ele><time>2026-05-01T12:20:48Z</time></trkpt><trkpt lat="47.851254066318255" lon="13.094436112829268"><ele>524.0</ele><time>2026-05-01T12:20:49Z</time></trkpt><trkpt lat="47.85125850747622" lon="13.094720688130254"><ele>525.3333333333333</ele><time>2026-05-01T12:20:50Z</time></trkpt><trkpt lat="47.85126192399951" lon="13.095003922197849"><ele>526.6666666666666</ele><time>2026-05-01T12:20:51Z</time></trkpt><trkpt lat="47.8512664571905" lon="13.095287295345216"><ele>528.0</ele><time>2026-05-01T12:20:52Z</time></trkpt><trkpt lat="47.851270207343944" lon="13.095567235323857"><ele>529.3333333333334</ele><time>2026-05-01T12:20:53Z</time></trkpt><trkpt lat="47.85127509260483" lon="13.095848093667191"><ele>530.6666666666667</ele><time>2026-05-01T12:20:54Z</time></trkpt><trkpt lat="47.85128054200545" lon="13.096128142654603"><ele>532.0</ele><time>2026-05-01T12:20:55Z</time></trkpt><trkpt lat="47.85128507386042" lon="13.096407818121975"><ele>533.6666666666667</ele><time>2026-05-01T12:20:56Z</time></trkpt><trkpt lat="47.85129085720136" lon="13.096689822522984"><ele>535.3333333333334</ele><time>2026-05-01T12:20:57Z</time></trkpt><trkpt lat="47.851297338413104" lon="13.096968724648091"><ele>537.0</ele><time>2026-05-01T12:20:58Z</time></trkpt><trkpt lat="47.85130338972958" lon="13.09724727175871"><ele>538.3333333333334</ele><time>2026-05-01T12:20:59Z</time></trkpt><trkpt lat="47.85131021619194" lon="13.097529403122659"><ele>539.6666666666667</ele><time>2026-05-01T12:21:00Z</time></trkpt><trkpt lat="47.85131537494993" lon="13.097814328592833"><ele>541.0</ele><time>2026-05-01T12:21:01Z</time></trkpt><trkpt lat="47.8513246728786" lon="13.098104234963662"><ele>542.6666666666667</ele><time>2026-05-01T12:21:02Z</time></trkpt><trkpt lat="47.85133607694125" lon="13.098401585775047"><ele>544.3333333333334</ele><time>2026-05-01T12:21:03Z</time></trkpt><trkpt lat="47.851351695197934" lon="13.098701192132213"><ele>546.0</ele><time>2026-05-01T12:21:04Z</time></trkpt><trkpt lat="47.851371899692744" lon="13.098998077946993"><ele>548.0</ele><time>2026-05-01T12:21:05Z</time></trkpt><trkpt lat="47.85139473641582" lon="13.099291593026551"><ele>550.0</ele><time>2026-05-01T12:21:06Z</time></trkpt><trkpt lat="47.851420837268925" lon="13.099584637541737"><ele>552.0</ele><time>2026-05-01T12:21:07Z</time></trkpt><trkpt lat="47.8514482771591" lon="13.099875721897533"><ele>552.3333333333334</ele><time>2026-05-01T12:21:08Z</time></trkpt><trkpt lat="47.85147961394037" lon="13.10016519221216"><ele>552.6666666666667</ele><time>2026-05-01T12:21:09Z</time></trkpt><trkpt lat="47.8515133312227" lon="13.100452167749587"><ele>553.0</ele><time>2026-05-01T12:21:10Z</time></trkpt><trkpt lat="47.85155167678159" lon="13.100737521982348"><ele>553.0</ele><time>2026-05-01T12:21:11Z</time></trkpt><trkpt lat="47.85159148242441" lon="13.101020554923496"><ele>553.0</ele><time>2026-05-01T12:21:12Z</time></trkpt><trkpt lat="47.85163406591901" lon="13.101303367376522"><ele>553.0</ele><time>2026-05-01T12:21:13Z</time></trkpt><trkpt lat="47.85167730313534" lon="13.101584489267076"><ele>553.3333333333334</ele><time>2026-05-01T12:21:14Z</time></trkpt><trkpt lat="47.85172150418907" lon="13.101865857293996"><ele>553.6666666666666</ele><time>2026-05-01T12:21:15Z</time></trkpt><trkpt lat="47.85176767016934" lon="13.102145405133806"><ele>554.0</ele><time>2026-05-01T12:21:16Z</time></trkpt><trkpt lat="47.851811553875635" lon="13.102423690913596"><ele>555.6666666666666</ele><time>2026-05-01T12:21:17Z</time></trkpt><trkpt lat="47.8518572418637" lon="13.102698716859582"><ele>557.3333333333334</ele><time>2026-05-01T12:21:18Z</time></trkpt><trkpt lat="47.85190159770539" lon="13.10296943735278"><ele>559.0</ele><time>2026-05-01T12:21:19Z</time></trkpt><trkpt lat="47.85194448314355" lon="13.103237467851288"><ele>558.0</ele><time>2026-05-01T12:21:20Z</time></trkpt><trkpt lat="47.85198734586984" lon="13.103504477325174"><ele>557.0</ele><time>2026-05-01T12:21:21Z</time></trkpt><trkpt lat="47.85202876079292" lon="13.103766862489248"><ele>556.0</ele><time>2026-05-01T12:21:22Z</time></trkpt><trkpt lat="47.852072085087755" lon="13.104030524354581"><ele>555.0</ele><time>2026-05-01T12:21:23Z</time></trkpt><trkpt lat="47.852116647686984" lon="13.10429847939158"><ele>554.0</ele><time>2026-05-01T12:21:24Z</time></trkpt><trkpt lat="47.85216284217844" lon="13.104573993812753"><ele>553.0</ele><time>2026-05-01T12:21:25Z</time></trkpt><trkpt lat="47.85220862315004" lon="13.104849866536528"><ele>553.0</ele><time>2026-05-01T12:21:26Z</time></trkpt><trkpt lat="47.85225687110668" lon="13.105127187076699"><ele>553.0</ele><time>2026-05-01T12:21:27Z</time></trkpt><trkpt lat="47.85230129757129" lon="13.105405261870443"><ele>553.0</ele><time>2026-05-01T12:21:28Z</time></trkpt><trkpt lat="47.85234628954068" lon="13.10568009464377"><ele>551.3333333333334</ele><time>2026-05-01T12:21:29Z</time></trkpt><trkpt lat="47.85238985083414" lon="13.10595028931369"><ele>549.6666666666666</ele><time>2026-05-01T12:21:30Z</time></trkpt><trkpt lat="47.852435487354334" lon="13.106220564667272"><ele>548.0</ele><time>2026-05-01T12:21:31Z</time></trkpt><trkpt lat="47.85247926331281" lon="13.106499027239417"><ele>545.6666666666666</ele><time>2026-05-01T12:21:32Z</time></trkpt><trkpt lat="47.85252402243981" lon="13.106779103932354"><ele>543.3333333333334</ele><time>2026-05-01T12:21:33Z</time></trkpt><trkpt lat="47.85257268340027" lon="13.107062113995664"><ele>541.0</ele><time>2026-05-01T12:21:34Z</time></trkpt><trkpt lat="47.85262228259915" lon="13.10734866724171"><ele>541.6666666666667</ele><time>2026-05-01T12:21:35Z</time></trkpt><trkpt lat="47.85266953786018" lon="13.107634845452571"><ele>542.3333333333334</ele><time>2026-05-01T12:21:36Z</time></trkpt><trkpt lat="47.852715566929376" lon="13.107917772402583"><ele>543.0</ele><time>2026-05-01T12:21:37Z</time></trkpt><trkpt lat="47.852759081076435" lon="13.108193827438468"><ele>543.0</ele><time>2026-05-01T12:21:38Z</time></trkpt><trkpt lat="47.85280327597382" lon="13.108469268347154"><ele>543.0</ele><time>2026-05-01T12:21:39Z</time></trkpt><trkpt lat="47.852849362901566" lon="13.108742883852855"><ele>543.0</ele><time>2026-05-01T12:21:40Z</time></trkpt><trkpt lat="47.85289572496784" lon="13.109012909902626"><ele>545.3333333333334</ele><time>2026-05-01T12:21:41Z</time></trkpt><trkpt lat="47.85293903467115" lon="13.109280382606531"><ele>547.6666666666667</ele><time>2026-05-01T12:21:42Z</time></trkpt><trkpt lat="47.85297870884755" lon="13.109548820264228"><ele>550.0</ele><time>2026-05-01T12:21:43Z</time></trkpt><trkpt lat="47.853019262810875" lon="13.109821736721026"><ele>553.0</ele><time>2026-05-01T12:21:44Z</time></trkpt><trkpt lat="47.853063773379425" lon="13.110099952917645"><ele>556.0</ele><time>2026-05-01T12:21:45Z</time></trkpt><trkpt lat="47.85310992356821" lon="13.110383124823096"><ele>559.0</ele><time>2026-05-01T12:21:46Z</time></trkpt><trkpt lat="47.85315693255449" lon="13.11066807536605"><ele>560.6666666666667</ele><time>2026-05-01T12:21:47Z</time></trkpt><trkpt lat="47.85320578472365" lon="13.110955606443191"><ele>562.3333333333334</ele><time>2026-05-01T12:21:48Z</time></trkpt><trkpt lat="47.853252876880525" lon="13.111245048614942"><ele>564.0</ele><time>2026-05-01T12:21:49Z</time></trkpt><trkpt lat="47.853300237339454" lon="13.111536707140516"><ele>564.6666666666666</ele><time>2026-05-01T12:21:50Z</time></trkpt><trkpt lat="47.85335423566091" lon="13.111824969926294"><ele>565.3333333333333</ele><time>2026-05-01T12:21:51Z</time></trkpt><trkpt lat="47.85340138598388" lon="13.112112883016138"><ele>566.0</ele><time>2026-05-01T12:21:52Z</time></trkpt><trkpt lat="47.85344589974787" lon="13.1124025164146"><ele>566.6666666666666</ele><time>2026-05-01T12:21:53Z</time></trkpt><trkpt lat="47.85349227439446" lon="13.112687285914124"><ele>567.3333333333334</ele><time>2026-05-01T12:21:54Z</time></trkpt><trkpt lat="47.85354350317343" lon="13.112968346497281"><ele>568.0</ele><time>2026-05-01T12:21:55.001Z</time></trkpt><trkpt lat="47.85359660629772" lon="13.113249666183979"><ele>568.0</ele><time>2026-05-01T12:21:56.001Z</time></trkpt><trkpt lat="47.85365044386086" lon="13.113530806464558"><ele>568.0</ele><time>2026-05-01T12:21:57.001Z</time></trkpt><trkpt lat="47.85370438556631" lon="13.11381283380109"><ele>568.0</ele><time>2026-05-01T12:21:58.001Z</time></trkpt><trkpt lat="47.853757767308174" lon="13.114095160321053"><ele>570.0</ele><time>2026-05-01T12:21:59.001Z</time></trkpt><trkpt lat="47.85381252203486" lon="13.114375688733572"><ele>572.0</ele><time>2026-05-01T12:22:00.001Z</time></trkpt><trkpt lat="47.853869251576725" lon="13.114653499745707"><ele>574.0</ele><time>2026-05-01T12:22:01.001Z</time></trkpt><trkpt lat="47.85392492819912" lon="13.114927659854583"><ele>574.6666666666667</ele><time>2026-05-01T12:22:02Z</time></trkpt><trkpt lat="47.85398143258819" lon="13.115205095944814"><ele>575.3333333333334</ele><time>2026-05-01T12:22:03Z</time></trkpt><trkpt lat="47.85403730804417" lon="13.115480636841868"><ele>576.0</ele><time>2026-05-01T12:22:04Z</time></trkpt><trkpt lat="47.85409148230558" lon="13.11575481931069"><ele>576.0</ele><time>2026-05-01T12:22:05Z</time></trkpt><trkpt lat="47.85414583909769" lon="13.116027786081645"><ele>576.0</ele><time>2026-05-01T12:22:06Z</time></trkpt><trkpt lat="47.85420261228368" lon="13.116300237953975"><ele>576.0</ele><time>2026-05-01T12:22:07Z</time></trkpt><trkpt lat="47.85426081042906" lon="13.11657560723494"><ele>575.6666666666666</ele><time>2026-05-01T12:22:08Z</time></trkpt><trkpt lat="47.854318299648185" lon="13.116851475878612"><ele>575.3333333333333</ele><time>2026-05-01T12:22:09Z</time></trkpt><trkpt lat="47.85437520416808" lon="13.117127356615942"><ele>575.0</ele><time>2026-05-01T12:22:10Z</time></trkpt><trkpt lat="47.854432579498656" lon="13.117405687505286"><ele>575.0</ele><time>2026-05-01T12:22:11Z</time></trkpt><trkpt lat="47.854487748986145" lon="13.117684514074217"><ele>575.0</ele><time>2026-05-01T12:22:12Z</time></trkpt><trkpt lat="47.854545984869375" lon="13.11796234994662"><ele>575.0</ele><time>2026-05-01T12:22:13Z</time></trkpt><trkpt lat="47.85460321490886" lon="13.118224621008931"><ele>575.3333333333333</ele><time>2026-05-01T12:22:14Z</time></trkpt><trkpt lat="47.854659092089534" lon="13.118481854025463"><ele>575.6666666666666</ele><time>2026-05-01T12:22:15Z</time></trkpt><trkpt lat="47.85471844101289" lon="13.118747472750085"><ele>576.0</ele><time>2026-05-01T12:22:16Z</time></trkpt><trkpt lat="47.85477941766065" lon="13.119015543759064"><ele>575.6666666666666</ele><time>2026-05-01T12:22:17Z</time></trkpt><trkpt lat="47.85484194504517" lon="13.119287742708883"><ele>575.3333333333333</ele><time>2026-05-01T12:22:18Z</time></trkpt><trkpt lat="47.85490116700775" lon="13.119562015384863"><ele>575.0</ele><time>2026-05-01T12:22:19Z</time></trkpt><trkpt lat="47.85495874780013" lon="13.119834850222725"><ele>575.0</ele><time>2026-05-01T12:22:20Z</time></trkpt><trkpt lat="47.85501531302844" lon="13.120106261334106"><ele>575.0</ele><time>2026-05-01T12:22:21Z</time></trkpt><trkpt lat="47.855071935827226" lon="13.120376561492522"><ele>575.0</ele><time>2026-05-01T12:22:22Z</time></trkpt><trkpt lat="47.85512913640046" lon="13.12064473667572"><ele>573.6666666666666</ele><time>2026-05-01T12:22:23Z</time></trkpt><trkpt lat="47.85518572072897" lon="13.120910751887507"><ele>572.3333333333334</ele><time>2026-05-01T12:22:24Z</time></trkpt><trkpt lat="47.85524531880842" lon="13.12117799846653"><ele>571.0</ele><time>2026-05-01T12:22:25Z</time></trkpt><trkpt lat="47.85530431072636" lon="13.121447968344476"><ele>571.3333333333334</ele><time>2026-05-01T12:22:26Z</time></trkpt><trkpt lat="47.85534673390263" lon="13.121728948873754"><ele>571.6666666666666</ele><time>2026-05-01T12:22:27Z</time></trkpt><trkpt lat="47.855403360534694" lon="13.122004147776366"><ele>572.0</ele><time>2026-05-01T12:22:28Z</time></trkpt><trkpt lat="47.855476412782" lon="13.122275814064043"><ele>572.6666666666666</ele><time>2026-05-01T12:22:29Z</time></trkpt><trkpt lat="47.85553048921782" lon="13.122557243148286"><ele>573.3333333333334</ele><time>2026-05-01T12:22:30Z</time></trkpt><trkpt lat="47.85558490541499" lon="13.122839767323104"><ele>574.0</ele><time>2026-05-01T12:22:31Z</time></trkpt><trkpt lat="47.8556222778627" lon="13.12312500530042"><ele>574.3333333333334</ele><time>2026-05-01T12:22:32Z</time></trkpt><trkpt lat="47.85567350907624" lon="13.123402381701583"><ele>574.6666666666666</ele><time>2026-05-01T12:22:33Z</time></trkpt><trkpt lat="47.85572419587939" lon="13.123680454328131"><ele>575.0</ele><time>2026-05-01T12:22:34Z</time></trkpt><trkpt lat="47.85577310019844" lon="13.123958443607998"><ele>576.0</ele><time>2026-05-01T12:22:35Z</time></trkpt><trkpt lat="47.85581896239811" lon="13.124237727728362"><ele>577.0</ele><time>2026-05-01T12:22:36Z</time></trkpt><trkpt lat="47.85586481405584" lon="13.124521071389799"><ele>578.0</ele><time>2026-05-01T12:22:37Z</time></trkpt><trkpt lat="47.8559112022191" lon="13.124807730779287"><ele>575.6666666666666</ele><time>2026-05-01T12:22:38Z</time></trkpt><trkpt lat="47.85597323761004" lon="13.1250925917279"><ele>573.3333333333334</ele><time>2026-05-01T12:22:39Z</time></trkpt><trkpt lat="47.856012040615305" lon="13.12538862313699"><ele>571.0</ele><time>2026-05-01T12:22:40Z</time></trkpt><trkpt lat="47.856048178431" lon="13.125686186782563"><ele>572.3333333333334</ele><time>2026-05-01T12:22:41Z</time></trkpt><trkpt lat="47.856083661777" lon="13.125983043090953"><ele>573.6666666666666</ele><time>2026-05-01T12:22:42Z</time></trkpt><trkpt lat="47.85611882223512" lon="13.126281333869214"><ele>575.0</ele><time>2026-05-01T12:22:43Z</time></trkpt><trkpt lat="47.85615100217518" lon="13.126580395680936"><ele>576.3333333333333</ele><time>2026-05-01T12:22:44Z</time></trkpt><trkpt lat="47.85618222849985" lon="13.126878223880924"><ele>577.6666666666666</ele><time>2026-05-01T12:22:45Z</time></trkpt><trkpt lat="47.85620818424247" lon="13.127176427348564"><ele>579.0</ele><time>2026-05-01T12:22:46Z</time></trkpt><trkpt lat="47.85623349261176" lon="13.12747330453912"><ele>579.0</ele><time>2026-05-01T12:22:47Z</time></trkpt><trkpt lat="47.85625763933213" lon="13.127768810232116"><ele>579.0</ele><time>2026-05-01T12:22:48Z</time></trkpt><trkpt lat="47.85628010575758" lon="13.128061813601775"><ele>579.0</ele><time>2026-05-01T12:22:49Z</time></trkpt><trkpt lat="47.85630064841512" lon="13.128356132464535"><ele>580.0</ele><time>2026-05-01T12:22:50Z</time></trkpt><trkpt lat="47.856319221003275" lon="13.128653023246137"><ele>581.0</ele><time>2026-05-01T12:22:51Z</time></trkpt><trkpt lat="47.85633347632266" lon="13.128951956478463"><ele>582.0</ele><time>2026-05-01T12:22:52Z</time></trkpt><trkpt lat="47.85634725130481" lon="13.12925398307339"><ele>582.0</ele><time>2026-05-01T12:22:53Z</time></trkpt><trkpt lat="47.856359970553534" lon="13.129556499914305"><ele>582.0</ele><time>2026-05-01T12:22:54Z</time></trkpt><trkpt lat="47.85637100175437" lon="13.129857485809861"><ele>582.0</ele><time>2026-05-01T12:22:55Z</time></trkpt><trkpt lat="47.8563788881" lon="13.130161248677089"><ele>582.0</ele><time>2026-05-01T12:22:56Z</time></trkpt><trkpt lat="47.85638656176501" lon="13.130463886952825"><ele>582.0</ele><time>2026-05-01T12:22:57Z</time></trkpt><trkpt lat="47.856389430697924" lon="13.130767406662823"><ele>582.0</ele><time>2026-05-01T12:22:58Z</time></trkpt><trkpt lat="47.85639023300757" lon="13.13107075442199"><ele>582.0</ele><time>2026-05-01T12:22:59Z</time></trkpt><trkpt lat="47.85638591890692" lon="13.131374994349265"><ele>582.0</ele><time>2026-05-01T12:23:00Z</time></trkpt><trkpt lat="47.856381723919725" lon="13.131680383838066"><ele>582.0</ele><time>2026-05-01T12:23:01Z</time></trkpt><trkpt lat="47.85637589603539" lon="13.131985750777389"><ele>582.0</ele><time>2026-05-01T12:23:02Z</time></trkpt><trkpt lat="47.8563497203394" lon="13.132289181680816"><ele>582.0</ele><time>2026-05-01T12:23:03Z</time></trkpt><trkpt lat="47.856339593415726" lon="13.132593712948076"><ele>582.0</ele><time>2026-05-01T12:23:04Z</time></trkpt><trkpt lat="47.85632746795412" lon="13.132897214475234"><ele>582.0</ele><time>2026-05-01T12:23:05Z</time></trkpt><trkpt lat="47.85631467097541" lon="13.133201206121646"><ele>582.0</ele><time>2026-05-01T12:23:06Z</time></trkpt><trkpt lat="47.85630126270566" lon="13.13350236084661"><ele>582.0</ele><time>2026-05-01T12:23:07Z</time></trkpt><trkpt lat="47.856286291450694" lon="13.133805156045465"><ele>583.0</ele><time>2026-05-01T12:23:08Z</time></trkpt><trkpt lat="47.856268293768984" lon="13.134109358393427"><ele>584.0</ele><time>2026-05-01T12:23:09Z</time></trkpt><trkpt lat="47.85624893180517" lon="13.134412350914408"><ele>585.0</ele><time>2026-05-01T12:23:10Z</time></trkpt><trkpt lat="47.8562277012975" lon="13.134714939155312"><ele>585.3333333333334</ele><time>2026-05-01T12:23:11Z</time></trkpt><trkpt lat="47.85620662945704" lon="13.135015265807043"><ele>585.6666666666667</ele><time>2026-05-01T12:23:12Z</time></trkpt><trkpt lat="47.85618467413153" lon="13.135313160604149"><ele>586.0</ele><time>2026-05-01T12:23:13Z</time></trkpt><trkpt lat="47.85616243104601" lon="13.1356096662315"><ele>587.0</ele><time>2026-05-01T12:23:14Z</time></trkpt><trkpt lat="47.85614003220075" lon="13.135908248495202"><ele>588.0</ele><time>2026-05-01T12:23:15Z</time></trkpt><trkpt lat="47.8561178317564" lon="13.13620418560954"><ele>589.0</ele><time>2026-05-01T12:23:16Z</time></trkpt><trkpt lat="47.8561105753386" lon="13.136503314462313"><ele>589.6666666666667</ele><time>2026-05-01T12:23:17Z</time></trkpt><trkpt lat="47.85608255179347" lon="13.136798971154816"><ele>590.3333333333334</ele><time>2026-05-01T12:23:18Z</time></trkpt><trkpt lat="47.8560554480136" lon="13.137094442343951"><ele>591.0</ele><time>2026-05-01T12:23:19Z</time></trkpt><trkpt lat="47.85602831570646" lon="13.137387664817302"><ele>591.0</ele><time>2026-05-01T12:23:20Z</time></trkpt><trkpt lat="47.856002138730275" lon="13.1376807186107"><ele>591.0</ele><time>2026-05-01T12:23:21Z</time></trkpt><trkpt lat="47.855975064346254" lon="13.137972630466699"><ele>591.0</ele><time>2026-05-01T12:23:22Z</time></trkpt><trkpt lat="47.85594816717199" lon="13.138260463353127"><ele>593.6666666666666</ele><time>2026-05-01T12:23:23Z</time></trkpt><trkpt lat="47.855923372638784" lon="13.1385486809222"><ele>596.3333333333333</ele><time>2026-05-01T12:23:24Z</time></trkpt><trkpt lat="47.85589689812287" lon="13.138836829376507"><ele>599.0</ele><time>2026-05-01T12:23:25Z</time></trkpt><trkpt lat="47.85586991475162" lon="13.139127892462785"><ele>599.0</ele><time>2026-05-01T12:23:26Z</time></trkpt><trkpt lat="47.85584161890402" lon="13.139416548728908"><ele>599.0</ele><time>2026-05-01T12:23:27Z</time></trkpt><trkpt lat="47.85581371127343" lon="13.139704943981354"><ele>599.0</ele><time>2026-05-01T12:23:28Z</time></trkpt><trkpt lat="47.855783910890004" lon="13.139991957370478"><ele>599.0</ele><time>2026-05-01T12:23:29Z</time></trkpt><trkpt lat="47.85575700817987" lon="13.140279295668096"><ele>599.0</ele><time>2026-05-01T12:23:30Z</time></trkpt><trkpt lat="47.85573185330169" lon="13.140565294203794"><ele>599.0</ele><time>2026-05-01T12:23:31Z</time></trkpt><trkpt lat="47.85570666056677" lon="13.140852307095003"><ele>599.0</ele><time>2026-05-01T12:23:32Z</time></trkpt><trkpt lat="47.85567920292895" lon="13.141142004986735"><ele>599.0</ele><time>2026-05-01T12:23:33Z</time></trkpt><trkpt lat="47.85564819500978" lon="13.14143341348834"><ele>599.0</ele><time>2026-05-01T12:23:34Z</time></trkpt><trkpt lat="47.85561799359667" lon="13.141726212244217"><ele>599.3333333333333</ele><time>2026-05-01T12:23:35Z</time></trkpt><trkpt lat="47.85558902056034" lon="13.1420218664184"><ele>599.6666666666666</ele><time>2026-05-01T12:23:36Z</time></trkpt><trkpt lat="47.855563214473825" lon="13.142318764657835"><ele>600.0</ele><time>2026-05-01T12:23:37Z</time></trkpt><trkpt lat="47.85553563345763" lon="13.142615208822836"><ele>600.3333333333334</ele><time>2026-05-01T12:23:38Z</time></trkpt><trkpt lat="47.855507289016444" lon="13.142905504974527"><ele>600.6666666666667</ele><time>2026-05-01T12:23:39Z</time></trkpt><trkpt lat="47.855480189860565" lon="13.143180105205849"><ele>601.0</ele><time>2026-05-01T12:23:40Z</time></trkpt><trkpt lat="47.8554496460863" lon="13.1434628082245"><ele>601.0</ele><time>2026-05-01T12:23:41Z</time></trkpt><trkpt lat="47.85542144092558" lon="13.143754012392563"><ele>601.0</ele><time>2026-05-01T12:23:42Z</time></trkpt><trkpt lat="47.8553951973237" lon="13.144052491287294"><ele>601.0</ele><time>2026-05-01T12:23:43Z</time></trkpt><trkpt lat="47.85536857357255" lon="13.144352241792985"><ele>601.0</ele><time>2026-05-01T12:23:44Z</time></trkpt><trkpt lat="47.85534197099888" lon="13.144653074477295"><ele>601.0</ele><time>2026-05-01T12:23:45Z</time></trkpt><trkpt lat="47.85531284926473" lon="13.144955243917256"><ele>601.0</ele><time>2026-05-01T12:23:46Z</time></trkpt><trkpt lat="47.85528161364085" lon="13.145259427812203"><ele>601.0</ele><time>2026-05-01T12:23:47Z</time></trkpt><trkpt lat="47.85525125687069" lon="13.145564253315246"><ele>601.0</ele><time>2026-05-01T12:23:48Z</time></trkpt><trkpt lat="47.855223017162025" lon="13.145869005447759"><ele>601.0</ele><time>2026-05-01T12:23:49Z</time></trkpt><trkpt lat="47.8551933500587" lon="13.146172903595383"><ele>601.0</ele><time>2026-05-01T12:23:50Z</time></trkpt><trkpt lat="47.855165211760145" lon="13.146478417395137"><ele>601.0</ele><time>2026-05-01T12:23:51Z</time></trkpt><trkpt lat="47.855138828696845" lon="13.146780648836293"><ele>601.0</ele><time>2026-05-01T12:23:52Z</time></trkpt><trkpt lat="47.85511053657097" lon="13.14708332984647"><ele>605.3333333333334</ele><time>2026-05-01T12:23:53Z</time></trkpt><trkpt lat="47.85508267126448" lon="13.147386670409066"><ele>609.6666666666666</ele><time>2026-05-01T12:23:54Z</time></trkpt><trkpt lat="47.85505282412362" lon="13.147688270793209"><ele>614.0</ele><time>2026-05-01T12:23:55Z</time></trkpt><trkpt lat="47.855023469797246" lon="13.147990459716077"><ele>614.3333333333333</ele><time>2026-05-01T12:23:56Z</time></trkpt><trkpt lat="47.85499424525381" lon="13.14829187232501"><ele>614.6666666666666</ele><time>2026-05-01T12:23:57Z</time></trkpt><trkpt lat="47.854966861919785" lon="13.148593068617151"><ele>615.0</ele><time>2026-05-01T12:23:58Z</time></trkpt><trkpt lat="47.85494251268727" lon="13.14889113030155"><ele>615.3333333333334</ele><time>2026-05-01T12:23:59Z</time></trkpt><trkpt lat="47.85491831211237" lon="13.149186274388155"><ele>615.6666666666667</ele><time>2026-05-01T12:24:00Z</time></trkpt><trkpt lat="47.85489395818468" lon="13.149479335123578"><ele>616.0</ele><time>2026-05-01T12:24:01Z</time></trkpt><trkpt lat="47.854870736501624" lon="13.149771771596905"><ele>615.3333333333334</ele><time>2026-05-01T12:24:02Z</time></trkpt><trkpt lat="47.85484314550835" lon="13.150059099396785"><ele>614.6666666666666</ele><time>2026-05-01T12:24:03Z</time></trkpt><trkpt lat="47.854816880887775" lon="13.150343766701189"><ele>614.0</ele><time>2026-05-01T12:24:04Z</time></trkpt><trkpt lat="47.85478466461181" lon="13.150623628467354"><ele>614.6666666666666</ele><time>2026-05-01T12:24:05Z</time></trkpt><trkpt lat="47.85475562049876" lon="13.150899040484703"><ele>615.3333333333334</ele><time>2026-05-01T12:24:06Z</time></trkpt><trkpt lat="47.85472894233312" lon="13.15117586221465"><ele>616.0</ele><time>2026-05-01T12:24:07Z</time></trkpt><trkpt lat="47.8547016402078" lon="13.15145486239899"><ele>616.3333333333334</ele><time>2026-05-01T12:24:08Z</time></trkpt><trkpt lat="47.85467461682542" lon="13.151737602397798"><ele>616.6666666666666</ele><time>2026-05-01T12:24:09Z</time></trkpt><trkpt lat="47.85464762221717" lon="13.152023796027912"><ele>617.0</ele><time>2026-05-01T12:24:10Z</time></trkpt><trkpt lat="47.85461747082804" lon="13.152311012200592"><ele>617.3333333333333</ele><time>2026-05-01T12:24:11Z</time></trkpt><trkpt lat="47.85458839464461" lon="13.152598483248823"><ele>617.6666666666666</ele><time>2026-05-01T12:24:12Z</time></trkpt><trkpt lat="47.85456281307996" lon="13.152888448220313"><ele>618.0</ele><time>2026-05-01T12:24:13Z</time></trkpt><trkpt lat="47.85453790847272" lon="13.15318184256239"><ele>618.0</ele><time>2026-05-01T12:24:14Z</time></trkpt><trkpt lat="47.85451182101017" lon="13.153476177428356"><ele>618.0</ele><time>2026-05-01T12:24:15Z</time></trkpt><trkpt lat="47.85448340419595" lon="13.15377008366982"><ele>618.0</ele><time>2026-05-01T12:24:16Z</time></trkpt><trkpt lat="47.85445525188682" lon="13.154066935807473"><ele>618.3333333333334</ele><time>2026-05-01T12:24:17Z</time></trkpt><trkpt lat="47.854427349733676" lon="13.15436447683553"><ele>618.6666666666667</ele><time>2026-05-01T12:24:18Z</time></trkpt><trkpt lat="47.854398936505255" lon="13.154660138093542"><ele>619.0</ele><time>2026-05-01T12:24:19Z</time></trkpt><trkpt lat="47.85436996151582" lon="13.154955684389876"><ele>619.0</ele><time>2026-05-01T12:24:20Z</time></trkpt><trkpt lat="47.854343516455245" lon="13.155253880638298"><ele>619.0</ele><time>2026-05-01T12:24:21Z</time></trkpt><trkpt lat="47.85431839470559" lon="13.155553911144924"><ele>619.0</ele><time>2026-05-01T12:24:22Z</time></trkpt><trkpt lat="47.854290785104965" lon="13.155854056466024"><ele>622.3333333333334</ele><time>2026-05-01T12:24:23Z</time></trkpt><trkpt lat="47.854262992540754" lon="13.156158085039639"><ele>625.6666666666666</ele><time>2026-05-01T12:24:24Z</time></trkpt><trkpt lat="47.85423667296652" lon="13.156461145303185"><ele>629.0</ele><time>2026-05-01T12:24:25Z</time></trkpt><trkpt lat="47.85421018541405" lon="13.156762043928108"><ele>629.6666666666666</ele><time>2026-05-01T12:24:26Z</time></trkpt><trkpt lat="47.854181382942016" lon="13.157060329733305"><ele>630.3333333333334</ele><time>2026-05-01T12:24:27Z</time></trkpt><trkpt lat="47.854149954704276" lon="13.157356155182788"><ele>631.0</ele><time>2026-05-01T12:24:28Z</time></trkpt><trkpt lat="47.85411745734329" lon="13.157652775513265"><ele>631.0</ele><time>2026-05-01T12:24:29Z</time></trkpt><trkpt lat="47.85408623268605" lon="13.157950698474558"><ele>631.0</ele><time>2026-05-01T12:24:30Z</time></trkpt><trkpt lat="47.854059146805206" lon="13.158250159430995"><ele>631.0</ele><time>2026-05-01T12:24:31Z</time></trkpt><trkpt lat="47.85403263886947" lon="13.158549609752109"><ele>630.6666666666667</ele><time>2026-05-01T12:24:32Z</time></trkpt><trkpt lat="47.85400302164682" lon="13.158848956497"><ele>630.3333333333334</ele><time>2026-05-01T12:24:33Z</time></trkpt><trkpt lat="47.85396926407071" lon="13.159147662193961"><ele>630.0</ele><time>2026-05-01T12:24:34Z</time></trkpt><trkpt lat="47.853932372331" lon="13.159443531590659"><ele>630.0</ele><time>2026-05-01T12:24:35Z</time></trkpt><trkpt lat="47.853895158148795" lon="13.15974057328617"><ele>630.0</ele><time>2026-05-01T12:24:36Z</time></trkpt><trkpt lat="47.853857138521455" lon="13.160036164561548"><ele>630.0</ele><time>2026-05-01T12:24:37Z</time></trkpt><trkpt lat="47.853818954702206" lon="13.16033136574353"><ele>630.6666666666666</ele><time>2026-05-01T12:24:38Z</time></trkpt><trkpt lat="47.85378173994084" lon="13.160624706710495"><ele>631.3333333333333</ele><time>2026-05-01T12:24:39Z</time></trkpt><trkpt lat="47.85374550139397" lon="13.160903729348378"><ele>632.0</ele><time>2026-05-01T12:24:40Z</time></trkpt><trkpt lat="47.85371088032445" lon="13.161179697505263"><ele>632.0</ele><time>2026-05-01T12:24:41Z</time></trkpt><trkpt lat="47.853674294209576" lon="13.16146657530854"><ele>632.0</ele><time>2026-05-01T12:24:42Z</time></trkpt><trkpt lat="47.853636117304525" lon="13.161759471606436"><ele>632.0</ele><time>2026-05-01T12:24:43Z</time></trkpt><trkpt lat="47.85359520069976" lon="13.162055214805742"><ele>632.0</ele><time>2026-05-01T12:24:44Z</time></trkpt><trkpt lat="47.853549848752" lon="13.162351667734926"><ele>632.0</ele><time>2026-05-01T12:24:45Z</time></trkpt><trkpt lat="47.853499489431634" lon="13.162650152894582"><ele>632.0</ele><time>2026-05-01T12:24:46Z</time></trkpt><trkpt lat="47.853447846539304" lon="13.162951209522879"><ele>633.3333333333333</ele><time>2026-05-01T12:24:47Z</time></trkpt><trkpt lat="47.85339372392001" lon="13.163259126465016"><ele>634.6666666666666</ele><time>2026-05-01T12:24:48Z</time></trkpt><trkpt lat="47.85334102548035" lon="13.1635834126716"><ele>636.0</ele><time>2026-05-01T12:24:49Z</time></trkpt><trkpt lat="47.85328331243412" lon="13.163926514086075"><ele>636.0</ele><time>2026-05-01T12:24:50Z</time></trkpt><trkpt lat="47.85322351757263" lon="13.164281249541597"><ele>636.0</ele><time>2026-05-01T12:24:51Z</time></trkpt><trkpt lat="47.85316109941285" lon="13.16465065559204"><ele>635.0</ele><time>2026-05-01T12:24:52Z</time></trkpt><trkpt lat="47.85309906495198" lon="13.165029902705095"><ele>634.0</ele><time>2026-05-01T12:24:53Z</time></trkpt><trkpt lat="47.85303037763872" lon="13.165411315929402"><ele>631.0</ele><time>2026-05-01T12:24:54Z</time></trkpt><trkpt lat="47.85296369953475" lon="13.165777801480134"><ele>628.0</ele><time>2026-05-01T12:24:55Z</time></trkpt><trkpt lat="47.85289602448615" lon="13.166154276599732"><ele>628.5</ele><time>2026-05-01T12:24:56Z</time></trkpt><trkpt lat="47.85282785704265" lon="13.166540785180302"><ele>629.0</ele><time>2026-05-01T12:24:57Z</time></trkpt><trkpt lat="47.85275927204448" lon="13.166932529584404"><ele>629.0</ele><time>2026-05-01T12:24:58Z</time></trkpt><trkpt lat="47.852690052994184" lon="13.167327043539165"><ele>629.0</ele><time>2026-05-01T12:24:59Z</time></trkpt><trkpt lat="47.85261959884845" lon="13.167724850617667"><ele>630.0</ele><time>2026-05-01T12:25:00Z</time></trkpt><trkpt lat="47.8525483699021" lon="13.168124772859656"><ele>631.0</ele><time>2026-05-01T12:25:01Z</time></trkpt><trkpt lat="47.85247749790542" lon="13.168524650451207"><ele>631.0</ele><time>2026-05-01T12:25:02Z</time></trkpt><trkpt lat="47.852407721092135" lon="13.168925620368363"><ele>631.0</ele><time>2026-05-01T12:25:03Z</time></trkpt><trkpt lat="47.85233728484779" lon="13.169329253475114"><ele>630.0</ele><time>2026-05-01T12:25:04Z</time></trkpt><trkpt lat="47.85226654253845" lon="13.169733013561272"><ele>629.0</ele><time>2026-05-01T12:25:05Z</time></trkpt><trkpt lat="47.85219561699725" lon="13.170138403873523"><ele>627.5</ele><time>2026-05-01T12:25:06Z</time></trkpt><trkpt lat="47.852123913900115" lon="13.170544090674237"><ele>626.0</ele><time>2026-05-01T12:25:07Z</time></trkpt><trkpt lat="47.852053747958486" lon="13.170948238611375"><ele>626.0</ele><time>2026-05-01T12:25:08Z</time></trkpt><trkpt lat="47.85198452412368" lon="13.171353447276738"><ele>626.0</ele><time>2026-05-01T12:25:09Z</time></trkpt><trkpt lat="47.851915594891594" lon="13.171751336816692"><ele>626.5</ele><time>2026-05-01T12:25:10Z</time></trkpt><trkpt lat="47.85184577381553" lon="13.172149891534573"><ele>627.0</ele><time>2026-05-01T12:25:11Z</time></trkpt><trkpt lat="47.851776678323866" lon="13.172548487142114"><ele>628.0</ele><time>2026-05-01T12:25:12Z</time></trkpt><trkpt lat="47.85170592616339" lon="13.172943782567085"><ele>629.0</ele><time>2026-05-01T12:25:13Z</time></trkpt><trkpt lat="47.85163617723309" lon="13.173336254405772"><ele>629.0</ele><time>2026-05-01T12:25:14Z</time></trkpt><trkpt lat="47.8515684362066" lon="13.173725358504363"><ele>629.0</ele><time>2026-05-01T12:25:15Z</time></trkpt><trkpt lat="47.85149885708101" lon="13.174112562722332"><ele>628.5</ele><time>2026-05-01T12:25:16Z</time></trkpt><trkpt lat="47.851430513009696" lon="13.174501290337671"><ele>628.0</ele><time>2026-05-01T12:25:17Z</time></trkpt><trkpt lat="47.85136514909526" lon="13.17488712912352"><ele>629.0</ele><time>2026-05-01T12:25:18Z</time></trkpt><trkpt lat="47.85129895051056" lon="13.175272924114841"><ele>630.0</ele><time>2026-05-01T12:25:19Z</time></trkpt><trkpt lat="47.851228316967074" lon="13.175661764332917"><ele>630.5</ele><time>2026-05-01T12:25:20Z</time></trkpt><trkpt lat="47.85115744583982" lon="13.17605126209688"><ele>631.0</ele><time>2026-05-01T12:25:21Z</time></trkpt><trkpt lat="47.85108937966317" lon="13.176444513697042"><ele>630.5</ele><time>2026-05-01T12:25:22Z</time></trkpt><trkpt lat="47.85102063142636" lon="13.176839395408784"><ele>630.0</ele><time>2026-05-01T12:25:23Z</time></trkpt><trkpt lat="47.85095248158241" lon="13.17723453471202"><ele>633.0</ele><time>2026-05-01T12:25:24Z</time></trkpt><trkpt lat="47.85088315906624" lon="13.1776321902158"><ele>636.0</ele><time>2026-05-01T12:25:25Z</time></trkpt><trkpt lat="47.85081414535098" lon="13.178029084672405"><ele>635.5</ele><time>2026-05-01T12:25:26Z</time></trkpt><trkpt lat="47.85074789523653" lon="13.17842573106823"><ele>635.0</ele><time>2026-05-01T12:25:27Z</time></trkpt><trkpt lat="47.85068498642021" lon="13.178822254659789"><ele>636.0</ele><time>2026-05-01T12:25:28Z</time></trkpt><trkpt lat="47.85062800438425" lon="13.17921698349347"><ele>637.0</ele><time>2026-05-01T12:25:29Z</time></trkpt><trkpt lat="47.85057353497155" lon="13.17960842950907"><ele>637.5</ele><time>2026-05-01T12:25:30Z</time></trkpt><trkpt lat="47.85052149682745" lon="13.179999071965764"><ele>638.0</ele><time>2026-05-01T12:25:31Z</time></trkpt><trkpt lat="47.850472434566434" lon="13.1803861580945"><ele>637.5</ele><time>2026-05-01T12:25:32Z</time></trkpt><trkpt lat="47.850429736630346" lon="13.180774228091769"><ele>637.0</ele><time>2026-05-01T12:25:33Z</time></trkpt><trkpt lat="47.850393583550456" lon="13.181162634192507"><ele>636.0</ele><time>2026-05-01T12:25:34Z</time></trkpt><trkpt lat="47.8503669263087" lon="13.181553112098936"><ele>635.0</ele><time>2026-05-01T12:25:35Z</time></trkpt><trkpt lat="47.850347069124936" lon="13.181945435192091"><ele>635.0</ele><time>2026-05-01T12:25:36Z</time></trkpt><trkpt lat="47.85033720568106" lon="13.18233880115958"><ele>635.0</ele><time>2026-05-01T12:25:37Z</time></trkpt><trkpt lat="47.85033605829127" lon="13.18273226241515"><ele>637.5</ele><time>2026-05-01T12:25:38Z</time></trkpt><trkpt lat="47.85034234805953" lon="13.183126243848763"><ele>640.0</ele><time>2026-05-01T12:25:39Z</time></trkpt><trkpt lat="47.85035914684084" lon="13.18352258329299"><ele>640.5</ele><time>2026-05-01T12:25:40Z</time></trkpt><trkpt lat="47.850385889718574" lon="13.183919952624608"><ele>641.0</ele><time>2026-05-01T12:25:41Z</time></trkpt><trkpt lat="47.85041999560191" lon="13.184317146732853"><ele>641.5</ele><time>2026-05-01T12:25:42Z</time></trkpt><trkpt lat="47.85043738418096" lon="13.18471576681408"><ele>642.0</ele><time>2026-05-01T12:25:43Z</time></trkpt><trkpt lat="47.85051019720409" lon="13.185106666228762"><ele>642.5</ele><time>2026-05-01T12:25:44Z</time></trkpt><trkpt lat="47.85056606334447" lon="13.18549865230058"><ele>643.0</ele><time>2026-05-01T12:25:45Z</time></trkpt><trkpt lat="47.850631749897545" lon="13.18588690446577"><ele>644.0</ele><time>2026-05-01T12:25:46Z</time></trkpt><trkpt lat="47.85070588702774" lon="13.186272108951322"><ele>645.0</ele><time>2026-05-01T12:25:47Z</time></trkpt><trkpt lat="47.85079051721036" lon="13.1866577438426"><ele>645.5</ele><time>2026-05-01T12:25:48Z</time></trkpt><trkpt lat="47.8508819051083" lon="13.187042543521548"><ele>646.0</ele><time>2026-05-01T12:25:49Z</time></trkpt><trkpt lat="47.850980360723995" lon="13.187424874142597"><ele>642.5</ele><time>2026-05-01T12:25:50Z</time></trkpt><trkpt lat="47.85108689443361" lon="13.187802708432827"><ele>639.0</ele><time>2026-05-01T12:25:51Z</time></trkpt><trkpt lat="47.85120353021944" lon="13.188176883660503"><ele>638.5</ele><time>2026-05-01T12:25:52Z</time></trkpt><trkpt lat="47.8513271528878" lon="13.188545333997956"><ele>638.0</ele><time>2026-05-01T12:25:53Z</time></trkpt><trkpt lat="47.85145574239341" lon="13.1889125413801"><ele>640.5</ele><time>2026-05-01T12:25:54Z</time></trkpt><trkpt lat="47.851594103946844" lon="13.18927664100858"><ele>643.0</ele><time>2026-05-01T12:25:55Z</time></trkpt><trkpt lat="47.85173859708909" lon="13.18963694540116"><ele>641.5</ele><time>2026-05-01T12:25:56Z</time></trkpt><trkpt lat="47.851888148100336" lon="13.189994273517959"><ele>640.0</ele><time>2026-05-01T12:25:57Z</time></trkpt><trkpt lat="47.852041149289036" lon="13.190345937981158"><ele>641.5</ele><time>2026-05-01T12:25:58Z</time></trkpt><trkpt lat="47.85219534492767" lon="13.190692900337831"><ele>643.0</ele><time>2026-05-01T12:25:59Z</time></trkpt><trkpt lat="47.852349592514216" lon="13.191032301582982"><ele>643.0</ele><time>2026-05-01T12:26:00Z</time></trkpt><trkpt lat="47.852500940394044" lon="13.191364333442301"><ele>643.0</ele><time>2026-05-01T12:26:01Z</time></trkpt><trkpt lat="47.8526444800999" lon="13.191678042984668"><ele>641.5</ele><time>2026-05-01T12:26:02Z</time></trkpt><trkpt lat="47.852792621803914" lon="13.191995028942237"><ele>640.0</ele><time>2026-05-01T12:26:03Z</time></trkpt><trkpt lat="47.85294333457873" lon="13.192314435097762"><ele>640.0</ele><time>2026-05-01T12:26:04Z</time></trkpt><trkpt lat="47.8530960830823" lon="13.192636578866239"><ele>640.0</ele><time>2026-05-01T12:26:05Z</time></trkpt><trkpt lat="47.85324903614167" lon="13.192961273535223"><ele>640.0</ele><time>2026-05-01T12:26:06Z</time></trkpt><trkpt lat="47.853402949793264" lon="13.193288240226654"><ele>640.0</ele><time>2026-05-01T12:26:07Z</time></trkpt><trkpt lat="47.853558930271255" lon="13.193616619231818"><ele>640.5</ele><time>2026-05-01T12:26:08Z</time></trkpt><trkpt lat="47.85371508935731" lon="13.193945476811336"><ele>641.0</ele><time>2026-05-01T12:26:09Z</time></trkpt><trkpt lat="47.8538682557894" lon="13.194275210860456"><ele>641.5</ele><time>2026-05-01T12:26:10Z</time></trkpt><trkpt lat="47.854021391248516" lon="13.194603510079892"><ele>642.0</ele><time>2026-05-01T12:26:11Z</time></trkpt><trkpt lat="47.85417289392936" lon="13.194927904994234"><ele>639.5</ele><time>2026-05-01T12:26:12Z</time></trkpt><trkpt lat="47.85432031863776" lon="13.195257140976707"><ele>637.0</ele><time>2026-05-01T12:26:13Z</time></trkpt><trkpt lat="47.854466987100835" lon="13.195587137005019"><ele>637.5</ele><time>2026-05-01T12:26:14Z</time></trkpt><trkpt lat="47.854609545630424" lon="13.195922155021792"><ele>638.0</ele><time>2026-05-01T12:26:15Z</time></trkpt><trkpt lat="47.85474868502238" lon="13.196265568428977"><ele>639.0</ele><time>2026-05-01T12:26:16Z</time></trkpt><trkpt lat="47.85488654010368" lon="13.196615927528164"><ele>640.0</ele><time>2026-05-01T12:26:17Z</time></trkpt><trkpt lat="47.855018613758624" lon="13.19697535929231"><ele>638.5</ele><time>2026-05-01T12:26:18Z</time></trkpt><trkpt lat="47.855142519938816" lon="13.197339138306631"><ele>637.0</ele><time>2026-05-01T12:26:19Z</time></trkpt><trkpt lat="47.85525903095625" lon="13.197712016152108"><ele>637.0</ele><time>2026-05-01T12:26:20Z</time></trkpt><trkpt lat="47.855368390597505" lon="13.198093611979193"><ele>637.0</ele><time>2026-05-01T12:26:21Z</time></trkpt><trkpt lat="47.85546694234293" lon="13.198483769968417"><ele>633.0</ele><time>2026-05-01T12:26:22Z</time></trkpt><trkpt lat="47.85556148360222" lon="13.198877188180385"><ele>629.0</ele><time>2026-05-01T12:26:23Z</time></trkpt><trkpt lat="47.855654733958" lon="13.199274984596071"><ele>628.0</ele><time>2026-05-01T12:26:24Z</time></trkpt><trkpt lat="47.855743438949105" lon="13.199678798206913"><ele>627.0</ele><time>2026-05-01T12:26:25Z</time></trkpt><trkpt lat="47.85582263245521" lon="13.20009133547695"><ele>627.0</ele><time>2026-05-01T12:26:26Z</time></trkpt><trkpt lat="47.855888238390435" lon="13.20051364039984"><ele>627.0</ele><time>2026-05-01T12:26:27Z</time></trkpt><trkpt lat="47.85593964719045" lon="13.200943242145389"><ele>631.5</ele><time>2026-05-01T12:26:28Z</time></trkpt><trkpt lat="47.8559783163746" lon="13.201378856886109"><ele>636.0</ele><time>2026-05-01T12:26:29Z</time></trkpt><trkpt lat="47.85600851999484" lon="13.201819711996588"><ele>639.0</ele><time>2026-05-01T12:26:30Z</time></trkpt><trkpt lat="47.85602887876428" lon="13.202266571945703"><ele>642.0</ele><time>2026-05-01T12:26:31Z</time></trkpt><trkpt lat="47.85604060231022" lon="13.202716049011396"><ele>645.0</ele><time>2026-05-01T12:26:32Z</time></trkpt><trkpt lat="47.85604234898374" lon="13.20316695298194"><ele>648.0</ele><time>2026-05-01T12:26:33Z</time></trkpt><trkpt lat="47.85602720772606" lon="13.203618380365745"><ele>645.0</ele><time>2026-05-01T12:26:34Z</time></trkpt><trkpt lat="47.8559974320177" lon="13.204068400879278"><ele>642.0</ele><time>2026-05-01T12:26:35Z</time></trkpt><trkpt lat="47.8559651838071" lon="13.204516054992737"><ele>635.0</ele><time>2026-05-01T12:26:36Z</time></trkpt><trkpt lat="47.8559365164467" lon="13.204967065520533"><ele>628.0</ele><time>2026-05-01T12:26:37Z</time></trkpt><trkpt lat="47.855911915949626" lon="13.205416657437823"><ele>629.5</ele><time>2026-05-01T12:26:38Z</time></trkpt><trkpt lat="47.855892962473305" lon="13.205863879743932"><ele>631.0</ele><time>2026-05-01T12:26:39Z</time></trkpt><trkpt lat="47.85587216395788" lon="13.206306551609865"><ele>630.5</ele><time>2026-05-01T12:26:40Z</time></trkpt><trkpt lat="47.85584828054939" lon="13.206746567354859"><ele>630.0</ele><time>2026-05-01T12:26:41Z</time></trkpt><trkpt lat="47.85582519812834" lon="13.207187319369307"><ele>628.5</ele><time>2026-05-01T12:26:42Z</time></trkpt><trkpt lat="47.85580034140086" lon="13.207628847974156"><ele>627.0</ele><time>2026-05-01T12:26:43Z</time></trkpt><trkpt lat="47.855776225167425" lon="13.20807150492624"><ele>627.5</ele><time>2026-05-01T12:26:44Z</time></trkpt><trkpt lat="47.85575264518105" lon="13.208517538172858"><ele>628.0</ele><time>2026-05-01T12:26:45Z</time></trkpt><trkpt lat="47.85573029932539" lon="13.208950415295758"><ele>629.5</ele><time>2026-05-01T12:26:46Z</time></trkpt><trkpt lat="47.85570707836697" lon="13.209379323314877"><ele>631.0</ele><time>2026-05-01T12:26:47Z</time></trkpt><trkpt lat="47.855682689081775" lon="13.20982478409106"><ele>630.0</ele><time>2026-05-01T12:26:48Z</time></trkpt><trkpt lat="47.85565828685995" lon="13.210276544447531"><ele>629.0</ele><time>2026-05-01T12:26:49Z</time></trkpt><trkpt lat="47.85563470224833" lon="13.21072744768489"><ele>628.0</ele><time>2026-05-01T12:26:50Z</time></trkpt><trkpt lat="47.85561165347567" lon="13.211178717720454"><ele>627.0</ele><time>2026-05-01T12:26:51Z</time></trkpt><trkpt lat="47.855586995680206" lon="13.211631023437663"><ele>626.0</ele><time>2026-05-01T12:26:52Z</time></trkpt><trkpt lat="47.85556081825292" lon="13.212081826866703"><ele>625.0</ele><time>2026-05-01T12:26:53Z</time></trkpt><trkpt lat="47.8555334701089" lon="13.212529741322218"><ele>625.0</ele><time>2026-05-01T12:26:54Z</time></trkpt><trkpt lat="47.85550941898482" lon="13.21297962194291"><ele>625.0</ele><time>2026-05-01T12:26:55Z</time></trkpt><trkpt lat="47.855486953696015" lon="13.2134265747492"><ele>624.0</ele><time>2026-05-01T12:26:56Z</time></trkpt><trkpt lat="47.855464049282126" lon="13.213871913041123"><ele>623.0</ele><time>2026-05-01T12:26:57Z</time></trkpt><trkpt lat="47.8554419828477" lon="13.214312519562382"><ele>620.0</ele><time>2026-05-01T12:26:58Z</time></trkpt><trkpt lat="47.8554190661143" lon="13.214750716316896"><ele>617.0</ele><time>2026-05-01T12:26:59Z</time></trkpt><trkpt lat="47.855395289263946" lon="13.215186348351692"><ele>617.0</ele><time>2026-05-01T12:27:00Z</time></trkpt><trkpt lat="47.85536939863407" lon="13.215619266553466"><ele>617.0</ele><time>2026-05-01T12:27:01Z</time></trkpt><trkpt lat="47.85534236184888" lon="13.216048937926237"><ele>617.0</ele><time>2026-05-01T12:27:02Z</time></trkpt><trkpt lat="47.8553123750315" lon="13.216477715230603"><ele>617.0</ele><time>2026-05-01T12:27:03Z</time></trkpt><trkpt lat="47.85527716803995" lon="13.216908175906417"><ele>615.5</ele><time>2026-05-01T12:27:04Z</time></trkpt><trkpt lat="47.855233466571775" lon="13.217339843688965"><ele>614.0</ele><time>2026-05-01T12:27:05Z</time></trkpt><trkpt lat="47.855184215822376" lon="13.217772241959075"><ele>614.5</ele><time>2026-05-01T12:27:06Z</time></trkpt><trkpt lat="47.85512452442645" lon="13.218203058375726"><ele>615.0</ele><time>2026-05-01T12:27:07Z</time></trkpt><trkpt lat="47.85506040089669" lon="13.218631067090834"><ele>608.0</ele><time>2026-05-01T12:27:08Z</time></trkpt><trkpt lat="47.85498896669003" lon="13.219057614102223"><ele>601.0</ele><time>2026-05-01T12:27:09Z</time></trkpt><trkpt lat="47.854911474653264" lon="13.219480137518836"><ele>599.5</ele><time>2026-05-01T12:27:10Z</time></trkpt><trkpt lat="47.854829551619716" lon="13.21989868446525"><ele>598.0</ele><time>2026-05-01T12:27:11Z</time></trkpt><trkpt lat="47.8547387081193" lon="13.220311139524732"><ele>598.5</ele><time>2026-05-01T12:27:12Z</time></trkpt><trkpt lat="47.85463983305601" lon="13.220717370093476"><ele>599.0</ele><time>2026-05-01T12:27:13Z</time></trkpt><trkpt lat="47.854531574882" lon="13.221118735233022"><ele>602.5</ele><time>2026-05-01T12:27:14Z</time></trkpt><trkpt lat="47.854416654829535" lon="13.22151601964957"><ele>606.0</ele><time>2026-05-01T12:27:15Z</time></trkpt><trkpt lat="47.85429784528518" lon="13.221907488087455"><ele>600.0</ele><time>2026-05-01T12:27:16Z</time></trkpt><trkpt lat="47.85417507744896" lon="13.222291850222556"><ele>594.0</ele><time>2026-05-01T12:27:17Z</time></trkpt><trkpt lat="47.8540480448966" lon="13.222667772406462"><ele>594.0</ele><time>2026-05-01T12:27:18Z</time></trkpt><trkpt lat="47.85391640627899" lon="13.22303592462078"><ele>594.0</ele><time>2026-05-01T12:27:19Z</time></trkpt><trkpt lat="47.85378113098349" lon="13.223399789604217"><ele>595.0</ele><time>2026-05-01T12:27:20Z</time></trkpt><trkpt lat="47.85364257550519" lon="13.223758983988574"><ele>596.0</ele><time>2026-05-01T12:27:21Z</time></trkpt><trkpt lat="47.85350118998453" lon="13.224114912574077"><ele>596.0</ele><time>2026-05-01T12:27:22Z</time></trkpt><trkpt lat="47.8533589813825" lon="13.224469506023656"><ele>596.0</ele><time>2026-05-01T12:27:23Z</time></trkpt><trkpt lat="47.853218863142224" lon="13.224823381493685"><ele>596.0</ele><time>2026-05-01T12:27:24Z</time></trkpt><trkpt lat="47.85307583130665" lon="13.225178005351525"><ele>596.0</ele><time>2026-05-01T12:27:25Z</time></trkpt><trkpt lat="47.85293066623012" lon="13.225532341930581"><ele>596.5</ele><time>2026-05-01T12:27:26Z</time></trkpt><trkpt lat="47.85278224999515" lon="13.225886199137422"><ele>597.0</ele><time>2026-05-01T12:27:27Z</time></trkpt><trkpt lat="47.85263125405965" lon="13.226241505097882"><ele>597.0</ele><time>2026-05-01T12:27:28Z</time></trkpt><trkpt lat="47.85248028745477" lon="13.226600149575345"><ele>597.0</ele><time>2026-05-01T12:27:29Z</time></trkpt><trkpt lat="47.852330440943696" lon="13.226958971227937"><ele>601.5</ele><time>2026-05-01T12:27:30Z</time></trkpt><trkpt lat="47.85218060254307" lon="13.227317951948734"><ele>606.0</ele><time>2026-05-01T12:27:31Z</time></trkpt><trkpt lat="47.85203393467081" lon="13.227676921887534"><ele>606.0</ele><time>2026-05-01T12:27:32Z</time></trkpt><trkpt lat="47.85188638015021" lon="13.228037067553592"><ele>606.0</ele><time>2026-05-01T12:27:33Z</time></trkpt><trkpt lat="47.851737672475096" lon="13.228395124598737"><ele>601.0</ele><time>2026-05-01T12:27:34Z</time></trkpt><trkpt lat="47.85158916315091" lon="13.228751299560814"><ele>596.0</ele><time>2026-05-01T12:27:35Z</time></trkpt><trkpt lat="47.85144031141658" lon="13.229106730241254"><ele>596.0</ele><time>2026-05-01T12:27:36Z</time></trkpt><trkpt lat="47.85129049127254" lon="13.229462654408726"><ele>596.0</ele><time>2026-05-01T12:27:37Z</time></trkpt><trkpt lat="47.85114038722192" lon="13.229822802691858"><ele>600.0</ele><time>2026-05-01T12:27:38Z</time></trkpt><trkpt lat="47.85098911774199" lon="13.230180204270065"><ele>604.0</ele><time>2026-05-01T12:27:39Z</time></trkpt><trkpt lat="47.850837364808925" lon="13.230542875909837"><ele>597.0</ele><time>2026-05-01T12:27:40Z</time></trkpt><trkpt lat="47.85068809636309" lon="13.230907645925768"><ele>590.0</ele><time>2026-05-01T12:27:41Z</time></trkpt><trkpt lat="47.85054135785341" lon="13.231276014310097"><ele>592.5</ele><time>2026-05-01T12:27:42Z</time></trkpt><trkpt lat="47.850395565121474" lon="13.23164695179438"><ele>595.0</ele><time>2026-05-01T12:27:43Z</time></trkpt><trkpt lat="47.85025196939592" lon="13.232019675930975"><ele>592.0</ele><time>2026-05-01T12:27:44Z</time></trkpt><trkpt lat="47.85011096789503" lon="13.232393293338863"><ele>589.0</ele><time>2026-05-01T12:27:45Z</time></trkpt><trkpt lat="47.84997062710048" lon="13.23277073665073"><ele>594.0</ele><time>2026-05-01T12:27:46Z</time></trkpt><trkpt lat="47.849833375540804" lon="13.233145454349119"><ele>599.0</ele><time>2026-05-01T12:27:47Z</time></trkpt><trkpt lat="47.849701636767435" lon="13.233519804028905"><ele>599.0</ele><time>2026-05-01T12:27:48Z</time></trkpt><trkpt lat="47.84957446042787" lon="13.23389762675488"><ele>599.0</ele><time>2026-05-01T12:27:49Z</time></trkpt><trkpt lat="47.84945542674248" lon="13.234276174547913"><ele>600.5</ele><time>2026-05-01T12:27:50Z</time></trkpt><trkpt lat="47.849344701219174" lon="13.234660616123927"><ele>602.0</ele><time>2026-05-01T12:27:51Z</time></trkpt><trkpt lat="47.849239656877536" lon="13.235046738939575"><ele>594.0</ele><time>2026-05-01T12:27:52Z</time></trkpt><trkpt lat="47.84914064577052" lon="13.235433822281541"><ele>586.0</ele><time>2026-05-01T12:27:53Z</time></trkpt><trkpt lat="47.84904930797398" lon="13.235824208813074"><ele>586.0</ele><time>2026-05-01T12:27:54Z</time></trkpt><trkpt lat="47.84896253992712" lon="13.236215342361982"><ele>586.0</ele><time>2026-05-01T12:27:55Z</time></trkpt><trkpt lat="47.84887953821957" lon="13.236606930511234"><ele>588.5</ele><time>2026-05-01T12:27:56Z</time></trkpt><trkpt lat="47.848796146077675" lon="13.236997528232035"><ele>591.0</ele><time>2026-05-01T12:27:57Z</time></trkpt><trkpt lat="47.848715709985335" lon="13.237388953365699"><ele>592.0</ele><time>2026-05-01T12:27:58Z</time></trkpt><trkpt lat="47.84863730421959" lon="13.237782206220377"><ele>593.0</ele><time>2026-05-01T12:27:59Z</time></trkpt><trkpt lat="47.848559358848746" lon="13.238175581955643"><ele>593.0</ele><time>2026-05-01T12:28:00Z</time></trkpt><trkpt lat="47.84848286047728" lon="13.238571722054074"><ele>593.0</ele><time>2026-05-01T12:28:01Z</time></trkpt><trkpt lat="47.8484083641433" lon="13.238969755458939"><ele>584.5</ele><time>2026-05-01T12:28:02Z</time></trkpt><trkpt lat="47.84833206811154" lon="13.239366898834952"><ele>576.0</ele><time>2026-05-01T12:28:03Z</time></trkpt><trkpt lat="47.848257826198065" lon="13.239765372297223"><ele>577.5</ele><time>2026-05-01T12:28:04Z</time></trkpt><trkpt lat="47.84818593246802" lon="13.240163394781579"><ele>579.0</ele><time>2026-05-01T12:28:05Z</time></trkpt><trkpt lat="47.848114000076976" lon="13.240560003073103"><ele>581.5</ele><time>2026-05-01T12:28:06Z</time></trkpt><trkpt lat="47.84804187877343" lon="13.240955028692765"><ele>584.0</ele><time>2026-05-01T12:28:07Z</time></trkpt><trkpt lat="47.84796781963522" lon="13.241351278761403"><ele>587.0</ele><time>2026-05-01T12:28:08Z</time></trkpt><trkpt lat="47.84789139532827" lon="13.241749186804578"><ele>590.0</ele><time>2026-05-01T12:28:09Z</time></trkpt><trkpt lat="47.8478147601769" lon="13.242145968204015"><ele>590.5</ele><time>2026-05-01T12:28:10Z</time></trkpt><trkpt lat="47.847739972687094" lon="13.242546188325337"><ele>591.0</ele><time>2026-05-01T12:28:11Z</time></trkpt><trkpt lat="47.84766642190629" lon="13.242948624241045"><ele>587.0</ele><time>2026-05-01T12:28:12Z</time></trkpt><trkpt lat="47.847592854502565" lon="13.243355092800295"><ele>583.0</ele><time>2026-05-01T12:28:13Z</time></trkpt><trkpt lat="47.847522416431985" lon="13.243763403818814"><ele>583.5</ele><time>2026-05-01T12:28:14Z</time></trkpt><trkpt lat="47.847455990705306" lon="13.244174153847982"><ele>584.0</ele><time>2026-05-01T12:28:15Z</time></trkpt><trkpt lat="47.84739131817362" lon="13.244590051361001"><ele>586.0</ele><time>2026-05-01T12:28:16Z</time></trkpt><trkpt lat="47.84732980849161" lon="13.245008649944392"><ele>588.0</ele><time>2026-05-01T12:28:17Z</time></trkpt><trkpt lat="47.84727315629178" lon="13.245422685865615"><ele>591.5</ele><time>2026-05-01T12:28:18Z</time></trkpt><trkpt lat="47.84722384943709" lon="13.24582305426894"><ele>595.0</ele><time>2026-05-01T12:28:19Z</time></trkpt><trkpt lat="47.84718063263149" lon="13.246241116823304"><ele>596.0</ele><time>2026-05-01T12:28:20Z</time></trkpt><trkpt lat="47.84714293674716" lon="13.246666872900812"><ele>597.0</ele><time>2026-05-01T12:28:21Z</time></trkpt><trkpt lat="47.84710993344707" lon="13.247097485445025"><ele>597.0</ele><time>2026-05-01T12:28:22Z</time></trkpt><trkpt lat="47.847082493612106" lon="13.247531355500367"><ele>597.0</ele><time>2026-05-01T12:28:23Z</time></trkpt><trkpt lat="47.84705438311301" lon="13.247963850711518"><ele>600.0</ele><time>2026-05-01T12:28:24Z</time></trkpt><trkpt lat="47.84702843161749" lon="13.248392798009583"><ele>603.0</ele><time>2026-05-01T12:28:25Z</time></trkpt><trkpt lat="47.84699715181649" lon="13.248822165770791"><ele>603.0</ele><time>2026-05-01T12:28:26Z</time></trkpt><trkpt lat="47.846966629144354" lon="13.249250008670819"><ele>603.0</ele><time>2026-05-01T12:28:27Z</time></trkpt><trkpt lat="47.84693363433917" lon="13.249680436640292"><ele>606.0</ele><time>2026-05-01T12:28:28Z</time></trkpt><trkpt lat="47.84689584378836" lon="13.25011190673038"><ele>609.0</ele><time>2026-05-01T12:28:29Z</time></trkpt><trkpt lat="47.846850382902836" lon="13.250544210982348"><ele>610.0</ele><time>2026-05-01T12:28:30Z</time></trkpt><trkpt lat="47.84680284662803" lon="13.250978562604834"><ele>611.0</ele><time>2026-05-01T12:28:31Z</time></trkpt><trkpt lat="47.84675356213933" lon="13.251416285590874"><ele>597.5</ele><time>2026-05-01T12:28:32Z</time></trkpt><trkpt lat="47.846702062351405" lon="13.251856913306588"><ele>584.0</ele><time>2026-05-01T12:28:33Z</time></trkpt><trkpt lat="47.84664506178603" lon="13.252300022108951"><ele>584.0</ele><time>2026-05-01T12:28:34Z</time></trkpt><trkpt lat="47.8465772882807" lon="13.252738355277033"><ele>584.0</ele><time>2026-05-01T12:28:35Z</time></trkpt><trkpt lat="47.846501074853435" lon="13.253175592732932"><ele>587.0</ele><time>2026-05-01T12:28:36Z</time></trkpt><trkpt lat="47.84642318140329" lon="13.253612923249198"><ele>590.0</ele><time>2026-05-01T12:28:37Z</time></trkpt><trkpt lat="47.84634392890285" lon="13.254048376884603"><ele>592.0</ele><time>2026-05-01T12:28:38Z</time></trkpt><trkpt lat="47.84626641912428" lon="13.254482413721057"><ele>594.0</ele><time>2026-05-01T12:28:39Z</time></trkpt><trkpt lat="47.84619188013367" lon="13.254917284749936"><ele>595.5</ele><time>2026-05-01T12:28:40Z</time></trkpt><trkpt lat="47.846116365913154" lon="13.25534724041661"><ele>597.0</ele><time>2026-05-01T12:28:41Z</time></trkpt><trkpt lat="47.84603564470683" lon="13.255777649970819"><ele>589.0</ele><time>2026-05-01T12:28:42Z</time></trkpt><trkpt lat="47.84595099381953" lon="13.256208435690175"><ele>581.0</ele><time>2026-05-01T12:28:43Z</time></trkpt><trkpt lat="47.84586322983285" lon="13.256638022722555"><ele>581.0</ele><time>2026-05-01T12:28:44Z</time></trkpt><trkpt lat="47.84577430328228" lon="13.257070992796187"><ele>581.0</ele><time>2026-05-01T12:28:45Z</time></trkpt><trkpt lat="47.84568909451728" lon="13.257506210213691"><ele>582.0</ele><time>2026-05-01T12:28:46Z</time></trkpt><trkpt lat="47.845608698236035" lon="13.25793846339933"><ele>583.0</ele><time>2026-05-01T12:28:47Z</time></trkpt><trkpt lat="47.8455306712488" lon="13.258369756630723"><ele>583.0</ele><time>2026-05-01T12:28:48Z</time></trkpt><trkpt lat="47.84545343724465" lon="13.258800542114773"><ele>583.0</ele><time>2026-05-01T12:28:49Z</time></trkpt><trkpt lat="47.8453735888922" lon="13.259226210925043"><ele>584.0</ele><time>2026-05-01T12:28:50Z</time></trkpt><trkpt lat="47.84529529446941" lon="13.259652626059843"><ele>585.0</ele><time>2026-05-01T12:28:51Z</time></trkpt><trkpt lat="47.84521376481285" lon="13.260075947195187"><ele>592.5</ele><time>2026-05-01T12:28:52Z</time></trkpt><trkpt lat="47.84513314945522" lon="13.26049609100539"><ele>600.0</ele><time>2026-05-01T12:28:53Z</time></trkpt><trkpt lat="47.84505597989491" lon="13.26091798037768"><ele>586.0</ele><time>2026-05-01T12:28:54Z</time></trkpt><trkpt lat="47.84497493116573" lon="13.261334095902564"><ele>572.0</ele><time>2026-05-01T12:28:55Z</time></trkpt><trkpt lat="47.8448924274962" lon="13.261745545544937"><ele>572.0</ele><time>2026-05-01T12:28:56Z</time></trkpt><trkpt lat="47.84481033777384" lon="13.262153141118786"><ele>572.0</ele><time>2026-05-01T12:28:57Z</time></trkpt><trkpt lat="47.84472670302368" lon="13.262559568409385"><ele>575.5</ele><time>2026-05-01T12:28:58Z</time></trkpt><trkpt lat="47.844641503648425" lon="13.26296716215966"><ele>579.0</ele><time>2026-05-01T12:28:59Z</time></trkpt><trkpt lat="47.84455608776214" lon="13.263375630211282"><ele>579.0</ele><time>2026-05-01T12:29:00Z</time></trkpt><trkpt lat="47.84447141873636" lon="13.263782365084756"><ele>579.0</ele><time>2026-05-01T12:29:01Z</time></trkpt><trkpt lat="47.844382401160225" lon="13.264183038048055"><ele>565.5</ele><time>2026-05-01T12:29:02Z</time></trkpt><trkpt lat="47.84429441445796" lon="13.26458306061303"><ele>552.0</ele><time>2026-05-01T12:29:03Z</time></trkpt><trkpt lat="47.84420453379236" lon="13.264980783531069"><ele>552.0</ele><time>2026-05-01T12:29:04Z</time></trkpt><trkpt lat="47.84411071434662" lon="13.265380803878497"><ele>552.0</ele><time>2026-05-01T12:29:05Z</time></trkpt><trkpt lat="47.84401387250462" lon="13.265783027212985"><ele>553.0</ele><time>2026-05-01T12:29:06Z</time></trkpt><trkpt lat="47.84391340691059" lon="13.26618794858871"><ele>554.0</ele><time>2026-05-01T12:29:07Z</time></trkpt><trkpt lat="47.843812438493536" lon="13.266594071197694"><ele>556.5</ele><time>2026-05-01T12:29:08Z</time></trkpt><trkpt lat="47.843713701959885" lon="13.26699952610326"><ele>559.0</ele><time>2026-05-01T12:29:09Z</time></trkpt><trkpt lat="47.843618690208885" lon="13.267403974917308"><ele>560.0</ele><time>2026-05-01T12:29:10Z</time></trkpt><trkpt lat="47.843527101928935" lon="13.267807806393742"><ele>561.0</ele><time>2026-05-01T12:29:11Z</time></trkpt><trkpt lat="47.84344060230545" lon="13.268214970940656"><ele>561.0</ele><time>2026-05-01T12:29:12Z</time></trkpt><trkpt lat="47.84336152630022" lon="13.268630519911298"><ele>561.0</ele><time>2026-05-01T12:29:13Z</time></trkpt><trkpt lat="47.843290674704754" lon="13.269052185837404"><ele>561.0</ele><time>2026-05-01T12:29:14Z</time></trkpt><trkpt lat="47.84322979947223" lon="13.269481062766085"><ele>561.0</ele><time>2026-05-01T12:29:15Z</time></trkpt><trkpt lat="47.843184228574906" lon="13.269916904871522"><ele>562.5</ele><time>2026-05-01T12:29:16Z</time></trkpt><trkpt lat="47.84314785397538" lon="13.270356954873417"><ele>564.0</ele><time>2026-05-01T12:29:17Z</time></trkpt><trkpt lat="47.84312335117481" lon="13.270803314541757"><ele>565.5</ele><time>2026-05-01T12:29:18Z</time></trkpt><trkpt lat="47.84310784745955" lon="13.271251519758712"><ele>567.0</ele><time>2026-05-01T12:29:19Z</time></trkpt><trkpt lat="47.84310401048463" lon="13.271702876035523"><ele>567.5</ele><time>2026-05-01T12:29:20Z</time></trkpt><trkpt lat="47.84310992403099" lon="13.272154823429029"><ele>568.0</ele><time>2026-05-01T12:29:21Z</time></trkpt><trkpt lat="47.84311949887652" lon="13.2726053736895"><ele>568.0</ele><time>2026-05-01T12:29:22Z</time></trkpt><trkpt lat="47.843137796957635" lon="13.273057453803426"><ele>568.0</ele><time>2026-05-01T12:29:23Z</time></trkpt><trkpt lat="47.843157089109496" lon="13.273504371196703"><ele>568.0</ele><time>2026-05-01T12:29:24Z</time></trkpt><trkpt lat="47.84317558720834" lon="13.273947548898299"><ele>568.0</ele><time>2026-05-01T12:29:25Z</time></trkpt><trkpt lat="47.84319403511565" lon="13.274385972070766"><ele>568.0</ele><time>2026-05-01T12:29:26Z</time></trkpt><trkpt lat="47.84320818866461" lon="13.274820725048349"><ele>568.0</ele><time>2026-05-01T12:29:27Z</time></trkpt><trkpt lat="47.84322058853355" lon="13.275253527890005"><ele>567.5</ele><time>2026-05-01T12:29:28Z</time></trkpt><trkpt lat="47.84322681612054" lon="13.275683890285627"><ele>567.0</ele><time>2026-05-01T12:29:29Z</time></trkpt><trkpt lat="47.84322653874671" lon="13.276116043240576"><ele>565.5</ele><time>2026-05-01T12:29:30Z</time></trkpt><trkpt lat="47.84321493253921" lon="13.276546190125215"><ele>564.0</ele><time>2026-05-01T12:29:31Z</time></trkpt><trkpt lat="47.843201764162735" lon="13.276975740745696"><ele>564.0</ele><time>2026-05-01T12:29:32Z</time></trkpt><trkpt lat="47.84318264121204" lon="13.277403437806251"><ele>564.0</ele><time>2026-05-01T12:29:33Z</time></trkpt><trkpt lat="47.84315856841152" lon="13.277829959041066"><ele>565.5</ele><time>2026-05-01T12:29:34Z</time></trkpt><trkpt lat="47.84313278370065" lon="13.278254748691975"><ele>567.0</ele><time>2026-05-01T12:29:35Z</time></trkpt><trkpt lat="47.84310598320363" lon="13.278680183065966"><ele>567.0</ele><time>2026-05-01T12:29:36Z</time></trkpt><trkpt lat="47.84307695064246" lon="13.279101700143126"><ele>567.0</ele><time>2026-05-01T12:29:37Z</time></trkpt><trkpt lat="47.84304854737434" lon="13.279522445746556"><ele>568.0</ele><time>2026-05-01T12:29:38Z</time></trkpt><trkpt lat="47.84302199929771" lon="13.279943427896434"><ele>569.0</ele><time>2026-05-01T12:29:39Z</time></trkpt><trkpt lat="47.842998417990295" lon="13.28036816020884"><ele>570.5</ele><time>2026-05-01T12:29:40Z</time></trkpt><trkpt lat="47.84297688290704" lon="13.280797697130785"><ele>572.0</ele><time>2026-05-01T12:29:41Z</time></trkpt><trkpt lat="47.84296136671868" lon="13.28122337571728"><ele>570.5</ele><time>2026-05-01T12:29:42Z</time></trkpt><trkpt lat="47.84295676567948" lon="13.281632504598884"><ele>569.0</ele><time>2026-05-01T12:29:43Z</time></trkpt><trkpt lat="47.8429577428061" lon="13.28204313863207"><ele>568.5</ele><time>2026-05-01T12:29:44Z</time></trkpt><trkpt lat="47.84296661806802" lon="13.282463204289304"><ele>568.0</ele><time>2026-05-01T12:29:45Z</time></trkpt><trkpt lat="47.84298622514664" lon="13.282886878187638"><ele>567.0</ele><time>2026-05-01T12:29:46Z</time></trkpt><trkpt lat="47.84302023070259" lon="13.28331420591431"><ele>566.0</ele><time>2026-05-01T12:29:47Z</time></trkpt><trkpt lat="47.84306237976564" lon="13.283746695006737"><ele>566.0</ele><time>2026-05-01T12:29:48Z</time></trkpt><trkpt lat="47.84309364717328" lon="13.284181060007253"><ele>566.0</ele><time>2026-05-01T12:29:49Z</time></trkpt><trkpt lat="47.84314480379612" lon="13.284608662647454"><ele>562.5</ele><time>2026-05-01T12:29:50Z</time></trkpt><trkpt lat="47.84319691341064" lon="13.285034521194115"><ele>559.0</ele><time>2026-05-01T12:29:51Z</time></trkpt><trkpt lat="47.843253305042914" lon="13.285457767989262"><ele>556.0</ele><time>2026-05-01T12:29:52Z</time></trkpt><trkpt lat="47.8433094730471" lon="13.28587086089027"><ele>553.0</ele><time>2026-05-01T12:29:53Z</time></trkpt><trkpt lat="47.84336689606209" lon="13.286286168048198"><ele>550.5</ele><time>2026-05-01T12:29:54Z</time></trkpt><trkpt lat="47.84342372452458" lon="13.286702396824456"><ele>548.0</ele><time>2026-05-01T12:29:55Z</time></trkpt><trkpt lat="47.843479121172024" lon="13.287122703471603"><ele>553.5</ele><time>2026-05-01T12:29:56Z</time></trkpt><trkpt lat="47.84353227105538" lon="13.287543695918616"><ele>559.0</ele><time>2026-05-01T12:29:57Z</time></trkpt><trkpt lat="47.84358163904379" lon="13.287963194180978"><ele>557.5</ele><time>2026-05-01T12:29:58Z</time></trkpt><trkpt lat="47.84362548661454" lon="13.288390117106195"><ele>556.0</ele><time>2026-05-01T12:29:59Z</time></trkpt><trkpt lat="47.843666579940916" lon="13.288817147108237"><ele>555.5</ele><time>2026-05-01T12:30:00Z</time></trkpt><trkpt lat="47.84370246367098" lon="13.289247602133674"><ele>555.0</ele><time>2026-05-01T12:30:01Z</time></trkpt><trkpt lat="47.843743370127136" lon="13.28967912350838"><ele>556.0</ele><time>2026-05-01T12:30:02Z</time></trkpt><trkpt lat="47.84376459186798" lon="13.290116189848874"><ele>557.0</ele><time>2026-05-01T12:30:03Z</time></trkpt><trkpt lat="47.84378747219719" lon="13.290553767814865"><ele>556.0</ele><time>2026-05-01T12:30:04Z</time></trkpt><trkpt lat="47.84381066545871" lon="13.29098919146768"><ele>555.0</ele><time>2026-05-01T12:30:05Z</time></trkpt><trkpt lat="47.84383281119034" lon="13.291423876979493"><ele>554.5</ele><time>2026-05-01T12:30:06Z</time></trkpt><trkpt lat="47.843856683534455" lon="13.291854149383111"><ele>554.0</ele><time>2026-05-01T12:30:07Z</time></trkpt><trkpt lat="47.84387528938058" lon="13.292283719686214"><ele>553.5</ele><time>2026-05-01T12:30:08Z</time></trkpt><trkpt lat="47.843896302565" lon="13.292708849501162"><ele>553.0</ele><time>2026-05-01T12:30:09Z</time></trkpt><trkpt lat="47.84391808641727" lon="13.29312868549984"><ele>552.0</ele><time>2026-05-01T12:30:10Z</time></trkpt><trkpt lat="47.8439373415731" lon="13.29354956707831"><ele>551.0</ele><time>2026-05-01T12:30:11Z</time></trkpt><trkpt lat="47.84395574716424" lon="13.29397200039729"><ele>551.0</ele><time>2026-05-01T12:30:12Z</time></trkpt><trkpt lat="47.84397630404576" lon="13.294390793595124"><ele>551.0</ele><time>2026-05-01T12:30:13Z</time></trkpt><trkpt lat="47.843994930460575" lon="13.294809838235151"><ele>555.0</ele><time>2026-05-01T12:30:14Z</time></trkpt><trkpt lat="47.844014411381394" lon="13.295228396237178"><ele>559.0</ele><time>2026-05-01T12:30:15Z</time></trkpt><trkpt lat="47.84403271745014" lon="13.295651285697106"><ele>559.0</ele><time>2026-05-01T12:30:16Z</time></trkpt><trkpt lat="47.84405164405677" lon="13.296076102215922"><ele>559.0</ele><time>2026-05-01T12:30:17Z</time></trkpt><trkpt lat="47.8440727597596" lon="13.296503161445695"><ele>558.5</ele><time>2026-05-01T12:30:18Z</time></trkpt><trkpt lat="47.84409331520475" lon="13.29693076968844"><ele>558.0</ele><time>2026-05-01T12:30:19Z</time></trkpt><trkpt lat="47.844112896662246" lon="13.29736317764667"><ele>559.0</ele><time>2026-05-01T12:30:20Z</time></trkpt><trkpt lat="47.84413386300463" lon="13.297796821903386"><ele>560.0</ele><time>2026-05-01T12:30:21Z</time></trkpt><trkpt lat="47.844154305472834" lon="13.298233662545769"><ele>560.0</ele><time>2026-05-01T12:30:22Z</time></trkpt><trkpt lat="47.844177479759715" lon="13.298671321357148"><ele>560.0</ele><time>2026-05-01T12:30:23Z</time></trkpt><trkpt lat="47.844199167613525" lon="13.29910578769731"><ele>560.0</ele><time>2026-05-01T12:30:24Z</time></trkpt><trkpt lat="47.84422050350163" lon="13.299536758432863"><ele>560.0</ele><time>2026-05-01T12:30:25Z</time></trkpt><trkpt lat="47.84423884679276" lon="13.299966036343434"><ele>560.5</ele><time>2026-05-01T12:30:26Z</time></trkpt><trkpt lat="47.84425716013419" lon="13.300395049262155"><ele>561.0</ele><time>2026-05-01T12:30:27Z</time></trkpt><trkpt lat="47.84427589207643" lon="13.300823711668622"><ele>560.0</ele><time>2026-05-01T12:30:28Z</time></trkpt><trkpt lat="47.84429435299424" lon="13.301252876200333"><ele>559.0</ele><time>2026-05-01T12:30:29Z</time></trkpt><trkpt lat="47.84431210906966" lon="13.301683092702067"><ele>561.0</ele><time>2026-05-01T12:30:30Z</time></trkpt><trkpt lat="47.84433380054853" lon="13.30210937370598"><ele>563.0</ele><time>2026-05-01T12:30:31Z</time></trkpt><trkpt lat="47.84435489913341" lon="13.302535114071661"><ele>564.0</ele><time>2026-05-01T12:30:32Z</time></trkpt><trkpt lat="47.844375533179836" lon="13.302959111668367"><ele>565.0</ele><time>2026-05-01T12:30:33Z</time></trkpt><trkpt lat="47.844398769799554" lon="13.303383146395566"><ele>565.5</ele><time>2026-05-01T12:30:34Z</time></trkpt><trkpt lat="47.84441865327861" lon="13.303807445700098"><ele>566.0</ele><time>2026-05-01T12:30:35Z</time></trkpt><trkpt lat="47.844442691203874" lon="13.304234781317831"><ele>566.5</ele><time>2026-05-01T12:30:36Z</time></trkpt><trkpt lat="47.84446620911631" lon="13.304663920443192"><ele>567.0</ele><time>2026-05-01T12:30:37Z</time></trkpt><trkpt lat="47.84449033398629" lon="13.305095996836357"><ele>567.0</ele><time>2026-05-01T12:30:38Z</time></trkpt><trkpt lat="47.844513997817245" lon="13.30552830560871"><ele>567.0</ele><time>2026-05-01T12:30:39Z</time></trkpt><trkpt lat="47.84454150372213" lon="13.305959958100917"><ele>564.5</ele><time>2026-05-01T12:30:40Z</time></trkpt><trkpt lat="47.84457279172759" lon="13.306391599092459"><ele>562.0</ele><time>2026-05-01T12:30:41Z</time></trkpt><trkpt lat="47.844608782052596" lon="13.306820798703153"><ele>561.5</ele><time>2026-05-01T12:30:42Z</time></trkpt><trkpt lat="47.84464186073859" lon="13.307252158712172"><ele>561.0</ele><time>2026-05-01T12:30:43Z</time></trkpt><trkpt lat="47.844678023155545" lon="13.307683111742305"><ele>560.5</ele><time>2026-05-01T12:30:44Z</time></trkpt><trkpt lat="47.84471767452764" lon="13.308114108764954"><ele>560.0</ele><time>2026-05-01T12:30:45Z</time></trkpt><trkpt lat="47.84475944104114" lon="13.308546551247161"><ele>558.5</ele><time>2026-05-01T12:30:46Z</time></trkpt><trkpt lat="47.84480386785968" lon="13.308978918083596"><ele>557.0</ele><time>2026-05-01T12:30:47Z</time></trkpt><trkpt lat="47.844859352875325" lon="13.309409423534046"><ele>555.5</ele><time>2026-05-01T12:30:48Z</time></trkpt><trkpt lat="47.844920581120434" lon="13.309839276853072"><ele>554.0</ele><time>2026-05-01T12:30:49Z</time></trkpt><trkpt lat="47.84498814058475" lon="13.310267853059694"><ele>554.0</ele><time>2026-05-01T12:30:50Z</time></trkpt><trkpt lat="47.84505938809201" lon="13.31069590673181"><ele>554.0</ele><time>2026-05-01T12:30:51Z</time></trkpt><trkpt lat="47.8451392450994" lon="13.31112215685114"><ele>552.0</ele><time>2026-05-01T12:30:52Z</time></trkpt><trkpt lat="47.84522009979326" lon="13.311550086857613"><ele>550.0</ele><time>2026-05-01T12:30:53Z</time></trkpt><trkpt lat="47.845305670108964" lon="13.31197299953101"><ele>550.0</ele><time>2026-05-01T12:30:54Z</time></trkpt><trkpt lat="47.845392704818025" lon="13.312393961830644"><ele>550.0</ele><time>2026-05-01T12:30:55Z</time></trkpt><trkpt lat="47.84548757416536" lon="13.312799536924713"><ele>549.0</ele><time>2026-05-01T12:30:56Z</time></trkpt><trkpt lat="47.84558111016818" lon="13.313183842980164"><ele>548.0</ele><time>2026-05-01T12:30:57Z</time></trkpt><trkpt lat="47.845681423890554" lon="13.313580042256584"><ele>547.0</ele><time>2026-05-01T12:30:58Z</time></trkpt><trkpt lat="47.84578825931461" lon="13.313975916967422"><ele>546.0</ele><time>2026-05-01T12:30:59Z</time></trkpt><trkpt lat="47.84590075103227" lon="13.314372931673574"><ele>552.0</ele><time>2026-05-01T12:31:00Z</time></trkpt><trkpt lat="47.84601732948429" lon="13.314766491029182"><ele>558.0</ele><time>2026-05-01T12:31:01Z</time></trkpt><trkpt lat="47.84613968585882" lon="13.31515449904742"><ele>558.0</ele><time>2026-05-01T12:31:02Z</time></trkpt><trkpt lat="47.84626726411864" lon="13.315537864222689"><ele>558.0</ele><time>2026-05-01T12:31:03Z</time></trkpt><trkpt lat="47.84639612845312" lon="13.31591934493891"><ele>555.5</ele><time>2026-05-01T12:31:04Z</time></trkpt><trkpt lat="47.84653011354215" lon="13.316297377797117"><ele>553.0</ele><time>2026-05-01T12:31:05Z</time></trkpt><trkpt lat="47.84666904135253" lon="13.316672026726362"><ele>549.0</ele><time>2026-05-01T12:31:06Z</time></trkpt><trkpt lat="47.8468113954117" lon="13.317041694168156"><ele>545.0</ele><time>2026-05-01T12:31:07Z</time></trkpt><trkpt lat="47.846956145105" lon="13.317405086927678"><ele>543.5</ele><time>2026-05-01T12:31:08Z</time></trkpt><trkpt lat="47.8471049315943" lon="13.317768167391215"><ele>542.0</ele><time>2026-05-01T12:31:09Z</time></trkpt><trkpt lat="47.847258095068824" lon="13.318130263149172"><ele>541.0</ele><time>2026-05-01T12:31:10Z</time></trkpt><trkpt lat="47.847412605798574" lon="13.318491288238702"><ele>540.0</ele><time>2026-05-01T12:31:11Z</time></trkpt><trkpt lat="47.847570948645554" lon="13.318850253633897"><ele>542.5</ele><time>2026-05-01T12:31:12Z</time></trkpt><trkpt lat="47.8477322564791" lon="13.319208596205781"><ele>545.0</ele><time>2026-05-01T12:31:13Z</time></trkpt><trkpt lat="47.84790124418802" lon="13.319567910838181"><ele>546.5</ele><time>2026-05-01T12:31:14Z</time></trkpt><trkpt lat="47.84807422558855" lon="13.31992559584666"><ele>548.0</ele><time>2026-05-01T12:31:15Z</time></trkpt><trkpt lat="47.84825047065085" lon="13.3202780540425"><ele>546.5</ele><time>2026-05-01T12:31:16Z</time></trkpt><trkpt lat="47.8484261135093" lon="13.32062711729574"><ele>545.0</ele><time>2026-05-01T12:31:17Z</time></trkpt><trkpt lat="47.84860542966823" lon="13.320975291468793"><ele>545.0</ele><time>2026-05-01T12:31:18Z</time></trkpt><trkpt lat="47.848785366599806" lon="13.321323771534953"><ele>545.0</ele><time>2026-05-01T12:31:19Z</time></trkpt><trkpt lat="47.84896321956658" lon="13.321672069023673"><ele>542.5</ele><time>2026-05-01T12:31:20Z</time></trkpt><trkpt lat="47.84913784023966" lon="13.3220230112703"><ele>540.0</ele><time>2026-05-01T12:31:21Z</time></trkpt><trkpt lat="47.849311786348416" lon="13.32237110422191"><ele>540.0</ele><time>2026-05-01T12:31:22Z</time></trkpt><trkpt lat="47.84948493066089" lon="13.32271882387443"><ele>540.0</ele><time>2026-05-01T12:31:23Z</time></trkpt><trkpt lat="47.8496591373473" lon="13.323063834063722"><ele>539.0</ele><time>2026-05-01T12:31:24Z</time></trkpt><trkpt lat="47.849833431639034" lon="13.32340794273496"><ele>538.0</ele><time>2026-05-01T12:31:25Z</time></trkpt><trkpt lat="47.85000703540973" lon="13.3237509767194"><ele>541.5</ele><time>2026-05-01T12:31:26Z</time></trkpt><trkpt lat="47.850178321497644" lon="13.32409487772035"><ele>545.0</ele><time>2026-05-01T12:31:27Z</time></trkpt><trkpt lat="47.85034663490263" lon="13.324441709996433"><ele>542.5</ele><time>2026-05-01T12:31:28Z</time></trkpt><trkpt lat="47.85051774299346" lon="13.324787829001712"><ele>540.0</ele><time>2026-05-01T12:31:29Z</time></trkpt><trkpt lat="47.85069033852738" lon="13.325133658773428"><ele>540.0</ele><time>2026-05-01T12:31:30Z</time></trkpt><trkpt lat="47.8508647204607" lon="13.325479148259253"><ele>540.0</ele><time>2026-05-01T12:31:31Z</time></trkpt><trkpt lat="47.851039512056474" lon="13.325824888675232"><ele>540.0</ele><time>2026-05-01T12:31:32Z</time></trkpt><trkpt lat="47.851217982900515" lon="13.32617007443266"><ele>540.0</ele><time>2026-05-01T12:31:33Z</time></trkpt><trkpt lat="47.85140236246359" lon="13.32651191076231"><ele>540.0</ele><time>2026-05-01T12:31:34Z</time></trkpt><trkpt lat="47.85158841693334" lon="13.326853108509688"><ele>540.0</ele><time>2026-05-01T12:31:35Z</time></trkpt><trkpt lat="47.851777953261305" lon="13.327192854120316"><ele>545.0</ele><time>2026-05-01T12:31:36Z</time></trkpt><trkpt lat="47.85197096001407" lon="13.327531595232488"><ele>550.0</ele><time>2026-05-01T12:31:37Z</time></trkpt><trkpt lat="47.8521709037489" lon="13.327864088617371"><ele>545.5</ele><time>2026-05-01T12:31:38Z</time></trkpt><trkpt lat="47.85237836355156" lon="13.32818693428672"><ele>541.0</ele><time>2026-05-01T12:31:39Z</time></trkpt><trkpt lat="47.85258824377708" lon="13.328504990434483"><ele>541.0</ele><time>2026-05-01T12:31:40Z</time></trkpt><trkpt lat="47.85280358962369" lon="13.328811524871579"><ele>541.0</ele><time>2026-05-01T12:31:41Z</time></trkpt><trkpt lat="47.85301988851639" lon="13.329108783970767"><ele>541.0</ele><time>2026-05-01T12:31:42Z</time></trkpt><trkpt lat="47.853244274769736" lon="13.329393817181256"><ele>541.0</ele><time>2026-05-01T12:31:43Z</time></trkpt><trkpt lat="47.853471838765984" lon="13.329666589428136"><ele>538.5</ele><time>2026-05-01T12:31:44Z</time></trkpt><trkpt lat="47.85370386435518" lon="13.329926825906577"><ele>536.0</ele><time>2026-05-01T12:31:45Z</time></trkpt><trkpt lat="47.85394353826206" lon="13.33017893229909"><ele>536.0</ele><time>2026-05-01T12:31:46Z</time></trkpt><trkpt lat="47.85418481087613" lon="13.330428855048085"><ele>536.0</ele><time>2026-05-01T12:31:47Z</time></trkpt><trkpt lat="47.854428166264356" lon="13.330673949878467"><ele>534.0</ele><time>2026-05-01T12:31:48Z</time></trkpt><trkpt lat="47.85467528755179" lon="13.3309165222349"><ele>532.0</ele><time>2026-05-01T12:31:49Z</time></trkpt><trkpt lat="47.85492539915842" lon="13.331148744548079"><ele>532.0</ele><time>2026-05-01T12:31:50Z</time></trkpt><trkpt lat="47.85517792886287" lon="13.331371098038074"><ele>532.0</ele><time>2026-05-01T12:31:51Z</time></trkpt><trkpt lat="47.855436062220434" lon="13.331571603497549"><ele>532.0</ele><time>2026-05-01T12:31:52Z</time></trkpt><trkpt lat="47.85570257660208" lon="13.331755510201337"><ele>532.0</ele><time>2026-05-01T12:31:53Z</time></trkpt><trkpt lat="47.85597196580698" lon="13.331931111170118"><ele>532.0</ele><time>2026-05-01T12:31:54Z</time></trkpt><trkpt lat="47.85624550704434" lon="13.332099041577896"><ele>532.0</ele><time>2026-05-01T12:31:55Z</time></trkpt><trkpt lat="47.856522346200045" lon="13.332266592698955"><ele>536.0</ele><time>2026-05-01T12:31:56Z</time></trkpt><trkpt lat="47.856796880818074" lon="13.332434954983043"><ele>540.0</ele><time>2026-05-01T12:31:57Z</time></trkpt><trkpt lat="47.857071620508414" lon="13.332600362452805"><ele>540.0</ele><time>2026-05-01T12:31:58Z</time></trkpt><trkpt lat="47.85734485956878" lon="13.332764364525561"><ele>540.0</ele><time>2026-05-01T12:31:59Z</time></trkpt><trkpt lat="47.85761334496544" lon="13.332927487014878"><ele>538.0</ele><time>2026-05-01T12:32:00Z</time></trkpt><trkpt lat="47.85788102756145" lon="13.33308790241737"><ele>536.0</ele><time>2026-05-01T12:32:01Z</time></trkpt><trkpt lat="47.8581441207251" lon="13.333246202531805"><ele>536.0</ele><time>2026-05-01T12:32:02Z</time></trkpt><trkpt lat="47.85839131100113" lon="13.333396092599527"><ele>536.0</ele><time>2026-05-01T12:32:03Z</time></trkpt><trkpt lat="47.858634757226" lon="13.333549839182032"><ele>536.5</ele><time>2026-05-01T12:32:04Z</time></trkpt><trkpt lat="47.858880396431104" lon="13.33370891280919"><ele>537.0</ele><time>2026-05-01T12:32:05Z</time></trkpt><trkpt lat="47.859126369304384" lon="13.3338722781076"><ele>536.5</ele><time>2026-05-01T12:32:06Z</time></trkpt><trkpt lat="47.85937025183069" lon="13.33403843764239"><ele>536.0</ele><time>2026-05-01T12:32:07Z</time></trkpt><trkpt lat="47.85960730040419" lon="13.33421238641114"><ele>536.0</ele><time>2026-05-01T12:32:08Z</time></trkpt><trkpt lat="47.85983905893797" lon="13.33439488239141"><ele>536.0</ele><time>2026-05-01T12:32:09Z</time></trkpt><trkpt lat="47.860067841538886" lon="13.33458437224469"><ele>535.5</ele><time>2026-05-01T12:32:10Z</time></trkpt><trkpt lat="47.86029277193183" lon="13.334778763239802"><ele>535.0</ele><time>2026-05-01T12:32:11Z</time></trkpt><trkpt lat="47.860514880048214" lon="13.334980107232834"><ele>535.0</ele><time>2026-05-01T12:32:12Z</time></trkpt><trkpt lat="47.860726415098064" lon="13.335187665158138"><ele>535.0</ele><time>2026-05-01T12:32:13Z</time></trkpt><trkpt lat="47.86092199146544" lon="13.335398120671886"><ele>535.0</ele><time>2026-05-01T12:32:14Z</time></trkpt><trkpt lat="47.86110684526041" lon="13.335607632880144"><ele>535.0</ele><time>2026-05-01T12:32:15Z</time></trkpt><trkpt lat="47.86127517923044" lon="13.335812385981326"><ele>535.0</ele><time>2026-05-01T12:32:16Z</time></trkpt><trkpt lat="47.86143929202987" lon="13.336022712724876"><ele>535.0</ele><time>2026-05-01T12:32:17Z</time></trkpt><trkpt lat="47.86159800525315" lon="13.336246838119834"><ele>535.0</ele><time>2026-05-01T12:32:18Z</time></trkpt><trkpt lat="47.86175544851912" lon="13.33648026711379"><ele>535.0</ele><time>2026-05-01T12:32:19Z</time></trkpt><trkpt lat="47.86190849030189" lon="13.33672361194428"><ele>534.6666666666667</ele><time>2026-05-01T12:32:20Z</time></trkpt><trkpt lat="47.86205513700004" lon="13.33697680646555"><ele>534.3333333333334</ele><time>2026-05-01T12:32:21Z</time></trkpt><trkpt lat="47.86219408817096" lon="13.337239381531859"><ele>534.0</ele><time>2026-05-01T12:32:22Z</time></trkpt><trkpt lat="47.8623256706079" lon="13.33751160234609"><ele>534.0</ele><time>2026-05-01T12:32:23Z</time></trkpt><trkpt lat="47.8624495154611" lon="13.337788945142808"><ele>534.0</ele><time>2026-05-01T12:32:24Z</time></trkpt><trkpt lat="47.86256521653878" lon="13.338071610061705"><ele>534.0</ele><time>2026-05-01T12:32:25Z</time></trkpt><trkpt lat="47.862674675321365" lon="13.338358574602571"><ele>534.3333333333334</ele><time>2026-05-01T12:32:26Z</time></trkpt><trkpt lat="47.86277682856062" lon="13.338648587791795"><ele>534.6666666666667</ele><time>2026-05-01T12:32:27Z</time></trkpt><trkpt lat="47.86287815613872" lon="13.338938795236015"><ele>535.0</ele><time>2026-05-01T12:32:28Z</time></trkpt><trkpt lat="47.862968466180334" lon="13.339235766374374"><ele>535.3333333333334</ele><time>2026-05-01T12:32:29Z</time></trkpt><trkpt lat="47.86305203397708" lon="13.339533761910157"><ele>535.6666666666666</ele><time>2026-05-01T12:32:30Z</time></trkpt><trkpt lat="47.86312818886182" lon="13.339833998832594"><ele>536.0</ele><time>2026-05-01T12:32:31Z</time></trkpt><trkpt lat="47.86319293358946" lon="13.340121779977885"><ele>535.3333333333333</ele><time>2026-05-01T12:32:32Z</time></trkpt><trkpt lat="47.86324615465698" lon="13.340401117170188"><ele>534.6666666666666</ele><time>2026-05-01T12:32:33Z</time></trkpt><trkpt lat="47.863296368135856" lon="13.340687300134785"><ele>534.0</ele><time>2026-05-01T12:32:34Z</time></trkpt><trkpt lat="47.86334355176671" lon="13.340968233692507"><ele>533.0</ele><time>2026-05-01T12:32:35Z</time></trkpt><trkpt lat="47.86338431986393" lon="13.341247904330794"><ele>532.0</ele><time>2026-05-01T12:32:36Z</time></trkpt><trkpt lat="47.86341134505009" lon="13.34153392372138"><ele>531.0</ele><time>2026-05-01T12:32:37Z</time></trkpt><trkpt lat="47.86343420053315" lon="13.34181912444436"><ele>533.3333333333334</ele><time>2026-05-01T12:32:38Z</time></trkpt><trkpt lat="47.863452077396616" lon="13.342105281671936"><ele>535.6666666666667</ele><time>2026-05-01T12:32:39Z</time></trkpt><trkpt lat="47.863466423840244" lon="13.342391926681435"><ele>538.0</ele><time>2026-05-01T12:32:40Z</time></trkpt><trkpt lat="47.863475399749994" lon="13.342678060193542"><ele>539.0</ele><time>2026-05-01T12:32:41Z</time></trkpt><trkpt lat="47.863478279050916" lon="13.34296419557916"><ele>540.0</ele><time>2026-05-01T12:32:42Z</time></trkpt><trkpt lat="47.863472904246045" lon="13.343249721372041"><ele>541.0</ele><time>2026-05-01T12:32:43Z</time></trkpt><trkpt lat="47.86346232533221" lon="13.343533238590119"><ele>540.0</ele><time>2026-05-01T12:32:44Z</time></trkpt><trkpt lat="47.863443622399934" lon="13.343815782868136"><ele>539.0</ele><time>2026-05-01T12:32:45Z</time></trkpt><trkpt lat="47.86342145023044" lon="13.344099576993433"><ele>538.0</ele><time>2026-05-01T12:32:46Z</time></trkpt><trkpt lat="47.86339408145591" lon="13.344383351557482"><ele>538.0</ele><time>2026-05-01T12:32:47Z</time></trkpt><trkpt lat="47.86336149382528" lon="13.344668080887141"><ele>538.0</ele><time>2026-05-01T12:32:48Z</time></trkpt><trkpt lat="47.86332256708481" lon="13.344954343987133"><ele>538.0</ele><time>2026-05-01T12:32:49Z</time></trkpt><trkpt lat="47.8632766786625" lon="13.345238232799824"><ele>540.0</ele><time>2026-05-01T12:32:50Z</time></trkpt><trkpt lat="47.86322617719841" lon="13.345521094901262"><ele>542.0</ele><time>2026-05-01T12:32:51Z</time></trkpt><trkpt lat="47.863172194959674" lon="13.345801517122768"><ele>544.0</ele><time>2026-05-01T12:32:52Z</time></trkpt><trkpt lat="47.86311384616688" lon="13.346077782834248"><ele>544.6666666666667</ele><time>2026-05-01T12:32:53Z</time></trkpt><trkpt lat="47.863047769374035" lon="13.346348710325387"><ele>545.3333333333334</ele><time>2026-05-01T12:32:54Z</time></trkpt><trkpt lat="47.86297421753131" lon="13.346612779544479"><ele>546.0</ele><time>2026-05-01T12:32:55Z</time></trkpt><trkpt lat="47.86289614653055" lon="13.346872784510463"><ele>546.6666666666666</ele><time>2026-05-01T12:32:56Z</time></trkpt><trkpt lat="47.86281286114628" lon="13.34712432254095"><ele>547.3333333333333</ele><time>2026-05-01T12:32:57Z</time></trkpt><trkpt lat="47.86272810705981" lon="13.347372599157772"><ele>548.0</ele><time>2026-05-01T12:32:58Z</time></trkpt><trkpt lat="47.862636316778115" lon="13.347618628494546"><ele>547.0</ele><time>2026-05-01T12:32:59Z</time></trkpt><trkpt lat="47.862541999101296" lon="13.347860602971311"><ele>546.0</ele><time>2026-05-01T12:33:00Z</time></trkpt><trkpt lat="47.8624394897429" lon="13.348095180915498"><ele>545.0</ele><time>2026-05-01T12:33:01Z</time></trkpt><trkpt lat="47.86233348893739" lon="13.348321112847833"><ele>545.0</ele><time>2026-05-01T12:33:02Z</time></trkpt><trkpt lat="47.86222116015256" lon="13.348544607363609"><ele>545.0</ele><time>2026-05-01T12:33:03Z</time></trkpt><trkpt lat="47.86210749213033" lon="13.348769627623373"><ele>545.0</ele><time>2026-05-01T12:33:04Z</time></trkpt><trkpt lat="47.86199366762365" lon="13.348987296401843"><ele>543.3333333333333</ele><time>2026-05-01T12:33:05Z</time></trkpt><trkpt lat="47.861874666188555" lon="13.34919972113232"><ele>541.6666666666666</ele><time>2026-05-01T12:33:06Z</time></trkpt><trkpt lat="47.86174886294229" lon="13.349412567466146"><ele>540.0</ele><time>2026-05-01T12:33:07Z</time></trkpt><trkpt lat="47.86162225816018" lon="13.349623556285893"><ele>542.6666666666666</ele><time>2026-05-01T12:33:08Z</time></trkpt><trkpt lat="47.861489491588024" lon="13.349827732419161"><ele>545.3333333333333</ele><time>2026-05-01T12:33:09Z</time></trkpt><trkpt lat="47.861353842229775" lon="13.350026731100314"><ele>548.0</ele><time>2026-05-01T12:33:10Z</time></trkpt><trkpt lat="47.86121508975515" lon="13.350223053566848"><ele>548.0</ele><time>2026-05-01T12:33:11Z</time></trkpt><trkpt lat="47.86107230588447" lon="13.350417075350059"><ele>548.0</ele><time>2026-05-01T12:33:12Z</time></trkpt><trkpt lat="47.86092761981203" lon="13.35061159749269"><ele>548.0</ele><time>2026-05-01T12:33:13Z</time></trkpt><trkpt lat="47.86078267889219" lon="13.350805511546126"><ele>548.0</ele><time>2026-05-01T12:33:14Z</time></trkpt><trkpt lat="47.86063415993341" lon="13.35099690622363"><ele>548.0</ele><time>2026-05-01T12:33:15Z</time></trkpt><trkpt lat="47.860485078152294" lon="13.351184204101903"><ele>548.0</ele><time>2026-05-01T12:33:16Z</time></trkpt><trkpt lat="47.86033540677626" lon="13.351373910947684"><ele>547.0</ele><time>2026-05-01T12:33:17Z</time></trkpt><trkpt lat="47.86018245645829" lon="13.351559424479289"><ele>546.0</ele><time>2026-05-01T12:33:18Z</time></trkpt><trkpt lat="47.86002726348408" lon="13.351745683879145"><ele>545.0</ele><time>2026-05-01T12:33:19Z</time></trkpt><trkpt lat="47.859871491042334" lon="13.351933440525523"><ele>545.0</ele><time>2026-05-01T12:33:20Z</time></trkpt><trkpt lat="47.85971506073741" lon="13.352119183999216"><ele>545.0</ele><time>2026-05-01T12:33:21Z</time></trkpt><trkpt lat="47.8595580286345" lon="13.35230385890267"><ele>545.0</ele><time>2026-05-01T12:33:22Z</time></trkpt><trkpt lat="47.859400661711504" lon="13.352492167511276"><ele>545.0</ele><time>2026-05-01T12:33:23Z</time></trkpt><trkpt lat="47.859242367834895" lon="13.352679762269839"><ele>545.0</ele><time>2026-05-01T12:33:24Z</time></trkpt><trkpt lat="47.85908431054358" lon="13.35286841192577"><ele>545.0</ele><time>2026-05-01T12:33:25Z</time></trkpt><trkpt lat="47.85892485315749" lon="13.353059695130552"><ele>543.0</ele><time>2026-05-01T12:33:26Z</time></trkpt><trkpt lat="47.85876345577345" lon="13.353251394396734"><ele>541.0</ele><time>2026-05-01T12:33:27Z</time></trkpt><trkpt lat="47.85860164202145" lon="13.353442785866301"><ele>539.0</ele><time>2026-05-01T12:33:28Z</time></trkpt><trkpt lat="47.85843897899366" lon="13.353637629282467"><ele>539.0</ele><time>2026-05-01T12:33:29Z</time></trkpt><trkpt lat="47.85827584031781" lon="13.353832479092162"><ele>539.0</ele><time>2026-05-01T12:33:30Z</time></trkpt><trkpt lat="47.858113299340324" lon="13.354025079450507"><ele>539.0</ele><time>2026-05-01T12:33:31Z</time></trkpt><trkpt lat="47.85795015904678" lon="13.354219145583539"><ele>543.6666666666666</ele><time>2026-05-01T12:33:32Z</time></trkpt><trkpt lat="47.857787816977506" lon="13.354412112803532"><ele>548.3333333333334</ele><time>2026-05-01T12:33:33Z</time></trkpt><trkpt lat="47.85762633907352" lon="13.354604548977894"><ele>553.0</ele><time>2026-05-01T12:33:34Z</time></trkpt><trkpt lat="47.85746537070833" lon="13.354795784179437"><ele>553.0</ele><time>2026-05-01T12:33:35Z</time></trkpt><trkpt lat="47.85730544604561" lon="13.354987503000979"><ele>553.0</ele><time>2026-05-01T12:33:36Z</time></trkpt><trkpt lat="47.8571460716635" lon="13.355179373640446"><ele>553.0</ele><time>2026-05-01T12:33:37Z</time></trkpt><trkpt lat="47.85698760523313" lon="13.35536876134564"><ele>552.3333333333334</ele><time>2026-05-01T12:33:38Z</time></trkpt><trkpt lat="47.85683053540276" lon="13.355557457004242"><ele>551.6666666666666</ele><time>2026-05-01T12:33:39Z</time></trkpt><trkpt lat="47.85667375192024" lon="13.35574516045196"><ele>551.0</ele><time>2026-05-01T12:33:40Z</time></trkpt><trkpt lat="47.856516125422885" lon="13.355929667038428"><ele>551.0</ele><time>2026-05-01T12:33:41Z</time></trkpt><trkpt lat="47.85635839259518" lon="13.356115529834502"><ele>551.0</ele><time>2026-05-01T12:33:42Z</time></trkpt><trkpt lat="47.85620393876018" lon="13.35630528630457"><ele>551.0</ele><time>2026-05-01T12:33:43Z</time></trkpt><trkpt lat="47.8560483573667" lon="13.356494770172247"><ele>550.3333333333333</ele><time>2026-05-01T12:33:44Z</time></trkpt><trkpt lat="47.85589251054756" lon="13.35668543852606"><ele>549.6666666666666</ele><time>2026-05-01T12:33:45Z</time></trkpt><trkpt lat="47.85573863003072" lon="13.356880349409334"><ele>549.0</ele><time>2026-05-01T12:33:46Z</time></trkpt><trkpt lat="47.85558688476667" lon="13.35708010442251"><ele>553.6666666666666</ele><time>2026-05-01T12:33:47Z</time></trkpt><trkpt lat="47.855436849603116" lon="13.357285291151213"><ele>558.3333333333333</ele><time>2026-05-01T12:33:48Z</time></trkpt><trkpt lat="47.85529018579753" lon="13.357494396431502"><ele>563.0</ele><time>2026-05-01T12:33:49Z</time></trkpt><trkpt lat="47.855143737236475" lon="13.357707025828125"><ele>561.3333333333333</ele><time>2026-05-01T12:33:50Z</time></trkpt><trkpt lat="47.85499930310275" lon="13.357924026710686"><ele>559.6666666666666</ele><time>2026-05-01T12:33:51Z</time></trkpt><trkpt lat="47.854857175441566" lon="13.35814766565317"><ele>558.0</ele><time>2026-05-01T12:33:52Z</time></trkpt><trkpt lat="47.854717656383194" lon="13.35837328663033"><ele>558.0</ele><time>2026-05-01T12:33:53Z</time></trkpt><trkpt lat="47.854578756365974" lon="13.35860507940254"><ele>558.0</ele><time>2026-05-01T12:33:54Z</time></trkpt><trkpt lat="47.854442335487775" lon="13.35883740662036"><ele>558.0</ele><time>2026-05-01T12:33:55Z</time></trkpt><trkpt lat="47.85430765037224" lon="13.35907301793546"><ele>556.6666666666666</ele><time>2026-05-01T12:33:56Z</time></trkpt><trkpt lat="47.85417464092034" lon="13.35931195324257"><ele>555.3333333333333</ele><time>2026-05-01T12:33:57Z</time></trkpt><trkpt lat="47.85404053516211" lon="13.359548860025381"><ele>554.0</ele><time>2026-05-01T12:33:58Z</time></trkpt><trkpt lat="47.853907405877365" lon="13.359787989193268"><ele>557.3333333333333</ele><time>2026-05-01T12:33:59Z</time></trkpt><trkpt lat="47.85377800513084" lon="13.36002456354535"><ele>560.6666666666666</ele><time>2026-05-01T12:34:00Z</time></trkpt><trkpt lat="47.85365349011035" lon="13.360247023437557"><ele>564.0</ele><time>2026-05-01T12:34:01Z</time></trkpt><trkpt lat="47.853528430161596" lon="13.36046946960449"><ele>560.0</ele><time>2026-05-01T12:34:02Z</time></trkpt><trkpt lat="47.85340222568168" lon="13.360693376321603"><ele>556.0</ele><time>2026-05-01T12:34:03Z</time></trkpt><trkpt lat="47.85327265418804" lon="13.360918734453113"><ele>552.0</ele><time>2026-05-01T12:34:04Z</time></trkpt><trkpt lat="47.85313893273096" lon="13.361141545415526"><ele>552.0</ele><time>2026-05-01T12:34:05Z</time></trkpt><trkpt lat="47.85300364017032" lon="13.361361649013872"><ele>552.0</ele><time>2026-05-01T12:34:06Z</time></trkpt><trkpt lat="47.85286650718377" lon="13.36158257612742"><ele>552.0</ele><time>2026-05-01T12:34:07Z</time></trkpt><trkpt lat="47.8527278264779" lon="13.361801318774514"><ele>551.3333333333334</ele><time>2026-05-01T12:34:08Z</time></trkpt><trkpt lat="47.85258626146243" lon="13.362020892778629"><ele>550.6666666666667</ele><time>2026-05-01T12:34:09Z</time></trkpt><trkpt lat="47.8524441588732" lon="13.362241133837673"><ele>550.0</ele><time>2026-05-01T12:34:10Z</time></trkpt><trkpt lat="47.85230013979349" lon="13.362465878759394"><ele>550.0</ele><time>2026-05-01T12:34:11Z</time></trkpt><trkpt lat="47.85215390874952" lon="13.362692114739732"><ele>550.0</ele><time>2026-05-01T12:34:12Z</time></trkpt><trkpt lat="47.85200463276295" lon="13.36291984808576"><ele>550.0</ele><time>2026-05-01T12:34:13Z</time></trkpt><trkpt lat="47.851853542140894" lon="13.363149328674911"><ele>548.6666666666667</ele><time>2026-05-01T12:34:14Z</time></trkpt><trkpt lat="47.851701867537734" lon="13.363379596088462"><ele>547.3333333333334</ele><time>2026-05-01T12:34:15Z</time></trkpt><trkpt lat="47.85155261054284" lon="13.363607389110248"><ele>546.0</ele><time>2026-05-01T12:34:16Z</time></trkpt><trkpt lat="47.85140749025595" lon="13.363830899285773"><ele>549.3333333333334</ele><time>2026-05-01T12:34:17Z</time></trkpt><trkpt lat="47.85126342401278" lon="13.364053597318051"><ele>552.6666666666667</ele><time>2026-05-01T12:34:18Z</time></trkpt><trkpt lat="47.851117863186744" lon="13.364276890102955"><ele>556.0</ele><time>2026-05-01T12:34:19Z</time></trkpt><trkpt lat="47.85097241257371" lon="13.364503099258348"><ele>553.6666666666667</ele><time>2026-05-01T12:34:20Z</time></trkpt><trkpt lat="47.850827514104296" lon="13.364730455555785"><ele>551.3333333333334</ele><time>2026-05-01T12:34:21Z</time></trkpt><trkpt lat="47.8506832045677" lon="13.36496288116235"><ele>549.0</ele><time>2026-05-01T12:34:22Z</time></trkpt><trkpt lat="47.850541882155795" lon="13.365197682106079"><ele>549.0</ele><time>2026-05-01T12:34:23Z</time></trkpt><trkpt lat="47.85040071136256" lon="13.365434783654486"><ele>549.0</ele><time>2026-05-01T12:34:24Z</time></trkpt><trkpt lat="47.850263677082395" lon="13.36567616247527"><ele>549.0</ele><time>2026-05-01T12:34:25Z</time></trkpt><trkpt lat="47.850130199656945" lon="13.365923051069222"><ele>549.6666666666666</ele><time>2026-05-01T12:34:26Z</time></trkpt><trkpt lat="47.84999986934087" lon="13.366176083344433"><ele>550.3333333333333</ele><time>2026-05-01T12:34:27Z</time></trkpt><trkpt lat="47.84987538295784" lon="13.366434829923536"><ele>551.0</ele><time>2026-05-01T12:34:28Z</time></trkpt><trkpt lat="47.849756717212" lon="13.36669841511601"><ele>551.0</ele><time>2026-05-01T12:34:29Z</time></trkpt><trkpt lat="47.84964242061762" lon="13.36696857650048"><ele>551.0</ele><time>2026-05-01T12:34:30Z</time></trkpt><trkpt lat="47.84953044053248" lon="13.367243159035619"><ele>551.0</ele><time>2026-05-01T12:34:31Z</time></trkpt><trkpt lat="47.84942191358247" lon="13.367522511299137"><ele>553.0</ele><time>2026-05-01T12:34:32Z</time></trkpt><trkpt lat="47.849317255748176" lon="13.367803659691015"><ele>555.0</ele><time>2026-05-01T12:34:33Z</time></trkpt><trkpt lat="47.84921814291478" lon="13.368086507236391"><ele>557.0</ele><time>2026-05-01T12:34:34Z</time></trkpt><trkpt lat="47.84912445795175" lon="13.368374119144944"><ele>555.0</ele><time>2026-05-01T12:34:35Z</time></trkpt><trkpt lat="47.849031249854754" lon="13.36866414825901"><ele>553.0</ele><time>2026-05-01T12:34:36Z</time></trkpt><trkpt lat="47.84893765786339" lon="13.368954708010685"><ele>551.0</ele><time>2026-05-01T12:34:37Z</time></trkpt><trkpt lat="47.84884212259211" lon="13.369244079924263"><ele>551.0</ele><time>2026-05-01T12:34:38Z</time></trkpt><trkpt lat="47.84874583071679" lon="13.369538690212481"><ele>551.0</ele><time>2026-05-01T12:34:39Z</time></trkpt><trkpt lat="47.84865054423433" lon="13.369828335448808"><ele>551.0</ele><time>2026-05-01T12:34:40Z</time></trkpt><trkpt lat="47.848556366444974" lon="13.370115680027153"><ele>553.0</ele><time>2026-05-01T12:34:41Z</time></trkpt><trkpt lat="47.84846217406428" lon="13.370398341970574"><ele>555.0</ele><time>2026-05-01T12:34:42Z</time></trkpt><trkpt lat="47.84836452191602" lon="13.370678786742591"><ele>557.0</ele><time>2026-05-01T12:34:43Z</time></trkpt><trkpt lat="47.84826289914655" lon="13.370955120308203"><ele>553.0</ele><time>2026-05-01T12:34:44Z</time></trkpt><trkpt lat="47.84815908784487" lon="13.37123386921416"><ele>549.0</ele><time>2026-05-01T12:34:45Z</time></trkpt><trkpt lat="47.848049020917756" lon="13.371503082442612"><ele>545.0</ele><time>2026-05-01T12:34:46Z</time></trkpt><trkpt lat="47.84793392007634" lon="13.371770778629333"><ele>545.0</ele><time>2026-05-01T12:34:47Z</time></trkpt><trkpt lat="47.84781816897959" lon="13.372025896844617"><ele>545.0</ele><time>2026-05-01T12:34:48Z</time></trkpt><trkpt lat="47.84770521765677" lon="13.372266500401887"><ele>545.0</ele><time>2026-05-01T12:34:49Z</time></trkpt><trkpt lat="47.84758306887699" lon="13.372514272277693"><ele>543.6666666666666</ele><time>2026-05-01T12:34:50Z</time></trkpt><trkpt lat="47.84745524359441" lon="13.372762971415236"><ele>542.3333333333334</ele><time>2026-05-01T12:34:51Z</time></trkpt><trkpt lat="47.847322958076035" lon="13.37300801184304"><ele>541.0</ele><time>2026-05-01T12:34:52Z</time></trkpt><trkpt lat="47.847187331395695" lon="13.373255871684826"><ele>541.0</ele><time>2026-05-01T12:34:53Z</time></trkpt><trkpt lat="47.84704825148645" lon="13.37350248449842"><ele>541.0</ele><time>2026-05-01T12:34:54Z</time></trkpt><trkpt lat="47.84690416705101" lon="13.373747905771541"><ele>541.0</ele><time>2026-05-01T12:34:55Z</time></trkpt><trkpt lat="47.84675687920586" lon="13.373993345851629"><ele>540.0</ele><time>2026-05-01T12:34:56Z</time></trkpt><trkpt lat="47.846610253564464" lon="13.374243115988708"><ele>539.0</ele><time>2026-05-01T12:34:57Z</time></trkpt><trkpt lat="47.84646327746258" lon="13.374491458796514"><ele>538.0</ele><time>2026-05-01T12:34:58Z</time></trkpt><trkpt lat="47.84631856943455" lon="13.374737105379085"><ele>538.0</ele><time>2026-05-01T12:34:59Z</time></trkpt><trkpt lat="47.8461765669212" lon="13.374979783415412"><ele>538.0</ele><time>2026-05-01T12:35:00Z</time></trkpt><trkpt lat="47.846036348551735" lon="13.375224275284353"><ele>538.0</ele><time>2026-05-01T12:35:01Z</time></trkpt><trkpt lat="47.84589723605371" lon="13.375472292380271"><ele>533.0</ele><time>2026-05-01T12:35:02Z</time></trkpt><trkpt lat="47.845759456696506" lon="13.375720640024467"><ele>528.0</ele><time>2026-05-01T12:35:03Z</time></trkpt><trkpt lat="47.845621712860854" lon="13.375970291991198"><ele>523.0</ele><time>2026-05-01T12:35:04Z</time></trkpt><trkpt lat="47.845485293987736" lon="13.376223448616342"><ele>526.6666666666667</ele><time>2026-05-01T12:35:05Z</time></trkpt><trkpt lat="47.84535499377917" lon="13.37648039728682"><ele>530.3333333333334</ele><time>2026-05-01T12:35:06Z</time></trkpt><trkpt lat="47.845226100134155" lon="13.376739870003949"><ele>534.0</ele><time>2026-05-01T12:35:07Z</time></trkpt><trkpt lat="47.84510143274517" lon="13.377002308431951"><ele>529.6666666666666</ele><time>2026-05-01T12:35:08Z</time></trkpt><trkpt lat="47.84497715089782" lon="13.377263033820844"><ele>525.3333333333333</ele><time>2026-05-01T12:35:09Z</time></trkpt><trkpt lat="47.84485517142241" lon="13.377523576931875"><ele>521.0</ele><time>2026-05-01T12:35:10Z</time></trkpt><trkpt lat="47.844737342722205" lon="13.377789366535923"><ele>525.0</ele><time>2026-05-01T12:35:11Z</time></trkpt><trkpt lat="47.84462213382191" lon="13.378057463380664"><ele>529.0</ele><time>2026-05-01T12:35:12Z</time></trkpt><trkpt lat="47.84450972945759" lon="13.378316455709768"><ele>533.0</ele><time>2026-05-01T12:35:13Z</time></trkpt><trkpt lat="47.8443963857884" lon="13.378589893567717"><ele>528.0</ele><time>2026-05-01T12:35:14Z</time></trkpt><trkpt lat="47.8442858162668" lon="13.378862540075854"><ele>523.0</ele><time>2026-05-01T12:35:15Z</time></trkpt><trkpt lat="47.84417766835525" lon="13.379139005934755"><ele>518.0</ele><time>2026-05-01T12:35:16Z</time></trkpt><trkpt lat="47.84407070132125" lon="13.379418700525338"><ele>521.6666666666666</ele><time>2026-05-01T12:35:17Z</time></trkpt><trkpt lat="47.843966304711536" lon="13.37969809826518"><ele>525.3333333333334</ele><time>2026-05-01T12:35:18Z</time></trkpt><trkpt lat="47.843864529220006" lon="13.379976864400511"><ele>529.0</ele><time>2026-05-01T12:35:19Z</time></trkpt><trkpt lat="47.84376343174066" lon="13.380257132784259"><ele>532.3333333333334</ele><time>2026-05-01T12:35:20Z</time></trkpt><trkpt lat="47.84366360169281" lon="13.380536088565258"><ele>535.6666666666666</ele><time>2026-05-01T12:35:21Z</time></trkpt><trkpt lat="47.84356469472394" lon="13.38081298751069"><ele>539.0</ele><time>2026-05-01T12:35:22Z</time></trkpt><trkpt lat="47.843464025740346" lon="13.381090772305079"><ele>533.6666666666666</ele><time>2026-05-01T12:35:23Z</time></trkpt><trkpt lat="47.843363024294916" lon="13.381367674977108"><ele>528.3333333333334</ele><time>2026-05-01T12:35:24Z</time></trkpt><trkpt lat="47.843261725918836" lon="13.381643788967901"><ele>523.0</ele><time>2026-05-01T12:35:25Z</time></trkpt><trkpt lat="47.84316003132491" lon="13.381919696605683"><ele>526.0</ele><time>2026-05-01T12:35:26Z</time></trkpt><trkpt lat="47.84305678142211" lon="13.382193035422782"><ele>529.0</ele><time>2026-05-01T12:35:27Z</time></trkpt><trkpt lat="47.84295239632148" lon="13.382464380947848"><ele>532.0</ele><time>2026-05-01T12:35:28Z</time></trkpt><trkpt lat="47.84284674920495" lon="13.382732455818514"><ele>532.0</ele><time>2026-05-01T12:35:29Z</time></trkpt><trkpt lat="47.84273766644995" lon="13.382996886276482"><ele>532.0</ele><time>2026-05-01T12:35:30Z</time></trkpt><trkpt lat="47.84262502656105" lon="13.383256506398245"><ele>532.0</ele><time>2026-05-01T12:35:31Z</time></trkpt><trkpt lat="47.84250751292257" lon="13.383510669771619"><ele>529.6666666666667</ele><time>2026-05-01T12:35:32Z</time></trkpt><trkpt lat="47.842391685620846" lon="13.383750769655565"><ele>527.3333333333334</ele><time>2026-05-01T12:35:33Z</time></trkpt><trkpt lat="47.842274708480936" lon="13.383987921039079"><ele>525.0</ele><time>2026-05-01T12:35:34Z</time></trkpt><trkpt lat="47.84215175709156" lon="13.384223668747328"><ele>525.0</ele><time>2026-05-01T12:35:35Z</time></trkpt><trkpt lat="47.842023598543484" lon="13.384456717022742"><ele>525.0</ele><time>2026-05-01T12:35:36Z</time></trkpt><trkpt lat="47.84189214043655" lon="13.384685460815835"><ele>525.0</ele><time>2026-05-01T12:35:37Z</time></trkpt><trkpt lat="47.84175661258484" lon="13.384911827879941"><ele>527.3333333333334</ele><time>2026-05-01T12:35:38Z</time></trkpt><trkpt lat="47.841618647067456" lon="13.38513468925704"><ele>529.6666666666667</ele><time>2026-05-01T12:35:39Z</time></trkpt><trkpt lat="47.84148002898928" lon="13.385351956245051"><ele>532.0</ele><time>2026-05-01T12:35:40Z</time></trkpt><trkpt lat="47.841338246462065" lon="13.385565575443524"><ele>532.0</ele><time>2026-05-01T12:35:41Z</time></trkpt><trkpt lat="47.84119415532791" lon="13.385773639500306"><ele>532.0</ele><time>2026-05-01T12:35:42Z</time></trkpt><trkpt lat="47.8410472419463" lon="13.385976774761149"><ele>532.0</ele><time>2026-05-01T12:35:43Z</time></trkpt><trkpt lat="47.84090251469895" lon="13.386179514217842"><ele>530.6666666666667</ele><time>2026-05-01T12:35:44Z</time></trkpt><trkpt lat="47.840758003275255" lon="13.386379123972402"><ele>529.3333333333334</ele><time>2026-05-01T12:35:45Z</time></trkpt><trkpt lat="47.840607880346326" lon="13.386575060164425"><ele>528.0</ele><time>2026-05-01T12:35:46Z</time></trkpt><trkpt lat="47.840458589629144" lon="13.386776651274577"><ele>528.0</ele><time>2026-05-01T12:35:47Z</time></trkpt><trkpt lat="47.840312231500704" lon="13.386975024710853"><ele>528.0</ele><time>2026-05-01T12:35:48Z</time></trkpt><trkpt lat="47.84016506186745" lon="13.387172734943936"><ele>528.0</ele><time>2026-05-01T12:35:49Z</time></trkpt><trkpt lat="47.840016702440494" lon="13.387368668040223"><ele>526.6666666666666</ele><time>2026-05-01T12:35:50Z</time></trkpt><trkpt lat="47.839867747319246" lon="13.387565047794748"><ele>525.3333333333333</ele><time>2026-05-01T12:35:51Z</time></trkpt><trkpt lat="47.839722384032825" lon="13.387764129674235"><ele>524.0</ele><time>2026-05-01T12:35:52Z</time></trkpt><trkpt lat="47.8395780678183" lon="13.387970085805808"><ele>525.3333333333333</ele><time>2026-05-01T12:35:53Z</time></trkpt><trkpt lat="47.83943269457271" lon="13.388181675813357"><ele>526.6666666666666</ele><time>2026-05-01T12:35:54Z</time></trkpt><trkpt lat="47.83928965161241" lon="13.388394081052043"><ele>528.0</ele><time>2026-05-01T12:35:55Z</time></trkpt><trkpt lat="47.83914831296514" lon="13.388613897018764"><ele>525.6666666666666</ele><time>2026-05-01T12:35:56Z</time></trkpt><trkpt lat="47.83901004549297" lon="13.388839895153778"><ele>523.3333333333333</ele><time>2026-05-01T12:35:57Z</time></trkpt><trkpt lat="47.838874059299584" lon="13.389067943822551"><ele>521.0</ele><time>2026-05-01T12:35:58Z</time></trkpt><trkpt lat="47.838742601167645" lon="13.389302770390541"><ele>521.0</ele><time>2026-05-01T12:35:59Z</time></trkpt><trkpt lat="47.83861778556347" lon="13.389545367274602"><ele>521.0</ele><time>2026-05-01T12:36:00Z</time></trkpt><trkpt lat="47.838499845758605" lon="13.389790072089717"><ele>521.0</ele><time>2026-05-01T12:36:01Z</time></trkpt><trkpt lat="47.83838383188724" lon="13.390036999635662"><ele>520.6666666666666</ele><time>2026-05-01T12:36:02Z</time></trkpt><trkpt lat="47.83827482513733" lon="13.390288749671628"><ele>520.3333333333334</ele><time>2026-05-01T12:36:03Z</time></trkpt><trkpt lat="47.838173514067016" lon="13.390547196994891"><ele>520.0</ele><time>2026-05-01T12:36:04Z</time></trkpt><trkpt lat="47.83807874671948" lon="13.390810008993334"><ele>523.0</ele><time>2026-05-01T12:36:05Z</time></trkpt><trkpt lat="47.837991294948985" lon="13.391074943941678"><ele>526.0</ele><time>2026-05-01T12:36:06Z</time></trkpt><trkpt lat="47.83790930215891" lon="13.391342234537847"><ele>529.0</ele><time>2026-05-01T12:36:07Z</time></trkpt><trkpt lat="47.83783009005563" lon="13.391607548074758"><ele>530.3333333333334</ele><time>2026-05-01T12:36:08Z</time></trkpt><trkpt lat="47.83775761142193" lon="13.3918752394676"><ele>531.6666666666666</ele><time>2026-05-01T12:36:09Z</time></trkpt><trkpt lat="47.837689358598155" lon="13.39214978386802"><ele>533.0</ele><time>2026-05-01T12:36:10Z</time></trkpt><trkpt lat="47.8376316675174" lon="13.392431232174799"><ele>530.3333333333333</ele><time>2026-05-01T12:36:11Z</time></trkpt><trkpt lat="47.837578010599906" lon="13.392718492083626"><ele>527.6666666666666</ele><time>2026-05-01T12:36:12Z</time></trkpt><trkpt lat="47.837527663757264" lon="13.393009935388507"><ele>525.0</ele><time>2026-05-01T12:36:13Z</time></trkpt><trkpt lat="47.83748284631798" lon="13.393304065132902"><ele>525.0</ele><time>2026-05-01T12:36:14Z</time></trkpt><trkpt lat="47.837443883102864" lon="13.393599873301497"><ele>525.0</ele><time>2026-05-01T12:36:15Z</time></trkpt><trkpt lat="47.83741134891821" lon="13.393897922887582"><ele>525.0</ele><time>2026-05-01T12:36:16Z</time></trkpt><trkpt lat="47.83738595726817" lon="13.39419716156719"><ele>525.3333333333334</ele><time>2026-05-01T12:36:17Z</time></trkpt><trkpt lat="47.83736875139767" lon="13.394493883940084"><ele>525.6666666666667</ele><time>2026-05-01T12:36:18Z</time></trkpt><trkpt lat="47.837358611250075" lon="13.394790052811926"><ele>526.0</ele><time>2026-05-01T12:36:19Z</time></trkpt><trkpt lat="47.837352724686326" lon="13.395081243370484"><ele>526.3333333333334</ele><time>2026-05-01T12:36:20Z</time></trkpt><trkpt lat="47.837354406757015" lon="13.395370889785902"><ele>526.6666666666666</ele><time>2026-05-01T12:36:21Z</time></trkpt><trkpt lat="47.83736184279697" lon="13.39566079747037"><ele>527.0</ele><time>2026-05-01T12:36:22Z</time></trkpt><trkpt lat="47.83737208376232" lon="13.395942004151555"><ele>525.6666666666666</ele><time>2026-05-01T12:36:23Z</time></trkpt><trkpt lat="47.83738620382171" lon="13.396212358462284"><ele>524.3333333333334</ele><time>2026-05-01T12:36:24Z</time></trkpt><trkpt lat="47.83740804517388" lon="13.39648381463252"><ele>523.0</ele><time>2026-05-01T12:36:25Z</time></trkpt><trkpt lat="47.83743346720275" lon="13.396754499821043"><ele>522.6666666666667</ele><time>2026-05-01T12:36:26Z</time></trkpt><trkpt lat="47.83746285702139" lon="13.397024703281206"><ele>522.3333333333334</ele><time>2026-05-01T12:36:27Z</time></trkpt><trkpt lat="47.837494859860385" lon="13.397298841853948"><ele>522.0</ele><time>2026-05-01T12:36:28Z</time></trkpt><trkpt lat="47.83752770844611" lon="13.397575241652113"><ele>521.3333333333334</ele><time>2026-05-01T12:36:29Z</time></trkpt><trkpt lat="47.83756435267098" lon="13.397854382731127"><ele>520.6666666666667</ele><time>2026-05-01T12:36:30Z</time></trkpt><trkpt lat="47.83760698367653" lon="13.398136836224166"><ele>520.0</ele><time>2026-05-01T12:36:31Z</time></trkpt><trkpt lat="47.8376511386082" lon="13.39842329614906"><ele>521.6666666666667</ele><time>2026-05-01T12:36:32Z</time></trkpt><trkpt lat="47.837695714783024" lon="13.398713844380982"><ele>523.3333333333334</ele><time>2026-05-01T12:36:33Z</time></trkpt><trkpt lat="47.8377393903821" lon="13.399005291752646"><ele>525.0</ele><time>2026-05-01T12:36:34Z</time></trkpt><trkpt lat="47.83778312068058" lon="13.399297598421818"><ele>525.0</ele><time>2026-05-01T12:36:35Z</time></trkpt><trkpt lat="47.837825764506576" lon="13.39959167388478"><ele>525.0</ele><time>2026-05-01T12:36:36Z</time></trkpt><trkpt lat="47.83786504046519" lon="13.399873762589381"><ele>525.0</ele><time>2026-05-01T12:36:37Z</time></trkpt><trkpt lat="47.83790149455211" lon="13.400148228325348"><ele>523.6666666666666</ele><time>2026-05-01T12:36:38Z</time></trkpt><trkpt lat="47.83793811296674" lon="13.40043003105588"><ele>522.3333333333333</ele><time>2026-05-01T12:36:39Z</time></trkpt><trkpt lat="47.83797192463903" lon="13.400716395651985"><ele>521.0</ele><time>2026-05-01T12:36:40Z</time></trkpt><trkpt lat="47.8380007358592" lon="13.401005265603319"><ele>520.6666666666666</ele><time>2026-05-01T12:36:41Z</time></trkpt><trkpt lat="47.838025290185215" lon="13.401294287026653"><ele>520.3333333333334</ele><time>2026-05-01T12:36:42Z</time></trkpt><trkpt lat="47.83804274467043" lon="13.401585168806717"><ele>520.0</ele><time>2026-05-01T12:36:43Z</time></trkpt><trkpt lat="47.83805498039951" lon="13.401874988722499"><ele>517.6666666666667</ele><time>2026-05-01T12:36:44Z</time></trkpt><trkpt lat="47.838062984102486" lon="13.402168074508854"><ele>515.3333333333334</ele><time>2026-05-01T12:36:45Z</time></trkpt><trkpt lat="47.838064931683924" lon="13.402458261835738"><ele>513.0</ele><time>2026-05-01T12:36:46Z</time></trkpt><trkpt lat="47.83806140530513" lon="13.402746716276503"><ele>514.3333333333334</ele><time>2026-05-01T12:36:47Z</time></trkpt><trkpt lat="47.83805241448574" lon="13.403033238319628"><ele>515.6666666666667</ele><time>2026-05-01T12:36:48Z</time></trkpt><trkpt lat="47.838039838499505" lon="13.403317064157791"><ele>517.0</ele><time>2026-05-01T12:36:49Z</time></trkpt><trkpt lat="47.838024546144545" lon="13.403598327157598"><ele>518.6666666666667</ele><time>2026-05-01T12:36:50Z</time></trkpt><trkpt lat="47.838002127921996" lon="13.40387706686933"><ele>520.3333333333334</ele><time>2026-05-01T12:36:51Z</time></trkpt><trkpt lat="47.8379749470516" lon="13.404153415324771"><ele>522.0</ele><time>2026-05-01T12:36:52Z</time></trkpt><trkpt lat="47.83794288960677" lon="13.40442894681171"><ele>522.6666666666666</ele><time>2026-05-01T12:36:53Z</time></trkpt><trkpt lat="47.83790582495047" lon="13.404706358575684"><ele>523.3333333333333</ele><time>2026-05-01T12:36:54Z</time></trkpt><trkpt lat="47.83786515481524" lon="13.404983936139613"><ele>524.0</ele><time>2026-05-01T12:36:55Z</time></trkpt><trkpt lat="47.83782075583995" lon="13.4052624938519"><ele>526.0</ele><time>2026-05-01T12:36:56Z</time></trkpt><trkpt lat="47.837772930252086" lon="13.40554079270686"><ele>528.0</ele><time>2026-05-01T12:36:57Z</time></trkpt><trkpt lat="47.83772333782814" lon="13.405821113879819"><ele>530.0</ele><time>2026-05-01T12:36:58Z</time></trkpt><trkpt lat="47.837670230759045" lon="13.406101122858583"><ele>528.6666666666666</ele><time>2026-05-01T12:36:59Z</time></trkpt><trkpt lat="47.83761850407994" lon="13.406382917866154"><ele>527.3333333333334</ele><time>2026-05-01T12:37:00Z</time></trkpt><trkpt lat="47.83756366797623" lon="13.406667784824002"><ele>526.0</ele><time>2026-05-01T12:37:01Z</time></trkpt><trkpt lat="47.837509715286224" lon="13.40695480876781"><ele>528.0</ele><time>2026-05-01T12:37:02Z</time></trkpt><trkpt lat="47.837453444236246" lon="13.40724084633543"><ele>530.0</ele><time>2026-05-01T12:37:03Z</time></trkpt><trkpt lat="47.83739619451859" lon="13.40752958252436"><ele>532.0</ele><time>2026-05-01T12:37:04Z</time></trkpt><trkpt lat="47.837340460108635" lon="13.407818927828577"><ele>533.0</ele><time>2026-05-01T12:37:05Z</time></trkpt><trkpt lat="47.83728263043568" lon="13.408109544819851"><ele>534.0</ele><time>2026-05-01T12:37:06Z</time></trkpt><trkpt lat="47.83722522126864" lon="13.408398654178091"><ele>535.0</ele><time>2026-05-01T12:37:07Z</time></trkpt><trkpt lat="47.83716824471745" lon="13.408689242371631"><ele>535.6666666666667</ele><time>2026-05-01T12:37:08Z</time></trkpt><trkpt lat="47.83711114570769" lon="13.408980313923903"><ele>536.3333333333334</ele><time>2026-05-01T12:37:09Z</time></trkpt><trkpt lat="47.83705580511561" lon="13.409270119130099"><ele>537.0</ele><time>2026-05-01T12:37:10Z</time></trkpt><trkpt lat="47.83699984391495" lon="13.409556937987837"><ele>538.0</ele><time>2026-05-01T12:37:11Z</time></trkpt><trkpt lat="47.83694357600914" lon="13.409838646354691"><ele>539.0</ele><time>2026-05-01T12:37:12Z</time></trkpt><trkpt lat="47.836887723030614" lon="13.41012033940308"><ele>540.0</ele><time>2026-05-01T12:37:13Z</time></trkpt><trkpt lat="47.836830894948555" lon="13.410398484612104"><ele>538.0</ele><time>2026-05-01T12:37:14Z</time></trkpt><trkpt lat="47.83677453804716" lon="13.410678113955179"><ele>536.0</ele><time>2026-05-01T12:37:15Z</time></trkpt><trkpt lat="47.83671831575643" lon="13.410959853211763"><ele>534.0</ele><time>2026-05-01T12:37:16Z</time></trkpt><trkpt lat="47.836662317095" lon="13.411242061118207"><ele>535.0</ele><time>2026-05-01T12:37:17Z</time></trkpt><trkpt lat="47.83660828633948" lon="13.411526437354926"><ele>536.0</ele><time>2026-05-01T12:37:18Z</time></trkpt><trkpt lat="47.836557390198045" lon="13.41181196082482"><ele>537.0</ele><time>2026-05-01T12:37:19Z</time></trkpt><trkpt lat="47.8365086248426" lon="13.412099508535267"><ele>539.3333333333334</ele><time>2026-05-01T12:37:20Z</time></trkpt><trkpt lat="47.83646292373615" lon="13.412389974303974"><ele>541.6666666666667</ele><time>2026-05-01T12:37:21Z</time></trkpt><trkpt lat="47.83641799985284" lon="13.412683066977845"><ele>544.0</ele><time>2026-05-01T12:37:22Z</time></trkpt><trkpt lat="47.83637366800277" lon="13.412980245087455"><ele>544.3333333333334</ele><time>2026-05-01T12:37:23Z</time></trkpt><trkpt lat="47.83632926683256" lon="13.413289071523948"><ele>544.6666666666666</ele><time>2026-05-01T12:37:24Z</time></trkpt><trkpt lat="47.83628760208898" lon="13.413609592001558"><ele>545.0</ele><time>2026-05-01T12:37:25Z</time></trkpt><trkpt lat="47.83625083226884" lon="13.41394151048118"><ele>545.0</ele><time>2026-05-01T12:37:26Z</time></trkpt><trkpt lat="47.836219023817385" lon="13.414286017092303"><ele>545.0</ele><time>2026-05-01T12:37:27Z</time></trkpt><trkpt lat="47.83619158404902" lon="13.414642539520274"><ele>544.5</ele><time>2026-05-01T12:37:28Z</time></trkpt><trkpt lat="47.83617161125378" lon="13.4150116645978"><ele>544.0</ele><time>2026-05-01T12:37:29Z</time></trkpt><trkpt lat="47.836157923487875" lon="13.415394607834603"><ele>544.0</ele><time>2026-05-01T12:37:30Z</time></trkpt><trkpt lat="47.836147889058225" lon="13.415778738347534"><ele>544.0</ele><time>2026-05-01T12:37:31Z</time></trkpt><trkpt lat="47.836144066288426" lon="13.416171952203019"><ele>545.0</ele><time>2026-05-01T12:37:32Z</time></trkpt><trkpt lat="47.83614698903063" lon="13.416554553287108"><ele>546.0</ele><time>2026-05-01T12:37:33Z</time></trkpt><trkpt lat="47.836156757556374" lon="13.416947042967823"><ele>546.0</ele><time>2026-05-01T12:37:34Z</time></trkpt><trkpt lat="47.83617183232299" lon="13.417343559706865"><ele>546.0</ele><time>2026-05-01T12:37:35Z</time></trkpt><trkpt lat="47.836200435236286" lon="13.417748320071855"><ele>544.5</ele><time>2026-05-01T12:37:36Z</time></trkpt><trkpt lat="47.83623648687423" lon="13.418160935903638"><ele>543.0</ele><time>2026-05-01T12:37:37Z</time></trkpt><trkpt lat="47.83627672659618" lon="13.418580128688099"><ele>542.0</ele><time>2026-05-01T12:37:38Z</time></trkpt><trkpt lat="47.83632328382313" lon="13.41900621152324"><ele>541.0</ele><time>2026-05-01T12:37:39Z</time></trkpt><trkpt lat="47.83637917992198" lon="13.419435746519806"><ele>538.0</ele><time>2026-05-01T12:37:40Z</time></trkpt><trkpt lat="47.836445533787554" lon="13.419866926213247"><ele>535.0</ele><time>2026-05-01T12:37:41Z</time></trkpt><trkpt lat="47.83651919546001" lon="13.420304145367883"><ele>534.5</ele><time>2026-05-01T12:37:42Z</time></trkpt><trkpt lat="47.836598864140605" lon="13.42074248203702"><ele>534.0</ele><time>2026-05-01T12:37:43Z</time></trkpt><trkpt lat="47.83668346880763" lon="13.421182501222722"><ele>532.5</ele><time>2026-05-01T12:37:44Z</time></trkpt><trkpt lat="47.8367731238696" lon="13.421625308064547"><ele>531.0</ele><time>2026-05-01T12:37:45Z</time></trkpt><trkpt lat="47.83686718395031" lon="13.422067504962111"><ele>533.5</ele><time>2026-05-01T12:37:46Z</time></trkpt><trkpt lat="47.83696550472606" lon="13.422505356767534"><ele>536.0</ele><time>2026-05-01T12:37:47Z</time></trkpt><trkpt lat="47.83706606863134" lon="13.422941876448117"><ele>532.5</ele><time>2026-05-01T12:37:48Z</time></trkpt><trkpt lat="47.83717302613771" lon="13.423370623224974"><ele>529.0</ele><time>2026-05-01T12:37:49Z</time></trkpt><trkpt lat="47.837280111241" lon="13.423796970758673"><ele>526.0</ele><time>2026-05-01T12:37:50Z</time></trkpt><trkpt lat="47.83739036784334" lon="13.424219377459833"><ele>523.0</ele><time>2026-05-01T12:37:51Z</time></trkpt><trkpt lat="47.83749815737482" lon="13.42463506748454"><ele>520.5</ele><time>2026-05-01T12:37:52Z</time></trkpt><trkpt lat="47.83760680840524" lon="13.4250506188552"><ele>518.0</ele><time>2026-05-01T12:37:53Z</time></trkpt><trkpt lat="47.83771941777885" lon="13.42546157604427"><ele>518.0</ele><time>2026-05-01T12:37:54Z</time></trkpt><trkpt lat="47.83783124224789" lon="13.425869315491848"><ele>518.0</ele><time>2026-05-01T12:37:55Z</time></trkpt><trkpt lat="47.83794119883131" lon="13.426277839651592"><ele>517.0</ele><time>2026-05-01T12:37:56Z</time></trkpt><trkpt lat="47.838050757379385" lon="13.426681812345288"><ele>516.0</ele><time>2026-05-01T12:37:57Z</time></trkpt><trkpt lat="47.83815764478123" lon="13.427080777265095"><ele>516.0</ele><time>2026-05-01T12:37:58Z</time></trkpt><trkpt lat="47.838265206594585" lon="13.427473021222456"><ele>516.0</ele><time>2026-05-01T12:37:59Z</time></trkpt><trkpt lat="47.83836911419196" lon="13.427860007072995"><ele>517.5</ele><time>2026-05-01T12:38:00Z</time></trkpt><trkpt lat="47.83847127531909" lon="13.428242427336901"><ele>519.0</ele><time>2026-05-01T12:38:01Z</time></trkpt><trkpt lat="47.83857097758219" lon="13.428624629680874"><ele>524.5</ele><time>2026-05-01T12:38:02Z</time></trkpt><trkpt lat="47.8386693982213" lon="13.429005649896341"><ele>530.0</ele><time>2026-05-01T12:38:03Z</time></trkpt><trkpt lat="47.83877123853678" lon="13.429384959109532"><ele>531.5</ele><time>2026-05-01T12:38:04Z</time></trkpt><trkpt lat="47.83887530789561" lon="13.429765949620691"><ele>533.0</ele><time>2026-05-01T12:38:05Z</time></trkpt><trkpt lat="47.838983484282586" lon="13.430149796722155"><ele>534.0</ele><time>2026-05-01T12:38:06Z</time></trkpt><trkpt lat="47.8390920120417" lon="13.430535759472898"><ele>535.0</ele><time>2026-05-01T12:38:07Z</time></trkpt><trkpt lat="47.83920416300688" lon="13.430923576107704"><ele>539.0</ele><time>2026-05-01T12:38:08Z</time></trkpt><trkpt lat="47.8393198091262" lon="13.431311380850165"><ele>543.0</ele><time>2026-05-01T12:38:09Z</time></trkpt><trkpt lat="47.83943752711057" lon="13.431700193552949"><ele>543.0</ele><time>2026-05-01T12:38:10Z</time></trkpt><trkpt lat="47.83955867447675" lon="13.432088178227207"><ele>543.0</ele><time>2026-05-01T12:38:11Z</time></trkpt><trkpt lat="47.83968198014104" lon="13.432478624082824"><ele>544.0</ele><time>2026-05-01T12:38:12Z</time></trkpt><trkpt lat="47.839809515022196" lon="13.432867231390176"><ele>545.0</ele><time>2026-05-01T12:38:13Z</time></trkpt><trkpt lat="47.83993763138722" lon="13.433253724575374"><ele>545.0</ele><time>2026-05-01T12:38:14Z</time></trkpt><trkpt lat="47.840070558639205" lon="13.433638751240212"><ele>545.0</ele><time>2026-05-01T12:38:15Z</time></trkpt><trkpt lat="47.84020902162669" lon="13.434021433018899"><ele>545.0</ele><time>2026-05-01T12:38:16Z</time></trkpt><trkpt lat="47.840354900882446" lon="13.434400890498102"><ele>545.0</ele><time>2026-05-01T12:38:17Z</time></trkpt><trkpt lat="47.84050535694605" lon="13.434776959141661"><ele>546.5</ele><time>2026-05-01T12:38:18Z</time></trkpt><trkpt lat="47.84066193539603" lon="13.435149326876338"><ele>548.0</ele><time>2026-05-01T12:38:19Z</time></trkpt><trkpt lat="47.84082426324005" lon="13.435517551680105"><ele>545.5</ele><time>2026-05-01T12:38:20Z</time></trkpt><trkpt lat="47.84098843288913" lon="13.435880635134142"><ele>543.0</ele><time>2026-05-01T12:38:21Z</time></trkpt><trkpt lat="47.84115981746387" lon="13.436235013650458"><ele>547.0</ele><time>2026-05-01T12:38:22Z</time></trkpt><trkpt lat="47.841340253525296" lon="13.43658181413507"><ele>551.0</ele><time>2026-05-01T12:38:23Z</time></trkpt><trkpt lat="47.84152522638048" lon="13.436927852443644"><ele>552.5</ele><time>2026-05-01T12:38:24Z</time></trkpt><trkpt lat="47.8417198452068" lon="13.437264617285935"><ele>554.0</ele><time>2026-05-01T12:38:25Z</time></trkpt><trkpt lat="47.84192062727554" lon="13.437595181588584"><ele>554.5</ele><time>2026-05-01T12:38:26Z</time></trkpt><trkpt lat="47.84212893283508" lon="13.437916158960789"><ele>555.0</ele><time>2026-05-01T12:38:27Z</time></trkpt><trkpt lat="47.84234541868028" lon="13.43822787864849"><ele>557.0</ele><time>2026-05-01T12:38:28Z</time></trkpt><trkpt lat="47.8425662744487" lon="13.438532308702698"><ele>559.0</ele><time>2026-05-01T12:38:29Z</time></trkpt><trkpt lat="47.8427893146778" lon="13.438827619397287"><ele>559.0</ele><time>2026-05-01T12:38:30Z</time></trkpt><trkpt lat="47.84302296447293" lon="13.439102858991737"><ele>559.0</ele><time>2026-05-01T12:38:31Z</time></trkpt><trkpt lat="47.84326382489118" lon="13.439364940645303"><ele>559.5</ele><time>2026-05-01T12:38:32Z</time></trkpt><trkpt lat="47.843512010308345" lon="13.439617096927261"><ele>560.0</ele><time>2026-05-01T12:38:33Z</time></trkpt><trkpt lat="47.8437637782891" lon="13.439854806548759"><ele>560.0</ele><time>2026-05-01T12:38:34Z</time></trkpt><trkpt lat="47.84401345562616" lon="13.440077481189283"><ele>560.0</ele><time>2026-05-01T12:38:35Z</time></trkpt><trkpt lat="47.84426990330197" lon="13.4402885775959"><ele>560.0</ele><time>2026-05-01T12:38:36Z</time></trkpt><trkpt lat="47.84452913743937" lon="13.440488784971354"><ele>560.0</ele><time>2026-05-01T12:38:37Z</time></trkpt><trkpt lat="47.84479030710073" lon="13.440671195179323"><ele>560.0</ele><time>2026-05-01T12:38:38Z</time></trkpt><trkpt lat="47.84505300002114" lon="13.440839522095798"><ele>560.0</ele><time>2026-05-01T12:38:39Z</time></trkpt><trkpt lat="47.84531843296323" lon="13.440997216596202"><ele>560.5</ele><time>2026-05-01T12:38:40Z</time></trkpt><trkpt lat="47.84558943152922" lon="13.441143110131101"><ele>561.0</ele><time>2026-05-01T12:38:41Z</time></trkpt><trkpt lat="47.84585811984483" lon="13.441276995376812"><ele>566.0</ele><time>2026-05-01T12:38:42Z</time></trkpt><trkpt lat="47.84613048086716" lon="13.441395488349288"><ele>571.0</ele><time>2026-05-01T12:38:43Z</time></trkpt><trkpt lat="47.84640663101184" lon="13.441497016071105"><ele>571.0</ele><time>2026-05-01T12:38:44Z</time></trkpt><trkpt lat="47.84668573125593" lon="13.441592420074523"><ele>571.0</ele><time>2026-05-01T12:38:45Z</time></trkpt><trkpt lat="47.8469675236676" lon="13.441671136875225"><ele>572.0</ele><time>2026-05-01T12:38:46Z</time></trkpt><trkpt lat="47.847247997708145" lon="13.441735690064835"><ele>573.0</ele><time>2026-05-01T12:38:47Z</time></trkpt><trkpt lat="47.847529461258674" lon="13.441788861898562"><ele>572.5</ele><time>2026-05-01T12:38:48Z</time></trkpt><trkpt lat="47.84781126681006" lon="13.441828876886717"><ele>572.0</ele><time>2026-05-01T12:38:49Z</time></trkpt><trkpt lat="47.848099048042805" lon="13.441854320838797"><ele>572.0</ele><time>2026-05-01T12:38:50Z</time></trkpt><trkpt lat="47.848386185489694" lon="13.441865348188518"><ele>572.0</ele><time>2026-05-01T12:38:51Z</time></trkpt><trkpt lat="47.84867177643969" lon="13.441861103348636"><ele>572.5</ele><time>2026-05-01T12:38:52Z</time></trkpt><trkpt lat="47.848958717616405" lon="13.441843107564264"><ele>573.0</ele><time>2026-05-01T12:38:53Z</time></trkpt><trkpt lat="47.84924708246958" lon="13.441813321452802"><ele>569.5</ele><time>2026-05-01T12:38:54Z</time></trkpt><trkpt lat="47.84953658065589" lon="13.441773358810654"><ele>566.0</ele><time>2026-05-01T12:38:55Z</time></trkpt><trkpt lat="47.849822821191474" lon="13.441720967489454"><ele>566.0</ele><time>2026-05-01T12:38:56Z</time></trkpt><trkpt lat="47.85010905402183" lon="13.441659291750259"><ele>566.0</ele><time>2026-05-01T12:38:57Z</time></trkpt><trkpt lat="47.85039422249351" lon="13.441585598626727"><ele>564.5</ele><time>2026-05-01T12:38:58Z</time></trkpt><trkpt lat="47.85068088681863" lon="13.441503160007864"><ele>563.0</ele><time>2026-05-01T12:38:59Z</time></trkpt><trkpt lat="47.85096761749518" lon="13.441414710228562"><ele>560.5</ele><time>2026-05-01T12:39:00Z</time></trkpt><trkpt lat="47.8512524455913" lon="13.44131644584041"><ele>558.0</ele><time>2026-05-01T12:39:01Z</time></trkpt><trkpt lat="47.851538743462086" lon="13.441215196154324"><ele>557.5</ele><time>2026-05-01T12:39:02Z</time></trkpt><trkpt lat="47.8518249570859" lon="13.441104848655499"><ele>557.0</ele><time>2026-05-01T12:39:03Z</time></trkpt><trkpt lat="47.85210931658559" lon="13.440992108574234"><ele>557.0</ele><time>2026-05-01T12:39:04Z</time></trkpt><trkpt lat="47.852394464712084" lon="13.440874107789664"><ele>557.0</ele><time>2026-05-01T12:39:05Z</time></trkpt><trkpt lat="47.85267833822038" lon="13.44075361052942"><ele>556.5</ele><time>2026-05-01T12:39:06Z</time></trkpt><trkpt lat="47.85296353409618" lon="13.440632416809512"><ele>556.0</ele><time>2026-05-01T12:39:07Z</time></trkpt><trkpt lat="47.85324893665764" lon="13.440512573867634"><ele>556.5</ele><time>2026-05-01T12:39:08Z</time></trkpt><trkpt lat="47.85353440795563" lon="13.440383143928944"><ele>557.0</ele><time>2026-05-01T12:39:09Z</time></trkpt><trkpt lat="47.853819670098176" lon="13.44025442736109"><ele>557.0</ele><time>2026-05-01T12:39:10Z</time></trkpt><trkpt lat="47.85410524218348" lon="13.440127606670243"><ele>557.0</ele><time>2026-05-01T12:39:11Z</time></trkpt><trkpt lat="47.85439065045834" lon="13.440005033444452"><ele>555.5</ele><time>2026-05-01T12:39:12Z</time></trkpt><trkpt lat="47.854677308535756" lon="13.439886471226348"><ele>554.0</ele><time>2026-05-01T12:39:13Z</time></trkpt><trkpt lat="47.85496418543285" lon="13.439775077676897"><ele>553.5</ele><time>2026-05-01T12:39:14Z</time></trkpt><trkpt lat="47.85525023386568" lon="13.439669562421658"><ele>553.0</ele><time>2026-05-01T12:39:15Z</time></trkpt><trkpt lat="47.85553674485776" lon="13.439572555234506"><ele>553.5</ele><time>2026-05-01T12:39:16Z</time></trkpt><trkpt lat="47.85582227276905" lon="13.43947911074955"><ele>554.0</ele><time>2026-05-01T12:39:17Z</time></trkpt><trkpt lat="47.856107888805596" lon="13.439387334181156"><ele>554.0</ele><time>2026-05-01T12:39:18Z</time></trkpt><trkpt lat="47.856394442695844" lon="13.439299630572293"><ele>554.0</ele><time>2026-05-01T12:39:19Z</time></trkpt><trkpt lat="47.85668054180245" lon="13.439212563155303"><ele>556.5</ele><time>2026-05-01T12:39:20Z</time></trkpt><trkpt lat="47.856969531859605" lon="13.439134443254058"><ele>559.0</ele><time>2026-05-01T12:39:21Z</time></trkpt><trkpt lat="47.85725823359145" lon="13.439063295783784"><ele>559.0</ele><time>2026-05-01T12:39:22Z</time></trkpt><trkpt lat="47.85754675910115" lon="13.438996222140423"><ele>559.0</ele><time>2026-05-01T12:39:23Z</time></trkpt><trkpt lat="47.85783582313759" lon="13.438928659757533"><ele>561.0</ele><time>2026-05-01T12:39:24Z</time></trkpt><trkpt lat="47.85812468607697" lon="13.438864610911839"><ele>563.0</ele><time>2026-05-01T12:39:25Z</time></trkpt><trkpt lat="47.85841385361591" lon="13.438802192094098"><ele>562.5</ele><time>2026-05-01T12:39:26Z</time></trkpt><trkpt lat="47.85870262094329" lon="13.438745225354086"><ele>562.0</ele><time>2026-05-01T12:39:27Z</time></trkpt><trkpt lat="47.85899022258055" lon="13.438689379115491"><ele>562.0</ele><time>2026-05-01T12:39:28Z</time></trkpt><trkpt lat="47.85927834373039" lon="13.438635681495724"><ele>562.0</ele><time>2026-05-01T12:39:29Z</time></trkpt><trkpt lat="47.85956581548915" lon="13.438583032290115"><ele>563.0</ele><time>2026-05-01T12:39:30Z</time></trkpt><trkpt lat="47.859854003193504" lon="13.43853311078091"><ele>564.0</ele><time>2026-05-01T12:39:31Z</time></trkpt><trkpt lat="47.86014188103837" lon="13.438486363424913"><ele>565.0</ele><time>2026-05-01T12:39:32Z</time></trkpt><trkpt lat="47.860428819396475" lon="13.438438755867786"><ele>566.0</ele><time>2026-05-01T12:39:33Z</time></trkpt><trkpt lat="47.86071576918152" lon="13.438392327184594"><ele>567.0</ele><time>2026-05-01T12:39:34Z</time></trkpt><trkpt lat="47.86100374527796" lon="13.438347447724729"><ele>568.0</ele><time>2026-05-01T12:39:35Z</time></trkpt><trkpt lat="47.86129285444584" lon="13.438301436851743"><ele>568.0</ele><time>2026-05-01T12:39:36Z</time></trkpt><trkpt lat="47.86157986675928" lon="13.43825800073381"><ele>568.0</ele><time>2026-05-01T12:39:37Z</time></trkpt><trkpt lat="47.86185497839694" lon="13.438216566345783"><ele>571.0</ele><time>2026-05-01T12:39:38Z</time></trkpt><trkpt lat="47.862135565766394" lon="13.438175297591554"><ele>574.0</ele><time>2026-05-01T12:39:39Z</time></trkpt><trkpt lat="47.86242765003761" lon="13.438130814889375"><ele>574.5</ele><time>2026-05-01T12:39:40Z</time></trkpt><trkpt lat="47.86272397697199" lon="13.438085776138754"><ele>575.0</ele><time>2026-05-01T12:39:41Z</time></trkpt><trkpt lat="47.863025741366215" lon="13.43803867462071"><ele>575.0</ele><time>2026-05-01T12:39:42Z</time></trkpt><trkpt lat="47.86332738894844" lon="13.437988720835186"><ele>575.0</ele><time>2026-05-01T12:39:43Z</time></trkpt><trkpt lat="47.86362987955885" lon="13.437928151054713"><ele>575.0</ele><time>2026-05-01T12:39:44Z</time></trkpt><trkpt lat="47.86393384777035" lon="13.437870101491662"><ele>575.0</ele><time>2026-05-01T12:39:45Z</time></trkpt><trkpt lat="47.86423733348448" lon="13.437813804473967"><ele>576.5</ele><time>2026-05-01T12:39:46Z</time></trkpt><trkpt lat="47.86454005118152" lon="13.437760847403663"><ele>578.0</ele><time>2026-05-01T12:39:47Z</time></trkpt><trkpt lat="47.86484237487441" lon="13.437705666144932"><ele>579.0</ele><time>2026-05-01T12:39:48Z</time></trkpt><trkpt lat="47.865142275551385" lon="13.437648550966873"><ele>580.0</ele><time>2026-05-01T12:39:49Z</time></trkpt><trkpt lat="47.865439826160454" lon="13.437592892448544"><ele>580.0</ele><time>2026-05-01T12:39:50Z</time></trkpt><trkpt lat="47.86573477201966" lon="13.437531853642053"><ele>580.0</ele><time>2026-05-01T12:39:51Z</time></trkpt><trkpt lat="47.866027526503906" lon="13.437468086378995"><ele>583.0</ele><time>2026-05-01T12:39:52Z</time></trkpt><trkpt lat="47.86631893938777" lon="13.437403813672711"><ele>586.0</ele><time>2026-05-01T12:39:53Z</time></trkpt><trkpt lat="47.86660868988571" lon="13.437345727721333"><ele>588.0</ele><time>2026-05-01T12:39:54Z</time></trkpt><trkpt lat="47.866897646366425" lon="13.437286119327714"><ele>590.0</ele><time>2026-05-01T12:39:55Z</time></trkpt><trkpt lat="47.86718350858841" lon="13.437224111492862"><ele>590.0</ele><time>2026-05-01T12:39:56Z</time></trkpt><trkpt lat="47.86746963189669" lon="13.437156924415147"><ele>590.0</ele><time>2026-05-01T12:39:57Z</time></trkpt><trkpt lat="47.86775714708218" lon="13.437092402376134"><ele>588.0</ele><time>2026-05-01T12:39:58Z</time></trkpt><trkpt lat="47.86804481414059" lon="13.437014897308254"><ele>586.0</ele><time>2026-05-01T12:39:59Z</time></trkpt><trkpt lat="47.868332010684966" lon="13.436930070865971"><ele>589.0</ele><time>2026-05-01T12:40:00Z</time></trkpt><trkpt lat="47.868618906530656" lon="13.436840914717553"><ele>592.0</ele><time>2026-05-01T12:40:01Z</time></trkpt><trkpt lat="47.86890540031346" lon="13.436749638365535"><ele>592.0</ele><time>2026-05-01T12:40:02Z</time></trkpt><trkpt lat="47.869191287516266" lon="13.436660550044435"><ele>592.0</ele><time>2026-05-01T12:40:03Z</time></trkpt><trkpt lat="47.86947559925014" lon="13.436567022490596"><ele>594.5</ele><time>2026-05-01T12:40:04Z</time></trkpt><trkpt lat="47.869758401601075" lon="13.436473902644725"><ele>597.0</ele><time>2026-05-01T12:40:05Z</time></trkpt><trkpt lat="47.87004027651593" lon="13.436375848093569"><ele>594.5</ele><time>2026-05-01T12:40:06Z</time></trkpt><trkpt lat="47.87032237190895" lon="13.43627684063143"><ele>592.0</ele><time>2026-05-01T12:40:07Z</time></trkpt><trkpt lat="47.87060365629861" lon="13.436176172395944"><ele>592.0</ele><time>2026-05-01T12:40:08Z</time></trkpt><trkpt lat="47.870885510877066" lon="13.4360764834373"><ele>592.0</ele><time>2026-05-01T12:40:09Z</time></trkpt><trkpt lat="47.87116743048513" lon="13.43597499695186"><ele>595.5</ele><time>2026-05-01T12:40:10Z</time></trkpt><trkpt lat="47.87144982151121" lon="13.435875560923675"><ele>599.0</ele><time>2026-05-01T12:40:11Z</time></trkpt><trkpt lat="47.87173228919428" lon="13.435775925888105"><ele>602.0</ele><time>2026-05-01T12:40:12Z</time></trkpt><trkpt lat="47.87201408854012" lon="13.435676010696062"><ele>605.0</ele><time>2026-05-01T12:40:13Z</time></trkpt><trkpt lat="47.87229600041193" lon="13.435578037825"><ele>605.0</ele><time>2026-05-01T12:40:14Z</time></trkpt><trkpt lat="47.87257810636565" lon="13.435478768475296"><ele>605.0</ele><time>2026-05-01T12:40:15Z</time></trkpt><trkpt lat="47.872860832582184" lon="13.435380630658871"><ele>602.5</ele><time>2026-05-01T12:40:16Z</time></trkpt><trkpt lat="47.87314051000836" lon="13.43527641980143"><ele>600.0</ele><time>2026-05-01T12:40:17Z</time></trkpt><trkpt lat="47.873421745420984" lon="13.435172376602065"><ele>604.5</ele><time>2026-05-01T12:40:18Z</time></trkpt><trkpt lat="47.873703571666624" lon="13.435072180649989"><ele>609.0</ele><time>2026-05-01T12:40:19Z</time></trkpt><trkpt lat="47.873985699888244" lon="13.434971090489574"><ele>609.0</ele><time>2026-05-01T12:40:20Z</time></trkpt><trkpt lat="47.87426711493615" lon="13.43486757410164"><ele>609.0</ele><time>2026-05-01T12:40:21Z</time></trkpt><trkpt lat="47.87454838763069" lon="13.434765224980145"><ele>610.0</ele><time>2026-05-01T12:40:22Z</time></trkpt><trkpt lat="47.874829192405805" lon="13.434663783840094"><ele>611.0</ele><time>2026-05-01T12:40:23Z</time></trkpt><trkpt lat="47.875110463151" lon="13.434567076389799"><ele>608.0</ele><time>2026-05-01T12:40:24Z</time></trkpt><trkpt lat="47.87539145183283" lon="13.434473882485955"><ele>605.0</ele><time>2026-05-01T12:40:25Z</time></trkpt><trkpt lat="47.87567192040598" lon="13.434378213407623"><ele>606.5</ele><time>2026-05-01T12:40:26Z</time></trkpt><trkpt lat="47.875953764174774" lon="13.434280015789637"><ele>608.0</ele><time>2026-05-01T12:40:27Z</time></trkpt><trkpt lat="47.87623697586816" lon="13.434179983056993"><ele>608.0</ele><time>2026-05-01T12:40:28Z</time></trkpt><trkpt lat="47.87651864095332" lon="13.434080172168741"><ele>608.0</ele><time>2026-05-01T12:40:29Z</time></trkpt><trkpt lat="47.876798475667734" lon="13.433981039727652"><ele>607.5</ele><time>2026-05-01T12:40:30Z</time></trkpt><trkpt lat="47.87707906447951" lon="13.433887349401653"><ele>607.0</ele><time>2026-05-01T12:40:31Z</time></trkpt><trkpt lat="47.877360397570826" lon="13.433795375210646"><ele>611.0</ele><time>2026-05-01T12:40:32Z</time></trkpt><trkpt lat="47.8776422673097" lon="13.433706452748215"><ele>615.0</ele><time>2026-05-01T12:40:33Z</time></trkpt><trkpt lat="47.87792334370562" lon="13.433620705010279"><ele>615.0</ele><time>2026-05-01T12:40:34Z</time></trkpt><trkpt lat="47.878203296951824" lon="13.433536434659137"><ele>615.0</ele><time>2026-05-01T12:40:35Z</time></trkpt><trkpt lat="47.87848335171131" lon="13.433458034690025"><ele>617.5</ele><time>2026-05-01T12:40:36Z</time></trkpt><trkpt lat="47.87876316361188" lon="13.433386049351427"><ele>620.0</ele><time>2026-05-01T12:40:37Z</time></trkpt><trkpt lat="47.87904083185593" lon="13.43331443912752"><ele>621.0</ele><time>2026-05-01T12:40:38Z</time></trkpt><trkpt lat="47.8793132980883" lon="13.433249611955667"><ele>622.0</ele><time>2026-05-01T12:40:39Z</time></trkpt><trkpt lat="47.87957413821327" lon="13.43319195877682"><ele>622.0</ele><time>2026-05-01T12:40:40Z</time></trkpt><trkpt lat="47.879834482077634" lon="13.433139745170033"><ele>622.0</ele><time>2026-05-01T12:40:41Z</time></trkpt><trkpt lat="47.88011014918676" lon="13.433088038974692"><ele>623.0</ele><time>2026-05-01T12:40:42Z</time></trkpt><trkpt lat="47.880390393284735" lon="13.433039154101198"><ele>624.0</ele><time>2026-05-01T12:40:43Z</time></trkpt><trkpt lat="47.880675341283606" lon="13.432995104561565"><ele>622.0</ele><time>2026-05-01T12:40:44Z</time></trkpt><trkpt lat="47.88096527725666" lon="13.432958739937238"><ele>620.0</ele><time>2026-05-01T12:40:45Z</time></trkpt><trkpt lat="47.88125648570873" lon="13.43293193559344"><ele>620.0</ele><time>2026-05-01T12:40:46Z</time></trkpt><trkpt lat="47.88154866184771" lon="13.432912082924368"><ele>620.0</ele><time>2026-05-01T12:40:47Z</time></trkpt><trkpt lat="47.881841568038034" lon="13.432898686003425"><ele>619.5</ele><time>2026-05-01T12:40:48Z</time></trkpt><trkpt lat="47.88213759529185" lon="13.432893459830016"><ele>619.0</ele><time>2026-05-01T12:40:49Z</time></trkpt><trkpt lat="47.88243433954133" lon="13.432893991275762"><ele>619.5</ele><time>2026-05-01T12:40:50Z</time></trkpt><trkpt lat="47.88272982940177" lon="13.432900281925328"><ele>620.0</ele><time>2026-05-01T12:40:51Z</time></trkpt><trkpt lat="47.883023138146676" lon="13.43291578512145"><ele>620.0</ele><time>2026-05-01T12:40:52Z</time></trkpt><trkpt lat="47.883314726562325" lon="13.43294468892676"><ele>620.0</ele><time>2026-05-01T12:40:53Z</time></trkpt><trkpt lat="47.88360636665845" lon="13.432982082964758"><ele>621.5</ele><time>2026-05-01T12:40:54Z</time></trkpt><trkpt lat="47.88389740294345" lon="13.433023792692532"><ele>623.0</ele><time>2026-05-01T12:40:55Z</time></trkpt><trkpt lat="47.884190030226904" lon="13.433070161462174"><ele>625.0</ele><time>2026-05-01T12:40:56Z</time></trkpt><trkpt lat="47.88448236916129" lon="13.433125572487482"><ele>627.0</ele><time>2026-05-01T12:40:57Z</time></trkpt><trkpt lat="47.88477684489695" lon="13.433187695629014"><ele>627.0</ele><time>2026-05-01T12:40:58Z</time></trkpt><trkpt lat="47.885072550035446" lon="13.433256677757623"><ele>627.0</ele><time>2026-05-01T12:40:59Z</time></trkpt><trkpt lat="47.8853685159133" lon="13.433333005277895"><ele>626.5</ele><time>2026-05-01T12:41:00Z</time></trkpt><trkpt lat="47.885663186107394" lon="13.433418299886714"><ele>626.0</ele><time>2026-05-01T12:41:01Z</time></trkpt><trkpt lat="47.88595585892118" lon="13.433516117816735"><ele>624.5</ele><time>2026-05-01T12:41:02Z</time></trkpt><trkpt lat="47.88624954727035" lon="13.43362003002769"><ele>623.0</ele><time>2026-05-01T12:41:03Z</time></trkpt><trkpt lat="47.88654414448419" lon="13.433727442792366"><ele>622.0</ele><time>2026-05-01T12:41:04Z</time></trkpt><trkpt lat="47.88683792309233" lon="13.433840986751335"><ele>621.0</ele><time>2026-05-01T12:41:05Z</time></trkpt><trkpt lat="47.887132103237576" lon="13.433963719099195"><ele>621.0</ele><time>2026-05-01T12:41:06Z</time></trkpt><trkpt lat="47.88742385789968" lon="13.434095944030854"><ele>621.0</ele><time>2026-05-01T12:41:07Z</time></trkpt><trkpt lat="47.887714807761846" lon="13.434236969574705"><ele>620.5</ele><time>2026-05-01T12:41:08Z</time></trkpt><trkpt lat="47.88800549221069" lon="13.434384015880822"><ele>620.0</ele><time>2026-05-01T12:41:09Z</time></trkpt><trkpt lat="47.888294865479956" lon="13.434539232825648"><ele>618.0</ele><time>2026-05-01T12:41:10Z</time></trkpt><trkpt lat="47.888581350674265" lon="13.434696634901872"><ele>616.0</ele><time>2026-05-01T12:41:11Z</time></trkpt><trkpt lat="47.888864291205785" lon="13.434859006056966"><ele>616.0</ele><time>2026-05-01T12:41:12Z</time></trkpt><trkpt lat="47.88914400526533" lon="13.435029388188788"><ele>616.0</ele><time>2026-05-01T12:41:13Z</time></trkpt><trkpt lat="47.88942008494017" lon="13.435208287434719"><ele>615.5</ele><time>2026-05-01T12:41:14Z</time></trkpt><trkpt lat="47.88969478670287" lon="13.435397460348144"><ele>615.0</ele><time>2026-05-01T12:41:15Z</time></trkpt><trkpt lat="47.88996928507582" lon="13.435592128975903"><ele>614.5</ele><time>2026-05-01T12:41:16Z</time></trkpt><trkpt lat="47.89024131857113" lon="13.435790053385912"><ele>614.0</ele><time>2026-05-01T12:41:17Z</time></trkpt><trkpt lat="47.890510108951354" lon="13.435993711243947"><ele>614.0</ele><time>2026-05-01T12:41:18Z</time></trkpt><trkpt lat="47.890774894295404" lon="13.43620276340894"><ele>614.0</ele><time>2026-05-01T12:41:19Z</time></trkpt><trkpt lat="47.891034983457786" lon="13.43641833374293"><ele>613.5</ele><time>2026-05-01T12:41:20Z</time></trkpt><trkpt lat="47.891291606738726" lon="13.436641226150286"><ele>613.0</ele><time>2026-05-01T12:41:21Z</time></trkpt><trkpt lat="47.89154266369376" lon="13.436866102914653"><ele>613.0</ele><time>2026-05-01T12:41:22Z</time></trkpt><trkpt lat="47.891786003635026" lon="13.43709454901087"><ele>613.0</ele><time>2026-05-01T12:41:23Z</time></trkpt><trkpt lat="47.89202296722069" lon="13.437325789866286"><ele>613.0</ele><time>2026-05-01T12:41:24Z</time></trkpt><trkpt lat="47.892257676378684" lon="13.437559135973949"><ele>613.0</ele><time>2026-05-01T12:41:25Z</time></trkpt><trkpt lat="47.892489772690745" lon="13.437793509640816"><ele>612.0</ele><time>2026-05-01T12:41:26Z</time></trkpt><trkpt lat="47.89272048768471" lon="13.438029692847476"><ele>611.0</ele><time>2026-05-01T12:41:27Z</time></trkpt><trkpt lat="47.89294643917219" lon="13.438268986286351"><ele>611.0</ele><time>2026-05-01T12:41:28Z</time></trkpt><trkpt lat="47.89316910884189" lon="13.438510021833986"><ele>611.0</ele><time>2026-05-01T12:41:29Z</time></trkpt><trkpt lat="47.89338821716315" lon="13.438750444092452"><ele>609.5</ele><time>2026-05-01T12:41:30Z</time></trkpt><trkpt lat="47.89360704847172" lon="13.438988573848686"><ele>608.0</ele><time>2026-05-01T12:41:31Z</time></trkpt><trkpt lat="47.89382544937195" lon="13.439228283529776"><ele>608.0</ele><time>2026-05-01T12:41:32Z</time></trkpt><trkpt lat="47.894041344704426" lon="13.439467876764521"><ele>608.0</ele><time>2026-05-01T12:41:33Z</time></trkpt><trkpt lat="47.89425516061579" lon="13.43971114651033"><ele>606.0</ele><time>2026-05-01T12:41:34Z</time></trkpt><trkpt lat="47.894469118949985" lon="13.439955838167332"><ele>604.0</ele><time>2026-05-01T12:41:35Z</time></trkpt><trkpt lat="47.894683750564944" lon="13.440201588649247"><ele>604.0</ele><time>2026-05-01T12:41:36Z</time></trkpt><trkpt lat="47.89489975012675" lon="13.440444251718407"><ele>604.0</ele><time>2026-05-01T12:41:37Z</time></trkpt><trkpt lat="47.895117157471965" lon="13.440687682719021"><ele>603.0</ele><time>2026-05-01T12:41:38Z</time></trkpt><trkpt lat="47.89533545387343" lon="13.4409302445831"><ele>602.0</ele><time>2026-05-01T12:41:39Z</time></trkpt><trkpt lat="47.895555474566876" lon="13.441175475257756"><ele>601.5</ele><time>2026-05-01T12:41:40Z</time></trkpt><trkpt lat="47.89578120810272" lon="13.441418810959295"><ele>601.0</ele><time>2026-05-01T12:41:41Z</time></trkpt><trkpt lat="47.896008374968574" lon="13.441660385453797"><ele>601.0</ele><time>2026-05-01T12:41:42Z</time></trkpt><trkpt lat="47.89623793900083" lon="13.44189999571654"><ele>601.0</ele><time>2026-05-01T12:41:43Z</time></trkpt><trkpt lat="47.89646845178053" lon="13.442135406584985"><ele>602.0</ele><time>2026-05-01T12:41:44Z</time></trkpt><trkpt lat="47.896704655575974" lon="13.442364862083167"><ele>603.0</ele><time>2026-05-01T12:41:45Z</time></trkpt><trkpt lat="47.896941653296864" lon="13.442592418543555"><ele>603.0</ele><time>2026-05-01T12:41:46Z</time></trkpt><trkpt lat="47.89718195978796" lon="13.442815481032758"><ele>603.0</ele><time>2026-05-01T12:41:47Z</time></trkpt><trkpt lat="47.89742430679821" lon="13.443032085255833"><ele>602.0</ele><time>2026-05-01T12:41:48Z</time></trkpt><trkpt lat="47.89767032703078" lon="13.443244985574946"><ele>601.0</ele><time>2026-05-01T12:41:49Z</time></trkpt><trkpt lat="47.8979168809346" lon="13.443455039555008"><ele>601.0</ele><time>2026-05-01T12:41:50Z</time></trkpt><trkpt lat="47.89816492117135" lon="13.443662520951213"><ele>601.0</ele><time>2026-05-01T12:41:51Z</time></trkpt><trkpt lat="47.89841226468969" lon="13.443868223552908"><ele>601.0</ele><time>2026-05-01T12:41:52Z</time></trkpt><trkpt lat="47.898660230392295" lon="13.444072124312198"><ele>601.0</ele><time>2026-05-01T12:41:53Z</time></trkpt><trkpt lat="47.8989086710275" lon="13.444271951472208"><ele>601.0</ele><time>2026-05-01T12:41:54Z</time></trkpt><trkpt lat="47.89915644275313" lon="13.44446828049951"><ele>601.0</ele><time>2026-05-01T12:41:55Z</time></trkpt><trkpt lat="47.89940644240987" lon="13.444656793199893"><ele>602.0</ele><time>2026-05-01T12:41:56Z</time></trkpt><trkpt lat="47.89965525589821" lon="13.444843748237918"><ele>603.0</ele><time>2026-05-01T12:41:57Z</time></trkpt><trkpt lat="47.89990673164314" lon="13.445026641748933"><ele>600.0</ele><time>2026-05-01T12:41:58Z</time></trkpt><trkpt lat="47.900162372803116" lon="13.445201687718194"><ele>597.0</ele><time>2026-05-01T12:41:59Z</time></trkpt><trkpt lat="47.90042007827581" lon="13.445374151051688"><ele>596.5</ele><time>2026-05-01T12:42:00Z</time></trkpt><trkpt lat="47.9006820352113" lon="13.44554163487982"><ele>596.0</ele><time>2026-05-01T12:42:01Z</time></trkpt><trkpt lat="47.90094838393969" lon="13.445705307288367"><ele>596.0</ele><time>2026-05-01T12:42:02Z</time></trkpt><trkpt lat="47.90121837299555" lon="13.445868557438134"><ele>596.0</ele><time>2026-05-01T12:42:03Z</time></trkpt><trkpt lat="47.90148927865611" lon="13.446032439973495"><ele>598.5</ele><time>2026-05-01T12:42:04Z</time></trkpt><trkpt lat="47.90176319002413" lon="13.446192664461826"><ele>601.0</ele><time>2026-05-01T12:42:05Z</time></trkpt><trkpt lat="47.90203757497423" lon="13.446350610303975"><ele>601.0</ele><time>2026-05-01T12:42:06Z</time></trkpt><trkpt lat="47.902313864311004" lon="13.446505511137772"><ele>601.0</ele><time>2026-05-01T12:42:07Z</time></trkpt><trkpt lat="47.90259134578621" lon="13.44665843527953"><ele>596.0</ele><time>2026-05-01T12:42:08Z</time></trkpt><trkpt lat="47.90287065385682" lon="13.446811455679509"><ele>591.0</ele><time>2026-05-01T12:42:09Z</time></trkpt><trkpt lat="47.903148667235634" lon="13.446960784479721"><ele>590.5</ele><time>2026-05-01T12:42:10Z</time></trkpt><trkpt lat="47.903429175160014" lon="13.447107595659235"><ele>590.0</ele><time>2026-05-01T12:42:11Z</time></trkpt><trkpt lat="47.903708748925524" lon="13.447256946519131"><ele>589.5</ele><time>2026-05-01T12:42:12Z</time></trkpt><trkpt lat="47.9039854644523" lon="13.447408281082453"><ele>589.0</ele><time>2026-05-01T12:42:13Z</time></trkpt><trkpt lat="47.904260916300515" lon="13.44755870184221"><ele>589.0</ele><time>2026-05-01T12:42:14Z</time></trkpt><trkpt lat="47.9045355560677" lon="13.447707282727066"><ele>589.0</ele><time>2026-05-01T12:42:15Z</time></trkpt><trkpt lat="47.90480909744049" lon="13.447854398555974"><ele>589.0</ele><time>2026-05-01T12:42:16Z</time></trkpt><trkpt lat="47.9050835820339" lon="13.448002591709693"><ele>589.0</ele><time>2026-05-01T12:42:17Z</time></trkpt><trkpt lat="47.90535781837366" lon="13.448154527981872"><ele>589.0</ele><time>2026-05-01T12:42:18Z</time></trkpt><trkpt lat="47.905628269596235" lon="13.448306356668384"><ele>589.0</ele><time>2026-05-01T12:42:19Z</time></trkpt><trkpt lat="47.905888189237686" lon="13.448453052459964"><ele>587.5</ele><time>2026-05-01T12:42:20Z</time></trkpt><trkpt lat="47.90614543045644" lon="13.44859914265167"><ele>586.0</ele><time>2026-05-01T12:42:21Z</time></trkpt><trkpt lat="47.90640714921595" lon="13.448748365648637"><ele>584.5</ele><time>2026-05-01T12:42:22Z</time></trkpt><trkpt lat="47.90667540666278" lon="13.44890347925963"><ele>583.0</ele><time>2026-05-01T12:42:23Z</time></trkpt><trkpt lat="47.90694765959876" lon="13.4490719211977"><ele>583.0</ele><time>2026-05-01T12:42:24Z</time></trkpt><trkpt lat="47.9072169247895" lon="13.44924761550949"><ele>583.0</ele><time>2026-05-01T12:42:25Z</time></trkpt><trkpt lat="47.907486984654135" lon="13.44943550057576"><ele>582.0</ele><time>2026-05-01T12:42:26Z</time></trkpt><trkpt lat="47.907755997387795" lon="13.4496269296906"><ele>581.0</ele><time>2026-05-01T12:42:27Z</time></trkpt><trkpt lat="47.908023865233616" lon="13.449825690804353"><ele>581.0</ele><time>2026-05-01T12:42:28Z</time></trkpt><trkpt lat="47.90828657154612" lon="13.450031805815714"><ele>581.0</ele><time>2026-05-01T12:42:29Z</time></trkpt><trkpt lat="47.90854639826736" lon="13.450243858388776"><ele>581.0</ele><time>2026-05-01T12:42:30Z</time></trkpt><trkpt lat="47.90880143664227" lon="13.450459900969829"><ele>581.0</ele><time>2026-05-01T12:42:31Z</time></trkpt><trkpt lat="47.909051349795476" lon="13.450688784168378"><ele>581.5</ele><time>2026-05-01T12:42:32Z</time></trkpt><trkpt lat="47.90930096909144" lon="13.450921138802821"><ele>582.0</ele><time>2026-05-01T12:42:33Z</time></trkpt><trkpt lat="47.90954724517153" lon="13.451157103639083"><ele>580.5</ele><time>2026-05-01T12:42:34Z</time></trkpt><trkpt lat="47.90978992484133" lon="13.451402285470957"><ele>579.0</ele><time>2026-05-01T12:42:35Z</time></trkpt><trkpt lat="47.91003032950295" lon="13.451656561937064"><ele>581.0</ele><time>2026-05-01T12:42:36Z</time></trkpt><trkpt lat="47.910265018648616" lon="13.45192049372935"><ele>583.0</ele><time>2026-05-01T12:42:37Z</time></trkpt><trkpt lat="47.91049724479565" lon="13.452189164838607"><ele>583.0</ele><time>2026-05-01T12:42:38Z</time></trkpt><trkpt lat="47.91072646906526" lon="13.45245905216502"><ele>583.0</ele><time>2026-05-01T12:42:39Z</time></trkpt><trkpt lat="47.910950829803916" lon="13.452732921656516"><ele>585.5</ele><time>2026-05-01T12:42:40Z</time></trkpt><trkpt lat="47.91117371006315" lon="13.45300934016661"><ele>588.0</ele><time>2026-05-01T12:42:41Z</time></trkpt><trkpt lat="47.91139089825308" lon="13.453293935605213"><ele>588.0</ele><time>2026-05-01T12:42:42Z</time></trkpt><trkpt lat="47.91160307707256" lon="13.453584270920249"><ele>588.0</ele><time>2026-05-01T12:42:43Z</time></trkpt><trkpt lat="47.911810583193635" lon="13.453882770477266"><ele>591.5</ele><time>2026-05-01T12:42:44Z</time></trkpt><trkpt lat="47.912010088164635" lon="13.454188219727211"><ele>595.0</ele><time>2026-05-01T12:42:45Z</time></trkpt><trkpt lat="47.91220670167585" lon="13.454497543732117"><ele>596.5</ele><time>2026-05-01T12:42:46Z</time></trkpt><trkpt lat="47.91239907175797" lon="13.454810835646812"><ele>598.0</ele><time>2026-05-01T12:42:47Z</time></trkpt><trkpt lat="47.91258773053445" lon="13.455125500847087"><ele>598.0</ele><time>2026-05-01T12:42:48Z</time></trkpt><trkpt lat="47.91277386078569" lon="13.455445852443026"><ele>598.0</ele><time>2026-05-01T12:42:49Z</time></trkpt><trkpt lat="47.9129575052792" lon="13.455769129320823"><ele>592.5</ele><time>2026-05-01T12:42:50Z</time></trkpt><trkpt lat="47.91313976822" lon="13.456095544085194"><ele>587.0</ele><time>2026-05-01T12:42:51Z</time></trkpt><trkpt lat="47.913320846081085" lon="13.456422467236427"><ele>588.5</ele><time>2026-05-01T12:42:52Z</time></trkpt><trkpt lat="47.913501751783116" lon="13.456749095121577"><ele>590.0</ele><time>2026-05-01T12:42:53Z</time></trkpt><trkpt lat="47.913681192348584" lon="13.457076795834665"><ele>586.5</ele><time>2026-05-01T12:42:54Z</time></trkpt><trkpt lat="47.91386071974149" lon="13.4574082738289"><ele>583.0</ele><time>2026-05-01T12:42:55Z</time></trkpt><trkpt lat="47.91403948120076" lon="13.457742720597556"><ele>579.5</ele><time>2026-05-01T12:42:56Z</time></trkpt><trkpt lat="47.91421878251485" lon="13.45807427367917"><ele>576.0</ele><time>2026-05-01T12:42:57Z</time></trkpt><trkpt lat="47.914396794196655" lon="13.458404245316066"><ele>574.0</ele><time>2026-05-01T12:42:58Z</time></trkpt><trkpt lat="47.91457344501939" lon="13.458730215818678"><ele>572.0</ele><time>2026-05-01T12:42:59Z</time></trkpt><trkpt lat="47.91474901282794" lon="13.45905593010995"><ele>571.0</ele><time>2026-05-01T12:43:00Z</time></trkpt><trkpt lat="47.91492594874092" lon="13.45938061381783"><ele>570.0</ele><time>2026-05-01T12:43:01Z</time></trkpt><trkpt lat="47.915100760886745" lon="13.459706002432162"><ele>572.0</ele><time>2026-05-01T12:43:02Z</time></trkpt><trkpt lat="47.91527518904687" lon="13.46003030620148"><ele>574.0</ele><time>2026-05-01T12:43:03Z</time></trkpt><trkpt lat="47.91544952217426" lon="13.460356522800888"><ele>579.5</ele><time>2026-05-01T12:43:04Z</time></trkpt><trkpt lat="47.91562412534631" lon="13.460683191201547"><ele>585.0</ele><time>2026-05-01T12:43:05Z</time></trkpt><trkpt lat="47.915796218334684" lon="13.461012636299262"><ele>584.0</ele><time>2026-05-01T12:43:06Z</time></trkpt><trkpt lat="47.915965013370425" lon="13.461344913916626"><ele>583.0</ele><time>2026-05-01T12:43:07Z</time></trkpt><trkpt lat="47.91613545231952" lon="13.461678225812221"><ele>583.0</ele><time>2026-05-01T12:43:08Z</time></trkpt><trkpt lat="47.91630324239552" lon="13.462015790584083"><ele>583.0</ele><time>2026-05-01T12:43:09Z</time></trkpt><trkpt lat="47.91646963548668" lon="13.462357593355195"><ele>589.0</ele><time>2026-05-01T12:43:10Z</time></trkpt><trkpt lat="47.91662722532549" lon="13.462710006959128"><ele>595.0</ele><time>2026-05-01T12:43:11Z</time></trkpt><trkpt lat="47.91678003584906" lon="13.463068893990103"><ele>596.0</ele><time>2026-05-01T12:43:12Z</time></trkpt><trkpt lat="47.916928122785855" lon="13.463432764932035"><ele>597.0</ele><time>2026-05-01T12:43:13Z</time></trkpt><trkpt lat="47.91706839111455" lon="13.463806389408388"><ele>598.0</ele><time>2026-05-01T12:43:14Z</time></trkpt><trkpt lat="47.91719975303227" lon="13.464189728204865"><ele>599.0</ele><time>2026-05-01T12:43:15Z</time></trkpt><trkpt lat="47.91732354165275" lon="13.464580310587122"><ele>597.5</ele><time>2026-05-01T12:43:16Z</time></trkpt><trkpt lat="47.917442292659636" lon="13.46497538929505"><ele>596.0</ele><time>2026-05-01T12:43:17Z</time></trkpt><trkpt lat="47.9175546442354" lon="13.465376800670313"><ele>598.5</ele><time>2026-05-01T12:43:18Z</time></trkpt><trkpt lat="47.91765461599475" lon="13.465788770120133"><ele>601.0</ele><time>2026-05-01T12:43:19Z</time></trkpt><trkpt lat="47.917744592959274" lon="13.466208183658326"><ele>599.5</ele><time>2026-05-01T12:43:20Z</time></trkpt><trkpt lat="47.917828305445504" lon="13.466631405378882"><ele>598.0</ele><time>2026-05-01T12:43:21Z</time></trkpt><trkpt lat="47.91790500348327" lon="13.467058691426573"><ele>595.5</ele><time>2026-05-01T12:43:22Z</time></trkpt><trkpt lat="47.91797712524589" lon="13.467490161490314"><ele>593.0</ele><time>2026-05-01T12:43:23Z</time></trkpt><trkpt lat="47.91803920760419" lon="13.467928716043634"><ele>591.5</ele><time>2026-05-01T12:43:24Z</time></trkpt><trkpt lat="47.918093533786454" lon="13.4683716840216"><ele>590.0</ele><time>2026-05-01T12:43:25Z</time></trkpt><trkpt lat="47.91814069745139" lon="13.468814909990938"><ele>589.5</ele><time>2026-05-01T12:43:26Z</time></trkpt><trkpt lat="47.91817961101968" lon="13.469258097727053"><ele>589.0</ele><time>2026-05-01T12:43:27Z</time></trkpt><trkpt lat="47.918214967911226" lon="13.469697111531067"><ele>587.5</ele><time>2026-05-01T12:43:28Z</time></trkpt><trkpt lat="47.918238542896496" lon="13.470135473157628"><ele>586.0</ele><time>2026-05-01T12:43:29Z</time></trkpt><trkpt lat="47.91825876090316" lon="13.470575296581607"><ele>585.0</ele><time>2026-05-01T12:43:30Z</time></trkpt><trkpt lat="47.918276615549004" lon="13.471019372197881"><ele>584.0</ele><time>2026-05-01T12:43:31Z</time></trkpt><trkpt lat="47.91828870024133" lon="13.47146381874783"><ele>583.0</ele><time>2026-05-01T12:43:32Z</time></trkpt><trkpt lat="47.91829466464235" lon="13.47189434643832"><ele>582.0</ele><time>2026-05-01T12:43:33Z</time></trkpt><trkpt lat="47.91829737551538" lon="13.472314815015938"><ele>579.5</ele><time>2026-05-01T12:43:34Z</time></trkpt><trkpt lat="47.91829694051948" lon="13.472752524834842"><ele>577.0</ele><time>2026-05-01T12:43:35Z</time></trkpt><trkpt lat="47.91829265839656" lon="13.473196888161539"><ele>574.5</ele><time>2026-05-01T12:43:36Z</time></trkpt><trkpt lat="47.918284000144176" lon="13.473643689122927"><ele>572.0</ele><time>2026-05-01T12:43:37Z</time></trkpt><trkpt lat="47.918266940869415" lon="13.474094813098418"><ele>571.5</ele><time>2026-05-01T12:43:38Z</time></trkpt><trkpt lat="47.91824802016977" lon="13.474548438222243"><ele>571.0</ele><time>2026-05-01T12:43:39Z</time></trkpt><trkpt lat="47.91822998115528" lon="13.475000474841822"><ele>569.0</ele><time>2026-05-01T12:43:40Z</time></trkpt><trkpt lat="47.91821151315198" lon="13.475448477301626"><ele>567.0</ele><time>2026-05-01T12:43:41Z</time></trkpt><trkpt lat="47.91819248838575" lon="13.475892562330776"><ele>566.0</ele><time>2026-05-01T12:43:42Z</time></trkpt><trkpt lat="47.91817191952576" lon="13.47633343216818"><ele>565.0</ele><time>2026-05-01T12:43:43Z</time></trkpt><trkpt lat="47.91814696114514" lon="13.476771751096285"><ele>564.5</ele><time>2026-05-01T12:43:44Z</time></trkpt><trkpt lat="47.91811924593924" lon="13.477212619164177"><ele>564.0</ele><time>2026-05-01T12:43:45Z</time></trkpt><trkpt lat="47.9180917109946" lon="13.477651617436257"><ele>563.0</ele><time>2026-05-01T12:43:46Z</time></trkpt><trkpt lat="47.9180638173067" lon="13.47809153167346"><ele>562.0</ele><time>2026-05-01T12:43:47Z</time></trkpt><trkpt lat="47.9180354197078" lon="13.478528076900698"><ele>562.0</ele><time>2026-05-01T12:43:48Z</time></trkpt><trkpt lat="47.918007972138454" lon="13.478961012250988"><ele>562.0</ele><time>2026-05-01T12:43:49Z</time></trkpt><trkpt lat="47.9179790027537" lon="13.479390082028791"><ele>562.5</ele><time>2026-05-01T12:43:50Z</time></trkpt><trkpt lat="47.91794987085372" lon="13.479816908745297"><ele>563.0</ele><time>2026-05-01T12:43:51Z</time></trkpt><trkpt lat="47.917921752383464" lon="13.480246135820046"><ele>563.0</ele><time>2026-05-01T12:43:52Z</time></trkpt><trkpt lat="47.91789483987388" lon="13.480678178464235"><ele>563.0</ele><time>2026-05-01T12:43:53Z</time></trkpt><trkpt lat="47.91786639857699" lon="13.481111526004879"><ele>563.5</ele><time>2026-05-01T12:43:54Z</time></trkpt><trkpt lat="47.91783736231659" lon="13.481544893267888"><ele>564.0</ele><time>2026-05-01T12:43:55Z</time></trkpt><trkpt lat="47.917806505070814" lon="13.481978903231997"><ele>563.5</ele><time>2026-05-01T12:43:56Z</time></trkpt><trkpt lat="47.91777885875356" lon="13.482412553226855"><ele>563.0</ele><time>2026-05-01T12:43:57Z</time></trkpt><trkpt lat="47.9177502887353" lon="13.482845012205532"><ele>562.5</ele><time>2026-05-01T12:43:58Z</time></trkpt><trkpt lat="47.91772333474629" lon="13.483274947581714"><ele>562.0</ele><time>2026-05-01T12:43:59Z</time></trkpt><trkpt lat="47.91769951818834" lon="13.483705375083446"><ele>561.5</ele><time>2026-05-01T12:44:00Z</time></trkpt><trkpt lat="47.917679630179194" lon="13.484137833725214"><ele>561.0</ele><time>2026-05-01T12:44:01Z</time></trkpt><trkpt lat="47.9176623034322" lon="13.48457026130424"><ele>562.0</ele><time>2026-05-01T12:44:02Z</time></trkpt><trkpt lat="47.91764568622631" lon="13.485002329213073"><ele>563.0</ele><time>2026-05-01T12:44:03Z</time></trkpt><trkpt lat="47.917632479972454" lon="13.485436060299257"><ele>563.5</ele><time>2026-05-01T12:44:04Z</time></trkpt><trkpt lat="47.917619684562595" lon="13.485868933505524"><ele>564.0</ele><time>2026-05-01T12:44:05Z</time></trkpt><trkpt lat="47.91760849746142" lon="13.486299406209486"><ele>564.5</ele><time>2026-05-01T12:44:06Z</time></trkpt><trkpt lat="47.917601397557846" lon="13.486732437667484"><ele>565.0</ele><time>2026-05-01T12:44:07Z</time></trkpt><trkpt lat="47.91759910131902" lon="13.487166110483583"><ele>566.0</ele><time>2026-05-01T12:44:08Z</time></trkpt><trkpt lat="47.91759945058438" lon="13.487602332893662"><ele>567.0</ele><time>2026-05-01T12:44:09Z</time></trkpt><trkpt lat="47.91760681949295" lon="13.488042246818116"><ele>569.5</ele><time>2026-05-01T12:44:10Z</time></trkpt><trkpt lat="47.91761960335232" lon="13.48848261673957"><ele>572.0</ele><time>2026-05-01T12:44:11Z</time></trkpt><trkpt lat="47.91763694350458" lon="13.488922112625222"><ele>577.0</ele><time>2026-05-01T12:44:12Z</time></trkpt><trkpt lat="47.917661683285374" lon="13.489361168335122"><ele>582.0</ele><time>2026-05-01T12:44:13Z</time></trkpt><trkpt lat="47.917692632967466" lon="13.489799391894389"><ele>582.0</ele><time>2026-05-01T12:44:14Z</time></trkpt><trkpt lat="47.91773064398863" lon="13.490236862841796"><ele>582.0</ele><time>2026-05-01T12:44:15Z</time></trkpt><trkpt lat="47.91777226390613" lon="13.490674068745337"><ele>580.0</ele><time>2026-05-01T12:44:16Z</time></trkpt><trkpt lat="47.917819893532766" lon="13.491110571661965"><ele>578.0</ele><time>2026-05-01T12:44:17Z</time></trkpt><trkpt lat="47.91787095230204" lon="13.49154782081002"><ele>576.5</ele><time>2026-05-01T12:44:18Z</time></trkpt><trkpt lat="47.91793092776627" lon="13.491985657265383"><ele>575.0</ele><time>2026-05-01T12:44:19Z</time></trkpt><trkpt lat="47.91800286771585" lon="13.492423806157639"><ele>572.5</ele><time>2026-05-01T12:44:20Z</time></trkpt><trkpt lat="47.91808332340912" lon="13.492858213988058"><ele>570.0</ele><time>2026-05-01T12:44:21Z</time></trkpt><trkpt lat="47.91817351009469" lon="13.493286426821998"><ele>569.5</ele><time>2026-05-01T12:44:22Z</time></trkpt><trkpt lat="47.91827092145517" lon="13.493710886771249"><ele>569.0</ele><time>2026-05-01T12:44:23Z</time></trkpt><trkpt lat="47.91837110156804" lon="13.494134112713644"><ele>566.0</ele><time>2026-05-01T12:44:24Z</time></trkpt><trkpt lat="47.918476116538514" lon="13.49455148465254"><ele>563.0</ele><time>2026-05-01T12:44:25Z</time></trkpt><trkpt lat="47.918591764167694" lon="13.494961822969266"><ele>563.0</ele><time>2026-05-01T12:44:26Z</time></trkpt><trkpt lat="47.918715383555046" lon="13.495365721737642"><ele>563.0</ele><time>2026-05-01T12:44:27Z</time></trkpt><trkpt lat="47.918843987428865" lon="13.495759665702273"><ele>563.5</ele><time>2026-05-01T12:44:28Z</time></trkpt><trkpt lat="47.91898192102937" lon="13.496146023590349"><ele>564.0</ele><time>2026-05-01T12:44:29Z</time></trkpt><trkpt lat="47.91912539795342" lon="13.496524183994527"><ele>562.5</ele><time>2026-05-01T12:44:30Z</time></trkpt><trkpt lat="47.919276341155715" lon="13.496897598879219"><ele>561.0</ele><time>2026-05-01T12:44:31Z</time></trkpt><trkpt lat="47.91943309466494" lon="13.497262714956983"><ele>561.0</ele><time>2026-05-01T12:44:32Z</time></trkpt><trkpt lat="47.91959656826405" lon="13.497617655017503"><ele>561.0</ele><time>2026-05-01T12:44:33Z</time></trkpt><trkpt lat="47.919769277049355" lon="13.497964373313698"><ele>561.5</ele><time>2026-05-01T12:44:34Z</time></trkpt><trkpt lat="47.919945591938905" lon="13.498306994390704"><ele>562.0</ele><time>2026-05-01T12:44:35Z</time></trkpt><trkpt lat="47.920125063637094" lon="13.498642878891312"><ele>561.5</ele><time>2026-05-01T12:44:36Z</time></trkpt><trkpt lat="47.92030880506576" lon="13.498971234248994"><ele>561.0</ele><time>2026-05-01T12:44:37Z</time></trkpt><trkpt lat="47.92049922947998" lon="13.49929350114907"><ele>561.0</ele><time>2026-05-01T12:44:38Z</time></trkpt><trkpt lat="47.920693052606374" lon="13.499604263768115"><ele>561.0</ele><time>2026-05-01T12:44:39Z</time></trkpt><trkpt lat="47.92089293714969" lon="13.499910982876155"><ele>562.5</ele><time>2026-05-01T12:44:40Z</time></trkpt><trkpt lat="47.92109463852978" lon="13.500211177327339"><ele>564.0</ele><time>2026-05-01T12:44:41Z</time></trkpt><trkpt lat="47.92130124353867" lon="13.500505500211593"><ele>564.5</ele><time>2026-05-01T12:44:42Z</time></trkpt><trkpt lat="47.92151154362562" lon="13.500795486825627"><ele>565.0</ele><time>2026-05-01T12:44:43Z</time></trkpt><trkpt lat="47.921722181196024" lon="13.501081024214605"><ele>565.5</ele><time>2026-05-01T12:44:44Z</time></trkpt><trkpt lat="47.921935897292805" lon="13.501362273202565"><ele>566.0</ele><time>2026-05-01T12:44:45Z</time></trkpt><trkpt lat="47.922152865301264" lon="13.501636299116969"><ele>566.0</ele><time>2026-05-01T12:44:46Z</time></trkpt><trkpt lat="47.92237588804735" lon="13.501906372191607"><ele>566.0</ele><time>2026-05-01T12:44:47Z</time></trkpt><trkpt lat="47.92260049283067" lon="13.502175116495389"><ele>564.0</ele><time>2026-05-01T12:44:48Z</time></trkpt><trkpt lat="47.922827758767184" lon="13.502441977723928"><ele>562.0</ele><time>2026-05-01T12:44:49Z</time></trkpt><trkpt lat="47.92305489494021" lon="13.50270921494504"><ele>562.0</ele><time>2026-05-01T12:44:50Z</time></trkpt><trkpt lat="47.92327889008457" lon="13.502975337918826"><ele>562.0</ele><time>2026-05-01T12:44:51Z</time></trkpt><trkpt lat="47.923504321975315" lon="13.503239182055964"><ele>562.0</ele><time>2026-05-01T12:44:52Z</time></trkpt><trkpt lat="47.923732811134556" lon="13.50350042648044"><ele>562.0</ele><time>2026-05-01T12:44:53Z</time></trkpt><trkpt lat="47.923961995571865" lon="13.503762005986763"><ele>561.5</ele><time>2026-05-01T12:44:54Z</time></trkpt><trkpt lat="47.92419293820986" lon="13.504024953664086"><ele>561.0</ele><time>2026-05-01T12:44:55Z</time></trkpt><trkpt lat="47.924423281571066" lon="13.504288111913585"><ele>561.5</ele><time>2026-05-01T12:44:56Z</time></trkpt><trkpt lat="47.92465399234739" lon="13.504551805112968"><ele>562.0</ele><time>2026-05-01T12:44:57Z</time></trkpt><trkpt lat="47.924881261408636" lon="13.504820370042452"><ele>562.5</ele><time>2026-05-01T12:44:58Z</time></trkpt><trkpt lat="47.92510874558244" lon="13.505088209411653"><ele>563.0</ele><time>2026-05-01T12:44:59Z</time></trkpt><trkpt lat="47.92533910789945" lon="13.505353005643574"><ele>563.0</ele><time>2026-05-01T12:45:00Z</time></trkpt><trkpt lat="47.925567358782445" lon="13.505616580429345"><ele>563.0</ele><time>2026-05-01T12:45:01Z</time></trkpt><trkpt lat="47.92579546285033" lon="13.505878726495508"><ele>563.5</ele><time>2026-05-01T12:45:02Z</time></trkpt><trkpt lat="47.926023319113796" lon="13.506143846484456"><ele>564.0</ele><time>2026-05-01T12:45:03Z</time></trkpt><trkpt lat="47.92625289371066" lon="13.506405489504807"><ele>564.5</ele><time>2026-05-01T12:45:04Z</time></trkpt><trkpt lat="47.926483233358745" lon="13.506664939721837"><ele>565.0</ele><time>2026-05-01T12:45:05Z</time></trkpt><trkpt lat="47.92671417313057" lon="13.50692693584692"><ele>566.0</ele><time>2026-05-01T12:45:06Z</time></trkpt><trkpt lat="47.92694492015466" lon="13.507191085472128"><ele>567.0</ele><time>2026-05-01T12:45:07Z</time></trkpt><trkpt lat="47.927174709303856" lon="13.507457806868226"><ele>567.0</ele><time>2026-05-01T12:45:08Z</time></trkpt><trkpt lat="47.92740135044825" lon="13.507725025601372"><ele>567.0</ele><time>2026-05-01T12:45:09Z</time></trkpt><trkpt lat="47.92762703301412" lon="13.507989478958104"><ele>568.0</ele><time>2026-05-01T12:45:10Z</time></trkpt><trkpt lat="47.92785074375376" lon="13.508247177359998"><ele>569.0</ele><time>2026-05-01T12:45:11Z</time></trkpt><trkpt lat="47.92807489505795" lon="13.508501107830117"><ele>569.0</ele><time>2026-05-01T12:45:12Z</time></trkpt><trkpt lat="47.928296896021294" lon="13.508753156423237"><ele>569.0</ele><time>2026-05-01T12:45:13Z</time></trkpt><trkpt lat="47.92851749583679" lon="13.509004379787239"><ele>569.0</ele><time>2026-05-01T12:45:14Z</time></trkpt><trkpt lat="47.92873829447919" lon="13.509255359043195"><ele>569.0</ele><time>2026-05-01T12:45:15Z</time></trkpt><trkpt lat="47.92896105657028" lon="13.509509977841333"><ele>569.5</ele><time>2026-05-01T12:45:16Z</time></trkpt><trkpt lat="47.92918582165759" lon="13.509762179333437"><ele>570.0</ele><time>2026-05-01T12:45:17Z</time></trkpt><trkpt lat="47.929413803478994" lon="13.510010209955496"><ele>572.5</ele><time>2026-05-01T12:45:18Z</time></trkpt><trkpt lat="47.92963995822206" lon="13.510255798273683"><ele>575.0</ele><time>2026-05-01T12:45:19Z</time></trkpt><trkpt lat="47.92985785732913" lon="13.510489322861496"><ele>574.0</ele><time>2026-05-01T12:45:20Z</time></trkpt><trkpt lat="47.93007854990954" lon="13.51072091703469"><ele>573.0</ele><time>2026-05-01T12:45:21Z</time></trkpt><trkpt lat="47.930307091017234" lon="13.51095616997553"><ele>573.0</ele><time>2026-05-01T12:45:22Z</time></trkpt><trkpt lat="47.93054247285477" lon="13.511192112804366"><ele>573.0</ele><time>2026-05-01T12:45:23Z</time></trkpt><trkpt lat="47.93078277122109" lon="13.511428514828943"><ele>574.0</ele><time>2026-05-01T12:45:24Z</time></trkpt><trkpt lat="47.93102710366466" lon="13.51166617246398"><ele>575.0</ele><time>2026-05-01T12:45:25Z</time></trkpt><trkpt lat="47.931273204667086" lon="13.511897943175267"><ele>576.0</ele><time>2026-05-01T12:45:26Z</time></trkpt><trkpt lat="47.93152245710248" lon="13.5121171147261"><ele>577.0</ele><time>2026-05-01T12:45:27Z</time></trkpt><trkpt lat="47.93177309447318" lon="13.512332374541081"><ele>577.0</ele><time>2026-05-01T12:45:28Z</time></trkpt><trkpt lat="47.932017667221594" lon="13.512542603279284"><ele>577.0</ele><time>2026-05-01T12:45:29Z</time></trkpt><trkpt lat="47.93225258319027" lon="13.51274636681706"><ele>577.0</ele><time>2026-05-01T12:45:30Z</time></trkpt><trkpt lat="47.932481501217914" lon="13.512939587067972"><ele>577.0</ele><time>2026-05-01T12:45:31Z</time></trkpt><trkpt lat="47.932709039136455" lon="13.51312503192502"><ele>577.0</ele><time>2026-05-01T12:45:32Z</time></trkpt><trkpt lat="47.93293914852279" lon="13.513307217343536"><ele>577.0</ele><time>2026-05-01T12:45:33Z</time></trkpt><trkpt lat="47.933173576035486" lon="13.51348263610457"><ele>577.0</ele><time>2026-05-01T12:45:34Z</time></trkpt><trkpt lat="47.93341208131389" lon="13.513650351590398"><ele>577.0</ele><time>2026-05-01T12:45:35Z</time></trkpt><trkpt lat="47.93365705643042" lon="13.513814430429713"><ele>580.5</ele><time>2026-05-01T12:45:36Z</time></trkpt><trkpt lat="47.933907014477086" lon="13.51397471466126"><ele>584.0</ele><time>2026-05-01T12:45:37Z</time></trkpt><trkpt lat="47.93415321039154" lon="13.514131882648867"><ele>584.0</ele><time>2026-05-01T12:45:38Z</time></trkpt><trkpt lat="47.934403255131684" lon="13.514284086769933"><ele>584.0</ele><time>2026-05-01T12:45:39Z</time></trkpt><trkpt lat="47.934653559560154" lon="13.514427173117086"><ele>584.0</ele><time>2026-05-01T12:45:40Z</time></trkpt><trkpt lat="47.93490545845825" lon="13.514566509386155"><ele>584.0</ele><time>2026-05-01T12:45:41Z</time></trkpt><trkpt lat="47.935159202806666" lon="13.514699828125504"><ele>587.0</ele><time>2026-05-01T12:45:42Z</time></trkpt><trkpt lat="47.93541285177696" lon="13.514824797703028"><ele>590.0</ele><time>2026-05-01T12:45:43Z</time></trkpt><trkpt lat="47.93566895379081" lon="13.514942908050788"><ele>590.5</ele><time>2026-05-01T12:45:44Z</time></trkpt><trkpt lat="47.93592642682097" lon="13.515052934208898"><ele>591.0</ele><time>2026-05-01T12:45:45Z</time></trkpt><trkpt lat="47.93618679487605" lon="13.5151583617331"><ele>591.0</ele><time>2026-05-01T12:45:46Z</time></trkpt><trkpt lat="47.936448583548575" lon="13.51525514045014"><ele>591.0</ele><time>2026-05-01T12:45:47Z</time></trkpt><trkpt lat="47.936718258802195" lon="13.515345009705182"><ele>594.5</ele><time>2026-05-01T12:45:48Z</time></trkpt><trkpt lat="47.93699347504435" lon="13.51543353027349"><ele>598.0</ele><time>2026-05-01T12:45:49Z</time></trkpt><trkpt lat="47.937268707234516" lon="13.515520311123874"><ele>598.0</ele><time>2026-05-01T12:45:50Z</time></trkpt><trkpt lat="47.93754589648659" lon="13.515609193401342"><ele>598.0</ele><time>2026-05-01T12:45:51Z</time></trkpt><trkpt lat="47.93782137533877" lon="13.515704465018533"><ele>598.0</ele><time>2026-05-01T12:45:52Z</time></trkpt><trkpt lat="47.938097662888545" lon="13.51580522502892"><ele>598.0</ele><time>2026-05-01T12:45:53Z</time></trkpt><trkpt lat="47.93837374637008" lon="13.515903508680939"><ele>598.5</ele><time>2026-05-01T12:45:54Z</time></trkpt><trkpt lat="47.93865148145301" lon="13.515994800199946"><ele>599.0</ele><time>2026-05-01T12:45:55Z</time></trkpt><trkpt lat="47.93892947355307" lon="13.516082741966343"><ele>599.0</ele><time>2026-05-01T12:45:56Z</time></trkpt><trkpt lat="47.93921045913071" lon="13.516168328207113"><ele>599.0</ele><time>2026-05-01T12:45:57Z</time></trkpt><trkpt lat="47.93949132263929" lon="13.516251559634775"><ele>601.5</ele><time>2026-05-01T12:45:58Z</time></trkpt><trkpt lat="47.93976994545431" lon="13.516331702519487"><ele>604.0</ele><time>2026-05-01T12:45:59Z</time></trkpt><trkpt lat="47.94004891073115" lon="13.516415548221506"><ele>603.0</ele><time>2026-05-01T12:46:00Z</time></trkpt><trkpt lat="47.94032869172972" lon="13.51650118182519"><ele>602.0</ele><time>2026-05-01T12:46:01Z</time></trkpt><trkpt lat="47.940608842211965" lon="13.516589126973296"><ele>602.5</ele><time>2026-05-01T12:46:02Z</time></trkpt><trkpt lat="47.94088900908969" lon="13.516678540693109"><ele>603.0</ele><time>2026-05-01T12:46:03Z</time></trkpt><trkpt lat="47.94116728919888" lon="13.516769389864923"><ele>603.0</ele><time>2026-05-01T12:46:04Z</time></trkpt><trkpt lat="47.94144182031773" lon="13.516865892492357"><ele>603.0</ele><time>2026-05-01T12:46:05Z</time></trkpt><trkpt lat="47.94171789898614" lon="13.516967195492533"><ele>605.0</ele><time>2026-05-01T12:46:06Z</time></trkpt><trkpt lat="47.94199387174221" lon="13.517071710069194"><ele>607.0</ele><time>2026-05-01T12:46:07Z</time></trkpt><trkpt lat="47.942272229065246" lon="13.51717830613289"><ele>607.0</ele><time>2026-05-01T12:46:08Z</time></trkpt><trkpt lat="47.94255060725289" lon="13.517289665107278"><ele>607.0</ele><time>2026-05-01T12:46:09Z</time></trkpt><trkpt lat="47.942828153297256" lon="13.51740935279133"><ele>607.0</ele><time>2026-05-01T12:46:10Z</time></trkpt><trkpt lat="47.94310356527949" lon="13.517538703836111"><ele>607.0</ele><time>2026-05-01T12:46:11Z</time></trkpt><trkpt lat="47.94337843361807" lon="13.517676419984221"><ele>607.0</ele><time>2026-05-01T12:46:12Z</time></trkpt><trkpt lat="47.94365296323762" lon="13.517818826651194"><ele>607.0</ele><time>2026-05-01T12:46:13Z</time></trkpt><trkpt lat="47.943926042301584" lon="13.517966970008336"><ele>607.0</ele><time>2026-05-01T12:46:14Z</time></trkpt><trkpt lat="47.94419800302659" lon="13.5181223971731"><ele>607.0</ele><time>2026-05-01T12:46:15Z</time></trkpt><trkpt lat="47.94446885732376" lon="13.518286420032595"><ele>606.0</ele><time>2026-05-01T12:46:16Z</time></trkpt><trkpt lat="47.94473655933846" lon="13.51845227674872"><ele>605.0</ele><time>2026-05-01T12:46:17Z</time></trkpt><trkpt lat="47.9450043810424" lon="13.518623996992535"><ele>605.0</ele><time>2026-05-01T12:46:18Z</time></trkpt><trkpt lat="47.94526814723484" lon="13.518803257684445"><ele>605.0</ele><time>2026-05-01T12:46:19Z</time></trkpt><trkpt lat="47.945526318146094" lon="13.51899216804964"><ele>605.0</ele><time>2026-05-01T12:46:20Z</time></trkpt><trkpt lat="47.94578197236574" lon="13.519190912743655"><ele>605.0</ele><time>2026-05-01T12:46:21Z</time></trkpt><trkpt lat="47.94603395703254" lon="13.519398003402626"><ele>606.0</ele><time>2026-05-01T12:46:22Z</time></trkpt><trkpt lat="47.94628670521554" lon="13.519609216182477"><ele>607.0</ele><time>2026-05-01T12:46:23Z</time></trkpt><trkpt lat="47.946537965392494" lon="13.519826286233416"><ele>604.5</ele><time>2026-05-01T12:46:24Z</time></trkpt><trkpt lat="47.946787476637965" lon="13.5200490238238"><ele>602.0</ele><time>2026-05-01T12:46:25Z</time></trkpt><trkpt lat="47.947035659722424" lon="13.52027785271477"><ele>604.0</ele><time>2026-05-01T12:46:26Z</time></trkpt><trkpt lat="47.947278091527934" lon="13.520512334420152"><ele>606.0</ele><time>2026-05-01T12:46:27Z</time></trkpt><trkpt lat="47.94751616850424" lon="13.520754276018678"><ele>605.5</ele><time>2026-05-01T12:46:28Z</time></trkpt><trkpt lat="47.947750274261054" lon="13.521003737117471"><ele>605.0</ele><time>2026-05-01T12:46:29Z</time></trkpt><trkpt lat="47.94798338540176" lon="13.52125596376268"><ele>605.0</ele><time>2026-05-01T12:46:30Z</time></trkpt><trkpt lat="47.948213811977574" lon="13.521510885283625"><ele>605.0</ele><time>2026-05-01T12:46:31Z</time></trkpt><trkpt lat="47.948441098139256" lon="13.521774965711765"><ele>603.0</ele><time>2026-05-01T12:46:32Z</time></trkpt><trkpt lat="47.9486663241567" lon="13.522043487676502"><ele>601.0</ele><time>2026-05-01T12:46:33Z</time></trkpt><trkpt lat="47.9488887153799" lon="13.522314173829225"><ele>601.0</ele><time>2026-05-01T12:46:34Z</time></trkpt><trkpt lat="47.9491075066113" lon="13.522590620385406"><ele>601.0</ele><time>2026-05-01T12:46:35Z</time></trkpt><trkpt lat="47.949321696902054" lon="13.522873813222052"><ele>600.0</ele><time>2026-05-01T12:46:36Z</time></trkpt><trkpt lat="47.949531484271304" lon="13.523162034301967"><ele>599.0</ele><time>2026-05-01T12:46:37Z</time></trkpt><trkpt lat="47.949737269961325" lon="13.523457025089227"><ele>600.0</ele><time>2026-05-01T12:46:38Z</time></trkpt><trkpt lat="47.949939782982135" lon="13.52375555335174"><ele>601.0</ele><time>2026-05-01T12:46:39Z</time></trkpt><trkpt lat="47.95013949900983" lon="13.524055080933119"><ele>600.0</ele><time>2026-05-01T12:46:40Z</time></trkpt><trkpt lat="47.95033582292442" lon="13.52436139076463"><ele>599.0</ele><time>2026-05-01T12:46:41Z</time></trkpt><trkpt lat="47.95052913066096" lon="13.524675575425585"><ele>599.0</ele><time>2026-05-01T12:46:42Z</time></trkpt><trkpt lat="47.95072031367472" lon="13.524996170389562"><ele>599.0</ele><time>2026-05-01T12:46:43Z</time></trkpt><trkpt lat="47.95090917555943" lon="13.525323609927598"><ele>599.0</ele><time>2026-05-01T12:46:44Z</time></trkpt><trkpt lat="47.95109335427271" lon="13.525657169720835"><ele>599.0</ele><time>2026-05-01T12:46:45Z</time></trkpt><trkpt lat="47.95127547674586" lon="13.525995247421536"><ele>600.0</ele><time>2026-05-01T12:46:46Z</time></trkpt><trkpt lat="47.95145419683944" lon="13.526338828645656"><ele>601.0</ele><time>2026-05-01T12:46:47Z</time></trkpt><trkpt lat="47.95162810584256" lon="13.526689001878292"><ele>601.5</ele><time>2026-05-01T12:46:48Z</time></trkpt><trkpt lat="47.951796501696364" lon="13.527048014349559"><ele>602.0</ele><time>2026-05-01T12:46:49Z</time></trkpt><trkpt lat="47.951965121611785" lon="13.527406173284547"><ele>603.5</ele><time>2026-05-01T12:46:50Z</time></trkpt><trkpt lat="47.952122796609565" lon="13.527764301634148"><ele>605.0</ele><time>2026-05-01T12:46:51Z</time></trkpt><trkpt lat="47.95226943072642" lon="13.528112465229176"><ele>606.5</ele><time>2026-05-01T12:46:52Z</time></trkpt><trkpt lat="47.952418352856554" lon="13.528467106823284"><ele>608.0</ele><time>2026-05-01T12:46:53Z</time></trkpt><trkpt lat="47.95256884346441" lon="13.528830349620026"><ele>608.0</ele><time>2026-05-01T12:46:54Z</time></trkpt><trkpt lat="47.9527156941755" lon="13.529204107784391"><ele>608.0</ele><time>2026-05-01T12:46:55Z</time></trkpt><trkpt lat="47.952859060887256" lon="13.529586673725175"><ele>605.0</ele><time>2026-05-01T12:46:56Z</time></trkpt><trkpt lat="47.95299526577435" lon="13.529980273357696"><ele>602.0</ele><time>2026-05-01T12:46:57Z</time></trkpt><trkpt lat="47.953127521197814" lon="13.530381596949324"><ele>601.0</ele><time>2026-05-01T12:46:58Z</time></trkpt><trkpt lat="47.953260066859016" lon="13.530788055256536"><ele>600.0</ele><time>2026-05-01T12:46:59Z</time></trkpt><trkpt lat="47.95338989131381" lon="13.531196060857274"><ele>593.0</ele><time>2026-05-01T12:47:00Z</time></trkpt><trkpt lat="47.953511543025144" lon="13.5316059228571"><ele>586.0</ele><time>2026-05-01T12:47:01Z</time></trkpt><trkpt lat="47.953625711119194" lon="13.532017877425789"><ele>581.0</ele><time>2026-05-01T12:47:02Z</time></trkpt><trkpt lat="47.953733279371086" lon="13.532435356961454"><ele>576.0</ele><time>2026-05-01T12:47:03Z</time></trkpt><trkpt lat="47.953835546691245" lon="13.532856358550575"><ele>573.5</ele><time>2026-05-01T12:47:04Z</time></trkpt><trkpt lat="47.95393606082195" lon="13.533278821980145"><ele>571.0</ele><time>2026-05-01T12:47:05Z</time></trkpt><trkpt lat="47.95403478446143" lon="13.533705292211824"><ele>568.5</ele><time>2026-05-01T12:47:06Z</time></trkpt><trkpt lat="47.954130685412" lon="13.53413673981065"><ele>566.0</ele><time>2026-05-01T12:47:07Z</time></trkpt><trkpt lat="47.954218874096604" lon="13.534572725623462"><ele>561.0</ele><time>2026-05-01T12:47:08Z</time></trkpt><trkpt lat="47.95430255924963" lon="13.53501090177178"><ele>556.0</ele><time>2026-05-01T12:47:09Z</time></trkpt><trkpt lat="47.95438049840342" lon="13.535452703046804"><ele>556.0</ele><time>2026-05-01T12:47:10Z</time></trkpt><trkpt lat="47.95445283180691" lon="13.535893522295957"><ele>556.0</ele><time>2026-05-01T12:47:11Z</time></trkpt><trkpt lat="47.95451638192509" lon="13.536336071158482"><ele>555.5</ele><time>2026-05-01T12:47:12Z</time></trkpt><trkpt lat="47.95457770206235" lon="13.536778128643304"><ele>555.0</ele><time>2026-05-01T12:47:13Z</time></trkpt><trkpt lat="47.95463691949478" lon="13.537219089999885"><ele>555.0</ele><time>2026-05-01T12:47:14Z</time></trkpt><trkpt lat="47.954692204088616" lon="13.537659618979827"><ele>555.0</ele><time>2026-05-01T12:47:15Z</time></trkpt><trkpt lat="47.95474652743596" lon="13.538099944034935"><ele>554.0</ele><time>2026-05-01T12:47:16Z</time></trkpt><trkpt lat="47.95479571440661" lon="13.538540118292437"><ele>553.0</ele><time>2026-05-01T12:47:17Z</time></trkpt><trkpt lat="47.954841909209236" lon="13.538980464356726"><ele>551.5</ele><time>2026-05-01T12:47:18Z</time></trkpt><trkpt lat="47.95488707942895" lon="13.539420375125706"><ele>550.0</ele><time>2026-05-01T12:47:19Z</time></trkpt><trkpt lat="47.95493253623634" lon="13.539860154756912"><ele>549.5</ele><time>2026-05-01T12:47:20Z</time></trkpt><trkpt lat="47.95497734356241" lon="13.540302279868966"><ele>549.0</ele><time>2026-05-01T12:47:21Z</time></trkpt><trkpt lat="47.955022248623834" lon="13.540744469907231"><ele>546.5</ele><time>2026-05-01T12:47:22Z</time></trkpt><trkpt lat="47.955066561481345" lon="13.541187881550126"><ele>544.0</ele><time>2026-05-01T12:47:23Z</time></trkpt><trkpt lat="47.955110849844786" lon="13.54163608091172"><ele>543.0</ele><time>2026-05-01T12:47:24Z</time></trkpt><trkpt lat="47.955153835494144" lon="13.542085275884945"><ele>542.0</ele><time>2026-05-01T12:47:25Z</time></trkpt><trkpt lat="47.955198291263294" lon="13.542535613872047"><ele>540.0</ele><time>2026-05-01T12:47:26Z</time></trkpt><trkpt lat="47.95524588441622" lon="13.542985152479563"><ele>538.0</ele><time>2026-05-01T12:47:27Z</time></trkpt><trkpt lat="47.95529211674645" lon="13.543431344286066"><ele>537.0</ele><time>2026-05-01T12:47:28Z</time></trkpt><trkpt lat="47.955339848665744" lon="13.543876211358059"><ele>536.0</ele><time>2026-05-01T12:47:29Z</time></trkpt><trkpt lat="47.955389631831444" lon="13.544315887740623"><ele>536.0</ele><time>2026-05-01T12:47:30Z</time></trkpt><trkpt lat="47.95543692948948" lon="13.544751420777823"><ele>536.0</ele><time>2026-05-01T12:47:31Z</time></trkpt><trkpt lat="47.95548202003736" lon="13.545183946185105"><ele>536.0</ele><time>2026-05-01T12:47:32Z</time></trkpt><trkpt lat="47.95552757039468" lon="13.545614685661091"><ele>536.0</ele><time>2026-05-01T12:47:33Z</time></trkpt><trkpt lat="47.9555725692315" lon="13.546044485193613"><ele>535.5</ele><time>2026-05-01T12:47:34Z</time></trkpt><trkpt lat="47.955621120264134" lon="13.546478709444049"><ele>535.0</ele><time>2026-05-01T12:47:35Z</time></trkpt><trkpt lat="47.95567164670305" lon="13.546914757322817"><ele>534.0</ele><time>2026-05-01T12:47:36Z</time></trkpt><trkpt lat="47.9557222585074" lon="13.54735145644041"><ele>533.0</ele><time>2026-05-01T12:47:37Z</time></trkpt><trkpt lat="47.95577744074241" lon="13.547788298177316"><ele>533.5</ele><time>2026-05-01T12:47:38Z</time></trkpt><trkpt lat="47.95583360474968" lon="13.54822569031537"><ele>534.0</ele><time>2026-05-01T12:47:39Z</time></trkpt><trkpt lat="47.95588977427503" lon="13.54866277785691"><ele>534.0</ele><time>2026-05-01T12:47:40Z</time></trkpt><trkpt lat="47.955947557194605" lon="13.549097842586832"><ele>534.0</ele><time>2026-05-01T12:47:41Z</time></trkpt><trkpt lat="47.95600337685338" lon="13.549531182611657"><ele>532.5</ele><time>2026-05-01T12:47:42Z</time></trkpt><trkpt lat="47.95605987090383" lon="13.54996505196267"><ele>531.0</ele><time>2026-05-01T12:47:43Z</time></trkpt><trkpt lat="47.956116496990106" lon="13.550396545445846"><ele>531.5</ele><time>2026-05-01T12:47:44Z</time></trkpt><trkpt lat="47.95617557856283" lon="13.550826924574498"><ele>532.0</ele><time>2026-05-01T12:47:45Z</time></trkpt><trkpt lat="47.95623640254034" lon="13.55125491070774"><ele>532.0</ele><time>2026-05-01T12:47:46Z</time></trkpt><trkpt lat="47.956296977439905" lon="13.551682751363444"><ele>532.0</ele><time>2026-05-01T12:47:47Z</time></trkpt><trkpt lat="47.95635891783603" lon="13.552110336365983"><ele>532.5</ele><time>2026-05-01T12:47:48Z</time></trkpt><trkpt lat="47.95642150559851" lon="13.552535206431081"><ele>533.0</ele><time>2026-05-01T12:47:49Z</time></trkpt><trkpt lat="47.95648510412083" lon="13.552961152986043"><ele>533.0</ele><time>2026-05-01T12:47:50Z</time></trkpt><trkpt lat="47.95654934440372" lon="13.5533840687159"><ele>533.0</ele><time>2026-05-01T12:47:51Z</time></trkpt><trkpt lat="47.95661410950293" lon="13.553808146519259"><ele>531.5</ele><time>2026-05-01T12:47:52Z</time></trkpt><trkpt lat="47.95667845714193" lon="13.554228658493374"><ele>530.0</ele><time>2026-05-01T12:47:53Z</time></trkpt><trkpt lat="47.956743640040855" lon="13.554649042095136"><ele>531.5</ele><time>2026-05-01T12:47:54Z</time></trkpt><trkpt lat="47.956808107750376" lon="13.555066061108949"><ele>533.0</ele><time>2026-05-01T12:47:55Z</time></trkpt><trkpt lat="47.95687256448597" lon="13.555481054770985"><ele>533.0</ele><time>2026-05-01T12:47:56Z</time></trkpt><trkpt lat="47.95693724934591" lon="13.555895402832514"><ele>533.0</ele><time>2026-05-01T12:47:57Z</time></trkpt><trkpt lat="47.95700123284998" lon="13.556309463149404"><ele>530.5</ele><time>2026-05-01T12:47:58Z</time></trkpt><trkpt lat="47.95706547622039" lon="13.55672655887265"><ele>528.0</ele><time>2026-05-01T12:47:59Z</time></trkpt><trkpt lat="47.95713095386183" lon="13.557142364748877"><ele>528.5</ele><time>2026-05-01T12:48:00Z</time></trkpt><trkpt lat="47.95719571388005" lon="13.557551613990624"><ele>529.0</ele><time>2026-05-01T12:48:01Z</time></trkpt><trkpt lat="47.95725804562095" lon="13.557940839023894"><ele>529.0</ele><time>2026-05-01T12:48:02Z</time></trkpt><trkpt lat="47.95732238554108" lon="13.558338023156841"><ele>529.0</ele><time>2026-05-01T12:48:03Z</time></trkpt><trkpt lat="47.95738940001173" lon="13.55875236745133"><ele>528.0</ele><time>2026-05-01T12:48:04Z</time></trkpt><trkpt lat="47.95745737286213" lon="13.559176271516973"><ele>527.0</ele><time>2026-05-01T12:48:05Z</time></trkpt><trkpt lat="47.95752426434897" lon="13.559606307458056"><ele>533.0</ele><time>2026-05-01T12:48:06Z</time></trkpt><trkpt lat="47.957592391857865" lon="13.560041405137058"><ele>539.0</ele><time>2026-05-01T12:48:07Z</time></trkpt><trkpt lat="47.9576588642899" lon="13.56047968521732"><ele>542.0</ele><time>2026-05-01T12:48:08Z</time></trkpt><trkpt lat="47.957725516621984" lon="13.56092021130896"><ele>545.0</ele><time>2026-05-01T12:48:09Z</time></trkpt><trkpt lat="47.95779138356463" lon="13.561361923915124"><ele>545.5</ele><time>2026-05-01T12:48:10Z</time></trkpt><trkpt lat="47.957855696223604" lon="13.561804177462705"><ele>546.0</ele><time>2026-05-01T12:48:11Z</time></trkpt><trkpt lat="47.95791788963852" lon="13.562247804332468"><ele>544.5</ele><time>2026-05-01T12:48:12Z</time></trkpt><trkpt lat="47.95797711055834" lon="13.562690283904523"><ele>543.0</ele><time>2026-05-01T12:48:13Z</time></trkpt><trkpt lat="47.958035779085165" lon="13.563129732074058"><ele>541.5</ele><time>2026-05-01T12:48:14Z</time></trkpt><trkpt lat="47.95809467914586" lon="13.563568098704934"><ele>540.0</ele><time>2026-05-01T12:48:15Z</time></trkpt><trkpt lat="47.958149931623836" lon="13.564005818437307"><ele>535.5</ele><time>2026-05-01T12:48:16Z</time></trkpt><trkpt lat="47.95820040406332" lon="13.564445427537883"><ele>531.0</ele><time>2026-05-01T12:48:17Z</time></trkpt><trkpt lat="47.95824632024225" lon="13.56488248394946"><ele>530.0</ele><time>2026-05-01T12:48:18Z</time></trkpt><trkpt lat="47.95828848898218" lon="13.565319593003176"><ele>529.0</ele><time>2026-05-01T12:48:19Z</time></trkpt><trkpt lat="47.9583259496641" lon="13.56575783525449"><ele>529.5</ele><time>2026-05-01T12:48:20Z</time></trkpt><trkpt lat="47.95836379163002" lon="13.56620004222973"><ele>530.0</ele><time>2026-05-01T12:48:21Z</time></trkpt><trkpt lat="47.95839787570663" lon="13.566643909917742"><ele>530.0</ele><time>2026-05-01T12:48:22Z</time></trkpt><trkpt lat="47.95842479516311" lon="13.567089080525642"><ele>530.0</ele><time>2026-05-01T12:48:23Z</time></trkpt><trkpt lat="47.95844796202655" lon="13.567536502034908"><ele>531.0</ele><time>2026-05-01T12:48:24Z</time></trkpt><trkpt lat="47.958466004503734" lon="13.567985196606264"><ele>532.0</ele><time>2026-05-01T12:48:25Z</time></trkpt><trkpt lat="47.958480987429425" lon="13.568434380060465"><ele>533.5</ele><time>2026-05-01T12:48:26Z</time></trkpt><trkpt lat="47.95849485199334" lon="13.568883769672057"><ele>535.0</ele><time>2026-05-01T12:48:27Z</time></trkpt><trkpt lat="47.95850643459427" lon="13.569332267655904"><ele>533.5</ele><time>2026-05-01T12:48:28Z</time></trkpt><trkpt lat="47.9585120652559" lon="13.569779923911822"><ele>532.0</ele><time>2026-05-01T12:48:29Z</time></trkpt><trkpt lat="47.958511960653894" lon="13.570223998833372"><ele>532.5</ele><time>2026-05-01T12:48:30Z</time></trkpt><trkpt lat="47.958507593564285" lon="13.570665800831382"><ele>533.0</ele><time>2026-05-01T12:48:31Z</time></trkpt><trkpt lat="47.95849937959118" lon="13.571103649961483"><ele>533.0</ele><time>2026-05-01T12:48:32Z</time></trkpt><trkpt lat="47.95848704077853" lon="13.571539040524407"><ele>533.0</ele><time>2026-05-01T12:48:33Z</time></trkpt><trkpt lat="47.95847196175937" lon="13.571976342923657"><ele>533.0</ele><time>2026-05-01T12:48:34Z</time></trkpt><trkpt lat="47.95845382940142" lon="13.572414569183952"><ele>533.0</ele><time>2026-05-01T12:48:35Z</time></trkpt><trkpt lat="47.95843318046299" lon="13.572854848833819"><ele>534.0</ele><time>2026-05-01T12:48:36Z</time></trkpt><trkpt lat="47.958409600328395" lon="13.573295146496676"><ele>535.0</ele><time>2026-05-01T12:48:37Z</time></trkpt><trkpt lat="47.95838295926845" lon="13.573734557035616"><ele>533.5</ele><time>2026-05-01T12:48:38Z</time></trkpt><trkpt lat="47.9583524026509" lon="13.574168282836743"><ele>532.0</ele><time>2026-05-01T12:48:39Z</time></trkpt><trkpt lat="47.95832016304015" lon="13.574600280190069"><ele>532.0</ele><time>2026-05-01T12:48:40Z</time></trkpt><trkpt lat="47.95828305723511" lon="13.575028033602186"><ele>532.0</ele><time>2026-05-01T12:48:41Z</time></trkpt><trkpt lat="47.958241066520564" lon="13.575450909861244"><ele>532.0</ele><time>2026-05-01T12:48:42Z</time></trkpt><trkpt lat="47.958197891399486" lon="13.575857200708233"><ele>532.0</ele><time>2026-05-01T12:48:43Z</time></trkpt><trkpt lat="47.95815429732504" lon="13.576248120670343"><ele>532.5</ele><time>2026-05-01T12:48:44Z</time></trkpt><trkpt lat="47.95810909722971" lon="13.576649603915516"><ele>533.0</ele><time>2026-05-01T12:48:45Z</time></trkpt><trkpt lat="47.958060268655736" lon="13.577060666251153"><ele>533.0</ele><time>2026-05-01T12:48:46Z</time></trkpt><trkpt lat="47.95800761611554" lon="13.577472041316595"><ele>533.0</ele><time>2026-05-01T12:48:47Z</time></trkpt><trkpt lat="47.9579532443478" lon="13.57788041725806"><ele>532.0</ele><time>2026-05-01T12:48:48Z</time></trkpt><trkpt lat="47.957897283842854" lon="13.578285095639696"><ele>531.0</ele><time>2026-05-01T12:48:49Z</time></trkpt><trkpt lat="47.957838650749714" lon="13.578687664231058"><ele>531.0</ele><time>2026-05-01T12:48:50Z</time></trkpt><trkpt lat="47.957776677170834" lon="13.57908568066724"><ele>531.0</ele><time>2026-05-01T12:48:51Z</time></trkpt><trkpt lat="47.95771391619112" lon="13.579482038979469"><ele>531.0</ele><time>2026-05-01T12:48:52Z</time></trkpt><trkpt lat="47.957650645194235" lon="13.579877158710541"><ele>531.0</ele><time>2026-05-01T12:48:53Z</time></trkpt><trkpt lat="47.957586060991275" lon="13.58026769828756"><ele>527.0</ele><time>2026-05-01T12:48:54Z</time></trkpt><trkpt lat="47.957522012647786" lon="13.580652245105245"><ele>523.0</ele><time>2026-05-01T12:48:55Z</time></trkpt><trkpt lat="47.95745947540828" lon="13.581022067992029"><ele>523.0</ele><time>2026-05-01T12:48:56Z</time></trkpt><trkpt lat="47.95739260214695" lon="13.581401809496837"><ele>523.0</ele><time>2026-05-01T12:48:57Z</time></trkpt><trkpt lat="47.95732372584978" lon="13.58178510543193"><ele>523.5</ele><time>2026-05-01T12:48:58Z</time></trkpt><trkpt lat="47.95725626539133" lon="13.582170111760233"><ele>524.0</ele><time>2026-05-01T12:48:59Z</time></trkpt><trkpt lat="47.95718628219255" lon="13.582554290222086"><ele>523.0</ele><time>2026-05-01T12:49:00Z</time></trkpt><trkpt lat="47.95711361288093" lon="13.582945812657961"><ele>522.0</ele><time>2026-05-01T12:49:01Z</time></trkpt><trkpt lat="47.95703788806408" lon="13.583349680949532"><ele>522.5</ele><time>2026-05-01T12:49:02Z</time></trkpt><trkpt lat="47.95696274491468" lon="13.58376424684136"><ele>523.0</ele><time>2026-05-01T12:49:03Z</time></trkpt><trkpt lat="47.956888320508966" lon="13.584192539944459"><ele>522.5</ele><time>2026-05-01T12:49:04Z</time></trkpt><trkpt lat="47.95681122683352" lon="13.584628595084595"><ele>522.0</ele><time>2026-05-01T12:49:05Z</time></trkpt><trkpt lat="47.95672987732366" lon="13.58506732339268"><ele>516.5</ele><time>2026-05-01T12:49:06Z</time></trkpt><trkpt lat="47.95660729987558" lon="13.585491938490646"><ele>511.0</ele><time>2026-05-01T12:49:07Z</time></trkpt><trkpt lat="47.95651385455276" lon="13.585938177655073"><ele>511.0</ele><time>2026-05-01T12:49:08Z</time></trkpt><trkpt lat="47.956421531830316" lon="13.586378500545967"><ele>511.0</ele><time>2026-05-01T12:49:09Z</time></trkpt><trkpt lat="47.956328374350036" lon="13.586819250527258"><ele>508.5</ele><time>2026-05-01T12:49:10Z</time></trkpt><trkpt lat="47.95623326267559" lon="13.587257343186241"><ele>506.0</ele><time>2026-05-01T12:49:11Z</time></trkpt><trkpt lat="47.95613387458364" lon="13.587690164293827"><ele>504.0</ele><time>2026-05-01T12:49:12Z</time></trkpt><trkpt lat="47.95603408931566" lon="13.588120067864978"><ele>502.0</ele><time>2026-05-01T12:49:13Z</time></trkpt><trkpt lat="47.95595261795621" lon="13.588551673787215"><ele>501.5</ele><time>2026-05-01T12:49:14Z</time></trkpt><trkpt lat="47.95585027817752" lon="13.588968276271467"><ele>501.0</ele><time>2026-05-01T12:49:15Z</time></trkpt><trkpt lat="47.95575149004038" lon="13.589387590315509"><ele>501.0</ele><time>2026-05-01T12:49:16Z</time></trkpt><trkpt lat="47.955655734565305" lon="13.58980770743899"><ele>501.0</ele><time>2026-05-01T12:49:17Z</time></trkpt><trkpt lat="47.955565129155964" lon="13.590226506854888"><ele>498.5</ele><time>2026-05-01T12:49:18Z</time></trkpt><trkpt lat="47.95547617599643" lon="13.590646244132405"><ele>496.0</ele><time>2026-05-01T12:49:19Z</time></trkpt><trkpt lat="47.95538928974896" lon="13.591067128157855"><ele>493.5</ele><time>2026-05-01T12:49:20Z</time></trkpt><trkpt lat="47.955302411724986" lon="13.591485423111266"><ele>491.0</ele><time>2026-05-01T12:49:21Z</time></trkpt><trkpt lat="47.95521410205351" lon="13.591901965273856"><ele>490.5</ele><time>2026-05-01T12:49:22Z</time></trkpt><trkpt lat="47.95512246384148" lon="13.592313732895391"><ele>490.0</ele><time>2026-05-01T12:49:23Z</time></trkpt><trkpt lat="47.955033336549285" lon="13.59272552646261"><ele>496.0</ele><time>2026-05-01T12:49:24Z</time></trkpt><trkpt lat="47.95494771042102" lon="13.59313494992584"><ele>502.0</ele><time>2026-05-01T12:49:25Z</time></trkpt><trkpt lat="47.9548610859622" lon="13.593542487075663"><ele>501.0</ele><time>2026-05-01T12:49:26Z</time></trkpt><trkpt lat="47.954771652328866" lon="13.593949095136711"><ele>500.0</ele><time>2026-05-01T12:49:27Z</time></trkpt><trkpt lat="47.95468191925743" lon="13.59435355654193"><ele>501.0</ele><time>2026-05-01T12:49:28Z</time></trkpt><trkpt lat="47.95459399206177" lon="13.594757567725503"><ele>502.0</ele><time>2026-05-01T12:49:29Z</time></trkpt><trkpt lat="47.954499740226616" lon="13.595155265431401"><ele>503.0</ele><time>2026-05-01T12:49:30Z</time></trkpt><trkpt lat="47.954411290228826" lon="13.595555247029354"><ele>504.0</ele><time>2026-05-01T12:49:31Z</time></trkpt><trkpt lat="47.954322951120076" lon="13.595956734894147"><ele>503.5</ele><time>2026-05-01T12:49:32Z</time></trkpt><trkpt lat="47.95423771254348" lon="13.596358725111605"><ele>503.0</ele><time>2026-05-01T12:49:33Z</time></trkpt><trkpt lat="47.954153508738656" lon="13.596758960273714"><ele>500.5</ele><time>2026-05-01T12:49:34Z</time></trkpt><trkpt lat="47.95406831408068" lon="13.59715985429003"><ele>498.0</ele><time>2026-05-01T12:49:35Z</time></trkpt><trkpt lat="47.95398035454271" lon="13.597559596648233"><ele>496.5</ele><time>2026-05-01T12:49:36Z</time></trkpt><trkpt lat="47.953892273368744" lon="13.59795948693339"><ele>495.0</ele><time>2026-05-01T12:49:37Z</time></trkpt><trkpt lat="47.95380412200294" lon="13.598363649060461"><ele>494.5</ele><time>2026-05-01T12:49:38Z</time></trkpt><trkpt lat="47.95371480998051" lon="13.598770463443437"><ele>494.0</ele><time>2026-05-01T12:49:39Z</time></trkpt><trkpt lat="47.95362264418944" lon="13.59917787848973"><ele>493.0</ele><time>2026-05-01T12:49:40Z</time></trkpt><trkpt lat="47.953532469353675" lon="13.599587539228896"><ele>492.0</ele><time>2026-05-01T12:49:41Z</time></trkpt><trkpt lat="47.95344259395289" lon="13.59999456626119"><ele>493.5</ele><time>2026-05-01T12:49:42Z</time></trkpt><trkpt lat="47.95335801108566" lon="13.600388630121463"><ele>495.0</ele><time>2026-05-01T12:49:43Z</time></trkpt><trkpt lat="47.953269654509285" lon="13.60078234357408"><ele>493.5</ele><time>2026-05-01T12:49:44Z</time></trkpt><trkpt lat="47.95318348283979" lon="13.601195456063618"><ele>492.0</ele><time>2026-05-01T12:49:45Z</time></trkpt><trkpt lat="47.95310192942277" lon="13.601613066208973"><ele>492.0</ele><time>2026-05-01T12:49:46Z</time></trkpt><trkpt lat="47.952999155685895" lon="13.6020254567403"><ele>492.0</ele><time>2026-05-01T12:49:47Z</time></trkpt><trkpt lat="47.952937259995814" lon="13.602462125391591"><ele>489.0</ele><time>2026-05-01T12:49:48Z</time></trkpt><trkpt lat="47.95284818906728" lon="13.602888567365492"><ele>486.0</ele><time>2026-05-01T12:49:49Z</time></trkpt><trkpt lat="47.95275380649388" lon="13.603309560378948"><ele>485.0</ele><time>2026-05-01T12:49:50Z</time></trkpt><trkpt lat="47.95266182265336" lon="13.603729715124166"><ele>484.0</ele><time>2026-05-01T12:49:51Z</time></trkpt><trkpt lat="47.95257181468557" lon="13.60414248372743"><ele>483.5</ele><time>2026-05-01T12:49:52Z</time></trkpt><trkpt lat="47.9524846036393" lon="13.604550027938998"><ele>483.0</ele><time>2026-05-01T12:49:53Z</time></trkpt><trkpt lat="47.95239560194134" lon="13.604952241820163"><ele>479.5</ele><time>2026-05-01T12:49:54Z</time></trkpt><trkpt lat="47.95230836189342" lon="13.605351373481085"><ele>476.0</ele><time>2026-05-01T12:49:55Z</time></trkpt><trkpt lat="47.95221870675497" lon="13.605747584822149"><ele>476.0</ele><time>2026-05-01T12:49:56Z</time></trkpt><trkpt lat="47.952125910372544" lon="13.606145431025473"><ele>476.0</ele><time>2026-05-01T12:49:57Z</time></trkpt><trkpt lat="47.95203391587082" lon="13.606542187887143"><ele>474.0</ele><time>2026-05-01T12:49:58Z</time></trkpt><trkpt lat="47.951939706376294" lon="13.606939876024606"><ele>472.0</ele><time>2026-05-01T12:49:59Z</time></trkpt><trkpt lat="47.95184582689542" lon="13.607336674993768"><ele>471.0</ele><time>2026-05-01T12:50:00Z</time></trkpt><trkpt lat="47.951752878231154" lon="13.607735227513217"><ele>470.0</ele><time>2026-05-01T12:50:01Z</time></trkpt><trkpt lat="47.95166318748808" lon="13.608137001815033"><ele>477.5</ele><time>2026-05-01T12:50:02Z</time></trkpt><trkpt lat="47.95157371899532" lon="13.608541135953304"><ele>485.0</ele><time>2026-05-01T12:50:03Z</time></trkpt><trkpt lat="47.95148837067829" lon="13.608949711454462"><ele>487.0</ele><time>2026-05-01T12:50:04Z</time></trkpt><trkpt lat="47.9514050913251" lon="13.609358003968994"><ele>489.0</ele><time>2026-05-01T12:50:05Z</time></trkpt><trkpt lat="47.951323017499064" lon="13.609768669693496"><ele>489.0</ele><time>2026-05-01T12:50:06Z</time></trkpt><trkpt lat="47.951246911897144" lon="13.610185769269602"><ele>489.0</ele><time>2026-05-01T12:50:07Z</time></trkpt><trkpt lat="47.951181379244034" lon="13.61060991925985"><ele>488.5</ele><time>2026-05-01T12:50:08Z</time></trkpt><trkpt lat="47.95111913822205" lon="13.611039237757183"><ele>488.0</ele><time>2026-05-01T12:50:09Z</time></trkpt><trkpt lat="47.951063567384075" lon="13.611472585032464"><ele>488.0</ele><time>2026-05-01T12:50:10Z</time></trkpt><trkpt lat="47.95101408287025" lon="13.611910399346058"><ele>488.0</ele><time>2026-05-01T12:50:11Z</time></trkpt><trkpt lat="47.95097075042526" lon="13.612350590736234"><ele>488.0</ele><time>2026-05-01T12:50:12Z</time></trkpt><trkpt lat="47.95093288390318" lon="13.612791741512998"><ele>488.0</ele><time>2026-05-01T12:50:13Z</time></trkpt><trkpt lat="47.95090665248879" lon="13.6132364414921"><ele>488.5</ele><time>2026-05-01T12:50:14Z</time></trkpt><trkpt lat="47.95088384244342" lon="13.613681076317517"><ele>489.0</ele><time>2026-05-01T12:50:15Z</time></trkpt><trkpt lat="47.95086731305658" lon="13.6141270711877"><ele>489.5</ele><time>2026-05-01T12:50:16Z</time></trkpt><trkpt lat="47.95086037188686" lon="13.614574706713318"><ele>490.0</ele><time>2026-05-01T12:50:17Z</time></trkpt><trkpt lat="47.95086067098515" lon="13.615023930184105"><ele>490.0</ele><time>2026-05-01T12:50:18Z</time></trkpt><trkpt lat="47.950866816388256" lon="13.615472875669557"><ele>490.0</ele><time>2026-05-01T12:50:19Z</time></trkpt><trkpt lat="47.95088261424731" lon="13.615921642807642"><ele>489.0</ele><time>2026-05-01T12:50:20Z</time></trkpt><trkpt lat="47.950904201510134" lon="13.616370256153038"><ele>488.0</ele><time>2026-05-01T12:50:21Z</time></trkpt><trkpt lat="47.95093220556413" lon="13.616817778826562"><ele>487.5</ele><time>2026-05-01T12:50:22Z</time></trkpt><trkpt lat="47.95096525236625" lon="13.617263196116692"><ele>487.0</ele><time>2026-05-01T12:50:23Z</time></trkpt><trkpt lat="47.95100717730631" lon="13.617707367388876"><ele>487.5</ele><time>2026-05-01T12:50:24Z</time></trkpt><trkpt lat="47.95105659361165" lon="13.618148290996855"><ele>488.0</ele><time>2026-05-01T12:50:25Z</time></trkpt><trkpt lat="47.95111362911766" lon="13.618588447673224"><ele>487.5</ele><time>2026-05-01T12:50:26Z</time></trkpt><trkpt lat="47.95117892160472" lon="13.619024750540776"><ele>487.0</ele><time>2026-05-01T12:50:27Z</time></trkpt><trkpt lat="47.951250787059685" lon="13.619460984809727"><ele>487.5</ele><time>2026-05-01T12:50:28Z</time></trkpt><trkpt lat="47.95132545739676" lon="13.619896241008478"><ele>488.0</ele><time>2026-05-01T12:50:29Z</time></trkpt><trkpt lat="47.951401866920584" lon="13.620332906736106"><ele>488.0</ele><time>2026-05-01T12:50:30Z</time></trkpt><trkpt lat="47.951481553893615" lon="13.620769575685802"><ele>488.0</ele><time>2026-05-01T12:50:31Z</time></trkpt><trkpt lat="47.951566262391204" lon="13.62120614840016"><ele>488.0</ele><time>2026-05-01T12:50:32Z</time></trkpt><trkpt lat="47.95165329179434" lon="13.62164381347087"><ele>488.0</ele><time>2026-05-01T12:50:33Z</time></trkpt><trkpt lat="47.95174493191732" lon="13.622080880459057"><ele>488.0</ele><time>2026-05-01T12:50:34Z</time></trkpt><trkpt lat="47.9518392411576" lon="13.622514985504468"><ele>488.0</ele><time>2026-05-01T12:50:35Z</time></trkpt><trkpt lat="47.95193329195268" lon="13.622945457913119"><ele>488.0</ele><time>2026-05-01T12:50:36Z</time></trkpt><trkpt lat="47.95202833289428" lon="13.623372970050687"><ele>488.0</ele><time>2026-05-01T12:50:37Z</time></trkpt><trkpt lat="47.95212486291332" lon="13.623799185020978"><ele>487.5</ele><time>2026-05-01T12:50:38Z</time></trkpt><trkpt lat="47.95222039495468" lon="13.624226750485935"><ele>487.0</ele><time>2026-05-01T12:50:39Z</time></trkpt><trkpt lat="47.95231217687766" lon="13.62465374496376"><ele>488.0</ele><time>2026-05-01T12:50:40Z</time></trkpt><trkpt lat="47.95240556609277" lon="13.625080788082586"><ele>489.0</ele><time>2026-05-01T12:50:41Z</time></trkpt><trkpt lat="47.95249975123698" lon="13.625506206821427"><ele>492.5</ele><time>2026-05-01T12:50:42Z</time></trkpt><trkpt lat="47.95259239803608" lon="13.625935106328896"><ele>496.0</ele><time>2026-05-01T12:50:43Z</time></trkpt><trkpt lat="47.95268608184677" lon="13.626363712133157"><ele>496.5</ele><time>2026-05-01T12:50:44Z</time></trkpt><trkpt lat="47.95277986664859" lon="13.626789925892924"><ele>497.0</ele><time>2026-05-01T12:50:45Z</time></trkpt><trkpt lat="47.95287716710418" lon="13.627215168585925"><ele>497.5</ele><time>2026-05-01T12:50:46Z</time></trkpt><trkpt lat="47.95297506334023" lon="13.627641522702682"><ele>498.0</ele><time>2026-05-01T12:50:47Z</time></trkpt><trkpt lat="47.95307341549774" lon="13.628072729766078"><ele>498.0</ele><time>2026-05-01T12:50:48Z</time></trkpt><trkpt lat="47.95317001396144" lon="13.628506293567062"><ele>498.0</ele><time>2026-05-01T12:50:49Z</time></trkpt><trkpt lat="47.953265506902405" lon="13.62894108871849"><ele>498.0</ele><time>2026-05-01T12:50:50Z</time></trkpt><trkpt lat="47.953359758625595" lon="13.629378967654743"><ele>498.0</ele><time>2026-05-01T12:50:51Z</time></trkpt><trkpt lat="47.95345242052163" lon="13.629817772336827"><ele>496.5</ele><time>2026-05-01T12:50:52Z</time></trkpt><trkpt lat="47.95354620017681" lon="13.630255818339078"><ele>495.0</ele><time>2026-05-01T12:50:53Z</time></trkpt><trkpt lat="47.95363939229077" lon="13.63069451728898"><ele>494.0</ele><time>2026-05-01T12:50:54Z</time></trkpt><trkpt lat="47.9537362119886" lon="13.631129356991224"><ele>493.0</ele><time>2026-05-01T12:50:55Z</time></trkpt><trkpt lat="47.9538335763655" lon="13.631559621555505"><ele>493.5</ele><time>2026-05-01T12:50:56Z</time></trkpt><trkpt lat="47.95393071565863" lon="13.631991878193299"><ele>494.0</ele><time>2026-05-01T12:50:57Z</time></trkpt><trkpt lat="47.95402642916791" lon="13.632422737750575"><ele>493.5</ele><time>2026-05-01T12:50:58Z</time></trkpt><trkpt lat="47.95412440370107" lon="13.632851802055413"><ele>493.0</ele><time>2026-05-01T12:50:59Z</time></trkpt><trkpt lat="47.954221619919174" lon="13.633280964467613"><ele>491.0</ele><time>2026-05-01T12:51:00Z</time></trkpt><trkpt lat="47.95431948590175" lon="13.633708081070665"><ele>489.0</ele><time>2026-05-01T12:51:01Z</time></trkpt><trkpt lat="47.95441899305782" lon="13.634132333362912"><ele>489.5</ele><time>2026-05-01T12:51:02Z</time></trkpt><trkpt lat="47.954519280339305" lon="13.63455628980673"><ele>490.0</ele><time>2026-05-01T12:51:03Z</time></trkpt><trkpt lat="47.954617910446714" lon="13.63497935979869"><ele>490.0</ele><time>2026-05-01T12:51:04Z</time></trkpt><trkpt lat="47.95471251561471" lon="13.635401965037389"><ele>490.0</ele><time>2026-05-01T12:51:05Z</time></trkpt><trkpt lat="47.95480482155643" lon="13.635823400338884"><ele>488.5</ele><time>2026-05-01T12:51:06Z</time></trkpt><trkpt lat="47.95489643660183" lon="13.636241399977626"><ele>487.0</ele><time>2026-05-01T12:51:07Z</time></trkpt><trkpt lat="47.954990778224804" lon="13.63665769025397"><ele>486.5</ele><time>2026-05-01T12:51:08Z</time></trkpt><trkpt lat="47.95508410259242" lon="13.637078223707931"><ele>486.0</ele><time>2026-05-01T12:51:09Z</time></trkpt><trkpt lat="47.9551741458391" lon="13.637498879342807"><ele>486.0</ele><time>2026-05-01T12:51:10Z</time></trkpt><trkpt lat="47.955259793906734" lon="13.637924584850676"><ele>486.0</ele><time>2026-05-01T12:51:11Z</time></trkpt><trkpt lat="47.95534223064535" lon="13.63835044959807"><ele>486.0</ele><time>2026-05-01T12:51:12Z</time></trkpt><trkpt lat="47.95542792382459" lon="13.638776478781374"><ele>486.0</ele><time>2026-05-01T12:51:13Z</time></trkpt><trkpt lat="47.955515632111215" lon="13.639201706222476"><ele>485.0</ele><time>2026-05-01T12:51:14Z</time></trkpt><trkpt lat="47.95561006463381" lon="13.63962257033583"><ele>484.0</ele><time>2026-05-01T12:51:15Z</time></trkpt><trkpt lat="47.95570499567409" lon="13.640043253643151"><ele>484.5</ele><time>2026-05-01T12:51:16Z</time></trkpt><trkpt lat="47.955802671406275" lon="13.6404612005631"><ele>485.0</ele><time>2026-05-01T12:51:17Z</time></trkpt><trkpt lat="47.95589777961968" lon="13.640876610610313"><ele>485.5</ele><time>2026-05-01T12:51:18Z</time></trkpt><trkpt lat="47.95598968230991" lon="13.641293624307346"><ele>486.0</ele><time>2026-05-01T12:51:19Z</time></trkpt><trkpt lat="47.95607650090027" lon="13.641711082277554"><ele>486.5</ele><time>2026-05-01T12:51:20Z</time></trkpt><trkpt lat="47.95616399015812" lon="13.642129612296879"><ele>487.0</ele><time>2026-05-01T12:51:21Z</time></trkpt><trkpt lat="47.95624691386462" lon="13.642547467967558"><ele>487.0</ele><time>2026-05-01T12:51:22Z</time></trkpt><trkpt lat="47.95633164846863" lon="13.642967235078398"><ele>487.0</ele><time>2026-05-01T12:51:23Z</time></trkpt><trkpt lat="47.9564142950205" lon="13.64338855773057"><ele>486.0</ele><time>2026-05-01T12:51:24Z</time></trkpt><trkpt lat="47.956493276394156" lon="13.643810542386761"><ele>485.0</ele><time>2026-05-01T12:51:25Z</time></trkpt><trkpt lat="47.956563704008566" lon="13.644239127869435"><ele>484.0</ele><time>2026-05-01T12:51:26Z</time></trkpt><trkpt lat="47.95663348729075" lon="13.644670062950832"><ele>483.0</ele><time>2026-05-01T12:51:27Z</time></trkpt><trkpt lat="47.956693643756694" lon="13.645103116249706"><ele>482.5</ele><time>2026-05-01T12:51:28Z</time></trkpt><trkpt lat="47.956751148698096" lon="13.645540256203269"><ele>482.0</ele><time>2026-05-01T12:51:29Z</time></trkpt><trkpt lat="47.956800172596004" lon="13.64597597802976"><ele>481.5</ele><time>2026-05-01T12:51:30Z</time></trkpt><trkpt lat="47.95684378681228" lon="13.64641444558676"><ele>481.0</ele><time>2026-05-01T12:51:31Z</time></trkpt><trkpt lat="47.956880091563924" lon="13.646855280028406"><ele>481.0</ele><time>2026-05-01T12:51:32Z</time></trkpt><trkpt lat="47.95690775544393" lon="13.647297471871688"><ele>481.0</ele><time>2026-05-01T12:51:33Z</time></trkpt><trkpt lat="47.956929561770195" lon="13.647733614566455"><ele>480.5</ele><time>2026-05-01T12:51:34Z</time></trkpt><trkpt lat="47.956944386332694" lon="13.648151809935356"><ele>480.0</ele><time>2026-05-01T12:51:35Z</time></trkpt><trkpt lat="47.956950831711495" lon="13.648584868599198"><ele>480.0</ele><time>2026-05-01T12:51:36Z</time></trkpt><trkpt lat="47.95694751406072" lon="13.649024983946878"><ele>480.0</ele><time>2026-05-01T12:51:37Z</time></trkpt><trkpt lat="47.956934706461745" lon="13.649467975838686"><ele>480.0</ele><time>2026-05-01T12:51:38Z</time></trkpt><trkpt lat="47.956909862998096" lon="13.649911646054672"><ele>480.0</ele><time>2026-05-01T12:51:39Z</time></trkpt><trkpt lat="47.95687418876056" lon="13.650356893092798"><ele>479.5</ele><time>2026-05-01T12:51:40Z</time></trkpt><trkpt lat="47.95682863312544" lon="13.650800706031056"><ele>479.0</ele><time>2026-05-01T12:51:41Z</time></trkpt><trkpt lat="47.95677467481774" lon="13.65124341302882"><ele>479.0</ele><time>2026-05-01T12:51:42Z</time></trkpt><trkpt lat="47.95671135146564" lon="13.651683767700343"><ele>479.0</ele><time>2026-05-01T12:51:43Z</time></trkpt><trkpt lat="47.95663994463914" lon="13.652120107619481"><ele>479.5</ele><time>2026-05-01T12:51:44Z</time></trkpt><trkpt lat="47.95656344647218" lon="13.65255499534409"><ele>480.0</ele><time>2026-05-01T12:51:45Z</time></trkpt><trkpt lat="47.956477989323815" lon="13.652985298184468"><ele>480.0</ele><time>2026-05-01T12:51:46Z</time></trkpt><trkpt lat="47.95638323976941" lon="13.653411254289756"><ele>480.0</ele><time>2026-05-01T12:51:47Z</time></trkpt><trkpt lat="47.95627769168843" lon="13.653829671672973"><ele>479.5</ele><time>2026-05-01T12:51:48Z</time></trkpt><trkpt lat="47.95616385606205" lon="13.654244030797681"><ele>479.0</ele><time>2026-05-01T12:51:49Z</time></trkpt><trkpt lat="47.95604083291306" lon="13.65464986794079"><ele>479.0</ele><time>2026-05-01T12:51:50Z</time></trkpt><trkpt lat="47.95591189286457" lon="13.655051928057668"><ele>479.0</ele><time>2026-05-01T12:51:51Z</time></trkpt><trkpt lat="47.95577591891863" lon="13.655449133342984"><ele>479.0</ele><time>2026-05-01T12:51:52Z</time></trkpt><trkpt lat="47.955634240314396" lon="13.655840637820281"><ele>479.0</ele><time>2026-05-01T12:51:53Z</time></trkpt><trkpt lat="47.95548477541877" lon="13.656223194561168"><ele>479.0</ele><time>2026-05-01T12:51:54Z</time></trkpt><trkpt lat="47.955328516399284" lon="13.656598211260501"><ele>479.0</ele><time>2026-05-01T12:51:55Z</time></trkpt><trkpt lat="47.95516921503747" lon="13.656970843385517"><ele>479.5</ele><time>2026-05-01T12:51:56Z</time></trkpt><trkpt lat="47.95500705711564" lon="13.657342903515444"><ele>480.0</ele><time>2026-05-01T12:51:57Z</time></trkpt><trkpt lat="47.95484150922315" lon="13.657713276344362"><ele>479.5</ele><time>2026-05-01T12:51:58Z</time></trkpt><trkpt lat="47.954673369478535" lon="13.658082292364751"><ele>479.0</ele><time>2026-05-01T12:51:59Z</time></trkpt><trkpt lat="47.95450148058892" lon="13.658448711981316"><ele>479.0</ele><time>2026-05-01T12:52:00Z</time></trkpt><trkpt lat="47.95432946499736" lon="13.65881399985823"><ele>479.0</ele><time>2026-05-01T12:52:01Z</time></trkpt><trkpt lat="47.95415952746929" lon="13.659180134825831"><ele>480.0</ele><time>2026-05-01T12:52:02Z</time></trkpt><trkpt lat="47.95398805974991" lon="13.65954771451724"><ele>481.0</ele><time>2026-05-01T12:52:03Z</time></trkpt><trkpt lat="47.95381556610205" lon="13.659914860343074"><ele>481.0</ele><time>2026-05-01T12:52:04Z</time></trkpt><trkpt lat="47.95364331625111" lon="13.660280997550577"><ele>481.0</ele><time>2026-05-01T12:52:05Z</time></trkpt><trkpt lat="47.9534702490093" lon="13.660645282880077"><ele>482.0</ele><time>2026-05-01T12:52:06Z</time></trkpt><trkpt lat="47.95329871502426" lon="13.661008951554571"><ele>483.0</ele><time>2026-05-01T12:52:07Z</time></trkpt><trkpt lat="47.953129198131634" lon="13.661371989840344"><ele>484.0</ele><time>2026-05-01T12:52:08Z</time></trkpt><trkpt lat="47.95296258952133" lon="13.661731895973693"><ele>485.0</ele><time>2026-05-01T12:52:09Z</time></trkpt><trkpt lat="47.95279763341093" lon="13.662090266683315"><ele>485.0</ele><time>2026-05-01T12:52:10Z</time></trkpt><trkpt lat="47.952631721569695" lon="13.662449472573165"><ele>485.0</ele><time>2026-05-01T12:52:11Z</time></trkpt><trkpt lat="47.95246698964092" lon="13.662807631870205"><ele>485.5</ele><time>2026-05-01T12:52:12Z</time></trkpt><trkpt lat="47.952300893591946" lon="13.663163288255136"><ele>486.0</ele><time>2026-05-01T12:52:13Z</time></trkpt><trkpt lat="47.952133504544726" lon="13.66351833417903"><ele>485.5</ele><time>2026-05-01T12:52:14Z</time></trkpt><trkpt lat="47.95196783566426" lon="13.663872665822709"><ele>485.0</ele><time>2026-05-01T12:52:15Z</time></trkpt><trkpt lat="47.951801901002995" lon="13.664227450457647"><ele>485.0</ele><time>2026-05-01T12:52:16Z</time></trkpt><trkpt lat="47.951637828494796" lon="13.664585764972944"><ele>485.0</ele><time>2026-05-01T12:52:17Z</time></trkpt><trkpt lat="47.951474236850714" lon="13.664942398101411"><ele>483.5</ele><time>2026-05-01T12:52:18Z</time></trkpt><trkpt lat="47.951310463656405" lon="13.665300012830544"><ele>482.0</ele><time>2026-05-01T12:52:19Z</time></trkpt><trkpt lat="47.9511469700907" lon="13.6656612807651"><ele>482.0</ele><time>2026-05-01T12:52:20Z</time></trkpt><trkpt lat="47.95098693264557" lon="13.666020971774044"><ele>482.0</ele><time>2026-05-01T12:52:21Z</time></trkpt><trkpt lat="47.95082658718388" lon="13.666387680708112"><ele>483.0</ele><time>2026-05-01T12:52:22Z</time></trkpt><trkpt lat="47.95066860930129" lon="13.666758426484167"><ele>484.0</ele><time>2026-05-01T12:52:23Z</time></trkpt><trkpt lat="47.95051484187965" lon="13.667135191752411"><ele>484.0</ele><time>2026-05-01T12:52:24Z</time></trkpt><trkpt lat="47.95036221211919" lon="13.667514553954437"><ele>484.0</ele><time>2026-05-01T12:52:25Z</time></trkpt><trkpt lat="47.95021458000032" lon="13.667902243391413"><ele>482.5</ele><time>2026-05-01T12:52:26Z</time></trkpt><trkpt lat="47.95006982618248" lon="13.66829365852207"><ele>481.0</ele><time>2026-05-01T12:52:27Z</time></trkpt><trkpt lat="47.94993269315684" lon="13.668690623251566"><ele>481.0</ele><time>2026-05-01T12:52:28Z</time></trkpt><trkpt lat="47.94979977878215" lon="13.66909040566501"><ele>481.0</ele><time>2026-05-01T12:52:29Z</time></trkpt><trkpt lat="47.949671807327626" lon="13.669493097590419"><ele>481.0</ele><time>2026-05-01T12:52:30Z</time></trkpt><trkpt lat="47.94955227373743" lon="13.669901375425628"><ele>481.0</ele><time>2026-05-01T12:52:31Z</time></trkpt><trkpt lat="47.94943482971984" lon="13.67031138574607"><ele>481.0</ele><time>2026-05-01T12:52:32Z</time></trkpt><trkpt lat="47.94932255441533" lon="13.670725163898496"><ele>481.0</ele><time>2026-05-01T12:52:33Z</time></trkpt><trkpt lat="47.9492172837919" lon="13.671142199846404"><ele>483.0</ele><time>2026-05-01T12:52:34Z</time></trkpt><trkpt lat="47.94911715254901" lon="13.671561131574657"><ele>485.0</ele><time>2026-05-01T12:52:35Z</time></trkpt><trkpt lat="47.94902098040617" lon="13.671981023861154"><ele>485.0</ele><time>2026-05-01T12:52:36Z</time></trkpt><trkpt lat="47.94893078330784" lon="13.672404657520682"><ele>485.0</ele><time>2026-05-01T12:52:37Z</time></trkpt><trkpt lat="47.94884603288117" lon="13.67282972941745"><ele>487.5</ele><time>2026-05-01T12:52:38Z</time></trkpt><trkpt lat="47.94876571403462" lon="13.673257568283665"><ele>490.0</ele><time>2026-05-01T12:52:39Z</time></trkpt><trkpt lat="47.94869284042585" lon="13.673687882228148"><ele>493.0</ele><time>2026-05-01T12:52:40Z</time></trkpt><trkpt lat="47.948623104839356" lon="13.674120837674383"><ele>496.0</ele><time>2026-05-01T12:52:41Z</time></trkpt><trkpt lat="47.94855776568808" lon="13.67455662700137"><ele>496.5</ele><time>2026-05-01T12:52:42Z</time></trkpt><trkpt lat="47.94849468514812" lon="13.67499350766734"><ele>497.0</ele><time>2026-05-01T12:52:43Z</time></trkpt><trkpt lat="47.9484407636398" lon="13.67543562511742"><ele>497.0</ele><time>2026-05-01T12:52:44Z</time></trkpt><trkpt lat="47.948390830193894" lon="13.67587931354918"><ele>497.0</ele><time>2026-05-01T12:52:45Z</time></trkpt><trkpt lat="47.94834910604117" lon="13.676326379584799"><ele>496.0</ele><time>2026-05-01T12:52:46Z</time></trkpt><trkpt lat="47.94831464812748" lon="13.676776616803142"><ele>495.0</ele><time>2026-05-01T12:52:47Z</time></trkpt><trkpt lat="47.948285881813426" lon="13.677226823842606"><ele>495.0</ele><time>2026-05-01T12:52:48Z</time></trkpt><trkpt lat="47.948263479224764" lon="13.67767836222335"><ele>495.0</ele><time>2026-05-01T12:52:49Z</time></trkpt><trkpt lat="47.94824887390915" lon="13.67813101124445"><ele>494.5</ele><time>2026-05-01T12:52:50Z</time></trkpt><trkpt lat="47.948236604286606" lon="13.678584607945437"><ele>494.0</ele><time>2026-05-01T12:52:51Z</time></trkpt><trkpt lat="47.948227532270096" lon="13.679037706062616"><ele>492.5</ele><time>2026-05-01T12:52:52Z</time></trkpt><trkpt lat="47.94822461462891" lon="13.679489634577894"><ele>491.0</ele><time>2026-05-01T12:52:53Z</time></trkpt><trkpt lat="47.94822682982699" lon="13.679939274095446"><ele>490.5</ele><time>2026-05-01T12:52:54Z</time></trkpt><trkpt lat="47.94823115891259" lon="13.680388152305937"><ele>490.0</ele><time>2026-05-01T12:52:55Z</time></trkpt><trkpt lat="47.94824691379403" lon="13.680835555426395"><ele>490.5</ele><time>2026-05-01T12:52:56Z</time></trkpt><trkpt lat="47.948266836094064" lon="13.681282000755306"><ele>491.0</ele><time>2026-05-01T12:52:57Z</time></trkpt><trkpt lat="47.94829125224433" lon="13.68172808494738"><ele>490.5</ele><time>2026-05-01T12:52:58Z</time></trkpt><trkpt lat="47.94831888363671" lon="13.682174527308318"><ele>490.0</ele><time>2026-05-01T12:52:59Z</time></trkpt><trkpt lat="47.94835256568845" lon="13.68262206058681"><ele>485.0</ele><time>2026-05-01T12:53:00Z</time></trkpt><trkpt lat="47.94839211691837" lon="13.683070397364524"><ele>480.0</ele><time>2026-05-01T12:53:01Z</time></trkpt><trkpt lat="47.94843867628468" lon="13.683520034757269"><ele>482.0</ele><time>2026-05-01T12:53:02Z</time></trkpt><trkpt lat="47.94849160464023" lon="13.683969026461577"><ele>484.0</ele><time>2026-05-01T12:53:03Z</time></trkpt><trkpt lat="47.94855249150464" lon="13.684416168516902"><ele>484.5</ele><time>2026-05-01T12:53:04Z</time></trkpt><trkpt lat="47.9486182362792" lon="13.684862099109415"><ele>485.0</ele><time>2026-05-01T12:53:05Z</time></trkpt><trkpt lat="47.94868697506919" lon="13.685303670119563"><ele>486.0</ele><time>2026-05-01T12:53:06Z</time></trkpt><trkpt lat="47.94875634434372" lon="13.685727482334173"><ele>487.0</ele><time>2026-05-01T12:53:07Z</time></trkpt><trkpt lat="47.94882511737882" lon="13.686144910016418"><ele>488.0</ele><time>2026-05-01T12:53:08Z</time></trkpt><trkpt lat="47.94889695649789" lon="13.686576095654567"><ele>489.0</ele><time>2026-05-01T12:53:09Z</time></trkpt><trkpt lat="47.94897435155898" lon="13.687013089985339"><ele>489.0</ele><time>2026-05-01T12:53:10Z</time></trkpt><trkpt lat="47.949056429860065" lon="13.687449411875072"><ele>489.0</ele><time>2026-05-01T12:53:11Z</time></trkpt><trkpt lat="47.949144217011565" lon="13.687883392298525"><ele>485.5</ele><time>2026-05-01T12:53:12Z</time></trkpt><trkpt lat="47.94923455081632" lon="13.688315450461252"><ele>482.0</ele><time>2026-05-01T12:53:13Z</time></trkpt><trkpt lat="47.94932640504879" lon="13.68874736151927"><ele>482.5</ele><time>2026-05-01T12:53:14Z</time></trkpt><trkpt lat="47.94942218574001" lon="13.689175102626217"><ele>483.0</ele><time>2026-05-01T12:53:15Z</time></trkpt><trkpt lat="47.94951784818318" lon="13.689601294569243"><ele>483.0</ele><time>2026-05-01T12:53:16Z</time></trkpt><trkpt lat="47.94961329591197" lon="13.690026155328885"><ele>483.0</ele><time>2026-05-01T12:53:17Z</time></trkpt><trkpt lat="47.94970907999646" lon="13.690450693796256"><ele>485.5</ele><time>2026-05-01T12:53:18Z</time></trkpt><trkpt lat="47.94980589476507" lon="13.69087275798578"><ele>488.0</ele><time>2026-05-01T12:53:19Z</time></trkpt><trkpt lat="47.94990478123801" lon="13.691292852069386"><ele>489.0</ele><time>2026-05-01T12:53:20Z</time></trkpt><trkpt lat="47.95000228661237" lon="13.691713316573242"><ele>490.0</ele><time>2026-05-01T12:53:21Z</time></trkpt><trkpt lat="47.95009938066067" lon="13.692134659643047"><ele>486.5</ele><time>2026-05-01T12:53:22Z</time></trkpt><trkpt lat="47.95019669810231" lon="13.6925551175437"><ele>483.0</ele><time>2026-05-01T12:53:23Z</time></trkpt><trkpt lat="47.950294942323694" lon="13.69297388026565"><ele>483.0</ele><time>2026-05-01T12:53:24Z</time></trkpt><trkpt lat="47.95039377111925" lon="13.693392739852081"><ele>483.0</ele><time>2026-05-01T12:53:25Z</time></trkpt><trkpt lat="47.95049120759169" lon="13.693813824782586"><ele>485.5</ele><time>2026-05-01T12:53:26Z</time></trkpt><trkpt lat="47.950588450617936" lon="13.694236446984936"><ele>488.0</ele><time>2026-05-01T12:53:27Z</time></trkpt><trkpt lat="47.95068145698813" lon="13.694659775117362"><ele>490.5</ele><time>2026-05-01T12:53:28Z</time></trkpt><trkpt lat="47.95077489306707" lon="13.69508048371361"><ele>493.0</ele><time>2026-05-01T12:53:29Z</time></trkpt><trkpt lat="47.95086776988318" lon="13.695504393182533"><ele>491.5</ele><time>2026-05-01T12:53:30Z</time></trkpt><trkpt lat="47.95095221690269" lon="13.69593398621311"><ele>490.0</ele><time>2026-05-01T12:53:31Z</time></trkpt><trkpt lat="47.9510041180983" lon="13.696375743266481"><ele>490.0</ele><time>2026-05-01T12:53:32Z</time></trkpt><trkpt lat="47.95107951692541" lon="13.696809809644312"><ele>490.0</ele><time>2026-05-01T12:53:33Z</time></trkpt><trkpt lat="47.95110870034801" lon="13.697256190448389"><ele>491.5</ele><time>2026-05-01T12:53:34Z</time></trkpt><trkpt lat="47.951157485232486" lon="13.697695353814115"><ele>493.0</ele><time>2026-05-01T12:53:35Z</time></trkpt><trkpt lat="47.951176362643494" lon="13.698141985570775"><ele>493.5</ele><time>2026-05-01T12:53:36Z</time></trkpt><trkpt lat="47.951181804889224" lon="13.69859501129143"><ele>494.0</ele><time>2026-05-01T12:53:37Z</time></trkpt><trkpt lat="47.951183007786575" lon="13.699049012785315"><ele>494.5</ele><time>2026-05-01T12:53:38Z</time></trkpt><trkpt lat="47.95117805021774" lon="13.69950424769314"><ele>495.0</ele><time>2026-05-01T12:53:39Z</time></trkpt><trkpt lat="47.95116598218985" lon="13.699956494321846"><ele>495.0</ele><time>2026-05-01T12:53:40Z</time></trkpt><trkpt lat="47.95114277059004" lon="13.700405680508245"><ele>495.0</ele><time>2026-05-01T12:53:41Z</time></trkpt><trkpt lat="47.95110890279565" lon="13.700851107947306"><ele>494.5</ele><time>2026-05-01T12:53:42Z</time></trkpt><trkpt lat="47.95106697957164" lon="13.701292924965776"><ele>494.0</ele><time>2026-05-01T12:53:43Z</time></trkpt><trkpt lat="47.95102047773515" lon="13.701732367100567"><ele>494.0</ele><time>2026-05-01T12:53:44Z</time></trkpt><trkpt lat="47.95096428916569" lon="13.702166033678477"><ele>494.0</ele><time>2026-05-01T12:53:45Z</time></trkpt><trkpt lat="47.95089892004334" lon="13.702595773944973"><ele>499.5</ele><time>2026-05-01T12:53:46Z</time></trkpt><trkpt lat="47.9508249205935" lon="13.703024400186923"><ele>505.0</ele><time>2026-05-01T12:53:47Z</time></trkpt><trkpt lat="47.950748361337915" lon="13.703453044121545"><ele>503.0</ele><time>2026-05-01T12:53:48Z</time></trkpt><trkpt lat="47.95067391117536" lon="13.703884208055552"><ele>501.0</ele><time>2026-05-01T12:53:49Z</time></trkpt><trkpt lat="47.950596652953706" lon="13.704314608890552"><ele>497.5</ele><time>2026-05-01T12:53:50Z</time></trkpt><trkpt lat="47.950520261803916" lon="13.704746500491911"><ele>494.0</ele><time>2026-05-01T12:53:51Z</time></trkpt><trkpt lat="47.95044453575396" lon="13.705176101057278"><ele>494.0</ele><time>2026-05-01T12:53:52Z</time></trkpt><trkpt lat="47.95037212771024" lon="13.705604689810837"><ele>494.0</ele><time>2026-05-01T12:53:53Z</time></trkpt><trkpt lat="47.95030667041568" lon="13.70603279729949"><ele>495.5</ele><time>2026-05-01T12:53:54Z</time></trkpt><trkpt lat="47.95025122965381" lon="13.70646402467882"><ele>497.0</ele><time>2026-05-01T12:53:55Z</time></trkpt><trkpt lat="47.95020788958872" lon="13.70689663575385"><ele>497.0</ele><time>2026-05-01T12:53:56Z</time></trkpt><trkpt lat="47.95017329216089" lon="13.707333608633517"><ele>497.0</ele><time>2026-05-01T12:53:57Z</time></trkpt><trkpt lat="47.95014616889455" lon="13.707772432993105"><ele>496.5</ele><time>2026-05-01T12:53:58Z</time></trkpt><trkpt lat="47.950126818300014" lon="13.708212097819851"><ele>496.0</ele><time>2026-05-01T12:53:59Z</time></trkpt><trkpt lat="47.95011863805349" lon="13.708653324397561"><ele>494.5</ele><time>2026-05-01T12:54:00Z</time></trkpt><trkpt lat="47.950119790371744" lon="13.709092843841491"><ele>493.0</ele><time>2026-05-01T12:54:01Z</time></trkpt><trkpt lat="47.9501344597966" lon="13.709534020539182"><ele>492.5</ele><time>2026-05-01T12:54:02Z</time></trkpt><trkpt lat="47.950157176309645" lon="13.709975289831723"><ele>492.0</ele><time>2026-05-01T12:54:03Z</time></trkpt><trkpt lat="47.950184619947784" lon="13.71041569150546"><ele>494.0</ele><time>2026-05-01T12:54:04Z</time></trkpt><trkpt lat="47.9502231253666" lon="13.710857749390039"><ele>496.0</ele><time>2026-05-01T12:54:05Z</time></trkpt><trkpt lat="47.95027082330178" lon="13.711299179260074"><ele>496.0</ele><time>2026-05-01T12:54:06Z</time></trkpt><trkpt lat="47.950331154778354" lon="13.711732899363367"><ele>496.0</ele><time>2026-05-01T12:54:07Z</time></trkpt><trkpt lat="47.950401403376915" lon="13.712164914286701"><ele>497.5</ele><time>2026-05-01T12:54:08Z</time></trkpt><trkpt lat="47.950481602445706" lon="13.7125961146949"><ele>499.0</ele><time>2026-05-01T12:54:09Z</time></trkpt><trkpt lat="47.95057025677287" lon="13.713025498757593"><ele>500.0</ele><time>2026-05-01T12:54:10Z</time></trkpt><trkpt lat="47.95066640544104" lon="13.713451320336455"><ele>501.0</ele><time>2026-05-01T12:54:11Z</time></trkpt><trkpt lat="47.95076814366134" lon="13.71387457710731"><ele>503.5</ele><time>2026-05-01T12:54:12Z</time></trkpt><trkpt lat="47.950875351453305" lon="13.714294815722905"><ele>506.0</ele><time>2026-05-01T12:54:13Z</time></trkpt><trkpt lat="47.950980097976164" lon="13.714714859230378"><ele>507.5</ele><time>2026-05-01T12:54:14Z</time></trkpt><trkpt lat="47.95108313111752" lon="13.71513532766128"><ele>509.0</ele><time>2026-05-01T12:54:15Z</time></trkpt><trkpt lat="47.9511866869494" lon="13.715557288647268"><ele>509.0</ele><time>2026-05-01T12:54:16Z</time></trkpt><trkpt lat="47.95128623624155" lon="13.715981415160543"><ele>509.0</ele><time>2026-05-01T12:54:17Z</time></trkpt><trkpt lat="47.95138057673625" lon="13.71640880409342"><ele>509.0</ele><time>2026-05-01T12:54:18Z</time></trkpt><trkpt lat="47.95146912256458" lon="13.71683877757594"><ele>509.0</ele><time>2026-05-01T12:54:19Z</time></trkpt><trkpt lat="47.95155137517664" lon="13.71727047356997"><ele>510.0</ele><time>2026-05-01T12:54:20Z</time></trkpt><trkpt lat="47.95162199853008" lon="13.717705957428793"><ele>511.0</ele><time>2026-05-01T12:54:21Z</time></trkpt><trkpt lat="47.95168652620953" lon="13.718141942069419"><ele>505.5</ele><time>2026-05-01T12:54:22Z</time></trkpt><trkpt lat="47.95174871947986" lon="13.718582855307064"><ele>500.0</ele><time>2026-05-01T12:54:23Z</time></trkpt><trkpt lat="47.95180186351641" lon="13.719024245867681"><ele>502.5</ele><time>2026-05-01T12:54:24Z</time></trkpt><trkpt lat="47.95184913988399" lon="13.719467119032673"><ele>505.0</ele><time>2026-05-01T12:54:25Z</time></trkpt><trkpt lat="47.95189147357235" lon="13.719909157598524"><ele>505.0</ele><time>2026-05-01T12:54:26Z</time></trkpt><trkpt lat="47.95192927615854" lon="13.72035053291552"><ele>505.0</ele><time>2026-05-01T12:54:27Z</time></trkpt><trkpt lat="47.951969356866854" lon="13.72079061069034"><ele>503.5</ele><time>2026-05-01T12:54:28Z</time></trkpt><trkpt lat="47.95201020026753" lon="13.721232987777991"><ele>502.0</ele><time>2026-05-01T12:54:29Z</time></trkpt><trkpt lat="47.9520506582808" lon="13.721673604021175"><ele>502.0</ele><time>2026-05-01T12:54:30Z</time></trkpt><trkpt lat="47.95209794357553" lon="13.722113147958222"><ele>502.0</ele><time>2026-05-01T12:54:31Z</time></trkpt><trkpt lat="47.95215359584871" lon="13.722551434290644"><ele>504.0</ele><time>2026-05-01T12:54:32Z</time></trkpt><trkpt lat="47.95221826777099" lon="13.72298730537601"><ele>506.0</ele><time>2026-05-01T12:54:33Z</time></trkpt><trkpt lat="47.95229290055318" lon="13.72341905853464"><ele>507.5</ele><time>2026-05-01T12:54:34Z</time></trkpt><trkpt lat="47.95237483352166" lon="13.723848091017286"><ele>509.0</ele><time>2026-05-01T12:54:35Z</time></trkpt><trkpt lat="47.9524635679356" lon="13.724273840414943"><ele>505.5</ele><time>2026-05-01T12:54:36Z</time></trkpt><trkpt lat="47.9525552865462" lon="13.724696973544841"><ele>502.0</ele><time>2026-05-01T12:54:37Z</time></trkpt><trkpt lat="47.952648048774485" lon="13.725117485865288"><ele>502.0</ele><time>2026-05-01T12:54:38Z</time></trkpt><trkpt lat="47.952741980118745" lon="13.725530705482473"><ele>502.0</ele><time>2026-05-01T12:54:39Z</time></trkpt><trkpt lat="47.952843404621895" lon="13.725928615454382"><ele>503.5</ele><time>2026-05-01T12:54:40Z</time></trkpt><trkpt lat="47.95295729223195" lon="13.72631344536135"><ele>505.0</ele><time>2026-05-01T12:54:41Z</time></trkpt><trkpt lat="47.95308350776525" lon="13.72669145810979"><ele>506.0</ele><time>2026-05-01T12:54:42Z</time></trkpt><trkpt lat="47.95321474824661" lon="13.727064011037838"><ele>507.0</ele><time>2026-05-01T12:54:43Z</time></trkpt><trkpt lat="47.95335340891774" lon="13.72743162478416"><ele>505.0</ele><time>2026-05-01T12:54:44Z</time></trkpt><trkpt lat="47.95349989396371" lon="13.72779358158017"><ele>503.0</ele><time>2026-05-01T12:54:45Z</time></trkpt><trkpt lat="47.95365238789076" lon="13.728149597878424"><ele>503.0</ele><time>2026-05-01T12:54:46Z</time></trkpt><trkpt lat="47.953808695578516" lon="13.728498358327597"><ele>503.0</ele><time>2026-05-01T12:54:47Z</time></trkpt><trkpt lat="47.953969661492465" lon="13.728843824226665"><ele>504.5</ele><time>2026-05-01T12:54:48Z</time></trkpt><trkpt lat="47.9541343927435" lon="13.729184861477933"><ele>506.0</ele><time>2026-05-01T12:54:49Z</time></trkpt><trkpt lat="47.954307548831636" lon="13.729519761066046"><ele>506.0</ele><time>2026-05-01T12:54:50Z</time></trkpt><trkpt lat="47.954487755718766" lon="13.729845538473217"><ele>506.0</ele><time>2026-05-01T12:54:51Z</time></trkpt><trkpt lat="47.954673814255436" lon="13.730164514204606"><ele>506.5</ele><time>2026-05-01T12:54:52Z</time></trkpt><trkpt lat="47.954863072767594" lon="13.73047775072742"><ele>507.0</ele><time>2026-05-01T12:54:53Z</time></trkpt><trkpt lat="47.95506060527039" lon="13.730786703597698"><ele>508.5</ele><time>2026-05-01T12:54:54Z</time></trkpt><trkpt lat="47.955258826479636" lon="13.731091896254794"><ele>510.0</ele><time>2026-05-01T12:54:55Z</time></trkpt><trkpt lat="47.955455984558725" lon="13.731400047180635"><ele>510.0</ele><time>2026-05-01T12:54:56Z</time></trkpt><trkpt lat="47.95565214173875" lon="13.731708446487904"><ele>510.0</ele><time>2026-05-01T12:54:57Z</time></trkpt><trkpt lat="47.95585277272891" lon="13.732012793695928"><ele>511.0</ele><time>2026-05-01T12:54:58Z</time></trkpt><trkpt lat="47.95605737349094" lon="13.732317837543727"><ele>512.0</ele><time>2026-05-01T12:54:59Z</time></trkpt><trkpt lat="47.956262617371976" lon="13.732631203292193"><ele>510.5</ele><time>2026-05-01T12:55:00Z</time></trkpt><trkpt lat="47.956462625309705" lon="13.732955623075288"><ele>509.0</ele><time>2026-05-01T12:55:01Z</time></trkpt><trkpt lat="47.95665773893305" lon="13.733285999562622"><ele>506.5</ele><time>2026-05-01T12:55:02Z</time></trkpt><trkpt lat="47.95685009255879" lon="13.733622802701607"><ele>504.0</ele><time>2026-05-01T12:55:03Z</time></trkpt><trkpt lat="47.95703698748903" lon="13.733962772440366"><ele>504.0</ele><time>2026-05-01T12:55:04Z</time></trkpt><trkpt lat="47.95721413922143" lon="13.734303202581584"><ele>504.0</ele><time>2026-05-01T12:55:05Z</time></trkpt><trkpt lat="47.95738314948763" lon="13.734644079813332"><ele>504.0</ele><time>2026-05-01T12:55:06Z</time></trkpt><trkpt lat="47.95754498971226" lon="13.734988424673743"><ele>504.0</ele><time>2026-05-01T12:55:07Z</time></trkpt><trkpt lat="47.957703570159936" lon="13.73534766667057"><ele>504.0</ele><time>2026-05-01T12:55:08Z</time></trkpt><trkpt lat="47.95786133393028" lon="13.735713048007963"><ele>504.0</ele><time>2026-05-01T12:55:09Z</time></trkpt><trkpt lat="47.9580130586321" lon="13.736078193869803"><ele>501.5</ele><time>2026-05-01T12:55:10Z</time></trkpt><trkpt lat="47.95815462074518" lon="13.73644384880124"><ele>499.0</ele><time>2026-05-01T12:55:11Z</time></trkpt><trkpt lat="47.95828542438866" lon="13.73681388576567"><ele>499.5</ele><time>2026-05-01T12:55:12Z</time></trkpt><trkpt lat="47.95840777108336" lon="13.737191067129467"><ele>500.0</ele><time>2026-05-01T12:55:13Z</time></trkpt><trkpt lat="47.95852779620314" lon="13.737568375231914"><ele>497.5</ele><time>2026-05-01T12:55:14Z</time></trkpt><trkpt lat="47.958647916663885" lon="13.737949020092175"><ele>495.0</ele><time>2026-05-01T12:55:15Z</time></trkpt><trkpt lat="47.9587701491569" lon="13.738334522967863"><ele>493.5</ele><time>2026-05-01T12:55:16Z</time></trkpt><trkpt lat="47.95889122582503" lon="13.738723785526037"><ele>492.0</ele><time>2026-05-01T12:55:17Z</time></trkpt><trkpt lat="47.9590064085031" lon="13.739105854749885"><ele>493.5</ele><time>2026-05-01T12:55:18Z</time></trkpt><trkpt lat="47.959119215061875" lon="13.739472688087845"><ele>495.0</ele><time>2026-05-01T12:55:19Z</time></trkpt><trkpt lat="47.95923277769719" lon="13.739848378410816"><ele>490.5</ele><time>2026-05-01T12:55:20Z</time></trkpt><trkpt lat="47.959346796502544" lon="13.74022809145703"><ele>486.0</ele><time>2026-05-01T12:55:21Z</time></trkpt><trkpt lat="47.959460447143485" lon="13.740611533708456"><ele>486.0</ele><time>2026-05-01T12:55:22Z</time></trkpt><trkpt lat="47.95957588738648" lon="13.740995487672702"><ele>486.0</ele><time>2026-05-01T12:55:23Z</time></trkpt><trkpt lat="47.959694485900975" lon="13.741381800567188"><ele>485.5</ele><time>2026-05-01T12:55:24Z</time></trkpt><trkpt lat="47.95981369805765" lon="13.741770863020891"><ele>485.0</ele><time>2026-05-01T12:55:25Z</time></trkpt><trkpt lat="47.9599326002317" lon="13.742164152447971"><ele>487.0</ele><time>2026-05-01T12:55:26Z</time></trkpt><trkpt lat="47.960051938086394" lon="13.742559873989892"><ele>489.0</ele><time>2026-05-01T12:55:27Z</time></trkpt><trkpt lat="47.960171520309046" lon="13.742957027740157"><ele>491.0</ele><time>2026-05-01T12:55:28Z</time></trkpt><trkpt lat="47.960290102215424" lon="13.743355512793768"><ele>493.0</ele><time>2026-05-01T12:55:29Z</time></trkpt><trkpt lat="47.96041133982323" lon="13.743753161313101"><ele>486.0</ele><time>2026-05-01T12:55:30Z</time></trkpt><trkpt lat="47.960532804793246" lon="13.744149803091915"><ele>479.0</ele><time>2026-05-01T12:55:31Z</time></trkpt><trkpt lat="47.960651343547326" lon="13.744543881938245"><ele>469.5</ele><time>2026-05-01T12:55:32Z</time></trkpt><trkpt lat="47.96077113539963" lon="13.74494255796478"><ele>460.0</ele><time>2026-05-01T12:55:33Z</time></trkpt><trkpt lat="47.960890809634805" lon="13.745339368430319"><ele>447.5</ele><time>2026-05-01T12:55:34Z</time></trkpt><trkpt lat="47.96100819932486" lon="13.74573696431852"><ele>435.0</ele><time>2026-05-01T12:55:35Z</time></trkpt><trkpt lat="47.96112620087329" lon="13.746135135536827"><ele>434.0</ele><time>2026-05-01T12:55:36Z</time></trkpt><trkpt lat="47.961244596986475" lon="13.746535762532165"><ele>433.0</ele><time>2026-05-01T12:55:37Z</time></trkpt><trkpt lat="47.96136625567231" lon="13.746932324155802"><ele>435.0</ele><time>2026-05-01T12:55:38Z</time></trkpt><trkpt lat="47.96148723205582" lon="13.747329926186067"><ele>437.0</ele><time>2026-05-01T12:55:39Z</time></trkpt><trkpt lat="47.961607662843086" lon="13.747731276786102"><ele>452.0</ele><time>2026-05-01T12:55:40Z</time></trkpt><trkpt lat="47.96172765811332" lon="13.74813383567875"><ele>467.0</ele><time>2026-05-01T12:55:41Z</time></trkpt><trkpt lat="47.96184732225271" lon="13.748536051001887"><ele>469.5</ele><time>2026-05-01T12:55:42Z</time></trkpt><trkpt lat="47.961966843325975" lon="13.748936187925958"><ele>472.0</ele><time>2026-05-01T12:55:43Z</time></trkpt><trkpt lat="47.96208818380402" lon="13.749342737738719"><ele>473.5</ele><time>2026-05-01T12:55:44Z</time></trkpt><trkpt lat="47.96221008385967" lon="13.74975131672221"><ele>475.0</ele><time>2026-05-01T12:55:45Z</time></trkpt><trkpt lat="47.96233271155615" lon="13.750160522325103"><ele>475.0</ele><time>2026-05-01T12:55:46Z</time></trkpt><trkpt lat="47.9624542774563" lon="13.750563809809792"><ele>475.0</ele><time>2026-05-01T12:55:47Z</time></trkpt><trkpt lat="47.962575074536886" lon="13.750966376346765"><ele>474.0</ele><time>2026-05-01T12:55:48Z</time></trkpt><trkpt lat="47.962695848083634" lon="13.751372470405537"><ele>473.0</ele><time>2026-05-01T12:55:49Z</time></trkpt><trkpt lat="47.962817946207835" lon="13.751778715283525"><ele>474.5</ele><time>2026-05-01T12:55:50Z</time></trkpt><trkpt lat="47.962941317688404" lon="13.752187337412174"><ele>476.0</ele><time>2026-05-01T12:55:51Z</time></trkpt><trkpt lat="47.963066561605096" lon="13.752595248136501"><ele>476.5</ele><time>2026-05-01T12:55:52Z</time></trkpt><trkpt lat="47.96319350959383" lon="13.753004288910669"><ele>477.0</ele><time>2026-05-01T12:55:53Z</time></trkpt><trkpt lat="47.96331778065811" lon="13.75341333892975"><ele>476.5</ele><time>2026-05-01T12:55:54Z</time></trkpt><trkpt lat="47.963440876628866" lon="13.753823827349201"><ele>476.0</ele><time>2026-05-01T12:55:55Z</time></trkpt><trkpt lat="47.96356269542907" lon="13.754232236749807"><ele>477.0</ele><time>2026-05-01T12:55:56Z</time></trkpt><trkpt lat="47.9636845093778" lon="13.75462924669845"><ele>478.0</ele><time>2026-05-01T12:55:57Z</time></trkpt><trkpt lat="47.96380452340411" lon="13.75501730541992"><ele>478.0</ele><time>2026-05-01T12:55:58Z</time></trkpt><trkpt lat="47.963921104015164" lon="13.755405848523663"><ele>478.0</ele><time>2026-05-01T12:55:59Z</time></trkpt><trkpt lat="47.96403779705466" lon="13.755797493695"><ele>478.0</ele><time>2026-05-01T12:56:00Z</time></trkpt><trkpt lat="47.96415687560463" lon="13.756190094603603"><ele>478.0</ele><time>2026-05-01T12:56:01Z</time></trkpt><trkpt lat="47.964280435430496" lon="13.756582548387424"><ele>475.5</ele><time>2026-05-01T12:56:02Z</time></trkpt><trkpt lat="47.96440228976591" lon="13.756974426128453"><ele>473.0</ele><time>2026-05-01T12:56:03Z</time></trkpt><trkpt lat="47.96452929277067" lon="13.757365201896011"><ele>473.0</ele><time>2026-05-01T12:56:04Z</time></trkpt><trkpt lat="47.964659272605395" lon="13.757752793142277"><ele>473.0</ele><time>2026-05-01T12:56:05Z</time></trkpt><trkpt lat="47.964793090182376" lon="13.758137767873771"><ele>473.0</ele><time>2026-05-01T12:56:06Z</time></trkpt><trkpt lat="47.96493172071499" lon="13.758517236466997"><ele>473.0</ele><time>2026-05-01T12:56:07Z</time></trkpt><trkpt lat="47.965074208698006" lon="13.75889377244263"><ele>473.0</ele><time>2026-05-01T12:56:08Z</time></trkpt><trkpt lat="47.96522235364267" lon="13.759265090795692"><ele>473.0</ele><time>2026-05-01T12:56:09Z</time></trkpt><trkpt lat="47.96537430515164" lon="13.75963336120155"><ele>473.0</ele><time>2026-05-01T12:56:10Z</time></trkpt><trkpt lat="47.965532926187734" lon="13.759996849372191"><ele>473.0</ele><time>2026-05-01T12:56:11Z</time></trkpt><trkpt lat="47.96569768901806" lon="13.760357408150039"><ele>473.0</ele><time>2026-05-01T12:56:12Z</time></trkpt><trkpt lat="47.9658679627209" lon="13.76071168312356"><ele>473.0</ele><time>2026-05-01T12:56:13Z</time></trkpt><trkpt lat="47.96604484712522" lon="13.761063055994772"><ele>473.5</ele><time>2026-05-01T12:56:14Z</time></trkpt><trkpt lat="47.966225963624375" lon="13.761409190837263"><ele>474.0</ele><time>2026-05-01T12:56:15Z</time></trkpt><trkpt lat="47.96641578304655" lon="13.761750316700889"><ele>474.0</ele><time>2026-05-01T12:56:16Z</time></trkpt><trkpt lat="47.96661166593234" lon="13.762087261194385"><ele>474.0</ele><time>2026-05-01T12:56:17Z</time></trkpt><trkpt lat="47.96681272195235" lon="13.762416503347746"><ele>473.5</ele><time>2026-05-01T12:56:18Z</time></trkpt><trkpt lat="47.967021216385525" lon="13.762741068339498"><ele>473.0</ele><time>2026-05-01T12:56:19Z</time></trkpt><trkpt lat="47.96723336945294" lon="13.763059796787152"><ele>473.0</ele><time>2026-05-01T12:56:20Z</time></trkpt><trkpt lat="47.9674524724574" lon="13.763370053580855"><ele>473.0</ele><time>2026-05-01T12:56:21Z</time></trkpt><trkpt lat="47.967677025120786" lon="13.763672859910269"><ele>472.0</ele><time>2026-05-01T12:56:22Z</time></trkpt><trkpt lat="47.96790138862705" lon="13.763975545295832"><ele>471.0</ele><time>2026-05-01T12:56:23Z</time></trkpt><trkpt lat="47.968134180590646" lon="13.764266962350533"><ele>472.0</ele><time>2026-05-01T12:56:24Z</time></trkpt><trkpt lat="47.968370711323914" lon="13.764548272012867"><ele>473.0</ele><time>2026-05-01T12:56:25Z</time></trkpt><trkpt lat="47.968611747535334" lon="13.764818623980728"><ele>473.0</ele><time>2026-05-01T12:56:26Z</time></trkpt><trkpt lat="47.96886104400803" lon="13.765078572228507"><ele>473.0</ele><time>2026-05-01T12:56:27Z</time></trkpt><trkpt lat="47.969114203589314" lon="13.765331309471394"><ele>475.0</ele><time>2026-05-01T12:56:28Z</time></trkpt><trkpt lat="47.96937023236896" lon="13.765575807824868"><ele>477.0</ele><time>2026-05-01T12:56:29Z</time></trkpt><trkpt lat="47.96962947495281" lon="13.765814948999727"><ele>478.0</ele><time>2026-05-01T12:56:30Z</time></trkpt><trkpt lat="47.96989166211795" lon="13.766050464320417"><ele>479.0</ele><time>2026-05-01T12:56:31Z</time></trkpt><trkpt lat="47.97015884279762" lon="13.76627747037703"><ele>477.0</ele><time>2026-05-01T12:56:32Z</time></trkpt><trkpt lat="47.97042935494354" lon="13.766497322089288"><ele>475.0</ele><time>2026-05-01T12:56:33Z</time></trkpt><trkpt lat="47.970702207296576" lon="13.76670572936447"><ele>473.0</ele><time>2026-05-01T12:56:34Z</time></trkpt><trkpt lat="47.9709781554576" lon="13.766909141134953"><ele>471.0</ele><time>2026-05-01T12:56:35Z</time></trkpt><trkpt lat="47.97125539867326" lon="13.767111863039093"><ele>471.0</ele><time>2026-05-01T12:56:36Z</time></trkpt><trkpt lat="47.971531206900366" lon="13.767314690588004"><ele>471.0</ele><time>2026-05-01T12:56:37Z</time></trkpt><trkpt lat="47.971804874142784" lon="13.76751307676299"><ele>469.0</ele><time>2026-05-01T12:56:38Z</time></trkpt><trkpt lat="47.97207841595846" lon="13.76770759774077"><ele>467.0</ele><time>2026-05-01T12:56:39Z</time></trkpt><trkpt lat="47.97235171287357" lon="13.76789871122691"><ele>467.0</ele><time>2026-05-01T12:56:40Z</time></trkpt><trkpt lat="47.972622217267855" lon="13.768090594934131"><ele>467.0</ele><time>2026-05-01T12:56:41Z</time></trkpt><trkpt lat="47.97289237022199" lon="13.768280024432022"><ele>467.0</ele><time>2026-05-01T12:56:42Z</time></trkpt><trkpt lat="47.97316480688195" lon="13.768468551807292"><ele>467.0</ele><time>2026-05-01T12:56:43Z</time></trkpt><trkpt lat="47.97343704414179" lon="13.768656794787962"><ele>466.0</ele><time>2026-05-01T12:56:44Z</time></trkpt><trkpt lat="47.97370875685334" lon="13.768847656059137"><ele>465.0</ele><time>2026-05-01T12:56:45Z</time></trkpt><trkpt lat="47.973979613096354" lon="13.76904034161782"><ele>464.5</ele><time>2026-05-01T12:56:46Z</time></trkpt><trkpt lat="47.9742503864627" lon="13.769229906084215"><ele>464.0</ele><time>2026-05-01T12:56:47Z</time></trkpt><trkpt lat="47.974520753673836" lon="13.76941732154849"><ele>463.5</ele><time>2026-05-01T12:56:48Z</time></trkpt><trkpt lat="47.97479034164316" lon="13.769603884681475"><ele>463.0</ele><time>2026-05-01T12:56:49Z</time></trkpt><trkpt lat="47.97506028325517" lon="13.769790352842856"><ele>463.0</ele><time>2026-05-01T12:56:50Z</time></trkpt><trkpt lat="47.97533094230372" lon="13.769976357009119"><ele>463.0</ele><time>2026-05-01T12:56:51Z</time></trkpt><trkpt lat="47.97560184430923" lon="13.770161912336256"><ele>463.0</ele><time>2026-05-01T12:56:52Z</time></trkpt><trkpt lat="47.97587220058681" lon="13.77035042141152"><ele>463.0</ele><time>2026-05-01T12:56:53Z</time></trkpt><trkpt lat="47.976140955281146" lon="13.770539665490675"><ele>463.0</ele><time>2026-05-01T12:56:54Z</time></trkpt><trkpt lat="47.976408902916546" lon="13.770728837938515"><ele>463.0</ele><time>2026-05-01T12:56:55Z</time></trkpt><trkpt lat="47.97667811502395" lon="13.770916894496615"><ele>461.5</ele><time>2026-05-01T12:56:56Z</time></trkpt><trkpt lat="47.97694616605112" lon="13.771104870372767"><ele>460.0</ele><time>2026-05-01T12:56:57Z</time></trkpt><trkpt lat="47.97721337092362" lon="13.771284303231022"><ele>460.0</ele><time>2026-05-01T12:56:58Z</time></trkpt><trkpt lat="47.977484708211506" lon="13.771466923943988"><ele>460.0</ele><time>2026-05-01T12:56:59Z</time></trkpt><trkpt lat="47.977756478985974" lon="13.77165053810424"><ele>459.5</ele><time>2026-05-01T12:57:00Z</time></trkpt><trkpt lat="47.978027800094026" lon="13.771838267248208"><ele>459.0</ele><time>2026-05-01T12:57:01Z</time></trkpt><trkpt lat="47.978300663479466" lon="13.772029166514553"><ele>459.0</ele><time>2026-05-01T12:57:02Z</time></trkpt><trkpt lat="47.97857376861205" lon="13.772215237654539"><ele>459.0</ele><time>2026-05-01T12:57:03Z</time></trkpt><trkpt lat="47.97884563270114" lon="13.77240320920364"><ele>459.0</ele><time>2026-05-01T12:57:04Z</time></trkpt><trkpt lat="47.97911741296441" lon="13.772595386464689"><ele>459.0</ele><time>2026-05-01T12:57:05Z</time></trkpt><trkpt lat="47.979388316248624" lon="13.772787924859358"><ele>458.0</ele><time>2026-05-01T12:57:06Z</time></trkpt><trkpt lat="47.979660668370734" lon="13.772975216276432"><ele>457.0</ele><time>2026-05-01T12:57:07Z</time></trkpt><trkpt lat="47.9799340919453" lon="13.773160317514005"><ele>457.0</ele><time>2026-05-01T12:57:08Z</time></trkpt><trkpt lat="47.980207015552566" lon="13.773344373444893"><ele>457.0</ele><time>2026-05-01T12:57:09Z</time></trkpt><trkpt lat="47.98047927525652" lon="13.773532281451772"><ele>456.0</ele><time>2026-05-01T12:57:10Z</time></trkpt><trkpt lat="47.98075064253974" lon="13.773726149884535"><ele>455.0</ele><time>2026-05-01T12:57:11Z</time></trkpt><trkpt lat="47.98102151645351" lon="13.773921706104987"><ele>455.0</ele><time>2026-05-01T12:57:12Z</time></trkpt><trkpt lat="47.98129553625709" lon="13.774114271910763"><ele>455.0</ele><time>2026-05-01T12:57:13Z</time></trkpt><trkpt lat="47.98156996797681" lon="13.774301409042232"><ele>454.0</ele><time>2026-05-01T12:57:14Z</time></trkpt><trkpt lat="47.98184317923205" lon="13.774488556468773"><ele>453.0</ele><time>2026-05-01T12:57:15Z</time></trkpt><trkpt lat="47.98211461706681" lon="13.77468055927782"><ele>453.0</ele><time>2026-05-01T12:57:16Z</time></trkpt><trkpt lat="47.982386839177536" lon="13.774873194077392"><ele>453.0</ele><time>2026-05-01T12:57:17Z</time></trkpt><trkpt lat="47.98266035660704" lon="13.77506694192584"><ele>451.5</ele><time>2026-05-01T12:57:18Z</time></trkpt><trkpt lat="47.98293439164966" lon="13.775257983030269"><ele>450.0</ele><time>2026-05-01T12:57:19Z</time></trkpt><trkpt lat="47.98320972813757" lon="13.775446590262487"><ele>450.5</ele><time>2026-05-01T12:57:20Z</time></trkpt><trkpt lat="47.98348479545956" lon="13.775636448191962"><ele>451.0</ele><time>2026-05-01T12:57:21Z</time></trkpt><trkpt lat="47.98376093510217" lon="13.775827418729868"><ele>451.0</ele><time>2026-05-01T12:57:22Z</time></trkpt><trkpt lat="47.98403767256094" lon="13.776019643672546"><ele>451.0</ele><time>2026-05-01T12:57:23Z</time></trkpt><trkpt lat="47.9843148184815" lon="13.77621419274507"><ele>452.0</ele><time>2026-05-01T12:57:24Z</time></trkpt><trkpt lat="47.98459103187991" lon="13.77641355497881"><ele>453.0</ele><time>2026-05-01T12:57:25Z</time></trkpt><trkpt lat="47.98486720306447" lon="13.776615683689753"><ele>453.0</ele><time>2026-05-01T12:57:26Z</time></trkpt><trkpt lat="47.98514257786706" lon="13.776824380377462"><ele>453.0</ele><time>2026-05-01T12:57:27Z</time></trkpt><trkpt lat="47.98541634139284" lon="13.777030302418703"><ele>453.0</ele><time>2026-05-01T12:57:28Z</time></trkpt><trkpt lat="47.98568971056137" lon="13.777232745770522"><ele>453.0</ele><time>2026-05-01T12:57:29Z</time></trkpt><trkpt lat="47.985959860109524" lon="13.77744567960594"><ele>453.5</ele><time>2026-05-01T12:57:30Z</time></trkpt><trkpt lat="47.986227321181396" lon="13.777661532374928"><ele>454.0</ele><time>2026-05-01T12:57:31Z</time></trkpt><trkpt lat="47.986491020424424" lon="13.777880375424186"><ele>451.0</ele><time>2026-05-01T12:57:32Z</time></trkpt><trkpt lat="47.986752014818975" lon="13.778105954448355"><ele>448.0</ele><time>2026-05-01T12:57:33Z</time></trkpt><trkpt lat="47.987011110682396" lon="13.778337409808584"><ele>451.5</ele><time>2026-05-01T12:57:34Z</time></trkpt><trkpt lat="47.987265629251844" lon="13.778578957714235"><ele>455.0</ele><time>2026-05-01T12:57:35Z</time></trkpt><trkpt lat="47.98752005454923" lon="13.778827097289746"><ele>455.0</ele><time>2026-05-01T12:57:36Z</time></trkpt><trkpt lat="47.98777579360605" lon="13.779076691198833"><ele>455.0</ele><time>2026-05-01T12:57:37Z</time></trkpt><trkpt lat="47.98803008276034" lon="13.779331049375541"><ele>454.5</ele><time>2026-05-01T12:57:38Z</time></trkpt><trkpt lat="47.98828273371071" lon="13.779593259801034"><ele>454.0</ele><time>2026-05-01T12:57:39Z</time></trkpt><trkpt lat="47.98853216762858" lon="13.779862587860134"><ele>453.5</ele><time>2026-05-01T12:57:40Z</time></trkpt><trkpt lat="47.988777062096425" lon="13.78013348438245"><ele>453.0</ele><time>2026-05-01T12:57:41Z</time></trkpt><trkpt lat="47.989010815410644" lon="13.780394632806797"><ele>452.5</ele><time>2026-05-01T12:57:42Z</time></trkpt><trkpt lat="47.98923982254008" lon="13.780660081209616"><ele>452.0</ele><time>2026-05-01T12:57:43Z</time></trkpt><trkpt lat="47.989472039801754" lon="13.780936695220435"><ele>446.0</ele><time>2026-05-01T12:57:44Z</time></trkpt><trkpt lat="47.98970059435445" lon="13.781225243337126"><ele>440.0</ele><time>2026-05-01T12:57:45Z</time></trkpt><trkpt lat="47.9899280321548" lon="13.78152066489778"><ele>438.0</ele><time>2026-05-01T12:57:46Z</time></trkpt><trkpt lat="47.99015655035278" lon="13.78181798616328"><ele>436.0</ele><time>2026-05-01T12:57:47Z</time></trkpt><trkpt lat="47.990382569474974" lon="13.782119651563029"><ele>436.0</ele><time>2026-05-01T12:57:48Z</time></trkpt><trkpt lat="47.9906073571302" lon="13.782430132313914"><ele>436.0</ele><time>2026-05-01T12:57:49Z</time></trkpt><trkpt lat="47.990827001231324" lon="13.782746130782398"><ele>434.0</ele><time>2026-05-01T12:57:50Z</time></trkpt><trkpt lat="47.991044647297194" lon="13.783062724029348"><ele>432.0</ele><time>2026-05-01T12:57:51Z</time></trkpt><trkpt lat="47.99125892926024" lon="13.783383840060429"><ele>428.0</ele><time>2026-05-01T12:57:52Z</time></trkpt><trkpt lat="47.991472481108666" lon="13.783707243500748"><ele>424.0</ele><time>2026-05-01T12:57:53Z</time></trkpt><trkpt lat="47.991679961687296" lon="13.784036095445149"><ele>424.0</ele><time>2026-05-01T12:57:54Z</time></trkpt><trkpt lat="47.991883332944155" lon="13.784368469136774"><ele>424.0</ele><time>2026-05-01T12:57:55Z</time></trkpt><trkpt lat="47.99208412111435" lon="13.784702306100167"><ele>424.0</ele><time>2026-05-01T12:57:56Z</time></trkpt><trkpt lat="47.99228192510134" lon="13.785037680313213"><ele>424.0</ele><time>2026-05-01T12:57:57Z</time></trkpt><trkpt lat="47.99247318891867" lon="13.785376429817086"><ele>426.0</ele><time>2026-05-01T12:57:58Z</time></trkpt><trkpt lat="47.99266153332763" lon="13.78571254267128"><ele>428.0</ele><time>2026-05-01T12:57:59Z</time></trkpt><trkpt lat="47.99284598995324" lon="13.786052089373063"><ele>428.0</ele><time>2026-05-01T12:58:00Z</time></trkpt><trkpt lat="47.99302642220031" lon="13.786390737583915"><ele>428.0</ele><time>2026-05-01T12:58:01Z</time></trkpt><trkpt lat="47.993203857572794" lon="13.786735429445715"><ele>430.0</ele><time>2026-05-01T12:58:02Z</time></trkpt><trkpt lat="47.99337692686427" lon="13.787085729001262"><ele>432.0</ele><time>2026-05-01T12:58:03Z</time></trkpt><trkpt lat="47.99354887552043" lon="13.787438438900725"><ele>429.0</ele><time>2026-05-01T12:58:04Z</time></trkpt><trkpt lat="47.993717678631654" lon="13.787792885522114"><ele>426.0</ele><time>2026-05-01T12:58:05Z</time></trkpt><trkpt lat="47.993883886454476" lon="13.788150504050082"><ele>426.0</ele><time>2026-05-01T12:58:06Z</time></trkpt><trkpt lat="47.99404589860007" lon="13.78851522206704"><ele>426.0</ele><time>2026-05-01T12:58:07Z</time></trkpt><trkpt lat="47.994210817157715" lon="13.788874889491687"><ele>426.0</ele><time>2026-05-01T12:58:08Z</time></trkpt><trkpt lat="47.99437588736658" lon="13.789238656281432"><ele>426.0</ele><time>2026-05-01T12:58:09Z</time></trkpt><trkpt lat="47.99453688585911" lon="13.789601125324388"><ele>426.0</ele><time>2026-05-01T12:58:10Z</time></trkpt><trkpt lat="47.99469375944974" lon="13.789970059000042"><ele>426.0</ele><time>2026-05-01T12:58:11Z</time></trkpt><trkpt lat="47.994850946475026" lon="13.790337639503496"><ele>424.5</ele><time>2026-05-01T12:58:12Z</time></trkpt><trkpt lat="47.99500757056303" lon="13.790703702328575"><ele>423.0</ele><time>2026-05-01T12:58:13Z</time></trkpt><trkpt lat="47.995165303215515" lon="13.791068052785057"><ele>423.0</ele><time>2026-05-01T12:58:14Z</time></trkpt><trkpt lat="47.99532426226634" lon="13.791426700905243"><ele>423.0</ele><time>2026-05-01T12:58:15Z</time></trkpt><trkpt lat="47.995481683048965" lon="13.791788850817147"><ele>425.0</ele><time>2026-05-01T12:58:16Z</time></trkpt><trkpt lat="47.99563766353741" lon="13.792154279303563"><ele>427.0</ele><time>2026-05-01T12:58:17Z</time></trkpt><trkpt lat="47.99579601064964" lon="13.792518216109523"><ele>423.5</ele><time>2026-05-01T12:58:18Z</time></trkpt><trkpt lat="47.995954539464904" lon="13.792882996243195"><ele>420.0</ele><time>2026-05-01T12:58:19Z</time></trkpt><trkpt lat="47.99611267472352" lon="13.793248672644479"><ele>417.0</ele><time>2026-05-01T12:58:20Z</time></trkpt><trkpt lat="47.996271444140824" lon="13.793614571291426"><ele>414.0</ele><time>2026-05-01T12:58:21Z</time></trkpt><trkpt lat="47.99642905849393" lon="13.793978802588896"><ele>409.0</ele><time>2026-05-01T12:58:22Z</time></trkpt><trkpt lat="47.99658813568651" lon="13.794341598468325"><ele>404.0</ele><time>2026-05-01T12:58:23Z</time></trkpt><trkpt lat="47.99674788118713" lon="13.794706110662721"><ele>403.5</ele><time>2026-05-01T12:58:24Z</time></trkpt><trkpt lat="47.99690716365734" lon="13.795069962078092"><ele>403.0</ele><time>2026-05-01T12:58:25Z</time></trkpt><trkpt lat="47.997066590093766" lon="13.795437052679894"><ele>408.5</ele><time>2026-05-01T12:58:26Z</time></trkpt><trkpt lat="47.997225221155226" lon="13.795804561069827"><ele>414.0</ele><time>2026-05-01T12:58:27Z</time></trkpt><trkpt lat="47.99738486922746" lon="13.79617212835995"><ele>418.5</ele><time>2026-05-01T12:58:28Z</time></trkpt><trkpt lat="47.99754328923515" lon="13.79654136882999"><ele>423.0</ele><time>2026-05-01T12:58:29Z</time></trkpt><trkpt lat="47.99770161775882" lon="13.796911306009866"><ele>424.5</ele><time>2026-05-01T12:58:30Z</time></trkpt><trkpt lat="47.99785968690329" lon="13.797280307858195"><ele>426.0</ele><time>2026-05-01T12:58:31Z</time></trkpt><trkpt lat="47.99801956762116" lon="13.797648774077045"><ele>426.5</ele><time>2026-05-01T12:58:32Z</time></trkpt><trkpt lat="47.99818019233423" lon="13.798016619182304"><ele>427.0</ele><time>2026-05-01T12:58:33Z</time></trkpt><trkpt lat="47.99834015084531" lon="13.79838468439725"><ele>426.5</ele><time>2026-05-01T12:58:34Z</time></trkpt><trkpt lat="47.99850075554601" lon="13.798753881251349"><ele>426.0</ele><time>2026-05-01T12:58:35Z</time></trkpt><trkpt lat="47.99866018388819" lon="13.79912422023473"><ele>428.0</ele><time>2026-05-01T12:58:36Z</time></trkpt><trkpt lat="47.99881786994943" lon="13.79949325173202"><ele>430.0</ele><time>2026-05-01T12:58:37Z</time></trkpt><trkpt lat="47.99897696328816" lon="13.799862553477409"><ele>430.5</ele><time>2026-05-01T12:58:38Z</time></trkpt><trkpt lat="47.999132888138526" lon="13.800232948453154"><ele>431.0</ele><time>2026-05-01T12:58:39Z</time></trkpt><trkpt lat="47.99928650370172" lon="13.800607590491518"><ele>431.0</ele><time>2026-05-01T12:58:40Z</time></trkpt><trkpt lat="47.99943907395271" lon="13.80098384512028"><ele>431.0</ele><time>2026-05-01T12:58:41Z</time></trkpt><trkpt lat="47.99958762109535" lon="13.80136071961134"><ele>431.0</ele><time>2026-05-01T12:58:42Z</time></trkpt><trkpt lat="47.99973383471224" lon="13.801739559440387"><ele>431.0</ele><time>2026-05-01T12:58:43Z</time></trkpt><trkpt lat="47.999875797567945" lon="13.802122531906145"><ele>431.5</ele><time>2026-05-01T12:58:44Z</time></trkpt><trkpt lat="48.000012466689256" lon="13.802509533740968"><ele>432.0</ele><time>2026-05-01T12:58:45Z</time></trkpt><trkpt lat="48.00014794147649" lon="13.802897907600697"><ele>432.0</ele><time>2026-05-01T12:58:46Z</time></trkpt><trkpt lat="48.00027996382668" lon="13.803292104962047"><ele>432.0</ele><time>2026-05-01T12:58:47Z</time></trkpt><trkpt lat="48.000409159456396" lon="13.803687280052406"><ele>433.0</ele><time>2026-05-01T12:58:48Z</time></trkpt><trkpt lat="48.000532555756" lon="13.80408879810744"><ele>434.0</ele><time>2026-05-01T12:58:49Z</time></trkpt><trkpt lat="48.000648845637556" lon="13.804497383584174"><ele>434.0</ele><time>2026-05-01T12:58:50Z</time></trkpt><trkpt lat="48.0007631324885" lon="13.80491533862454"><ele>434.0</ele><time>2026-05-01T12:58:51Z</time></trkpt><trkpt lat="48.00087414991014" lon="13.805336751725669"><ele>434.0</ele><time>2026-05-01T12:58:52Z</time></trkpt><trkpt lat="48.000981582991" lon="13.80576295511618"><ele>434.0</ele><time>2026-05-01T12:58:53Z</time></trkpt><trkpt lat="48.00108321192137" lon="13.806190280444268"><ele>435.0</ele><time>2026-05-01T12:58:54Z</time></trkpt><trkpt lat="48.00118009533454" lon="13.806621782087717"><ele>436.0</ele><time>2026-05-01T12:58:55Z</time></trkpt><trkpt lat="48.00126872875345" lon="13.807052357487443"><ele>438.0</ele><time>2026-05-01T12:58:56Z</time></trkpt><trkpt lat="48.00135214244454" lon="13.807483705128567"><ele>440.0</ele><time>2026-05-01T12:58:57Z</time></trkpt><trkpt lat="48.0014355179366" lon="13.807912495029525"><ele>440.5</ele><time>2026-05-01T12:58:58Z</time></trkpt><trkpt lat="48.00151331572638" lon="13.808337636725302"><ele>441.0</ele><time>2026-05-01T12:58:59Z</time></trkpt><trkpt lat="48.0015874523891" lon="13.80876303939606"><ele>441.0</ele><time>2026-05-01T12:59:00Z</time></trkpt><trkpt lat="48.00165187890959" lon="13.809190254110597"><ele>441.0</ele><time>2026-05-01T12:59:01Z</time></trkpt><trkpt lat="48.00170904245476" lon="13.809615960421137"><ele>440.0</ele><time>2026-05-01T12:59:02Z</time></trkpt><trkpt lat="48.00176296582412" lon="13.810044474876083"><ele>439.0</ele><time>2026-05-01T12:59:03Z</time></trkpt><trkpt lat="48.001816811679056" lon="13.810473834382014"><ele>438.5</ele><time>2026-05-01T12:59:04Z</time></trkpt><trkpt lat="48.00186669442309" lon="13.81090488645866"><ele>438.0</ele><time>2026-05-01T12:59:05Z</time></trkpt><trkpt lat="48.00191829321847" lon="13.81133557142496"><ele>438.0</ele><time>2026-05-01T12:59:06Z</time></trkpt><trkpt lat="48.00196848893463" lon="13.811767189381216"><ele>438.0</ele><time>2026-05-01T12:59:07Z</time></trkpt><trkpt lat="48.00201672106092" lon="13.812199714414831"><ele>438.0</ele><time>2026-05-01T12:59:08Z</time></trkpt><trkpt lat="48.00206327046261" lon="13.812633475373152"><ele>438.0</ele><time>2026-05-01T12:59:09Z</time></trkpt><trkpt lat="48.00211123127538" lon="13.813069563011144"><ele>439.0</ele><time>2026-05-01T12:59:10Z</time></trkpt><trkpt lat="48.00216105591868" lon="13.81350684337149"><ele>440.0</ele><time>2026-05-01T12:59:11Z</time></trkpt><trkpt lat="48.00221230190031" lon="13.813943209381877"><ele>442.0</ele><time>2026-05-01T12:59:12Z</time></trkpt><trkpt lat="48.00226380924123" lon="13.814380087539178"><ele>444.0</ele><time>2026-05-01T12:59:13Z</time></trkpt><trkpt lat="48.002315636095126" lon="13.814817794865421"><ele>445.0</ele><time>2026-05-01T12:59:14Z</time></trkpt><trkpt lat="48.00236483586636" lon="13.81525745707033"><ele>446.0</ele><time>2026-05-01T12:59:15Z</time></trkpt><trkpt lat="48.00241303269618" lon="13.815702690248385"><ele>447.0</ele><time>2026-05-01T12:59:16Z</time></trkpt><trkpt lat="48.00246231587122" lon="13.816150109783454"><ele>448.0</ele><time>2026-05-01T12:59:17Z</time></trkpt><trkpt lat="48.00251169954152" lon="13.81659811503626"><ele>448.0</ele><time>2026-05-01T12:59:18Z</time></trkpt><trkpt lat="48.00256158090426" lon="13.81704628534013"><ele>448.0</ele><time>2026-05-01T12:59:19Z</time></trkpt><trkpt lat="48.00261382281854" lon="13.81749503728181"><ele>446.5</ele><time>2026-05-01T12:59:20Z</time></trkpt><trkpt lat="48.002667167350445" lon="13.817940733661548"><ele>445.0</ele><time>2026-05-01T12:59:21Z</time></trkpt><trkpt lat="48.00271983337593" lon="13.81838540159483"><ele>444.5</ele><time>2026-05-01T12:59:22Z</time></trkpt><trkpt lat="48.00277100108005" lon="13.818828944288706"><ele>444.0</ele><time>2026-05-01T12:59:23Z</time></trkpt><trkpt lat="48.00281961587259" lon="13.819274480616878"><ele>443.0</ele><time>2026-05-01T12:59:24Z</time></trkpt><trkpt lat="48.00286900466821" lon="13.81972187509187"><ele>442.0</ele><time>2026-05-01T12:59:25Z</time></trkpt><trkpt lat="48.00291690313711" lon="13.820171353063369"><ele>442.0</ele><time>2026-05-01T12:59:26Z</time></trkpt><trkpt lat="48.0029661605713" lon="13.820624212565518"><ele>442.0</ele><time>2026-05-01T12:59:27Z</time></trkpt><trkpt lat="48.00301575715974" lon="13.821078490626176"><ele>442.0</ele><time>2026-05-01T12:59:28Z</time></trkpt><trkpt lat="48.003066680509384" lon="13.821532454780963"><ele>442.0</ele><time>2026-05-01T12:59:29Z</time></trkpt><trkpt lat="48.003117618877994" lon="13.82198643835161"><ele>442.0</ele><time>2026-05-01T12:59:30Z</time></trkpt><trkpt lat="48.00316798643613" lon="13.82243699741022"><ele>442.0</ele><time>2026-05-01T12:59:31Z</time></trkpt><trkpt lat="48.00321983761691" lon="13.8228863134589"><ele>442.0</ele><time>2026-05-01T12:59:32Z</time></trkpt><trkpt lat="48.00327226649346" lon="13.823334775489277"><ele>442.0</ele><time>2026-05-01T12:59:33Z</time></trkpt><trkpt lat="48.003323450126786" lon="13.823783966181269"><ele>444.0</ele><time>2026-05-01T12:59:34Z</time></trkpt><trkpt lat="48.00337534360182" lon="13.824233609841022"><ele>446.0</ele><time>2026-05-01T12:59:35Z</time></trkpt><trkpt lat="48.00342620389605" lon="13.824683855435357"><ele>446.5</ele><time>2026-05-01T12:59:36Z</time></trkpt><trkpt lat="48.0034750068591" lon="13.825133161433122"><ele>447.0</ele><time>2026-05-01T12:59:37Z</time></trkpt><trkpt lat="48.00352363173796" lon="13.825583964304766"><ele>447.5</ele><time>2026-05-01T12:59:38Z</time></trkpt><trkpt lat="48.003575571683534" lon="13.82603466478518"><ele>448.0</ele><time>2026-05-01T12:59:39Z</time></trkpt><trkpt lat="48.00362863299805" lon="13.826487622355884"><ele>446.0</ele><time>2026-05-01T12:59:40Z</time></trkpt><trkpt lat="48.0036818410658" lon="13.82694194884747"><ele>444.0</ele><time>2026-05-01T12:59:41Z</time></trkpt><trkpt lat="48.00372988368433" lon="13.827399054431133"><ele>443.0</ele><time>2026-05-01T12:59:42Z</time></trkpt><trkpt lat="48.00377750569274" lon="13.827856310239824"><ele>442.0</ele><time>2026-05-01T12:59:43Z</time></trkpt><trkpt lat="48.00382699077131" lon="13.828312069953412"><ele>442.5</ele><time>2026-05-01T12:59:44Z</time></trkpt><trkpt lat="48.003875941204406" lon="13.828762284076468"><ele>443.0</ele><time>2026-05-01T12:59:45Z</time></trkpt><trkpt lat="48.00392332904412" lon="13.829191500276321"><ele>445.0</ele><time>2026-05-01T12:59:46Z</time></trkpt><trkpt lat="48.00397466114976" lon="13.829632625100924"><ele>447.0</ele><time>2026-05-01T12:59:47Z</time></trkpt><trkpt lat="48.004026076656984" lon="13.830088002886873"><ele>451.0</ele><time>2026-05-01T12:59:48Z</time></trkpt><trkpt lat="48.00407926058547" lon="13.83054541659832"><ele>455.0</ele><time>2026-05-01T12:59:49Z</time></trkpt><trkpt lat="48.00413028282004" lon="13.831004337110409"><ele>455.0</ele><time>2026-05-01T12:59:50Z</time></trkpt><trkpt lat="48.00418042012867" lon="13.831463937749048"><ele>455.0</ele><time>2026-05-01T12:59:51Z</time></trkpt><trkpt lat="48.004226999778375" lon="13.83192114855027"><ele>455.0</ele><time>2026-05-01T12:59:52Z</time></trkpt><trkpt lat="48.00427480190986" lon="13.832376985889299"><ele>455.0</ele><time>2026-05-01T12:59:53Z</time></trkpt><trkpt lat="48.00432127818136" lon="13.83282958447317"><ele>454.0</ele><time>2026-05-01T12:59:54Z</time></trkpt><trkpt lat="48.00436308132706" lon="13.833279381931836"><ele>453.0</ele><time>2026-05-01T12:59:55Z</time></trkpt><trkpt lat="48.00440468350187" lon="13.833726801381637"><ele>451.5</ele><time>2026-05-01T12:59:56Z</time></trkpt><trkpt lat="48.00444659331375" lon="13.83417659301534"><ele>450.0</ele><time>2026-05-01T12:59:57Z</time></trkpt><trkpt lat="48.00448652592352" lon="13.834627785618942"><ele>450.0</ele><time>2026-05-01T12:59:58Z</time></trkpt><trkpt lat="48.0045217696484" lon="13.835079942700027"><ele>450.0</ele><time>2026-05-01T12:59:59Z</time></trkpt><trkpt lat="48.00455733729876" lon="13.835529346943309"><ele>449.0</ele><time>2026-05-01T13:00:00Z</time></trkpt><trkpt lat="48.00458999008471" lon="13.835980317461539"><ele>448.0</ele><time>2026-05-01T13:00:01Z</time></trkpt><trkpt lat="48.00461921207473" lon="13.836433906453863"><ele>448.5</ele><time>2026-05-01T13:00:02Z</time></trkpt><trkpt lat="48.004649384819764" lon="13.83688624213033"><ele>449.0</ele><time>2026-05-01T13:00:03Z</time></trkpt><trkpt lat="48.00467725587594" lon="13.837336286988075"><ele>449.0</ele><time>2026-05-01T13:00:04Z</time></trkpt><trkpt lat="48.00470178680832" lon="13.837788030137093"><ele>449.0</ele><time>2026-05-01T13:00:05Z</time></trkpt><trkpt lat="48.00472318928964" lon="13.8382424236476"><ele>448.5</ele><time>2026-05-01T13:00:06Z</time></trkpt><trkpt lat="48.00474108556871" lon="13.83869372182159"><ele>448.0</ele><time>2026-05-01T13:00:07Z</time></trkpt><trkpt lat="48.0047577791845" lon="13.839147033425757"><ele>447.0</ele><time>2026-05-01T13:00:08Z</time></trkpt><trkpt lat="48.0047744527389" lon="13.839602468391973"><ele>446.0</ele><time>2026-05-01T13:00:09Z</time></trkpt><trkpt lat="48.00478786538108" lon="13.840057183392108"><ele>444.0</ele><time>2026-05-01T13:00:10Z</time></trkpt><trkpt lat="48.00479804466011" lon="13.840513374881393"><ele>442.0</ele><time>2026-05-01T13:00:11Z</time></trkpt><trkpt lat="48.00480493977724" lon="13.840966136708376"><ele>438.5</ele><time>2026-05-01T13:00:12Z</time></trkpt><trkpt lat="48.004812507779384" lon="13.841417626475542"><ele>435.0</ele><time>2026-05-01T13:00:13Z</time></trkpt><trkpt lat="48.00481791218909" lon="13.841864217768139"><ele>435.0</ele><time>2026-05-01T13:00:14Z</time></trkpt><trkpt lat="48.00482452133985" lon="13.842310824606232"><ele>435.0</ele><time>2026-05-01T13:00:15Z</time></trkpt><trkpt lat="48.00482488424477" lon="13.842751596815686"><ele>436.0</ele><time>2026-05-01T13:00:16Z</time></trkpt><trkpt lat="48.00482247739165" lon="13.843193660947373"><ele>437.0</ele><time>2026-05-01T13:00:17Z</time></trkpt><trkpt lat="48.00481866256994" lon="13.84363266198591"><ele>438.0</ele><time>2026-05-01T13:00:18Z</time></trkpt><trkpt lat="48.004812679951186" lon="13.844068263577565"><ele>439.0</ele><time>2026-05-01T13:00:19Z</time></trkpt><trkpt lat="48.004808166982265" lon="13.844501170216322"><ele>439.0</ele><time>2026-05-01T13:00:20Z</time></trkpt><trkpt lat="48.004800608519936" lon="13.844927810784265"><ele>439.0</ele><time>2026-05-01T13:00:21Z</time></trkpt><trkpt lat="48.00479257853216" lon="13.845355280321801"><ele>438.0</ele><time>2026-05-01T13:00:22Z</time></trkpt><trkpt lat="48.00477923308383" lon="13.84578192370273"><ele>437.0</ele><time>2026-05-01T13:00:23Z</time></trkpt><trkpt lat="48.00476194839092" lon="13.846208270847741"><ele>435.5</ele><time>2026-05-01T13:00:24Z</time></trkpt><trkpt lat="48.004742729539544" lon="13.846637164456205"><ele>434.0</ele><time>2026-05-01T13:00:25Z</time></trkpt><trkpt lat="48.00472401858435" lon="13.847066104969537"><ele>433.0</ele><time>2026-05-01T13:00:26Z</time></trkpt><trkpt lat="48.00470614600383" lon="13.847489748489396"><ele>432.0</ele><time>2026-05-01T13:00:27Z</time></trkpt><trkpt lat="48.004686705139" lon="13.847906309693265"><ele>431.5</ele><time>2026-05-01T13:00:28Z</time></trkpt><trkpt lat="48.004666668906815" lon="13.848320478562634"><ele>431.0</ele><time>2026-05-01T13:00:29Z</time></trkpt><trkpt lat="48.00464358914268" lon="13.848738299617834"><ele>432.5</ele><time>2026-05-01T13:00:30Z</time></trkpt><trkpt lat="48.00462056465824" lon="13.849157173000249"><ele>434.0</ele><time>2026-05-01T13:00:31.001Z</time></trkpt><trkpt lat="48.0045983679892" lon="13.849575441147532"><ele>437.0</ele><time>2026-05-01T13:00:32.001Z</time></trkpt><trkpt lat="48.00457753947774" lon="13.84999253635839"><ele>440.0</ele><time>2026-05-01T13:00:33.001Z</time></trkpt><trkpt lat="48.00455545431716" lon="13.85041234217741"><ele>441.5</ele><time>2026-05-01T13:00:34.001Z</time></trkpt><trkpt lat="48.00453351947365" lon="13.85083168597687"><ele>443.0</ele><time>2026-05-01T13:00:35.001Z</time></trkpt><trkpt lat="48.00451425373179" lon="13.851249860044868"><ele>443.0</ele><time>2026-05-01T13:00:36.001Z</time></trkpt><trkpt lat="48.00449385236658" lon="13.851669113252395"><ele>443.0</ele><time>2026-05-01T13:00:37.001Z</time></trkpt><trkpt lat="48.00447160904916" lon="13.852087695153216"><ele>442.5</ele><time>2026-05-01T13:00:38.001Z</time></trkpt><trkpt lat="48.00445117944882" lon="13.852509422756517"><ele>442.0</ele><time>2026-05-01T13:00:39.001Z</time></trkpt><trkpt lat="48.00443093765888" lon="13.85293116303342"><ele>441.5</ele><time>2026-05-01T13:00:40.001Z</time></trkpt><trkpt lat="48.004410087873104" lon="13.853350330629322"><ele>441.0</ele><time>2026-05-01T13:00:41.001Z</time></trkpt><trkpt lat="48.0043901907726" lon="13.853768731689723"><ele>442.0</ele><time>2026-05-01T13:00:42.001Z</time></trkpt><trkpt lat="48.004369231944004" lon="13.8541883033244"><ele>443.0</ele><time>2026-05-01T13:00:43.001Z</time></trkpt><trkpt lat="48.004347352857124" lon="13.854606442109485"><ele>443.5</ele><time>2026-05-01T13:00:44.001Z</time></trkpt><trkpt lat="48.004326925189" lon="13.855027336795084"><ele>444.0</ele><time>2026-05-01T13:00:45.001Z</time></trkpt><trkpt lat="48.00430605812362" lon="13.85544896010444"><ele>444.5</ele><time>2026-05-01T13:00:46.001Z</time></trkpt><trkpt lat="48.00428639335205" lon="13.855871982107875"><ele>445.0</ele><time>2026-05-01T13:00:47.001Z</time></trkpt><trkpt lat="48.004264484114486" lon="13.856297481232046"><ele>445.0</ele><time>2026-05-01T13:00:48.001Z</time></trkpt><trkpt lat="48.00424224960447" lon="13.8567291563847"><ele>445.0</ele><time>2026-05-01T13:00:49.001Z</time></trkpt><trkpt lat="48.0042195128531" lon="13.857164951436664"><ele>445.0</ele><time>2026-05-01T13:00:50.001Z</time></trkpt><trkpt lat="48.004195415836755" lon="13.857604916160522"><ele>445.0</ele><time>2026-05-01T13:00:51.001Z</time></trkpt><trkpt lat="48.004172050908544" lon="13.858047705302516"><ele>452.5</ele><time>2026-05-01T13:00:52.001Z</time></trkpt><trkpt lat="48.0041487387673" lon="13.858492721590379"><ele>460.0</ele><time>2026-05-01T13:00:53.001Z</time></trkpt><trkpt lat="48.00412562649148" lon="13.858937914192124"><ele>458.5</ele><time>2026-05-01T13:00:54.001Z</time></trkpt><trkpt lat="48.00410455464895" lon="13.85938260450543"><ele>457.0</ele><time>2026-05-01T13:00:55.001Z</time></trkpt><trkpt lat="48.004085477951385" lon="13.859829186418171"><ele>458.5</ele><time>2026-05-01T13:00:56.001Z</time></trkpt><trkpt lat="48.00406516927418" lon="13.860276688747355"><ele>460.0</ele><time>2026-05-01T13:00:57.001Z</time></trkpt><trkpt lat="48.00404439153393" lon="13.860722261032166"><ele>463.0</ele><time>2026-05-01T13:00:58.001Z</time></trkpt><trkpt lat="48.00402074703423" lon="13.861169923026406"><ele>466.0</ele><time>2026-05-01T13:00:59.001Z</time></trkpt><trkpt lat="48.00399866784557" lon="13.861618464179635"><ele>465.5</ele><time>2026-05-01T13:01:00.001Z</time></trkpt><trkpt lat="48.00397533595271" lon="13.862065554244555"><ele>465.0</ele><time>2026-05-01T13:01:01.001Z</time></trkpt><trkpt lat="48.00395237468969" lon="13.862513629369097"><ele>462.0</ele><time>2026-05-01T13:01:02.001Z</time></trkpt><trkpt lat="48.003928413542326" lon="13.862962022286235"><ele>459.0</ele><time>2026-05-01T13:01:03.001Z</time></trkpt><trkpt lat="48.003906852485045" lon="13.86340847280205"><ele>455.0</ele><time>2026-05-01T13:01:04.001Z</time></trkpt><trkpt lat="48.00388483334556" lon="13.863854365633234"><ele>451.0</ele><time>2026-05-01T13:01:05.001Z</time></trkpt><trkpt lat="48.00386335979384" lon="13.86429995653722"><ele>447.0</ele><time>2026-05-01T13:01:06.001Z</time></trkpt><trkpt lat="48.00384004785184" lon="13.86474282922557"><ele>443.0</ele><time>2026-05-01T13:01:07.001Z</time></trkpt><trkpt lat="48.00381862214471" lon="13.86518281003596"><ele>442.5</ele><time>2026-05-01T13:01:08.001Z</time></trkpt><trkpt lat="48.00379824359143" lon="13.865622315256708"><ele>442.0</ele><time>2026-05-01T13:01:09.001Z</time></trkpt><trkpt lat="48.00377606792158" lon="13.866059370706632"><ele>442.0</ele><time>2026-05-01T13:01:10.001Z</time></trkpt><trkpt lat="48.003753788417114" lon="13.866497303217479"><ele>442.0</ele><time>2026-05-01T13:01:11.001Z</time></trkpt><trkpt lat="48.00373234405446" lon="13.866935590993359"><ele>442.5</ele><time>2026-05-01T13:01:12.001Z</time></trkpt><trkpt lat="48.00371044170052" lon="13.867376059497047"><ele>443.0</ele><time>2026-05-01T13:01:13.001Z</time></trkpt><trkpt lat="48.00368998910652" lon="13.867819765388091"><ele>443.5</ele><time>2026-05-01T13:01:14.001Z</time></trkpt><trkpt lat="48.00366535810253" lon="13.868262651135675"><ele>444.0</ele><time>2026-05-01T13:01:15.001Z</time></trkpt><trkpt lat="48.00364332406798" lon="13.86870922654532"><ele>444.0</ele><time>2026-05-01T13:01:16.001Z</time></trkpt><trkpt lat="48.003622934957015" lon="13.86915607526691"><ele>444.0</ele><time>2026-05-01T13:01:17.001Z</time></trkpt><trkpt lat="48.00360266556512" lon="13.869605085577154"><ele>444.5</ele><time>2026-05-01T13:01:18.001Z</time></trkpt><trkpt lat="48.00358125881246" lon="13.87005308834593"><ele>445.0</ele><time>2026-05-01T13:01:19.001Z</time></trkpt><trkpt lat="48.003558403257" lon="13.870501581477066"><ele>446.5</ele><time>2026-05-01T13:01:20.001Z</time></trkpt><trkpt lat="48.003536040048125" lon="13.870951369228765"><ele>448.0</ele><time>2026-05-01T13:01:21.001Z</time></trkpt><trkpt lat="48.00351591281553" lon="13.871404328999565"><ele>448.5</ele><time>2026-05-01T13:01:22.001Z</time></trkpt><trkpt lat="48.00349362698494" lon="13.871855503987314"><ele>449.0</ele><time>2026-05-01T13:01:23.001Z</time></trkpt><trkpt lat="48.00347136667634" lon="13.872308722568722"><ele>448.5</ele><time>2026-05-01T13:01:24.001Z</time></trkpt><trkpt lat="48.003448670375754" lon="13.872761578830543"><ele>448.0</ele><time>2026-05-01T13:01:25.001Z</time></trkpt><trkpt lat="48.003424456439035" lon="13.873213893125989"><ele>446.0</ele><time>2026-05-01T13:01:26.001Z</time></trkpt><trkpt lat="48.00340132090963" lon="13.873666994260118"><ele>444.0</ele><time>2026-05-01T13:01:27.001Z</time></trkpt><trkpt lat="48.00338064097248" lon="13.87412341405596"><ele>445.0</ele><time>2026-05-01T13:01:28.001Z</time></trkpt><trkpt lat="48.00335711244814" lon="13.874579517531332"><ele>446.0</ele><time>2026-05-01T13:01:29.001Z</time></trkpt><trkpt lat="48.00333161814929" lon="13.87503762298713"><ele>447.5</ele><time>2026-05-01T13:01:30.001Z</time></trkpt><trkpt lat="48.003309215610514" lon="13.875495141790484"><ele>449.0</ele><time>2026-05-01T13:01:31.001Z</time></trkpt><trkpt lat="48.00328782232365" lon="13.875950117857604"><ele>452.0</ele><time>2026-05-01T13:01:32.001Z</time></trkpt><trkpt lat="48.00327040716722" lon="13.876398151510262"><ele>455.0</ele><time>2026-05-01T13:01:33.001Z</time></trkpt><trkpt lat="48.0032502220134" lon="13.876842781780812"><ele>455.0</ele><time>2026-05-01T13:01:34.001Z</time></trkpt><trkpt lat="48.003228130661675" lon="13.877287366080315"><ele>455.0</ele><time>2026-05-01T13:01:35.001Z</time></trkpt><trkpt lat="48.00323448054575" lon="13.877772931947112"><ele>454.0</ele><time>2026-05-01T13:01:36.001Z</time></trkpt><trkpt lat="48.00321483700356" lon="13.878216144175926"><ele>453.0</ele><time>2026-05-01T13:01:37.001Z</time></trkpt><trkpt lat="48.00318922774573" lon="13.878663555314972"><ele>453.0</ele><time>2026-05-01T13:01:38.001Z</time></trkpt><trkpt lat="48.0031587511505" lon="13.879114364492395"><ele>453.0</ele><time>2026-05-01T13:01:39.001Z</time></trkpt><trkpt lat="48.003129415640686" lon="13.879566736171055"><ele>452.0</ele><time>2026-05-01T13:01:40.001Z</time></trkpt><trkpt lat="48.00310646205096" lon="13.88002010613461"><ele>451.0</ele><time>2026-05-01T13:01:41.001Z</time></trkpt><trkpt lat="48.00308465461903" lon="13.88046991876054"><ele>449.5</ele><time>2026-05-01T13:01:42.001Z</time></trkpt><trkpt lat="48.00306462609245" lon="13.88092084832092"><ele>448.0</ele><time>2026-05-01T13:01:43.001Z</time></trkpt><trkpt lat="48.00304782800543" lon="13.881371004326938"><ele>448.5</ele><time>2026-05-01T13:01:44.001Z</time></trkpt><trkpt lat="48.00303084474478" lon="13.881824631674244"><ele>449.0</ele><time>2026-05-01T13:01:45.001Z</time></trkpt><trkpt lat="48.00301389502353" lon="13.882272385020762"><ele>449.0</ele><time>2026-05-01T13:01:46.001Z</time></trkpt><trkpt lat="48.002997835406624" lon="13.882729743727305"><ele>449.0</ele><time>2026-05-01T13:01:47.001Z</time></trkpt><trkpt lat="48.00298686867722" lon="13.883182958045982"><ele>449.5</ele><time>2026-05-01T13:01:48.001Z</time></trkpt><trkpt lat="48.00297416976262" lon="13.883629206541595"><ele>450.0</ele><time>2026-05-01T13:01:49.001Z</time></trkpt><trkpt lat="48.00296607301571" lon="13.884083346814021"><ele>449.0</ele><time>2026-05-01T13:01:50.001Z</time></trkpt><trkpt lat="48.00295907252549" lon="13.884534568854642"><ele>448.0</ele><time>2026-05-01T13:01:51.001Z</time></trkpt><trkpt lat="48.002949412367144" lon="13.884975504104988"><ele>448.5</ele><time>2026-05-01T13:01:52.001Z</time></trkpt><trkpt lat="48.00293945539223" lon="13.885419897822644"><ele>449.0</ele><time>2026-05-01T13:01:53.001Z</time></trkpt><trkpt lat="48.00294179738769" lon="13.885868603092483"><ele>449.5</ele><time>2026-05-01T13:01:54Z</time></trkpt><trkpt lat="48.00294891947382" lon="13.886329442716583"><ele>450.0</ele><time>2026-05-01T13:01:55Z</time></trkpt><trkpt lat="48.00295177566984" lon="13.88678208363764"><ele>451.5</ele><time>2026-05-01T13:01:56Z</time></trkpt><trkpt lat="48.002953419703665" lon="13.88724019147736"><ele>453.0</ele><time>2026-05-01T13:01:57Z</time></trkpt><trkpt lat="48.002957299065045" lon="13.887700072232692"><ele>453.5</ele><time>2026-05-01T13:01:58Z</time></trkpt><trkpt lat="48.00296662335938" lon="13.888155237538871"><ele>454.0</ele><time>2026-05-01T13:01:59Z</time></trkpt><trkpt lat="48.00298494149098" lon="13.888618853748246"><ele>454.0</ele><time>2026-05-01T13:02:00Z</time></trkpt><trkpt lat="48.00300008916274" lon="13.889073272720804"><ele>454.0</ele><time>2026-05-01T13:02:01Z</time></trkpt><trkpt lat="48.00302032383123" lon="13.889537508156797"><ele>454.0</ele><time>2026-05-01T13:02:02Z</time></trkpt><trkpt lat="48.00303742748782" lon="13.890000385082143"><ele>454.0</ele><time>2026-05-01T13:02:03Z</time></trkpt><trkpt lat="48.00305629188477" lon="13.890461818487726"><ele>453.5</ele><time>2026-05-01T13:02:04Z</time></trkpt><trkpt lat="48.00307970272074" lon="13.89090957855328"><ele>453.0</ele><time>2026-05-01T13:02:05Z</time></trkpt><trkpt lat="48.00310265581995" lon="13.89135004268388"><ele>449.5</ele><time>2026-05-01T13:02:06Z</time></trkpt><trkpt lat="48.00313404806143" lon="13.89178686380793"><ele>446.0</ele><time>2026-05-01T13:02:07Z</time></trkpt><trkpt lat="48.00316391659965" lon="13.892243217102175"><ele>442.0</ele><time>2026-05-01T13:02:08Z</time></trkpt><trkpt lat="48.00319294607451" lon="13.892696968404803"><ele>438.0</ele><time>2026-05-01T13:02:09Z</time></trkpt><trkpt lat="48.00322822724083" lon="13.89314713955499"><ele>438.0</ele><time>2026-05-01T13:02:10Z</time></trkpt><trkpt lat="48.00326083734943" lon="13.893604710142688"><ele>438.0</ele><time>2026-05-01T13:02:11.001Z</time></trkpt><trkpt lat="48.00329790300271" lon="13.89406108587396"><ele>441.5</ele><time>2026-05-01T13:02:12.001Z</time></trkpt><trkpt lat="48.003335069526315" lon="13.894521775438847"><ele>445.0</ele><time>2026-05-01T13:02:13.001Z</time></trkpt><trkpt lat="48.00337281619692" lon="13.894975572759776"><ele>443.5</ele><time>2026-05-01T13:02:14.001Z</time></trkpt><trkpt lat="48.003413752470465" lon="13.89542812788343"><ele>442.0</ele><time>2026-05-01T13:02:15.001Z</time></trkpt><trkpt lat="48.00346048441955" lon="13.895878528063054"><ele>442.5</ele><time>2026-05-01T13:02:16.001Z</time></trkpt><trkpt lat="48.00350724689452" lon="13.896331664430509"><ele>443.0</ele><time>2026-05-01T13:02:17.001Z</time></trkpt><trkpt lat="48.0035618539967" lon="13.89678459776844"><ele>443.0</ele><time>2026-05-01T13:02:18.001Z</time></trkpt><trkpt lat="48.003610203683195" lon="13.897237508280686"><ele>443.0</ele><time>2026-05-01T13:02:19.001Z</time></trkpt><trkpt lat="48.003662265545536" lon="13.89769408069543"><ele>444.0</ele><time>2026-05-01T13:02:20.001Z</time></trkpt><trkpt lat="48.00372248721722" lon="13.898143163567035"><ele>445.0</ele><time>2026-05-01T13:02:21.001Z</time></trkpt><trkpt lat="48.00378174367918" lon="13.89858916457654"><ele>445.5</ele><time>2026-05-01T13:02:22.001Z</time></trkpt><trkpt lat="48.00384570171637" lon="13.899033779593697"><ele>446.0</ele><time>2026-05-01T13:02:23.001Z</time></trkpt><trkpt lat="48.003913649632956" lon="13.899486393209553"><ele>446.0</ele><time>2026-05-01T13:02:24.001Z</time></trkpt><trkpt lat="48.00398272828258" lon="13.8999317376107"><ele>446.0</ele><time>2026-05-01T13:02:25.001Z</time></trkpt><trkpt lat="48.00404517224631" lon="13.900393298497722"><ele>445.5</ele><time>2026-05-01T13:02:26.001Z</time></trkpt><trkpt lat="48.00411207203341" lon="13.900841697334371"><ele>445.0</ele><time>2026-05-01T13:02:27.001Z</time></trkpt><trkpt lat="48.004186160508134" lon="13.901296871823943"><ele>445.5</ele><time>2026-05-01T13:02:28.001Z</time></trkpt><trkpt lat="48.00425595659981" lon="13.9017588932284"><ele>446.0</ele><time>2026-05-01T13:02:29.001Z</time></trkpt><trkpt lat="48.0043347310546" lon="13.902218277508444"><ele>445.5</ele><time>2026-05-01T13:02:30.001Z</time></trkpt><trkpt lat="48.00440046653865" lon="13.902655795249782"><ele>445.0</ele><time>2026-05-01T13:02:31.001Z</time></trkpt><trkpt lat="48.00448352094887" lon="13.90310652145429"><ele>443.5</ele><time>2026-05-01T13:02:32.001Z</time></trkpt><trkpt lat="48.004567340777925" lon="13.903557885791493"><ele>442.0</ele><time>2026-05-01T13:02:33.001Z</time></trkpt><trkpt lat="48.00465146961288" lon="13.903999726129943"><ele>442.0</ele><time>2026-05-01T13:02:34.001Z</time></trkpt><trkpt lat="48.00473713620533" lon="13.904440682725047"><ele>442.0</ele><time>2026-05-01T13:02:35.001Z</time></trkpt><trkpt lat="48.00482317351682" lon="13.904878519506177"><ele>441.0</ele><time>2026-05-01T13:02:36.001Z</time></trkpt><trkpt lat="48.00491376073842" lon="13.905310720715546"><ele>440.0</ele><time>2026-05-01T13:02:37.001Z</time></trkpt><trkpt lat="48.00500401643778" lon="13.905738389397579"><ele>439.0</ele><time>2026-05-01T13:02:38.001Z</time></trkpt><trkpt lat="48.00509593837897" lon="13.906162038996717"><ele>438.0</ele><time>2026-05-01T13:02:39.001Z</time></trkpt><trkpt lat="48.00519142995535" lon="13.906584983185267"><ele>437.0</ele><time>2026-05-01T13:02:40.001Z</time></trkpt><trkpt lat="48.005285466046814" lon="13.907013937634595"><ele>436.0</ele><time>2026-05-01T13:02:41.001Z</time></trkpt><trkpt lat="48.005384845903265" lon="13.907441658044984"><ele>434.0</ele><time>2026-05-01T13:02:42.001Z</time></trkpt><trkpt lat="48.00548609986416" lon="13.90786637911936"><ele>432.0</ele><time>2026-05-01T13:02:43.001Z</time></trkpt><trkpt lat="48.00558701659205" lon="13.90829223872523"><ele>431.5</ele><time>2026-05-01T13:02:44.001Z</time></trkpt><trkpt lat="48.0056911733966" lon="13.908713003511085"><ele>431.0</ele><time>2026-05-01T13:02:45.001Z</time></trkpt><trkpt lat="48.00579744430106" lon="13.909131915716715"><ele>430.5</ele><time>2026-05-01T13:02:46.001Z</time></trkpt><trkpt lat="48.005903379835" lon="13.909548457849974"><ele>430.0</ele><time>2026-05-01T13:02:47.001Z</time></trkpt><trkpt lat="48.00601119579281" lon="13.909961350658511"><ele>429.0</ele><time>2026-05-01T13:02:48.001Z</time></trkpt><trkpt lat="48.00611892858512" lon="13.91036667504563"><ele>428.0</ele><time>2026-05-01T13:02:49.001Z</time></trkpt><trkpt lat="48.00622883742071" lon="13.910773012332902"><ele>426.0</ele><time>2026-05-01T13:02:50.001Z</time></trkpt><trkpt lat="48.00634221027483" lon="13.91118196520766"><ele>424.0</ele><time>2026-05-01T13:02:51.001Z</time></trkpt><trkpt lat="48.00645936550847" lon="13.911592597922736"><ele>420.0</ele><time>2026-05-01T13:02:52.001Z</time></trkpt><trkpt lat="48.00657539101539" lon="13.912000232399691"><ele>416.0</ele><time>2026-05-01T13:02:53.001Z</time></trkpt><trkpt lat="48.006693797531895" lon="13.912409328146268"><ele>411.5</ele><time>2026-05-01T13:02:54.001Z</time></trkpt><trkpt lat="48.00681506715557" lon="13.912816806378473"><ele>407.0</ele><time>2026-05-01T13:02:55.001Z</time></trkpt><trkpt lat="48.006933527565046" lon="13.913221445968281"><ele>405.5</ele><time>2026-05-01T13:02:56.001Z</time></trkpt><trkpt lat="48.00705428433848" lon="13.913626003881053"><ele>404.0</ele><time>2026-05-01T13:02:57.001Z</time></trkpt><trkpt lat="48.00717941546989" lon="13.914029572238443"><ele>403.0</ele><time>2026-05-01T13:02:58.001Z</time></trkpt><trkpt lat="48.007305062828564" lon="13.914432860359252"><ele>402.0</ele><time>2026-05-01T13:02:59.001Z</time></trkpt><trkpt lat="48.00742799979858" lon="13.914836236281062"><ele>404.5</ele><time>2026-05-01T13:03:00.001Z</time></trkpt><trkpt lat="48.007547372068544" lon="13.915241618817227"><ele>407.0</ele><time>2026-05-01T13:03:01.001Z</time></trkpt><trkpt lat="48.0076667096184" lon="13.915649094143562"><ele>407.0</ele><time>2026-05-01T13:03:02.001Z</time></trkpt><trkpt lat="48.007787062162" lon="13.916051530283006"><ele>407.0</ele><time>2026-05-01T13:03:03.001Z</time></trkpt><trkpt lat="48.00791021525033" lon="13.916458145385494"><ele>407.0</ele><time>2026-05-01T13:03:04.001Z</time></trkpt><trkpt lat="48.00802681089545" lon="13.916862576016145"><ele>407.0</ele><time>2026-05-01T13:03:05.001Z</time></trkpt><trkpt lat="48.00814521289239" lon="13.917261734674103"><ele>407.5</ele><time>2026-05-01T13:03:06.001Z</time></trkpt><trkpt lat="48.00826341838893" lon="13.91765804067159"><ele>408.0</ele><time>2026-05-01T13:03:07.001Z</time></trkpt><trkpt lat="48.00838283835355" lon="13.918051667368678"><ele>409.0</ele><time>2026-05-01T13:03:08.001Z</time></trkpt><trkpt lat="48.00850139963365" lon="13.918443532014122"><ele>410.0</ele><time>2026-05-01T13:03:09.001Z</time></trkpt><trkpt lat="48.0086170468365" lon="13.918834048716894"><ele>410.0</ele><time>2026-05-01T13:03:10.001Z</time></trkpt><trkpt lat="48.00873371862777" lon="13.91922068428793"><ele>410.0</ele><time>2026-05-01T13:03:11.001Z</time></trkpt><trkpt lat="48.008849719671176" lon="13.919606205142767"><ele>410.0</ele><time>2026-05-01T13:03:12.001Z</time></trkpt><trkpt lat="48.00896242385238" lon="13.919989857113276"><ele>410.0</ele><time>2026-05-01T13:03:13.001Z</time></trkpt><trkpt lat="48.009082270268564" lon="13.920377535649827"><ele>408.5</ele><time>2026-05-01T13:03:14.001Z</time></trkpt><trkpt lat="48.00919927164644" lon="13.920769915074258"><ele>407.0</ele><time>2026-05-01T13:03:15.001Z</time></trkpt><trkpt lat="48.00931881832682" lon="13.921161592833435"><ele>407.0</ele><time>2026-05-01T13:03:16.001Z</time></trkpt><trkpt lat="48.00943766642849" lon="13.921554893772168"><ele>407.0</ele><time>2026-05-01T13:03:17.001Z</time></trkpt><trkpt lat="48.00955467041565" lon="13.921950755971281"><ele>408.5</ele><time>2026-05-01T13:03:18.001Z</time></trkpt><trkpt lat="48.0096713352603" lon="13.922346162227297"><ele>410.0</ele><time>2026-05-01T13:03:19.001Z</time></trkpt><trkpt lat="48.00978956812366" lon="13.922744521541938"><ele>410.5</ele><time>2026-05-01T13:03:20.001Z</time></trkpt><trkpt lat="48.00990310910944" lon="13.923144286720621"><ele>411.0</ele><time>2026-05-01T13:03:21.001Z</time></trkpt><trkpt lat="48.0100268777187" lon="13.923547692591411"><ele>411.0</ele><time>2026-05-01T13:03:22.001Z</time></trkpt><trkpt lat="48.01014924248879" lon="13.923946392289414"><ele>411.0</ele><time>2026-05-01T13:03:23.001Z</time></trkpt><trkpt lat="48.01026688370063" lon="13.924344298572553"><ele>411.5</ele><time>2026-05-01T13:03:24.001Z</time></trkpt><trkpt lat="48.0103869944378" lon="13.92474202344455"><ele>412.0</ele><time>2026-05-01T13:03:25.001Z</time></trkpt><trkpt lat="48.010506665865854" lon="13.92513629987402"><ele>411.0</ele><time>2026-05-01T13:03:26.001Z</time></trkpt><trkpt lat="48.01062475903412" lon="13.925528514361348"><ele>410.0</ele><time>2026-05-01T13:03:27.001Z</time></trkpt><trkpt lat="48.01074047384278" lon="13.925920147246543"><ele>411.0</ele><time>2026-05-01T13:03:28.001Z</time></trkpt><trkpt lat="48.01085498464025" lon="13.926310508572948"><ele>412.0</ele><time>2026-05-01T13:03:29.001Z</time></trkpt><trkpt lat="48.01097234265826" lon="13.926698276011072"><ele>411.5</ele><time>2026-05-01T13:03:30.001Z</time></trkpt><trkpt lat="48.011083975758496" lon="13.927090768962106"><ele>411.0</ele><time>2026-05-01T13:03:31.001Z</time></trkpt><trkpt lat="48.01120117730111" lon="13.927484221159649"><ele>411.5</ele><time>2026-05-01T13:03:32.001Z</time></trkpt><trkpt lat="48.01132105037389" lon="13.927875623223537"><ele>412.0</ele><time>2026-05-01T13:03:33.001Z</time></trkpt><trkpt lat="48.01144094032734" lon="13.92826851222333"><ele>412.0</ele><time>2026-05-01T13:03:34.001Z</time></trkpt><trkpt lat="48.01155759850535" lon="13.928661486825268"><ele>412.0</ele><time>2026-05-01T13:03:35.001Z</time></trkpt><trkpt lat="48.011676893282726" lon="13.929052159432576"><ele>412.5</ele><time>2026-05-01T13:03:36.001Z</time></trkpt><trkpt lat="48.011797738783166" lon="13.92944196678815"><ele>413.0</ele><time>2026-05-01T13:03:37.001Z</time></trkpt><trkpt lat="48.01191926202526" lon="13.929834370039494"><ele>413.5</ele><time>2026-05-01T13:03:38.001Z</time></trkpt><trkpt lat="48.01203829286476" lon="13.930229863395047"><ele>414.0</ele><time>2026-05-01T13:03:39.001Z</time></trkpt><trkpt lat="48.01215826281205" lon="13.93062882311736"><ele>414.0</ele><time>2026-05-01T13:03:40.001Z</time></trkpt><trkpt lat="48.01227998013431" lon="13.931026104410764"><ele>414.0</ele><time>2026-05-01T13:03:41.001Z</time></trkpt><trkpt lat="48.01240554494748" lon="13.931422694284084"><ele>415.0</ele><time>2026-05-01T13:03:42.001Z</time></trkpt><trkpt lat="48.01253368189524" lon="13.931822159013281"><ele>416.0</ele><time>2026-05-01T13:03:43.001Z</time></trkpt><trkpt lat="48.01266321836353" lon="13.932220929185275"><ele>415.0</ele><time>2026-05-01T13:03:44.001Z</time></trkpt><trkpt lat="48.012795695663975" lon="13.932618684192338"><ele>414.0</ele><time>2026-05-01T13:03:45.001Z</time></trkpt><trkpt lat="48.01293004546159" lon="13.93301448813046"><ele>413.0</ele><time>2026-05-01T13:03:46.001Z</time></trkpt><trkpt lat="48.013063239761955" lon="13.933406005696176"><ele>412.0</ele><time>2026-05-01T13:03:47.001Z</time></trkpt><trkpt lat="48.01319378837305" lon="13.933789198268832"><ele>412.0</ele><time>2026-05-01T13:03:48.001Z</time></trkpt><trkpt lat="48.01331870976603" lon="13.934156636262548"><ele>412.0</ele><time>2026-05-01T13:03:49.001Z</time></trkpt><trkpt lat="48.01344383024765" lon="13.934526593010371"><ele>412.5</ele><time>2026-05-01T13:03:50.001Z</time></trkpt><trkpt lat="48.01357507466597" lon="13.934905629629423"><ele>413.0</ele><time>2026-05-01T13:03:51.001Z</time></trkpt><trkpt lat="48.01370537974935" lon="13.9352876276028"><ele>407.0</ele><time>2026-05-01T13:03:52.001Z</time></trkpt><trkpt lat="48.01383431204947" lon="13.935666345408254"><ele>401.0</ele><time>2026-05-01T13:03:53.001Z</time></trkpt><trkpt lat="48.013962168831874" lon="13.936045060286778"><ele>396.0</ele><time>2026-05-01T13:03:54.001Z</time></trkpt><trkpt lat="48.0140894133569" lon="13.936421534460722"><ele>391.0</ele><time>2026-05-01T13:03:55.001Z</time></trkpt><trkpt lat="48.014215240752705" lon="13.936793238722373"><ele>390.0</ele><time>2026-05-01T13:03:56.001Z</time></trkpt><trkpt lat="48.014339087404174" lon="13.937156066999895"><ele>389.0</ele><time>2026-05-01T13:03:57.001Z</time></trkpt><trkpt lat="48.01446029053901" lon="13.937503529828113"><ele>390.0</ele><time>2026-05-01T13:03:58.001Z</time></trkpt><trkpt lat="48.014584729703884" lon="13.937851116813475"><ele>391.0</ele><time>2026-05-01T13:03:59.001Z</time></trkpt><trkpt lat="48.014720455273164" lon="13.938208447897457"><ele>394.0</ele><time>2026-05-01T13:04:00Z</time></trkpt><trkpt lat="48.01486668439823" lon="13.938578217927924"><ele>397.0</ele><time>2026-05-01T13:04:01Z</time></trkpt><trkpt lat="48.015005772233714" lon="13.938966283359603"><ele>413.0</ele><time>2026-05-01T13:04:02Z</time></trkpt><trkpt lat="48.01514135275817" lon="13.939369363018697"><ele>429.0</ele><time>2026-05-01T13:04:03Z</time></trkpt><trkpt lat="48.01527540479769" lon="13.939778067460125"><ele>430.0</ele><time>2026-05-01T13:04:04Z</time></trkpt><trkpt lat="48.01541180416057" lon="13.9401912066753"><ele>431.0</ele><time>2026-05-01T13:04:05Z</time></trkpt><trkpt lat="48.01555508019122" lon="13.940603530603127"><ele>431.0</ele><time>2026-05-01T13:04:06Z</time></trkpt><trkpt lat="48.01569948898952" lon="13.941011357144005"><ele>431.0</ele><time>2026-05-01T13:04:07Z</time></trkpt><trkpt lat="48.01584319903582" lon="13.94142188676215"><ele>428.5</ele><time>2026-05-01T13:04:08Z</time></trkpt><trkpt lat="48.015984718939436" lon="13.94183106959571"><ele>426.0</ele><time>2026-05-01T13:04:09Z</time></trkpt><trkpt lat="48.01612390034424" lon="13.942240820610767"><ele>426.5</ele><time>2026-05-01T13:04:10Z</time></trkpt><trkpt lat="48.01626172024348" lon="13.942647851036705"><ele>427.0</ele><time>2026-05-01T13:04:11Z</time></trkpt><trkpt lat="48.01639846259343" lon="13.943052709494259"><ele>426.0</ele><time>2026-05-01T13:04:12Z</time></trkpt><trkpt lat="48.016533397367326" lon="13.943457170808957"><ele>425.0</ele><time>2026-05-01T13:04:13Z</time></trkpt><trkpt lat="48.016660146506275" lon="13.943864406945309"><ele>420.5</ele><time>2026-05-01T13:04:14Z</time></trkpt><trkpt lat="48.01678403153099" lon="13.944272538987509"><ele>416.0</ele><time>2026-05-01T13:04:15Z</time></trkpt><trkpt lat="48.01691030410701" lon="13.944678392398666"><ele>415.5</ele><time>2026-05-01T13:04:16Z</time></trkpt><trkpt lat="48.01704118209005" lon="13.945076856290765"><ele>415.0</ele><time>2026-05-01T13:04:17Z</time></trkpt><trkpt lat="48.01717984361285" lon="13.945471284434339"><ele>415.0</ele><time>2026-05-01T13:04:18Z</time></trkpt><trkpt lat="48.01732104703721" lon="13.945864942204203"><ele>415.0</ele><time>2026-05-01T13:04:19Z</time></trkpt><trkpt lat="48.01746049516186" lon="13.946260056749948"><ele>421.0</ele><time>2026-05-01T13:04:20Z</time></trkpt><trkpt lat="48.01759820735478" lon="13.946660560173564"><ele>427.0</ele><time>2026-05-01T13:04:21Z</time></trkpt><trkpt lat="48.01773580147714" lon="13.947062099084897"><ele>427.5</ele><time>2026-05-01T13:04:22Z</time></trkpt><trkpt lat="48.01787554476243" lon="13.947465015605676"><ele>428.0</ele><time>2026-05-01T13:04:23Z</time></trkpt><trkpt lat="48.01801515542324" lon="13.94786922828453"><ele>428.0</ele><time>2026-05-01T13:04:24Z</time></trkpt><trkpt lat="48.01815268209704" lon="13.948273806040156"><ele>428.0</ele><time>2026-05-01T13:04:25Z</time></trkpt><trkpt lat="48.01829188925079" lon="13.948676801312303"><ele>429.0</ele><time>2026-05-01T13:04:26.001Z</time></trkpt><trkpt lat="48.01842948369999" lon="13.949078283574478"><ele>430.0</ele><time>2026-05-01T13:04:27.001Z</time></trkpt><trkpt lat="48.018566289026964" lon="13.949479609414004"><ele>430.5</ele><time>2026-05-01T13:04:28.001Z</time></trkpt><trkpt lat="48.01870070190463" lon="13.949883351223544"><ele>431.0</ele><time>2026-05-01T13:04:29.001Z</time></trkpt><trkpt lat="48.0188374827974" lon="13.950283639295796"><ele>432.0</ele><time>2026-05-01T13:04:30.001Z</time></trkpt><trkpt lat="48.01897481681922" lon="13.95068393092648"><ele>433.0</ele><time>2026-05-01T13:04:31.001Z</time></trkpt><trkpt lat="48.01911136617864" lon="13.95108455295839"><ele>432.5</ele><time>2026-05-01T13:04:32.001Z</time></trkpt><trkpt lat="48.01925202947795" lon="13.951484600290641"><ele>432.0</ele><time>2026-05-01T13:04:33.001Z</time></trkpt><trkpt lat="48.01938996858536" lon="13.951886734011579"><ele>432.0</ele><time>2026-05-01T13:04:34.001Z</time></trkpt><trkpt lat="48.01952870394758" lon="13.952290010076908"><ele>432.0</ele><time>2026-05-01T13:04:35.001Z</time></trkpt><trkpt lat="48.0196649807461" lon="13.952696311240954"><ele>432.0</ele><time>2026-05-01T13:04:36.001Z</time></trkpt><trkpt lat="48.01980149325731" lon="13.953102854934071"><ele>432.0</ele><time>2026-05-01T13:04:37.001Z</time></trkpt><trkpt lat="48.01994019664796" lon="13.953510336303692"><ele>431.5</ele><time>2026-05-01T13:04:38.001Z</time></trkpt><trkpt lat="48.020080810500474" lon="13.95391735506672"><ele>431.0</ele><time>2026-05-01T13:04:39.001Z</time></trkpt><trkpt lat="48.0202231764157" lon="13.954325348356775"><ele>431.0</ele><time>2026-05-01T13:04:40.001Z</time></trkpt><trkpt lat="48.02036368647167" lon="13.954737296900964"><ele>431.0</ele><time>2026-05-01T13:04:41.001Z</time></trkpt><trkpt lat="48.02050221997973" lon="13.955150348717703"><ele>431.0</ele><time>2026-05-01T13:04:42.001Z</time></trkpt><trkpt lat="48.02064079287042" lon="13.955562355123826"><ele>431.0</ele><time>2026-05-01T13:04:43.001Z</time></trkpt><trkpt lat="48.020779346406506" lon="13.955973657821657"><ele>431.0</ele><time>2026-05-01T13:04:44.001Z</time></trkpt><trkpt lat="48.020920722524366" lon="13.956380828024708"><ele>431.0</ele><time>2026-05-01T13:04:45.001Z</time></trkpt><trkpt lat="48.0210614541219" lon="13.956788366202161"><ele>431.5</ele><time>2026-05-01T13:04:46.001Z</time></trkpt><trkpt lat="48.02119924233956" lon="13.957194272526008"><ele>432.0</ele><time>2026-05-01T13:04:47.001Z</time></trkpt><trkpt lat="48.02133755619427" lon="13.957597977565351"><ele>432.0</ele><time>2026-05-01T13:04:48.001Z</time></trkpt><trkpt lat="48.02147610116293" lon="13.958000487641323"><ele>432.0</ele><time>2026-05-01T13:04:49.001Z</time></trkpt><trkpt lat="48.02161439158314" lon="13.958402234391714"><ele>431.5</ele><time>2026-05-01T13:04:50.001Z</time></trkpt><trkpt lat="48.02175484953657" lon="13.958805577836321"><ele>431.0</ele><time>2026-05-01T13:04:51.001Z</time></trkpt><trkpt lat="48.021895614753944" lon="13.959209068721224"><ele>431.0</ele><time>2026-05-01T13:04:52.001Z</time></trkpt><trkpt lat="48.02203496704924" lon="13.959613533031469"><ele>431.0</ele><time>2026-05-01T13:04:53.001Z</time></trkpt><trkpt lat="48.0221766653439" lon="13.9600189203984"><ele>431.0</ele><time>2026-05-01T13:04:54.001Z</time></trkpt><trkpt lat="48.022321862568326" lon="13.960421945936423"><ele>431.0</ele><time>2026-05-01T13:04:55.001Z</time></trkpt><trkpt lat="48.022470544044445" lon="13.960819869463068"><ele>432.5</ele><time>2026-05-01T13:04:56.001Z</time></trkpt><trkpt lat="48.02262297139856" lon="13.961213937579407"><ele>434.0</ele><time>2026-05-01T13:04:57.001Z</time></trkpt><trkpt lat="48.022779834555415" lon="13.961604751134608"><ele>433.5</ele><time>2026-05-01T13:04:58.001Z</time></trkpt><trkpt lat="48.022941022589606" lon="13.961993884818678"><ele>433.0</ele><time>2026-05-01T13:04:59.001Z</time></trkpt><trkpt lat="48.023104242378466" lon="13.962379477893336"><ele>433.0</ele><time>2026-05-01T13:05:00.001Z</time></trkpt><trkpt lat="48.02327004291002" lon="13.962763246686324"><ele>433.0</ele><time>2026-05-01T13:05:01.001Z</time></trkpt><trkpt lat="48.02343706023202" lon="13.963141527640287"><ele>432.5</ele><time>2026-05-01T13:05:02.001Z</time></trkpt><trkpt lat="48.02360451712986" lon="13.96351970035663"><ele>432.0</ele><time>2026-05-01T13:05:03.001Z</time></trkpt><trkpt lat="48.02377457724148" lon="13.963894671009633"><ele>432.0</ele><time>2026-05-01T13:05:04.001Z</time></trkpt><trkpt lat="48.023946343844514" lon="13.964265876803065"><ele>432.0</ele><time>2026-05-01T13:05:05.001Z</time></trkpt><trkpt lat="48.024122236552536" lon="13.964633220690645"><ele>432.5</ele><time>2026-05-01T13:05:06.001Z</time></trkpt><trkpt lat="48.02430237852085" lon="13.964994692582893"><ele>433.0</ele><time>2026-05-01T13:05:07.001Z</time></trkpt><trkpt lat="48.02448829045551" lon="13.96535380478034"><ele>433.0</ele><time>2026-05-01T13:05:08.001Z</time></trkpt><trkpt lat="48.024677437885735" lon="13.96571034873116"><ele>433.0</ele><time>2026-05-01T13:05:09.001Z</time></trkpt><trkpt lat="48.02486800552376" lon="13.966063054019026"><ele>433.0</ele><time>2026-05-01T13:05:10.001Z</time></trkpt><trkpt lat="48.02506011097452" lon="13.966416625373483"><ele>433.0</ele><time>2026-05-01T13:05:11.001Z</time></trkpt><trkpt lat="48.02525347289993" lon="13.96676785273322"><ele>432.5</ele><time>2026-05-01T13:05:12.001Z</time></trkpt><trkpt lat="48.02544865606659" lon="13.967115931288323"><ele>432.0</ele><time>2026-05-01T13:05:13.001Z</time></trkpt><trkpt lat="48.02564644452055" lon="13.967460003050276"><ele>432.0</ele><time>2026-05-01T13:05:14.001Z</time></trkpt><trkpt lat="48.02584789110437" lon="13.967799769669956"><ele>432.0</ele><time>2026-05-01T13:05:15.001Z</time></trkpt><trkpt lat="48.02605210854107" lon="13.968137248598866"><ele>431.0</ele><time>2026-05-01T13:05:16.001Z</time></trkpt><trkpt lat="48.026257532229764" lon="13.968471679850614"><ele>430.0</ele><time>2026-05-01T13:05:17.001Z</time></trkpt><trkpt lat="48.026466566969425" lon="13.968805136413604"><ele>429.5</ele><time>2026-05-01T13:05:18.001Z</time></trkpt><trkpt lat="48.02667890300472" lon="13.969136139639911"><ele>429.0</ele><time>2026-05-01T13:05:19.001Z</time></trkpt><trkpt lat="48.02689164566252" lon="13.969466866228151"><ele>428.0</ele><time>2026-05-01T13:05:20.001Z</time></trkpt><trkpt lat="48.02710378188839" lon="13.969796759276242"><ele>427.0</ele><time>2026-05-01T13:05:21.001Z</time></trkpt><trkpt lat="48.027311826626615" lon="13.970131074056242"><ele>426.5</ele><time>2026-05-01T13:05:22.001Z</time></trkpt><trkpt lat="48.02751919522604" lon="13.970464678125017"><ele>426.0</ele><time>2026-05-01T13:05:23.001Z</time></trkpt><trkpt lat="48.02772731063303" lon="13.970797921023626"><ele>425.0</ele><time>2026-05-01T13:05:24.001Z</time></trkpt><trkpt lat="48.02793479193443" lon="13.971128392719226"><ele>424.0</ele><time>2026-05-01T13:05:25.001Z</time></trkpt><trkpt lat="48.02814055694823" lon="13.971451651182848"><ele>423.5</ele><time>2026-05-01T13:05:26.001Z</time></trkpt><trkpt lat="48.02834320984351" lon="13.971771108677398"><ele>423.0</ele><time>2026-05-01T13:05:27.001Z</time></trkpt><trkpt lat="48.028546401407006" lon="13.972092062910196"><ele>423.0</ele><time>2026-05-01T13:05:28.001Z</time></trkpt><trkpt lat="48.028749505072724" lon="13.972413504412073"><ele>423.0</ele><time>2026-05-01T13:05:29.001Z</time></trkpt><trkpt lat="48.02895245470779" lon="13.972734202728786"><ele>424.5</ele><time>2026-05-01T13:05:30.001Z</time></trkpt><trkpt lat="48.02915781294278" lon="13.973057256344086"><ele>426.0</ele><time>2026-05-01T13:05:31.001Z</time></trkpt><trkpt lat="48.0293624091157" lon="13.97338052454142"><ele>427.0</ele><time>2026-05-01T13:05:32.001Z</time></trkpt><trkpt lat="48.02956673131975" lon="13.973704967745668"><ele>428.0</ele><time>2026-05-01T13:05:33.001Z</time></trkpt><trkpt lat="48.02977244680283" lon="13.974028737045264"><ele>427.5</ele><time>2026-05-01T13:05:34.001Z</time></trkpt><trkpt lat="48.02997732513662" lon="13.974352842830012"><ele>427.0</ele><time>2026-05-01T13:05:35.001Z</time></trkpt><trkpt lat="48.03018289429534" lon="13.974679106422547"><ele>427.0</ele><time>2026-05-01T13:05:36.001Z</time></trkpt><trkpt lat="48.03038868917289" lon="13.975005366880373"><ele>427.0</ele><time>2026-05-01T13:05:37.001Z</time></trkpt><trkpt lat="48.030593058337445" lon="13.975334089353254"><ele>426.5</ele><time>2026-05-01T13:05:38.001Z</time></trkpt><trkpt lat="48.0307987807698" lon="13.975662384463197"><ele>426.0</ele><time>2026-05-01T13:05:39.001Z</time></trkpt><trkpt lat="48.03100341618026" lon="13.975991830977039"><ele>425.5</ele><time>2026-05-01T13:05:40.001Z</time></trkpt><trkpt lat="48.03120806174008" lon="13.976323393742613"><ele>425.0</ele><time>2026-05-01T13:05:41.001Z</time></trkpt><trkpt lat="48.03141270997195" lon="13.97665386090992"><ele>424.0</ele><time>2026-05-01T13:05:42.001Z</time></trkpt><trkpt lat="48.03161923965306" lon="13.976983307281026"><ele>423.0</ele><time>2026-05-01T13:05:43.001Z</time></trkpt><trkpt lat="48.03182714017306" lon="13.977311398322593"><ele>421.5</ele><time>2026-05-01T13:05:44.001Z</time></trkpt><trkpt lat="48.03203358749694" lon="13.977639476015058"><ele>420.0</ele><time>2026-05-01T13:05:45.001Z</time></trkpt><trkpt lat="48.032239902402345" lon="13.977964314683327"><ele>420.0</ele><time>2026-05-01T13:05:46.001Z</time></trkpt><trkpt lat="48.032447858446204" lon="13.978285475289967"><ele>420.0</ele><time>2026-05-01T13:05:47.001Z</time></trkpt><trkpt lat="48.03264755176986" lon="13.978595556668715"><ele>419.5</ele><time>2026-05-01T13:05:48.001Z</time></trkpt><trkpt lat="48.03283717178218" lon="13.97889606149983"><ele>419.0</ele><time>2026-05-01T13:05:49.001Z</time></trkpt><trkpt lat="48.03303274404261" lon="13.979209278536917"><ele>419.0</ele><time>2026-05-01T13:05:50.001Z</time></trkpt><trkpt lat="48.03323137462433" lon="13.979525637969486"><ele>419.0</ele><time>2026-05-01T13:05:51.001Z</time></trkpt><trkpt lat="48.03343517765604" lon="13.979840790128259"><ele>420.0</ele><time>2026-05-01T13:05:52.001Z</time></trkpt><trkpt lat="48.03364492267608" lon="13.98015399032925"><ele>421.0</ele><time>2026-05-01T13:05:53.001Z</time></trkpt><trkpt lat="48.033860341098084" lon="13.980470440098715"><ele>421.0</ele><time>2026-05-01T13:05:54.001Z</time></trkpt><trkpt lat="48.0340768640799" lon="13.980792530293028"><ele>421.0</ele><time>2026-05-01T13:05:55.001Z</time></trkpt><trkpt lat="48.03429075925671" lon="13.981120802709219"><ele>419.0</ele><time>2026-05-01T13:05:56.001Z</time></trkpt><trkpt lat="48.0345003442116" lon="13.981450854092623"><ele>417.0</ele><time>2026-05-01T13:05:57.001Z</time></trkpt><trkpt lat="48.03470747935135" lon="13.981780703764864"><ele>417.0</ele><time>2026-05-01T13:05:58.001Z</time></trkpt><trkpt lat="48.03491385093953" lon="13.982107765459336"><ele>417.0</ele><time>2026-05-01T13:05:59.001Z</time></trkpt><trkpt lat="48.035122991787595" lon="13.98243201958663"><ele>415.5</ele><time>2026-05-01T13:06:00.001Z</time></trkpt><trkpt lat="48.035329336422144" lon="13.982756879937977"><ele>414.0</ele><time>2026-05-01T13:06:01.001Z</time></trkpt><trkpt lat="48.03553518634465" lon="13.98308637709928"><ele>414.0</ele><time>2026-05-01T13:06:02.001Z</time></trkpt><trkpt lat="48.03573794828143" lon="13.983420833966496"><ele>414.0</ele><time>2026-05-01T13:06:03.001Z</time></trkpt><trkpt lat="48.03593909382432" lon="13.98375745764008"><ele>413.5</ele><time>2026-05-01T13:06:04.001Z</time></trkpt><trkpt lat="48.03613735946607" lon="13.984093568601278"><ele>413.0</ele><time>2026-05-01T13:06:05.001Z</time></trkpt><trkpt lat="48.03633871407314" lon="13.98442342372789"><ele>412.0</ele><time>2026-05-01T13:06:06Z</time></trkpt><trkpt lat="48.03654265198575" lon="13.984753425128678"><ele>411.0</ele><time>2026-05-01T13:06:07Z</time></trkpt><trkpt lat="48.0367479792767" lon="13.985079570762197"><ele>411.0</ele><time>2026-05-01T13:06:08Z</time></trkpt><trkpt lat="48.03695328701394" lon="13.985403567926362"><ele>411.0</ele><time>2026-05-01T13:06:09Z</time></trkpt><trkpt lat="48.03715793697177" lon="13.985723915935703"><ele>413.5</ele><time>2026-05-01T13:06:10Z</time></trkpt><trkpt lat="48.03736255305546" lon="13.986042004334895"><ele>416.0</ele><time>2026-05-01T13:06:11Z</time></trkpt><trkpt lat="48.037564625658554" lon="13.986357719461573"><ele>416.0</ele><time>2026-05-01T13:06:12Z</time></trkpt><trkpt lat="48.03776797662313" lon="13.986674848262716"><ele>416.0</ele><time>2026-05-01T13:06:13Z</time></trkpt><trkpt lat="48.037970601970315" lon="13.98699525218792"><ele>416.0</ele><time>2026-05-01T13:06:14Z</time></trkpt><trkpt lat="48.03817429406846" lon="13.987318779717425"><ele>416.0</ele><time>2026-05-01T13:06:15Z</time></trkpt><trkpt lat="48.038379176257266" lon="13.98764171950472"><ele>416.0</ele><time>2026-05-01T13:06:16Z</time></trkpt><trkpt lat="48.038583733860925" lon="13.987962458034877"><ele>416.0</ele><time>2026-05-01T13:06:17Z</time></trkpt><trkpt lat="48.03878911401754" lon="13.988282574697868"><ele>415.5</ele><time>2026-05-01T13:06:18Z</time></trkpt><trkpt lat="48.038993839276976" lon="13.988602895932894"><ele>415.0</ele><time>2026-05-01T13:06:19Z</time></trkpt><trkpt lat="48.03919631256376" lon="13.988921452676193"><ele>415.0</ele><time>2026-05-01T13:06:20Z</time></trkpt><trkpt lat="48.03939771022221" lon="13.989240485419739"><ele>415.0</ele><time>2026-05-01T13:06:21Z</time></trkpt><trkpt lat="48.039597305905225" lon="13.989558036425217"><ele>415.0</ele><time>2026-05-01T13:06:22Z</time></trkpt><trkpt lat="48.03979701740539" lon="13.989873267448738"><ele>415.0</ele><time>2026-05-01T13:06:23Z</time></trkpt><trkpt lat="48.03999305499542" lon="13.990189107864193"><ele>415.5</ele><time>2026-05-01T13:06:24Z</time></trkpt><trkpt lat="48.040191706432985" lon="13.990505082846935"><ele>416.0</ele><time>2026-05-01T13:06:25Z</time></trkpt><trkpt lat="48.04039072005214" lon="13.990820825831824"><ele>415.5</ele><time>2026-05-01T13:06:26Z</time></trkpt><trkpt lat="48.04059020884704" lon="13.99113504115044"><ele>415.0</ele><time>2026-05-01T13:06:27Z</time></trkpt><trkpt lat="48.04078966194391" lon="13.991447847134708"><ele>416.0</ele><time>2026-05-01T13:06:28Z</time></trkpt><trkpt lat="48.04098931986664" lon="13.991760542235914"><ele>417.0</ele><time>2026-05-01T13:06:29Z</time></trkpt><trkpt lat="48.04118862977227" lon="13.992071034671095"><ele>417.0</ele><time>2026-05-01T13:06:30Z</time></trkpt><trkpt lat="48.04138773831626" lon="13.992381201655496"><ele>417.0</ele><time>2026-05-01T13:06:31Z</time></trkpt><trkpt lat="48.04158469102812" lon="13.99269498694204"><ele>417.0</ele><time>2026-05-01T13:06:32Z</time></trkpt><trkpt lat="48.04178204605688" lon="13.99301457492535"><ele>417.0</ele><time>2026-05-01T13:06:33Z</time></trkpt><trkpt lat="48.041981565671826" lon="13.993335649868065"><ele>417.0</ele><time>2026-05-01T13:06:34Z</time></trkpt><trkpt lat="48.04218169445623" lon="13.993655751989404"><ele>417.0</ele><time>2026-05-01T13:06:35Z</time></trkpt><trkpt lat="48.04238642585652" lon="13.99397727420992"><ele>417.5</ele><time>2026-05-01T13:06:36Z</time></trkpt><trkpt lat="48.042590226734305" lon="13.994301283676599"><ele>418.0</ele><time>2026-05-01T13:06:37.001Z</time></trkpt><trkpt lat="48.042787962512705" lon="13.994633815495808"><ele>418.0</ele><time>2026-05-01T13:06:38.001Z</time></trkpt><trkpt lat="48.04298088144636" lon="13.994974152929936"><ele>418.0</ele><time>2026-05-01T13:06:39.001Z</time></trkpt><trkpt lat="48.043170583888354" lon="13.995324191936245"><ele>417.5</ele><time>2026-05-01T13:06:40.001Z</time></trkpt><trkpt lat="48.04335663092221" lon="13.995679131542335"><ele>417.0</ele><time>2026-05-01T13:06:41.001Z</time></trkpt><trkpt lat="48.043540128559506" lon="13.996036986847521"><ele>417.0</ele><time>2026-05-01T13:06:42.001Z</time></trkpt><trkpt lat="48.04372066126191" lon="13.996399074672825"><ele>417.0</ele><time>2026-05-01T13:06:43.001Z</time></trkpt><trkpt lat="48.04389675973735" lon="13.9967670884957"><ele>416.5</ele><time>2026-05-01T13:06:44.001Z</time></trkpt><trkpt lat="48.04406972017923" lon="13.997136823500387"><ele>416.0</ele><time>2026-05-01T13:06:45.001Z</time></trkpt><trkpt lat="48.04423941346466" lon="13.997508775418039"><ele>416.0</ele><time>2026-05-01T13:06:46.001Z</time></trkpt><trkpt lat="48.044403361424585" lon="13.997885637262973"><ele>416.0</ele><time>2026-05-01T13:06:47.001Z</time></trkpt><trkpt lat="48.04455974059415" lon="13.998266621271108"><ele>416.5</ele><time>2026-05-01T13:06:48.001Z</time></trkpt><trkpt lat="48.044711271991346" lon="13.998650702174059"><ele>417.0</ele><time>2026-05-01T13:06:49.001Z</time></trkpt><trkpt lat="48.04485969508606" lon="13.999036083728345"><ele>416.0</ele><time>2026-05-01T13:06:50.001Z</time></trkpt><trkpt lat="48.04500427924552" lon="13.99942541172037"><ele>415.0</ele><time>2026-05-01T13:06:51.001Z</time></trkpt><trkpt lat="48.0451458364075" lon="13.999817291701152"><ele>415.0</ele><time>2026-05-01T13:06:52.001Z</time></trkpt><trkpt lat="48.04528444365733" lon="14.000211652880452"><ele>415.0</ele><time>2026-05-01T13:06:53.001Z</time></trkpt><trkpt lat="48.04541780273853" lon="14.000610873539118"><ele>415.5</ele><time>2026-05-01T13:06:54.001Z</time></trkpt><trkpt lat="48.04554501540144" lon="14.00101404816559"><ele>416.0</ele><time>2026-05-01T13:06:55.001Z</time></trkpt><trkpt lat="48.04566385196193" lon="14.001424027308843"><ele>416.0</ele><time>2026-05-01T13:06:56.001Z</time></trkpt><trkpt lat="48.04577884483333" lon="14.001834729475096"><ele>416.0</ele><time>2026-05-01T13:06:57.001Z</time></trkpt><trkpt lat="48.04589212542849" lon="14.002248978932975"><ele>416.0</ele><time>2026-05-01T13:06:58.001Z</time></trkpt><trkpt lat="48.046004818879766" lon="14.002664654220133"><ele>416.0</ele><time>2026-05-01T13:06:59.001Z</time></trkpt><trkpt lat="48.046116382618095" lon="14.003082482279888"><ele>416.5</ele><time>2026-05-01T13:07:00.001Z</time></trkpt><trkpt lat="48.04622478596513" lon="14.003501771592681"><ele>417.0</ele><time>2026-05-01T13:07:01.001Z</time></trkpt><trkpt lat="48.046332829184266" lon="14.003920281184943"><ele>417.0</ele><time>2026-05-01T13:07:02.001Z</time></trkpt><trkpt lat="48.04644313824158" lon="14.004339948660364"><ele>417.0</ele><time>2026-05-01T13:07:03.001Z</time></trkpt><trkpt lat="48.0465539810712" lon="14.004760227702791"><ele>417.5</ele><time>2026-05-01T13:07:04.001Z</time></trkpt><trkpt lat="48.04666369313621" lon="14.005179925727392"><ele>418.0</ele><time>2026-05-01T13:07:05.001Z</time></trkpt><trkpt lat="48.04677199783353" lon="14.005599851545345"><ele>417.0</ele><time>2026-05-01T13:07:06.001Z</time></trkpt><trkpt lat="48.04688025128572" lon="14.006022345885327"><ele>416.0</ele><time>2026-05-01T13:07:07.001Z</time></trkpt><trkpt lat="48.046989578349304" lon="14.006443671008205"><ele>415.5</ele><time>2026-05-01T13:07:08.001Z</time></trkpt><trkpt lat="48.04709821740686" lon="14.006872579719962"><ele>415.0</ele><time>2026-05-01T13:07:09.001Z</time></trkpt><trkpt lat="48.04720645249348" lon="14.007299206422124"><ele>414.0</ele><time>2026-05-01T13:07:10.001Z</time></trkpt><trkpt lat="48.047315226751216" lon="14.00772588951131"><ele>413.0</ele><time>2026-05-01T13:07:11.001Z</time></trkpt><trkpt lat="48.047427072249604" lon="14.008150893932685"><ele>412.5</ele><time>2026-05-01T13:07:12.001Z</time></trkpt><trkpt lat="48.04754138381652" lon="14.008574447073622"><ele>412.0</ele><time>2026-05-01T13:07:13.001Z</time></trkpt><trkpt lat="48.04765780275773" lon="14.008995920020055"><ele>412.5</ele><time>2026-05-01T13:07:14.001Z</time></trkpt><trkpt lat="48.04777414894672" lon="14.009415176450503"><ele>413.0</ele><time>2026-05-01T13:07:15.001Z</time></trkpt><trkpt lat="48.04789393137935" lon="14.0098313349477"><ele>413.5</ele><time>2026-05-01T13:07:16.001Z</time></trkpt><trkpt lat="48.0480185414536" lon="14.010242493609637"><ele>414.0</ele><time>2026-05-01T13:07:17.001Z</time></trkpt><trkpt lat="48.048148984966744" lon="14.010648621333978"><ele>413.5</ele><time>2026-05-01T13:07:18.001Z</time></trkpt><trkpt lat="48.04828033744607" lon="14.011054005087988"><ele>413.0</ele><time>2026-05-01T13:07:19.001Z</time></trkpt><trkpt lat="48.048412435467526" lon="14.011459711336686"><ele>413.5</ele><time>2026-05-01T13:07:20.001Z</time></trkpt><trkpt lat="48.04854580219912" lon="14.011862689696848"><ele>414.0</ele><time>2026-05-01T13:07:21.001Z</time></trkpt><trkpt lat="48.04868071987569" lon="14.012260408422815"><ele>414.5</ele><time>2026-05-01T13:07:22.001Z</time></trkpt><trkpt lat="48.04881700011652" lon="14.012654316339104"><ele>415.0</ele><time>2026-05-01T13:07:23.001Z</time></trkpt><trkpt lat="48.04895737403733" lon="14.013045832035216"><ele>414.5</ele><time>2026-05-01T13:07:24.001Z</time></trkpt><trkpt lat="48.04910108248122" lon="14.01343739206615"><ele>414.0</ele><time>2026-05-01T13:07:25.001Z</time></trkpt><trkpt lat="48.04924500133086" lon="14.013827622656999"><ele>412.0</ele><time>2026-05-01T13:07:26.001Z</time></trkpt><trkpt lat="48.049388966658086" lon="14.014217394144962"><ele>410.0</ele><time>2026-05-01T13:07:27.001Z</time></trkpt><trkpt lat="48.049533525361184" lon="14.014607553873537"><ele>411.0</ele><time>2026-05-01T13:07:28.001Z</time></trkpt><trkpt lat="48.049676390768" lon="14.014999254407408"><ele>412.0</ele><time>2026-05-01T13:07:29.001Z</time></trkpt><trkpt lat="48.049820057753884" lon="14.015391704982262"><ele>412.0</ele><time>2026-05-01T13:07:30.001Z</time></trkpt><trkpt lat="48.04996503422169" lon="14.015784527940674"><ele>412.0</ele><time>2026-05-01T13:07:31.001Z</time></trkpt><trkpt lat="48.05010907361598" lon="14.016179221226885"><ele>412.0</ele><time>2026-05-01T13:07:32.001Z</time></trkpt><trkpt lat="48.05025238882345" lon="14.016573319914178"><ele>412.0</ele><time>2026-05-01T13:07:33.001Z</time></trkpt><trkpt lat="48.05039483540615" lon="14.016968281990021"><ele>407.5</ele><time>2026-05-01T13:07:34.001Z</time></trkpt><trkpt lat="48.05053906857765" lon="14.017361740631074"><ele>403.0</ele><time>2026-05-01T13:07:35.001Z</time></trkpt><trkpt lat="48.05068430281328" lon="14.017753640311948"><ele>397.5</ele><time>2026-05-01T13:07:36.001Z</time></trkpt><trkpt lat="48.050829531608144" lon="14.01814342829754"><ele>392.0</ele><time>2026-05-01T13:07:37.001Z</time></trkpt><trkpt lat="48.05097254482403" lon="14.018531818562236"><ele>391.5</ele><time>2026-05-01T13:07:38.001Z</time></trkpt><trkpt lat="48.051114278690086" lon="14.018920742582052"><ele>391.0</ele><time>2026-05-01T13:07:39.001Z</time></trkpt><trkpt lat="48.05125670886499" lon="14.019308007071574"><ele>391.0</ele><time>2026-05-01T13:07:40.001Z</time></trkpt><trkpt lat="48.05139802274696" lon="14.01969318145243"><ele>391.0</ele><time>2026-05-01T13:07:41.001Z</time></trkpt><trkpt lat="48.051538362778565" lon="14.020079802363208"><ele>391.0</ele><time>2026-05-01T13:07:42.001Z</time></trkpt><trkpt lat="48.05167754130189" lon="14.020467759182358"><ele>391.0</ele><time>2026-05-01T13:07:43.001Z</time></trkpt><trkpt lat="48.05181629076796" lon="14.020853600850234"><ele>392.5</ele><time>2026-05-01T13:07:44.001Z</time></trkpt><trkpt lat="48.05195573303942" lon="14.021238529455067"><ele>394.0</ele><time>2026-05-01T13:07:45.001Z</time></trkpt><trkpt lat="48.052096172061" lon="14.021621543122693"><ele>396.0</ele><time>2026-05-01T13:07:46.001Z</time></trkpt><trkpt lat="48.052234907358276" lon="14.022001540276234"><ele>398.0</ele><time>2026-05-01T13:07:47.001Z</time></trkpt><trkpt lat="48.0523748112518" lon="14.022381219041943"><ele>403.5</ele><time>2026-05-01T13:07:48.001Z</time></trkpt><trkpt lat="48.05251512734807" lon="14.022758702304834"><ele>409.0</ele><time>2026-05-01T13:07:49.001Z</time></trkpt><trkpt lat="48.05265649864108" lon="14.023134624645088"><ele>410.0</ele><time>2026-05-01T13:07:50.001Z</time></trkpt><trkpt lat="48.05279592018349" lon="14.023507994322266"><ele>411.0</ele><time>2026-05-01T13:07:51.001Z</time></trkpt><trkpt lat="48.05293375617905" lon="14.0238798532167"><ele>412.5</ele><time>2026-05-01T13:07:52.001Z</time></trkpt><trkpt lat="48.05307079854679" lon="14.024257123590107"><ele>414.0</ele><time>2026-05-01T13:07:53.001Z</time></trkpt><trkpt lat="48.05320900149188" lon="14.024637671631641"><ele>413.0</ele><time>2026-05-01T13:07:54.001Z</time></trkpt><trkpt lat="48.053350521479025" lon="14.025018450962587"><ele>412.0</ele><time>2026-05-01T13:07:55.001Z</time></trkpt><trkpt lat="48.05349077225612" lon="14.02539938204584"><ele>412.0</ele><time>2026-05-01T13:07:56.001Z</time></trkpt><trkpt lat="48.05363045063793" lon="14.025780970881135"><ele>412.0</ele><time>2026-05-01T13:07:57.001Z</time></trkpt><trkpt lat="48.053770592566075" lon="14.026160196744833"><ele>412.0</ele><time>2026-05-01T13:07:58.001Z</time></trkpt><trkpt lat="48.053912467432205" lon="14.026532845395604"><ele>412.0</ele><time>2026-05-01T13:07:59.001Z</time></trkpt><trkpt lat="48.0540524177432" lon="14.026882574109687"><ele>411.5</ele><time>2026-05-01T13:08:00.001Z</time></trkpt><trkpt lat="48.05419540916014" lon="14.027219149698299"><ele>411.0</ele><time>2026-05-01T13:08:01.001Z</time></trkpt><trkpt lat="48.05434761467438" lon="14.027553344571961"><ele>410.0</ele><time>2026-05-01T13:08:02.001Z</time></trkpt><trkpt lat="48.054503654542174" lon="14.027884377971086"><ele>409.0</ele><time>2026-05-01T13:08:03.001Z</time></trkpt><trkpt lat="48.05466336789125" lon="14.028208249841647"><ele>409.0</ele><time>2026-05-01T13:08:04.001Z</time></trkpt><trkpt lat="48.05482334585612" lon="14.028525433297139"><ele>409.0</ele><time>2026-05-01T13:08:05.001Z</time></trkpt><trkpt lat="48.0549842748285" lon="14.02883276663163"><ele>409.0</ele><time>2026-05-01T13:08:06.001Z</time></trkpt><trkpt lat="48.055148853983745" lon="14.029131483641606"><ele>409.0</ele><time>2026-05-01T13:08:07.001Z</time></trkpt><trkpt lat="48.05531395524422" lon="14.02942042311684"><ele>409.5</ele><time>2026-05-01T13:08:08.001Z</time></trkpt><trkpt lat="48.05547822229102" lon="14.02969919371516"><ele>410.0</ele><time>2026-05-01T13:08:09.001Z</time></trkpt><trkpt lat="48.05564388252403" lon="14.029967585564245"><ele>409.0</ele><time>2026-05-01T13:08:10.001Z</time></trkpt><trkpt lat="48.05581016206559" lon="14.030228996046882"><ele>408.0</ele><time>2026-05-01T13:08:11.001Z</time></trkpt><trkpt lat="48.05597289760499" lon="14.030477096114213"><ele>408.0</ele><time>2026-05-01T13:08:12Z</time></trkpt><trkpt lat="48.05612793993735" lon="14.030709120470085"><ele>408.0</ele><time>2026-05-01T13:08:13Z</time></trkpt><trkpt lat="48.056283956823435" lon="14.030932574882158"><ele>408.0</ele><time>2026-05-01T13:08:14Z</time></trkpt><trkpt lat="48.056443254233926" lon="14.031150581291374"><ele>408.33333333333337</ele><time>2026-05-01T13:08:15Z</time></trkpt><trkpt lat="48.05660351900698" lon="14.031362923228585"><ele>408.6666666666667</ele><time>2026-05-01T13:08:16Z</time></trkpt><trkpt lat="48.056761769233894" lon="14.031566589584143"><ele>409.0</ele><time>2026-05-01T13:08:17Z</time></trkpt><trkpt lat="48.05692257089573" lon="14.031767524596537"><ele>408.0</ele><time>2026-05-01T13:08:18Z</time></trkpt><trkpt lat="48.05708259607619" lon="14.031959266932015"><ele>407.0</ele><time>2026-05-01T13:08:19Z</time></trkpt><trkpt lat="48.05723809515056" lon="14.032141507909186"><ele>406.0</ele><time>2026-05-01T13:08:20Z</time></trkpt><trkpt lat="48.057391528218695" lon="14.032315513872991"><ele>407.6666666666667</ele><time>2026-05-01T13:08:21Z</time></trkpt><trkpt lat="48.057547466288085" lon="14.032485399810543"><ele>409.33333333333337</ele><time>2026-05-01T13:08:22Z</time></trkpt><trkpt lat="48.05771536865836" lon="14.032666640003299"><ele>411.0</ele><time>2026-05-01T13:08:23Z</time></trkpt><trkpt lat="48.05789524535675" lon="14.032858878193144"><ele>411.0</ele><time>2026-05-01T13:08:24Z</time></trkpt><trkpt lat="48.058082868672365" lon="14.033059399564946"><ele>411.0</ele><time>2026-05-01T13:08:25Z</time></trkpt><trkpt lat="48.0582802068665" lon="14.033268075280327"><ele>410.5</ele><time>2026-05-01T13:08:26Z</time></trkpt><trkpt lat="48.05848522401" lon="14.033482469255848"><ele>410.0</ele><time>2026-05-01T13:08:27Z</time></trkpt><trkpt lat="48.05869586695458" lon="14.033704155594933"><ele>410.0</ele><time>2026-05-01T13:08:28Z</time></trkpt><trkpt lat="48.05891045841465" lon="14.03393362880385"><ele>410.0</ele><time>2026-05-01T13:08:29Z</time></trkpt><trkpt lat="48.05913099830137" lon="14.03416977140954"><ele>412.0</ele><time>2026-05-01T13:08:30Z</time></trkpt><trkpt lat="48.05935167412319" lon="14.034406633526814"><ele>414.0</ele><time>2026-05-01T13:08:31Z</time></trkpt><trkpt lat="48.059573796773456" lon="14.0346443810807"><ele>414.0</ele><time>2026-05-01T13:08:32Z</time></trkpt><trkpt lat="48.05979927997683" lon="14.034882647149836"><ele>414.0</ele><time>2026-05-01T13:08:33Z</time></trkpt><trkpt lat="48.06002450820505" lon="14.03512227045146"><ele>414.0</ele><time>2026-05-01T13:08:34Z</time></trkpt><trkpt lat="48.06025190309255" lon="14.035359985536196"><ele>414.0</ele><time>2026-05-01T13:08:35Z</time></trkpt><trkpt lat="48.060480746275424" lon="14.03560378553852"><ele>414.0</ele><time>2026-05-01T13:08:36Z</time></trkpt><trkpt lat="48.06071109500193" lon="14.035844015610524"><ele>414.0</ele><time>2026-05-01T13:08:37Z</time></trkpt><trkpt lat="48.0609412699961" lon="14.036084615151843"><ele>414.0</ele><time>2026-05-01T13:08:38Z</time></trkpt><trkpt lat="48.06117168675354" lon="14.036330144526575"><ele>414.0</ele><time>2026-05-01T13:08:39Z</time></trkpt><trkpt lat="48.061402027956014" lon="14.036575892372325"><ele>415.5</ele><time>2026-05-01T13:08:40Z</time></trkpt><trkpt lat="48.06163052080274" lon="14.03682394857429"><ele>417.0</ele><time>2026-05-01T13:08:41Z</time></trkpt><trkpt lat="48.0618625213147" lon="14.037069677481785"><ele>417.0</ele><time>2026-05-01T13:08:42Z</time></trkpt><trkpt lat="48.06209653615545" lon="14.037318041233213"><ele>417.0</ele><time>2026-05-01T13:08:43Z</time></trkpt><trkpt lat="48.062332322274685" lon="14.037569153647318"><ele>416.5</ele><time>2026-05-01T13:08:44Z</time></trkpt><trkpt lat="48.06257039797863" lon="14.037817340242897"><ele>416.0</ele><time>2026-05-01T13:08:45Z</time></trkpt><trkpt lat="48.06280507726891" lon="14.038062482376603"><ele>416.0</ele><time>2026-05-01T13:08:46Z</time></trkpt><trkpt lat="48.063026180542394" lon="14.038297379775962"><ele>416.0</ele><time>2026-05-01T13:08:47Z</time></trkpt><trkpt lat="48.06324558534414" lon="14.038527519808182"><ele>416.0</ele><time>2026-05-01T13:08:48Z</time></trkpt><trkpt lat="48.06346185967153" lon="14.038747409987682"><ele>416.0</ele><time>2026-05-01T13:08:49Z</time></trkpt><trkpt lat="48.063688619022884" lon="14.03897659531194"><ele>416.0</ele><time>2026-05-01T13:08:50Z</time></trkpt><trkpt lat="48.06392672045913" lon="14.039206673297898"><ele>416.0</ele><time>2026-05-01T13:08:51Z</time></trkpt><trkpt lat="48.06417003701605" lon="14.039444334420468"><ele>417.5</ele><time>2026-05-01T13:08:52Z</time></trkpt><trkpt lat="48.0644151521629" lon="14.039691765355066"><ele>419.0</ele><time>2026-05-01T13:08:53Z</time></trkpt><trkpt lat="48.06465936580487" lon="14.039953764021362"><ele>416.5</ele><time>2026-05-01T13:08:54.001Z</time></trkpt><trkpt lat="48.064901343269085" lon="14.040222087645448"><ele>414.0</ele><time>2026-05-01T13:08:55.001Z</time></trkpt><trkpt lat="48.065145360343685" lon="14.040501233430083"><ele>414.0</ele><time>2026-05-01T13:08:56.001Z</time></trkpt><trkpt lat="48.06539106904229" lon="14.040780399790998"><ele>414.0</ele><time>2026-05-01T13:08:57.001Z</time></trkpt><trkpt lat="48.06563615827877" lon="14.041052854800611"><ele>413.0</ele><time>2026-05-01T13:08:58.001Z</time></trkpt><trkpt lat="48.06588552789978" lon="14.041318622621597"><ele>412.0</ele><time>2026-05-01T13:08:59.001Z</time></trkpt><trkpt lat="48.06613582238247" lon="14.041585383390643"><ele>412.5</ele><time>2026-05-01T13:09:00.001Z</time></trkpt><trkpt lat="48.0663858235272" lon="14.041852286735562"><ele>413.0</ele><time>2026-05-01T13:09:01.001Z</time></trkpt><trkpt lat="48.066634883365566" lon="14.042120457801564"><ele>413.0</ele><time>2026-05-01T13:09:02.001Z</time></trkpt><trkpt lat="48.06688492555182" lon="14.042388025165453"><ele>413.0</ele><time>2026-05-01T13:09:03.001Z</time></trkpt><trkpt lat="48.06713554897414" lon="14.042651383328764"><ele>414.0</ele><time>2026-05-01T13:09:04.001Z</time></trkpt><trkpt lat="48.06738454616039" lon="14.042914461308728"><ele>415.0</ele><time>2026-05-01T13:09:05.001Z</time></trkpt><trkpt lat="48.067633053685284" lon="14.04317832855285"><ele>413.0</ele><time>2026-05-01T13:09:06.001Z</time></trkpt><trkpt lat="48.06788142615562" lon="14.04344028777038"><ele>411.0</ele><time>2026-05-01T13:09:07.001Z</time></trkpt><trkpt lat="48.06812888564243" lon="14.043700644706501"><ele>410.0</ele><time>2026-05-01T13:09:08.001Z</time></trkpt><trkpt lat="48.06837704475107" lon="14.043963068640114"><ele>409.0</ele><time>2026-05-01T13:09:09.001Z</time></trkpt><trkpt lat="48.06862661889122" lon="14.044227475541708"><ele>409.0</ele><time>2026-05-01T13:09:10.001Z</time></trkpt><trkpt lat="48.068876496482794" lon="14.04449298398354"><ele>409.0</ele><time>2026-05-01T13:09:11.001Z</time></trkpt><trkpt lat="48.06912705539358" lon="14.044758283796805"><ele>410.5</ele><time>2026-05-01T13:09:12.001Z</time></trkpt><trkpt lat="48.0693781586112" lon="14.045023594596268"><ele>412.0</ele><time>2026-05-01T13:09:13.001Z</time></trkpt><trkpt lat="48.06962804012234" lon="14.045289429868323"><ele>412.0</ele><time>2026-05-01T13:09:14.001Z</time></trkpt><trkpt lat="48.069877989541176" lon="14.045551986403224"><ele>412.0</ele><time>2026-05-01T13:09:15.001Z</time></trkpt><trkpt lat="48.07012678379245" lon="14.04581733899126"><ele>414.0</ele><time>2026-05-01T13:09:16.001Z</time></trkpt><trkpt lat="48.07037624998702" lon="14.046079886277223"><ele>416.0</ele><time>2026-05-01T13:09:17.001Z</time></trkpt><trkpt lat="48.070626293369656" lon="14.046343033108588"><ele>417.5</ele><time>2026-05-01T13:09:18.001Z</time></trkpt><trkpt lat="48.070875843269064" lon="14.046607924106839"><ele>419.0</ele><time>2026-05-01T13:09:19.001Z</time></trkpt><trkpt lat="48.071125394163715" lon="14.04687453698306"><ele>419.5</ele><time>2026-05-01T13:09:20.001Z</time></trkpt><trkpt lat="48.07137402157561" lon="14.047142228910849"><ele>420.0</ele><time>2026-05-01T13:09:21.001Z</time></trkpt><trkpt lat="48.07162156716639" lon="14.047409668267871"><ele>420.0</ele><time>2026-05-01T13:09:22.001Z</time></trkpt><trkpt lat="48.07186754595005" lon="14.04767713031655"><ele>420.0</ele><time>2026-05-01T13:09:23.001Z</time></trkpt><trkpt lat="48.07211164350565" lon="14.047947480890157"><ele>420.0</ele><time>2026-05-01T13:09:24.001Z</time></trkpt><trkpt lat="48.0723539718769" lon="14.048221080285016"><ele>420.0</ele><time>2026-05-01T13:09:25.001Z</time></trkpt><trkpt lat="48.072597958283176" lon="14.048494837838346"><ele>417.5</ele><time>2026-05-01T13:09:26.001Z</time></trkpt><trkpt lat="48.07283902548956" lon="14.048771254272392"><ele>415.0</ele><time>2026-05-01T13:09:27.001Z</time></trkpt><trkpt lat="48.073080714723154" lon="14.049048079404368"><ele>414.5</ele><time>2026-05-01T13:09:28.001Z</time></trkpt><trkpt lat="48.07331947866893" lon="14.04932649940579"><ele>414.0</ele><time>2026-05-01T13:09:29.001Z</time></trkpt><trkpt lat="48.07356092070823" lon="14.049606562329657"><ele>414.0</ele><time>2026-05-01T13:09:30.001Z</time></trkpt><trkpt lat="48.073802709274595" lon="14.049884867620298"><ele>414.0</ele><time>2026-05-01T13:09:31.001Z</time></trkpt><trkpt lat="48.07404376687711" lon="14.050164933221899"><ele>409.5</ele><time>2026-05-01T13:09:32.001Z</time></trkpt><trkpt lat="48.07428201588577" lon="14.050448398444136"><ele>405.0</ele><time>2026-05-01T13:09:33.001Z</time></trkpt><trkpt lat="48.07451689854116" lon="14.050737421277821"><ele>405.0</ele><time>2026-05-01T13:09:34.001Z</time></trkpt><trkpt lat="48.074751916840455" lon="14.051028692815851"><ele>405.0</ele><time>2026-05-01T13:09:35.001Z</time></trkpt><trkpt lat="48.07499212558226" lon="14.051315456798857"><ele>406.0</ele><time>2026-05-01T13:09:36.001Z</time></trkpt><trkpt lat="48.075237324643254" lon="14.05159684665801"><ele>407.0</ele><time>2026-05-01T13:09:37.001Z</time></trkpt><trkpt lat="48.07548622620376" lon="14.051874772067755"><ele>407.0</ele><time>2026-05-01T13:09:38.001Z</time></trkpt><trkpt lat="48.075733766127236" lon="14.05215809604664"><ele>407.0</ele><time>2026-05-01T13:09:39.001Z</time></trkpt><trkpt lat="48.075979146624206" lon="14.052444698072788"><ele>405.5</ele><time>2026-05-01T13:09:40.001Z</time></trkpt><trkpt lat="48.076222456259536" lon="14.05273118366862"><ele>404.0</ele><time>2026-05-01T13:09:41.001Z</time></trkpt><trkpt lat="48.07646630083244" lon="14.053016687204662"><ele>404.5</ele><time>2026-05-01T13:09:42.001Z</time></trkpt><trkpt lat="48.07670915861766" lon="14.053298561210473"><ele>405.0</ele><time>2026-05-01T13:09:43.001Z</time></trkpt><trkpt lat="48.07694895804754" lon="14.053579311546315"><ele>405.0</ele><time>2026-05-01T13:09:44.001Z</time></trkpt><trkpt lat="48.077188675275174" lon="14.053860374300614"><ele>405.0</ele><time>2026-05-01T13:09:45.001Z</time></trkpt><trkpt lat="48.07742829078834" lon="14.054143669930651"><ele>403.5</ele><time>2026-05-01T13:09:46.001Z</time></trkpt><trkpt lat="48.07766801971415" lon="14.054428246978905"><ele>402.0</ele><time>2026-05-01T13:09:47.001Z</time></trkpt><trkpt lat="48.077905790489076" lon="14.054709574299698"><ele>401.5</ele><time>2026-05-01T13:09:48.001Z</time></trkpt><trkpt lat="48.078143747215385" lon="14.054986662748808"><ele>401.0</ele><time>2026-05-01T13:09:49.001Z</time></trkpt><trkpt lat="48.078381839420885" lon="14.05526184927338"><ele>401.0</ele><time>2026-05-01T13:09:50.001Z</time></trkpt><trkpt lat="48.07861989465853" lon="14.055535608491024"><ele>401.0</ele><time>2026-05-01T13:09:51.001Z</time></trkpt><trkpt lat="48.078855997823325" lon="14.055811515404192"><ele>400.5</ele><time>2026-05-01T13:09:52.001Z</time></trkpt><trkpt lat="48.07909086476074" lon="14.05608737399159"><ele>400.0</ele><time>2026-05-01T13:09:53.001Z</time></trkpt><trkpt lat="48.07932499277318" lon="14.05636378922052"><ele>398.5</ele><time>2026-05-01T13:09:54.001Z</time></trkpt><trkpt lat="48.079560850590305" lon="14.05664067649444"><ele>397.0</ele><time>2026-05-01T13:09:55.001Z</time></trkpt><trkpt lat="48.07979822508898" lon="14.056917164076564"><ele>397.0</ele><time>2026-05-01T13:09:56.001Z</time></trkpt><trkpt lat="48.08003888193767" lon="14.057191233998607"><ele>397.0</ele><time>2026-05-01T13:09:57.001Z</time></trkpt><trkpt lat="48.080279153529325" lon="14.05746679306666"><ele>396.0</ele><time>2026-05-01T13:09:58.001Z</time></trkpt><trkpt lat="48.080519550494934" lon="14.05774574054663"><ele>395.0</ele><time>2026-05-01T13:09:59.001Z</time></trkpt><trkpt lat="48.080758712968176" lon="14.058026266863974"><ele>394.5</ele><time>2026-05-01T13:10:00.001Z</time></trkpt><trkpt lat="48.08099786934609" lon="14.058304639394882"><ele>394.0</ele><time>2026-05-01T13:10:01.001Z</time></trkpt><trkpt lat="48.08123464123433" lon="14.058580513250012"><ele>394.0</ele><time>2026-05-01T13:10:02.001Z</time></trkpt><trkpt lat="48.081469551985414" lon="14.058849217575236"><ele>394.0</ele><time>2026-05-01T13:10:03.001Z</time></trkpt><trkpt lat="48.08169474502154" lon="14.059109684572972"><ele>394.5</ele><time>2026-05-01T13:10:04.001Z</time></trkpt><trkpt lat="48.08191834117358" lon="14.059370040056068"><ele>395.0</ele><time>2026-05-01T13:10:05.001Z</time></trkpt><trkpt lat="48.08215014216675" lon="14.059640626135591"><ele>395.0</ele><time>2026-05-01T13:10:06.001Z</time></trkpt><trkpt lat="48.08238525117858" lon="14.059914334728765"><ele>395.0</ele><time>2026-05-01T13:10:07.001Z</time></trkpt><trkpt lat="48.08261981558717" lon="14.06019188318868"><ele>395.0</ele><time>2026-05-01T13:10:08.001Z</time></trkpt><trkpt lat="48.082856688816555" lon="14.060470957194159"><ele>395.0</ele><time>2026-05-01T13:10:09.001Z</time></trkpt><trkpt lat="48.08309383994716" lon="14.060750729307358"><ele>394.0</ele><time>2026-05-01T13:10:10.001Z</time></trkpt><trkpt lat="48.083330722428116" lon="14.061029887815726"><ele>393.0</ele><time>2026-05-01T13:10:11.001Z</time></trkpt><trkpt lat="48.08356725991015" lon="14.061305196885549"><ele>393.0</ele><time>2026-05-01T13:10:12.001Z</time></trkpt><trkpt lat="48.08380266232698" lon="14.061576950526394"><ele>393.0</ele><time>2026-05-01T13:10:13.001Z</time></trkpt><trkpt lat="48.08403855083604" lon="14.061847916533583"><ele>392.0</ele><time>2026-05-01T13:10:14.001Z</time></trkpt><trkpt lat="48.08427368801829" lon="14.062121098345422"><ele>391.0</ele><time>2026-05-01T13:10:15.001Z</time></trkpt><trkpt lat="48.08450833383653" lon="14.062397199230666"><ele>391.0</ele><time>2026-05-01T13:10:16.001Z</time></trkpt><trkpt lat="48.08474298995774" lon="14.062675585755304"><ele>391.0</ele><time>2026-05-01T13:10:17.001Z</time></trkpt><trkpt lat="48.08497817593504" lon="14.062954886065917"><ele>390.5</ele><time>2026-05-01T13:10:18Z</time></trkpt><trkpt lat="48.085212981464316" lon="14.063232464373382"><ele>390.0</ele><time>2026-05-01T13:10:19Z</time></trkpt><trkpt lat="48.08545066704128" lon="14.063510233507246"><ele>389.5</ele><time>2026-05-01T13:10:20Z</time></trkpt><trkpt lat="48.08568922335244" lon="14.063786272764627"><ele>389.0</ele><time>2026-05-01T13:10:21Z</time></trkpt><trkpt lat="48.085929050836114" lon="14.06406110031205"><ele>389.0</ele><time>2026-05-01T13:10:22Z</time></trkpt><trkpt lat="48.08617007220194" lon="14.06433697247983"><ele>389.0</ele><time>2026-05-01T13:10:23Z</time></trkpt><trkpt lat="48.08641152236169" lon="14.064615370293955"><ele>388.5</ele><time>2026-05-01T13:10:24Z</time></trkpt><trkpt lat="48.08665216188852" lon="14.064893439364397"><ele>388.0</ele><time>2026-05-01T13:10:25Z</time></trkpt><trkpt lat="48.08688956723084" lon="14.065167315194593"><ele>387.5</ele><time>2026-05-01T13:10:26Z</time></trkpt><trkpt lat="48.08712500129427" lon="14.065441541424548"><ele>387.0</ele><time>2026-05-01T13:10:27Z</time></trkpt><trkpt lat="48.08735876592937" lon="14.065719855455407"><ele>388.0</ele><time>2026-05-01T13:10:28Z</time></trkpt><trkpt lat="48.08759217368766" lon="14.066001831670809"><ele>389.0</ele><time>2026-05-01T13:10:29Z</time></trkpt><trkpt lat="48.087827108299905" lon="14.066282497195315"><ele>389.0</ele><time>2026-05-01T13:10:30Z</time></trkpt><trkpt lat="48.08806488535342" lon="14.066561535324395"><ele>389.0</ele><time>2026-05-01T13:10:31Z</time></trkpt><trkpt lat="48.08830326873418" lon="14.066839628965536"><ele>389.0</ele><time>2026-05-01T13:10:32Z</time></trkpt><trkpt lat="48.08854210487035" lon="14.06711954083787"><ele>389.0</ele><time>2026-05-01T13:10:33Z</time></trkpt><trkpt lat="48.08878199811628" lon="14.067400045060499"><ele>389.0</ele><time>2026-05-01T13:10:34Z</time></trkpt><trkpt lat="48.08902190347156" lon="14.067680948596125"><ele>389.0</ele><time>2026-05-01T13:10:35Z</time></trkpt><trkpt lat="48.089260619654354" lon="14.067965112263682"><ele>389.0</ele><time>2026-05-01T13:10:36Z</time></trkpt><trkpt lat="48.08949970841204" lon="14.068252952754031"><ele>389.0</ele><time>2026-05-01T13:10:37Z</time></trkpt><trkpt lat="48.08973779163366" lon="14.06854305849504"><ele>387.0</ele><time>2026-05-01T13:10:38Z</time></trkpt><trkpt lat="48.08997604046484" lon="14.068834259500726"><ele>385.0</ele><time>2026-05-01T13:10:39Z</time></trkpt><trkpt lat="48.09021388115494" lon="14.069127933885603"><ele>385.0</ele><time>2026-05-01T13:10:40Z</time></trkpt><trkpt lat="48.09044887448192" lon="14.069424852698406"><ele>385.0</ele><time>2026-05-01T13:10:41Z</time></trkpt><trkpt lat="48.090680798461506" lon="14.069723735281393"><ele>385.0</ele><time>2026-05-01T13:10:42Z</time></trkpt><trkpt lat="48.09090940066516" lon="14.070021531953612"><ele>385.0</ele><time>2026-05-01T13:10:43Z</time></trkpt><trkpt lat="48.09113711654768" lon="14.070320554550818"><ele>385.0</ele><time>2026-05-01T13:10:44Z</time></trkpt><trkpt lat="48.09136279358596" lon="14.070620836102904"><ele>385.0</ele><time>2026-05-01T13:10:45Z</time></trkpt><trkpt lat="48.09158675537561" lon="14.070925078437865"><ele>384.0</ele><time>2026-05-01T13:10:46Z</time></trkpt><trkpt lat="48.09181041308628" lon="14.071230148647896"><ele>383.0</ele><time>2026-05-01T13:10:47Z</time></trkpt><trkpt lat="48.092033135885124" lon="14.071537725185886"><ele>382.0</ele><time>2026-05-01T13:10:48Z</time></trkpt><trkpt lat="48.09225461076399" lon="14.071850329355023"><ele>381.0</ele><time>2026-05-01T13:10:49Z</time></trkpt><trkpt lat="48.092472021248355" lon="14.072161705933603"><ele>381.5</ele><time>2026-05-01T13:10:50Z</time></trkpt><trkpt lat="48.0926880327163" lon="14.07246892767829"><ele>382.0</ele><time>2026-05-01T13:10:51Z</time></trkpt><trkpt lat="48.092899498195216" lon="14.072775572097301"><ele>382.0</ele><time>2026-05-01T13:10:52Z</time></trkpt><trkpt lat="48.09310815436976" lon="14.073081620465329"><ele>382.0</ele><time>2026-05-01T13:10:53Z</time></trkpt><trkpt lat="48.09331229068097" lon="14.073386180418163"><ele>382.0</ele><time>2026-05-01T13:10:54Z</time></trkpt><trkpt lat="48.093509442458455" lon="14.073684279760448"><ele>382.0</ele><time>2026-05-01T13:10:55Z</time></trkpt><trkpt lat="48.09370055436232" lon="14.073976325635254"><ele>383.5</ele><time>2026-05-01T13:10:56Z</time></trkpt><trkpt lat="48.09388844052165" lon="14.074266071892158"><ele>385.0</ele><time>2026-05-01T13:10:57Z</time></trkpt><trkpt lat="48.09407361684357" lon="14.07455593818388"><ele>385.5</ele><time>2026-05-01T13:10:58Z</time></trkpt><trkpt lat="48.094256187812114" lon="14.074843677311621"><ele>386.0</ele><time>2026-05-01T13:10:59Z</time></trkpt><trkpt lat="48.09443694561521" lon="14.075128082219987"><ele>386.0</ele><time>2026-05-01T13:11:00Z</time></trkpt><trkpt lat="48.09461766308982" lon="14.075412178579784"><ele>386.0</ele><time>2026-05-01T13:11:01Z</time></trkpt><trkpt lat="48.094801366037224" lon="14.07569578733296"><ele>385.5</ele><time>2026-05-01T13:11:02Z</time></trkpt><trkpt lat="48.09498550566265" lon="14.075978913837204"><ele>385.0</ele><time>2026-05-01T13:11:03Z</time></trkpt><trkpt lat="48.09516975374271" lon="14.076262451774141"><ele>385.0</ele><time>2026-05-01T13:11:04Z</time></trkpt><trkpt lat="48.09535498319885" lon="14.076551107429749"><ele>385.0</ele><time>2026-05-01T13:11:05Z</time></trkpt><trkpt lat="48.095542410258574" lon="14.076841199089516"><ele>385.5</ele><time>2026-05-01T13:11:06Z</time></trkpt><trkpt lat="48.095733165575766" lon="14.07713006993785"><ele>386.0</ele><time>2026-05-01T13:11:07Z</time></trkpt><trkpt lat="48.09592350336824" lon="14.077423563499664"><ele>386.5</ele><time>2026-05-01T13:11:08.001Z</time></trkpt><trkpt lat="48.09611392955614" lon="14.077721007683596"><ele>387.0</ele><time>2026-05-01T13:11:09.001Z</time></trkpt><trkpt lat="48.096307105412954" lon="14.078019754801725"><ele>388.0</ele><time>2026-05-01T13:11:10.001Z</time></trkpt><trkpt lat="48.09650127438164" lon="14.078319857329223"><ele>389.0</ele><time>2026-05-01T13:11:11.001Z</time></trkpt><trkpt lat="48.096698099014624" lon="14.078621808176994"><ele>389.0</ele><time>2026-05-01T13:11:12.001Z</time></trkpt><trkpt lat="48.09689505924969" lon="14.078929018832383"><ele>389.0</ele><time>2026-05-01T13:11:13.001Z</time></trkpt><trkpt lat="48.09709098272777" lon="14.079240072139585"><ele>389.5</ele><time>2026-05-01T13:11:14.001Z</time></trkpt><trkpt lat="48.097290817108146" lon="14.079551403334921"><ele>390.0</ele><time>2026-05-01T13:11:15.001Z</time></trkpt><trkpt lat="48.0974918919223" lon="14.079864771299018"><ele>390.5</ele><time>2026-05-01T13:11:16.001Z</time></trkpt><trkpt lat="48.09769321950039" lon="14.080176272148181"><ele>391.0</ele><time>2026-05-01T13:11:17.001Z</time></trkpt><trkpt lat="48.09789659034385" lon="14.08048781917145"><ele>391.5</ele><time>2026-05-01T13:11:18.001Z</time></trkpt><trkpt lat="48.098101459252085" lon="14.080797662897568"><ele>392.0</ele><time>2026-05-01T13:11:19.001Z</time></trkpt><trkpt lat="48.098297906240006" lon="14.081098965723427"><ele>392.0</ele><time>2026-05-01T13:11:20.001Z</time></trkpt><trkpt lat="48.09848667075843" lon="14.081391380613818"><ele>392.0</ele><time>2026-05-01T13:11:21.001Z</time></trkpt><trkpt lat="48.098684311768295" lon="14.08169974339738"><ele>392.0</ele><time>2026-05-01T13:11:22.001Z</time></trkpt><trkpt lat="48.098884040723306" lon="14.082014438174395"><ele>392.0</ele><time>2026-05-01T13:11:23.001Z</time></trkpt><trkpt lat="48.09908473559107" lon="14.082328709995105"><ele>392.5</ele><time>2026-05-01T13:11:24.001Z</time></trkpt><trkpt lat="48.099289310085375" lon="14.082642872533903"><ele>393.0</ele><time>2026-05-01T13:11:25.001Z</time></trkpt><trkpt lat="48.099492279101106" lon="14.082957426326614"><ele>392.5</ele><time>2026-05-01T13:11:26.001Z</time></trkpt><trkpt lat="48.099696108351665" lon="14.08327010655704"><ele>392.0</ele><time>2026-05-01T13:11:27.001Z</time></trkpt><trkpt lat="48.09990030129973" lon="14.08358280792568"><ele>392.5</ele><time>2026-05-01T13:11:28.001Z</time></trkpt><trkpt lat="48.10010456490178" lon="14.083900927616018"><ele>393.0</ele><time>2026-05-01T13:11:29.001Z</time></trkpt><trkpt lat="48.10031001408665" lon="14.084219467461388"><ele>393.5</ele><time>2026-05-01T13:11:30.001Z</time></trkpt><trkpt lat="48.10051814986518" lon="14.08453988102606"><ele>394.0</ele><time>2026-05-01T13:11:31.001Z</time></trkpt><trkpt lat="48.10072509633586" lon="14.084861658964039"><ele>396.5</ele><time>2026-05-01T13:11:32.001Z</time></trkpt><trkpt lat="48.1009348000379" lon="14.085181203802028"><ele>399.0</ele><time>2026-05-01T13:11:33.001Z</time></trkpt><trkpt lat="48.10114762303584" lon="14.08549594500594"><ele>398.0</ele><time>2026-05-01T13:11:34.001Z</time></trkpt><trkpt lat="48.1013611257528" lon="14.085808463228242"><ele>397.0</ele><time>2026-05-01T13:11:35.001Z</time></trkpt><trkpt lat="48.101571817222464" lon="14.0861206164004"><ele>394.5</ele><time>2026-05-01T13:11:36.001Z</time></trkpt><trkpt lat="48.10177893540838" lon="14.08643298715533"><ele>392.0</ele><time>2026-05-01T13:11:37.001Z</time></trkpt><trkpt lat="48.101972405111674" lon="14.086728083322674"><ele>392.0</ele><time>2026-05-01T13:11:38.001Z</time></trkpt><trkpt lat="48.10215876777808" lon="14.087013411850043"><ele>392.0</ele><time>2026-05-01T13:11:39.001Z</time></trkpt><trkpt lat="48.10235435336142" lon="14.087307384707735"><ele>391.5</ele><time>2026-05-01T13:11:40.001Z</time></trkpt><trkpt lat="48.102556824906735" lon="14.087611885303085"><ele>391.0</ele><time>2026-05-01T13:11:41.001Z</time></trkpt><trkpt lat="48.1027626078543" lon="14.087922561135208"><ele>391.0</ele><time>2026-05-01T13:11:42.001Z</time></trkpt><trkpt lat="48.102974650062635" lon="14.088233882381168"><ele>391.0</ele><time>2026-05-01T13:11:43.001Z</time></trkpt><trkpt lat="48.103192004927976" lon="14.088546786200553"><ele>391.0</ele><time>2026-05-01T13:11:44.001Z</time></trkpt><trkpt lat="48.103413442047064" lon="14.08886202136395"><ele>391.0</ele><time>2026-05-01T13:11:45.001Z</time></trkpt><trkpt lat="48.10363712295416" lon="14.089178164952164"><ele>391.5</ele><time>2026-05-01T13:11:46.001Z</time></trkpt><trkpt lat="48.10386053826318" lon="14.089491921178869"><ele>392.0</ele><time>2026-05-01T13:11:47.001Z</time></trkpt><trkpt lat="48.104082430518545" lon="14.089805963708473"><ele>393.0</ele><time>2026-05-01T13:11:48.001Z</time></trkpt><trkpt lat="48.10430080176821" lon="14.090122689695216"><ele>394.0</ele><time>2026-05-01T13:11:49.001Z</time></trkpt><trkpt lat="48.104513095471525" lon="14.090440826125997"><ele>395.0</ele><time>2026-05-01T13:11:50.001Z</time></trkpt><trkpt lat="48.10472469921541" lon="14.090758873003084"><ele>396.0</ele><time>2026-05-01T13:11:51.001Z</time></trkpt><trkpt lat="48.10493962993462" lon="14.091072213424747"><ele>396.0</ele><time>2026-05-01T13:11:52.001Z</time></trkpt><trkpt lat="48.10516131830814" lon="14.09137880754701"><ele>396.0</ele><time>2026-05-01T13:11:53.001Z</time></trkpt><trkpt lat="48.10538472468024" lon="14.091679978511237"><ele>398.0</ele><time>2026-05-01T13:11:54.001Z</time></trkpt><trkpt lat="48.10560838332852" lon="14.091982837288512"><ele>400.0</ele><time>2026-05-01T13:11:55.001Z</time></trkpt><trkpt lat="48.10583321303371" lon="14.092284483278632"><ele>397.5</ele><time>2026-05-01T13:11:56.001Z</time></trkpt><trkpt lat="48.10605851503399" lon="14.092585016665563"><ele>395.0</ele><time>2026-05-01T13:11:57.001Z</time></trkpt><trkpt lat="48.10628353214546" lon="14.09288741931539"><ele>395.0</ele><time>2026-05-01T13:11:58.001Z</time></trkpt><trkpt lat="48.106509718352946" lon="14.093189090931208"><ele>395.0</ele><time>2026-05-01T13:11:59.001Z</time></trkpt><trkpt lat="48.1067367047727" lon="14.093487601814203"><ele>394.0</ele><time>2026-05-01T13:12:00.001Z</time></trkpt><trkpt lat="48.10696307538426" lon="14.09378251227183"><ele>393.0</ele><time>2026-05-01T13:12:01.001Z</time></trkpt><trkpt lat="48.107191122474966" lon="14.094076426695041"><ele>394.0</ele><time>2026-05-01T13:12:02.001Z</time></trkpt><trkpt lat="48.1074193376766" lon="14.094366938540766"><ele>395.0</ele><time>2026-05-01T13:12:03.001Z</time></trkpt><trkpt lat="48.1076501468743" lon="14.094659356569023"><ele>395.0</ele><time>2026-05-01T13:12:04.001Z</time></trkpt><trkpt lat="48.10788138424358" lon="14.094953875816998"><ele>395.0</ele><time>2026-05-01T13:12:05.001Z</time></trkpt><trkpt lat="48.10811127221384" lon="14.095244351211884"><ele>395.5</ele><time>2026-05-01T13:12:06.001Z</time></trkpt><trkpt lat="48.108342280032396" lon="14.09553474400955"><ele>396.0</ele><time>2026-05-01T13:12:07.001Z</time></trkpt><trkpt lat="48.108575370718086" lon="14.09582610443101"><ele>396.0</ele><time>2026-05-01T13:12:08.001Z</time></trkpt><trkpt lat="48.108808774025384" lon="14.096116509792306"><ele>396.0</ele><time>2026-05-01T13:12:09.001Z</time></trkpt><trkpt lat="48.10904335668851" lon="14.09640468292259"><ele>396.0</ele><time>2026-05-01T13:12:10.001Z</time></trkpt><trkpt lat="48.109277737087055" lon="14.096688946131996"><ele>396.0</ele><time>2026-05-01T13:12:11.001Z</time></trkpt><trkpt lat="48.109512616216016" lon="14.096973016131013"><ele>396.0</ele><time>2026-05-01T13:12:12.001Z</time></trkpt><trkpt lat="48.109746553994064" lon="14.097256059612118"><ele>396.0</ele><time>2026-05-01T13:12:13.001Z</time></trkpt><trkpt lat="48.109982434085616" lon="14.097538536084903"><ele>393.5</ele><time>2026-05-01T13:12:14.001Z</time></trkpt><trkpt lat="48.11022298645279" lon="14.09781790747452"><ele>391.0</ele><time>2026-05-01T13:12:15.001Z</time></trkpt><trkpt lat="48.11046352944387" lon="14.098096055021362"><ele>391.5</ele><time>2026-05-01T13:12:16.001Z</time></trkpt><trkpt lat="48.11070343203367" lon="14.098373573242213"><ele>392.0</ele><time>2026-05-01T13:12:17.001Z</time></trkpt><trkpt lat="48.110944193146096" lon="14.09865553033998"><ele>393.0</ele><time>2026-05-01T13:12:18.001Z</time></trkpt><trkpt lat="48.11118600441213" lon="14.09893346002157"><ele>394.0</ele><time>2026-05-01T13:12:19.001Z</time></trkpt><trkpt lat="48.11142620650461" lon="14.09920985761369"><ele>393.0</ele><time>2026-05-01T13:12:20.001Z</time></trkpt><trkpt lat="48.11166303946541" lon="14.099485698941095"><ele>392.0</ele><time>2026-05-01T13:12:21.001Z</time></trkpt><trkpt lat="48.111900021802406" lon="14.099757473492907"><ele>389.5</ele><time>2026-05-01T13:12:22.001Z</time></trkpt><trkpt lat="48.11213829562985" lon="14.100029008024496"><ele>387.0</ele><time>2026-05-01T13:12:23.001Z</time></trkpt><trkpt lat="48.112374580792" lon="14.100300312349205"><ele>386.0</ele><time>2026-05-01T13:12:24Z</time></trkpt><trkpt lat="48.11261026823677" lon="14.10057165307148"><ele>385.0</ele><time>2026-05-01T13:12:25Z</time></trkpt><trkpt lat="48.11284386124827" lon="14.100842829665405"><ele>384.5</ele><time>2026-05-01T13:12:26Z</time></trkpt><trkpt lat="48.11307660426894" lon="14.101113907102718"><ele>384.0</ele><time>2026-05-01T13:12:27Z</time></trkpt><trkpt lat="48.113309491757825" lon="14.101383413901454"><ele>384.0</ele><time>2026-05-01T13:12:28Z</time></trkpt><trkpt lat="48.11354089804873" lon="14.101651680895866"><ele>384.0</ele><time>2026-05-01T13:12:29Z</time></trkpt><trkpt lat="48.1137728824251" lon="14.101917932667483"><ele>384.0</ele><time>2026-05-01T13:12:30Z</time></trkpt><trkpt lat="48.11400512099489" lon="14.102184796041033"><ele>384.0</ele><time>2026-05-01T13:12:31Z</time></trkpt><trkpt lat="48.114236336347" lon="14.102450211419262"><ele>385.0</ele><time>2026-05-01T13:12:32Z</time></trkpt><trkpt lat="48.114466130577846" lon="14.102714913856614"><ele>386.0</ele><time>2026-05-01T13:12:33Z</time></trkpt><trkpt lat="48.11469550887819" lon="14.102977705034588"><ele>385.5</ele><time>2026-05-01T13:12:34Z</time></trkpt><trkpt lat="48.11492275337873" lon="14.103240135061162"><ele>385.0</ele><time>2026-05-01T13:12:35Z</time></trkpt><trkpt lat="48.115148018215265" lon="14.103497192420116"><ele>385.0</ele><time>2026-05-01T13:12:36Z</time></trkpt><trkpt lat="48.11536382883909" lon="14.10374593436479"><ele>385.0</ele><time>2026-05-01T13:12:37Z</time></trkpt><trkpt lat="48.11558018960839" lon="14.103996498474327"><ele>385.5</ele><time>2026-05-01T13:12:38Z</time></trkpt><trkpt lat="48.115794375296666" lon="14.104249662647462"><ele>386.0</ele><time>2026-05-01T13:12:39Z</time></trkpt><trkpt lat="48.116010663773515" lon="14.104499524346462"><ele>386.0</ele><time>2026-05-01T13:12:40Z</time></trkpt><trkpt lat="48.11622717190478" lon="14.104748605403326"><ele>386.0</ele><time>2026-05-01T13:12:41Z</time></trkpt><trkpt lat="48.11644265554311" lon="14.104992185832488"><ele>386.0</ele><time>2026-05-01T13:12:42Z</time></trkpt><trkpt lat="48.11665460210669" lon="14.105237813796961"><ele>386.0</ele><time>2026-05-01T13:12:43Z</time></trkpt><trkpt lat="48.116866482047584" lon="14.105483760672303"><ele>386.0</ele><time>2026-05-01T13:12:44Z</time></trkpt><trkpt lat="48.117077913182385" lon="14.105726614037309"><ele>386.0</ele><time>2026-05-01T13:12:45Z</time></trkpt><trkpt lat="48.11728633406219" lon="14.10596986022483"><ele>387.0</ele><time>2026-05-01T13:12:46Z</time></trkpt><trkpt lat="48.117492931860504" lon="14.10621217616224"><ele>388.0</ele><time>2026-05-01T13:12:47Z</time></trkpt><trkpt lat="48.117699836625384" lon="14.106452920424182"><ele>385.5</ele><time>2026-05-01T13:12:48Z</time></trkpt><trkpt lat="48.11790705574811" lon="14.106692977391464"><ele>383.0</ele><time>2026-05-01T13:12:49Z</time></trkpt><trkpt lat="48.11811680812262" lon="14.1069355992475"><ele>387.0</ele><time>2026-05-01T13:12:50Z</time></trkpt><trkpt lat="48.11833107578037" lon="14.107174970326232"><ele>391.0</ele><time>2026-05-01T13:12:51Z</time></trkpt><trkpt lat="48.118550144879904" lon="14.107412026439503"><ele>391.0</ele><time>2026-05-01T13:12:52Z</time></trkpt><trkpt lat="48.118772951141345" lon="14.107651997971928"><ele>391.0</ele><time>2026-05-01T13:12:53Z</time></trkpt><trkpt lat="48.11900995162935" lon="14.107905513627827"><ele>391.5</ele><time>2026-05-01T13:12:54Z</time></trkpt><trkpt lat="48.11924676195008" lon="14.108165409797799"><ele>392.0</ele><time>2026-05-01T13:12:55Z</time></trkpt><trkpt lat="48.11948320440273" lon="14.108434720020949"><ele>392.0</ele><time>2026-05-01T13:12:56Z</time></trkpt><trkpt lat="48.11972070676821" lon="14.108710060010008"><ele>392.0</ele><time>2026-05-01T13:12:57Z</time></trkpt><trkpt lat="48.11995950943463" lon="14.108987392608"><ele>389.0</ele><time>2026-05-01T13:12:58Z</time></trkpt><trkpt lat="48.12019729169122" lon="14.109264647577644"><ele>386.0</ele><time>2026-05-01T13:12:59Z</time></trkpt><trkpt lat="48.12043122801029" lon="14.109544065008446"><ele>386.0</ele><time>2026-05-01T13:13:00Z</time></trkpt><trkpt lat="48.120659832744096" lon="14.109826862636725"><ele>386.0</ele><time>2026-05-01T13:13:01Z</time></trkpt><trkpt lat="48.1208900927133" lon="14.110110452817343"><ele>385.0</ele><time>2026-05-01T13:13:02Z</time></trkpt><trkpt lat="48.12112431165894" lon="14.110391571747519"><ele>384.0</ele><time>2026-05-01T13:13:03Z</time></trkpt><trkpt lat="48.12135899602695" lon="14.110670318654897"><ele>383.0</ele><time>2026-05-01T13:13:04Z</time></trkpt><trkpt lat="48.121595295484944" lon="14.110945156753282"><ele>382.0</ele><time>2026-05-01T13:13:05Z</time></trkpt><trkpt lat="48.12183599227139" lon="14.111219910399637"><ele>382.0</ele><time>2026-05-01T13:13:06Z</time></trkpt><trkpt lat="48.12207762369442" lon="14.111495996725644"><ele>382.0</ele><time>2026-05-01T13:13:07Z</time></trkpt><trkpt lat="48.12231758816018" lon="14.111771374827372"><ele>380.5</ele><time>2026-05-01T13:13:08Z</time></trkpt><trkpt lat="48.122556254763786" lon="14.112047144248862"><ele>379.0</ele><time>2026-05-01T13:13:09Z</time></trkpt><trkpt lat="48.12279480341971" lon="14.112322453379042"><ele>378.5</ele><time>2026-05-01T13:13:10Z</time></trkpt><trkpt lat="48.12303212986688" lon="14.11259660431561"><ele>378.0</ele><time>2026-05-01T13:13:11Z</time></trkpt><trkpt lat="48.123268660226" lon="14.112870632455905"><ele>378.0</ele><time>2026-05-01T13:13:12Z</time></trkpt><trkpt lat="48.1235038224355" lon="14.113144994374812"><ele>378.0</ele><time>2026-05-01T13:13:13Z</time></trkpt><trkpt lat="48.12373917902155" lon="14.113418908715175"><ele>377.5</ele><time>2026-05-01T13:13:14Z</time></trkpt><trkpt lat="48.12397328354893" lon="14.113691970342472"><ele>377.0</ele><time>2026-05-01T13:13:15Z</time></trkpt><trkpt lat="48.12420900100208" lon="14.113962078777256"><ele>376.0</ele><time>2026-05-01T13:13:16Z</time></trkpt><trkpt lat="48.12444619147474" lon="14.114235340002184"><ele>375.0</ele><time>2026-05-01T13:13:17Z</time></trkpt><trkpt lat="48.124682147523124" lon="14.11450824071762"><ele>374.5</ele><time>2026-05-01T13:13:18Z</time></trkpt><trkpt lat="48.12491829592193" lon="14.114782154252545"><ele>374.0</ele><time>2026-05-01T13:13:19.001Z</time></trkpt><trkpt lat="48.12515410187577" lon="14.115056982901162"><ele>374.0</ele><time>2026-05-01T13:13:20.001Z</time></trkpt><trkpt lat="48.12539117733015" lon="14.115331488388781"><ele>374.0</ele><time>2026-05-01T13:13:21.001Z</time></trkpt><trkpt lat="48.12562888326039" lon="14.115603564563669"><ele>374.0</ele><time>2026-05-01T13:13:22.001Z</time></trkpt><trkpt lat="48.12586846274819" lon="14.11587451611852"><ele>374.0</ele><time>2026-05-01T13:13:23.001Z</time></trkpt><trkpt lat="48.126107852902614" lon="14.116145822667741"><ele>374.0</ele><time>2026-05-01T13:13:24.001Z</time></trkpt><trkpt lat="48.12634692788047" lon="14.116420668778837"><ele>374.0</ele><time>2026-05-01T13:13:25.001Z</time></trkpt><trkpt lat="48.12658557724598" lon="14.116697659119952"><ele>372.5</ele><time>2026-05-01T13:13:26.001Z</time></trkpt><trkpt lat="48.126823287726985" lon="14.116977543765604"><ele>371.0</ele><time>2026-05-01T13:13:27.001Z</time></trkpt><trkpt lat="48.1270613101495" lon="14.117254173617592"><ele>371.5</ele><time>2026-05-01T13:13:28.001Z</time></trkpt><trkpt lat="48.127300699160536" lon="14.117530386742814"><ele>372.0</ele><time>2026-05-01T13:13:29.001Z</time></trkpt><trkpt lat="48.127539647401896" lon="14.117808321155161"><ele>372.0</ele><time>2026-05-01T13:13:30.001Z</time></trkpt><trkpt lat="48.127778780244554" lon="14.11808654893687"><ele>372.0</ele><time>2026-05-01T13:13:31.001Z</time></trkpt><trkpt lat="48.12801814253917" lon="14.11836673407988"><ele>371.5</ele><time>2026-05-01T13:13:32.001Z</time></trkpt><trkpt lat="48.128258451421495" lon="14.118649696862619"><ele>371.0</ele><time>2026-05-01T13:13:33.001Z</time></trkpt><trkpt lat="48.128499008117274" lon="14.11893385383183"><ele>371.0</ele><time>2026-05-01T13:13:34.001Z</time></trkpt><trkpt lat="48.12874003950405" lon="14.119219530148955"><ele>371.0</ele><time>2026-05-01T13:13:35.001Z</time></trkpt><trkpt lat="48.12897955748537" lon="14.119510263095057"><ele>372.0</ele><time>2026-05-01T13:13:36.001Z</time></trkpt><trkpt lat="48.129217617692596" lon="14.119796111155066"><ele>373.0</ele><time>2026-05-01T13:13:37.001Z</time></trkpt><trkpt lat="48.12945225992093" lon="14.120089736872362"><ele>373.0</ele><time>2026-05-01T13:13:38.001Z</time></trkpt><trkpt lat="48.12968898053834" lon="14.120387676568235"><ele>373.0</ele><time>2026-05-01T13:13:39.001Z</time></trkpt><trkpt lat="48.12992230827219" lon="14.120685906847346"><ele>373.5</ele><time>2026-05-01T13:13:40.001Z</time></trkpt><trkpt lat="48.13014918180838" lon="14.120989597481966"><ele>374.0</ele><time>2026-05-01T13:13:41.001Z</time></trkpt><trkpt lat="48.13037503821048" lon="14.121300050303732"><ele>374.0</ele><time>2026-05-01T13:13:42.001Z</time></trkpt><trkpt lat="48.130602301042074" lon="14.121613158663543"><ele>374.0</ele><time>2026-05-01T13:13:43.001Z</time></trkpt><trkpt lat="48.1308254339997" lon="14.121927602257855"><ele>374.0</ele><time>2026-05-01T13:13:44.001Z</time></trkpt><trkpt lat="48.1310443948674" lon="14.122242340403842"><ele>374.0</ele><time>2026-05-01T13:13:45.001Z</time></trkpt><trkpt lat="48.1312604502144" lon="14.122560861988266"><ele>374.5</ele><time>2026-05-01T13:13:46.001Z</time></trkpt><trkpt lat="48.13147215298862" lon="14.122888856504929"><ele>375.0</ele><time>2026-05-01T13:13:47.001Z</time></trkpt><trkpt lat="48.13168354380804" lon="14.12322106645495"><ele>374.5</ele><time>2026-05-01T13:13:48.001Z</time></trkpt><trkpt lat="48.13189355167987" lon="14.123554461185593"><ele>374.0</ele><time>2026-05-01T13:13:49.001Z</time></trkpt><trkpt lat="48.13209985377975" lon="14.12388968645715"><ele>372.0</ele><time>2026-05-01T13:13:50.001Z</time></trkpt><trkpt lat="48.132303478784905" lon="14.124229294862467"><ele>370.0</ele><time>2026-05-01T13:13:51.001Z</time></trkpt><trkpt lat="48.132503097676434" lon="14.124572946514363"><ele>371.5</ele><time>2026-05-01T13:13:52.001Z</time></trkpt><trkpt lat="48.13269998253789" lon="14.124918065070725"><ele>373.0</ele><time>2026-05-01T13:13:53.001Z</time></trkpt><trkpt lat="48.13289479920389" lon="14.12526520598403"><ele>373.0</ele><time>2026-05-01T13:13:54.001Z</time></trkpt><trkpt lat="48.13308708161465" lon="14.125618327277483"><ele>373.0</ele><time>2026-05-01T13:13:55.001Z</time></trkpt><trkpt lat="48.13327670753197" lon="14.125976815172864"><ele>372.5</ele><time>2026-05-01T13:13:56.001Z</time></trkpt><trkpt lat="48.13346264466094" lon="14.12633599089004"><ele>372.0</ele><time>2026-05-01T13:13:57.001Z</time></trkpt><trkpt lat="48.13363822365924" lon="14.126681860731033"><ele>372.0</ele><time>2026-05-01T13:13:58.001Z</time></trkpt><trkpt lat="48.133813961635255" lon="14.12702877781153"><ele>372.0</ele><time>2026-05-01T13:13:59.001Z</time></trkpt><trkpt lat="48.13399309143613" lon="14.127389709401319"><ele>369.0</ele><time>2026-05-01T13:14:00.001Z</time></trkpt><trkpt lat="48.134169299083425" lon="14.127759209478084"><ele>366.0</ele><time>2026-05-01T13:14:01.001Z</time></trkpt><trkpt lat="48.134347346524564" lon="14.128135095810736"><ele>366.0</ele><time>2026-05-01T13:14:02.001Z</time></trkpt><trkpt lat="48.13452236290813" lon="14.128516079378949"><ele>366.0</ele><time>2026-05-01T13:14:03.001Z</time></trkpt><trkpt lat="48.1346935932171" lon="14.128897101791868"><ele>367.5</ele><time>2026-05-01T13:14:04.001Z</time></trkpt><trkpt lat="48.134865130372596" lon="14.129278698591296"><ele>369.0</ele><time>2026-05-01T13:14:05.001Z</time></trkpt><trkpt lat="48.13503506104984" lon="14.129654178044783"><ele>370.5</ele><time>2026-05-01T13:14:06.001Z</time></trkpt><trkpt lat="48.13520596118349" lon="14.130026304419761"><ele>372.0</ele><time>2026-05-01T13:14:07.001Z</time></trkpt><trkpt lat="48.13537620596309" lon="14.13039757225795"><ele>372.5</ele><time>2026-05-01T13:14:08.001Z</time></trkpt><trkpt lat="48.135544858908254" lon="14.130771475216017"><ele>373.0</ele><time>2026-05-01T13:14:09.001Z</time></trkpt><trkpt lat="48.1357169719879" lon="14.131145106912724"><ele>371.0</ele><time>2026-05-01T13:14:10.001Z</time></trkpt><trkpt lat="48.13588826129577" lon="14.131519813861336"><ele>369.0</ele><time>2026-05-01T13:14:11.001Z</time></trkpt><trkpt lat="48.1360592760006" lon="14.131894137419463"><ele>369.0</ele><time>2026-05-01T13:14:12.001Z</time></trkpt><trkpt lat="48.13623185535383" lon="14.132269167589802"><ele>369.0</ele><time>2026-05-01T13:14:13.001Z</time></trkpt><trkpt lat="48.1364066925664" lon="14.13264242156286"><ele>368.0</ele><time>2026-05-01T13:14:14.001Z</time></trkpt><trkpt lat="48.13658641362224" lon="14.133014950854086"><ele>367.0</ele><time>2026-05-01T13:14:15.001Z</time></trkpt><trkpt lat="48.13676958250237" lon="14.133390891857362"><ele>367.0</ele><time>2026-05-01T13:14:16.001Z</time></trkpt><trkpt lat="48.136951233530255" lon="14.133770107782723"><ele>367.0</ele><time>2026-05-01T13:14:17.001Z</time></trkpt><trkpt lat="48.137130762824675" lon="14.134147820054242"><ele>367.5</ele><time>2026-05-01T13:14:18.001Z</time></trkpt><trkpt lat="48.137305862675234" lon="14.134525895962591"><ele>368.0</ele><time>2026-05-01T13:14:19.001Z</time></trkpt><trkpt lat="48.13747694907902" lon="14.134906022163683"><ele>368.5</ele><time>2026-05-01T13:14:20.001Z</time></trkpt><trkpt lat="48.137647459761304" lon="14.135287174157465"><ele>369.0</ele><time>2026-05-01T13:14:21.001Z</time></trkpt><trkpt lat="48.13782134561509" lon="14.135666148846845"><ele>369.0</ele><time>2026-05-01T13:14:22.001Z</time></trkpt><trkpt lat="48.13799852099043" lon="14.13604211655798"><ele>369.0</ele><time>2026-05-01T13:14:23.001Z</time></trkpt><trkpt lat="48.13817547273818" lon="14.136416962290678"><ele>370.0</ele><time>2026-05-01T13:14:24.001Z</time></trkpt><trkpt lat="48.13835231533339" lon="14.136791930231805"><ele>371.0</ele><time>2026-05-01T13:14:25.001Z</time></trkpt><trkpt lat="48.13853096976567" lon="14.137166273138599"><ele>370.5</ele><time>2026-05-01T13:14:26.001Z</time></trkpt><trkpt lat="48.138709857431216" lon="14.137537491008754"><ele>370.0</ele><time>2026-05-01T13:14:27.001Z</time></trkpt><trkpt lat="48.13889040616698" lon="14.137909800564096"><ele>370.0</ele><time>2026-05-01T13:14:28.001Z</time></trkpt><trkpt lat="48.13907014057958" lon="14.138280267497729"><ele>370.0</ele><time>2026-05-01T13:14:29.001Z</time></trkpt><trkpt lat="48.13925284720274" lon="14.13864859804901"><ele>370.0</ele><time>2026-05-01T13:14:30Z</time></trkpt><trkpt lat="48.13943911674926" lon="14.139011599994957"><ele>370.0</ele><time>2026-05-01T13:14:31Z</time></trkpt><trkpt lat="48.13962944943203" lon="14.139369640692205"><ele>368.5</ele><time>2026-05-01T13:14:32Z</time></trkpt><trkpt lat="48.1398273559414" lon="14.139718619354273"><ele>367.0</ele><time>2026-05-01T13:14:33Z</time></trkpt><trkpt lat="48.14002981497871" lon="14.140062524890524"><ele>367.0</ele><time>2026-05-01T13:14:34Z</time></trkpt><trkpt lat="48.14023542086216" lon="14.140403551908822"><ele>367.0</ele><time>2026-05-01T13:14:35Z</time></trkpt><trkpt lat="48.14044249221684" lon="14.140739349826994"><ele>366.5</ele><time>2026-05-01T13:14:36Z</time></trkpt><trkpt lat="48.14065283490647" lon="14.141071638772504"><ele>366.0</ele><time>2026-05-01T13:14:37Z</time></trkpt><trkpt lat="48.1408635400944" lon="14.141398371852448"><ele>365.5</ele><time>2026-05-01T13:14:38Z</time></trkpt><trkpt lat="48.1410721531381" lon="14.14171669075827"><ele>365.0</ele><time>2026-05-01T13:14:39Z</time></trkpt><trkpt lat="48.14127767512972" lon="14.142027342841823"><ele>365.0</ele><time>2026-05-01T13:14:40Z</time></trkpt><trkpt lat="48.14148448662426" lon="14.142333780122984"><ele>365.0</ele><time>2026-05-01T13:14:41Z</time></trkpt><trkpt lat="48.141694897871076" lon="14.142636779675225"><ele>365.5</ele><time>2026-05-01T13:14:42Z</time></trkpt><trkpt lat="48.14190891637028" lon="14.142935510328687"><ele>366.0</ele><time>2026-05-01T13:14:43Z</time></trkpt><trkpt lat="48.14212765718427" lon="14.14322782101155"><ele>366.5</ele><time>2026-05-01T13:14:44Z</time></trkpt><trkpt lat="48.14234945723854" lon="14.143520552271683"><ele>367.0</ele><time>2026-05-01T13:14:45Z</time></trkpt><trkpt lat="48.1425756702239" lon="14.143814114502437"><ele>368.0</ele><time>2026-05-01T13:14:46Z</time></trkpt><trkpt lat="48.14280203348664" lon="14.144108431355212"><ele>369.0</ele><time>2026-05-01T13:14:47Z</time></trkpt><trkpt lat="48.14302996684564" lon="14.144396847289341"><ele>368.5</ele><time>2026-05-01T13:14:48Z</time></trkpt><trkpt lat="48.143258755655594" lon="14.144678687070336"><ele>368.0</ele><time>2026-05-01T13:14:49Z</time></trkpt><trkpt lat="48.1434870281183" lon="14.144954052070744"><ele>367.5</ele><time>2026-05-01T13:14:50Z</time></trkpt><trkpt lat="48.14371714205317" lon="14.145223967660188"><ele>367.0</ele><time>2026-05-01T13:14:51Z</time></trkpt><trkpt lat="48.143948478546584" lon="14.145487994666505"><ele>368.0</ele><time>2026-05-01T13:14:52Z</time></trkpt><trkpt lat="48.14417849116401" lon="14.145755268435499"><ele>369.0</ele><time>2026-05-01T13:14:53Z</time></trkpt><trkpt lat="48.14440935949973" lon="14.146023668641678"><ele>369.0</ele><time>2026-05-01T13:14:54Z</time></trkpt><trkpt lat="48.14464102343403" lon="14.146288149183015"><ele>369.0</ele><time>2026-05-01T13:14:55Z</time></trkpt><trkpt lat="48.14487205376869" lon="14.146554181620242"><ele>369.5</ele><time>2026-05-01T13:14:56Z</time></trkpt><trkpt lat="48.14510587565312" lon="14.146822880419714"><ele>370.0</ele><time>2026-05-01T13:14:57Z</time></trkpt><trkpt lat="48.1453401463786" lon="14.147091945668077"><ele>370.0</ele><time>2026-05-01T13:14:58Z</time></trkpt><trkpt lat="48.1455766176341" lon="14.147362958141121"><ele>370.0</ele><time>2026-05-01T13:14:59Z</time></trkpt><trkpt lat="48.145814478390754" lon="14.147636368866188"><ele>370.5</ele><time>2026-05-01T13:15:00Z</time></trkpt><trkpt lat="48.14605157429413" lon="14.147910590595126"><ele>371.0</ele><time>2026-05-01T13:15:01Z</time></trkpt><trkpt lat="48.14628945104725" lon="14.148186706545792"><ele>371.5</ele><time>2026-05-01T13:15:02Z</time></trkpt><trkpt lat="48.14652685585874" lon="14.148463659720823"><ele>372.0</ele><time>2026-05-01T13:15:03Z</time></trkpt><trkpt lat="48.14676568113834" lon="14.148739979020286"><ele>372.0</ele><time>2026-05-01T13:15:04Z</time></trkpt><trkpt lat="48.14700503306564" lon="14.149013571462037"><ele>372.0</ele><time>2026-05-01T13:15:05Z</time></trkpt><trkpt lat="48.14724405224946" lon="14.149287393491791"><ele>373.0</ele><time>2026-05-01T13:15:06Z</time></trkpt><trkpt lat="48.14748175985844" lon="14.149563910908093"><ele>374.0</ele><time>2026-05-01T13:15:07Z</time></trkpt><trkpt lat="48.147723171633885" lon="14.149840165826324"><ele>378.0</ele><time>2026-05-01T13:15:08Z</time></trkpt><trkpt lat="48.14796608519002" lon="14.150114612548128"><ele>382.0</ele><time>2026-05-01T13:15:09Z</time></trkpt><trkpt lat="48.14820957160185" lon="14.150390199796636"><ele>379.5</ele><time>2026-05-01T13:15:10Z</time></trkpt><trkpt lat="48.14845317630158" lon="14.150666181937902"><ele>377.0</ele><time>2026-05-01T13:15:11Z</time></trkpt><trkpt lat="48.14869652400347" lon="14.150945894070702"><ele>377.0</ele><time>2026-05-01T13:15:12Z</time></trkpt><trkpt lat="48.148939177438024" lon="14.151227237017194"><ele>377.0</ele><time>2026-05-01T13:15:13Z</time></trkpt><trkpt lat="48.149179125856946" lon="14.151506390257891"><ele>376.0</ele><time>2026-05-01T13:15:14Z</time></trkpt><trkpt lat="48.14941746586743" lon="14.151780700455944"><ele>375.0</ele><time>2026-05-01T13:15:15Z</time></trkpt><trkpt lat="48.14965533857986" lon="14.152049583127308"><ele>376.0</ele><time>2026-05-01T13:15:16Z</time></trkpt><trkpt lat="48.149893530853994" lon="14.152318164903711"><ele>377.0</ele><time>2026-05-01T13:15:17Z</time></trkpt><trkpt lat="48.15012995208248" lon="14.152589723966212"><ele>372.0</ele><time>2026-05-01T13:15:18Z</time></trkpt><trkpt lat="48.150365222787244" lon="14.152865705046338"><ele>367.0</ele><time>2026-05-01T13:15:19Z</time></trkpt><trkpt lat="48.15060013913458" lon="14.153140640368441"><ele>368.0</ele><time>2026-05-01T13:15:20Z</time></trkpt><trkpt lat="48.15083661227942" lon="14.153412437560505"><ele>369.0</ele><time>2026-05-01T13:15:21Z</time></trkpt><trkpt lat="48.15107588442821" lon="14.15368062584503"><ele>369.0</ele><time>2026-05-01T13:15:22Z</time></trkpt><trkpt lat="48.15131550319953" lon="14.153949094430422"><ele>369.0</ele><time>2026-05-01T13:15:23Z</time></trkpt><trkpt lat="48.15155287430649" lon="14.154220418118515"><ele>368.5</ele><time>2026-05-01T13:15:24Z</time></trkpt><trkpt lat="48.15179124715012" lon="14.15449257890228"><ele>368.0</ele><time>2026-05-01T13:15:25Z</time></trkpt><trkpt lat="48.152029498405405" lon="14.15476393522495"><ele>369.5</ele><time>2026-05-01T13:15:26Z</time></trkpt><trkpt lat="48.152268351227384" lon="14.155037122601613"><ele>371.0</ele><time>2026-05-01T13:15:27Z</time></trkpt><trkpt lat="48.15250766668435" lon="14.155313723952405"><ele>371.0</ele><time>2026-05-01T13:15:28Z</time></trkpt><trkpt lat="48.152746981539934" lon="14.155592317000142"><ele>371.0</ele><time>2026-05-01T13:15:29Z</time></trkpt><trkpt lat="48.1529867244853" lon="14.155869222140204"><ele>369.5</ele><time>2026-05-01T13:15:30Z</time></trkpt><trkpt lat="48.15322707072561" lon="14.156144026263624"><ele>368.0</ele><time>2026-05-01T13:15:31Z</time></trkpt><trkpt lat="48.15346387106666" lon="14.156413126992689"><ele>365.5</ele><time>2026-05-01T13:15:32Z</time></trkpt><trkpt lat="48.15368308706953" lon="14.156667383137345"><ele>363.0</ele><time>2026-05-01T13:15:33Z</time></trkpt><trkpt lat="48.15391190336749" lon="14.156929484059209"><ele>362.5</ele><time>2026-05-01T13:15:34Z</time></trkpt><trkpt lat="48.1541419119805" lon="14.157190645846915"><ele>362.0</ele><time>2026-05-01T13:15:35Z</time></trkpt><trkpt lat="48.15438009772561" lon="14.157449732733866"><ele>362.0</ele><time>2026-05-01T13:15:36Z</time></trkpt><trkpt lat="48.15461963511028" lon="14.157707055096422"><ele>362.0</ele><time>2026-05-01T13:15:37Z</time></trkpt><trkpt lat="48.15485984560298" lon="14.157963863578601"><ele>365.0</ele><time>2026-05-01T13:15:38Z</time></trkpt><trkpt lat="48.155100914465564" lon="14.158217210300421"><ele>368.0</ele><time>2026-05-01T13:15:39Z</time></trkpt><trkpt lat="48.15534446496868" lon="14.158466406413805"><ele>368.0</ele><time>2026-05-01T13:15:40Z</time></trkpt><trkpt lat="48.155589146602935" lon="14.1587157974135"><ele>368.0</ele><time>2026-05-01T13:15:41.001Z</time></trkpt><trkpt lat="48.15583308815749" lon="14.15896198212763"><ele>367.0</ele><time>2026-05-01T13:15:42.001Z</time></trkpt><trkpt lat="48.156077762394276" lon="14.159207577283352"><ele>366.0</ele><time>2026-05-01T13:15:43.001Z</time></trkpt><trkpt lat="48.15632590839781" lon="14.159450550214551"><ele>365.0</ele><time>2026-05-01T13:15:44.001Z</time></trkpt><trkpt lat="48.15657655812305" lon="14.159693292931298"><ele>364.0</ele><time>2026-05-01T13:15:45.001Z</time></trkpt><trkpt lat="48.15682994957059" lon="14.159934120796557"><ele>364.0</ele><time>2026-05-01T13:15:46.001Z</time></trkpt><trkpt lat="48.15708536046058" lon="14.16017148285327"><ele>364.0</ele><time>2026-05-01T13:15:47.001Z</time></trkpt><trkpt lat="48.157340825862306" lon="14.160408265573402"><ele>365.0</ele><time>2026-05-01T13:15:48.001Z</time></trkpt><trkpt lat="48.15759660616465" lon="14.160642376990253"><ele>366.0</ele><time>2026-05-01T13:15:49.001Z</time></trkpt><trkpt lat="48.15785224270941" lon="14.160874223631925"><ele>366.0</ele><time>2026-05-01T13:15:50.001Z</time></trkpt><trkpt lat="48.15811077935055" lon="14.161108733456254"><ele>366.0</ele><time>2026-05-01T13:15:51.001Z</time></trkpt><trkpt lat="48.1583718866286" lon="14.161340117420417"><ele>365.0</ele><time>2026-05-01T13:15:52.001Z</time></trkpt><trkpt lat="48.15863588836688" lon="14.16156458256371"><ele>364.0</ele><time>2026-05-01T13:15:53.001Z</time></trkpt><trkpt lat="48.15890228773053" lon="14.161786715461808"><ele>367.5</ele><time>2026-05-01T13:15:54.001Z</time></trkpt><trkpt lat="48.159170550319075" lon="14.162008313225511"><ele>371.0</ele><time>2026-05-01T13:15:55.001Z</time></trkpt><trkpt lat="48.15943828754292" lon="14.162226016902668"><ele>372.0</ele><time>2026-05-01T13:15:56.001Z</time></trkpt><trkpt lat="48.159706367907276" lon="14.162440944664931"><ele>373.0</ele><time>2026-05-01T13:15:57.001Z</time></trkpt><trkpt lat="48.15997257381797" lon="14.16265828695214"><ele>373.0</ele><time>2026-05-01T13:15:58.001Z</time></trkpt><trkpt lat="48.16023703290126" lon="14.162877483223967"><ele>373.0</ele><time>2026-05-01T13:15:59.001Z</time></trkpt><trkpt lat="48.160501987858446" lon="14.163098310655668"><ele>371.5</ele><time>2026-05-01T13:16:00.001Z</time></trkpt><trkpt lat="48.160765707237154" lon="14.163319565597414"><ele>370.0</ele><time>2026-05-01T13:16:01.001Z</time></trkpt><trkpt lat="48.16102861651208" lon="14.163541004765566"><ele>370.0</ele><time>2026-05-01T13:16:02.001Z</time></trkpt><trkpt lat="48.16129116521345" lon="14.1637603048337"><ele>370.0</ele><time>2026-05-01T13:16:03.001Z</time></trkpt><trkpt lat="48.16155403383975" lon="14.163979677944615"><ele>368.5</ele><time>2026-05-01T13:16:04.001Z</time></trkpt><trkpt lat="48.161817260679406" lon="14.164198057628663"><ele>367.0</ele><time>2026-05-01T13:16:05.001Z</time></trkpt><trkpt lat="48.162083008509754" lon="14.164416140126013"><ele>367.0</ele><time>2026-05-01T13:16:06.001Z</time></trkpt><trkpt lat="48.16234769300221" lon="14.164634920060275"><ele>367.0</ele><time>2026-05-01T13:16:07.001Z</time></trkpt><trkpt lat="48.16261337121552" lon="14.16485599766977"><ele>368.0</ele><time>2026-05-01T13:16:08.001Z</time></trkpt><trkpt lat="48.16288110749698" lon="14.16507599451537"><ele>369.0</ele><time>2026-05-01T13:16:09.001Z</time></trkpt><trkpt lat="48.163147213756595" lon="14.165299146676276"><ele>368.5</ele><time>2026-05-01T13:16:10.001Z</time></trkpt><trkpt lat="48.163413128868854" lon="14.165526133388322"><ele>368.0</ele><time>2026-05-01T13:16:11.001Z</time></trkpt><trkpt lat="48.16367887563791" lon="14.165751627307396"><ele>368.0</ele><time>2026-05-01T13:16:12.001Z</time></trkpt><trkpt lat="48.16394673689143" lon="14.165975224774801"><ele>368.0</ele><time>2026-05-01T13:16:13.001Z</time></trkpt><trkpt lat="48.164214266732145" lon="14.166197739082499"><ele>365.0</ele><time>2026-05-01T13:16:14.001Z</time></trkpt><trkpt lat="48.16448197469204" lon="14.16642048395641"><ele>362.0</ele><time>2026-05-01T13:16:15.001Z</time></trkpt><trkpt lat="48.16475121687023" lon="14.166641492214952"><ele>360.5</ele><time>2026-05-01T13:16:16.001Z</time></trkpt><trkpt lat="48.16502050153866" lon="14.1668634268668"><ele>359.0</ele><time>2026-05-01T13:16:17.001Z</time></trkpt><trkpt lat="48.16528966256659" lon="14.167085026373249"><ele>359.0</ele><time>2026-05-01T13:16:18.001Z</time></trkpt><trkpt lat="48.16555717584059" lon="14.167305749650705"><ele>359.0</ele><time>2026-05-01T13:16:19.001Z</time></trkpt><trkpt lat="48.16582347888027" lon="14.167526959174658"><ele>357.5</ele><time>2026-05-01T13:16:20.001Z</time></trkpt><trkpt lat="48.16608889512582" lon="14.167746516946766"><ele>356.0</ele><time>2026-05-01T13:16:21.001Z</time></trkpt><trkpt lat="48.166353652238506" lon="14.167967690587012"><ele>356.5</ele><time>2026-05-01T13:16:22.001Z</time></trkpt><trkpt lat="48.16661886111755" lon="14.168190194270935"><ele>357.0</ele><time>2026-05-01T13:16:23.001Z</time></trkpt><trkpt lat="48.16688590638808" lon="14.168414242561427"><ele>357.0</ele><time>2026-05-01T13:16:24.001Z</time></trkpt><trkpt lat="48.16715350560412" lon="14.168638889138686"><ele>357.0</ele><time>2026-05-01T13:16:25.001Z</time></trkpt><trkpt lat="48.1674217160693" lon="14.168862680184334"><ele>358.5</ele><time>2026-05-01T13:16:26.001Z</time></trkpt><trkpt lat="48.16769046375824" lon="14.169083896669767"><ele>360.0</ele><time>2026-05-01T13:16:27.001Z</time></trkpt><trkpt lat="48.16795678472664" lon="14.169304629910737"><ele>359.0</ele><time>2026-05-01T13:16:28.001Z</time></trkpt><trkpt lat="48.16822215839261" lon="14.169525994314839"><ele>358.0</ele><time>2026-05-01T13:16:29.001Z</time></trkpt><trkpt lat="48.16848889513694" lon="14.1697471743861"><ele>359.5</ele><time>2026-05-01T13:16:30.001Z</time></trkpt><trkpt lat="48.16875423626075" lon="14.169968364352435"><ele>361.0</ele><time>2026-05-01T13:16:31.001Z</time></trkpt><trkpt lat="48.16902013165154" lon="14.170191213171895"><ele>361.0</ele><time>2026-05-01T13:16:32.001Z</time></trkpt><trkpt lat="48.16928474669648" lon="14.170417531480538"><ele>361.0</ele><time>2026-05-01T13:16:33.001Z</time></trkpt><trkpt lat="48.16954888888131" lon="14.170649232826737"><ele>361.0</ele><time>2026-05-01T13:16:34.001Z</time></trkpt><trkpt lat="48.16980775957161" lon="14.170891100442"><ele>361.0</ele><time>2026-05-01T13:16:35.001Z</time></trkpt><trkpt lat="48.17006532174057" lon="14.17113791545948"><ele>361.0</ele><time>2026-05-01T13:16:36Z</time></trkpt><trkpt lat="48.17032287346174" lon="14.171390239443756"><ele>361.0</ele><time>2026-05-01T13:16:37Z</time></trkpt><trkpt lat="48.170580983357674" lon="14.171642926315107"><ele>366.0</ele><time>2026-05-01T13:16:38Z</time></trkpt><trkpt lat="48.170838829546874" lon="14.171898269658737"><ele>371.0</ele><time>2026-05-01T13:16:39Z</time></trkpt><trkpt lat="48.171093160435824" lon="14.172155994815453"><ele>371.5</ele><time>2026-05-01T13:16:40Z</time></trkpt><trkpt lat="48.17134367615005" lon="14.172418771946436"><ele>372.0</ele><time>2026-05-01T13:16:41Z</time></trkpt><trkpt lat="48.171589740261965" lon="14.172686518855818"><ele>369.0</ele><time>2026-05-01T13:16:42Z</time></trkpt><trkpt lat="48.17183075003651" lon="14.172956024425032"><ele>366.0</ele><time>2026-05-01T13:16:43Z</time></trkpt><trkpt lat="48.172070876165364" lon="14.173226860704213"><ele>365.5</ele><time>2026-05-01T13:16:44Z</time></trkpt><trkpt lat="48.172308737467915" lon="14.173501477031174"><ele>365.0</ele><time>2026-05-01T13:16:45Z</time></trkpt><trkpt lat="48.17254384048232" lon="14.173779411613118"><ele>360.5</ele><time>2026-05-01T13:16:46Z</time></trkpt><trkpt lat="48.17277700589872" lon="14.174061090459233"><ele>356.0</ele><time>2026-05-01T13:16:47Z</time></trkpt><trkpt lat="48.17300710388908" lon="14.17435095053402"><ele>357.0</ele><time>2026-05-01T13:16:48Z</time></trkpt><trkpt lat="48.17323486996795" lon="14.174644568872807"><ele>358.0</ele><time>2026-05-01T13:16:49Z</time></trkpt><trkpt lat="48.17346040927375" lon="14.174943963142368"><ele>358.0</ele><time>2026-05-01T13:16:50Z</time></trkpt><trkpt lat="48.173684426714054" lon="14.175247722644677"><ele>358.0</ele><time>2026-05-01T13:16:51Z</time></trkpt><trkpt lat="48.17390718901273" lon="14.175552877099536"><ele>358.0</ele><time>2026-05-01T13:16:52Z</time></trkpt><trkpt lat="48.174126671238895" lon="14.175856852495995"><ele>358.0</ele><time>2026-05-01T13:16:53Z</time></trkpt><trkpt lat="48.17433669841372" lon="14.17615168924698"><ele>358.0</ele><time>2026-05-01T13:16:54Z</time></trkpt><trkpt lat="48.17453949173975" lon="14.176438650676475"><ele>358.0</ele><time>2026-05-01T13:16:55Z</time></trkpt><trkpt lat="48.17474910770548" lon="14.176743857210424"><ele>358.0</ele><time>2026-05-01T13:16:56Z</time></trkpt><trkpt lat="48.17495943680954" lon="14.177059032578642"><ele>358.0</ele><time>2026-05-01T13:16:57Z</time></trkpt><trkpt lat="48.17516966139826" lon="14.177377632000027"><ele>357.5</ele><time>2026-05-01T13:16:58Z</time></trkpt><trkpt lat="48.175380420625395" lon="14.177698063330652"><ele>357.0</ele><time>2026-05-01T13:16:59Z</time></trkpt><trkpt lat="48.17559263857266" lon="14.17802017206303"><ele>359.0</ele><time>2026-05-01T13:17:00Z</time></trkpt><trkpt lat="48.175803095197985" lon="14.178347348477505"><ele>361.0</ele><time>2026-05-01T13:17:01Z</time></trkpt><trkpt lat="48.17600951404739" lon="14.178684369039258"><ele>358.5</ele><time>2026-05-01T13:17:02Z</time></trkpt><trkpt lat="48.176211304290575" lon="14.179031214971113"><ele>356.0</ele><time>2026-05-01T13:17:03Z</time></trkpt><trkpt lat="48.176408062369234" lon="14.179383337375873"><ele>356.5</ele><time>2026-05-01T13:17:04Z</time></trkpt><trkpt lat="48.176602724992854" lon="14.179740170159892"><ele>357.0</ele><time>2026-05-01T13:17:05Z</time></trkpt><trkpt lat="48.17679680381039" lon="14.180100417013373"><ele>357.0</ele><time>2026-05-01T13:17:06Z</time></trkpt><trkpt lat="48.17698563281704" lon="14.180459545158724"><ele>357.0</ele><time>2026-05-01T13:17:07Z</time></trkpt><trkpt lat="48.177165517944864" lon="14.18082454103326"><ele>356.5</ele><time>2026-05-01T13:17:08Z</time></trkpt><trkpt lat="48.177339809039765" lon="14.181198710562793"><ele>356.0</ele><time>2026-05-01T13:17:09Z</time></trkpt><trkpt lat="48.177510866285125" lon="14.181578721860125"><ele>355.5</ele><time>2026-05-01T13:17:10Z</time></trkpt><trkpt lat="48.177682553283724" lon="14.18195917578278"><ele>355.0</ele><time>2026-05-01T13:17:11Z</time></trkpt><trkpt lat="48.17785735643874" lon="14.182338939612524"><ele>354.5</ele><time>2026-05-01T13:17:12Z</time></trkpt><trkpt lat="48.17803536133623" lon="14.182716319206005"><ele>354.0</ele><time>2026-05-01T13:17:13Z</time></trkpt><trkpt lat="48.178213041648256" lon="14.183091679329085"><ele>353.0</ele><time>2026-05-01T13:17:14Z</time></trkpt><trkpt lat="48.17839002177663" lon="14.18346634262521"><ele>352.0</ele><time>2026-05-01T13:17:15Z</time></trkpt><trkpt lat="48.178565934180554" lon="14.183840872754281"><ele>350.5</ele><time>2026-05-01T13:17:16Z</time></trkpt><trkpt lat="48.1787414563422" lon="14.18421684344691"><ele>349.0</ele><time>2026-05-01T13:17:17Z</time></trkpt><trkpt lat="48.17891898486727" lon="14.184594127581084"><ele>350.0</ele><time>2026-05-01T13:17:18Z</time></trkpt><trkpt lat="48.179098149084645" lon="14.184972986786304"><ele>351.0</ele><time>2026-05-01T13:17:19Z</time></trkpt><trkpt lat="48.17927886285147" lon="14.185351620461192"><ele>351.0</ele><time>2026-05-01T13:17:20Z</time></trkpt><trkpt lat="48.17945940018072" lon="14.185731033541197"><ele>351.0</ele><time>2026-05-01T13:17:21Z</time></trkpt><trkpt lat="48.179638283694736" lon="14.186111011959197"><ele>351.0</ele><time>2026-05-01T13:17:22Z</time></trkpt><trkpt lat="48.179816583266046" lon="14.186491827725108"><ele>351.0</ele><time>2026-05-01T13:17:23Z</time></trkpt><trkpt lat="48.17999286190315" lon="14.186873174279405"><ele>353.0</ele><time>2026-05-01T13:17:24Z</time></trkpt><trkpt lat="48.18016871300903" lon="14.187253094054705"><ele>355.0</ele><time>2026-05-01T13:17:25Z</time></trkpt><trkpt lat="48.180344504940344" lon="14.187631734994437"><ele>355.0</ele><time>2026-05-01T13:17:26Z</time></trkpt><trkpt lat="48.18052169245739" lon="14.188008362310695"><ele>355.0</ele><time>2026-05-01T13:17:27Z</time></trkpt><trkpt lat="48.18069999825079" lon="14.188381788707487"><ele>356.0</ele><time>2026-05-01T13:17:28Z</time></trkpt><trkpt lat="48.18087662309791" lon="14.188758300841021"><ele>357.0</ele><time>2026-05-01T13:17:29Z</time></trkpt><trkpt lat="48.181052177141275" lon="14.18913790622327"><ele>357.0</ele><time>2026-05-01T13:17:30Z</time></trkpt><trkpt lat="48.181226778734796" lon="14.189516135191504"><ele>357.0</ele><time>2026-05-01T13:17:31Z</time></trkpt><trkpt lat="48.18140129668107" lon="14.189892788551786"><ele>356.5</ele><time>2026-05-01T13:17:32Z</time></trkpt><trkpt lat="48.18157419313825" lon="14.190266784934144"><ele>356.0</ele><time>2026-05-01T13:17:33Z</time></trkpt><trkpt lat="48.18174756197702" lon="14.190636596708327"><ele>355.5</ele><time>2026-05-01T13:17:34Z</time></trkpt><trkpt lat="48.181922063725985" lon="14.191005848620025"><ele>355.0</ele><time>2026-05-01T13:17:35Z</time></trkpt><trkpt lat="48.18209701490548" lon="14.19137409420932"><ele>355.0</ele><time>2026-05-01T13:17:36Z</time></trkpt><trkpt lat="48.18227024288735" lon="14.1917456232992"><ele>355.0</ele><time>2026-05-01T13:17:37Z</time></trkpt><trkpt lat="48.18244281169936" lon="14.192118618634442"><ele>355.0</ele><time>2026-05-01T13:17:38Z</time></trkpt><trkpt lat="48.18261512464214" lon="14.192492548422111"><ele>355.0</ele><time>2026-05-01T13:17:39Z</time></trkpt><trkpt lat="48.1827897769421" lon="14.192868502078165"><ele>356.0</ele><time>2026-05-01T13:17:40Z</time></trkpt><trkpt lat="48.18296645918254" lon="14.193243738795802"><ele>357.0</ele><time>2026-05-01T13:17:41Z</time></trkpt><trkpt lat="48.18314337079386" lon="14.193617538902188"><ele>356.0</ele><time>2026-05-01T13:17:42Z</time></trkpt><trkpt lat="48.18331967733116" lon="14.193989464478356"><ele>355.0</ele><time>2026-05-01T13:17:43Z</time></trkpt><trkpt lat="48.18349563266966" lon="14.194360976552964"><ele>354.5</ele><time>2026-05-01T13:17:44.001Z</time></trkpt><trkpt lat="48.18367232419527" lon="14.19473287789196"><ele>354.0</ele><time>2026-05-01T13:17:45.001Z</time></trkpt><trkpt lat="48.183848972398025" lon="14.19510490287502"><ele>352.5</ele><time>2026-05-01T13:17:46.001Z</time></trkpt><trkpt lat="48.18402359585818" lon="14.195478969537207"><ele>351.0</ele><time>2026-05-01T13:17:47.001Z</time></trkpt><trkpt lat="48.184196372884585" lon="14.195854735481689"><ele>351.0</ele><time>2026-05-01T13:17:48.001Z</time></trkpt><trkpt lat="48.184369697750284" lon="14.196228630229664"><ele>351.0</ele><time>2026-05-01T13:17:49.001Z</time></trkpt><trkpt lat="48.18454690403503" lon="14.1966009872523"><ele>350.5</ele><time>2026-05-01T13:17:50.001Z</time></trkpt><trkpt lat="48.184728207910545" lon="14.196969133113607"><ele>350.0</ele><time>2026-05-01T13:17:51.001Z</time></trkpt><trkpt lat="48.18491057451031" lon="14.19733627939411"><ele>350.0</ele><time>2026-05-01T13:17:52.001Z</time></trkpt><trkpt lat="48.18508666725147" lon="14.19770832533093"><ele>350.0</ele><time>2026-05-01T13:17:53.001Z</time></trkpt><trkpt lat="48.185256975058195" lon="14.198089097851481"><ele>350.0</ele><time>2026-05-01T13:17:54.001Z</time></trkpt><trkpt lat="48.185420317747656" lon="14.198476666505234"><ele>350.0</ele><time>2026-05-01T13:17:55.001Z</time></trkpt><trkpt lat="48.18557936371805" lon="14.1988722997293"><ele>349.5</ele><time>2026-05-01T13:17:56.001Z</time></trkpt><trkpt lat="48.1857376704739" lon="14.199271240618808"><ele>349.0</ele><time>2026-05-01T13:17:57.001Z</time></trkpt><trkpt lat="48.18589362813464" lon="14.199673257440947"><ele>348.0</ele><time>2026-05-01T13:17:58.001Z</time></trkpt><trkpt lat="48.1860447546079" lon="14.200079653688404"><ele>347.0</ele><time>2026-05-01T13:17:59.001Z</time></trkpt><trkpt lat="48.186193718998254" lon="14.200489000415834"><ele>346.5</ele><time>2026-05-01T13:18:00.001Z</time></trkpt><trkpt lat="48.18633882245155" lon="14.200898683018245"><ele>346.0</ele><time>2026-05-01T13:18:01.001Z</time></trkpt><trkpt lat="48.18648171409801" lon="14.201308973114989"><ele>346.0</ele><time>2026-05-01T13:18:02.001Z</time></trkpt><trkpt lat="48.186621971581296" lon="14.201719897352667"><ele>346.0</ele><time>2026-05-01T13:18:03.001Z</time></trkpt><trkpt lat="48.18675736905879" lon="14.202128234825887"><ele>346.5</ele><time>2026-05-01T13:18:04.001Z</time></trkpt><trkpt lat="48.18688680564325" lon="14.202532492618731"><ele>347.0</ele><time>2026-05-01T13:18:05.001Z</time></trkpt><trkpt lat="48.18701201893396" lon="14.20293723363805"><ele>346.0</ele><time>2026-05-01T13:18:06.001Z</time></trkpt><trkpt lat="48.18713433710845" lon="14.203346453230548"><ele>345.0</ele><time>2026-05-01T13:18:07.001Z</time></trkpt><trkpt lat="48.18725426905455" lon="14.203759439123921"><ele>346.5</ele><time>2026-05-01T13:18:08.001Z</time></trkpt><trkpt lat="48.18737274495671" lon="14.204172816483423"><ele>348.0</ele><time>2026-05-01T13:18:09.001Z</time></trkpt><trkpt lat="48.187492090725996" lon="14.204585723471048"><ele>345.5</ele><time>2026-05-01T13:18:10.001Z</time></trkpt><trkpt lat="48.18760388960154" lon="14.20500271553137"><ele>343.0</ele><time>2026-05-01T13:18:11.001Z</time></trkpt><trkpt lat="48.18770450393667" lon="14.205423967026952"><ele>342.5</ele><time>2026-05-01T13:18:12.001Z</time></trkpt><trkpt lat="48.18780023843897" lon="14.205847797620548"><ele>342.0</ele><time>2026-05-01T13:18:13.001Z</time></trkpt><trkpt lat="48.18789340686443" lon="14.206276176157571"><ele>343.0</ele><time>2026-05-01T13:18:14.001Z</time></trkpt><trkpt lat="48.1879882846174" lon="14.206705758395579"><ele>344.0</ele><time>2026-05-01T13:18:15.001Z</time></trkpt><trkpt lat="48.188082696710694" lon="14.207132370021874"><ele>346.5</ele><time>2026-05-01T13:18:16.001Z</time></trkpt><trkpt lat="48.18817006828264" lon="14.207534299813162"><ele>349.0</ele><time>2026-05-01T13:18:17.001Z</time></trkpt><trkpt lat="48.18825161542713" lon="14.2079183978298"><ele>351.5</ele><time>2026-05-01T13:18:18.001Z</time></trkpt><trkpt lat="48.188324587492474" lon="14.20828249449863"><ele>354.0</ele><time>2026-05-01T13:18:19.001Z</time></trkpt><trkpt lat="48.18839357767907" lon="14.208643185900028"><ele>354.5</ele><time>2026-05-01T13:18:20.001Z</time></trkpt><trkpt lat="48.18845945018215" lon="14.209004324889484"><ele>355.0</ele><time>2026-05-01T13:18:21.001Z</time></trkpt><trkpt lat="48.18852292561003" lon="14.209348385077595"><ele>355.0</ele><time>2026-05-01T13:18:22.001Z</time></trkpt><trkpt lat="48.18858315334441" lon="14.209693901469452"><ele>355.0</ele><time>2026-05-01T13:18:23.001Z</time></trkpt><trkpt lat="48.18864391136229" lon="14.210046023613911"><ele>353.0</ele><time>2026-05-01T13:18:24.001Z</time></trkpt><trkpt lat="48.18870276317624" lon="14.210398390516872"><ele>351.0</ele><time>2026-05-01T13:18:25.001Z</time></trkpt><trkpt lat="48.188756199884146" lon="14.210752034372332"><ele>351.0</ele><time>2026-05-01T13:18:26.001Z</time></trkpt><trkpt lat="48.188807583543834" lon="14.211105497203278"><ele>351.0</ele><time>2026-05-01T13:18:27.001Z</time></trkpt><trkpt lat="48.18885809963681" lon="14.211460797776898"><ele>352.0</ele><time>2026-05-01T13:18:28.001Z</time></trkpt><trkpt lat="48.188907622109774" lon="14.211815916914395"><ele>353.0</ele><time>2026-05-01T13:18:29.001Z</time></trkpt><trkpt lat="48.18895562106524" lon="14.212173927489268"><ele>353.5</ele><time>2026-05-01T13:18:30.001Z</time></trkpt><trkpt lat="48.189000349391065" lon="14.212531027621308"><ele>354.0</ele><time>2026-05-01T13:18:31.001Z</time></trkpt><trkpt lat="48.18904152911329" lon="14.212889240434032"><ele>351.0</ele><time>2026-05-01T13:18:32.001Z</time></trkpt><trkpt lat="48.18907733316831" lon="14.213246115295785"><ele>348.0</ele><time>2026-05-01T13:18:33.001Z</time></trkpt><trkpt lat="48.18911351319622" lon="14.213601426864438"><ele>348.0</ele><time>2026-05-01T13:18:34.001Z</time></trkpt><trkpt lat="48.189148771836784" lon="14.21395526091778"><ele>348.0</ele><time>2026-05-01T13:18:35.001Z</time></trkpt><trkpt lat="48.18918556602166" lon="14.214306198052736"><ele>346.0</ele><time>2026-05-01T13:18:36.001Z</time></trkpt><trkpt lat="48.18922531057509" lon="14.214658093814544"><ele>344.0</ele><time>2026-05-01T13:18:37.001Z</time></trkpt><trkpt lat="48.18926778803051" lon="14.215007595198752"><ele>343.0</ele><time>2026-05-01T13:18:38.001Z</time></trkpt><trkpt lat="48.18930778271405" lon="14.215358817086267"><ele>342.0</ele><time>2026-05-01T13:18:39.001Z</time></trkpt><trkpt lat="48.18934672990948" lon="14.215708149910142"><ele>337.5</ele><time>2026-05-01T13:18:40.001Z</time></trkpt><trkpt lat="48.18938124715175" lon="14.21605606520705"><ele>333.0</ele><time>2026-05-01T13:18:41.001Z</time></trkpt><trkpt lat="48.18941696488825" lon="14.216400038960492"><ele>332.5</ele><time>2026-05-01T13:18:42Z</time></trkpt><trkpt lat="48.189454990692816" lon="14.216738566588589"><ele>332.0</ele><time>2026-05-01T13:18:43Z</time></trkpt><trkpt lat="48.18949400097035" lon="14.217079080104298"><ele>330.5</ele><time>2026-05-01T13:18:44Z</time></trkpt><trkpt lat="48.18953126877414" lon="14.217422365345401"><ele>329.0</ele><time>2026-05-01T13:18:45Z</time></trkpt><trkpt lat="48.18956894859646" lon="14.21776416621149"><ele>329.0</ele><time>2026-05-01T13:18:46Z</time></trkpt><trkpt lat="48.18960682470952" lon="14.218110259854905"><ele>329.0</ele><time>2026-05-01T13:18:47Z</time></trkpt><trkpt lat="48.18964336400108" lon="14.218456555933331"><ele>327.0</ele><time>2026-05-01T13:18:48Z</time></trkpt><trkpt lat="48.18967853769925" lon="14.218807261181187"><ele>325.0</ele><time>2026-05-01T13:18:49Z</time></trkpt><trkpt lat="48.18971317935855" lon="14.219158177667627"><ele>322.5</ele><time>2026-05-01T13:18:50Z</time></trkpt><trkpt lat="48.18975176578879" lon="14.2195133231943"><ele>320.0</ele><time>2026-05-01T13:18:51Z</time></trkpt><trkpt lat="48.189788794586924" lon="14.219872249462817"><ele>318.0</ele><time>2026-05-01T13:18:52Z</time></trkpt><trkpt lat="48.18982542545616" lon="14.220234682354393"><ele>316.0</ele><time>2026-05-01T13:18:53Z</time></trkpt><trkpt lat="48.18986251849897" lon="14.22060052115155"><ele>313.0</ele><time>2026-05-01T13:18:54Z</time></trkpt><trkpt lat="48.189901039820505" lon="14.220970924888652"><ele>310.0</ele><time>2026-05-01T13:18:55Z</time></trkpt><trkpt lat="48.18993912991389" lon="14.221341588132857"><ele>306.5</ele><time>2026-05-01T13:18:56Z</time></trkpt><trkpt lat="48.18997701750711" lon="14.221716772933602"><ele>303.0</ele><time>2026-05-01T13:18:57Z</time></trkpt><trkpt lat="48.19001600620914" lon="14.222085664682432"><ele>302.5</ele><time>2026-05-01T13:18:58Z</time></trkpt><trkpt lat="48.19005310540554" lon="14.222444598272311"><ele>302.0</ele><time>2026-05-01T13:18:59Z</time></trkpt><trkpt lat="48.19009009770856" lon="14.222800671942895"><ele>301.0</ele><time>2026-05-01T13:19:00Z</time></trkpt><trkpt lat="48.19012660570321" lon="14.223160892376868"><ele>300.0</ele><time>2026-05-01T13:19:01Z</time></trkpt><trkpt lat="48.190164545673" lon="14.223521047340121"><ele>300.0</ele><time>2026-05-01T13:19:02Z</time></trkpt><trkpt lat="48.19020314189804" lon="14.223880166742658"><ele>300.0</ele><time>2026-05-01T13:19:03Z</time></trkpt><trkpt lat="48.19024136619186" lon="14.224237137072022"><ele>299.5</ele><time>2026-05-01T13:19:04Z</time></trkpt><trkpt lat="48.19028010574117" lon="14.224595074142846"><ele>299.0</ele><time>2026-05-01T13:19:05Z</time></trkpt><trkpt lat="48.190319194548636" lon="14.224951271291664"><ele>295.5</ele><time>2026-05-01T13:19:06Z</time></trkpt><trkpt lat="48.1903618027684" lon="14.225304871092398"><ele>292.0</ele><time>2026-05-01T13:19:07Z</time></trkpt><trkpt lat="48.190405229940346" lon="14.225657590955727"><ele>291.0</ele><time>2026-05-01T13:19:08Z</time></trkpt><trkpt lat="48.190450631692975" lon="14.22600734455437"><ele>290.0</ele><time>2026-05-01T13:19:09Z</time></trkpt><trkpt lat="48.1904976708271" lon="14.226354873097785"><ele>288.5</ele><time>2026-05-01T13:19:10Z</time></trkpt><trkpt lat="48.19054511479117" lon="14.226701461624769"><ele>287.0</ele><time>2026-05-01T13:19:11Z</time></trkpt><trkpt lat="48.190595609293005" lon="14.227043912444497"><ele>287.0</ele><time>2026-05-01T13:19:12Z</time></trkpt><trkpt lat="48.19064829399411" lon="14.22738735663572"><ele>287.0</ele><time>2026-05-01T13:19:13Z</time></trkpt><trkpt lat="48.19070147118594" lon="14.22772946158471"><ele>287.0</ele><time>2026-05-01T13:19:14Z</time></trkpt><trkpt lat="48.19075696673636" lon="14.228068916842046"><ele>287.0</ele><time>2026-05-01T13:19:15Z</time></trkpt><trkpt lat="48.19081376445037" lon="14.228407933002963"><ele>286.5</ele><time>2026-05-01T13:19:16Z</time></trkpt><trkpt lat="48.19087286219365" lon="14.228745939098832"><ele>286.0</ele><time>2026-05-01T13:19:17Z</time></trkpt><trkpt lat="48.19093505322352" lon="14.229081231682347"><ele>285.5</ele><time>2026-05-01T13:19:18Z</time></trkpt><trkpt lat="48.19099841940358" lon="14.22941629222686"><ele>285.0</ele><time>2026-05-01T13:19:19Z</time></trkpt><trkpt lat="48.19106491658949" lon="14.22975047285618"><ele>285.0</ele><time>2026-05-01T13:19:20Z</time></trkpt><trkpt lat="48.19113234261844" lon="14.23008453277366"><ele>285.0</ele><time>2026-05-01T13:19:21Z</time></trkpt><trkpt lat="48.19120255418895" lon="14.230420958806974"><ele>284.5</ele><time>2026-05-01T13:19:22Z</time></trkpt><trkpt lat="48.191272460734936" lon="14.230755407548642"><ele>284.0</ele><time>2026-05-01T13:19:23Z</time></trkpt><trkpt lat="48.191344138802" lon="14.23109091263096"><ele>284.0</ele><time>2026-05-01T13:19:24Z</time></trkpt><trkpt lat="48.19141949114923" lon="14.231427348753757"><ele>284.0</ele><time>2026-05-01T13:19:25Z</time></trkpt><trkpt lat="48.19149559881546" lon="14.231766352894919"><ele>283.5</ele><time>2026-05-01T13:19:26Z</time></trkpt><trkpt lat="48.1915771656375" lon="14.232101799399283"><ele>283.0</ele><time>2026-05-01T13:19:27Z</time></trkpt><trkpt lat="48.191661857588365" lon="14.232437102240464"><ele>284.0</ele><time>2026-05-01T13:19:28Z</time></trkpt><trkpt lat="48.19174659828922" lon="14.232772592854193"><ele>285.0</ele><time>2026-05-01T13:19:29Z</time></trkpt><trkpt lat="48.191834187079365" lon="14.23311074498172"><ele>284.0</ele><time>2026-05-01T13:19:30Z</time></trkpt><trkpt lat="48.19192053663261" lon="14.233441138277346"><ele>283.0</ele><time>2026-05-01T13:19:31Z</time></trkpt><trkpt lat="48.19200318118422" lon="14.233756615447753"><ele>281.0</ele><time>2026-05-01T13:19:32Z</time></trkpt><trkpt lat="48.19208883708605" lon="14.234072987452665"><ele>279.0</ele><time>2026-05-01T13:19:33Z</time></trkpt><trkpt lat="48.19217905977987" lon="14.234395308531072"><ele>279.0</ele><time>2026-05-01T13:19:34Z</time></trkpt><trkpt lat="48.19227097916079" lon="14.23471788559963"><ele>279.0</ele><time>2026-05-01T13:19:35Z</time></trkpt><trkpt lat="48.19236513044152" lon="14.235042222095249"><ele>278.5</ele><time>2026-05-01T13:19:36Z</time></trkpt><trkpt lat="48.19246247948369" lon="14.235361224668383"><ele>278.0</ele><time>2026-05-01T13:19:37Z</time></trkpt><trkpt lat="48.192561135418906" lon="14.235679512505122"><ele>277.5</ele><time>2026-05-01T13:19:38Z</time></trkpt><trkpt lat="48.19266291678198" lon="14.23599582493482"><ele>277.0</ele><time>2026-05-01T13:19:39Z</time></trkpt><trkpt lat="48.192768672639396" lon="14.236310295882403"><ele>278.0</ele><time>2026-05-01T13:19:40Z</time></trkpt><trkpt lat="48.19287410076669" lon="14.236624161325826"><ele>279.0</ele><time>2026-05-01T13:19:41Z</time></trkpt><trkpt lat="48.19298080581534" lon="14.23693623066767"><ele>279.0</ele><time>2026-05-01T13:19:42Z</time></trkpt><trkpt lat="48.19308855351317" lon="14.237244132467323"><ele>279.0</ele><time>2026-05-01T13:19:43Z</time></trkpt><trkpt lat="48.19319940688711" lon="14.237548999362323"><ele>278.0</ele><time>2026-05-01T13:19:44Z</time></trkpt><trkpt lat="48.193309028446265" lon="14.237851149777761"><ele>277.0</ele><time>2026-05-01T13:19:45Z</time></trkpt><trkpt lat="48.193420591885314" lon="14.238151273102009"><ele>277.0</ele><time>2026-05-01T13:19:46Z</time></trkpt><trkpt lat="48.19353286821747" lon="14.238451825942432"><ele>277.0</ele><time>2026-05-01T13:19:47Z</time></trkpt><trkpt lat="48.1936470387496" lon="14.238751800750611"><ele>277.5</ele><time>2026-05-01T13:19:48Z</time></trkpt><trkpt lat="48.193760983585264" lon="14.239055300999388"><ele>278.0</ele><time>2026-05-01T13:19:49Z</time></trkpt><trkpt lat="48.19388080282874" lon="14.239356710556857"><ele>278.0</ele><time>2026-05-01T13:19:50Z</time></trkpt><trkpt lat="48.19400299392196" lon="14.23965567564337"><ele>278.0</ele><time>2026-05-01T13:19:51Z</time></trkpt><trkpt lat="48.194126966456935" lon="14.239953127106075"><ele>278.5</ele><time>2026-05-01T13:19:52Z</time></trkpt><trkpt lat="48.19425157671465" lon="14.240246752249567"><ele>279.0</ele><time>2026-05-01T13:19:53Z</time></trkpt><trkpt lat="48.19437795418228" lon="14.240538276211261"><ele>278.5</ele><time>2026-05-01T13:19:54Z</time></trkpt><trkpt lat="48.194506351035905" lon="14.24083070579605"><ele>278.0</ele><time>2026-05-01T13:19:55Z</time></trkpt><trkpt lat="48.194632510484844" lon="14.241121733245544"><ele>278.0</ele><time>2026-05-01T13:19:56Z</time></trkpt><trkpt lat="48.19476151109733" lon="14.241410240492762"><ele>278.0</ele><time>2026-05-01T13:19:57Z</time></trkpt><trkpt lat="48.19489309927935" lon="14.241695361001593"><ele>277.5</ele><time>2026-05-01T13:19:58Z</time></trkpt><trkpt lat="48.195028482390896" lon="14.241979539734563"><ele>277.0</ele><time>2026-05-01T13:19:59Z</time></trkpt><trkpt lat="48.19516488914989" lon="14.242260217994119"><ele>277.5</ele><time>2026-05-01T13:20:00Z</time></trkpt><trkpt lat="48.19530108707933" lon="14.24253977198017"><ele>278.0</ele><time>2026-05-01T13:20:01Z</time></trkpt><trkpt lat="48.19543805801804" lon="14.242818346235012"><ele>278.0</ele><time>2026-05-01T13:20:02Z</time></trkpt><trkpt lat="48.195576729750194" lon="14.24309658693922"><ele>278.0</ele><time>2026-05-01T13:20:03Z</time></trkpt><trkpt lat="48.1957155851308" lon="14.243375861513977"><ele>278.0</ele><time>2026-05-01T13:20:04Z</time></trkpt><trkpt lat="48.19585340416474" lon="14.243656911911637"><ele>278.0</ele><time>2026-05-01T13:20:05Z</time></trkpt><trkpt lat="48.195990623601844" lon="14.243940846977974"><ele>278.0</ele><time>2026-05-01T13:20:06Z</time></trkpt><trkpt lat="48.19612838357461" lon="14.244226111474521"><ele>278.0</ele><time>2026-05-01T13:20:07.001Z</time></trkpt><trkpt lat="48.19626813727214" lon="14.244511622517487"><ele>278.0</ele><time>2026-05-01T13:20:08.001Z</time></trkpt><trkpt lat="48.19640844821276" lon="14.244799844341747"><ele>278.0</ele><time>2026-05-01T13:20:09.001Z</time></trkpt><trkpt lat="48.196550139642156" lon="14.2450886136755"><ele>278.0</ele><time>2026-05-01T13:20:10.001Z</time></trkpt><trkpt lat="48.19668945296259" lon="14.245375068065865"><ele>278.0</ele><time>2026-05-01T13:20:11.001Z</time></trkpt><trkpt lat="48.19682579115755" lon="14.245655740373042"><ele>278.0</ele><time>2026-05-01T13:20:12.001Z</time></trkpt><trkpt lat="48.19696066356363" lon="14.245936050631158"><ele>278.0</ele><time>2026-05-01T13:20:13.001Z</time></trkpt><trkpt lat="48.19709650791046" lon="14.246216314625167"><ele>278.0</ele><time>2026-05-01T13:20:14.001Z</time></trkpt><trkpt lat="48.197231442448796" lon="14.246494009794853"><ele>278.0</ele><time>2026-05-01T13:20:15.001Z</time></trkpt><trkpt lat="48.19736824465615" lon="14.246766164282414"><ele>277.5</ele><time>2026-05-01T13:20:16.001Z</time></trkpt><trkpt lat="48.19750509737784" lon="14.247041584489772"><ele>277.0</ele><time>2026-05-01T13:20:17.001Z</time></trkpt><trkpt lat="48.197641460233015" lon="14.247318078376091"><ele>277.0</ele><time>2026-05-01T13:20:18.001Z</time></trkpt><trkpt lat="48.1977760176595" lon="14.247597884967611"><ele>277.0</ele><time>2026-05-01T13:20:19.001Z</time></trkpt><trkpt lat="48.197912892459065" lon="14.247878896402593"><ele>277.5</ele><time>2026-05-01T13:20:20.001Z</time></trkpt><trkpt lat="48.1980502047738" lon="14.248157926815098"><ele>278.0</ele><time>2026-05-01T13:20:21.001Z</time></trkpt><trkpt lat="48.198186523017434" lon="14.248439193736418"><ele>278.0</ele><time>2026-05-01T13:20:22.001Z</time></trkpt><trkpt lat="48.19832281760682" lon="14.248721706444245"><ele>278.0</ele><time>2026-05-01T13:20:23.001Z</time></trkpt><trkpt lat="48.198460142146075" lon="14.249001414428761"><ele>277.5</ele><time>2026-05-01T13:20:24.001Z</time></trkpt><trkpt lat="48.19859687797742" lon="14.249284522179648"><ele>277.0</ele><time>2026-05-01T13:20:25.001Z</time></trkpt><trkpt lat="48.19873600445749" lon="14.249571896189114"><ele>277.5</ele><time>2026-05-01T13:20:26.001Z</time></trkpt><trkpt lat="48.19887512828213" lon="14.249856111861977"><ele>278.0</ele><time>2026-05-01T13:20:27.001Z</time></trkpt><trkpt lat="48.199013735286634" lon="14.250141978284223"><ele>277.0</ele><time>2026-05-01T13:20:28.001Z</time></trkpt><trkpt lat="48.19915277702335" lon="14.2504286497598"><ele>276.0</ele><time>2026-05-01T13:20:29.001Z</time></trkpt><trkpt lat="48.19929418026281" lon="14.250709326557978"><ele>275.5</ele><time>2026-05-01T13:20:30.001Z</time></trkpt><trkpt lat="48.199434356292606" lon="14.25099104424503"><ele>275.0</ele><time>2026-05-01T13:20:31.001Z</time></trkpt><trkpt lat="48.1995765478665" lon="14.251276343393359"><ele>275.0</ele><time>2026-05-01T13:20:32.001Z</time></trkpt><trkpt lat="48.1997164140971" lon="14.251564028240091"><ele>275.0</ele><time>2026-05-01T13:20:33.001Z</time></trkpt><trkpt lat="48.199856013188366" lon="14.251851540378686"><ele>275.5</ele><time>2026-05-01T13:20:34.001Z</time></trkpt><trkpt lat="48.19999656539701" lon="14.252141430922157"><ele>276.0</ele><time>2026-05-01T13:20:35.001Z</time></trkpt><trkpt lat="48.20013705858695" lon="14.252428941596765"><ele>276.5</ele><time>2026-05-01T13:20:36.001Z</time></trkpt><trkpt lat="48.20027709130582" lon="14.252715186375681"><ele>277.0</ele><time>2026-05-01T13:20:37.001Z</time></trkpt><trkpt lat="48.20041830867879" lon="14.25300388527976"><ele>276.5</ele><time>2026-05-01T13:20:38.001Z</time></trkpt><trkpt lat="48.20055907029713" lon="14.253291821259051"><ele>276.0</ele><time>2026-05-01T13:20:39.001Z</time></trkpt><trkpt lat="48.20070082772192" lon="14.253583495171112"><ele>276.0</ele><time>2026-05-01T13:20:40.001Z</time></trkpt><trkpt lat="48.20084164295061" lon="14.253876180759965"><ele>276.0</ele><time>2026-05-01T13:20:41.001Z</time></trkpt><trkpt lat="48.200979822030675" lon="14.254169106588868"><ele>275.5</ele><time>2026-05-01T13:20:42.001Z</time></trkpt><trkpt lat="48.20112006043796" lon="14.254465896543918"><ele>275.0</ele><time>2026-05-01T13:20:43.001Z</time></trkpt><trkpt lat="48.20125948073632" lon="14.254764135083061"><ele>275.0</ele><time>2026-05-01T13:20:44.001Z</time></trkpt><trkpt lat="48.2013951296375" lon="14.255064592926916"><ele>275.0</ele><time>2026-05-01T13:20:45.001Z</time></trkpt><trkpt lat="48.20152864261991" lon="14.255362635034372"><ele>275.5</ele><time>2026-05-01T13:20:46.001Z</time></trkpt><trkpt lat="48.20166215035765" lon="14.25566240810139"><ele>276.0</ele><time>2026-05-01T13:20:47.001Z</time></trkpt><trkpt lat="48.20179348580165" lon="14.255961520788336"><ele>276.0</ele><time>2026-05-01T13:20:48Z</time></trkpt><trkpt lat="48.201924362531614" lon="14.256260992503751"><ele>276.0</ele><time>2026-05-01T13:20:49Z</time></trkpt><trkpt lat="48.20205502812774" lon="14.256558524723204"><ele>275.5</ele><time>2026-05-01T13:20:50Z</time></trkpt><trkpt lat="48.2021875592045" lon="14.256856162918124"><ele>275.0</ele><time>2026-05-01T13:20:51Z</time></trkpt><trkpt lat="48.202318731236424" lon="14.257151225333866"><ele>276.5</ele><time>2026-05-01T13:20:52Z</time></trkpt><trkpt lat="48.20244938786338" lon="14.257445283146321"><ele>278.0</ele><time>2026-05-01T13:20:53Z</time></trkpt><trkpt lat="48.202579574079216" lon="14.257739916534902"><ele>278.0</ele><time>2026-05-01T13:20:54Z</time></trkpt><trkpt lat="48.202709366666134" lon="14.258036032192726"><ele>278.0</ele><time>2026-05-01T13:20:55Z</time></trkpt><trkpt lat="48.20284002708463" lon="14.258333897689122"><ele>277.0</ele><time>2026-05-01T13:20:56Z</time></trkpt><trkpt lat="48.202973798639135" lon="14.258634164934149"><ele>276.0</ele><time>2026-05-01T13:20:57Z</time></trkpt><trkpt lat="48.20310588056036" lon="14.25893491862207"><ele>277.5</ele><time>2026-05-01T13:20:58Z</time></trkpt><trkpt lat="48.2032379847104" lon="14.259236398704653"><ele>279.0</ele><time>2026-05-01T13:20:59Z</time></trkpt><trkpt lat="48.20337132118372" lon="14.259537155426418"><ele>278.5</ele><time>2026-05-01T13:21:00Z</time></trkpt><trkpt lat="48.20350421667176" lon="14.2598365451447"><ele>278.0</ele><time>2026-05-01T13:21:01Z</time></trkpt><trkpt lat="48.20363625126423" lon="14.260136814501037"><ele>278.0</ele><time>2026-05-01T13:21:02Z</time></trkpt><trkpt lat="48.20376964376061" lon="14.260437627504464"><ele>278.0</ele><time>2026-05-01T13:21:03Z</time></trkpt><trkpt lat="48.20390479054299" lon="14.260739455052805"><ele>279.5</ele><time>2026-05-01T13:21:04Z</time></trkpt><trkpt lat="48.204038119896005" lon="14.261043048070738"><ele>281.0</ele><time>2026-05-01T13:21:05Z</time></trkpt><trkpt lat="48.20416950801815" lon="14.261343051424399"><ele>279.5</ele><time>2026-05-01T13:21:06Z</time></trkpt><trkpt lat="48.204303984004774" lon="14.261645738360713"><ele>278.0</ele><time>2026-05-01T13:21:07Z</time></trkpt><trkpt lat="48.204438931410586" lon="14.261949220856442"><ele>278.0</ele><time>2026-05-01T13:21:08Z</time></trkpt><trkpt lat="48.204570370975425" lon="14.262244837680083"><ele>278.0</ele><time>2026-05-01T13:21:09Z</time></trkpt><trkpt lat="48.20469981455342" lon="14.262534964427484"><ele>277.0</ele><time>2026-05-01T13:21:10Z</time></trkpt><trkpt lat="48.20483165135606" lon="14.262829540991335"><ele>276.0</ele><time>2026-05-01T13:21:11Z</time></trkpt><trkpt lat="48.20496284163731" lon="14.263124414664285"><ele>276.0</ele><time>2026-05-01T13:21:12Z</time></trkpt><trkpt lat="48.20509266986285" lon="14.263421596800452"><ele>276.0</ele><time>2026-05-01T13:21:13Z</time></trkpt><trkpt lat="48.20522161927248" lon="14.263719191419007"><ele>275.5</ele><time>2026-05-01T13:21:14Z</time></trkpt><trkpt lat="48.2053500443365" lon="14.264014329523386"><ele>275.0</ele><time>2026-05-01T13:21:15Z</time></trkpt><trkpt lat="48.20547729672397" lon="14.264307745464354"><ele>275.0</ele><time>2026-05-01T13:21:16Z</time></trkpt><trkpt lat="48.205606593419" lon="14.26459870894943"><ele>275.0</ele><time>2026-05-01T13:21:17Z</time></trkpt><trkpt lat="48.20573278212411" lon="14.26488842877526"><ele>274.0</ele><time>2026-05-01T13:21:18Z</time></trkpt><trkpt lat="48.20585797457264" lon="14.265177018635377"><ele>273.0</ele><time>2026-05-01T13:21:19Z</time></trkpt><trkpt lat="48.20598505628474" lon="14.26546695856316"><ele>272.5</ele><time>2026-05-01T13:21:20Z</time></trkpt><trkpt lat="48.20611411924737" lon="14.265755384336185"><ele>272.0</ele><time>2026-05-01T13:21:21Z</time></trkpt><trkpt lat="48.20624173459615" lon="14.266046272209053"><ele>272.0</ele><time>2026-05-01T13:21:22Z</time></trkpt><trkpt lat="48.20637457053456" lon="14.26633630606146"><ele>272.0</ele><time>2026-05-01T13:21:23Z</time></trkpt><trkpt lat="48.2065072099885" lon="14.266631394956681"><ele>273.0</ele><time>2026-05-01T13:21:24Z</time></trkpt><trkpt lat="48.20663845295092" lon="14.2669276693324"><ele>274.0</ele><time>2026-05-01T13:21:25Z</time></trkpt><trkpt lat="48.206771100231016" lon="14.267226441862656"><ele>275.0</ele><time>2026-05-01T13:21:26Z</time></trkpt><trkpt lat="48.20690229764228" lon="14.267525310508994"><ele>276.0</ele><time>2026-05-01T13:21:27Z</time></trkpt><trkpt lat="48.20703494481176" lon="14.26782570208353"><ele>274.5</ele><time>2026-05-01T13:21:28Z</time></trkpt><trkpt lat="48.207166795703145" lon="14.268125373114602"><ele>273.0</ele><time>2026-05-01T13:21:29Z</time></trkpt><trkpt lat="48.20729889290818" lon="14.26842191149319"><ele>272.0</ele><time>2026-05-01T13:21:30Z</time></trkpt><trkpt lat="48.20743109098073" lon="14.26872022363495"><ele>271.0</ele><time>2026-05-01T13:21:31Z</time></trkpt><trkpt lat="48.20756121241966" lon="14.269018988210295"><ele>270.5</ele><time>2026-05-01T13:21:32Z</time></trkpt><trkpt lat="48.20769276444555" lon="14.269317374581414"><ele>270.0</ele><time>2026-05-01T13:21:33Z</time></trkpt><trkpt lat="48.20782466397352" lon="14.26961652007511"><ele>270.0</ele><time>2026-05-01T13:21:34Z</time></trkpt><trkpt lat="48.20795868780744" lon="14.269913028868096"><ele>270.0</ele><time>2026-05-01T13:21:35Z</time></trkpt><trkpt lat="48.208087062081816" lon="14.27021123675816"><ele>270.0</ele><time>2026-05-01T13:21:36Z</time></trkpt><trkpt lat="48.208220341827165" lon="14.270504957630457"><ele>270.0</ele><time>2026-05-01T13:21:37Z</time></trkpt><trkpt lat="48.20834897038624" lon="14.270795609188658"><ele>270.0</ele><time>2026-05-01T13:21:38Z</time></trkpt><trkpt lat="48.208477527670915" lon="14.271091135956471"><ele>270.0</ele><time>2026-05-01T13:21:39Z</time></trkpt><trkpt lat="48.208606742197354" lon="14.27138946650457"><ele>270.5</ele><time>2026-05-01T13:21:40Z</time></trkpt><trkpt lat="48.20873996510326" lon="14.271688451465897"><ele>271.0</ele><time>2026-05-01T13:21:41Z</time></trkpt><trkpt lat="48.2088702095573" lon="14.271989739979652"><ele>270.5</ele><time>2026-05-01T13:21:42Z</time></trkpt><trkpt lat="48.20899949074878" lon="14.272289186247372"><ele>270.0</ele><time>2026-05-01T13:21:43Z</time></trkpt><trkpt lat="48.20913315595626" lon="14.272590582255148"><ele>270.0</ele><time>2026-05-01T13:21:44Z</time></trkpt><trkpt lat="48.209267721850246" lon="14.272891040086053"><ele>270.0</ele><time>2026-05-01T13:21:45Z</time></trkpt><trkpt lat="48.20940054358858" lon="14.273190707975468"><ele>270.0</ele><time>2026-05-01T13:21:46Z</time></trkpt><trkpt lat="48.20953231615795" lon="14.273490082427267"><ele>270.0</ele><time>2026-05-01T13:21:47Z</time></trkpt><trkpt lat="48.209663180040174" lon="14.273788631479277"><ele>270.5</ele><time>2026-05-01T13:21:48Z</time></trkpt><trkpt lat="48.20979424913192" lon="14.274086321135282"><ele>271.0</ele><time>2026-05-01T13:21:49Z</time></trkpt><trkpt lat="48.2099259059398" lon="14.274381801262018"><ele>271.5</ele><time>2026-05-01T13:21:50Z</time></trkpt><trkpt lat="48.21005738792759" lon="14.274675843751552"><ele>272.0</ele><time>2026-05-01T13:21:51Z</time></trkpt><trkpt lat="48.2101854022044" lon="14.274968553621326"><ele>272.5</ele><time>2026-05-01T13:21:52Z</time></trkpt><trkpt lat="48.21031405136605" lon="14.275262980371727"><ele>273.0</ele><time>2026-05-01T13:21:53Z</time></trkpt><trkpt lat="48.21044221684383" lon="14.275553577288418"><ele>272.5</ele><time>2026-05-01T13:21:54Z</time></trkpt><trkpt lat="48.210571339508036" lon="14.27584454766223"><ele>272.0</ele><time>2026-05-01T13:21:55Z</time></trkpt><trkpt lat="48.210699144071896" lon="14.276134135696353"><ele>272.0</ele><time>2026-05-01T13:21:56Z</time></trkpt><trkpt lat="48.21082508219431" lon="14.27642221891685"><ele>272.0</ele><time>2026-05-01T13:21:57Z</time></trkpt><trkpt lat="48.21094922039201" lon="14.276709958202307"><ele>272.0</ele><time>2026-05-01T13:21:58Z</time></trkpt><trkpt lat="48.21106732765248" lon="14.276995976743269"><ele>272.0</ele><time>2026-05-01T13:21:59Z</time></trkpt><trkpt lat="48.211183668253625" lon="14.277280854931792"><ele>272.0</ele><time>2026-05-01T13:22:00Z</time></trkpt><trkpt lat="48.211298116353284" lon="14.277560196220726"><ele>272.0</ele><time>2026-05-01T13:22:01Z</time></trkpt><trkpt lat="48.21141161815474" lon="14.277829842284808"><ele>272.0</ele><time>2026-05-01T13:22:02Z</time></trkpt><trkpt lat="48.21152028799568" lon="14.278084675034064"><ele>272.0</ele><time>2026-05-01T13:22:03Z</time></trkpt><trkpt lat="48.21162641961603" lon="14.278323522996466"><ele>272.0</ele><time>2026-05-01T13:22:04Z</time></trkpt><trkpt lat="48.21173000125209" lon="14.278556864231826"><ele>272.0</ele><time>2026-05-01T13:22:05Z</time></trkpt><trkpt lat="48.21182726157951" lon="14.278775476161984"><ele>272.0</ele><time>2026-05-01T13:22:06Z</time></trkpt><trkpt lat="48.21191649304144" lon="14.27898513420466"><ele>272.0</ele><time>2026-05-01T13:22:07Z</time></trkpt><trkpt lat="48.212002289821314" lon="14.279183914056977"><ele>272.0</ele><time>2026-05-01T13:22:08Z</time></trkpt><trkpt lat="48.2120798517694" lon="14.279395145441425"><ele>272.0</ele><time>2026-05-01T13:22:09Z</time></trkpt><trkpt lat="48.212139196056285" lon="14.279515406260114"><ele>272.0</ele><time>2026-05-01T13:22:10Z</time></trkpt><trkpt lat="48.21217631809074" lon="14.279678532833838"><ele>272.0</ele><time>2026-05-01T13:22:11Z</time></trkpt><trkpt lat="48.21219667956717" lon="14.279845392016453"><ele>272.0</ele><time>2026-05-01T13:22:12Z</time></trkpt><trkpt lat="48.21220806817722" lon="14.280018332279942"><ele>272.0</ele><time>2026-05-01T13:22:13Z</time></trkpt><trkpt lat="48.21221594703348" lon="14.280192623200008"><ele>272.0</ele><time>2026-05-01T13:22:14Z</time></trkpt><trkpt lat="48.2122230793269" lon="14.280362414242862"><ele>272.0</ele><time>2026-05-01T13:22:15Z</time></trkpt><trkpt lat="48.212232063207516" lon="14.280517065088295"><ele>272.0</ele><time>2026-05-01T13:22:16.001Z</time></trkpt><trkpt lat="48.21223749393644" lon="14.280644829154333"><ele>272.0</ele><time>2026-05-01T13:22:17.001Z</time></trkpt><trkpt lat="48.21223741770249" lon="14.280751155607932"><ele>272.0</ele><time>2026-05-01T13:22:18.001Z</time></trkpt><trkpt lat="48.21224056715527" lon="14.280846835942965"><ele>272.0</ele><time>2026-05-01T13:22:19.001Z</time></trkpt><trkpt lat="48.21225650037705" lon="14.281025727638415"><ele>272.0</ele><time>2026-05-01T13:22:21.001Z</time></trkpt><trkpt lat="48.212295857828686" lon="14.281188983733703"><ele>272.1428571428571</ele><time>2026-05-01T13:22:23.001Z</time></trkpt><trkpt lat="48.212314569090005" lon="14.281321122422655"><ele>272.2857142857143</ele><time>2026-05-01T13:22:25.001Z</time></trkpt><trkpt lat="48.2122502656454" lon="14.28135992315096"><ele>272.42857142857144</ele><time>2026-05-01T13:25:10Z</time></trkpt><trkpt lat="48.21222997549215" lon="14.281455680524326"><ele>272.57142857142856</ele><time>2026-05-01T13:25:32Z</time></trkpt><trkpt lat="48.212209174539616" lon="14.281560775452844"><ele>272.7142857142857</ele><time>2026-05-01T13:25:49Z</time></trkpt><trkpt lat="48.21220453841178" lon="14.281657117041757"><ele>272.85714285714283</ele><time>2026-05-01T13:25:52Z</time></trkpt><trkpt lat="48.21218375544325" lon="14.281565159898438"><ele>273.0</ele><time>2026-05-01T13:28:04Z</time></trkpt><trkpt lat="48.21220934825363" lon="14.28146533010467"><ele>272.6666666666667</ele><time>2026-05-01T13:28:18Z</time></trkpt><trkpt lat="48.21231499627976" lon="14.281563711012975"><ele>272.3333333333333</ele><time>2026-05-01T13:31:48Z</time></trkpt><trkpt lat="48.21228161217457" lon="14.281662406981413"><ele>272.0</ele><time>2026-05-01T13:36:19Z</time></trkpt><trkpt lat="48.21225077130409" lon="14.281579495330021"><ele>271.66666666666663</ele><time>2026-05-01T13:52:47Z</time></trkpt><trkpt lat="48.212196068394746" lon="14.281632840286646"><ele>271.3333333333333</ele><time>2026-05-01T13:52:59Z</time></trkpt><trkpt lat="48.21212344202342" lon="14.28172745514439"><ele>271.0</ele><time>2026-05-01T13:56:42.314Z</time></trkpt><trkpt lat="48.21201583443982" lon="14.281696603796497"><ele>271.0</ele><time>2026-05-01T13:56:47.015Z</time></trkpt><trkpt lat="48.21201114940411" lon="14.281797569873426"><ele>271.0</ele><time>2026-05-01T13:56:51.878Z</time></trkpt><trkpt lat="48.21207475430733" lon="14.281705308473127"><ele>271.0</ele><time>2026-05-01T13:56:53.019Z</time></trkpt><trkpt lat="48.212157414330576" lon="14.281553418198337"><ele>271.0</ele><time>2026-05-01T13:56:57Z</time></trkpt><trkpt lat="48.21223761809968" lon="14.281532374940722"><ele>271.0</ele><time>2026-05-01T13:56:59Z</time></trkpt><trkpt lat="48.212297294564216" lon="14.28156426045442"><ele>271.0</ele><time>2026-05-01T13:57:01Z</time></trkpt><trkpt lat="48.21230430061006" lon="14.281662683715892"><ele>271.1428571428571</ele><time>2026-05-01T14:06:53Z</time></trkpt><trkpt lat="48.21233972573138" lon="14.281795610804318"><ele>271.2857142857143</ele><time>2026-05-01T14:06:55Z</time></trkpt><trkpt lat="48.21237719652698" lon="14.281878478737752"><ele>271.42857142857144</ele><time>2026-05-01T14:06:56Z</time></trkpt><trkpt lat="48.212415718509526" lon="14.281953663232537"><ele>271.57142857142856</ele><time>2026-05-01T14:06:57Z</time></trkpt><trkpt lat="48.21245418497618" lon="14.282033070413432"><ele>271.7142857142857</ele><time>2026-05-01T14:06:58Z</time></trkpt><trkpt lat="48.21249595234574" lon="14.282118989345681"><ele>271.85714285714283</ele><time>2026-05-01T14:06:59Z</time></trkpt><trkpt lat="48.21253949733188" lon="14.28221163274898"><ele>272.0</ele><time>2026-05-01T14:07:00Z</time></trkpt><trkpt lat="48.21258874002343" lon="14.282307432570063"><ele>271.6666666666667</ele><time>2026-05-01T14:07:01Z</time></trkpt><trkpt lat="48.212622277486815" lon="14.282421720399727"><ele>271.33333333333337</ele><time>2026-05-01T14:07:02Z</time></trkpt><trkpt lat="48.21266591401112" lon="14.282525693140604"><ele>271.0</ele><time>2026-05-01T14:07:03Z</time></trkpt><trkpt lat="48.212711112605724" lon="14.282609516656269"><ele>270.6666666666667</ele><time>2026-05-01T14:07:04Z</time></trkpt><trkpt lat="48.212791421177045" lon="14.282648104002275"><ele>270.3333333333333</ele><time>2026-05-01T14:07:05Z</time></trkpt><trkpt lat="48.21284100706943" lon="14.282713673866942"><ele>270.0</ele><time>2026-05-01T14:07:06Z</time></trkpt><trkpt lat="48.212911842938894" lon="14.282845712817936"><ele>270.0</ele><time>2026-05-01T14:07:08Z</time></trkpt><trkpt lat="48.21297032552228" lon="14.282994039082386"><ele>270.0</ele><time>2026-05-01T14:07:10Z</time></trkpt><trkpt lat="48.21304312492394" lon="14.283091902608028"><ele>270.0</ele><time>2026-05-01T14:07:12Z</time></trkpt><trkpt lat="48.21311477257881" lon="14.283028912812576"><ele>270.0</ele><time>2026-05-01T14:07:13Z</time></trkpt><trkpt lat="48.213192137546656" lon="14.282908890330319"><ele>270.0</ele><time>2026-05-01T14:07:15Z</time></trkpt><trkpt lat="48.21327792397645" lon="14.28279312502035"><ele>270.2</ele><time>2026-05-01T14:07:17Z</time></trkpt><trkpt lat="48.21337148811173" lon="14.282809359508164"><ele>270.4</ele><time>2026-05-01T14:07:19Z</time></trkpt><trkpt lat="48.21346725158695" lon="14.282951002311648"><ele>270.6</ele><time>2026-05-01T14:07:21Z</time></trkpt><trkpt lat="48.21352738697551" lon="14.283054086929978"><ele>270.8</ele><time>2026-05-01T14:07:22Z</time></trkpt><trkpt lat="48.213575391876994" lon="14.283191299205352"><ele>271.0</ele><time>2026-05-01T14:07:23Z</time></trkpt><trkpt lat="48.21363793079603" lon="14.283329192995728"><ele>271.0</ele><time>2026-05-01T14:07:24Z</time></trkpt><trkpt lat="48.213716139183646" lon="14.283464255811838"><ele>271.0</ele><time>2026-05-01T14:07:25Z</time></trkpt><trkpt lat="48.21377870264956" lon="14.283618629883284"><ele>271.0</ele><time>2026-05-01T14:07:26Z</time></trkpt><trkpt lat="48.2138423029806" lon="14.283774035312002"><ele>271.0</ele><time>2026-05-01T14:07:27Z</time></trkpt><trkpt lat="48.21390645633568" lon="14.283929919592794"><ele>270.75</ele><time>2026-05-01T14:07:28Z</time></trkpt><trkpt lat="48.21397215710332" lon="14.284082885270644"><ele>270.5</ele><time>2026-05-01T14:07:29Z</time></trkpt><trkpt lat="48.21403389517923" lon="14.284236144239431"><ele>270.25</ele><time>2026-05-01T14:07:30Z</time></trkpt><trkpt lat="48.21409957963919" lon="14.284382311238256"><ele>270.0</ele><time>2026-05-01T14:07:31Z</time></trkpt><trkpt lat="48.21415860801416" lon="14.284514124463636"><ele>270.0</ele><time>2026-05-01T14:07:32Z</time></trkpt><trkpt lat="48.2142100348461" lon="14.284619960742091"><ele>270.0</ele><time>2026-05-01T14:07:33Z</time></trkpt><trkpt lat="48.21425151062985" lon="14.284725652486559"><ele>270.0</ele><time>2026-05-01T14:07:34Z</time></trkpt><trkpt lat="48.21427800360507" lon="14.28484808283078"><ele>270.0</ele><time>2026-05-01T14:07:35Z</time></trkpt><trkpt lat="48.21428272183502" lon="14.284976617478168"><ele>270.0</ele><time>2026-05-01T14:07:36Z</time></trkpt><trkpt lat="48.21428262743416" lon="14.28507614721369"><ele>270.0</ele><time>2026-05-01T14:07:37Z</time></trkpt><trkpt lat="48.21429986276167" lon="14.285179241837557"><ele>270.0</ele><time>2026-05-01T14:07:39Z</time></trkpt><trkpt lat="48.21437197391225" lon="14.285296082973934"><ele>270.0</ele><time>2026-05-01T14:07:41Z</time></trkpt><trkpt lat="48.2144525183088" lon="14.285342969274485"><ele>270.0</ele><time>2026-05-01T14:07:42Z</time></trkpt><trkpt lat="48.214552913742544" lon="14.285400185134542"><ele>270.0</ele><time>2026-05-01T14:07:43Z</time></trkpt><trkpt lat="48.21466077612892" lon="14.285484955742042"><ele>270.0</ele><time>2026-05-01T14:07:44Z</time></trkpt><trkpt lat="48.21476834001423" lon="14.28561617252236"><ele>270.0</ele><time>2026-05-01T14:07:45Z</time></trkpt><trkpt lat="48.214868366340426" lon="14.285784994355469"><ele>270.0</ele><time>2026-05-01T14:07:46Z</time></trkpt><trkpt lat="48.214966058351095" lon="14.285987068073348"><ele>270.0</ele><time>2026-05-01T14:07:47Z</time></trkpt><trkpt lat="48.21505803380568" lon="14.286186795365607"><ele>270.0</ele><time>2026-05-01T14:07:48Z</time></trkpt><trkpt lat="48.21515625977746" lon="14.286401678237631"><ele>270.0</ele><time>2026-05-01T14:07:49Z</time></trkpt><trkpt lat="48.21526376911361" lon="14.28664284213131"><ele>270.0</ele><time>2026-05-01T14:07:50Z</time></trkpt><trkpt lat="48.2153798998886" lon="14.286903940438428"><ele>270.0</ele><time>2026-05-01T14:07:51Z</time></trkpt><trkpt lat="48.21549724159871" lon="14.28717127928911"><ele>270.0</ele><time>2026-05-01T14:07:52Z</time></trkpt><trkpt lat="48.21561264749746" lon="14.28743316402717"><ele>270.0</ele><time>2026-05-01T14:07:53Z</time></trkpt><trkpt lat="48.215736161215744" lon="14.287705410965224"><ele>270.5</ele><time>2026-05-01T14:07:54Z</time></trkpt><trkpt lat="48.21586945479936" lon="14.28798465174416"><ele>271.0</ele><time>2026-05-01T14:07:55Z</time></trkpt><trkpt lat="48.2160074766397" lon="14.288266588173741"><ele>272.0</ele><time>2026-05-01T14:07:56Z</time></trkpt><trkpt lat="48.21614846453856" lon="14.288554671784453"><ele>273.0</ele><time>2026-05-01T14:07:57Z</time></trkpt><trkpt lat="48.21627795504759" lon="14.28883493640232"><ele>271.0</ele><time>2026-05-01T14:07:58Z</time></trkpt><trkpt lat="48.21640835706955" lon="14.289109577011486"><ele>269.0</ele><time>2026-05-01T14:07:59Z</time></trkpt><trkpt lat="48.21653690048961" lon="14.28939006815281"><ele>268.5</ele><time>2026-05-01T14:08:00Z</time></trkpt><trkpt lat="48.216668112014496" lon="14.28967204971523"><ele>268.0</ele><time>2026-05-01T14:08:01Z</time></trkpt><trkpt lat="48.21679556669951" lon="14.289944261618675"><ele>268.0</ele><time>2026-05-01T14:08:02Z</time></trkpt><trkpt lat="48.21692724070292" lon="14.29021309846846"><ele>268.0</ele><time>2026-05-01T14:08:03Z</time></trkpt><trkpt lat="48.21706077808958" lon="14.290488352266712"><ele>268.0</ele><time>2026-05-01T14:08:04Z</time></trkpt><trkpt lat="48.217195891852164" lon="14.29076832558339"><ele>268.5</ele><time>2026-05-01T14:08:05Z</time></trkpt><trkpt lat="48.21733487516599" lon="14.291053050443745"><ele>269.0</ele><time>2026-05-01T14:08:06Z</time></trkpt><trkpt lat="48.2174702397895" lon="14.291338138887616"><ele>268.0</ele><time>2026-05-01T14:08:07Z</time></trkpt><trkpt lat="48.2176071789284" lon="14.291621969071855"><ele>267.0</ele><time>2026-05-01T14:08:08Z</time></trkpt><trkpt lat="48.21774536532531" lon="14.291906281874397"><ele>267.0</ele><time>2026-05-01T14:08:09Z</time></trkpt><trkpt lat="48.21788309082894" lon="14.292187999357425"><ele>267.0</ele><time>2026-05-01T14:08:10Z</time></trkpt><trkpt lat="48.21801481414734" lon="14.292467005973872"><ele>267.0</ele><time>2026-05-01T14:08:11Z</time></trkpt><trkpt lat="48.218145206832716" lon="14.292742159784995"><ele>267.0</ele><time>2026-05-01T14:08:12Z</time></trkpt><trkpt lat="48.21827700353127" lon="14.293011364579952"><ele>267.0</ele><time>2026-05-01T14:08:13Z</time></trkpt><trkpt lat="48.21840752177667" lon="14.293281250430617"><ele>267.0</ele><time>2026-05-01T14:08:14Z</time></trkpt><trkpt lat="48.21853495607961" lon="14.29355079333159"><ele>267.0</ele><time>2026-05-01T14:08:15Z</time></trkpt><trkpt lat="48.21866588637551" lon="14.293820705941158"><ele>267.0</ele><time>2026-05-01T14:08:16Z</time></trkpt><trkpt lat="48.21879695464404" lon="14.294089848575007"><ele>267.0</ele><time>2026-05-01T14:08:17Z</time></trkpt><trkpt lat="48.21892742293157" lon="14.294359001296472"><ele>267.0</ele><time>2026-05-01T14:08:18Z</time></trkpt><trkpt lat="48.21905746061754" lon="14.294627928549005"><ele>267.0</ele><time>2026-05-01T14:08:19Z</time></trkpt><trkpt lat="48.219185961512224" lon="14.294895253694072"><ele>267.0</ele><time>2026-05-01T14:08:20Z</time></trkpt><trkpt lat="48.21931356683666" lon="14.29516115388768"><ele>267.0</ele><time>2026-05-01T14:08:21Z</time></trkpt><trkpt lat="48.21944235552658" lon="14.295428674113076"><ele>267.0</ele><time>2026-05-01T14:08:22Z</time></trkpt><trkpt lat="48.21957346863454" lon="14.295699711697564"><ele>267.5</ele><time>2026-05-01T14:08:23Z</time></trkpt><trkpt lat="48.21970753687665" lon="14.295971655006348"><ele>268.0</ele><time>2026-05-01T14:08:24Z</time></trkpt><trkpt lat="48.21984262410661" lon="14.296248076517065"><ele>267.5</ele><time>2026-05-01T14:08:25Z</time></trkpt><trkpt lat="48.2199769533577" lon="14.29652896611488"><ele>267.0</ele><time>2026-05-01T14:08:26Z</time></trkpt><trkpt lat="48.2201125082902" lon="14.296812795830945"><ele>267.0</ele><time>2026-05-01T14:08:27Z</time></trkpt><trkpt lat="48.22024971647379" lon="14.297097431236221"><ele>267.0</ele><time>2026-05-01T14:08:28Z</time></trkpt><trkpt lat="48.220386643935356" lon="14.297380882495286"><ele>267.0</ele><time>2026-05-01T14:08:29Z</time></trkpt><trkpt lat="48.220525812750644" lon="14.297667756178228"><ele>267.0</ele><time>2026-05-01T14:08:30Z</time></trkpt><trkpt lat="48.22066591285625" lon="14.297955153987791"><ele>267.0</ele><time>2026-05-01T14:08:31Z</time></trkpt><trkpt lat="48.22080499082242" lon="14.298242254815253"><ele>267.0</ele><time>2026-05-01T14:08:32Z</time></trkpt><trkpt lat="48.22094571406814" lon="14.298533069881096"><ele>267.0</ele><time>2026-05-01T14:08:33Z</time></trkpt><trkpt lat="48.221087015082254" lon="14.298827740344233"><ele>267.0</ele><time>2026-05-01T14:08:34Z</time></trkpt><trkpt lat="48.22122925593208" lon="14.299124876091009"><ele>267.5</ele><time>2026-05-01T14:08:35Z</time></trkpt><trkpt lat="48.2213740268495" lon="14.299423105119851"><ele>268.0</ele><time>2026-05-01T14:08:36Z</time></trkpt><trkpt lat="48.221519918420334" lon="14.299723865700953"><ele>267.5</ele><time>2026-05-01T14:08:37Z</time></trkpt><trkpt lat="48.22166720014069" lon="14.300028899723255"><ele>267.0</ele><time>2026-05-01T14:08:38Z</time></trkpt><trkpt lat="48.22181576335536" lon="14.300335306305653"><ele>266.0</ele><time>2026-05-01T14:08:39Z</time></trkpt><trkpt lat="48.221965636236696" lon="14.30064038602706"><ele>265.0</ele><time>2026-05-01T14:08:40Z</time></trkpt><trkpt lat="48.22211427137137" lon="14.300945845977632"><ele>265.0</ele><time>2026-05-01T14:08:41Z</time></trkpt><trkpt lat="48.222262395757014" lon="14.301251103782736"><ele>265.0</ele><time>2026-05-01T14:08:42Z</time></trkpt><trkpt lat="48.22240924557864" lon="14.301555332728702"><ele>266.0</ele><time>2026-05-01T14:08:43Z</time></trkpt><trkpt lat="48.22255512455348" lon="14.301854312041588"><ele>267.0</ele><time>2026-05-01T14:08:44Z</time></trkpt><trkpt lat="48.22269885822359" lon="14.302150465056046"><ele>267.0</ele><time>2026-05-01T14:08:45Z</time></trkpt><trkpt lat="48.22283906602098" lon="14.302443938628386"><ele>267.0</ele><time>2026-05-01T14:08:46Z</time></trkpt><trkpt lat="48.22297825426138" lon="14.30273626824986"><ele>267.0</ele><time>2026-05-01T14:08:47Z</time></trkpt><trkpt lat="48.223119571161256" lon="14.303030337998479"><ele>267.0</ele><time>2026-05-01T14:08:48Z</time></trkpt><trkpt lat="48.223259413137754" lon="14.303325001047172"><ele>267.0</ele><time>2026-05-01T14:08:49Z</time></trkpt><trkpt lat="48.22340018769403" lon="14.303619530686388"><ele>267.0</ele><time>2026-05-01T14:08:50Z</time></trkpt><trkpt lat="48.223542303497005" lon="14.30391378845121"><ele>266.5</ele><time>2026-05-01T14:08:51Z</time></trkpt><trkpt lat="48.223685064178056" lon="14.30420855747265"><ele>266.0</ele><time>2026-05-01T14:08:52Z</time></trkpt><trkpt lat="48.223827162522895" lon="14.304503086232879"><ele>265.5</ele><time>2026-05-01T14:08:53Z</time></trkpt><trkpt lat="48.22396934637666" lon="14.304799546547738"><ele>265.0</ele><time>2026-05-01T14:08:54Z</time></trkpt><trkpt lat="48.22411091576649" lon="14.305096674887409"><ele>265.0</ele><time>2026-05-01T14:08:55Z</time></trkpt><trkpt lat="48.22425293820945" lon="14.305393783398587"><ele>265.0</ele><time>2026-05-01T14:08:56Z</time></trkpt><trkpt lat="48.22439663845592" lon="14.305690385723524"><ele>265.0</ele><time>2026-05-01T14:08:57Z</time></trkpt><trkpt lat="48.22453967098737" lon="14.305987281133406"><ele>265.0</ele><time>2026-05-01T14:08:58Z</time></trkpt><trkpt lat="48.22468335314898" lon="14.306281322044047"><ele>266.0</ele><time>2026-05-01T14:08:59Z</time></trkpt><trkpt lat="48.22482424765257" lon="14.306573673304346"><ele>267.0</ele><time>2026-05-01T14:09:00Z</time></trkpt><trkpt lat="48.22496375912415" lon="14.306864373952752"><ele>267.0</ele><time>2026-05-01T14:09:01Z</time></trkpt><trkpt lat="48.225102469497934" lon="14.307154326193794"><ele>267.0</ele><time>2026-05-01T14:09:02Z</time></trkpt><trkpt lat="48.225239541967625" lon="14.30744282935566"><ele>266.0</ele><time>2026-05-01T14:09:03Z</time></trkpt><trkpt lat="48.22537731373473" lon="14.307729860366354"><ele>265.0</ele><time>2026-05-01T14:09:04Z</time></trkpt><trkpt lat="48.225515443383436" lon="14.308019068077234"><ele>266.5</ele><time>2026-05-01T14:09:05Z</time></trkpt><trkpt lat="48.225655309498826" lon="14.308310859193208"><ele>268.0</ele><time>2026-05-01T14:09:06Z</time></trkpt><trkpt lat="48.225796172938054" lon="14.308604773903099"><ele>268.0</ele><time>2026-05-01T14:09:07Z</time></trkpt><trkpt lat="48.225938595780676" lon="14.308899459049133"><ele>268.0</ele><time>2026-05-01T14:09:08Z</time></trkpt><trkpt lat="48.22608034494662" lon="14.30919486701141"><ele>268.0</ele><time>2026-05-01T14:09:09Z</time></trkpt><trkpt lat="48.22622352650348" lon="14.309492103240816"><ele>268.0</ele><time>2026-05-01T14:09:10Z</time></trkpt><trkpt lat="48.22636694555747" lon="14.309790249446598"><ele>267.5</ele><time>2026-05-01T14:09:11Z</time></trkpt><trkpt lat="48.22651041323938" lon="14.310089810658182"><ele>267.0</ele><time>2026-05-01T14:09:12Z</time></trkpt><trkpt lat="48.22665521922118" lon="14.310388533505044"><ele>267.0</ele><time>2026-05-01T14:09:13Z</time></trkpt><trkpt lat="48.226800997560886" lon="14.310687258969416"><ele>267.0</ele><time>2026-05-01T14:09:14Z</time></trkpt><trkpt lat="48.22694617962753" lon="14.31098570630733"><ele>267.0</ele><time>2026-05-01T14:09:15Z</time></trkpt><trkpt lat="48.22709066060663" lon="14.311285228800225"><ele>267.0</ele><time>2026-05-01T14:09:16Z</time></trkpt><trkpt lat="48.22723411865056" lon="14.311587186217372"><ele>266.0</ele><time>2026-05-01T14:09:17Z</time></trkpt><trkpt lat="48.22737802877646" lon="14.311889428028145"><ele>265.0</ele><time>2026-05-01T14:09:18Z</time></trkpt><trkpt lat="48.22752224929551" lon="14.312189061920252"><ele>265.0</ele><time>2026-05-01T14:09:19Z</time></trkpt><trkpt lat="48.22766723936296" lon="14.312488083645409"><ele>265.0</ele><time>2026-05-01T14:09:20Z</time></trkpt><trkpt lat="48.22780944510178" lon="14.312783147465588"><ele>265.0</ele><time>2026-05-01T14:09:21Z</time></trkpt><trkpt lat="48.22794555058058" lon="14.313066955477002"><ele>265.0</ele><time>2026-05-01T14:09:22Z</time></trkpt><trkpt lat="48.22808323270362" lon="14.313356303921772"><ele>265.5</ele><time>2026-05-01T14:09:23Z</time></trkpt><trkpt lat="48.22822484561264" lon="14.313653590588785"><ele>266.0</ele><time>2026-05-01T14:09:24Z</time></trkpt><trkpt lat="48.22837080045683" lon="14.313957151641382"><ele>264.5</ele><time>2026-05-01T14:09:25Z</time></trkpt><trkpt lat="48.228520127501326" lon="14.314267336859775"><ele>263.0</ele><time>2026-05-01T14:09:26Z</time></trkpt><trkpt lat="48.228673552976836" lon="14.314585456532159"><ele>263.5</ele><time>2026-05-01T14:09:27Z</time></trkpt><trkpt lat="48.2288283302211" lon="14.314909582071419"><ele>264.0</ele><time>2026-05-01T14:09:28Z</time></trkpt><trkpt lat="48.22898650368553" lon="14.315239264356167"><ele>265.0</ele><time>2026-05-01T14:09:29Z</time></trkpt><trkpt lat="48.22914863302673" lon="14.315573667189632"><ele>266.0</ele><time>2026-05-01T14:09:30Z</time></trkpt><trkpt lat="48.22931290989886" lon="14.315912745259705"><ele>266.0</ele><time>2026-05-01T14:09:31Z</time></trkpt><trkpt lat="48.22947796970538" lon="14.316259560433156"><ele>266.0</ele><time>2026-05-01T14:09:32Z</time></trkpt><trkpt lat="48.22964605467504" lon="14.316611594258479"><ele>265.5</ele><time>2026-05-01T14:09:33Z</time></trkpt><trkpt lat="48.22981642882008" lon="14.316967103446949"><ele>265.0</ele><time>2026-05-01T14:09:34Z</time></trkpt><trkpt lat="48.229988976967896" lon="14.31732480381372"><ele>265.0</ele><time>2026-05-01T14:09:35Z</time></trkpt><trkpt lat="48.230160841313364" lon="14.31768461916235"><ele>265.0</ele><time>2026-05-01T14:09:36Z</time></trkpt><trkpt lat="48.230333427607384" lon="14.318046800569524"><ele>265.5</ele><time>2026-05-01T14:09:37Z</time></trkpt><trkpt lat="48.23050491050712" lon="14.318409760058227"><ele>266.0</ele><time>2026-05-01T14:09:38Z</time></trkpt><trkpt lat="48.230677494777304" lon="14.318772347201135"><ele>266.0</ele><time>2026-05-01T14:09:39Z</time></trkpt><trkpt lat="48.230851136824484" lon="14.319133816055269"><ele>266.0</ele><time>2026-05-01T14:09:40Z</time></trkpt><trkpt lat="48.23102654069466" lon="14.31949525761019"><ele>266.0</ele><time>2026-05-01T14:09:41Z</time></trkpt><trkpt lat="48.23120260197707" lon="14.319855490644837"><ele>266.0</ele><time>2026-05-01T14:09:42Z</time></trkpt><trkpt lat="48.23137769572849" lon="14.320217007831507"><ele>267.5</ele><time>2026-05-01T14:09:43Z</time></trkpt><trkpt lat="48.231550975924414" lon="14.320576759857918"><ele>269.0</ele><time>2026-05-01T14:09:44Z</time></trkpt><trkpt lat="48.231722048473" lon="14.320936083342474"><ele>269.0</ele><time>2026-05-01T14:09:45Z</time></trkpt><trkpt lat="48.23189346603583" lon="14.321294096106266"><ele>269.0</ele><time>2026-05-01T14:09:46Z</time></trkpt><trkpt lat="48.2320636082911" lon="14.321649303710343"><ele>270.0</ele><time>2026-05-01T14:09:47Z</time></trkpt><trkpt lat="48.23223029169654" lon="14.322004523317311"><ele>271.0</ele><time>2026-05-01T14:09:48Z</time></trkpt><trkpt lat="48.23239448467882" lon="14.322360532940683"><ele>271.5</ele><time>2026-05-01T14:09:49Z</time></trkpt><trkpt lat="48.232551270607644" lon="14.322720643785436"><ele>272.0</ele><time>2026-05-01T14:09:50Z</time></trkpt><trkpt lat="48.23270348238073" lon="14.323081528252734"><ele>273.0</ele><time>2026-05-01T14:09:51Z</time></trkpt><trkpt lat="48.23285031540375" lon="14.323448113026705"><ele>274.0</ele><time>2026-05-01T14:09:52Z</time></trkpt><trkpt lat="48.23299252205995" lon="14.323818956152568"><ele>274.0</ele><time>2026-05-01T14:09:53Z</time></trkpt><trkpt lat="48.23313098630638" lon="14.324192206532862"><ele>274.0</ele><time>2026-05-01T14:09:54Z</time></trkpt><trkpt lat="48.23326344880153" lon="14.324569320461606"><ele>276.0</ele><time>2026-05-01T14:09:55Z</time></trkpt><trkpt lat="48.23339104357033" lon="14.324950564850003"><ele>278.0</ele><time>2026-05-01T14:09:56Z</time></trkpt><trkpt lat="48.23351336170272" lon="14.325336991711636"><ele>279.5</ele><time>2026-05-01T14:09:57Z</time></trkpt><trkpt lat="48.233631469864" lon="14.325729987037915"><ele>281.0</ele><time>2026-05-01T14:09:58Z</time></trkpt><trkpt lat="48.23374248252478" lon="14.32612832211588"><ele>282.5</ele><time>2026-05-01T14:09:59Z</time></trkpt><trkpt lat="48.233846498891154" lon="14.326531417744048"><ele>284.0</ele><time>2026-05-01T14:10:00Z</time></trkpt><trkpt lat="48.23394479606687" lon="14.326939050657035"><ele>282.5</ele><time>2026-05-01T14:10:01Z</time></trkpt><trkpt lat="48.23403756825723" lon="14.327352393859599"><ele>281.0</ele><time>2026-05-01T14:10:02Z</time></trkpt><trkpt lat="48.23412747916106" lon="14.327768232057958"><ele>283.0</ele><time>2026-05-01T14:10:03Z</time></trkpt><trkpt lat="48.23421200029883" lon="14.328187178532254"><ele>285.0</ele><time>2026-05-01T14:10:04Z</time></trkpt><trkpt lat="48.234289238289996" lon="14.328609779701424"><ele>287.0</ele><time>2026-05-01T14:10:05Z</time></trkpt><trkpt lat="48.23436086505284" lon="14.329035735359522"><ele>289.0</ele><time>2026-05-01T14:10:06Z</time></trkpt><trkpt lat="48.23442753002227" lon="14.329464293615464"><ele>290.5</ele><time>2026-05-01T14:10:07Z</time></trkpt><trkpt lat="48.2344906809138" lon="14.329894728470148"><ele>292.0</ele><time>2026-05-01T14:10:08Z</time></trkpt><trkpt lat="48.23455287229245" lon="14.330322634555635"><ele>292.5</ele><time>2026-05-01T14:10:09Z</time></trkpt><trkpt lat="48.234616408100194" lon="14.330749308315712"><ele>293.0</ele><time>2026-05-01T14:10:10Z</time></trkpt><trkpt lat="48.23467622197778" lon="14.331173657370215"><ele>295.0</ele><time>2026-05-01T14:10:11Z</time></trkpt><trkpt lat="48.234732904789006" lon="14.33159680979282"><ele>297.0</ele><time>2026-05-01T14:10:12Z</time></trkpt><trkpt lat="48.23478790460595" lon="14.33201889242738"><ele>296.0</ele><time>2026-05-01T14:10:13Z</time></trkpt><trkpt lat="48.234843862695875" lon="14.332440420383902"><ele>295.0</ele><time>2026-05-01T14:10:14Z</time></trkpt><trkpt lat="48.234900329433174" lon="14.332863156573529"><ele>298.0</ele><time>2026-05-01T14:10:15Z</time></trkpt><trkpt lat="48.2349572626358" lon="14.333286834581708"><ele>301.0</ele><time>2026-05-01T14:10:16Z</time></trkpt><trkpt lat="48.235014674131335" lon="14.33371117509901"><ele>302.0</ele><time>2026-05-01T14:10:17Z</time></trkpt><trkpt lat="48.23507166210666" lon="14.334123492110583"><ele>303.0</ele><time>2026-05-01T14:10:18Z</time></trkpt><trkpt lat="48.2351234865194" lon="14.33451005899431"><ele>304.0</ele><time>2026-05-01T14:10:19Z</time></trkpt><trkpt lat="48.23517672478443" lon="14.334901430477874"><ele>305.0</ele><time>2026-05-01T14:10:20Z</time></trkpt><trkpt lat="48.23523027032329" lon="14.3352899521352"><ele>306.0</ele><time>2026-05-01T14:10:21Z</time></trkpt><trkpt lat="48.23528293908118" lon="14.335675795283576"><ele>307.0</ele><time>2026-05-01T14:10:22Z</time></trkpt><trkpt lat="48.23533381512089" lon="14.336054874732485"><ele>305.5</ele><time>2026-05-01T14:10:23Z</time></trkpt><trkpt lat="48.235383806402616" lon="14.336430627760159"><ele>304.0</ele><time>2026-05-01T14:10:24Z</time></trkpt><trkpt lat="48.235435655881915" lon="14.336801444901694"><ele>304.0</ele><time>2026-05-01T14:10:25Z</time></trkpt><trkpt lat="48.23548663085306" lon="14.337168419014706"><ele>304.0</ele><time>2026-05-01T14:10:26Z</time></trkpt><trkpt lat="48.23553672013634" lon="14.337530999738242"><ele>304.5</ele><time>2026-05-01T14:10:27Z</time></trkpt><trkpt lat="48.235586424922865" lon="14.337892802145177"><ele>305.0</ele><time>2026-05-01T14:10:28Z</time></trkpt><trkpt lat="48.23563528249893" lon="14.338252212844921"><ele>305.0</ele><time>2026-05-01T14:10:29Z</time></trkpt><trkpt lat="48.235685113494426" lon="14.338609115153265"><ele>305.0</ele><time>2026-05-01T14:10:30Z</time></trkpt><trkpt lat="48.2357340997258" lon="14.33896388239948"><ele>308.5</ele><time>2026-05-01T14:10:31Z</time></trkpt><trkpt lat="48.23578383953767" lon="14.339321292577258"><ele>312.0</ele><time>2026-05-01T14:10:32Z</time></trkpt><trkpt lat="48.235833288582285" lon="14.339682398623498"><ele>314.5</ele><time>2026-05-01T14:10:33Z</time></trkpt><trkpt lat="48.23588304105257" lon="14.340045839516879"><ele>317.0</ele><time>2026-05-01T14:10:34Z</time></trkpt><trkpt lat="48.235932046480876" lon="14.340411707977918"><ele>318.5</ele><time>2026-05-01T14:10:35Z</time></trkpt><trkpt lat="48.235981967478054" lon="14.34078002828396"><ele>320.0</ele><time>2026-05-01T14:10:36Z</time></trkpt><trkpt lat="48.23603239662714" lon="14.341151276673562"><ele>321.0</ele><time>2026-05-01T14:10:37Z</time></trkpt><trkpt lat="48.23608374359452" lon="14.34152787857152"><ele>322.0</ele><time>2026-05-01T14:10:38Z</time></trkpt><trkpt lat="48.23613556810126" lon="14.341911106872097"><ele>322.5</ele><time>2026-05-01T14:10:39Z</time></trkpt><trkpt lat="48.23618445203645" lon="14.342300528150302"><ele>323.0</ele><time>2026-05-01T14:10:40Z</time></trkpt><trkpt lat="48.23623311251784" lon="14.342694074095697"><ele>323.0</ele><time>2026-05-01T14:10:41Z</time></trkpt><trkpt lat="48.236279766149686" lon="14.343090451614566"><ele>323.0</ele><time>2026-05-01T14:10:42Z</time></trkpt><trkpt lat="48.236323155432395" lon="14.343491306924784"><ele>323.0</ele><time>2026-05-01T14:10:43Z</time></trkpt><trkpt lat="48.236366991528925" lon="14.343894038293762"><ele>323.0</ele><time>2026-05-01T14:10:44.001Z</time></trkpt><trkpt lat="48.23640724410557" lon="14.344302104934417"><ele>323.0</ele><time>2026-05-01T14:10:45.001Z</time></trkpt><trkpt lat="48.236442668562994" lon="14.344713266663653"><ele>323.0</ele><time>2026-05-01T14:10:46.001Z</time></trkpt><trkpt lat="48.23647447291095" lon="14.345129069983138"><ele>318.0</ele><time>2026-05-01T14:10:47.001Z</time></trkpt><trkpt lat="48.2365042859884" lon="14.345551103967424"><ele>313.0</ele><time>2026-05-01T14:10:48.001Z</time></trkpt><trkpt lat="48.23653180209003" lon="14.34597621471057"><ele>312.5</ele><time>2026-05-01T14:10:49.001Z</time></trkpt><trkpt lat="48.23655577130148" lon="14.346404342703071"><ele>312.0</ele><time>2026-05-01T14:10:50.001Z</time></trkpt><trkpt lat="48.23657802959862" lon="14.346835364986685"><ele>313.0</ele><time>2026-05-01T14:10:51.001Z</time></trkpt><trkpt lat="48.23660029949523" lon="14.347270356642412"><ele>314.0</ele><time>2026-05-01T14:10:52.001Z</time></trkpt><trkpt lat="48.23662176214773" lon="14.347708658659872"><ele>315.0</ele><time>2026-05-01T14:10:53.001Z</time></trkpt><trkpt lat="48.23663849052794" lon="14.34815017169825"><ele>316.0</ele><time>2026-05-01T14:10:54.001Z</time></trkpt><trkpt lat="48.23664802918593" lon="14.348595897847602"><ele>315.0</ele><time>2026-05-01T14:10:55.001Z</time></trkpt><trkpt lat="48.236652740020475" lon="14.34904546442659"><ele>314.0</ele><time>2026-05-01T14:10:56.001Z</time></trkpt><trkpt lat="48.23665610602777" lon="14.349495393266714"><ele>312.0</ele><time>2026-05-01T14:10:57.001Z</time></trkpt><trkpt lat="48.236658579034554" lon="14.349947496990099"><ele>310.0</ele><time>2026-05-01T14:10:58.001Z</time></trkpt><trkpt lat="48.23665769148002" lon="14.350401582793467"><ele>310.0</ele><time>2026-05-01T14:10:59.001Z</time></trkpt><trkpt lat="48.23665420302115" lon="14.350855770317722"><ele>310.0</ele><time>2026-05-01T14:11:00.001Z</time></trkpt><trkpt lat="48.236649610258674" lon="14.351308535560127"><ele>309.5</ele><time>2026-05-01T14:11:01.001Z</time></trkpt><trkpt lat="48.23664461512648" lon="14.351759157557083"><ele>309.0</ele><time>2026-05-01T14:11:02.001Z</time></trkpt><trkpt lat="48.23663727046688" lon="14.3522084429488"><ele>308.5</ele><time>2026-05-01T14:11:03.001Z</time></trkpt><trkpt lat="48.23662475864435" lon="14.352656848585331"><ele>308.0</ele><time>2026-05-01T14:11:04.001Z</time></trkpt><trkpt lat="48.23660406981299" lon="14.353102420306952"><ele>308.0</ele><time>2026-05-01T14:11:05.001Z</time></trkpt><trkpt lat="48.23657399107341" lon="14.353551449188952"><ele>308.0</ele><time>2026-05-01T14:11:06.001Z</time></trkpt><trkpt lat="48.23654116384619" lon="14.354000904627775"><ele>309.5</ele><time>2026-05-01T14:11:07.001Z</time></trkpt><trkpt lat="48.23650651182584" lon="14.354449654105968"><ele>311.0</ele><time>2026-05-01T14:11:08.001Z</time></trkpt><trkpt lat="48.23647008141479" lon="14.354898110934663"><ele>301.5</ele><time>2026-05-01T14:11:09.001Z</time></trkpt><trkpt lat="48.23642646543118" lon="14.355345564149902"><ele>292.0</ele><time>2026-05-01T14:11:10.001Z</time></trkpt><trkpt lat="48.23637341297536" lon="14.355790619345468"><ele>291.5</ele><time>2026-05-01T14:11:11.001Z</time></trkpt><trkpt lat="48.23631708042314" lon="14.356234192155702"><ele>291.0</ele><time>2026-05-01T14:11:12.001Z</time></trkpt><trkpt lat="48.23626078308253" lon="14.356680560935708"><ele>289.5</ele><time>2026-05-01T14:11:13.001Z</time></trkpt><trkpt lat="48.236205589702045" lon="14.357128975777872"><ele>288.0</ele><time>2026-05-01T14:11:14.001Z</time></trkpt><trkpt lat="48.23615216560733" lon="14.357579164142052"><ele>288.0</ele><time>2026-05-01T14:11:15.001Z</time></trkpt><trkpt lat="48.236099772504225" lon="14.358029776279489"><ele>288.0</ele><time>2026-05-01T14:11:16.001Z</time></trkpt><trkpt lat="48.23604686240193" lon="14.358482121624172"><ele>290.5</ele><time>2026-05-01T14:11:17.001Z</time></trkpt><trkpt lat="48.23599280293387" lon="14.358937674720675"><ele>293.0</ele><time>2026-05-01T14:11:18.001Z</time></trkpt><trkpt lat="48.23593676666883" lon="14.35939381978874"><ele>294.0</ele><time>2026-05-01T14:11:19.001Z</time></trkpt><trkpt lat="48.23588012610088" lon="14.35984993783486"><ele>295.0</ele><time>2026-05-01T14:11:20.001Z</time></trkpt><trkpt lat="48.23582463408459" lon="14.360307988859512"><ele>295.0</ele><time>2026-05-01T14:11:21.001Z</time></trkpt><trkpt lat="48.2357703461038" lon="14.360763547938012"><ele>295.0</ele><time>2026-05-01T14:11:22.001Z</time></trkpt><trkpt lat="48.23571797533421" lon="14.361219665722237"><ele>295.5</ele><time>2026-05-01T14:11:23.001Z</time></trkpt><trkpt lat="48.23566508751439" lon="14.361673159902018"><ele>296.0</ele><time>2026-05-01T14:11:24.001Z</time></trkpt><trkpt lat="48.23561208425237" lon="14.362125057441581"><ele>285.5</ele><time>2026-05-01T14:11:25.001Z</time></trkpt><trkpt lat="48.23555735999333" lon="14.362572721780072"><ele>275.0</ele><time>2026-05-01T14:11:26.001Z</time></trkpt><trkpt lat="48.23550331573013" lon="14.363018159383769"><ele>274.0</ele><time>2026-05-01T14:11:27.001Z</time></trkpt><trkpt lat="48.235450989370285" lon="14.363458280236472"><ele>273.0</ele><time>2026-05-01T14:11:28.001Z</time></trkpt><trkpt lat="48.235399734343495" lon="14.363898320282436"><ele>271.0</ele><time>2026-05-01T14:11:29.001Z</time></trkpt><trkpt lat="48.23534735196766" lon="14.36433862983375"><ele>269.0</ele><time>2026-05-01T14:11:30.001Z</time></trkpt><trkpt lat="48.23529213243058" lon="14.364779852001325"><ele>269.0</ele><time>2026-05-01T14:11:31.001Z</time></trkpt><trkpt lat="48.23523628395745" lon="14.365221856557731"><ele>269.0</ele><time>2026-05-01T14:11:32.001Z</time></trkpt><trkpt lat="48.23518179901384" lon="14.365665225763353"><ele>268.5</ele><time>2026-05-01T14:11:33.001Z</time></trkpt><trkpt lat="48.23512870780853" lon="14.366109623544627"><ele>268.0</ele><time>2026-05-01T14:11:34.001Z</time></trkpt><trkpt lat="48.23507582052719" lon="14.366554833763253"><ele>267.5</ele><time>2026-05-01T14:11:35.001Z</time></trkpt><trkpt lat="48.23502294570128" lon="14.367001225810679"><ele>267.0</ele><time>2026-05-01T14:11:36.001Z</time></trkpt><trkpt lat="48.234969256033615" lon="14.367448438002258"><ele>264.5</ele><time>2026-05-01T14:11:37.001Z</time></trkpt><trkpt lat="48.23491327697362" lon="14.3678966889634"><ele>262.0</ele><time>2026-05-01T14:11:38.001Z</time></trkpt><trkpt lat="48.23485247019954" lon="14.368343378460095"><ele>262.0</ele><time>2026-05-01T14:11:39.001Z</time></trkpt><trkpt lat="48.23478636587157" lon="14.368789896507186"><ele>262.0</ele><time>2026-05-01T14:11:40.001Z</time></trkpt><trkpt lat="48.23471683347271" lon="14.369236745032705"><ele>260.0</ele><time>2026-05-01T14:11:41.001Z</time></trkpt><trkpt lat="48.23464621468185" lon="14.369683051014592"><ele>258.0</ele><time>2026-05-01T14:11:42.001Z</time></trkpt><trkpt lat="48.23457341986171" lon="14.370128193326279"><ele>256.5</ele><time>2026-05-01T14:11:43.001Z</time></trkpt><trkpt lat="48.23449701373505" lon="14.370570500421536"><ele>255.0</ele><time>2026-05-01T14:11:44.001Z</time></trkpt><trkpt lat="48.234415265795874" lon="14.371009810224631"><ele>254.0</ele><time>2026-05-01T14:11:45.001Z</time></trkpt><trkpt lat="48.23432815002588" lon="14.37144876012803"><ele>253.0</ele><time>2026-05-01T14:11:46.001Z</time></trkpt><trkpt lat="48.23423556895585" lon="14.371886367029868"><ele>253.0</ele><time>2026-05-01T14:11:47.001Z</time></trkpt><trkpt lat="48.23414088079854" lon="14.372320862038563"><ele>253.0</ele><time>2026-05-01T14:11:48.001Z</time></trkpt><trkpt lat="48.234044376627615" lon="14.372749088567595"><ele>252.5</ele><time>2026-05-01T14:11:49.001Z</time></trkpt><trkpt lat="48.233949011295365" lon="14.373156900368318"><ele>252.0</ele><time>2026-05-01T14:11:50.001Z</time></trkpt><trkpt lat="48.23384773304623" lon="14.37357417256802"><ele>252.5</ele><time>2026-05-01T14:11:51.001Z</time></trkpt><trkpt lat="48.23373948017653" lon="14.373995930967405"><ele>253.0</ele><time>2026-05-01T14:11:52.001Z</time></trkpt><trkpt lat="48.2336242032502" lon="14.374417199702583"><ele>253.0</ele><time>2026-05-01T14:11:53.001Z</time></trkpt><trkpt lat="48.233503846056216" lon="14.374838241279692"><ele>253.0</ele><time>2026-05-01T14:11:54.001Z</time></trkpt><trkpt lat="48.23337845353771" lon="14.375258496001287"><ele>252.5</ele><time>2026-05-01T14:11:55.001Z</time></trkpt><trkpt lat="48.233251535839656" lon="14.375677360897251"><ele>252.0</ele><time>2026-05-01T14:11:56.001Z</time></trkpt><trkpt lat="48.233123607404046" lon="14.376093895632515"><ele>252.0</ele><time>2026-05-01T14:11:57.001Z</time></trkpt><trkpt lat="48.2329919069076" lon="14.376503371957137"><ele>252.0</ele><time>2026-05-01T14:11:58.001Z</time></trkpt><trkpt lat="48.232855675513" lon="14.376910248516852"><ele>252.0</ele><time>2026-05-01T14:11:59.001Z</time></trkpt><trkpt lat="48.23271713563374" lon="14.377313060061077"><ele>252.0</ele><time>2026-05-01T14:12:00.001Z</time></trkpt><trkpt lat="48.23257292815879" lon="14.377708476399983"><ele>252.0</ele><time>2026-05-01T14:12:01.001Z</time></trkpt><trkpt lat="48.23242544826462" lon="14.378099331789826"><ele>252.0</ele><time>2026-05-01T14:12:02.001Z</time></trkpt><trkpt lat="48.23227605413277" lon="14.378485789292824"><ele>253.0</ele><time>2026-05-01T14:12:03.001Z</time></trkpt><trkpt lat="48.23212576104418" lon="14.37887074567196"><ele>254.0</ele><time>2026-05-01T14:12:04.001Z</time></trkpt><trkpt lat="48.2319720322065" lon="14.37925243752754"><ele>254.0</ele><time>2026-05-01T14:12:05.001Z</time></trkpt><trkpt lat="48.23181512293614" lon="14.379627953983288"><ele>254.0</ele><time>2026-05-01T14:12:06.001Z</time></trkpt><trkpt lat="48.23165412444894" lon="14.379998833757899"><ele>253.5</ele><time>2026-05-01T14:12:07.001Z</time></trkpt><trkpt lat="48.23149336312772" lon="14.380365300337461"><ele>253.0</ele><time>2026-05-01T14:12:08.001Z</time></trkpt><trkpt lat="48.231335508917525" lon="14.380732441984117"><ele>253.0</ele><time>2026-05-01T14:12:09.001Z</time></trkpt><trkpt lat="48.231176465178436" lon="14.381097741430809"><ele>253.0</ele><time>2026-05-01T14:12:10.001Z</time></trkpt><trkpt lat="48.231011888395884" lon="14.381462264029086"><ele>253.0</ele><time>2026-05-01T14:12:11.001Z</time></trkpt><trkpt lat="48.23084131392721" lon="14.381818878100672"><ele>253.0</ele><time>2026-05-01T14:12:12.001Z</time></trkpt><trkpt lat="48.230662320652975" lon="14.382167281059573"><ele>253.0</ele><time>2026-05-01T14:12:13.001Z</time></trkpt><trkpt lat="48.230477377194575" lon="14.38251027934566"><ele>253.0</ele><time>2026-05-01T14:12:14.001Z</time></trkpt><trkpt lat="48.23028972827848" lon="14.382849745944194"><ele>253.0</ele><time>2026-05-01T14:12:15.001Z</time></trkpt><trkpt lat="48.230100184170794" lon="14.383186288816173"><ele>253.0</ele><time>2026-05-01T14:12:16.001Z</time></trkpt><trkpt lat="48.22990940499047" lon="14.383518811427633"><ele>254.0</ele><time>2026-05-01T14:12:17.001Z</time></trkpt><trkpt lat="48.22971768791732" lon="14.383849474756431"><ele>255.0</ele><time>2026-05-01T14:12:18.001Z</time></trkpt><trkpt lat="48.22952535787895" lon="14.384179393928777"><ele>255.0</ele><time>2026-05-01T14:12:19.001Z</time></trkpt><trkpt lat="48.229331020645695" lon="14.384509146656967"><ele>255.0</ele><time>2026-05-01T14:12:20.001Z</time></trkpt><trkpt lat="48.229137042462675" lon="14.384835989928582"><ele>255.0</ele><time>2026-05-01T14:12:21.001Z</time></trkpt><trkpt lat="48.22894455633556" lon="14.385161435211682"><ele>255.0</ele><time>2026-05-01T14:12:22.001Z</time></trkpt><trkpt lat="48.22875298549211" lon="14.385486020617046"><ele>254.0</ele><time>2026-05-01T14:12:23.001Z</time></trkpt><trkpt lat="48.22856315941228" lon="14.385809712583052"><ele>253.0</ele><time>2026-05-01T14:12:24.001Z</time></trkpt><trkpt lat="48.228370556275586" lon="14.386126396075996"><ele>253.0</ele><time>2026-05-01T14:12:25.001Z</time></trkpt><trkpt lat="48.22817267597995" lon="14.386434870018363"><ele>253.0</ele><time>2026-05-01T14:12:26.001Z</time></trkpt><trkpt lat="48.22797601198648" lon="14.386743602113118"><ele>253.0</ele><time>2026-05-01T14:12:27.001Z</time></trkpt><trkpt lat="48.22778060266297" lon="14.387056761938567"><ele>253.0</ele><time>2026-05-01T14:12:28.001Z</time></trkpt><trkpt lat="48.22758790067474" lon="14.387373751845725"><ele>253.0</ele><time>2026-05-01T14:12:29.001Z</time></trkpt><trkpt lat="48.227396674790626" lon="14.38769602030644"><ele>253.0</ele><time>2026-05-01T14:12:30.001Z</time></trkpt><trkpt lat="48.227207307189495" lon="14.388019683318761"><ele>253.0</ele><time>2026-05-01T14:12:31.001Z</time></trkpt><trkpt lat="48.227019765629166" lon="14.388343470078619"><ele>253.0</ele><time>2026-05-01T14:12:32.001Z</time></trkpt><trkpt lat="48.22683114259906" lon="14.388666595957162"><ele>253.0</ele><time>2026-05-01T14:12:33.001Z</time></trkpt><trkpt lat="48.226641362555995" lon="14.38899075998016"><ele>253.0</ele><time>2026-05-01T14:12:34.001Z</time></trkpt><trkpt lat="48.22645006438692" lon="14.389313025206755"><ele>253.0</ele><time>2026-05-01T14:12:35.001Z</time></trkpt><trkpt lat="48.226260508664375" lon="14.389633957734505"><ele>253.0</ele><time>2026-05-01T14:12:36.001Z</time></trkpt><trkpt lat="48.2260718735699" lon="14.389954338956796"><ele>252.0</ele><time>2026-05-01T14:12:37.001Z</time></trkpt><trkpt lat="48.22588511913081" lon="14.390274521236885"><ele>251.0</ele><time>2026-05-01T14:12:38.001Z</time></trkpt><trkpt lat="48.22569730936218" lon="14.39059345795281"><ele>252.0</ele><time>2026-05-01T14:12:39.001Z</time></trkpt><trkpt lat="48.22551026107349" lon="14.390912758426964"><ele>253.0</ele><time>2026-05-01T14:12:40.001Z</time></trkpt><trkpt lat="48.22532170056926" lon="14.391233517795175"><ele>252.5</ele><time>2026-05-01T14:12:41.001Z</time></trkpt><trkpt lat="48.225131955405935" lon="14.391555110213277"><ele>252.0</ele><time>2026-05-01T14:12:42.001Z</time></trkpt><trkpt lat="48.22494043818279" lon="14.391875548872232"><ele>253.0</ele><time>2026-05-01T14:12:43.001Z</time></trkpt><trkpt lat="48.22474805677113" lon="14.39219663441806"><ele>254.0</ele><time>2026-05-01T14:12:44.001Z</time></trkpt><trkpt lat="48.224556647990326" lon="14.392521352926417"><ele>254.0</ele><time>2026-05-01T14:12:45.001Z</time></trkpt><trkpt lat="48.22436733401354" lon="14.392845709725375"><ele>254.0</ele><time>2026-05-01T14:12:46.001Z</time></trkpt><trkpt lat="48.224183622835874" lon="14.39316063280742"><ele>253.5</ele><time>2026-05-01T14:12:47.001Z</time></trkpt><trkpt lat="48.22401175695796" lon="14.393454559419348"><ele>253.0</ele><time>2026-05-01T14:12:48.001Z</time></trkpt><trkpt lat="48.22384948995784" lon="14.393738889575049"><ele>252.0</ele><time>2026-05-01T14:12:49.001Z</time></trkpt><trkpt lat="48.22369438238286" lon="14.394032404770874"><ele>251.0</ele><time>2026-05-01T14:12:50.001Z</time></trkpt><trkpt lat="48.223535344443356" lon="14.394347552494859"><ele>251.0</ele><time>2026-05-01T14:12:51.001Z</time></trkpt><trkpt lat="48.223370228693895" lon="14.394671437567112"><ele>251.0</ele><time>2026-05-01T14:12:52.001Z</time></trkpt><trkpt lat="48.22319511230288" lon="14.39500692479721"><ele>251.5</ele><time>2026-05-01T14:12:53.001Z</time></trkpt><trkpt lat="48.22301566768821" lon="14.39534676162889"><ele>252.0</ele><time>2026-05-01T14:12:54.001Z</time></trkpt><trkpt lat="48.222835104702476" lon="14.395692889936262"><ele>252.0</ele><time>2026-05-01T14:12:55.001Z</time></trkpt><trkpt lat="48.222654847659385" lon="14.396044474396293"><ele>252.0</ele><time>2026-05-01T14:12:56.001Z</time></trkpt><trkpt lat="48.22247745028281" lon="14.396399702241022"><ele>251.5</ele><time>2026-05-01T14:12:57.001Z</time></trkpt><trkpt lat="48.22230189774209" lon="14.396760305650165"><ele>251.0</ele><time>2026-05-01T14:12:58.001Z</time></trkpt><trkpt lat="48.22212836478347" lon="14.39712163942526"><ele>252.5</ele><time>2026-05-01T14:12:59.001Z</time></trkpt><trkpt lat="48.22195353388532" lon="14.397477509790697"><ele>254.0</ele><time>2026-05-01T14:13:00.001Z</time></trkpt><trkpt lat="48.22177680790547" lon="14.397829347673834"><ele>254.0</ele><time>2026-05-01T14:13:01.001Z</time></trkpt><trkpt lat="48.22160134353496" lon="14.3981799163245"><ele>254.0</ele><time>2026-05-01T14:13:02.001Z</time></trkpt><trkpt lat="48.22143108861733" lon="14.398533648966438"><ele>253.5</ele><time>2026-05-01T14:13:03.001Z</time></trkpt><trkpt lat="48.22126658715723" lon="14.398896181335417"><ele>253.0</ele><time>2026-05-01T14:13:04.001Z</time></trkpt><trkpt lat="48.22110835343005" lon="14.399264560367577"><ele>253.0</ele><time>2026-05-01T14:13:05.001Z</time></trkpt><trkpt lat="48.22095444938806" lon="14.399638342138406"><ele>253.0</ele><time>2026-05-01T14:13:06.001Z</time></trkpt><trkpt lat="48.2208016887274" lon="14.400013288386127"><ele>253.0</ele><time>2026-05-01T14:13:07.001Z</time></trkpt><trkpt lat="48.22064963511721" lon="14.400388663158054"><ele>253.0</ele><time>2026-05-01T14:13:08.001Z</time></trkpt><trkpt lat="48.22049900524936" lon="14.400765056905971"><ele>253.0</ele><time>2026-05-01T14:13:09.001Z</time></trkpt><trkpt lat="48.22034920055396" lon="14.401141228475081"><ele>253.0</ele><time>2026-05-01T14:13:10.001Z</time></trkpt><trkpt lat="48.220202347708515" lon="14.401517152965031"><ele>253.0</ele><time>2026-05-01T14:13:11.001Z</time></trkpt><trkpt lat="48.22005904512535" lon="14.401895030624223"><ele>253.0</ele><time>2026-05-01T14:13:12.001Z</time></trkpt><trkpt lat="48.21991738279308" lon="14.40227445715006"><ele>253.0</ele><time>2026-05-01T14:13:13.001Z</time></trkpt><trkpt lat="48.219776098155464" lon="14.402655987512793"><ele>253.0</ele><time>2026-05-01T14:13:14.001Z</time></trkpt><trkpt lat="48.2196364174204" lon="14.403038660753378"><ele>253.0</ele><time>2026-05-01T14:13:15.001Z</time></trkpt><trkpt lat="48.2194969132176" lon="14.403420007218667"><ele>253.0</ele><time>2026-05-01T14:13:16.001Z</time></trkpt><trkpt lat="48.21935648409208" lon="14.403802547672782"><ele>254.0</ele><time>2026-05-01T14:13:17.001Z</time></trkpt><trkpt lat="48.21921711278785" lon="14.40418667310548"><ele>255.0</ele><time>2026-05-01T14:13:18.001Z</time></trkpt><trkpt lat="48.219078259934555" lon="14.404569515353476"><ele>254.0</ele><time>2026-05-01T14:13:19.001Z</time></trkpt><trkpt lat="48.21894029121955" lon="14.40495313268317"><ele>253.0</ele><time>2026-05-01T14:13:20.001Z</time></trkpt><trkpt lat="48.21880345962368" lon="14.405334875994523"><ele>252.0</ele><time>2026-05-01T14:13:21.001Z</time></trkpt><trkpt lat="48.21866946668737" lon="14.405713329761324"><ele>251.0</ele><time>2026-05-01T14:13:22.001Z</time></trkpt><trkpt lat="48.218535263181806" lon="14.406093348621683"><ele>252.0</ele><time>2026-05-01T14:13:23.001Z</time></trkpt><trkpt lat="48.21840080392127" lon="14.406472282453244"><ele>253.0</ele><time>2026-05-01T14:13:24.001Z</time></trkpt><trkpt lat="48.21826449187926" lon="14.406848714347488"><ele>253.0</ele><time>2026-05-01T14:13:25.001Z</time></trkpt><trkpt lat="48.2181263756556" lon="14.407225446245976"><ele>253.0</ele><time>2026-05-01T14:13:26.001Z</time></trkpt><trkpt lat="48.21798869354515" lon="14.40760191520796"><ele>253.0</ele><time>2026-05-01T14:13:27.001Z</time></trkpt><trkpt lat="48.217848797289015" lon="14.407982257086402"><ele>253.0</ele><time>2026-05-01T14:13:28.001Z</time></trkpt><trkpt lat="48.21771372718949" lon="14.408364521870032"><ele>252.5</ele><time>2026-05-01T14:13:29.001Z</time></trkpt><trkpt lat="48.21758199541474" lon="14.408747404590558"><ele>252.0</ele><time>2026-05-01T14:13:30.001Z</time></trkpt><trkpt lat="48.21745544894104" lon="14.409133005681511"><ele>252.0</ele><time>2026-05-01T14:13:31.001Z</time></trkpt><trkpt lat="48.21732694000788" lon="14.409517733171846"><ele>252.0</ele><time>2026-05-01T14:13:32.001Z</time></trkpt><trkpt lat="48.21719786058207" lon="14.409900082946207"><ele>251.5</ele><time>2026-05-01T14:13:33.001Z</time></trkpt><trkpt lat="48.21706321230964" lon="14.410280417716741"><ele>251.0</ele><time>2026-05-01T14:13:34.001Z</time></trkpt><trkpt lat="48.216924593545215" lon="14.41066022325631"><ele>252.0</ele><time>2026-05-01T14:13:35.001Z</time></trkpt><trkpt lat="48.21678587515611" lon="14.411042249956894"><ele>253.0</ele><time>2026-05-01T14:13:36.001Z</time></trkpt><trkpt lat="48.21664809699146" lon="14.411427151850505"><ele>253.0</ele><time>2026-05-01T14:13:37.001Z</time></trkpt><trkpt lat="48.216510708039365" lon="14.41181169798011"><ele>253.0</ele><time>2026-05-01T14:13:38.001Z</time></trkpt><trkpt lat="48.21636889651385" lon="14.412196248668074"><ele>252.0</ele><time>2026-05-01T14:13:39.001Z</time></trkpt><trkpt lat="48.21622130854399" lon="14.412576499841371"><ele>251.0</ele><time>2026-05-01T14:13:40.001Z</time></trkpt><trkpt lat="48.21607013000711" lon="14.412955011615194"><ele>251.0</ele><time>2026-05-01T14:13:41.001Z</time></trkpt><trkpt lat="48.215919514329336" lon="14.4133353215108"><ele>251.0</ele><time>2026-05-01T14:13:42.001Z</time></trkpt><trkpt lat="48.21577155743839" lon="14.413717565742653"><ele>251.5</ele><time>2026-05-01T14:13:43.001Z</time></trkpt><trkpt lat="48.215628903147056" lon="14.41410224175108"><ele>252.0</ele><time>2026-05-01T14:13:44.001Z</time></trkpt><trkpt lat="48.215492349536746" lon="14.414488344679404"><ele>250.5</ele><time>2026-05-01T14:13:45.001Z</time></trkpt><trkpt lat="48.215356526296894" lon="14.414874548917647"><ele>249.0</ele><time>2026-05-01T14:13:46.001Z</time></trkpt><trkpt lat="48.215220166166176" lon="14.415258488023897"><ele>249.0</ele><time>2026-05-01T14:13:47.001Z</time></trkpt><trkpt lat="48.215083616302415" lon="14.415637681205782"><ele>249.0</ele><time>2026-05-01T14:13:48.001Z</time></trkpt><trkpt lat="48.21494553766246" lon="14.416014982967384"><ele>249.5</ele><time>2026-05-01T14:13:49.001Z</time></trkpt><trkpt lat="48.21480820762301" lon="14.416391478636246"><ele>250.0</ele><time>2026-05-01T14:13:50.001Z</time></trkpt><trkpt lat="48.21467273327292" lon="14.416769392983504"><ele>250.0</ele><time>2026-05-01T14:13:51.001Z</time></trkpt><trkpt lat="48.214537210409716" lon="14.417148199805204"><ele>250.0</ele><time>2026-05-01T14:13:52.001Z</time></trkpt><trkpt lat="48.2144021844597" lon="14.417526050724266"><ele>250.0</ele><time>2026-05-01T14:13:53.001Z</time></trkpt><trkpt lat="48.21426572071529" lon="14.417903333604382"><ele>250.0</ele><time>2026-05-01T14:13:54.001Z</time></trkpt><trkpt lat="48.214127377965546" lon="14.418281235924338"><ele>250.0</ele><time>2026-05-01T14:13:55.001Z</time></trkpt><trkpt lat="48.21398986115886" lon="14.418659630375744"><ele>250.0</ele><time>2026-05-01T14:13:56.001Z</time></trkpt><trkpt lat="48.21385563876663" lon="14.419034071424372"><ele>252.0</ele><time>2026-05-01T14:13:57.001Z</time></trkpt><trkpt lat="48.21372798935662" lon="14.419392400744483"><ele>254.0</ele><time>2026-05-01T14:13:58.001Z</time></trkpt><trkpt lat="48.21359879658934" lon="14.419750576850616"><ele>254.0</ele><time>2026-05-01T14:13:59.001Z</time></trkpt><trkpt lat="48.2134638803745" lon="14.420122778559131"><ele>254.0</ele><time>2026-05-01T14:14:00.001Z</time></trkpt><trkpt lat="48.21332801857032" lon="14.420502030422705"><ele>253.0</ele><time>2026-05-01T14:14:01Z</time></trkpt><trkpt lat="48.213190557949396" lon="14.420887016592667"><ele>252.0</ele><time>2026-05-01T14:14:02.001Z</time></trkpt><trkpt lat="48.21305113365356" lon="14.421274504132077"><ele>251.5</ele><time>2026-05-01T14:14:03.001Z</time></trkpt><trkpt lat="48.21291752635697" lon="14.421667377626695"><ele>251.0</ele><time>2026-05-01T14:14:04.001Z</time></trkpt><trkpt lat="48.21278633862012" lon="14.422064356918598"><ele>251.0</ele><time>2026-05-01T14:14:05.001Z</time></trkpt><trkpt lat="48.21265336426741" lon="14.422462091019627"><ele>251.0</ele><time>2026-05-01T14:14:06.001Z</time></trkpt><trkpt lat="48.212516282604206" lon="14.422856462482542"><ele>251.0</ele><time>2026-05-01T14:14:07.001Z</time></trkpt><trkpt lat="48.212375085334806" lon="14.423249461082577"><ele>251.0</ele><time>2026-05-01T14:14:08.001Z</time></trkpt><trkpt lat="48.212232437478825" lon="14.42364295502315"><ele>251.5</ele><time>2026-05-01T14:14:09.001Z</time></trkpt><trkpt lat="48.21208930119342" lon="14.424035851000559"><ele>252.0</ele><time>2026-05-01T14:14:10.001Z</time></trkpt><trkpt lat="48.211948306477474" lon="14.424429520329605"><ele>251.5</ele><time>2026-05-01T14:14:11.001Z</time></trkpt><trkpt lat="48.21180718352441" lon="14.424823331079525"><ele>251.0</ele><time>2026-05-01T14:14:12.001Z</time></trkpt><trkpt lat="48.21166238388863" lon="14.425211802358548"><ele>251.0</ele><time>2026-05-01T14:14:13.001Z</time></trkpt><trkpt lat="48.21151352826127" lon="14.425599390680297"><ele>251.0</ele><time>2026-05-01T14:14:14.001Z</time></trkpt><trkpt lat="48.21136322331447" lon="14.425986774293836"><ele>251.5</ele><time>2026-05-01T14:14:15.001Z</time></trkpt><trkpt lat="48.211212685523805" lon="14.426376516105643"><ele>252.0</ele><time>2026-05-01T14:14:16.001Z</time></trkpt><trkpt lat="48.211063610486555" lon="14.426770444239667"><ele>251.5</ele><time>2026-05-01T14:14:17.001Z</time></trkpt><trkpt lat="48.2109169784931" lon="14.427166628141533"><ele>251.0</ele><time>2026-05-01T14:14:18.001Z</time></trkpt><trkpt lat="48.21077245877582" lon="14.427563996289175"><ele>251.0</ele><time>2026-05-01T14:14:19.001Z</time></trkpt><trkpt lat="48.2106284574028" lon="14.4279622659982"><ele>251.0</ele><time>2026-05-01T14:14:20.001Z</time></trkpt><trkpt lat="48.21048485554017" lon="14.428362927209218"><ele>251.0</ele><time>2026-05-01T14:14:21.001Z</time></trkpt><trkpt lat="48.210342503934996" lon="14.428763993180679"><ele>251.0</ele><time>2026-05-01T14:14:22.001Z</time></trkpt><trkpt lat="48.2101993052607" lon="14.42916262683116"><ele>251.0</ele><time>2026-05-01T14:14:23.001Z</time></trkpt><trkpt lat="48.21005617552083" lon="14.4295599762227"><ele>251.0</ele><time>2026-05-01T14:14:24.001Z</time></trkpt><trkpt lat="48.209912498629215" lon="14.429955066748558"><ele>251.0</ele><time>2026-05-01T14:14:25.001Z</time></trkpt><trkpt lat="48.20977021268856" lon="14.43035001112814"><ele>251.0</ele><time>2026-05-01T14:14:26.001Z</time></trkpt><trkpt lat="48.20962816006116" lon="14.430744293698526"><ele>251.0</ele><time>2026-05-01T14:14:27.001Z</time></trkpt><trkpt lat="48.209486983793866" lon="14.431137830780425"><ele>251.0</ele><time>2026-05-01T14:14:28.001Z</time></trkpt><trkpt lat="48.20934704326589" lon="14.431533252304426"><ele>251.0</ele><time>2026-05-01T14:14:29.001Z</time></trkpt><trkpt lat="48.20920666273191" lon="14.431925189320653"><ele>251.0</ele><time>2026-05-01T14:14:30.001Z</time></trkpt><trkpt lat="48.20906658898265" lon="14.432316340416511"><ele>252.5</ele><time>2026-05-01T14:14:31.001Z</time></trkpt><trkpt lat="48.208928530959255" lon="14.432704798829517"><ele>254.0</ele><time>2026-05-01T14:14:32.001Z</time></trkpt><trkpt lat="48.20879421601318" lon="14.433091830082068"><ele>254.0</ele><time>2026-05-01T14:14:33.001Z</time></trkpt><trkpt lat="48.20866475642054" lon="14.433480998894364"><ele>254.0</ele><time>2026-05-01T14:14:34.001Z</time></trkpt><trkpt lat="48.20854030352627" lon="14.433872312190061"><ele>254.0</ele><time>2026-05-01T14:14:35.001Z</time></trkpt><trkpt lat="48.208420443055154" lon="14.43426354454441"><ele>254.0</ele><time>2026-05-01T14:14:36.001Z</time></trkpt><trkpt lat="48.20830523601143" lon="14.434657066451651"><ele>254.0</ele><time>2026-05-01T14:14:37.001Z</time></trkpt><trkpt lat="48.20819415087906" lon="14.435050324886511"><ele>254.0</ele><time>2026-05-01T14:14:38.001Z</time></trkpt><trkpt lat="48.208088507861625" lon="14.435445870527339"><ele>253.0</ele><time>2026-05-01T14:14:39.001Z</time></trkpt><trkpt lat="48.20799035353696" lon="14.435844161658297"><ele>252.0</ele><time>2026-05-01T14:14:40.001Z</time></trkpt><trkpt lat="48.20789586402387" lon="14.436245530779376"><ele>251.5</ele><time>2026-05-01T14:14:41.001Z</time></trkpt><trkpt lat="48.20780365350792" lon="14.436650585111765"><ele>251.0</ele><time>2026-05-01T14:14:42.001Z</time></trkpt><trkpt lat="48.20771631736463" lon="14.437062850283395"><ele>250.5</ele><time>2026-05-01T14:14:43.001Z</time></trkpt><trkpt lat="48.20763116605756" lon="14.437480181275033"><ele>250.0</ele><time>2026-05-01T14:14:44.001Z</time></trkpt><trkpt lat="48.2075488780187" lon="14.437902955020645"><ele>250.5</ele><time>2026-05-01T14:14:45.001Z</time></trkpt><trkpt lat="48.207470775714555" lon="14.438332673581089"><ele>251.0</ele><time>2026-05-01T14:14:46.001Z</time></trkpt><trkpt lat="48.20739684315816" lon="14.438766559566904"><ele>251.0</ele><time>2026-05-01T14:14:47.001Z</time></trkpt><trkpt lat="48.20733001395349" lon="14.439205634630914"><ele>251.0</ele><time>2026-05-01T14:14:48.001Z</time></trkpt><trkpt lat="48.20727088328927" lon="14.439649183704201"><ele>252.0</ele><time>2026-05-01T14:14:49.001Z</time></trkpt><trkpt lat="48.20721515296457" lon="14.440095472232045"><ele>253.0</ele><time>2026-05-01T14:14:50.001Z</time></trkpt><trkpt lat="48.207161508538064" lon="14.440541455792347"><ele>253.0</ele><time>2026-05-01T14:14:51.001Z</time></trkpt><trkpt lat="48.207111963339734" lon="14.440988947386636"><ele>253.0</ele><time>2026-05-01T14:14:52.001Z</time></trkpt><trkpt lat="48.207066890638515" lon="14.44143554428792"><ele>253.5</ele><time>2026-05-01T14:14:53.001Z</time></trkpt><trkpt lat="48.207020568567316" lon="14.441879701386931"><ele>254.0</ele><time>2026-05-01T14:14:54.001Z</time></trkpt><trkpt lat="48.20697463216741" lon="14.442319260522137"><ele>254.0</ele><time>2026-05-01T14:14:55.001Z</time></trkpt><trkpt lat="48.20692823439512" lon="14.442755604905992"><ele>254.0</ele><time>2026-05-01T14:14:56.001Z</time></trkpt><trkpt lat="48.206880317146776" lon="14.443185440852664"><ele>255.5</ele><time>2026-05-01T14:14:57.001Z</time></trkpt><trkpt lat="48.206832469661975" lon="14.443615716563517"><ele>257.0</ele><time>2026-05-01T14:14:58.001Z</time></trkpt><trkpt lat="48.20678604093871" lon="14.444044234323774"><ele>257.0</ele><time>2026-05-01T14:14:59.001Z</time></trkpt><trkpt lat="48.2067404407381" lon="14.444471301965415"><ele>257.0</ele><time>2026-05-01T14:15:00.001Z</time></trkpt><trkpt lat="48.206695124178175" lon="14.444896288417063"><ele>258.0</ele><time>2026-05-01T14:15:01.001Z</time></trkpt><trkpt lat="48.20665070043684" lon="14.44531974136176"><ele>259.0</ele><time>2026-05-01T14:15:02.001Z</time></trkpt><trkpt lat="48.206606718722156" lon="14.445745053988569"><ele>260.0</ele><time>2026-05-01T14:15:03.001Z</time></trkpt><trkpt lat="48.20656070905767" lon="14.446168109630348"><ele>261.0</ele><time>2026-05-01T14:15:04.001Z</time></trkpt><trkpt lat="48.206513762124395" lon="14.44659202524613"><ele>271.0</ele><time>2026-05-01T14:15:05.001Z</time></trkpt><trkpt lat="48.20646770805326" lon="14.447016986072049"><ele>281.0</ele><time>2026-05-01T14:15:06.001Z</time></trkpt><trkpt lat="48.206423152322486" lon="14.447444643090256"><ele>281.5</ele><time>2026-05-01T14:15:07.001Z</time></trkpt><trkpt lat="48.20637904159061" lon="14.447873473435122"><ele>282.0</ele><time>2026-05-01T14:15:08.001Z</time></trkpt><trkpt lat="48.20633470693684" lon="14.448303308952834"><ele>282.0</ele><time>2026-05-01T14:15:09.001Z</time></trkpt><trkpt lat="48.20628847541912" lon="14.448733568425837"><ele>282.0</ele><time>2026-05-01T14:15:10.001Z</time></trkpt><trkpt lat="48.20624117946717" lon="14.449163137218463"><ele>281.0</ele><time>2026-05-01T14:15:11.001Z</time></trkpt><trkpt lat="48.20619605968522" lon="14.449593984554312"><ele>280.0</ele><time>2026-05-01T14:15:12.001Z</time></trkpt><trkpt lat="48.20615032835433" lon="14.450026651250766"><ele>281.0</ele><time>2026-05-01T14:15:13.001Z</time></trkpt><trkpt lat="48.206103097092914" lon="14.450459072301435"><ele>282.0</ele><time>2026-05-01T14:15:14.001Z</time></trkpt><trkpt lat="48.2060563658402" lon="14.45089118491627"><ele>281.0</ele><time>2026-05-01T14:15:15.001Z</time></trkpt><trkpt lat="48.20600848783548" lon="14.451323523753683"><ele>280.0</ele><time>2026-05-01T14:15:16.001Z</time></trkpt><trkpt lat="48.20596008301653" lon="14.451756494216994"><ele>280.0</ele><time>2026-05-01T14:15:17.001Z</time></trkpt><trkpt lat="48.2059131160248" lon="14.452188958343196"><ele>280.0</ele><time>2026-05-01T14:15:18.001Z</time></trkpt><trkpt lat="48.20586616371429" lon="14.452624551907846"><ele>280.0</ele><time>2026-05-01T14:15:19.001Z</time></trkpt><trkpt lat="48.20581970765038" lon="14.453062320025118"><ele>280.0</ele><time>2026-05-01T14:15:20.001Z</time></trkpt><trkpt lat="48.205773246219785" lon="14.453502120971516"><ele>280.0</ele><time>2026-05-01T14:15:21.001Z</time></trkpt><trkpt lat="48.20572595450998" lon="14.453943277499897"><ele>280.0</ele><time>2026-05-01T14:15:22.001Z</time></trkpt><trkpt lat="48.20568066510145" lon="14.454386167763303"><ele>282.5</ele><time>2026-05-01T14:15:23.001Z</time></trkpt><trkpt lat="48.205631682967024" lon="14.454831372396674"><ele>285.0</ele><time>2026-05-01T14:15:24.001Z</time></trkpt><trkpt lat="48.20558129241684" lon="14.455276745216043"><ele>285.5</ele><time>2026-05-01T14:15:25.001Z</time></trkpt><trkpt lat="48.20552514966802" lon="14.455722807538232"><ele>286.0</ele><time>2026-05-01T14:15:26.001Z</time></trkpt><trkpt lat="48.20546712940624" lon="14.456171615421857"><ele>285.5</ele><time>2026-05-01T14:15:27.001Z</time></trkpt><trkpt lat="48.20540322277139" lon="14.456618712299608"><ele>285.0</ele><time>2026-05-01T14:15:28.001Z</time></trkpt><trkpt lat="48.205334866638644" lon="14.457064717011301"><ele>285.5</ele><time>2026-05-01T14:15:29.001Z</time></trkpt><trkpt lat="48.205262180247296" lon="14.457505010371527"><ele>286.0</ele><time>2026-05-01T14:15:30.001Z</time></trkpt><trkpt lat="48.20518927704156" lon="14.457927836489594"><ele>287.0</ele><time>2026-05-01T14:15:31.001Z</time></trkpt><trkpt lat="48.20511094901027" lon="14.458351008172109"><ele>288.0</ele><time>2026-05-01T14:15:32.001Z</time></trkpt><trkpt lat="48.20502328799728" lon="14.45878110885315"><ele>287.0</ele><time>2026-05-01T14:15:33.001Z</time></trkpt><trkpt lat="48.20493138845081" lon="14.459215162472683"><ele>286.0</ele><time>2026-05-01T14:15:34.001Z</time></trkpt><trkpt lat="48.20483229726477" lon="14.459651723147585"><ele>284.0</ele><time>2026-05-01T14:15:35.001Z</time></trkpt><trkpt lat="48.20473312446788" lon="14.460087362376823"><ele>282.0</ele><time>2026-05-01T14:15:36.001Z</time></trkpt><trkpt lat="48.20463387792884" lon="14.460518583893812"><ele>281.0</ele><time>2026-05-01T14:15:37.001Z</time></trkpt><trkpt lat="48.20453726153028" lon="14.460944176494284"><ele>280.0</ele><time>2026-05-01T14:15:38.001Z</time></trkpt><trkpt lat="48.20443841157217" lon="14.461368103572912"><ele>279.5</ele><time>2026-05-01T14:15:39.001Z</time></trkpt><trkpt lat="48.20434045887539" lon="14.461793822940592"><ele>279.0</ele><time>2026-05-01T14:15:40.001Z</time></trkpt><trkpt lat="48.20424418660319" lon="14.46222196555028"><ele>278.5</ele><time>2026-05-01T14:15:41.001Z</time></trkpt><trkpt lat="48.20414597686528" lon="14.462647879116016"><ele>278.0</ele><time>2026-05-01T14:15:42.001Z</time></trkpt><trkpt lat="48.20404767333022" lon="14.463072182673807"><ele>276.5</ele><time>2026-05-01T14:15:43.001Z</time></trkpt><trkpt lat="48.20395062406973" lon="14.463494849240417"><ele>275.0</ele><time>2026-05-01T14:15:44.001Z</time></trkpt><trkpt lat="48.203851151095556" lon="14.463912356367754"><ele>275.0</ele><time>2026-05-01T14:15:45.001Z</time></trkpt><trkpt lat="48.20375331268874" lon="14.464329759289573"><ele>275.0</ele><time>2026-05-01T14:15:46.001Z</time></trkpt><trkpt lat="48.20365723662486" lon="14.464747301145437"><ele>274.0</ele><time>2026-05-01T14:15:47.001Z</time></trkpt><trkpt lat="48.20356550342402" lon="14.465163794964363"><ele>273.0</ele><time>2026-05-01T14:15:48.001Z</time></trkpt><trkpt lat="48.203478870922886" lon="14.465578276168014"><ele>271.5</ele><time>2026-05-01T14:15:49.001Z</time></trkpt><trkpt lat="48.20339709393014" lon="14.465991178976076"><ele>270.0</ele><time>2026-05-01T14:15:50.001Z</time></trkpt><trkpt lat="48.203317953094775" lon="14.466404044975386"><ele>267.5</ele><time>2026-05-01T14:15:51.001Z</time></trkpt><trkpt lat="48.20324354330677" lon="14.466818106951989"><ele>265.0</ele><time>2026-05-01T14:15:52.001Z</time></trkpt><trkpt lat="48.20317556529375" lon="14.467234339234132"><ele>262.5</ele><time>2026-05-01T14:15:53.001Z</time></trkpt><trkpt lat="48.203113388033714" lon="14.46765339730211"><ele>260.0</ele><time>2026-05-01T14:15:54.001Z</time></trkpt><trkpt lat="48.20305591277434" lon="14.468075718601469"><ele>260.5</ele><time>2026-05-01T14:15:55Z</time></trkpt><trkpt lat="48.203007399743925" lon="14.468499447821342"><ele>261.0</ele><time>2026-05-01T14:15:56.001Z</time></trkpt><trkpt lat="48.20296330976149" lon="14.46892749239181"><ele>261.0</ele><time>2026-05-01T14:15:57.001Z</time></trkpt><trkpt lat="48.20291998489212" lon="14.469359132897248"><ele>261.0</ele><time>2026-05-01T14:15:58Z</time></trkpt><trkpt lat="48.202879446767525" lon="14.469795078002242"><ele>264.0</ele><time>2026-05-01T14:15:59.001Z</time></trkpt><trkpt lat="48.20283715116518" lon="14.470231564022056"><ele>267.0</ele><time>2026-05-01T14:16:00Z</time></trkpt><trkpt lat="48.20279203147082" lon="14.470669108399353"><ele>267.0</ele><time>2026-05-01T14:16:01Z</time></trkpt><trkpt lat="48.20274756940389" lon="14.471108883876845"><ele>267.0</ele><time>2026-05-01T14:16:02Z</time></trkpt><trkpt lat="48.202702336128546" lon="14.471546702417724"><ele>267.0</ele><time>2026-05-01T14:16:03Z</time></trkpt><trkpt lat="48.202655168824776" lon="14.471982916928171"><ele>267.0</ele><time>2026-05-01T14:16:04Z</time></trkpt><trkpt lat="48.20260069227227" lon="14.472416768244312"><ele>267.0</ele><time>2026-05-01T14:16:05Z</time></trkpt><trkpt lat="48.20254094747235" lon="14.472850101997212"><ele>267.0</ele><time>2026-05-01T14:16:06Z</time></trkpt><trkpt lat="48.20248576540377" lon="14.4732843493468"><ele>267.5</ele><time>2026-05-01T14:16:07Z</time></trkpt><trkpt lat="48.20243606782816" lon="14.473718198928458"><ele>268.0</ele><time>2026-05-01T14:16:08Z</time></trkpt><trkpt lat="48.202393474578855" lon="14.474153249595465"><ele>269.0</ele><time>2026-05-01T14:16:09Z</time></trkpt><trkpt lat="48.2023528046534" lon="14.474589621100709"><ele>270.0</ele><time>2026-05-01T14:16:10Z</time></trkpt><trkpt lat="48.202310794656164" lon="14.475025843446264"><ele>274.0</ele><time>2026-05-01T14:16:11Z</time></trkpt><trkpt lat="48.20226796044461" lon="14.475460709873158"><ele>278.0</ele><time>2026-05-01T14:16:12Z</time></trkpt><trkpt lat="48.20222278834816" lon="14.475896786209216"><ele>277.5</ele><time>2026-05-01T14:16:13Z</time></trkpt><trkpt lat="48.20217671999528" lon="14.476332827871628"><ele>277.0</ele><time>2026-05-01T14:16:14.001Z</time></trkpt><trkpt lat="48.20213383980756" lon="14.476768586674298"><ele>272.5</ele><time>2026-05-01T14:16:15.001Z</time></trkpt><trkpt lat="48.20209337033619" lon="14.47720216837384"><ele>268.0</ele><time>2026-05-01T14:16:16.001Z</time></trkpt><trkpt lat="48.202052739106506" lon="14.477635407656187"><ele>263.0</ele><time>2026-05-01T14:16:17.001Z</time></trkpt><trkpt lat="48.20201099877087" lon="14.478066358342264"><ele>258.0</ele><time>2026-05-01T14:16:18.001Z</time></trkpt><trkpt lat="48.20196836394589" lon="14.478495141760394"><ele>255.5</ele><time>2026-05-01T14:16:19.001Z</time></trkpt><trkpt lat="48.20192669987424" lon="14.478922289690342"><ele>253.0</ele><time>2026-05-01T14:16:20.001Z</time></trkpt><trkpt lat="48.201885148357285" lon="14.479350751393499"><ele>249.5</ele><time>2026-05-01T14:16:21.001Z</time></trkpt><trkpt lat="48.20184336629659" lon="14.479779669266447"><ele>246.0</ele><time>2026-05-01T14:16:22.001Z</time></trkpt><trkpt lat="48.201802046317404" lon="14.480207202883456"><ele>244.5</ele><time>2026-05-01T14:16:23.001Z</time></trkpt><trkpt lat="48.20175982523733" lon="14.480637140628943"><ele>243.0</ele><time>2026-05-01T14:16:24.001Z</time></trkpt><trkpt lat="48.20171817632639" lon="14.481069267888184"><ele>243.0</ele><time>2026-05-01T14:16:25.001Z</time></trkpt><trkpt lat="48.20167658939118" lon="14.481502523462922"><ele>243.0</ele><time>2026-05-01T14:16:26.001Z</time></trkpt><trkpt lat="48.201635210996386" lon="14.48193695080083"><ele>245.5</ele><time>2026-05-01T14:16:27.001Z</time></trkpt><trkpt lat="48.20159056155516" lon="14.482374072231803"><ele>248.0</ele><time>2026-05-01T14:16:28.001Z</time></trkpt><trkpt lat="48.20154556685671" lon="14.482814263257078"><ele>249.0</ele><time>2026-05-01T14:16:29.001Z</time></trkpt><trkpt lat="48.201501862404655" lon="14.483255547850911"><ele>250.0</ele><time>2026-05-01T14:16:30.001Z</time></trkpt><trkpt lat="48.20145933172762" lon="14.483696971351618"><ele>248.5</ele><time>2026-05-01T14:16:31.001Z</time></trkpt><trkpt lat="48.201414801604336" lon="14.484139782852221"><ele>247.0</ele><time>2026-05-01T14:16:32.001Z</time></trkpt><trkpt lat="48.20136988500592" lon="14.484583212628099"><ele>246.5</ele><time>2026-05-01T14:16:33.001Z</time></trkpt><trkpt lat="48.201323480073455" lon="14.485027425829376"><ele>246.0</ele><time>2026-05-01T14:16:34.001Z</time></trkpt><trkpt lat="48.20127679809326" lon="14.485471688794357"><ele>245.5</ele><time>2026-05-01T14:16:35.001Z</time></trkpt><trkpt lat="48.201230296618824" lon="14.48591575847652"><ele>245.0</ele><time>2026-05-01T14:16:36.001Z</time></trkpt><trkpt lat="48.20118477055727" lon="14.486358288376461"><ele>246.0</ele><time>2026-05-01T14:16:37.001Z</time></trkpt><trkpt lat="48.20113942684668" lon="14.486799300866666"><ele>247.0</ele><time>2026-05-01T14:16:38.001Z</time></trkpt><trkpt lat="48.20109410998383" lon="14.487237321224992"><ele>247.0</ele><time>2026-05-01T14:16:39.001Z</time></trkpt><trkpt lat="48.20104836455889" lon="14.48767340054307"><ele>247.0</ele><time>2026-05-01T14:16:40.001Z</time></trkpt><trkpt lat="48.20100393381284" lon="14.488107384036557"><ele>247.0</ele><time>2026-05-01T14:16:41.001Z</time></trkpt><trkpt lat="48.20095997229827" lon="14.488539555196398"><ele>247.0</ele><time>2026-05-01T14:16:42.001Z</time></trkpt><trkpt lat="48.200915516617535" lon="14.488969365301354"><ele>247.5</ele><time>2026-05-01T14:16:43.001Z</time></trkpt><trkpt lat="48.20087129227554" lon="14.489395829965956"><ele>248.0</ele><time>2026-05-01T14:16:44.001Z</time></trkpt><trkpt lat="48.20082767257685" lon="14.489819873887658"><ele>248.0</ele><time>2026-05-01T14:16:45.001Z</time></trkpt><trkpt lat="48.20078366578067" lon="14.490242926637283"><ele>248.0</ele><time>2026-05-01T14:16:46.001Z</time></trkpt><trkpt lat="48.200740522920235" lon="14.49066812352185"><ele>247.5</ele><time>2026-05-01T14:16:47.001Z</time></trkpt><trkpt lat="48.20069722805931" lon="14.491087376646686"><ele>247.0</ele><time>2026-05-01T14:16:48.001Z</time></trkpt><trkpt lat="48.20065497615441" lon="14.491495626110297"><ele>247.0</ele><time>2026-05-01T14:16:49.001Z</time></trkpt><trkpt lat="48.20061179715669" lon="14.491910033054822"><ele>247.0</ele><time>2026-05-01T14:16:50.001Z</time></trkpt><trkpt lat="48.20056959984386" lon="14.492330377511628"><ele>247.5</ele><time>2026-05-01T14:16:51.001Z</time></trkpt><trkpt lat="48.20052784085442" lon="14.492753030165186"><ele>248.0</ele><time>2026-05-01T14:16:52.001Z</time></trkpt><trkpt lat="48.20049222957124" lon="14.493180742454731"><ele>248.0</ele><time>2026-05-01T14:16:53.001Z</time></trkpt><trkpt lat="48.20045773028982" lon="14.493620618615411"><ele>248.0</ele><time>2026-05-01T14:16:54.001Z</time></trkpt><trkpt lat="48.200421197747666" lon="14.494064214989688"><ele>248.0</ele><time>2026-05-01T14:16:55.001Z</time></trkpt><trkpt lat="48.20037983614232" lon="14.494508619595464"><ele>248.0</ele><time>2026-05-01T14:16:56.001Z</time></trkpt><trkpt lat="48.200335207851744" lon="14.494953740082675"><ele>248.0</ele><time>2026-05-01T14:16:57.001Z</time></trkpt><trkpt lat="48.200290330746874" lon="14.4953968897284"><ele>248.0</ele><time>2026-05-01T14:16:58.001Z</time></trkpt><trkpt lat="48.200246022877046" lon="14.495836094666013"><ele>249.0</ele><time>2026-05-01T14:16:59.001Z</time></trkpt><trkpt lat="48.20020297850077" lon="14.49626992518078"><ele>250.0</ele><time>2026-05-01T14:17:00.001Z</time></trkpt><trkpt lat="48.20015853044261" lon="14.496700685448857"><ele>250.0</ele><time>2026-05-01T14:17:01.001Z</time></trkpt><trkpt lat="48.200108257605045" lon="14.497127184219819"><ele>250.0</ele><time>2026-05-01T14:17:02.001Z</time></trkpt><trkpt lat="48.200055232092524" lon="14.497549900681848"><ele>250.0</ele><time>2026-05-01T14:17:03.001Z</time></trkpt><trkpt lat="48.20000376643638" lon="14.497968499375666"><ele>250.0</ele><time>2026-05-01T14:17:04.001Z</time></trkpt><trkpt lat="48.199955357968356" lon="14.49838526280375"><ele>249.5</ele><time>2026-05-01T14:17:05.001Z</time></trkpt><trkpt lat="48.19991048076811" lon="14.498801162322051"><ele>249.0</ele><time>2026-05-01T14:17:06.001Z</time></trkpt><trkpt lat="48.1998655340786" lon="14.499216521099104"><ele>248.5</ele><time>2026-05-01T14:17:07.001Z</time></trkpt><trkpt lat="48.19982202561271" lon="14.499632716068167"><ele>248.0</ele><time>2026-05-01T14:17:08.001Z</time></trkpt><trkpt lat="48.19978032531063" lon="14.50004858541201"><ele>248.5</ele><time>2026-05-01T14:17:09.001Z</time></trkpt><trkpt lat="48.199739550331344" lon="14.500465745406059"><ele>249.0</ele><time>2026-05-01T14:17:10.001Z</time></trkpt><trkpt lat="48.199698563433685" lon="14.50088232865818"><ele>250.0</ele><time>2026-05-01T14:17:11.001Z</time></trkpt><trkpt lat="48.199656406816" lon="14.501298888304586"><ele>251.0</ele><time>2026-05-01T14:17:12.001Z</time></trkpt><trkpt lat="48.19961305144358" lon="14.501718487401975"><ele>251.5</ele><time>2026-05-01T14:17:13.001Z</time></trkpt><trkpt lat="48.19957205509389" lon="14.502138959475925"><ele>252.0</ele><time>2026-05-01T14:17:14.001Z</time></trkpt><trkpt lat="48.19952990232412" lon="14.502561096969004"><ele>250.5</ele><time>2026-05-01T14:17:15.001Z</time></trkpt><trkpt lat="48.19948779157165" lon="14.502984785230797"><ele>249.0</ele><time>2026-05-01T14:17:16.001Z</time></trkpt><trkpt lat="48.19944557281424" lon="14.503408512238185"><ele>249.0</ele><time>2026-05-01T14:17:17.001Z</time></trkpt><trkpt lat="48.19940221440033" lon="14.503831669926209"><ele>249.0</ele><time>2026-05-01T14:17:18.001Z</time></trkpt><trkpt lat="48.19935890277455" lon="14.504258394260162"><ele>249.0</ele><time>2026-05-01T14:17:19.001Z</time></trkpt><trkpt lat="48.19931439449537" lon="14.504685476265474"><ele>249.0</ele><time>2026-05-01T14:17:20.001Z</time></trkpt><trkpt lat="48.199270472684816" lon="14.505109885232324"><ele>249.0</ele><time>2026-05-01T14:17:21.001Z</time></trkpt><trkpt lat="48.199226115666775" lon="14.505534375330821"><ele>249.0</ele><time>2026-05-01T14:17:22.001Z</time></trkpt><trkpt lat="48.199181770737084" lon="14.505957621635513"><ele>249.0</ele><time>2026-05-01T14:17:23.001Z</time></trkpt><trkpt lat="48.19913876937556" lon="14.506384770055483"><ele>249.0</ele><time>2026-05-01T14:17:24.001Z</time></trkpt><trkpt lat="48.199094851850425" lon="14.506813687177"><ele>248.5</ele><time>2026-05-01T14:17:25.001Z</time></trkpt><trkpt lat="48.199051749277466" lon="14.507243135644483"><ele>248.0</ele><time>2026-05-01T14:17:26.001Z</time></trkpt><trkpt lat="48.19900714697115" lon="14.507674962017555"><ele>247.5</ele><time>2026-05-01T14:17:27.001Z</time></trkpt><trkpt lat="48.19896257681456" lon="14.508108529993622"><ele>247.0</ele><time>2026-05-01T14:17:28.001Z</time></trkpt><trkpt lat="48.19891874868965" lon="14.508542621158"><ele>247.0</ele><time>2026-05-01T14:17:29.001Z</time></trkpt><trkpt lat="48.19887618043342" lon="14.508979540988339"><ele>247.0</ele><time>2026-05-01T14:17:30.001Z</time></trkpt><trkpt lat="48.198834047665514" lon="14.509416439293293"><ele>248.0</ele><time>2026-05-01T14:17:31.001Z</time></trkpt><trkpt lat="48.19879078256627" lon="14.509853772247103"><ele>249.0</ele><time>2026-05-01T14:17:32.001Z</time></trkpt><trkpt lat="48.19874537746452" lon="14.510290419149605"><ele>250.0</ele><time>2026-05-01T14:17:33.001Z</time></trkpt><trkpt lat="48.198699105754145" lon="14.510726113339139"><ele>251.0</ele><time>2026-05-01T14:17:34.001Z</time></trkpt><trkpt lat="48.19865322250278" lon="14.511162748243548"><ele>252.5</ele><time>2026-05-01T14:17:35.001Z</time></trkpt><trkpt lat="48.19860495202064" lon="14.511594922083074"><ele>254.0</ele><time>2026-05-01T14:17:36.001Z</time></trkpt><trkpt lat="48.198555283435056" lon="14.512032777025235"><ele>254.5</ele><time>2026-05-01T14:17:37.001Z</time></trkpt><trkpt lat="48.198501560192206" lon="14.512465255000391"><ele>255.0</ele><time>2026-05-01T14:17:38.001Z</time></trkpt><trkpt lat="48.19843982148667" lon="14.512893006630966"><ele>255.5</ele><time>2026-05-01T14:17:39.001Z</time></trkpt><trkpt lat="48.198372625883536" lon="14.513319294196615"><ele>256.0</ele><time>2026-05-01T14:17:40.001Z</time></trkpt><trkpt lat="48.19830028114548" lon="14.513743510361147"><ele>256.0</ele><time>2026-05-01T14:17:41.001Z</time></trkpt><trkpt lat="48.19822168285651" lon="14.514166060136494"><ele>256.0</ele><time>2026-05-01T14:17:42.001Z</time></trkpt><trkpt lat="48.19813805842906" lon="14.514585867783126"><ele>256.5</ele><time>2026-05-01T14:17:43.001Z</time></trkpt><trkpt lat="48.198047673629304" lon="14.515002715558099"><ele>257.0</ele><time>2026-05-01T14:17:44.001Z</time></trkpt><trkpt lat="48.19794912926348" lon="14.51541505396624"><ele>257.0</ele><time>2026-05-01T14:17:45.001Z</time></trkpt><trkpt lat="48.19784544865838" lon="14.515825990356841"><ele>257.0</ele><time>2026-05-01T14:17:46.001Z</time></trkpt><trkpt lat="48.197735995630715" lon="14.516233672483557"><ele>256.5</ele><time>2026-05-01T14:17:47.001Z</time></trkpt><trkpt lat="48.19762080828714" lon="14.516638703574962"><ele>256.0</ele><time>2026-05-01T14:17:48.001Z</time></trkpt><trkpt lat="48.197500441289215" lon="14.517039930483714"><ele>255.5</ele><time>2026-05-01T14:17:49.001Z</time></trkpt><trkpt lat="48.1973727944234" lon="14.517436609826914"><ele>255.0</ele><time>2026-05-01T14:17:50.001Z</time></trkpt><trkpt lat="48.197241695326255" lon="14.517828306555058"><ele>256.0</ele><time>2026-05-01T14:17:51.001Z</time></trkpt><trkpt lat="48.19710681579462" lon="14.518210315845096"><ele>257.0</ele><time>2026-05-01T14:17:52.001Z</time></trkpt><trkpt lat="48.19696742444332" lon="14.518587209339582"><ele>257.5</ele><time>2026-05-01T14:17:53.001Z</time></trkpt><trkpt lat="48.196817262279836" lon="14.518958907092712"><ele>258.0</ele><time>2026-05-01T14:17:54.001Z</time></trkpt><trkpt lat="48.19666249553911" lon="14.519325900325926"><ele>258.0</ele><time>2026-05-01T14:17:55.001Z</time></trkpt><trkpt lat="48.19650344746546" lon="14.519689559314797"><ele>258.0</ele><time>2026-05-01T14:17:56.001Z</time></trkpt><trkpt lat="48.19634169593076" lon="14.520048870447308"><ele>257.5</ele><time>2026-05-01T14:17:57.001Z</time></trkpt><trkpt lat="48.196174007912724" lon="14.520404163717151"><ele>257.0</ele><time>2026-05-01T14:17:58.001Z</time></trkpt><trkpt lat="48.19599937801812" lon="14.52075652554698"><ele>257.0</ele><time>2026-05-01T14:17:59.001Z</time></trkpt><trkpt lat="48.195817309918375" lon="14.521103583617549"><ele>257.0</ele><time>2026-05-01T14:18:00Z</time></trkpt><trkpt lat="48.1956279442457" lon="14.521445745406782"><ele>258.0</ele><time>2026-05-01T14:18:01Z</time></trkpt><trkpt lat="48.195433768345985" lon="14.521782744123236"><ele>259.0</ele><time>2026-05-01T14:18:02Z</time></trkpt><trkpt lat="48.19523457877838" lon="14.522112780951325"><ele>259.5</ele><time>2026-05-01T14:18:03Z</time></trkpt><trkpt lat="48.19502985977446" lon="14.522435250217193"><ele>260.0</ele><time>2026-05-01T14:18:04Z</time></trkpt><trkpt lat="48.19482215155137" lon="14.522750798999583"><ele>260.0</ele><time>2026-05-01T14:18:05Z</time></trkpt><trkpt lat="48.19461458406197" lon="14.523061528473155"><ele>260.0</ele><time>2026-05-01T14:18:06Z</time></trkpt><trkpt lat="48.19440882988116" lon="14.523366998969195"><ele>260.0</ele><time>2026-05-01T14:18:07Z</time></trkpt><trkpt lat="48.1942148694713" lon="14.523655364160037"><ele>260.0</ele><time>2026-05-01T14:18:08Z</time></trkpt><trkpt lat="48.194018560422926" lon="14.523946941087841"><ele>261.0</ele><time>2026-05-01T14:18:09Z</time></trkpt><trkpt lat="48.193817708455434" lon="14.524244271813673"><ele>262.0</ele><time>2026-05-01T14:18:10Z</time></trkpt><trkpt lat="48.193615186351956" lon="14.524543891121676"><ele>261.5</ele><time>2026-05-01T14:18:11Z</time></trkpt><trkpt lat="48.19341153478316" lon="14.52484420748785"><ele>261.0</ele><time>2026-05-01T14:18:12Z</time></trkpt><trkpt lat="48.193207354730205" lon="14.525143924181553"><ele>261.5</ele><time>2026-05-01T14:18:13Z</time></trkpt><trkpt lat="48.193001778342506" lon="14.52544376086449"><ele>262.0</ele><time>2026-05-01T14:18:14Z</time></trkpt><trkpt lat="48.192795033128675" lon="14.5257458699317"><ele>262.0</ele><time>2026-05-01T14:18:15Z</time></trkpt><trkpt lat="48.19258776647261" lon="14.526048943091624"><ele>262.0</ele><time>2026-05-01T14:18:16Z</time></trkpt><trkpt lat="48.19237896391312" lon="14.526355013448681"><ele>261.0</ele><time>2026-05-01T14:18:17Z</time></trkpt><trkpt lat="48.19217082339837" lon="14.526660587018494"><ele>260.0</ele><time>2026-05-01T14:18:18Z</time></trkpt><trkpt lat="48.191963638596306" lon="14.52696460234817"><ele>261.0</ele><time>2026-05-01T14:18:19Z</time></trkpt><trkpt lat="48.1917577029684" lon="14.527268158829822"><ele>262.0</ele><time>2026-05-01T14:18:20Z</time></trkpt><trkpt lat="48.191552171307755" lon="14.527569820827205"><ele>261.5</ele><time>2026-05-01T14:18:21Z</time></trkpt><trkpt lat="48.191344412325094" lon="14.527872588085831"><ele>261.0</ele><time>2026-05-01T14:18:22Z</time></trkpt><trkpt lat="48.19113514996393" lon="14.528178319540965"><ele>261.0</ele><time>2026-05-01T14:18:23.001Z</time></trkpt><trkpt lat="48.19092354591357" lon="14.5284857623649"><ele>261.0</ele><time>2026-05-01T14:18:24.001Z</time></trkpt><trkpt lat="48.19071111798054" lon="14.528794509807161"><ele>261.0</ele><time>2026-05-01T14:18:25.001Z</time></trkpt><trkpt lat="48.19049753852602" lon="14.529105576787693"><ele>261.0</ele><time>2026-05-01T14:18:26.001Z</time></trkpt><trkpt lat="48.19028405748977" lon="14.529419241285398"><ele>261.5</ele><time>2026-05-01T14:18:27.001Z</time></trkpt><trkpt lat="48.190070385166614" lon="14.52973469373179"><ele>262.0</ele><time>2026-05-01T14:18:28.001Z</time></trkpt><trkpt lat="48.18985735755085" lon="14.53004898675943"><ele>261.5</ele><time>2026-05-01T14:18:29.001Z</time></trkpt><trkpt lat="48.189645083332756" lon="14.53036300660489"><ele>261.0</ele><time>2026-05-01T14:18:30.001Z</time></trkpt><trkpt lat="48.1894313271705" lon="14.530677315092968"><ele>261.0</ele><time>2026-05-01T14:18:31.001Z</time></trkpt><trkpt lat="48.18921804397772" lon="14.53099113696975"><ele>261.0</ele><time>2026-05-01T14:18:32.001Z</time></trkpt><trkpt lat="48.18900516291029" lon="14.531302664723732"><ele>261.0</ele><time>2026-05-01T14:18:33.001Z</time></trkpt><trkpt lat="48.18879426335719" lon="14.53161292091698"><ele>261.0</ele><time>2026-05-01T14:18:34.001Z</time></trkpt><trkpt lat="48.18858404858842" lon="14.531921624266502"><ele>260.5</ele><time>2026-05-01T14:18:35.001Z</time></trkpt><trkpt lat="48.1883728507967" lon="14.532229696722757"><ele>260.0</ele><time>2026-05-01T14:18:36.001Z</time></trkpt><trkpt lat="48.18816194440977" lon="14.532536977890972"><ele>260.0</ele><time>2026-05-01T14:18:37.001Z</time></trkpt><trkpt lat="48.18795163429021" lon="14.532843979528613"><ele>260.0</ele><time>2026-05-01T14:18:38.001Z</time></trkpt><trkpt lat="48.187740874138996" lon="14.533150652526832"><ele>260.0</ele><time>2026-05-01T14:18:39.001Z</time></trkpt><trkpt lat="48.18753049694263" lon="14.533458076384287"><ele>260.0</ele><time>2026-05-01T14:18:40.001Z</time></trkpt><trkpt lat="48.187321115036276" lon="14.533764116184626"><ele>261.0</ele><time>2026-05-01T14:18:41.001Z</time></trkpt><trkpt lat="48.18711177042888" lon="14.534070256077483"><ele>262.0</ele><time>2026-05-01T14:18:42.001Z</time></trkpt><trkpt lat="48.186902329113785" lon="14.534376158702258"><ele>262.0</ele><time>2026-05-01T14:18:43.001Z</time></trkpt><trkpt lat="48.18669244819975" lon="14.534681649685039"><ele>262.0</ele><time>2026-05-01T14:18:44.001Z</time></trkpt><trkpt lat="48.18648288738925" lon="14.534985972211478"><ele>262.0</ele><time>2026-05-01T14:18:45.001Z</time></trkpt><trkpt lat="48.18627568378053" lon="14.535291371848245"><ele>262.0</ele><time>2026-05-01T14:18:46.001Z</time></trkpt><trkpt lat="48.186068007588936" lon="14.535595081800174"><ele>262.0</ele><time>2026-05-01T14:18:47.001Z</time></trkpt><trkpt lat="48.18586154988624" lon="14.535898929150115"><ele>262.0</ele><time>2026-05-01T14:18:48.001Z</time></trkpt><trkpt lat="48.185656577963215" lon="14.536201983846176"><ele>262.5</ele><time>2026-05-01T14:18:49.001Z</time></trkpt><trkpt lat="48.185452287162356" lon="14.536505131498508"><ele>263.0</ele><time>2026-05-01T14:18:50.001Z</time></trkpt><trkpt lat="48.18524622422065" lon="14.536806859608825"><ele>263.0</ele><time>2026-05-01T14:18:51.001Z</time></trkpt><trkpt lat="48.18504040224468" lon="14.537108820252412"><ele>263.0</ele><time>2026-05-01T14:18:52.001Z</time></trkpt><trkpt lat="48.18483433232877" lon="14.537414520315302"><ele>263.0</ele><time>2026-05-01T14:18:53.001Z</time></trkpt><trkpt lat="48.18462686530172" lon="14.537723550493798"><ele>263.0</ele><time>2026-05-01T14:18:54.001Z</time></trkpt><trkpt lat="48.184416731457205" lon="14.538032752721241"><ele>263.5</ele><time>2026-05-01T14:18:55.001Z</time></trkpt><trkpt lat="48.18420382985558" lon="14.53834136058693"><ele>264.0</ele><time>2026-05-01T14:18:56.001Z</time></trkpt><trkpt lat="48.18398776814847" lon="14.538650762455193"><ele>263.5</ele><time>2026-05-01T14:18:57.001Z</time></trkpt><trkpt lat="48.183768566035816" lon="14.53895792058058"><ele>263.0</ele><time>2026-05-01T14:18:58.001Z</time></trkpt><trkpt lat="48.18354990859016" lon="14.539268048721759"><ele>263.0</ele><time>2026-05-01T14:18:59.001Z</time></trkpt><trkpt lat="48.183330969465935" lon="14.539578303991972"><ele>263.0</ele><time>2026-05-01T14:19:00.001Z</time></trkpt><trkpt lat="48.183112184402866" lon="14.539888773861854"><ele>262.5</ele><time>2026-05-01T14:19:01.001Z</time></trkpt><trkpt lat="48.182891692561526" lon="14.540194381434706"><ele>262.0</ele><time>2026-05-01T14:19:02.001Z</time></trkpt><trkpt lat="48.18266800363059" lon="14.540493782626147"><ele>262.0</ele><time>2026-05-01T14:19:03.001Z</time></trkpt><trkpt lat="48.18244514179314" lon="14.540786341266996"><ele>262.0</ele><time>2026-05-01T14:19:04.001Z</time></trkpt><trkpt lat="48.18222185483466" lon="14.541075403222186"><ele>264.5</ele><time>2026-05-01T14:19:05.001Z</time></trkpt><trkpt lat="48.181997531560015" lon="14.541361744127592"><ele>267.0</ele><time>2026-05-01T14:19:06.001Z</time></trkpt><trkpt lat="48.18177076681373" lon="14.541639755913025"><ele>267.0</ele><time>2026-05-01T14:19:07.001Z</time></trkpt><trkpt lat="48.18154833575349" lon="14.541906618606127"><ele>267.0</ele><time>2026-05-01T14:19:08.001Z</time></trkpt><trkpt lat="48.18133746445235" lon="14.542155198817872"><ele>267.0</ele><time>2026-05-01T14:19:09.001Z</time></trkpt><trkpt lat="48.1811191270074" lon="14.54241093788479"><ele>267.0</ele><time>2026-05-01T14:19:10.001Z</time></trkpt><trkpt lat="48.18089448268167" lon="14.542663315376386"><ele>267.0</ele><time>2026-05-01T14:19:11.001Z</time></trkpt><trkpt lat="48.18066865916814" lon="14.542910968354832"><ele>267.0</ele><time>2026-05-01T14:19:12.001Z</time></trkpt><trkpt lat="48.18044195936" lon="14.54315491846622"><ele>267.0</ele><time>2026-05-01T14:19:13.001Z</time></trkpt><trkpt lat="48.18021375708153" lon="14.543398469430377"><ele>267.0</ele><time>2026-05-01T14:19:14.001Z</time></trkpt><trkpt lat="48.17997840547052" lon="14.543641974760632"><ele>270.0</ele><time>2026-05-01T14:19:15.001Z</time></trkpt><trkpt lat="48.179733784212075" lon="14.54388021854954"><ele>273.0</ele><time>2026-05-01T14:19:16.001Z</time></trkpt><trkpt lat="48.17947863244156" lon="14.544111876772511"><ele>273.0</ele><time>2026-05-01T14:19:17.001Z</time></trkpt><trkpt lat="48.1792142632728" lon="14.544338872327108"><ele>273.0</ele><time>2026-05-01T14:19:18.001Z</time></trkpt><trkpt lat="48.178944273121516" lon="14.54456680733603"><ele>276.0</ele><time>2026-05-01T14:19:19.001Z</time></trkpt><trkpt lat="48.178671259281174" lon="14.544789135969602"><ele>279.0</ele><time>2026-05-01T14:19:20.001Z</time></trkpt><trkpt lat="48.17839689888019" lon="14.5450009689554"><ele>278.5</ele><time>2026-05-01T14:19:21.001Z</time></trkpt><trkpt lat="48.17812159750003" lon="14.545198427424648"><ele>278.0</ele><time>2026-05-01T14:19:22.001Z</time></trkpt><trkpt lat="48.177846212776096" lon="14.545385945871805"><ele>282.0</ele><time>2026-05-01T14:19:23.001Z</time></trkpt><trkpt lat="48.17757217025926" lon="14.545569396391674"><ele>286.0</ele><time>2026-05-01T14:19:24.001Z</time></trkpt><trkpt lat="48.177296233425785" lon="14.545748159523374"><ele>287.5</ele><time>2026-05-01T14:19:25.001Z</time></trkpt><trkpt lat="48.177019091786356" lon="14.545920639710351"><ele>289.0</ele><time>2026-05-01T14:19:26.001Z</time></trkpt><trkpt lat="48.176741489212915" lon="14.546088622616372"><ele>291.0</ele><time>2026-05-01T14:19:27.001Z</time></trkpt><trkpt lat="48.17646130688487" lon="14.546251796810411"><ele>293.0</ele><time>2026-05-01T14:19:28.001Z</time></trkpt><trkpt lat="48.176180185288814" lon="14.54640813656659"><ele>293.0</ele><time>2026-05-01T14:19:29.001Z</time></trkpt><trkpt lat="48.17589747999469" lon="14.546558327437957"><ele>293.0</ele><time>2026-05-01T14:19:30.001Z</time></trkpt><trkpt lat="48.17561268833909" lon="14.546705768321134"><ele>295.0</ele><time>2026-05-01T14:19:31.001Z</time></trkpt><trkpt lat="48.1753266855496" lon="14.546852514302712"><ele>297.0</ele><time>2026-05-01T14:19:32.001Z</time></trkpt><trkpt lat="48.175038748675796" lon="14.546995345310556"><ele>300.0</ele><time>2026-05-01T14:19:33.001Z</time></trkpt><trkpt lat="48.17475057639829" lon="14.547133045259354"><ele>303.0</ele><time>2026-05-01T14:19:34.001Z</time></trkpt><trkpt lat="48.17446166623192" lon="14.547265994902006"><ele>303.0</ele><time>2026-05-01T14:19:35.001Z</time></trkpt><trkpt lat="48.17417295007296" lon="14.547396375820904"><ele>303.0</ele><time>2026-05-01T14:19:36.001Z</time></trkpt><trkpt lat="48.17388459602443" lon="14.547525925472709"><ele>304.0</ele><time>2026-05-01T14:19:37.001Z</time></trkpt><trkpt lat="48.17359776201864" lon="14.547654248670504"><ele>305.0</ele><time>2026-05-01T14:19:38.001Z</time></trkpt><trkpt lat="48.17331123277285" lon="14.547780821384329"><ele>308.5</ele><time>2026-05-01T14:19:39.001Z</time></trkpt><trkpt lat="48.17302498040657" lon="14.547907208508375"><ele>312.0</ele><time>2026-05-01T14:19:40.001Z</time></trkpt><trkpt lat="48.172739101176006" lon="14.548033497066609"><ele>312.0</ele><time>2026-05-01T14:19:41.001Z</time></trkpt><trkpt lat="48.17245430583731" lon="14.548159498248108"><ele>312.0</ele><time>2026-05-01T14:19:42.001Z</time></trkpt><trkpt lat="48.17216941622721" lon="14.548284507077971"><ele>313.0</ele><time>2026-05-01T14:19:43.001Z</time></trkpt><trkpt lat="48.17188382225896" lon="14.548408560215094"><ele>314.0</ele><time>2026-05-01T14:19:44.001Z</time></trkpt><trkpt lat="48.17159906831663" lon="14.548532481395489"><ele>314.5</ele><time>2026-05-01T14:19:45.001Z</time></trkpt><trkpt lat="48.171315004876334" lon="14.548659823434466"><ele>315.0</ele><time>2026-05-01T14:19:46.001Z</time></trkpt><trkpt lat="48.17103393074624" lon="14.548789033428289"><ele>316.5</ele><time>2026-05-01T14:19:47.001Z</time></trkpt><trkpt lat="48.17075352846218" lon="14.548917207367658"><ele>318.0</ele><time>2026-05-01T14:19:48.001Z</time></trkpt><trkpt lat="48.17047354248342" lon="14.54904107083604"><ele>318.0</ele><time>2026-05-01T14:19:49.001Z</time></trkpt><trkpt lat="48.17019278814364" lon="14.549161239963365"><ele>318.0</ele><time>2026-05-01T14:19:50.001Z</time></trkpt><trkpt lat="48.16991209755002" lon="14.54928175276896"><ele>318.5</ele><time>2026-05-01T14:19:51.001Z</time></trkpt><trkpt lat="48.16963146700699" lon="14.549404729140775"><ele>319.0</ele><time>2026-05-01T14:19:52.001Z</time></trkpt><trkpt lat="48.16935076087402" lon="14.549529577967126"><ele>321.0</ele><time>2026-05-01T14:19:53.001Z</time></trkpt><trkpt lat="48.16907025799463" lon="14.549656289326101"><ele>323.0</ele><time>2026-05-01T14:19:54.001Z</time></trkpt><trkpt lat="48.16878900608024" lon="14.549786442517178"><ele>326.0</ele><time>2026-05-01T14:19:55.001Z</time></trkpt><trkpt lat="48.16850673681621" lon="14.549918432801501"><ele>329.0</ele><time>2026-05-01T14:19:56.001Z</time></trkpt><trkpt lat="48.16822292592327" lon="14.55005342473371"><ele>330.0</ele><time>2026-05-01T14:19:57.001Z</time></trkpt><trkpt lat="48.16793739664742" lon="14.550193274804178"><ele>331.0</ele><time>2026-05-01T14:19:58.001Z</time></trkpt><trkpt lat="48.167650125373555" lon="14.55033831057915"><ele>331.5</ele><time>2026-05-01T14:19:59.001Z</time></trkpt><trkpt lat="48.16736180076234" lon="14.55049091434063"><ele>332.0</ele><time>2026-05-01T14:20:00.001Z</time></trkpt><trkpt lat="48.16707304560937" lon="14.550648767289108"><ele>334.0</ele><time>2026-05-01T14:20:01.001Z</time></trkpt><trkpt lat="48.16678480905769" lon="14.55080888930056"><ele>336.0</ele><time>2026-05-01T14:20:02.001Z</time></trkpt><trkpt lat="48.16649695114945" lon="14.550971434349195"><ele>336.5</ele><time>2026-05-01T14:20:03.001Z</time></trkpt><trkpt lat="48.16620995857864" lon="14.551136081940859"><ele>337.0</ele><time>2026-05-01T14:20:04.001Z</time></trkpt><trkpt lat="48.165925793510574" lon="14.55130394708346"><ele>341.5</ele><time>2026-05-01T14:20:05.001Z</time></trkpt><trkpt lat="48.16564395637445" lon="14.551475685754138"><ele>346.0</ele><time>2026-05-01T14:20:06Z</time></trkpt><trkpt lat="48.1653643512555" lon="14.551649791082065"><ele>346.0</ele><time>2026-05-01T14:20:07Z</time></trkpt><trkpt lat="48.1650866030752" lon="14.551826394360729"><ele>346.0</ele><time>2026-05-01T14:20:08Z</time></trkpt><trkpt lat="48.1648092801565" lon="14.552003069252564"><ele>350.0</ele><time>2026-05-01T14:20:09Z</time></trkpt><trkpt lat="48.16453270470191" lon="14.552177195533558"><ele>354.0</ele><time>2026-05-01T14:20:10Z</time></trkpt><trkpt lat="48.164256917970796" lon="14.552351259389265"><ele>363.5</ele><time>2026-05-01T14:20:11Z</time></trkpt><trkpt lat="48.16398263325297" lon="14.552529963848277"><ele>373.0</ele><time>2026-05-01T14:20:12Z</time></trkpt><trkpt lat="48.163711222057394" lon="14.552715158655916"><ele>372.0</ele><time>2026-05-01T14:20:13Z</time></trkpt><trkpt lat="48.163442609872526" lon="14.55290756399353"><ele>371.0</ele><time>2026-05-01T14:20:14Z</time></trkpt><trkpt lat="48.163177481340504" lon="14.553105548290706"><ele>371.0</ele><time>2026-05-01T14:20:15Z</time></trkpt><trkpt lat="48.162913862496396" lon="14.55330405092707"><ele>371.0</ele><time>2026-05-01T14:20:16Z</time></trkpt><trkpt lat="48.1626504802743" lon="14.55350076226044"><ele>371.0</ele><time>2026-05-01T14:20:17Z</time></trkpt><trkpt lat="48.162386860864565" lon="14.553695116777732"><ele>371.0</ele><time>2026-05-01T14:20:18Z</time></trkpt><trkpt lat="48.16212688926068" lon="14.55388804141615"><ele>369.5</ele><time>2026-05-01T14:20:19Z</time></trkpt><trkpt lat="48.16188024683348" lon="14.554069735646882"><ele>368.0</ele><time>2026-05-01T14:20:20Z</time></trkpt><trkpt lat="48.16164992493397" lon="14.554236738421965"><ele>369.5</ele><time>2026-05-01T14:20:21Z</time></trkpt><trkpt lat="48.16142536034044" lon="14.554399412088864"><ele>371.0</ele><time>2026-05-01T14:20:22Z</time></trkpt><trkpt lat="48.161198982282095" lon="14.554562198708407"><ele>371.0</ele><time>2026-05-01T14:20:23Z</time></trkpt><trkpt lat="48.16097682436377" lon="14.554722446458067"><ele>371.0</ele><time>2026-05-01T14:20:24Z</time></trkpt><trkpt lat="48.1607593571388" lon="14.55487539952947"><ele>380.0</ele><time>2026-05-01T14:20:25Z</time></trkpt><trkpt lat="48.16054802880994" lon="14.555022042897612"><ele>389.0</ele><time>2026-05-01T14:20:26Z</time></trkpt><trkpt lat="48.16033583230207" lon="14.555166885825596"><ele>389.0</ele><time>2026-05-01T14:20:27Z</time></trkpt><trkpt lat="48.160123338548715" lon="14.555311473684306"><ele>389.0</ele><time>2026-05-01T14:20:28Z</time></trkpt><trkpt lat="48.15991116769188" lon="14.555454668857967"><ele>387.0</ele><time>2026-05-01T14:20:29Z</time></trkpt><trkpt lat="48.15970115797411" lon="14.55559481631367"><ele>385.0</ele><time>2026-05-01T14:20:30Z</time></trkpt><trkpt lat="48.159493903531796" lon="14.555729724482838"><ele>385.0</ele><time>2026-05-01T14:20:31Z</time></trkpt><trkpt lat="48.159294089995306" lon="14.55585705189044"><ele>385.0</ele><time>2026-05-01T14:20:32Z</time></trkpt><trkpt lat="48.15910168023969" lon="14.555978189845248"><ele>385.0</ele><time>2026-05-01T14:20:33Z</time></trkpt><trkpt lat="48.15891877075078" lon="14.5560898182413"><ele>385.33333333333337</ele><time>2026-05-01T14:20:34Z</time></trkpt><trkpt lat="48.15873828016153" lon="14.556198078751672"><ele>385.66666666666663</ele><time>2026-05-01T14:20:35.001Z</time></trkpt><trkpt lat="48.15856208851898" lon="14.556304308745112"><ele>386.0</ele><time>2026-05-01T14:20:36.001Z</time></trkpt><trkpt lat="48.158386599409084" lon="14.55641210946968"><ele>386.0</ele><time>2026-05-01T14:20:37.001Z</time></trkpt><trkpt lat="48.158211540925144" lon="14.556518884582577"><ele>386.0</ele><time>2026-05-01T14:20:38.001Z</time></trkpt><trkpt lat="48.158035585877705" lon="14.556623175068067"><ele>386.0</ele><time>2026-05-01T14:20:39.001Z</time></trkpt><trkpt lat="48.157859654072766" lon="14.556724901370343"><ele>387.0</ele><time>2026-05-01T14:20:40.001Z</time></trkpt><trkpt lat="48.15768360880766" lon="14.55682546636114"><ele>388.0</ele><time>2026-05-01T14:20:41.001Z</time></trkpt><trkpt lat="48.15750642380867" lon="14.556925730379923"><ele>389.0</ele><time>2026-05-01T14:20:42.001Z</time></trkpt><trkpt lat="48.1573308787889" lon="14.557024986383192"><ele>387.66666666666663</ele><time>2026-05-01T14:20:43.001Z</time></trkpt><trkpt lat="48.1571574683022" lon="14.557124001293458"><ele>386.33333333333337</ele><time>2026-05-01T14:20:44.001Z</time></trkpt><trkpt lat="48.15698670200935" lon="14.557221066367392"><ele>385.0</ele><time>2026-05-01T14:20:45.001Z</time></trkpt><trkpt lat="48.15681687551955" lon="14.557316342538511"><ele>385.0</ele><time>2026-05-01T14:20:46.001Z</time></trkpt><trkpt lat="48.15664425173536" lon="14.557408676528572"><ele>385.0</ele><time>2026-05-01T14:20:47.001Z</time></trkpt><trkpt lat="48.15647026992237" lon="14.557499042514303"><ele>385.0</ele><time>2026-05-01T14:20:48.001Z</time></trkpt><trkpt lat="48.15629554037104" lon="14.557587563254742"><ele>384.33333333333337</ele><time>2026-05-01T14:20:49.001Z</time></trkpt><trkpt lat="48.15612071721217" lon="14.557675898294523"><ele>383.6666666666667</ele><time>2026-05-01T14:20:50.001Z</time></trkpt><trkpt lat="48.15594522726587" lon="14.55776694860895"><ele>383.0</ele><time>2026-05-01T14:20:51.001Z</time></trkpt><trkpt lat="48.15576971618014" lon="14.557862467799165"><ele>381.6666666666667</ele><time>2026-05-01T14:20:52.001Z</time></trkpt><trkpt lat="48.15559448169982" lon="14.557959816345763"><ele>380.3333333333333</ele><time>2026-05-01T14:20:53.001Z</time></trkpt><trkpt lat="48.15542026295031" lon="14.558057856507924"><ele>379.0</ele><time>2026-05-01T14:20:54.001Z</time></trkpt><trkpt lat="48.15524538059218" lon="14.558157712643794"><ele>379.0</ele><time>2026-05-01T14:20:55.001Z</time></trkpt><trkpt lat="48.15506972452134" lon="14.558259761209005"><ele>379.0</ele><time>2026-05-01T14:20:56.001Z</time></trkpt><trkpt lat="48.15489354687366" lon="14.558366199798279"><ele>379.0</ele><time>2026-05-01T14:20:57.001Z</time></trkpt><trkpt lat="48.15471775904942" lon="14.558474975274185"><ele>379.0</ele><time>2026-05-01T14:20:58.001Z</time></trkpt><trkpt lat="48.15454218353801" lon="14.558586810632574"><ele>379.0</ele><time>2026-05-01T14:20:59.001Z</time></trkpt><trkpt lat="48.15436719570069" lon="14.558698066016037"><ele>379.0</ele><time>2026-05-01T14:21:00.001Z</time></trkpt><trkpt lat="48.15419354876798" lon="14.558811546266513"><ele>378.0</ele><time>2026-05-01T14:21:01.001Z</time></trkpt><trkpt lat="48.15402143380684" lon="14.55892705752009"><ele>377.0</ele><time>2026-05-01T14:21:02.001Z</time></trkpt><trkpt lat="48.15385038769787" lon="14.55904701372029"><ele>376.0</ele><time>2026-05-01T14:21:03.001Z</time></trkpt><trkpt lat="48.15368032956182" lon="14.55916979091927"><ele>376.0</ele><time>2026-05-01T14:21:04.001Z</time></trkpt><trkpt lat="48.1535074989187" lon="14.55929656182725"><ele>376.0</ele><time>2026-05-01T14:21:05.001Z</time></trkpt><trkpt lat="48.15333330378817" lon="14.5594267759208"><ele>376.0</ele><time>2026-05-01T14:21:06.001Z</time></trkpt><trkpt lat="48.15315899695037" lon="14.559559389589733"><ele>376.3333333333333</ele><time>2026-05-01T14:21:07.001Z</time></trkpt><trkpt lat="48.15298451837083" lon="14.559695639450936"><ele>376.6666666666667</ele><time>2026-05-01T14:21:08.001Z</time></trkpt><trkpt lat="48.15281063407779" lon="14.55983902379526"><ele>377.0</ele><time>2026-05-01T14:21:09.001Z</time></trkpt><trkpt lat="48.15264033696984" lon="14.559984070491513"><ele>377.0</ele><time>2026-05-01T14:21:10.001Z</time></trkpt><trkpt lat="48.15247021986282" lon="14.560132095727042"><ele>377.0</ele><time>2026-05-01T14:21:11.001Z</time></trkpt><trkpt lat="48.15230133979443" lon="14.560284199716262"><ele>377.0</ele><time>2026-05-01T14:21:12.001Z</time></trkpt><trkpt lat="48.152133043308105" lon="14.560437934528325"><ele>379.0</ele><time>2026-05-01T14:21:13.001Z</time></trkpt><trkpt lat="48.151965286985565" lon="14.56059255367234"><ele>381.0</ele><time>2026-05-01T14:21:14.001Z</time></trkpt><trkpt lat="48.15179716591501" lon="14.560750701336106"><ele>383.0</ele><time>2026-05-01T14:21:15.001Z</time></trkpt><trkpt lat="48.15162973135834" lon="14.560911508684915"><ele>382.33333333333337</ele><time>2026-05-01T14:21:16.001Z</time></trkpt><trkpt lat="48.15146271886698" lon="14.561077872791913"><ele>381.6666666666667</ele><time>2026-05-01T14:21:17.001Z</time></trkpt><trkpt lat="48.151297100273105" lon="14.561248983649188"><ele>381.0</ele><time>2026-05-01T14:21:18.001Z</time></trkpt><trkpt lat="48.151133590576165" lon="14.561423622007625"><ele>380.3333333333333</ele><time>2026-05-01T14:21:19.001Z</time></trkpt><trkpt lat="48.150973680801975" lon="14.561598243763694"><ele>379.66666666666663</ele><time>2026-05-01T14:21:20.001Z</time></trkpt><trkpt lat="48.15082154730453" lon="14.561768123536615"><ele>379.0</ele><time>2026-05-01T14:21:21.001Z</time></trkpt><trkpt lat="48.15066619877752" lon="14.56194322812373"><ele>376.3333333333333</ele><time>2026-05-01T14:21:22.001Z</time></trkpt><trkpt lat="48.15051008559217" lon="14.56212417903312"><ele>373.6666666666667</ele><time>2026-05-01T14:21:23.001Z</time></trkpt><trkpt lat="48.15035500789437" lon="14.562310428379487"><ele>371.0</ele><time>2026-05-01T14:21:24.001Z</time></trkpt><trkpt lat="48.15019954987306" lon="14.562499517596665"><ele>371.0</ele><time>2026-05-01T14:21:25.001Z</time></trkpt><trkpt lat="48.15004541833428" lon="14.562690955448637"><ele>371.0</ele><time>2026-05-01T14:21:26.001Z</time></trkpt><trkpt lat="48.14989370392128" lon="14.562883482178579"><ele>371.0</ele><time>2026-05-01T14:21:27.001Z</time></trkpt><trkpt lat="48.149744167744885" lon="14.56307916423599"><ele>369.33333333333337</ele><time>2026-05-01T14:21:28.001Z</time></trkpt><trkpt lat="48.14959674962356" lon="14.5632773814942"><ele>367.6666666666667</ele><time>2026-05-01T14:21:29.001Z</time></trkpt><trkpt lat="48.14945043875662" lon="14.563479047521065"><ele>366.0</ele><time>2026-05-01T14:21:30.001Z</time></trkpt><trkpt lat="48.149306966323486" lon="14.56368196412411"><ele>366.3333333333333</ele><time>2026-05-01T14:21:31.001Z</time></trkpt><trkpt lat="48.149165273687636" lon="14.563888313196868"><ele>366.66666666666663</ele><time>2026-05-01T14:21:32.001Z</time></trkpt><trkpt lat="48.1490234755554" lon="14.564096174234727"><ele>367.0</ele><time>2026-05-01T14:21:33.001Z</time></trkpt><trkpt lat="48.148882760216694" lon="14.564306746635964"><ele>365.66666666666663</ele><time>2026-05-01T14:21:34.001Z</time></trkpt><trkpt lat="48.148744805579426" lon="14.56452074560706"><ele>364.3333333333333</ele><time>2026-05-01T14:21:35.001Z</time></trkpt><trkpt lat="48.148608301226886" lon="14.564736527797033"><ele>363.0</ele><time>2026-05-01T14:21:36.001Z</time></trkpt><trkpt lat="48.148473517525396" lon="14.564954821032373"><ele>363.0</ele><time>2026-05-01T14:21:37.001Z</time></trkpt><trkpt lat="48.14833894365618" lon="14.565176955872262"><ele>363.0</ele><time>2026-05-01T14:21:38.001Z</time></trkpt><trkpt lat="48.14820557472916" lon="14.565399968660813"><ele>363.0</ele><time>2026-05-01T14:21:39.001Z</time></trkpt><trkpt lat="48.148073717068925" lon="14.565624525118878"><ele>362.3333333333333</ele><time>2026-05-01T14:21:40.001Z</time></trkpt><trkpt lat="48.147943782365275" lon="14.565852000053546"><ele>361.66666666666663</ele><time>2026-05-01T14:21:41.001Z</time></trkpt><trkpt lat="48.14781648943694" lon="14.566080515758225"><ele>361.0</ele><time>2026-05-01T14:21:42.001Z</time></trkpt><trkpt lat="48.147690512697416" lon="14.566311540326662"><ele>361.0</ele><time>2026-05-01T14:21:43.001Z</time></trkpt><trkpt lat="48.147564728722465" lon="14.566546129818295"><ele>361.0</ele><time>2026-05-01T14:21:44.001Z</time></trkpt><trkpt lat="48.147440724753906" lon="14.566781612590736"><ele>361.0</ele><time>2026-05-01T14:21:45.001Z</time></trkpt><trkpt lat="48.147317633267285" lon="14.56702015454057"><ele>358.3333333333333</ele><time>2026-05-01T14:21:46.001Z</time></trkpt><trkpt lat="48.14719458917162" lon="14.567260784164448"><ele>355.6666666666667</ele><time>2026-05-01T14:21:47.001Z</time></trkpt><trkpt lat="48.14707110099968" lon="14.56750260015991"><ele>353.0</ele><time>2026-05-01T14:21:48.001Z</time></trkpt><trkpt lat="48.14694853885112" lon="14.56774594507306"><ele>355.6666666666667</ele><time>2026-05-01T14:21:49.001Z</time></trkpt><trkpt lat="48.146826526447306" lon="14.567990256966594"><ele>358.3333333333333</ele><time>2026-05-01T14:21:50.001Z</time></trkpt><trkpt lat="48.1467040113661" lon="14.56823680509658"><ele>361.0</ele><time>2026-05-01T14:21:51.001Z</time></trkpt><trkpt lat="48.14658160073839" lon="14.568482916093336"><ele>361.3333333333333</ele><time>2026-05-01T14:21:52.001Z</time></trkpt><trkpt lat="48.146459234168056" lon="14.568729724921813"><ele>361.6666666666667</ele><time>2026-05-01T14:21:53.001Z</time></trkpt><trkpt lat="48.14633632419738" lon="14.5689769420268"><ele>362.0</ele><time>2026-05-01T14:21:54.001Z</time></trkpt><trkpt lat="48.14621195482104" lon="14.569224847522538"><ele>362.0</ele><time>2026-05-01T14:21:55.001Z</time></trkpt><trkpt lat="48.1460880265191" lon="14.569472271398178"><ele>362.0</ele><time>2026-05-01T14:21:56.001Z</time></trkpt><trkpt lat="48.145965137061175" lon="14.56972013852479"><ele>362.0</ele><time>2026-05-01T14:21:57.001Z</time></trkpt><trkpt lat="48.145842228289126" lon="14.56996806724671"><ele>362.33333333333337</ele><time>2026-05-01T14:21:58.001Z</time></trkpt><trkpt lat="48.145719299396795" lon="14.570214675460928"><ele>362.6666666666667</ele><time>2026-05-01T14:21:59.001Z</time></trkpt><trkpt lat="48.14559557582004" lon="14.570460490550387"><ele>363.0</ele><time>2026-05-01T14:22:00.001Z</time></trkpt><trkpt lat="48.14547242257788" lon="14.570703739364282"><ele>361.3333333333333</ele><time>2026-05-01T14:22:01.001Z</time></trkpt><trkpt lat="48.145349414419066" lon="14.570944039265378"><ele>359.66666666666663</ele><time>2026-05-01T14:22:02.001Z</time></trkpt><trkpt lat="48.14522796919279" lon="14.571182097717786"><ele>358.0</ele><time>2026-05-01T14:22:03.001Z</time></trkpt><trkpt lat="48.14510640326084" lon="14.57141758902225"><ele>357.3333333333333</ele><time>2026-05-01T14:22:04.001Z</time></trkpt><trkpt lat="48.14498387654395" lon="14.571650037212446"><ele>356.6666666666667</ele><time>2026-05-01T14:22:05.001Z</time></trkpt><trkpt lat="48.14485943041276" lon="14.571881713505919"><ele>356.0</ele><time>2026-05-01T14:22:06.001Z</time></trkpt><trkpt lat="48.14473385035941" lon="14.572110966829234"><ele>355.33333333333337</ele><time>2026-05-01T14:22:07.001Z</time></trkpt><trkpt lat="48.14460584999075" lon="14.572340862755361"><ele>354.6666666666667</ele><time>2026-05-01T14:22:08.001Z</time></trkpt><trkpt lat="48.14447825843135" lon="14.572573606790789"><ele>354.0</ele><time>2026-05-01T14:22:09.001Z</time></trkpt><trkpt lat="48.144348485067994" lon="14.572806701263481"><ele>356.3333333333333</ele><time>2026-05-01T14:22:10.001Z</time></trkpt><trkpt lat="48.14421861297953" lon="14.573039189023818"><ele>358.66666666666663</ele><time>2026-05-01T14:22:11.001Z</time></trkpt><trkpt lat="48.14408588891087" lon="14.57327173981536"><ele>361.0</ele><time>2026-05-01T14:22:12Z</time></trkpt><trkpt lat="48.14395170396093" lon="14.573502082242598"><ele>362.3333333333333</ele><time>2026-05-01T14:22:13Z</time></trkpt><trkpt lat="48.14381701473755" lon="14.573734518863828"><ele>363.6666666666667</ele><time>2026-05-01T14:22:14Z</time></trkpt><trkpt lat="48.143683278586046" lon="14.573960472858971"><ele>365.0</ele><time>2026-05-01T14:22:15Z</time></trkpt><trkpt lat="48.14355562589696" lon="14.574171553782724"><ele>365.0</ele><time>2026-05-01T14:22:16Z</time></trkpt><trkpt lat="48.14342957945196" lon="14.574379817987229"><ele>365.0</ele><time>2026-05-01T14:22:17Z</time></trkpt><trkpt lat="48.14330215574408" lon="14.57459195690307"><ele>365.0</ele><time>2026-05-01T14:22:18Z</time></trkpt><trkpt lat="48.14317498769212" lon="14.574803729906487"><ele>365.33333333333337</ele><time>2026-05-01T14:22:19Z</time></trkpt><trkpt lat="48.143046874017415" lon="14.575015122206496"><ele>365.6666666666667</ele><time>2026-05-01T14:22:20Z</time></trkpt><trkpt lat="48.1429189744965" lon="14.575226906031304"><ele>366.0</ele><time>2026-05-01T14:22:21Z</time></trkpt><trkpt lat="48.14278839134975" lon="14.575436612774306"><ele>366.6666666666667</ele><time>2026-05-01T14:22:22Z</time></trkpt><trkpt lat="48.14265483079306" lon="14.575641432974347"><ele>367.33333333333337</ele><time>2026-05-01T14:22:23Z</time></trkpt><trkpt lat="48.14251953479599" lon="14.575846660803938"><ele>368.0</ele><time>2026-05-01T14:22:24Z</time></trkpt><trkpt lat="48.14238326316966" lon="14.57605261759443"><ele>368.33333333333337</ele><time>2026-05-01T14:22:25Z</time></trkpt><trkpt lat="48.14224629172474" lon="14.57625851049198"><ele>368.6666666666667</ele><time>2026-05-01T14:22:26Z</time></trkpt><trkpt lat="48.14210855294098" lon="14.576464393645885"><ele>369.0</ele><time>2026-05-01T14:22:27Z</time></trkpt><trkpt lat="48.14197053261681" lon="14.576669789887692"><ele>369.0</ele><time>2026-05-01T14:22:28Z</time></trkpt><trkpt lat="48.14183055935901" lon="14.576873246403746"><ele>369.0</ele><time>2026-05-01T14:22:29Z</time></trkpt><trkpt lat="48.141690809101746" lon="14.57707362521033"><ele>369.0</ele><time>2026-05-01T14:22:30Z</time></trkpt><trkpt lat="48.14155274770009" lon="14.577270874803935"><ele>368.0</ele><time>2026-05-01T14:22:31Z</time></trkpt><trkpt lat="48.14141536848356" lon="14.57746519204195"><ele>367.0</ele><time>2026-05-01T14:22:32Z</time></trkpt><trkpt lat="48.141276384324385" lon="14.577656178936001"><ele>366.0</ele><time>2026-05-01T14:22:33Z</time></trkpt><trkpt lat="48.141137205122305" lon="14.577848820163025"><ele>365.3333333333333</ele><time>2026-05-01T14:22:34Z</time></trkpt><trkpt lat="48.14099651368871" lon="14.578043491705246"><ele>364.66666666666663</ele><time>2026-05-01T14:22:35Z</time></trkpt><trkpt lat="48.14085411278304" lon="14.578237527453872"><ele>364.0</ele><time>2026-05-01T14:22:36Z</time></trkpt><trkpt lat="48.14071094125285" lon="14.57842902566865"><ele>363.3333333333333</ele><time>2026-05-01T14:22:37Z</time></trkpt><trkpt lat="48.14056726713634" lon="14.578621256875401"><ele>362.6666666666667</ele><time>2026-05-01T14:22:38Z</time></trkpt><trkpt lat="48.14042167103224" lon="14.578812124045243"><ele>362.0</ele><time>2026-05-01T14:22:39Z</time></trkpt><trkpt lat="48.140275208387244" lon="14.579002662416672"><ele>364.0</ele><time>2026-05-01T14:22:40Z</time></trkpt><trkpt lat="48.1401277387861" lon="14.579192557447623"><ele>366.0</ele><time>2026-05-01T14:22:41Z</time></trkpt><trkpt lat="48.13997886076317" lon="14.579380338746933"><ele>368.0</ele><time>2026-05-01T14:22:42Z</time></trkpt><trkpt lat="48.139827775720754" lon="14.579566609560032"><ele>369.33333333333337</ele><time>2026-05-01T14:22:43Z</time></trkpt><trkpt lat="48.13967596170686" lon="14.579754615383463"><ele>370.6666666666667</ele><time>2026-05-01T14:22:44Z</time></trkpt><trkpt lat="48.13952406644051" lon="14.579941465068856"><ele>372.0</ele><time>2026-05-01T14:22:45Z</time></trkpt><trkpt lat="48.1393693707697" lon="14.58012702205143"><ele>372.0</ele><time>2026-05-01T14:22:46.001Z</time></trkpt><trkpt lat="48.139214048227444" lon="14.580313888381735"><ele>372.0</ele><time>2026-05-01T14:22:47.001Z</time></trkpt><trkpt lat="48.13905795824659" lon="14.580498801424813"><ele>372.0</ele><time>2026-05-01T14:22:48.001Z</time></trkpt><trkpt lat="48.138901229881164" lon="14.580681924588408"><ele>371.6666666666667</ele><time>2026-05-01T14:22:49.001Z</time></trkpt><trkpt lat="48.13874447618392" lon="14.580864654947476"><ele>371.33333333333337</ele><time>2026-05-01T14:22:50.001Z</time></trkpt><trkpt lat="48.138588602043086" lon="14.581046421834927"><ele>371.0</ele><time>2026-05-01T14:22:51.001Z</time></trkpt><trkpt lat="48.138432557241906" lon="14.581229535336279"><ele>371.6666666666667</ele><time>2026-05-01T14:22:52.001Z</time></trkpt><trkpt lat="48.13827659059887" lon="14.581410184969359"><ele>372.3333333333333</ele><time>2026-05-01T14:22:53.001Z</time></trkpt><trkpt lat="48.13812058059102" lon="14.58159061686007"><ele>373.0</ele><time>2026-05-01T14:22:54.001Z</time></trkpt><trkpt lat="48.137965128741556" lon="14.58176950452602"><ele>371.66666666666663</ele><time>2026-05-01T14:22:55.001Z</time></trkpt><trkpt lat="48.137811011884814" lon="14.581947538457024"><ele>370.3333333333333</ele><time>2026-05-01T14:22:56.001Z</time></trkpt><trkpt lat="48.13765796737057" lon="14.582123452758076"><ele>369.0</ele><time>2026-05-01T14:22:57.001Z</time></trkpt><trkpt lat="48.13750573256093" lon="14.582299495704682"><ele>366.3333333333333</ele><time>2026-05-01T14:22:58.001Z</time></trkpt><trkpt lat="48.13735389638442" lon="14.582478006761708"><ele>363.66666666666663</ele><time>2026-05-01T14:22:59.001Z</time></trkpt><trkpt lat="48.13720043022278" lon="14.582658142204869"><ele>361.0</ele><time>2026-05-01T14:23:00.001Z</time></trkpt><trkpt lat="48.13704817244046" lon="14.582837793386943"><ele>363.0</ele><time>2026-05-01T14:23:01.001Z</time></trkpt><trkpt lat="48.13689605904788" lon="14.583019803365325"><ele>365.0</ele><time>2026-05-01T14:23:02.001Z</time></trkpt><trkpt lat="48.136744688236085" lon="14.583204494679208"><ele>367.0</ele><time>2026-05-01T14:23:03.001Z</time></trkpt><trkpt lat="48.13659374519819" lon="14.583389102397659"><ele>365.66666666666663</ele><time>2026-05-01T14:23:04.001Z</time></trkpt><trkpt lat="48.13644282276045" lon="14.58357372241712"><ele>364.3333333333333</ele><time>2026-05-01T14:23:05.001Z</time></trkpt><trkpt lat="48.136292908215026" lon="14.583760394745108"><ele>363.0</ele><time>2026-05-01T14:23:06.001Z</time></trkpt><trkpt lat="48.1361428031832" lon="14.583947869840738"><ele>363.0</ele><time>2026-05-01T14:23:07.001Z</time></trkpt><trkpt lat="48.13599382571748" lon="14.584137249250576"><ele>363.0</ele><time>2026-05-01T14:23:08.001Z</time></trkpt><trkpt lat="48.135846666242706" lon="14.58432959188718"><ele>363.0</ele><time>2026-05-01T14:23:09.001Z</time></trkpt><trkpt lat="48.13570100366638" lon="14.584523391649569"><ele>364.3333333333333</ele><time>2026-05-01T14:23:10.001Z</time></trkpt><trkpt lat="48.13555798582348" lon="14.584720763484386"><ele>365.66666666666663</ele><time>2026-05-01T14:23:11.001Z</time></trkpt><trkpt lat="48.135415272315484" lon="14.584919399015403"><ele>367.0</ele><time>2026-05-01T14:23:12.001Z</time></trkpt><trkpt lat="48.135273906392484" lon="14.585119799623913"><ele>367.0</ele><time>2026-05-01T14:23:13.001Z</time></trkpt><trkpt lat="48.135133225067754" lon="14.585323333294639"><ele>367.0</ele><time>2026-05-01T14:23:14.001Z</time></trkpt><trkpt lat="48.134992662487086" lon="14.58552864298511"><ele>367.0</ele><time>2026-05-01T14:23:15.001Z</time></trkpt><trkpt lat="48.134853134502436" lon="14.585736529371909"><ele>367.66666666666663</ele><time>2026-05-01T14:23:16.001Z</time></trkpt><trkpt lat="48.1347162859465" lon="14.585948576723021"><ele>368.3333333333333</ele><time>2026-05-01T14:23:17.001Z</time></trkpt><trkpt lat="48.134582852733" lon="14.586164245812558"><ele>369.0</ele><time>2026-05-01T14:23:18.001Z</time></trkpt><trkpt lat="48.13445035970358" lon="14.586382095838912"><ele>369.0</ele><time>2026-05-01T14:23:19.001Z</time></trkpt><trkpt lat="48.13431824473481" lon="14.586603132774105"><ele>369.0</ele><time>2026-05-01T14:23:20.001Z</time></trkpt><trkpt lat="48.134190935371116" lon="14.586825459528686"><ele>369.0</ele><time>2026-05-01T14:23:21.001Z</time></trkpt><trkpt lat="48.13406992659233" lon="14.587040210618204"><ele>373.3333333333333</ele><time>2026-05-01T14:23:22.001Z</time></trkpt><trkpt lat="48.13394987815164" lon="14.587264068430583"><ele>377.66666666666663</ele><time>2026-05-01T14:23:23.001Z</time></trkpt><trkpt lat="48.1338299536305" lon="14.587492960233156"><ele>382.0</ele><time>2026-05-01T14:23:24.001Z</time></trkpt><trkpt lat="48.1337083679475" lon="14.587723977709704"><ele>380.66666666666663</ele><time>2026-05-01T14:23:25.001Z</time></trkpt><trkpt lat="48.13358906156918" lon="14.58795984648296"><ele>379.3333333333333</ele><time>2026-05-01T14:23:26.001Z</time></trkpt><trkpt lat="48.133473092486156" lon="14.588198079038204"><ele>378.0</ele><time>2026-05-01T14:23:27.001Z</time></trkpt><trkpt lat="48.13336040415847" lon="14.588437777669919"><ele>377.0</ele><time>2026-05-01T14:23:28.001Z</time></trkpt><trkpt lat="48.13325092691039" lon="14.588678993906132"><ele>376.0</ele><time>2026-05-01T14:23:29.001Z</time></trkpt><trkpt lat="48.13314457464528" lon="14.588922747661286"><ele>375.0</ele><time>2026-05-01T14:23:30.001Z</time></trkpt><trkpt lat="48.13304093451958" lon="14.589167885781963"><ele>378.0</ele><time>2026-05-01T14:23:31.001Z</time></trkpt><trkpt lat="48.132938878048854" lon="14.589413377856651"><ele>381.0</ele><time>2026-05-01T14:23:32.001Z</time></trkpt><trkpt lat="48.13283950303059" lon="14.589662163030775"><ele>384.0</ele><time>2026-05-01T14:23:33.001Z</time></trkpt><trkpt lat="48.13274128216908" lon="14.589913111389276"><ele>384.0</ele><time>2026-05-01T14:23:34.001Z</time></trkpt><trkpt lat="48.13264709433013" lon="14.59016992672755"><ele>384.0</ele><time>2026-05-01T14:23:35.001Z</time></trkpt><trkpt lat="48.132554218144676" lon="14.5904283488102"><ele>384.0</ele><time>2026-05-01T14:23:36.001Z</time></trkpt><trkpt lat="48.13246493916922" lon="14.590686356597752"><ele>384.0</ele><time>2026-05-01T14:23:37.001Z</time></trkpt><trkpt lat="48.132377296585304" lon="14.59094535179559"><ele>384.0</ele><time>2026-05-01T14:23:38.001Z</time></trkpt><trkpt lat="48.13229287983146" lon="14.591205542389716"><ele>384.0</ele><time>2026-05-01T14:23:39.001Z</time></trkpt><trkpt lat="48.132211279094314" lon="14.591466816424415"><ele>383.0</ele><time>2026-05-01T14:23:40.001Z</time></trkpt><trkpt lat="48.13213294426901" lon="14.591729497920474"><ele>382.0</ele><time>2026-05-01T14:23:41.001Z</time></trkpt><trkpt lat="48.13205722010042" lon="14.59199115198958"><ele>381.0</ele><time>2026-05-01T14:23:42.001Z</time></trkpt><trkpt lat="48.13198376016404" lon="14.592252576238389"><ele>379.3333333333333</ele><time>2026-05-01T14:23:43.001Z</time></trkpt><trkpt lat="48.13191410065672" lon="14.592516091443779"><ele>377.66666666666663</ele><time>2026-05-01T14:23:44.001Z</time></trkpt><trkpt lat="48.13184515885618" lon="14.592779427858881"><ele>376.0</ele><time>2026-05-01T14:23:45.001Z</time></trkpt><trkpt lat="48.13177840995791" lon="14.593043723393752"><ele>374.0</ele><time>2026-05-01T14:23:46.001Z</time></trkpt><trkpt lat="48.13171375236923" lon="14.593310487975698"><ele>372.0</ele><time>2026-05-01T14:23:47.001Z</time></trkpt><trkpt lat="48.13165260960607" lon="14.593578093186746"><ele>370.0</ele><time>2026-05-01T14:23:48.001Z</time></trkpt><trkpt lat="48.13159236219628" lon="14.593851569711896"><ele>370.0</ele><time>2026-05-01T14:23:49.001Z</time></trkpt><trkpt lat="48.13153475270474" lon="14.594128671012408"><ele>370.0</ele><time>2026-05-01T14:23:50.001Z</time></trkpt><trkpt lat="48.13147721538796" lon="14.594407193226644"><ele>370.0</ele><time>2026-05-01T14:23:51.001Z</time></trkpt><trkpt lat="48.131419301498276" lon="14.594688047046287"><ele>368.3333333333333</ele><time>2026-05-01T14:23:52.001Z</time></trkpt><trkpt lat="48.131362846242226" lon="14.594971975899718"><ele>366.6666666666667</ele><time>2026-05-01T14:23:53.001Z</time></trkpt><trkpt lat="48.13130764720381" lon="14.595258104897363"><ele>365.0</ele><time>2026-05-01T14:23:54.001Z</time></trkpt><trkpt lat="48.13125520601479" lon="14.595546489914643"><ele>364.33333333333337</ele><time>2026-05-01T14:23:55.001Z</time></trkpt><trkpt lat="48.13120288519275" lon="14.595834147662577"><ele>363.6666666666667</ele><time>2026-05-01T14:23:56.001Z</time></trkpt><trkpt lat="48.13115195520979" lon="14.596122379054602"><ele>363.0</ele><time>2026-05-01T14:23:57.001Z</time></trkpt><trkpt lat="48.131099709147215" lon="14.596409408893805"><ele>363.0</ele><time>2026-05-01T14:23:58.001Z</time></trkpt><trkpt lat="48.1310483156205" lon="14.596696844707987"><ele>363.0</ele><time>2026-05-01T14:23:59.001Z</time></trkpt><trkpt lat="48.130997120699796" lon="14.5969833456721"><ele>363.0</ele><time>2026-05-01T14:24:00.001Z</time></trkpt><trkpt lat="48.13094542840552" lon="14.597267090671593"><ele>363.0</ele><time>2026-05-01T14:24:01.001Z</time></trkpt><trkpt lat="48.13089517996217" lon="14.597549211026198"><ele>363.0</ele><time>2026-05-01T14:24:02.001Z</time></trkpt><trkpt lat="48.130844674059276" lon="14.597831398694412"><ele>363.0</ele><time>2026-05-01T14:24:03.001Z</time></trkpt><trkpt lat="48.13079443237449" lon="14.598112344310964"><ele>362.6666666666667</ele><time>2026-05-01T14:24:04.001Z</time></trkpt><trkpt lat="48.13074508764217" lon="14.598393702750235"><ele>362.33333333333337</ele><time>2026-05-01T14:24:05.001Z</time></trkpt><trkpt lat="48.13069467465655" lon="14.59867617855082"><ele>362.0</ele><time>2026-05-01T14:24:06.001Z</time></trkpt><trkpt lat="48.130643415346015" lon="14.598959118592058"><ele>361.6666666666667</ele><time>2026-05-01T14:24:07.001Z</time></trkpt><trkpt lat="48.13059172955487" lon="14.599242036809336"><ele>361.3333333333333</ele><time>2026-05-01T14:24:08.001Z</time></trkpt><trkpt lat="48.13053868065748" lon="14.599525664013271"><ele>361.0</ele><time>2026-05-01T14:24:09.001Z</time></trkpt><trkpt lat="48.13048424522905" lon="14.599809982621252"><ele>361.0</ele><time>2026-05-01T14:24:10.001Z</time></trkpt><trkpt lat="48.13042880720114" lon="14.600094702878776"><ele>361.0</ele><time>2026-05-01T14:24:11.001Z</time></trkpt><trkpt lat="48.130370783178755" lon="14.600378412845366"><ele>361.0</ele><time>2026-05-01T14:24:12.001Z</time></trkpt><trkpt lat="48.13031179079318" lon="14.60066261137716"><ele>362.66666666666663</ele><time>2026-05-01T14:24:13.001Z</time></trkpt><trkpt lat="48.13025190794147" lon="14.600943019919377"><ele>364.3333333333333</ele><time>2026-05-01T14:24:14.001Z</time></trkpt><trkpt lat="48.13019127263331" lon="14.601209706037226"><ele>366.0</ele><time>2026-05-01T14:24:15.001Z</time></trkpt><trkpt lat="48.13012742436836" lon="14.601480162356271"><ele>367.0</ele><time>2026-05-01T14:24:16.001Z</time></trkpt><trkpt lat="48.13005922027009" lon="14.60175275174644"><ele>368.0</ele><time>2026-05-01T14:24:17.001Z</time></trkpt><trkpt lat="48.12998743630826" lon="14.602026231118897"><ele>369.0</ele><time>2026-05-01T14:24:18Z</time></trkpt><trkpt lat="48.129914080547145" lon="14.6023016060908"><ele>369.6666666666667</ele><time>2026-05-01T14:24:19Z</time></trkpt><trkpt lat="48.12984057154437" lon="14.602581149404266"><ele>370.33333333333337</ele><time>2026-05-01T14:24:20Z</time></trkpt><trkpt lat="48.12976606093426" lon="14.60286119975387"><ele>371.0</ele><time>2026-05-01T14:24:21Z</time></trkpt><trkpt lat="48.1296873848973" lon="14.603140570317645"><ele>371.0</ele><time>2026-05-01T14:24:22Z</time></trkpt><trkpt lat="48.12960544710012" lon="14.603416764487033"><ele>371.0</ele><time>2026-05-01T14:24:23Z</time></trkpt><trkpt lat="48.12952026008185" lon="14.60369284301273"><ele>371.0</ele><time>2026-05-01T14:24:24Z</time></trkpt><trkpt lat="48.12943095480731" lon="14.603965412850805"><ele>370.0</ele><time>2026-05-01T14:24:25Z</time></trkpt><trkpt lat="48.129339072477435" lon="14.604235612141276"><ele>369.0</ele><time>2026-05-01T14:24:26Z</time></trkpt><trkpt lat="48.12924674050955" lon="14.60450222505877"><ele>368.0</ele><time>2026-05-01T14:24:27Z</time></trkpt><trkpt lat="48.129151147258625" lon="14.604766527910135"><ele>365.33333333333337</ele><time>2026-05-01T14:24:28Z</time></trkpt><trkpt lat="48.12905363242723" lon="14.605027796363727"><ele>362.6666666666667</ele><time>2026-05-01T14:24:29Z</time></trkpt><trkpt lat="48.12895343186029" lon="14.605283689601858"><ele>360.0</ele><time>2026-05-01T14:24:30Z</time></trkpt><trkpt lat="48.12885160223612" lon="14.60553680077206"><ele>360.0</ele><time>2026-05-01T14:24:31Z</time></trkpt><trkpt lat="48.12874746919028" lon="14.605788325005696"><ele>360.0</ele><time>2026-05-01T14:24:32Z</time></trkpt><trkpt lat="48.12864277281548" lon="14.60603527404384"><ele>360.0</ele><time>2026-05-01T14:24:33Z</time></trkpt><trkpt lat="48.1285361593119" lon="14.606277394584563"><ele>361.3333333333333</ele><time>2026-05-01T14:24:34Z</time></trkpt><trkpt lat="48.12842651938858" lon="14.606518982284408"><ele>362.66666666666663</ele><time>2026-05-01T14:24:35Z</time></trkpt><trkpt lat="48.12831473842182" lon="14.60675992212129"><ele>364.0</ele><time>2026-05-01T14:24:36Z</time></trkpt><trkpt lat="48.128198415108834" lon="14.60699839773316"><ele>364.3333333333333</ele><time>2026-05-01T14:24:37Z</time></trkpt><trkpt lat="48.12808047405814" lon="14.607233092148453"><ele>364.6666666666667</ele><time>2026-05-01T14:24:38Z</time></trkpt><trkpt lat="48.12796067220707" lon="14.607466181193379"><ele>365.0</ele><time>2026-05-01T14:24:39Z</time></trkpt><trkpt lat="48.1278381654271" lon="14.607696275613039"><ele>365.0</ele><time>2026-05-01T14:24:40Z</time></trkpt><trkpt lat="48.12771387758801" lon="14.607924016588726"><ele>365.0</ele><time>2026-05-01T14:24:41Z</time></trkpt><trkpt lat="48.12758737453035" lon="14.608149351433362"><ele>365.0</ele><time>2026-05-01T14:24:42Z</time></trkpt><trkpt lat="48.127457949271935" lon="14.60837491250212"><ele>364.33333333333337</ele><time>2026-05-01T14:24:43Z</time></trkpt><trkpt lat="48.127324640484126" lon="14.608599687330708"><ele>363.6666666666667</ele><time>2026-05-01T14:24:44Z</time></trkpt><trkpt lat="48.1271888613291" lon="14.608822627534208"><ele>363.0</ele><time>2026-05-01T14:24:45Z</time></trkpt><trkpt lat="48.127050170808815" lon="14.609043058865288"><ele>363.0</ele><time>2026-05-01T14:24:46Z</time></trkpt><trkpt lat="48.1269103573761" lon="14.609260993062104"><ele>363.0</ele><time>2026-05-01T14:24:47Z</time></trkpt><trkpt lat="48.12676946226526" lon="14.60947986128529"><ele>363.0</ele><time>2026-05-01T14:24:48Z</time></trkpt><trkpt lat="48.12662762208072" lon="14.609695955554917"><ele>361.6666666666667</ele><time>2026-05-01T14:24:49Z</time></trkpt><trkpt lat="48.12648292847531" lon="14.609910202539588"><ele>360.33333333333337</ele><time>2026-05-01T14:24:50Z</time></trkpt><trkpt lat="48.12634007352288" lon="14.610119195658841"><ele>359.0</ele><time>2026-05-01T14:24:51Z</time></trkpt><trkpt lat="48.12619870557975" lon="14.610320475545144"><ele>360.0</ele><time>2026-05-01T14:24:52Z</time></trkpt><trkpt lat="48.12605779558819" lon="14.610515683573055"><ele>361.0</ele><time>2026-05-01T14:24:53Z</time></trkpt><trkpt lat="48.125919363464334" lon="14.61070792083424"><ele>362.0</ele><time>2026-05-01T14:24:54Z</time></trkpt><trkpt lat="48.12578136189847" lon="14.610899198610904"><ele>362.6666666666667</ele><time>2026-05-01T14:24:55Z</time></trkpt><trkpt lat="48.12564350363825" lon="14.611090334796303"><ele>363.3333333333333</ele><time>2026-05-01T14:24:56Z</time></trkpt><trkpt lat="48.125505004775874" lon="14.611283240059157"><ele>364.0</ele><time>2026-05-01T14:24:57.001Z</time></trkpt><trkpt lat="48.125366438717705" lon="14.611476396213456"><ele>364.0</ele><time>2026-05-01T14:24:58.001Z</time></trkpt><trkpt lat="48.125227089481896" lon="14.611672059446924"><ele>364.0</ele><time>2026-05-01T14:24:59.001Z</time></trkpt><trkpt lat="48.12508749852599" lon="14.611869689956722"><ele>364.0</ele><time>2026-05-01T14:25:00.001Z</time></trkpt><trkpt lat="48.124945981462304" lon="14.612066626000598"><ele>367.3333333333333</ele><time>2026-05-01T14:25:01.001Z</time></trkpt><trkpt lat="48.12480610926079" lon="14.612260909454866"><ele>370.6666666666667</ele><time>2026-05-01T14:25:02.001Z</time></trkpt><trkpt lat="48.12467113701437" lon="14.612445207362741"><ele>374.0</ele><time>2026-05-01T14:25:03.001Z</time></trkpt><trkpt lat="48.124533070568454" lon="14.612637049640401"><ele>372.6666666666667</ele><time>2026-05-01T14:25:04.001Z</time></trkpt><trkpt lat="48.12439281833005" lon="14.612832470098446"><ele>371.3333333333333</ele><time>2026-05-01T14:25:05.001Z</time></trkpt><trkpt lat="48.12425108753126" lon="14.613030558126331"><ele>370.0</ele><time>2026-05-01T14:25:06.001Z</time></trkpt><trkpt lat="48.1241067004692" lon="14.613229248799193"><ele>370.66666666666663</ele><time>2026-05-01T14:25:07.001Z</time></trkpt><trkpt lat="48.1239610431369" lon="14.613429692308555"><ele>371.3333333333333</ele><time>2026-05-01T14:25:08.001Z</time></trkpt><trkpt lat="48.12381534833852" lon="14.613631241131595"><ele>372.0</ele><time>2026-05-01T14:25:09.001Z</time></trkpt><trkpt lat="48.12366980506858" lon="14.613831153992686"><ele>370.3333333333333</ele><time>2026-05-01T14:25:10.001Z</time></trkpt><trkpt lat="48.12352697516615" lon="14.61402994558511"><ele>368.66666666666663</ele><time>2026-05-01T14:25:11.001Z</time></trkpt><trkpt lat="48.12338836640237" lon="14.61422988868218"><ele>367.0</ele><time>2026-05-01T14:25:12.001Z</time></trkpt><trkpt lat="48.12325305476125" lon="14.614430632813459"><ele>365.3333333333333</ele><time>2026-05-01T14:25:13.001Z</time></trkpt><trkpt lat="48.123115338260725" lon="14.614629911136804"><ele>363.6666666666667</ele><time>2026-05-01T14:25:14.001Z</time></trkpt><trkpt lat="48.12297598805649" lon="14.614831774862045"><ele>362.0</ele><time>2026-05-01T14:25:15.001Z</time></trkpt><trkpt lat="48.122833754424136" lon="14.615035790861096"><ele>362.0</ele><time>2026-05-01T14:25:16.001Z</time></trkpt><trkpt lat="48.12269023558707" lon="14.615238604940483"><ele>362.0</ele><time>2026-05-01T14:25:17.001Z</time></trkpt><trkpt lat="48.122545299239206" lon="14.615442905804723"><ele>362.0</ele><time>2026-05-01T14:25:18.001Z</time></trkpt><trkpt lat="48.12239385733858" lon="14.615653935028542"><ele>361.33333333333337</ele><time>2026-05-01T14:25:19.001Z</time></trkpt><trkpt lat="48.122237213713" lon="14.615874756660736"><ele>360.6666666666667</ele><time>2026-05-01T14:25:20.001Z</time></trkpt><trkpt lat="48.122072831901" lon="14.616102171787267"><ele>360.0</ele><time>2026-05-01T14:25:21.001Z</time></trkpt><trkpt lat="48.12190228822575" lon="14.616341523840843"><ele>360.5</ele><time>2026-05-01T14:25:22.001Z</time></trkpt><trkpt lat="48.121725196044984" lon="14.616591557185304"><ele>361.0</ele><time>2026-05-01T14:25:23.001Z</time></trkpt><trkpt lat="48.12154062339999" lon="14.616849017416904"><ele>363.5</ele><time>2026-05-01T14:25:24.001Z</time></trkpt><trkpt lat="48.12135039277765" lon="14.617116494487668"><ele>366.0</ele><time>2026-05-01T14:25:25.001Z</time></trkpt><trkpt lat="48.12115578380433" lon="14.61739355122344"><ele>366.0</ele><time>2026-05-01T14:25:26.001Z</time></trkpt><trkpt lat="48.120951362749075" lon="14.617672363378789"><ele>366.0</ele><time>2026-05-01T14:25:27.001Z</time></trkpt><trkpt lat="48.12074856131561" lon="14.617957234624885"><ele>365.0</ele><time>2026-05-01T14:25:28.001Z</time></trkpt><trkpt lat="48.120546159819064" lon="14.61823285400859"><ele>364.0</ele><time>2026-05-01T14:25:29.001Z</time></trkpt><trkpt lat="48.12034074429657" lon="14.618521585017703"><ele>366.5</ele><time>2026-05-01T14:25:30.001Z</time></trkpt><trkpt lat="48.12013014706563" lon="14.618812262024502"><ele>369.0</ele><time>2026-05-01T14:25:31.001Z</time></trkpt><trkpt lat="48.119916729837456" lon="14.619106420355239"><ele>368.5</ele><time>2026-05-01T14:25:32.001Z</time></trkpt><trkpt lat="48.11969981096126" lon="14.619403523472878"><ele>368.0</ele><time>2026-05-01T14:25:33.001Z</time></trkpt><trkpt lat="48.11947974043361" lon="14.619700294234487"><ele>368.0</ele><time>2026-05-01T14:25:34.001Z</time></trkpt><trkpt lat="48.11925943233643" lon="14.620003245831349"><ele>368.0</ele><time>2026-05-01T14:25:35.001Z</time></trkpt><trkpt lat="48.11903843242968" lon="14.620308274116114"><ele>367.0</ele><time>2026-05-01T14:25:36.001Z</time></trkpt><trkpt lat="48.1188168457315" lon="14.620616495058815"><ele>366.0</ele><time>2026-05-01T14:25:37.001Z</time></trkpt><trkpt lat="48.11859419208757" lon="14.620925861417795"><ele>368.0</ele><time>2026-05-01T14:25:38.001Z</time></trkpt><trkpt lat="48.118373478334824" lon="14.621237863414803"><ele>370.0</ele><time>2026-05-01T14:25:39.001Z</time></trkpt><trkpt lat="48.11815307204314" lon="14.621548748196027"><ele>372.0</ele><time>2026-05-01T14:25:40.001Z</time></trkpt><trkpt lat="48.117941561420835" lon="14.621872947637156"><ele>374.0</ele><time>2026-05-01T14:25:41.001Z</time></trkpt><trkpt lat="48.11773687768113" lon="14.62220283556536"><ele>376.0</ele><time>2026-05-01T14:25:42.001Z</time></trkpt><trkpt lat="48.11753432594367" lon="14.622536770401714"><ele>378.0</ele><time>2026-05-01T14:25:43.001Z</time></trkpt><trkpt lat="48.11733611653453" lon="14.622874777270594"><ele>380.5</ele><time>2026-05-01T14:25:44.001Z</time></trkpt><trkpt lat="48.11714293056453" lon="14.623216638584353"><ele>383.0</ele><time>2026-05-01T14:25:45.001Z</time></trkpt><trkpt lat="48.11695632740322" lon="14.623562794440227"><ele>383.5</ele><time>2026-05-01T14:25:46.001Z</time></trkpt><trkpt lat="48.11677967922306" lon="14.623917214594577"><ele>384.0</ele><time>2026-05-01T14:25:47.001Z</time></trkpt><trkpt lat="48.116614118470565" lon="14.624281236415095"><ele>390.5</ele><time>2026-05-01T14:25:48.001Z</time></trkpt><trkpt lat="48.1164565680117" lon="14.624654348783483"><ele>397.0</ele><time>2026-05-01T14:25:49.001Z</time></trkpt><trkpt lat="48.11630890760563" lon="14.625037712106913"><ele>395.5</ele><time>2026-05-01T14:25:50.001Z</time></trkpt><trkpt lat="48.116172900572494" lon="14.625429993081509"><ele>394.0</ele><time>2026-05-01T14:25:51.001Z</time></trkpt><trkpt lat="48.11604520922093" lon="14.625830380533152"><ele>391.0</ele><time>2026-05-01T14:25:52.001Z</time></trkpt><trkpt lat="48.115929620740566" lon="14.626240760575426"><ele>388.0</ele><time>2026-05-01T14:25:53.001Z</time></trkpt><trkpt lat="48.115825491909064" lon="14.626657330306797"><ele>387.5</ele><time>2026-05-01T14:25:54.001Z</time></trkpt><trkpt lat="48.11573382090728" lon="14.627081309065867"><ele>387.0</ele><time>2026-05-01T14:25:55.001Z</time></trkpt><trkpt lat="48.11564964204777" lon="14.627507964959877"><ele>384.0</ele><time>2026-05-01T14:25:56.001Z</time></trkpt><trkpt lat="48.115578363724104" lon="14.627939074335302"><ele>381.0</ele><time>2026-05-01T14:25:57.001Z</time></trkpt><trkpt lat="48.115522035161995" lon="14.628375222866355"><ele>378.5</ele><time>2026-05-01T14:25:58.001Z</time></trkpt><trkpt lat="48.11547710316114" lon="14.628814226277333"><ele>376.0</ele><time>2026-05-01T14:25:59.001Z</time></trkpt><trkpt lat="48.1154457809593" lon="14.629255563894977"><ele>375.5</ele><time>2026-05-01T14:26:00.001Z</time></trkpt><trkpt lat="48.11542552417934" lon="14.629696232898336"><ele>375.0</ele><time>2026-05-01T14:26:01.001Z</time></trkpt><trkpt lat="48.115415652735926" lon="14.63013717653924"><ele>377.0</ele><time>2026-05-01T14:26:02.001Z</time></trkpt><trkpt lat="48.11541717310499" lon="14.630579125373014"><ele>379.0</ele><time>2026-05-01T14:26:03.001Z</time></trkpt><trkpt lat="48.115431065242376" lon="14.631019405996224"><ele>381.0</ele><time>2026-05-01T14:26:04.001Z</time></trkpt><trkpt lat="48.11545851228438" lon="14.631461578845355"><ele>383.0</ele><time>2026-05-01T14:26:05.001Z</time></trkpt><trkpt lat="48.11549779098449" lon="14.631901603321612"><ele>383.5</ele><time>2026-05-01T14:26:06.001Z</time></trkpt><trkpt lat="48.11555009887434" lon="14.632339571875983"><ele>384.0</ele><time>2026-05-01T14:26:07.001Z</time></trkpt><trkpt lat="48.11561446924688" lon="14.632774249914844"><ele>385.0</ele><time>2026-05-01T14:26:08.001Z</time></trkpt><trkpt lat="48.11568538770704" lon="14.6332087832526"><ele>386.0</ele><time>2026-05-01T14:26:09.001Z</time></trkpt><trkpt lat="48.11576704676141" lon="14.633639062420285"><ele>386.5</ele><time>2026-05-01T14:26:10.001Z</time></trkpt><trkpt lat="48.11585668683372" lon="14.634063224448061"><ele>387.0</ele><time>2026-05-01T14:26:11.001Z</time></trkpt><trkpt lat="48.11595225903528" lon="14.634479067744898"><ele>387.0</ele><time>2026-05-01T14:26:12.001Z</time></trkpt><trkpt lat="48.116053860459076" lon="14.634886883669127"><ele>387.0</ele><time>2026-05-01T14:26:13.001Z</time></trkpt><trkpt lat="48.11616196255822" lon="14.635288597572778"><ele>387.0</ele><time>2026-05-01T14:26:14.001Z</time></trkpt><trkpt lat="48.1162760003688" lon="14.635678992594585"><ele>387.0</ele><time>2026-05-01T14:26:15.001Z</time></trkpt><trkpt lat="48.116391359583105" lon="14.636064405692625"><ele>386.5</ele><time>2026-05-01T14:26:16.001Z</time></trkpt><trkpt lat="48.11650988825883" lon="14.636450100501863"><ele>386.0</ele><time>2026-05-01T14:26:17.001Z</time></trkpt><trkpt lat="48.11663440019263" lon="14.63683471525035"><ele>384.0</ele><time>2026-05-01T14:26:18.001Z</time></trkpt><trkpt lat="48.11676402413438" lon="14.637216662042595"><ele>382.0</ele><time>2026-05-01T14:26:19.001Z</time></trkpt><trkpt lat="48.11689666223491" lon="14.637597508165507"><ele>381.0</ele><time>2026-05-01T14:26:20.001Z</time></trkpt><trkpt lat="48.11702888670408" lon="14.637980796498196"><ele>380.0</ele><time>2026-05-01T14:26:21.001Z</time></trkpt><trkpt lat="48.117156728320566" lon="14.638369359909017"><ele>379.0</ele><time>2026-05-01T14:26:22.001Z</time></trkpt><trkpt lat="48.117278232951975" lon="14.63876354864557"><ele>378.0</ele><time>2026-05-01T14:26:23.001Z</time></trkpt><trkpt lat="48.11739911313157" lon="14.639162609455223"><ele>382.5</ele><time>2026-05-01T14:26:24Z</time></trkpt><trkpt lat="48.11752152679594" lon="14.639565369234031"><ele>387.0</ele><time>2026-05-01T14:26:25Z</time></trkpt><trkpt lat="48.11764440933428" lon="14.639971168324669"><ele>388.0</ele><time>2026-05-01T14:26:26Z</time></trkpt><trkpt lat="48.11776140746838" lon="14.640378131212984"><ele>389.0</ele><time>2026-05-01T14:26:27Z</time></trkpt><trkpt lat="48.117866252234954" lon="14.640770994877068"><ele>388.5</ele><time>2026-05-01T14:26:28Z</time></trkpt><trkpt lat="48.1179683277283" lon="14.641174676866994"><ele>388.0</ele><time>2026-05-01T14:26:29Z</time></trkpt><trkpt lat="48.11806811036802" lon="14.641591939901605"><ele>387.5</ele><time>2026-05-01T14:26:30Z</time></trkpt><trkpt lat="48.118163400290946" lon="14.642018992018256"><ele>387.0</ele><time>2026-05-01T14:26:31Z</time></trkpt><trkpt lat="48.118250397431936" lon="14.642454877245038"><ele>382.0</ele><time>2026-05-01T14:26:32Z</time></trkpt><trkpt lat="48.118330897877655" lon="14.642896793644839"><ele>377.0</ele><time>2026-05-01T14:26:33Z</time></trkpt><trkpt lat="48.118402629063525" lon="14.643341229169922"><ele>375.5</ele><time>2026-05-01T14:26:34Z</time></trkpt><trkpt lat="48.11846543185141" lon="14.643783561568355"><ele>374.0</ele><time>2026-05-01T14:26:35Z</time></trkpt><trkpt lat="48.11851589725669" lon="14.644224077255066"><ele>373.5</ele><time>2026-05-01T14:26:36Z</time></trkpt><trkpt lat="48.11855203740029" lon="14.644658205383118"><ele>373.0</ele><time>2026-05-01T14:26:37Z</time></trkpt><trkpt lat="48.11857825123819" lon="14.645092049170396"><ele>371.5</ele><time>2026-05-01T14:26:38Z</time></trkpt><trkpt lat="48.11859317429988" lon="14.645531731512106"><ele>370.0</ele><time>2026-05-01T14:26:39Z</time></trkpt><trkpt lat="48.11859980793518" lon="14.645973768203339"><ele>369.5</ele><time>2026-05-01T14:26:40Z</time></trkpt><trkpt lat="48.11859528730868" lon="14.646417770402849"><ele>369.0</ele><time>2026-05-01T14:26:41Z</time></trkpt><trkpt lat="48.11858051486019" lon="14.646859126118288"><ele>369.0</ele><time>2026-05-01T14:26:42Z</time></trkpt><trkpt lat="48.11855623188073" lon="14.647300549614778"><ele>369.0</ele><time>2026-05-01T14:26:43Z</time></trkpt><trkpt lat="48.11852058461763" lon="14.64774485968192"><ele>370.5</ele><time>2026-05-01T14:26:44Z</time></trkpt><trkpt lat="48.11847868827217" lon="14.64819002145102"><ele>372.0</ele><time>2026-05-01T14:26:45Z</time></trkpt><trkpt lat="48.11842868909162" lon="14.648637105303541"><ele>373.5</ele><time>2026-05-01T14:26:46Z</time></trkpt><trkpt lat="48.11836690736059" lon="14.649079657906071"><ele>375.0</ele><time>2026-05-01T14:26:47Z</time></trkpt><trkpt lat="48.118289960713305" lon="14.649513641139603"><ele>373.0</ele><time>2026-05-01T14:26:48Z</time></trkpt><trkpt lat="48.11820057825472" lon="14.649941636449624"><ele>371.0</ele><time>2026-05-01T14:26:49Z</time></trkpt><trkpt lat="48.11810000658545" lon="14.650368246516756"><ele>371.0</ele><time>2026-05-01T14:26:50Z</time></trkpt><trkpt lat="48.117995492713035" lon="14.65079677304203"><ele>371.0</ele><time>2026-05-01T14:26:51Z</time></trkpt><trkpt lat="48.11789250892288" lon="14.651225914727869"><ele>371.5</ele><time>2026-05-01T14:26:52Z</time></trkpt><trkpt lat="48.11778867466313" lon="14.651651458968566"><ele>372.0</ele><time>2026-05-01T14:26:53Z</time></trkpt><trkpt lat="48.11768009461876" lon="14.652071416854165"><ele>373.0</ele><time>2026-05-01T14:26:54Z</time></trkpt><trkpt lat="48.11756818931532" lon="14.652488294986478"><ele>374.0</ele><time>2026-05-01T14:26:55Z</time></trkpt><trkpt lat="48.117455232437436" lon="14.652907866665482"><ele>374.0</ele><time>2026-05-01T14:26:56Z</time></trkpt><trkpt lat="48.11734230216709" lon="14.653327228604878"><ele>374.0</ele><time>2026-05-01T14:26:57Z</time></trkpt><trkpt lat="48.117226448505264" lon="14.653745547675598"><ele>374.0</ele><time>2026-05-01T14:26:58Z</time></trkpt><trkpt lat="48.1171109535279" lon="14.654160773462207"><ele>374.0</ele><time>2026-05-01T14:26:59Z</time></trkpt><trkpt lat="48.11699635350225" lon="14.654572296500783"><ele>375.5</ele><time>2026-05-01T14:27:00Z</time></trkpt><trkpt lat="48.11688198261784" lon="14.65498014067647"><ele>377.0</ele><time>2026-05-01T14:27:01Z</time></trkpt><trkpt lat="48.1167662166885" lon="14.655382165831588"><ele>378.0</ele><time>2026-05-01T14:27:02Z</time></trkpt><trkpt lat="48.116649076379986" lon="14.655783498558753"><ele>379.0</ele><time>2026-05-01T14:27:03Z</time></trkpt><trkpt lat="48.116531117069755" lon="14.656187762865232"><ele>381.0</ele><time>2026-05-01T14:27:04Z</time></trkpt><trkpt lat="48.11641753627909" lon="14.656593300997306"><ele>383.0</ele><time>2026-05-01T14:27:05Z</time></trkpt><trkpt lat="48.11630821236535" lon="14.656997831717677"><ele>384.0</ele><time>2026-05-01T14:27:06Z</time></trkpt><trkpt lat="48.116201606488" lon="14.657398743998352"><ele>385.0</ele><time>2026-05-01T14:27:07Z</time></trkpt><trkpt lat="48.11609522750739" lon="14.657798492817243"><ele>385.0</ele><time>2026-05-01T14:27:08Z</time></trkpt><trkpt lat="48.11598780691301" lon="14.65820154664206"><ele>385.0</ele><time>2026-05-01T14:27:09Z</time></trkpt><trkpt lat="48.11588373626193" lon="14.658606957722538"><ele>384.5</ele><time>2026-05-01T14:27:10Z</time></trkpt><trkpt lat="48.11578313332259" lon="14.659018001205038"><ele>384.0</ele><time>2026-05-01T14:27:11.001Z</time></trkpt><trkpt lat="48.11568277839366" lon="14.659428015670755"><ele>381.0</ele><time>2026-05-01T14:27:12.001Z</time></trkpt><trkpt lat="48.115579853810196" lon="14.659833436344265"><ele>378.0</ele><time>2026-05-01T14:27:13.001Z</time></trkpt><trkpt lat="48.11547431954205" lon="14.660237388309382"><ele>378.0</ele><time>2026-05-01T14:27:14.001Z</time></trkpt><trkpt lat="48.11536627767884" lon="14.66064308195189"><ele>378.0</ele><time>2026-05-01T14:27:15.001Z</time></trkpt><trkpt lat="48.11525777728347" lon="14.661049615022684"><ele>379.5</ele><time>2026-05-01T14:27:16.001Z</time></trkpt><trkpt lat="48.11515121622833" lon="14.66145862451317"><ele>381.0</ele><time>2026-05-01T14:27:17.001Z</time></trkpt><trkpt lat="48.115047460392134" lon="14.661868833564585"><ele>382.0</ele><time>2026-05-01T14:27:18.001Z</time></trkpt><trkpt lat="48.11494444335931" lon="14.662277951701595"><ele>383.0</ele><time>2026-05-01T14:27:19.001Z</time></trkpt><trkpt lat="48.114842845617176" lon="14.662686872376922"><ele>384.5</ele><time>2026-05-01T14:27:20.001Z</time></trkpt><trkpt lat="48.11474083543379" lon="14.66309204540346"><ele>386.0</ele><time>2026-05-01T14:27:21.001Z</time></trkpt><trkpt lat="48.114640430578255" lon="14.663492271702266"><ele>386.5</ele><time>2026-05-01T14:27:22.001Z</time></trkpt><trkpt lat="48.114540840847845" lon="14.663887626515672"><ele>387.0</ele><time>2026-05-01T14:27:23.001Z</time></trkpt><trkpt lat="48.11444439445872" lon="14.664278543704636"><ele>386.5</ele><time>2026-05-01T14:27:24.001Z</time></trkpt><trkpt lat="48.11435162953824" lon="14.664661480215688"><ele>386.0</ele><time>2026-05-01T14:27:25.001Z</time></trkpt><trkpt lat="48.114260860325274" lon="14.665041858908166"><ele>385.5</ele><time>2026-05-01T14:27:26.001Z</time></trkpt><trkpt lat="48.114174720214166" lon="14.665429716112985"><ele>385.0</ele><time>2026-05-01T14:27:27.001Z</time></trkpt><trkpt lat="48.11408834518366" lon="14.665821357669076"><ele>383.0</ele><time>2026-05-01T14:27:28.001Z</time></trkpt><trkpt lat="48.11400008752215" lon="14.666213348236496"><ele>381.0</ele><time>2026-05-01T14:27:29.001Z</time></trkpt><trkpt lat="48.113912562202394" lon="14.66660974719841"><ele>379.5</ele><time>2026-05-01T14:27:30.001Z</time></trkpt><trkpt lat="48.11382476351274" lon="14.667010391798263"><ele>378.0</ele><time>2026-05-01T14:27:31.001Z</time></trkpt><trkpt lat="48.113737387421814" lon="14.667419460854958"><ele>377.5</ele><time>2026-05-01T14:27:32.001Z</time></trkpt><trkpt lat="48.113651324337965" lon="14.667833075509419"><ele>377.0</ele><time>2026-05-01T14:27:33.001Z</time></trkpt><trkpt lat="48.11356429155481" lon="14.668248591892963"><ele>376.5</ele><time>2026-05-01T14:27:34.001Z</time></trkpt><trkpt lat="48.11348050045856" lon="14.66866765534571"><ele>376.0</ele><time>2026-05-01T14:27:35.001Z</time></trkpt><trkpt lat="48.11339886495622" lon="14.669088834981654"><ele>375.0</ele><time>2026-05-01T14:27:36.001Z</time></trkpt><trkpt lat="48.113319756517825" lon="14.669510844762229"><ele>374.0</ele><time>2026-05-01T14:27:37.001Z</time></trkpt><trkpt lat="48.11324332336614" lon="14.669931844078686"><ele>372.0</ele><time>2026-05-01T14:27:38.001Z</time></trkpt><trkpt lat="48.11316710068278" lon="14.670350016191746"><ele>370.0</ele><time>2026-05-01T14:27:39.001Z</time></trkpt><trkpt lat="48.11309188758402" lon="14.67076491562892"><ele>370.0</ele><time>2026-05-01T14:27:40.001Z</time></trkpt><trkpt lat="48.11301919327517" lon="14.67117875460406"><ele>370.0</ele><time>2026-05-01T14:27:41.001Z</time></trkpt><trkpt lat="48.11294988361931" lon="14.67159348544967"><ele>368.0</ele><time>2026-05-01T14:27:42.001Z</time></trkpt><trkpt lat="48.11288237180239" lon="14.672014238191638"><ele>366.0</ele><time>2026-05-01T14:27:43.001Z</time></trkpt><trkpt lat="48.11281710534257" lon="14.672437047672643"><ele>366.0</ele><time>2026-05-01T14:27:44.001Z</time></trkpt><trkpt lat="48.11275301182155" lon="14.67285954405135"><ele>366.0</ele><time>2026-05-01T14:27:45.001Z</time></trkpt><trkpt lat="48.11268950536461" lon="14.673283819885324"><ele>366.5</ele><time>2026-05-01T14:27:46.001Z</time></trkpt><trkpt lat="48.112627682645766" lon="14.673710946269727"><ele>367.0</ele><time>2026-05-01T14:27:47.001Z</time></trkpt><trkpt lat="48.112569575426086" lon="14.674141072871565"><ele>369.5</ele><time>2026-05-01T14:27:48.001Z</time></trkpt><trkpt lat="48.11251447243891" lon="14.674573137299282"><ele>372.0</ele><time>2026-05-01T14:27:49.001Z</time></trkpt><trkpt lat="48.112460723797746" lon="14.675006373004527"><ele>373.0</ele><time>2026-05-01T14:27:50.001Z</time></trkpt><trkpt lat="48.112410980540666" lon="14.675441421285672"><ele>374.0</ele><time>2026-05-01T14:27:51.001Z</time></trkpt><trkpt lat="48.11236282252627" lon="14.675875379211742"><ele>371.0</ele><time>2026-05-01T14:27:52.001Z</time></trkpt><trkpt lat="48.11231813875604" lon="14.676309840059954"><ele>368.0</ele><time>2026-05-01T14:27:53.001Z</time></trkpt><trkpt lat="48.11227492262714" lon="14.676743811805053"><ele>368.0</ele><time>2026-05-01T14:27:54.001Z</time></trkpt><trkpt lat="48.11223459329837" lon="14.677176527256208"><ele>368.0</ele><time>2026-05-01T14:27:55.001Z</time></trkpt><trkpt lat="48.11219796112249" lon="14.677607606441148"><ele>368.5</ele><time>2026-05-01T14:27:56.001Z</time></trkpt><trkpt lat="48.11216290095129" lon="14.678039195847342"><ele>369.0</ele><time>2026-05-01T14:27:57.001Z</time></trkpt><trkpt lat="48.11213123107452" lon="14.678472043029721"><ele>369.0</ele><time>2026-05-01T14:27:58.001Z</time></trkpt><trkpt lat="48.11210217568603" lon="14.678906589749387"><ele>369.0</ele><time>2026-05-01T14:27:59.001Z</time></trkpt><trkpt lat="48.11207552893831" lon="14.679342832558364"><ele>367.0</ele><time>2026-05-01T14:28:00.001Z</time></trkpt><trkpt lat="48.11205143292771" lon="14.679780038288282"><ele>365.0</ele><time>2026-05-01T14:28:01.001Z</time></trkpt><trkpt lat="48.112023564768904" lon="14.68021822453714"><ele>364.0</ele><time>2026-05-01T14:28:02.001Z</time></trkpt><trkpt lat="48.11199894991299" lon="14.680657078279916"><ele>363.0</ele><time>2026-05-01T14:28:03.001Z</time></trkpt><trkpt lat="48.111975002106284" lon="14.681098532246953"><ele>363.5</ele><time>2026-05-01T14:28:04.001Z</time></trkpt><trkpt lat="48.111954605763174" lon="14.68154328923817"><ele>364.0</ele><time>2026-05-01T14:28:05.001Z</time></trkpt><trkpt lat="48.11194202885966" lon="14.681990581400042"><ele>365.0</ele><time>2026-05-01T14:28:06.001Z</time></trkpt><trkpt lat="48.111936099231556" lon="14.68244173370497"><ele>366.0</ele><time>2026-05-01T14:28:07.001Z</time></trkpt><trkpt lat="48.111934408382155" lon="14.68289640393389"><ele>367.0</ele><time>2026-05-01T14:28:08.001Z</time></trkpt><trkpt lat="48.111935877714224" lon="14.683351395587728"><ele>368.0</ele><time>2026-05-01T14:28:09.001Z</time></trkpt><trkpt lat="48.111938357386904" lon="14.683795981998834"><ele>368.5</ele><time>2026-05-01T14:28:10.001Z</time></trkpt><trkpt lat="48.11194209727473" lon="14.684228623698221"><ele>369.0</ele><time>2026-05-01T14:28:11.001Z</time></trkpt><trkpt lat="48.11194761998102" lon="14.68467956228059"><ele>369.0</ele><time>2026-05-01T14:28:12.001Z</time></trkpt><trkpt lat="48.111956446808705" lon="14.685134224492344"><ele>369.0</ele><time>2026-05-01T14:28:13.001Z</time></trkpt><trkpt lat="48.111968853184685" lon="14.685589736090378"><ele>369.5</ele><time>2026-05-01T14:28:14.001Z</time></trkpt><trkpt lat="48.11198306696393" lon="14.686043019096532"><ele>370.0</ele><time>2026-05-01T14:28:15.001Z</time></trkpt><trkpt lat="48.1119992844512" lon="14.686495102610913"><ele>370.5</ele><time>2026-05-01T14:28:16.001Z</time></trkpt><trkpt lat="48.11201843263462" lon="14.68694519098999"><ele>371.0</ele><time>2026-05-01T14:28:17.001Z</time></trkpt><trkpt lat="48.112041375596995" lon="14.687394167966797"><ele>371.5</ele><time>2026-05-01T14:28:18.001Z</time></trkpt><trkpt lat="48.11206819290732" lon="14.687839510218467"><ele>372.0</ele><time>2026-05-01T14:28:19.001Z</time></trkpt><trkpt lat="48.11209900051488" lon="14.688280082671147"><ele>373.5</ele><time>2026-05-01T14:28:20.001Z</time></trkpt><trkpt lat="48.112135837552216" lon="14.688716876373569"><ele>375.0</ele><time>2026-05-01T14:28:21.001Z</time></trkpt><trkpt lat="48.112172821413985" lon="14.689152324830369"><ele>377.0</ele><time>2026-05-01T14:28:22.001Z</time></trkpt><trkpt lat="48.11220872596322" lon="14.689589434003787"><ele>379.0</ele><time>2026-05-01T14:28:23.001Z</time></trkpt><trkpt lat="48.1122460100241" lon="14.690025973618571"><ele>382.5</ele><time>2026-05-01T14:28:24.001Z</time></trkpt><trkpt lat="48.112287176282294" lon="14.690462469211704"><ele>386.0</ele><time>2026-05-01T14:28:25.001Z</time></trkpt><trkpt lat="48.11233098800285" lon="14.690898430787904"><ele>388.5</ele><time>2026-05-01T14:28:26.001Z</time></trkpt><trkpt lat="48.1123789531943" lon="14.691332962457336"><ele>391.0</ele><time>2026-05-01T14:28:27.001Z</time></trkpt><trkpt lat="48.11243149993383" lon="14.691767610160868"><ele>393.0</ele><time>2026-05-01T14:28:28.001Z</time></trkpt><trkpt lat="48.11248650509931" lon="14.692201678455447"><ele>395.0</ele><time>2026-05-01T14:28:29.001Z</time></trkpt><trkpt lat="48.112545937048004" lon="14.692636187688969"><ele>394.0</ele><time>2026-05-01T14:28:30Z</time></trkpt><trkpt lat="48.112606833305435" lon="14.693071005307385"><ele>393.0</ele><time>2026-05-01T14:28:31Z</time></trkpt><trkpt lat="48.112669117440454" lon="14.693506748722044"><ele>392.5</ele><time>2026-05-01T14:28:32Z</time></trkpt><trkpt lat="48.11273578898642" lon="14.693943232853607"><ele>392.0</ele><time>2026-05-01T14:28:33Z</time></trkpt><trkpt lat="48.11280613406053" lon="14.694379898114134"><ele>391.5</ele><time>2026-05-01T14:28:34Z</time></trkpt><trkpt lat="48.11287696498334" lon="14.69481653639299"><ele>391.0</ele><time>2026-05-01T14:28:35Z</time></trkpt><trkpt lat="48.112950918372555" lon="14.695253753784902"><ele>390.0</ele><time>2026-05-01T14:28:36Z</time></trkpt><trkpt lat="48.11302587900912" lon="14.695691204380216"><ele>389.0</ele><time>2026-05-01T14:28:37Z</time></trkpt><trkpt lat="48.11310510389533" lon="14.696129814035869"><ele>386.5</ele><time>2026-05-01T14:28:38Z</time></trkpt><trkpt lat="48.11318525036815" lon="14.69656732597154"><ele>384.0</ele><time>2026-05-01T14:28:39Z</time></trkpt><trkpt lat="48.11327025463298" lon="14.697003361953069"><ele>382.5</ele><time>2026-05-01T14:28:40Z</time></trkpt><trkpt lat="48.113355077188565" lon="14.69743573586535"><ele>381.0</ele><time>2026-05-01T14:28:41Z</time></trkpt><trkpt lat="48.1134415676827" lon="14.697869526498339"><ele>381.0</ele><time>2026-05-01T14:28:42Z</time></trkpt><trkpt lat="48.113524764229695" lon="14.698305935201223"><ele>381.0</ele><time>2026-05-01T14:28:43Z</time></trkpt><trkpt lat="48.113610397023876" lon="14.698740174718269"><ele>379.5</ele><time>2026-05-01T14:28:44Z</time></trkpt><trkpt lat="48.113694876846836" lon="14.699172855529268"><ele>378.0</ele><time>2026-05-01T14:28:45Z</time></trkpt><trkpt lat="48.1137806552644" lon="14.699604680167207"><ele>376.5</ele><time>2026-05-01T14:28:46Z</time></trkpt><trkpt lat="48.11386785390381" lon="14.700035699309865"><ele>375.0</ele><time>2026-05-01T14:28:47Z</time></trkpt><trkpt lat="48.113954663333594" lon="14.700465522408436"><ele>374.5</ele><time>2026-05-01T14:28:48Z</time></trkpt><trkpt lat="48.11404157815573" lon="14.700896087741063"><ele>374.0</ele><time>2026-05-01T14:28:49Z</time></trkpt><trkpt lat="48.11412790477816" lon="14.70132717863426"><ele>378.5</ele><time>2026-05-01T14:28:50Z</time></trkpt><trkpt lat="48.114213511856406" lon="14.701758175715703"><ele>383.0</ele><time>2026-05-01T14:28:51Z</time></trkpt><trkpt lat="48.114299781951814" lon="14.702188831665435"><ele>385.0</ele><time>2026-05-01T14:28:52Z</time></trkpt><trkpt lat="48.114385156923056" lon="14.702618995582808"><ele>387.0</ele><time>2026-05-01T14:28:53Z</time></trkpt><trkpt lat="48.11446892337869" lon="14.70304748270304"><ele>388.5</ele><time>2026-05-01T14:28:54Z</time></trkpt><trkpt lat="48.114549263276814" lon="14.70347684419482"><ele>390.0</ele><time>2026-05-01T14:28:55Z</time></trkpt><trkpt lat="48.11462759742306" lon="14.703907304108395"><ele>391.5</ele><time>2026-05-01T14:28:56Z</time></trkpt><trkpt lat="48.11470360336363" lon="14.70433881011307"><ele>393.0</ele><time>2026-05-01T14:28:57Z</time></trkpt><trkpt lat="48.114779232562036" lon="14.704770366086843"><ele>394.5</ele><time>2026-05-01T14:28:58Z</time></trkpt><trkpt lat="48.11485522890319" lon="14.705201551506564"><ele>396.0</ele><time>2026-05-01T14:28:59Z</time></trkpt><trkpt lat="48.11492988814225" lon="14.705634695760208"><ele>396.0</ele><time>2026-05-01T14:29:00Z</time></trkpt><trkpt lat="48.115001436192514" lon="14.706071294192807"><ele>396.0</ele><time>2026-05-01T14:29:01Z</time></trkpt><trkpt lat="48.11507265849618" lon="14.70650987944502"><ele>396.0</ele><time>2026-05-01T14:29:02Z</time></trkpt><trkpt lat="48.11514420508063" lon="14.70694937922085"><ele>396.0</ele><time>2026-05-01T14:29:03Z</time></trkpt><trkpt lat="48.11521189236262" lon="14.707390670281994"><ele>396.0</ele><time>2026-05-01T14:29:04Z</time></trkpt><trkpt lat="48.11527409683387" lon="14.70783457711396"><ele>396.0</ele><time>2026-05-01T14:29:05Z</time></trkpt><trkpt lat="48.115332227115715" lon="14.70827888920719"><ele>395.5</ele><time>2026-05-01T14:29:06Z</time></trkpt><trkpt lat="48.11538874189837" lon="14.708721496588725"><ele>395.0</ele><time>2026-05-01T14:29:07Z</time></trkpt><trkpt lat="48.115441754887364" lon="14.709164331880189"><ele>393.5</ele><time>2026-05-01T14:29:08Z</time></trkpt><trkpt lat="48.115495421243914" lon="14.709608469990155"><ele>392.0</ele><time>2026-05-01T14:29:09Z</time></trkpt><trkpt lat="48.11554629680993" lon="14.710057181017941"><ele>389.5</ele><time>2026-05-01T14:29:10Z</time></trkpt><trkpt lat="48.115593643316544" lon="14.71050933955528"><ele>387.0</ele><time>2026-05-01T14:29:11Z</time></trkpt><trkpt lat="48.11563817709225" lon="14.710964035768937"><ele>385.5</ele><time>2026-05-01T14:29:12Z</time></trkpt><trkpt lat="48.11567824757514" lon="14.711422385936533"><ele>384.0</ele><time>2026-05-01T14:29:13Z</time></trkpt><trkpt lat="48.115716363339494" lon="14.711880514746191"><ele>389.0</ele><time>2026-05-01T14:29:14Z</time></trkpt><trkpt lat="48.115755797506225" lon="14.712337638730357"><ele>394.0</ele><time>2026-05-01T14:29:15Z</time></trkpt><trkpt lat="48.11579506306552" lon="14.712793100506103"><ele>394.0</ele><time>2026-05-01T14:29:16Z</time></trkpt><trkpt lat="48.115829634475446" lon="14.713247223496888"><ele>394.0</ele><time>2026-05-01T14:29:17Z</time></trkpt><trkpt lat="48.11585980729695" lon="14.713699272533589"><ele>395.0</ele><time>2026-05-01T14:29:18Z</time></trkpt><trkpt lat="48.11588585788084" lon="14.714151331916089"><ele>396.0</ele><time>2026-05-01T14:29:19Z</time></trkpt><trkpt lat="48.1159085121098" lon="14.714606498802613"><ele>397.5</ele><time>2026-05-01T14:29:20Z</time></trkpt><trkpt lat="48.115929038897235" lon="14.71506366011001"><ele>399.0</ele><time>2026-05-01T14:29:21Z</time></trkpt><trkpt lat="48.1159483622845" lon="14.715520569670293"><ele>400.0</ele><time>2026-05-01T14:29:22.001Z</time></trkpt><trkpt lat="48.11596713951238" lon="14.71597477989328"><ele>401.0</ele><time>2026-05-01T14:29:23.001Z</time></trkpt><trkpt lat="48.115982642525815" lon="14.716426370989643"><ele>401.0</ele><time>2026-05-01T14:29:24.001Z</time></trkpt><trkpt lat="48.115993455110285" lon="14.716878246677014"><ele>401.0</ele><time>2026-05-01T14:29:25.001Z</time></trkpt><trkpt lat="48.1160001875314" lon="14.717331197140245"><ele>401.0</ele><time>2026-05-01T14:29:26.001Z</time></trkpt><trkpt lat="48.11600627083317" lon="14.71778547888355"><ele>401.0</ele><time>2026-05-01T14:29:27.001Z</time></trkpt><trkpt lat="48.11601171507241" lon="14.718242321990395"><ele>402.0</ele><time>2026-05-01T14:29:28.001Z</time></trkpt><trkpt lat="48.116016298615584" lon="14.718703041458612"><ele>403.0</ele><time>2026-05-01T14:29:29.001Z</time></trkpt><trkpt lat="48.11602261507221" lon="14.719157994219048"><ele>403.0</ele><time>2026-05-01T14:29:30.001Z</time></trkpt><trkpt lat="48.11602698516417" lon="14.719587820702928"><ele>403.0</ele><time>2026-05-01T14:29:31.001Z</time></trkpt><trkpt lat="48.11603110149396" lon="14.72002984018738"><ele>404.0</ele><time>2026-05-01T14:29:32.001Z</time></trkpt><trkpt lat="48.11603427633378" lon="14.72048158164061"><ele>405.0</ele><time>2026-05-01T14:29:33.001Z</time></trkpt><trkpt lat="48.116036758540844" lon="14.720938779772078"><ele>404.5</ele><time>2026-05-01T14:29:34.001Z</time></trkpt><trkpt lat="48.116036998976206" lon="14.721399033653231"><ele>404.0</ele><time>2026-05-01T14:29:35.001Z</time></trkpt><trkpt lat="48.11603508265096" lon="14.721861769244615"><ele>403.5</ele><time>2026-05-01T14:29:36.001Z</time></trkpt><trkpt lat="48.11602992358085" lon="14.722321835655723"><ele>403.0</ele><time>2026-05-01T14:29:37.001Z</time></trkpt><trkpt lat="48.11602586731119" lon="14.722779079721548"><ele>403.0</ele><time>2026-05-01T14:29:38.001Z</time></trkpt><trkpt lat="48.11602495476823" lon="14.723234151483629"><ele>403.0</ele><time>2026-05-01T14:29:39.001Z</time></trkpt><trkpt lat="48.11603272412991" lon="14.723688310895088"><ele>402.5</ele><time>2026-05-01T14:29:40.001Z</time></trkpt><trkpt lat="48.11604242368011" lon="14.724141209668606"><ele>402.0</ele><time>2026-05-01T14:29:41.001Z</time></trkpt><trkpt lat="48.11605307708272" lon="14.724591409138997"><ele>401.0</ele><time>2026-05-01T14:29:42.001Z</time></trkpt><trkpt lat="48.116062686358916" lon="14.725040059246457"><ele>400.0</ele><time>2026-05-01T14:29:43.001Z</time></trkpt><trkpt lat="48.11607392037333" lon="14.725487804140716"><ele>399.0</ele><time>2026-05-01T14:29:44.001Z</time></trkpt><trkpt lat="48.116085387950186" lon="14.725935939639474"><ele>398.0</ele><time>2026-05-01T14:29:45.001Z</time></trkpt><trkpt lat="48.11609683670491" lon="14.726383819258816"><ele>396.5</ele><time>2026-05-01T14:29:46.001Z</time></trkpt><trkpt lat="48.11611201004213" lon="14.726829805820197"><ele>395.0</ele><time>2026-05-01T14:29:47.001Z</time></trkpt><trkpt lat="48.11613439293742" lon="14.72727288101293"><ele>394.0</ele><time>2026-05-01T14:29:48.001Z</time></trkpt><trkpt lat="48.11616267662953" lon="14.72771344523354"><ele>393.0</ele><time>2026-05-01T14:29:49.001Z</time></trkpt><trkpt lat="48.11619585734224" lon="14.728154648854135"><ele>392.5</ele><time>2026-05-01T14:29:50.001Z</time></trkpt><trkpt lat="48.11623170392921" lon="14.728593007135249"><ele>392.0</ele><time>2026-05-01T14:29:51.001Z</time></trkpt><trkpt lat="48.1162702076409" lon="14.729031244236277"><ele>390.5</ele><time>2026-05-01T14:29:52.001Z</time></trkpt><trkpt lat="48.116312696083426" lon="14.729470665983206"><ele>389.0</ele><time>2026-05-01T14:29:53.001Z</time></trkpt><trkpt lat="48.116359938381514" lon="14.729908812218687"><ele>384.0</ele><time>2026-05-01T14:29:54.001Z</time></trkpt><trkpt lat="48.116411835042335" lon="14.730344223210926"><ele>379.0</ele><time>2026-05-01T14:29:55.001Z</time></trkpt><trkpt lat="48.11646512635146" lon="14.730777610888444"><ele>379.0</ele><time>2026-05-01T14:29:56.001Z</time></trkpt><trkpt lat="48.116521597551134" lon="14.731209033313066"><ele>379.0</ele><time>2026-05-01T14:29:57.001Z</time></trkpt><trkpt lat="48.11658066323" lon="14.731638760433324"><ele>377.5</ele><time>2026-05-01T14:29:58.001Z</time></trkpt><trkpt lat="48.116646221498065" lon="14.732064880616704"><ele>376.0</ele><time>2026-05-01T14:29:59.001Z</time></trkpt><trkpt lat="48.11671384659969" lon="14.732492361105512"><ele>375.5</ele><time>2026-05-01T14:30:00.001Z</time></trkpt><trkpt lat="48.11678561198266" lon="14.732919493850408"><ele>375.0</ele><time>2026-05-01T14:30:01.001Z</time></trkpt><trkpt lat="48.1168610960124" lon="14.733338476506605"><ele>375.0</ele><time>2026-05-01T14:30:02.001Z</time></trkpt><trkpt lat="48.11693936413602" lon="14.73375351599804"><ele>375.0</ele><time>2026-05-01T14:30:03.001Z</time></trkpt><trkpt lat="48.11702399092126" lon="14.73417081746765"><ele>375.0</ele><time>2026-05-01T14:30:04.001Z</time></trkpt><trkpt lat="48.11711013297037" lon="14.734588380338256"><ele>375.0</ele><time>2026-05-01T14:30:05.001Z</time></trkpt><trkpt lat="48.117203037611894" lon="14.734998524319844"><ele>374.5</ele><time>2026-05-01T14:30:06.001Z</time></trkpt><trkpt lat="48.11730381262103" lon="14.735406216136145"><ele>374.0</ele><time>2026-05-01T14:30:07.001Z</time></trkpt><trkpt lat="48.11740858349707" lon="14.735817320095116"><ele>379.5</ele><time>2026-05-01T14:30:08.001Z</time></trkpt><trkpt lat="48.1175130655105" lon="14.736236674272307"><ele>385.0</ele><time>2026-05-01T14:30:09.001Z</time></trkpt><trkpt lat="48.11761690776889" lon="14.736660173876166"><ele>385.0</ele><time>2026-05-01T14:30:10.001Z</time></trkpt><trkpt lat="48.1177199303248" lon="14.737085966121457"><ele>385.0</ele><time>2026-05-01T14:30:11.001Z</time></trkpt><trkpt lat="48.117823158685425" lon="14.737514838798097"><ele>384.5</ele><time>2026-05-01T14:30:12.001Z</time></trkpt><trkpt lat="48.11792785887555" lon="14.737943303979257"><ele>384.0</ele><time>2026-05-01T14:30:13.001Z</time></trkpt><trkpt lat="48.1180339727281" lon="14.738372148890527"><ele>384.5</ele><time>2026-05-01T14:30:14.001Z</time></trkpt><trkpt lat="48.11814160922973" lon="14.738800305452514"><ele>385.0</ele><time>2026-05-01T14:30:15.001Z</time></trkpt><trkpt lat="48.118248563525796" lon="14.739226335491761"><ele>385.5</ele><time>2026-05-01T14:30:16.001Z</time></trkpt><trkpt lat="48.11835479151309" lon="14.739650332253193"><ele>386.0</ele><time>2026-05-01T14:30:17.001Z</time></trkpt><trkpt lat="48.11846128437411" lon="14.740073523605423"><ele>385.0</ele><time>2026-05-01T14:30:18.001Z</time></trkpt><trkpt lat="48.11856740826882" lon="14.740497090351306"><ele>384.0</ele><time>2026-05-01T14:30:19.001Z</time></trkpt><trkpt lat="48.11867220175902" lon="14.740920731940207"><ele>381.5</ele><time>2026-05-01T14:30:20.001Z</time></trkpt><trkpt lat="48.11877879467111" lon="14.741346430610072"><ele>379.0</ele><time>2026-05-01T14:30:21.001Z</time></trkpt><trkpt lat="48.11888583013578" lon="14.741773396073382"><ele>380.5</ele><time>2026-05-01T14:30:22.001Z</time></trkpt><trkpt lat="48.11899344980378" lon="14.742200767714177"><ele>382.0</ele><time>2026-05-01T14:30:23.001Z</time></trkpt><trkpt lat="48.11910008424485" lon="14.742629090464085"><ele>382.0</ele><time>2026-05-01T14:30:24.001Z</time></trkpt><trkpt lat="48.119203164392104" lon="14.743062053093068"><ele>382.0</ele><time>2026-05-01T14:30:25.001Z</time></trkpt><trkpt lat="48.11930147339778" lon="14.743498566425398"><ele>382.5</ele><time>2026-05-01T14:30:26.001Z</time></trkpt><trkpt lat="48.11939545761225" lon="14.74393819950467"><ele>383.0</ele><time>2026-05-01T14:30:27.001Z</time></trkpt><trkpt lat="48.119492576716326" lon="14.744377108363791"><ele>384.5</ele><time>2026-05-01T14:30:28.001Z</time></trkpt><trkpt lat="48.11959294313801" lon="14.744812594204934"><ele>386.0</ele><time>2026-05-01T14:30:29.001Z</time></trkpt><trkpt lat="48.119697273362355" lon="14.745246598827793"><ele>387.0</ele><time>2026-05-01T14:30:30.001Z</time></trkpt><trkpt lat="48.119800383784565" lon="14.745679172802731"><ele>388.0</ele><time>2026-05-01T14:30:31.001Z</time></trkpt><trkpt lat="48.119899359901794" lon="14.746112369377808"><ele>390.5</ele><time>2026-05-01T14:30:32.001Z</time></trkpt><trkpt lat="48.11999520440474" lon="14.74654598570684"><ele>393.0</ele><time>2026-05-01T14:30:33.001Z</time></trkpt><trkpt lat="48.12008853558832" lon="14.746978633321469"><ele>394.0</ele><time>2026-05-01T14:30:34.001Z</time></trkpt><trkpt lat="48.12017796734843" lon="14.747411618837264"><ele>395.0</ele><time>2026-05-01T14:30:35.001Z</time></trkpt><trkpt lat="48.1202656687656" lon="14.747843450629919"><ele>395.0</ele><time>2026-05-01T14:30:36Z</time></trkpt><trkpt lat="48.12035058165754" lon="14.748279460795304"><ele>395.0</ele><time>2026-05-01T14:30:37Z</time></trkpt><trkpt lat="48.120430946695436" lon="14.748720337536191"><ele>395.0</ele><time>2026-05-01T14:30:38Z</time></trkpt><trkpt lat="48.12050831455068" lon="14.749164689970202"><ele>395.0</ele><time>2026-05-01T14:30:39Z</time></trkpt><trkpt lat="48.120583810912464" lon="14.749610328165518"><ele>394.5</ele><time>2026-05-01T14:30:40Z</time></trkpt><trkpt lat="48.12065617699174" lon="14.750058502182876"><ele>394.0</ele><time>2026-05-01T14:30:41Z</time></trkpt><trkpt lat="48.12072314910771" lon="14.750507026277885"><ele>392.0</ele><time>2026-05-01T14:30:42Z</time></trkpt><trkpt lat="48.12078377019411" lon="14.750938256350874"><ele>390.0</ele><time>2026-05-01T14:30:43Z</time></trkpt><trkpt lat="48.12083912352221" lon="14.751361897748232"><ele>389.0</ele><time>2026-05-01T14:30:44Z</time></trkpt><trkpt lat="48.12089193620281" lon="14.751800512011387"><ele>388.0</ele><time>2026-05-01T14:30:45Z</time></trkpt><trkpt lat="48.12093887768198" lon="14.752245284461786"><ele>387.5</ele><time>2026-05-01T14:30:46Z</time></trkpt><trkpt lat="48.12098433200485" lon="14.75269480630484"><ele>387.0</ele><time>2026-05-01T14:30:47Z</time></trkpt><trkpt lat="48.12102857361696" lon="14.753149199516079"><ele>385.0</ele><time>2026-05-01T14:30:48Z</time></trkpt><trkpt lat="48.121069038420785" lon="14.753607868121277"><ele>383.0</ele><time>2026-05-01T14:30:49Z</time></trkpt><trkpt lat="48.121105241746925" lon="14.75406563338134"><ele>383.0</ele><time>2026-05-01T14:30:50Z</time></trkpt><trkpt lat="48.121136212370075" lon="14.75451847036489"><ele>383.0</ele><time>2026-05-01T14:30:51Z</time></trkpt><trkpt lat="48.12116461765339" lon="14.754967393718156"><ele>383.0</ele><time>2026-05-01T14:30:52Z</time></trkpt><trkpt lat="48.12118951485306" lon="14.755415155642659"><ele>383.0</ele><time>2026-05-01T14:30:53Z</time></trkpt><trkpt lat="48.12121044549701" lon="14.755864347352789"><ele>384.0</ele><time>2026-05-01T14:30:54Z</time></trkpt><trkpt lat="48.121228262804394" lon="14.756315782180184"><ele>385.0</ele><time>2026-05-01T14:30:55Z</time></trkpt><trkpt lat="48.121240376214864" lon="14.756769570599406"><ele>385.0</ele><time>2026-05-01T14:30:56Z</time></trkpt><trkpt lat="48.12124734131816" lon="14.757222980105904"><ele>385.0</ele><time>2026-05-01T14:30:57Z</time></trkpt><trkpt lat="48.1212502580624" lon="14.757676659087961"><ele>385.0</ele><time>2026-05-01T14:30:58Z</time></trkpt><trkpt lat="48.12124986700494" lon="14.75813009453399"><ele>385.0</ele><time>2026-05-01T14:30:59Z</time></trkpt><trkpt lat="48.121244830312826" lon="14.758584711079765"><ele>385.0</ele><time>2026-05-01T14:31:00Z</time></trkpt><trkpt lat="48.121235011687304" lon="14.759039859158273"><ele>385.0</ele><time>2026-05-01T14:31:01Z</time></trkpt><trkpt lat="48.121219912735015" lon="14.759494485013073"><ele>385.0</ele><time>2026-05-01T14:31:02Z</time></trkpt><trkpt lat="48.12120225222391" lon="14.75995127662025"><ele>385.0</ele><time>2026-05-01T14:31:03Z</time></trkpt><trkpt lat="48.12117845685145" lon="14.760408675140937"><ele>384.5</ele><time>2026-05-01T14:31:04Z</time></trkpt><trkpt lat="48.12115020170496" lon="14.76086813738457"><ele>384.0</ele><time>2026-05-01T14:31:05Z</time></trkpt><trkpt lat="48.1211171263121" lon="14.76132375666451"><ele>384.0</ele><time>2026-05-01T14:31:06Z</time></trkpt><trkpt lat="48.12107888528397" lon="14.761776005473665"><ele>384.0</ele><time>2026-05-01T14:31:07Z</time></trkpt><trkpt lat="48.12103645033998" lon="14.762227583907105"><ele>385.0</ele><time>2026-05-01T14:31:08Z</time></trkpt><trkpt lat="48.120991525103435" lon="14.762679200553062"><ele>386.0</ele><time>2026-05-01T14:31:09Z</time></trkpt><trkpt lat="48.12094494804278" lon="14.763131501373094"><ele>387.0</ele><time>2026-05-01T14:31:10Z</time></trkpt><trkpt lat="48.12089405245208" lon="14.763583841225323"><ele>388.0</ele><time>2026-05-01T14:31:11Z</time></trkpt><trkpt lat="48.12084228617169" lon="14.764034528724654"><ele>388.5</ele><time>2026-05-01T14:31:12Z</time></trkpt><trkpt lat="48.12079109657512" lon="14.764484340084056"><ele>389.0</ele><time>2026-05-01T14:31:13Z</time></trkpt><trkpt lat="48.120735703936774" lon="14.764935357740681"><ele>389.0</ele><time>2026-05-01T14:31:14Z</time></trkpt><trkpt lat="48.120676235518395" lon="14.765385694917038"><ele>389.0</ele><time>2026-05-01T14:31:15Z</time></trkpt><trkpt lat="48.12060890952944" lon="14.765835257224397"><ele>389.0</ele><time>2026-05-01T14:31:16Z</time></trkpt><trkpt lat="48.12053804354213" lon="14.766284667043477"><ele>389.0</ele><time>2026-05-01T14:31:17Z</time></trkpt><trkpt lat="48.1204650183421" lon="14.766731508583398"><ele>388.5</ele><time>2026-05-01T14:31:18Z</time></trkpt><trkpt lat="48.12038942992294" lon="14.767176574149085"><ele>388.0</ele><time>2026-05-01T14:31:19Z</time></trkpt><trkpt lat="48.120312258059386" lon="14.767620713010146"><ele>387.5</ele><time>2026-05-01T14:31:20Z</time></trkpt><trkpt lat="48.12023470361945" lon="14.768064158572258"><ele>387.0</ele><time>2026-05-01T14:31:21Z</time></trkpt><trkpt lat="48.12015663443767" lon="14.76850520205913"><ele>386.5</ele><time>2026-05-01T14:31:22Z</time></trkpt><trkpt lat="48.12007839952316" lon="14.768942760456799"><ele>386.0</ele><time>2026-05-01T14:31:23Z</time></trkpt><trkpt lat="48.120000966867735" lon="14.769379585763067"><ele>386.0</ele><time>2026-05-01T14:31:24Z</time></trkpt><trkpt lat="48.1199245211851" lon="14.76981602676191"><ele>386.0</ele><time>2026-05-01T14:31:25Z</time></trkpt><trkpt lat="48.1198482895664" lon="14.77025573410224"><ele>386.0</ele><time>2026-05-01T14:31:26Z</time></trkpt><trkpt lat="48.119770717751" lon="14.77069758196764"><ele>386.0</ele><time>2026-05-01T14:31:27Z</time></trkpt><trkpt lat="48.11969280033626" lon="14.771139806962195"><ele>385.5</ele><time>2026-05-01T14:31:28Z</time></trkpt><trkpt lat="48.11960898305886" lon="14.771579449254064"><ele>385.0</ele><time>2026-05-01T14:31:29Z</time></trkpt><trkpt lat="48.11952122971338" lon="14.772015179232238"><ele>384.0</ele><time>2026-05-01T14:31:30Z</time></trkpt><trkpt lat="48.119435030848614" lon="14.772453169482926"><ele>383.0</ele><time>2026-05-01T14:31:31Z</time></trkpt><trkpt lat="48.1193517673282" lon="14.772893087259675"><ele>382.5</ele><time>2026-05-01T14:31:32Z</time></trkpt><trkpt lat="48.11927255700181" lon="14.773336998821504"><ele>382.0</ele><time>2026-05-01T14:31:33Z</time></trkpt><trkpt lat="48.119197187478925" lon="14.773782987978835"><ele>380.0</ele><time>2026-05-01T14:31:34.001Z</time></trkpt><trkpt lat="48.11912400196303" lon="14.774230684175153"><ele>378.0</ele><time>2026-05-01T14:31:35.001Z</time></trkpt><trkpt lat="48.11905360007684" lon="14.774678283207358"><ele>378.0</ele><time>2026-05-01T14:31:36.001Z</time></trkpt><trkpt lat="48.11898802471871" lon="14.775122011995446"><ele>378.0</ele><time>2026-05-01T14:31:37.001Z</time></trkpt><trkpt lat="48.118930324031396" lon="14.7755452863249"><ele>378.0</ele><time>2026-05-01T14:31:38.001Z</time></trkpt><trkpt lat="48.11888006740903" lon="14.775984264829885"><ele>378.0</ele><time>2026-05-01T14:31:39.001Z</time></trkpt><trkpt lat="48.118835057192726" lon="14.776430101261354"><ele>376.5</ele><time>2026-05-01T14:31:40.001Z</time></trkpt><trkpt lat="48.118796104519326" lon="14.776882493551716"><ele>375.0</ele><time>2026-05-01T14:31:41.001Z</time></trkpt><trkpt lat="48.11876227829629" lon="14.777337665805845"><ele>374.5</ele><time>2026-05-01T14:31:42.001Z</time></trkpt><trkpt lat="48.11873404327546" lon="14.77779417363144"><ele>374.0</ele><time>2026-05-01T14:31:43.001Z</time></trkpt><trkpt lat="48.11871300252653" lon="14.77824988871251"><ele>374.0</ele><time>2026-05-01T14:31:44.001Z</time></trkpt><trkpt lat="48.11869886279066" lon="14.778703088047942"><ele>374.0</ele><time>2026-05-01T14:31:45.001Z</time></trkpt><trkpt lat="48.11869281908335" lon="14.779155895936793"><ele>374.5</ele><time>2026-05-01T14:31:46.001Z</time></trkpt><trkpt lat="48.11869212245419" lon="14.779608295537573"><ele>375.0</ele><time>2026-05-01T14:31:47.001Z</time></trkpt><trkpt lat="48.11869826788705" lon="14.780058123093138"><ele>375.5</ele><time>2026-05-01T14:31:48.001Z</time></trkpt><trkpt lat="48.1187114052975" lon="14.780509036435342"><ele>376.0</ele><time>2026-05-01T14:31:49.001Z</time></trkpt><trkpt lat="48.11873025219427" lon="14.780959764572565"><ele>376.0</ele><time>2026-05-01T14:31:50.001Z</time></trkpt><trkpt lat="48.11875750531047" lon="14.78141134177614"><ele>376.0</ele><time>2026-05-01T14:31:51.001Z</time></trkpt><trkpt lat="48.11878839433495" lon="14.781862989306338"><ele>375.5</ele><time>2026-05-01T14:31:52.001Z</time></trkpt><trkpt lat="48.118825647333566" lon="14.782312306031608"><ele>375.0</ele><time>2026-05-01T14:31:53.001Z</time></trkpt><trkpt lat="48.11886804395971" lon="14.782760036671181"><ele>376.0</ele><time>2026-05-01T14:31:54.001Z</time></trkpt><trkpt lat="48.11891211443743" lon="14.783207302123191"><ele>377.0</ele><time>2026-05-01T14:31:55.001Z</time></trkpt><trkpt lat="48.11895672246738" lon="14.783653904633367"><ele>378.0</ele><time>2026-05-01T14:31:56.001Z</time></trkpt><trkpt lat="48.11900096013785" lon="14.784099626036747"><ele>379.0</ele><time>2026-05-01T14:31:57.001Z</time></trkpt><trkpt lat="48.11904445834514" lon="14.78454512818134"><ele>380.0</ele><time>2026-05-01T14:31:58.001Z</time></trkpt><trkpt lat="48.11908649253291" lon="14.78499166638169"><ele>381.0</ele><time>2026-05-01T14:31:59.001Z</time></trkpt><trkpt lat="48.11912881524002" lon="14.785438202545201"><ele>381.5</ele><time>2026-05-01T14:32:00.001Z</time></trkpt><trkpt lat="48.11917345199709" lon="14.785884358924012"><ele>382.0</ele><time>2026-05-01T14:32:01.001Z</time></trkpt><trkpt lat="48.11921475378886" lon="14.786332836356092"><ele>382.5</ele><time>2026-05-01T14:32:02.001Z</time></trkpt><trkpt lat="48.11926036442728" lon="14.78678194734879"><ele>383.0</ele><time>2026-05-01T14:32:03.001Z</time></trkpt><trkpt lat="48.11930608284475" lon="14.787229715385005"><ele>383.0</ele><time>2026-05-01T14:32:04.001Z</time></trkpt><trkpt lat="48.119348544568034" lon="14.787676434304009"><ele>383.0</ele><time>2026-05-01T14:32:05.001Z</time></trkpt><trkpt lat="48.119391012765725" lon="14.788121358361954"><ele>380.0</ele><time>2026-05-01T14:32:06.001Z</time></trkpt><trkpt lat="48.11943302699922" lon="14.788564686959013"><ele>377.0</ele><time>2026-05-01T14:32:07.001Z</time></trkpt><trkpt lat="48.11947628528671" lon="14.78900905934562"><ele>376.0</ele><time>2026-05-01T14:32:08.001Z</time></trkpt><trkpt lat="48.11952042887855" lon="14.789454162206502"><ele>375.0</ele><time>2026-05-01T14:32:09.001Z</time></trkpt><trkpt lat="48.11956212932727" lon="14.789901128535186"><ele>375.5</ele><time>2026-05-01T14:32:10.001Z</time></trkpt><trkpt lat="48.1195994843694" lon="14.79034623216739"><ele>376.0</ele><time>2026-05-01T14:32:11.001Z</time></trkpt><trkpt lat="48.11963603345397" lon="14.79078994419404"><ele>376.0</ele><time>2026-05-01T14:32:12.001Z</time></trkpt><trkpt lat="48.119673331068235" lon="14.791233219922775"><ele>376.0</ele><time>2026-05-01T14:32:13.001Z</time></trkpt><trkpt lat="48.119709223726964" lon="14.791677782855942"><ele>375.5</ele><time>2026-05-01T14:32:14.001Z</time></trkpt><trkpt lat="48.119740993874714" lon="14.79212159901588"><ele>375.0</ele><time>2026-05-01T14:32:15.001Z</time></trkpt><trkpt lat="48.11976939974488" lon="14.792567063153427"><ele>374.5</ele><time>2026-05-01T14:32:16.001Z</time></trkpt><trkpt lat="48.11979572740223" lon="14.793012028142337"><ele>374.0</ele><time>2026-05-01T14:32:17.001Z</time></trkpt><trkpt lat="48.1198213687478" lon="14.793458492097798"><ele>373.0</ele><time>2026-05-01T14:32:18.001Z</time></trkpt><trkpt lat="48.119846376524016" lon="14.79390719282594"><ele>372.0</ele><time>2026-05-01T14:32:19.001Z</time></trkpt><trkpt lat="48.11986754113991" lon="14.794358279206595"><ele>370.5</ele><time>2026-05-01T14:32:20.001Z</time></trkpt><trkpt lat="48.11988435707594" lon="14.794810869508646"><ele>369.0</ele><time>2026-05-01T14:32:21.001Z</time></trkpt><trkpt lat="48.119895645291265" lon="14.795265022748621"><ele>370.5</ele><time>2026-05-01T14:32:22.001Z</time></trkpt><trkpt lat="48.11990455556409" lon="14.795720072018103"><ele>372.0</ele><time>2026-05-01T14:32:23.001Z</time></trkpt><trkpt lat="48.11991374541602" lon="14.796176008058943"><ele>372.0</ele><time>2026-05-01T14:32:24.001Z</time></trkpt><trkpt lat="48.119921905568944" lon="14.796631266436405"><ele>372.0</ele><time>2026-05-01T14:32:25.001Z</time></trkpt><trkpt lat="48.119927012055115" lon="14.797086568177669"><ele>371.5</ele><time>2026-05-01T14:32:26.001Z</time></trkpt><trkpt lat="48.11993117597668" lon="14.797540352309264"><ele>371.0</ele><time>2026-05-01T14:32:27.001Z</time></trkpt><trkpt lat="48.119935596753194" lon="14.797992115541398"><ele>371.0</ele><time>2026-05-01T14:32:28.001Z</time></trkpt><trkpt lat="48.1199393087079" lon="14.79844068091805"><ele>371.0</ele><time>2026-05-01T14:32:29.001Z</time></trkpt><trkpt lat="48.11994104894801" lon="14.798887967811945"><ele>372.0</ele><time>2026-05-01T14:32:30.001Z</time></trkpt><trkpt lat="48.11993880641534" lon="14.799335746477071"><ele>373.0</ele><time>2026-05-01T14:32:31.001Z</time></trkpt><trkpt lat="48.11993548994842" lon="14.799786993882972"><ele>372.5</ele><time>2026-05-01T14:32:32.001Z</time></trkpt><trkpt lat="48.11993196468272" lon="14.800237705217647"><ele>372.0</ele><time>2026-05-01T14:32:33.001Z</time></trkpt><trkpt lat="48.11993061326253" lon="14.800688640225172"><ele>372.0</ele><time>2026-05-01T14:32:34.001Z</time></trkpt><trkpt lat="48.11992949932518" lon="14.801139695700442"><ele>372.0</ele><time>2026-05-01T14:32:35.001Z</time></trkpt><trkpt lat="48.1199319006581" lon="14.80158772901218"><ele>373.0</ele><time>2026-05-01T14:32:36.001Z</time></trkpt><trkpt lat="48.119933307107836" lon="14.802035296392027"><ele>374.0</ele><time>2026-05-01T14:32:37.001Z</time></trkpt><trkpt lat="48.11993417367236" lon="14.80248356279635"><ele>373.5</ele><time>2026-05-01T14:32:38.001Z</time></trkpt><trkpt lat="48.11993485200576" lon="14.80293110068136"><ele>373.0</ele><time>2026-05-01T14:32:39.001Z</time></trkpt><trkpt lat="48.11993951549699" lon="14.803377043649032"><ele>374.5</ele><time>2026-05-01T14:32:40.001Z</time></trkpt><trkpt lat="48.119950968914736" lon="14.803822114107682"><ele>376.0</ele><time>2026-05-01T14:32:41.001Z</time></trkpt><trkpt lat="48.11997088502433" lon="14.804265776846174"><ele>376.5</ele><time>2026-05-01T14:32:42Z</time></trkpt><trkpt lat="48.120003888248576" lon="14.804708944513377"><ele>377.0</ele><time>2026-05-01T14:32:43Z</time></trkpt><trkpt lat="48.12004528946217" lon="14.805150647818882"><ele>376.5</ele><time>2026-05-01T14:32:44Z</time></trkpt><trkpt lat="48.120091849179396" lon="14.80559242077007"><ele>376.0</ele><time>2026-05-01T14:32:45Z</time></trkpt><trkpt lat="48.12014751580141" lon="14.806030423115578"><ele>375.5</ele><time>2026-05-01T14:32:46Z</time></trkpt><trkpt lat="48.12021336047229" lon="14.806465921784172"><ele>375.0</ele><time>2026-05-01T14:32:47Z</time></trkpt><trkpt lat="48.120290818272004" lon="14.80689917284561"><ele>375.0</ele><time>2026-05-01T14:32:48Z</time></trkpt><trkpt lat="48.12037803353045" lon="14.80733012959212"><ele>375.0</ele><time>2026-05-01T14:32:49Z</time></trkpt><trkpt lat="48.12047666266896" lon="14.807758112777794"><ele>375.5</ele><time>2026-05-01T14:32:50Z</time></trkpt><trkpt lat="48.120584853672035" lon="14.808181182059299"><ele>376.0</ele><time>2026-05-01T14:32:51Z</time></trkpt><trkpt lat="48.12070037822699" lon="14.808600115681942"><ele>373.0</ele><time>2026-05-01T14:32:52Z</time></trkpt><trkpt lat="48.120827249472214" lon="14.809013375226185"><ele>370.0</ele><time>2026-05-01T14:32:53Z</time></trkpt><trkpt lat="48.12096084561349" lon="14.809418954541805"><ele>370.0</ele><time>2026-05-01T14:32:54Z</time></trkpt><trkpt lat="48.12110407459293" lon="14.809816067774662"><ele>370.0</ele><time>2026-05-01T14:32:55Z</time></trkpt><trkpt lat="48.121251900325355" lon="14.81020847323926"><ele>370.0</ele><time>2026-05-01T14:32:56Z</time></trkpt><trkpt lat="48.12140119499986" lon="14.810595448270192"><ele>370.0</ele><time>2026-05-01T14:32:57Z</time></trkpt><trkpt lat="48.12154710359837" lon="14.81096840266396"><ele>370.5</ele><time>2026-05-01T14:32:58Z</time></trkpt><trkpt lat="48.121688250391124" lon="14.811325465826878"><ele>371.0</ele><time>2026-05-01T14:32:59Z</time></trkpt><trkpt lat="48.121839393921306" lon="14.81170034412024"><ele>371.0</ele><time>2026-05-01T14:33:00Z</time></trkpt><trkpt lat="48.121990582979166" lon="14.812081227014302"><ele>371.0</ele><time>2026-05-01T14:33:01Z</time></trkpt><trkpt lat="48.12214152806475" lon="14.812466507758797"><ele>371.5</ele><time>2026-05-01T14:33:02Z</time></trkpt><trkpt lat="48.122293655099" lon="14.812851207304355"><ele>372.0</ele><time>2026-05-01T14:33:03Z</time></trkpt><trkpt lat="48.122447075551484" lon="14.813235441624235"><ele>370.0</ele><time>2026-05-01T14:33:04Z</time></trkpt><trkpt lat="48.12259930616881" lon="14.813615590080529"><ele>368.0</ele><time>2026-05-01T14:33:05Z</time></trkpt><trkpt lat="48.12275120624044" lon="14.8139945390309"><ele>367.0</ele><time>2026-05-01T14:33:06Z</time></trkpt><trkpt lat="48.122902100343055" lon="14.814371299983529"><ele>366.0</ele><time>2026-05-01T14:33:07Z</time></trkpt><trkpt lat="48.12305266829199" lon="14.814745000790555"><ele>366.0</ele><time>2026-05-01T14:33:08Z</time></trkpt><trkpt lat="48.12320182611487" lon="14.815118080529809"><ele>366.0</ele><time>2026-05-01T14:33:09Z</time></trkpt><trkpt lat="48.1233529981835" lon="14.815490021345582"><ele>364.5</ele><time>2026-05-01T14:33:10Z</time></trkpt><trkpt lat="48.12350453907663" lon="14.815864357743521"><ele>363.0</ele><time>2026-05-01T14:33:11Z</time></trkpt><trkpt lat="48.123655392598764" lon="14.816238108572227"><ele>363.0</ele><time>2026-05-01T14:33:12Z</time></trkpt><trkpt lat="48.123806296434076" lon="14.816613796554181"><ele>363.0</ele><time>2026-05-01T14:33:13Z</time></trkpt><trkpt lat="48.12395829460036" lon="14.816990249758101"><ele>364.5</ele><time>2026-05-01T14:33:14Z</time></trkpt><trkpt lat="48.124111106543985" lon="14.817368773732202"><ele>366.0</ele><time>2026-05-01T14:33:15Z</time></trkpt><trkpt lat="48.12426549034582" lon="14.817749277941527"><ele>366.0</ele><time>2026-05-01T14:33:16Z</time></trkpt><trkpt lat="48.124420374386695" lon="14.818133405836269"><ele>366.0</ele><time>2026-05-01T14:33:17Z</time></trkpt><trkpt lat="48.12457487340362" lon="14.81851967836455"><ele>365.5</ele><time>2026-05-01T14:33:18Z</time></trkpt><trkpt lat="48.124730718098405" lon="14.818907846485514"><ele>365.0</ele><time>2026-05-01T14:33:19Z</time></trkpt><trkpt lat="48.124888102002735" lon="14.819296873222513"><ele>365.5</ele><time>2026-05-01T14:33:20Z</time></trkpt><trkpt lat="48.12504691045127" lon="14.819689451372144"><ele>366.0</ele><time>2026-05-01T14:33:21Z</time></trkpt><trkpt lat="48.12520388216359" lon="14.820084129601318"><ele>365.5</ele><time>2026-05-01T14:33:22Z</time></trkpt><trkpt lat="48.125361101581895" lon="14.820476136512776"><ele>365.0</ele><time>2026-05-01T14:33:23Z</time></trkpt><trkpt lat="48.12551763119792" lon="14.820863272782212"><ele>363.5</ele><time>2026-05-01T14:33:24Z</time></trkpt><trkpt lat="48.12567531862529" lon="14.821243961021223"><ele>362.0</ele><time>2026-05-01T14:33:25Z</time></trkpt><trkpt lat="48.12583674073515" lon="14.821622034454837"><ele>362.0</ele><time>2026-05-01T14:33:26Z</time></trkpt><trkpt lat="48.126001987126955" lon="14.821995104246195"><ele>362.0</ele><time>2026-05-01T14:33:27Z</time></trkpt><trkpt lat="48.126172094790704" lon="14.82236386740354"><ele>361.0</ele><time>2026-05-01T14:33:28Z</time></trkpt><trkpt lat="48.12634972402753" lon="14.822726093867027"><ele>360.0</ele><time>2026-05-01T14:33:29Z</time></trkpt><trkpt lat="48.12653444512533" lon="14.823077360240314"><ele>360.5</ele><time>2026-05-01T14:33:30Z</time></trkpt><trkpt lat="48.12672745383769" lon="14.823417319454006"><ele>361.0</ele><time>2026-05-01T14:33:31Z</time></trkpt><trkpt lat="48.126928881152864" lon="14.823745968803749"><ele>363.0</ele><time>2026-05-01T14:33:32Z</time></trkpt><trkpt lat="48.12714118121094" lon="14.824057350299727"><ele>365.0</ele><time>2026-05-01T14:33:33Z</time></trkpt><trkpt lat="48.12736198681568" lon="14.824359673202041"><ele>363.5</ele><time>2026-05-01T14:33:34Z</time></trkpt><trkpt lat="48.12758729953231" lon="14.824658191005133"><ele>362.0</ele><time>2026-05-01T14:33:35Z</time></trkpt><trkpt lat="48.12781666725278" lon="14.824953244341247"><ele>361.5</ele><time>2026-05-01T14:33:36Z</time></trkpt><trkpt lat="48.12804810723752" lon="14.825245332011566"><ele>361.0</ele><time>2026-05-01T14:33:37Z</time></trkpt><trkpt lat="48.12828493449894" lon="14.825527262984203"><ele>361.0</ele><time>2026-05-01T14:33:38Z</time></trkpt><trkpt lat="48.12852570699389" lon="14.825803019117027"><ele>361.0</ele><time>2026-05-01T14:33:39Z</time></trkpt><trkpt lat="48.12876988305552" lon="14.826073936183562"><ele>360.5</ele><time>2026-05-01T14:33:40Z</time></trkpt><trkpt lat="48.12901859739119" lon="14.826338889404012"><ele>360.0</ele><time>2026-05-01T14:33:41Z</time></trkpt><trkpt lat="48.12926920144492" lon="14.826601295225753"><ele>362.0</ele><time>2026-05-01T14:33:42Z</time></trkpt><trkpt lat="48.12951962287895" lon="14.82686378952301"><ele>364.0</ele><time>2026-05-01T14:33:43Z</time></trkpt><trkpt lat="48.12976955160978" lon="14.827126931226797"><ele>364.0</ele><time>2026-05-01T14:33:44Z</time></trkpt><trkpt lat="48.130019490282955" lon="14.827389696399905"><ele>364.0</ele><time>2026-05-01T14:33:45.001Z</time></trkpt><trkpt lat="48.130267794650536" lon="14.82765501047842"><ele>364.0</ele><time>2026-05-01T14:33:46.001Z</time></trkpt><trkpt lat="48.130513055976984" lon="14.827926246532854"><ele>364.0</ele><time>2026-05-01T14:33:47.001Z</time></trkpt><trkpt lat="48.1307541841037" lon="14.828205896298414"><ele>363.0</ele><time>2026-05-01T14:33:48.001Z</time></trkpt><trkpt lat="48.13099361028312" lon="14.828489532160765"><ele>362.0</ele><time>2026-05-01T14:33:49.001Z</time></trkpt><trkpt lat="48.13123425701003" lon="14.828770420294608"><ele>362.0</ele><time>2026-05-01T14:33:50.001Z</time></trkpt><trkpt lat="48.13147732147113" lon="14.829043758682257"><ele>362.0</ele><time>2026-05-01T14:33:51.001Z</time></trkpt><trkpt lat="48.13171967337471" lon="14.82931134425123"><ele>363.5</ele><time>2026-05-01T14:33:52.001Z</time></trkpt><trkpt lat="48.13195876158032" lon="14.829576966138696"><ele>365.0</ele><time>2026-05-01T14:33:53.001Z</time></trkpt><trkpt lat="48.13219307486751" lon="14.829847859087607"><ele>366.0</ele><time>2026-05-01T14:33:54.001Z</time></trkpt><trkpt lat="48.13242308494428" lon="14.830124644444203"><ele>367.0</ele><time>2026-05-01T14:33:55.001Z</time></trkpt><trkpt lat="48.13265063349123" lon="14.830406224358782"><ele>367.0</ele><time>2026-05-01T14:33:56.001Z</time></trkpt><trkpt lat="48.13287312568729" lon="14.830696488669462"><ele>367.0</ele><time>2026-05-01T14:33:57.001Z</time></trkpt><trkpt lat="48.13308757592384" lon="14.830997252133038"><ele>368.5</ele><time>2026-05-01T14:33:58.001Z</time></trkpt><trkpt lat="48.13329514408822" lon="14.831311151749915"><ele>370.0</ele><time>2026-05-01T14:33:59.001Z</time></trkpt><trkpt lat="48.13349904123758" lon="14.831632795377867"><ele>371.5</ele><time>2026-05-01T14:34:00.001Z</time></trkpt><trkpt lat="48.133699691489795" lon="14.831965669780761"><ele>373.0</ele><time>2026-05-01T14:34:01.001Z</time></trkpt><trkpt lat="48.13389494680486" lon="14.832305411218382"><ele>371.0</ele><time>2026-05-01T14:34:02.001Z</time></trkpt><trkpt lat="48.13408063988187" lon="14.832655804629752"><ele>369.0</ele><time>2026-05-01T14:34:03.001Z</time></trkpt><trkpt lat="48.13425955455352" lon="14.833015969211965"><ele>369.0</ele><time>2026-05-01T14:34:04.001Z</time></trkpt><trkpt lat="48.13443137932008" lon="14.833385973775863"><ele>369.0</ele><time>2026-05-01T14:34:05.001Z</time></trkpt><trkpt lat="48.13459797310783" lon="14.833765772702689"><ele>369.5</ele><time>2026-05-01T14:34:06.001Z</time></trkpt><trkpt lat="48.13476316036808" lon="14.834148405992824"><ele>370.0</ele><time>2026-05-01T14:34:07.001Z</time></trkpt><trkpt lat="48.13492522931683" lon="14.834532870670836"><ele>370.5</ele><time>2026-05-01T14:34:08.001Z</time></trkpt><trkpt lat="48.13508246722077" lon="14.834922558762916"><ele>371.0</ele><time>2026-05-01T14:34:09.001Z</time></trkpt><trkpt lat="48.13523502988156" lon="14.835314304138981"><ele>371.0</ele><time>2026-05-01T14:34:10.001Z</time></trkpt><trkpt lat="48.13538300613464" lon="14.835709914162098"><ele>371.0</ele><time>2026-05-01T14:34:11.001Z</time></trkpt><trkpt lat="48.13552901854647" lon="14.836107101066082"><ele>371.0</ele><time>2026-05-01T14:34:12.001Z</time></trkpt><trkpt lat="48.13567261539364" lon="14.836496953239793"><ele>371.0</ele><time>2026-05-01T14:34:13.001Z</time></trkpt><trkpt lat="48.13580810605237" lon="14.836868061656784"><ele>372.0</ele><time>2026-05-01T14:34:14.001Z</time></trkpt><trkpt lat="48.13594908152986" lon="14.837257037205129"><ele>373.0</ele><time>2026-05-01T14:34:15.001Z</time></trkpt><trkpt lat="48.136091765722256" lon="14.837650249834756"><ele>373.0</ele><time>2026-05-01T14:34:16.001Z</time></trkpt><trkpt lat="48.13623659715061" lon="14.838048498536864"><ele>373.0</ele><time>2026-05-01T14:34:17.001Z</time></trkpt><trkpt lat="48.1363793977226" lon="14.838447744095026"><ele>373.0</ele><time>2026-05-01T14:34:18.001Z</time></trkpt><trkpt lat="48.136523019012046" lon="14.838844597281064"><ele>373.0</ele><time>2026-05-01T14:34:19.001Z</time></trkpt><trkpt lat="48.13666712201877" lon="14.83924000640537"><ele>372.5</ele><time>2026-05-01T14:34:20.001Z</time></trkpt><trkpt lat="48.136810613330645" lon="14.839634420521705"><ele>372.0</ele><time>2026-05-01T14:34:21.001Z</time></trkpt><trkpt lat="48.13695491165235" lon="14.840027726828055"><ele>373.0</ele><time>2026-05-01T14:34:22.001Z</time></trkpt><trkpt lat="48.137100414551234" lon="14.840419094281433"><ele>374.0</ele><time>2026-05-01T14:34:23.001Z</time></trkpt><trkpt lat="48.13724657311884" lon="14.840808760847871"><ele>373.5</ele><time>2026-05-01T14:34:24.001Z</time></trkpt><trkpt lat="48.13739485086762" lon="14.841198735174249"><ele>373.0</ele><time>2026-05-01T14:34:25.001Z</time></trkpt><trkpt lat="48.13754320662889" lon="14.84158978514598"><ele>374.0</ele><time>2026-05-01T14:34:26.001Z</time></trkpt><trkpt lat="48.13769331141177" lon="14.841979468781659"><ele>375.0</ele><time>2026-05-01T14:34:27.001Z</time></trkpt><trkpt lat="48.13784653676701" lon="14.842369022016337"><ele>377.0</ele><time>2026-05-01T14:34:28.001Z</time></trkpt><trkpt lat="48.13800456790409" lon="14.842757016464667"><ele>379.0</ele><time>2026-05-01T14:34:29.001Z</time></trkpt><trkpt lat="48.13816861287209" lon="14.84314080434734"><ele>378.0</ele><time>2026-05-01T14:34:30.001Z</time></trkpt><trkpt lat="48.13833820168205" lon="14.843519191818269"><ele>377.0</ele><time>2026-05-01T14:34:31.001Z</time></trkpt><trkpt lat="48.13851149204706" lon="14.843893082871256"><ele>377.0</ele><time>2026-05-01T14:34:32.001Z</time></trkpt><trkpt lat="48.13869125447455" lon="14.844263243536135"><ele>377.0</ele><time>2026-05-01T14:34:33.001Z</time></trkpt><trkpt lat="48.1388727900563" lon="14.844629540270708"><ele>376.5</ele><time>2026-05-01T14:34:34.001Z</time></trkpt><trkpt lat="48.139056511547295" lon="14.844990186545878"><ele>376.0</ele><time>2026-05-01T14:34:35.001Z</time></trkpt><trkpt lat="48.139241691864044" lon="14.845344177144415"><ele>376.0</ele><time>2026-05-01T14:34:36.001Z</time></trkpt><trkpt lat="48.13942867979412" lon="14.84569170007198"><ele>376.0</ele><time>2026-05-01T14:34:37.001Z</time></trkpt><trkpt lat="48.13962087171981" lon="14.846032793940054"><ele>375.5</ele><time>2026-05-01T14:34:38.001Z</time></trkpt><trkpt lat="48.139818567489804" lon="14.846369753456422"><ele>375.0</ele><time>2026-05-01T14:34:39.001Z</time></trkpt><trkpt lat="48.140016252347934" lon="14.846708781634185"><ele>374.0</ele><time>2026-05-01T14:34:40.001Z</time></trkpt><trkpt lat="48.140214014939055" lon="14.847049987515792"><ele>373.0</ele><time>2026-05-01T14:34:41.001Z</time></trkpt><trkpt lat="48.14041333885381" lon="14.847391837304821"><ele>373.5</ele><time>2026-05-01T14:34:42.001Z</time></trkpt><trkpt lat="48.14061532913742" lon="14.847731014580864"><ele>374.0</ele><time>2026-05-01T14:34:43.001Z</time></trkpt><trkpt lat="48.14082058579565" lon="14.848071920001507"><ele>375.0</ele><time>2026-05-01T14:34:44.001Z</time></trkpt><trkpt lat="48.141024430157394" lon="14.848412090198531"><ele>376.0</ele><time>2026-05-01T14:34:45.001Z</time></trkpt><trkpt lat="48.14122892564462" lon="14.848751255711504"><ele>376.5</ele><time>2026-05-01T14:34:46.001Z</time></trkpt><trkpt lat="48.14143298514297" lon="14.849089279493056"><ele>377.0</ele><time>2026-05-01T14:34:47.001Z</time></trkpt><trkpt lat="48.14163578907142" lon="14.849428971910543"><ele>375.0</ele><time>2026-05-01T14:34:48Z</time></trkpt><trkpt lat="48.14183673395332" lon="14.8497672486764"><ele>373.0</ele><time>2026-05-01T14:34:49Z</time></trkpt><trkpt lat="48.14203755326193" lon="14.850103906160307"><ele>372.5</ele><time>2026-05-01T14:34:50Z</time></trkpt><trkpt lat="48.14223898395541" lon="14.850437933722683"><ele>372.0</ele><time>2026-05-01T14:34:51Z</time></trkpt><trkpt lat="48.142438172745834" lon="14.85077321131418"><ele>368.5</ele><time>2026-05-01T14:34:52Z</time></trkpt><trkpt lat="48.14263194936219" lon="14.851113371528799"><ele>365.0</ele><time>2026-05-01T14:34:53Z</time></trkpt><trkpt lat="48.14282221276206" lon="14.851459455761681"><ele>362.5</ele><time>2026-05-01T14:34:54Z</time></trkpt><trkpt lat="48.143005501159784" lon="14.851816657201926"><ele>360.0</ele><time>2026-05-01T14:34:55Z</time></trkpt><trkpt lat="48.14318547081623" lon="14.852181077169757"><ele>360.5</ele><time>2026-05-01T14:34:56Z</time></trkpt><trkpt lat="48.14336038045597" lon="14.8525538142551"><ele>361.0</ele><time>2026-05-01T14:34:57Z</time></trkpt><trkpt lat="48.14353394635063" lon="14.8529316772111"><ele>358.5</ele><time>2026-05-01T14:34:58Z</time></trkpt><trkpt lat="48.14370123890353" lon="14.853316454826635"><ele>356.0</ele><time>2026-05-01T14:34:59Z</time></trkpt><trkpt lat="48.14385526281322" lon="14.853699484389201"><ele>357.5</ele><time>2026-05-01T14:35:00Z</time></trkpt><trkpt lat="48.14399478795158" lon="14.854072760395566"><ele>359.0</ele><time>2026-05-01T14:35:01Z</time></trkpt><trkpt lat="48.144126153842926" lon="14.85446576550459"><ele>359.0</ele><time>2026-05-01T14:35:02Z</time></trkpt><trkpt lat="48.14425257462435" lon="14.854871225551085"><ele>359.0</ele><time>2026-05-01T14:35:03Z</time></trkpt><trkpt lat="48.14436982314621" lon="14.855289324107622"><ele>358.5</ele><time>2026-05-01T14:35:04Z</time></trkpt><trkpt lat="48.14448308185583" lon="14.855714036772556"><ele>358.0</ele><time>2026-05-01T14:35:05Z</time></trkpt><trkpt lat="48.14459023779743" lon="14.85614602407665"><ele>356.5</ele><time>2026-05-01T14:35:06Z</time></trkpt><trkpt lat="48.1446910029233" lon="14.856580335401905"><ele>355.0</ele><time>2026-05-01T14:35:07Z</time></trkpt><trkpt lat="48.1447841358297" lon="14.85701910939107"><ele>353.5</ele><time>2026-05-01T14:35:08Z</time></trkpt><trkpt lat="48.14486953164649" lon="14.857457061731914"><ele>352.0</ele><time>2026-05-01T14:35:09Z</time></trkpt><trkpt lat="48.14494660395017" lon="14.85789465966546"><ele>354.5</ele><time>2026-05-01T14:35:10Z</time></trkpt><trkpt lat="48.14501754842812" lon="14.858331474806798"><ele>357.0</ele><time>2026-05-01T14:35:11Z</time></trkpt><trkpt lat="48.145078944950264" lon="14.85877229083757"><ele>357.0</ele><time>2026-05-01T14:35:12Z</time></trkpt><trkpt lat="48.14513061356374" lon="14.859215861301799"><ele>357.0</ele><time>2026-05-01T14:35:13Z</time></trkpt><trkpt lat="48.145179568466055" lon="14.859663571087944"><ele>358.0</ele><time>2026-05-01T14:35:14Z</time></trkpt><trkpt lat="48.14522585644651" lon="14.860112952848501"><ele>359.0</ele><time>2026-05-01T14:35:15Z</time></trkpt><trkpt lat="48.14527025154993" lon="14.860564461189135"><ele>359.5</ele><time>2026-05-01T14:35:16Z</time></trkpt><trkpt lat="48.14531337871045" lon="14.861015771522117"><ele>360.0</ele><time>2026-05-01T14:35:17Z</time></trkpt><trkpt lat="48.145354605593475" lon="14.861465416808935"><ele>359.5</ele><time>2026-05-01T14:35:18Z</time></trkpt><trkpt lat="48.14539314089097" lon="14.861913922929372"><ele>359.0</ele><time>2026-05-01T14:35:19Z</time></trkpt><trkpt lat="48.145430016893116" lon="14.862362263601709"><ele>358.5</ele><time>2026-05-01T14:35:20Z</time></trkpt><trkpt lat="48.145467051659985" lon="14.862809867283298"><ele>358.0</ele><time>2026-05-01T14:35:21Z</time></trkpt><trkpt lat="48.145502253067924" lon="14.863257360529662"><ele>358.0</ele><time>2026-05-01T14:35:22Z</time></trkpt><trkpt lat="48.145534270050796" lon="14.863705615825964"><ele>358.0</ele><time>2026-05-01T14:35:23Z</time></trkpt><trkpt lat="48.14556421977681" lon="14.86415511644688"><ele>358.0</ele><time>2026-05-01T14:35:24Z</time></trkpt><trkpt lat="48.14559208198739" lon="14.864606160975397"><ele>358.0</ele><time>2026-05-01T14:35:25Z</time></trkpt><trkpt lat="48.14562033260293" lon="14.865055917893619"><ele>357.5</ele><time>2026-05-01T14:35:26Z</time></trkpt><trkpt lat="48.14564981230475" lon="14.865505931797122"><ele>357.0</ele><time>2026-05-01T14:35:27Z</time></trkpt><trkpt lat="48.14567676383302" lon="14.865955046076538"><ele>358.5</ele><time>2026-05-01T14:35:28Z</time></trkpt><trkpt lat="48.14570199348671" lon="14.866402903085271"><ele>360.0</ele><time>2026-05-01T14:35:29Z</time></trkpt><trkpt lat="48.14572555045884" lon="14.866851279737148"><ele>360.0</ele><time>2026-05-01T14:35:30Z</time></trkpt><trkpt lat="48.14574940031167" lon="14.86729907126046"><ele>360.0</ele><time>2026-05-01T14:35:31Z</time></trkpt><trkpt lat="48.145772584679904" lon="14.867746504452159"><ele>360.5</ele><time>2026-05-01T14:35:32Z</time></trkpt><trkpt lat="48.14579561275471" lon="14.868192834485816"><ele>361.0</ele><time>2026-05-01T14:35:33Z</time></trkpt><trkpt lat="48.14581881280405" lon="14.86863645021061"><ele>362.0</ele><time>2026-05-01T14:35:34Z</time></trkpt><trkpt lat="48.14583936351816" lon="14.869079581836523"><ele>363.0</ele><time>2026-05-01T14:35:35Z</time></trkpt><trkpt lat="48.145858713221564" lon="14.869523175492544"><ele>363.0</ele><time>2026-05-01T14:35:36Z</time></trkpt><trkpt lat="48.145876653347976" lon="14.86996412489858"><ele>363.0</ele><time>2026-05-01T14:35:37Z</time></trkpt><trkpt lat="48.145895561500424" lon="14.87040319148626"><ele>363.0</ele><time>2026-05-01T14:35:38Z</time></trkpt><trkpt lat="48.145916520583704" lon="14.87084132737488"><ele>363.0</ele><time>2026-05-01T14:35:39Z</time></trkpt><trkpt lat="48.14593537037586" lon="14.871279251938972"><ele>363.5</ele><time>2026-05-01T14:35:40Z</time></trkpt><trkpt lat="48.14595470911471" lon="14.87171922685243"><ele>364.0</ele><time>2026-05-01T14:35:41Z</time></trkpt><trkpt lat="48.145972133890105" lon="14.872160169596098"><ele>364.0</ele><time>2026-05-01T14:35:42Z</time></trkpt><trkpt lat="48.14598789016132" lon="14.872601264772216"><ele>364.0</ele><time>2026-05-01T14:35:43Z</time></trkpt><trkpt lat="48.14600232527097" lon="14.873043344646419"><ele>364.5</ele><time>2026-05-01T14:35:44Z</time></trkpt><trkpt lat="48.146017603889995" lon="14.873487431265639"><ele>365.0</ele><time>2026-05-01T14:35:45Z</time></trkpt><trkpt lat="48.14603410968939" lon="14.873935169728915"><ele>364.5</ele><time>2026-05-01T14:35:46Z</time></trkpt><trkpt lat="48.14605111222943" lon="14.874383919032443"><ele>364.0</ele><time>2026-05-01T14:35:47Z</time></trkpt><trkpt lat="48.14606908866877" lon="14.874833634754422"><ele>363.5</ele><time>2026-05-01T14:35:48Z</time></trkpt><trkpt lat="48.1460867338087" lon="14.875284343055226"><ele>363.0</ele><time>2026-05-01T14:35:49Z</time></trkpt><trkpt lat="48.146106367704746" lon="14.875737293943802"><ele>362.5</ele><time>2026-05-01T14:35:50Z</time></trkpt><trkpt lat="48.146126096085545" lon="14.876193323101333"><ele>362.0</ele><time>2026-05-01T14:35:51Z</time></trkpt><trkpt lat="48.146147238216436" lon="14.876652011907188"><ele>362.0</ele><time>2026-05-01T14:35:52Z</time></trkpt><trkpt lat="48.14616939222669" lon="14.877112773962228"><ele>362.0</ele><time>2026-05-01T14:35:53Z</time></trkpt><trkpt lat="48.14618970877283" lon="14.877574134241003"><ele>362.0</ele><time>2026-05-01T14:35:54Z</time></trkpt><trkpt lat="48.14620782431038" lon="14.878033667827669"><ele>362.0</ele><time>2026-05-01T14:35:55.001Z</time></trkpt><trkpt lat="48.146224413364806" lon="14.878480066686182"><ele>360.0</ele><time>2026-05-01T14:35:56.001Z</time></trkpt><trkpt lat="48.146240027507254" lon="14.87891903735509"><ele>358.0</ele><time>2026-05-01T14:35:57.001Z</time></trkpt><trkpt lat="48.14625552807997" lon="14.879368606624027"><ele>356.0</ele><time>2026-05-01T14:35:58.001Z</time></trkpt><trkpt lat="48.14627421892217" lon="14.87982341876409"><ele>354.0</ele><time>2026-05-01T14:35:59.001Z</time></trkpt><trkpt lat="48.146294616584875" lon="14.8802820605999"><ele>353.0</ele><time>2026-05-01T14:36:00.001Z</time></trkpt><trkpt lat="48.14631070550108" lon="14.880744350124031"><ele>352.0</ele><time>2026-05-01T14:36:01.001Z</time></trkpt><trkpt lat="48.14632769147138" lon="14.881205069479627"><ele>351.0</ele><time>2026-05-01T14:36:02.001Z</time></trkpt><trkpt lat="48.1463441824976" lon="14.881665481705639"><ele>350.0</ele><time>2026-05-01T14:36:03.001Z</time></trkpt><trkpt lat="48.14636026194078" lon="14.882126133036127"><ele>348.0</ele><time>2026-05-01T14:36:04.001Z</time></trkpt><trkpt lat="48.146375050004465" lon="14.882583451390902"><ele>346.0</ele><time>2026-05-01T14:36:05.001Z</time></trkpt><trkpt lat="48.14639012742487" lon="14.883038864111313"><ele>345.0</ele><time>2026-05-01T14:36:06.001Z</time></trkpt><trkpt lat="48.146406091695404" lon="14.883492070549345"><ele>344.0</ele><time>2026-05-01T14:36:07.001Z</time></trkpt><trkpt lat="48.14642144209456" lon="14.883942889680995"><ele>345.0</ele><time>2026-05-01T14:36:08.001Z</time></trkpt><trkpt lat="48.14643750491099" lon="14.884392774635689"><ele>346.0</ele><time>2026-05-01T14:36:09.001Z</time></trkpt><trkpt lat="48.146456308166144" lon="14.884841640792873"><ele>346.0</ele><time>2026-05-01T14:36:10.001Z</time></trkpt><trkpt lat="48.14647384777656" lon="14.885291216000189"><ele>346.0</ele><time>2026-05-01T14:36:11.001Z</time></trkpt><trkpt lat="48.146489210878116" lon="14.885742415051684"><ele>345.5</ele><time>2026-05-01T14:36:12.001Z</time></trkpt><trkpt lat="48.14650388023793" lon="14.886193271388963"><ele>345.0</ele><time>2026-05-01T14:36:13.001Z</time></trkpt><trkpt lat="48.146518342368715" lon="14.886644674336642"><ele>346.0</ele><time>2026-05-01T14:36:14.001Z</time></trkpt><trkpt lat="48.14653355168879" lon="14.887096744027206"><ele>347.0</ele><time>2026-05-01T14:36:15.001Z</time></trkpt><trkpt lat="48.14654836096368" lon="14.887547768629878"><ele>350.0</ele><time>2026-05-01T14:36:16.001Z</time></trkpt><trkpt lat="48.14656445148296" lon="14.887999622641821"><ele>353.0</ele><time>2026-05-01T14:36:17.001Z</time></trkpt><trkpt lat="48.146580499251975" lon="14.888450797104085"><ele>353.5</ele><time>2026-05-01T14:36:18.001Z</time></trkpt><trkpt lat="48.14659668093044" lon="14.888900243182686"><ele>354.0</ele><time>2026-05-01T14:36:19.001Z</time></trkpt><trkpt lat="48.146612837275924" lon="14.88935055751072"><ele>355.0</ele><time>2026-05-01T14:36:20.001Z</time></trkpt><trkpt lat="48.14662922699618" lon="14.88980149863458"><ele>356.0</ele><time>2026-05-01T14:36:21.001Z</time></trkpt><trkpt lat="48.146644043943446" lon="14.890252692591929"><ele>357.0</ele><time>2026-05-01T14:36:22.001Z</time></trkpt><trkpt lat="48.14666102129178" lon="14.890704272943244"><ele>358.0</ele><time>2026-05-01T14:36:23.001Z</time></trkpt><trkpt lat="48.146678167964" lon="14.8911572650431"><ele>358.0</ele><time>2026-05-01T14:36:24.001Z</time></trkpt><trkpt lat="48.14669637338613" lon="14.891609862324392"><ele>358.0</ele><time>2026-05-01T14:36:25.001Z</time></trkpt><trkpt lat="48.1467137466262" lon="14.892063063585711"><ele>356.5</ele><time>2026-05-01T14:36:26.001Z</time></trkpt><trkpt lat="48.146732490329825" lon="14.892514584029987"><ele>355.0</ele><time>2026-05-01T14:36:27.001Z</time></trkpt><trkpt lat="48.14674978323486" lon="14.892965881212682"><ele>353.5</ele><time>2026-05-01T14:36:28.001Z</time></trkpt><trkpt lat="48.14676786683823" lon="14.893419045119188"><ele>352.0</ele><time>2026-05-01T14:36:29.001Z</time></trkpt><trkpt lat="48.14678413098273" lon="14.893870788200637"><ele>351.0</ele><time>2026-05-01T14:36:30.001Z</time></trkpt><trkpt lat="48.14680320667182" lon="14.894323911272885"><ele>350.0</ele><time>2026-05-01T14:36:31.001Z</time></trkpt><trkpt lat="48.146821748379836" lon="14.89477946487644"><ele>350.0</ele><time>2026-05-01T14:36:32.001Z</time></trkpt><trkpt lat="48.14684562181746" lon="14.895235167786256"><ele>350.0</ele><time>2026-05-01T14:36:33.001Z</time></trkpt><trkpt lat="48.14686797853796" lon="14.895693518462677"><ele>350.5</ele><time>2026-05-01T14:36:34.001Z</time></trkpt><trkpt lat="48.14689021901196" lon="14.896155521230419"><ele>351.0</ele><time>2026-05-01T14:36:35.001Z</time></trkpt><trkpt lat="48.14691009251576" lon="14.89661786026373"><ele>352.0</ele><time>2026-05-01T14:36:36.001Z</time></trkpt><trkpt lat="48.14692857002023" lon="14.89708131226604"><ele>353.0</ele><time>2026-05-01T14:36:37.001Z</time></trkpt><trkpt lat="48.14694296680517" lon="14.897539075829563"><ele>355.0</ele><time>2026-05-01T14:36:38.001Z</time></trkpt><trkpt lat="48.146958043108384" lon="14.898002982520444"><ele>357.0</ele><time>2026-05-01T14:36:39.001Z</time></trkpt><trkpt lat="48.14697338793924" lon="14.898461478134491"><ele>357.5</ele><time>2026-05-01T14:36:40.001Z</time></trkpt><trkpt lat="48.14699225083129" lon="14.898916634340178"><ele>358.0</ele><time>2026-05-01T14:36:41.001Z</time></trkpt><trkpt lat="48.14701466722169" lon="14.89937286532875"><ele>358.0</ele><time>2026-05-01T14:36:42.001Z</time></trkpt><trkpt lat="48.14702531450612" lon="14.899830531932924"><ele>358.0</ele><time>2026-05-01T14:36:43.001Z</time></trkpt><trkpt lat="48.14703669068131" lon="14.900285711215453"><ele>357.0</ele><time>2026-05-01T14:36:44.001Z</time></trkpt><trkpt lat="48.147041164517944" lon="14.900746086084562"><ele>356.0</ele><time>2026-05-01T14:36:45.001Z</time></trkpt><trkpt lat="48.147046310983285" lon="14.901207453958973"><ele>355.5</ele><time>2026-05-01T14:36:46.001Z</time></trkpt><trkpt lat="48.14705258383984" lon="14.901668704448799"><ele>355.0</ele><time>2026-05-01T14:36:47.001Z</time></trkpt><trkpt lat="48.14705817991905" lon="14.902130940618413"><ele>353.5</ele><time>2026-05-01T14:36:48.001Z</time></trkpt><trkpt lat="48.14706448406114" lon="14.902589801475058"><ele>352.0</ele><time>2026-05-01T14:36:49.001Z</time></trkpt><trkpt lat="48.14706858423311" lon="14.903047463050578"><ele>352.0</ele><time>2026-05-01T14:36:50.001Z</time></trkpt><trkpt lat="48.14706585617946" lon="14.903503972890205"><ele>352.0</ele><time>2026-05-01T14:36:51.001Z</time></trkpt><trkpt lat="48.14705799404548" lon="14.903960767477388"><ele>351.0</ele><time>2026-05-01T14:36:52.001Z</time></trkpt><trkpt lat="48.14704721996908" lon="14.904416062901392"><ele>350.0</ele><time>2026-05-01T14:36:53.001Z</time></trkpt><trkpt lat="48.14703073116334" lon="14.904870264889833"><ele>348.0</ele><time>2026-05-01T14:36:54Z</time></trkpt><trkpt lat="48.1470114877382" lon="14.905323672979288"><ele>346.0</ele><time>2026-05-01T14:36:55Z</time></trkpt><trkpt lat="48.14698570103498" lon="14.905778220126729"><ele>345.5</ele><time>2026-05-01T14:36:56Z</time></trkpt><trkpt lat="48.146950885425966" lon="14.906232329671521"><ele>345.0</ele><time>2026-05-01T14:36:57Z</time></trkpt><trkpt lat="48.14690743871382" lon="14.906685254381172"><ele>344.5</ele><time>2026-05-01T14:36:58Z</time></trkpt><trkpt lat="48.146856818287965" lon="14.907136572056139"><ele>344.0</ele><time>2026-05-01T14:36:59Z</time></trkpt><trkpt lat="48.146800656093696" lon="14.90758601836578"><ele>343.0</ele><time>2026-05-01T14:37:00Z</time></trkpt><trkpt lat="48.1467372548863" lon="14.908031175000946"><ele>342.0</ele><time>2026-05-01T14:37:01Z</time></trkpt><trkpt lat="48.14667041205208" lon="14.90846701795588"><ele>340.5</ele><time>2026-05-01T14:37:02Z</time></trkpt><trkpt lat="48.14659917424583" lon="14.908879799549855"><ele>339.0</ele><time>2026-05-01T14:37:03Z</time></trkpt><trkpt lat="48.14651815221398" lon="14.909302453762201"><ele>339.0</ele><time>2026-05-01T14:37:04Z</time></trkpt><trkpt lat="48.146426058081936" lon="14.90972923206599"><ele>339.0</ele><time>2026-05-01T14:37:05Z</time></trkpt><trkpt lat="48.14632744227947" lon="14.910160062448654"><ele>336.5</ele><time>2026-05-01T14:37:06Z</time></trkpt><trkpt lat="48.146222051090625" lon="14.910593536284539"><ele>334.0</ele><time>2026-05-01T14:37:07Z</time></trkpt><trkpt lat="48.14610949389134" lon="14.911027228802835"><ele>332.5</ele><time>2026-05-01T14:37:08Z</time></trkpt><trkpt lat="48.145990626050384" lon="14.91145378450798"><ele>331.0</ele><time>2026-05-01T14:37:09Z</time></trkpt><trkpt lat="48.145864818246366" lon="14.911868374864003"><ele>328.0</ele><time>2026-05-01T14:37:10Z</time></trkpt><trkpt lat="48.14573245800439" lon="14.91227406289422"><ele>325.0</ele><time>2026-05-01T14:37:11Z</time></trkpt><trkpt lat="48.145591476079176" lon="14.912677703577362"><ele>322.0</ele><time>2026-05-01T14:37:12Z</time></trkpt><trkpt lat="48.14544461802975" lon="14.913078840426554"><ele>319.0</ele><time>2026-05-01T14:37:13Z</time></trkpt><trkpt lat="48.14529197955835" lon="14.91347752682044"><ele>317.5</ele><time>2026-05-01T14:37:14Z</time></trkpt><trkpt lat="48.1451332687833" lon="14.913870611405626"><ele>316.0</ele><time>2026-05-01T14:37:15Z</time></trkpt><trkpt lat="48.14496825781775" lon="14.91425944930594"><ele>315.5</ele><time>2026-05-01T14:37:16Z</time></trkpt><trkpt lat="48.144798464711556" lon="14.914644553916423"><ele>315.0</ele><time>2026-05-01T14:37:17Z</time></trkpt><trkpt lat="48.14462644837845" lon="14.915024646921626"><ele>313.0</ele><time>2026-05-01T14:37:18Z</time></trkpt><trkpt lat="48.14444841838997" lon="14.91539445446364"><ele>311.0</ele><time>2026-05-01T14:37:19Z</time></trkpt><trkpt lat="48.144265674356625" lon="14.915757618835526"><ele>309.0</ele><time>2026-05-01T14:37:20Z</time></trkpt><trkpt lat="48.144079961607346" lon="14.916117237224082"><ele>307.0</ele><time>2026-05-01T14:37:21Z</time></trkpt><trkpt lat="48.143893310923026" lon="14.916476146809838"><ele>305.0</ele><time>2026-05-01T14:37:22Z</time></trkpt><trkpt lat="48.14370441039101" lon="14.91683431778905"><ele>303.0</ele><time>2026-05-01T14:37:23Z</time></trkpt><trkpt lat="48.14351186117432" lon="14.917189115325773"><ele>303.0</ele><time>2026-05-01T14:37:24Z</time></trkpt><trkpt lat="48.14331824916882" lon="14.917544943851134"><ele>303.0</ele><time>2026-05-01T14:37:25Z</time></trkpt><trkpt lat="48.143123181262524" lon="14.91790034800703"><ele>300.0</ele><time>2026-05-01T14:37:26Z</time></trkpt><trkpt lat="48.14292681901745" lon="14.918253908448072"><ele>297.0</ele><time>2026-05-01T14:37:27Z</time></trkpt><trkpt lat="48.14272891894449" lon="14.918606883746513"><ele>296.5</ele><time>2026-05-01T14:37:28Z</time></trkpt><trkpt lat="48.142528848648375" lon="14.918959653676797"><ele>296.0</ele><time>2026-05-01T14:37:29Z</time></trkpt><trkpt lat="48.142331615727265" lon="14.919316413287964"><ele>293.5</ele><time>2026-05-01T14:37:30Z</time></trkpt><trkpt lat="48.14213515748527" lon="14.919674830451278"><ele>291.0</ele><time>2026-05-01T14:37:31Z</time></trkpt><trkpt lat="48.14193966578162" lon="14.920035633226634"><ele>292.0</ele><time>2026-05-01T14:37:32Z</time></trkpt><trkpt lat="48.14174576345759" lon="14.920397812763698"><ele>293.0</ele><time>2026-05-01T14:37:33Z</time></trkpt><trkpt lat="48.141557846321106" lon="14.920760939723417"><ele>291.5</ele><time>2026-05-01T14:37:34Z</time></trkpt><trkpt lat="48.141373203625925" lon="14.921123863198362"><ele>290.0</ele><time>2026-05-01T14:37:35Z</time></trkpt><trkpt lat="48.14119252397005" lon="14.921487661696103"><ele>292.0</ele><time>2026-05-01T14:37:36Z</time></trkpt><trkpt lat="48.14101715872074" lon="14.921847571619828"><ele>294.0</ele><time>2026-05-01T14:37:37Z</time></trkpt><trkpt lat="48.14085301782421" lon="14.92218886360367"><ele>293.0</ele><time>2026-05-01T14:37:38Z</time></trkpt><trkpt lat="48.14069904679023" lon="14.92251658914177"><ele>292.0</ele><time>2026-05-01T14:37:39Z</time></trkpt><trkpt lat="48.140551612198365" lon="14.922833970222955"><ele>291.5</ele><time>2026-05-01T14:37:40Z</time></trkpt><trkpt lat="48.14041142378771" lon="14.923146189655574"><ele>291.0</ele><time>2026-05-01T14:37:41Z</time></trkpt><trkpt lat="48.140282013845194" lon="14.92344793221416"><ele>291.0</ele><time>2026-05-01T14:37:42Z</time></trkpt><trkpt lat="48.14016503969095" lon="14.923740247764451"><ele>291.0</ele><time>2026-05-01T14:37:43Z</time></trkpt><trkpt lat="48.14005670124291" lon="14.924026238366483"><ele>291.0</ele><time>2026-05-01T14:37:44Z</time></trkpt><trkpt lat="48.13995467142558" lon="14.924303657250107"><ele>289.3333333333333</ele><time>2026-05-01T14:37:45Z</time></trkpt><trkpt lat="48.13985672525143" lon="14.924575071495463"><ele>287.66666666666663</ele><time>2026-05-01T14:37:46Z</time></trkpt><trkpt lat="48.13975658216142" lon="14.924849389267958"><ele>286.0</ele><time>2026-05-01T14:37:47Z</time></trkpt><trkpt lat="48.13965903122933" lon="14.925128199710882"><ele>286.0</ele><time>2026-05-01T14:37:48Z</time></trkpt><trkpt lat="48.13956464160961" lon="14.925407356373633"><ele>286.0</ele><time>2026-05-01T14:37:49Z</time></trkpt><trkpt lat="48.139474886011385" lon="14.925687466803259"><ele>286.0</ele><time>2026-05-01T14:37:50Z</time></trkpt><trkpt lat="48.139389795625625" lon="14.925966127613927"><ele>286.66666666666663</ele><time>2026-05-01T14:37:51Z</time></trkpt><trkpt lat="48.139307534121016" lon="14.926243531819052"><ele>287.3333333333333</ele><time>2026-05-01T14:37:52Z</time></trkpt><trkpt lat="48.13922987523206" lon="14.9265210823438"><ele>288.0</ele><time>2026-05-01T14:37:53Z</time></trkpt><trkpt lat="48.13915410387888" lon="14.926802722739922"><ele>288.3333333333333</ele><time>2026-05-01T14:37:54Z</time></trkpt><trkpt lat="48.13908182935632" lon="14.927085279829248"><ele>288.66666666666663</ele><time>2026-05-01T14:37:55Z</time></trkpt><trkpt lat="48.139012049527956" lon="14.927370712217451"><ele>289.0</ele><time>2026-05-01T14:37:56Z</time></trkpt><trkpt lat="48.13894373911427" lon="14.92765894177346"><ele>293.0</ele><time>2026-05-01T14:37:57Z</time></trkpt><trkpt lat="48.13888048601061" lon="14.927951121279202"><ele>297.0</ele><time>2026-05-01T14:37:58Z</time></trkpt><trkpt lat="48.1388191430578" lon="14.928245843612583"><ele>301.0</ele><time>2026-05-01T14:37:59Z</time></trkpt><trkpt lat="48.13875971936037" lon="14.928540571842555"><ele>301.0</ele><time>2026-05-01T14:38:00Z</time></trkpt><trkpt lat="48.138703885462824" lon="14.92883651241981"><ele>301.0</ele><time>2026-05-01T14:38:01Z</time></trkpt><trkpt lat="48.138651298579425" lon="14.929132276732503"><ele>301.0</ele><time>2026-05-01T14:38:02Z</time></trkpt><trkpt lat="48.138604056562166" lon="14.929430393572094"><ele>301.0</ele><time>2026-05-01T14:38:03Z</time></trkpt><trkpt lat="48.13856123534021" lon="14.929730077006939"><ele>301.0</ele><time>2026-05-01T14:38:04Z</time></trkpt><trkpt lat="48.138521247323766" lon="14.93002842243112"><ele>301.0</ele><time>2026-05-01T14:38:05.001Z</time></trkpt><trkpt lat="48.138482999237894" lon="14.930325195371278"><ele>301.3333333333333</ele><time>2026-05-01T14:38:06.001Z</time></trkpt><trkpt lat="48.138444358193624" lon="14.930622446605442"><ele>301.6666666666667</ele><time>2026-05-01T14:38:07.001Z</time></trkpt><trkpt lat="48.13840900455792" lon="14.93091888115466"><ele>302.0</ele><time>2026-05-01T14:38:08.001Z</time></trkpt><trkpt lat="48.13837655736598" lon="14.93121291219943"><ele>302.0</ele><time>2026-05-01T14:38:09.001Z</time></trkpt><trkpt lat="48.138347029576174" lon="14.931504372731622"><ele>302.0</ele><time>2026-05-01T14:38:10.001Z</time></trkpt><trkpt lat="48.13832032334811" lon="14.931792332276691"><ele>302.0</ele><time>2026-05-01T14:38:11.001Z</time></trkpt><trkpt lat="48.13829880620225" lon="14.93207979020546"><ele>302.6666666666667</ele><time>2026-05-01T14:38:12.001Z</time></trkpt><trkpt lat="48.138280645966034" lon="14.932366660619408"><ele>303.3333333333333</ele><time>2026-05-01T14:38:13.001Z</time></trkpt><trkpt lat="48.13826574564569" lon="14.932652077383127"><ele>304.0</ele><time>2026-05-01T14:38:14.001Z</time></trkpt><trkpt lat="48.138252057274144" lon="14.93293552841118"><ele>304.3333333333333</ele><time>2026-05-01T14:38:15.001Z</time></trkpt><trkpt lat="48.13824036735904" lon="14.933220996702818"><ele>304.6666666666667</ele><time>2026-05-01T14:38:16.001Z</time></trkpt><trkpt lat="48.13823051439706" lon="14.933508889414949"><ele>305.0</ele><time>2026-05-01T14:38:17.001Z</time></trkpt><trkpt lat="48.13822657620183" lon="14.933796514709757"><ele>305.0</ele><time>2026-05-01T14:38:18.001Z</time></trkpt><trkpt lat="48.138221328882345" lon="14.934070823080628"><ele>305.0</ele><time>2026-05-01T14:38:19.001Z</time></trkpt><trkpt lat="48.13821957926984" lon="14.93433660428577"><ele>305.0</ele><time>2026-05-01T14:38:20.001Z</time></trkpt><trkpt lat="48.13821902068296" lon="14.934602712798213"><ele>303.6666666666667</ele><time>2026-05-01T14:38:21.001Z</time></trkpt><trkpt lat="48.13822151766064" lon="14.93486762552428"><ele>302.3333333333333</ele><time>2026-05-01T14:38:22.001Z</time></trkpt><trkpt lat="48.138224887096804" lon="14.935134316377107"><ele>301.0</ele><time>2026-05-01T14:38:23.001Z</time></trkpt><trkpt lat="48.1382304292393" lon="14.93540196411604"><ele>300.3333333333333</ele><time>2026-05-01T14:38:24.001Z</time></trkpt><trkpt lat="48.13823806049108" lon="14.93567017638272"><ele>299.6666666666667</ele><time>2026-05-01T14:38:25.001Z</time></trkpt><trkpt lat="48.1382468474172" lon="14.935940317342551"><ele>299.0</ele><time>2026-05-01T14:38:26.001Z</time></trkpt><trkpt lat="48.138257514441044" lon="14.936213611698948"><ele>298.6666666666667</ele><time>2026-05-01T14:38:27.001Z</time></trkpt><trkpt lat="48.138271223309665" lon="14.936490185933843"><ele>298.3333333333333</ele><time>2026-05-01T14:38:28.001Z</time></trkpt><trkpt lat="48.13828493837912" lon="14.936769013760498"><ele>298.0</ele><time>2026-05-01T14:38:29.001Z</time></trkpt><trkpt lat="48.13830040957559" lon="14.93705239038388"><ele>298.0</ele><time>2026-05-01T14:38:30.001Z</time></trkpt><trkpt lat="48.13831851198063" lon="14.93733929500779"><ele>298.0</ele><time>2026-05-01T14:38:31.001Z</time></trkpt><trkpt lat="48.138336799528105" lon="14.937627220889901"><ele>298.0</ele><time>2026-05-01T14:38:32.001Z</time></trkpt><trkpt lat="48.138355714568746" lon="14.937917074424337"><ele>298.3333333333333</ele><time>2026-05-01T14:38:33.001Z</time></trkpt><trkpt lat="48.138376042478015" lon="14.938209220489746"><ele>298.6666666666667</ele><time>2026-05-01T14:38:34.001Z</time></trkpt><trkpt lat="48.138396629649264" lon="14.938503133810066"><ele>299.0</ele><time>2026-05-01T14:38:35.001Z</time></trkpt><trkpt lat="48.13841990260422" lon="14.938799336056269"><ele>298.33333333333337</ele><time>2026-05-01T14:38:36.001Z</time></trkpt><trkpt lat="48.138442576265135" lon="14.939096970622112"><ele>297.6666666666667</ele><time>2026-05-01T14:38:37.001Z</time></trkpt><trkpt lat="48.13846614316646" lon="14.939397178838401"><ele>297.0</ele><time>2026-05-01T14:38:38.001Z</time></trkpt><trkpt lat="48.13849045226695" lon="14.939697924730432"><ele>296.6666666666667</ele><time>2026-05-01T14:38:39.001Z</time></trkpt><trkpt lat="48.13851441871811" lon="14.94000033510027"><ele>296.33333333333337</ele><time>2026-05-01T14:38:40.001Z</time></trkpt><trkpt lat="48.13853530214962" lon="14.940300328147533"><ele>296.0</ele><time>2026-05-01T14:38:41.001Z</time></trkpt><trkpt lat="48.13855444147538" lon="14.940590640129091"><ele>296.0</ele><time>2026-05-01T14:38:42.001Z</time></trkpt><trkpt lat="48.13857190169776" lon="14.940867195253587"><ele>296.0</ele><time>2026-05-01T14:38:43.001Z</time></trkpt><trkpt lat="48.1385904925409" lon="14.94114708452782"><ele>296.0</ele><time>2026-05-01T14:38:44.001Z</time></trkpt><trkpt lat="48.13861376196945" lon="14.941431228452492"><ele>298.6666666666667</ele><time>2026-05-01T14:38:45.001Z</time></trkpt><trkpt lat="48.138633172628815" lon="14.941723771349574"><ele>301.3333333333333</ele><time>2026-05-01T14:38:46.001Z</time></trkpt><trkpt lat="48.1386514432249" lon="14.942018577853474"><ele>304.0</ele><time>2026-05-01T14:38:47.001Z</time></trkpt><trkpt lat="48.13867672852394" lon="14.94231666387829"><ele>306.0</ele><time>2026-05-01T14:38:48.001Z</time></trkpt><trkpt lat="48.13870028997433" lon="14.9426156083009"><ele>308.0</ele><time>2026-05-01T14:38:49.001Z</time></trkpt><trkpt lat="48.13872236345149" lon="14.94291758109689"><ele>310.0</ele><time>2026-05-01T14:38:50.001Z</time></trkpt><trkpt lat="48.13874334350263" lon="14.943220701302867"><ele>312.3333333333333</ele><time>2026-05-01T14:38:51.001Z</time></trkpt><trkpt lat="48.138764647492366" lon="14.943523978209805"><ele>314.6666666666667</ele><time>2026-05-01T14:38:52.001Z</time></trkpt><trkpt lat="48.138784664895965" lon="14.943830804745753"><ele>317.0</ele><time>2026-05-01T14:38:53.001Z</time></trkpt><trkpt lat="48.13880346603916" lon="14.944140647612011"><ele>318.6666666666667</ele><time>2026-05-01T14:38:54.001Z</time></trkpt><trkpt lat="48.13882156920704" lon="14.944463064129842"><ele>320.3333333333333</ele><time>2026-05-01T14:38:55.001Z</time></trkpt><trkpt lat="48.13884038914098" lon="14.944798012519321"><ele>322.0</ele><time>2026-05-01T14:38:56.001Z</time></trkpt><trkpt lat="48.13886021328314" lon="14.945143031527094"><ele>325.0</ele><time>2026-05-01T14:38:57.001Z</time></trkpt><trkpt lat="48.13887816906098" lon="14.945500944382403"><ele>328.0</ele><time>2026-05-01T14:38:58.001Z</time></trkpt><trkpt lat="48.13889856118423" lon="14.945867797703153"><ele>331.5</ele><time>2026-05-01T14:38:59.001Z</time></trkpt><trkpt lat="48.13891831279479" lon="14.946246222525746"><ele>335.0</ele><time>2026-05-01T14:39:00Z</time></trkpt><trkpt lat="48.13893024538673" lon="14.946610521670024"><ele>339.0</ele><time>2026-05-01T14:39:01Z</time></trkpt><trkpt lat="48.1389419517139" lon="14.946977704335023"><ele>343.0</ele><time>2026-05-01T14:39:02Z</time></trkpt><trkpt lat="48.138956532038485" lon="14.947350012262499"><ele>343.0</ele><time>2026-05-01T14:39:03Z</time></trkpt><trkpt lat="48.13896609808877" lon="14.947724840660566"><ele>343.0</ele><time>2026-05-01T14:39:04Z</time></trkpt><trkpt lat="48.13897326841182" lon="14.948097240042781"><ele>341.5</ele><time>2026-05-01T14:39:05Z</time></trkpt><trkpt lat="48.13898264589609" lon="14.948466842201018"><ele>340.0</ele><time>2026-05-01T14:39:06Z</time></trkpt><trkpt lat="48.138986140121276" lon="14.948832374583189"><ele>340.0</ele><time>2026-05-01T14:39:07Z</time></trkpt><trkpt lat="48.138991654269994" lon="14.949187302902109"><ele>340.0</ele><time>2026-05-01T14:39:08Z</time></trkpt><trkpt lat="48.138993319878665" lon="14.949522700629549"><ele>339.0</ele><time>2026-05-01T14:39:09Z</time></trkpt><trkpt lat="48.13898977345551" lon="14.949854065003661"><ele>338.0</ele><time>2026-05-01T14:39:10Z</time></trkpt><trkpt lat="48.13898525758774" lon="14.950200282658962"><ele>335.5</ele><time>2026-05-01T14:39:11Z</time></trkpt><trkpt lat="48.138977756697756" lon="14.950556159411343"><ele>333.0</ele><time>2026-05-01T14:39:12Z</time></trkpt><trkpt lat="48.13896961530004" lon="14.950921708929242"><ele>332.0</ele><time>2026-05-01T14:39:13Z</time></trkpt><trkpt lat="48.13896166226846" lon="14.951294347067789"><ele>331.0</ele><time>2026-05-01T14:39:14Z</time></trkpt><trkpt lat="48.138952046881556" lon="14.95167297460924"><ele>330.5</ele><time>2026-05-01T14:39:15Z</time></trkpt><trkpt lat="48.13894215671109" lon="14.952055800244127"><ele>330.0</ele><time>2026-05-01T14:39:16Z</time></trkpt><trkpt lat="48.13893414258665" lon="14.952444812019754"><ele>328.0</ele><time>2026-05-01T14:39:17Z</time></trkpt><trkpt lat="48.13892141559799" lon="14.952835488348542"><ele>326.0</ele><time>2026-05-01T14:39:18Z</time></trkpt><trkpt lat="48.138908166528644" lon="14.953225662668622"><ele>324.0</ele><time>2026-05-01T14:39:19Z</time></trkpt><trkpt lat="48.13889192284608" lon="14.953614795458302"><ele>322.0</ele><time>2026-05-01T14:39:20Z</time></trkpt><trkpt lat="48.13887280726606" lon="14.953992799254296"><ele>320.0</ele><time>2026-05-01T14:39:21Z</time></trkpt><trkpt lat="48.138849712832226" lon="14.954377625628878"><ele>318.0</ele><time>2026-05-01T14:39:22Z</time></trkpt><trkpt lat="48.13882435179488" lon="14.95477028075354"><ele>318.0</ele><time>2026-05-01T14:39:23Z</time></trkpt><trkpt lat="48.13879895279542" lon="14.95516801473877"><ele>318.0</ele><time>2026-05-01T14:39:24Z</time></trkpt><trkpt lat="48.138774273645396" lon="14.955579369121772"><ele>318.0</ele><time>2026-05-01T14:39:25Z</time></trkpt><trkpt lat="48.13874808197998" lon="14.95600577778576"><ele>318.0</ele><time>2026-05-01T14:39:26Z</time></trkpt><trkpt lat="48.13871807178656" lon="14.956439942438932"><ele>317.5</ele><time>2026-05-01T14:39:27Z</time></trkpt><trkpt lat="48.13868509025689" lon="14.956882293983524"><ele>317.0</ele><time>2026-05-01T14:39:28Z</time></trkpt><trkpt lat="48.13864659552077" lon="14.957329967151772"><ele>315.0</ele><time>2026-05-01T14:39:29Z</time></trkpt><trkpt lat="48.138600962435774" lon="14.957777996339065"><ele>313.0</ele><time>2026-05-01T14:39:30Z</time></trkpt><trkpt lat="48.13855119451764" lon="14.958225417764822"><ele>311.0</ele><time>2026-05-01T14:39:31Z</time></trkpt><trkpt lat="48.13850053961746" lon="14.958672484355608"><ele>309.0</ele><time>2026-05-01T14:39:32Z</time></trkpt><trkpt lat="48.138452767947726" lon="14.959122333118065"><ele>309.0</ele><time>2026-05-01T14:39:33Z</time></trkpt><trkpt lat="48.138405299309355" lon="14.959573601428856"><ele>309.0</ele><time>2026-05-01T14:39:34Z</time></trkpt><trkpt lat="48.13835873126782" lon="14.960024212296208"><ele>310.0</ele><time>2026-05-01T14:39:35Z</time></trkpt><trkpt lat="48.13831116130061" lon="14.960471383379948"><ele>311.0</ele><time>2026-05-01T14:39:36Z</time></trkpt><trkpt lat="48.13826160936244" lon="14.960913961989666"><ele>311.5</ele><time>2026-05-01T14:39:37Z</time></trkpt><trkpt lat="48.138210813313016" lon="14.961351257500612"><ele>312.0</ele><time>2026-05-01T14:39:38Z</time></trkpt><trkpt lat="48.13816224579702" lon="14.961782306178735"><ele>312.0</ele><time>2026-05-01T14:39:39Z</time></trkpt><trkpt lat="48.1381150242028" lon="14.962203301520411"><ele>312.0</ele><time>2026-05-01T14:39:40Z</time></trkpt><trkpt lat="48.138068536692515" lon="14.962620820442819"><ele>310.0</ele><time>2026-05-01T14:39:41Z</time></trkpt><trkpt lat="48.13802362185386" lon="14.963037602685233"><ele>308.0</ele><time>2026-05-01T14:39:42Z</time></trkpt><trkpt lat="48.13797765136935" lon="14.963453856403255"><ele>307.0</ele><time>2026-05-01T14:39:43Z</time></trkpt><trkpt lat="48.13793173972121" lon="14.963871335824921"><ele>306.0</ele><time>2026-05-01T14:39:44Z</time></trkpt><trkpt lat="48.13788574749892" lon="14.964290948774492"><ele>306.0</ele><time>2026-05-01T14:39:45Z</time></trkpt><trkpt lat="48.1378404220119" lon="14.964713477055074"><ele>306.0</ele><time>2026-05-01T14:39:46Z</time></trkpt><trkpt lat="48.137795527468214" lon="14.96513859168537"><ele>305.0</ele><time>2026-05-01T14:39:47Z</time></trkpt><trkpt lat="48.137751675451874" lon="14.965566871148965"><ele>304.0</ele><time>2026-05-01T14:39:48Z</time></trkpt><trkpt lat="48.13770698185683" lon="14.965997089064379"><ele>303.0</ele><time>2026-05-01T14:39:49Z</time></trkpt><trkpt lat="48.137659459070825" lon="14.966427604116436"><ele>302.0</ele><time>2026-05-01T14:39:50Z</time></trkpt><trkpt lat="48.137611064862" lon="14.96685658445224"><ele>301.0</ele><time>2026-05-01T14:39:51Z</time></trkpt><trkpt lat="48.137561213771065" lon="14.967285649255551"><ele>300.0</ele><time>2026-05-01T14:39:52Z</time></trkpt><trkpt lat="48.13751179165177" lon="14.967713175798805"><ele>299.0</ele><time>2026-05-01T14:39:53Z</time></trkpt><trkpt lat="48.13746266313706" lon="14.968143437152161"><ele>298.0</ele><time>2026-05-01T14:39:54Z</time></trkpt><trkpt lat="48.13741611092903" lon="14.96857378980323"><ele>298.0</ele><time>2026-05-01T14:39:55Z</time></trkpt><trkpt lat="48.13737175311524" lon="14.969003874364718"><ele>298.0</ele><time>2026-05-01T14:39:56Z</time></trkpt><trkpt lat="48.137327365284435" lon="14.969432554062816"><ele>297.0</ele><time>2026-05-01T14:39:57Z</time></trkpt><trkpt lat="48.137282704487795" lon="14.969859848071698"><ele>296.0</ele><time>2026-05-01T14:39:58Z</time></trkpt><trkpt lat="48.13723509343335" lon="14.970285096215184"><ele>295.5</ele><time>2026-05-01T14:39:59Z</time></trkpt><trkpt lat="48.13718553910761" lon="14.970708844537088"><ele>295.0</ele><time>2026-05-01T14:40:00Z</time></trkpt><trkpt lat="48.13713641928993" lon="14.971132642859995"><ele>293.5</ele><time>2026-05-01T14:40:01Z</time></trkpt><trkpt lat="48.137087753304215" lon="14.971559162710436"><ele>292.0</ele><time>2026-05-01T14:40:02Z</time></trkpt><trkpt lat="48.13704133154248" lon="14.971988017633809"><ele>290.0</ele><time>2026-05-01T14:40:03Z</time></trkpt><trkpt lat="48.13699681370314" lon="14.972418535405945"><ele>288.0</ele><time>2026-05-01T14:40:04Z</time></trkpt><trkpt lat="48.136951483128364" lon="14.972852655881372"><ele>284.5</ele><time>2026-05-01T14:40:05Z</time></trkpt><trkpt lat="48.136905514797064" lon="14.973288658312782"><ele>281.0</ele><time>2026-05-01T14:40:06Z</time></trkpt><trkpt lat="48.13685791277335" lon="14.973724809453618"><ele>280.5</ele><time>2026-05-01T14:40:07Z</time></trkpt><trkpt lat="48.13681065572797" lon="14.974162314300967"><ele>280.0</ele><time>2026-05-01T14:40:08Z</time></trkpt><trkpt lat="48.13676271262433" lon="14.974599648307688"><ele>276.5</ele><time>2026-05-01T14:40:09Z</time></trkpt><trkpt lat="48.136714566907706" lon="14.975035880852152"><ele>273.0</ele><time>2026-05-01T14:40:10Z</time></trkpt><trkpt lat="48.13666615599623" lon="14.975471309438056"><ele>271.5</ele><time>2026-05-01T14:40:11Z</time></trkpt><trkpt lat="48.1366158035182" lon="14.975904840789191"><ele>270.0</ele><time>2026-05-01T14:40:12.001Z</time></trkpt><trkpt lat="48.1365657704807" lon="14.976336864628712"><ele>269.0</ele><time>2026-05-01T14:40:13.001Z</time></trkpt><trkpt lat="48.13651281701795" lon="14.97676782610587"><ele>268.0</ele><time>2026-05-01T14:40:14.001Z</time></trkpt><trkpt lat="48.13645993258967" lon="14.977195644259682"><ele>267.0</ele><time>2026-05-01T14:40:15.001Z</time></trkpt><trkpt lat="48.13640579053049" lon="14.977623155942949"><ele>266.0</ele><time>2026-05-01T14:40:16.001Z</time></trkpt><trkpt lat="48.13634804037221" lon="14.978047394744443"><ele>265.5</ele><time>2026-05-01T14:40:17.001Z</time></trkpt><trkpt lat="48.13628670119687" lon="14.978469128765214"><ele>265.0</ele><time>2026-05-01T14:40:18.001Z</time></trkpt><trkpt lat="48.1362247282339" lon="14.978891114679557"><ele>264.0</ele><time>2026-05-01T14:40:19.001Z</time></trkpt><trkpt lat="48.13616152462888" lon="14.979316124620532"><ele>263.0</ele><time>2026-05-01T14:40:20.001Z</time></trkpt><trkpt lat="48.136096304973904" lon="14.979742606086305"><ele>261.5</ele><time>2026-05-01T14:40:21.001Z</time></trkpt><trkpt lat="48.13602818822378" lon="14.980168641840002"><ele>260.0</ele><time>2026-05-01T14:40:22.001Z</time></trkpt><trkpt lat="48.135957226534764" lon="14.98059237713463"><ele>260.0</ele><time>2026-05-01T14:40:23.001Z</time></trkpt><trkpt lat="48.13588341183411" lon="14.981011195477059"><ele>260.0</ele><time>2026-05-01T14:40:24.001Z</time></trkpt><trkpt lat="48.13580901599996" lon="14.981428868579123"><ele>258.0</ele><time>2026-05-01T14:40:25.001Z</time></trkpt><trkpt lat="48.13573309191353" lon="14.981831876174137"><ele>256.0</ele><time>2026-05-01T14:40:26.001Z</time></trkpt><trkpt lat="48.1356556928634" lon="14.982226944337684"><ele>259.0</ele><time>2026-05-01T14:40:27.001Z</time></trkpt><trkpt lat="48.1355748887297" lon="14.982633622987917"><ele>262.0</ele><time>2026-05-01T14:40:28.001Z</time></trkpt><trkpt lat="48.13548985424302" lon="14.983044600146474"><ele>263.0</ele><time>2026-05-01T14:40:29.001Z</time></trkpt><trkpt lat="48.13539908481743" lon="14.98346014829336"><ele>264.0</ele><time>2026-05-01T14:40:30.001Z</time></trkpt><trkpt lat="48.13531067185048" lon="14.983885657533097"><ele>264.0</ele><time>2026-05-01T14:40:31.001Z</time></trkpt><trkpt lat="48.13521769999728" lon="14.98431340247875"><ele>264.0</ele><time>2026-05-01T14:40:32.001Z</time></trkpt><trkpt lat="48.13511953020044" lon="14.984742471931176"><ele>265.0</ele><time>2026-05-01T14:40:33.001Z</time></trkpt><trkpt lat="48.135019857183906" lon="14.98517463338106"><ele>266.0</ele><time>2026-05-01T14:40:34.001Z</time></trkpt><trkpt lat="48.134915550509284" lon="14.985607097373293"><ele>265.0</ele><time>2026-05-01T14:40:35.001Z</time></trkpt><trkpt lat="48.13480839569528" lon="14.986039180589"><ele>264.0</ele><time>2026-05-01T14:40:36.001Z</time></trkpt><trkpt lat="48.134699073164086" lon="14.986465721023185"><ele>264.5</ele><time>2026-05-01T14:40:37.001Z</time></trkpt><trkpt lat="48.134589321567084" lon="14.986886945855044"><ele>265.0</ele><time>2026-05-01T14:40:38.001Z</time></trkpt><trkpt lat="48.134478367498716" lon="14.987305054320691"><ele>265.5</ele><time>2026-05-01T14:40:39.001Z</time></trkpt><trkpt lat="48.13436574224415" lon="14.987723598584758"><ele>266.0</ele><time>2026-05-01T14:40:40.001Z</time></trkpt><trkpt lat="48.134249837083686" lon="14.988143302794745"><ele>266.0</ele><time>2026-05-01T14:40:41.001Z</time></trkpt><trkpt lat="48.1341326583056" lon="14.988560672671554"><ele>266.0</ele><time>2026-05-01T14:40:42.001Z</time></trkpt><trkpt lat="48.13401206446635" lon="14.98897709483873"><ele>264.5</ele><time>2026-05-01T14:40:43.001Z</time></trkpt><trkpt lat="48.13389010687675" lon="14.989394471657473"><ele>263.0</ele><time>2026-05-01T14:40:44.001Z</time></trkpt><trkpt lat="48.13376754136058" lon="14.98981264602754"><ele>263.5</ele><time>2026-05-01T14:40:45.001Z</time></trkpt><trkpt lat="48.13364231349387" lon="14.990229581692436"><ele>264.0</ele><time>2026-05-01T14:40:46.001Z</time></trkpt><trkpt lat="48.13351754168021" lon="14.990645756836091"><ele>264.0</ele><time>2026-05-01T14:40:47.001Z</time></trkpt><trkpt lat="48.133392801541504" lon="14.991060573682566"><ele>264.0</ele><time>2026-05-01T14:40:48.001Z</time></trkpt><trkpt lat="48.13326714553883" lon="14.991474010817955"><ele>261.5</ele><time>2026-05-01T14:40:49.001Z</time></trkpt><trkpt lat="48.133140225326656" lon="14.99188373838962"><ele>259.0</ele><time>2026-05-01T14:40:50.001Z</time></trkpt><trkpt lat="48.1330143902159" lon="14.99229254875941"><ele>260.0</ele><time>2026-05-01T14:40:51.001Z</time></trkpt><trkpt lat="48.13288840781537" lon="14.992700696648317"><ele>261.0</ele><time>2026-05-01T14:40:52.001Z</time></trkpt><trkpt lat="48.13276102334801" lon="14.993106828705743"><ele>261.5</ele><time>2026-05-01T14:40:53.001Z</time></trkpt><trkpt lat="48.13263260216688" lon="14.993514906494742"><ele>262.0</ele><time>2026-05-01T14:40:54.001Z</time></trkpt><trkpt lat="48.13250208851856" lon="14.99392282689115"><ele>260.5</ele><time>2026-05-01T14:40:55.001Z</time></trkpt><trkpt lat="48.132369720606185" lon="14.994330224983198"><ele>259.0</ele><time>2026-05-01T14:40:56.001Z</time></trkpt><trkpt lat="48.1322379789636" lon="14.994740245396404"><ele>259.5</ele><time>2026-05-01T14:40:57.001Z</time></trkpt><trkpt lat="48.13210784358036" lon="14.995150041789369"><ele>260.0</ele><time>2026-05-01T14:40:58.001Z</time></trkpt><trkpt lat="48.131978262487976" lon="14.995559893716225"><ele>260.5</ele><time>2026-05-01T14:40:59.001Z</time></trkpt><trkpt lat="48.1318497747353" lon="14.995969896656376"><ele>261.0</ele><time>2026-05-01T14:41:00.001Z</time></trkpt><trkpt lat="48.13172140438068" lon="14.996377883030496"><ele>262.0</ele><time>2026-05-01T14:41:01.001Z</time></trkpt><trkpt lat="48.13159454398449" lon="14.996784223789014"><ele>263.0</ele><time>2026-05-01T14:41:02.001Z</time></trkpt><trkpt lat="48.13146688949419" lon="14.997189598672884"><ele>260.5</ele><time>2026-05-01T14:41:03.001Z</time></trkpt><trkpt lat="48.13133800552673" lon="14.997594972574788"><ele>258.0</ele><time>2026-05-01T14:41:04.001Z</time></trkpt><trkpt lat="48.13121075649973" lon="14.9980013124561"><ele>259.0</ele><time>2026-05-01T14:41:05.001Z</time></trkpt><trkpt lat="48.13108362832549" lon="14.99840700947537"><ele>260.0</ele><time>2026-05-01T14:41:06Z</time></trkpt><trkpt lat="48.130957268359566" lon="14.998812683486275"><ele>261.0</ele><time>2026-05-01T14:41:07Z</time></trkpt><trkpt lat="48.13083035133728" lon="14.999218468555538"><ele>262.0</ele><time>2026-05-01T14:41:08Z</time></trkpt><trkpt lat="48.13070475166554" lon="14.999624397521305"><ele>259.0</ele><time>2026-05-01T14:41:09Z</time></trkpt><trkpt lat="48.13058301727394" lon="15.000029507638684"><ele>256.0</ele><time>2026-05-01T14:41:10Z</time></trkpt><trkpt lat="48.13046291576333" lon="15.000433693722307"><ele>259.0</ele><time>2026-05-01T14:41:11Z</time></trkpt><trkpt lat="48.1303435105768" lon="15.000837573772644"><ele>262.0</ele><time>2026-05-01T14:41:12Z</time></trkpt><trkpt lat="48.13022477577631" lon="15.00124358397333"><ele>262.0</ele><time>2026-05-01T14:41:13Z</time></trkpt><trkpt lat="48.13010971753476" lon="15.001650140056993"><ele>262.0</ele><time>2026-05-01T14:41:14Z</time></trkpt><trkpt lat="48.12999680225404" lon="15.002057410338976"><ele>266.5</ele><time>2026-05-01T14:41:15Z</time></trkpt><trkpt lat="48.12988727549757" lon="15.002465122614254"><ele>271.0</ele><time>2026-05-01T14:41:16Z</time></trkpt><trkpt lat="48.12978458596488" lon="15.002873670948656"><ele>271.0</ele><time>2026-05-01T14:41:17Z</time></trkpt><trkpt lat="48.12968408377927" lon="15.003285819645367"><ele>271.0</ele><time>2026-05-01T14:41:18Z</time></trkpt><trkpt lat="48.129588698331325" lon="15.003699383539022"><ele>269.0</ele><time>2026-05-01T14:41:19Z</time></trkpt><trkpt lat="48.12949829462872" lon="15.00411450793972"><ele>267.0</ele><time>2026-05-01T14:41:20Z</time></trkpt><trkpt lat="48.129411005261915" lon="15.004529749324256"><ele>264.5</ele><time>2026-05-01T14:41:21Z</time></trkpt><trkpt lat="48.129327207977724" lon="15.004947155911442"><ele>262.0</ele><time>2026-05-01T14:41:22Z</time></trkpt><trkpt lat="48.12924919277852" lon="15.005366836216389"><ele>258.0</ele><time>2026-05-01T14:41:23Z</time></trkpt><trkpt lat="48.12917723208443" lon="15.005790899913354"><ele>254.0</ele><time>2026-05-01T14:41:24Z</time></trkpt><trkpt lat="48.12911059028445" lon="15.006219055543728"><ele>248.5</ele><time>2026-05-01T14:41:25Z</time></trkpt><trkpt lat="48.12904849024589" lon="15.006651081494011"><ele>243.0</ele><time>2026-05-01T14:41:26Z</time></trkpt><trkpt lat="48.128993251460265" lon="15.007087422847286"><ele>242.0</ele><time>2026-05-01T14:41:27Z</time></trkpt><trkpt lat="48.12894104944496" lon="15.007524242659292"><ele>241.0</ele><time>2026-05-01T14:41:28Z</time></trkpt><trkpt lat="48.12889311972778" lon="15.007964390498403"><ele>241.0</ele><time>2026-05-01T14:41:29Z</time></trkpt><trkpt lat="48.12885033648125" lon="15.008406850503594"><ele>241.0</ele><time>2026-05-01T14:41:30Z</time></trkpt><trkpt lat="48.12881312640519" lon="15.008851202361145"><ele>241.0</ele><time>2026-05-01T14:41:31Z</time></trkpt><trkpt lat="48.1287811297057" lon="15.009296437977692"><ele>241.0</ele><time>2026-05-01T14:41:32Z</time></trkpt><trkpt lat="48.128756082882816" lon="15.009742680099027"><ele>240.5</ele><time>2026-05-01T14:41:33Z</time></trkpt><trkpt lat="48.128737041370556" lon="15.010187790278499"><ele>240.0</ele><time>2026-05-01T14:41:34Z</time></trkpt><trkpt lat="48.128725915447525" lon="15.010633469526027"><ele>239.5</ele><time>2026-05-01T14:41:35Z</time></trkpt><trkpt lat="48.128720043436324" lon="15.01108024611567"><ele>239.0</ele><time>2026-05-01T14:41:36Z</time></trkpt><trkpt lat="48.12871899385211" lon="15.011527429900445"><ele>240.0</ele><time>2026-05-01T14:41:37Z</time></trkpt><trkpt lat="48.128724867312094" lon="15.011974835568823"><ele>241.0</ele><time>2026-05-01T14:41:38Z</time></trkpt><trkpt lat="48.12873678032786" lon="15.01242199521515"><ele>240.5</ele><time>2026-05-01T14:41:39Z</time></trkpt><trkpt lat="48.12875164885633" lon="15.012868755162867"><ele>240.0</ele><time>2026-05-01T14:41:40Z</time></trkpt><trkpt lat="48.128763865457735" lon="15.013313874450057"><ele>240.5</ele><time>2026-05-01T14:41:41Z</time></trkpt><trkpt lat="48.12878975281942" lon="15.013764407775811"><ele>241.0</ele><time>2026-05-01T14:41:42Z</time></trkpt><trkpt lat="48.12882143477761" lon="15.014214092105266"><ele>241.0</ele><time>2026-05-01T14:41:43Z</time></trkpt><trkpt lat="48.12885810301971" lon="15.014664113071749"><ele>241.0</ele><time>2026-05-01T14:41:44Z</time></trkpt><trkpt lat="48.12890299551904" lon="15.015114985901745"><ele>240.0</ele><time>2026-05-01T14:41:45Z</time></trkpt><trkpt lat="48.12895251550105" lon="15.015567267033125"><ele>239.0</ele><time>2026-05-01T14:41:46Z</time></trkpt><trkpt lat="48.12900518416182" lon="15.016019804783083"><ele>239.0</ele><time>2026-05-01T14:41:47Z</time></trkpt><trkpt lat="48.12906067055746" lon="15.016472232455675"><ele>239.0</ele><time>2026-05-01T14:41:48Z</time></trkpt><trkpt lat="48.12911649179549" lon="15.01692433458323"><ele>238.5</ele><time>2026-05-01T14:41:49Z</time></trkpt><trkpt lat="48.12917235533118" lon="15.017374110628456"><ele>238.0</ele><time>2026-05-01T14:41:50Z</time></trkpt><trkpt lat="48.12922864360641" lon="15.017822260613928"><ele>238.0</ele><time>2026-05-01T14:41:51Z</time></trkpt><trkpt lat="48.129289205010586" lon="15.018255847535954"><ele>238.0</ele><time>2026-05-01T14:41:52Z</time></trkpt><trkpt lat="48.12935245975582" lon="15.018696797906008"><ele>238.0</ele><time>2026-05-01T14:41:53Z</time></trkpt><trkpt lat="48.12941760705112" lon="15.019147826125984"><ele>238.0</ele><time>2026-05-01T14:41:54Z</time></trkpt><trkpt lat="48.12948217730874" lon="15.019601616966952"><ele>237.0</ele><time>2026-05-01T14:41:55Z</time></trkpt><trkpt lat="48.12954409297239" lon="15.02005545326306"><ele>236.0</ele><time>2026-05-01T14:41:56Z</time></trkpt><trkpt lat="48.129598859736106" lon="15.020511412320076"><ele>235.5</ele><time>2026-05-01T14:41:57Z</time></trkpt><trkpt lat="48.12965251326298" lon="15.02096544702953"><ele>235.0</ele><time>2026-05-01T14:41:58Z</time></trkpt><trkpt lat="48.129705659262285" lon="15.021418377458955"><ele>235.5</ele><time>2026-05-01T14:41:59Z</time></trkpt><trkpt lat="48.12976209385072" lon="15.021867348564818"><ele>236.0</ele><time>2026-05-01T14:42:00Z</time></trkpt><trkpt lat="48.129825846750286" lon="15.02231055121705"><ele>236.5</ele><time>2026-05-01T14:42:01Z</time></trkpt><trkpt lat="48.12989330501807" lon="15.02274950574879"><ele>237.0</ele><time>2026-05-01T14:42:02Z</time></trkpt><trkpt lat="48.12996110696271" lon="15.023188328859245"><ele>236.5</ele><time>2026-05-01T14:42:03Z</time></trkpt><trkpt lat="48.130025826857" lon="15.023627636047724"><ele>236.0</ele><time>2026-05-01T14:42:04Z</time></trkpt><trkpt lat="48.13008893146585" lon="15.024067210086075"><ele>236.0</ele><time>2026-05-01T14:42:05Z</time></trkpt><trkpt lat="48.13015407032872" lon="15.024507653429655"><ele>236.0</ele><time>2026-05-01T14:42:06Z</time></trkpt><trkpt lat="48.13021794814017" lon="15.024949230751615"><ele>236.0</ele><time>2026-05-01T14:42:07Z</time></trkpt><trkpt lat="48.1302806582737" lon="15.025393699034895"><ele>236.0</ele><time>2026-05-01T14:42:08Z</time></trkpt><trkpt lat="48.13034437956506" lon="15.025839421849321"><ele>236.0</ele><time>2026-05-01T14:42:09Z</time></trkpt><trkpt lat="48.130407601797984" lon="15.026284311753175"><ele>236.0</ele><time>2026-05-01T14:42:10Z</time></trkpt><trkpt lat="48.13047249709712" lon="15.026729049336568"><ele>237.0</ele><time>2026-05-01T14:42:11Z</time></trkpt><trkpt lat="48.13054064915614" lon="15.027173699584784"><ele>238.0</ele><time>2026-05-01T14:42:12Z</time></trkpt><trkpt lat="48.13060920948494" lon="15.027619462660487"><ele>239.5</ele><time>2026-05-01T14:42:13Z</time></trkpt><trkpt lat="48.130675895045876" lon="15.02806589704713"><ele>241.0</ele><time>2026-05-01T14:42:14Z</time></trkpt><trkpt lat="48.13073811624254" lon="15.028513096695196"><ele>238.0</ele><time>2026-05-01T14:42:15Z</time></trkpt><trkpt lat="48.13079887467177" lon="15.028960626093125"><ele>235.0</ele><time>2026-05-01T14:42:16Z</time></trkpt><trkpt lat="48.13086016505123" lon="15.029407335547829"><ele>235.0</ele><time>2026-05-01T14:42:17Z</time></trkpt><trkpt lat="48.130921870962" lon="15.029852899198461"><ele>235.0</ele><time>2026-05-01T14:42:18Z</time></trkpt><trkpt lat="48.13098435690692" lon="15.030297162448727"><ele>234.5</ele><time>2026-05-01T14:42:19Z</time></trkpt><trkpt lat="48.131046612767975" lon="15.030740299267066"><ele>234.0</ele><time>2026-05-01T14:42:20Z</time></trkpt><trkpt lat="48.1311097898613" lon="15.03118109761627"><ele>234.0</ele><time>2026-05-01T14:42:21Z</time></trkpt><trkpt lat="48.13117389670819" lon="15.031620425127612"><ele>234.0</ele><time>2026-05-01T14:42:22Z</time></trkpt><trkpt lat="48.13123765302905" lon="15.032060285328832"><ele>233.5</ele><time>2026-05-01T14:42:23Z</time></trkpt><trkpt lat="48.131301670689005" lon="15.032503347854325"><ele>233.0</ele><time>2026-05-01T14:42:24.001Z</time></trkpt><trkpt lat="48.131365744449695" lon="15.032945244784703"><ele>233.0</ele><time>2026-05-01T14:42:25.001Z</time></trkpt><trkpt lat="48.13143087683809" lon="15.033388208494296"><ele>233.0</ele><time>2026-05-01T14:42:26.001Z</time></trkpt><trkpt lat="48.131494064128894" lon="15.033833410154784"><ele>233.5</ele><time>2026-05-01T14:42:27.001Z</time></trkpt><trkpt lat="48.1315582762608" lon="15.034276789005947"><ele>234.0</ele><time>2026-05-01T14:42:28.001Z</time></trkpt><trkpt lat="48.13162587563166" lon="15.034715826262273"><ele>234.0</ele><time>2026-05-01T14:42:29.001Z</time></trkpt><trkpt lat="48.13169917876689" lon="15.035155242020519"><ele>234.0</ele><time>2026-05-01T14:42:30.001Z</time></trkpt><trkpt lat="48.13177394059453" lon="15.035598600425892"><ele>234.0</ele><time>2026-05-01T14:42:31.001Z</time></trkpt><trkpt lat="48.13184657972254" lon="15.036045518686244"><ele>234.0</ele><time>2026-05-01T14:42:32.001Z</time></trkpt><trkpt lat="48.13191607118701" lon="15.036492064921697"><ele>233.0</ele><time>2026-05-01T14:42:33.001Z</time></trkpt><trkpt lat="48.131982524436616" lon="15.036940097684859"><ele>232.0</ele><time>2026-05-01T14:42:34.001Z</time></trkpt><trkpt lat="48.13204280869985" lon="15.037389524692406"><ele>232.0</ele><time>2026-05-01T14:42:35.001Z</time></trkpt><trkpt lat="48.13209465933963" lon="15.037839897217465"><ele>232.0</ele><time>2026-05-01T14:42:36.001Z</time></trkpt><trkpt lat="48.132142684580394" lon="15.038289534862198"><ele>232.0</ele><time>2026-05-01T14:42:37.001Z</time></trkpt><trkpt lat="48.13219434426886" lon="15.038737180357181"><ele>232.0</ele><time>2026-05-01T14:42:38.001Z</time></trkpt><trkpt lat="48.132253843611196" lon="15.039181504906713"><ele>232.0</ele><time>2026-05-01T14:42:39.001Z</time></trkpt><trkpt lat="48.13231897441679" lon="15.039621276114255"><ele>232.0</ele><time>2026-05-01T14:42:40.001Z</time></trkpt><trkpt lat="48.132386411458036" lon="15.040057642179105"><ele>231.5</ele><time>2026-05-01T14:42:41.001Z</time></trkpt><trkpt lat="48.13245104949069" lon="15.040492146320506"><ele>231.0</ele><time>2026-05-01T14:42:42.001Z</time></trkpt><trkpt lat="48.13251332911303" lon="15.04092706304801"><ele>231.0</ele><time>2026-05-01T14:42:43.001Z</time></trkpt><trkpt lat="48.13257638629106" lon="15.041361963642991"><ele>231.0</ele><time>2026-05-01T14:42:44.001Z</time></trkpt><trkpt lat="48.132639326257674" lon="15.041795663510204"><ele>232.0</ele><time>2026-05-01T14:42:45.001Z</time></trkpt><trkpt lat="48.13270118635592" lon="15.042228958717663"><ele>233.0</ele><time>2026-05-01T14:42:46.001Z</time></trkpt><trkpt lat="48.1327645089822" lon="15.04266229369363"><ele>233.0</ele><time>2026-05-01T14:42:47.001Z</time></trkpt><trkpt lat="48.13282952409581" lon="15.043094812469185"><ele>233.0</ele><time>2026-05-01T14:42:48.001Z</time></trkpt><trkpt lat="48.132894739371515" lon="15.043528300632719"><ele>233.0</ele><time>2026-05-01T14:42:49.001Z</time></trkpt><trkpt lat="48.13295939559627" lon="15.043963273827144"><ele>233.0</ele><time>2026-05-01T14:42:50.001Z</time></trkpt><trkpt lat="48.133022176501754" lon="15.04439923456321"><ele>232.0</ele><time>2026-05-01T14:42:51.001Z</time></trkpt><trkpt lat="48.1330841588838" lon="15.044837497494594"><ele>231.0</ele><time>2026-05-01T14:42:52.001Z</time></trkpt><trkpt lat="48.13314575075659" lon="15.045275442523465"><ele>231.0</ele><time>2026-05-01T14:42:53.001Z</time></trkpt><trkpt lat="48.13320761977506" lon="15.045714943764198"><ele>231.0</ele><time>2026-05-01T14:42:54.001Z</time></trkpt><trkpt lat="48.13327013242562" lon="15.04615589384184"><ele>231.0</ele><time>2026-05-01T14:42:55.001Z</time></trkpt><trkpt lat="48.133336148005185" lon="15.04659861935802"><ele>231.0</ele><time>2026-05-01T14:42:56.001Z</time></trkpt><trkpt lat="48.13340632849047" lon="15.047041865304458"><ele>230.5</ele><time>2026-05-01T14:42:57.001Z</time></trkpt><trkpt lat="48.133479027882494" lon="15.047485674979432"><ele>230.0</ele><time>2026-05-01T14:42:58.001Z</time></trkpt><trkpt lat="48.133555530115494" lon="15.047930397862052"><ele>230.5</ele><time>2026-05-01T14:42:59.001Z</time></trkpt><trkpt lat="48.13363247915424" lon="15.04837586058365"><ele>231.0</ele><time>2026-05-01T14:43:00.001Z</time></trkpt><trkpt lat="48.13371428798997" lon="15.048819260447644"><ele>230.0</ele><time>2026-05-01T14:43:01.001Z</time></trkpt><trkpt lat="48.1337981910283" lon="15.049261078912442"><ele>229.0</ele><time>2026-05-01T14:43:02.001Z</time></trkpt><trkpt lat="48.13388223864215" lon="15.049699499475357"><ele>229.0</ele><time>2026-05-01T14:43:03.001Z</time></trkpt><trkpt lat="48.13396780761792" lon="15.050137203089697"><ele>229.0</ele><time>2026-05-01T14:43:04.001Z</time></trkpt><trkpt lat="48.13405695458045" lon="15.050574347266377"><ele>230.5</ele><time>2026-05-01T14:43:05.001Z</time></trkpt><trkpt lat="48.13414812336856" lon="15.05101011541216"><ele>232.0</ele><time>2026-05-01T14:43:06.001Z</time></trkpt><trkpt lat="48.13424215519644" lon="15.051444759389025"><ele>232.0</ele><time>2026-05-01T14:43:07.001Z</time></trkpt><trkpt lat="48.13433882564982" lon="15.051878226239188"><ele>232.0</ele><time>2026-05-01T14:43:08.001Z</time></trkpt><trkpt lat="48.13444045545037" lon="15.052308134919327"><ele>230.5</ele><time>2026-05-01T14:43:09.001Z</time></trkpt><trkpt lat="48.13454600102513" lon="15.052735555646573"><ele>229.0</ele><time>2026-05-01T14:43:10.001Z</time></trkpt><trkpt lat="48.134653726634845" lon="15.053161922159338"><ele>228.5</ele><time>2026-05-01T14:43:11.001Z</time></trkpt><trkpt lat="48.13476634408084" lon="15.05358726256122"><ele>228.0</ele><time>2026-05-01T14:43:12Z</time></trkpt><trkpt lat="48.13488136405632" lon="15.054012508183787"><ele>230.0</ele><time>2026-05-01T14:43:13Z</time></trkpt><trkpt lat="48.13499912059077" lon="15.0544365599743"><ele>232.0</ele><time>2026-05-01T14:43:14Z</time></trkpt><trkpt lat="48.13512153152118" lon="15.05485816576029"><ele>231.5</ele><time>2026-05-01T14:43:15Z</time></trkpt><trkpt lat="48.13524735795804" lon="15.055277809355607"><ele>231.0</ele><time>2026-05-01T14:43:16Z</time></trkpt><trkpt lat="48.13537776583042" lon="15.055695778683862"><ele>229.5</ele><time>2026-05-01T14:43:17Z</time></trkpt><trkpt lat="48.13551121412066" lon="15.056111386122085"><ele>228.0</ele><time>2026-05-01T14:43:18Z</time></trkpt><trkpt lat="48.13564578751746" lon="15.056523769536273"><ele>229.0</ele><time>2026-05-01T14:43:19Z</time></trkpt><trkpt lat="48.13578050508284" lon="15.056923887859181"><ele>230.0</ele><time>2026-05-01T14:43:20Z</time></trkpt><trkpt lat="48.13591344666237" lon="15.057316867491712"><ele>229.0</ele><time>2026-05-01T14:43:21Z</time></trkpt><trkpt lat="48.13605272921705" lon="15.057717027757688"><ele>228.0</ele><time>2026-05-01T14:43:22Z</time></trkpt><trkpt lat="48.136195712340516" lon="15.058118949261578"><ele>227.5</ele><time>2026-05-01T14:43:23Z</time></trkpt><trkpt lat="48.1363434651742" lon="15.058524025271723"><ele>227.0</ele><time>2026-05-01T14:43:24Z</time></trkpt><trkpt lat="48.13649722730329" lon="15.058923928520146"><ele>228.0</ele><time>2026-05-01T14:43:25Z</time></trkpt><trkpt lat="48.13665507544755" lon="15.05931843983914"><ele>229.0</ele><time>2026-05-01T14:43:26Z</time></trkpt><trkpt lat="48.13681427976611" lon="15.059712214587446"><ele>229.5</ele><time>2026-05-01T14:43:27Z</time></trkpt><trkpt lat="48.136972741825446" lon="15.060104520041929"><ele>230.0</ele><time>2026-05-01T14:43:28Z</time></trkpt><trkpt lat="48.13713417478281" lon="15.06049732463817"><ele>230.0</ele><time>2026-05-01T14:43:29Z</time></trkpt><trkpt lat="48.137293253797424" lon="15.0608891229134"><ele>230.0</ele><time>2026-05-01T14:43:30Z</time></trkpt><trkpt lat="48.13745462642271" lon="15.061281442719348"><ele>230.0</ele><time>2026-05-01T14:43:31Z</time></trkpt><trkpt lat="48.13761613533995" lon="15.061673263650643"><ele>230.0</ele><time>2026-05-01T14:43:32Z</time></trkpt><trkpt lat="48.13778046887951" lon="15.06206342970998"><ele>229.5</ele><time>2026-05-01T14:43:33Z</time></trkpt><trkpt lat="48.13794583710479" lon="15.06245157469291"><ele>229.0</ele><time>2026-05-01T14:43:34Z</time></trkpt><trkpt lat="48.13811333286067" lon="15.062839204409602"><ele>229.0</ele><time>2026-05-01T14:43:35Z</time></trkpt><trkpt lat="48.13828279266836" lon="15.063224481473858"><ele>229.0</ele><time>2026-05-01T14:43:36Z</time></trkpt><trkpt lat="48.13845252347873" lon="15.063605646769913"><ele>229.5</ele><time>2026-05-01T14:43:37Z</time></trkpt><trkpt lat="48.13862028398352" lon="15.06398568010874"><ele>230.0</ele><time>2026-05-01T14:43:38Z</time></trkpt><trkpt lat="48.13878869036939" lon="15.064366464039825"><ele>230.0</ele><time>2026-05-01T14:43:39Z</time></trkpt><trkpt lat="48.13895643418896" lon="15.06475063166543"><ele>230.0</ele><time>2026-05-01T14:43:40Z</time></trkpt><trkpt lat="48.139123326730626" lon="15.065136663244061"><ele>229.5</ele><time>2026-05-01T14:43:41Z</time></trkpt><trkpt lat="48.13929018655926" lon="15.065522027461435"><ele>229.0</ele><time>2026-05-01T14:43:42Z</time></trkpt><trkpt lat="48.13945615803879" lon="15.065906404493742"><ele>229.0</ele><time>2026-05-01T14:43:43Z</time></trkpt><trkpt lat="48.13961999661878" lon="15.066287558260937"><ele>229.0</ele><time>2026-05-01T14:43:44Z</time></trkpt><trkpt lat="48.13978370925779" lon="15.06666697239315"><ele>229.0</ele><time>2026-05-01T14:43:45Z</time></trkpt><trkpt lat="48.13994824209935" lon="15.067045846320312"><ele>229.0</ele><time>2026-05-01T14:43:46Z</time></trkpt><trkpt lat="48.140111765970076" lon="15.06742758575152"><ele>228.5</ele><time>2026-05-01T14:43:47Z</time></trkpt><trkpt lat="48.14027885182311" lon="15.067807669083537"><ele>228.0</ele><time>2026-05-01T14:43:48Z</time></trkpt><trkpt lat="48.14044598931739" lon="15.068186521292118"><ele>228.0</ele><time>2026-05-01T14:43:49Z</time></trkpt><trkpt lat="48.140610309610835" lon="15.068564040817156"><ele>228.0</ele><time>2026-05-01T14:43:50Z</time></trkpt><trkpt lat="48.140773952270806" lon="15.06893393209359"><ele>226.5</ele><time>2026-05-01T14:43:51Z</time></trkpt><trkpt lat="48.14093787413936" lon="15.06929830599564"><ele>225.0</ele><time>2026-05-01T14:43:52Z</time></trkpt><trkpt lat="48.14110797376462" lon="15.069664140775627"><ele>226.0</ele><time>2026-05-01T14:43:53Z</time></trkpt><trkpt lat="48.141281494351645" lon="15.070034895223285"><ele>227.0</ele><time>2026-05-01T14:43:54Z</time></trkpt><trkpt lat="48.14145653277224" lon="15.070411603371928"><ele>227.5</ele><time>2026-05-01T14:43:55Z</time></trkpt><trkpt lat="48.14163141809807" lon="15.070796614639418"><ele>228.0</ele><time>2026-05-01T14:43:56Z</time></trkpt><trkpt lat="48.1418039708574" lon="15.07118506552488"><ele>228.0</ele><time>2026-05-01T14:43:57Z</time></trkpt><trkpt lat="48.141973087294936" lon="15.07157147372776"><ele>228.0</ele><time>2026-05-01T14:43:58Z</time></trkpt><trkpt lat="48.142140360600756" lon="15.071954908635297"><ele>228.5</ele><time>2026-05-01T14:43:59Z</time></trkpt><trkpt lat="48.14230683836209" lon="15.072335744107848"><ele>229.0</ele><time>2026-05-01T14:44:00Z</time></trkpt><trkpt lat="48.142473406017324" lon="15.072715989848705"><ele>227.5</ele><time>2026-05-01T14:44:01Z</time></trkpt><trkpt lat="48.142639035442286" lon="15.073096628063334"><ele>226.0</ele><time>2026-05-01T14:44:02Z</time></trkpt><trkpt lat="48.14280314591753" lon="15.073478946205528"><ele>225.5</ele><time>2026-05-01T14:44:03Z</time></trkpt><trkpt lat="48.1429662526257" lon="15.073862957875614"><ele>225.0</ele><time>2026-05-01T14:44:04Z</time></trkpt><trkpt lat="48.14312592456717" lon="15.074249173303869"><ele>226.0</ele><time>2026-05-01T14:44:05Z</time></trkpt><trkpt lat="48.14328567424527" lon="15.074637754061515"><ele>227.0</ele><time>2026-05-01T14:44:06Z</time></trkpt><trkpt lat="48.14344810674229" lon="15.075025642393493"><ele>227.0</ele><time>2026-05-01T14:44:07Z</time></trkpt><trkpt lat="48.14361051412398" lon="15.075407190046647"><ele>227.0</ele><time>2026-05-01T14:44:08Z</time></trkpt><trkpt lat="48.14377452321921" lon="15.075783974403604"><ele>227.0</ele><time>2026-05-01T14:44:09Z</time></trkpt><trkpt lat="48.14393989526729" lon="15.07615936225755"><ele>227.0</ele><time>2026-05-01T14:44:10Z</time></trkpt><trkpt lat="48.144106791680485" lon="15.076534157094654"><ele>228.0</ele><time>2026-05-01T14:44:11Z</time></trkpt><trkpt lat="48.144273447901575" lon="15.076908867023084"><ele>229.0</ele><time>2026-05-01T14:44:12Z</time></trkpt><trkpt lat="48.144439941605306" lon="15.077285054411787"><ele>228.0</ele><time>2026-05-01T14:44:13Z</time></trkpt><trkpt lat="48.144603797944725" lon="15.077660996592135"><ele>227.0</ele><time>2026-05-01T14:44:14Z</time></trkpt><trkpt lat="48.14476609770853" lon="15.078037065347841"><ele>226.5</ele><time>2026-05-01T14:44:15Z</time></trkpt><trkpt lat="48.144928252628496" lon="15.078412398183106"><ele>226.0</ele><time>2026-05-01T14:44:16Z</time></trkpt><trkpt lat="48.14508998298232" lon="15.078784525091587"><ele>226.5</ele><time>2026-05-01T14:44:17Z</time></trkpt><trkpt lat="48.14525061593636" lon="15.079156105626035"><ele>227.0</ele><time>2026-05-01T14:44:18Z</time></trkpt><trkpt lat="48.14541048816775" lon="15.079525916726805"><ele>227.0</ele><time>2026-05-01T14:44:19Z</time></trkpt><trkpt lat="48.145569287915905" lon="15.079894997585548"><ele>227.0</ele><time>2026-05-01T14:44:20Z</time></trkpt><trkpt lat="48.14572702631301" lon="15.080265829578291"><ele>226.0</ele><time>2026-05-01T14:44:21Z</time></trkpt><trkpt lat="48.145886734153386" lon="15.080633389362585"><ele>225.0</ele><time>2026-05-01T14:44:22Z</time></trkpt><trkpt lat="48.146047322337395" lon="15.08099829781037"><ele>224.5</ele><time>2026-05-01T14:44:23Z</time></trkpt><trkpt lat="48.146208824898" lon="15.081361668974683"><ele>224.0</ele><time>2026-05-01T14:44:24Z</time></trkpt><trkpt lat="48.14637059091629" lon="15.081724833858607"><ele>227.5</ele><time>2026-05-01T14:44:25Z</time></trkpt><trkpt lat="48.146533324512106" lon="15.082088256725958"><ele>231.0</ele><time>2026-05-01T14:44:26Z</time></trkpt><trkpt lat="48.146695700542324" lon="15.08245489031391"><ele>232.0</ele><time>2026-05-01T14:44:27Z</time></trkpt><trkpt lat="48.14685770486963" lon="15.082824827423421"><ele>233.0</ele><time>2026-05-01T14:44:28Z</time></trkpt><trkpt lat="48.14702184810771" lon="15.08319776586235"><ele>235.5</ele><time>2026-05-01T14:44:29Z</time></trkpt><trkpt lat="48.14718538481848" lon="15.083573478044878"><ele>238.0</ele><time>2026-05-01T14:44:30Z</time></trkpt><trkpt lat="48.147347728089855" lon="15.08395205393723"><ele>237.5</ele><time>2026-05-01T14:44:31Z</time></trkpt><trkpt lat="48.14751191275691" lon="15.08433351541664"><ele>237.0</ele><time>2026-05-01T14:44:32Z</time></trkpt><trkpt lat="48.14767778354791" lon="15.08471530541484"><ele>239.0</ele><time>2026-05-01T14:44:33Z</time></trkpt><trkpt lat="48.14784396322727" lon="15.085098047990604"><ele>241.0</ele><time>2026-05-01T14:44:34Z</time></trkpt><trkpt lat="48.148010010440466" lon="15.085480939134419"><ele>240.5</ele><time>2026-05-01T14:44:35Z</time></trkpt><trkpt lat="48.14817696939927" lon="15.085864782352253"><ele>240.0</ele><time>2026-05-01T14:44:36Z</time></trkpt><trkpt lat="48.14834373153814" lon="15.086246898049716"><ele>242.0</ele><time>2026-05-01T14:44:37Z</time></trkpt><trkpt lat="48.148511226208385" lon="15.086627684420263"><ele>244.0</ele><time>2026-05-01T14:44:38Z</time></trkpt><trkpt lat="48.14867811350323" lon="15.087007769681069"><ele>244.0</ele><time>2026-05-01T14:44:39Z</time></trkpt><trkpt lat="48.14884251628088" lon="15.087388624998535"><ele>244.0</ele><time>2026-05-01T14:44:40.001Z</time></trkpt><trkpt lat="48.1490063454878" lon="15.08776937335259"><ele>244.5</ele><time>2026-05-01T14:44:41.001Z</time></trkpt><trkpt lat="48.14917043009632" lon="15.088149635951021"><ele>245.0</ele><time>2026-05-01T14:44:42.001Z</time></trkpt><trkpt lat="48.14933627196271" lon="15.08853026022934"><ele>246.5</ele><time>2026-05-01T14:44:43.001Z</time></trkpt><trkpt lat="48.14950297862027" lon="15.0889133015594"><ele>248.0</ele><time>2026-05-01T14:44:44.001Z</time></trkpt><trkpt lat="48.14967154963511" lon="15.08929586821372"><ele>247.0</ele><time>2026-05-01T14:44:45.001Z</time></trkpt><trkpt lat="48.14983924459223" lon="15.089679375424485"><ele>246.0</ele><time>2026-05-01T14:44:46.001Z</time></trkpt><trkpt lat="48.15000683846252" lon="15.090062131031436"><ele>246.0</ele><time>2026-05-01T14:44:47.001Z</time></trkpt><trkpt lat="48.15017280290743" lon="15.09043998177692"><ele>246.0</ele><time>2026-05-01T14:44:48.001Z</time></trkpt><trkpt lat="48.150330811400934" lon="15.090797806312883"><ele>248.0</ele><time>2026-05-01T14:44:49.001Z</time></trkpt><trkpt lat="48.15049279159985" lon="15.091166953396213"><ele>250.0</ele><time>2026-05-01T14:44:50.001Z</time></trkpt><trkpt lat="48.15065938471317" lon="15.09154364225045"><ele>247.0</ele><time>2026-05-01T14:44:51.001Z</time></trkpt><trkpt lat="48.150827249173034" lon="15.091924589105213"><ele>244.0</ele><time>2026-05-01T14:44:52.001Z</time></trkpt><trkpt lat="48.15099479186379" lon="15.092308359870344"><ele>244.0</ele><time>2026-05-01T14:44:53.001Z</time></trkpt><trkpt lat="48.15116205969279" lon="15.092692547530769"><ele>244.0</ele><time>2026-05-01T14:44:54.001Z</time></trkpt><trkpt lat="48.15133050882675" lon="15.093076261021936"><ele>244.0</ele><time>2026-05-01T14:44:55.001Z</time></trkpt><trkpt lat="48.151496956472656" lon="15.093458853849699"><ele>244.0</ele><time>2026-05-01T14:44:56.001Z</time></trkpt><trkpt lat="48.15166500281668" lon="15.093840611888544"><ele>242.5</ele><time>2026-05-01T14:44:57.001Z</time></trkpt><trkpt lat="48.151832062192504" lon="15.094222111387218"><ele>241.0</ele><time>2026-05-01T14:44:58.001Z</time></trkpt><trkpt lat="48.1519986469697" lon="15.094603296952831"><ele>239.0</ele><time>2026-05-01T14:44:59.001Z</time></trkpt><trkpt lat="48.152166229684404" lon="15.09498600458914"><ele>237.0</ele><time>2026-05-01T14:45:00.001Z</time></trkpt><trkpt lat="48.15233438023632" lon="15.095369288372678"><ele>239.0</ele><time>2026-05-01T14:45:01.001Z</time></trkpt><trkpt lat="48.15250191429509" lon="15.095752036160698"><ele>241.0</ele><time>2026-05-01T14:45:02.001Z</time></trkpt><trkpt lat="48.15267007667301" lon="15.096132399986315"><ele>241.5</ele><time>2026-05-01T14:45:03.001Z</time></trkpt><trkpt lat="48.152838870450495" lon="15.096513514712175"><ele>242.0</ele><time>2026-05-01T14:45:04.001Z</time></trkpt><trkpt lat="48.15300784814538" lon="15.096897099985078"><ele>243.5</ele><time>2026-05-01T14:45:05.001Z</time></trkpt><trkpt lat="48.15317648298325" lon="15.097281627825174"><ele>245.0</ele><time>2026-05-01T14:45:06.001Z</time></trkpt><trkpt lat="48.15334444209034" lon="15.097668222692874"><ele>246.0</ele><time>2026-05-01T14:45:07.001Z</time></trkpt><trkpt lat="48.153514851443056" lon="15.098053583654329"><ele>247.0</ele><time>2026-05-01T14:45:08.001Z</time></trkpt><trkpt lat="48.15368335168727" lon="15.098441367682746"><ele>252.5</ele><time>2026-05-01T14:45:09.001Z</time></trkpt><trkpt lat="48.15385254844938" lon="15.098829987530497"><ele>258.0</ele><time>2026-05-01T14:45:10.001Z</time></trkpt><trkpt lat="48.15402193874299" lon="15.09921733566719"><ele>258.5</ele><time>2026-05-01T14:45:11.001Z</time></trkpt><trkpt lat="48.15418947447683" lon="15.099605087746252"><ele>259.0</ele><time>2026-05-01T14:45:12.001Z</time></trkpt><trkpt lat="48.154357252387996" lon="15.099990109017343"><ele>259.0</ele><time>2026-05-01T14:45:13.001Z</time></trkpt><trkpt lat="48.15452416051887" lon="15.100369311590859"><ele>259.0</ele><time>2026-05-01T14:45:14.001Z</time></trkpt><trkpt lat="48.15469043735983" lon="15.100750520368177"><ele>260.5</ele><time>2026-05-01T14:45:15.001Z</time></trkpt><trkpt lat="48.15485747450821" lon="15.10113091536604"><ele>262.0</ele><time>2026-05-01T14:45:16.001Z</time></trkpt><trkpt lat="48.15502496009092" lon="15.101512290435691"><ele>258.5</ele><time>2026-05-01T14:45:17.001Z</time></trkpt><trkpt lat="48.155191862351785" lon="15.101894503889685"><ele>255.0</ele><time>2026-05-01T14:45:18Z</time></trkpt><trkpt lat="48.155357817020516" lon="15.10227613571302"><ele>254.5</ele><time>2026-05-01T14:45:19Z</time></trkpt><trkpt lat="48.15552429102884" lon="15.10265569427937"><ele>254.0</ele><time>2026-05-01T14:45:20Z</time></trkpt><trkpt lat="48.15569072436098" lon="15.103036888279764"><ele>252.5</ele><time>2026-05-01T14:45:21Z</time></trkpt><trkpt lat="48.155857511307" lon="15.103418440005209"><ele>251.0</ele><time>2026-05-01T14:45:22Z</time></trkpt><trkpt lat="48.1560241265824" lon="15.103799493123727"><ele>250.5</ele><time>2026-05-01T14:45:23Z</time></trkpt><trkpt lat="48.15619228643478" lon="15.104179993512655"><ele>250.0</ele><time>2026-05-01T14:45:24Z</time></trkpt><trkpt lat="48.15636023533554" lon="15.104562740037075"><ele>250.5</ele><time>2026-05-01T14:45:25Z</time></trkpt><trkpt lat="48.156525776514684" lon="15.104946227870473"><ele>251.0</ele><time>2026-05-01T14:45:26Z</time></trkpt><trkpt lat="48.156693355732045" lon="15.105333799308175"><ele>251.0</ele><time>2026-05-01T14:45:27Z</time></trkpt><trkpt lat="48.156856131662956" lon="15.105727214234095"><ele>251.0</ele><time>2026-05-01T14:45:28Z</time></trkpt><trkpt lat="48.15701592659443" lon="15.106123028191456"><ele>252.5</ele><time>2026-05-01T14:45:29Z</time></trkpt><trkpt lat="48.15717778395069" lon="15.106518910141347"><ele>254.0</ele><time>2026-05-01T14:45:30Z</time></trkpt><trkpt lat="48.15733891999222" lon="15.106914457380066"><ele>255.0</ele><time>2026-05-01T14:45:31Z</time></trkpt><trkpt lat="48.15749708092481" lon="15.107311725748806"><ele>256.0</ele><time>2026-05-01T14:45:32Z</time></trkpt><trkpt lat="48.15764774844649" lon="15.10771463394256"><ele>256.5</ele><time>2026-05-01T14:45:33Z</time></trkpt><trkpt lat="48.157791880450176" lon="15.108121932172493"><ele>257.0</ele><time>2026-05-01T14:45:34Z</time></trkpt><trkpt lat="48.15793311534218" lon="15.108531415565448"><ele>258.5</ele><time>2026-05-01T14:45:35Z</time></trkpt><trkpt lat="48.158071456636456" lon="15.108940310137212"><ele>260.0</ele><time>2026-05-01T14:45:36Z</time></trkpt><trkpt lat="48.15820561451214" lon="15.109349526889837"><ele>260.5</ele><time>2026-05-01T14:45:37Z</time></trkpt><trkpt lat="48.15833354664346" lon="15.109760993238435"><ele>261.0</ele><time>2026-05-01T14:45:38Z</time></trkpt><trkpt lat="48.15845226759586" lon="15.110176539508156"><ele>262.0</ele><time>2026-05-01T14:45:39Z</time></trkpt><trkpt lat="48.158562578001685" lon="15.110597767758032"><ele>263.0</ele><time>2026-05-01T14:45:40Z</time></trkpt><trkpt lat="48.158669977560464" lon="15.111018098069703"><ele>264.5</ele><time>2026-05-01T14:45:41Z</time></trkpt><trkpt lat="48.15877579123906" lon="15.111441150486565"><ele>266.0</ele><time>2026-05-01T14:45:42Z</time></trkpt><trkpt lat="48.15887915138189" lon="15.111868358693519"><ele>267.0</ele><time>2026-05-01T14:45:43Z</time></trkpt><trkpt lat="48.15897666962205" lon="15.11230052165576"><ele>268.0</ele><time>2026-05-01T14:45:44Z</time></trkpt><trkpt lat="48.15906742346386" lon="15.112737202326931"><ele>268.0</ele><time>2026-05-01T14:45:45Z</time></trkpt><trkpt lat="48.15915419066515" lon="15.113177592540781"><ele>268.0</ele><time>2026-05-01T14:45:46Z</time></trkpt><trkpt lat="48.159237670649595" lon="15.113622450302602"><ele>269.0</ele><time>2026-05-01T14:45:47Z</time></trkpt><trkpt lat="48.15931371661832" lon="15.11406859208834"><ele>270.0</ele><time>2026-05-01T14:45:48Z</time></trkpt><trkpt lat="48.15938256972349" lon="15.114517863782254"><ele>269.0</ele><time>2026-05-01T14:45:49Z</time></trkpt><trkpt lat="48.15944705155981" lon="15.114967778231021"><ele>268.0</ele><time>2026-05-01T14:45:50Z</time></trkpt><trkpt lat="48.159507272090494" lon="15.115420443744776"><ele>266.5</ele><time>2026-05-01T14:45:51Z</time></trkpt><trkpt lat="48.159562563622394" lon="15.115875214000521"><ele>265.0</ele><time>2026-05-01T14:45:52Z</time></trkpt><trkpt lat="48.15961363749021" lon="15.116330044984794"><ele>266.0</ele><time>2026-05-01T14:45:53Z</time></trkpt><trkpt lat="48.15965900947627" lon="15.11678351813186"><ele>267.0</ele><time>2026-05-01T14:45:54Z</time></trkpt><trkpt lat="48.15969959314215" lon="15.117236790278747"><ele>269.0</ele><time>2026-05-01T14:45:55Z</time></trkpt><trkpt lat="48.15973625300378" lon="15.117692047077476"><ele>271.0</ele><time>2026-05-01T14:45:56Z</time></trkpt><trkpt lat="48.15976971457285" lon="15.118147126298092"><ele>272.0</ele><time>2026-05-01T14:45:57Z</time></trkpt><trkpt lat="48.15980295842902" lon="15.118603528195113"><ele>273.0</ele><time>2026-05-01T14:45:58Z</time></trkpt><trkpt lat="48.15983704944861" lon="15.119059602422938"><ele>273.0</ele><time>2026-05-01T14:45:59Z</time></trkpt><trkpt lat="48.15987010027947" lon="15.119507930041816"><ele>273.0</ele><time>2026-05-01T14:46:00Z</time></trkpt><trkpt lat="48.15990049818346" lon="15.119928471537062"><ele>275.0</ele><time>2026-05-01T14:46:01Z</time></trkpt><trkpt lat="48.15993092428971" lon="15.12035744053313"><ele>277.0</ele><time>2026-05-01T14:46:02Z</time></trkpt><trkpt lat="48.15995983209119" lon="15.120795748153139"><ele>277.0</ele><time>2026-05-01T14:46:03Z</time></trkpt><trkpt lat="48.159987610646624" lon="15.121237305521952"><ele>277.0</ele><time>2026-05-01T14:46:04Z</time></trkpt><trkpt lat="48.16001536149634" lon="15.121681331350734"><ele>277.0</ele><time>2026-05-01T14:46:05Z</time></trkpt><trkpt lat="48.16004369220156" lon="15.122128010248764"><ele>277.0</ele><time>2026-05-01T14:46:06Z</time></trkpt><trkpt lat="48.1600733185932" lon="15.122576138845178"><ele>276.5</ele><time>2026-05-01T14:46:07Z</time></trkpt><trkpt lat="48.16010231930792" lon="15.123026744590625"><ele>276.0</ele><time>2026-05-01T14:46:08Z</time></trkpt><trkpt lat="48.16013071701077" lon="15.12348050945738"><ele>276.0</ele><time>2026-05-01T14:46:09Z</time></trkpt><trkpt lat="48.16016074070227" lon="15.123935133515802"><ele>276.0</ele><time>2026-05-01T14:46:10Z</time></trkpt><trkpt lat="48.16018967542363" lon="15.124390978730496"><ele>276.0</ele><time>2026-05-01T14:46:11Z</time></trkpt><trkpt lat="48.160220105421054" lon="15.124848039498"><ele>276.0</ele><time>2026-05-01T14:46:12Z</time></trkpt><trkpt lat="48.160249933867355" lon="15.125303969885493"><ele>274.5</ele><time>2026-05-01T14:46:13Z</time></trkpt><trkpt lat="48.16027908474193" lon="15.125759971534588"><ele>273.0</ele><time>2026-05-01T14:46:14Z</time></trkpt><trkpt lat="48.16030843933576" lon="15.126216082046826"><ele>272.5</ele><time>2026-05-01T14:46:15Z</time></trkpt><trkpt lat="48.160337898066" lon="15.12667109018689"><ele>272.0</ele><time>2026-05-01T14:46:16Z</time></trkpt><trkpt lat="48.16036639411286" lon="15.127123503276582"><ele>275.5</ele><time>2026-05-01T14:46:17Z</time></trkpt><trkpt lat="48.160394955857356" lon="15.127574541351414"><ele>279.0</ele><time>2026-05-01T14:46:18Z</time></trkpt><trkpt lat="48.16042533604178" lon="15.12802445806793"><ele>283.5</ele><time>2026-05-01T14:46:19Z</time></trkpt><trkpt lat="48.16045446963258" lon="15.128474095288867"><ele>288.0</ele><time>2026-05-01T14:46:20Z</time></trkpt><trkpt lat="48.16048414756704" lon="15.128924971280586"><ele>294.0</ele><time>2026-05-01T14:46:21Z</time></trkpt><trkpt lat="48.16051181066038" lon="15.129375835291494"><ele>300.0</ele><time>2026-05-01T14:46:22Z</time></trkpt><trkpt lat="48.16054058370957" lon="15.129826917655024"><ele>304.5</ele><time>2026-05-01T14:46:23Z</time></trkpt><trkpt lat="48.16056997146849" lon="15.130279839001732"><ele>309.0</ele><time>2026-05-01T14:46:24Z</time></trkpt><trkpt lat="48.16060216130424" lon="15.13073268741188"><ele>309.5</ele><time>2026-05-01T14:46:25Z</time></trkpt><trkpt lat="48.160632662461126" lon="15.131186096604706"><ele>310.0</ele><time>2026-05-01T14:46:26Z</time></trkpt><trkpt lat="48.16066279022396" lon="15.131634564735363"><ele>310.5</ele><time>2026-05-01T14:46:27Z</time></trkpt><trkpt lat="48.16068864852401" lon="15.132092123605243"><ele>311.0</ele><time>2026-05-01T14:46:28Z</time></trkpt><trkpt lat="48.160716735479575" lon="15.132545805559328"><ele>304.5</ele><time>2026-05-01T14:46:29Z</time></trkpt><trkpt lat="48.160746114071365" lon="15.132998633476543"><ele>298.0</ele><time>2026-05-01T14:46:30Z</time></trkpt><trkpt lat="48.16077753181805" lon="15.1334510957127"><ele>298.0</ele><time>2026-05-01T14:46:31Z</time></trkpt><trkpt lat="48.1608089862021" lon="15.133901989625313"><ele>298.0</ele><time>2026-05-01T14:46:32Z</time></trkpt><trkpt lat="48.16083877346243" lon="15.134353545631448"><ele>296.5</ele><time>2026-05-01T14:46:33Z</time></trkpt><trkpt lat="48.16086835309104" lon="15.134806395194975"><ele>295.0</ele><time>2026-05-01T14:46:34Z</time></trkpt><trkpt lat="48.16089833533117" lon="15.135260816808493"><ele>293.5</ele><time>2026-05-01T14:46:35Z</time></trkpt><trkpt lat="48.1609272396059" lon="15.135715978156323"><ele>292.0</ele><time>2026-05-01T14:46:36Z</time></trkpt><trkpt lat="48.160957726632105" lon="15.136172639654497"><ele>291.0</ele><time>2026-05-01T14:46:37Z</time></trkpt><trkpt lat="48.160988365110164" lon="15.13662869462512"><ele>290.0</ele><time>2026-05-01T14:46:38Z</time></trkpt><trkpt lat="48.161019344878824" lon="15.137084071005708"><ele>288.5</ele><time>2026-05-01T14:46:39Z</time></trkpt><trkpt lat="48.16104956392518" lon="15.13753887929046"><ele>287.0</ele><time>2026-05-01T14:46:40Z</time></trkpt><trkpt lat="48.161079694453704" lon="15.137993803931927"><ele>285.0</ele><time>2026-05-01T14:46:41Z</time></trkpt><trkpt lat="48.1611106693934" lon="15.138449162702384"><ele>283.0</ele><time>2026-05-01T14:46:42Z</time></trkpt><trkpt lat="48.16113985825543" lon="15.1389033457955"><ele>283.0</ele><time>2026-05-01T14:46:43Z</time></trkpt><trkpt lat="48.16117016241607" lon="15.139357276813834"><ele>283.0</ele><time>2026-05-01T14:46:44Z</time></trkpt><trkpt lat="48.1612006117126" lon="15.139810243255656"><ele>282.5</ele><time>2026-05-01T14:46:45Z</time></trkpt><trkpt lat="48.16123096406498" lon="15.14026286404046"><ele>282.0</ele><time>2026-05-01T14:46:46Z</time></trkpt><trkpt lat="48.16125887756047" lon="15.140716978630747"><ele>282.0</ele><time>2026-05-01T14:46:47Z</time></trkpt><trkpt lat="48.16128678830855" lon="15.14117061391952"><ele>282.0</ele><time>2026-05-01T14:46:48Z</time></trkpt><trkpt lat="48.16131509792978" lon="15.141624087901445"><ele>282.0</ele><time>2026-05-01T14:46:49.001Z</time></trkpt><trkpt lat="48.16134533810624" lon="15.142078553955852"><ele>282.0</ele><time>2026-05-01T14:46:50.001Z</time></trkpt><trkpt lat="48.1613773062855" lon="15.142535254305544"><ele>282.0</ele><time>2026-05-01T14:46:51.001Z</time></trkpt><trkpt lat="48.161409183362736" lon="15.142990983375045"><ele>282.0</ele><time>2026-05-01T14:46:52.001Z</time></trkpt><trkpt lat="48.16144179950036" lon="15.143450658384822"><ele>283.0</ele><time>2026-05-01T14:46:53.001Z</time></trkpt><trkpt lat="48.161469783243874" lon="15.143910917821865"><ele>284.0</ele><time>2026-05-01T14:46:54.001Z</time></trkpt><trkpt lat="48.161499203676016" lon="15.144371864110251"><ele>283.0</ele><time>2026-05-01T14:46:55.001Z</time></trkpt><trkpt lat="48.16153287077583" lon="15.14483344553408"><ele>282.0</ele><time>2026-05-01T14:46:56.001Z</time></trkpt><trkpt lat="48.16156839137488" lon="15.14529353141801"><ele>281.5</ele><time>2026-05-01T14:46:57.001Z</time></trkpt><trkpt lat="48.16160677091162" lon="15.145754372040553"><ele>281.0</ele><time>2026-05-01T14:46:58.001Z</time></trkpt><trkpt lat="48.16164668945591" lon="15.146216144487035"><ele>281.0</ele><time>2026-05-01T14:46:59.001Z</time></trkpt><trkpt lat="48.16168812991001" lon="15.146676646006254"><ele>281.0</ele><time>2026-05-01T14:47:00.001Z</time></trkpt><trkpt lat="48.16173146617109" lon="15.147134774313953"><ele>279.0</ele><time>2026-05-01T14:47:01.001Z</time></trkpt><trkpt lat="48.16177610838238" lon="15.147591606388803"><ele>277.0</ele><time>2026-05-01T14:47:02.001Z</time></trkpt><trkpt lat="48.1618232393365" lon="15.14804565936424"><ele>275.5</ele><time>2026-05-01T14:47:03.001Z</time></trkpt><trkpt lat="48.1618724128423" lon="15.148489342797367"><ele>274.0</ele><time>2026-05-01T14:47:04.001Z</time></trkpt><trkpt lat="48.1619218987686" lon="15.14891492084738"><ele>273.5</ele><time>2026-05-01T14:47:05.001Z</time></trkpt><trkpt lat="48.161976348144876" lon="15.14935734479078"><ele>273.0</ele><time>2026-05-01T14:47:06.001Z</time></trkpt><trkpt lat="48.16203363869932" lon="15.149807212447337"><ele>271.5</ele><time>2026-05-01T14:47:07.001Z</time></trkpt><trkpt lat="48.16209135743454" lon="15.150258944073233"><ele>270.0</ele><time>2026-05-01T14:47:08.001Z</time></trkpt><trkpt lat="48.16215066091821" lon="15.1507029263971"><ele>269.0</ele><time>2026-05-01T14:47:09.001Z</time></trkpt><trkpt lat="48.16221493211625" lon="15.151128828417715"><ele>268.0</ele><time>2026-05-01T14:47:10.001Z</time></trkpt><trkpt lat="48.16228644398936" lon="15.151544513877962"><ele>266.5</ele><time>2026-05-01T14:47:11.001Z</time></trkpt><trkpt lat="48.16236020821627" lon="15.151960549140107"><ele>265.0</ele><time>2026-05-01T14:47:12.001Z</time></trkpt><trkpt lat="48.162431925797634" lon="15.152380360342677"><ele>264.5</ele><time>2026-05-01T14:47:13.001Z</time></trkpt><trkpt lat="48.16250588407212" lon="15.152801870428407"><ele>264.0</ele><time>2026-05-01T14:47:14.001Z</time></trkpt><trkpt lat="48.1625827481973" lon="15.153224259690326"><ele>262.5</ele><time>2026-05-01T14:47:15.001Z</time></trkpt><trkpt lat="48.16266293447316" lon="15.153643971001015"><ele>261.0</ele><time>2026-05-01T14:47:16.001Z</time></trkpt><trkpt lat="48.16274269920398" lon="15.154059475842894"><ele>259.5</ele><time>2026-05-01T14:47:17.001Z</time></trkpt><trkpt lat="48.16282060871425" lon="15.154452718921204"><ele>258.0</ele><time>2026-05-01T14:47:18.001Z</time></trkpt><trkpt lat="48.16290015997392" lon="15.154833240789992"><ele>257.0</ele><time>2026-05-01T14:47:19.001Z</time></trkpt><trkpt lat="48.16298754056345" lon="15.155227527302264"><ele>256.0</ele><time>2026-05-01T14:47:20.001Z</time></trkpt><trkpt lat="48.16307932331098" lon="15.15563053256224"><ele>256.5</ele><time>2026-05-01T14:47:21.001Z</time></trkpt><trkpt lat="48.163176589141074" lon="15.156041393640331"><ele>257.0</ele><time>2026-05-01T14:47:22.001Z</time></trkpt><trkpt lat="48.16327868859707" lon="15.156457299308512"><ele>256.5</ele><time>2026-05-01T14:47:23.001Z</time></trkpt><trkpt lat="48.16338457923258" lon="15.15687604032961"><ele>256.0</ele><time>2026-05-01T14:47:24Z</time></trkpt><trkpt lat="48.16349849184881" lon="15.157299923558641"><ele>254.5</ele><time>2026-05-01T14:47:25Z</time></trkpt><trkpt lat="48.16362196673506" lon="15.157727536215594"><ele>253.0</ele><time>2026-05-01T14:47:26Z</time></trkpt><trkpt lat="48.16374795677709" lon="15.158156735915213"><ele>251.5</ele><time>2026-05-01T14:47:27Z</time></trkpt><trkpt lat="48.16387318590804" lon="15.158589366054654"><ele>250.0</ele><time>2026-05-01T14:47:28Z</time></trkpt><trkpt lat="48.16399917668761" lon="15.159021627300413"><ele>250.0</ele><time>2026-05-01T14:47:29Z</time></trkpt><trkpt lat="48.164127344025005" lon="15.1594534459659"><ele>250.0</ele><time>2026-05-01T14:47:30Z</time></trkpt><trkpt lat="48.16425787345437" lon="15.159886159484728"><ele>250.0</ele><time>2026-05-01T14:47:31Z</time></trkpt><trkpt lat="48.16438924236607" lon="15.16032004565276"><ele>250.0</ele><time>2026-05-01T14:47:32Z</time></trkpt><trkpt lat="48.16452062446253" lon="15.16075334035771"><ele>249.5</ele><time>2026-05-01T14:47:33Z</time></trkpt><trkpt lat="48.16465745959988" lon="15.161182642003213"><ele>249.0</ele><time>2026-05-01T14:47:34Z</time></trkpt><trkpt lat="48.16480588028166" lon="15.161603586092488"><ele>248.5</ele><time>2026-05-01T14:47:35Z</time></trkpt><trkpt lat="48.164958981831035" lon="15.162019829972136"><ele>248.0</ele><time>2026-05-01T14:47:36Z</time></trkpt><trkpt lat="48.16511632068695" lon="15.162434711178726"><ele>247.5</ele><time>2026-05-01T14:47:37Z</time></trkpt><trkpt lat="48.16527473461963" lon="15.162849017540388"><ele>247.0</ele><time>2026-05-01T14:47:38Z</time></trkpt><trkpt lat="48.165433572222476" lon="15.16326249561018"><ele>245.0</ele><time>2026-05-01T14:47:39Z</time></trkpt><trkpt lat="48.16559134077369" lon="15.163675868949756"><ele>243.0</ele><time>2026-05-01T14:47:40Z</time></trkpt><trkpt lat="48.165749626897906" lon="15.164087091770444"><ele>242.0</ele><time>2026-05-01T14:47:41Z</time></trkpt><trkpt lat="48.165907921392666" lon="15.16449443816566"><ele>241.0</ele><time>2026-05-01T14:47:42Z</time></trkpt><trkpt lat="48.16606612415377" lon="15.164900697286308"><ele>239.0</ele><time>2026-05-01T14:47:43Z</time></trkpt><trkpt lat="48.16622551722978" lon="15.16530299365735"><ele>237.0</ele><time>2026-05-01T14:47:44Z</time></trkpt><trkpt lat="48.16638183522151" lon="15.165707139390271"><ele>236.5</ele><time>2026-05-01T14:47:45Z</time></trkpt><trkpt lat="48.16653786464217" lon="15.166108256593542"><ele>236.0</ele><time>2026-05-01T14:47:46Z</time></trkpt><trkpt lat="48.166693584314714" lon="15.166507865265874"><ele>236.0</ele><time>2026-05-01T14:47:47Z</time></trkpt><trkpt lat="48.16685064870578" lon="15.166905584588404"><ele>236.0</ele><time>2026-05-01T14:47:48Z</time></trkpt><trkpt lat="48.16700581347563" lon="15.167297744665879"><ele>234.5</ele><time>2026-05-01T14:47:49Z</time></trkpt><trkpt lat="48.1671577313758" lon="15.167687309789896"><ele>233.0</ele><time>2026-05-01T14:47:50Z</time></trkpt><trkpt lat="48.167309545724535" lon="15.168078516539106"><ele>234.5</ele><time>2026-05-01T14:47:51Z</time></trkpt><trkpt lat="48.16746111158004" lon="15.168467546654755"><ele>236.0</ele><time>2026-05-01T14:47:52Z</time></trkpt><trkpt lat="48.16761251913141" lon="15.16885548837501"><ele>235.0</ele><time>2026-05-01T14:47:53Z</time></trkpt><trkpt lat="48.16776272978895" lon="15.169242822703596"><ele>234.0</ele><time>2026-05-01T14:47:54Z</time></trkpt><trkpt lat="48.16791311371249" lon="15.16962819666167"><ele>235.0</ele><time>2026-05-01T14:47:55Z</time></trkpt><trkpt lat="48.16806208969495" lon="15.17001337806495"><ele>236.0</ele><time>2026-05-01T14:47:56Z</time></trkpt><trkpt lat="48.1682111866139" lon="15.17039879542313"><ele>235.5</ele><time>2026-05-01T14:47:57Z</time></trkpt><trkpt lat="48.16835967387239" lon="15.1707855993514"><ele>235.0</ele><time>2026-05-01T14:47:58Z</time></trkpt><trkpt lat="48.16851092636253" lon="15.17117033596772"><ele>234.0</ele><time>2026-05-01T14:47:59Z</time></trkpt><trkpt lat="48.16866058989215" lon="15.171557318576783"><ele>233.0</ele><time>2026-05-01T14:48:00Z</time></trkpt><trkpt lat="48.16880529497808" lon="15.171949364579307"><ele>233.0</ele><time>2026-05-01T14:48:01Z</time></trkpt><trkpt lat="48.16894795814921" lon="15.172344757757527"><ele>233.0</ele><time>2026-05-01T14:48:02Z</time></trkpt><trkpt lat="48.169093383688256" lon="15.172740280877388"><ele>232.0</ele><time>2026-05-01T14:48:03Z</time></trkpt><trkpt lat="48.16924140972866" lon="15.173134111254662"><ele>231.0</ele><time>2026-05-01T14:48:04Z</time></trkpt><trkpt lat="48.169391285886" lon="15.173524490805939"><ele>231.0</ele><time>2026-05-01T14:48:05Z</time></trkpt><trkpt lat="48.169543189656636" lon="15.173913997502797"><ele>231.0</ele><time>2026-05-01T14:48:06Z</time></trkpt><trkpt lat="48.16969617475258" lon="15.174303539758029"><ele>230.0</ele><time>2026-05-01T14:48:07Z</time></trkpt><trkpt lat="48.169849185496396" lon="15.174693461739226"><ele>229.0</ele><time>2026-05-01T14:48:08Z</time></trkpt><trkpt lat="48.17000177323602" lon="15.175081118675953"><ele>229.0</ele><time>2026-05-01T14:48:09Z</time></trkpt><trkpt lat="48.17015310193475" lon="15.175469726181046"><ele>229.0</ele><time>2026-05-01T14:48:10Z</time></trkpt><trkpt lat="48.170305060358025" lon="15.175861094313024"><ele>230.0</ele><time>2026-05-01T14:48:11Z</time></trkpt><trkpt lat="48.17045659048802" lon="15.176252376795675"><ele>231.0</ele><time>2026-05-01T14:48:12Z</time></trkpt><trkpt lat="48.17060848308602" lon="15.176644362401534"><ele>238.5</ele><time>2026-05-01T14:48:13Z</time></trkpt><trkpt lat="48.17076042365059" lon="15.177037346590653"><ele>246.0</ele><time>2026-05-01T14:48:14Z</time></trkpt><trkpt lat="48.170910785216854" lon="15.17742866485496"><ele>248.5</ele><time>2026-05-01T14:48:15Z</time></trkpt><trkpt lat="48.17106309545035" lon="15.177820283485971"><ele>251.0</ele><time>2026-05-01T14:48:16Z</time></trkpt><trkpt lat="48.17121805614576" lon="15.17821183442327"><ele>251.5</ele><time>2026-05-01T14:48:17Z</time></trkpt><trkpt lat="48.17137355981619" lon="15.178603583740404"><ele>252.0</ele><time>2026-05-01T14:48:18Z</time></trkpt><trkpt lat="48.1715304462567" lon="15.178999477323343"><ele>252.0</ele><time>2026-05-01T14:48:19Z</time></trkpt><trkpt lat="48.17168494430186" lon="15.179399587056908"><ele>252.0</ele><time>2026-05-01T14:48:20Z</time></trkpt><trkpt lat="48.17183913300414" lon="15.179799544420835"><ele>252.5</ele><time>2026-05-01T14:48:21Z</time></trkpt><trkpt lat="48.1719941979043" lon="15.180195559531915"><ele>253.0</ele><time>2026-05-01T14:48:22Z</time></trkpt><trkpt lat="48.17214991941105" lon="15.180578855852195"><ele>254.0</ele><time>2026-05-01T14:48:23Z</time></trkpt><trkpt lat="48.17230542972556" lon="15.180936422483548"><ele>255.0</ele><time>2026-05-01T14:48:24Z</time></trkpt><trkpt lat="48.172467638705605" lon="15.181291198516128"><ele>251.0</ele><time>2026-05-01T14:48:25Z</time></trkpt><trkpt lat="48.1726312319479" lon="15.18163121816168"><ele>247.0</ele><time>2026-05-01T14:48:26Z</time></trkpt><trkpt lat="48.172791166107594" lon="15.18194242458353"><ele>247.0</ele><time>2026-05-01T14:48:27Z</time></trkpt><trkpt lat="48.17295551009241" lon="15.1822421652956"><ele>247.0</ele><time>2026-05-01T14:48:28Z</time></trkpt><trkpt lat="48.1731392934256" lon="15.182535770307378"><ele>247.0</ele><time>2026-05-01T14:48:29Z</time></trkpt><trkpt lat="48.17333941570126" lon="15.182829823985964"><ele>247.0</ele><time>2026-05-01T14:48:30Z</time></trkpt><trkpt lat="48.17354712750737" lon="15.183126319459767"><ele>249.0</ele><time>2026-05-01T14:48:31Z</time></trkpt><trkpt lat="48.173761277753165" lon="15.183428230518336"><ele>251.0</ele><time>2026-05-01T14:48:32Z</time></trkpt><trkpt lat="48.17397972774764" lon="15.183734198587306"><ele>250.0</ele><time>2026-05-01T14:48:33Z</time></trkpt><trkpt lat="48.174203417822746" lon="15.184041921134945"><ele>249.0</ele><time>2026-05-01T14:48:34Z</time></trkpt><trkpt lat="48.17443495590856" lon="15.184343895383826"><ele>249.0</ele><time>2026-05-01T14:48:35Z</time></trkpt><trkpt lat="48.17467474379106" lon="15.184626256209029"><ele>249.0</ele><time>2026-05-01T14:48:36Z</time></trkpt><trkpt lat="48.17491790347033" lon="15.184889166389102"><ele>253.0</ele><time>2026-05-01T14:48:37Z</time></trkpt><trkpt lat="48.17516808737178" lon="15.185132101379297"><ele>257.0</ele><time>2026-05-01T14:48:38Z</time></trkpt><trkpt lat="48.175425650466316" lon="15.185357974599578"><ele>257.0</ele><time>2026-05-01T14:48:39Z</time></trkpt><trkpt lat="48.175687147226476" lon="15.18557029832351"><ele>257.0</ele><time>2026-05-01T14:48:40Z</time></trkpt><trkpt lat="48.175955127550175" lon="15.185772043809614"><ele>257.0</ele><time>2026-05-01T14:48:41Z</time></trkpt><trkpt lat="48.17622814167078" lon="15.185963123215197"><ele>257.0</ele><time>2026-05-01T14:48:42Z</time></trkpt><trkpt lat="48.17650645153829" lon="15.186138243506633"><ele>251.0</ele><time>2026-05-01T14:48:43Z</time></trkpt><trkpt lat="48.176786961867045" lon="15.186300220071319"><ele>245.0</ele><time>2026-05-01T14:48:44Z</time></trkpt><trkpt lat="48.1770724766253" lon="15.186452017955144"><ele>247.0</ele><time>2026-05-01T14:48:45Z</time></trkpt><trkpt lat="48.17736180742383" lon="15.186590831092051"><ele>249.0</ele><time>2026-05-01T14:48:46Z</time></trkpt><trkpt lat="48.177655492600486" lon="15.186720456154973"><ele>249.0</ele><time>2026-05-01T14:48:47Z</time></trkpt><trkpt lat="48.177952248983466" lon="15.18684432107698"><ele>249.0</ele><time>2026-05-01T14:48:48Z</time></trkpt><trkpt lat="48.17825072609761" lon="15.186963837242827"><ele>248.0</ele><time>2026-05-01T14:48:49Z</time></trkpt><trkpt lat="48.17855094449791" lon="15.187080032048861"><ele>247.0</ele><time>2026-05-01T14:48:50Z</time></trkpt><trkpt lat="48.17885160681438" lon="15.187193391208469"><ele>245.5</ele><time>2026-05-01T14:48:51Z</time></trkpt><trkpt lat="48.179151755729244" lon="15.187300274153271"><ele>244.0</ele><time>2026-05-01T14:48:52Z</time></trkpt><trkpt lat="48.17945002175222" lon="15.187402937258481"><ele>251.0</ele><time>2026-05-01T14:48:53Z</time></trkpt><trkpt lat="48.179744239179755" lon="15.18750972797145"><ele>258.0</ele><time>2026-05-01T14:48:54Z</time></trkpt><trkpt lat="48.18003923438617" lon="15.18762099842737"><ele>258.5</ele><time>2026-05-01T14:48:55Z</time></trkpt><trkpt lat="48.18033711499485" lon="15.187738104889274"><ele>259.0</ele><time>2026-05-01T14:48:56Z</time></trkpt><trkpt lat="48.18063543269548" lon="15.187858124346063"><ele>259.0</ele><time>2026-05-01T14:48:57Z</time></trkpt><trkpt lat="48.18093387251238" lon="15.187987947211958"><ele>259.0</ele><time>2026-05-01T14:48:58Z</time></trkpt><trkpt lat="48.18123139928954" lon="15.188126392231885"><ele>258.0</ele><time>2026-05-01T14:48:59.001Z</time></trkpt><trkpt lat="48.18152651089802" lon="15.188271658068372"><ele>257.0</ele><time>2026-05-01T14:49:00.001Z</time></trkpt><trkpt lat="48.181818643550294" lon="15.188419555043478"><ele>257.0</ele><time>2026-05-01T14:49:01.001Z</time></trkpt><trkpt lat="48.18210730332102" lon="15.188572230244173"><ele>257.0</ele><time>2026-05-01T14:49:02.001Z</time></trkpt><trkpt lat="48.182391472668364" lon="15.188735199828265"><ele>255.0</ele><time>2026-05-01T14:49:03.001Z</time></trkpt><trkpt lat="48.182672597405684" lon="15.188906618107806"><ele>253.0</ele><time>2026-05-01T14:49:04.001Z</time></trkpt><trkpt lat="48.182952865157326" lon="15.189089883025286"><ele>250.5</ele><time>2026-05-01T14:49:05.001Z</time></trkpt><trkpt lat="48.18323063275439" lon="15.189277042215265"><ele>248.0</ele><time>2026-05-01T14:49:06.001Z</time></trkpt><trkpt lat="48.18350628726306" lon="15.189468412079243"><ele>248.0</ele><time>2026-05-01T14:49:07.001Z</time></trkpt><trkpt lat="48.183777890263706" lon="15.18966787782029"><ele>248.0</ele><time>2026-05-01T14:49:08.001Z</time></trkpt><trkpt lat="48.184045716941704" lon="15.189876855773285"><ele>247.0</ele><time>2026-05-01T14:49:09.001Z</time></trkpt><trkpt lat="48.18431070001297" lon="15.190096375850501"><ele>246.0</ele><time>2026-05-01T14:49:10.001Z</time></trkpt><trkpt lat="48.184573649574986" lon="15.190326576300695"><ele>246.0</ele><time>2026-05-01T14:49:11.001Z</time></trkpt><trkpt lat="48.184834324937405" lon="15.190562911820702"><ele>246.0</ele><time>2026-05-01T14:49:12.001Z</time></trkpt><trkpt lat="48.18509566830318" lon="15.19080306962351"><ele>244.0</ele><time>2026-05-01T14:49:13.001Z</time></trkpt><trkpt lat="48.18535583569658" lon="15.191049347978597"><ele>242.0</ele><time>2026-05-01T14:49:14.001Z</time></trkpt><trkpt lat="48.18561250656082" lon="15.191308438050529"><ele>242.0</ele><time>2026-05-01T14:49:15.001Z</time></trkpt><trkpt lat="48.18586361811649" lon="15.191576411033447"><ele>242.0</ele><time>2026-05-01T14:49:16.001Z</time></trkpt><trkpt lat="48.186110398357314" lon="15.191850260496894"><ele>242.0</ele><time>2026-05-01T14:49:17.001Z</time></trkpt><trkpt lat="48.18635380295504" lon="15.192127457321574"><ele>242.0</ele><time>2026-05-01T14:49:18.001Z</time></trkpt><trkpt lat="48.18659358013064" lon="15.192412412981103"><ele>240.5</ele><time>2026-05-01T14:49:19.001Z</time></trkpt><trkpt lat="48.18682986725519" lon="15.192703720087444"><ele>239.0</ele><time>2026-05-01T14:49:20.001Z</time></trkpt><trkpt lat="48.18706260377679" lon="15.193000511223719"><ele>239.0</ele><time>2026-05-01T14:49:21.001Z</time></trkpt><trkpt lat="48.18729224845877" lon="15.193304827487378"><ele>239.0</ele><time>2026-05-01T14:49:22.001Z</time></trkpt><trkpt lat="48.18751875002996" lon="15.193617024665665"><ele>239.0</ele><time>2026-05-01T14:49:23.001Z</time></trkpt><trkpt lat="48.18774113558945" lon="15.193937380610695"><ele>239.0</ele><time>2026-05-01T14:49:24.001Z</time></trkpt><trkpt lat="48.18795896696663" lon="15.194265210856539"><ele>239.5</ele><time>2026-05-01T14:49:25.001Z</time></trkpt><trkpt lat="48.1881734054571" lon="15.194601478266632"><ele>240.0</ele><time>2026-05-01T14:49:26.001Z</time></trkpt><trkpt lat="48.18838253424049" lon="15.194944066885183"><ele>240.0</ele><time>2026-05-01T14:49:27.001Z</time></trkpt><trkpt lat="48.18859166195477" lon="15.195291037061825"><ele>240.0</ele><time>2026-05-01T14:49:28.001Z</time></trkpt><trkpt lat="48.188796952880786" lon="15.195645742533443"><ele>239.5</ele><time>2026-05-01T14:49:29.001Z</time></trkpt><trkpt lat="48.18899620442018" lon="15.19600764784946"><ele>239.0</ele><time>2026-05-01T14:49:30Z</time></trkpt><trkpt lat="48.189191413828695" lon="15.196377296764023"><ele>239.5</ele><time>2026-05-01T14:49:31Z</time></trkpt><trkpt lat="48.18938415057131" lon="15.196751701456089"><ele>240.0</ele><time>2026-05-01T14:49:32Z</time></trkpt><trkpt lat="48.18957132393356" lon="15.19713528504056"><ele>240.0</ele><time>2026-05-01T14:49:33Z</time></trkpt><trkpt lat="48.1897529922343" lon="15.197524744929295"><ele>240.0</ele><time>2026-05-01T14:49:34Z</time></trkpt><trkpt lat="48.1899291686103" lon="15.197920677964813"><ele>240.5</ele><time>2026-05-01T14:49:35Z</time></trkpt><trkpt lat="48.19009956172825" lon="15.19831959150646"><ele>241.0</ele><time>2026-05-01T14:49:36Z</time></trkpt><trkpt lat="48.1902661274059" lon="15.198723259394852"><ele>240.5</ele><time>2026-05-01T14:49:37Z</time></trkpt><trkpt lat="48.1904286749578" lon="15.199132708719608"><ele>240.0</ele><time>2026-05-01T14:49:38Z</time></trkpt><trkpt lat="48.190587900356455" lon="15.199542731476358"><ele>240.0</ele><time>2026-05-01T14:49:39Z</time></trkpt><trkpt lat="48.19074067608624" lon="15.199957844682029"><ele>240.0</ele><time>2026-05-01T14:49:40Z</time></trkpt><trkpt lat="48.19088445430597" lon="15.200377577606556"><ele>239.5</ele><time>2026-05-01T14:49:41Z</time></trkpt><trkpt lat="48.1910161909737" lon="15.200792915270181"><ele>239.0</ele><time>2026-05-01T14:49:42Z</time></trkpt><trkpt lat="48.191138088754876" lon="15.201190656672821"><ele>239.5</ele><time>2026-05-01T14:49:43Z</time></trkpt><trkpt lat="48.191259025315965" lon="15.20160159946782"><ele>240.0</ele><time>2026-05-01T14:49:44Z</time></trkpt><trkpt lat="48.19137737034822" lon="15.202022402409717"><ele>240.0</ele><time>2026-05-01T14:49:45Z</time></trkpt><trkpt lat="48.191492337539565" lon="15.202447774072095"><ele>240.0</ele><time>2026-05-01T14:49:46Z</time></trkpt><trkpt lat="48.19160535945308" lon="15.202876219310117"><ele>240.5</ele><time>2026-05-01T14:49:47Z</time></trkpt><trkpt lat="48.191717463406654" lon="15.203305941339982"><ele>241.0</ele><time>2026-05-01T14:49:48Z</time></trkpt><trkpt lat="48.19182767926429" lon="15.203735851172942"><ele>240.5</ele><time>2026-05-01T14:49:49Z</time></trkpt><trkpt lat="48.19193254011341" lon="15.204167589748389"><ele>240.0</ele><time>2026-05-01T14:49:50Z</time></trkpt><trkpt lat="48.192034698140134" lon="15.204599475959997"><ele>240.0</ele><time>2026-05-01T14:49:51Z</time></trkpt><trkpt lat="48.192137004611375" lon="15.205032946650398"><ele>240.0</ele><time>2026-05-01T14:49:52Z</time></trkpt><trkpt lat="48.192238260881055" lon="15.205467780507455"><ele>241.0</ele><time>2026-05-01T14:49:53Z</time></trkpt><trkpt lat="48.19233850215893" lon="15.205903996185558"><ele>242.0</ele><time>2026-05-01T14:49:54Z</time></trkpt><trkpt lat="48.19244181781739" lon="15.206342244562327"><ele>243.0</ele><time>2026-05-01T14:49:55Z</time></trkpt><trkpt lat="48.19254440344382" lon="15.206780608857843"><ele>244.0</ele><time>2026-05-01T14:49:56Z</time></trkpt><trkpt lat="48.19264655263313" lon="15.207219863105268"><ele>245.5</ele><time>2026-05-01T14:49:57Z</time></trkpt><trkpt lat="48.19274691550856" lon="15.207657237450778"><ele>247.0</ele><time>2026-05-01T14:49:58Z</time></trkpt><trkpt lat="48.192847861806506" lon="15.208094140216373"><ele>249.0</ele><time>2026-05-01T14:49:59Z</time></trkpt><trkpt lat="48.19294803563534" lon="15.20853038953146"><ele>251.0</ele><time>2026-05-01T14:50:00Z</time></trkpt><trkpt lat="48.19304950173324" lon="15.208968166670873"><ele>249.0</ele><time>2026-05-01T14:50:01Z</time></trkpt><trkpt lat="48.19315158348148" lon="15.20940465747664"><ele>247.0</ele><time>2026-05-01T14:50:02Z</time></trkpt><trkpt lat="48.1932522862248" lon="15.20983979958942"><ele>247.0</ele><time>2026-05-01T14:50:03Z</time></trkpt><trkpt lat="48.19335238927507" lon="15.210273668745781"><ele>247.0</ele><time>2026-05-01T14:50:04Z</time></trkpt><trkpt lat="48.19345383039645" lon="15.210705320516038"><ele>250.0</ele><time>2026-05-01T14:50:05Z</time></trkpt><trkpt lat="48.19355397158317" lon="15.211137158312997"><ele>253.0</ele><time>2026-05-01T14:50:06Z</time></trkpt><trkpt lat="48.193654259588094" lon="15.211571795755907"><ele>255.5</ele><time>2026-05-01T14:50:07Z</time></trkpt><trkpt lat="48.19375378172178" lon="15.212008076760066"><ele>258.0</ele><time>2026-05-01T14:50:08Z</time></trkpt><trkpt lat="48.193851665497476" lon="15.21244046179646"><ele>259.0</ele><time>2026-05-01T14:50:09Z</time></trkpt><trkpt lat="48.1939514148545" lon="15.212866650940834"><ele>260.0</ele><time>2026-05-01T14:50:10Z</time></trkpt><trkpt lat="48.194050165453" lon="15.213290103590229"><ele>257.0</ele><time>2026-05-01T14:50:11Z</time></trkpt><trkpt lat="48.194149109674974" lon="15.213714050905896"><ele>254.0</ele><time>2026-05-01T14:50:12Z</time></trkpt><trkpt lat="48.19424687494599" lon="15.214143231456164"><ele>254.0</ele><time>2026-05-01T14:50:13Z</time></trkpt><trkpt lat="48.194345424110345" lon="15.214574896148923"><ele>254.0</ele><time>2026-05-01T14:50:14Z</time></trkpt><trkpt lat="48.194442415567224" lon="15.215006466513353"><ele>255.5</ele><time>2026-05-01T14:50:15Z</time></trkpt><trkpt lat="48.19454312973548" lon="15.215436290611178"><ele>257.0</ele><time>2026-05-01T14:50:16Z</time></trkpt><trkpt lat="48.194644411766745" lon="15.215865910572223"><ele>259.0</ele><time>2026-05-01T14:50:17Z</time></trkpt><trkpt lat="48.194743985390666" lon="15.216295714845769"><ele>261.0</ele><time>2026-05-01T14:50:18Z</time></trkpt><trkpt lat="48.194843298754876" lon="15.21672386961813"><ele>256.0</ele><time>2026-05-01T14:50:19Z</time></trkpt><trkpt lat="48.19493940170169" lon="15.217151610013968"><ele>251.0</ele><time>2026-05-01T14:50:20Z</time></trkpt><trkpt lat="48.19503539308052" lon="15.217580070847456"><ele>251.0</ele><time>2026-05-01T14:50:21Z</time></trkpt><trkpt lat="48.19513288138766" lon="15.21800701758348"><ele>251.0</ele><time>2026-05-01T14:50:22Z</time></trkpt><trkpt lat="48.19523168512425" lon="15.218432590519937"><ele>251.0</ele><time>2026-05-01T14:50:23Z</time></trkpt><trkpt lat="48.19532998284853" lon="15.21885718577343"><ele>251.0</ele><time>2026-05-01T14:50:24Z</time></trkpt><trkpt lat="48.19542673561347" lon="15.219279767517353"><ele>252.0</ele><time>2026-05-01T14:50:25Z</time></trkpt><trkpt lat="48.19552198988584" lon="15.219704400747112"><ele>253.0</ele><time>2026-05-01T14:50:26Z</time></trkpt><trkpt lat="48.19562056714945" lon="15.220129037962382"><ele>247.0</ele><time>2026-05-01T14:50:27Z</time></trkpt><trkpt lat="48.195721049001804" lon="15.220554851473864"><ele>241.0</ele><time>2026-05-01T14:50:28Z</time></trkpt><trkpt lat="48.195821482724384" lon="15.22098271458792"><ele>241.0</ele><time>2026-05-01T14:50:29Z</time></trkpt><trkpt lat="48.19592049625652" lon="15.221410360898416"><ele>241.0</ele><time>2026-05-01T14:50:30Z</time></trkpt><trkpt lat="48.19601850585108" lon="15.221840896205594"><ele>241.0</ele><time>2026-05-01T14:50:31Z</time></trkpt><trkpt lat="48.19611737195495" lon="15.222272183598278"><ele>241.0</ele><time>2026-05-01T14:50:32Z</time></trkpt><trkpt lat="48.196217327064595" lon="15.22270393873919"><ele>245.0</ele><time>2026-05-01T14:50:33Z</time></trkpt><trkpt lat="48.19631605123429" lon="15.223134898543421"><ele>249.0</ele><time>2026-05-01T14:50:34Z</time></trkpt><trkpt lat="48.196415451741125" lon="15.223568456700363"><ele>245.5</ele><time>2026-05-01T14:50:35Z</time></trkpt><trkpt lat="48.1965155950989" lon="15.224003258006745"><ele>242.0</ele><time>2026-05-01T14:50:36Z</time></trkpt><trkpt lat="48.1966163625251" lon="15.224437541143324"><ele>246.0</ele><time>2026-05-01T14:50:37Z</time></trkpt><trkpt lat="48.19671666885837" lon="15.224871984044624"><ele>250.0</ele><time>2026-05-01T14:50:38Z</time></trkpt><trkpt lat="48.19681743074264" lon="15.22530846263578"><ele>255.5</ele><time>2026-05-01T14:50:39Z</time></trkpt><trkpt lat="48.19691818647023" lon="15.225746677945413"><ele>261.0</ele><time>2026-05-01T14:50:40Z</time></trkpt><trkpt lat="48.197016136793906" lon="15.22618553190658"><ele>264.5</ele><time>2026-05-01T14:50:41Z</time></trkpt><trkpt lat="48.19711506606737" lon="15.226622957517996"><ele>268.0</ele><time>2026-05-01T14:50:42Z</time></trkpt><trkpt lat="48.197214252557664" lon="15.227057505850663"><ele>269.0</ele><time>2026-05-01T14:50:43Z</time></trkpt><trkpt lat="48.19731270116179" lon="15.227489967250458"><ele>270.0</ele><time>2026-05-01T14:50:44Z</time></trkpt><trkpt lat="48.197408511409364" lon="15.227923392310071"><ele>261.5</ele><time>2026-05-01T14:50:45Z</time></trkpt><trkpt lat="48.19750423527753" lon="15.228357782747059"><ele>253.0</ele><time>2026-05-01T14:50:46Z</time></trkpt><trkpt lat="48.197599420059696" lon="15.228794706160906"><ele>254.0</ele><time>2026-05-01T14:50:47Z</time></trkpt><trkpt lat="48.19769071621509" lon="15.229232973812017"><ele>255.0</ele><time>2026-05-01T14:50:48Z</time></trkpt><trkpt lat="48.19777630038191" lon="15.229676459101464"><ele>257.0</ele><time>2026-05-01T14:50:49Z</time></trkpt><trkpt lat="48.197856407464336" lon="15.230120990929846"><ele>259.0</ele><time>2026-05-01T14:50:50Z</time></trkpt><trkpt lat="48.19792661859271" lon="15.23056979205568"><ele>259.5</ele><time>2026-05-01T14:50:51Z</time></trkpt><trkpt lat="48.19799091372168" lon="15.23102171514241"><ele>260.0</ele><time>2026-05-01T14:50:52Z</time></trkpt><trkpt lat="48.198049393496206" lon="15.231477326078842"><ele>258.5</ele><time>2026-05-01T14:50:53Z</time></trkpt><trkpt lat="48.19809856997113" lon="15.231935116718573"><ele>257.0</ele><time>2026-05-01T14:50:54Z</time></trkpt><trkpt lat="48.19814002486634" lon="15.232397184328278"><ele>249.5</ele><time>2026-05-01T14:50:55Z</time></trkpt><trkpt lat="48.198174403884934" lon="15.232859646128906"><ele>242.0</ele><time>2026-05-01T14:50:56Z</time></trkpt><trkpt lat="48.19820119331097" lon="15.233317461310707"><ele>241.5</ele><time>2026-05-01T14:50:57Z</time></trkpt><trkpt lat="48.1982170509277" lon="15.233751761398292"><ele>241.0</ele><time>2026-05-01T14:50:58Z</time></trkpt><trkpt lat="48.19822543707252" lon="15.234165821896639"><ele>240.0</ele><time>2026-05-01T14:50:59Z</time></trkpt><trkpt lat="48.19823219640661" lon="15.234582875593976"><ele>239.0</ele><time>2026-05-01T14:51:00Z</time></trkpt><trkpt lat="48.19823581579956" lon="15.235023070507168"><ele>239.0</ele><time>2026-05-01T14:51:01Z</time></trkpt><trkpt lat="48.198231411571214" lon="15.235473817821486"><ele>239.0</ele><time>2026-05-01T14:51:02Z</time></trkpt><trkpt lat="48.19821819748456" lon="15.235928845458378"><ele>239.0</ele><time>2026-05-01T14:51:03Z</time></trkpt><trkpt lat="48.198195828707995" lon="15.236389136546968"><ele>239.0</ele><time>2026-05-01T14:51:04Z</time></trkpt><trkpt lat="48.19816823932035" lon="15.236852139523267"><ele>241.5</ele><time>2026-05-01T14:51:05Z</time></trkpt><trkpt lat="48.198133773915956" lon="15.23731617480624"><ele>244.0</ele><time>2026-05-01T14:51:06Z</time></trkpt><trkpt lat="48.19809113441658" lon="15.237781383351935"><ele>245.0</ele><time>2026-05-01T14:51:07Z</time></trkpt><trkpt lat="48.19804603124618" lon="15.238246171972364"><ele>246.0</ele><time>2026-05-01T14:51:08Z</time></trkpt><trkpt lat="48.19800051502439" lon="15.238711326656164"><ele>246.0</ele><time>2026-05-01T14:51:09.001Z</time></trkpt><trkpt lat="48.19795338873242" lon="15.239176845402136"><ele>246.0</ele><time>2026-05-01T14:51:10.001Z</time></trkpt><trkpt lat="48.19790576688167" lon="15.239641265419282"><ele>245.0</ele><time>2026-05-01T14:51:11.001Z</time></trkpt><trkpt lat="48.19786015206947" lon="15.240105594341575"><ele>244.0</ele><time>2026-05-01T14:51:12.001Z</time></trkpt><trkpt lat="48.19780870311245" lon="15.240567471960162"><ele>244.5</ele><time>2026-05-01T14:51:13.001Z</time></trkpt><trkpt lat="48.19775046449015" lon="15.241024524339714"><ele>245.0</ele><time>2026-05-01T14:51:14.001Z</time></trkpt><trkpt lat="48.1976870763531" lon="15.241480631982363"><ele>245.5</ele><time>2026-05-01T14:51:15.001Z</time></trkpt><trkpt lat="48.19762489139437" lon="15.241937925310593"><ele>246.0</ele><time>2026-05-01T14:51:16.001Z</time></trkpt><trkpt lat="48.197566223894604" lon="15.242395530981907"><ele>245.0</ele><time>2026-05-01T14:51:17.001Z</time></trkpt><trkpt lat="48.19751404969528" lon="15.242852124523482"><ele>244.0</ele><time>2026-05-01T14:51:18.001Z</time></trkpt><trkpt lat="48.19746840265185" lon="15.243309322079194"><ele>242.5</ele><time>2026-05-01T14:51:19.001Z</time></trkpt><trkpt lat="48.197426664255914" lon="15.243767383590889"><ele>241.0</ele><time>2026-05-01T14:51:20.001Z</time></trkpt><trkpt lat="48.197389189933304" lon="15.244223767442982"><ele>239.5</ele><time>2026-05-01T14:51:21.001Z</time></trkpt><trkpt lat="48.197353836415026" lon="15.244678689630218"><ele>238.0</ele><time>2026-05-01T14:51:22.001Z</time></trkpt><trkpt lat="48.19732169534305" lon="15.245132240965848"><ele>240.5</ele><time>2026-05-01T14:51:23.001Z</time></trkpt><trkpt lat="48.1972927030146" lon="15.245586122249023"><ele>243.0</ele><time>2026-05-01T14:51:24.001Z</time></trkpt><trkpt lat="48.19726862391122" lon="15.246041255600147"><ele>240.5</ele><time>2026-05-01T14:51:25.001Z</time></trkpt><trkpt lat="48.197249219224474" lon="15.24649659916648"><ele>238.0</ele><time>2026-05-01T14:51:26.001Z</time></trkpt><trkpt lat="48.197235036797636" lon="15.246950656911551"><ele>237.5</ele><time>2026-05-01T14:51:27.001Z</time></trkpt><trkpt lat="48.19722820200724" lon="15.247404122340388"><ele>237.0</ele><time>2026-05-01T14:51:28.001Z</time></trkpt><trkpt lat="48.19722939625736" lon="15.247860707309954"><ele>239.5</ele><time>2026-05-01T14:51:29.001Z</time></trkpt><trkpt lat="48.19723855709373" lon="15.248318255419496"><ele>242.0</ele><time>2026-05-01T14:51:30.001Z</time></trkpt><trkpt lat="48.19725448845765" lon="15.248775575192674"><ele>243.5</ele><time>2026-05-01T14:51:31.001Z</time></trkpt><trkpt lat="48.197277659850066" lon="15.249233502952867"><ele>245.0</ele><time>2026-05-01T14:51:32.001Z</time></trkpt><trkpt lat="48.19731056193753" lon="15.249690087622657"><ele>242.5</ele><time>2026-05-01T14:51:33.001Z</time></trkpt><trkpt lat="48.197354636843485" lon="15.250145105934655"><ele>240.0</ele><time>2026-05-01T14:51:34.001Z</time></trkpt><trkpt lat="48.197408643091414" lon="15.250600194572225"><ele>240.5</ele><time>2026-05-01T14:51:35.001Z</time></trkpt><trkpt lat="48.197470036370795" lon="15.251050836795223"><ele>241.0</ele><time>2026-05-01T14:51:36Z</time></trkpt><trkpt lat="48.19753842051367" lon="15.25150021081035"><ele>243.0</ele><time>2026-05-01T14:51:37Z</time></trkpt><trkpt lat="48.19761404544684" lon="15.251945109114681"><ele>245.0</ele><time>2026-05-01T14:51:38Z</time></trkpt><trkpt lat="48.19769615351428" lon="15.25238641886357"><ele>246.0</ele><time>2026-05-01T14:51:39Z</time></trkpt><trkpt lat="48.19778602759055" lon="15.252820810782517"><ele>247.0</ele><time>2026-05-01T14:51:40Z</time></trkpt><trkpt lat="48.197883709606394" lon="15.253247871965714"><ele>247.0</ele><time>2026-05-01T14:51:41Z</time></trkpt><trkpt lat="48.19799044087092" lon="15.253668491655933"><ele>247.0</ele><time>2026-05-01T14:51:42Z</time></trkpt><trkpt lat="48.198107901440636" lon="15.254083437297647"><ele>247.0</ele><time>2026-05-01T14:51:43Z</time></trkpt><trkpt lat="48.1982329355292" lon="15.254494238735735"><ele>247.0</ele><time>2026-05-01T14:51:44Z</time></trkpt><trkpt lat="48.198364130277454" lon="15.254903059541943"><ele>247.0</ele><time>2026-05-01T14:51:45Z</time></trkpt><trkpt lat="48.198502028134875" lon="15.255306235436445"><ele>247.0</ele><time>2026-05-01T14:51:46Z</time></trkpt><trkpt lat="48.198646912995216" lon="15.255702764688772"><ele>249.5</ele><time>2026-05-01T14:51:47Z</time></trkpt><trkpt lat="48.19879950293961" lon="15.256095684995193"><ele>252.0</ele><time>2026-05-01T14:51:48Z</time></trkpt><trkpt lat="48.19895563584173" lon="15.256485959398999"><ele>251.5</ele><time>2026-05-01T14:51:49Z</time></trkpt><trkpt lat="48.19911772687577" lon="15.256873498636638"><ele>251.0</ele><time>2026-05-01T14:51:50Z</time></trkpt><trkpt lat="48.199286447482685" lon="15.257256346820103"><ele>252.5</ele><time>2026-05-01T14:51:51Z</time></trkpt><trkpt lat="48.19945850876499" lon="15.257635863598043"><ele>254.0</ele><time>2026-05-01T14:51:52Z</time></trkpt><trkpt lat="48.19963625865771" lon="15.258011163812109"><ele>253.0</ele><time>2026-05-01T14:51:53Z</time></trkpt><trkpt lat="48.19981781380986" lon="15.258384102802568"><ele>252.0</ele><time>2026-05-01T14:51:54Z</time></trkpt><trkpt lat="48.20000056795271" lon="15.25875427116821"><ele>254.5</ele><time>2026-05-01T14:51:55Z</time></trkpt><trkpt lat="48.20018669369488" lon="15.259120245140643"><ele>257.0</ele><time>2026-05-01T14:51:56Z</time></trkpt><trkpt lat="48.20037375502384" lon="15.259484780597232"><ele>257.0</ele><time>2026-05-01T14:51:57Z</time></trkpt><trkpt lat="48.200562772384416" lon="15.259844087138825"><ele>257.0</ele><time>2026-05-01T14:51:58Z</time></trkpt><trkpt lat="48.20075349965289" lon="15.26019994048992"><ele>255.5</ele><time>2026-05-01T14:51:59Z</time></trkpt><trkpt lat="48.20094492190068" lon="15.260555946500974"><ele>254.0</ele><time>2026-05-01T14:52:00Z</time></trkpt><trkpt lat="48.20113844674971" lon="15.260909698762875"><ele>254.0</ele><time>2026-05-01T14:52:01Z</time></trkpt><trkpt lat="48.20133232376817" lon="15.26126565779157"><ele>254.0</ele><time>2026-05-01T14:52:02Z</time></trkpt><trkpt lat="48.20152654936024" lon="15.261621531003911"><ele>254.5</ele><time>2026-05-01T14:52:03Z</time></trkpt><trkpt lat="48.20172092286092" lon="15.261979212164027"><ele>255.0</ele><time>2026-05-01T14:52:04Z</time></trkpt><trkpt lat="48.20191550674086" lon="15.262337363185834"><ele>255.5</ele><time>2026-05-01T14:52:05Z</time></trkpt><trkpt lat="48.20211093996798" lon="15.262697070454841"><ele>256.0</ele><time>2026-05-01T14:52:06Z</time></trkpt><trkpt lat="48.20230621383936" lon="15.263058525287452"><ele>255.0</ele><time>2026-05-01T14:52:07Z</time></trkpt><trkpt lat="48.202502759132926" lon="15.263419523861938"><ele>254.0</ele><time>2026-05-01T14:52:08Z</time></trkpt><trkpt lat="48.20269978334942" lon="15.263784958854226"><ele>252.0</ele><time>2026-05-01T14:52:09Z</time></trkpt><trkpt lat="48.202897331642205" lon="15.26415174713062"><ele>250.0</ele><time>2026-05-01T14:52:10Z</time></trkpt><trkpt lat="48.203096114547634" lon="15.264515939853375"><ele>249.5</ele><time>2026-05-01T14:52:11Z</time></trkpt><trkpt lat="48.203295243032485" lon="15.264883515886131"><ele>249.0</ele><time>2026-05-01T14:52:12Z</time></trkpt><trkpt lat="48.20349711218843" lon="15.265248709558302"><ele>247.0</ele><time>2026-05-01T14:52:13Z</time></trkpt><trkpt lat="48.20369917403825" lon="15.26561664398587"><ele>245.0</ele><time>2026-05-01T14:52:14Z</time></trkpt><trkpt lat="48.20389769649287" lon="15.26598085882797"><ele>245.5</ele><time>2026-05-01T14:52:15Z</time></trkpt><trkpt lat="48.20409163765254" lon="15.26633280090155"><ele>246.0</ele><time>2026-05-01T14:52:16Z</time></trkpt><trkpt lat="48.20428444914718" lon="15.266696685337608"><ele>246.0</ele><time>2026-05-01T14:52:17Z</time></trkpt><trkpt lat="48.204482788873456" lon="15.267065463683318"><ele>246.0</ele><time>2026-05-01T14:52:18Z</time></trkpt><trkpt lat="48.204681850277446" lon="15.267433729852378"><ele>246.5</ele><time>2026-05-01T14:52:19Z</time></trkpt><trkpt lat="48.204876621572225" lon="15.267793164529971"><ele>247.0</ele><time>2026-05-01T14:52:20Z</time></trkpt><trkpt lat="48.20506489929963" lon="15.26814173785169"><ele>247.0</ele><time>2026-05-01T14:52:21Z</time></trkpt><trkpt lat="48.2052544327271" lon="15.268486478234395"><ele>247.0</ele><time>2026-05-01T14:52:22Z</time></trkpt><trkpt lat="48.205448023117015" lon="15.268833896429959"><ele>245.5</ele><time>2026-05-01T14:52:23Z</time></trkpt><trkpt lat="48.205644728736466" lon="15.269181118744502"><ele>244.0</ele><time>2026-05-01T14:52:24Z</time></trkpt><trkpt lat="48.20584219500478" lon="15.269527616466544"><ele>246.0</ele><time>2026-05-01T14:52:25Z</time></trkpt><trkpt lat="48.20603850772655" lon="15.269874501007433"><ele>248.0</ele><time>2026-05-01T14:52:26Z</time></trkpt><trkpt lat="48.206233760155484" lon="15.27022515212865"><ele>248.0</ele><time>2026-05-01T14:52:27Z</time></trkpt><trkpt lat="48.206430978761226" lon="15.27057559467948"><ele>248.0</ele><time>2026-05-01T14:52:28Z</time></trkpt><trkpt lat="48.20662669555716" lon="15.270932002509864"><ele>248.0</ele><time>2026-05-01T14:52:29Z</time></trkpt><trkpt lat="48.206819884713255" lon="15.27129474801892"><ele>248.0</ele><time>2026-05-01T14:52:30Z</time></trkpt><trkpt lat="48.20701373879281" lon="15.271661874079669"><ele>247.5</ele><time>2026-05-01T14:52:31Z</time></trkpt><trkpt lat="48.2072082882887" lon="15.272030771261015"><ele>247.0</ele><time>2026-05-01T14:52:32Z</time></trkpt><trkpt lat="48.20740561783219" lon="15.27239861297358"><ele>247.0</ele><time>2026-05-01T14:52:33Z</time></trkpt><trkpt lat="48.207606896922464" lon="15.272764944932382"><ele>247.0</ele><time>2026-05-01T14:52:34Z</time></trkpt><trkpt lat="48.20781081066846" lon="15.273131374363919"><ele>246.5</ele><time>2026-05-01T14:52:35Z</time></trkpt><trkpt lat="48.20801586846866" lon="15.273501710869084"><ele>246.0</ele><time>2026-05-01T14:52:36Z</time></trkpt><trkpt lat="48.20822122836431" lon="15.273873342585993"><ele>245.5</ele><time>2026-05-01T14:52:37Z</time></trkpt><trkpt lat="48.20842768015803" lon="15.274243266543698"><ele>245.0</ele><time>2026-05-01T14:52:38Z</time></trkpt><trkpt lat="48.20863348204535" lon="15.274614852128487"><ele>244.5</ele><time>2026-05-01T14:52:39Z</time></trkpt><trkpt lat="48.208838968631774" lon="15.2749888048175"><ele>244.0</ele><time>2026-05-01T14:52:40Z</time></trkpt><trkpt lat="48.20904177279882" lon="15.275364944573745"><ele>243.0</ele><time>2026-05-01T14:52:41Z</time></trkpt><trkpt lat="48.20924157675321" lon="15.275743118120849"><ele>242.0</ele><time>2026-05-01T14:52:42Z</time></trkpt><trkpt lat="48.20944003476313" lon="15.276122805255108"><ele>241.0</ele><time>2026-05-01T14:52:43Z</time></trkpt><trkpt lat="48.209635033252205" lon="15.276502090505916"><ele>240.0</ele><time>2026-05-01T14:52:44Z</time></trkpt><trkpt lat="48.20982266754391" lon="15.276879312503416"><ele>240.0</ele><time>2026-05-01T14:52:45Z</time></trkpt><trkpt lat="48.21000778908273" lon="15.27725594171199"><ele>240.0</ele><time>2026-05-01T14:52:46Z</time></trkpt><trkpt lat="48.21019498007192" lon="15.277630394726465"><ele>239.0</ele><time>2026-05-01T14:52:47Z</time></trkpt><trkpt lat="48.210384218884464" lon="15.27800294350045"><ele>238.0</ele><time>2026-05-01T14:52:48Z</time></trkpt><trkpt lat="48.21057491788597" lon="15.278375181738342"><ele>237.0</ele><time>2026-05-01T14:52:49Z</time></trkpt><trkpt lat="48.2107648162098" lon="15.278745395165792"><ele>236.0</ele><time>2026-05-01T14:52:50Z</time></trkpt><trkpt lat="48.210954864375964" lon="15.279118049988622"><ele>236.0</ele><time>2026-05-01T14:52:51Z</time></trkpt><trkpt lat="48.21114205109876" lon="15.27949319694537"><ele>236.0</ele><time>2026-05-01T14:52:52Z</time></trkpt><trkpt lat="48.21132610808413" lon="15.279868842731435"><ele>236.5</ele><time>2026-05-01T14:52:53Z</time></trkpt><trkpt lat="48.211506682965826" lon="15.280245342821482"><ele>237.0</ele><time>2026-05-01T14:52:54Z</time></trkpt><trkpt lat="48.21168349909703" lon="15.280622276249549"><ele>235.5</ele><time>2026-05-01T14:52:55Z</time></trkpt><trkpt lat="48.21185707697346" lon="15.280994590742305"><ele>234.0</ele><time>2026-05-01T14:52:56Z</time></trkpt><trkpt lat="48.212030147228944" lon="15.281365689156216"><ele>235.0</ele><time>2026-05-01T14:52:57Z</time></trkpt><trkpt lat="48.21220441806052" lon="15.281738151168671"><ele>236.0</ele><time>2026-05-01T14:52:58Z</time></trkpt><trkpt lat="48.21237917790695" lon="15.282116015512464"><ele>236.0</ele><time>2026-05-01T14:52:59Z</time></trkpt><trkpt lat="48.212552154365696" lon="15.282500039754053"><ele>236.0</ele><time>2026-05-01T14:53:00Z</time></trkpt><trkpt lat="48.212718550516826" lon="15.282890025509982"><ele>237.0</ele><time>2026-05-01T14:53:01Z</time></trkpt><trkpt lat="48.21287797419554" lon="15.28328695080414"><ele>238.0</ele><time>2026-05-01T14:53:02Z</time></trkpt><trkpt lat="48.21303207552971" lon="15.283688632964669"><ele>237.5</ele><time>2026-05-01T14:53:03Z</time></trkpt><trkpt lat="48.21318369787638" lon="15.284092336974181"><ele>237.0</ele><time>2026-05-01T14:53:04Z</time></trkpt><trkpt lat="48.21333132585719" lon="15.284496145393398"><ele>235.0</ele><time>2026-05-01T14:53:05Z</time></trkpt><trkpt lat="48.21347505778928" lon="15.284901588763898"><ele>233.0</ele><time>2026-05-01T14:53:06Z</time></trkpt><trkpt lat="48.21361240589426" lon="15.285309699793558"><ele>228.5</ele><time>2026-05-01T14:53:07Z</time></trkpt><trkpt lat="48.21374322588745" lon="15.285720748706517"><ele>224.0</ele><time>2026-05-01T14:53:08Z</time></trkpt><trkpt lat="48.21387184757671" lon="15.28613473875254"><ele>226.5</ele><time>2026-05-01T14:53:09Z</time></trkpt><trkpt lat="48.21399972075651" lon="15.286551116003421"><ele>229.0</ele><time>2026-05-01T14:53:10Z</time></trkpt><trkpt lat="48.214124030103484" lon="15.28696965470103"><ele>227.0</ele><time>2026-05-01T14:53:11Z</time></trkpt><trkpt lat="48.21424115042421" lon="15.28739044876066"><ele>225.0</ele><time>2026-05-01T14:53:12Z</time></trkpt><trkpt lat="48.21435201819981" lon="15.28781494827571"><ele>224.0</ele><time>2026-05-01T14:53:13Z</time></trkpt><trkpt lat="48.21445886871691" lon="15.288241566321995"><ele>223.0</ele><time>2026-05-01T14:53:14Z</time></trkpt><trkpt lat="48.21456098952636" lon="15.288670982927364"><ele>221.0</ele><time>2026-05-01T14:53:15.001Z</time></trkpt><trkpt lat="48.21465829516025" lon="15.289103473393386"><ele>219.0</ele><time>2026-05-01T14:53:16.001Z</time></trkpt><trkpt lat="48.214750589759085" lon="15.289535137561254"><ele>221.0</ele><time>2026-05-01T14:53:17.001Z</time></trkpt><trkpt lat="48.21483533583652" lon="15.289968367607079"><ele>223.0</ele><time>2026-05-01T14:53:18.001Z</time></trkpt><trkpt lat="48.214912587405955" lon="15.290404957463775"><ele>222.0</ele><time>2026-05-01T14:53:19.001Z</time></trkpt><trkpt lat="48.214984702934984" lon="15.290841478110131"><ele>221.0</ele><time>2026-05-01T14:53:20.001Z</time></trkpt><trkpt lat="48.21504957905472" lon="15.291281374851563"><ele>219.5</ele><time>2026-05-01T14:53:21.001Z</time></trkpt><trkpt lat="48.215109393906104" lon="15.291722738403863"><ele>218.0</ele><time>2026-05-01T14:53:22.001Z</time></trkpt><trkpt lat="48.21516393764082" lon="15.292151297024244"><ele>217.5</ele><time>2026-05-01T14:53:23.001Z</time></trkpt><trkpt lat="48.21521149926554" lon="15.292580607637104"><ele>217.0</ele><time>2026-05-01T14:53:24.001Z</time></trkpt><trkpt lat="48.215252409890624" lon="15.293025995606168"><ele>216.5</ele><time>2026-05-01T14:53:25.001Z</time></trkpt><trkpt lat="48.21528611306159" lon="15.29347857800865"><ele>216.0</ele><time>2026-05-01T14:53:26.001Z</time></trkpt><trkpt lat="48.21531177472955" lon="15.293935492357217"><ele>214.0</ele><time>2026-05-01T14:53:27.001Z</time></trkpt><trkpt lat="48.21532668293204" lon="15.2943944900821"><ele>212.0</ele><time>2026-05-01T14:53:28.001Z</time></trkpt><trkpt lat="48.21532879928812" lon="15.294852644033975"><ele>212.0</ele><time>2026-05-01T14:53:29.001Z</time></trkpt><trkpt lat="48.21531904028305" lon="15.295309898029052"><ele>212.0</ele><time>2026-05-01T14:53:30.001Z</time></trkpt><trkpt lat="48.21530150351322" lon="15.295765324124948"><ele>211.5</ele><time>2026-05-01T14:53:31.001Z</time></trkpt><trkpt lat="48.215281836732366" lon="15.296217472619789"><ele>211.0</ele><time>2026-05-01T14:53:32.001Z</time></trkpt><trkpt lat="48.215257331102144" lon="15.296664749949972"><ele>211.0</ele><time>2026-05-01T14:53:33.001Z</time></trkpt><trkpt lat="48.21522727071515" lon="15.297110686267494"><ele>211.0</ele><time>2026-05-01T14:53:34.001Z</time></trkpt><trkpt lat="48.21518714709316" lon="15.297554306457858"><ele>211.0</ele><time>2026-05-01T14:53:35.001Z</time></trkpt><trkpt lat="48.215137974405906" lon="15.29799498358593"><ele>211.0</ele><time>2026-05-01T14:53:36.001Z</time></trkpt><trkpt lat="48.21508224367356" lon="15.298433262430237"><ele>211.0</ele><time>2026-05-01T14:53:37.001Z</time></trkpt><trkpt lat="48.21502351139676" lon="15.29886497684422"><ele>211.0</ele><time>2026-05-01T14:53:38.001Z</time></trkpt><trkpt lat="48.21496215633645" lon="15.29929400094162"><ele>211.0</ele><time>2026-05-01T14:53:39.001Z</time></trkpt><trkpt lat="48.2148972853135" lon="15.299720260380342"><ele>211.0</ele><time>2026-05-01T14:53:40.001Z</time></trkpt><trkpt lat="48.21482574431012" lon="15.300145404385697"><ele>210.5</ele><time>2026-05-01T14:53:41.001Z</time></trkpt><trkpt lat="48.214747297067554" lon="15.300565291116"><ele>210.0</ele><time>2026-05-01T14:53:42Z</time></trkpt><trkpt lat="48.214657815732366" lon="15.300979179465555"><ele>209.5</ele><time>2026-05-01T14:53:43Z</time></trkpt><trkpt lat="48.21455932723609" lon="15.301385234700014"><ele>209.0</ele><time>2026-05-01T14:53:44Z</time></trkpt><trkpt lat="48.21445816656522" lon="15.301789440040535"><ele>209.0</ele><time>2026-05-01T14:53:45Z</time></trkpt><trkpt lat="48.21435825017401" lon="15.302196505986762"><ele>209.0</ele><time>2026-05-01T14:53:46Z</time></trkpt><trkpt lat="48.21426489516693" lon="15.302608677133524"><ele>210.0</ele><time>2026-05-01T14:53:47Z</time></trkpt><trkpt lat="48.214178034968235" lon="15.303027978270391"><ele>211.0</ele><time>2026-05-01T14:53:48Z</time></trkpt><trkpt lat="48.21409214099697" lon="15.303455246041787"><ele>211.0</ele><time>2026-05-01T14:53:49Z</time></trkpt><trkpt lat="48.214007442603986" lon="15.303889140728261"><ele>211.0</ele><time>2026-05-01T14:53:50Z</time></trkpt><trkpt lat="48.213921617986905" lon="15.304326354797125"><ele>215.0</ele><time>2026-05-01T14:53:51Z</time></trkpt><trkpt lat="48.21383583981676" lon="15.304765368709203"><ele>219.0</ele><time>2026-05-01T14:53:52Z</time></trkpt><trkpt lat="48.21375346083409" lon="15.305207164882573"><ele>221.5</ele><time>2026-05-01T14:53:53Z</time></trkpt><trkpt lat="48.21367992772401" lon="15.305649211620201"><ele>224.0</ele><time>2026-05-01T14:53:54Z</time></trkpt><trkpt lat="48.21361960433468" lon="15.30609077589661"><ele>223.0</ele><time>2026-05-01T14:53:55Z</time></trkpt><trkpt lat="48.21356908077649" lon="15.306533475777684"><ele>222.0</ele><time>2026-05-01T14:53:56Z</time></trkpt><trkpt lat="48.21352777781534" lon="15.30697860723424"><ele>220.5</ele><time>2026-05-01T14:53:57Z</time></trkpt><trkpt lat="48.213498859796104" lon="15.30742899340488"><ele>219.0</ele><time>2026-05-01T14:53:58Z</time></trkpt><trkpt lat="48.213481104863064" lon="15.307880909895479"><ele>219.5</ele><time>2026-05-01T14:53:59Z</time></trkpt><trkpt lat="48.21347287681025" lon="15.308334326325976"><ele>220.0</ele><time>2026-05-01T14:54:00Z</time></trkpt><trkpt lat="48.21347380936535" lon="15.308787501673189"><ele>221.0</ele><time>2026-05-01T14:54:01Z</time></trkpt><trkpt lat="48.213482762854284" lon="15.309243540889005"><ele>222.0</ele><time>2026-05-01T14:54:02Z</time></trkpt><trkpt lat="48.213500613698386" lon="15.309699224783147"><ele>223.5</ele><time>2026-05-01T14:54:03Z</time></trkpt><trkpt lat="48.21352642378831" lon="15.310152749473072"><ele>225.0</ele><time>2026-05-01T14:54:04Z</time></trkpt><trkpt lat="48.21356446600075" lon="15.310603383928154"><ele>226.0</ele><time>2026-05-01T14:54:05Z</time></trkpt><trkpt lat="48.21361637360917" lon="15.311050403839976"><ele>227.0</ele><time>2026-05-01T14:54:06Z</time></trkpt><trkpt lat="48.21368086537058" lon="15.311493757736683"><ele>228.0</ele><time>2026-05-01T14:54:07Z</time></trkpt><trkpt lat="48.21375470442429" lon="15.311935098239822"><ele>229.0</ele><time>2026-05-01T14:54:08Z</time></trkpt><trkpt lat="48.21383549454386" lon="15.3123748767609"><ele>229.5</ele><time>2026-05-01T14:54:09Z</time></trkpt><trkpt lat="48.21392363987372" lon="15.31281135961426"><ele>230.0</ele><time>2026-05-01T14:54:10Z</time></trkpt><trkpt lat="48.21401958719563" lon="15.31324048512003"><ele>230.0</ele><time>2026-05-01T14:54:11Z</time></trkpt><trkpt lat="48.21412508292708" lon="15.313664724422798"><ele>230.0</ele><time>2026-05-01T14:54:12Z</time></trkpt><trkpt lat="48.214242453436526" lon="15.314082695389313"><ele>231.5</ele><time>2026-05-01T14:54:13Z</time></trkpt><trkpt lat="48.21437074788023" lon="15.314492855633711"><ele>233.0</ele><time>2026-05-01T14:54:14Z</time></trkpt><trkpt lat="48.21450916240382" lon="15.314897053429958"><ele>234.0</ele><time>2026-05-01T14:54:15Z</time></trkpt><trkpt lat="48.214653687498405" lon="15.315296205560891"><ele>235.0</ele><time>2026-05-01T14:54:16Z</time></trkpt><trkpt lat="48.21480364329126" lon="15.315691191196514"><ele>237.0</ele><time>2026-05-01T14:54:17Z</time></trkpt><trkpt lat="48.2149546829672" lon="15.316087298939202"><ele>239.0</ele><time>2026-05-01T14:54:18Z</time></trkpt><trkpt lat="48.21510324378747" lon="15.316483287767182"><ele>240.5</ele><time>2026-05-01T14:54:19Z</time></trkpt><trkpt lat="48.215250230241146" lon="15.31687986763169"><ele>242.0</ele><time>2026-05-01T14:54:20Z</time></trkpt><trkpt lat="48.21539915900548" lon="15.31727462573988"><ele>245.0</ele><time>2026-05-01T14:54:21Z</time></trkpt><trkpt lat="48.21554856324917" lon="15.317665954436062"><ele>248.0</ele><time>2026-05-01T14:54:22Z</time></trkpt><trkpt lat="48.21569850206134" lon="15.318055096426693"><ele>251.0</ele><time>2026-05-01T14:54:23Z</time></trkpt><trkpt lat="48.215846392341845" lon="15.318443307986389"><ele>254.0</ele><time>2026-05-01T14:54:24Z</time></trkpt><trkpt lat="48.215995038047595" lon="15.318829720854422"><ele>257.0</ele><time>2026-05-01T14:54:25Z</time></trkpt><trkpt lat="48.21614350732857" lon="15.319213801346029"><ele>260.0</ele><time>2026-05-01T14:54:26Z</time></trkpt><trkpt lat="48.216291506391876" lon="15.319597035975987"><ele>259.5</ele><time>2026-05-01T14:54:27Z</time></trkpt><trkpt lat="48.21643557383587" lon="15.319982142975968"><ele>259.0</ele><time>2026-05-01T14:54:28Z</time></trkpt><trkpt lat="48.21657651961359" lon="15.320370337175135"><ele>261.5</ele><time>2026-05-01T14:54:29Z</time></trkpt><trkpt lat="48.2167097183358" lon="15.320765123087048"><ele>264.0</ele><time>2026-05-01T14:54:30Z</time></trkpt><trkpt lat="48.21683737195469" lon="15.321167834946735"><ele>265.5</ele><time>2026-05-01T14:54:31Z</time></trkpt><trkpt lat="48.216959812428456" lon="15.32157580625906"><ele>267.0</ele><time>2026-05-01T14:54:32Z</time></trkpt><trkpt lat="48.217075292181356" lon="15.321987894623776"><ele>267.5</ele><time>2026-05-01T14:54:33Z</time></trkpt><trkpt lat="48.217182512641344" lon="15.322406650524712"><ele>268.0</ele><time>2026-05-01T14:54:34Z</time></trkpt><trkpt lat="48.217283176477736" lon="15.322829174250788"><ele>266.0</ele><time>2026-05-01T14:54:35Z</time></trkpt><trkpt lat="48.21737364995572" lon="15.323238518926198"><ele>264.0</ele><time>2026-05-01T14:54:36Z</time></trkpt><trkpt lat="48.21745286644537" lon="15.323642454130555"><ele>263.5</ele><time>2026-05-01T14:54:37Z</time></trkpt><trkpt lat="48.21752899923963" lon="15.324061750348534"><ele>263.0</ele><time>2026-05-01T14:54:38Z</time></trkpt><trkpt lat="48.21760020397224" lon="15.324488618816218"><ele>263.0</ele><time>2026-05-01T14:54:39Z</time></trkpt><trkpt lat="48.21766368520795" lon="15.324924418801467"><ele>263.0</ele><time>2026-05-01T14:54:40Z</time></trkpt><trkpt lat="48.217716053372506" lon="15.325371293668246"><ele>263.0</ele><time>2026-05-01T14:54:41Z</time></trkpt><trkpt lat="48.21775297921451" lon="15.325825545836103"><ele>263.0</ele><time>2026-05-01T14:54:42Z</time></trkpt><trkpt lat="48.2177777362882" lon="15.32628474915374"><ele>262.0</ele><time>2026-05-01T14:54:43Z</time></trkpt><trkpt lat="48.21778724958267" lon="15.326746861353325"><ele>261.0</ele><time>2026-05-01T14:54:44Z</time></trkpt><trkpt lat="48.217787435344334" lon="15.327209508754805"><ele>261.0</ele><time>2026-05-01T14:54:45Z</time></trkpt><trkpt lat="48.217782746274366" lon="15.327672938508817"><ele>261.0</ele><time>2026-05-01T14:54:46Z</time></trkpt><trkpt lat="48.217771755626025" lon="15.328136176118981"><ele>261.0</ele><time>2026-05-01T14:54:47Z</time></trkpt><trkpt lat="48.21775459706874" lon="15.328594320044436"><ele>261.0</ele><time>2026-05-01T14:54:48Z</time></trkpt><trkpt lat="48.21773418025585" lon="15.329048040279663"><ele>261.0</ele><time>2026-05-01T14:54:49Z</time></trkpt><trkpt lat="48.21771122650021" lon="15.329505734217994"><ele>261.0</ele><time>2026-05-01T14:54:50Z</time></trkpt><trkpt lat="48.217682379045954" lon="15.329965630193614"><ele>261.0</ele><time>2026-05-01T14:54:51Z</time></trkpt><trkpt lat="48.21764977179078" lon="15.330424195889094"><ele>261.0</ele><time>2026-05-01T14:54:52Z</time></trkpt><trkpt lat="48.217620875440524" lon="15.330885612832013"><ele>260.5</ele><time>2026-05-01T14:54:53Z</time></trkpt><trkpt lat="48.2175869569695" lon="15.331338818814787"><ele>260.0</ele><time>2026-05-01T14:54:54Z</time></trkpt><trkpt lat="48.21755280159681" lon="15.331790362587332"><ele>259.5</ele><time>2026-05-01T14:54:55Z</time></trkpt><trkpt lat="48.21752167555525" lon="15.332240714580537"><ele>259.0</ele><time>2026-05-01T14:54:56Z</time></trkpt><trkpt lat="48.21749121329655" lon="15.332694630582113"><ele>259.0</ele><time>2026-05-01T14:54:57Z</time></trkpt><trkpt lat="48.21746162561871" lon="15.333148597769327"><ele>259.0</ele><time>2026-05-01T14:54:58Z</time></trkpt><trkpt lat="48.21742986717598" lon="15.333602067568165"><ele>259.0</ele><time>2026-05-01T14:54:59Z</time></trkpt><trkpt lat="48.21739383321119" lon="15.33405342633031"><ele>259.0</ele><time>2026-05-01T14:55:00Z</time></trkpt><trkpt lat="48.21735416892968" lon="15.334502985709502"><ele>260.5</ele><time>2026-05-01T14:55:01Z</time></trkpt><trkpt lat="48.21731370980229" lon="15.334950712488935"><ele>262.0</ele><time>2026-05-01T14:55:02Z</time></trkpt><trkpt lat="48.21727546040703" lon="15.335395192340954"><ele>261.0</ele><time>2026-05-01T14:55:03Z</time></trkpt><trkpt lat="48.21724178918015" lon="15.335838614160611"><ele>260.0</ele><time>2026-05-01T14:55:04Z</time></trkpt><trkpt lat="48.21721063607858" lon="15.336281447031903"><ele>258.5</ele><time>2026-05-01T14:55:05Z</time></trkpt><trkpt lat="48.21718056841166" lon="15.336725165941203"><ele>257.0</ele><time>2026-05-01T14:55:06Z</time></trkpt><trkpt lat="48.21715044700525" lon="15.337170943140121"><ele>255.0</ele><time>2026-05-01T14:55:07Z</time></trkpt><trkpt lat="48.21712096941779" lon="15.337618958148497"><ele>253.0</ele><time>2026-05-01T14:55:08Z</time></trkpt><trkpt lat="48.21709056037156" lon="15.338067714208629"><ele>253.0</ele><time>2026-05-01T14:55:09Z</time></trkpt><trkpt lat="48.21705903067659" lon="15.338519751885533"><ele>253.0</ele><time>2026-05-01T14:55:10Z</time></trkpt><trkpt lat="48.21702821882278" lon="15.33897506575985"><ele>253.0</ele><time>2026-05-01T14:55:11Z</time></trkpt><trkpt lat="48.21700170927777" lon="15.339429979867408"><ele>253.0</ele><time>2026-05-01T14:55:12Z</time></trkpt><trkpt lat="48.21697880039832" lon="15.339885920731943"><ele>253.0</ele><time>2026-05-01T14:55:13Z</time></trkpt><trkpt lat="48.216956035869686" lon="15.340347853523452"><ele>253.0</ele><time>2026-05-01T14:55:14Z</time></trkpt><trkpt lat="48.21693210931222" lon="15.340806977320124"><ele>253.5</ele><time>2026-05-01T14:55:15Z</time></trkpt><trkpt lat="48.216903506627546" lon="15.341268735365155"><ele>254.0</ele><time>2026-05-01T14:55:16Z</time></trkpt><trkpt lat="48.21686972043845" lon="15.341728333641338"><ele>254.5</ele><time>2026-05-01T14:55:17Z</time></trkpt><trkpt lat="48.216832730086146" lon="15.342186323284022"><ele>255.0</ele><time>2026-05-01T14:55:18Z</time></trkpt><trkpt lat="48.216791423900986" lon="15.342642395237272"><ele>253.5</ele><time>2026-05-01T14:55:19Z</time></trkpt><trkpt lat="48.21674912548311" lon="15.343093304302515"><ele>252.0</ele><time>2026-05-01T14:55:20Z</time></trkpt><trkpt lat="48.21671014427608" lon="15.343545419892052"><ele>251.0</ele><time>2026-05-01T14:55:21Z</time></trkpt><trkpt lat="48.21667586155052" lon="15.34399819660556"><ele>250.0</ele><time>2026-05-01T14:55:22.001Z</time></trkpt><trkpt lat="48.21664394966767" lon="15.344451553167147"><ele>250.5</ele><time>2026-05-01T14:55:23.001Z</time></trkpt><trkpt lat="48.21661416668144" lon="15.344905083135549"><ele>251.0</ele><time>2026-05-01T14:55:24.001Z</time></trkpt><trkpt lat="48.21658528868221" lon="15.345357179926369"><ele>250.0</ele><time>2026-05-01T14:55:25.001Z</time></trkpt><trkpt lat="48.216557445895525" lon="15.345807902436368"><ele>249.0</ele><time>2026-05-01T14:55:26.001Z</time></trkpt><trkpt lat="48.21652872361005" lon="15.34625678639854"><ele>249.0</ele><time>2026-05-01T14:55:27.001Z</time></trkpt><trkpt lat="48.216497701284894" lon="15.346703285731484"><ele>249.0</ele><time>2026-05-01T14:55:28.001Z</time></trkpt><trkpt lat="48.21646590734047" lon="15.34714742892037"><ele>249.0</ele><time>2026-05-01T14:55:29.001Z</time></trkpt><trkpt lat="48.21643408232343" lon="15.347589102536253"><ele>249.0</ele><time>2026-05-01T14:55:30.001Z</time></trkpt><trkpt lat="48.21640150139069" lon="15.348033044029409"><ele>249.0</ele><time>2026-05-01T14:55:31.001Z</time></trkpt><trkpt lat="48.216365004904794" lon="15.34848073171895"><ele>249.0</ele><time>2026-05-01T14:55:32.001Z</time></trkpt><trkpt lat="48.216325536714656" lon="15.348930341336091"><ele>248.5</ele><time>2026-05-01T14:55:33.001Z</time></trkpt><trkpt lat="48.21628246704725" lon="15.349380561584939"><ele>248.0</ele><time>2026-05-01T14:55:34.001Z</time></trkpt><trkpt lat="48.21623583046991" lon="15.349830494666747"><ele>248.0</ele><time>2026-05-01T14:55:35.001Z</time></trkpt><trkpt lat="48.21618580170004" lon="15.350278419555949"><ele>248.0</ele><time>2026-05-01T14:55:36.001Z</time></trkpt><trkpt lat="48.216132812135605" lon="15.350717477128962"><ele>247.5</ele><time>2026-05-01T14:55:37.001Z</time></trkpt><trkpt lat="48.2160767803667" lon="15.351135554480527"><ele>247.0</ele><time>2026-05-01T14:55:38.001Z</time></trkpt><trkpt lat="48.21601063070727" lon="15.351561082194007"><ele>246.5</ele><time>2026-05-01T14:55:39.001Z</time></trkpt><trkpt lat="48.21593468331536" lon="15.351986190344183"><ele>246.0</ele><time>2026-05-01T14:55:40.001Z</time></trkpt><trkpt lat="48.215847571932684" lon="15.352408895015168"><ele>245.5</ele><time>2026-05-01T14:55:41.001Z</time></trkpt><trkpt lat="48.21575086964633" lon="15.352830180213001"><ele>245.0</ele><time>2026-05-01T14:55:42.001Z</time></trkpt><trkpt lat="48.21564706964504" lon="15.35324852931536"><ele>245.0</ele><time>2026-05-01T14:55:43.001Z</time></trkpt><trkpt lat="48.21553370090095" lon="15.353662953976354"><ele>245.0</ele><time>2026-05-01T14:55:44.001Z</time></trkpt><trkpt lat="48.215409396412774" lon="15.354070595481902"><ele>245.0</ele><time>2026-05-01T14:55:45.001Z</time></trkpt><trkpt lat="48.21527470198754" lon="15.354470150867245"><ele>245.0</ele><time>2026-05-01T14:55:46.001Z</time></trkpt><trkpt lat="48.21513167466619" lon="15.354864758963291"><ele>247.5</ele><time>2026-05-01T14:55:47.001Z</time></trkpt><trkpt lat="48.21497934851513" lon="15.355251974390095"><ele>250.0</ele><time>2026-05-01T14:55:48Z</time></trkpt><trkpt lat="48.21481754882149" lon="15.355631121575364"><ele>250.0</ele><time>2026-05-01T14:55:49Z</time></trkpt><trkpt lat="48.21464654612398" lon="15.35600087243496"><ele>250.0</ele><time>2026-05-01T14:55:50Z</time></trkpt><trkpt lat="48.21446661280612" lon="15.356362458828249"><ele>252.0</ele><time>2026-05-01T14:55:51Z</time></trkpt><trkpt lat="48.21427840259781" lon="15.356713610308624"><ele>254.0</ele><time>2026-05-01T14:55:52Z</time></trkpt><trkpt lat="48.214083741290445" lon="15.357056699702948"><ele>256.0</ele><time>2026-05-01T14:55:53Z</time></trkpt><trkpt lat="48.21388064989374" lon="15.35739109631419"><ele>258.0</ele><time>2026-05-01T14:55:54Z</time></trkpt><trkpt lat="48.2136677999757" lon="15.357713576574364"><ele>258.0</ele><time>2026-05-01T14:55:55Z</time></trkpt><trkpt lat="48.21344463120633" lon="15.358022168166817"><ele>258.0</ele><time>2026-05-01T14:55:56Z</time></trkpt><trkpt lat="48.2132130573252" lon="15.358317761367102"><ele>259.5</ele><time>2026-05-01T14:55:57Z</time></trkpt><trkpt lat="48.21297537662472" lon="15.358602547763056"><ele>261.0</ele><time>2026-05-01T14:55:58Z</time></trkpt><trkpt lat="48.2127331178542" lon="15.35887618702222"><ele>261.0</ele><time>2026-05-01T14:55:59Z</time></trkpt><trkpt lat="48.212484056910945" lon="15.359134974549555"><ele>261.0</ele><time>2026-05-01T14:56:00Z</time></trkpt><trkpt lat="48.21223041374787" lon="15.359380074094478"><ele>261.0</ele><time>2026-05-01T14:56:01Z</time></trkpt><trkpt lat="48.211972179617575" lon="15.359612679852928"><ele>261.0</ele><time>2026-05-01T14:56:02Z</time></trkpt><trkpt lat="48.21170951376869" lon="15.359833257162045"><ele>259.5</ele><time>2026-05-01T14:56:03Z</time></trkpt><trkpt lat="48.211440906418154" lon="15.360044583697807"><ele>258.0</ele><time>2026-05-01T14:56:04Z</time></trkpt><trkpt lat="48.211167626193635" lon="15.360245708813249"><ele>258.0</ele><time>2026-05-01T14:56:05Z</time></trkpt><trkpt lat="48.210889963399254" lon="15.360438961978607"><ele>258.0</ele><time>2026-05-01T14:56:06Z</time></trkpt><trkpt lat="48.21060867012751" lon="15.360626315702337"><ele>258.5</ele><time>2026-05-01T14:56:07Z</time></trkpt><trkpt lat="48.21032621905525" lon="15.360810058482983"><ele>259.0</ele><time>2026-05-01T14:56:08Z</time></trkpt><trkpt lat="48.210044149565654" lon="15.360990469783449"><ele>258.0</ele><time>2026-05-01T14:56:09Z</time></trkpt><trkpt lat="48.209763323262955" lon="15.361167998680715"><ele>257.0</ele><time>2026-05-01T14:56:10Z</time></trkpt><trkpt lat="48.209484299155065" lon="15.361344606601723"><ele>258.5</ele><time>2026-05-01T14:56:11Z</time></trkpt><trkpt lat="48.20920678966518" lon="15.361523411586285"><ele>260.0</ele><time>2026-05-01T14:56:12Z</time></trkpt><trkpt lat="48.20892961371459" lon="15.36170486928676"><ele>260.0</ele><time>2026-05-01T14:56:13Z</time></trkpt><trkpt lat="48.20865151154586" lon="15.3618846974495"><ele>260.0</ele><time>2026-05-01T14:56:14Z</time></trkpt><trkpt lat="48.20837138470282" lon="15.36206421438321"><ele>262.0</ele><time>2026-05-01T14:56:15Z</time></trkpt><trkpt lat="48.208091414026164" lon="15.362243628762027"><ele>264.0</ele><time>2026-05-01T14:56:16Z</time></trkpt><trkpt lat="48.20781053692249" lon="15.362421582065489"><ele>264.0</ele><time>2026-05-01T14:56:17Z</time></trkpt><trkpt lat="48.20753118623693" lon="15.36259807744764"><ele>264.0</ele><time>2026-05-01T14:56:18Z</time></trkpt><trkpt lat="48.20725323277256" lon="15.36277350443443"><ele>265.0</ele><time>2026-05-01T14:56:19Z</time></trkpt><trkpt lat="48.206980131246254" lon="15.362949332251675"><ele>266.0</ele><time>2026-05-01T14:56:20Z</time></trkpt><trkpt lat="48.20671121094308" lon="15.363129812568245"><ele>264.5</ele><time>2026-05-01T14:56:21Z</time></trkpt><trkpt lat="48.206442039100835" lon="15.36331425419868"><ele>263.0</ele><time>2026-05-01T14:56:22Z</time></trkpt><trkpt lat="48.20617007094894" lon="15.363500894848642"><ele>263.0</ele><time>2026-05-01T14:56:23Z</time></trkpt><trkpt lat="48.20589559608363" lon="15.363682674151407"><ele>263.0</ele><time>2026-05-01T14:56:24Z</time></trkpt><trkpt lat="48.20561590493566" lon="15.363857792592782"><ele>261.5</ele><time>2026-05-01T14:56:25Z</time></trkpt><trkpt lat="48.2053343432696" lon="15.364033676383597"><ele>260.0</ele><time>2026-05-01T14:56:26Z</time></trkpt><trkpt lat="48.2050517340423" lon="15.364212663972031"><ele>256.5</ele><time>2026-05-01T14:56:27Z</time></trkpt><trkpt lat="48.20476855976294" lon="15.364385464885935"><ele>253.0</ele><time>2026-05-01T14:56:28Z</time></trkpt><trkpt lat="48.204483825759915" lon="15.364554119176812"><ele>254.0</ele><time>2026-05-01T14:56:29Z</time></trkpt><trkpt lat="48.20419748150442" lon="15.364729573820984"><ele>255.0</ele><time>2026-05-01T14:56:30Z</time></trkpt><trkpt lat="48.203914752887705" lon="15.364915929526676"><ele>252.0</ele><time>2026-05-01T14:56:31Z</time></trkpt><trkpt lat="48.20363894250608" lon="15.365116508918732"><ele>249.0</ele><time>2026-05-01T14:56:32Z</time></trkpt><trkpt lat="48.20336693238155" lon="15.365325552889203"><ele>248.5</ele><time>2026-05-01T14:56:33Z</time></trkpt><trkpt lat="48.20309551675356" lon="15.365541156704346"><ele>248.0</ele><time>2026-05-01T14:56:34Z</time></trkpt><trkpt lat="48.20282727717621" lon="15.36575833855871"><ele>248.0</ele><time>2026-05-01T14:56:35Z</time></trkpt><trkpt lat="48.20257429647347" lon="15.365973277820288"><ele>248.0</ele><time>2026-05-01T14:56:36Z</time></trkpt><trkpt lat="48.202324193487236" lon="15.366191199762882"><ele>246.5</ele><time>2026-05-01T14:56:37Z</time></trkpt><trkpt lat="48.2020697026526" lon="15.366423476719572"><ele>245.0</ele><time>2026-05-01T14:56:38Z</time></trkpt><trkpt lat="48.20181631496736" lon="15.366671127310457"><ele>245.0</ele><time>2026-05-01T14:56:39Z</time></trkpt><trkpt lat="48.201564850822336" lon="15.366930811437426"><ele>245.0</ele><time>2026-05-01T14:56:40Z</time></trkpt><trkpt lat="48.2013162874212" lon="15.367198742980586"><ele>242.5</ele><time>2026-05-01T14:56:41Z</time></trkpt><trkpt lat="48.201070187610064" lon="15.367472496479063"><ele>240.0</ele><time>2026-05-01T14:56:42Z</time></trkpt><trkpt lat="48.20082671579675" lon="15.367754309558977"><ele>238.5</ele><time>2026-05-01T14:56:43Z</time></trkpt><trkpt lat="48.20058805306893" lon="15.36804324875424"><ele>237.0</ele><time>2026-05-01T14:56:44Z</time></trkpt><trkpt lat="48.200356889318606" lon="15.368345260375492"><ele>237.0</ele><time>2026-05-01T14:56:45Z</time></trkpt><trkpt lat="48.20013249800813" lon="15.368655134000837"><ele>237.0</ele><time>2026-05-01T14:56:46Z</time></trkpt><trkpt lat="48.19991254571709" lon="15.368970639553444"><ele>235.0</ele><time>2026-05-01T14:56:47Z</time></trkpt><trkpt lat="48.19969606162307" lon="15.369290677752875"><ele>233.0</ele><time>2026-05-01T14:56:48Z</time></trkpt><trkpt lat="48.19948580240243" lon="15.369616961504386"><ele>235.0</ele><time>2026-05-01T14:56:49Z</time></trkpt><trkpt lat="48.19928213536429" lon="15.369947113949832"><ele>237.0</ele><time>2026-05-01T14:56:50Z</time></trkpt><trkpt lat="48.19908435727108" lon="15.37028244825835"><ele>233.0</ele><time>2026-05-01T14:56:51Z</time></trkpt><trkpt lat="48.1988922502334" lon="15.370627787743757"><ele>229.0</ele><time>2026-05-01T14:56:52Z</time></trkpt><trkpt lat="48.19870570020371" lon="15.37098136892022"><ele>229.0</ele><time>2026-05-01T14:56:53Z</time></trkpt><trkpt lat="48.19852417298051" lon="15.371342134533656"><ele>229.0</ele><time>2026-05-01T14:56:54Z</time></trkpt><trkpt lat="48.19834660958885" lon="15.371705648660152"><ele>229.5</ele><time>2026-05-01T14:56:55Z</time></trkpt><trkpt lat="48.19817439343635" lon="15.37207450226873"><ele>230.0</ele><time>2026-05-01T14:56:56Z</time></trkpt><trkpt lat="48.1980075752471" lon="15.372447122244042"><ele>229.5</ele><time>2026-05-01T14:56:57Z</time></trkpt><trkpt lat="48.197847852170845" lon="15.37282420619871"><ele>229.0</ele><time>2026-05-01T14:56:58Z</time></trkpt><trkpt lat="48.197696228369075" lon="15.373202093630393"><ele>229.0</ele><time>2026-05-01T14:56:59Z</time></trkpt><trkpt lat="48.19754999169001" lon="15.373579212479711"><ele>229.0</ele><time>2026-05-01T14:57:00Z</time></trkpt><trkpt lat="48.19740708818452" lon="15.373953800792998"><ele>229.5</ele><time>2026-05-01T14:57:01Z</time></trkpt><trkpt lat="48.197264857520516" lon="15.374327054153468"><ele>230.0</ele><time>2026-05-01T14:57:02Z</time></trkpt><trkpt lat="48.197124610155534" lon="15.374700776256349"><ele>230.0</ele><time>2026-05-01T14:57:03Z</time></trkpt><trkpt lat="48.19698675217319" lon="15.375072580345275"><ele>230.0</ele><time>2026-05-01T14:57:04Z</time></trkpt><trkpt lat="48.19685198610547" lon="15.375440463879379"><ele>230.5</ele><time>2026-05-01T14:57:05Z</time></trkpt><trkpt lat="48.19671958241265" lon="15.37580680100085"><ele>231.0</ele><time>2026-05-01T14:57:06Z</time></trkpt><trkpt lat="48.196589421494046" lon="15.376172874893275"><ele>232.5</ele><time>2026-05-01T14:57:07Z</time></trkpt><trkpt lat="48.196458482131845" lon="15.376538112604365"><ele>234.0</ele><time>2026-05-01T14:57:08Z</time></trkpt><trkpt lat="48.1963257339156" lon="15.376902431683787"><ele>234.5</ele><time>2026-05-01T14:57:09Z</time></trkpt><trkpt lat="48.19619086249071" lon="15.377264519327163"><ele>235.0</ele><time>2026-05-01T14:57:10Z</time></trkpt><trkpt lat="48.196056366395794" lon="15.377628601240204"><ele>235.0</ele><time>2026-05-01T14:57:11Z</time></trkpt><trkpt lat="48.19592100874965" lon="15.377994516744154"><ele>235.0</ele><time>2026-05-01T14:57:12Z</time></trkpt><trkpt lat="48.19578229052869" lon="15.378365475652412"><ele>238.0</ele><time>2026-05-01T14:57:13Z</time></trkpt><trkpt lat="48.19564124826864" lon="15.378741155332937"><ele>241.0</ele><time>2026-05-01T14:57:14Z</time></trkpt><trkpt lat="48.19550030332286" lon="15.379122605978194"><ele>241.0</ele><time>2026-05-01T14:57:15Z</time></trkpt><trkpt lat="48.19535982881567" lon="15.37950730655006"><ele>241.0</ele><time>2026-05-01T14:57:16Z</time></trkpt><trkpt lat="48.19521843011606" lon="15.379893271741278"><ele>241.0</ele><time>2026-05-01T14:57:17Z</time></trkpt><trkpt lat="48.19507446964553" lon="15.380279944196227"><ele>241.0</ele><time>2026-05-01T14:57:18Z</time></trkpt><trkpt lat="48.19492836350513" lon="15.380669148987629"><ele>243.0</ele><time>2026-05-01T14:57:19Z</time></trkpt><trkpt lat="48.194781652387675" lon="15.381060716864672"><ele>245.0</ele><time>2026-05-01T14:57:20Z</time></trkpt><trkpt lat="48.19447875442199" lon="15.38131263728473"><ele>245.0</ele><time>2026-05-01T14:57:21Z</time></trkpt><trkpt lat="48.19433161975681" lon="15.38170686956255"><ele>245.0</ele><time>2026-05-01T14:57:22Z</time></trkpt><trkpt lat="48.194342804691466" lon="15.38224525640174"><ele>245.0</ele><time>2026-05-01T14:57:23Z</time></trkpt><trkpt lat="48.194195172417785" lon="15.3826412949563"><ele>245.0</ele><time>2026-05-01T14:57:24Z</time></trkpt><trkpt lat="48.19404644255416" lon="15.383040296268575"><ele>248.5</ele><time>2026-05-01T14:57:25Z</time></trkpt><trkpt lat="48.19390066718125" lon="15.38344054184497"><ele>252.0</ele><time>2026-05-01T14:57:26Z</time></trkpt><trkpt lat="48.1937565364211" lon="15.38384118332473"><ele>252.0</ele><time>2026-05-01T14:57:27Z</time></trkpt><trkpt lat="48.19361176467705" lon="15.384241608361394"><ele>252.0</ele><time>2026-05-01T14:57:28Z</time></trkpt><trkpt lat="48.19346685566734" lon="15.384640564834873"><ele>251.5</ele><time>2026-05-01T14:57:29Z</time></trkpt><trkpt lat="48.19331987129854" lon="15.385038338898557"><ele>251.0</ele><time>2026-05-01T14:57:30Z</time></trkpt><trkpt lat="48.193172217095835" lon="15.385433830691271"><ele>254.0</ele><time>2026-05-01T14:57:31Z</time></trkpt><trkpt lat="48.19302543659752" lon="15.385827941772044"><ele>257.0</ele><time>2026-05-01T14:57:32Z</time></trkpt><trkpt lat="48.19287960471643" lon="15.386224568534784"><ele>257.0</ele><time>2026-05-01T14:57:33Z</time></trkpt><trkpt lat="48.19273361002064" lon="15.386623690289872"><ele>257.0</ele><time>2026-05-01T14:57:34.001Z</time></trkpt><trkpt lat="48.19258757075902" lon="15.387024010842783"><ele>256.0</ele><time>2026-05-01T14:57:35.001Z</time></trkpt><trkpt lat="48.19244118644966" lon="15.387424255978063"><ele>255.0</ele><time>2026-05-01T14:57:36.001Z</time></trkpt><trkpt lat="48.192293535553674" lon="15.387824216642251"><ele>256.5</ele><time>2026-05-01T14:57:37.001Z</time></trkpt><trkpt lat="48.19214603683671" lon="15.388225117770869"><ele>258.0</ele><time>2026-05-01T14:57:38.001Z</time></trkpt><trkpt lat="48.19200541653937" lon="15.38860831810557"><ele>256.0</ele><time>2026-05-01T14:57:39.001Z</time></trkpt><trkpt lat="48.191869166338826" lon="15.388985511284735"><ele>254.0</ele><time>2026-05-01T14:57:40.001Z</time></trkpt><trkpt lat="48.19172643285223" lon="15.389360415815721"><ele>253.5</ele><time>2026-05-01T14:57:41.001Z</time></trkpt><trkpt lat="48.19158246868216" lon="15.389744040091053"><ele>253.0</ele><time>2026-05-01T14:57:42.001Z</time></trkpt><trkpt lat="48.191436661270785" lon="15.390129868737082"><ele>253.5</ele><time>2026-05-01T14:57:43.001Z</time></trkpt><trkpt lat="48.191292766892396" lon="15.390520119375642"><ele>254.0</ele><time>2026-05-01T14:57:44.001Z</time></trkpt><trkpt lat="48.19115262584842" lon="15.390914536644013"><ele>254.0</ele><time>2026-05-01T14:57:45.001Z</time></trkpt><trkpt lat="48.1910132179199" lon="15.3913146092277"><ele>254.0</ele><time>2026-05-01T14:57:46.001Z</time></trkpt><trkpt lat="48.19087474295936" lon="15.391715808639393"><ele>253.5</ele><time>2026-05-01T14:57:47.001Z</time></trkpt><trkpt lat="48.19073644395595" lon="15.392119018443774"><ele>253.0</ele><time>2026-05-01T14:57:48.001Z</time></trkpt><trkpt lat="48.19060287395877" lon="15.392525889805025"><ele>253.0</ele><time>2026-05-01T14:57:49.001Z</time></trkpt><trkpt lat="48.19047207626182" lon="15.392938860275065"><ele>253.0</ele><time>2026-05-01T14:57:50.001Z</time></trkpt><trkpt lat="48.19034295774266" lon="15.393353905204025"><ele>253.0</ele><time>2026-05-01T14:57:51.001Z</time></trkpt><trkpt lat="48.19021711041837" lon="15.393772783120568"><ele>253.0</ele><time>2026-05-01T14:57:52.001Z</time></trkpt><trkpt lat="48.190093091972535" lon="15.394191579444543"><ele>253.0</ele><time>2026-05-01T14:57:53.001Z</time></trkpt><trkpt lat="48.189970873360224" lon="15.394609984477333"><ele>253.0</ele><time>2026-05-01T14:57:54Z</time></trkpt><trkpt lat="48.18985134468419" lon="15.395029389346329"><ele>254.5</ele><time>2026-05-01T14:57:55Z</time></trkpt><trkpt lat="48.189734314694455" lon="15.395449343991432"><ele>256.0</ele><time>2026-05-01T14:57:56Z</time></trkpt><trkpt lat="48.189623126776624" lon="15.395866524080374"><ele>256.0</ele><time>2026-05-01T14:57:57Z</time></trkpt><trkpt lat="48.1895164448422" lon="15.396284990129637"><ele>256.0</ele><time>2026-05-01T14:57:58Z</time></trkpt><trkpt lat="48.18941560879137" lon="15.396711713845821"><ele>256.0</ele><time>2026-05-01T14:57:59Z</time></trkpt><trkpt lat="48.18931639770838" lon="15.397140255997492"><ele>256.0</ele><time>2026-05-01T14:58:00Z</time></trkpt><trkpt lat="48.18922317981044" lon="15.397571902775384"><ele>255.5</ele><time>2026-05-01T14:58:01Z</time></trkpt><trkpt lat="48.18913676690565" lon="15.39800742205279"><ele>255.0</ele><time>2026-05-01T14:58:02Z</time></trkpt><trkpt lat="48.18905173407293" lon="15.398443760810668"><ele>257.5</ele><time>2026-05-01T14:58:03Z</time></trkpt><trkpt lat="48.18897122265551" lon="15.398882340875932"><ele>260.0</ele><time>2026-05-01T14:58:04Z</time></trkpt><trkpt lat="48.188895584073" lon="15.399320919887948"><ele>259.5</ele><time>2026-05-01T14:58:05Z</time></trkpt><trkpt lat="48.18882581727897" lon="15.39975821520172"><ele>259.0</ele><time>2026-05-01T14:58:06Z</time></trkpt><trkpt lat="48.18876284360947" lon="15.400193016284916"><ele>258.5</ele><time>2026-05-01T14:58:07Z</time></trkpt><trkpt lat="48.188708344027724" lon="15.400620978642756"><ele>258.0</ele><time>2026-05-01T14:58:08Z</time></trkpt><trkpt lat="48.18865104040931" lon="15.40105544684344"><ele>258.0</ele><time>2026-05-01T14:58:09Z</time></trkpt><trkpt lat="48.1885985346735" lon="15.401490452047613"><ele>258.0</ele><time>2026-05-01T14:58:10Z</time></trkpt><trkpt lat="48.1885496681798" lon="15.401932747356788"><ele>258.5</ele><time>2026-05-01T14:58:11Z</time></trkpt><trkpt lat="48.188504565792556" lon="15.402377457158918"><ele>259.0</ele><time>2026-05-01T14:58:12Z</time></trkpt><trkpt lat="48.188463685862935" lon="15.402826286600847"><ele>258.0</ele><time>2026-05-01T14:58:13Z</time></trkpt><trkpt lat="48.18842836195592" lon="15.403277238404643"><ele>257.0</ele><time>2026-05-01T14:58:14Z</time></trkpt><trkpt lat="48.188393701326255" lon="15.403729452820347"><ele>257.0</ele><time>2026-05-01T14:58:15Z</time></trkpt><trkpt lat="48.188359825422346" lon="15.404180024449476"><ele>257.0</ele><time>2026-05-01T14:58:16Z</time></trkpt><trkpt lat="48.18832700989241" lon="15.40463231452483"><ele>257.0</ele><time>2026-05-01T14:58:17Z</time></trkpt><trkpt lat="48.18829558251887" lon="15.405084717007371"><ele>257.0</ele><time>2026-05-01T14:58:18Z</time></trkpt><trkpt lat="48.18826622548953" lon="15.405537808016454"><ele>257.5</ele><time>2026-05-01T14:58:19Z</time></trkpt><trkpt lat="48.1882362242717" lon="15.405992281015648"><ele>258.0</ele><time>2026-05-01T14:58:20Z</time></trkpt><trkpt lat="48.18820531298287" lon="15.406447381667167"><ele>258.0</ele><time>2026-05-01T14:58:21Z</time></trkpt><trkpt lat="48.188171294707004" lon="15.406902110349584"><ele>258.0</ele><time>2026-05-01T14:58:22Z</time></trkpt><trkpt lat="48.18813682823921" lon="15.407359744445678"><ele>257.5</ele><time>2026-05-01T14:58:23Z</time></trkpt><trkpt lat="48.18810235407429" lon="15.407819920222432"><ele>257.0</ele><time>2026-05-01T14:58:24Z</time></trkpt><trkpt lat="48.18806933725192" lon="15.408280758475502"><ele>256.5</ele><time>2026-05-01T14:58:25Z</time></trkpt><trkpt lat="48.1880383378785" lon="15.408741383344674"><ele>256.0</ele><time>2026-05-01T14:58:26Z</time></trkpt><trkpt lat="48.18800732916009" lon="15.409200865959182"><ele>254.5</ele><time>2026-05-01T14:58:27Z</time></trkpt><trkpt lat="48.18797669756286" lon="15.4096593625985"><ele>253.0</ele><time>2026-05-01T14:58:28Z</time></trkpt><trkpt lat="48.18794459286766" lon="15.410117165970366"><ele>252.0</ele><time>2026-05-01T14:58:29Z</time></trkpt><trkpt lat="48.18791265329243" lon="15.4105743678764"><ele>251.0</ele><time>2026-05-01T14:58:30Z</time></trkpt><trkpt lat="48.187880326577435" lon="15.411029273460741"><ele>250.5</ele><time>2026-05-01T14:58:31Z</time></trkpt><trkpt lat="48.18784953590904" lon="15.411482067428015"><ele>250.0</ele><time>2026-05-01T14:58:32Z</time></trkpt><trkpt lat="48.187820214007665" lon="15.411931571505468"><ele>249.0</ele><time>2026-05-01T14:58:33Z</time></trkpt><trkpt lat="48.187791475037" lon="15.412381319594394"><ele>248.0</ele><time>2026-05-01T14:58:34Z</time></trkpt><trkpt lat="48.18776077565234" lon="15.41283088321749"><ele>247.5</ele><time>2026-05-01T14:58:35Z</time></trkpt><trkpt lat="48.187726458270184" lon="15.41328078327566"><ele>247.0</ele><time>2026-05-01T14:58:36Z</time></trkpt><trkpt lat="48.1876930691356" lon="15.41373300905463"><ele>245.5</ele><time>2026-05-01T14:58:37Z</time></trkpt><trkpt lat="48.18765964381995" lon="15.414183915911304"><ele>244.0</ele><time>2026-05-01T14:58:38Z</time></trkpt><trkpt lat="48.18762806708767" lon="15.414637210632568"><ele>243.0</ele><time>2026-05-01T14:58:39Z</time></trkpt><trkpt lat="48.18759648354456" lon="15.415091672720726"><ele>242.0</ele><time>2026-05-01T14:58:40Z</time></trkpt><trkpt lat="48.187563752336196" lon="15.415546337648678"><ele>241.5</ele><time>2026-05-01T14:58:41Z</time></trkpt><trkpt lat="48.18753191644774" lon="15.416004206296481"><ele>241.0</ele><time>2026-05-01T14:58:42Z</time></trkpt><trkpt lat="48.18749950583051" lon="15.416463416622642"><ele>241.0</ele><time>2026-05-01T14:58:43Z</time></trkpt><trkpt lat="48.18746690996311" lon="15.41692395637566"><ele>241.0</ele><time>2026-05-01T14:58:44Z</time></trkpt><trkpt lat="48.18743462623826" lon="15.417386374700392"><ele>239.5</ele><time>2026-05-01T14:58:45Z</time></trkpt><trkpt lat="48.18740259178476" lon="15.417848516722106"><ele>238.0</ele><time>2026-05-01T14:58:46Z</time></trkpt><trkpt lat="48.18736959012848" lon="15.418310333985879"><ele>237.5</ele><time>2026-05-01T14:58:47Z</time></trkpt><trkpt lat="48.18733733457715" lon="15.418771629289399"><ele>237.0</ele><time>2026-05-01T14:58:48Z</time></trkpt><trkpt lat="48.18730747396021" lon="15.419233174052238"><ele>236.5</ele><time>2026-05-01T14:58:49Z</time></trkpt><trkpt lat="48.187276152454984" lon="15.419693880303905"><ele>236.0</ele><time>2026-05-01T14:58:50Z</time></trkpt><trkpt lat="48.18724346346693" lon="15.420153801727707"><ele>236.5</ele><time>2026-05-01T14:58:51Z</time></trkpt><trkpt lat="48.18721195495972" lon="15.420614760705075"><ele>237.0</ele><time>2026-05-01T14:58:52Z</time></trkpt><trkpt lat="48.187180277293024" lon="15.42107605003653"><ele>236.5</ele><time>2026-05-01T14:58:53Z</time></trkpt><trkpt lat="48.18714803495177" lon="15.421537415816244"><ele>236.0</ele><time>2026-05-01T14:58:54Z</time></trkpt><trkpt lat="48.18711750589828" lon="15.422000128532318"><ele>236.0</ele><time>2026-05-01T14:58:55Z</time></trkpt><trkpt lat="48.18708794709541" lon="15.422462014202765"><ele>236.0</ele><time>2026-05-01T14:58:56Z</time></trkpt><trkpt lat="48.187056057475765" lon="15.422924540188738"><ele>237.5</ele><time>2026-05-01T14:58:57Z</time></trkpt><trkpt lat="48.18702324045693" lon="15.423387778646674"><ele>239.0</ele><time>2026-05-01T14:58:58Z</time></trkpt><trkpt lat="48.18698947063678" lon="15.423852140198816"><ele>240.5</ele><time>2026-05-01T14:58:59Z</time></trkpt><trkpt lat="48.1869554488731" lon="15.424315333894286"><ele>242.0</ele><time>2026-05-01T14:59:00Z</time></trkpt><trkpt lat="48.18692036244966" lon="15.424777977647285"><ele>246.0</ele><time>2026-05-01T14:59:01Z</time></trkpt><trkpt lat="48.18688254761276" lon="15.42523967072294"><ele>250.0</ele><time>2026-05-01T14:59:02Z</time></trkpt><trkpt lat="48.186841518380135" lon="15.425701079205094"><ele>251.5</ele><time>2026-05-01T14:59:03Z</time></trkpt><trkpt lat="48.18679470256306" lon="15.42616457884723"><ele>253.0</ele><time>2026-05-01T14:59:04Z</time></trkpt><trkpt lat="48.18674337828427" lon="15.426629951620678"><ele>254.0</ele><time>2026-05-01T14:59:05Z</time></trkpt><trkpt lat="48.186690006076" lon="15.427095042840895"><ele>255.0</ele><time>2026-05-01T14:59:06Z</time></trkpt><trkpt lat="48.18663481505752" lon="15.427559411227222"><ele>256.5</ele><time>2026-05-01T14:59:07Z</time></trkpt><trkpt lat="48.18657429503328" lon="15.428020920038957"><ele>258.0</ele><time>2026-05-01T14:59:08Z</time></trkpt><trkpt lat="48.18651214103913" lon="15.42847835952487"><ele>262.0</ele><time>2026-05-01T14:59:09Z</time></trkpt><trkpt lat="48.186449950081084" lon="15.428917018523384"><ele>266.0</ele><time>2026-05-01T14:59:10Z</time></trkpt><trkpt lat="48.186384214340734" lon="15.42934684132723"><ele>266.0</ele><time>2026-05-01T14:59:11Z</time></trkpt><trkpt lat="48.18631319469432" lon="15.429793902514394"><ele>266.0</ele><time>2026-05-01T14:59:12Z</time></trkpt><trkpt lat="48.186238396732065" lon="15.430245675267594"><ele>264.5</ele><time>2026-05-01T14:59:13Z</time></trkpt><trkpt lat="48.186158558615936" lon="15.43069785356836"><ele>263.0</ele><time>2026-05-01T14:59:14Z</time></trkpt><trkpt lat="48.18607371912705" lon="15.431149473120445"><ele>263.0</ele><time>2026-05-01T14:59:15Z</time></trkpt><trkpt lat="48.18598486070829" lon="15.431602376825783"><ele>263.0</ele><time>2026-05-01T14:59:16Z</time></trkpt><trkpt lat="48.18589385287646" lon="15.432053925694106"><ele>262.5</ele><time>2026-05-01T14:59:17Z</time></trkpt><trkpt lat="48.18580121548423" lon="15.432502005705354"><ele>262.0</ele><time>2026-05-01T14:59:18Z</time></trkpt><trkpt lat="48.18570311163667" lon="15.432947639546775"><ele>264.5</ele><time>2026-05-01T14:59:19Z</time></trkpt><trkpt lat="48.18560291985886" lon="15.433391266081632"><ele>267.0</ele><time>2026-05-01T14:59:20Z</time></trkpt><trkpt lat="48.185497471248794" lon="15.433831880184352"><ele>267.0</ele><time>2026-05-01T14:59:21Z</time></trkpt><trkpt lat="48.18538796044107" lon="15.434271279170853"><ele>267.0</ele><time>2026-05-01T14:59:22Z</time></trkpt><trkpt lat="48.185276583644296" lon="15.434710148423223"><ele>266.5</ele><time>2026-05-01T14:59:23Z</time></trkpt><trkpt lat="48.18516291641135" lon="15.435146770834832"><ele>266.0</ele><time>2026-05-01T14:59:24Z</time></trkpt><trkpt lat="48.185045935625276" lon="15.435580533105371"><ele>266.0</ele><time>2026-05-01T14:59:25Z</time></trkpt><trkpt lat="48.18492704007171" lon="15.436013123970186"><ele>266.0</ele><time>2026-05-01T14:59:26Z</time></trkpt><trkpt lat="48.184808294877875" lon="15.436446490665938"><ele>267.5</ele><time>2026-05-01T14:59:27Z</time></trkpt><trkpt lat="48.184688294011806" lon="15.436878871928643"><ele>269.0</ele><time>2026-05-01T14:59:28Z</time></trkpt><trkpt lat="48.18456829179407" lon="15.437310090127676"><ele>269.0</ele><time>2026-05-01T14:59:29Z</time></trkpt><trkpt lat="48.184447525543526" lon="15.437743758037694"><ele>269.0</ele><time>2026-05-01T14:59:30Z</time></trkpt><trkpt lat="48.18432918638078" lon="15.438179142862728"><ele>268.5</ele><time>2026-05-01T14:59:31Z</time></trkpt><trkpt lat="48.184211370531656" lon="15.4386161016644"><ele>268.0</ele><time>2026-05-01T14:59:32Z</time></trkpt><trkpt lat="48.18409364467038" lon="15.43905643049481"><ele>267.5</ele><time>2026-05-01T14:59:33Z</time></trkpt><trkpt lat="48.18397757298394" lon="15.439500375823572"><ele>267.0</ele><time>2026-05-01T14:59:34Z</time></trkpt><trkpt lat="48.18386496147159" lon="15.439945508965794"><ele>266.0</ele><time>2026-05-01T14:59:35Z</time></trkpt><trkpt lat="48.183754178413466" lon="15.440393345906372"><ele>265.0</ele><time>2026-05-01T14:59:36Z</time></trkpt><trkpt lat="48.18364188971165" lon="15.440841782133361"><ele>265.0</ele><time>2026-05-01T14:59:37Z</time></trkpt><trkpt lat="48.183525732938264" lon="15.441289667361046"><ele>265.0</ele><time>2026-05-01T14:59:38Z</time></trkpt><trkpt lat="48.18340547109655" lon="15.441736238626854"><ele>264.5</ele><time>2026-05-01T14:59:39Z</time></trkpt><trkpt lat="48.183284069597406" lon="15.442175879321955"><ele>264.0</ele><time>2026-05-01T14:59:40Z</time></trkpt><trkpt lat="48.18316821796355" lon="15.442590642672643"><ele>264.0</ele><time>2026-05-01T14:59:41Z</time></trkpt><trkpt lat="48.18305364089204" lon="15.443005198468864"><ele>264.0</ele><time>2026-05-01T14:59:42Z</time></trkpt><trkpt lat="48.18293844331877" lon="15.443428523128679"><ele>264.0</ele><time>2026-05-01T14:59:43Z</time></trkpt><trkpt lat="48.18282434622892" lon="15.443852043551917"><ele>264.0</ele><time>2026-05-01T14:59:44.001Z</time></trkpt><trkpt lat="48.182710121532665" lon="15.444276052072738"><ele>263.5</ele><time>2026-05-01T14:59:45.001Z</time></trkpt><trkpt lat="48.1825963012898" lon="15.444702935928364"><ele>263.0</ele><time>2026-05-01T14:59:46.001Z</time></trkpt><trkpt lat="48.18247857532054" lon="15.44512868044119"><ele>264.0</ele><time>2026-05-01T14:59:47.001Z</time></trkpt><trkpt lat="48.18236145042008" lon="15.445553372145863"><ele>265.0</ele><time>2026-05-01T14:59:48.001Z</time></trkpt><trkpt lat="48.182247405302" lon="15.445981248134503"><ele>266.0</ele><time>2026-05-01T14:59:49.001Z</time></trkpt><trkpt lat="48.182138026897775" lon="15.44641932256948"><ele>267.0</ele><time>2026-05-01T14:59:50.001Z</time></trkpt><trkpt lat="48.182024449011266" lon="15.44686472720819"><ele>266.0</ele><time>2026-05-01T14:59:51.001Z</time></trkpt><trkpt lat="48.181905600442285" lon="15.44731193161707"><ele>265.0</ele><time>2026-05-01T14:59:52.001Z</time></trkpt><trkpt lat="48.181784114078916" lon="15.447760162747663"><ele>266.0</ele><time>2026-05-01T14:59:53.001Z</time></trkpt><trkpt lat="48.18166140740142" lon="15.448204823549329"><ele>267.0</ele><time>2026-05-01T14:59:54.001Z</time></trkpt><trkpt lat="48.18153673850393" lon="15.448645024835118"><ele>268.0</ele><time>2026-05-01T14:59:55.001Z</time></trkpt><trkpt lat="48.18141290473629" lon="15.449076526708794"><ele>269.0</ele><time>2026-05-01T14:59:56.001Z</time></trkpt><trkpt lat="48.18128587484231" lon="15.449498208753877"><ele>268.0</ele><time>2026-05-01T14:59:57.001Z</time></trkpt><trkpt lat="48.18116148471318" lon="15.44991903152653"><ele>267.0</ele><time>2026-05-01T14:59:58.001Z</time></trkpt><trkpt lat="48.18103794158347" lon="15.450342060117777"><ele>267.0</ele><time>2026-05-01T14:59:59.001Z</time></trkpt><trkpt lat="48.180915899980356" lon="15.450766409873932"><ele>267.0</ele><time>2026-05-01T15:00:00Z</time></trkpt><trkpt lat="48.18079074490095" lon="15.451188805500223"><ele>265.5</ele><time>2026-05-01T15:00:01Z</time></trkpt><trkpt lat="48.180658665030876" lon="15.451611012048723"><ele>264.0</ele><time>2026-05-01T15:00:02Z</time></trkpt><trkpt lat="48.18052492245807" lon="15.452034002625336"><ele>263.0</ele><time>2026-05-01T15:00:03Z</time></trkpt><trkpt lat="48.18038819307226" lon="15.45245582092392"><ele>262.0</ele><time>2026-05-01T15:00:04Z</time></trkpt><trkpt lat="48.18024692364202" lon="15.452873746668805"><ele>261.5</ele><time>2026-05-01T15:00:05Z</time></trkpt><trkpt lat="48.180100662055686" lon="15.453287274225858"><ele>261.0</ele><time>2026-05-01T15:00:06Z</time></trkpt><trkpt lat="48.17995183719592" lon="15.453700222434746"><ele>259.5</ele><time>2026-05-01T15:00:07Z</time></trkpt><trkpt lat="48.17980329066228" lon="15.454112144154337"><ele>258.0</ele><time>2026-05-01T15:00:08Z</time></trkpt><trkpt lat="48.179651787110075" lon="15.454521198755232"><ele>259.0</ele><time>2026-05-01T15:00:09Z</time></trkpt><trkpt lat="48.179497040923394" lon="15.454927676060784"><ele>260.0</ele><time>2026-05-01T15:00:10Z</time></trkpt><trkpt lat="48.17933819285191" lon="15.45532979559221"><ele>261.5</ele><time>2026-05-01T15:00:11Z</time></trkpt><trkpt lat="48.17917892031122" lon="15.455730338985045"><ele>263.0</ele><time>2026-05-01T15:00:12Z</time></trkpt><trkpt lat="48.17901776242919" lon="15.456131038850678"><ele>262.5</ele><time>2026-05-01T15:00:13Z</time></trkpt><trkpt lat="48.17885586319367" lon="15.456530795991243"><ele>262.0</ele><time>2026-05-01T15:00:14Z</time></trkpt><trkpt lat="48.17869293927693" lon="15.456933028738499"><ele>263.0</ele><time>2026-05-01T15:00:15Z</time></trkpt><trkpt lat="48.178530495751296" lon="15.457336160310104"><ele>264.0</ele><time>2026-05-01T15:00:16Z</time></trkpt><trkpt lat="48.178367547504415" lon="15.45773773269182"><ele>264.0</ele><time>2026-05-01T15:00:17Z</time></trkpt><trkpt lat="48.178204565331484" lon="15.458141710334376"><ele>264.0</ele><time>2026-05-01T15:00:18Z</time></trkpt><trkpt lat="48.17804169846853" lon="15.458545894074897"><ele>263.0</ele><time>2026-05-01T15:00:19Z</time></trkpt><trkpt lat="48.177879237310606" lon="15.458948768400745"><ele>262.0</ele><time>2026-05-01T15:00:20Z</time></trkpt><trkpt lat="48.177715413642744" lon="15.45935289525527"><ele>261.0</ele><time>2026-05-01T15:00:21Z</time></trkpt><trkpt lat="48.177552792918206" lon="15.459757545633142"><ele>260.0</ele><time>2026-05-01T15:00:22Z</time></trkpt><trkpt lat="48.17739043203243" lon="15.460162435396928"><ele>261.0</ele><time>2026-05-01T15:00:23Z</time></trkpt><trkpt lat="48.17722796435164" lon="15.460568189848523"><ele>262.0</ele><time>2026-05-01T15:00:24Z</time></trkpt><trkpt lat="48.17706613122727" lon="15.460971680304095"><ele>261.5</ele><time>2026-05-01T15:00:25Z</time></trkpt><trkpt lat="48.17690218949126" lon="15.46137321642706"><ele>261.0</ele><time>2026-05-01T15:00:26Z</time></trkpt><trkpt lat="48.176734156997334" lon="15.461772263019915"><ele>260.0</ele><time>2026-05-01T15:00:27Z</time></trkpt><trkpt lat="48.17656188456634" lon="15.462165706882432"><ele>259.0</ele><time>2026-05-01T15:00:28Z</time></trkpt><trkpt lat="48.17638951315125" lon="15.46256129560164"><ele>263.5</ele><time>2026-05-01T15:00:29Z</time></trkpt><trkpt lat="48.17622004190571" lon="15.462960361865642"><ele>268.0</ele><time>2026-05-01T15:00:30Z</time></trkpt><trkpt lat="48.17605609675626" lon="15.463363620489977"><ele>268.0</ele><time>2026-05-01T15:00:31Z</time></trkpt><trkpt lat="48.175895002652254" lon="15.463770881306736"><ele>268.0</ele><time>2026-05-01T15:00:32Z</time></trkpt><trkpt lat="48.17573496524858" lon="15.464177640077125"><ele>267.5</ele><time>2026-05-01T15:00:33Z</time></trkpt><trkpt lat="48.175573365238954" lon="15.464584083401606"><ele>267.0</ele><time>2026-05-01T15:00:34Z</time></trkpt><trkpt lat="48.175412286678416" lon="15.464990103884158"><ele>266.0</ele><time>2026-05-01T15:00:35Z</time></trkpt><trkpt lat="48.17524820672218" lon="15.465394371297045"><ele>265.0</ele><time>2026-05-01T15:00:36Z</time></trkpt><trkpt lat="48.1750838250965" lon="15.465796275355043"><ele>264.0</ele><time>2026-05-01T15:00:37Z</time></trkpt><trkpt lat="48.174921628330615" lon="15.466196950660821"><ele>263.0</ele><time>2026-05-01T15:00:38Z</time></trkpt><trkpt lat="48.17476059015317" lon="15.466599209843741"><ele>265.5</ele><time>2026-05-01T15:00:39Z</time></trkpt><trkpt lat="48.17460003063121" lon="15.467003617867375"><ele>268.0</ele><time>2026-05-01T15:00:40Z</time></trkpt><trkpt lat="48.17444011969591" lon="15.467408942429397"><ele>268.0</ele><time>2026-05-01T15:00:41Z</time></trkpt><trkpt lat="48.1742798082143" lon="15.467813979795787"><ele>268.0</ele><time>2026-05-01T15:00:42Z</time></trkpt><trkpt lat="48.17411777120946" lon="15.468220054970537"><ele>269.5</ele><time>2026-05-01T15:00:43Z</time></trkpt><trkpt lat="48.17395655476083" lon="15.468628655635277"><ele>271.0</ele><time>2026-05-01T15:00:44Z</time></trkpt><trkpt lat="48.17379848469534" lon="15.469039303807044"><ele>267.5</ele><time>2026-05-01T15:00:45Z</time></trkpt><trkpt lat="48.17363948663977" lon="15.469449087835406"><ele>264.0</ele><time>2026-05-01T15:00:46Z</time></trkpt><trkpt lat="48.173478102450545" lon="15.469857006181917"><ele>261.5</ele><time>2026-05-01T15:00:47Z</time></trkpt><trkpt lat="48.1733201964399" lon="15.470257237531817"><ele>259.0</ele><time>2026-05-01T15:00:48Z</time></trkpt><trkpt lat="48.17316860381593" lon="15.470645628405233"><ele>258.5</ele><time>2026-05-01T15:00:49Z</time></trkpt><trkpt lat="48.17300816559612" lon="15.471052020319146"><ele>258.0</ele><time>2026-05-01T15:00:50Z</time></trkpt><trkpt lat="48.17284655307793" lon="15.471459310098682"><ele>256.5</ele><time>2026-05-01T15:00:51Z</time></trkpt><trkpt lat="48.17268460165653" lon="15.471864177231145"><ele>255.0</ele><time>2026-05-01T15:00:52Z</time></trkpt><trkpt lat="48.17251996524249" lon="15.472267112221925"><ele>253.0</ele><time>2026-05-01T15:00:53Z</time></trkpt><trkpt lat="48.17235061421884" lon="15.472664606487212"><ele>251.0</ele><time>2026-05-01T15:00:54Z</time></trkpt><trkpt lat="48.17218019611047" lon="15.47305931944214"><ele>249.5</ele><time>2026-05-01T15:00:55Z</time></trkpt><trkpt lat="48.17201385853322" lon="15.473455198060496"><ele>248.0</ele><time>2026-05-01T15:00:56Z</time></trkpt><trkpt lat="48.17185242608977" lon="15.473854714843489"><ele>247.0</ele><time>2026-05-01T15:00:57Z</time></trkpt><trkpt lat="48.17169565899115" lon="15.474258379594936"><ele>246.0</ele><time>2026-05-01T15:00:58Z</time></trkpt><trkpt lat="48.17154310669197" lon="15.474662667806951"><ele>246.0</ele><time>2026-05-01T15:00:59Z</time></trkpt><trkpt lat="48.17139413518613" lon="15.475068645143272"><ele>246.0</ele><time>2026-05-01T15:01:00Z</time></trkpt><trkpt lat="48.17125175952731" lon="15.475477935333984"><ele>246.0</ele><time>2026-05-01T15:01:01Z</time></trkpt><trkpt lat="48.171116533017866" lon="15.475890306966148"><ele>246.0</ele><time>2026-05-01T15:01:02Z</time></trkpt><trkpt lat="48.17098523087892" lon="15.476305487676083"><ele>247.0</ele><time>2026-05-01T15:01:03Z</time></trkpt><trkpt lat="48.170858817564806" lon="15.47672194850114"><ele>248.0</ele><time>2026-05-01T15:01:04Z</time></trkpt><trkpt lat="48.17073569250447" lon="15.477142872053895"><ele>248.5</ele><time>2026-05-01T15:01:05Z</time></trkpt><trkpt lat="48.17061842228559" lon="15.477566857421431"><ele>249.0</ele><time>2026-05-01T15:01:06Z</time></trkpt><trkpt lat="48.170504103251346" lon="15.477993284479343"><ele>249.0</ele><time>2026-05-01T15:01:07Z</time></trkpt><trkpt lat="48.17039427312252" lon="15.478423354918137"><ele>249.0</ele><time>2026-05-01T15:01:08Z</time></trkpt><trkpt lat="48.170290299252116" lon="15.478857673432548"><ele>251.5</ele><time>2026-05-01T15:01:09Z</time></trkpt><trkpt lat="48.170191963396974" lon="15.479294343511478"><ele>254.0</ele><time>2026-05-01T15:01:10Z</time></trkpt><trkpt lat="48.17009767431901" lon="15.479730965921574"><ele>255.5</ele><time>2026-05-01T15:01:11Z</time></trkpt><trkpt lat="48.170007946753046" lon="15.480170332201443"><ele>257.0</ele><time>2026-05-01T15:01:12Z</time></trkpt><trkpt lat="48.169924109408875" lon="15.480611645006734"><ele>255.0</ele><time>2026-05-01T15:01:13Z</time></trkpt><trkpt lat="48.16984757947122" lon="15.481058080174286"><ele>253.0</ele><time>2026-05-01T15:01:14Z</time></trkpt><trkpt lat="48.16977652711442" lon="15.481507846588451"><ele>253.0</ele><time>2026-05-01T15:01:15Z</time></trkpt><trkpt lat="48.169707591414124" lon="15.481960894489784"><ele>253.0</ele><time>2026-05-01T15:01:16Z</time></trkpt><trkpt lat="48.169642210898424" lon="15.482413023746012"><ele>254.5</ele><time>2026-05-01T15:01:17Z</time></trkpt><trkpt lat="48.16957602303159" lon="15.482862960225088"><ele>256.0</ele><time>2026-05-01T15:01:18Z</time></trkpt><trkpt lat="48.16951014568296" lon="15.483313427265227"><ele>257.0</ele><time>2026-05-01T15:01:19Z</time></trkpt><trkpt lat="48.169443382766914" lon="15.483763146154303"><ele>258.0</ele><time>2026-05-01T15:01:20Z</time></trkpt><trkpt lat="48.169377616865695" lon="15.484211405354593"><ele>261.5</ele><time>2026-05-01T15:01:21Z</time></trkpt><trkpt lat="48.16931217737657" lon="15.484658415500128"><ele>265.0</ele><time>2026-05-01T15:01:22Z</time></trkpt><trkpt lat="48.16924555843463" lon="15.485104593593954"><ele>265.5</ele><time>2026-05-01T15:01:23Z</time></trkpt><trkpt lat="48.16917712556749" lon="15.485549665073842"><ele>266.0</ele><time>2026-05-01T15:01:24Z</time></trkpt><trkpt lat="48.16910897360633" lon="15.48599658365251"><ele>265.0</ele><time>2026-05-01T15:01:25Z</time></trkpt><trkpt lat="48.16904112131942" lon="15.486446612678737"><ele>264.0</ele><time>2026-05-01T15:01:26Z</time></trkpt><trkpt lat="48.1689750248082" lon="15.486897099187892"><ele>264.0</ele><time>2026-05-01T15:01:27Z</time></trkpt><trkpt lat="48.16890948848811" lon="15.487349714938887"><ele>264.0</ele><time>2026-05-01T15:01:28Z</time></trkpt><trkpt lat="48.16884293731267" lon="15.487800977440953"><ele>265.5</ele><time>2026-05-01T15:01:29Z</time></trkpt><trkpt lat="48.1687750810518" lon="15.488252597481099"><ele>267.0</ele><time>2026-05-01T15:01:30Z</time></trkpt><trkpt lat="48.168709560498904" lon="15.488704715022386"><ele>266.5</ele><time>2026-05-01T15:01:31Z</time></trkpt><trkpt lat="48.16864206477651" lon="15.489153878764544"><ele>266.0</ele><time>2026-05-01T15:01:32Z</time></trkpt><trkpt lat="48.16857510663439" lon="15.489604055777205"><ele>266.0</ele><time>2026-05-01T15:01:33Z</time></trkpt><trkpt lat="48.16850976683806" lon="15.49005305818285"><ele>266.0</ele><time>2026-05-01T15:01:34Z</time></trkpt><trkpt lat="48.168445422811864" lon="15.490502329949669"><ele>266.0</ele><time>2026-05-01T15:01:35Z</time></trkpt><trkpt lat="48.16838378432566" lon="15.490952290738363"><ele>266.0</ele><time>2026-05-01T15:01:36Z</time></trkpt><trkpt lat="48.16832700903693" lon="15.491404784438151"><ele>266.0</ele><time>2026-05-01T15:01:37Z</time></trkpt><trkpt lat="48.16827450739125" lon="15.491859952082912"><ele>266.0</ele><time>2026-05-01T15:01:38Z</time></trkpt><trkpt lat="48.168227538258165" lon="15.492316757151306"><ele>267.5</ele><time>2026-05-01T15:01:39Z</time></trkpt><trkpt lat="48.16818617641801" lon="15.492777389966493"><ele>269.0</ele><time>2026-05-01T15:01:40Z</time></trkpt><trkpt lat="48.16815056689978" lon="15.49324053810563"><ele>269.0</ele><time>2026-05-01T15:01:41Z</time></trkpt><trkpt lat="48.16812054265882" lon="15.493705021459743"><ele>269.0</ele><time>2026-05-01T15:01:42Z</time></trkpt><trkpt lat="48.168095822228075" lon="15.494171783089042"><ele>269.0</ele><time>2026-05-01T15:01:43Z</time></trkpt><trkpt lat="48.16807555155801" lon="15.494641168779568"><ele>269.0</ele><time>2026-05-01T15:01:44Z</time></trkpt><trkpt lat="48.168060137598005" lon="15.495111115027594"><ele>269.0</ele><time>2026-05-01T15:01:45Z</time></trkpt><trkpt lat="48.168050991818724" lon="15.495583444309302"><ele>269.0</ele><time>2026-05-01T15:01:46Z</time></trkpt><trkpt lat="48.16804578497555" lon="15.496058009817352"><ele>268.5</ele><time>2026-05-01T15:01:47Z</time></trkpt><trkpt lat="48.16804714374609" lon="15.496533283229093"><ele>268.0</ele><time>2026-05-01T15:01:48Z</time></trkpt><trkpt lat="48.168052849453446" lon="15.497011618450879"><ele>267.5</ele><time>2026-05-01T15:01:49Z</time></trkpt><trkpt lat="48.16806482910286" lon="15.497488162216959"><ele>267.0</ele><time>2026-05-01T15:01:50Z</time></trkpt><trkpt lat="48.16808361335659" lon="15.497963921159402"><ele>267.5</ele><time>2026-05-01T15:01:51Z</time></trkpt><trkpt lat="48.168108331673274" lon="15.49843984438684"><ele>268.0</ele><time>2026-05-01T15:01:52Z</time></trkpt><trkpt lat="48.16813827360036" lon="15.49891242157441"><ele>268.0</ele><time>2026-05-01T15:01:53Z</time></trkpt><trkpt lat="48.16817216296448" lon="15.499385388825901"><ele>268.0</ele><time>2026-05-01T15:01:54Z</time></trkpt><trkpt lat="48.168212924141315" lon="15.499857769210315"><ele>268.0</ele><time>2026-05-01T15:01:55Z</time></trkpt><trkpt lat="48.168261170710004" lon="15.50032726266036"><ele>268.0</ele><time>2026-05-01T15:01:56Z</time></trkpt><trkpt lat="48.16831432762771" lon="15.500793501866719"><ele>268.0</ele><time>2026-05-01T15:01:57Z</time></trkpt><trkpt lat="48.168371693055214" lon="15.501254521594184"><ele>268.0</ele><time>2026-05-01T15:01:58Z</time></trkpt><trkpt lat="48.16843302388609" lon="15.501703529050838"><ele>267.5</ele><time>2026-05-01T15:01:59Z</time></trkpt><trkpt lat="48.168497914131166" lon="15.5021474953425"><ele>267.0</ele><time>2026-05-01T15:02:00Z</time></trkpt><trkpt lat="48.16856643361555" lon="15.502593079082926"><ele>267.0</ele><time>2026-05-01T15:02:01Z</time></trkpt><trkpt lat="48.168640764693954" lon="15.503040276374799"><ele>267.0</ele><time>2026-05-01T15:02:02Z</time></trkpt><trkpt lat="48.168720505095635" lon="15.503486963173954"><ele>267.5</ele><time>2026-05-01T15:02:03Z</time></trkpt><trkpt lat="48.168805563159296" lon="15.503932654429269"><ele>268.0</ele><time>2026-05-01T15:02:04Z</time></trkpt><trkpt lat="48.16889527579241" lon="15.504376434455414"><ele>269.0</ele><time>2026-05-01T15:02:05Z</time></trkpt><trkpt lat="48.16898929492355" lon="15.504817938079563"><ele>270.0</ele><time>2026-05-01T15:02:06Z</time></trkpt><trkpt lat="48.16908593918532" lon="15.505258539500822"><ele>270.5</ele><time>2026-05-01T15:02:07Z</time></trkpt><trkpt lat="48.169182779925926" lon="15.50569996433038"><ele>271.0</ele><time>2026-05-01T15:02:08Z</time></trkpt><trkpt lat="48.16928011915327" lon="15.506142619131264"><ele>271.0</ele><time>2026-05-01T15:02:09Z</time></trkpt><trkpt lat="48.169376999981544" lon="15.506585326668494"><ele>271.0</ele><time>2026-05-01T15:02:10Z</time></trkpt><trkpt lat="48.16947169204539" lon="15.507028091023091"><ele>270.5</ele><time>2026-05-01T15:02:11Z</time></trkpt><trkpt lat="48.16956846343072" lon="15.5074689094729"><ele>270.0</ele><time>2026-05-01T15:02:12Z</time></trkpt><trkpt lat="48.16966755545785" lon="15.507907788069776"><ele>269.5</ele><time>2026-05-01T15:02:13Z</time></trkpt><trkpt lat="48.16976498309051" lon="15.508343670705864"><ele>269.0</ele><time>2026-05-01T15:02:14Z</time></trkpt><trkpt lat="48.169861442106864" lon="15.50877467328218"><ele>267.5</ele><time>2026-05-01T15:02:15Z</time></trkpt><trkpt lat="48.169951080700486" lon="15.509181448195905"><ele>266.0</ele><time>2026-05-01T15:02:16Z</time></trkpt><trkpt lat="48.17004018005594" lon="15.509575528871686"><ele>266.0</ele><time>2026-05-01T15:02:17Z</time></trkpt><trkpt lat="48.17012933956754" lon="15.509976983010828"><ele>266.0</ele><time>2026-05-01T15:02:18Z</time></trkpt><trkpt lat="48.170216464952475" lon="15.510375630640821"><ele>266.5</ele><time>2026-05-01T15:02:19Z</time></trkpt><trkpt lat="48.170308708975504" lon="15.510774332541876"><ele>267.0</ele><time>2026-05-01T15:02:20Z</time></trkpt><trkpt lat="48.170405110808865" lon="15.511179581377965"><ele>267.0</ele><time>2026-05-01T15:02:21Z</time></trkpt><trkpt lat="48.17050321620081" lon="15.51159401356136"><ele>267.0</ele><time>2026-05-01T15:02:22Z</time></trkpt><trkpt lat="48.170602267265956" lon="15.512015361470398"><ele>267.5</ele><time>2026-05-01T15:02:23Z</time></trkpt><trkpt lat="48.170698759403145" lon="15.512443450738871"><ele>268.0</ele><time>2026-05-01T15:02:24Z</time></trkpt><trkpt lat="48.170793591044756" lon="15.512876464790638"><ele>268.0</ele><time>2026-05-01T15:02:25Z</time></trkpt><trkpt lat="48.17088752110879" lon="15.513313472628493"><ele>268.0</ele><time>2026-05-01T15:02:26Z</time></trkpt><trkpt lat="48.17098297248038" lon="15.513753185499587"><ele>268.0</ele><time>2026-05-01T15:02:27Z</time></trkpt><trkpt lat="48.17107854039973" lon="15.514192966066707"><ele>268.0</ele><time>2026-05-01T15:02:28Z</time></trkpt><trkpt lat="48.17117511046939" lon="15.514632213175823"><ele>268.0</ele><time>2026-05-01T15:02:29Z</time></trkpt><trkpt lat="48.171273155703695" lon="15.515070779623933"><ele>268.0</ele><time>2026-05-01T15:02:30Z</time></trkpt><trkpt lat="48.17137340223537" lon="15.515507934177347"><ele>268.0</ele><time>2026-05-01T15:02:31Z</time></trkpt><trkpt lat="48.171471095190455" lon="15.515944746789904"><ele>268.0</ele><time>2026-05-01T15:02:32Z</time></trkpt><trkpt lat="48.17156560098527" lon="15.516378411273623"><ele>268.0</ele><time>2026-05-01T15:02:33Z</time></trkpt><trkpt lat="48.1716594627471" lon="15.51681301569785"><ele>268.0</ele><time>2026-05-01T15:02:34Z</time></trkpt><trkpt lat="48.17175374032375" lon="15.517246973282514"><ele>268.0</ele><time>2026-05-01T15:02:35Z</time></trkpt><trkpt lat="48.17184641234826" lon="15.517680583216684"><ele>268.0</ele><time>2026-05-01T15:02:36Z</time></trkpt><trkpt lat="48.171940227906205" lon="15.518112937626192"><ele>268.5</ele><time>2026-05-01T15:02:37Z</time></trkpt><trkpt lat="48.17203496688143" lon="15.518546586810498"><ele>269.0</ele><time>2026-05-01T15:02:38Z</time></trkpt><trkpt lat="48.172131431770865" lon="15.518983505312601"><ele>269.5</ele><time>2026-05-01T15:02:39Z</time></trkpt><trkpt lat="48.17222852751202" lon="15.51942275758719"><ele>270.0</ele><time>2026-05-01T15:02:40Z</time></trkpt><trkpt lat="48.17232406454659" lon="15.519863215897303"><ele>269.5</ele><time>2026-05-01T15:02:41Z</time></trkpt><trkpt lat="48.17241944544705" lon="15.520306497752077"><ele>269.0</ele><time>2026-05-01T15:02:42Z</time></trkpt><trkpt lat="48.17251766636506" lon="15.520749148899146"><ele>269.0</ele><time>2026-05-01T15:02:43Z</time></trkpt><trkpt lat="48.17261854483347" lon="15.521192604398202"><ele>269.0</ele><time>2026-05-01T15:02:44Z</time></trkpt><trkpt lat="48.17272175034855" lon="15.52163747597197"><ele>267.5</ele><time>2026-05-01T15:02:45Z</time></trkpt><trkpt lat="48.172819249218435" lon="15.522086666233125"><ele>266.0</ele><time>2026-05-01T15:02:46Z</time></trkpt><trkpt lat="48.17291068774144" lon="15.522537043037385"><ele>265.0</ele><time>2026-05-01T15:02:47Z</time></trkpt><trkpt lat="48.173000031353574" lon="15.522987678684803"><ele>264.0</ele><time>2026-05-01T15:02:48Z</time></trkpt><trkpt lat="48.173087600481026" lon="15.523437820609262"><ele>263.0</ele><time>2026-05-01T15:02:49Z</time></trkpt><trkpt lat="48.17317676537653" lon="15.523881666166726"><ele>262.0</ele><time>2026-05-01T15:02:50Z</time></trkpt><trkpt lat="48.17326957621353" lon="15.52431672848709"><ele>261.5</ele><time>2026-05-01T15:02:51Z</time></trkpt><trkpt lat="48.17336218298531" lon="15.524732530654637"><ele>261.0</ele><time>2026-05-01T15:02:52Z</time></trkpt><trkpt lat="48.173450294118545" lon="15.525123401173149"><ele>261.5</ele><time>2026-05-01T15:02:53Z</time></trkpt><trkpt lat="48.173533618431996" lon="15.52549793469142"><ele>262.0</ele><time>2026-05-01T15:02:54Z</time></trkpt><trkpt lat="48.17361106462613" lon="15.525853433872701"><ele>262.0</ele><time>2026-05-01T15:02:55Z</time></trkpt><trkpt lat="48.17368781244035" lon="15.5262029612578"><ele>262.0</ele><time>2026-05-01T15:02:56Z</time></trkpt><trkpt lat="48.17375991463109" lon="15.526533542211695"><ele>262.0</ele><time>2026-05-01T15:02:57Z</time></trkpt><trkpt lat="48.17382818441523" lon="15.526851878897268"><ele>262.0</ele><time>2026-05-01T15:02:58Z</time></trkpt><trkpt lat="48.1738978516718" lon="15.527174540443083"><ele>262.0</ele><time>2026-05-01T15:02:59Z</time></trkpt><trkpt lat="48.17396894756301" lon="15.527500790270114"><ele>262.0</ele><time>2026-05-01T15:03:00Z</time></trkpt><trkpt lat="48.1740403986163" lon="15.527824060954167"><ele>262.0</ele><time>2026-05-01T15:03:01Z</time></trkpt><trkpt lat="48.174111378210576" lon="15.528143408833625"><ele>262.0</ele><time>2026-05-01T15:03:02Z</time></trkpt><trkpt lat="48.1741815154848" lon="15.528457142544678"><ele>262.0</ele><time>2026-05-01T15:03:03Z</time></trkpt><trkpt lat="48.17424945787479" lon="15.52876799189207"><ele>262.0</ele><time>2026-05-01T15:03:04Z</time></trkpt><trkpt lat="48.174314992026815" lon="15.529073616548224"><ele>262.0</ele><time>2026-05-01T15:03:05Z</time></trkpt><trkpt lat="48.17437882596459" lon="15.52937265360195"><ele>262.0</ele><time>2026-05-01T15:03:06Z</time></trkpt><trkpt lat="48.17444297313602" lon="15.529667860059766"><ele>262.0</ele><time>2026-05-01T15:03:07Z</time></trkpt><trkpt lat="48.174507409502255" lon="15.529956470289141"><ele>262.0</ele><time>2026-05-01T15:03:08Z</time></trkpt><trkpt lat="48.174571320291776" lon="15.530247466334494"><ele>262.0</ele><time>2026-05-01T15:03:09Z</time></trkpt><trkpt lat="48.1746340280731" lon="15.530537355092754"><ele>262.0</ele><time>2026-05-01T15:03:10Z</time></trkpt><trkpt lat="48.174695157129385" lon="15.530827409999777"><ele>261.66666666666663</ele><time>2026-05-01T15:03:11Z</time></trkpt><trkpt lat="48.17475472391582" lon="15.531118840989878"><ele>261.3333333333333</ele><time>2026-05-01T15:03:12Z</time></trkpt><trkpt lat="48.174814260611704" lon="15.531414677585818"><ele>261.0</ele><time>2026-05-01T15:03:13Z</time></trkpt><trkpt lat="48.17487365748088" lon="15.531708486874278"><ele>261.6666666666667</ele><time>2026-05-01T15:03:14Z</time></trkpt><trkpt lat="48.17493300294578" lon="15.531999645906149"><ele>262.33333333333337</ele><time>2026-05-01T15:03:15Z</time></trkpt><trkpt lat="48.174995354663885" lon="15.5322894569099"><ele>263.0</ele><time>2026-05-01T15:03:16Z</time></trkpt><trkpt lat="48.17505990201099" lon="15.532578872995646"><ele>263.0</ele><time>2026-05-01T15:03:17Z</time></trkpt><trkpt lat="48.17512538086104" lon="15.532868658589118"><ele>263.0</ele><time>2026-05-01T15:03:18Z</time></trkpt><trkpt lat="48.17519011711279" lon="15.533156873176768"><ele>263.0</ele><time>2026-05-01T15:03:19Z</time></trkpt><trkpt lat="48.175253877844995" lon="15.533446446089354"><ele>262.6666666666667</ele><time>2026-05-01T15:03:20Z</time></trkpt><trkpt lat="48.1753166496242" lon="15.533737863344925"><ele>262.3333333333333</ele><time>2026-05-01T15:03:21Z</time></trkpt><trkpt lat="48.175380640622485" lon="15.534031182428738"><ele>262.0</ele><time>2026-05-01T15:03:22Z</time></trkpt><trkpt lat="48.175445835178074" lon="15.534324845267557"><ele>262.0</ele><time>2026-05-01T15:03:23Z</time></trkpt><trkpt lat="48.175510980757664" lon="15.534620702248006"><ele>262.0</ele><time>2026-05-01T15:03:24Z</time></trkpt><trkpt lat="48.17557529663629" lon="15.534915848378311"><ele>262.0</ele><time>2026-05-01T15:03:25Z</time></trkpt><trkpt lat="48.17563994573361" lon="15.53520982017924"><ele>261.66666666666663</ele><time>2026-05-01T15:03:26Z</time></trkpt><trkpt lat="48.175704804339176" lon="15.535504346343274"><ele>261.3333333333333</ele><time>2026-05-01T15:03:27Z</time></trkpt><trkpt lat="48.17577017372642" lon="15.535797958772315"><ele>261.0</ele><time>2026-05-01T15:03:28Z</time></trkpt><trkpt lat="48.17583639526118" lon="15.536093230029937"><ele>261.3333333333333</ele><time>2026-05-01T15:03:29Z</time></trkpt><trkpt lat="48.175901516954575" lon="15.536389770169805"><ele>261.66666666666663</ele><time>2026-05-01T15:03:30Z</time></trkpt><trkpt lat="48.17596628292124" lon="15.536686904523785"><ele>262.0</ele><time>2026-05-01T15:03:31Z</time></trkpt><trkpt lat="48.17603089743831" lon="15.53698351299379"><ele>262.0</ele><time>2026-05-01T15:03:32Z</time></trkpt><trkpt lat="48.176095641754195" lon="15.537279693993982"><ele>262.0</ele><time>2026-05-01T15:03:33Z</time></trkpt><trkpt lat="48.17615992701563" lon="15.537575717175576"><ele>262.0</ele><time>2026-05-01T15:03:34Z</time></trkpt><trkpt lat="48.17622471259684" lon="15.53787153849704"><ele>261.66666666666663</ele><time>2026-05-01T15:03:35Z</time></trkpt><trkpt lat="48.17628930742246" lon="15.538169495629031"><ele>261.3333333333333</ele><time>2026-05-01T15:03:36Z</time></trkpt><trkpt lat="48.17635392073427" lon="15.538470866413244"><ele>261.0</ele><time>2026-05-01T15:03:37Z</time></trkpt><trkpt lat="48.17641993384923" lon="15.538777397696222"><ele>261.6666666666667</ele><time>2026-05-01T15:03:38Z</time></trkpt><trkpt lat="48.176485379238784" lon="15.539086476096568"><ele>262.33333333333337</ele><time>2026-05-01T15:03:39Z</time></trkpt><trkpt lat="48.17655120559111" lon="15.539397673169294"><ele>263.0</ele><time>2026-05-01T15:03:40Z</time></trkpt><trkpt lat="48.17661631587227" lon="15.539705098106666"><ele>263.0</ele><time>2026-05-01T15:03:41Z</time></trkpt><trkpt lat="48.17667758479108" lon="15.539995847618588"><ele>263.0</ele><time>2026-05-01T15:03:42Z</time></trkpt><trkpt lat="48.1767373269799" lon="15.54028554136512"><ele>263.0</ele><time>2026-05-01T15:03:43Z</time></trkpt><trkpt lat="48.176795986480535" lon="15.540578694745225"><ele>263.0</ele><time>2026-05-01T15:03:44Z</time></trkpt><trkpt lat="48.176855825255785" lon="15.540872824796246"><ele>263.0</ele><time>2026-05-01T15:03:45Z</time></trkpt><trkpt lat="48.17691486251108" lon="15.541167741778876"><ele>263.0</ele><time>2026-05-01T15:03:46Z</time></trkpt><trkpt lat="48.17697000455278" lon="15.541461401909919"><ele>262.6666666666667</ele><time>2026-05-01T15:03:47Z</time></trkpt><trkpt lat="48.17702422072078" lon="15.541751900232594"><ele>262.3333333333333</ele><time>2026-05-01T15:03:48Z</time></trkpt><trkpt lat="48.177076180467544" lon="15.542040687111871"><ele>262.0</ele><time>2026-05-01T15:03:49Z</time></trkpt><trkpt lat="48.17712885009875" lon="15.542330099928158"><ele>261.3333333333333</ele><time>2026-05-01T15:03:50Z</time></trkpt><trkpt lat="48.17718070867113" lon="15.542619196708824"><ele>260.6666666666667</ele><time>2026-05-01T15:03:51Z</time></trkpt><trkpt lat="48.17722894748451" lon="15.542902116386383"><ele>260.0</ele><time>2026-05-01T15:03:52Z</time></trkpt><trkpt lat="48.177273970325835" lon="15.54317032741003"><ele>260.0</ele><time>2026-05-01T15:03:53Z</time></trkpt><trkpt lat="48.1773157663525" lon="15.543434469561086"><ele>260.0</ele><time>2026-05-01T15:03:54Z</time></trkpt><trkpt lat="48.17735793524927" lon="15.543705175137655"><ele>260.0</ele><time>2026-05-01T15:03:55Z</time></trkpt><trkpt lat="48.17739898416683" lon="15.543979726891045"><ele>260.6666666666667</ele><time>2026-05-01T15:03:56Z</time></trkpt><trkpt lat="48.17743916498625" lon="15.544257351431819"><ele>261.3333333333333</ele><time>2026-05-01T15:03:57Z</time></trkpt><trkpt lat="48.1774771470932" lon="15.544536943399038"><ele>262.0</ele><time>2026-05-01T15:03:58Z</time></trkpt><trkpt lat="48.17751524643755" lon="15.544818559830025"><ele>262.66666666666663</ele><time>2026-05-01T15:03:59Z</time></trkpt><trkpt lat="48.17755059049468" lon="15.545099020407498"><ele>263.3333333333333</ele><time>2026-05-01T15:04:00Z</time></trkpt><trkpt lat="48.17758340501328" lon="15.545375849575986"><ele>264.0</ele><time>2026-05-01T15:04:01Z</time></trkpt><trkpt lat="48.177612878682915" lon="15.545649047311539"><ele>264.0</ele><time>2026-05-01T15:04:02Z</time></trkpt><trkpt lat="48.17764377747592" lon="15.545923088911346"><ele>264.0</ele><time>2026-05-01T15:04:03Z</time></trkpt><trkpt lat="48.17767325175922" lon="15.546201466068322"><ele>264.0</ele><time>2026-05-01T15:04:04Z</time></trkpt><trkpt lat="48.17770388517252" lon="15.546482801430074"><ele>265.0</ele><time>2026-05-01T15:04:05.001Z</time></trkpt><trkpt lat="48.17773292195847" lon="15.546765635137735"><ele>266.0</ele><time>2026-05-01T15:04:06.001Z</time></trkpt><trkpt lat="48.17775985660232" lon="15.547050336043373"><ele>267.0</ele><time>2026-05-01T15:04:07.001Z</time></trkpt><trkpt lat="48.177786384032004" lon="15.547336713906367"><ele>267.0</ele><time>2026-05-01T15:04:08.001Z</time></trkpt><trkpt lat="48.177810932708226" lon="15.547622314777561"><ele>267.0</ele><time>2026-05-01T15:04:09.001Z</time></trkpt><trkpt lat="48.177832355400554" lon="15.547907397175033"><ele>267.0</ele><time>2026-05-01T15:04:10.001Z</time></trkpt><trkpt lat="48.17785233200306" lon="15.548189785812774"><ele>268.6666666666667</ele><time>2026-05-01T15:04:11.001Z</time></trkpt><trkpt lat="48.177871853989394" lon="15.548470752488676"><ele>270.33333333333337</ele><time>2026-05-01T15:04:12Z</time></trkpt><trkpt lat="48.17788914723934" lon="15.548749946430659"><ele>272.0</ele><time>2026-05-01T15:04:13Z</time></trkpt><trkpt lat="48.17790488713379" lon="15.549028213607828"><ele>274.0</ele><time>2026-05-01T15:04:14Z</time></trkpt><trkpt lat="48.17792009161053" lon="15.54930440015218"><ele>276.0</ele><time>2026-05-01T15:04:15Z</time></trkpt><trkpt lat="48.17793366660197" lon="15.549583617006716"><ele>278.0</ele><time>2026-05-01T15:04:16Z</time></trkpt><trkpt lat="48.17794189369157" lon="15.549864858024153"><ele>280.0</ele><time>2026-05-01T15:04:17Z</time></trkpt><trkpt lat="48.17795140168992" lon="15.550153076029076"><ele>282.0</ele><time>2026-05-01T15:04:18Z</time></trkpt><trkpt lat="48.17796184722022" lon="15.5504469182216"><ele>284.0</ele><time>2026-05-01T15:04:19Z</time></trkpt><trkpt lat="48.17797057803166" lon="15.550742453407551"><ele>285.6666666666667</ele><time>2026-05-01T15:04:20Z</time></trkpt><trkpt lat="48.17797788477602" lon="15.551034520303723"><ele>287.3333333333333</ele><time>2026-05-01T15:04:21Z</time></trkpt><trkpt lat="48.177983743539194" lon="15.55132333740217"><ele>289.0</ele><time>2026-05-01T15:04:22Z</time></trkpt><trkpt lat="48.177985806754265" lon="15.551610687343679"><ele>289.66666666666663</ele><time>2026-05-01T15:04:23Z</time></trkpt><trkpt lat="48.17798681134507" lon="15.55189695933659"><ele>290.3333333333333</ele><time>2026-05-01T15:04:24Z</time></trkpt><trkpt lat="48.177987777340974" lon="15.55218149349407"><ele>291.0</ele><time>2026-05-01T15:04:25Z</time></trkpt><trkpt lat="48.17798829008995" lon="15.552468303653395"><ele>292.0</ele><time>2026-05-01T15:04:26Z</time></trkpt><trkpt lat="48.17798792146012" lon="15.552755421125832"><ele>293.0</ele><time>2026-05-01T15:04:27Z</time></trkpt><trkpt lat="48.1779847133068" lon="15.553042856551265"><ele>294.0</ele><time>2026-05-01T15:04:28Z</time></trkpt><trkpt lat="48.17797958254721" lon="15.553331165065288"><ele>295.3333333333333</ele><time>2026-05-01T15:04:29Z</time></trkpt><trkpt lat="48.177970605969534" lon="15.553623405103664"><ele>296.66666666666663</ele><time>2026-05-01T15:04:30Z</time></trkpt><trkpt lat="48.17796290365613" lon="15.55391824735749"><ele>298.0</ele><time>2026-05-01T15:04:31Z</time></trkpt><trkpt lat="48.17795291501519" lon="15.554212601366192"><ele>298.3333333333333</ele><time>2026-05-01T15:04:32Z</time></trkpt><trkpt lat="48.177944558411816" lon="15.554498636558844"><ele>298.6666666666667</ele><time>2026-05-01T15:04:33Z</time></trkpt><trkpt lat="48.17793344581954" lon="15.554775228369847"><ele>299.0</ele><time>2026-05-01T15:04:34Z</time></trkpt><trkpt lat="48.17792114288168" lon="15.555059745333335"><ele>299.33333333333337</ele><time>2026-05-01T15:04:35Z</time></trkpt><trkpt lat="48.177908028079266" lon="15.555351805925834"><ele>299.6666666666667</ele><time>2026-05-01T15:04:36Z</time></trkpt><trkpt lat="48.17789317677133" lon="15.555645799264406"><ele>300.0</ele><time>2026-05-01T15:04:37Z</time></trkpt><trkpt lat="48.17787900585441" lon="15.555937744197424"><ele>300.3333333333333</ele><time>2026-05-01T15:04:38Z</time></trkpt><trkpt lat="48.17786227446519" lon="15.556224363791356"><ele>300.66666666666663</ele><time>2026-05-01T15:04:39Z</time></trkpt><trkpt lat="48.17784440827174" lon="15.55650858386389"><ele>301.0</ele><time>2026-05-01T15:04:40Z</time></trkpt><trkpt lat="48.177825802642126" lon="15.556793920314128"><ele>301.3333333333333</ele><time>2026-05-01T15:04:41Z</time></trkpt><trkpt lat="48.177805628693534" lon="15.557078975937744"><ele>301.6666666666667</ele><time>2026-05-01T15:04:42Z</time></trkpt><trkpt lat="48.17778426095464" lon="15.557361386240883"><ele>302.0</ele><time>2026-05-01T15:04:43Z</time></trkpt><trkpt lat="48.17776453524306" lon="15.55763735769821"><ele>302.33333333333337</ele><time>2026-05-01T15:04:44Z</time></trkpt><trkpt lat="48.17774326466629" lon="15.55791616714876"><ele>302.6666666666667</ele><time>2026-05-01T15:04:45Z</time></trkpt><trkpt lat="48.177722241654486" lon="15.558195528752938"><ele>303.0</ele><time>2026-05-01T15:04:46Z</time></trkpt><trkpt lat="48.17770152517323" lon="15.558476516977535"><ele>302.3333333333333</ele><time>2026-05-01T15:04:47Z</time></trkpt><trkpt lat="48.177679620099916" lon="15.558760493168336"><ele>301.66666666666663</ele><time>2026-05-01T15:04:48Z</time></trkpt><trkpt lat="48.1776587080271" lon="15.559046295114825"><ele>301.0</ele><time>2026-05-01T15:04:49Z</time></trkpt><trkpt lat="48.177637161668635" lon="15.559329524983951"><ele>300.3333333333333</ele><time>2026-05-01T15:04:50Z</time></trkpt><trkpt lat="48.17761508571115" lon="15.559610629183519"><ele>299.6666666666667</ele><time>2026-05-01T15:04:51Z</time></trkpt><trkpt lat="48.177591361043746" lon="15.559889101950088"><ele>299.0</ele><time>2026-05-01T15:04:52Z</time></trkpt><trkpt lat="48.17756717353225" lon="15.560171507751257"><ele>299.33333333333337</ele><time>2026-05-01T15:04:53Z</time></trkpt><trkpt lat="48.17754280673643" lon="15.560456068383788"><ele>299.6666666666667</ele><time>2026-05-01T15:04:54Z</time></trkpt><trkpt lat="48.177518249600844" lon="15.560741951241868"><ele>300.0</ele><time>2026-05-01T15:04:55Z</time></trkpt><trkpt lat="48.17749463423607" lon="15.561027943950169"><ele>300.3333333333333</ele><time>2026-05-01T15:04:56Z</time></trkpt><trkpt lat="48.17747012181001" lon="15.561313969135428"><ele>300.66666666666663</ele><time>2026-05-01T15:04:57Z</time></trkpt><trkpt lat="48.17744556456227" lon="15.561600427395291"><ele>301.0</ele><time>2026-05-01T15:04:58Z</time></trkpt><trkpt lat="48.177419952871794" lon="15.56187932036157"><ele>301.0</ele><time>2026-05-01T15:04:59Z</time></trkpt><trkpt lat="48.17739533684003" lon="15.562159352198277"><ele>301.0</ele><time>2026-05-01T15:05:00Z</time></trkpt><trkpt lat="48.17737220264" lon="15.562442871328214"><ele>301.0</ele><time>2026-05-01T15:05:01Z</time></trkpt><trkpt lat="48.17735064409197" lon="15.562726474168231"><ele>301.0</ele><time>2026-05-01T15:05:02Z</time></trkpt><trkpt lat="48.17732759397421" lon="15.563009686429428"><ele>301.0</ele><time>2026-05-01T15:05:03Z</time></trkpt><trkpt lat="48.17730324738028" lon="15.563293639973248"><ele>301.0</ele><time>2026-05-01T15:05:04Z</time></trkpt><trkpt lat="48.17727930914493" lon="15.56358809992268"><ele>302.0</ele><time>2026-05-01T15:05:05Z</time></trkpt><trkpt lat="48.17725645993169" lon="15.563891963678008"><ele>303.0</ele><time>2026-05-01T15:05:06Z</time></trkpt><trkpt lat="48.17723513492471" lon="15.56420037311412"><ele>304.0</ele><time>2026-05-01T15:05:07Z</time></trkpt><trkpt lat="48.17721590242648" lon="15.564510711187406"><ele>304.3333333333333</ele><time>2026-05-01T15:05:08Z</time></trkpt><trkpt lat="48.17719607568902" lon="15.564822460600453"><ele>304.6666666666667</ele><time>2026-05-01T15:05:09Z</time></trkpt><trkpt lat="48.177175058016324" lon="15.565134674856326"><ele>305.0</ele><time>2026-05-01T15:05:10Z</time></trkpt><trkpt lat="48.17715552886482" lon="15.565447117888406"><ele>305.0</ele><time>2026-05-01T15:05:11Z</time></trkpt><trkpt lat="48.177136762338726" lon="15.565759790798671"><ele>305.0</ele><time>2026-05-01T15:05:12Z</time></trkpt><trkpt lat="48.177118597596696" lon="15.566074363923082"><ele>305.0</ele><time>2026-05-01T15:05:13Z</time></trkpt><trkpt lat="48.177102187743266" lon="15.566389744062953"><ele>305.6666666666667</ele><time>2026-05-01T15:05:14Z</time></trkpt><trkpt lat="48.17708954085749" lon="15.566707181988653"><ele>306.3333333333333</ele><time>2026-05-01T15:05:15Z</time></trkpt><trkpt lat="48.17707941604423" lon="15.567026091122791"><ele>307.0</ele><time>2026-05-01T15:05:16Z</time></trkpt><trkpt lat="48.17707064031185" lon="15.567344930531771"><ele>307.3333333333333</ele><time>2026-05-01T15:05:17Z</time></trkpt><trkpt lat="48.17706283799636" lon="15.567663927467185"><ele>307.6666666666667</ele><time>2026-05-01T15:05:18Z</time></trkpt><trkpt lat="48.177055743466674" lon="15.567977661480814"><ele>308.0</ele><time>2026-05-01T15:05:19Z</time></trkpt><trkpt lat="48.17704911617607" lon="15.568288708097821"><ele>308.0</ele><time>2026-05-01T15:05:20Z</time></trkpt><trkpt lat="48.177045791787826" lon="15.568601623844371"><ele>308.0</ele><time>2026-05-01T15:05:21Z</time></trkpt><trkpt lat="48.177045838467194" lon="15.568914758935232"><ele>308.0</ele><time>2026-05-01T15:05:22Z</time></trkpt><trkpt lat="48.17704649707146" lon="15.5692282505997"><ele>308.33333333333337</ele><time>2026-05-01T15:05:23Z</time></trkpt><trkpt lat="48.177048622661914" lon="15.569542541104921"><ele>308.6666666666667</ele><time>2026-05-01T15:05:24Z</time></trkpt><trkpt lat="48.17705164851418" lon="15.569856550212457"><ele>309.0</ele><time>2026-05-01T15:05:25Z</time></trkpt><trkpt lat="48.177054683398" lon="15.570170882354978"><ele>309.3333333333333</ele><time>2026-05-01T15:05:26Z</time></trkpt><trkpt lat="48.17705920831701" lon="15.570487220387994"><ele>309.66666666666663</ele><time>2026-05-01T15:05:27Z</time></trkpt><trkpt lat="48.17706349835657" lon="15.570803099469643"><ele>310.0</ele><time>2026-05-01T15:05:28Z</time></trkpt><trkpt lat="48.17706948785272" lon="15.57111833930474"><ele>310.0</ele><time>2026-05-01T15:05:29Z</time></trkpt><trkpt lat="48.17707770526957" lon="15.571435402340311"><ele>310.0</ele><time>2026-05-01T15:05:30Z</time></trkpt><trkpt lat="48.17708712675151" lon="15.571732607853422"><ele>310.0</ele><time>2026-05-01T15:05:31Z</time></trkpt><trkpt lat="48.177093538104224" lon="15.572062193489792"><ele>310.0</ele><time>2026-05-01T15:05:32Z</time></trkpt><trkpt lat="48.177102370830546" lon="15.572382001996873"><ele>310.0</ele><time>2026-05-01T15:05:33Z</time></trkpt><trkpt lat="48.177114007699636" lon="15.572686233864996"><ele>310.0</ele><time>2026-05-01T15:05:34Z</time></trkpt><trkpt lat="48.17712363002266" lon="15.572996245896654"><ele>310.0</ele><time>2026-05-01T15:05:35Z</time></trkpt><trkpt lat="48.1771317798586" lon="15.573311978818234"><ele>310.0</ele><time>2026-05-01T15:05:36Z</time></trkpt><trkpt lat="48.177143673284256" lon="15.573632637449224"><ele>310.0</ele><time>2026-05-01T15:05:37Z</time></trkpt><trkpt lat="48.17715503908208" lon="15.573954016489187"><ele>310.0</ele><time>2026-05-01T15:05:38Z</time></trkpt><trkpt lat="48.177169097974875" lon="15.574274936113378"><ele>310.0</ele><time>2026-05-01T15:05:39Z</time></trkpt><trkpt lat="48.17718297909825" lon="15.574588295351766"><ele>310.0</ele><time>2026-05-01T15:05:40Z</time></trkpt><trkpt lat="48.177195904200175" lon="15.574896147614753"><ele>310.3333333333333</ele><time>2026-05-01T15:05:41Z</time></trkpt><trkpt lat="48.17720851494221" lon="15.575202261154145"><ele>310.6666666666667</ele><time>2026-05-01T15:05:42Z</time></trkpt><trkpt lat="48.17722113802222" lon="15.57550606857484"><ele>311.0</ele><time>2026-05-01T15:05:43Z</time></trkpt><trkpt lat="48.17723347360787" lon="15.575808840509406"><ele>311.0</ele><time>2026-05-01T15:05:44Z</time></trkpt><trkpt lat="48.17724526144165" lon="15.576112376262996"><ele>311.0</ele><time>2026-05-01T15:05:45Z</time></trkpt><trkpt lat="48.177257559514004" lon="15.576415826261245"><ele>311.0</ele><time>2026-05-01T15:05:46Z</time></trkpt><trkpt lat="48.177269196729846" lon="15.57672010185302"><ele>311.33333333333337</ele><time>2026-05-01T15:05:47Z</time></trkpt><trkpt lat="48.177281232566486" lon="15.577025322816803"><ele>311.6666666666667</ele><time>2026-05-01T15:05:48Z</time></trkpt><trkpt lat="48.177293758284875" lon="15.57733042817037"><ele>312.0</ele><time>2026-05-01T15:05:49Z</time></trkpt><trkpt lat="48.17730766948986" lon="15.577633715657374"><ele>311.3333333333333</ele><time>2026-05-01T15:05:50Z</time></trkpt><trkpt lat="48.177318349057856" lon="15.577928645515103"><ele>310.66666666666663</ele><time>2026-05-01T15:05:51Z</time></trkpt><trkpt lat="48.17732944195915" lon="15.57821899627358"><ele>310.0</ele><time>2026-05-01T15:05:52Z</time></trkpt><trkpt lat="48.177342046952894" lon="15.578507867758036"><ele>311.0</ele><time>2026-05-01T15:05:53Z</time></trkpt><trkpt lat="48.17735466158689" lon="15.578796991794947"><ele>312.0</ele><time>2026-05-01T15:05:54Z</time></trkpt><trkpt lat="48.17736631825654" lon="15.579088940967587"><ele>313.0</ele><time>2026-05-01T15:05:55Z</time></trkpt><trkpt lat="48.177378314641224" lon="15.579382751593089"><ele>313.0</ele><time>2026-05-01T15:05:56Z</time></trkpt><trkpt lat="48.17739038800427" lon="15.579680782910861"><ele>313.0</ele><time>2026-05-01T15:05:57Z</time></trkpt><trkpt lat="48.17740261863925" lon="15.579982316401205"><ele>313.0</ele><time>2026-05-01T15:05:58Z</time></trkpt><trkpt lat="48.17741511773969" lon="15.580285161248664"><ele>312.66666666666663</ele><time>2026-05-01T15:05:59Z</time></trkpt><trkpt lat="48.17742875087973" lon="15.58059012636939"><ele>312.3333333333333</ele><time>2026-05-01T15:06:00Z</time></trkpt><trkpt lat="48.17744294580775" lon="15.58089528116631"><ele>312.0</ele><time>2026-05-01T15:06:01Z</time></trkpt><trkpt lat="48.17745562653781" lon="15.581198581248682"><ele>312.0</ele><time>2026-05-01T15:06:02Z</time></trkpt><trkpt lat="48.17746858348819" lon="15.581497810596726"><ele>312.0</ele><time>2026-05-01T15:06:03Z</time></trkpt><trkpt lat="48.17748049184197" lon="15.58179786958442"><ele>312.0</ele><time>2026-05-01T15:06:04Z</time></trkpt><trkpt lat="48.17749340376305" lon="15.582097215350787"><ele>312.0</ele><time>2026-05-01T15:06:05Z</time></trkpt><trkpt lat="48.1775046454272" lon="15.582388199978984"><ele>312.0</ele><time>2026-05-01T15:06:06Z</time></trkpt><trkpt lat="48.17751564330342" lon="15.582676483586129"><ele>312.0</ele><time>2026-05-01T15:06:07Z</time></trkpt><trkpt lat="48.17752648563369" lon="15.582967152283342"><ele>312.0</ele><time>2026-05-01T15:06:08Z</time></trkpt><trkpt lat="48.17753929890798" lon="15.583259393100432"><ele>312.0</ele><time>2026-05-01T15:06:09Z</time></trkpt><trkpt lat="48.17755192885045" lon="15.58355350381019"><ele>312.0</ele><time>2026-05-01T15:06:10Z</time></trkpt><trkpt lat="48.17756363507067" lon="15.583847643530925"><ele>311.6666666666667</ele><time>2026-05-01T15:06:11Z</time></trkpt><trkpt lat="48.177576347874535" lon="15.584140521030024"><ele>311.33333333333337</ele><time>2026-05-01T15:06:12Z</time></trkpt><trkpt lat="48.177588592228844" lon="15.584430752046645"><ele>311.0</ele><time>2026-05-01T15:06:13Z</time></trkpt><trkpt lat="48.17760121363144" lon="15.584719943615083"><ele>311.0</ele><time>2026-05-01T15:06:14Z</time></trkpt><trkpt lat="48.17761426860011" lon="15.585012142938682"><ele>311.0</ele><time>2026-05-01T15:06:15Z</time></trkpt><trkpt lat="48.177628419481294" lon="15.585303565423827"><ele>311.0</ele><time>2026-05-01T15:06:16Z</time></trkpt><trkpt lat="48.17764140359387" lon="15.585597898083634"><ele>312.0</ele><time>2026-05-01T15:06:17.001Z</time></trkpt><trkpt lat="48.1776543000487" lon="15.58589526758732"><ele>313.0</ele><time>2026-05-01T15:06:18Z</time></trkpt><trkpt lat="48.177668292139074" lon="15.586193290759423"><ele>314.0</ele><time>2026-05-01T15:06:19Z</time></trkpt><trkpt lat="48.17768077987077" lon="15.586491922338505"><ele>314.0</ele><time>2026-05-01T15:06:20Z</time></trkpt><trkpt lat="48.177692164077385" lon="15.586787888863773"><ele>314.0</ele><time>2026-05-01T15:06:21Z</time></trkpt><trkpt lat="48.17770364544442" lon="15.587080891027124"><ele>314.0</ele><time>2026-05-01T15:06:22Z</time></trkpt><trkpt lat="48.17771609759754" lon="15.587373685797273"><ele>314.0</ele><time>2026-05-01T15:06:23Z</time></trkpt><trkpt lat="48.17772941390776" lon="15.587669464575065"><ele>314.0</ele><time>2026-05-01T15:06:24Z</time></trkpt><trkpt lat="48.177741513413665" lon="15.587962841715786"><ele>314.0</ele><time>2026-05-01T15:06:25Z</time></trkpt><trkpt lat="48.17775241595614" lon="15.588259347383852"><ele>314.0</ele><time>2026-05-01T15:06:26Z</time></trkpt><trkpt lat="48.177762760820016" lon="15.588558402290081"><ele>314.0</ele><time>2026-05-01T15:06:27Z</time></trkpt><trkpt lat="48.17777152408761" lon="15.588858521097897"><ele>314.0</ele><time>2026-05-01T15:06:28Z</time></trkpt><trkpt lat="48.177780543385815" lon="15.58915762046395"><ele>314.0</ele><time>2026-05-01T15:06:29Z</time></trkpt><trkpt lat="48.17778699325744" lon="15.589454420964927"><ele>314.0</ele><time>2026-05-01T15:06:30Z</time></trkpt><trkpt lat="48.177793857670856" lon="15.589750548085998"><ele>314.0</ele><time>2026-05-01T15:06:31Z</time></trkpt><trkpt lat="48.177802671153174" lon="15.590050050630415"><ele>314.0</ele><time>2026-05-01T15:06:32Z</time></trkpt><trkpt lat="48.177810470221026" lon="15.590350211108131"><ele>314.0</ele><time>2026-05-01T15:06:33Z</time></trkpt><trkpt lat="48.177817667009826" lon="15.590638793138321"><ele>314.0</ele><time>2026-05-01T15:06:34Z</time></trkpt><trkpt lat="48.177822487427534" lon="15.590937597827585"><ele>314.0</ele><time>2026-05-01T15:06:35Z</time></trkpt><trkpt lat="48.17782645805291" lon="15.59124255452483"><ele>314.0</ele><time>2026-05-01T15:06:36Z</time></trkpt><trkpt lat="48.17782944785901" lon="15.591547684074856"><ele>314.0</ele><time>2026-05-01T15:06:37Z</time></trkpt><trkpt lat="48.177830642151946" lon="15.591849246556158"><ele>313.6666666666667</ele><time>2026-05-01T15:06:38Z</time></trkpt><trkpt lat="48.1778301549039" lon="15.592150001750564"><ele>313.3333333333333</ele><time>2026-05-01T15:06:39Z</time></trkpt><trkpt lat="48.177829831060684" lon="15.592449676909654"><ele>313.0</ele><time>2026-05-01T15:06:40Z</time></trkpt><trkpt lat="48.17782908694719" lon="15.592748998154413"><ele>313.3333333333333</ele><time>2026-05-01T15:06:41Z</time></trkpt><trkpt lat="48.1778288519017" lon="15.5930460681203"><ele>313.6666666666667</ele><time>2026-05-01T15:06:42Z</time></trkpt><trkpt lat="48.17782611328647" lon="15.593343904972832"><ele>314.0</ele><time>2026-05-01T15:06:43Z</time></trkpt><trkpt lat="48.17782278621691" lon="15.593642137230539"><ele>314.0</ele><time>2026-05-01T15:06:44Z</time></trkpt><trkpt lat="48.17781842305917" lon="15.593940383274301"><ele>314.0</ele><time>2026-05-01T15:06:45Z</time></trkpt><trkpt lat="48.17781364849326" lon="15.5942400337876"><ele>314.0</ele><time>2026-05-01T15:06:46Z</time></trkpt><trkpt lat="48.177807916549234" lon="15.594541590779857"><ele>314.0</ele><time>2026-05-01T15:06:47Z</time></trkpt><trkpt lat="48.177801307376825" lon="15.5948441414898"><ele>314.0</ele><time>2026-05-01T15:06:48Z</time></trkpt><trkpt lat="48.177792618996314" lon="15.59513937570269"><ele>314.0</ele><time>2026-05-01T15:06:49Z</time></trkpt><trkpt lat="48.17778428937203" lon="15.595432101447479"><ele>314.0</ele><time>2026-05-01T15:06:50Z</time></trkpt><trkpt lat="48.17777527244533" lon="15.595734766695283"><ele>314.0</ele><time>2026-05-01T15:06:51Z</time></trkpt><trkpt lat="48.177764639082426" lon="15.596043006222372"><ele>314.0</ele><time>2026-05-01T15:06:52Z</time></trkpt><trkpt lat="48.177756444899" lon="15.59634968754299"><ele>314.0</ele><time>2026-05-01T15:06:53Z</time></trkpt><trkpt lat="48.17774607840957" lon="15.596656877641303"><ele>314.0</ele><time>2026-05-01T15:06:54Z</time></trkpt><trkpt lat="48.17773585233921" lon="15.596965168567712"><ele>314.0</ele><time>2026-05-01T15:06:55Z</time></trkpt><trkpt lat="48.17772575849418" lon="15.597270684795312"><ele>313.0</ele><time>2026-05-01T15:06:56Z</time></trkpt><trkpt lat="48.1777153891357" lon="15.597570916185168"><ele>312.0</ele><time>2026-05-01T15:06:57Z</time></trkpt><trkpt lat="48.1777053998093" lon="15.597867831894197"><ele>311.0</ele><time>2026-05-01T15:06:58Z</time></trkpt><trkpt lat="48.17769381006103" lon="15.598160203319749"><ele>311.0</ele><time>2026-05-01T15:06:59Z</time></trkpt><trkpt lat="48.177681291423625" lon="15.59844795131812"><ele>311.0</ele><time>2026-05-01T15:07:00Z</time></trkpt><trkpt lat="48.17767048027309" lon="15.598731615167493"><ele>311.0</ele><time>2026-05-01T15:07:01Z</time></trkpt><trkpt lat="48.17765916274758" lon="15.599017478231175"><ele>311.0</ele><time>2026-05-01T15:07:02Z</time></trkpt><trkpt lat="48.17764895871132" lon="15.599303249330639"><ele>311.0</ele><time>2026-05-01T15:07:03Z</time></trkpt><trkpt lat="48.17763992179774" lon="15.599589351566415"><ele>311.0</ele><time>2026-05-01T15:07:04Z</time></trkpt><trkpt lat="48.17763126266405" lon="15.599875918447"><ele>311.33333333333337</ele><time>2026-05-01T15:07:05Z</time></trkpt><trkpt lat="48.17762278876858" lon="15.600166919827641"><ele>311.6666666666667</ele><time>2026-05-01T15:07:06Z</time></trkpt><trkpt lat="48.177613494047336" lon="15.600464690485374"><ele>312.0</ele><time>2026-05-01T15:07:07Z</time></trkpt><trkpt lat="48.177605353657256" lon="15.600765437290793"><ele>311.3333333333333</ele><time>2026-05-01T15:07:08Z</time></trkpt><trkpt lat="48.177591177236025" lon="15.601070211919577"><ele>310.66666666666663</ele><time>2026-05-01T15:07:09Z</time></trkpt><trkpt lat="48.17757364529471" lon="15.601371933272013"><ele>310.0</ele><time>2026-05-01T15:07:10Z</time></trkpt><trkpt lat="48.17755807417702" lon="15.601680994129268"><ele>309.66666666666663</ele><time>2026-05-01T15:07:11Z</time></trkpt><trkpt lat="48.17754463183921" lon="15.601977075539578"><ele>309.3333333333333</ele><time>2026-05-01T15:07:12Z</time></trkpt><trkpt lat="48.177531389812565" lon="15.602264886899036"><ele>309.0</ele><time>2026-05-01T15:07:13Z</time></trkpt><trkpt lat="48.17752097382719" lon="15.602561676272757"><ele>306.6666666666667</ele><time>2026-05-01T15:07:14Z</time></trkpt><trkpt lat="48.177509231061045" lon="15.602863961371964"><ele>304.33333333333337</ele><time>2026-05-01T15:07:15Z</time></trkpt><trkpt lat="48.177497191336556" lon="15.603170043082542"><ele>302.0</ele><time>2026-05-01T15:07:16Z</time></trkpt><trkpt lat="48.17748565636429" lon="15.603475600152322"><ele>301.33333333333337</ele><time>2026-05-01T15:07:17Z</time></trkpt><trkpt lat="48.17747430506261" lon="15.603781909151458"><ele>300.6666666666667</ele><time>2026-05-01T15:07:18Z</time></trkpt><trkpt lat="48.17746147063066" lon="15.604086791772977"><ele>300.0</ele><time>2026-05-01T15:07:19Z</time></trkpt><trkpt lat="48.17744659786191" lon="15.604390467255719"><ele>299.3333333333333</ele><time>2026-05-01T15:07:20Z</time></trkpt><trkpt lat="48.17743176202969" lon="15.604689187102698"><ele>298.66666666666663</ele><time>2026-05-01T15:07:21Z</time></trkpt><trkpt lat="48.17741711046541" lon="15.6049839496794"><ele>298.0</ele><time>2026-05-01T15:07:22Z</time></trkpt><trkpt lat="48.17740685670897" lon="15.605277707467371"><ele>296.0</ele><time>2026-05-01T15:07:23Z</time></trkpt><trkpt lat="48.17739719791875" lon="15.605573678853416"><ele>294.0</ele><time>2026-05-01T15:07:24Z</time></trkpt><trkpt lat="48.177387760408706" lon="15.605872210955875"><ele>292.0</ele><time>2026-05-01T15:07:25Z</time></trkpt><trkpt lat="48.17737671458458" lon="15.606171005197652"><ele>290.3333333333333</ele><time>2026-05-01T15:07:26Z</time></trkpt><trkpt lat="48.17736342059266" lon="15.606471583767787"><ele>288.6666666666667</ele><time>2026-05-01T15:07:27Z</time></trkpt><trkpt lat="48.177348802669286" lon="15.60677094562564"><ele>287.0</ele><time>2026-05-01T15:07:28Z</time></trkpt><trkpt lat="48.177333494866915" lon="15.607070299513055"><ele>286.33333333333337</ele><time>2026-05-01T15:07:29Z</time></trkpt><trkpt lat="48.177318673412856" lon="15.607369569360781"><ele>285.6666666666667</ele><time>2026-05-01T15:07:30Z</time></trkpt><trkpt lat="48.17730545298243" lon="15.607665997868246"><ele>285.0</ele><time>2026-05-01T15:07:31Z</time></trkpt><trkpt lat="48.177289656568554" lon="15.60795947186808"><ele>284.6666666666667</ele><time>2026-05-01T15:07:32Z</time></trkpt><trkpt lat="48.17727743884111" lon="15.608251082710735"><ele>284.33333333333337</ele><time>2026-05-01T15:07:33Z</time></trkpt><trkpt lat="48.177266383644174" lon="15.608542731086848"><ele>284.0</ele><time>2026-05-01T15:07:34Z</time></trkpt><trkpt lat="48.17725421910054" lon="15.608834478371639"><ele>284.0</ele><time>2026-05-01T15:07:35Z</time></trkpt><trkpt lat="48.177241727362954" lon="15.609126999867039"><ele>284.0</ele><time>2026-05-01T15:07:36Z</time></trkpt><trkpt lat="48.17722995363924" lon="15.609418707318254"><ele>284.0</ele><time>2026-05-01T15:07:37Z</time></trkpt><trkpt lat="48.17721756092325" lon="15.609701892876645"><ele>283.33333333333337</ele><time>2026-05-01T15:07:38Z</time></trkpt><trkpt lat="48.17720805441496" lon="15.609990706188718"><ele>282.6666666666667</ele><time>2026-05-01T15:07:39Z</time></trkpt><trkpt lat="48.17720008627799" lon="15.610286001580542"><ele>282.0</ele><time>2026-05-01T15:07:40Z</time></trkpt><trkpt lat="48.17719385315474" lon="15.610585660931639"><ele>282.0</ele><time>2026-05-01T15:07:41Z</time></trkpt><trkpt lat="48.17718520685197" lon="15.61089095008283"><ele>282.0</ele><time>2026-05-01T15:07:42Z</time></trkpt><trkpt lat="48.17717683134996" lon="15.611197649705348"><ele>282.0</ele><time>2026-05-01T15:07:43Z</time></trkpt><trkpt lat="48.177165544348306" lon="15.611506890864769"><ele>282.0</ele><time>2026-05-01T15:07:44Z</time></trkpt><trkpt lat="48.17715170409908" lon="15.611815888344507"><ele>282.0</ele><time>2026-05-01T15:07:45Z</time></trkpt><trkpt lat="48.177138559386734" lon="15.612123965107871"><ele>282.0</ele><time>2026-05-01T15:07:46Z</time></trkpt><trkpt lat="48.177123675208236" lon="15.612430339932356"><ele>282.3333333333333</ele><time>2026-05-01T15:07:47Z</time></trkpt><trkpt lat="48.17711196473718" lon="15.612733367467793"><ele>282.66666666666663</ele><time>2026-05-01T15:07:48Z</time></trkpt><trkpt lat="48.17710038146619" lon="15.613030179103003"><ele>283.0</ele><time>2026-05-01T15:07:49Z</time></trkpt><trkpt lat="48.1770894147099" lon="15.61332153735105"><ele>283.0</ele><time>2026-05-01T15:07:50Z</time></trkpt><trkpt lat="48.17707783335428" lon="15.61361065072961"><ele>283.0</ele><time>2026-05-01T15:07:51Z</time></trkpt><trkpt lat="48.177065989817265" lon="15.613898375777989"><ele>283.0</ele><time>2026-05-01T15:07:52Z</time></trkpt><trkpt lat="48.17705221219974" lon="15.614187639483536"><ele>283.0</ele><time>2026-05-01T15:07:53Z</time></trkpt><trkpt lat="48.17703805224841" lon="15.61447760865957"><ele>283.0</ele><time>2026-05-01T15:07:54Z</time></trkpt><trkpt lat="48.17702110736432" lon="15.614768668841732"><ele>283.0</ele><time>2026-05-01T15:07:55Z</time></trkpt><trkpt lat="48.17700494688007" lon="15.615061334316005"><ele>282.66666666666663</ele><time>2026-05-01T15:07:56Z</time></trkpt><trkpt lat="48.17699011035202" lon="15.615356799484644"><ele>282.3333333333333</ele><time>2026-05-01T15:07:57Z</time></trkpt><trkpt lat="48.17697822017749" lon="15.615656840060408"><ele>282.0</ele><time>2026-05-01T15:07:58Z</time></trkpt><trkpt lat="48.17696772112747" lon="15.615959652003381"><ele>283.0</ele><time>2026-05-01T15:07:59Z</time></trkpt><trkpt lat="48.17695725596393" lon="15.616261194619735"><ele>284.0</ele><time>2026-05-01T15:08:00Z</time></trkpt><trkpt lat="48.176947112893295" lon="15.616559898075769"><ele>285.0</ele><time>2026-05-01T15:08:01Z</time></trkpt><trkpt lat="48.1769387427572" lon="15.616857084993228"><ele>285.0</ele><time>2026-05-01T15:08:02Z</time></trkpt><trkpt lat="48.17692731309782" lon="15.617151132668338"><ele>285.0</ele><time>2026-05-01T15:08:03Z</time></trkpt><trkpt lat="48.17691433995969" lon="15.617443255742542"><ele>285.0</ele><time>2026-05-01T15:08:04Z</time></trkpt><trkpt lat="48.17690090301502" lon="15.617733106825739"><ele>284.6666666666667</ele><time>2026-05-01T15:08:05Z</time></trkpt><trkpt lat="48.17688813254532" lon="15.61802007020299"><ele>284.33333333333337</ele><time>2026-05-01T15:08:06Z</time></trkpt><trkpt lat="48.176877051601714" lon="15.618306001196498"><ele>284.0</ele><time>2026-05-01T15:08:07Z</time></trkpt><trkpt lat="48.176864229807514" lon="15.618592604199742"><ele>283.33333333333337</ele><time>2026-05-01T15:08:08Z</time></trkpt><trkpt lat="48.17685269610734" lon="15.618878752030398"><ele>282.6666666666667</ele><time>2026-05-01T15:08:09Z</time></trkpt><trkpt lat="48.1768404255704" lon="15.619169995195087"><ele>282.0</ele><time>2026-05-01T15:08:10Z</time></trkpt><trkpt lat="48.176826990612724" lon="15.61946331709557"><ele>282.0</ele><time>2026-05-01T15:08:11Z</time></trkpt><trkpt lat="48.176814809681325" lon="15.619758962763287"><ele>282.0</ele><time>2026-05-01T15:08:12Z</time></trkpt><trkpt lat="48.17680303501617" lon="15.620057169156386"><ele>282.0</ele><time>2026-05-01T15:08:13Z</time></trkpt><trkpt lat="48.176791229450984" lon="15.620356288785674"><ele>282.0</ele><time>2026-05-01T15:08:14Z</time></trkpt><trkpt lat="48.17677767620491" lon="15.620654425950514"><ele>282.0</ele><time>2026-05-01T15:08:15Z</time></trkpt><trkpt lat="48.17676421073092" lon="15.62095471104183"><ele>282.0</ele><time>2026-05-01T15:08:16Z</time></trkpt><trkpt lat="48.17674996538591" lon="15.621254869546439"><ele>282.0</ele><time>2026-05-01T15:08:17Z</time></trkpt><trkpt lat="48.1767362337577" lon="15.621555725770193"><ele>282.0</ele><time>2026-05-01T15:08:18Z</time></trkpt><trkpt lat="48.17672361538189" lon="15.621856521401448"><ele>282.0</ele><time>2026-05-01T15:08:19Z</time></trkpt><trkpt lat="48.17671077056468" lon="15.62215633428332"><ele>282.3333333333333</ele><time>2026-05-01T15:08:20Z</time></trkpt><trkpt lat="48.176699600397164" lon="15.622453412038823"><ele>282.66666666666663</ele><time>2026-05-01T15:08:21Z</time></trkpt><trkpt lat="48.17668992774142" lon="15.622750197216918"><ele>283.0</ele><time>2026-05-01T15:08:22Z</time></trkpt><trkpt lat="48.17667787242665" lon="15.623050641666495"><ele>283.0</ele><time>2026-05-01T15:08:23Z</time></trkpt><trkpt lat="48.176664053165794" lon="15.623353615592576"><ele>283.0</ele><time>2026-05-01T15:08:24Z</time></trkpt><trkpt lat="48.17665192614347" lon="15.62366281950608"><ele>283.0</ele><time>2026-05-01T15:08:25Z</time></trkpt><trkpt lat="48.17664138481476" lon="15.623980674320629"><ele>283.0</ele><time>2026-05-01T15:08:26Z</time></trkpt><trkpt lat="48.17663272212062" lon="15.624302892689986"><ele>283.0</ele><time>2026-05-01T15:08:27Z</time></trkpt><trkpt lat="48.176628419738215" lon="15.624633435319565"><ele>283.0</ele><time>2026-05-01T15:08:28Z</time></trkpt><trkpt lat="48.176629418947805" lon="15.625002794172714"><ele>283.5</ele><time>2026-05-01T15:08:29Z</time></trkpt><trkpt lat="48.17662130100153" lon="15.62539494644259"><ele>284.0</ele><time>2026-05-01T15:08:30Z</time></trkpt><trkpt lat="48.17660508014384" lon="15.625807913289053"><ele>283.0</ele><time>2026-05-01T15:08:31Z</time></trkpt><trkpt lat="48.17658599599044" lon="15.626240672200586"><ele>282.0</ele><time>2026-05-01T15:08:32Z</time></trkpt><trkpt lat="48.17656338522663" lon="15.626654238274313"><ele>281.5</ele><time>2026-05-01T15:08:33Z</time></trkpt><trkpt lat="48.17654202150433" lon="15.627077519974272"><ele>281.0</ele><time>2026-05-01T15:08:34Z</time></trkpt><trkpt lat="48.17651693567935" lon="15.627516302928388"><ele>280.0</ele><time>2026-05-01T15:08:35Z</time></trkpt><trkpt lat="48.17648967842332" lon="15.627964409426898"><ele>279.0</ele><time>2026-05-01T15:08:36Z</time></trkpt><trkpt lat="48.17646088168586" lon="15.628420068063766"><ele>279.0</ele><time>2026-05-01T15:08:37Z</time></trkpt><trkpt lat="48.17643382729755" lon="15.628878580712737"><ele>279.0</ele><time>2026-05-01T15:08:38Z</time></trkpt><trkpt lat="48.176411575650825" lon="15.62933476067623"><ele>279.0</ele><time>2026-05-01T15:08:39Z</time></trkpt><trkpt lat="48.17639461545525" lon="15.629785765184858"><ele>279.0</ele><time>2026-05-01T15:08:40Z</time></trkpt><trkpt lat="48.17637750690424" lon="15.630230034201116"><ele>277.5</ele><time>2026-05-01T15:08:41Z</time></trkpt><trkpt lat="48.17635933761736" lon="15.630669363305474"><ele>276.0</ele><time>2026-05-01T15:08:42Z</time></trkpt><trkpt lat="48.1763413844541" lon="15.631106767187921"><ele>275.5</ele><time>2026-05-01T15:08:43Z</time></trkpt><trkpt lat="48.17632184638504" lon="15.631546782234512"><ele>275.0</ele><time>2026-05-01T15:08:44Z</time></trkpt><trkpt lat="48.17630134341851" lon="15.631988321327952"><ele>277.0</ele><time>2026-05-01T15:08:45Z</time></trkpt><trkpt lat="48.17628309847149" lon="15.632431287141442"><ele>279.0</ele><time>2026-05-01T15:08:46Z</time></trkpt><trkpt lat="48.176264488378045" lon="15.632875909693528"><ele>280.0</ele><time>2026-05-01T15:08:47Z</time></trkpt><trkpt lat="48.17624462021204" lon="15.633318231127046"><ele>281.0</ele><time>2026-05-01T15:08:48Z</time></trkpt><trkpt lat="48.176224234470915" lon="15.633758199405545"><ele>281.0</ele><time>2026-05-01T15:08:49Z</time></trkpt><trkpt lat="48.17620295951183" lon="15.63419909067044"><ele>281.0</ele><time>2026-05-01T15:08:50Z</time></trkpt><trkpt lat="48.17618246578425" lon="15.634639621857323"><ele>281.0</ele><time>2026-05-01T15:08:51Z</time></trkpt><trkpt lat="48.1761631654681" lon="15.635080743860339"><ele>281.0</ele><time>2026-05-01T15:08:52Z</time></trkpt><trkpt lat="48.17614340960199" lon="15.635522286937274"><ele>281.0</ele><time>2026-05-01T15:08:53Z</time></trkpt><trkpt lat="48.176124174387006" lon="15.635967163878437"><ele>281.0</ele><time>2026-05-01T15:08:54Z</time></trkpt><trkpt lat="48.17610505728128" lon="15.636412278253735"><ele>281.0</ele><time>2026-05-01T15:08:55Z</time></trkpt><trkpt lat="48.17608602970739" lon="15.636858680604451"><ele>281.0</ele><time>2026-05-01T15:08:56Z</time></trkpt><trkpt lat="48.176067446436" lon="15.637307537890724"><ele>281.0</ele><time>2026-05-01T15:08:57Z</time></trkpt><trkpt lat="48.17605078136338" lon="15.637756237351716"><ele>281.0</ele><time>2026-05-01T15:08:58Z</time></trkpt><trkpt lat="48.17603398642661" lon="15.638205694958499"><ele>281.5</ele><time>2026-05-01T15:08:59Z</time></trkpt><trkpt lat="48.17601695638934" lon="15.638658229846406"><ele>282.0</ele><time>2026-05-01T15:09:00Z</time></trkpt><trkpt lat="48.17599852809058" lon="15.639110729221803"><ele>282.0</ele><time>2026-05-01T15:09:01Z</time></trkpt><trkpt lat="48.17598096238556" lon="15.639564321383963"><ele>282.0</ele><time>2026-05-01T15:09:02Z</time></trkpt><trkpt lat="48.175965196253316" lon="15.640019338383633"><ele>282.5</ele><time>2026-05-01T15:09:03Z</time></trkpt><trkpt lat="48.17595296336942" lon="15.640475633414573"><ele>283.0</ele><time>2026-05-01T15:09:04Z</time></trkpt><trkpt lat="48.175942832856" lon="15.640931585165234"><ele>283.0</ele><time>2026-05-01T15:09:05Z</time></trkpt><trkpt lat="48.17593413381068" lon="15.641385051654886"><ele>283.0</ele><time>2026-05-01T15:09:06Z</time></trkpt><trkpt lat="48.17592901450026" lon="15.641832735538713"><ele>284.0</ele><time>2026-05-01T15:09:07Z</time></trkpt><trkpt lat="48.17592597460167" lon="15.642276200832823"><ele>285.0</ele><time>2026-05-01T15:09:08Z</time></trkpt><trkpt lat="48.17592626459245" lon="15.64271610435777"><ele>284.5</ele><time>2026-05-01T15:09:09Z</time></trkpt><trkpt lat="48.1759298305784" lon="15.643158360480864"><ele>284.0</ele><time>2026-05-01T15:09:10Z</time></trkpt><trkpt lat="48.17593852908141" lon="15.64359977312134"><ele>283.5</ele><time>2026-05-01T15:09:11Z</time></trkpt><trkpt lat="48.175954777729444" lon="15.644040864185328"><ele>283.0</ele><time>2026-05-01T15:09:12Z</time></trkpt><trkpt lat="48.1759801201888" lon="15.644482087053333"><ele>284.5</ele><time>2026-05-01T15:09:13Z</time></trkpt><trkpt lat="48.17600876244995" lon="15.644924829304772"><ele>286.0</ele><time>2026-05-01T15:09:14Z</time></trkpt><trkpt lat="48.17604359211225" lon="15.645370778619597"><ele>287.5</ele><time>2026-05-01T15:09:15Z</time></trkpt><trkpt lat="48.176076968193975" lon="15.645817909527608"><ele>289.0</ele><time>2026-05-01T15:09:16Z</time></trkpt><trkpt lat="48.1761114654169" lon="15.646264029220317"><ele>289.5</ele><time>2026-05-01T15:09:17Z</time></trkpt><trkpt lat="48.17614621772387" lon="15.646708875951308"><ele>290.0</ele><time>2026-05-01T15:09:18Z</time></trkpt><trkpt lat="48.17618478182364" lon="15.647154105360332"><ele>290.0</ele><time>2026-05-01T15:09:19Z</time></trkpt><trkpt lat="48.17622771864488" lon="15.647596654765145"><ele>290.0</ele><time>2026-05-01T15:09:20Z</time></trkpt><trkpt lat="48.176273437885136" lon="15.64803807889745"><ele>290.0</ele><time>2026-05-01T15:09:21Z</time></trkpt><trkpt lat="48.176321406796994" lon="15.648476459945272"><ele>290.0</ele><time>2026-05-01T15:09:22Z</time></trkpt><trkpt lat="48.1763735478569" lon="15.64891174702736"><ele>290.0</ele><time>2026-05-01T15:09:23Z</time></trkpt><trkpt lat="48.176428306602624" lon="15.649345481636324"><ele>290.0</ele><time>2026-05-01T15:09:24Z</time></trkpt><trkpt lat="48.17648711457374" lon="15.649775972936741"><ele>290.5</ele><time>2026-05-01T15:09:25Z</time></trkpt><trkpt lat="48.176548888463586" lon="15.650203989073788"><ele>291.0</ele><time>2026-05-01T15:09:26Z</time></trkpt><trkpt lat="48.176615200808975" lon="15.650629817185665"><ele>291.0</ele><time>2026-05-01T15:09:27Z</time></trkpt><trkpt lat="48.176686350133636" lon="15.65105407044701"><ele>291.0</ele><time>2026-05-01T15:09:28Z</time></trkpt><trkpt lat="48.176761224191495" lon="15.651476219097468"><ele>290.0</ele><time>2026-05-01T15:09:29Z</time></trkpt><trkpt lat="48.1768416158812" lon="15.651896407702262"><ele>289.0</ele><time>2026-05-01T15:09:30Z</time></trkpt><trkpt lat="48.17692364596189" lon="15.652313493043307"><ele>288.5</ele><time>2026-05-01T15:09:31Z</time></trkpt><trkpt lat="48.177007098417484" lon="15.652730002588862"><ele>288.0</ele><time>2026-05-01T15:09:32Z</time></trkpt><trkpt lat="48.177090902555285" lon="15.653142154004366"><ele>288.0</ele><time>2026-05-01T15:09:33Z</time></trkpt><trkpt lat="48.17717854456079" lon="15.65355211337791"><ele>288.0</ele><time>2026-05-01T15:09:34Z</time></trkpt><trkpt lat="48.17727049712928" lon="15.65395671581089"><ele>288.0</ele><time>2026-05-01T15:09:35Z</time></trkpt><trkpt lat="48.17736546351528" lon="15.654359316463728"><ele>288.0</ele><time>2026-05-01T15:09:36Z</time></trkpt><trkpt lat="48.177465147221355" lon="15.65476452339736"><ele>288.0</ele><time>2026-05-01T15:09:37Z</time></trkpt><trkpt lat="48.17756851293524" lon="15.655168870403429"><ele>288.0</ele><time>2026-05-01T15:09:38Z</time></trkpt><trkpt lat="48.177674367511926" lon="15.655572442620942"><ele>288.5</ele><time>2026-05-01T15:09:39Z</time></trkpt><trkpt lat="48.17778527863886" lon="15.65597106889612"><ele>289.0</ele><time>2026-05-01T15:09:40Z</time></trkpt><trkpt lat="48.17789510975122" lon="15.656353336849511"><ele>289.0</ele><time>2026-05-01T15:09:41Z</time></trkpt><trkpt lat="48.17800867816531" lon="15.656737461200846"><ele>289.0</ele><time>2026-05-01T15:09:42Z</time></trkpt><trkpt lat="48.17812785389014" lon="15.657133720926188"><ele>288.5</ele><time>2026-05-01T15:09:43Z</time></trkpt><trkpt lat="48.17825048298742" lon="15.65753177602923"><ele>288.0</ele><time>2026-05-01T15:09:44Z</time></trkpt><trkpt lat="48.178377973042664" lon="15.657929698600965"><ele>287.5</ele><time>2026-05-01T15:09:45Z</time></trkpt><trkpt lat="48.17850717774292" lon="15.658325298920222"><ele>287.0</ele><time>2026-05-01T15:09:46Z</time></trkpt><trkpt lat="48.17863497517024" lon="15.658721521833625"><ele>288.0</ele><time>2026-05-01T15:09:47Z</time></trkpt><trkpt lat="48.178761219172976" lon="15.659114806325274"><ele>289.0</ele><time>2026-05-01T15:09:48Z</time></trkpt><trkpt lat="48.17888199598946" lon="15.65950987932128"><ele>289.5</ele><time>2026-05-01T15:09:49Z</time></trkpt><trkpt lat="48.178999793779155" lon="15.659910328559917"><ele>290.0</ele><time>2026-05-01T15:09:50Z</time></trkpt><trkpt lat="48.1791190968564" lon="15.660311220894794"><ele>290.5</ele><time>2026-05-01T15:09:51Z</time></trkpt><trkpt lat="48.17924281735023" lon="15.66071106075857"><ele>291.0</ele><time>2026-05-01T15:09:52Z</time></trkpt><trkpt lat="48.179372905595216" lon="15.661106990165047"><ele>291.5</ele><time>2026-05-01T15:09:53Z</time></trkpt><trkpt lat="48.179506678507636" lon="15.66150224553605"><ele>292.0</ele><time>2026-05-01T15:09:54Z</time></trkpt><trkpt lat="48.179640304050366" lon="15.66189563281795"><ele>292.5</ele><time>2026-05-01T15:09:55Z</time></trkpt><trkpt lat="48.17977329696769" lon="15.662289027877973"><ele>293.0</ele><time>2026-05-01T15:09:56Z</time></trkpt><trkpt lat="48.17990408505653" lon="15.662681813587302"><ele>292.0</ele><time>2026-05-01T15:09:57Z</time></trkpt><trkpt lat="48.18003100567375" lon="15.663074368826717"><ele>291.0</ele><time>2026-05-01T15:09:58Z</time></trkpt><trkpt lat="48.18015597014008" lon="15.66346821445835"><ele>290.5</ele><time>2026-05-01T15:09:59Z</time></trkpt><trkpt lat="48.18028408260938" lon="15.663856373202865"><ele>290.0</ele><time>2026-05-01T15:10:00Z</time></trkpt><trkpt lat="48.180413066549825" lon="15.664243009999096"><ele>291.0</ele><time>2026-05-01T15:10:01Z</time></trkpt><trkpt lat="48.18054086253346" lon="15.664627871915638"><ele>292.0</ele><time>2026-05-01T15:10:02Z</time></trkpt><trkpt lat="48.18066927755745" lon="15.665012934728242"><ele>293.5</ele><time>2026-05-01T15:10:03Z</time></trkpt><trkpt lat="48.18079753355437" lon="15.66539730960553"><ele>295.0</ele><time>2026-05-01T15:10:04Z</time></trkpt><trkpt lat="48.180925467767" lon="15.665781235406335"><ele>295.0</ele><time>2026-05-01T15:10:05Z</time></trkpt><trkpt lat="48.18105432605491" lon="15.66616405944629"><ele>295.0</ele><time>2026-05-01T15:10:06Z</time></trkpt><trkpt lat="48.18118239798587" lon="15.666545310309829"><ele>295.0</ele><time>2026-05-01T15:10:07Z</time></trkpt><trkpt lat="48.18130869807173" lon="15.66692777764119"><ele>295.0</ele><time>2026-05-01T15:10:08Z</time></trkpt><trkpt lat="48.181434289548434" lon="15.667308699470501"><ele>295.0</ele><time>2026-05-01T15:10:09Z</time></trkpt><trkpt lat="48.18155974248841" lon="15.66769357057067"><ele>295.0</ele><time>2026-05-01T15:10:10Z</time></trkpt><trkpt lat="48.18168692716923" lon="15.668079819720502"><ele>296.0</ele><time>2026-05-01T15:10:11Z</time></trkpt><trkpt lat="48.18181467532991" lon="15.66845041652462"><ele>297.0</ele><time>2026-05-01T15:10:12Z</time></trkpt><trkpt lat="48.18195188921696" lon="15.66881432531096"><ele>298.0</ele><time>2026-05-01T15:10:13Z</time></trkpt><trkpt lat="48.182092888517694" lon="15.669192883366106"><ele>299.0</ele><time>2026-05-01T15:10:14Z</time></trkpt><trkpt lat="48.18222851476874" lon="15.669584840632998"><ele>299.0</ele><time>2026-05-01T15:10:15Z</time></trkpt><trkpt lat="48.18235928574865" lon="15.669989552557153"><ele>299.0</ele><time>2026-05-01T15:10:16Z</time></trkpt><trkpt lat="48.182490713202526" lon="15.670400121714819"><ele>300.0</ele><time>2026-05-01T15:10:17Z</time></trkpt><trkpt lat="48.18262351572016" lon="15.670811053805506"><ele>301.0</ele><time>2026-05-01T15:10:18Z</time></trkpt><trkpt lat="48.18275997428586" lon="15.671218488431112"><ele>301.0</ele><time>2026-05-01T15:10:19Z</time></trkpt><trkpt lat="48.1828966625617" lon="15.671625157698605"><ele>301.0</ele><time>2026-05-01T15:10:20Z</time></trkpt><trkpt lat="48.1830331910381" lon="15.67203354389493"><ele>301.0</ele><time>2026-05-01T15:10:21Z</time></trkpt><trkpt lat="48.183167776395045" lon="15.67244315872967"><ele>301.0</ele><time>2026-05-01T15:10:22Z</time></trkpt><trkpt lat="48.18330139301929" lon="15.672851964493566"><ele>299.0</ele><time>2026-05-01T15:10:23Z</time></trkpt><trkpt lat="48.183435552884" lon="15.673260693670139"><ele>297.0</ele><time>2026-05-01T15:10:24Z</time></trkpt><trkpt lat="48.18356990917183" lon="15.673671013659336"><ele>296.5</ele><time>2026-05-01T15:10:25Z</time></trkpt><trkpt lat="48.183704726749276" lon="15.674084184253214"><ele>296.0</ele><time>2026-05-01T15:10:26Z</time></trkpt><trkpt lat="48.183836989205346" lon="15.674501240066464"><ele>294.0</ele><time>2026-05-01T15:10:27Z</time></trkpt><trkpt lat="48.18396284606615" lon="15.674922657119993"><ele>292.0</ele><time>2026-05-01T15:10:28Z</time></trkpt><trkpt lat="48.184086283951245" lon="15.675347794399334"><ele>291.0</ele><time>2026-05-01T15:10:29Z</time></trkpt><trkpt lat="48.184210047251746" lon="15.675775076113498"><ele>290.0</ele><time>2026-05-01T15:10:30Z</time></trkpt><trkpt lat="48.1843316373182" lon="15.6762015541094"><ele>288.5</ele><time>2026-05-01T15:10:31Z</time></trkpt><trkpt lat="48.18445318471408" lon="15.676628376280844"><ele>287.0</ele><time>2026-05-01T15:10:32Z</time></trkpt><trkpt lat="48.18457533509277" lon="15.677057263641895"><ele>286.5</ele><time>2026-05-01T15:10:33Z</time></trkpt><trkpt lat="48.184693113950935" lon="15.677486898026473"><ele>286.0</ele><time>2026-05-01T15:10:34Z</time></trkpt><trkpt lat="48.18480531269855" lon="15.677918030373391"><ele>286.0</ele><time>2026-05-01T15:10:35Z</time></trkpt><trkpt lat="48.18491132741299" lon="15.678350416002091"><ele>286.0</ele><time>2026-05-01T15:10:36Z</time></trkpt><trkpt lat="48.18501137667126" lon="15.678784396618157"><ele>287.0</ele><time>2026-05-01T15:10:37Z</time></trkpt><trkpt lat="48.18510719668315" lon="15.679221398069418"><ele>288.0</ele><time>2026-05-01T15:10:38Z</time></trkpt><trkpt lat="48.1851961027281" lon="15.679661302811557"><ele>288.5</ele><time>2026-05-01T15:10:39Z</time></trkpt><trkpt lat="48.18527830974084" lon="15.680102406019078"><ele>289.0</ele><time>2026-05-01T15:10:40Z</time></trkpt><trkpt lat="48.185355985193745" lon="15.680544562094418"><ele>289.0</ele><time>2026-05-01T15:10:41Z</time></trkpt><trkpt lat="48.185429940758496" lon="15.680989995865536"><ele>289.0</ele><time>2026-05-01T15:10:42Z</time></trkpt><trkpt lat="48.185497436222825" lon="15.681437070517658"><ele>290.0</ele><time>2026-05-01T15:10:43Z</time></trkpt><trkpt lat="48.18555880708339" lon="15.681872334507815"><ele>291.0</ele><time>2026-05-01T15:10:44Z</time></trkpt><trkpt lat="48.185613308637805" lon="15.682294160782007"><ele>291.0</ele><time>2026-05-01T15:10:45Z</time></trkpt><trkpt lat="48.18566349660842" lon="15.682732663075745"><ele>291.0</ele><time>2026-05-01T15:10:46Z</time></trkpt><trkpt lat="48.18570918974724" lon="15.683186759426773"><ele>294.5</ele><time>2026-05-01T15:10:47Z</time></trkpt><trkpt lat="48.18574767263238" lon="15.683648753621183"><ele>298.0</ele><time>2026-05-01T15:10:48Z</time></trkpt><trkpt lat="48.185780385046144" lon="15.684114234972101"><ele>299.0</ele><time>2026-05-01T15:10:49Z</time></trkpt><trkpt lat="48.18580844053083" lon="15.684584113674905"><ele>300.0</ele><time>2026-05-01T15:10:50Z</time></trkpt><trkpt lat="48.18583130140136" lon="15.685056757497367"><ele>299.5</ele><time>2026-05-01T15:10:51Z</time></trkpt><trkpt lat="48.185848071984" lon="15.685529673486213"><ele>299.0</ele><time>2026-05-01T15:10:52Z</time></trkpt><trkpt lat="48.185856983199464" lon="15.686005154156428"><ele>299.5</ele><time>2026-05-01T15:10:53Z</time></trkpt><trkpt lat="48.185857406300826" lon="15.686480870767067"><ele>300.0</ele><time>2026-05-01T15:10:54Z</time></trkpt><trkpt lat="48.185850944585646" lon="15.686957270049506"><ele>300.5</ele><time>2026-05-01T15:10:55Z</time></trkpt><trkpt lat="48.185840030618216" lon="15.687433679632534"><ele>301.0</ele><time>2026-05-01T15:10:56Z</time></trkpt><trkpt lat="48.18582530980329" lon="15.68790917725831"><ele>302.0</ele><time>2026-05-01T15:10:57Z</time></trkpt><trkpt lat="48.18580739946832" lon="15.688386454426727"><ele>303.0</ele><time>2026-05-01T15:10:58Z</time></trkpt><trkpt lat="48.1857846638499" lon="15.688863855551126"><ele>303.0</ele><time>2026-05-01T15:10:59Z</time></trkpt><trkpt lat="48.185756039046126" lon="15.68933993298179"><ele>303.0</ele><time>2026-05-01T15:11:00Z</time></trkpt><trkpt lat="48.18572393913945" lon="15.689815531346762"><ele>303.0</ele><time>2026-05-01T15:11:01Z</time></trkpt><trkpt lat="48.18569195467707" lon="15.690289437794094"><ele>303.0</ele><time>2026-05-01T15:11:02Z</time></trkpt><trkpt lat="48.185660681700575" lon="15.690762048275584"><ele>301.5</ele><time>2026-05-01T15:11:03Z</time></trkpt><trkpt lat="48.18562915662766" lon="15.691232575197045"><ele>300.0</ele><time>2026-05-01T15:11:04Z</time></trkpt><trkpt lat="48.185595951968914" lon="15.691705692616832"><ele>298.0</ele><time>2026-05-01T15:11:05Z</time></trkpt><trkpt lat="48.18555915584959" lon="15.692184092629267"><ele>296.0</ele><time>2026-05-01T15:11:06Z</time></trkpt><trkpt lat="48.18551865612153" lon="15.692663573090474"><ele>294.5</ele><time>2026-05-01T15:11:07Z</time></trkpt><trkpt lat="48.18547689854634" lon="15.693144507952304"><ele>293.0</ele><time>2026-05-01T15:11:08Z</time></trkpt><trkpt lat="48.18543422138383" lon="15.693625587954577"><ele>291.0</ele><time>2026-05-01T15:11:09Z</time></trkpt><trkpt lat="48.18539225867009" lon="15.69410727736952"><ele>289.0</ele><time>2026-05-01T15:11:10Z</time></trkpt><trkpt lat="48.185351653171786" lon="15.694589820404483"><ele>286.5</ele><time>2026-05-01T15:11:11Z</time></trkpt><trkpt lat="48.185312196204364" lon="15.695070503492824"><ele>284.0</ele><time>2026-05-01T15:11:12Z</time></trkpt><trkpt lat="48.18527450203761" lon="15.69554956385169"><ele>284.0</ele><time>2026-05-01T15:11:13Z</time></trkpt><trkpt lat="48.18523799867289" lon="15.696025966481596"><ele>284.0</ele><time>2026-05-01T15:11:14Z</time></trkpt><trkpt lat="48.1852017793051" lon="15.696498587756974"><ele>284.0</ele><time>2026-05-01T15:11:15Z</time></trkpt><trkpt lat="48.1851657223478" lon="15.696966163370005"><ele>284.0</ele><time>2026-05-01T15:11:16Z</time></trkpt><trkpt lat="48.18512844184212" lon="15.69743255892322"><ele>284.5</ele><time>2026-05-01T15:11:17Z</time></trkpt><trkpt lat="48.18509386002717" lon="15.69789844274989"><ele>285.0</ele><time>2026-05-01T15:11:18Z</time></trkpt><trkpt lat="48.18506338565756" lon="15.698363561720713"><ele>285.5</ele><time>2026-05-01T15:11:19Z</time></trkpt><trkpt lat="48.1850391977697" lon="15.698831240194583"><ele>286.0</ele><time>2026-05-01T15:11:20Z</time></trkpt><trkpt lat="48.18502000530151" lon="15.699299227506817"><ele>285.0</ele><time>2026-05-01T15:11:21Z</time></trkpt><trkpt lat="48.1850061053281" lon="15.699767915381631"><ele>284.0</ele><time>2026-05-01T15:11:22Z</time></trkpt><trkpt lat="48.18499703763883" lon="15.700236819127888"><ele>283.5</ele><time>2026-05-01T15:11:23Z</time></trkpt><trkpt lat="48.18499248565732" lon="15.700706376945584"><ele>283.0</ele><time>2026-05-01T15:11:24Z</time></trkpt><trkpt lat="48.18499508637024" lon="15.701179050707061"><ele>284.5</ele><time>2026-05-01T15:11:25Z</time></trkpt><trkpt lat="48.185002368953604" lon="15.701651565121107"><ele>286.0</ele><time>2026-05-01T15:11:26Z</time></trkpt><trkpt lat="48.1850148499938" lon="15.702124679081164"><ele>287.0</ele><time>2026-05-01T15:11:27Z</time></trkpt><trkpt lat="48.18503386465145" lon="15.702599470214562"><ele>288.0</ele><time>2026-05-01T15:11:28Z</time></trkpt><trkpt lat="48.18505938338622" lon="15.703075094484566"><ele>288.0</ele><time>2026-05-01T15:11:29Z</time></trkpt><trkpt lat="48.185091781044996" lon="15.703550180813457"><ele>288.0</ele><time>2026-05-01T15:11:30Z</time></trkpt><trkpt lat="48.1851269009208" lon="15.704022596710828"><ele>285.5</ele><time>2026-05-01T15:11:31Z</time></trkpt><trkpt lat="48.185166914265324" lon="15.704493147379498"><ele>283.0</ele><time>2026-05-01T15:11:32Z</time></trkpt><trkpt lat="48.185207876062805" lon="15.704960680218933"><ele>281.5</ele><time>2026-05-01T15:11:33Z</time></trkpt><trkpt lat="48.18524861449975" lon="15.70542517228588"><ele>280.0</ele><time>2026-05-01T15:11:34Z</time></trkpt><trkpt lat="48.185289251462954" lon="15.70589049922431"><ele>279.5</ele><time>2026-05-01T15:11:35Z</time></trkpt><trkpt lat="48.18533050487911" lon="15.70635585235901"><ele>279.0</ele><time>2026-05-01T15:11:36Z</time></trkpt><trkpt lat="48.18537283420323" lon="15.706818911923857"><ele>278.5</ele><time>2026-05-01T15:11:37Z</time></trkpt><trkpt lat="48.185417168177544" lon="15.707275975954293"><ele>278.0</ele><time>2026-05-01T15:11:38Z</time></trkpt><trkpt lat="48.18546271215255" lon="15.707731192656686"><ele>277.5</ele><time>2026-05-01T15:11:39Z</time></trkpt><trkpt lat="48.18550797707969" lon="15.708188647853621"><ele>277.0</ele><time>2026-05-01T15:11:40Z</time></trkpt><trkpt lat="48.18555225172553" lon="15.70864828079159"><ele>276.0</ele><time>2026-05-01T15:11:41Z</time></trkpt><trkpt lat="48.185594394343504" lon="15.709107566168438"><ele>275.0</ele><time>2026-05-01T15:11:42Z</time></trkpt><trkpt lat="48.18563445473518" lon="15.709565378294508"><ele>274.5</ele><time>2026-05-01T15:11:43Z</time></trkpt><trkpt lat="48.185672521498304" lon="15.710022031007625"><ele>274.0</ele><time>2026-05-01T15:11:44Z</time></trkpt><trkpt lat="48.18571085977741" lon="15.710479067634196"><ele>274.5</ele><time>2026-05-01T15:11:45Z</time></trkpt><trkpt lat="48.18575058990741" lon="15.7109352087682"><ele>275.0</ele><time>2026-05-01T15:11:46Z</time></trkpt><trkpt lat="48.18578985522511" lon="15.71139033023038"><ele>275.0</ele><time>2026-05-01T15:11:47Z</time></trkpt><trkpt lat="48.185829669847635" lon="15.711843898012718"><ele>275.0</ele><time>2026-05-01T15:11:48Z</time></trkpt><trkpt lat="48.185868335824516" lon="15.712297116570962"><ele>274.5</ele><time>2026-05-01T15:11:49Z</time></trkpt><trkpt lat="48.18590691761088" lon="15.712750693347246"><ele>274.0</ele><time>2026-05-01T15:11:50Z</time></trkpt><trkpt lat="48.185944842764165" lon="15.713207749475764"><ele>274.0</ele><time>2026-05-01T15:11:51Z</time></trkpt><trkpt lat="48.18597983644564" lon="15.713667576044699"><ele>274.0</ele><time>2026-05-01T15:11:52Z</time></trkpt><trkpt lat="48.1860072898448" lon="15.714128621686212"><ele>274.0</ele><time>2026-05-01T15:11:53Z</time></trkpt><trkpt lat="48.186030179392155" lon="15.71459351133719"><ele>274.0</ele><time>2026-05-01T15:11:54Z</time></trkpt><trkpt lat="48.186052173871516" lon="15.715058210571405"><ele>273.5</ele><time>2026-05-01T15:11:55Z</time></trkpt><trkpt lat="48.18607320106524" lon="15.715524594006226"><ele>273.0</ele><time>2026-05-01T15:11:56Z</time></trkpt><trkpt lat="48.18609381658297" lon="15.715992663161938"><ele>271.5</ele><time>2026-05-01T15:11:57Z</time></trkpt><trkpt lat="48.18611162473534" lon="15.716462646123034"><ele>270.0</ele><time>2026-05-01T15:11:58Z</time></trkpt><trkpt lat="48.186125002413256" lon="15.716935018258859"><ele>269.0</ele><time>2026-05-01T15:11:59Z</time></trkpt><trkpt lat="48.18613412747419" lon="15.717410969088863"><ele>268.0</ele><time>2026-05-01T15:12:00Z</time></trkpt><trkpt lat="48.18614136611385" lon="15.717889196915113"><ele>266.5</ele><time>2026-05-01T15:12:01Z</time></trkpt><trkpt lat="48.18614826537049" lon="15.718365216667063"><ele>265.0</ele><time>2026-05-01T15:12:02Z</time></trkpt><trkpt lat="48.18615318138269" lon="15.718820042521887"><ele>264.0</ele><time>2026-05-01T15:12:03Z</time></trkpt><trkpt lat="48.18615676955459" lon="15.719283229961896"><ele>263.0</ele><time>2026-05-01T15:12:04Z</time></trkpt><trkpt lat="48.18615880202772" lon="15.719752331777602"><ele>262.0</ele><time>2026-05-01T15:12:05Z</time></trkpt><trkpt lat="48.18616132335083" lon="15.720219266709607"><ele>261.0</ele><time>2026-05-01T15:12:06Z</time></trkpt><trkpt lat="48.18616495219396" lon="15.720681754963634"><ele>257.0</ele><time>2026-05-01T15:12:07Z</time></trkpt><trkpt lat="48.1861691662143" lon="15.721139872756824"><ele>253.0</ele><time>2026-05-01T15:12:08Z</time></trkpt><trkpt lat="48.18617388158459" lon="15.721598557586534"><ele>251.0</ele><time>2026-05-01T15:12:09Z</time></trkpt><trkpt lat="48.18617875226096" lon="15.722055464552394"><ele>249.0</ele><time>2026-05-01T15:12:10Z</time></trkpt><trkpt lat="48.18618359000955" lon="15.722506298213835"><ele>249.0</ele><time>2026-05-01T15:12:11Z</time></trkpt><trkpt lat="48.18618626272824" lon="15.722951946383533"><ele>249.0</ele><time>2026-05-01T15:12:12Z</time></trkpt><trkpt lat="48.18618613074906" lon="15.72340010218657"><ele>247.5</ele><time>2026-05-01T15:12:13Z</time></trkpt><trkpt lat="48.18618912534268" lon="15.723850706874439"><ele>246.0</ele><time>2026-05-01T15:12:14Z</time></trkpt><trkpt lat="48.186194129611756" lon="15.72429950432144"><ele>246.0</ele><time>2026-05-01T15:12:15Z</time></trkpt><trkpt lat="48.186198635264525" lon="15.724745443629052"><ele>246.0</ele><time>2026-05-01T15:12:16Z</time></trkpt><trkpt lat="48.18620486373121" lon="15.725191215212242"><ele>246.5</ele><time>2026-05-01T15:12:17Z</time></trkpt><trkpt lat="48.18621140746797" lon="15.725637390389501"><ele>247.0</ele><time>2026-05-01T15:12:18Z</time></trkpt><trkpt lat="48.18621911719042" lon="15.726086171259848"><ele>247.5</ele><time>2026-05-01T15:12:19Z</time></trkpt><trkpt lat="48.18622656348632" lon="15.726535457910362"><ele>248.0</ele><time>2026-05-01T15:12:20Z</time></trkpt><trkpt lat="48.18623268315058" lon="15.72698395694403"><ele>247.0</ele><time>2026-05-01T15:12:21Z</time></trkpt><trkpt lat="48.18623741464715" lon="15.727431076624265"><ele>246.0</ele><time>2026-05-01T15:12:22Z</time></trkpt><trkpt lat="48.18624181707361" lon="15.727875130852254"><ele>245.5</ele><time>2026-05-01T15:12:23Z</time></trkpt><trkpt lat="48.18624613793107" lon="15.728321576468723"><ele>245.0</ele><time>2026-05-01T15:12:24Z</time></trkpt><trkpt lat="48.18624823349871" lon="15.728766939476339"><ele>245.0</ele><time>2026-05-01T15:12:25Z</time></trkpt><trkpt lat="48.18624926264561" lon="15.729209212491872"><ele>245.0</ele><time>2026-05-01T15:12:26Z</time></trkpt><trkpt lat="48.186250231061386" lon="15.729652238121382"><ele>245.0</ele><time>2026-05-01T15:12:27Z</time></trkpt><trkpt lat="48.18625329224369" lon="15.730099050148427"><ele>245.0</ele><time>2026-05-01T15:12:28Z</time></trkpt><trkpt lat="48.18625755247742" lon="15.73054744240101"><ele>245.0</ele><time>2026-05-01T15:12:29Z</time></trkpt><trkpt lat="48.18626187116745" lon="15.730997754473943"><ele>245.0</ele><time>2026-05-01T15:12:30Z</time></trkpt><trkpt lat="48.18626673515415" lon="15.73144852886951"><ele>248.5</ele><time>2026-05-01T15:12:31Z</time></trkpt><trkpt lat="48.18627196331084" lon="15.731900830364793"><ele>252.0</ele><time>2026-05-01T15:12:32Z</time></trkpt><trkpt lat="48.186276730438365" lon="15.732351874227817"><ele>253.5</ele><time>2026-05-01T15:12:33Z</time></trkpt><trkpt lat="48.186281324150954" lon="15.732801369603546"><ele>255.0</ele><time>2026-05-01T15:12:34Z</time></trkpt><trkpt lat="48.186285833017266" lon="15.733248171618552"><ele>257.5</ele><time>2026-05-01T15:12:35Z</time></trkpt><trkpt lat="48.18629142131695" lon="15.733691537001153"><ele>260.0</ele><time>2026-05-01T15:12:36Z</time></trkpt><trkpt lat="48.186298303018404" lon="15.734129653261755"><ele>261.0</ele><time>2026-05-01T15:12:37Z</time></trkpt><trkpt lat="48.18630480642137" lon="15.734561634233934"><ele>262.0</ele><time>2026-05-01T15:12:38Z</time></trkpt><trkpt lat="48.18630885956564" lon="15.734979547153488"><ele>263.0</ele><time>2026-05-01T15:12:39Z</time></trkpt><trkpt lat="48.186310951651585" lon="15.735368773606858"><ele>264.0</ele><time>2026-05-01T15:12:40Z</time></trkpt><trkpt lat="48.18631144600603" lon="15.735744684726555"><ele>265.5</ele><time>2026-05-01T15:12:41Z</time></trkpt><trkpt lat="48.18631282217862" lon="15.736126112648915"><ele>267.0</ele><time>2026-05-01T15:12:42Z</time></trkpt><trkpt lat="48.18631882751963" lon="15.736504987996343"><ele>269.5</ele><time>2026-05-01T15:12:43Z</time></trkpt><trkpt lat="48.18633453493194" lon="15.736889858545183"><ele>272.0</ele><time>2026-05-01T15:12:44Z</time></trkpt><trkpt lat="48.18634878220001" lon="15.737286786313671"><ele>272.0</ele><time>2026-05-01T15:12:45Z</time></trkpt><trkpt lat="48.186358430175645" lon="15.73769510543849"><ele>272.0</ele><time>2026-05-01T15:12:46Z</time></trkpt><trkpt lat="48.186361465085845" lon="15.738110699898515"><ele>274.0</ele><time>2026-05-01T15:12:47Z</time></trkpt><trkpt lat="48.18635773365089" lon="15.738531137339946"><ele>276.0</ele><time>2026-05-01T15:12:48Z</time></trkpt><trkpt lat="48.18635106675758" lon="15.738958709934504"><ele>279.5</ele><time>2026-05-01T15:12:49Z</time></trkpt><trkpt lat="48.1863446341589" lon="15.739393624806407"><ele>283.0</ele><time>2026-05-01T15:12:50Z</time></trkpt><trkpt lat="48.18634240644289" lon="15.739834006318622"><ele>284.5</ele><time>2026-05-01T15:12:51Z</time></trkpt><trkpt lat="48.18634576539548" lon="15.740278188691088"><ele>286.0</ele><time>2026-05-01T15:12:52Z</time></trkpt><trkpt lat="48.18635156074448" lon="15.7407244185776"><ele>287.5</ele><time>2026-05-01T15:12:53Z</time></trkpt><trkpt lat="48.18635712085274" lon="15.741172967657382"><ele>289.0</ele><time>2026-05-01T15:12:54Z</time></trkpt><trkpt lat="48.18636199730391" lon="15.74162353254382"><ele>290.0</ele><time>2026-05-01T15:12:55Z</time></trkpt><trkpt lat="48.18636671647943" lon="15.742072725955989"><ele>291.0</ele><time>2026-05-01T15:12:56Z</time></trkpt><trkpt lat="48.18637322215052" lon="15.742520548993355"><ele>288.5</ele><time>2026-05-01T15:12:57Z</time></trkpt><trkpt lat="48.186379181084945" lon="15.742968937555961"><ele>286.0</ele><time>2026-05-01T15:12:58Z</time></trkpt><trkpt lat="48.18638436390091" lon="15.743415363084301"><ele>284.5</ele><time>2026-05-01T15:12:59Z</time></trkpt><trkpt lat="48.186389789757904" lon="15.743860106523229"><ele>283.0</ele><time>2026-05-01T15:13:00Z</time></trkpt><trkpt lat="48.186396648829955" lon="15.74430594412951"><ele>282.5</ele><time>2026-05-01T15:13:01Z</time></trkpt><trkpt lat="48.18640472441736" lon="15.744754875553902"><ele>282.0</ele><time>2026-05-01T15:13:02Z</time></trkpt><trkpt lat="48.18641120578642" lon="15.74521214449325"><ele>279.5</ele><time>2026-05-01T15:13:03Z</time></trkpt><trkpt lat="48.186412770099075" lon="15.74567375092896"><ele>277.0</ele><time>2026-05-01T15:13:04Z</time></trkpt><trkpt lat="48.186408125201034" lon="15.746138834272825"><ele>273.5</ele><time>2026-05-01T15:13:05Z</time></trkpt><trkpt lat="48.18639753443783" lon="15.746606618452072"><ele>270.0</ele><time>2026-05-01T15:13:06Z</time></trkpt><trkpt lat="48.1863819433139" lon="15.747072556866494"><ele>266.0</ele><time>2026-05-01T15:13:07Z</time></trkpt><trkpt lat="48.18636048233525" lon="15.747537802654868"><ele>262.0</ele><time>2026-05-01T15:13:08Z</time></trkpt><trkpt lat="48.186333940042005" lon="15.74799801037463"><ele>259.0</ele><time>2026-05-01T15:13:09Z</time></trkpt><trkpt lat="48.186304165474056" lon="15.748452522777542"><ele>256.0</ele><time>2026-05-01T15:13:10Z</time></trkpt><trkpt lat="48.18626952686897" lon="15.748902849052326"><ele>253.0</ele><time>2026-05-01T15:13:11Z</time></trkpt><trkpt lat="48.18623115095301" lon="15.749356189764441"><ele>250.0</ele><time>2026-05-01T15:13:12Z</time></trkpt><trkpt lat="48.18619026685272" lon="15.749813109754049"><ele>248.0</ele><time>2026-05-01T15:13:13Z</time></trkpt><trkpt lat="48.18615027627392" lon="15.750271611072401"><ele>246.0</ele><time>2026-05-01T15:13:14Z</time></trkpt><trkpt lat="48.186112596422895" lon="15.750728621471158"><ele>248.5</ele><time>2026-05-01T15:13:15Z</time></trkpt><trkpt lat="48.18607506318589" lon="15.751182782769561"><ele>251.0</ele><time>2026-05-01T15:13:16Z</time></trkpt><trkpt lat="48.186037039995945" lon="15.75163734244178"><ele>252.5</ele><time>2026-05-01T15:13:17Z</time></trkpt><trkpt lat="48.18599717297084" lon="15.752091239959366"><ele>254.0</ele><time>2026-05-01T15:13:18Z</time></trkpt><trkpt lat="48.185955895577635" lon="15.75254465140431"><ele>253.0</ele><time>2026-05-01T15:13:19Z</time></trkpt><trkpt lat="48.18591541249407" lon="15.7529954059151"><ele>252.0</ele><time>2026-05-01T15:13:20Z</time></trkpt><trkpt lat="48.18587359203104" lon="15.75344528936056"><ele>250.5</ele><time>2026-05-01T15:13:21Z</time></trkpt><trkpt lat="48.18583377800778" lon="15.753896590099812"><ele>249.0</ele><time>2026-05-01T15:13:22Z</time></trkpt><trkpt lat="48.185794859306455" lon="15.754346861782814"><ele>247.5</ele><time>2026-05-01T15:13:23Z</time></trkpt><trkpt lat="48.1857545259572" lon="15.754797707691733"><ele>246.0</ele><time>2026-05-01T15:13:24Z</time></trkpt><trkpt lat="48.185713506042" lon="15.755249540653"><ele>247.5</ele><time>2026-05-01T15:13:25Z</time></trkpt><trkpt lat="48.18567411741163" lon="15.755703307167868"><ele>249.0</ele><time>2026-05-01T15:13:26Z</time></trkpt><trkpt lat="48.18563299232258" lon="15.75615861855607"><ele>249.0</ele><time>2026-05-01T15:13:27Z</time></trkpt><trkpt lat="48.18559111501531" lon="15.75661430225088"><ele>249.0</ele><time>2026-05-01T15:13:28Z</time></trkpt><trkpt lat="48.18555001502116" lon="15.757070480167998"><ele>247.5</ele><time>2026-05-01T15:13:29Z</time></trkpt><trkpt lat="48.185510335912824" lon="15.757527072538553"><ele>246.0</ele><time>2026-05-01T15:13:30Z</time></trkpt><trkpt lat="48.18547127961673" lon="15.757985488599022"><ele>244.5</ele><time>2026-05-01T15:13:31Z</time></trkpt><trkpt lat="48.18543212872022" lon="15.758442332176664"><ele>243.0</ele><time>2026-05-01T15:13:32Z</time></trkpt><trkpt lat="48.18539356474087" lon="15.758887924941407"><ele>241.5</ele><time>2026-05-01T15:13:33Z</time></trkpt><trkpt lat="48.18535124007078" lon="15.75932430423442"><ele>240.0</ele><time>2026-05-01T15:13:34Z</time></trkpt><trkpt lat="48.18530340701723" lon="15.759770710873381"><ele>240.5</ele><time>2026-05-01T15:13:35Z</time></trkpt><trkpt lat="48.18525303316383" lon="15.760221402274544"><ele>241.0</ele><time>2026-05-01T15:13:36Z</time></trkpt><trkpt lat="48.18520484826553" lon="15.760671754522644"><ele>242.0</ele><time>2026-05-01T15:13:37Z</time></trkpt><trkpt lat="48.18516214691125" lon="15.761118067869512"><ele>243.0</ele><time>2026-05-01T15:13:38Z</time></trkpt><trkpt lat="48.1851244026748" lon="15.761562977010032"><ele>243.5</ele><time>2026-05-01T15:13:39Z</time></trkpt><trkpt lat="48.185088683045976" lon="15.762005373852764"><ele>244.0</ele><time>2026-05-01T15:13:40Z</time></trkpt><trkpt lat="48.185053256110834" lon="15.762447584954682"><ele>244.5</ele><time>2026-05-01T15:13:41Z</time></trkpt><trkpt lat="48.18501608746074" lon="15.762889965240143"><ele>245.0</ele><time>2026-05-01T15:13:42Z</time></trkpt><trkpt lat="48.18497673331971" lon="15.763331917777784"><ele>245.0</ele><time>2026-05-01T15:13:43Z</time></trkpt><trkpt lat="48.18493431885353" lon="15.763773280349199"><ele>245.0</ele><time>2026-05-01T15:13:44Z</time></trkpt><trkpt lat="48.18489069731667" lon="15.764216755334308"><ele>245.0</ele><time>2026-05-01T15:13:45Z</time></trkpt><trkpt lat="48.184848738057106" lon="15.7646622429587"><ele>245.0</ele><time>2026-05-01T15:13:46Z</time></trkpt><trkpt lat="48.18480783997035" lon="15.765110393341176"><ele>244.0</ele><time>2026-05-01T15:13:47Z</time></trkpt><trkpt lat="48.184769502363096" lon="15.765561206185762"><ele>243.0</ele><time>2026-05-01T15:13:48Z</time></trkpt><trkpt lat="48.18473105118898" lon="15.766012753664317"><ele>244.0</ele><time>2026-05-01T15:13:49Z</time></trkpt><trkpt lat="48.184692254056145" lon="15.766465106032483"><ele>245.0</ele><time>2026-05-01T15:13:50Z</time></trkpt><trkpt lat="48.18465356556812" lon="15.766913994177756"><ele>247.5</ele><time>2026-05-01T15:13:51Z</time></trkpt><trkpt lat="48.18461339628107" lon="15.767362655576829"><ele>250.0</ele><time>2026-05-01T15:13:52Z</time></trkpt><trkpt lat="48.18457122251983" lon="15.767809722385536"><ele>254.0</ele><time>2026-05-01T15:13:53Z</time></trkpt><trkpt lat="48.184528325584004" lon="15.768255358166268"><ele>258.0</ele><time>2026-05-01T15:13:54Z</time></trkpt><trkpt lat="48.184486305046725" lon="15.768700014319279"><ele>259.5</ele><time>2026-05-01T15:13:55Z</time></trkpt><trkpt lat="48.18444598604963" lon="15.769144725869415"><ele>261.0</ele><time>2026-05-01T15:13:56Z</time></trkpt><trkpt lat="48.1844065957891" lon="15.769589218716783"><ele>261.0</ele><time>2026-05-01T15:13:57Z</time></trkpt><trkpt lat="48.184367186565694" lon="15.770032772679222"><ele>261.0</ele><time>2026-05-01T15:13:58Z</time></trkpt><trkpt lat="48.18432784181682" lon="15.7704758322143"><ele>260.0</ele><time>2026-05-01T15:13:59Z</time></trkpt><trkpt lat="48.18429019441411" lon="15.770915022149497"><ele>259.0</ele><time>2026-05-01T15:14:00Z</time></trkpt><trkpt lat="48.1842527983543" lon="15.77134578692013"><ele>259.0</ele><time>2026-05-01T15:14:01Z</time></trkpt><trkpt lat="48.18421588797094" lon="15.771767190395176"><ele>259.0</ele><time>2026-05-01T15:14:02Z</time></trkpt><trkpt lat="48.184180199975685" lon="15.77217898943988"><ele>258.5</ele><time>2026-05-01T15:14:03Z</time></trkpt><trkpt lat="48.18414873440094" lon="15.77259129864789"><ele>258.0</ele><time>2026-05-01T15:14:04Z</time></trkpt><trkpt lat="48.184124068563804" lon="15.77300326993082"><ele>258.0</ele><time>2026-05-01T15:14:05Z</time></trkpt><trkpt lat="48.18410581138659" lon="15.77342155913391"><ele>258.0</ele><time>2026-05-01T15:14:06Z</time></trkpt><trkpt lat="48.18409003143224" lon="15.77384531123661"><ele>258.5</ele><time>2026-05-01T15:14:07Z</time></trkpt><trkpt lat="48.18407908439089" lon="15.774277898001086"><ele>259.0</ele><time>2026-05-01T15:14:08Z</time></trkpt><trkpt lat="48.184071138760714" lon="15.77471097632563"><ele>259.5</ele><time>2026-05-01T15:14:09Z</time></trkpt><trkpt lat="48.18406587823051" lon="15.7751488405569"><ele>260.0</ele><time>2026-05-01T15:14:10Z</time></trkpt><trkpt lat="48.18406246463311" lon="15.775587894006591"><ele>261.0</ele><time>2026-05-01T15:14:11Z</time></trkpt><trkpt lat="48.18406301394381" lon="15.77603142276535"><ele>262.0</ele><time>2026-05-01T15:14:12Z</time></trkpt><trkpt lat="48.1840690839732" lon="15.776475876867085"><ele>261.5</ele><time>2026-05-01T15:14:13Z</time></trkpt><trkpt lat="48.18407788808328" lon="15.776924305566007"><ele>261.0</ele><time>2026-05-01T15:14:14Z</time></trkpt><trkpt lat="48.184091375161415" lon="15.777375055723034"><ele>261.0</ele><time>2026-05-01T15:14:15Z</time></trkpt><trkpt lat="48.184111251264916" lon="15.777827180748938"><ele>261.0</ele><time>2026-05-01T15:14:16Z</time></trkpt><trkpt lat="48.18413829497912" lon="15.778282744900647"><ele>261.0</ele><time>2026-05-01T15:14:17Z</time></trkpt><trkpt lat="48.18416977456358" lon="15.778738585900332"><ele>261.0</ele><time>2026-05-01T15:14:18Z</time></trkpt><trkpt lat="48.18420492483303" lon="15.779196712621262"><ele>261.5</ele><time>2026-05-01T15:14:19Z</time></trkpt><trkpt lat="48.18424377331162" lon="15.779655889988414"><ele>262.0</ele><time>2026-05-01T15:14:20Z</time></trkpt><trkpt lat="48.18428467461572" lon="15.780112639758707"><ele>262.5</ele><time>2026-05-01T15:14:21Z</time></trkpt><trkpt lat="48.18432615271198" lon="15.78057063345167"><ele>263.0</ele><time>2026-05-01T15:14:22Z</time></trkpt><trkpt lat="48.18437060948657" lon="15.78102698550752"><ele>264.5</ele><time>2026-05-01T15:14:23Z</time></trkpt><trkpt lat="48.18441783136673" lon="15.781483098019724"><ele>266.0</ele><time>2026-05-01T15:14:24Z</time></trkpt><trkpt lat="48.18446191556049" lon="15.781937592105983"><ele>267.5</ele><time>2026-05-01T15:14:25Z</time></trkpt><trkpt lat="48.1845070388506" lon="15.782391277347138"><ele>269.0</ele><time>2026-05-01T15:14:26Z</time></trkpt><trkpt lat="48.184552444959614" lon="15.782843535509018"><ele>270.0</ele><time>2026-05-01T15:14:27Z</time></trkpt><trkpt lat="48.18459672258362" lon="15.783294875156672"><ele>271.0</ele><time>2026-05-01T15:14:28Z</time></trkpt><trkpt lat="48.18464124613231" lon="15.783746041645037"><ele>271.5</ele><time>2026-05-01T15:14:29Z</time></trkpt><trkpt lat="48.18468506320558" lon="15.784194855537967"><ele>272.0</ele><time>2026-05-01T15:14:30Z</time></trkpt><trkpt lat="48.18472869943707" lon="15.784643347097095"><ele>275.0</ele><time>2026-05-01T15:14:31Z</time></trkpt><trkpt lat="48.184772592592886" lon="15.785089909685723"><ele>278.0</ele><time>2026-05-01T15:14:32Z</time></trkpt><trkpt lat="48.1848175263286" lon="15.785536571090171"><ele>273.0</ele><time>2026-05-01T15:14:33Z</time></trkpt><trkpt lat="48.18486089358775" lon="15.785980208236664"><ele>268.0</ele><time>2026-05-01T15:14:34Z</time></trkpt><trkpt lat="48.18490259465756" lon="15.786422755073048"><ele>268.5</ele><time>2026-05-01T15:14:35Z</time></trkpt><trkpt lat="48.18494405380103" lon="15.786863180102387"><ele>269.0</ele><time>2026-05-01T15:14:36Z</time></trkpt><trkpt lat="48.184985053164134" lon="15.787301736785007"><ele>268.0</ele><time>2026-05-01T15:14:37Z</time></trkpt><trkpt lat="48.18502797942316" lon="15.787737385363151"><ele>267.0</ele><time>2026-05-01T15:14:38Z</time></trkpt><trkpt lat="48.18507026786853" lon="15.788173173765813"><ele>267.0</ele><time>2026-05-01T15:14:39Z</time></trkpt><trkpt lat="48.185112048324086" lon="15.788609088903533"><ele>267.0</ele><time>2026-05-01T15:14:40Z</time></trkpt><trkpt lat="48.185152755853345" lon="15.789049597570898"><ele>268.0</ele><time>2026-05-01T15:14:41Z</time></trkpt><trkpt lat="48.185190889454454" lon="15.789493401629993"><ele>269.0</ele><time>2026-05-01T15:14:42Z</time></trkpt><trkpt lat="48.18522690695742" lon="15.789938988398918"><ele>269.0</ele><time>2026-05-01T15:14:43Z</time></trkpt><trkpt lat="48.1852635184841" lon="15.790386990911042"><ele>269.0</ele><time>2026-05-01T15:14:44Z</time></trkpt><trkpt lat="48.185294923655654" lon="15.790836019285607"><ele>269.5</ele><time>2026-05-01T15:14:45Z</time></trkpt><trkpt lat="48.18532606471847" lon="15.791285521377114"><ele>270.0</ele><time>2026-05-01T15:14:46Z</time></trkpt><trkpt lat="48.18534823384584" lon="15.791735975104894"><ele>270.0</ele><time>2026-05-01T15:14:47Z</time></trkpt><trkpt lat="48.185359480290174" lon="15.792187766014722"><ele>270.0</ele><time>2026-05-01T15:14:48Z</time></trkpt><trkpt lat="48.185363535810104" lon="15.792639771416846"><ele>269.5</ele><time>2026-05-01T15:14:49Z</time></trkpt><trkpt lat="48.185363118764876" lon="15.793092227590048"><ele>269.0</ele><time>2026-05-01T15:14:50Z</time></trkpt><trkpt lat="48.185360336320485" lon="15.79354661132515"><ele>269.0</ele><time>2026-05-01T15:14:51Z</time></trkpt><trkpt lat="48.18535036575935" lon="15.794001126438731"><ele>269.0</ele><time>2026-05-01T15:14:52Z</time></trkpt><trkpt lat="48.185335897086425" lon="15.794455467632329"><ele>269.0</ele><time>2026-05-01T15:14:53Z</time></trkpt><trkpt lat="48.18531837574245" lon="15.794906830546966"><ele>269.0</ele><time>2026-05-01T15:14:54Z</time></trkpt><trkpt lat="48.18529977775015" lon="15.795337982310647"><ele>269.0</ele><time>2026-05-01T15:14:55Z</time></trkpt><trkpt lat="48.185280117115674" lon="15.795782125788419"><ele>269.0</ele><time>2026-05-01T15:14:56Z</time></trkpt><trkpt lat="48.18525863164528" lon="15.796236781968002"><ele>268.5</ele><time>2026-05-01T15:14:57Z</time></trkpt><trkpt lat="48.1852369904268" lon="15.796698724780326"><ele>268.0</ele><time>2026-05-01T15:14:58Z</time></trkpt><trkpt lat="48.18521471983696" lon="15.79716393333663"><ele>269.0</ele><time>2026-05-01T15:14:59Z</time></trkpt><trkpt lat="48.185196650321224" lon="15.797629468661956"><ele>270.0</ele><time>2026-05-01T15:15:00Z</time></trkpt><trkpt lat="48.18518340725467" lon="15.7980977565323"><ele>269.5</ele><time>2026-05-01T15:15:01Z</time></trkpt><trkpt lat="48.185170358058215" lon="15.79856848021495"><ele>269.0</ele><time>2026-05-01T15:15:02Z</time></trkpt><trkpt lat="48.185153085042806" lon="15.799039364108825"><ele>268.5</ele><time>2026-05-01T15:15:03Z</time></trkpt><trkpt lat="48.1851324063037" lon="15.799510241706667"><ele>268.0</ele><time>2026-05-01T15:15:04Z</time></trkpt><trkpt lat="48.18511101661865" lon="15.799977419948842"><ele>267.0</ele><time>2026-05-01T15:15:05Z</time></trkpt><trkpt lat="48.18508767383868" lon="15.800444098821478"><ele>266.0</ele><time>2026-05-01T15:15:06Z</time></trkpt><trkpt lat="48.18506138370039" lon="15.800908296343787"><ele>265.5</ele><time>2026-05-01T15:15:07Z</time></trkpt><trkpt lat="48.1850349575344" lon="15.80137132381089"><ele>265.0</ele><time>2026-05-01T15:15:08Z</time></trkpt><trkpt lat="48.185010248673265" lon="15.801831694968742"><ele>264.5</ele><time>2026-05-01T15:15:09Z</time></trkpt><trkpt lat="48.18498910629289" lon="15.802289723512903"><ele>264.0</ele><time>2026-05-01T15:15:10Z</time></trkpt><trkpt lat="48.18496890699014" lon="15.80274924992165"><ele>264.0</ele><time>2026-05-01T15:15:11Z</time></trkpt><trkpt lat="48.1849502996525" lon="15.803209760167341"><ele>264.0</ele><time>2026-05-01T15:15:12Z</time></trkpt><trkpt lat="48.184931588324176" lon="15.803669143683505"><ele>264.0</ele><time>2026-05-01T15:15:13Z</time></trkpt><trkpt lat="48.18491174601237" lon="15.804126294194853"><ele>264.0</ele><time>2026-05-01T15:15:14Z</time></trkpt><trkpt lat="48.184890420331" lon="15.804581468101635"><ele>264.0</ele><time>2026-05-01T15:15:15Z</time></trkpt><trkpt lat="48.18486577759226" lon="15.805037108368765"><ele>264.0</ele><time>2026-05-01T15:15:16Z</time></trkpt><trkpt lat="48.184837840512714" lon="15.805494795663156"><ele>268.0</ele><time>2026-05-01T15:15:17Z</time></trkpt><trkpt lat="48.18480529975425" lon="15.805954193806352"><ele>272.0</ele><time>2026-05-01T15:15:18Z</time></trkpt><trkpt lat="48.184766965375196" lon="15.806413048065588"><ele>275.0</ele><time>2026-05-01T15:15:19Z</time></trkpt><trkpt lat="48.18472392098046" lon="15.806873003272337"><ele>278.0</ele><time>2026-05-01T15:15:20Z</time></trkpt><trkpt lat="48.18467550830361" lon="15.807333474402304"><ele>276.5</ele><time>2026-05-01T15:15:21Z</time></trkpt><trkpt lat="48.184618993961735" lon="15.807791934833856"><ele>275.0</ele><time>2026-05-01T15:15:22Z</time></trkpt><trkpt lat="48.184553730937395" lon="15.808246030129357"><ele>272.0</ele><time>2026-05-01T15:15:23Z</time></trkpt><trkpt lat="48.184480893407446" lon="15.80869619593057"><ele>269.0</ele><time>2026-05-01T15:15:24Z</time></trkpt><trkpt lat="48.184402303609005" lon="15.809146656455905"><ele>267.5</ele><time>2026-05-01T15:15:25Z</time></trkpt><trkpt lat="48.184314643060745" lon="15.809594906896798"><ele>266.0</ele><time>2026-05-01T15:15:26Z</time></trkpt><trkpt lat="48.18421341917781" lon="15.810036673463365"><ele>265.5</ele><time>2026-05-01T15:15:27Z</time></trkpt><trkpt lat="48.1841022467134" lon="15.810472319229238"><ele>265.0</ele><time>2026-05-01T15:15:28Z</time></trkpt><trkpt lat="48.183986432270956" lon="15.81090386460993"><ele>266.5</ele><time>2026-05-01T15:15:29Z</time></trkpt><trkpt lat="48.18386922932986" lon="15.811333477700868"><ele>268.0</ele><time>2026-05-01T15:15:30Z</time></trkpt><trkpt lat="48.1837502394086" lon="15.811757498761077"><ele>267.5</ele><time>2026-05-01T15:15:31Z</time></trkpt><trkpt lat="48.18362677577737" lon="15.812175765112281"><ele>267.0</ele><time>2026-05-01T15:15:32Z</time></trkpt><trkpt lat="48.183496512375015" lon="15.812583942634511"><ele>266.0</ele><time>2026-05-01T15:15:33Z</time></trkpt><trkpt lat="48.183358415245685" lon="15.812989031955947"><ele>265.0</ele><time>2026-05-01T15:15:34Z</time></trkpt><trkpt lat="48.183213795411596" lon="15.813391587177316"><ele>266.0</ele><time>2026-05-01T15:15:35Z</time></trkpt><trkpt lat="48.18306441318323" lon="15.813792540985553"><ele>267.0</ele><time>2026-05-01T15:15:36Z</time></trkpt><trkpt lat="48.18291145920598" lon="15.814192275103013"><ele>267.5</ele><time>2026-05-01T15:15:37Z</time></trkpt><trkpt lat="48.18275713261905" lon="15.814590823904767"><ele>268.0</ele><time>2026-05-01T15:15:38Z</time></trkpt><trkpt lat="48.182603394759994" lon="15.814987385328088"><ele>267.0</ele><time>2026-05-01T15:15:39Z</time></trkpt><trkpt lat="48.18244968052501" lon="15.8153799431414"><ele>266.0</ele><time>2026-05-01T15:15:40Z</time></trkpt><trkpt lat="48.1822964464136" lon="15.815770308929299"><ele>267.5</ele><time>2026-05-01T15:15:41Z</time></trkpt><trkpt lat="48.18214108056" lon="15.816156589641356"><ele>269.0</ele><time>2026-05-01T15:15:42Z</time></trkpt><trkpt lat="48.18198560749373" lon="15.816542962770853"><ele>268.5</ele><time>2026-05-01T15:15:43Z</time></trkpt><trkpt lat="48.18182957892765" lon="15.81692907108692"><ele>268.0</ele><time>2026-05-01T15:15:44Z</time></trkpt><trkpt lat="48.18167320309924" lon="15.817316492431548"><ele>267.5</ele><time>2026-05-01T15:15:45Z</time></trkpt><trkpt lat="48.18151654443498" lon="15.8177057956853"><ele>267.0</ele><time>2026-05-01T15:15:46Z</time></trkpt><trkpt lat="48.181360118261125" lon="15.818096828703283"><ele>268.0</ele><time>2026-05-01T15:15:47Z</time></trkpt><trkpt lat="48.181204421705004" lon="15.818488814450353"><ele>269.0</ele><time>2026-05-01T15:15:48Z</time></trkpt><trkpt lat="48.181049312377475" lon="15.818882130478721"><ele>269.0</ele><time>2026-05-01T15:15:49Z</time></trkpt><trkpt lat="48.18089262435089" lon="15.819273958733064"><ele>269.0</ele><time>2026-05-01T15:15:50Z</time></trkpt><trkpt lat="48.18073551328907" lon="15.819663395888128"><ele>273.0</ele><time>2026-05-01T15:15:51Z</time></trkpt><trkpt lat="48.180579051075505" lon="15.820051137733065"><ele>277.0</ele><time>2026-05-01T15:15:52Z</time></trkpt><trkpt lat="48.180423845105096" lon="15.820439692599557"><ele>277.5</ele><time>2026-05-01T15:15:53Z</time></trkpt><trkpt lat="48.180268115269996" lon="15.82082677942115"><ele>278.0</ele><time>2026-05-01T15:15:54Z</time></trkpt><trkpt lat="48.18011200409936" lon="15.82121446800163"><ele>278.5</ele><time>2026-05-01T15:15:55Z</time></trkpt><trkpt lat="48.17995667472221" lon="15.821604108095736"><ele>279.0</ele><time>2026-05-01T15:15:56Z</time></trkpt><trkpt lat="48.179800127374776" lon="15.821994534301533"><ele>283.5</ele><time>2026-05-01T15:15:57Z</time></trkpt><trkpt lat="48.17964426732952" lon="15.822386966890464"><ele>288.0</ele><time>2026-05-01T15:15:58Z</time></trkpt><trkpt lat="48.179489858506535" lon="15.822782449116321"><ele>288.0</ele><time>2026-05-01T15:15:59Z</time></trkpt><trkpt lat="48.179339378524524" lon="15.82318081126508"><ele>288.0</ele><time>2026-05-01T15:16:00Z</time></trkpt><trkpt lat="48.179197207809786" lon="15.823572434480509"><ele>287.0</ele><time>2026-05-01T15:16:01Z</time></trkpt><trkpt lat="48.17906493185008" lon="15.823960018684359"><ele>286.0</ele><time>2026-05-01T15:16:02Z</time></trkpt><trkpt lat="48.17893274938928" lon="15.824363965530061"><ele>289.0</ele><time>2026-05-01T15:16:03Z</time></trkpt><trkpt lat="48.17880583696026" lon="15.824776652189446"><ele>292.0</ele><time>2026-05-01T15:16:04Z</time></trkpt><trkpt lat="48.178685438859596" lon="15.825205581027712"><ele>292.0</ele><time>2026-05-01T15:16:05Z</time></trkpt><trkpt lat="48.17857235440031" lon="15.825641668033326"><ele>292.0</ele><time>2026-05-01T15:16:06Z</time></trkpt><trkpt lat="48.178460636835084" lon="15.826079467721895"><ele>290.0</ele><time>2026-05-01T15:16:07Z</time></trkpt><trkpt lat="48.17835101280322" lon="15.826515267594067"><ele>288.0</ele><time>2026-05-01T15:16:08Z</time></trkpt><trkpt lat="48.17824318194488" lon="15.826949214009854"><ele>288.5</ele><time>2026-05-01T15:16:09Z</time></trkpt><trkpt lat="48.17814083308334" lon="15.827376845006807"><ele>289.0</ele><time>2026-05-01T15:16:10Z</time></trkpt><trkpt lat="48.17804383062096" lon="15.82780505044122"><ele>289.0</ele><time>2026-05-01T15:16:11Z</time></trkpt><trkpt lat="48.17795192881438" lon="15.828235616706433"><ele>289.0</ele><time>2026-05-01T15:16:12Z</time></trkpt><trkpt lat="48.177866442787796" lon="15.828667713322902"><ele>289.5</ele><time>2026-05-01T15:16:13Z</time></trkpt><trkpt lat="48.177783722594675" lon="15.829099924999644"><ele>290.0</ele><time>2026-05-01T15:16:14Z</time></trkpt><trkpt lat="48.177700309579635" lon="15.829530395268682"><ele>290.5</ele><time>2026-05-01T15:16:15Z</time></trkpt><trkpt lat="48.177614943618345" lon="15.829960969086926"><ele>291.0</ele><time>2026-05-01T15:16:16Z</time></trkpt><trkpt lat="48.17753070608256" lon="15.830392589826129"><ele>292.0</ele><time>2026-05-01T15:16:17Z</time></trkpt><trkpt lat="48.177448045449054" lon="15.830823797971417"><ele>293.0</ele><time>2026-05-01T15:16:18Z</time></trkpt><trkpt lat="48.17736550374253" lon="15.831256513918166"><ele>299.0</ele><time>2026-05-01T15:16:19Z</time></trkpt><trkpt lat="48.177281252598284" lon="15.831690973777588"><ele>305.0</ele><time>2026-05-01T15:16:20Z</time></trkpt><trkpt lat="48.17719655911695" lon="15.832126482381323"><ele>305.0</ele><time>2026-05-01T15:16:21Z</time></trkpt><trkpt lat="48.177111565399805" lon="15.832563245946062"><ele>305.0</ele><time>2026-05-01T15:16:22Z</time></trkpt><trkpt lat="48.177026502129465" lon="15.833000674601765"><ele>307.0</ele><time>2026-05-01T15:16:23Z</time></trkpt><trkpt lat="48.17693909763103" lon="15.833437504703847"><ele>309.0</ele><time>2026-05-01T15:16:24Z</time></trkpt><trkpt lat="48.17684947165781" lon="15.8338743549268"><ele>311.0</ele><time>2026-05-01T15:16:25Z</time></trkpt><trkpt lat="48.17675406875348" lon="15.834310661276053"><ele>313.0</ele><time>2026-05-01T15:16:26Z</time></trkpt><trkpt lat="48.17665023564354" lon="15.834741690472756"><ele>314.0</ele><time>2026-05-01T15:16:27Z</time></trkpt><trkpt lat="48.17654222300853" lon="15.835169430122132"><ele>315.0</ele><time>2026-05-01T15:16:28Z</time></trkpt><trkpt lat="48.17643162453065" lon="15.835598124393258"><ele>316.0</ele><time>2026-05-01T15:16:29Z</time></trkpt><trkpt lat="48.176320224585425" lon="15.83602841555358"><ele>317.0</ele><time>2026-05-01T15:16:30Z</time></trkpt><trkpt lat="48.176210115241346" lon="15.836459485472341"><ele>316.0</ele><time>2026-05-01T15:16:31Z</time></trkpt><trkpt lat="48.176100489370405" lon="15.836891028162626"><ele>315.0</ele><time>2026-05-01T15:16:32Z</time></trkpt><trkpt lat="48.17599000009756" lon="15.837318551871633"><ele>315.0</ele><time>2026-05-01T15:16:33Z</time></trkpt><trkpt lat="48.17587685614446" lon="15.837742530665071"><ele>315.0</ele><time>2026-05-01T15:16:34Z</time></trkpt><trkpt lat="48.175760097469656" lon="15.838163999046996"><ele>313.0</ele><time>2026-05-01T15:16:35Z</time></trkpt><trkpt lat="48.17563858665026" lon="15.83857955959234"><ele>311.0</ele><time>2026-05-01T15:16:36Z</time></trkpt><trkpt lat="48.175514479492854" lon="15.83899603752284"><ele>310.0</ele><time>2026-05-01T15:16:37Z</time></trkpt><trkpt lat="48.17539105450018" lon="15.839412750893647"><ele>309.0</ele><time>2026-05-01T15:16:38Z</time></trkpt><trkpt lat="48.17526580499325" lon="15.839830896155272"><ele>307.5</ele><time>2026-05-01T15:16:39Z</time></trkpt><trkpt lat="48.17513939368452" lon="15.840249054850048"><ele>306.0</ele><time>2026-05-01T15:16:40Z</time></trkpt><trkpt lat="48.17501216730998" lon="15.84066978467565"><ele>305.5</ele><time>2026-05-01T15:16:41Z</time></trkpt><trkpt lat="48.17488238543878" lon="15.841089727070688"><ele>305.0</ele><time>2026-05-01T15:16:42Z</time></trkpt><trkpt lat="48.17475137289805" lon="15.841509852101398"><ele>300.5</ele><time>2026-05-01T15:16:43Z</time></trkpt><trkpt lat="48.174621041926414" lon="15.841932873899504"><ele>296.0</ele><time>2026-05-01T15:16:44Z</time></trkpt><trkpt lat="48.17449236478191" lon="15.842358067360435"><ele>296.0</ele><time>2026-05-01T15:16:45Z</time></trkpt><trkpt lat="48.174368636074696" lon="15.842787218198916"><ele>296.0</ele><time>2026-05-01T15:16:46Z</time></trkpt><trkpt lat="48.174252215582364" lon="15.84322030784359"><ele>295.5</ele><time>2026-05-01T15:16:47Z</time></trkpt><trkpt lat="48.17414308178966" lon="15.843659676966366"><ele>295.0</ele><time>2026-05-01T15:16:48Z</time></trkpt><trkpt lat="48.17404244792469" lon="15.844105267168375"><ele>296.5</ele><time>2026-05-01T15:16:49Z</time></trkpt><trkpt lat="48.17394891170251" lon="15.844554627859699"><ele>298.0</ele><time>2026-05-01T15:16:50Z</time></trkpt><trkpt lat="48.17386192139179" lon="15.84500823167773"><ele>297.0</ele><time>2026-05-01T15:16:51Z</time></trkpt><trkpt lat="48.17378066625277" lon="15.845462446613004"><ele>296.0</ele><time>2026-05-01T15:16:52Z</time></trkpt><trkpt lat="48.1737080692246" lon="15.845901213427945"><ele>294.5</ele><time>2026-05-01T15:16:53Z</time></trkpt><trkpt lat="48.17364280670992" lon="15.84634044191139"><ele>293.0</ele><time>2026-05-01T15:16:54Z</time></trkpt><trkpt lat="48.17358211604542" lon="15.846790693164404"><ele>293.0</ele><time>2026-05-01T15:16:55Z</time></trkpt><trkpt lat="48.1735263918869" lon="15.847243770997352"><ele>293.0</ele><time>2026-05-01T15:16:56Z</time></trkpt><trkpt lat="48.173472843439605" lon="15.847702373016812"><ele>294.5</ele><time>2026-05-01T15:16:57Z</time></trkpt><trkpt lat="48.17341579721594" lon="15.848158455789996"><ele>296.0</ele><time>2026-05-01T15:16:58Z</time></trkpt><trkpt lat="48.173355262987066" lon="15.848613287729867"><ele>296.0</ele><time>2026-05-01T15:16:59Z</time></trkpt><trkpt lat="48.17329194679708" lon="15.8490676645758"><ele>296.0</ele><time>2026-05-01T15:17:00Z</time></trkpt><trkpt lat="48.17323280172149" lon="15.849522954481126"><ele>306.5</ele><time>2026-05-01T15:17:01Z</time></trkpt><trkpt lat="48.17317656006538" lon="15.84997715194658"><ele>317.0</ele><time>2026-05-01T15:17:02Z</time></trkpt><trkpt lat="48.17311982146011" lon="15.850428890989084"><ele>317.5</ele><time>2026-05-01T15:17:03Z</time></trkpt><trkpt lat="48.17306355777649" lon="15.850879603191062"><ele>318.0</ele><time>2026-05-01T15:17:04Z</time></trkpt><trkpt lat="48.17300694424225" lon="15.851330546698879"><ele>320.0</ele><time>2026-05-01T15:17:05Z</time></trkpt><trkpt lat="48.172949975148896" lon="15.851779344303045"><ele>322.0</ele><time>2026-05-01T15:17:06Z</time></trkpt><trkpt lat="48.17289223825736" lon="15.85222488725355"><ele>323.0</ele><time>2026-05-01T15:17:07Z</time></trkpt><trkpt lat="48.17283406104178" lon="15.852668272463587"><ele>324.0</ele><time>2026-05-01T15:17:08Z</time></trkpt><trkpt lat="48.17277812742288" lon="15.853111210257852"><ele>323.5</ele><time>2026-05-01T15:17:09Z</time></trkpt><trkpt lat="48.172727089900754" lon="15.85355566368553"><ele>323.0</ele><time>2026-05-01T15:17:10Z</time></trkpt><trkpt lat="48.17268483924411" lon="15.854002161498872"><ele>323.0</ele><time>2026-05-01T15:17:11Z</time></trkpt><trkpt lat="48.17265399159233" lon="15.854452677851079"><ele>323.0</ele><time>2026-05-01T15:17:12Z</time></trkpt><trkpt lat="48.17263362167971" lon="15.854909789150325"><ele>323.0</ele><time>2026-05-01T15:17:13Z</time></trkpt><trkpt lat="48.17262507650781" lon="15.855369098757873"><ele>323.0</ele><time>2026-05-01T15:17:14Z</time></trkpt><trkpt lat="48.1726260768041" lon="15.85583086098826"><ele>325.0</ele><time>2026-05-01T15:17:15Z</time></trkpt><trkpt lat="48.17263759839149" lon="15.856292430456316"><ele>327.0</ele><time>2026-05-01T15:17:16Z</time></trkpt><trkpt lat="48.17265995519813" lon="15.856753701455737"><ele>330.0</ele><time>2026-05-01T15:17:17Z</time></trkpt><trkpt lat="48.172694382641346" lon="15.857211598405721"><ele>333.0</ele><time>2026-05-01T15:17:18Z</time></trkpt><trkpt lat="48.17273684812274" lon="15.857664922056433"><ele>336.5</ele><time>2026-05-01T15:17:19Z</time></trkpt><trkpt lat="48.17278964058039" lon="15.858111969597621"><ele>340.0</ele><time>2026-05-01T15:17:20Z</time></trkpt><trkpt lat="48.17285210374321" lon="15.858555335487889"><ele>342.0</ele><time>2026-05-01T15:17:21Z</time></trkpt><trkpt lat="48.172921781274674" lon="15.85899896924296"><ele>344.0</ele><time>2026-05-01T15:17:22Z</time></trkpt><trkpt lat="48.17299793089208" lon="15.85944411097675"><ele>345.5</ele><time>2026-05-01T15:17:23Z</time></trkpt><trkpt lat="48.173079677136144" lon="15.85988893212456"><ele>347.0</ele><time>2026-05-01T15:17:24Z</time></trkpt><trkpt lat="48.1731639205592" lon="15.860332312755283"><ele>339.0</ele><time>2026-05-01T15:17:25Z</time></trkpt><trkpt lat="48.173246403278235" lon="15.86077419119184"><ele>331.0</ele><time>2026-05-01T15:17:26Z</time></trkpt><trkpt lat="48.17332376740726" lon="15.861218103796887"><ele>331.0</ele><time>2026-05-01T15:17:27Z</time></trkpt><trkpt lat="48.1733965887798" lon="15.861661711398021"><ele>331.0</ele><time>2026-05-01T15:17:28Z</time></trkpt><trkpt lat="48.1734639675382" lon="15.862106509733914"><ele>331.0</ele><time>2026-05-01T15:17:29Z</time></trkpt><trkpt lat="48.173523883732656" lon="15.86255063902436"><ele>331.0</ele><time>2026-05-01T15:17:30Z</time></trkpt><trkpt lat="48.17357591216182" lon="15.862997208103529"><ele>331.0</ele><time>2026-05-01T15:17:31Z</time></trkpt><trkpt lat="48.17361826582256" lon="15.863443467991306"><ele>331.0</ele><time>2026-05-01T15:17:32Z</time></trkpt><trkpt lat="48.17365088927864" lon="15.863890449288588"><ele>330.5</ele><time>2026-05-01T15:17:33Z</time></trkpt><trkpt lat="48.17367636470505" lon="15.86433818350713"><ele>330.0</ele><time>2026-05-01T15:17:34Z</time></trkpt><trkpt lat="48.17369740793748" lon="15.864787751038152"><ele>330.0</ele><time>2026-05-01T15:17:35Z</time></trkpt><trkpt lat="48.17371688036148" lon="15.865239301300452"><ele>330.0</ele><time>2026-05-01T15:17:36Z</time></trkpt><trkpt lat="48.17373097606313" lon="15.865694685319037"><ele>330.0</ele><time>2026-05-01T15:17:37Z</time></trkpt><trkpt lat="48.17373751708043" lon="15.866152701462694"><ele>330.0</ele><time>2026-05-01T15:17:38Z</time></trkpt><trkpt lat="48.17373265196695" lon="15.866613107621475"><ele>329.0</ele><time>2026-05-01T15:17:39Z</time></trkpt><trkpt lat="48.1737155955786" lon="15.86707555590372"><ele>328.0</ele><time>2026-05-01T15:17:40Z</time></trkpt><trkpt lat="48.173686695805515" lon="15.867539403282597"><ele>328.0</ele><time>2026-05-01T15:17:41Z</time></trkpt><trkpt lat="48.17364454499659" lon="15.868005865527357"><ele>328.0</ele><time>2026-05-01T15:17:42Z</time></trkpt><trkpt lat="48.17359157196039" lon="15.868470621619755"><ele>328.0</ele><time>2026-05-01T15:17:43Z</time></trkpt><trkpt lat="48.17353246417458" lon="15.868933815928097"><ele>328.0</ele><time>2026-05-01T15:17:44Z</time></trkpt><trkpt lat="48.17346484632928" lon="15.869399365438651"><ele>328.0</ele><time>2026-05-01T15:17:45Z</time></trkpt><trkpt lat="48.17338714436045" lon="15.869864578379888"><ele>328.0</ele><time>2026-05-01T15:17:46Z</time></trkpt><trkpt lat="48.17329751278846" lon="15.870325099080498"><ele>329.5</ele><time>2026-05-01T15:17:47Z</time></trkpt><trkpt lat="48.173199006764776" lon="15.870782251487132"><ele>331.0</ele><time>2026-05-01T15:17:48Z</time></trkpt><trkpt lat="48.17309210507617" lon="15.871238362654106"><ele>331.0</ele><time>2026-05-01T15:17:49Z</time></trkpt><trkpt lat="48.17297975003332" lon="15.871689309999839"><ele>331.0</ele><time>2026-05-01T15:17:50Z</time></trkpt><trkpt lat="48.17286812196976" lon="15.872117665162019"><ele>329.0</ele><time>2026-05-01T15:17:51Z</time></trkpt><trkpt lat="48.172750685105115" lon="15.872546043817321"><ele>327.0</ele><time>2026-05-01T15:17:52Z</time></trkpt><trkpt lat="48.17263015493527" lon="15.872980514173964"><ele>324.0</ele><time>2026-05-01T15:17:53Z</time></trkpt><trkpt lat="48.17250824567413" lon="15.873418285571288"><ele>321.0</ele><time>2026-05-01T15:17:54Z</time></trkpt><trkpt lat="48.17238494919178" lon="15.873854116084658"><ele>323.0</ele><time>2026-05-01T15:17:55Z</time></trkpt><trkpt lat="48.172257414324925" lon="15.874290245778885"><ele>325.0</ele><time>2026-05-01T15:17:56Z</time></trkpt><trkpt lat="48.17212422713606" lon="15.874724709107559"><ele>322.0</ele><time>2026-05-01T15:17:57Z</time></trkpt><trkpt lat="48.171987478737634" lon="15.875157122775288"><ele>319.0</ele><time>2026-05-01T15:17:58Z</time></trkpt><trkpt lat="48.17184484004556" lon="15.875586073134272"><ele>316.5</ele><time>2026-05-01T15:17:59Z</time></trkpt><trkpt lat="48.17169705964643" lon="15.87601215707986"><ele>314.0</ele><time>2026-05-01T15:18:00Z</time></trkpt><trkpt lat="48.17154489423997" lon="15.876434888680622"><ele>312.5</ele><time>2026-05-01T15:18:01Z</time></trkpt><trkpt lat="48.171388793061716" lon="15.876854850177244"><ele>311.0</ele><time>2026-05-01T15:18:02Z</time></trkpt><trkpt lat="48.17123153185856" lon="15.87727455944618"><ele>307.0</ele><time>2026-05-01T15:18:03Z</time></trkpt><trkpt lat="48.17107217382202" lon="15.877690830173863"><ele>303.0</ele><time>2026-05-01T15:18:04Z</time></trkpt><trkpt lat="48.170914138285546" lon="15.878090734269577"><ele>303.0</ele><time>2026-05-01T15:18:05Z</time></trkpt><trkpt lat="48.17075480978731" lon="15.878482099724929"><ele>303.0</ele><time>2026-05-01T15:18:06Z</time></trkpt><trkpt lat="48.17058588718157" lon="15.878877301665986"><ele>300.0</ele><time>2026-05-01T15:18:07Z</time></trkpt><trkpt lat="48.17041039882709" lon="15.879268141378695"><ele>297.0</ele><time>2026-05-01T15:18:08Z</time></trkpt><trkpt lat="48.1702266421109" lon="15.879652273708656"><ele>297.0</ele><time>2026-05-01T15:18:09Z</time></trkpt><trkpt lat="48.17003293544769" lon="15.880026743250305"><ele>297.0</ele><time>2026-05-01T15:18:10Z</time></trkpt><trkpt lat="48.1698274488844" lon="15.880387156043252"><ele>297.5</ele><time>2026-05-01T15:18:11Z</time></trkpt><trkpt lat="48.169612467864496" lon="15.880733348703512"><ele>298.0</ele><time>2026-05-01T15:18:12Z</time></trkpt><trkpt lat="48.1693892626633" lon="15.881062928365534"><ele>295.0</ele><time>2026-05-01T15:18:13Z</time></trkpt><trkpt lat="48.16915760649128" lon="15.881377797461411"><ele>292.0</ele><time>2026-05-01T15:18:14Z</time></trkpt><trkpt lat="48.1689192510521" lon="15.881679585449318"><ele>289.5</ele><time>2026-05-01T15:18:15Z</time></trkpt><trkpt lat="48.16867550469901" lon="15.881965164436014"><ele>287.0</ele><time>2026-05-01T15:18:16Z</time></trkpt><trkpt lat="48.168426923747745" lon="15.882236603022154"><ele>284.0</ele><time>2026-05-01T15:18:17Z</time></trkpt><trkpt lat="48.16817519451226" lon="15.882495692352657"><ele>281.0</ele><time>2026-05-01T15:18:18Z</time></trkpt><trkpt lat="48.16791885084053" lon="15.882746256986126"><ele>280.0</ele><time>2026-05-01T15:18:19Z</time></trkpt><trkpt lat="48.167657094223266" lon="15.882989922622567"><ele>279.0</ele><time>2026-05-01T15:18:20Z</time></trkpt><trkpt lat="48.167389225969146" lon="15.883221258744465"><ele>275.5</ele><time>2026-05-01T15:18:21Z</time></trkpt><trkpt lat="48.16711576397035" lon="15.883439866174918"><ele>272.0</ele><time>2026-05-01T15:18:22Z</time></trkpt><trkpt lat="48.166839641626886" lon="15.88364614198415"><ele>272.0</ele><time>2026-05-01T15:18:23Z</time></trkpt><trkpt lat="48.166565610555395" lon="15.883841974238388"><ele>272.0</ele><time>2026-05-01T15:18:24Z</time></trkpt><trkpt lat="48.166290993186266" lon="15.884033453450801"><ele>270.0</ele><time>2026-05-01T15:18:25Z</time></trkpt><trkpt lat="48.16601591163368" lon="15.884229522929113"><ele>268.0</ele><time>2026-05-01T15:18:26Z</time></trkpt><trkpt lat="48.16574024039017" lon="15.88443074244917"><ele>268.5</ele><time>2026-05-01T15:18:27Z</time></trkpt><trkpt lat="48.165462546083226" lon="15.88463222717592"><ele>269.0</ele><time>2026-05-01T15:18:28Z</time></trkpt><trkpt lat="48.1651861369619" lon="15.884833742624881"><ele>269.0</ele><time>2026-05-01T15:18:29Z</time></trkpt><trkpt lat="48.16490977836642" lon="15.885035425998016"><ele>269.0</ele><time>2026-05-01T15:18:30Z</time></trkpt><trkpt lat="48.16463141421913" lon="15.885229822942888"><ele>269.0</ele><time>2026-05-01T15:18:31Z</time></trkpt><trkpt lat="48.16435152976024" lon="15.885419732072677"><ele>269.0</ele><time>2026-05-01T15:18:32Z</time></trkpt><trkpt lat="48.16406998590401" lon="15.885608848934133"><ele>271.0</ele><time>2026-05-01T15:18:33Z</time></trkpt><trkpt lat="48.163788530122254" lon="15.885800100563168"><ele>273.0</ele><time>2026-05-01T15:18:34Z</time></trkpt><trkpt lat="48.163508692440615" lon="15.885996742342154"><ele>273.0</ele><time>2026-05-01T15:18:35Z</time></trkpt><trkpt lat="48.163229934084825" lon="15.886198193531339"><ele>273.0</ele><time>2026-05-01T15:18:36Z</time></trkpt><trkpt lat="48.162952899691994" lon="15.886402911483549"><ele>272.5</ele><time>2026-05-01T15:18:37Z</time></trkpt><trkpt lat="48.162673940894194" lon="15.886608336044079"><ele>272.0</ele><time>2026-05-01T15:18:38Z</time></trkpt><trkpt lat="48.16239419317512" lon="15.886811998416583"><ele>273.5</ele><time>2026-05-01T15:18:39Z</time></trkpt><trkpt lat="48.16211482204493" lon="15.887015329126722"><ele>275.0</ele><time>2026-05-01T15:18:40Z</time></trkpt><trkpt lat="48.161835679099575" lon="15.88721630201136"><ele>275.0</ele><time>2026-05-01T15:18:41Z</time></trkpt><trkpt lat="48.16155834899393" lon="15.88741754663625"><ele>275.0</ele><time>2026-05-01T15:18:42Z</time></trkpt><trkpt lat="48.16128235363831" lon="15.887619199070375"><ele>271.0</ele><time>2026-05-01T15:18:43Z</time></trkpt><trkpt lat="48.161008044251325" lon="15.887819548863165"><ele>267.0</ele><time>2026-05-01T15:18:44Z</time></trkpt><trkpt lat="48.16073416767103" lon="15.88801905198016"><ele>268.5</ele><time>2026-05-01T15:18:45Z</time></trkpt><trkpt lat="48.16045983822175" lon="15.888218286375182"><ele>270.0</ele><time>2026-05-01T15:18:46Z</time></trkpt><trkpt lat="48.16018624326706" lon="15.888418682578518"><ele>268.0</ele><time>2026-05-01T15:18:47Z</time></trkpt><trkpt lat="48.159913681031426" lon="15.888619069555975"><ele>266.0</ele><time>2026-05-01T15:18:48Z</time></trkpt><trkpt lat="48.15964369543114" lon="15.88882118102871"><ele>271.0</ele><time>2026-05-01T15:18:49Z</time></trkpt><trkpt lat="48.159377941155284" lon="15.889029380555604"><ele>276.0</ele><time>2026-05-01T15:18:50Z</time></trkpt><trkpt lat="48.15911718358565" lon="15.889244119167339"><ele>279.5</ele><time>2026-05-01T15:18:51Z</time></trkpt><trkpt lat="48.15886165586585" lon="15.88946736273438"><ele>283.0</ele><time>2026-05-01T15:18:52Z</time></trkpt><trkpt lat="48.15861074058376" lon="15.889698675935287"><ele>283.0</ele><time>2026-05-01T15:18:53Z</time></trkpt><trkpt lat="48.158366002855644" lon="15.88994248984073"><ele>283.0</ele><time>2026-05-01T15:18:54Z</time></trkpt><trkpt lat="48.158126126277345" lon="15.890199803417666"><ele>280.5</ele><time>2026-05-01T15:18:55Z</time></trkpt><trkpt lat="48.15788978129119" lon="15.890466844321455"><ele>278.0</ele><time>2026-05-01T15:18:56Z</time></trkpt><trkpt lat="48.15765773129136" lon="15.890742538912656"><ele>277.5</ele><time>2026-05-01T15:18:57Z</time></trkpt><trkpt lat="48.15742880903343" lon="15.89102333001423"><ele>277.0</ele><time>2026-05-01T15:18:58Z</time></trkpt><trkpt lat="48.157203708354146" lon="15.891311589367113"><ele>277.0</ele><time>2026-05-01T15:18:59Z</time></trkpt><trkpt lat="48.15698627222161" lon="15.891610073222987"><ele>277.0</ele><time>2026-05-01T15:19:00Z</time></trkpt><trkpt lat="48.156774468131474" lon="15.891918759875942"><ele>278.5</ele><time>2026-05-01T15:19:01Z</time></trkpt><trkpt lat="48.15656721166171" lon="15.892241023241414"><ele>280.0</ele><time>2026-05-01T15:19:02Z</time></trkpt><trkpt lat="48.15636636048615" lon="15.892571393735215"><ele>285.5</ele><time>2026-05-01T15:19:03Z</time></trkpt><trkpt lat="48.15617141776518" lon="15.892909232418889"><ele>291.0</ele><time>2026-05-01T15:19:04Z</time></trkpt><trkpt lat="48.15598204135262" lon="15.89325392701394"><ele>286.5</ele><time>2026-05-01T15:19:05Z</time></trkpt><trkpt lat="48.15579837944006" lon="15.893603487165308"><ele>282.0</ele><time>2026-05-01T15:19:06Z</time></trkpt><trkpt lat="48.15562063401434" lon="15.893961167817704"><ele>288.0</ele><time>2026-05-01T15:19:07Z</time></trkpt><trkpt lat="48.15544942966767" lon="15.894325374041445"><ele>294.0</ele><time>2026-05-01T15:19:08Z</time></trkpt><trkpt lat="48.155287028461" lon="15.894696113860945"><ele>294.0</ele><time>2026-05-01T15:19:09Z</time></trkpt><trkpt lat="48.1551348867602" lon="15.895076472362883"><ele>294.0</ele><time>2026-05-01T15:19:10Z</time></trkpt><trkpt lat="48.15498854293312" lon="15.89546211716095"><ele>293.5</ele><time>2026-05-01T15:19:11Z</time></trkpt><trkpt lat="48.15484924168316" lon="15.895846599338059"><ele>293.0</ele><time>2026-05-01T15:19:12Z</time></trkpt><trkpt lat="48.15472136567559" lon="15.89622191187238"><ele>293.0</ele><time>2026-05-01T15:19:13Z</time></trkpt><trkpt lat="48.15459575548706" lon="15.896613997688311"><ele>293.0</ele><time>2026-05-01T15:19:14Z</time></trkpt><trkpt lat="48.15447630967169" lon="15.897014053429103"><ele>288.5</ele><time>2026-05-01T15:19:15Z</time></trkpt><trkpt lat="48.15436727362914" lon="15.89741817202813"><ele>284.0</ele><time>2026-05-01T15:19:16Z</time></trkpt><trkpt lat="48.154267647422635" lon="15.897831301114923"><ele>280.0</ele><time>2026-05-01T15:19:17Z</time></trkpt><trkpt lat="48.15417530614426" lon="15.898255080020853"><ele>276.0</ele><time>2026-05-01T15:19:18Z</time></trkpt><trkpt lat="48.15408985241846" lon="15.898685246882613"><ele>282.0</ele><time>2026-05-01T15:19:19Z</time></trkpt><trkpt lat="48.15401339379841" lon="15.899127652243466"><ele>288.0</ele><time>2026-05-01T15:19:20Z</time></trkpt><trkpt lat="48.15394470511718" lon="15.89957653668069"><ele>288.0</ele><time>2026-05-01T15:19:21Z</time></trkpt><trkpt lat="48.153880096126066" lon="15.900033024951298"><ele>288.0</ele><time>2026-05-01T15:19:22Z</time></trkpt><trkpt lat="48.153819309266076" lon="15.900487604164082"><ele>284.5</ele><time>2026-05-01T15:19:23Z</time></trkpt><trkpt lat="48.153766613295545" lon="15.90094464641408"><ele>281.0</ele><time>2026-05-01T15:19:24Z</time></trkpt><trkpt lat="48.1537225244356" lon="15.901402665014409"><ele>279.0</ele><time>2026-05-01T15:19:25Z</time></trkpt><trkpt lat="48.15368837921351" lon="15.901860515764644"><ele>277.0</ele><time>2026-05-01T15:19:26Z</time></trkpt><trkpt lat="48.15366305661018" lon="15.902319294030942"><ele>275.0</ele><time>2026-05-01T15:19:27Z</time></trkpt><trkpt lat="48.153645644653736" lon="15.902780102111718"><ele>273.0</ele><time>2026-05-01T15:19:28Z</time></trkpt><trkpt lat="48.15363982015539" lon="15.90324041863867"><ele>272.0</ele><time>2026-05-01T15:19:29Z</time></trkpt><trkpt lat="48.15364570312339" lon="15.903697843990381"><ele>271.0</ele><time>2026-05-01T15:19:30Z</time></trkpt><trkpt lat="48.153658023632836" lon="15.904156903445456"><ele>269.5</ele><time>2026-05-01T15:19:31Z</time></trkpt><trkpt lat="48.15367359726359" lon="15.904618103315093"><ele>268.0</ele><time>2026-05-01T15:19:32Z</time></trkpt><trkpt lat="48.15368933248601" lon="15.905077765688755"><ele>267.0</ele><time>2026-05-01T15:19:33Z</time></trkpt><trkpt lat="48.15370833836173" lon="15.905535767501425"><ele>266.0</ele><time>2026-05-01T15:19:34Z</time></trkpt><trkpt lat="48.153728547653095" lon="15.905989420913485"><ele>266.0</ele><time>2026-05-01T15:19:35Z</time></trkpt><trkpt lat="48.15374880791278" lon="15.9064416821498"><ele>266.0</ele><time>2026-05-01T15:19:36Z</time></trkpt><trkpt lat="48.1537689019917" lon="15.906895695292445"><ele>266.0</ele><time>2026-05-01T15:19:37Z</time></trkpt><trkpt lat="48.153789310692346" lon="15.907349059457822"><ele>266.0</ele><time>2026-05-01T15:19:38Z</time></trkpt><trkpt lat="48.1538094850294" lon="15.907798082444565"><ele>266.0</ele><time>2026-05-01T15:19:39Z</time></trkpt><trkpt lat="48.153827895310485" lon="15.908247639031709"><ele>266.0</ele><time>2026-05-01T15:19:40Z</time></trkpt><trkpt lat="48.15384459598139" lon="15.908697838674449"><ele>266.5</ele><time>2026-05-01T15:19:41Z</time></trkpt><trkpt lat="48.15386152116437" lon="15.909145784822112"><ele>267.0</ele><time>2026-05-01T15:19:42Z</time></trkpt><trkpt lat="48.15388036703077" lon="15.909593233505117"><ele>267.5</ele><time>2026-05-01T15:19:43Z</time></trkpt><trkpt lat="48.153900553840046" lon="15.910039662592306"><ele>268.0</ele><time>2026-05-01T15:19:44Z</time></trkpt><trkpt lat="48.15392171034018" lon="15.91048510484688"><ele>269.5</ele><time>2026-05-01T15:19:45Z</time></trkpt><trkpt lat="48.15394535144163" lon="15.910926222437086"><ele>271.0</ele><time>2026-05-01T15:19:46Z</time></trkpt><trkpt lat="48.15397151600674" lon="15.911370984100863"><ele>272.0</ele><time>2026-05-01T15:19:47Z</time></trkpt><trkpt lat="48.15400073116097" lon="15.91182001780961"><ele>273.0</ele><time>2026-05-01T15:19:48Z</time></trkpt><trkpt lat="48.15403438364804" lon="15.912271396947608"><ele>277.5</ele><time>2026-05-01T15:19:49Z</time></trkpt><trkpt lat="48.154071136306705" lon="15.912725655868945"><ele>282.0</ele><time>2026-05-01T15:19:50Z</time></trkpt><trkpt lat="48.154107146212965" lon="15.913184704254295"><ele>282.5</ele><time>2026-05-01T15:19:51Z</time></trkpt><trkpt lat="48.15414365300296" lon="15.913645282007979"><ele>283.0</ele><time>2026-05-01T15:19:52Z</time></trkpt><trkpt lat="48.154181511871585" lon="15.914105503682757"><ele>282.5</ele><time>2026-05-01T15:19:53Z</time></trkpt><trkpt lat="48.1542226028852" lon="15.914562958721815"><ele>282.0</ele><time>2026-05-01T15:19:54Z</time></trkpt><trkpt lat="48.15426496627991" lon="15.915019409648806"><ele>282.0</ele><time>2026-05-01T15:19:55Z</time></trkpt><trkpt lat="48.154307953353005" lon="15.91547697429913"><ele>282.0</ele><time>2026-05-01T15:19:56Z</time></trkpt><trkpt lat="48.15434978889769" lon="15.915931233686177"><ele>282.0</ele><time>2026-05-01T15:19:57Z</time></trkpt><trkpt lat="48.15439100472579" lon="15.916383898129181"><ele>282.0</ele><time>2026-05-01T15:19:58Z</time></trkpt><trkpt lat="48.15443049252448" lon="15.916838385423299"><ele>282.0</ele><time>2026-05-01T15:19:59Z</time></trkpt><trkpt lat="48.15446689829327" lon="15.917292509379179"><ele>282.0</ele><time>2026-05-01T15:20:00Z</time></trkpt><trkpt lat="48.154497483760025" lon="15.917748750043188"><ele>282.0</ele><time>2026-05-01T15:20:01Z</time></trkpt><trkpt lat="48.15452636167661" lon="15.918206210021607"><ele>282.0</ele><time>2026-05-01T15:20:02Z</time></trkpt><trkpt lat="48.15455518103402" lon="15.918662994666306"><ele>282.0</ele><time>2026-05-01T15:20:03Z</time></trkpt><trkpt lat="48.1545849928641" lon="15.919119669914354"><ele>282.0</ele><time>2026-05-01T15:20:04Z</time></trkpt><trkpt lat="48.15461520843735" lon="15.919575504133764"><ele>282.0</ele><time>2026-05-01T15:20:05Z</time></trkpt><trkpt lat="48.15464562633353" lon="15.920031115968483"><ele>282.0</ele><time>2026-05-01T15:20:06Z</time></trkpt><trkpt lat="48.15467382121503" lon="15.920489408397662"><ele>282.5</ele><time>2026-05-01T15:20:07Z</time></trkpt><trkpt lat="48.154702428017366" lon="15.920949496762796"><ele>283.0</ele><time>2026-05-01T15:20:08Z</time></trkpt><trkpt lat="48.15473065138181" lon="15.921409138446295"><ele>282.5</ele><time>2026-05-01T15:20:09Z</time></trkpt><trkpt lat="48.154756412983154" lon="15.921868730351806"><ele>282.0</ele><time>2026-05-01T15:20:10Z</time></trkpt><trkpt lat="48.15478143516447" lon="15.922327933532678"><ele>283.5</ele><time>2026-05-01T15:20:11Z</time></trkpt><trkpt lat="48.15480293217364" lon="15.922788448409595"><ele>285.0</ele><time>2026-05-01T15:20:12Z</time></trkpt><trkpt lat="48.154824237866606" lon="15.923250421901672"><ele>285.5</ele><time>2026-05-01T15:20:13Z</time></trkpt><trkpt lat="48.15484611899279" lon="15.923712721211372"><ele>286.0</ele><time>2026-05-01T15:20:14Z</time></trkpt><trkpt lat="48.15486855003448" lon="15.924174865147007"><ele>292.0</ele><time>2026-05-01T15:20:15Z</time></trkpt><trkpt lat="48.154892458645264" lon="15.924636672125095"><ele>298.0</ele><time>2026-05-01T15:20:16Z</time></trkpt><trkpt lat="48.15491821755383" lon="15.925097994138014"><ele>299.5</ele><time>2026-05-01T15:20:17Z</time></trkpt><trkpt lat="48.15494477913146" lon="15.925559572364575"><ele>301.0</ele><time>2026-05-01T15:20:18Z</time></trkpt><trkpt lat="48.154970542975164" lon="15.926020045278168"><ele>301.0</ele><time>2026-05-01T15:20:19Z</time></trkpt><trkpt lat="48.15499540442172" lon="15.926480664541755"><ele>301.0</ele><time>2026-05-01T15:20:20Z</time></trkpt><trkpt lat="48.15502140727704" lon="15.926939689009641"><ele>301.0</ele><time>2026-05-01T15:20:21Z</time></trkpt><trkpt lat="48.15504770295299" lon="15.92738851015424"><ele>301.0</ele><time>2026-05-01T15:20:22Z</time></trkpt><trkpt lat="48.15507438220295" lon="15.927814682001088"><ele>301.0</ele><time>2026-05-01T15:20:23Z</time></trkpt><trkpt lat="48.15510528005978" lon="15.928251951868493"><ele>301.0</ele><time>2026-05-01T15:20:24Z</time></trkpt><trkpt lat="48.15514182299476" lon="15.928696511797545"><ele>300.5</ele><time>2026-05-01T15:20:25Z</time></trkpt><trkpt lat="48.15518156361438" lon="15.929148415304299"><ele>300.0</ele><time>2026-05-01T15:20:26Z</time></trkpt><trkpt lat="48.15522281121126" lon="15.929606835442888"><ele>299.0</ele><time>2026-05-01T15:20:27Z</time></trkpt><trkpt lat="48.15526504004955" lon="15.93006493254424"><ele>298.0</ele><time>2026-05-01T15:20:28Z</time></trkpt><trkpt lat="48.155307048915375" lon="15.930520959218196"><ele>299.5</ele><time>2026-05-01T15:20:29Z</time></trkpt><trkpt lat="48.15534751483356" lon="15.930976404939894"><ele>301.0</ele><time>2026-05-01T15:20:30Z</time></trkpt><trkpt lat="48.1553899548608" lon="15.931432101049774"><ele>302.0</ele><time>2026-05-01T15:20:31Z</time></trkpt><trkpt lat="48.15543317266255" lon="15.931889148406421"><ele>303.0</ele><time>2026-05-01T15:20:32Z</time></trkpt><trkpt lat="48.15547937212659" lon="15.932345245336133"><ele>304.0</ele><time>2026-05-01T15:20:33Z</time></trkpt><trkpt lat="48.155528212226606" lon="15.932800217017913"><ele>305.0</ele><time>2026-05-01T15:20:34Z</time></trkpt><trkpt lat="48.15557907527444" lon="15.93325428738258"><ele>306.0</ele><time>2026-05-01T15:20:35Z</time></trkpt><trkpt lat="48.155632331881826" lon="15.933707550302078"><ele>307.0</ele><time>2026-05-01T15:20:36Z</time></trkpt><trkpt lat="48.15568818281309" lon="15.934159310031713"><ele>314.0</ele><time>2026-05-01T15:20:37Z</time></trkpt><trkpt lat="48.15574506449659" lon="15.93460970807031"><ele>321.0</ele><time>2026-05-01T15:20:38Z</time></trkpt><trkpt lat="48.15580107731193" lon="15.93505936362947"><ele>321.0</ele><time>2026-05-01T15:20:39Z</time></trkpt><trkpt lat="48.155858738891496" lon="15.93550649208166"><ele>321.0</ele><time>2026-05-01T15:20:40Z</time></trkpt><trkpt lat="48.155917443984436" lon="15.935951931602013"><ele>322.0</ele><time>2026-05-01T15:20:41Z</time></trkpt><trkpt lat="48.15597659505267" lon="15.936391746057206"><ele>323.0</ele><time>2026-05-01T15:20:42Z</time></trkpt><trkpt lat="48.15603309146968" lon="15.936800223546419"><ele>323.5</ele><time>2026-05-01T15:20:43Z</time></trkpt><trkpt lat="48.15608730215216" lon="15.937184731447084"><ele>324.0</ele><time>2026-05-01T15:20:44Z</time></trkpt><trkpt lat="48.156142230962224" lon="15.937564952323362"><ele>324.0</ele><time>2026-05-01T15:20:45Z</time></trkpt><trkpt lat="48.15619784013504" lon="15.93794139756067"><ele>324.0</ele><time>2026-05-01T15:20:46Z</time></trkpt><trkpt lat="48.15625303914922" lon="15.938310442843884"><ele>324.0</ele><time>2026-05-01T15:20:47Z</time></trkpt><trkpt lat="48.156309614643256" lon="15.938672099933783"><ele>324.0</ele><time>2026-05-01T15:20:48Z</time></trkpt><trkpt lat="48.15636613683467" lon="15.939025724914991"><ele>324.5</ele><time>2026-05-01T15:20:49Z</time></trkpt><trkpt lat="48.1564231134127" lon="15.93937729977001"><ele>325.0</ele><time>2026-05-01T15:20:50Z</time></trkpt><trkpt lat="48.15648064803397" lon="15.939726123479517"><ele>332.5</ele><time>2026-05-01T15:20:51Z</time></trkpt><trkpt lat="48.156537781413164" lon="15.940071291807401"><ele>340.0</ele><time>2026-05-01T15:20:52Z</time></trkpt><trkpt lat="48.15659802186647" lon="15.940412704034454"><ele>340.0</ele><time>2026-05-01T15:20:53Z</time></trkpt><trkpt lat="48.15665850350226" lon="15.940742614727723"><ele>340.0</ele><time>2026-05-01T15:20:54Z</time></trkpt><trkpt lat="48.15671715746573" lon="15.941071166918645"><ele>340.66666666666663</ele><time>2026-05-01T15:20:55Z</time></trkpt><trkpt lat="48.15677586684475" lon="15.94139633030685"><ele>341.3333333333333</ele><time>2026-05-01T15:20:56Z</time></trkpt><trkpt lat="48.15683554866806" lon="15.94171701383999"><ele>342.0</ele><time>2026-05-01T15:20:57Z</time></trkpt><trkpt lat="48.156894130409455" lon="15.942032681211753"><ele>342.3333333333333</ele><time>2026-05-01T15:20:58Z</time></trkpt><trkpt lat="48.1569520395301" lon="15.942344994103033"><ele>342.66666666666663</ele><time>2026-05-01T15:20:59Z</time></trkpt><trkpt lat="48.157008573015574" lon="15.942653051683884"><ele>343.0</ele><time>2026-05-01T15:21:00Z</time></trkpt><trkpt lat="48.15706704920637" lon="15.942956710525866"><ele>343.3333333333333</ele><time>2026-05-01T15:21:01Z</time></trkpt><trkpt lat="48.15712576779111" lon="15.943259745136428"><ele>343.6666666666667</ele><time>2026-05-01T15:21:02Z</time></trkpt><trkpt lat="48.157184725964285" lon="15.94356562929298"><ele>344.0</ele><time>2026-05-01T15:21:03Z</time></trkpt><trkpt lat="48.15724312753623" lon="15.943878005295566"><ele>344.0</ele><time>2026-05-01T15:21:04Z</time></trkpt><trkpt lat="48.15730464672305" lon="15.944199151447561"><ele>344.0</ele><time>2026-05-01T15:21:05Z</time></trkpt><trkpt lat="48.15736759743761" lon="15.94452333250513"><ele>344.0</ele><time>2026-05-01T15:21:06Z</time></trkpt><trkpt lat="48.157432755590655" lon="15.94484997337001"><ele>342.5</ele><time>2026-05-01T15:21:07Z</time></trkpt><trkpt lat="48.15749912874821" lon="15.945184268924043"><ele>341.0</ele><time>2026-05-01T15:21:08Z</time></trkpt><trkpt lat="48.157569271262695" lon="15.945521868217048"><ele>341.0</ele><time>2026-05-01T15:21:09Z</time></trkpt><trkpt lat="48.15763864730048" lon="15.945862393122002"><ele>341.0</ele><time>2026-05-01T15:21:10Z</time></trkpt><trkpt lat="48.15770577661569" lon="15.946205515282411"><ele>341.0</ele><time>2026-05-01T15:21:11Z</time></trkpt><trkpt lat="48.1577714994957" lon="15.946545898225047"><ele>341.0</ele><time>2026-05-01T15:21:12Z</time></trkpt><trkpt lat="48.15783466839547" lon="15.946885888627028"><ele>341.5</ele><time>2026-05-01T15:21:13Z</time></trkpt><trkpt lat="48.15789722166098" lon="15.947226468624923"><ele>342.0</ele><time>2026-05-01T15:21:14Z</time></trkpt><trkpt lat="48.15795742102438" lon="15.94757108037987"><ele>340.5</ele><time>2026-05-01T15:21:15Z</time></trkpt><trkpt lat="48.15801437314206" lon="15.947918431709898"><ele>339.0</ele><time>2026-05-01T15:21:16Z</time></trkpt><trkpt lat="48.158069521269574" lon="15.948269617663264"><ele>336.0</ele><time>2026-05-01T15:21:17Z</time></trkpt><trkpt lat="48.15811883388161" lon="15.94862276355302"><ele>333.0</ele><time>2026-05-01T15:21:18Z</time></trkpt><trkpt lat="48.15816457686991" lon="15.94897709213359"><ele>332.5</ele><time>2026-05-01T15:21:19Z</time></trkpt><trkpt lat="48.15820658013732" lon="15.949333802457012"><ele>332.0</ele><time>2026-05-01T15:21:20Z</time></trkpt><trkpt lat="48.15824521789818" lon="15.949688248926702"><ele>333.5</ele><time>2026-05-01T15:21:21Z</time></trkpt><trkpt lat="48.158280224753916" lon="15.950044613925167"><ele>335.0</ele><time>2026-05-01T15:21:22Z</time></trkpt><trkpt lat="48.15830844085079" lon="15.950401645433471"><ele>335.0</ele><time>2026-05-01T15:21:23Z</time></trkpt><trkpt lat="48.15833162121884" lon="15.950760190874115"><ele>335.0</ele><time>2026-05-01T15:21:24Z</time></trkpt><trkpt lat="48.15835151103711" lon="15.951117380997271"><ele>339.0</ele><time>2026-05-01T15:21:25Z</time></trkpt><trkpt lat="48.158364293663006" lon="15.951474370573072"><ele>343.0</ele><time>2026-05-01T15:21:26Z</time></trkpt><trkpt lat="48.158373343590874" lon="15.951829830559719"><ele>347.5</ele><time>2026-05-01T15:21:27Z</time></trkpt><trkpt lat="48.158379595162195" lon="15.952180976673041"><ele>352.0</ele><time>2026-05-01T15:21:28Z</time></trkpt><trkpt lat="48.1583809939402" lon="15.952517342464255"><ele>354.5</ele><time>2026-05-01T15:21:29Z</time></trkpt><trkpt lat="48.15837797470847" lon="15.952857609206898"><ele>357.0</ele><time>2026-05-01T15:21:30Z</time></trkpt><trkpt lat="48.158369585509526" lon="15.953201548684506"><ele>359.5</ele><time>2026-05-01T15:21:31Z</time></trkpt><trkpt lat="48.158353924454666" lon="15.95354858974772"><ele>362.0</ele><time>2026-05-01T15:21:32Z</time></trkpt><trkpt lat="48.15833405118297" lon="15.953896628535073"><ele>363.0</ele><time>2026-05-01T15:21:33Z</time></trkpt><trkpt lat="48.15830909384557" lon="15.954248651057062"><ele>364.0</ele><time>2026-05-01T15:21:34Z</time></trkpt><trkpt lat="48.15828335894796" lon="15.954601955423684"><ele>364.0</ele><time>2026-05-01T15:21:35Z</time></trkpt><trkpt lat="48.158251304193755" lon="15.954956952697069"><ele>364.0</ele><time>2026-05-01T15:21:36Z</time></trkpt><trkpt lat="48.15821444046436" lon="15.955312199428704"><ele>358.5</ele><time>2026-05-01T15:21:37Z</time></trkpt><trkpt lat="48.15817302802798" lon="15.95566671226082"><ele>353.0</ele><time>2026-05-01T15:21:38Z</time></trkpt><trkpt lat="48.158125854277934" lon="15.956019960787813"><ele>353.0</ele><time>2026-05-01T15:21:39Z</time></trkpt><trkpt lat="48.15807336927355" lon="15.956372521569346"><ele>353.0</ele><time>2026-05-01T15:21:40Z</time></trkpt><trkpt lat="48.15801736696818" lon="15.956723784568549"><ele>355.5</ele><time>2026-05-01T15:21:41Z</time></trkpt><trkpt lat="48.157956474115046" lon="15.95707180614079"><ele>358.0</ele><time>2026-05-01T15:21:42Z</time></trkpt><trkpt lat="48.157891330424455" lon="15.957417463199912"><ele>361.5</ele><time>2026-05-01T15:21:43Z</time></trkpt><trkpt lat="48.15782357742009" lon="15.957758961702792"><ele>365.0</ele><time>2026-05-01T15:21:44Z</time></trkpt><trkpt lat="48.157753069252536" lon="15.958096093100314"><ele>368.0</ele><time>2026-05-01T15:21:45Z</time></trkpt><trkpt lat="48.15767910376549" lon="15.958427863174665"><ele>371.0</ele><time>2026-05-01T15:21:46Z</time></trkpt><trkpt lat="48.15760257582487" lon="15.958750985315916"><ele>371.0</ele><time>2026-05-01T15:21:47Z</time></trkpt><trkpt lat="48.15752236134754" lon="15.9590654328902"><ele>371.0</ele><time>2026-05-01T15:21:48Z</time></trkpt><trkpt lat="48.157440771575864" lon="15.959364435041598"><ele>371.0</ele><time>2026-05-01T15:21:49Z</time></trkpt><trkpt lat="48.15736148873542" lon="15.959643489450261"><ele>371.0</ele><time>2026-05-01T15:21:50Z</time></trkpt><trkpt lat="48.15728144317456" lon="15.959908528845808"><ele>371.0</ele><time>2026-05-01T15:21:51Z</time></trkpt><trkpt lat="48.15720117468106" lon="15.960164932635703"><ele>371.0</ele><time>2026-05-01T15:21:52Z</time></trkpt><trkpt lat="48.15711888312652" lon="15.960418290421533"><ele>371.0</ele><time>2026-05-01T15:21:53Z</time></trkpt><trkpt lat="48.15703861026562" lon="15.960666654842349"><ele>371.0</ele><time>2026-05-01T15:21:54Z</time></trkpt><trkpt lat="48.1569546182138" lon="15.96091461174294"><ele>371.0</ele><time>2026-05-01T15:21:55Z</time></trkpt><trkpt lat="48.156868433721435" lon="15.961163987075594"><ele>373.33333333333337</ele><time>2026-05-01T15:21:56Z</time></trkpt><trkpt lat="48.15678236676259" lon="15.961413565987607"><ele>375.6666666666667</ele><time>2026-05-01T15:21:57Z</time></trkpt><trkpt lat="48.1566908320512" lon="15.961663205779118"><ele>378.0</ele><time>2026-05-01T15:21:58Z</time></trkpt><trkpt lat="48.15659795708485" lon="15.961911529533738"><ele>379.3333333333333</ele><time>2026-05-01T15:21:59Z</time></trkpt><trkpt lat="48.1565046579193" lon="15.96215954314588"><ele>380.66666666666663</ele><time>2026-05-01T15:22:00Z</time></trkpt><trkpt lat="48.156410542792436" lon="15.962405587229144"><ele>382.0</ele><time>2026-05-01T15:22:01Z</time></trkpt><trkpt lat="48.15631464221896" lon="15.962650861561766"><ele>382.0</ele><time>2026-05-01T15:22:02Z</time></trkpt><trkpt lat="48.156215759341094" lon="15.96289609450773"><ele>382.0</ele><time>2026-05-01T15:22:03Z</time></trkpt><trkpt lat="48.15611448921872" lon="15.963146002884558"><ele>382.0</ele><time>2026-05-01T15:22:04Z</time></trkpt><trkpt lat="48.15601022768051" lon="15.963401705840027"><ele>383.3333333333333</ele><time>2026-05-01T15:22:05Z</time></trkpt><trkpt lat="48.15590176970794" lon="15.963657852753563"><ele>384.66666666666663</ele><time>2026-05-01T15:22:06Z</time></trkpt><trkpt lat="48.15578977446654" lon="15.96391390320703"><ele>386.0</ele><time>2026-05-01T15:22:07Z</time></trkpt><trkpt lat="48.15567758258405" lon="15.964170374311573"><ele>390.66666666666663</ele><time>2026-05-01T15:22:08Z</time></trkpt><trkpt lat="48.15556385375768" lon="15.964434798170677"><ele>395.33333333333337</ele><time>2026-05-01T15:22:09Z</time></trkpt><trkpt lat="48.155447874796074" lon="15.964704697892017"><ele>400.0</ele><time>2026-05-01T15:22:10Z</time></trkpt><trkpt lat="48.15532811001551" lon="15.96498274409173"><ele>399.5</ele><time>2026-05-01T15:22:11Z</time></trkpt><trkpt lat="48.15520446695312" lon="15.965275519275743"><ele>399.0</ele><time>2026-05-01T15:22:12Z</time></trkpt><trkpt lat="48.1550787425156" lon="15.965568973663379"><ele>399.5</ele><time>2026-05-01T15:22:13Z</time></trkpt><trkpt lat="48.15493392506905" lon="15.965894956451551"><ele>400.0</ele><time>2026-05-01T15:22:14Z</time></trkpt><trkpt lat="48.154778513859135" lon="15.966212045285541"><ele>404.0</ele><time>2026-05-01T15:22:15Z</time></trkpt><trkpt lat="48.15461140713492" lon="15.966533358337387"><ele>408.0</ele><time>2026-05-01T15:22:16Z</time></trkpt><trkpt lat="48.154433421290676" lon="15.966854685258355"><ele>408.0</ele><time>2026-05-01T15:22:17Z</time></trkpt><trkpt lat="48.154251387720734" lon="15.967172372045349"><ele>408.0</ele><time>2026-05-01T15:22:18Z</time></trkpt><trkpt lat="48.154070182599334" lon="15.967489415725897"><ele>410.5</ele><time>2026-05-01T15:22:19Z</time></trkpt><trkpt lat="48.1538845081792" lon="15.967801158720194"><ele>413.0</ele><time>2026-05-01T15:22:20Z</time></trkpt><trkpt lat="48.15370986108713" lon="15.968101119927034"><ele>412.5</ele><time>2026-05-01T15:22:21Z</time></trkpt><trkpt lat="48.15353572191545" lon="15.968410810094694"><ele>412.0</ele><time>2026-05-01T15:22:22Z</time></trkpt><trkpt lat="48.15336179038048" lon="15.968720202718627"><ele>414.0</ele><time>2026-05-01T15:22:23Z</time></trkpt><trkpt lat="48.15319084923415" lon="15.96903093526347"><ele>416.0</ele><time>2026-05-01T15:22:24Z</time></trkpt><trkpt lat="48.153017742772896" lon="15.969342602792112"><ele>416.5</ele><time>2026-05-01T15:22:25Z</time></trkpt><trkpt lat="48.15284294172156" lon="15.969652799056567"><ele>417.0</ele><time>2026-05-01T15:22:26Z</time></trkpt><trkpt lat="48.1526712149373" lon="15.969966848423335"><ele>416.5</ele><time>2026-05-01T15:22:27Z</time></trkpt><trkpt lat="48.152504594254964" lon="15.97028159813572"><ele>416.0</ele><time>2026-05-01T15:22:28Z</time></trkpt><trkpt lat="48.15234230715045" lon="15.97060187366751"><ele>418.5</ele><time>2026-05-01T15:22:29Z</time></trkpt><trkpt lat="48.15218240235857" lon="15.970924128019039"><ele>421.0</ele><time>2026-05-01T15:22:30Z</time></trkpt><trkpt lat="48.152027667534945" lon="15.971249648028117"><ele>421.0</ele><time>2026-05-01T15:22:31Z</time></trkpt><trkpt lat="48.151877665961855" lon="15.97158212381641"><ele>421.0</ele><time>2026-05-01T15:22:32Z</time></trkpt><trkpt lat="48.15172904900473" lon="15.971916405000169"><ele>419.5</ele><time>2026-05-01T15:22:33Z</time></trkpt><trkpt lat="48.15158542599761" lon="15.972257857083015"><ele>418.0</ele><time>2026-05-01T15:22:34Z</time></trkpt><trkpt lat="48.151446617348796" lon="15.972603558553924"><ele>423.0</ele><time>2026-05-01T15:22:35Z</time></trkpt><trkpt lat="48.15131321614783" lon="15.972957018714634"><ele>428.0</ele><time>2026-05-01T15:22:36Z</time></trkpt><trkpt lat="48.15118345601017" lon="15.973315239356236"><ele>430.0</ele><time>2026-05-01T15:22:37Z</time></trkpt><trkpt lat="48.151054678000044" lon="15.973679983884065"><ele>432.0</ele><time>2026-05-01T15:22:38Z</time></trkpt><trkpt lat="48.15092891891269" lon="15.974053886598577"><ele>433.5</ele><time>2026-05-01T15:22:39Z</time></trkpt><trkpt lat="48.150803692633" lon="15.974432435080379"><ele>435.0</ele><time>2026-05-01T15:22:40Z</time></trkpt><trkpt lat="48.1506799758023" lon="15.974817150614337"><ele>443.5</ele><time>2026-05-01T15:22:41Z</time></trkpt><trkpt lat="48.150558517352195" lon="15.97520572561376"><ele>452.0</ele><time>2026-05-01T15:22:42Z</time></trkpt><trkpt lat="48.15043865098554" lon="15.975599155839449"><ele>449.5</ele><time>2026-05-01T15:22:43Z</time></trkpt><trkpt lat="48.150318038183286" lon="15.975995499974132"><ele>447.0</ele><time>2026-05-01T15:22:44Z</time></trkpt><trkpt lat="48.150197204932084" lon="15.9763925983256"><ele>446.0</ele><time>2026-05-01T15:22:45Z</time></trkpt><trkpt lat="48.15007622894462" lon="15.976791834527315"><ele>445.0</ele><time>2026-05-01T15:22:46Z</time></trkpt><trkpt lat="48.1499509243638" lon="15.97719005360366"><ele>450.0</ele><time>2026-05-01T15:22:47Z</time></trkpt><trkpt lat="48.149823007500515" lon="15.97758748597124"><ele>455.0</ele><time>2026-05-01T15:22:48Z</time></trkpt><trkpt lat="48.14969078793778" lon="15.977985357709777"><ele>454.0</ele><time>2026-05-01T15:22:49Z</time></trkpt><trkpt lat="48.14955183351849" lon="15.97838154353875"><ele>453.0</ele><time>2026-05-01T15:22:50Z</time></trkpt><trkpt lat="48.1494054554023" lon="15.978769217344798"><ele>453.0</ele><time>2026-05-01T15:22:51Z</time></trkpt><trkpt lat="48.14925917574849" lon="15.979138377010951"><ele>453.0</ele><time>2026-05-01T15:22:52Z</time></trkpt><trkpt lat="48.14910754817486" lon="15.979498617896747"><ele>455.0</ele><time>2026-05-01T15:22:53Z</time></trkpt><trkpt lat="48.14894759667504" lon="15.97986759912618"><ele>457.0</ele><time>2026-05-01T15:22:54Z</time></trkpt><trkpt lat="48.148784167648444" lon="15.980230855801995"><ele>457.5</ele><time>2026-05-01T15:22:55Z</time></trkpt><trkpt lat="48.14860911560267" lon="15.980590277806417"><ele>458.0</ele><time>2026-05-01T15:22:56Z</time></trkpt><trkpt lat="48.14842336170849" lon="15.980937423957243"><ele>458.0</ele><time>2026-05-01T15:22:57Z</time></trkpt><trkpt lat="48.14822574027348" lon="15.981267492600873"><ele>458.0</ele><time>2026-05-01T15:22:58Z</time></trkpt><trkpt lat="48.148015073260105" lon="15.981579644099897"><ele>461.0</ele><time>2026-05-01T15:22:59Z</time></trkpt><trkpt lat="48.14779447284439" lon="15.981868302847603"><ele>464.0</ele><time>2026-05-01T15:23:00Z</time></trkpt><trkpt lat="48.14756707151031" lon="15.98213885186612"><ele>468.5</ele><time>2026-05-01T15:23:01Z</time></trkpt><trkpt lat="48.147332397442476" lon="15.982390990579416"><ele>473.0</ele><time>2026-05-01T15:23:02Z</time></trkpt><trkpt lat="48.14708464197367" lon="15.982617528873389"><ele>473.5</ele><time>2026-05-01T15:23:03Z</time></trkpt><trkpt lat="48.146825772255525" lon="15.982811336362397"><ele>474.0</ele><time>2026-05-01T15:23:04Z</time></trkpt><trkpt lat="48.14655456087617" lon="15.982983324188105"><ele>477.0</ele><time>2026-05-01T15:23:05Z</time></trkpt><trkpt lat="48.14627636465567" lon="15.983140231059506"><ele>480.0</ele><time>2026-05-01T15:23:06Z</time></trkpt><trkpt lat="48.14599426441328" lon="15.983284109886585"><ele>486.5</ele><time>2026-05-01T15:23:07Z</time></trkpt><trkpt lat="48.14571094982881" lon="15.983412352723592"><ele>493.0</ele><time>2026-05-01T15:23:08Z</time></trkpt><trkpt lat="48.145425035764134" lon="15.98351998144247"><ele>493.0</ele><time>2026-05-01T15:23:09Z</time></trkpt><trkpt lat="48.145136055010475" lon="15.983600835733126"><ele>493.0</ele><time>2026-05-01T15:23:10Z</time></trkpt><trkpt lat="48.14484306216038" lon="15.983651686029265"><ele>495.5</ele><time>2026-05-01T15:23:11Z</time></trkpt><trkpt lat="48.14454865899264" lon="15.983675194631749"><ele>498.0</ele><time>2026-05-01T15:23:12Z</time></trkpt><trkpt lat="48.14425521330904" lon="15.98367107741473"><ele>504.5</ele><time>2026-05-01T15:23:13Z</time></trkpt><trkpt lat="48.143963160068964" lon="15.983642609611907"><ele>511.0</ele><time>2026-05-01T15:23:14Z</time></trkpt><trkpt lat="48.143671509301264" lon="15.983592809998441"><ele>511.0</ele><time>2026-05-01T15:23:15Z</time></trkpt><trkpt lat="48.143381083720875" lon="15.983522067926097"><ele>511.0</ele><time>2026-05-01T15:23:16Z</time></trkpt><trkpt lat="48.14309588586553" lon="15.983427422711111"><ele>508.5</ele><time>2026-05-01T15:23:17Z</time></trkpt><trkpt lat="48.14281660562745" lon="15.983305800056664"><ele>506.0</ele><time>2026-05-01T15:23:18Z</time></trkpt><trkpt lat="48.14254437261197" lon="15.983159449718514"><ele>512.0</ele><time>2026-05-01T15:23:19Z</time></trkpt><trkpt lat="48.142274113544815" lon="15.982993295401219"><ele>518.0</ele><time>2026-05-01T15:23:20Z</time></trkpt><trkpt lat="48.14200515376585" lon="15.98281011987621"><ele>518.0</ele><time>2026-05-01T15:23:21Z</time></trkpt><trkpt lat="48.14174201070586" lon="15.98260867570029"><ele>518.0</ele><time>2026-05-01T15:23:22Z</time></trkpt><trkpt lat="48.141490313411616" lon="15.982380343613816"><ele>518.0</ele><time>2026-05-01T15:23:23Z</time></trkpt><trkpt lat="48.14124654959037" lon="15.982127978254525"><ele>518.0</ele><time>2026-05-01T15:23:24Z</time></trkpt><trkpt lat="48.141009339897316" lon="15.981859907771373"><ele>521.0</ele><time>2026-05-01T15:23:25Z</time></trkpt><trkpt lat="48.14077325425001" lon="15.981585884255605"><ele>524.0</ele><time>2026-05-01T15:23:26Z</time></trkpt><trkpt lat="48.14054661245269" lon="15.981294452997709"><ele>524.0</ele><time>2026-05-01T15:23:27Z</time></trkpt><trkpt lat="48.14032571017377" lon="15.980993093084212"><ele>524.0</ele><time>2026-05-01T15:23:28Z</time></trkpt><trkpt lat="48.140104388236146" lon="15.98068379388173"><ele>520.5</ele><time>2026-05-01T15:23:29Z</time></trkpt><trkpt lat="48.13988440134395" lon="15.980367706303134"><ele>517.0</ele><time>2026-05-01T15:23:30Z</time></trkpt><trkpt lat="48.13966380660721" lon="15.980047521947121"><ele>525.0</ele><time>2026-05-01T15:23:31Z</time></trkpt><trkpt lat="48.13944295240374" lon="15.979729127734622"><ele>533.0</ele><time>2026-05-01T15:23:32Z</time></trkpt><trkpt lat="48.139223025300005" lon="15.979411975396863"><ele>539.5</ele><time>2026-05-01T15:23:33Z</time></trkpt><trkpt lat="48.13900617913071" lon="15.97909059814222"><ele>546.0</ele><time>2026-05-01T15:23:34Z</time></trkpt><trkpt lat="48.13878975657251" lon="15.978769896752237"><ele>546.0</ele><time>2026-05-01T15:23:35Z</time></trkpt><trkpt lat="48.13857300801079" lon="15.978452286181428"><ele>546.0</ele><time>2026-05-01T15:23:36Z</time></trkpt><trkpt lat="48.13835422756422" lon="15.978136673659257"><ele>545.5</ele><time>2026-05-01T15:23:37Z</time></trkpt><trkpt lat="48.13813554994902" lon="15.977822223226607"><ele>545.0</ele><time>2026-05-01T15:23:38Z</time></trkpt><trkpt lat="48.13791707947163" lon="15.97751291920961"><ele>545.0</ele><time>2026-05-01T15:23:39Z</time></trkpt><trkpt lat="48.13770788691675" lon="15.977223545359465"><ele>545.0</ele><time>2026-05-01T15:23:40Z</time></trkpt><trkpt lat="48.13750090346227" lon="15.97694467873955"><ele>547.5</ele><time>2026-05-01T15:23:41Z</time></trkpt><trkpt lat="48.13728614963031" lon="15.976659847504598"><ele>550.0</ele><time>2026-05-01T15:23:42Z</time></trkpt><trkpt lat="48.13706519517504" lon="15.97637803374475"><ele>550.0</ele><time>2026-05-01T15:23:43Z</time></trkpt><trkpt lat="48.13684057083299" lon="15.976098584222475"><ele>550.0</ele><time>2026-05-01T15:23:44Z</time></trkpt><trkpt lat="48.136610430792366" lon="15.97582686748799"><ele>553.5</ele><time>2026-05-01T15:23:45Z</time></trkpt><trkpt lat="48.13637468088136" lon="15.97556083632372"><ele>557.0</ele><time>2026-05-01T15:23:46Z</time></trkpt><trkpt lat="48.13613352380645" lon="15.975299096979283"><ele>557.0</ele><time>2026-05-01T15:23:47Z</time></trkpt><trkpt lat="48.13589067351888" lon="15.97504289639996"><ele>557.0</ele><time>2026-05-01T15:23:48Z</time></trkpt><trkpt lat="48.13564396667697" lon="15.974789730326355"><ele>558.5</ele><time>2026-05-01T15:23:49Z</time></trkpt><trkpt lat="48.13539170925128" lon="15.974543558507968"><ele>560.0</ele><time>2026-05-01T15:23:50Z</time></trkpt><trkpt lat="48.13513472407845" lon="15.974304641753502"><ele>557.5</ele><time>2026-05-01T15:23:51Z</time></trkpt><trkpt lat="48.13487419000368" lon="15.974072221316604"><ele>555.0</ele><time>2026-05-01T15:23:52Z</time></trkpt><trkpt lat="48.13461109568853" lon="15.973843761571711"><ele>555.0</ele><time>2026-05-01T15:23:53Z</time></trkpt><trkpt lat="48.134343549091895" lon="15.973622573219979"><ele>555.0</ele><time>2026-05-01T15:23:54Z</time></trkpt><trkpt lat="48.134072147337136" lon="15.973409788839978"><ele>554.0</ele><time>2026-05-01T15:23:55Z</time></trkpt><trkpt lat="48.13379599390926" lon="15.973204054231106"><ele>553.0</ele><time>2026-05-01T15:23:56Z</time></trkpt><trkpt lat="48.133516889907746" lon="15.973007557023791"><ele>553.0</ele><time>2026-05-01T15:23:57Z</time></trkpt><trkpt lat="48.13323269843723" lon="15.97282415426094"><ele>553.0</ele><time>2026-05-01T15:23:58Z</time></trkpt><trkpt lat="48.132946307161035" lon="15.97265170330298"><ele>553.5</ele><time>2026-05-01T15:23:59Z</time></trkpt><trkpt lat="48.132661772804866" lon="15.972490053114129"><ele>554.0</ele><time>2026-05-01T15:24:00Z</time></trkpt><trkpt lat="48.132375343922654" lon="15.972339900467892"><ele>557.0</ele><time>2026-05-01T15:24:01Z</time></trkpt><trkpt lat="48.13208696273821" lon="15.972200112173049"><ele>560.0</ele><time>2026-05-01T15:24:02Z</time></trkpt><trkpt lat="48.131795368635" lon="15.972067332778973"><ele>560.5</ele><time>2026-05-01T15:24:03Z</time></trkpt><trkpt lat="48.13150371057611" lon="15.971929411007922"><ele>561.0</ele><time>2026-05-01T15:24:04Z</time></trkpt><trkpt lat="48.131210312657416" lon="15.971793379918239"><ele>560.5</ele><time>2026-05-01T15:24:05Z</time></trkpt><trkpt lat="48.130915586850456" lon="15.971661203710601"><ele>560.0</ele><time>2026-05-01T15:24:06Z</time></trkpt><trkpt lat="48.13061835489185" lon="15.97153827081186"><ele>560.0</ele><time>2026-05-01T15:24:07Z</time></trkpt><trkpt lat="48.13031970291306" lon="15.97143008599798"><ele>560.0</ele><time>2026-05-01T15:24:08Z</time></trkpt><trkpt lat="48.130018334416576" lon="15.971332833068233"><ele>557.0</ele><time>2026-05-01T15:24:09Z</time></trkpt><trkpt lat="48.129715348104696" lon="15.971243006624148"><ele>554.0</ele><time>2026-05-01T15:24:10Z</time></trkpt><trkpt lat="48.12941166697164" lon="15.971155306594778"><ele>554.0</ele><time>2026-05-01T15:24:11Z</time></trkpt><trkpt lat="48.1291071657643" lon="15.971073637194165"><ele>554.0</ele><time>2026-05-01T15:24:12Z</time></trkpt><trkpt lat="48.1288010815099" lon="15.971000741760038"><ele>552.5</ele><time>2026-05-01T15:24:13Z</time></trkpt><trkpt lat="48.12849253958018" lon="15.970936546460344"><ele>551.0</ele><time>2026-05-01T15:24:14Z</time></trkpt><trkpt lat="48.12818355854742" lon="15.970880881283682"><ele>551.0</ele><time>2026-05-01T15:24:15Z</time></trkpt><trkpt lat="48.127874036332436" lon="15.970832711238504"><ele>551.0</ele><time>2026-05-01T15:24:16Z</time></trkpt><trkpt lat="48.12756351329937" lon="15.970788632811955"><ele>549.0</ele><time>2026-05-01T15:24:17Z</time></trkpt><trkpt lat="48.12725287502482" lon="15.970741941425821"><ele>547.0</ele><time>2026-05-01T15:24:18Z</time></trkpt><trkpt lat="48.126941905601456" lon="15.970694334784444"><ele>547.0</ele><time>2026-05-01T15:24:19Z</time></trkpt><trkpt lat="48.126630094445936" lon="15.970651003427864"><ele>547.0</ele><time>2026-05-01T15:24:20Z</time></trkpt><trkpt lat="48.126318385908625" lon="15.97061351397731"><ele>547.5</ele><time>2026-05-01T15:24:21Z</time></trkpt><trkpt lat="48.126008173574824" lon="15.970580523087495"><ele>548.0</ele><time>2026-05-01T15:24:22Z</time></trkpt><trkpt lat="48.12570185792252" lon="15.970549757949234"><ele>548.0</ele><time>2026-05-01T15:24:23Z</time></trkpt><trkpt lat="48.12540314638103" lon="15.970524427273496"><ele>548.0</ele><time>2026-05-01T15:24:24Z</time></trkpt><trkpt lat="48.12511312256204" lon="15.970500910385624"><ele>546.0</ele><time>2026-05-01T15:24:25Z</time></trkpt><trkpt lat="48.124817142309595" lon="15.970481372832202"><ele>544.0</ele><time>2026-05-01T15:24:26Z</time></trkpt><trkpt lat="48.12451698782598" lon="15.970466468658788"><ele>544.0</ele><time>2026-05-01T15:24:27Z</time></trkpt><trkpt lat="48.124212072598915" lon="15.970456113220054"><ele>544.0</ele><time>2026-05-01T15:24:28Z</time></trkpt><trkpt lat="48.12390791943616" lon="15.970449231167011"><ele>541.0</ele><time>2026-05-01T15:24:29Z</time></trkpt><trkpt lat="48.12360377643352" lon="15.970447241228554"><ele>538.0</ele><time>2026-05-01T15:24:30Z</time></trkpt><trkpt lat="48.12329874851678" lon="15.97044827128153"><ele>533.0</ele><time>2026-05-01T15:24:31Z</time></trkpt><trkpt lat="48.12299376254344" lon="15.970454873232732"><ele>528.0</ele><time>2026-05-01T15:24:32Z</time></trkpt><trkpt lat="48.12268735048205" lon="15.97046496652938"><ele>527.0</ele><time>2026-05-01T15:24:33Z</time></trkpt><trkpt lat="48.12237993891984" lon="15.970480478495837"><ele>526.0</ele><time>2026-05-01T15:24:34Z</time></trkpt><trkpt lat="48.12207333347635" lon="15.97049912204065"><ele>526.0</ele><time>2026-05-01T15:24:35Z</time></trkpt><trkpt lat="48.12176636895722" lon="15.970520967123603"><ele>526.0</ele><time>2026-05-01T15:24:36Z</time></trkpt><trkpt lat="48.12145920204352" lon="15.970546005658411"><ele>523.5</ele><time>2026-05-01T15:24:37Z</time></trkpt><trkpt lat="48.12115395185778" lon="15.970572766431998"><ele>521.0</ele><time>2026-05-01T15:24:38Z</time></trkpt><trkpt lat="48.12085042067881" lon="15.970603942858462"><ele>516.5</ele><time>2026-05-01T15:24:39Z</time></trkpt><trkpt lat="48.12054799878771" lon="15.970638561772557"><ele>512.0</ele><time>2026-05-01T15:24:40Z</time></trkpt><trkpt lat="48.12024787120057" lon="15.970677572476854"><ele>512.0</ele><time>2026-05-01T15:24:41Z</time></trkpt><trkpt lat="48.11994992535464" lon="15.970723712411061"><ele>512.0</ele><time>2026-05-01T15:24:42.001Z</time></trkpt><trkpt lat="48.119656025494535" lon="15.970783025078031"><ele>511.0</ele><time>2026-05-01T15:24:43.001Z</time></trkpt><trkpt lat="48.11936107556029" lon="15.970852252570058"><ele>510.0</ele><time>2026-05-01T15:24:44.001Z</time></trkpt><trkpt lat="48.11906275145011" lon="15.970929904289896"><ele>508.5</ele><time>2026-05-01T15:24:45.001Z</time></trkpt><trkpt lat="48.11876208314126" lon="15.971009655159174"><ele>507.0</ele><time>2026-05-01T15:24:46.001Z</time></trkpt><trkpt lat="48.11846068043735" lon="15.971096991174996"><ele>507.0</ele><time>2026-05-01T15:24:47.001Z</time></trkpt><trkpt lat="48.11816229023764" lon="15.971193117810381"><ele>507.0</ele><time>2026-05-01T15:24:48.001Z</time></trkpt><trkpt lat="48.117863582085086" lon="15.97129970209691"><ele>507.0</ele><time>2026-05-01T15:24:49.001Z</time></trkpt><trkpt lat="48.1175618312423" lon="15.971412170451975"><ele>507.0</ele><time>2026-05-01T15:24:50.001Z</time></trkpt><trkpt lat="48.117259456240575" lon="15.971526257947131"><ele>507.5</ele><time>2026-05-01T15:24:51.001Z</time></trkpt><trkpt lat="48.11695494652688" lon="15.971644012299473"><ele>508.0</ele><time>2026-05-01T15:24:52.001Z</time></trkpt><trkpt lat="48.116651334422116" lon="15.971773097373521"><ele>506.5</ele><time>2026-05-01T15:24:53.001Z</time></trkpt><trkpt lat="48.116352900758535" lon="15.971920096716884"><ele>505.0</ele><time>2026-05-01T15:24:54.001Z</time></trkpt><trkpt lat="48.116057237804604" lon="15.972083788427307"><ele>505.0</ele><time>2026-05-01T15:24:55.001Z</time></trkpt><trkpt lat="48.115764462923096" lon="15.972262601752815"><ele>505.0</ele><time>2026-05-01T15:24:56.001Z</time></trkpt><trkpt lat="48.115475400509325" lon="15.972449953158891"><ele>501.0</ele><time>2026-05-01T15:24:57.001Z</time></trkpt><trkpt lat="48.115188263562814" lon="15.972648934193716"><ele>497.0</ele><time>2026-05-01T15:24:58.001Z</time></trkpt><trkpt lat="48.11490906132161" lon="15.972853506970607"><ele>493.5</ele><time>2026-05-01T15:24:59.001Z</time></trkpt><trkpt lat="48.11463570756193" lon="15.973062380611754"><ele>490.0</ele><time>2026-05-01T15:25:00.001Z</time></trkpt><trkpt lat="48.11436671974137" lon="15.973276220147453"><ele>488.5</ele><time>2026-05-01T15:25:01.001Z</time></trkpt><trkpt lat="48.114098628193084" lon="15.973498853439148"><ele>487.0</ele><time>2026-05-01T15:25:02.001Z</time></trkpt><trkpt lat="48.113831943818965" lon="15.973727518759095"><ele>487.0</ele><time>2026-05-01T15:25:03.001Z</time></trkpt><trkpt lat="48.113568417045705" lon="15.973961256356251"><ele>487.0</ele><time>2026-05-01T15:25:04.001Z</time></trkpt><trkpt lat="48.11330966690252" lon="15.974207199703326"><ele>483.0</ele><time>2026-05-01T15:25:05.001Z</time></trkpt><trkpt lat="48.1130561886655" lon="15.974463315075711"><ele>479.0</ele><time>2026-05-01T15:25:06.001Z</time></trkpt><trkpt lat="48.11280653176557" lon="15.974721548818975"><ele>479.0</ele><time>2026-05-01T15:25:07.001Z</time></trkpt><trkpt lat="48.112558866738134" lon="15.974979056809492"><ele>479.0</ele><time>2026-05-01T15:25:08.001Z</time></trkpt><trkpt lat="48.11231031259928" lon="15.975233596687078"><ele>476.5</ele><time>2026-05-01T15:25:09.001Z</time></trkpt><trkpt lat="48.11205986301512" lon="15.975486640573775"><ele>474.0</ele><time>2026-05-01T15:25:10.001Z</time></trkpt><trkpt lat="48.11181053469999" lon="15.975738487065078"><ele>475.5</ele><time>2026-05-01T15:25:11.001Z</time></trkpt><trkpt lat="48.111562652388436" lon="15.975991767399458"><ele>477.0</ele><time>2026-05-01T15:25:12.001Z</time></trkpt><trkpt lat="48.111314007276576" lon="15.976243896371518"><ele>477.0</ele><time>2026-05-01T15:25:13.001Z</time></trkpt><trkpt lat="48.11106449962774" lon="15.976495768537246"><ele>477.0</ele><time>2026-05-01T15:25:14.001Z</time></trkpt><trkpt lat="48.11081509938868" lon="15.976745908114946"><ele>474.0</ele><time>2026-05-01T15:25:15.001Z</time></trkpt><trkpt lat="48.11056771363199" lon="15.976995033331443"><ele>471.0</ele><time>2026-05-01T15:25:16.001Z</time></trkpt><trkpt lat="48.11032209484139" lon="15.977242657720012"><ele>471.0</ele><time>2026-05-01T15:25:17.001Z</time></trkpt><trkpt lat="48.110075825617386" lon="15.977487086830996"><ele>471.0</ele><time>2026-05-01T15:25:18.001Z</time></trkpt><trkpt lat="48.10982907161172" lon="15.977729965143844"><ele>468.0</ele><time>2026-05-01T15:25:19.001Z</time></trkpt><trkpt lat="48.10958414732786" lon="15.977974252233333"><ele>465.0</ele><time>2026-05-01T15:25:20.001Z</time></trkpt><trkpt lat="48.109338619745834" lon="15.978221404910474"><ele>464.5</ele><time>2026-05-01T15:25:21.001Z</time></trkpt><trkpt lat="48.10909233565933" lon="15.978465332028842"><ele>464.0</ele><time>2026-05-01T15:25:22.001Z</time></trkpt><trkpt lat="48.10884311268499" lon="15.978702316301767"><ele>464.0</ele><time>2026-05-01T15:25:23.001Z</time></trkpt><trkpt lat="48.108598436896976" lon="15.978923230100534"><ele>464.0</ele><time>2026-05-01T15:25:24.001Z</time></trkpt><trkpt lat="48.10834745657786" lon="15.979135165525703"><ele>467.5</ele><time>2026-05-01T15:25:25.001Z</time></trkpt><trkpt lat="48.10808527001044" lon="15.979346511041255"><ele>471.0</ele><time>2026-05-01T15:25:26.001Z</time></trkpt><trkpt lat="48.10781508947282" lon="15.979543793387382"><ele>471.0</ele><time>2026-05-01T15:25:27.001Z</time></trkpt><trkpt lat="48.10753847289984" lon="15.979725184644687"><ele>471.0</ele><time>2026-05-01T15:25:28.001Z</time></trkpt><trkpt lat="48.107254590718746" lon="15.979887514505513"><ele>474.5</ele><time>2026-05-01T15:25:29.001Z</time></trkpt><trkpt lat="48.10696564912887" lon="15.980029648558286"><ele>478.0</ele><time>2026-05-01T15:25:30.001Z</time></trkpt><trkpt lat="48.106674303157625" lon="15.980149625673112"><ele>475.5</ele><time>2026-05-01T15:25:31.001Z</time></trkpt><trkpt lat="48.10637947684278" lon="15.980242034202007"><ele>473.0</ele><time>2026-05-01T15:25:32.001Z</time></trkpt><trkpt lat="48.106084604889716" lon="15.980306828359554"><ele>473.0</ele><time>2026-05-01T15:25:33.001Z</time></trkpt><trkpt lat="48.10578904323148" lon="15.980348292169039"><ele>473.0</ele><time>2026-05-01T15:25:34.001Z</time></trkpt><trkpt lat="48.10548768967078" lon="15.980379024625297"><ele>467.5</ele><time>2026-05-01T15:25:35.001Z</time></trkpt><trkpt lat="48.10518301675406" lon="15.980394894454749"><ele>462.0</ele><time>2026-05-01T15:25:36.001Z</time></trkpt><trkpt lat="48.1048765041405" lon="15.980392207454477"><ele>458.5</ele><time>2026-05-01T15:25:37.001Z</time></trkpt><trkpt lat="48.104570007863856" lon="15.980370100426674"><ele>455.0</ele><time>2026-05-01T15:25:38.001Z</time></trkpt><trkpt lat="48.1042601353966" lon="15.980334380453783"><ele>454.0</ele><time>2026-05-01T15:25:39.001Z</time></trkpt><trkpt lat="48.103951683020725" lon="15.980291829556347"><ele>453.0</ele><time>2026-05-01T15:25:40.001Z</time></trkpt><trkpt lat="48.103645545380495" lon="15.980242161496173"><ele>453.0</ele><time>2026-05-01T15:25:41.001Z</time></trkpt><trkpt lat="48.103340671366816" lon="15.980185293255495"><ele>453.0</ele><time>2026-05-01T15:25:42.001Z</time></trkpt><trkpt lat="48.10303723000876" lon="15.98012363100608"><ele>456.0</ele><time>2026-05-01T15:25:43.001Z</time></trkpt><trkpt lat="48.10273260429905" lon="15.980064468780784"><ele>459.0</ele><time>2026-05-01T15:25:44.001Z</time></trkpt><trkpt lat="48.10242848114168" lon="15.980021653098856"><ele>460.0</ele><time>2026-05-01T15:25:45.001Z</time></trkpt><trkpt lat="48.10212548162159" lon="15.980010759863552"><ele>461.0</ele><time>2026-05-01T15:25:46.001Z</time></trkpt><trkpt lat="48.101822380480044" lon="15.980031442009604"><ele>465.5</ele><time>2026-05-01T15:25:47.001Z</time></trkpt><trkpt lat="48.101517852969685" lon="15.98007714968213"><ele>470.0</ele><time>2026-05-01T15:25:48.001Z</time></trkpt><trkpt lat="48.10121358820335" lon="15.980146246960157"><ele>470.0</ele><time>2026-05-01T15:25:49.001Z</time></trkpt><trkpt lat="48.10091183094858" lon="15.980243072739192"><ele>470.0</ele><time>2026-05-01T15:25:50.001Z</time></trkpt><trkpt lat="48.100613330425105" lon="15.980367058800905"><ele>466.0</ele><time>2026-05-01T15:25:51.001Z</time></trkpt><trkpt lat="48.100319443227676" lon="15.980514582216585"><ele>462.0</ele><time>2026-05-01T15:25:52.001Z</time></trkpt><trkpt lat="48.10003045717283" lon="15.980686702998925"><ele>464.0</ele><time>2026-05-01T15:25:53.001Z</time></trkpt><trkpt lat="48.099748044849505" lon="15.980881635900962"><ele>466.0</ele><time>2026-05-01T15:25:54.001Z</time></trkpt><trkpt lat="48.09947217123739" lon="15.981102314313778"><ele>466.0</ele><time>2026-05-01T15:25:55.001Z</time></trkpt><trkpt lat="48.099205002091836" lon="15.98134659352708"><ele>466.0</ele><time>2026-05-01T15:25:56.001Z</time></trkpt><trkpt lat="48.09894650430088" lon="15.981613549482836"><ele>463.0</ele><time>2026-05-01T15:25:57.001Z</time></trkpt><trkpt lat="48.09870098392702" lon="15.981903317144084"><ele>460.0</ele><time>2026-05-01T15:25:58.001Z</time></trkpt><trkpt lat="48.098467430787494" lon="15.982216705520813"><ele>455.0</ele><time>2026-05-01T15:25:59.001Z</time></trkpt><trkpt lat="48.098245122093225" lon="15.982547921631674"><ele>450.0</ele><time>2026-05-01T15:26:00.001Z</time></trkpt><trkpt lat="48.0980342148921" lon="15.982896657897545"><ele>450.0</ele><time>2026-05-01T15:26:01.001Z</time></trkpt><trkpt lat="48.09783618043895" lon="15.983262335124365"><ele>450.0</ele><time>2026-05-01T15:26:02.001Z</time></trkpt><trkpt lat="48.09765360370915" lon="15.983641368125165"><ele>450.5</ele><time>2026-05-01T15:26:03.001Z</time></trkpt><trkpt lat="48.09748954939357" lon="15.98403085022827"><ele>451.0</ele><time>2026-05-01T15:26:04.001Z</time></trkpt><trkpt lat="48.09734232855457" lon="15.98442449523903"><ele>445.5</ele><time>2026-05-01T15:26:05.001Z</time></trkpt><trkpt lat="48.097211647180444" lon="15.984826821500839"><ele>440.0</ele><time>2026-05-01T15:26:06.001Z</time></trkpt><trkpt lat="48.09709806338525" lon="15.985236548438523"><ele>440.0</ele><time>2026-05-01T15:26:07.001Z</time></trkpt><trkpt lat="48.09699785566837" lon="15.985657520154932"><ele>440.0</ele><time>2026-05-01T15:26:08.001Z</time></trkpt><trkpt lat="48.096909693075844" lon="15.986083042655013"><ele>440.5</ele><time>2026-05-01T15:26:09.001Z</time></trkpt><trkpt lat="48.096831782458494" lon="15.98651024140048"><ele>441.0</ele><time>2026-05-01T15:26:10.001Z</time></trkpt><trkpt lat="48.09676257263704" lon="15.986940494591536"><ele>441.0</ele><time>2026-05-01T15:26:11.001Z</time></trkpt><trkpt lat="48.09669690890429" lon="15.987369938914139"><ele>441.0</ele><time>2026-05-01T15:26:12.001Z</time></trkpt><trkpt lat="48.096634341497946" lon="15.987800611516525"><ele>431.0</ele><time>2026-05-01T15:26:13.001Z</time></trkpt><trkpt lat="48.096570353110906" lon="15.988228531641644"><ele>421.0</ele><time>2026-05-01T15:26:14.001Z</time></trkpt><trkpt lat="48.09650309267451" lon="15.98866261546321"><ele>421.0</ele><time>2026-05-01T15:26:15.001Z</time></trkpt><trkpt lat="48.096433248460194" lon="15.989087049303729"><ele>421.0</ele><time>2026-05-01T15:26:16.001Z</time></trkpt><trkpt lat="48.09635769660008" lon="15.989494072056914"><ele>423.0</ele><time>2026-05-01T15:26:17.001Z</time></trkpt><trkpt lat="48.0962637180384" lon="15.98990488927198"><ele>425.0</ele><time>2026-05-01T15:26:18.001Z</time></trkpt><trkpt lat="48.09615592684403" lon="15.990315488140729"><ele>427.0</ele><time>2026-05-01T15:26:19.001Z</time></trkpt><trkpt lat="48.096031735597656" lon="15.990720385555042"><ele>429.0</ele><time>2026-05-01T15:26:20.001Z</time></trkpt><trkpt lat="48.09589186600381" lon="15.991112333539425"><ele>423.5</ele><time>2026-05-01T15:26:21.001Z</time></trkpt><trkpt lat="48.09574140758696" lon="15.991491861665741"><ele>418.0</ele><time>2026-05-01T15:26:22.001Z</time></trkpt><trkpt lat="48.095578596969006" lon="15.991855602782243"><ele>418.0</ele><time>2026-05-01T15:26:23.001Z</time></trkpt><trkpt lat="48.09540540298644" lon="15.992208768193482"><ele>418.0</ele><time>2026-05-01T15:26:24.001Z</time></trkpt><trkpt lat="48.0952232618027" lon="15.992552141722104"><ele>414.0</ele><time>2026-05-01T15:26:25.001Z</time></trkpt><trkpt lat="48.09503640808188" lon="15.992896575016228"><ele>410.0</ele><time>2026-05-01T15:26:26.001Z</time></trkpt><trkpt lat="48.09484927789063" lon="15.993248452564313"><ele>414.0</ele><time>2026-05-01T15:26:27.001Z</time></trkpt><trkpt lat="48.094657548046015" lon="15.993609692075028"><ele>418.0</ele><time>2026-05-01T15:26:28.001Z</time></trkpt><trkpt lat="48.094457224418676" lon="15.993969436781603"><ele>414.0</ele><time>2026-05-01T15:26:29.001Z</time></trkpt><trkpt lat="48.09425095003386" lon="15.994328412591479"><ele>410.0</ele><time>2026-05-01T15:26:30.001Z</time></trkpt><trkpt lat="48.09404173009761" lon="15.994683641736607"><ele>414.5</ele><time>2026-05-01T15:26:31.001Z</time></trkpt><trkpt lat="48.09383466193251" lon="15.9950369509248"><ele>419.0</ele><time>2026-05-01T15:26:32.001Z</time></trkpt><trkpt lat="48.09362971401393" lon="15.995384421766005"><ele>419.0</ele><time>2026-05-01T15:26:33.001Z</time></trkpt><trkpt lat="48.093424215794926" lon="15.995731018416686"><ele>419.0</ele><time>2026-05-01T15:26:34.001Z</time></trkpt><trkpt lat="48.09322063915761" lon="15.996076704464212"><ele>418.5</ele><time>2026-05-01T15:26:35.001Z</time></trkpt><trkpt lat="48.09301817144175" lon="15.996423134222113"><ele>418.0</ele><time>2026-05-01T15:26:36.001Z</time></trkpt><trkpt lat="48.09281812914312" lon="15.996766695045618"><ele>418.0</ele><time>2026-05-01T15:26:37.001Z</time></trkpt><trkpt lat="48.09261797482772" lon="15.9971087684937"><ele>418.0</ele><time>2026-05-01T15:26:38.001Z</time></trkpt><trkpt lat="48.092416970811534" lon="15.997450421993225"><ele>413.0</ele><time>2026-05-01T15:26:39.001Z</time></trkpt><trkpt lat="48.09221159226155" lon="15.997785654404398"><ele>408.0</ele><time>2026-05-01T15:26:40.001Z</time></trkpt><trkpt lat="48.092003627212755" lon="15.998116005784032"><ele>412.5</ele><time>2026-05-01T15:26:41.001Z</time></trkpt><trkpt lat="48.09179821706806" lon="15.998448623668844"><ele>417.0</ele><time>2026-05-01T15:26:42.001Z</time></trkpt><trkpt lat="48.09159974242768" lon="15.99879123473457"><ele>411.5</ele><time>2026-05-01T15:26:43.001Z</time></trkpt><trkpt lat="48.0914108491677" lon="15.999143748273399"><ele>406.0</ele><time>2026-05-01T15:26:44.001Z</time></trkpt><trkpt lat="48.091226625347474" lon="15.999504425918367"><ele>406.0</ele><time>2026-05-01T15:26:45.001Z</time></trkpt><trkpt lat="48.09104734741404" lon="15.999871830654431"><ele>406.0</ele><time>2026-05-01T15:26:46.001Z</time></trkpt><trkpt lat="48.09087098325126" lon="16.000244731412586"><ele>400.0</ele><time>2026-05-01T15:26:47.001Z</time></trkpt><trkpt lat="48.09069931533932" lon="16.000622460795103"><ele>394.0</ele><time>2026-05-01T15:26:48.001Z</time></trkpt><trkpt lat="48.09053079354944" lon="16.001004848284612"><ele>394.0</ele><time>2026-05-01T15:26:49.001Z</time></trkpt><trkpt lat="48.09036473990456" lon="16.001390738786935"><ele>394.0</ele><time>2026-05-01T15:26:50.001Z</time></trkpt><trkpt lat="48.09020136636928" lon="16.001780044142503"><ele>394.5</ele><time>2026-05-01T15:26:51.001Z</time></trkpt><trkpt lat="48.090042812424215" lon="16.0021742004424"><ele>395.0</ele><time>2026-05-01T15:26:52.001Z</time></trkpt><trkpt lat="48.08989104736872" lon="16.0025761197665"><ele>390.5</ele><time>2026-05-01T15:26:53.001Z</time></trkpt><trkpt lat="48.08974327680359" lon="16.00298446685263"><ele>386.0</ele><time>2026-05-01T15:26:54.001Z</time></trkpt><trkpt lat="48.089600850572815" lon="16.003399491609915"><ele>386.0</ele><time>2026-05-01T15:26:55.001Z</time></trkpt><trkpt lat="48.08946547926339" lon="16.003822325599657"><ele>386.0</ele><time>2026-05-01T15:26:56.001Z</time></trkpt><trkpt lat="48.0893373225474" lon="16.004247220415767"><ele>385.0</ele><time>2026-05-01T15:26:57.001Z</time></trkpt><trkpt lat="48.08921213139389" lon="16.004676026561707"><ele>384.0</ele><time>2026-05-01T15:26:58.001Z</time></trkpt><trkpt lat="48.08908746969319" lon="16.005106859744682"><ele>384.0</ele><time>2026-05-01T15:26:59.001Z</time></trkpt><trkpt lat="48.08896677174782" lon="16.00553923551547"><ele>384.0</ele><time>2026-05-01T15:27:00.001Z</time></trkpt><trkpt lat="48.08884823504865" lon="16.005973637364807"><ele>384.0</ele><time>2026-05-01T15:27:01.001Z</time></trkpt><trkpt lat="48.08873410777448" lon="16.006411891185884"><ele>384.0</ele><time>2026-05-01T15:27:02.001Z</time></trkpt><trkpt lat="48.08862431403442" lon="16.00685302712694"><ele>384.0</ele><time>2026-05-01T15:27:03.001Z</time></trkpt><trkpt lat="48.0885167501866" lon="16.007295671027205"><ele>384.0</ele><time>2026-05-01T15:27:04.001Z</time></trkpt><trkpt lat="48.08840863434963" lon="16.007738117759192"><ele>384.0</ele><time>2026-05-01T15:27:05.001Z</time></trkpt><trkpt lat="48.088300402775" lon="16.008178760828546"><ele>384.0</ele><time>2026-05-01T15:27:06.001Z</time></trkpt><trkpt lat="48.08819437313787" lon="16.008608075937286"><ele>382.5</ele><time>2026-05-01T15:27:07.001Z</time></trkpt><trkpt lat="48.08808883800542" lon="16.009028449453854"><ele>381.0</ele><time>2026-05-01T15:27:08.001Z</time></trkpt><trkpt lat="48.08797959944837" lon="16.009460110335958"><ele>380.5</ele><time>2026-05-01T15:27:09.001Z</time></trkpt><trkpt lat="48.087871595059895" lon="16.00989707874052"><ele>380.0</ele><time>2026-05-01T15:27:10.001Z</time></trkpt><trkpt lat="48.087768281456846" lon="16.010326442037798"><ele>379.5</ele><time>2026-05-01T15:27:11.001Z</time></trkpt><trkpt lat="48.087665546498826" lon="16.01075017436265"><ele>379.0</ele><time>2026-05-01T15:27:12.001Z</time></trkpt><trkpt lat="48.0875640615542" lon="16.011172021920853"><ele>379.0</ele><time>2026-05-01T15:27:13.001Z</time></trkpt><trkpt lat="48.08746929836728" lon="16.011597373298304"><ele>379.0</ele><time>2026-05-01T15:27:14.001Z</time></trkpt><trkpt lat="48.08737770817241" lon="16.01202798742786"><ele>386.5</ele><time>2026-05-01T15:27:15.001Z</time></trkpt><trkpt lat="48.08729418704551" lon="16.012464183014853"><ele>394.0</ele><time>2026-05-01T15:27:16.001Z</time></trkpt><trkpt lat="48.087219297661335" lon="16.01290305454103"><ele>395.5</ele><time>2026-05-01T15:27:17.001Z</time></trkpt><trkpt lat="48.087148940155565" lon="16.0133466371518"><ele>397.0</ele><time>2026-05-01T15:27:18.001Z</time></trkpt><trkpt lat="48.08708237598192" lon="16.013792919655973"><ele>394.0</ele><time>2026-05-01T15:27:19.001Z</time></trkpt><trkpt lat="48.08701731522311" lon="16.014241048679658"><ele>391.0</ele><time>2026-05-01T15:27:20.001Z</time></trkpt><trkpt lat="48.08695685081368" lon="16.014690658689872"><ele>388.0</ele><time>2026-05-01T15:27:21.001Z</time></trkpt><trkpt lat="48.08690249283295" lon="16.01514157286879"><ele>385.0</ele><time>2026-05-01T15:27:22.001Z</time></trkpt><trkpt lat="48.08685825975326" lon="16.01559421543797"><ele>381.5</ele><time>2026-05-01T15:27:23.001Z</time></trkpt><trkpt lat="48.086818582175994" lon="16.01604907163198"><ele>378.0</ele><time>2026-05-01T15:27:24.001Z</time></trkpt><trkpt lat="48.08678422286792" lon="16.016507536078006"><ele>376.5</ele><time>2026-05-01T15:27:25.001Z</time></trkpt><trkpt lat="48.08675195414715" lon="16.01696884161764"><ele>375.0</ele><time>2026-05-01T15:27:26.001Z</time></trkpt><trkpt lat="48.0867157194191" lon="16.017433950262415"><ele>375.5</ele><time>2026-05-01T15:27:27.001Z</time></trkpt><trkpt lat="48.08667708025277" lon="16.017897946775193"><ele>376.0</ele><time>2026-05-01T15:27:28.001Z</time></trkpt><trkpt lat="48.08663608728113" lon="16.018360483008525"><ele>375.0</ele><time>2026-05-01T15:27:29.001Z</time></trkpt><trkpt lat="48.086590494300324" lon="16.018818875559354"><ele>374.0</ele><time>2026-05-01T15:27:30.001Z</time></trkpt><trkpt lat="48.08653862928368" lon="16.019276174321305"><ele>373.0</ele><time>2026-05-01T15:27:31.001Z</time></trkpt><trkpt lat="48.08648226114474" lon="16.019731646876043"><ele>372.0</ele><time>2026-05-01T15:27:32.001Z</time></trkpt><trkpt lat="48.08641639203857" lon="16.020183053981157"><ele>370.5</ele><time>2026-05-01T15:27:33.001Z</time></trkpt><trkpt lat="48.086338820737645" lon="16.020630241477985"><ele>369.0</ele><time>2026-05-01T15:27:34.001Z</time></trkpt><trkpt lat="48.086251349522406" lon="16.021073197060044"><ele>369.0</ele><time>2026-05-01T15:27:35.001Z</time></trkpt><trkpt lat="48.086154909364" lon="16.02151381457938"><ele>369.0</ele><time>2026-05-01T15:27:36.001Z</time></trkpt><trkpt lat="48.08605513870546" lon="16.021953463253016"><ele>369.0</ele><time>2026-05-01T15:27:37.001Z</time></trkpt><trkpt lat="48.08595525394852" lon="16.02239282796844"><ele>369.0</ele><time>2026-05-01T15:27:38.001Z</time></trkpt><trkpt lat="48.08585581617766" lon="16.02283138487889"><ele>369.0</ele><time>2026-05-01T15:27:39.001Z</time></trkpt><trkpt lat="48.08575599058116" lon="16.023271216883195"><ele>369.0</ele><time>2026-05-01T15:27:40.001Z</time></trkpt><trkpt lat="48.085655777496626" lon="16.023711268531486"><ele>368.5</ele><time>2026-05-01T15:27:41.001Z</time></trkpt><trkpt lat="48.085556849900925" lon="16.024151483253526"><ele>368.0</ele><time>2026-05-01T15:27:42.001Z</time></trkpt><trkpt lat="48.08545872642923" lon="16.024590215843602"><ele>368.5</ele><time>2026-05-01T15:27:43.001Z</time></trkpt><trkpt lat="48.0853587686352" lon="16.0250259939282"><ele>369.0</ele><time>2026-05-01T15:27:44.001Z</time></trkpt><trkpt lat="48.085258402922115" lon="16.02545997715243"><ele>369.5</ele><time>2026-05-01T15:27:45.001Z</time></trkpt><trkpt lat="48.08515822712946" lon="16.02588972386496"><ele>370.0</ele><time>2026-05-01T15:27:46.001Z</time></trkpt><trkpt lat="48.08505968818886" lon="16.026315175188785"><ele>370.0</ele><time>2026-05-01T15:27:47.001Z</time></trkpt><trkpt lat="48.08496327922984" lon="16.026733234482915"><ele>370.0</ele><time>2026-05-01T15:27:48.001Z</time></trkpt><trkpt lat="48.08487019990856" lon="16.027135482327346"><ele>367.5</ele><time>2026-05-01T15:27:49.001Z</time></trkpt><trkpt lat="48.08478230148976" lon="16.027514286396794"><ele>365.0</ele><time>2026-05-01T15:27:50.001Z</time></trkpt><trkpt lat="48.0846965581612" lon="16.027889821652103"><ele>365.0</ele><time>2026-05-01T15:27:51.001Z</time></trkpt><trkpt lat="48.08461010754703" lon="16.02826850069905"><ele>365.0</ele><time>2026-05-01T15:27:52.001Z</time></trkpt><trkpt lat="48.08452614003501" lon="16.028635089761792"><ele>365.5</ele><time>2026-05-01T15:27:53.001Z</time></trkpt><trkpt lat="48.08444592938307" lon="16.028990807359392"><ele>366.0</ele><time>2026-05-01T15:27:54.001Z</time></trkpt><trkpt lat="48.084365258884944" lon="16.02934459852763"><ele>366.5</ele><time>2026-05-01T15:27:55.001Z</time></trkpt><trkpt lat="48.08428710957875" lon="16.029691136392685"><ele>367.0</ele><time>2026-05-01T15:27:56.001Z</time></trkpt><trkpt lat="48.08421315748357" lon="16.030040018068988"><ele>368.0</ele><time>2026-05-01T15:27:57.001Z</time></trkpt><trkpt lat="48.08414292087495" lon="16.03040729731903"><ele>369.0</ele><time>2026-05-01T15:27:58.001Z</time></trkpt><trkpt lat="48.08406666332194" lon="16.030796123289868"><ele>365.0</ele><time>2026-05-01T15:27:59.001Z</time></trkpt><trkpt lat="48.083982055853554" lon="16.031199811543104"><ele>361.0</ele><time>2026-05-01T15:28:00.001Z</time></trkpt><trkpt lat="48.08389174058834" lon="16.03161371024511"><ele>362.5</ele><time>2026-05-01T15:28:01.001Z</time></trkpt><trkpt lat="48.08379375716933" lon="16.032039598963497"><ele>364.0</ele><time>2026-05-01T15:28:02.001Z</time></trkpt><trkpt lat="48.083688707870074" lon="16.032466947702652"><ele>365.5</ele><time>2026-05-01T15:28:03.001Z</time></trkpt><trkpt lat="48.08357490406024" lon="16.032893487697415"><ele>367.0</ele><time>2026-05-01T15:28:04.001Z</time></trkpt><trkpt lat="48.08345987032709" lon="16.033326458901954"><ele>367.5</ele><time>2026-05-01T15:28:05.001Z</time></trkpt><trkpt lat="48.08335013676853" lon="16.033768627235837"><ele>368.0</ele><time>2026-05-01T15:28:06.001Z</time></trkpt><trkpt lat="48.08324885773043" lon="16.03421658429572"><ele>366.0</ele><time>2026-05-01T15:28:07.001Z</time></trkpt><trkpt lat="48.083151465898126" lon="16.03466524695301"><ele>364.0</ele><time>2026-05-01T15:28:08.001Z</time></trkpt><trkpt lat="48.08305351743165" lon="16.035113252304637"><ele>364.0</ele><time>2026-05-01T15:28:09.001Z</time></trkpt><trkpt lat="48.0829522793737" lon="16.03555684980104"><ele>364.0</ele><time>2026-05-01T15:28:10.001Z</time></trkpt><trkpt lat="48.082848145652115" lon="16.035996723674756"><ele>363.5</ele><time>2026-05-01T15:28:11.001Z</time></trkpt><trkpt lat="48.082745642766575" lon="16.036435944190686"><ele>363.0</ele><time>2026-05-01T15:28:12.001Z</time></trkpt><trkpt lat="48.082645429643534" lon="16.0368730282045"><ele>364.0</ele><time>2026-05-01T15:28:13.001Z</time></trkpt><trkpt lat="48.08254503857913" lon="16.037311013321904"><ele>365.0</ele><time>2026-05-01T15:28:14.001Z</time></trkpt><trkpt lat="48.08244573893783" lon="16.037747952090225"><ele>362.0</ele><time>2026-05-01T15:28:15.001Z</time></trkpt><trkpt lat="48.08234629532071" lon="16.038184781103787"><ele>359.0</ele><time>2026-05-01T15:28:16.001Z</time></trkpt><trkpt lat="48.082249377861395" lon="16.038623286148695"><ele>359.0</ele><time>2026-05-01T15:28:17.001Z</time></trkpt><trkpt lat="48.08215065326961" lon="16.039057303405695"><ele>359.0</ele><time>2026-05-01T15:28:18.001Z</time></trkpt><trkpt lat="48.08205188461649" lon="16.039489441436494"><ele>360.0</ele><time>2026-05-01T15:28:19.001Z</time></trkpt><trkpt lat="48.08195377025719" lon="16.039920138414608"><ele>361.0</ele><time>2026-05-01T15:28:20.001Z</time></trkpt><trkpt lat="48.0818594652993" lon="16.040349984911394"><ele>361.5</ele><time>2026-05-01T15:28:21.001Z</time></trkpt><trkpt lat="48.081767117098636" lon="16.040778646730057"><ele>362.0</ele><time>2026-05-01T15:28:22.001Z</time></trkpt><trkpt lat="48.081688844498146" lon="16.041211937518057"><ele>362.0</ele><time>2026-05-01T15:28:23.001Z</time></trkpt><trkpt lat="48.08162772582852" lon="16.04165313651258"><ele>362.0</ele><time>2026-05-01T15:28:24.001Z</time></trkpt><trkpt lat="48.08158219253285" lon="16.042100824259382"><ele>358.5</ele><time>2026-05-01T15:28:25.001Z</time></trkpt><trkpt lat="48.081551680335515" lon="16.04255415663081"><ele>355.0</ele><time>2026-05-01T15:28:26.001Z</time></trkpt><trkpt lat="48.081528566856505" lon="16.043009354169353"><ele>355.5</ele><time>2026-05-01T15:28:27.001Z</time></trkpt><trkpt lat="48.08151711844627" lon="16.043468987547275"><ele>356.0</ele><time>2026-05-01T15:28:28.001Z</time></trkpt><trkpt lat="48.08150689899266" lon="16.04393047082981"><ele>356.5</ele><time>2026-05-01T15:28:29.001Z</time></trkpt><trkpt lat="48.081492620858505" lon="16.04439263625953"><ele>357.0</ele><time>2026-05-01T15:28:30.001Z</time></trkpt><trkpt lat="48.081469828924796" lon="16.04484956321528"><ele>355.5</ele><time>2026-05-01T15:28:31.001Z</time></trkpt><trkpt lat="48.08144161941068" lon="16.04530425994778"><ele>354.0</ele><time>2026-05-01T15:28:32.001Z</time></trkpt><trkpt lat="48.08140553015089" lon="16.045755130466357"><ele>354.5</ele><time>2026-05-01T15:28:33.001Z</time></trkpt><trkpt lat="48.0813557938726" lon="16.04619993120483"><ele>355.0</ele><time>2026-05-01T15:28:34.001Z</time></trkpt><trkpt lat="48.081288585863405" lon="16.04663715213605"><ele>355.0</ele><time>2026-05-01T15:28:35.001Z</time></trkpt><trkpt lat="48.08120507669835" lon="16.047064667882697"><ele>355.0</ele><time>2026-05-01T15:28:36.001Z</time></trkpt><trkpt lat="48.081103306032226" lon="16.047482399221387"><ele>355.0</ele><time>2026-05-01T15:28:37.001Z</time></trkpt><trkpt lat="48.08098362781773" lon="16.04789356006115"><ele>355.0</ele><time>2026-05-01T15:28:38.001Z</time></trkpt><trkpt lat="48.08084910845032" lon="16.048297866154204"><ele>363.5</ele><time>2026-05-01T15:28:39.001Z</time></trkpt><trkpt lat="48.08070312240728" lon="16.04869718839766"><ele>372.0</ele><time>2026-05-01T15:28:40.001Z</time></trkpt><trkpt lat="48.08054131322954" lon="16.04908630797859"><ele>364.5</ele><time>2026-05-01T15:28:41.001Z</time></trkpt><trkpt lat="48.08036378184788" lon="16.04946097728134"><ele>357.0</ele><time>2026-05-01T15:28:42.001Z</time></trkpt><trkpt lat="48.080171494043086" lon="16.049815634001806"><ele>354.5</ele><time>2026-05-01T15:28:43.001Z</time></trkpt><trkpt lat="48.07995934082784" lon="16.05014575434695"><ele>352.0</ele><time>2026-05-01T15:28:44.001Z</time></trkpt><trkpt lat="48.07973222593326" lon="16.05045263124317"><ele>352.0</ele><time>2026-05-01T15:28:45.001Z</time></trkpt><trkpt lat="48.079492771171516" lon="16.05073998748176"><ele>352.0</ele><time>2026-05-01T15:28:46.001Z</time></trkpt><trkpt lat="48.07924074987527" lon="16.051007689954808"><ele>353.0</ele><time>2026-05-01T15:28:47.001Z</time></trkpt><trkpt lat="48.07897876833002" lon="16.051253752726183"><ele>354.0</ele><time>2026-05-01T15:28:48.001Z</time></trkpt><trkpt lat="48.0787086992246" lon="16.05147706611412"><ele>352.5</ele><time>2026-05-01T15:28:49.001Z</time></trkpt><trkpt lat="48.07843043776406" lon="16.051678488745967"><ele>351.0</ele><time>2026-05-01T15:28:50.001Z</time></trkpt><trkpt lat="48.0781457021057" lon="16.051859307368183"><ele>350.5</ele><time>2026-05-01T15:28:51.001Z</time></trkpt><trkpt lat="48.07785647844214" lon="16.052027808955533"><ele>350.0</ele><time>2026-05-01T15:28:52.001Z</time></trkpt><trkpt lat="48.0775683047699" lon="16.052194448988796"><ele>350.5</ele><time>2026-05-01T15:28:53.001Z</time></trkpt><trkpt lat="48.07728494581033" lon="16.052366990683428"><ele>351.0</ele><time>2026-05-01T15:28:54.001Z</time></trkpt><trkpt lat="48.077010360657304" lon="16.052553139336275"><ele>350.0</ele><time>2026-05-01T15:28:55.001Z</time></trkpt><trkpt lat="48.07674203590841" lon="16.05275816186748"><ele>349.0</ele><time>2026-05-01T15:28:56.001Z</time></trkpt><trkpt lat="48.07648493133797" lon="16.05298651433139"><ele>349.0</ele><time>2026-05-01T15:28:57.001Z</time></trkpt><trkpt lat="48.076240071523856" lon="16.05324056960807"><ele>349.0</ele><time>2026-05-01T15:28:58.001Z</time></trkpt><trkpt lat="48.076005660812875" lon="16.053510771817812"><ele>348.0</ele><time>2026-05-01T15:28:59.001Z</time></trkpt><trkpt lat="48.07578063697839" lon="16.053793894782487"><ele>347.0</ele><time>2026-05-01T15:29:00.001Z</time></trkpt><trkpt lat="48.075565958698775" lon="16.05409317415498"><ele>347.5</ele><time>2026-05-01T15:29:01.001Z</time></trkpt><trkpt lat="48.07536291322236" lon="16.054409621461524"><ele>348.0</ele><time>2026-05-01T15:29:02.001Z</time></trkpt><trkpt lat="48.0751725907128" lon="16.054741724263568"><ele>349.0</ele><time>2026-05-01T15:29:03.001Z</time></trkpt><trkpt lat="48.074987786806034" lon="16.055086545614806"><ele>350.0</ele><time>2026-05-01T15:29:04.001Z</time></trkpt><trkpt lat="48.07480666714379" lon="16.055439695755407"><ele>348.0</ele><time>2026-05-01T15:29:05.001Z</time></trkpt><trkpt lat="48.07463063280731" lon="16.05580122050896"><ele>346.0</ele><time>2026-05-01T15:29:06.001Z</time></trkpt><trkpt lat="48.07445646286938" lon="16.056170617621948"><ele>346.0</ele><time>2026-05-01T15:29:07.001Z</time></trkpt><trkpt lat="48.07428247900342" lon="16.056546729378397"><ele>346.0</ele><time>2026-05-01T15:29:08.001Z</time></trkpt><trkpt lat="48.07410930494318" lon="16.05692776217199"><ele>344.5</ele><time>2026-05-01T15:29:09.001Z</time></trkpt><trkpt lat="48.07393658537051" lon="16.057313210682103"><ele>343.0</ele><time>2026-05-01T15:29:10.001Z</time></trkpt><trkpt lat="48.07376299531501" lon="16.057697383630583"><ele>343.0</ele><time>2026-05-01T15:29:11.001Z</time></trkpt><trkpt lat="48.07358999367675" lon="16.058073279260185"><ele>343.0</ele><time>2026-05-01T15:29:12.001Z</time></trkpt><trkpt lat="48.07342646431388" lon="16.05842856173974"><ele>343.0</ele><time>2026-05-01T15:29:13.001Z</time></trkpt><trkpt lat="48.07325942653503" lon="16.05879160333641"><ele>343.0</ele><time>2026-05-01T15:29:14.001Z</time></trkpt><trkpt lat="48.07308906853751" lon="16.059161397056567"><ele>343.5</ele><time>2026-05-01T15:29:15.001Z</time></trkpt><trkpt lat="48.072916994603254" lon="16.059532540512077"><ele>344.0</ele><time>2026-05-01T15:29:16.001Z</time></trkpt><trkpt lat="48.07274683040637" lon="16.059905130336606"><ele>344.0</ele><time>2026-05-01T15:29:17.001Z</time></trkpt><trkpt lat="48.072578765062204" lon="16.06027717826923"><ele>344.0</ele><time>2026-05-01T15:29:18.001Z</time></trkpt><trkpt lat="48.0724118508871" lon="16.06064773044113"><ele>343.5</ele><time>2026-05-01T15:29:19.001Z</time></trkpt><trkpt lat="48.072244982657786" lon="16.06101573559765"><ele>343.0</ele><time>2026-05-01T15:29:20.001Z</time></trkpt><trkpt lat="48.07207675527897" lon="16.0613805229426"><ele>343.5</ele><time>2026-05-01T15:29:21.001Z</time></trkpt><trkpt lat="48.07190591336646" lon="16.061742339240027"><ele>344.0</ele><time>2026-05-01T15:29:22.001Z</time></trkpt><trkpt lat="48.071733922237925" lon="16.062099219107772"><ele>342.5</ele><time>2026-05-01T15:29:23.001Z</time></trkpt><trkpt lat="48.07155893164865" lon="16.062452241773432"><ele>341.0</ele><time>2026-05-01T15:29:24.001Z</time></trkpt><trkpt lat="48.071379261762914" lon="16.06279716705775"><ele>341.0</ele><time>2026-05-01T15:29:25.001Z</time></trkpt><trkpt lat="48.07119114003796" lon="16.063131900479956"><ele>341.0</ele><time>2026-05-01T15:29:26.001Z</time></trkpt><trkpt lat="48.07099399253059" lon="16.06345587336074"><ele>342.0</ele><time>2026-05-01T15:29:27.001Z</time></trkpt><trkpt lat="48.07078875135147" lon="16.063772770607745"><ele>343.0</ele><time>2026-05-01T15:29:28.001Z</time></trkpt><trkpt lat="48.07057709227004" lon="16.064080681552436"><ele>344.0</ele><time>2026-05-01T15:29:29.001Z</time></trkpt><trkpt lat="48.070360084704774" lon="16.064379667401308"><ele>345.0</ele><time>2026-05-01T15:29:30.001Z</time></trkpt><trkpt lat="48.07013756383438" lon="16.06466685403859"><ele>342.5</ele><time>2026-05-01T15:29:31.001Z</time></trkpt><trkpt lat="48.0699076178521" lon="16.064944026729872"><ele>340.0</ele><time>2026-05-01T15:29:32.001Z</time></trkpt><trkpt lat="48.06967394527644" lon="16.06521076965067"><ele>340.0</ele><time>2026-05-01T15:29:33Z</time></trkpt><trkpt lat="48.06943565993908" lon="16.06546920051921"><ele>340.0</ele><time>2026-05-01T15:29:34Z</time></trkpt><trkpt lat="48.06919268974488" lon="16.06571775640577"><ele>339.0</ele><time>2026-05-01T15:29:35Z</time></trkpt><trkpt lat="48.06894535802303" lon="16.06595599298723"><ele>338.0</ele><time>2026-05-01T15:29:36Z</time></trkpt><trkpt lat="48.06869378198206" lon="16.066187621372677"><ele>338.0</ele><time>2026-05-01T15:29:37Z</time></trkpt><trkpt lat="48.06844096927717" lon="16.066411186449574"><ele>338.0</ele><time>2026-05-01T15:29:38Z</time></trkpt><trkpt lat="48.06818704413968" lon="16.066634362804916"><ele>337.5</ele><time>2026-05-01T15:29:39Z</time></trkpt><trkpt lat="48.067934899962786" lon="16.066854596403456"><ele>337.0</ele><time>2026-05-01T15:29:40Z</time></trkpt><trkpt lat="48.067684680085016" lon="16.067077963045207"><ele>337.0</ele><time>2026-05-01T15:29:41.001Z</time></trkpt><trkpt lat="48.06743682730162" lon="16.067299955171347"><ele>337.0</ele><time>2026-05-01T15:29:42.001Z</time></trkpt><trkpt lat="48.06719089481551" lon="16.06752145356898"><ele>338.0</ele><time>2026-05-01T15:29:43.001Z</time></trkpt><trkpt lat="48.06694187885224" lon="16.06774393372536"><ele>339.0</ele><time>2026-05-01T15:29:44.001Z</time></trkpt><trkpt lat="48.06668887412606" lon="16.067963011848242"><ele>337.5</ele><time>2026-05-01T15:29:45.001Z</time></trkpt><trkpt lat="48.066435817681835" lon="16.068182188872616"><ele>336.0</ele><time>2026-05-01T15:29:46.001Z</time></trkpt><trkpt lat="48.06618289627156" lon="16.068404268383567"><ele>335.5</ele><time>2026-05-01T15:29:47.001Z</time></trkpt><trkpt lat="48.065928951204995" lon="16.06862720349417"><ele>335.0</ele><time>2026-05-01T15:29:48.001Z</time></trkpt><trkpt lat="48.06567550562637" lon="16.06885331516642"><ele>335.0</ele><time>2026-05-01T15:29:49.001Z</time></trkpt><trkpt lat="48.06542690114716" lon="16.069083032520048"><ele>335.0</ele><time>2026-05-01T15:29:50.001Z</time></trkpt><trkpt lat="48.06517840305086" lon="16.06931944516276"><ele>333.5</ele><time>2026-05-01T15:29:51.001Z</time></trkpt><trkpt lat="48.06493643365458" lon="16.069569284397488"><ele>332.0</ele><time>2026-05-01T15:29:52.001Z</time></trkpt><trkpt lat="48.06470209981395" lon="16.06983088725737"><ele>336.0</ele><time>2026-05-01T15:29:53.001Z</time></trkpt><trkpt lat="48.0644725567597" lon="16.070100547928686"><ele>340.0</ele><time>2026-05-01T15:29:54.001Z</time></trkpt><trkpt lat="48.06425028551128" lon="16.070381789100153"><ele>338.0</ele><time>2026-05-01T15:29:55.001Z</time></trkpt><trkpt lat="48.06403909707232" lon="16.070664771776872"><ele>336.0</ele><time>2026-05-01T15:29:56.001Z</time></trkpt><trkpt lat="48.06385200266268" lon="16.07093416581519"><ele>336.0</ele><time>2026-05-01T15:29:57.001Z</time></trkpt><trkpt lat="48.063679187898636" lon="16.07119262576226"><ele>336.0</ele><time>2026-05-01T15:29:58.001Z</time></trkpt><trkpt lat="48.063521446127616" lon="16.071442773531032"><ele>336.3333333333333</ele><time>2026-05-01T15:29:59.001Z</time></trkpt><trkpt lat="48.063375741367025" lon="16.071682598295787"><ele>336.66666666666663</ele><time>2026-05-01T15:30:00.001Z</time></trkpt><trkpt lat="48.06323808437106" lon="16.07190908035993"><ele>337.0</ele><time>2026-05-01T15:30:01.001Z</time></trkpt><trkpt lat="48.063108856989466" lon="16.072117606274652"><ele>337.0</ele><time>2026-05-01T15:30:02.001Z</time></trkpt><trkpt lat="48.06298268726284" lon="16.07232306747232"><ele>337.0</ele><time>2026-05-01T15:30:03.001Z</time></trkpt><trkpt lat="48.06286611724671" lon="16.072525009695525"><ele>337.0</ele><time>2026-05-01T15:30:04.001Z</time></trkpt><trkpt lat="48.06275701528158" lon="16.072727149764244"><ele>340.0</ele><time>2026-05-01T15:30:05.001Z</time></trkpt><trkpt lat="48.06265307835127" lon="16.072934362029805"><ele>343.0</ele><time>2026-05-01T15:30:06.001Z</time></trkpt><trkpt lat="48.062553520280275" lon="16.073144576337288"><ele>346.0</ele><time>2026-05-01T15:30:07.001Z</time></trkpt><trkpt lat="48.06245925437535" lon="16.073357187750318"><ele>343.3333333333333</ele><time>2026-05-01T15:30:08.001Z</time></trkpt><trkpt lat="48.06236915150867" lon="16.073576326089068"><ele>340.6666666666667</ele><time>2026-05-01T15:30:09.001Z</time></trkpt><trkpt lat="48.062283115492384" lon="16.07380084653983"><ele>338.0</ele><time>2026-05-01T15:30:10.001Z</time></trkpt><trkpt lat="48.06220007713115" lon="16.074028501786117"><ele>341.0</ele><time>2026-05-01T15:30:11.001Z</time></trkpt><trkpt lat="48.06212199429542" lon="16.074259644410827"><ele>344.0</ele><time>2026-05-01T15:30:12.001Z</time></trkpt><trkpt lat="48.06204877758969" lon="16.074500378130026"><ele>347.0</ele><time>2026-05-01T15:30:13.001Z</time></trkpt><trkpt lat="48.06198064184177" lon="16.07474804189579"><ele>350.0</ele><time>2026-05-01T15:30:14.001Z</time></trkpt><trkpt lat="48.061916282370184" lon="16.075000054199513"><ele>353.0</ele><time>2026-05-01T15:30:15.001Z</time></trkpt><trkpt lat="48.06185668699923" lon="16.075256881574546"><ele>356.0</ele><time>2026-05-01T15:30:16.001Z</time></trkpt><trkpt lat="48.06180369586915" lon="16.075515049893923"><ele>358.6666666666667</ele><time>2026-05-01T15:30:17.001Z</time></trkpt><trkpt lat="48.06175628278731" lon="16.075772004366755"><ele>361.3333333333333</ele><time>2026-05-01T15:30:18.001Z</time></trkpt><trkpt lat="48.06171542984741" lon="16.076031014323306"><ele>364.0</ele><time>2026-05-01T15:30:19.001Z</time></trkpt><trkpt lat="48.061688025749206" lon="16.07629248532811"><ele>364.0</ele><time>2026-05-01T15:30:20.001Z</time></trkpt><trkpt lat="48.06166328173142" lon="16.07655225942451"><ele>364.0</ele><time>2026-05-01T15:30:21.001Z</time></trkpt><trkpt lat="48.061642417785606" lon="16.07680968536548"><ele>364.0</ele><time>2026-05-01T15:30:22.001Z</time></trkpt><trkpt lat="48.06162566501462" lon="16.077067735019426"><ele>360.3333333333333</ele><time>2026-05-01T15:30:23.001Z</time></trkpt><trkpt lat="48.06160847921773" lon="16.07732560015394"><ele>356.6666666666667</ele><time>2026-05-01T15:30:24.001Z</time></trkpt><trkpt lat="48.061592500177426" lon="16.07758092348193"><ele>353.0</ele><time>2026-05-01T15:30:25.001Z</time></trkpt><trkpt lat="48.061577912542596" lon="16.077837382695787"><ele>353.0</ele><time>2026-05-01T15:30:26.001Z</time></trkpt><trkpt lat="48.06156754913605" lon="16.078093356718586"><ele>353.0</ele><time>2026-05-01T15:30:27.001Z</time></trkpt><trkpt lat="48.06155533495882" lon="16.078349454316882"><ele>353.0</ele><time>2026-05-01T15:30:28.001Z</time></trkpt><trkpt lat="48.06154377748195" lon="16.07860448352796"><ele>353.6666666666667</ele><time>2026-05-01T15:30:29.001Z</time></trkpt><trkpt lat="48.0615306694145" lon="16.078860274070646"><ele>354.3333333333333</ele><time>2026-05-01T15:30:30.001Z</time></trkpt><trkpt lat="48.06151745450099" lon="16.079117425701824"><ele>355.0</ele><time>2026-05-01T15:30:31.001Z</time></trkpt><trkpt lat="48.06150590729591" lon="16.079380392223317"><ele>355.66666666666663</ele><time>2026-05-01T15:30:32.001Z</time></trkpt><trkpt lat="48.06149457077336" lon="16.079646215822358"><ele>356.3333333333333</ele><time>2026-05-01T15:30:33.001Z</time></trkpt><trkpt lat="48.06148152969722" lon="16.07991740403335"><ele>357.0</ele><time>2026-05-01T15:30:34.001Z</time></trkpt><trkpt lat="48.06146861464634" lon="16.080189744416916"><ele>359.3333333333333</ele><time>2026-05-01T15:30:35.001Z</time></trkpt><trkpt lat="48.06145519025662" lon="16.08046435364003"><ele>361.66666666666663</ele><time>2026-05-01T15:30:36.001Z</time></trkpt><trkpt lat="48.06144316606087" lon="16.080741233508242"><ele>364.0</ele><time>2026-05-01T15:30:37.001Z</time></trkpt><trkpt lat="48.06143018531741" lon="16.081022120846125"><ele>364.0</ele><time>2026-05-01T15:30:38.001Z</time></trkpt><trkpt lat="48.06141686148225" lon="16.08130519321121"><ele>364.0</ele><time>2026-05-01T15:30:39.001Z</time></trkpt><trkpt lat="48.061405100885025" lon="16.08158679681949"><ele>364.0</ele><time>2026-05-01T15:30:40.001Z</time></trkpt><trkpt lat="48.06139248131968" lon="16.081866654626985"><ele>361.3333333333333</ele><time>2026-05-01T15:30:41.001Z</time></trkpt><trkpt lat="48.061379357737714" lon="16.082137425218136"><ele>358.6666666666667</ele><time>2026-05-01T15:30:42.001Z</time></trkpt><trkpt lat="48.06136659830118" lon="16.082416879246672"><ele>356.0</ele><time>2026-05-01T15:30:43.001Z</time></trkpt><trkpt lat="48.061354945619435" lon="16.082699055911696"><ele>356.0</ele><time>2026-05-01T15:30:44.001Z</time></trkpt><trkpt lat="48.06134407218852" lon="16.082985306047142"><ele>356.0</ele><time>2026-05-01T15:30:45.001Z</time></trkpt><trkpt lat="48.06133072673347" lon="16.08327330862949"><ele>356.0</ele><time>2026-05-01T15:30:46.001Z</time></trkpt><trkpt lat="48.0613166326279" lon="16.08355884341421"><ele>359.0</ele><time>2026-05-01T15:30:47.001Z</time></trkpt><trkpt lat="48.06130288763966" lon="16.083844320789396"><ele>362.0</ele><time>2026-05-01T15:30:48.001Z</time></trkpt><trkpt lat="48.06128788201119" lon="16.084128936396727"><ele>365.0</ele><time>2026-05-01T15:30:49.001Z</time></trkpt><trkpt lat="48.06127460233963" lon="16.084413545300126"><ele>365.0</ele><time>2026-05-01T15:30:50.001Z</time></trkpt><trkpt lat="48.06126030078439" lon="16.084695666263446"><ele>365.0</ele><time>2026-05-01T15:30:51.001Z</time></trkpt><trkpt lat="48.06124582772692" lon="16.08497512634194"><ele>365.0</ele><time>2026-05-01T15:30:52.001Z</time></trkpt><trkpt lat="48.06123150621238" lon="16.08524969570253"><ele>365.6666666666667</ele><time>2026-05-01T15:30:53.001Z</time></trkpt><trkpt lat="48.061218618831624" lon="16.085518119453983"><ele>366.3333333333333</ele><time>2026-05-01T15:30:54.001Z</time></trkpt><trkpt lat="48.06120555150531" lon="16.08578271460659"><ele>367.0</ele><time>2026-05-01T15:30:55.001Z</time></trkpt><trkpt lat="48.0611946001977" lon="16.08604452130132"><ele>367.0</ele><time>2026-05-01T15:30:56.001Z</time></trkpt><trkpt lat="48.06118078732785" lon="16.0863033203598"><ele>367.0</ele><time>2026-05-01T15:30:57.001Z</time></trkpt><trkpt lat="48.06116360604314" lon="16.086560095104566"><ele>367.0</ele><time>2026-05-01T15:30:58.001Z</time></trkpt><trkpt lat="48.06113849588096" lon="16.08682067581858"><ele>367.3333333333333</ele><time>2026-05-01T15:30:59.001Z</time></trkpt><trkpt lat="48.061106950119296" lon="16.087083774048608"><ele>367.6666666666667</ele><time>2026-05-01T15:31:00.001Z</time></trkpt><trkpt lat="48.06107074173641" lon="16.08734731185303"><ele>368.0</ele><time>2026-05-01T15:31:01.001Z</time></trkpt><trkpt lat="48.06103259839355" lon="16.087611889045437"><ele>368.0</ele><time>2026-05-01T15:31:02.001Z</time></trkpt><trkpt lat="48.06099048620687" lon="16.087878447960048"><ele>368.0</ele><time>2026-05-01T15:31:03.001Z</time></trkpt><trkpt lat="48.06094752379936" lon="16.088148442612475"><ele>368.0</ele><time>2026-05-01T15:31:04.001Z</time></trkpt><trkpt lat="48.060900619248216" lon="16.088420372570443"><ele>368.6666666666667</ele><time>2026-05-01T15:31:05.001Z</time></trkpt><trkpt lat="48.060849196927485" lon="16.088694823873237"><ele>369.3333333333333</ele><time>2026-05-01T15:31:06.001Z</time></trkpt><trkpt lat="48.060751468139365" lon="16.088950217141186"><ele>370.0</ele><time>2026-05-01T15:31:07.001Z</time></trkpt><trkpt lat="48.06068653112867" lon="16.0892193479168"><ele>366.66666666666663</ele><time>2026-05-01T15:31:08.001Z</time></trkpt><trkpt lat="48.06061727553909" lon="16.089484756130158"><ele>363.3333333333333</ele><time>2026-05-01T15:31:09.001Z</time></trkpt><trkpt lat="48.0605444925143" lon="16.089738037894"><ele>360.0</ele><time>2026-05-01T15:31:10.001Z</time></trkpt><trkpt lat="48.060469022021536" lon="16.08997346300626"><ele>360.0</ele><time>2026-05-01T15:31:11.001Z</time></trkpt><trkpt lat="48.06038729386496" lon="16.090212788887868"><ele>360.0</ele><time>2026-05-01T15:31:12.001Z</time></trkpt><trkpt lat="48.06029645437963" lon="16.090448272113612"><ele>360.0</ele><time>2026-05-01T15:31:13.001Z</time></trkpt><trkpt lat="48.06019758624123" lon="16.090683028396214"><ele>361.0</ele><time>2026-05-01T15:31:14.001Z</time></trkpt><trkpt lat="48.06010572799583" lon="16.09092808625555"><ele>362.0</ele><time>2026-05-01T15:31:15.001Z</time></trkpt><trkpt lat="48.059994632965335" lon="16.091155039361492"><ele>363.0</ele><time>2026-05-01T15:31:16.001Z</time></trkpt><trkpt lat="48.05986708577194" lon="16.091351849281224"><ele>359.3333333333333</ele><time>2026-05-01T15:31:17.001Z</time></trkpt><trkpt lat="48.05975168670844" lon="16.091540000164574"><ele>355.66666666666663</ele><time>2026-05-01T15:31:18.001Z</time></trkpt><trkpt lat="48.059634906082735" lon="16.091715249584453"><ele>352.0</ele><time>2026-05-01T15:31:19.001Z</time></trkpt><trkpt lat="48.05951718345991" lon="16.091876138705267"><ele>352.0</ele><time>2026-05-01T15:31:20.001Z</time></trkpt><trkpt lat="48.05939720580543" lon="16.092029372132934"><ele>352.0</ele><time>2026-05-01T15:31:21.001Z</time></trkpt><trkpt lat="48.059283195374995" lon="16.0921644971382"><ele>352.0</ele><time>2026-05-01T15:31:22.001Z</time></trkpt><trkpt lat="48.05917308890194" lon="16.09228956737446"><ele>352.0</ele><time>2026-05-01T15:31:23.001Z</time></trkpt><trkpt lat="48.05904929126696" lon="16.092412961364538"><ele>352.0</ele><time>2026-05-01T15:31:24.001Z</time></trkpt><trkpt lat="48.05891326167297" lon="16.09253147543796"><ele>352.0</ele><time>2026-05-01T15:31:25.001Z</time></trkpt><trkpt lat="48.05877127979117" lon="16.09264927060594"><ele>352.0</ele><time>2026-05-01T15:31:26.001Z</time></trkpt><trkpt lat="48.058621895249296" lon="16.092754653310493"><ele>352.0</ele><time>2026-05-01T15:31:27.001Z</time></trkpt><trkpt lat="48.05847228280647" lon="16.092876742516886"><ele>352.0</ele><time>2026-05-01T15:31:28.001Z</time></trkpt><trkpt lat="48.05831008223507" lon="16.092964636519643"><ele>352.0</ele><time>2026-05-01T15:31:29.001Z</time></trkpt><trkpt lat="48.058145599721726" lon="16.0930170265505"><ele>350.66666666666663</ele><time>2026-05-01T15:31:30Z</time></trkpt><trkpt lat="48.05797757973736" lon="16.093079080359672"><ele>349.3333333333333</ele><time>2026-05-01T15:31:31Z</time></trkpt><trkpt lat="48.05780910307228" lon="16.09312707598996"><ele>348.0</ele><time>2026-05-01T15:31:32Z</time></trkpt><trkpt lat="48.05764547239139" lon="16.093162094980876"><ele>348.0</ele><time>2026-05-01T15:31:33Z</time></trkpt><trkpt lat="48.057489689964264" lon="16.0931852208485"><ele>348.0</ele><time>2026-05-01T15:31:34Z</time></trkpt><trkpt lat="48.05734325495313" lon="16.093195417153453"><ele>348.0</ele><time>2026-05-01T15:31:35Z</time></trkpt><trkpt lat="48.057203892043766" lon="16.093193783341547"><ele>348.0</ele><time>2026-05-01T15:31:36Z</time></trkpt><trkpt lat="48.05707491656132" lon="16.09318689779821"><ele>347.79999999999995</ele><time>2026-05-01T15:31:37Z</time></trkpt><trkpt lat="48.056955363940254" lon="16.093178357934693"><ele>347.6</ele><time>2026-05-01T15:31:38Z</time></trkpt><trkpt lat="48.056845518480955" lon="16.093160903829574"><ele>347.4</ele><time>2026-05-01T15:31:39Z</time></trkpt><trkpt lat="48.05675872425241" lon="16.093143278946613"><ele>347.20000000000005</ele><time>2026-05-01T15:31:40Z</time></trkpt><trkpt lat="48.05669408414844" lon="16.0931298540597"><ele>347.0</ele><time>2026-05-01T15:31:41Z</time></trkpt><trkpt lat="48.05660764133654" lon="16.0930970452822"><ele>347.0</ele><time>2026-05-01T15:31:43Z</time></trkpt><trkpt lat="48.05650992305346" lon="16.092975972188466"><ele>347.0</ele><time>2026-05-01T15:31:45Z</time></trkpt><trkpt lat="48.0564408972613" lon="16.092923839245717"><ele>347.0</ele><time>2026-05-01T15:31:46Z</time></trkpt><trkpt lat="48.05631170913278" lon="16.092984304877724"><ele>347.0</ele><time>2026-05-01T15:31:48Z</time></trkpt><trkpt lat="48.0562807055357" lon="16.093085088636666"><ele>347.0</ele><time>2026-05-01T15:31:49Z</time></trkpt><trkpt lat="48.056263592944056" lon="16.093182242728584"><ele>348.0</ele><time>2026-05-01T15:31:50Z</time></trkpt><trkpt lat="48.05626943434884" lon="16.093298396282"><ele>349.0</ele><time>2026-05-01T15:31:51Z</time></trkpt><trkpt lat="48.05632774476255" lon="16.093428276055448"><ele>350.0</ele><time>2026-05-01T15:31:52Z</time></trkpt><trkpt lat="48.05632819706745" lon="16.0936004905551"><ele>351.0</ele><time>2026-05-01T15:31:53Z</time></trkpt><trkpt lat="48.056321333142236" lon="16.09377623307485"><ele>352.0</ele><time>2026-05-01T15:31:54Z</time></trkpt><trkpt lat="48.05628634227941" lon="16.093972693131402"><ele>352.75</ele><time>2026-05-01T15:31:55Z</time></trkpt><trkpt lat="48.056248934374445" lon="16.09418602241322"><ele>353.5</ele><time>2026-05-01T15:31:56.001Z</time></trkpt><trkpt lat="48.05621508060109" lon="16.094410070721576"><ele>354.25</ele><time>2026-05-01T15:31:57.001Z</time></trkpt><trkpt lat="48.056185449825335" lon="16.09462350221018"><ele>355.0</ele><time>2026-05-01T15:31:58.001Z</time></trkpt><trkpt lat="48.056154999270035" lon="16.094857281632102"><ele>356.3333333333333</ele><time>2026-05-01T15:31:59.001Z</time></trkpt><trkpt lat="48.05612296872095" lon="16.095112866429492"><ele>357.6666666666667</ele><time>2026-05-01T15:32:00.001Z</time></trkpt><trkpt lat="48.056083716239705" lon="16.095383737360052"><ele>359.0</ele><time>2026-05-01T15:32:01.001Z</time></trkpt><trkpt lat="48.05603767464712" lon="16.09566706428735"><ele>360.6666666666667</ele><time>2026-05-01T15:32:02.001Z</time></trkpt><trkpt lat="48.05599085911535" lon="16.095955320980224"><ele>362.3333333333333</ele><time>2026-05-01T15:32:03.001Z</time></trkpt><trkpt lat="48.05594498841967" lon="16.09623402583727"><ele>364.0</ele><time>2026-05-01T15:32:04.001Z</time></trkpt><trkpt lat="48.05589677304038" lon="16.096530700212234"><ele>365.66666666666663</ele><time>2026-05-01T15:32:05.001Z</time></trkpt><trkpt lat="48.05584758361706" lon="16.09683839693265"><ele>367.3333333333333</ele><time>2026-05-01T15:32:06.001Z</time></trkpt><trkpt lat="48.05580022180628" lon="16.09715945900764"><ele>369.0</ele><time>2026-05-01T15:32:07.001Z</time></trkpt><trkpt lat="48.055749978997156" lon="16.097488362264624"><ele>370.0</ele><time>2026-05-01T15:32:08.001Z</time></trkpt><trkpt lat="48.05569712851037" lon="16.097825532233294"><ele>371.0</ele><time>2026-05-01T15:32:09.001Z</time></trkpt><trkpt lat="48.05564529155562" lon="16.098158546299736"><ele>373.0</ele><time>2026-05-01T15:32:10.001Z</time></trkpt><trkpt lat="48.05559528383451" lon="16.098481719919253"><ele>375.0</ele><time>2026-05-01T15:32:11.001Z</time></trkpt><trkpt lat="48.055543561175504" lon="16.098817775521248"><ele>377.0</ele><time>2026-05-01T15:32:12.001Z</time></trkpt><trkpt lat="48.05548999983267" lon="16.099163368413294"><ele>379.0</ele><time>2026-05-01T15:32:13.001Z</time></trkpt><trkpt lat="48.05543696478184" lon="16.099506574983145"><ele>379.0</ele><time>2026-05-01T15:32:14.001Z</time></trkpt><trkpt lat="48.05538341391322" lon="16.099853557908197"><ele>379.0</ele><time>2026-05-01T15:32:15.001Z</time></trkpt><trkpt lat="48.05532828504208" lon="16.10020165610868"><ele>382.5</ele><time>2026-05-01T15:32:16.001Z</time></trkpt><trkpt lat="48.05527350914799" lon="16.100549162345093"><ele>386.0</ele><time>2026-05-01T15:32:17.001Z</time></trkpt><trkpt lat="48.05521949716504" lon="16.1008934377145"><ele>388.0</ele><time>2026-05-01T15:32:18.001Z</time></trkpt><trkpt lat="48.05516915571251" lon="16.101220414346507"><ele>390.0</ele><time>2026-05-01T15:32:19.001Z</time></trkpt><trkpt lat="48.055116640334994" lon="16.101555932571152"><ele>392.5</ele><time>2026-05-01T15:32:20.001Z</time></trkpt><trkpt lat="48.05506251397779" lon="16.101896905599148"><ele>395.0</ele><time>2026-05-01T15:32:21.001Z</time></trkpt><trkpt lat="48.05500819332998" lon="16.102238583278613"><ele>394.5</ele><time>2026-05-01T15:32:22.001Z</time></trkpt><trkpt lat="48.054953898377434" lon="16.102578248536126"><ele>394.0</ele><time>2026-05-01T15:32:23.001Z</time></trkpt><trkpt lat="48.05489976295975" lon="16.10290863228748"><ele>394.0</ele><time>2026-05-01T15:32:24.001Z</time></trkpt><trkpt lat="48.05484614962124" lon="16.10322701247964"><ele>394.0</ele><time>2026-05-01T15:32:25.001Z</time></trkpt><trkpt lat="48.054796863030646" lon="16.103526727114073"><ele>394.0</ele><time>2026-05-01T15:32:26.001Z</time></trkpt><trkpt lat="48.0547509282474" lon="16.10380733895657"><ele>395.6666666666667</ele><time>2026-05-01T15:32:27.001Z</time></trkpt><trkpt lat="48.05470861056136" lon="16.104077400106217"><ele>397.33333333333337</ele><time>2026-05-01T15:32:28.001Z</time></trkpt><trkpt lat="48.05464833748739" lon="16.10434302870984"><ele>399.0</ele><time>2026-05-01T15:32:29.001Z</time></trkpt><trkpt lat="48.054603315083504" lon="16.104612654991733"><ele>400.0</ele><time>2026-05-01T15:32:30.001Z</time></trkpt><trkpt lat="48.05457217883843" lon="16.104889661747343"><ele>401.0</ele><time>2026-05-01T15:32:31.001Z</time></trkpt><trkpt lat="48.05452238650684" lon="16.10516407662133"><ele>402.0</ele><time>2026-05-01T15:32:32.001Z</time></trkpt><trkpt lat="48.05447282373092" lon="16.105442055720854"><ele>402.66666666666663</ele><time>2026-05-01T15:32:33.001Z</time></trkpt><trkpt lat="48.05442402487226" lon="16.105722816725343"><ele>403.3333333333333</ele><time>2026-05-01T15:32:34.001Z</time></trkpt><trkpt lat="48.054378648107914" lon="16.10600256602022"><ele>404.0</ele><time>2026-05-01T15:32:35.001Z</time></trkpt><trkpt lat="48.0543338000606" lon="16.106280782909593"><ele>405.0</ele><time>2026-05-01T15:32:36.001Z</time></trkpt><trkpt lat="48.05429121818322" lon="16.10655738464975"><ele>406.0</ele><time>2026-05-01T15:32:37.001Z</time></trkpt><trkpt lat="48.05424820522404" lon="16.10683164356583"><ele>407.0</ele><time>2026-05-01T15:32:38.001Z</time></trkpt><trkpt lat="48.054209378507" lon="16.10710324821673"><ele>408.0</ele><time>2026-05-01T15:32:39.001Z</time></trkpt><trkpt lat="48.054173962550095" lon="16.107375379456478"><ele>409.0</ele><time>2026-05-01T15:32:40.001Z</time></trkpt><trkpt lat="48.054141408181195" lon="16.107640377856423"><ele>410.0</ele><time>2026-05-01T15:32:41.001Z</time></trkpt><trkpt lat="48.05411460912242" lon="16.10789145887286"><ele>409.5</ele><time>2026-05-01T15:32:42.001Z</time></trkpt><trkpt lat="48.054094798472754" lon="16.108127718509493"><ele>409.0</ele><time>2026-05-01T15:32:43.001Z</time></trkpt><trkpt lat="48.05408026776462" lon="16.108346840998596"><ele>408.5</ele><time>2026-05-01T15:32:44.001Z</time></trkpt><trkpt lat="48.0540686089629" lon="16.108541348371197"><ele>408.0</ele><time>2026-05-01T15:32:45.001Z</time></trkpt><trkpt lat="48.05405697808476" lon="16.10869678977187"><ele>408.0</ele><time>2026-05-01T15:32:46.001Z</time></trkpt><trkpt lat="48.05404059697373" lon="16.10881993958612"><ele>408.0</ele><time>2026-05-01T15:32:47.001Z</time></trkpt><trkpt lat="48.05401384330235" lon="16.108932081504047"><ele>408.0</ele><time>2026-05-01T15:32:49.001Z</time></trkpt><trkpt lat="48.053885269160766" lon="16.108916905898745"><ele>408.0</ele><time>2026-05-01T15:32:50.001Z</time></trkpt><trkpt lat="48.05383125892978" lon="16.108854194919505"><ele>408.0</ele><time>2026-05-01T15:32:51.001Z</time></trkpt><trkpt lat="48.05379458605469" lon="16.108747819972983"><ele>408.0</ele><time>2026-05-01T15:32:52.001Z</time></trkpt><trkpt lat="48.05377829817853" lon="16.10860801166394"><ele>408.0</ele><time>2026-05-01T15:32:53.001Z</time></trkpt><trkpt lat="48.05377227999326" lon="16.108455780604892"><ele>408.0</ele><time>2026-05-01T15:32:54.001Z</time></trkpt><trkpt lat="48.053786709700326" lon="16.10827892937845"><ele>408.0</ele><time>2026-05-01T15:32:55.001Z</time></trkpt><trkpt lat="48.053812744528386" lon="16.108078756978735"><ele>408.0</ele><time>2026-05-01T15:32:56.001Z</time></trkpt><trkpt lat="48.053842435050605" lon="16.10785841256408"><ele>406.33333333333337</ele><time>2026-05-01T15:32:57.001Z</time></trkpt><trkpt lat="48.05387087820754" lon="16.107642432465894"><ele>404.6666666666667</ele><time>2026-05-01T15:32:58.001Z</time></trkpt><trkpt lat="48.05389493150153" lon="16.10741627920673"><ele>403.0</ele><time>2026-05-01T15:32:59.001Z</time></trkpt><trkpt lat="48.05389579290006" lon="16.10717275704164"><ele>402.33333333333337</ele><time>2026-05-01T15:33:00.001Z</time></trkpt><trkpt lat="48.05387643823925" lon="16.10691250016713"><ele>401.66666666666663</ele><time>2026-05-01T15:33:01.001Z</time></trkpt><trkpt lat="48.053849849138345" lon="16.106639398908108"><ele>401.0</ele><time>2026-05-01T15:33:02.001Z</time></trkpt><trkpt lat="48.05382549888965" lon="16.10636597430757"><ele>399.3333333333333</ele><time>2026-05-01T15:33:03.001Z</time></trkpt><trkpt lat="48.05380185312765" lon="16.106094481448306"><ele>397.66666666666663</ele><time>2026-05-01T15:33:04.001Z</time></trkpt><trkpt lat="48.05378367049796" lon="16.1058264156989"><ele>396.0</ele><time>2026-05-01T15:33:05.001Z</time></trkpt><trkpt lat="48.05377118947788" lon="16.10557189824773"><ele>394.66666666666663</ele><time>2026-05-01T15:33:06.001Z</time></trkpt><trkpt lat="48.05374497180991" lon="16.105324291149152"><ele>393.3333333333333</ele><time>2026-05-01T15:33:07.001Z</time></trkpt><trkpt lat="48.053719205673154" lon="16.105084633317894"><ele>392.0</ele><time>2026-05-01T15:33:08.001Z</time></trkpt><trkpt lat="48.05366075095214" lon="16.104852756469494"><ele>391.66666666666663</ele><time>2026-05-01T15:33:09.001Z</time></trkpt><trkpt lat="48.05359415961318" lon="16.104633986312262"><ele>391.33333333333337</ele><time>2026-05-01T15:33:10.001Z</time></trkpt><trkpt lat="48.05355007397179" lon="16.10441695940892"><ele>391.0</ele><time>2026-05-01T15:33:11.001Z</time></trkpt><trkpt lat="48.053496561862104" lon="16.10421993740614"><ele>391.4</ele><time>2026-05-01T15:33:12.001Z</time></trkpt><trkpt lat="48.05343201951272" lon="16.10406993482856"><ele>391.8</ele><time>2026-05-01T15:33:13.001Z</time></trkpt><trkpt lat="48.05338781718612" lon="16.103940995885345"><ele>392.2</ele><time>2026-05-01T15:33:14.001Z</time></trkpt><trkpt lat="48.05333071566104" lon="16.10383501631957"><ele>392.59999999999997</ele><time>2026-05-01T15:33:15.001Z</time></trkpt><trkpt lat="48.053226022351126" lon="16.103782655330587"><ele>393.0</ele><time>2026-05-01T15:33:16.001Z</time></trkpt><trkpt lat="48.05310538599097" lon="16.103811477004708"><ele>392.25</ele><time>2026-05-01T15:33:17.001Z</time></trkpt><trkpt lat="48.05299466857318" lon="16.103933192561517"><ele>391.5</ele><time>2026-05-01T15:33:18.001Z</time></trkpt><trkpt lat="48.05286358045197" lon="16.10400179320464"><ele>390.75</ele><time>2026-05-01T15:33:19.001Z</time></trkpt><trkpt lat="48.052747612856905" lon="16.104069221149484"><ele>390.0</ele><time>2026-05-01T15:33:20.001Z</time></trkpt><trkpt lat="48.052664891811794" lon="16.104108910877663"><ele>388.0</ele><time>2026-05-01T15:33:21.001Z</time></trkpt><trkpt lat="48.052580961691326" lon="16.104051270042902"><ele>386.0</ele><time>2026-05-01T15:33:23.001Z</time></trkpt><trkpt lat="48.052627962665376" lon="16.1038709941181"><ele>384.0</ele><time>2026-05-01T15:33:25.001Z</time></trkpt><trkpt lat="48.05267181775363" lon="16.103724837120623"><ele>382.0</ele><time>2026-05-01T15:33:26.001Z</time></trkpt><trkpt lat="48.052740961418806" lon="16.103562126345302"><ele>382.0</ele><time>2026-05-01T15:33:27.001Z</time></trkpt><trkpt lat="48.05279640907763" lon="16.103413651467978"><ele>382.0</ele><time>2026-05-01T15:33:28.001Z</time></trkpt><trkpt lat="48.05281758334744" lon="16.103296918713916"><ele>382.0</ele><time>2026-05-01T15:33:29.001Z</time></trkpt><trkpt lat="48.05282155539534" lon="16.103189033736673"><ele>382.0</ele><time>2026-05-01T15:33:30.001Z</time></trkpt><trkpt lat="48.05275761838622" lon="16.10309681011871"><ele>382.0</ele><time>2026-05-01T15:33:31.001Z</time></trkpt><trkpt lat="48.05264448066033" lon="16.10309854004933"><ele>381.20000000000005</ele><time>2026-05-01T15:33:32.001Z</time></trkpt><trkpt lat="48.05255183916542" lon="16.103226992252022"><ele>380.4</ele><time>2026-05-01T15:33:33.001Z</time></trkpt><trkpt lat="48.05244551154465" lon="16.103300381666102"><ele>379.6</ele><time>2026-05-01T15:33:34.001Z</time></trkpt><trkpt lat="48.05234558480215" lon="16.103370074036228"><ele>378.79999999999995</ele><time>2026-05-01T15:33:35.001Z</time></trkpt><trkpt lat="48.05227133573194" lon="16.10336240801653"><ele>378.0</ele><time>2026-05-01T15:33:36Z</time></trkpt><trkpt lat="48.0522167588366" lon="16.10330261141706"><ele>377.25</ele><time>2026-05-01T15:33:37Z</time></trkpt><trkpt lat="48.0521770586303" lon="16.10319371162666"><ele>376.5</ele><time>2026-05-01T15:33:38Z</time></trkpt><trkpt lat="48.052120929157645" lon="16.10303947295255"><ele>375.75</ele><time>2026-05-01T15:33:39Z</time></trkpt><trkpt lat="48.05204923565007" lon="16.102845695801797"><ele>375.0</ele><time>2026-05-01T15:33:40Z</time></trkpt><trkpt lat="48.0519780877045" lon="16.102642730738022"><ele>375.0</ele><time>2026-05-01T15:33:41Z</time></trkpt><trkpt lat="48.05191089162818" lon="16.102457158612346"><ele>375.0</ele><time>2026-05-01T15:33:42Z</time></trkpt><trkpt lat="48.05182929632647" lon="16.102299565253674"><ele>375.0</ele><time>2026-05-01T15:33:43Z</time></trkpt><trkpt lat="48.05172415296096" lon="16.1021620958416"><ele>375.0</ele><time>2026-05-01T15:33:44Z</time></trkpt><trkpt lat="48.05160274103935" lon="16.102026524840934"><ele>372.0</ele><time>2026-05-01T15:33:45Z</time></trkpt><trkpt lat="48.05146768484881" lon="16.101884339975744"><ele>369.0</ele><time>2026-05-01T15:33:46Z</time></trkpt><trkpt lat="48.051324338530776" lon="16.101738544133216"><ele>366.0</ele><time>2026-05-01T15:33:47Z</time></trkpt><trkpt lat="48.05118370967833" lon="16.101597868460154"><ele>363.5</ele><time>2026-05-01T15:33:48Z</time></trkpt><trkpt lat="48.05105660589993" lon="16.101471329943223"><ele>361.0</ele><time>2026-05-01T15:33:49Z</time></trkpt><trkpt lat="48.050937995702775" lon="16.101355453454463"><ele>358.5</ele><time>2026-05-01T15:33:50Z</time></trkpt><trkpt lat="48.05081910719895" lon="16.10127084582098"><ele>356.0</ele><time>2026-05-01T15:33:51Z</time></trkpt><trkpt lat="48.05068804952648" lon="16.10122933570247"><ele>354.6666666666667</ele><time>2026-05-01T15:33:52Z</time></trkpt><trkpt lat="48.050547633735235" lon="16.10123238637238"><ele>353.3333333333333</ele><time>2026-05-01T15:33:53Z</time></trkpt><trkpt lat="48.05039541012468" lon="16.101232386368242"><ele>352.0</ele><time>2026-05-01T15:33:54Z</time></trkpt><trkpt lat="48.0502182131942" lon="16.10124482058367"><ele>352.0</ele><time>2026-05-01T15:33:55Z</time></trkpt><trkpt lat="48.05004192848741" lon="16.101265927177334"><ele>352.0</ele><time>2026-05-01T15:33:56Z</time></trkpt><trkpt lat="48.04986697230399" lon="16.101297866574125"><ele>352.0</ele><time>2026-05-01T15:33:57Z</time></trkpt><trkpt lat="48.0496902728753" lon="16.101341049286887"><ele>349.66666666666663</ele><time>2026-05-01T15:33:58Z</time></trkpt><trkpt lat="48.049513202085286" lon="16.101382965860925"><ele>347.3333333333333</ele><time>2026-05-01T15:33:59Z</time></trkpt><trkpt lat="48.04933860801278" lon="16.1014016109074"><ele>345.0</ele><time>2026-05-01T15:34:00Z</time></trkpt><trkpt lat="48.04916271448921" lon="16.101407401637157"><ele>343.3333333333333</ele><time>2026-05-01T15:34:01Z</time></trkpt><trkpt lat="48.048988909306914" lon="16.10140847671394"><ele>341.66666666666663</ele><time>2026-05-01T15:34:02Z</time></trkpt><trkpt lat="48.04881693589828" lon="16.101394562234454"><ele>340.0</ele><time>2026-05-01T15:34:03Z</time></trkpt><trkpt lat="48.04864285898278" lon="16.1013790642334"><ele>340.0</ele><time>2026-05-01T15:34:04Z</time></trkpt><trkpt lat="48.04848106176147" lon="16.10136473380996"><ele>340.0</ele><time>2026-05-01T15:34:05Z</time></trkpt><trkpt lat="48.04832486855315" lon="16.101345735376846"><ele>340.0</ele><time>2026-05-01T15:34:06Z</time></trkpt><trkpt lat="48.048166800417825" lon="16.101326127357883"><ele>339.0</ele><time>2026-05-01T15:34:07Z</time></trkpt><trkpt lat="48.048017489769364" lon="16.101303702591174"><ele>338.0</ele><time>2026-05-01T15:34:08Z</time></trkpt><trkpt lat="48.04788405515485" lon="16.10126643853371"><ele>337.0</ele><time>2026-05-01T15:34:09Z</time></trkpt><trkpt lat="48.04777986318349" lon="16.101179954124444"><ele>336.0</ele><time>2026-05-01T15:34:10Z</time></trkpt><trkpt lat="48.04768892901969" lon="16.101064661777908"><ele>336.0</ele><time>2026-05-01T15:34:11Z</time></trkpt><trkpt lat="48.04760180392218" lon="16.100910547520307"><ele>336.0</ele><time>2026-05-01T15:34:12Z</time></trkpt><trkpt lat="48.0475094189112" lon="16.100736948707976"><ele>336.0</ele><time>2026-05-01T15:34:13Z</time></trkpt><trkpt lat="48.04741605433303" lon="16.100556721866162"><ele>336.0</ele><time>2026-05-01T15:34:14Z</time></trkpt><trkpt lat="48.04733036967486" lon="16.100373745938235"><ele>335.5</ele><time>2026-05-01T15:34:15.001Z</time></trkpt><trkpt lat="48.047248205442" lon="16.100187148223277"><ele>335.0</ele><time>2026-05-01T15:34:16.001Z</time></trkpt><trkpt lat="48.04716155516091" lon="16.100010812586145"><ele>334.5</ele><time>2026-05-01T15:34:17.001Z</time></trkpt><trkpt lat="48.047067404739586" lon="16.099846111988686"><ele>334.0</ele><time>2026-05-01T15:34:18.001Z</time></trkpt><trkpt lat="48.046961183433794" lon="16.099687531012908"><ele>332.5</ele><time>2026-05-01T15:34:19.001Z</time></trkpt><trkpt lat="48.04685130164053" lon="16.09954505946355"><ele>331.0</ele><time>2026-05-01T15:34:20.001Z</time></trkpt><trkpt lat="48.04673838543504" lon="16.09942162254441"><ele>329.5</ele><time>2026-05-01T15:34:21.001Z</time></trkpt><trkpt lat="48.0466279088081" lon="16.099316171419705"><ele>328.0</ele><time>2026-05-01T15:34:22.001Z</time></trkpt><trkpt lat="48.04651620571024" lon="16.09922325494651"><ele>327.25</ele><time>2026-05-01T15:34:23.001Z</time></trkpt><trkpt lat="48.04640868345051" lon="16.099140740979024"><ele>326.5</ele><time>2026-05-01T15:34:24.001Z</time></trkpt><trkpt lat="48.04630292796929" lon="16.099059645893366"><ele>325.75</ele><time>2026-05-01T15:34:25.001Z</time></trkpt><trkpt lat="48.04619482196983" lon="16.09897864401254"><ele>325.0</ele><time>2026-05-01T15:34:26.001Z</time></trkpt><trkpt lat="48.04608384013886" lon="16.098900750159473"><ele>323.8</ele><time>2026-05-01T15:34:27.001Z</time></trkpt><trkpt lat="48.04597486454372" lon="16.098828455255344"><ele>322.6</ele><time>2026-05-01T15:34:28.001Z</time></trkpt><trkpt lat="48.04587060780109" lon="16.09876092298935"><ele>321.4</ele><time>2026-05-01T15:34:29.001Z</time></trkpt><trkpt lat="48.04577004353215" lon="16.098693165096407"><ele>320.2</ele><time>2026-05-01T15:34:30.001Z</time></trkpt><trkpt lat="48.04567438769543" lon="16.098625187984332"><ele>319.0</ele><time>2026-05-01T15:34:31.001Z</time></trkpt><trkpt lat="48.04556134033098" lon="16.098625279051934"><ele>317.2</ele><time>2026-05-01T15:34:32.001Z</time></trkpt><trkpt lat="48.04548412077974" lon="16.098569331423732"><ele>315.4</ele><time>2026-05-01T15:34:33.001Z</time></trkpt><trkpt lat="48.04541800662231" lon="16.098521533855102"><ele>313.6</ele><time>2026-05-01T15:34:34.001Z</time></trkpt><trkpt lat="48.04534787423046" lon="16.098376597197667"><ele>311.8</ele><time>2026-05-01T15:34:36.001Z</time></trkpt><trkpt lat="48.04528418760082" lon="16.098419137120597"><ele>310.0</ele><time>2026-05-01T15:34:38.001Z</time></trkpt><trkpt lat="48.04516273209422" lon="16.098538737560727"><ele>310.0</ele><time>2026-05-01T15:34:45.001Z</time></trkpt><trkpt lat="48.045118213588026" lon="16.098654585337357"><ele>310.0</ele><time>2026-05-01T15:34:46.001Z</time></trkpt><trkpt lat="48.04505979135228" lon="16.098798768908246"><ele>310.0</ele><time>2026-05-01T15:34:47.001Z</time></trkpt><trkpt lat="48.04499717671259" lon="16.098935230838034"><ele>310.0</ele><time>2026-05-01T15:34:48.001Z</time></trkpt><trkpt lat="48.04492674802513" lon="16.099072921123238"><ele>310.0</ele><time>2026-05-01T15:34:49.001Z</time></trkpt><trkpt lat="48.04484419132616" lon="16.099228805412153"><ele>309.5</ele><time>2026-05-01T15:34:50.001Z</time></trkpt><trkpt lat="48.04473708270138" lon="16.09937452889014"><ele>309.0</ele><time>2026-05-01T15:34:51.001Z</time></trkpt><trkpt lat="48.04463167597422" lon="16.099500370619644"><ele>308.5</ele><time>2026-05-01T15:34:52.001Z</time></trkpt><trkpt lat="48.044518021567754" lon="16.099626002606623"><ele>308.0</ele><time>2026-05-01T15:34:53.001Z</time></trkpt><trkpt lat="48.04440822274528" lon="16.09975784443332"><ele>308.0</ele><time>2026-05-01T15:34:54.001Z</time></trkpt><trkpt lat="48.04431263237532" lon="16.09990882934016"><ele>308.0</ele><time>2026-05-01T15:34:55.001Z</time></trkpt><trkpt lat="48.044222148147554" lon="16.100083509975082"><ele>308.0</ele><time>2026-05-01T15:34:56.001Z</time></trkpt><trkpt lat="48.04413532476452" lon="16.100300926653475"><ele>308.0</ele><time>2026-05-01T15:34:57.001Z</time></trkpt><trkpt lat="48.04403606516415" lon="16.10051739280545"><ele>308.0</ele><time>2026-05-01T15:34:58.001Z</time></trkpt><trkpt lat="48.043915874849304" lon="16.100694139281284"><ele>308.0</ele><time>2026-05-01T15:34:59.001Z</time></trkpt><trkpt lat="48.043796098541925" lon="16.10086298377462"><ele>308.33333333333337</ele><time>2026-05-01T15:35:00.001Z</time></trkpt><trkpt lat="48.04366509607068" lon="16.10102488633881"><ele>308.6666666666667</ele><time>2026-05-01T15:35:01.001Z</time></trkpt><trkpt lat="48.043531612259144" lon="16.10118852514192"><ele>309.0</ele><time>2026-05-01T15:35:02.001Z</time></trkpt><trkpt lat="48.04339228624188" lon="16.101359326057878"><ele>308.6666666666667</ele><time>2026-05-01T15:35:03.001Z</time></trkpt><trkpt lat="48.04326494963484" lon="16.101565469838988"><ele>308.33333333333337</ele><time>2026-05-01T15:35:04.001Z</time></trkpt><trkpt lat="48.043109341783726" lon="16.101741021584253"><ele>308.0</ele><time>2026-05-01T15:35:05.001Z</time></trkpt><trkpt lat="48.0429893270576" lon="16.101964191291955"><ele>308.0</ele><time>2026-05-01T15:35:06.001Z</time></trkpt><trkpt lat="48.042868267828005" lon="16.102186382133326"><ele>308.0</ele><time>2026-05-01T15:35:07.001Z</time></trkpt><trkpt lat="48.0427643145513" lon="16.102435818446402"><ele>308.0</ele><time>2026-05-01T15:35:08.001Z</time></trkpt><trkpt lat="48.042645409512595" lon="16.10269522064485"><ele>307.0</ele><time>2026-05-01T15:35:09.001Z</time></trkpt><trkpt lat="48.042527531537424" lon="16.102967147408577"><ele>306.0</ele><time>2026-05-01T15:35:10.001Z</time></trkpt><trkpt lat="48.04239862452017" lon="16.103209962717514"><ele>305.0</ele><time>2026-05-01T15:35:11.001Z</time></trkpt><trkpt lat="48.04225398278422" lon="16.103422254593205"><ele>305.0</ele><time>2026-05-01T15:35:12.001Z</time></trkpt><trkpt lat="48.04209002290049" lon="16.10360932897593"><ele>305.0</ele><time>2026-05-01T15:35:13.001Z</time></trkpt><trkpt lat="48.04190926966926" lon="16.10378686130138"><ele>305.0</ele><time>2026-05-01T15:35:14.001Z</time></trkpt><trkpt lat="48.041721163124926" lon="16.1039653259494"><ele>304.33333333333337</ele><time>2026-05-01T15:35:15.001Z</time></trkpt><trkpt lat="48.04153067194585" lon="16.10414010852992"><ele>303.6666666666667</ele><time>2026-05-01T15:35:16.001Z</time></trkpt><trkpt lat="48.04134150230418" lon="16.104293010956788"><ele>303.0</ele><time>2026-05-01T15:35:17.001Z</time></trkpt><trkpt lat="48.04115505820972" lon="16.1044314921291"><ele>303.0</ele><time>2026-05-01T15:35:18.001Z</time></trkpt><trkpt lat="48.040973507292236" lon="16.104569410184094"><ele>303.0</ele><time>2026-05-01T15:35:19.001Z</time></trkpt><trkpt lat="48.04079738558133" lon="16.10473212350366"><ele>303.0</ele><time>2026-05-01T15:35:20.001Z</time></trkpt><trkpt lat="48.040641148736775" lon="16.104936394905305"><ele>305.0</ele><time>2026-05-01T15:35:21.001Z</time></trkpt><trkpt lat="48.04047217789144" lon="16.105144369256966"><ele>307.0</ele><time>2026-05-01T15:35:22.001Z</time></trkpt><trkpt lat="48.04030026325581" lon="16.105354489495888"><ele>309.0</ele><time>2026-05-01T15:35:23.001Z</time></trkpt><trkpt lat="48.04013761134436" lon="16.105592959544403"><ele>312.0</ele><time>2026-05-01T15:35:24.001Z</time></trkpt><trkpt lat="48.03998565438422" lon="16.105843392693707"><ele>315.0</ele><time>2026-05-01T15:35:25.001Z</time></trkpt><trkpt lat="48.0398405554646" lon="16.10610813418042"><ele>316.0</ele><time>2026-05-01T15:35:26.001Z</time></trkpt><trkpt lat="48.03969712342076" lon="16.106375916784767"><ele>317.0</ele><time>2026-05-01T15:35:27.001Z</time></trkpt><trkpt lat="48.0395514705773" lon="16.106648686533283"><ele>314.0</ele><time>2026-05-01T15:35:28.001Z</time></trkpt><trkpt lat="48.03941169078139" lon="16.106915392350466"><ele>311.0</ele><time>2026-05-01T15:35:29.001Z</time></trkpt><trkpt lat="48.03927395130661" lon="16.107178205029047"><ele>313.0</ele><time>2026-05-01T15:35:30.001Z</time></trkpt><trkpt lat="48.03912921734534" lon="16.10744306452432"><ele>315.0</ele><time>2026-05-01T15:35:31.001Z</time></trkpt><trkpt lat="48.03898134490607" lon="16.10771228710742"><ele>315.0</ele><time>2026-05-01T15:35:32.001Z</time></trkpt><trkpt lat="48.038832427302005" lon="16.107976142088766"><ele>315.0</ele><time>2026-05-01T15:35:33.001Z</time></trkpt><trkpt lat="48.038676972204414" lon="16.10822642768446"><ele>312.5</ele><time>2026-05-01T15:35:34.001Z</time></trkpt><trkpt lat="48.03851422553262" lon="16.108461360389796"><ele>310.0</ele><time>2026-05-01T15:35:35.001Z</time></trkpt><trkpt lat="48.038339689485696" lon="16.108675212809068"><ele>313.0</ele><time>2026-05-01T15:35:36.001Z</time></trkpt><trkpt lat="48.038151084031874" lon="16.10886807987703"><ele>316.0</ele><time>2026-05-01T15:35:37.001Z</time></trkpt><trkpt lat="48.03795375605471" lon="16.109061421379963"><ele>311.5</ele><time>2026-05-01T15:35:38.001Z</time></trkpt><trkpt lat="48.03775438408129" lon="16.109254010734865"><ele>307.0</ele><time>2026-05-01T15:35:39.001Z</time></trkpt><trkpt lat="48.037558044922484" lon="16.109466614795092"><ele>307.0</ele><time>2026-05-01T15:35:40.001Z</time></trkpt><trkpt lat="48.03734035366866" lon="16.1096495272267"><ele>307.0</ele><time>2026-05-01T15:35:41.001Z</time></trkpt><trkpt lat="48.037140527997586" lon="16.10984222433878"><ele>304.0</ele><time>2026-05-01T15:35:42Z</time></trkpt><trkpt lat="48.03694342208523" lon="16.110035929658768"><ele>301.0</ele><time>2026-05-01T15:35:43Z</time></trkpt><trkpt lat="48.0367583801094" lon="16.110245822104428"><ele>304.0</ele><time>2026-05-01T15:35:44Z</time></trkpt><trkpt lat="48.03656903175319" lon="16.110430224474413"><ele>307.0</ele><time>2026-05-01T15:35:45Z</time></trkpt><trkpt lat="48.03638550993937" lon="16.11061545820379"><ele>310.0</ele><time>2026-05-01T15:35:46Z</time></trkpt><trkpt lat="48.036190653796325" lon="16.11075526326016"><ele>310.0</ele><time>2026-05-01T15:35:47Z</time></trkpt><trkpt lat="48.03599095639302" lon="16.11085422600329"><ele>310.0</ele><time>2026-05-01T15:35:48Z</time></trkpt><trkpt lat="48.035777718570124" lon="16.110903259946742"><ele>310.0</ele><time>2026-05-01T15:35:49Z</time></trkpt><trkpt lat="48.03555143442331" lon="16.110946845936393"><ele>310.5</ele><time>2026-05-01T15:35:50Z</time></trkpt><trkpt lat="48.03532412419251" lon="16.11100726699065"><ele>311.0</ele><time>2026-05-01T15:35:51Z</time></trkpt><trkpt lat="48.03509452527046" lon="16.11104740461076"><ele>308.33333333333337</ele><time>2026-05-01T15:35:52Z</time></trkpt><trkpt lat="48.03487593460647" lon="16.11109889473938"><ele>305.6666666666667</ele><time>2026-05-01T15:35:53Z</time></trkpt><trkpt lat="48.034671008663196" lon="16.11118509438026"><ele>303.0</ele><time>2026-05-01T15:35:54Z</time></trkpt><trkpt lat="48.034479730385684" lon="16.111318837522106"><ele>303.0</ele><time>2026-05-01T15:35:55Z</time></trkpt><trkpt lat="48.034307271535155" lon="16.111499934194114"><ele>303.0</ele><time>2026-05-01T15:35:56Z</time></trkpt><trkpt lat="48.03415355916956" lon="16.111722327286017"><ele>303.0</ele><time>2026-05-01T15:35:57Z</time></trkpt><trkpt lat="48.0340243672129" lon="16.11197851754996"><ele>302.0</ele><time>2026-05-01T15:35:58Z</time></trkpt><trkpt lat="48.03389896610615" lon="16.11224870365226"><ele>301.0</ele><time>2026-05-01T15:35:59Z</time></trkpt><trkpt lat="48.03377050876888" lon="16.112526298509305"><ele>300.0</ele><time>2026-05-01T15:36:00Z</time></trkpt><trkpt lat="48.0336367983628" lon="16.11276437993435"><ele>300.0</ele><time>2026-05-01T15:36:01Z</time></trkpt><trkpt lat="48.033487637603436" lon="16.11298030064645"><ele>300.0</ele><time>2026-05-01T15:36:02Z</time></trkpt><trkpt lat="48.033318015230996" lon="16.113174776701012"><ele>300.0</ele><time>2026-05-01T15:36:03Z</time></trkpt><trkpt lat="48.03313177847589" lon="16.113354646900767"><ele>300.3333333333333</ele><time>2026-05-01T15:36:04Z</time></trkpt><trkpt lat="48.032963763580966" lon="16.113543522914334"><ele>300.66666666666663</ele><time>2026-05-01T15:36:05Z</time></trkpt><trkpt lat="48.03282370148807" lon="16.11375872923085"><ele>301.0</ele><time>2026-05-01T15:36:06Z</time></trkpt><trkpt lat="48.032691650128115" lon="16.114002605897294"><ele>302.3333333333333</ele><time>2026-05-01T15:36:07Z</time></trkpt><trkpt lat="48.032569473369925" lon="16.11428068036602"><ele>303.6666666666667</ele><time>2026-05-01T15:36:08Z</time></trkpt><trkpt lat="48.03244143508464" lon="16.11453639141622"><ele>305.0</ele><time>2026-05-01T15:36:09Z</time></trkpt><trkpt lat="48.03228138141122" lon="16.11473938321085"><ele>304.5</ele><time>2026-05-01T15:36:10Z</time></trkpt><trkpt lat="48.032094674904044" lon="16.11492655580032"><ele>304.0</ele><time>2026-05-01T15:36:11Z</time></trkpt><trkpt lat="48.0318980133113" lon="16.11512388673344"><ele>304.0</ele><time>2026-05-01T15:36:12Z</time></trkpt><trkpt lat="48.031701793159584" lon="16.115338576818537"><ele>304.0</ele><time>2026-05-01T15:36:13Z</time></trkpt><trkpt lat="48.031507503086104" lon="16.11555626626806"><ele>303.5</ele><time>2026-05-01T15:36:14Z</time></trkpt><trkpt lat="48.03131508615079" lon="16.11577276227008"><ele>303.0</ele><time>2026-05-01T15:36:15Z</time></trkpt><trkpt lat="48.031132310598224" lon="16.11598132324872"><ele>303.0</ele><time>2026-05-01T15:36:16Z</time></trkpt><trkpt lat="48.03096509729609" lon="16.116181357705685"><ele>303.0</ele><time>2026-05-01T15:36:17Z</time></trkpt><trkpt lat="48.03082833986739" lon="16.116388690895977"><ele>303.0</ele><time>2026-05-01T15:36:18Z</time></trkpt><trkpt lat="48.03072635431462" lon="16.116615689769766"><ele>304.0</ele><time>2026-05-01T15:36:19Z</time></trkpt><trkpt lat="48.03064740127394" lon="16.116847011352927"><ele>305.0</ele><time>2026-05-01T15:36:20Z</time></trkpt><trkpt lat="48.030577269793454" lon="16.117085840012596"><ele>306.0</ele><time>2026-05-01T15:36:21Z</time></trkpt><trkpt lat="48.03052231940257" lon="16.117344571616314"><ele>302.6666666666667</ele><time>2026-05-01T15:36:22Z</time></trkpt><trkpt lat="48.030471513516154" lon="16.117613917619593"><ele>299.33333333333337</ele><time>2026-05-01T15:36:23Z</time></trkpt><trkpt lat="48.03041466354032" lon="16.117887913384138"><ele>296.0</ele><time>2026-05-01T15:36:24Z</time></trkpt><trkpt lat="48.030358970538174" lon="16.11817112710048"><ele>296.6666666666667</ele><time>2026-05-01T15:36:25Z</time></trkpt><trkpt lat="48.03030527203643" lon="16.118456002277956"><ele>297.3333333333333</ele><time>2026-05-01T15:36:26Z</time></trkpt><trkpt lat="48.03026381499033" lon="16.118754604903998"><ele>298.0</ele><time>2026-05-01T15:36:27.001Z</time></trkpt><trkpt lat="48.03022554377447" lon="16.11905358235116"><ele>299.0</ele><time>2026-05-01T15:36:28.001Z</time></trkpt><trkpt lat="48.03019308291859" lon="16.11935653205788"><ele>300.0</ele><time>2026-05-01T15:36:29.001Z</time></trkpt><trkpt lat="48.030158835908026" lon="16.119636183149904"><ele>301.0</ele><time>2026-05-01T15:36:30.001Z</time></trkpt><trkpt lat="48.03014448948304" lon="16.11990127216208"><ele>301.0</ele><time>2026-05-01T15:36:31.001Z</time></trkpt><trkpt lat="48.03015039605568" lon="16.120157061381743"><ele>301.0</ele><time>2026-05-01T15:36:32.001Z</time></trkpt><trkpt lat="48.03020054598663" lon="16.12042030231774"><ele>301.0</ele><time>2026-05-01T15:36:33.001Z</time></trkpt><trkpt lat="48.03027732622753" lon="16.120703992519292"><ele>299.0</ele><time>2026-05-01T15:36:34.001Z</time></trkpt><trkpt lat="48.03034903212208" lon="16.12100716245189"><ele>297.0</ele><time>2026-05-01T15:36:35.001Z</time></trkpt><trkpt lat="48.03041564321886" lon="16.12132703587813"><ele>295.0</ele><time>2026-05-01T15:36:36.001Z</time></trkpt><trkpt lat="48.030477889949694" lon="16.12166462478929"><ele>294.5</ele><time>2026-05-01T15:36:37.001Z</time></trkpt><trkpt lat="48.030540667634064" lon="16.12200461997195"><ele>294.0</ele><time>2026-05-01T15:36:38.001Z</time></trkpt><trkpt lat="48.030599087643004" lon="16.122334510547986"><ele>292.3333333333333</ele><time>2026-05-01T15:36:39.001Z</time></trkpt><trkpt lat="48.03066093291425" lon="16.122656278333952"><ele>290.66666666666663</ele><time>2026-05-01T15:36:40.001Z</time></trkpt><trkpt lat="48.030717445843266" lon="16.122959961556017"><ele>289.0</ele><time>2026-05-01T15:36:41.001Z</time></trkpt><trkpt lat="48.030750889780755" lon="16.123253752075026"><ele>289.0</ele><time>2026-05-01T15:36:42.001Z</time></trkpt><trkpt lat="48.030738186557684" lon="16.123547058474962"><ele>289.0</ele><time>2026-05-01T15:36:43.001Z</time></trkpt><trkpt lat="48.0306820782335" lon="16.123856013388412"><ele>289.0</ele><time>2026-05-01T15:36:44.001Z</time></trkpt><trkpt lat="48.030608490822175" lon="16.124184567097018"><ele>291.0</ele><time>2026-05-01T15:36:45.001Z</time></trkpt><trkpt lat="48.03053308432295" lon="16.124531634760718"><ele>293.0</ele><time>2026-05-01T15:36:46.001Z</time></trkpt><trkpt lat="48.030460058843644" lon="16.1248911260542"><ele>294.0</ele><time>2026-05-01T15:36:47.001Z</time></trkpt><trkpt lat="48.03038947532705" lon="16.125245121320212"><ele>295.0</ele><time>2026-05-01T15:36:48.001Z</time></trkpt><trkpt lat="48.03032074177944" lon="16.12558944006639"><ele>294.5</ele><time>2026-05-01T15:36:49.001Z</time></trkpt><trkpt lat="48.03024898019733" lon="16.12593973693653"><ele>294.0</ele><time>2026-05-01T15:36:50.001Z</time></trkpt><trkpt lat="48.03018077003289" lon="16.126295670101513"><ele>294.0</ele><time>2026-05-01T15:36:51.001Z</time></trkpt><trkpt lat="48.030115008578605" lon="16.126651585771747"><ele>294.0</ele><time>2026-05-01T15:36:52.001Z</time></trkpt><trkpt lat="48.03004911152476" lon="16.127007329449455"><ele>294.0</ele><time>2026-05-01T15:36:53.001Z</time></trkpt><trkpt lat="48.02997862401473" lon="16.127356853543986"><ele>294.0</ele><time>2026-05-01T15:36:54.001Z</time></trkpt><trkpt lat="48.02989955563972" lon="16.127695083256846"><ele>294.5</ele><time>2026-05-01T15:36:55.001Z</time></trkpt><trkpt lat="48.02980333261787" lon="16.128021575058128"><ele>295.0</ele><time>2026-05-01T15:36:56.001Z</time></trkpt><trkpt lat="48.029682261551045" lon="16.128327172724596"><ele>295.0</ele><time>2026-05-01T15:36:57.001Z</time></trkpt><trkpt lat="48.029519200636265" lon="16.128593368189197"><ele>295.0</ele><time>2026-05-01T15:36:58.001Z</time></trkpt><trkpt lat="48.0293525862325" lon="16.128854724909566"><ele>298.0</ele><time>2026-05-01T15:36:59.001Z</time></trkpt><trkpt lat="48.029181697129054" lon="16.129122766598893"><ele>301.0</ele><time>2026-05-01T15:37:00.001Z</time></trkpt><trkpt lat="48.02900963249033" lon="16.129388098441893"><ele>304.0</ele><time>2026-05-01T15:37:01.001Z</time></trkpt><trkpt lat="48.02883516867353" lon="16.129642097372"><ele>307.0</ele><time>2026-05-01T15:37:02.001Z</time></trkpt><trkpt lat="48.02866016555591" lon="16.129893422546157"><ele>307.0</ele><time>2026-05-01T15:37:03.001Z</time></trkpt><trkpt lat="48.02848781741067" lon="16.130143705843103"><ele>307.0</ele><time>2026-05-01T15:37:04.001Z</time></trkpt><trkpt lat="48.02832377356308" lon="16.13039539503052"><ele>315.0</ele><time>2026-05-01T15:37:05.001Z</time></trkpt><trkpt lat="48.02817904013851" lon="16.13066651150967"><ele>323.0</ele><time>2026-05-01T15:37:06.001Z</time></trkpt><trkpt lat="48.028061027089755" lon="16.13096175828226"><ele>323.0</ele><time>2026-05-01T15:37:07.001Z</time></trkpt><trkpt lat="48.02796149685818" lon="16.131278211268498"><ele>323.0</ele><time>2026-05-01T15:37:08.001Z</time></trkpt><trkpt lat="48.02787762564076" lon="16.131607726792982"><ele>316.0</ele><time>2026-05-01T15:37:09.001Z</time></trkpt><trkpt lat="48.02781114753122" lon="16.131949832950568"><ele>309.0</ele><time>2026-05-01T15:37:10.001Z</time></trkpt><trkpt lat="48.02777158685918" lon="16.132304415574495"><ele>307.5</ele><time>2026-05-01T15:37:11.001Z</time></trkpt><trkpt lat="48.027752897636105" lon="16.13266516278071"><ele>306.0</ele><time>2026-05-01T15:37:12.001Z</time></trkpt><trkpt lat="48.0277340828812" lon="16.13303132970698"><ele>306.5</ele><time>2026-05-01T15:37:13.001Z</time></trkpt><trkpt lat="48.02771172973316" lon="16.1334010732474"><ele>307.0</ele><time>2026-05-01T15:37:14.001Z</time></trkpt><trkpt lat="48.02768830694285" lon="16.133774710018283"><ele>305.5</ele><time>2026-05-01T15:37:15.001Z</time></trkpt><trkpt lat="48.02766422850015" lon="16.134148192633536"><ele>304.0</ele><time>2026-05-01T15:37:16.001Z</time></trkpt><trkpt lat="48.027643792383486" lon="16.13451688868834"><ele>304.0</ele><time>2026-05-01T15:37:17.001Z</time></trkpt><trkpt lat="48.0276232480975" lon="16.134882388412706"><ele>304.0</ele><time>2026-05-01T15:37:18.001Z</time></trkpt><trkpt lat="48.02760777442391" lon="16.13524401090045"><ele>301.0</ele><time>2026-05-01T15:37:19.001Z</time></trkpt><trkpt lat="48.027611051779935" lon="16.135599833790646"><ele>298.0</ele><time>2026-05-01T15:37:20.001Z</time></trkpt><trkpt lat="48.02763374083849" lon="16.13593703818534"><ele>298.0</ele><time>2026-05-01T15:37:21.001Z</time></trkpt><trkpt lat="48.02766462993833" lon="16.13625180976545"><ele>298.0</ele><time>2026-05-01T15:37:22.001Z</time></trkpt><trkpt lat="48.02769840198063" lon="16.13653873579988"><ele>298.0</ele><time>2026-05-01T15:37:23.001Z</time></trkpt><trkpt lat="48.027734950413254" lon="16.13679885893223"><ele>298.0</ele><time>2026-05-01T15:37:24.001Z</time></trkpt><trkpt lat="48.027791416058264" lon="16.137019611408476"><ele>298.0</ele><time>2026-05-01T15:37:25.001Z</time></trkpt><trkpt lat="48.02788215940179" lon="16.13720074641382"><ele>298.0</ele><time>2026-05-01T15:37:26.001Z</time></trkpt><trkpt lat="48.02800353710361" lon="16.137337794844214"><ele>299.0</ele><time>2026-05-01T15:37:27.001Z</time></trkpt><trkpt lat="48.02817304818754" lon="16.13743560248187"><ele>300.0</ele><time>2026-05-01T15:37:28.001Z</time></trkpt><trkpt lat="48.0283683543985" lon="16.13750830389934"><ele>301.0</ele><time>2026-05-01T15:37:29.001Z</time></trkpt><trkpt lat="48.02857012369505" lon="16.137595258730503"><ele>297.3333333333333</ele><time>2026-05-01T15:37:30.001Z</time></trkpt><trkpt lat="48.02877481907094" lon="16.13769402668697"><ele>293.6666666666667</ele><time>2026-05-01T15:37:31.001Z</time></trkpt><trkpt lat="48.0289678239178" lon="16.137794109675106"><ele>290.0</ele><time>2026-05-01T15:37:32.001Z</time></trkpt><trkpt lat="48.029143729410045" lon="16.13788524863449"><ele>287.6666666666667</ele><time>2026-05-01T15:37:33.001Z</time></trkpt><trkpt lat="48.02930422462969" lon="16.137974926478204"><ele>285.3333333333333</ele><time>2026-05-01T15:37:34.001Z</time></trkpt><trkpt lat="48.029453799449186" lon="16.138052225793224"><ele>283.0</ele><time>2026-05-01T15:37:35.001Z</time></trkpt><trkpt lat="48.02959236501987" lon="16.13812282271196"><ele>283.0</ele><time>2026-05-01T15:37:36.001Z</time></trkpt><trkpt lat="48.02972868305749" lon="16.138188668484748"><ele>283.0</ele><time>2026-05-01T15:37:37.001Z</time></trkpt><trkpt lat="48.02986624751067" lon="16.138255413708496"><ele>283.0</ele><time>2026-05-01T15:37:38.001Z</time></trkpt><trkpt lat="48.029997343976525" lon="16.138320419311125"><ele>283.0</ele><time>2026-05-01T15:37:39.001Z</time></trkpt><trkpt lat="48.030120228641735" lon="16.13838307444659"><ele>283.25</ele><time>2026-05-01T15:37:40.001Z</time></trkpt><trkpt lat="48.030235125796594" lon="16.138440045764234"><ele>283.5</ele><time>2026-05-01T15:37:41.001Z</time></trkpt><trkpt lat="48.03034656275259" lon="16.138496558416445"><ele>283.75</ele><time>2026-05-01T15:37:42.001Z</time></trkpt><trkpt lat="48.03046065132977" lon="16.13855642287938"><ele>284.0</ele><time>2026-05-01T15:37:43.001Z</time></trkpt><trkpt lat="48.03057158803549" lon="16.138629631507182"><ele>284.0</ele><time>2026-05-01T15:37:44.001Z</time></trkpt><trkpt lat="48.03067685105875" lon="16.13872135794509"><ele>284.0</ele><time>2026-05-01T15:37:45.001Z</time></trkpt><trkpt lat="48.03077095241841" lon="16.13883610686253"><ele>284.0</ele><time>2026-05-01T15:37:46.001Z</time></trkpt><trkpt lat="48.030850553617945" lon="16.138975595053303"><ele>284.0</ele><time>2026-05-01T15:37:47Z</time></trkpt><trkpt lat="48.03091419069575" lon="16.139133791761505"><ele>284.25</ele><time>2026-05-01T15:37:48Z</time></trkpt><trkpt lat="48.03097024243019" lon="16.139305953211885"><ele>284.5</ele><time>2026-05-01T15:37:49Z</time></trkpt><trkpt lat="48.03101311236584" lon="16.139486213213598"><ele>284.75</ele><time>2026-05-01T15:37:50Z</time></trkpt><trkpt lat="48.03104678677411" lon="16.13966890230176"><ele>285.0</ele><time>2026-05-01T15:37:51Z</time></trkpt><trkpt lat="48.03107952375536" lon="16.139849978847707"><ele>285.0</ele><time>2026-05-01T15:37:52Z</time></trkpt><trkpt lat="48.03110953180731" lon="16.140029198383026"><ele>285.0</ele><time>2026-05-01T15:37:53Z</time></trkpt><trkpt lat="48.03113849512356" lon="16.140207636156244"><ele>285.0</ele><time>2026-05-01T15:37:54Z</time></trkpt><trkpt lat="48.03116953395" lon="16.14038371749223"><ele>285.0</ele><time>2026-05-01T15:37:55Z</time></trkpt><trkpt lat="48.03120210240937" lon="16.140558428981475"><ele>285.25</ele><time>2026-05-01T15:37:56Z</time></trkpt><trkpt lat="48.031234655947245" lon="16.140731241512707"><ele>285.5</ele><time>2026-05-01T15:37:57Z</time></trkpt><trkpt lat="48.03126644493361" lon="16.140904542689036"><ele>285.75</ele><time>2026-05-01T15:37:58Z</time></trkpt><trkpt lat="48.031296628353516" lon="16.141077385083324"><ele>286.0</ele><time>2026-05-01T15:37:59Z</time></trkpt><trkpt lat="48.0313248973763" lon="16.141249556453545"><ele>286.0</ele><time>2026-05-01T15:38:00Z</time></trkpt><trkpt lat="48.03135270137588" lon="16.14141878187387"><ele>286.0</ele><time>2026-05-01T15:38:01Z</time></trkpt><trkpt lat="48.03138324255548" lon="16.141586020347123"><ele>286.0</ele><time>2026-05-01T15:38:02Z</time></trkpt><trkpt lat="48.031419250491105" lon="16.14175154728719"><ele>286.0</ele><time>2026-05-01T15:38:03Z</time></trkpt><trkpt lat="48.031433978164415" lon="16.14192208860209"><ele>285.8</ele><time>2026-05-01T15:38:04Z</time></trkpt><trkpt lat="48.03145087020987" lon="16.142085771288393"><ele>285.6</ele><time>2026-05-01T15:38:05Z</time></trkpt><trkpt lat="48.03144488084769" lon="16.142249581110832"><ele>285.4</ele><time>2026-05-01T15:38:06Z</time></trkpt><trkpt lat="48.03141982892813" lon="16.14240953188615"><ele>285.2</ele><time>2026-05-01T15:38:07Z</time></trkpt><trkpt lat="48.03137624997731" lon="16.142560071054668"><ele>285.0</ele><time>2026-05-01T15:38:08Z</time></trkpt><trkpt lat="48.0313259371213" lon="16.142717254855715"><ele>284.75</ele><time>2026-05-01T15:38:09Z</time></trkpt><trkpt lat="48.03127140807777" lon="16.14287625111559"><ele>284.5</ele><time>2026-05-01T15:38:10Z</time></trkpt><trkpt lat="48.031214333846535" lon="16.143040042523495"><ele>284.25</ele><time>2026-05-01T15:38:11Z</time></trkpt><trkpt lat="48.03115543599909" lon="16.1432057338794"><ele>284.0</ele><time>2026-05-01T15:38:12Z</time></trkpt><trkpt lat="48.03109131702808" lon="16.143375808616323"><ele>284.0</ele><time>2026-05-01T15:38:13Z</time></trkpt><trkpt lat="48.03101460868469" lon="16.143554808511702"><ele>284.0</ele><time>2026-05-01T15:38:14Z</time></trkpt><trkpt lat="48.030924367055434" lon="16.143738687035686"><ele>284.0</ele><time>2026-05-01T15:38:15Z</time></trkpt><trkpt lat="48.03081351142653" lon="16.143930891737853"><ele>283.33333333333337</ele><time>2026-05-01T15:38:16Z</time></trkpt><trkpt lat="48.03068221285295" lon="16.144124182641903"><ele>282.6666666666667</ele><time>2026-05-01T15:38:17Z</time></trkpt><trkpt lat="48.03053235905047" lon="16.144312878912388"><ele>282.0</ele><time>2026-05-01T15:38:18Z</time></trkpt><trkpt lat="48.03038291629548" lon="16.144482129672085"><ele>282.0</ele><time>2026-05-01T15:38:19Z</time></trkpt><trkpt lat="48.030215310859525" lon="16.144647325418166"><ele>282.0</ele><time>2026-05-01T15:38:20Z</time></trkpt><trkpt lat="48.03003201241136" lon="16.144803439353947"><ele>282.0</ele><time>2026-05-01T15:38:21Z</time></trkpt><trkpt lat="48.0298385912207" lon="16.144932131954942"><ele>285.6666666666667</ele><time>2026-05-01T15:38:22Z</time></trkpt><trkpt lat="48.02964405257688" lon="16.145024927333658"><ele>289.33333333333337</ele><time>2026-05-01T15:38:23Z</time></trkpt><trkpt lat="48.02945161505721" lon="16.145068519407907"><ele>293.0</ele><time>2026-05-01T15:38:24Z</time></trkpt><trkpt lat="48.02924244859528" lon="16.145081189806945"><ele>291.0</ele><time>2026-05-01T15:38:25Z</time></trkpt><trkpt lat="48.02902524765001" lon="16.145061505385748"><ele>289.0</ele><time>2026-05-01T15:38:26Z</time></trkpt><trkpt lat="48.028800871475326" lon="16.145035068954087"><ele>287.0</ele><time>2026-05-01T15:38:27Z</time></trkpt><trkpt lat="48.02859004989111" lon="16.14501633057393"><ele>287.0</ele><time>2026-05-01T15:38:28Z</time></trkpt><trkpt lat="48.02839035487275" lon="16.14501347554194"><ele>287.0</ele><time>2026-05-01T15:38:29Z</time></trkpt><trkpt lat="48.02820390029186" lon="16.14505525202976"><ele>287.0</ele><time>2026-05-01T15:38:30Z</time></trkpt><trkpt lat="48.028033433642285" lon="16.14515145128014"><ele>284.6666666666667</ele><time>2026-05-01T15:38:31Z</time></trkpt><trkpt lat="48.0278960626386" lon="16.145319587109892"><ele>282.3333333333333</ele><time>2026-05-01T15:38:32Z</time></trkpt><trkpt lat="48.027771247117656" lon="16.145489320297994"><ele>280.0</ele><time>2026-05-01T15:38:33Z</time></trkpt><trkpt lat="48.02766131268854" lon="16.145711991116144"><ele>280.0</ele><time>2026-05-01T15:38:34Z</time></trkpt><trkpt lat="48.027568027039756" lon="16.145999780342898"><ele>280.0</ele><time>2026-05-01T15:38:35Z</time></trkpt><trkpt lat="48.02748274376623" lon="16.146315140961075"><ele>280.0</ele><time>2026-05-01T15:38:36Z</time></trkpt><trkpt lat="48.027385561969865" lon="16.14663569401094"><ele>280.0</ele><time>2026-05-01T15:38:37Z</time></trkpt><trkpt lat="48.0272975622134" lon="16.146948905343102"><ele>280.0</ele><time>2026-05-01T15:38:38Z</time></trkpt><trkpt lat="48.0272320622113" lon="16.147274277020816"><ele>279.0</ele><time>2026-05-01T15:38:39Z</time></trkpt><trkpt lat="48.027193135187716" lon="16.147616611711523"><ele>278.0</ele><time>2026-05-01T15:38:40Z</time></trkpt><trkpt lat="48.02716745894791" lon="16.147958920240495"><ele>279.6666666666667</ele><time>2026-05-01T15:38:41Z</time></trkpt><trkpt lat="48.027167503541214" lon="16.14829748251511"><ele>281.3333333333333</ele><time>2026-05-01T15:38:42Z</time></trkpt><trkpt lat="48.02718438179294" lon="16.148616679341746"><ele>283.0</ele><time>2026-05-01T15:38:43Z</time></trkpt><trkpt lat="48.02721357081601" lon="16.14889736596053"><ele>282.3333333333333</ele><time>2026-05-01T15:38:44Z</time></trkpt><trkpt lat="48.02728008929579" lon="16.14916113087337"><ele>281.6666666666667</ele><time>2026-05-01T15:38:45.001Z</time></trkpt><trkpt lat="48.02738407513986" lon="16.149418263861012"><ele>281.0</ele><time>2026-05-01T15:38:46.001Z</time></trkpt><trkpt lat="48.02746630761131" lon="16.149696321967575"><ele>284.0</ele><time>2026-05-01T15:38:47.001Z</time></trkpt><trkpt lat="48.027518564155294" lon="16.149985276696096"><ele>287.0</ele><time>2026-05-01T15:38:48.001Z</time></trkpt><trkpt lat="48.02753065241336" lon="16.15029971050041"><ele>290.0</ele><time>2026-05-01T15:38:49.001Z</time></trkpt><trkpt lat="48.02753252424259" lon="16.150651487166865"><ele>289.0</ele><time>2026-05-01T15:38:50.001Z</time></trkpt><trkpt lat="48.02754254419613" lon="16.15101457703165"><ele>288.0</ele><time>2026-05-01T15:38:51.001Z</time></trkpt><trkpt lat="48.02756076234169" lon="16.15137418014569"><ele>290.5</ele><time>2026-05-01T15:38:52.001Z</time></trkpt><trkpt lat="48.027575554894234" lon="16.151722844042812"><ele>293.0</ele><time>2026-05-01T15:38:53.001Z</time></trkpt><trkpt lat="48.027586337459404" lon="16.152048038989786"><ele>293.0</ele><time>2026-05-01T15:38:54.001Z</time></trkpt><trkpt lat="48.02759095556518" lon="16.152351512738683"><ele>293.0</ele><time>2026-05-01T15:38:55.001Z</time></trkpt><trkpt lat="48.02755608106776" lon="16.152636788452032"><ele>293.0</ele><time>2026-05-01T15:38:56.001Z</time></trkpt><trkpt lat="48.02752057200524" lon="16.15290140766715"><ele>287.0</ele><time>2026-05-01T15:38:57.001Z</time></trkpt><trkpt lat="48.02747687216453" lon="16.153148211903453"><ele>281.0</ele><time>2026-05-01T15:38:58.001Z</time></trkpt><trkpt lat="48.02742946365672" lon="16.153378193202702"><ele>275.0</ele><time>2026-05-01T15:38:59.001Z</time></trkpt><trkpt lat="48.02738366256022" lon="16.15358923691828"><ele>275.25</ele><time>2026-05-01T15:39:00.001Z</time></trkpt><trkpt lat="48.02733484104704" lon="16.153790900475265"><ele>275.5</ele><time>2026-05-01T15:39:01.001Z</time></trkpt><trkpt lat="48.027282672586445" lon="16.153988770420472"><ele>275.75</ele><time>2026-05-01T15:39:02.001Z</time></trkpt><trkpt lat="48.0272237570917" lon="16.154179078781784"><ele>276.0</ele><time>2026-05-01T15:39:03.001Z</time></trkpt><trkpt lat="48.02715515154026" lon="16.154350169148238"><ele>276.0</ele><time>2026-05-01T15:39:04.001Z</time></trkpt><trkpt lat="48.027075902087844" lon="16.15452037922666"><ele>276.0</ele><time>2026-05-01T15:39:05.001Z</time></trkpt><trkpt lat="48.02698944677986" lon="16.15467631449468"><ele>276.0</ele><time>2026-05-01T15:39:06.001Z</time></trkpt><trkpt lat="48.026894474955945" lon="16.15481334978372"><ele>276.0</ele><time>2026-05-01T15:39:07.001Z</time></trkpt><trkpt lat="48.02679353530236" lon="16.15494506269703"><ele>276.75</ele><time>2026-05-01T15:39:08.001Z</time></trkpt><trkpt lat="48.02668977104067" lon="16.155052974566086"><ele>277.5</ele><time>2026-05-01T15:39:09.001Z</time></trkpt><trkpt lat="48.02658001559781" lon="16.15515477271243"><ele>278.25</ele><time>2026-05-01T15:39:10.001Z</time></trkpt><trkpt lat="48.0264691461933" lon="16.155233767268367"><ele>279.0</ele><time>2026-05-01T15:39:11.001Z</time></trkpt><trkpt lat="48.02635244961389" lon="16.155306414863087"><ele>279.0</ele><time>2026-05-01T15:39:12.001Z</time></trkpt><trkpt lat="48.02623391660545" lon="16.155386230089622"><ele>279.0</ele><time>2026-05-01T15:39:13.001Z</time></trkpt><trkpt lat="48.02612437765217" lon="16.155483976272553"><ele>279.0</ele><time>2026-05-01T15:39:14.001Z</time></trkpt><trkpt lat="48.026028838122365" lon="16.155583742596008"><ele>279.0</ele><time>2026-05-01T15:39:15.001Z</time></trkpt><trkpt lat="48.025943139059606" lon="16.155723923595392"><ele>278.0</ele><time>2026-05-01T15:39:16.001Z</time></trkpt><trkpt lat="48.02586216058968" lon="16.155873899368814"><ele>277.0</ele><time>2026-05-01T15:39:17.001Z</time></trkpt><trkpt lat="48.0257938924052" lon="16.156040011442734"><ele>276.0</ele><time>2026-05-01T15:39:18.001Z</time></trkpt><trkpt lat="48.0257541343513" lon="16.156229588035078"><ele>275.0</ele><time>2026-05-01T15:39:19.001Z</time></trkpt><trkpt lat="48.02571621891207" lon="16.15642473893244"><ele>275.0</ele><time>2026-05-01T15:39:20.001Z</time></trkpt><trkpt lat="48.02569309345109" lon="16.156633751639692"><ele>275.0</ele><time>2026-05-01T15:39:21.001Z</time></trkpt><trkpt lat="48.02565546744498" lon="16.156835149651222"><ele>275.0</ele><time>2026-05-01T15:39:22.001Z</time></trkpt><trkpt lat="48.025625593123536" lon="16.15703851691814"><ele>275.0</ele><time>2026-05-01T15:39:23.001Z</time></trkpt><trkpt lat="48.025595740140446" lon="16.157241738950393"><ele>275.5</ele><time>2026-05-01T15:39:24.001Z</time></trkpt><trkpt lat="48.025549396814185" lon="16.15743919641282"><ele>276.0</ele><time>2026-05-01T15:39:25.001Z</time></trkpt><trkpt lat="48.02550078211613" lon="16.157644236965744"><ele>276.5</ele><time>2026-05-01T15:39:26.001Z</time></trkpt><trkpt lat="48.025448555843695" lon="16.157847390342116"><ele>277.0</ele><time>2026-05-01T15:39:27.001Z</time></trkpt><trkpt lat="48.025394486989555" lon="16.15804504787053"><ele>277.5</ele><time>2026-05-01T15:39:28.001Z</time></trkpt><trkpt lat="48.0253346338121" lon="16.158220261791158"><ele>278.0</ele><time>2026-05-01T15:39:29.001Z</time></trkpt><trkpt lat="48.02525652006866" lon="16.158363066694406"><ele>278.5</ele><time>2026-05-01T15:39:30.001Z</time></trkpt><trkpt lat="48.02515788480636" lon="16.158501220898902"><ele>279.0</ele><time>2026-05-01T15:39:31.001Z</time></trkpt><trkpt lat="48.02505822889292" lon="16.15864030490984"><ele>278.75</ele><time>2026-05-01T15:39:32.001Z</time></trkpt><trkpt lat="48.024969819490344" lon="16.158783716610532"><ele>278.5</ele><time>2026-05-01T15:39:33.001Z</time></trkpt><trkpt lat="48.024903448580844" lon="16.158959820400796"><ele>278.25</ele><time>2026-05-01T15:39:34.001Z</time></trkpt><trkpt lat="48.0248287844748" lon="16.159137977778265"><ele>278.0</ele><time>2026-05-01T15:39:35.001Z</time></trkpt><trkpt lat="48.02477500083808" lon="16.159334113245777"><ele>277.25</ele><time>2026-05-01T15:39:36.001Z</time></trkpt><trkpt lat="48.02474261818713" lon="16.159534124661015"><ele>276.5</ele><time>2026-05-01T15:39:37.001Z</time></trkpt><trkpt lat="48.024731867970026" lon="16.159735754694754"><ele>275.75</ele><time>2026-05-01T15:39:38.001Z</time></trkpt><trkpt lat="48.024747629692094" lon="16.15993509204974"><ele>275.0</ele><time>2026-05-01T15:39:39.001Z</time></trkpt><trkpt lat="48.02476712941253" lon="16.160111404260658"><ele>275.0</ele><time>2026-05-01T15:39:40.001Z</time></trkpt><trkpt lat="48.0248007601245" lon="16.160288399653663"><ele>275.0</ele><time>2026-05-01T15:39:41.001Z</time></trkpt><trkpt lat="48.02483887763059" lon="16.160473206343678"><ele>275.0</ele><time>2026-05-01T15:39:42.001Z</time></trkpt><trkpt lat="48.024868023477104" lon="16.16066699047364"><ele>275.0</ele><time>2026-05-01T15:39:43.001Z</time></trkpt><trkpt lat="48.0248845868657" lon="16.16087382762714"><ele>275.0</ele><time>2026-05-01T15:39:44.001Z</time></trkpt><trkpt lat="48.02489049051007" lon="16.16109430769213"><ele>275.0</ele><time>2026-05-01T15:39:45.001Z</time></trkpt><trkpt lat="48.02486441094832" lon="16.16131135114418"><ele>275.0</ele><time>2026-05-01T15:39:46.001Z</time></trkpt><trkpt lat="48.02484476723252" lon="16.161519248387112"><ele>275.0</ele><time>2026-05-01T15:39:47.001Z</time></trkpt><trkpt lat="48.02481701118369" lon="16.16172557370551"><ele>274.5</ele><time>2026-05-01T15:39:48.001Z</time></trkpt><trkpt lat="48.02478679355294" lon="16.16193499128859"><ele>274.0</ele><time>2026-05-01T15:39:49.001Z</time></trkpt><trkpt lat="48.02475427901452" lon="16.162142618529774"><ele>273.5</ele><time>2026-05-01T15:39:50.001Z</time></trkpt><trkpt lat="48.02471806546064" lon="16.162348500919368"><ele>273.0</ele><time>2026-05-01T15:39:51.001Z</time></trkpt><trkpt lat="48.02467769434674" lon="16.162549918892363"><ele>272.3333333333333</ele><time>2026-05-01T15:39:52.001Z</time></trkpt><trkpt lat="48.02463363532128" lon="16.162752230316112"><ele>271.66666666666663</ele><time>2026-05-01T15:39:53Z</time></trkpt><trkpt lat="48.024579967423726" lon="16.162954374119685"><ele>271.0</ele><time>2026-05-01T15:39:54Z</time></trkpt><trkpt lat="48.024511719090725" lon="16.163181084910498"><ele>272.0</ele><time>2026-05-01T15:39:55Z</time></trkpt><trkpt lat="48.02442261631549" lon="16.163467547034863"><ele>273.0</ele><time>2026-05-01T15:39:56Z</time></trkpt><trkpt lat="48.02432607154931" lon="16.16377071507976"><ele>274.0</ele><time>2026-05-01T15:39:57Z</time></trkpt><trkpt lat="48.02422863498143" lon="16.16407172439537"><ele>274.0</ele><time>2026-05-01T15:39:58Z</time></trkpt><trkpt lat="48.02412819680765" lon="16.16437554993076"><ele>274.0</ele><time>2026-05-01T15:39:59Z</time></trkpt><trkpt lat="48.024022349483765" lon="16.164662275669762"><ele>274.0</ele><time>2026-05-01T15:40:00Z</time></trkpt><trkpt lat="48.02390180019437" lon="16.16494008538304"><ele>274.0</ele><time>2026-05-01T15:40:01Z</time></trkpt><trkpt lat="48.023768572256515" lon="16.165204732457312"><ele>274.0</ele><time>2026-05-01T15:40:02Z</time></trkpt><trkpt lat="48.023616746360084" lon="16.16545241579415"><ele>274.0</ele><time>2026-05-01T15:40:03Z</time></trkpt><trkpt lat="48.02345919570509" lon="16.16569921368387"><ele>274.0</ele><time>2026-05-01T15:40:04Z</time></trkpt><trkpt lat="48.023305278103216" lon="16.165960058864812"><ele>274.0</ele><time>2026-05-01T15:40:05Z</time></trkpt><trkpt lat="48.023140906798425" lon="16.166200600401744"><ele>274.0</ele><time>2026-05-01T15:40:06Z</time></trkpt><trkpt lat="48.0229651186007" lon="16.166412234595455"><ele>274.0</ele><time>2026-05-01T15:40:07Z</time></trkpt><trkpt lat="48.02279441032009" lon="16.166631707615263"><ele>274.0</ele><time>2026-05-01T15:40:08Z</time></trkpt><trkpt lat="48.022626613699465" lon="16.166857981690928"><ele>274.0</ele><time>2026-05-01T15:40:09Z</time></trkpt><trkpt lat="48.022455571305606" lon="16.16708251220909"><ele>272.5</ele><time>2026-05-01T15:40:10Z</time></trkpt><trkpt lat="48.022283082986206" lon="16.167314531553195"><ele>271.0</ele><time>2026-05-01T15:40:11Z</time></trkpt><trkpt lat="48.022113337390145" lon="16.167543363280377"><ele>271.0</ele><time>2026-05-01T15:40:12Z</time></trkpt><trkpt lat="48.02195205242206" lon="16.167742892304926"><ele>271.0</ele><time>2026-05-01T15:40:13Z</time></trkpt><trkpt lat="48.02178284966194" lon="16.167920107290954"><ele>271.0</ele><time>2026-05-01T15:40:14Z</time></trkpt><trkpt lat="48.02162097737957" lon="16.168147828162663"><ele>273.0</ele><time>2026-05-01T15:40:15Z</time></trkpt><trkpt lat="48.021411586676564" lon="16.168283551678904"><ele>275.0</ele><time>2026-05-01T15:40:16Z</time></trkpt><trkpt lat="48.02120089695877" lon="16.168396479005114"><ele>275.0</ele><time>2026-05-01T15:40:17Z</time></trkpt><trkpt lat="48.02098921999211" lon="16.168488004323514"><ele>275.0</ele><time>2026-05-01T15:40:18Z</time></trkpt><trkpt lat="48.020777222147856" lon="16.168543795266974"><ele>275.0</ele><time>2026-05-01T15:40:19Z</time></trkpt><trkpt lat="48.02057818208998" lon="16.168517439798475"><ele>275.33333333333337</ele><time>2026-05-01T15:40:20Z</time></trkpt><trkpt lat="48.02040085388981" lon="16.168512533714555"><ele>275.6666666666667</ele><time>2026-05-01T15:40:21Z</time></trkpt><trkpt lat="48.02023331228749" lon="16.168480963655128"><ele>276.0</ele><time>2026-05-01T15:40:22Z</time></trkpt><trkpt lat="48.020079148430554" lon="16.168406971270333"><ele>284.6666666666667</ele><time>2026-05-01T15:40:23Z</time></trkpt><trkpt lat="48.01994480116902" lon="16.1682923241229"><ele>293.33333333333337</ele><time>2026-05-01T15:40:24Z</time></trkpt><trkpt lat="48.01982614804907" lon="16.168126543132676"><ele>302.0</ele><time>2026-05-01T15:40:25Z</time></trkpt><trkpt lat="48.0197214411614" lon="16.16791392735072"><ele>302.0</ele><time>2026-05-01T15:40:26Z</time></trkpt><trkpt lat="48.01961270842687" lon="16.167662402443263"><ele>302.0</ele><time>2026-05-01T15:40:27Z</time></trkpt><trkpt lat="48.0195210805438" lon="16.167370289510327"><ele>302.0</ele><time>2026-05-01T15:40:28Z</time></trkpt><trkpt lat="48.0194283047259" lon="16.16709779143327"><ele>304.6666666666667</ele><time>2026-05-01T15:40:29Z</time></trkpt><trkpt lat="48.01930493064802" lon="16.16686315689531"><ele>307.3333333333333</ele><time>2026-05-01T15:40:30Z</time></trkpt><trkpt lat="48.01914607558241" lon="16.166650754237534"><ele>310.0</ele><time>2026-05-01T15:40:31Z</time></trkpt><trkpt lat="48.01897289302702" lon="16.16644385012601"><ele>297.0</ele><time>2026-05-01T15:40:32Z</time></trkpt><trkpt lat="48.01878713617474" lon="16.16622037225085"><ele>284.0</ele><time>2026-05-01T15:40:33Z</time></trkpt><trkpt lat="48.018564980996324" lon="16.166051675837245"><ele>284.0</ele><time>2026-05-01T15:40:34Z</time></trkpt><trkpt lat="48.0183597581085" lon="16.165856455672955"><ele>284.0</ele><time>2026-05-01T15:40:35Z</time></trkpt><trkpt lat="48.01813719153877" lon="16.165693868655616"><ele>282.0</ele><time>2026-05-01T15:40:36Z</time></trkpt><trkpt lat="48.01791096374112" lon="16.165539917321738"><ele>280.0</ele><time>2026-05-01T15:40:37Z</time></trkpt><trkpt lat="48.017682666952446" lon="16.165398338576097"><ele>281.5</ele><time>2026-05-01T15:40:38Z</time></trkpt><trkpt lat="48.01745408719681" lon="16.165260213976655"><ele>283.0</ele><time>2026-05-01T15:40:39Z</time></trkpt><trkpt lat="48.01722443428108" lon="16.165120188036816"><ele>283.0</ele><time>2026-05-01T15:40:40Z</time></trkpt><trkpt lat="48.01699997176512" lon="16.16498552681599"><ele>283.0</ele><time>2026-05-01T15:40:41Z</time></trkpt><trkpt lat="48.01679010136543" lon="16.164854635013945"><ele>281.0</ele><time>2026-05-01T15:40:42Z</time></trkpt><trkpt lat="48.01658228777874" lon="16.164722376755638"><ele>279.0</ele><time>2026-05-01T15:40:43Z</time></trkpt><trkpt lat="48.01637420297357" lon="16.164572918958164"><ele>279.0</ele><time>2026-05-01T15:40:44Z</time></trkpt><trkpt lat="48.01615990050877" lon="16.16442259980483"><ele>279.0</ele><time>2026-05-01T15:40:45Z</time></trkpt><trkpt lat="48.01595004007187" lon="16.164267774772732"><ele>275.0</ele><time>2026-05-01T15:40:46Z</time></trkpt><trkpt lat="48.01574459032182" lon="16.16411321578321"><ele>271.0</ele><time>2026-05-01T15:40:47Z</time></trkpt><trkpt lat="48.01554561964028" lon="16.163948195459774"><ele>271.0</ele><time>2026-05-01T15:40:48Z</time></trkpt><trkpt lat="48.01535000294483" lon="16.163779290225985"><ele>271.0</ele><time>2026-05-01T15:40:49Z</time></trkpt><trkpt lat="48.01516073942571" lon="16.163620154160768"><ele>271.0</ele><time>2026-05-01T15:40:50Z</time></trkpt><trkpt lat="48.01497915052462" lon="16.16347891579063"><ele>270.66666666666663</ele><time>2026-05-01T15:40:51Z</time></trkpt><trkpt lat="48.014808140955644" lon="16.163355060813696"><ele>270.3333333333333</ele><time>2026-05-01T15:40:52Z</time></trkpt><trkpt lat="48.01464405341924" lon="16.163242797000684"><ele>270.0</ele><time>2026-05-01T15:40:53Z</time></trkpt><trkpt lat="48.0144878828202" lon="16.163146278790233"><ele>270.0</ele><time>2026-05-01T15:40:54Z</time></trkpt><trkpt lat="48.014335854213314" lon="16.16306892921418"><ele>270.0</ele><time>2026-05-01T15:40:55Z</time></trkpt><trkpt lat="48.014206095756485" lon="16.163009137739685"><ele>270.0</ele><time>2026-05-01T15:40:56Z</time></trkpt><trkpt lat="48.01408002537968" lon="16.162956993661993"><ele>270.0</ele><time>2026-05-01T15:40:57.001Z</time></trkpt><trkpt lat="48.01395260723747" lon="16.162918192358443"><ele>272.5</ele><time>2026-05-01T15:40:58.001Z</time></trkpt><trkpt lat="48.013818124024155" lon="16.162891707026454"><ele>275.0</ele><time>2026-05-01T15:40:59.001Z</time></trkpt><trkpt lat="48.01368162351652" lon="16.162874605283772"><ele>277.5</ele><time>2026-05-01T15:41:00.001Z</time></trkpt><trkpt lat="48.013542985678036" lon="16.16286591282822"><ele>280.0</ele><time>2026-05-01T15:41:01.001Z</time></trkpt><trkpt lat="48.013403166287596" lon="16.162868071879462"><ele>284.0</ele><time>2026-05-01T15:41:02.001Z</time></trkpt><trkpt lat="48.013272857362224" lon="16.1628783161553"><ele>288.0</ele><time>2026-05-01T15:41:03.001Z</time></trkpt><trkpt lat="48.01315549173929" lon="16.162889519349307"><ele>292.0</ele><time>2026-05-01T15:41:04.001Z</time></trkpt><trkpt lat="48.01304325995129" lon="16.162918600861516"><ele>296.0</ele><time>2026-05-01T15:41:05.001Z</time></trkpt><trkpt lat="48.01295085169627" lon="16.16295291731967"><ele>296.0</ele><time>2026-05-01T15:41:06.001Z</time></trkpt><trkpt lat="48.01285899107679" lon="16.163014134080235"><ele>296.0</ele><time>2026-05-01T15:41:07.001Z</time></trkpt><trkpt lat="48.01277397565643" lon="16.16310708797115"><ele>296.0</ele><time>2026-05-01T15:41:08.001Z</time></trkpt><trkpt lat="48.01270798520063" lon="16.163233241438185"><ele>296.0</ele><time>2026-05-01T15:41:09.001Z</time></trkpt><trkpt lat="48.012657010724055" lon="16.163369095798664"><ele>296.0</ele><time>2026-05-01T15:41:10.001Z</time></trkpt><trkpt lat="48.012641789755975" lon="16.163535825251625"><ele>291.5</ele><time>2026-05-01T15:41:11.001Z</time></trkpt><trkpt lat="48.0126385163688" lon="16.16372229210303"><ele>287.0</ele><time>2026-05-01T15:41:12.001Z</time></trkpt><trkpt lat="48.01263595828138" lon="16.163934896339374"><ele>282.5</ele><time>2026-05-01T15:41:13.001Z</time></trkpt><trkpt lat="48.01262223373248" lon="16.16413984340411"><ele>278.0</ele><time>2026-05-01T15:41:14.001Z</time></trkpt><trkpt lat="48.0125949092854" lon="16.164325124609505"><ele>277.75</ele><time>2026-05-01T15:41:15.001Z</time></trkpt><trkpt lat="48.01257113170709" lon="16.1644922595562"><ele>277.5</ele><time>2026-05-01T15:41:16.001Z</time></trkpt><trkpt lat="48.01254796453147" lon="16.164662670323786"><ele>277.25</ele><time>2026-05-01T15:41:17.001Z</time></trkpt><trkpt lat="48.01252670851715" lon="16.16484680494803"><ele>277.0</ele><time>2026-05-01T15:41:18.001Z</time></trkpt><trkpt lat="48.01250225089598" lon="16.165043840712663"><ele>277.75</ele><time>2026-05-01T15:41:19.001Z</time></trkpt><trkpt lat="48.012480500778544" lon="16.16525438147097"><ele>278.5</ele><time>2026-05-01T15:41:20.001Z</time></trkpt><trkpt lat="48.01246662113418" lon="16.16547700652118"><ele>279.25</ele><time>2026-05-01T15:41:21.001Z</time></trkpt><trkpt lat="48.012457464278455" lon="16.165708474515498"><ele>280.0</ele><time>2026-05-01T15:41:22.001Z</time></trkpt><trkpt lat="48.012459273288655" lon="16.165946920555662"><ele>280.0</ele><time>2026-05-01T15:41:23.001Z</time></trkpt><trkpt lat="48.01244152134971" lon="16.166185890659296"><ele>280.0</ele><time>2026-05-01T15:41:24.001Z</time></trkpt><trkpt lat="48.012436224455065" lon="16.166410910531113"><ele>280.0</ele><time>2026-05-01T15:41:25.001Z</time></trkpt><trkpt lat="48.012461779358816" lon="16.166612962143414"><ele>280.0</ele><time>2026-05-01T15:41:26.001Z</time></trkpt><trkpt lat="48.01246375981375" lon="16.166815015935278"><ele>278.5</ele><time>2026-05-01T15:41:27.001Z</time></trkpt><trkpt lat="48.01247606606581" lon="16.16702054453401"><ele>277.0</ele><time>2026-05-01T15:41:28.001Z</time></trkpt><trkpt lat="48.01249884746572" lon="16.167224520286382"><ele>275.5</ele><time>2026-05-01T15:41:29.001Z</time></trkpt><trkpt lat="48.012537436391916" lon="16.16742334477947"><ele>274.0</ele><time>2026-05-01T15:41:30.001Z</time></trkpt><trkpt lat="48.012584141524634" lon="16.167618532646497"><ele>273.25</ele><time>2026-05-01T15:41:31.001Z</time></trkpt><trkpt lat="48.01263584159773" lon="16.167810076930177"><ele>272.5</ele><time>2026-05-01T15:41:32.001Z</time></trkpt><trkpt lat="48.01268736876913" lon="16.168005365822882"><ele>271.75</ele><time>2026-05-01T15:41:33.001Z</time></trkpt><trkpt lat="48.0127475658549" lon="16.16820551136849"><ele>271.0</ele><time>2026-05-01T15:41:34.001Z</time></trkpt><trkpt lat="48.01281146814157" lon="16.168398948726747"><ele>270.25</ele><time>2026-05-01T15:41:35.001Z</time></trkpt><trkpt lat="48.012883214855755" lon="16.16858352471321"><ele>269.5</ele><time>2026-05-01T15:41:36.001Z</time></trkpt><trkpt lat="48.012960749995685" lon="16.168764299099696"><ele>268.75</ele><time>2026-05-01T15:41:37.001Z</time></trkpt><trkpt lat="48.013041557576706" lon="16.168939934329792"><ele>268.0</ele><time>2026-05-01T15:41:38.001Z</time></trkpt><trkpt lat="48.01312451837986" lon="16.169112000467294"><ele>269.25</ele><time>2026-05-01T15:41:39.001Z</time></trkpt><trkpt lat="48.013204198458375" lon="16.169280748035707"><ele>270.5</ele><time>2026-05-01T15:41:40.001Z</time></trkpt><trkpt lat="48.013282740070046" lon="16.169451239101566"><ele>271.75</ele><time>2026-05-01T15:41:41.001Z</time></trkpt><trkpt lat="48.013363126699005" lon="16.169623378186767"><ele>273.0</ele><time>2026-05-01T15:41:42.001Z</time></trkpt><trkpt lat="48.0134420005279" lon="16.169799129360797"><ele>271.25</ele><time>2026-05-01T15:41:43.001Z</time></trkpt><trkpt lat="48.013522562596386" lon="16.16997764209259"><ele>269.5</ele><time>2026-05-01T15:41:44.001Z</time></trkpt><trkpt lat="48.01360289754531" lon="16.170159395838514"><ele>267.75</ele><time>2026-05-01T15:41:45.001Z</time></trkpt><trkpt lat="48.01368641901478" lon="16.170338605026497"><ele>266.0</ele><time>2026-05-01T15:41:46.001Z</time></trkpt><trkpt lat="48.01376889343055" lon="16.170522471266022"><ele>266.25</ele><time>2026-05-01T15:41:47.001Z</time></trkpt><trkpt lat="48.013850435421915" lon="16.17070800596689"><ele>266.5</ele><time>2026-05-01T15:41:48.001Z</time></trkpt><trkpt lat="48.013932952601124" lon="16.170891022624616"><ele>266.75</ele><time>2026-05-01T15:41:49.001Z</time></trkpt><trkpt lat="48.014016470554466" lon="16.171073327681928"><ele>267.0</ele><time>2026-05-01T15:41:50.001Z</time></trkpt><trkpt lat="48.014098805719584" lon="16.17125537976752"><ele>266.5</ele><time>2026-05-01T15:41:51.001Z</time></trkpt><trkpt lat="48.01417986354033" lon="16.171436889705678"><ele>266.0</ele><time>2026-05-01T15:41:52.001Z</time></trkpt><trkpt lat="48.014262939530596" lon="16.1716207383862"><ele>265.5</ele><time>2026-05-01T15:41:53.001Z</time></trkpt><trkpt lat="48.01434807201318" lon="16.171807988247146"><ele>265.0</ele><time>2026-05-01T15:41:54.001Z</time></trkpt><trkpt lat="48.01443673479774" lon="16.17199985240604"><ele>265.0</ele><time>2026-05-01T15:41:55.001Z</time></trkpt><trkpt lat="48.01453102630627" lon="16.1721864770009"><ele>265.0</ele><time>2026-05-01T15:41:56.001Z</time></trkpt><trkpt lat="48.014626250025366" lon="16.17236831548315"><ele>265.0</ele><time>2026-05-01T15:41:57.001Z</time></trkpt><trkpt lat="48.01472511092485" lon="16.17255299310256"><ele>265.0</ele><time>2026-05-01T15:41:58.001Z</time></trkpt><trkpt lat="48.01482178891488" lon="16.172730306586395"><ele>265.0</ele><time>2026-05-01T15:41:59Z</time></trkpt><trkpt lat="48.01491448484486" lon="16.17289369327664"><ele>265.0</ele><time>2026-05-01T15:42:00Z</time></trkpt><trkpt lat="48.01501349246402" lon="16.17304334437854"><ele>265.0</ele><time>2026-05-01T15:42:01Z</time></trkpt><trkpt lat="48.015118545777355" lon="16.173189008934397"><ele>263.0</ele><time>2026-05-01T15:42:02Z</time></trkpt><trkpt lat="48.01522504542633" lon="16.173328769502607"><ele>261.0</ele><time>2026-05-01T15:42:03Z</time></trkpt><trkpt lat="48.01533253640367" lon="16.17346469106337"><ele>259.0</ele><time>2026-05-01T15:42:04Z</time></trkpt><trkpt lat="48.01544284860121" lon="16.1735985050504"><ele>257.0</ele><time>2026-05-01T15:42:05Z</time></trkpt><trkpt lat="48.01555110528606" lon="16.173737631579083"><ele>257.0</ele><time>2026-05-01T15:42:06Z</time></trkpt><trkpt lat="48.01566939905721" lon="16.173885252258994"><ele>257.0</ele><time>2026-05-01T15:42:07Z</time></trkpt><trkpt lat="48.01578557391886" lon="16.174038791488098"><ele>257.0</ele><time>2026-05-01T15:42:08Z</time></trkpt><trkpt lat="48.0159060891243" lon="16.174198306779747"><ele>258.33333333333337</ele><time>2026-05-01T15:42:09Z</time></trkpt><trkpt lat="48.01602976935177" lon="16.174361539292057"><ele>259.6666666666667</ele><time>2026-05-01T15:42:10Z</time></trkpt><trkpt lat="48.01615399907143" lon="16.174528856013108"><ele>261.0</ele><time>2026-05-01T15:42:11Z</time></trkpt><trkpt lat="48.01627667008337" lon="16.174696611681227"><ele>261.0</ele><time>2026-05-01T15:42:12Z</time></trkpt><trkpt lat="48.01639074143481" lon="16.17485400360081"><ele>261.0</ele><time>2026-05-01T15:42:13Z</time></trkpt><trkpt lat="48.01649688180836" lon="16.175004098094806"><ele>261.0</ele><time>2026-05-01T15:42:14Z</time></trkpt><trkpt lat="48.016601007330344" lon="16.175156995638055"><ele>261.0</ele><time>2026-05-01T15:42:15Z</time></trkpt><trkpt lat="48.01670343131528" lon="16.175319709587814"><ele>261.6666666666667</ele><time>2026-05-01T15:42:16Z</time></trkpt><trkpt lat="48.016803080927104" lon="16.17549135651368"><ele>262.33333333333337</ele><time>2026-05-01T15:42:17Z</time></trkpt><trkpt lat="48.01690038948611" lon="16.175668212576575"><ele>263.0</ele><time>2026-05-01T15:42:18Z</time></trkpt><trkpt lat="48.016996761317436" lon="16.175854173550057"><ele>261.6666666666667</ele><time>2026-05-01T15:42:19Z</time></trkpt><trkpt lat="48.017076810334736" lon="16.176069307290643"><ele>260.3333333333333</ele><time>2026-05-01T15:42:20Z</time></trkpt><trkpt lat="48.01716711088255" lon="16.176272207845134"><ele>259.0</ele><time>2026-05-01T15:42:21Z</time></trkpt><trkpt lat="48.01725065366442" lon="16.176480898700028"><ele>258.25</ele><time>2026-05-01T15:42:22Z</time></trkpt><trkpt lat="48.01732486250819" lon="16.176682139261573"><ele>257.5</ele><time>2026-05-01T15:42:23Z</time></trkpt><trkpt lat="48.01738854160203" lon="16.17687791257518"><ele>256.75</ele><time>2026-05-01T15:42:24Z</time></trkpt><trkpt lat="48.017449091621536" lon="16.177082089059848"><ele>256.0</ele><time>2026-05-01T15:42:25Z</time></trkpt><trkpt lat="48.01750704648329" lon="16.17729020669164"><ele>258.25</ele><time>2026-05-01T15:42:26Z</time></trkpt><trkpt lat="48.017562023150184" lon="16.177500947510257"><ele>260.5</ele><time>2026-05-01T15:42:27Z</time></trkpt><trkpt lat="48.01761422436762" lon="16.177707433419467"><ele>262.75</ele><time>2026-05-01T15:42:28Z</time></trkpt><trkpt lat="48.01766374375797" lon="16.177900360304598"><ele>265.0</ele><time>2026-05-01T15:42:29Z</time></trkpt><trkpt lat="48.01771406447698" lon="16.178088675539605"><ele>263.66666666666663</ele><time>2026-05-01T15:42:30Z</time></trkpt><trkpt lat="48.017769267434794" lon="16.178291244153566"><ele>262.3333333333333</ele><time>2026-05-01T15:42:31Z</time></trkpt><trkpt lat="48.01783150901632" lon="16.178518100918975"><ele>261.0</ele><time>2026-05-01T15:42:32Z</time></trkpt><trkpt lat="48.017899255908574" lon="16.178754227604713"><ele>259.3333333333333</ele><time>2026-05-01T15:42:33Z</time></trkpt><trkpt lat="48.01797698487584" lon="16.17901907245951"><ele>257.66666666666663</ele><time>2026-05-01T15:42:34Z</time></trkpt><trkpt lat="48.01807485982165" lon="16.179352266750357"><ele>256.0</ele><time>2026-05-01T15:42:35Z</time></trkpt><trkpt lat="48.018176719645005" lon="16.17970503770178"><ele>256.0</ele><time>2026-05-01T15:42:36Z</time></trkpt><trkpt lat="48.01827394873274" lon="16.180045082250462"><ele>256.0</ele><time>2026-05-01T15:42:37Z</time></trkpt><trkpt lat="48.01836680666121" lon="16.1803690534489"><ele>255.5</ele><time>2026-05-01T15:42:38Z</time></trkpt><trkpt lat="48.01845728989866" lon="16.18068536452037"><ele>255.0</ele><time>2026-05-01T15:42:39Z</time></trkpt><trkpt lat="48.01856303270645" lon="16.180993969033015"><ele>255.0</ele><time>2026-05-01T15:42:40Z</time></trkpt><trkpt lat="48.018650729244925" lon="16.181314185019094"><ele>255.0</ele><time>2026-05-01T15:42:41Z</time></trkpt><trkpt lat="48.01873887232452" lon="16.181632741265638"><ele>255.5</ele><time>2026-05-01T15:42:42Z</time></trkpt><trkpt lat="48.018826991355525" lon="16.181953769474628"><ele>256.0</ele><time>2026-05-01T15:42:43Z</time></trkpt><trkpt lat="48.0189085158624" lon="16.182281300080355"><ele>257.5</ele><time>2026-05-01T15:42:44Z</time></trkpt><trkpt lat="48.018965094645445" lon="16.18261982084331"><ele>259.0</ele><time>2026-05-01T15:42:45Z</time></trkpt><trkpt lat="48.01902808658768" lon="16.18295227160391"><ele>258.5</ele><time>2026-05-01T15:42:46Z</time></trkpt><trkpt lat="48.01907358935215" lon="16.183293803920417"><ele>258.0</ele><time>2026-05-01T15:42:47Z</time></trkpt><trkpt lat="48.019106090587314" lon="16.18364497170446"><ele>258.0</ele><time>2026-05-01T15:42:48Z</time></trkpt><trkpt lat="48.0191270039574" lon="16.184003541014622"><ele>258.0</ele><time>2026-05-01T15:42:49Z</time></trkpt><trkpt lat="48.01913524341671" lon="16.184366319043523"><ele>257.5</ele><time>2026-05-01T15:42:50Z</time></trkpt><trkpt lat="48.01913706258639" lon="16.184734681587422"><ele>257.0</ele><time>2026-05-01T15:42:51Z</time></trkpt><trkpt lat="48.01912558636432" lon="16.185098889078294"><ele>257.0</ele><time>2026-05-01T15:42:52Z</time></trkpt><trkpt lat="48.019097242136844" lon="16.185452785579567"><ele>257.0</ele><time>2026-05-01T15:42:53Z</time></trkpt><trkpt lat="48.01905992100992" lon="16.1857797749446"><ele>256.5</ele><time>2026-05-01T15:42:54Z</time></trkpt><trkpt lat="48.01901796176261" lon="16.18611314500686"><ele>256.0</ele><time>2026-05-01T15:42:55Z</time></trkpt><trkpt lat="48.01897303128351" lon="16.18645478693299"><ele>255.5</ele><time>2026-05-01T15:42:56Z</time></trkpt><trkpt lat="48.018926023557604" lon="16.186802556799268"><ele>255.0</ele><time>2026-05-01T15:42:57Z</time></trkpt><trkpt lat="48.0188790013474" lon="16.187150433848846"><ele>255.5</ele><time>2026-05-01T15:42:58Z</time></trkpt><trkpt lat="48.01883244897091" lon="16.187494834973478"><ele>256.0</ele><time>2026-05-01T15:42:59Z</time></trkpt><trkpt lat="48.01878677201512" lon="16.187839548366767"><ele>256.0</ele><time>2026-05-01T15:43:00Z</time></trkpt><trkpt lat="48.018741839717926" lon="16.188181737867076"><ele>256.0</ele><time>2026-05-01T15:43:01Z</time></trkpt><trkpt lat="48.01869820361331" lon="16.1885031757951"><ele>256.0</ele><time>2026-05-01T15:43:02Z</time></trkpt><trkpt lat="48.018645782377035" lon="16.188798689423376"><ele>256.0</ele><time>2026-05-01T15:43:03Z</time></trkpt><trkpt lat="48.01857150193594" lon="16.18906068047421"><ele>256.0</ele><time>2026-05-01T15:43:04Z</time></trkpt><trkpt lat="48.01848211279004" lon="16.189331122622413"><ele>257.0</ele><time>2026-05-01T15:43:05.001Z</time></trkpt><trkpt lat="48.018385311050395" lon="16.189614626012006"><ele>258.0</ele><time>2026-05-01T15:43:06.001Z</time></trkpt><trkpt lat="48.018271107891245" lon="16.189891022641003"><ele>259.0</ele><time>2026-05-01T15:43:07.001Z</time></trkpt><trkpt lat="48.01814813036977" lon="16.190165476573643"><ele>259.0</ele><time>2026-05-01T15:43:08.001Z</time></trkpt><trkpt lat="48.018026472488195" lon="16.190442644220127"><ele>259.0</ele><time>2026-05-01T15:43:09.001Z</time></trkpt><trkpt lat="48.01789950610665" lon="16.190710752962044"><ele>259.0</ele><time>2026-05-01T15:43:10.001Z</time></trkpt><trkpt lat="48.0177805268239" lon="16.19096752041197"><ele>259.3333333333333</ele><time>2026-05-01T15:43:11.001Z</time></trkpt><trkpt lat="48.017673284529224" lon="16.191221380625823"><ele>259.6666666666667</ele><time>2026-05-01T15:43:12.001Z</time></trkpt><trkpt lat="48.01760256645273" lon="16.1914898348397"><ele>260.0</ele><time>2026-05-01T15:43:13.001Z</time></trkpt><trkpt lat="48.017592270536504" lon="16.1917823565051"><ele>260.5</ele><time>2026-05-01T15:43:14.001Z</time></trkpt><trkpt lat="48.017584890183606" lon="16.19211257196683"><ele>261.0</ele><time>2026-05-01T15:43:15.001Z</time></trkpt><trkpt lat="48.01757401143308" lon="16.19246124538516"><ele>261.0</ele><time>2026-05-01T15:43:16.001Z</time></trkpt><trkpt lat="48.01755619245492" lon="16.192821623954764"><ele>261.0</ele><time>2026-05-01T15:43:17.001Z</time></trkpt><trkpt lat="48.017539149124254" lon="16.193187431873298"><ele>260.0</ele><time>2026-05-01T15:43:18.001Z</time></trkpt><trkpt lat="48.017521388914886" lon="16.19355923423555"><ele>259.0</ele><time>2026-05-01T15:43:19.001Z</time></trkpt><trkpt lat="48.01749962408127" lon="16.193926683581793"><ele>262.66666666666663</ele><time>2026-05-01T15:43:20.001Z</time></trkpt><trkpt lat="48.01747703229653" lon="16.194274292914677"><ele>266.3333333333333</ele><time>2026-05-01T15:43:21.001Z</time></trkpt><trkpt lat="48.01745898989866" lon="16.19459375740814"><ele>270.0</ele><time>2026-05-01T15:43:22.001Z</time></trkpt><trkpt lat="48.01742644829654" lon="16.194900486124357"><ele>270.0</ele><time>2026-05-01T15:43:23.001Z</time></trkpt><trkpt lat="48.017360679834105" lon="16.19520102026092"><ele>270.0</ele><time>2026-05-01T15:43:24.001Z</time></trkpt><trkpt lat="48.017259933691825" lon="16.19547932359721"><ele>270.0</ele><time>2026-05-01T15:43:25.001Z</time></trkpt><trkpt lat="48.017125127832585" lon="16.19573656888356"><ele>272.0</ele><time>2026-05-01T15:43:26.001Z</time></trkpt><trkpt lat="48.01694490355613" lon="16.195951226220444"><ele>274.0</ele><time>2026-05-01T15:43:27.001Z</time></trkpt><trkpt lat="48.01677533632006" lon="16.196147281516023"><ele>276.0</ele><time>2026-05-01T15:43:28.001Z</time></trkpt><trkpt lat="48.016608072368975" lon="16.196312603029615"><ele>276.0</ele><time>2026-05-01T15:43:29.001Z</time></trkpt><trkpt lat="48.01645045938643" lon="16.196471392496097"><ele>276.0</ele><time>2026-05-01T15:43:30.001Z</time></trkpt><trkpt lat="48.01630290447271" lon="16.196641613889536"><ele>276.0</ele><time>2026-05-01T15:43:31.001Z</time></trkpt><trkpt lat="48.016155984997766" lon="16.196847277671523"><ele>272.0</ele><time>2026-05-01T15:43:32.001Z</time></trkpt><trkpt lat="48.015990315379" lon="16.197070190691342"><ele>268.0</ele><time>2026-05-01T15:43:33.001Z</time></trkpt><trkpt lat="48.015834662692555" lon="16.197267714940843"><ele>264.0</ele><time>2026-05-01T15:43:34.001Z</time></trkpt><trkpt lat="48.01565879236731" lon="16.197390692953835"><ele>264.0</ele><time>2026-05-01T15:43:35.001Z</time></trkpt><trkpt lat="48.01551494375548" lon="16.197611855993628"><ele>264.0</ele><time>2026-05-01T15:43:36.001Z</time></trkpt><trkpt lat="48.01537243679116" lon="16.19780598228869"><ele>264.0</ele><time>2026-05-01T15:43:37.001Z</time></trkpt><trkpt lat="48.01523399336541" lon="16.197988812950523"><ele>264.0</ele><time>2026-05-01T15:43:38.001Z</time></trkpt><trkpt lat="48.01510438681072" lon="16.198165504439878"><ele>264.0</ele><time>2026-05-01T15:43:39.001Z</time></trkpt><trkpt lat="48.01499721794957" lon="16.198328720391164"><ele>264.0</ele><time>2026-05-01T15:43:40.001Z</time></trkpt><trkpt lat="48.01491330038904" lon="16.198491708326358"><ele>264.25</ele><time>2026-05-01T15:43:41.001Z</time></trkpt><trkpt lat="48.01484984998808" lon="16.19865682652305"><ele>264.5</ele><time>2026-05-01T15:43:42.001Z</time></trkpt><trkpt lat="48.01480096210042" lon="16.198828665523923"><ele>264.75</ele><time>2026-05-01T15:43:43.001Z</time></trkpt><trkpt lat="48.01476766925471" lon="16.198988492434896"><ele>265.0</ele><time>2026-05-01T15:43:44.001Z</time></trkpt><trkpt lat="48.01473860413193" lon="16.19914390235302"><ele>262.8</ele><time>2026-05-01T15:43:45.001Z</time></trkpt><trkpt lat="48.0147107151616" lon="16.199299604186205"><ele>260.6</ele><time>2026-05-01T15:43:46.001Z</time></trkpt><trkpt lat="48.01467539528391" lon="16.19945598835764"><ele>258.4</ele><time>2026-05-01T15:43:47.001Z</time></trkpt><trkpt lat="48.014642571862645" lon="16.199614653762914"><ele>256.2</ele><time>2026-05-01T15:43:48.001Z</time></trkpt><trkpt lat="48.014603086555645" lon="16.199769962894894"><ele>254.0</ele><time>2026-05-01T15:43:49.001Z</time></trkpt><trkpt lat="48.014560790026074" lon="16.19991927126218"><ele>253.0</ele><time>2026-05-01T15:43:50.001Z</time></trkpt><trkpt lat="48.01451116895779" lon="16.200062692058438"><ele>251.99999999999997</ele><time>2026-05-01T15:43:51.001Z</time></trkpt><trkpt lat="48.01444635313047" lon="16.200190900659383"><ele>250.99999999999997</ele><time>2026-05-01T15:43:52.001Z</time></trkpt><trkpt lat="48.01436994051943" lon="16.200306401623827"><ele>250.0</ele><time>2026-05-01T15:43:53.001Z</time></trkpt><trkpt lat="48.01429002101923" lon="16.200419891624513"><ele>249.0</ele><time>2026-05-01T15:43:54.001Z</time></trkpt><trkpt lat="48.01421035276014" lon="16.20054085096054"><ele>249.25</ele><time>2026-05-01T15:43:55.001Z</time></trkpt><trkpt lat="48.01413053486069" lon="16.20066677375936"><ele>249.5</ele><time>2026-05-01T15:43:56.001Z</time></trkpt><trkpt lat="48.01405199346669" lon="16.20079265185692"><ele>249.75</ele><time>2026-05-01T15:43:57.001Z</time></trkpt><trkpt lat="48.01397581201256" lon="16.20092055272454"><ele>250.0</ele><time>2026-05-01T15:43:58.001Z</time></trkpt><trkpt lat="48.013900382313366" lon="16.201045500123907"><ele>250.0</ele><time>2026-05-01T15:43:59.001Z</time></trkpt><trkpt lat="48.01382343720556" lon="16.201169292110894"><ele>250.0</ele><time>2026-05-01T15:44:00.001Z</time></trkpt><trkpt lat="48.013748195989585" lon="16.20129468169835"><ele>250.0</ele><time>2026-05-01T15:44:01.001Z</time></trkpt><trkpt lat="48.013673570938494" lon="16.201419471188547"><ele>250.0</ele><time>2026-05-01T15:44:02.001Z</time></trkpt><trkpt lat="48.013595663667786" lon="16.201543327483954"><ele>249.5</ele><time>2026-05-01T15:44:03.001Z</time></trkpt><trkpt lat="48.01351853160624" lon="16.20166758541818"><ele>249.0</ele><time>2026-05-01T15:44:04.001Z</time></trkpt><trkpt lat="48.01344004649609" lon="16.201790794915873"><ele>248.5</ele><time>2026-05-01T15:44:05Z</time></trkpt><trkpt lat="48.013361379562745" lon="16.201915934135954"><ele>248.0</ele><time>2026-05-01T15:44:06Z</time></trkpt><trkpt lat="48.01328279168797" lon="16.202043651765248"><ele>247.75</ele><time>2026-05-01T15:44:07Z</time></trkpt><trkpt lat="48.013205410339275" lon="16.2021725588261"><ele>247.5</ele><time>2026-05-01T15:44:08Z</time></trkpt><trkpt lat="48.013127229936586" lon="16.202301122753607"><ele>247.25</ele><time>2026-05-01T15:44:09Z</time></trkpt><trkpt lat="48.013050161988374" lon="16.202430481936027"><ele>247.0</ele><time>2026-05-01T15:44:10Z</time></trkpt><trkpt lat="48.01297008606296" lon="16.2025562416461"><ele>246.75</ele><time>2026-05-01T15:44:11Z</time></trkpt><trkpt lat="48.01288582117507" lon="16.202677983132073"><ele>246.5</ele><time>2026-05-01T15:44:12Z</time></trkpt><trkpt lat="48.012801386742645" lon="16.202798876414906"><ele>246.25</ele><time>2026-05-01T15:44:13Z</time></trkpt><trkpt lat="48.012714937482514" lon="16.202918132055533"><ele>246.0</ele><time>2026-05-01T15:44:14Z</time></trkpt><trkpt lat="48.012628167538836" lon="16.20303712762584"><ele>246.0</ele><time>2026-05-01T15:44:15Z</time></trkpt><trkpt lat="48.012542113801" lon="16.203157093650123"><ele>246.0</ele><time>2026-05-01T15:44:16Z</time></trkpt><trkpt lat="48.01245533718753" lon="16.203276539668323"><ele>246.0</ele><time>2026-05-01T15:44:17Z</time></trkpt><trkpt lat="48.01237018321272" lon="16.203397715822422"><ele>246.0</ele><time>2026-05-01T15:44:18Z</time></trkpt><trkpt lat="48.012284511580816" lon="16.203517742328277"><ele>245.75</ele><time>2026-05-01T15:44:19Z</time></trkpt><trkpt lat="48.012204074297244" lon="16.203645674756622"><ele>245.5</ele><time>2026-05-01T15:44:20Z</time></trkpt><trkpt lat="48.012128009670356" lon="16.203774035844344"><ele>245.25</ele><time>2026-05-01T15:44:21Z</time></trkpt><trkpt lat="48.012052978501465" lon="16.203902074311188"><ele>245.0</ele><time>2026-05-01T15:44:22Z</time></trkpt><trkpt lat="48.01197884932049" lon="16.204031942517243"><ele>245.0</ele><time>2026-05-01T15:44:23Z</time></trkpt><trkpt lat="48.01190420965189" lon="16.204160057163296"><ele>245.0</ele><time>2026-05-01T15:44:24Z</time></trkpt><trkpt lat="48.011827820319155" lon="16.204283066034982"><ele>245.0</ele><time>2026-05-01T15:44:25Z</time></trkpt><trkpt lat="48.01171808603222" lon="16.204352332063443"><ele>245.0</ele><time>2026-05-01T15:44:26Z</time></trkpt><trkpt lat="48.01163318283072" lon="16.204438588542953"><ele>245.0</ele><time>2026-05-01T15:44:27Z</time></trkpt><trkpt lat="48.01153819379105" lon="16.204514918864444"><ele>245.0</ele><time>2026-05-01T15:44:28Z</time></trkpt><trkpt lat="48.011439360876075" lon="16.204602013995842"><ele>245.0</ele><time>2026-05-01T15:44:29Z</time></trkpt><trkpt lat="48.01134135393513" lon="16.20468784112572"><ele>245.0</ele><time>2026-05-01T15:44:30Z</time></trkpt><trkpt lat="48.011242905191864" lon="16.20477554311896"><ele>245.0</ele><time>2026-05-01T15:44:31Z</time></trkpt><trkpt lat="48.01114608292245" lon="16.20487745329445"><ele>245.0</ele><time>2026-05-01T15:44:32Z</time></trkpt><trkpt lat="48.01105275424208" lon="16.20497457488579"><ele>245.0</ele><time>2026-05-01T15:44:33Z</time></trkpt><trkpt lat="48.01096026442825" lon="16.20508077436692"><ele>245.0</ele><time>2026-05-01T15:44:34Z</time></trkpt><trkpt lat="48.01086908462126" lon="16.20518879841678"><ele>245.0</ele><time>2026-05-01T15:44:35Z</time></trkpt><trkpt lat="48.01080252353992" lon="16.20534902481009"><ele>245.5</ele><time>2026-05-01T15:44:36Z</time></trkpt><trkpt lat="48.010727751064316" lon="16.205490924178747"><ele>246.0</ele><time>2026-05-01T15:44:37Z</time></trkpt><trkpt lat="48.01066646243768" lon="16.205642732294894"><ele>246.5</ele><time>2026-05-01T15:44:38Z</time></trkpt><trkpt lat="48.01060917407058" lon="16.20579886059866"><ele>247.0</ele><time>2026-05-01T15:44:39Z</time></trkpt><trkpt lat="48.010558746384355" lon="16.205963263793357"><ele>247.0</ele><time>2026-05-01T15:44:40Z</time></trkpt><trkpt lat="48.01050722926321" lon="16.20612571581754"><ele>247.0</ele><time>2026-05-01T15:44:41Z</time></trkpt><trkpt lat="48.010458014549656" lon="16.206291345852485"><ele>247.0</ele><time>2026-05-01T15:44:42Z</time></trkpt><trkpt lat="48.01039428636769" lon="16.20644335672662"><ele>247.0</ele><time>2026-05-01T15:44:43Z</time></trkpt><trkpt lat="48.010356458242775" lon="16.206615970012546"><ele>246.75</ele><time>2026-05-01T15:44:44Z</time></trkpt><trkpt lat="48.0103029856418" lon="16.206776959490966"><ele>246.5</ele><time>2026-05-01T15:44:45Z</time></trkpt><trkpt lat="48.0102536998681" lon="16.20693889941282"><ele>246.25</ele><time>2026-05-01T15:44:46Z</time></trkpt><trkpt lat="48.01019789935767" lon="16.207099304120106"><ele>246.0</ele><time>2026-05-01T15:44:47Z</time></trkpt><trkpt lat="48.01014608418999" lon="16.20725775651722"><ele>245.75</ele><time>2026-05-01T15:44:48Z</time></trkpt><trkpt lat="48.010095623384004" lon="16.207417659023736"><ele>245.5</ele><time>2026-05-01T15:44:49Z</time></trkpt><trkpt lat="48.01003095415061" lon="16.20756429456378"><ele>245.25</ele><time>2026-05-01T15:44:50Z</time></trkpt><trkpt lat="48.009991270023384" lon="16.207728867239187"><ele>245.0</ele><time>2026-05-01T15:44:51Z</time></trkpt><trkpt lat="48.00993267685154" lon="16.207874948536723"><ele>244.75</ele><time>2026-05-01T15:44:52Z</time></trkpt><trkpt lat="48.0098598122312" lon="16.208006311969818"><ele>244.5</ele><time>2026-05-01T15:44:53Z</time></trkpt><trkpt lat="48.00976551939202" lon="16.208105697966882"><ele>244.25</ele><time>2026-05-01T15:44:54Z</time></trkpt><trkpt lat="48.009666057794256" lon="16.208167024885114"><ele>244.0</ele><time>2026-05-01T15:44:55Z</time></trkpt><trkpt lat="48.00955043421488" lon="16.20817864158565"><ele>243.79999999999998</ele><time>2026-05-01T15:44:56Z</time></trkpt><trkpt lat="48.009441304101365" lon="16.20819114609503"><ele>243.59999999999997</ele><time>2026-05-01T15:44:57Z</time></trkpt><trkpt lat="48.009334619048815" lon="16.208214071399425"><ele>243.4</ele><time>2026-05-01T15:44:58Z</time></trkpt><trkpt lat="48.00923878873917" lon="16.208267812481214"><ele>243.2</ele><time>2026-05-01T15:44:59Z</time></trkpt><trkpt lat="48.009151430765854" lon="16.20835719442003"><ele>243.0</ele><time>2026-05-01T15:45:00Z</time></trkpt><trkpt lat="48.009075561446814" lon="16.208480236021902"><ele>243.0</ele><time>2026-05-01T15:45:01Z</time></trkpt><trkpt lat="48.00900814154639" lon="16.208618385735097"><ele>243.0</ele><time>2026-05-01T15:45:02Z</time></trkpt><trkpt lat="48.008949625122945" lon="16.20877163098843"><ele>243.0</ele><time>2026-05-01T15:45:03Z</time></trkpt><trkpt lat="48.008893016261126" lon="16.208937008415603"><ele>243.0</ele><time>2026-05-01T15:45:04Z</time></trkpt><trkpt lat="48.00883533207038" lon="16.209104654456254"><ele>243.0</ele><time>2026-05-01T15:45:05Z</time></trkpt><trkpt lat="48.00877539445934" lon="16.209271704098054"><ele>243.0</ele><time>2026-05-01T15:45:06Z</time></trkpt><trkpt lat="48.00871149969146" lon="16.20943693770333"><ele>243.0</ele><time>2026-05-01T15:45:07Z</time></trkpt><trkpt lat="48.00864459628162" lon="16.2096004840106"><ele>243.0</ele><time>2026-05-01T15:45:08Z</time></trkpt><trkpt lat="48.00857449987738" lon="16.209764994601617"><ele>242.75</ele><time>2026-05-01T15:45:09Z</time></trkpt><trkpt lat="48.00849805471436" lon="16.20993320440738"><ele>242.5</ele><time>2026-05-01T15:45:10Z</time></trkpt><trkpt lat="48.00841884176701" lon="16.210106232574127"><ele>242.25</ele><time>2026-05-01T15:45:11Z</time></trkpt><trkpt lat="48.00832973949932" lon="16.210283499878482"><ele>242.0</ele><time>2026-05-01T15:45:12Z</time></trkpt><trkpt lat="48.00822253761196" lon="16.210447281016528"><ele>242.0</ele><time>2026-05-01T15:45:13Z</time></trkpt><trkpt lat="48.00812830566952" lon="16.210612899258674"><ele>242.0</ele><time>2026-05-01T15:45:14Z</time></trkpt><trkpt lat="48.0080273938754" lon="16.210778412687656"><ele>242.0</ele><time>2026-05-01T15:45:15Z</time></trkpt><trkpt lat="48.00792007905099" lon="16.21094412431379"><ele>241.33333333333334</ele><time>2026-05-01T15:45:16Z</time></trkpt><trkpt lat="48.00780781183569" lon="16.211110268579706"><ele>240.66666666666669</ele><time>2026-05-01T15:45:17Z</time></trkpt><trkpt lat="48.00769051695802" lon="16.21126666064976"><ele>240.0</ele><time>2026-05-01T15:45:18Z</time></trkpt><trkpt lat="48.0075676860276" lon="16.211419198347844"><ele>241.66666666666669</ele><time>2026-05-01T15:45:19Z</time></trkpt><trkpt lat="48.0074427868342" lon="16.21156343742409"><ele>243.33333333333334</ele><time>2026-05-01T15:45:20Z</time></trkpt><trkpt lat="48.00731237869326" lon="16.21169747537181"><ele>245.0</ele><time>2026-05-01T15:45:21Z</time></trkpt><trkpt lat="48.0071791276926" lon="16.211826376438577"><ele>245.0</ele><time>2026-05-01T15:45:22Z</time></trkpt><trkpt lat="48.00703994581888" lon="16.211946959966482"><ele>245.0</ele><time>2026-05-01T15:45:23Z</time></trkpt><trkpt lat="48.006896778498884" lon="16.212062731602657"><ele>245.0</ele><time>2026-05-01T15:45:24Z</time></trkpt><trkpt lat="48.006750984359556" lon="16.21216794992043"><ele>245.66666666666669</ele><time>2026-05-01T15:45:25Z</time></trkpt><trkpt lat="48.00660135426305" lon="16.212264243553676"><ele>246.33333333333331</ele><time>2026-05-01T15:45:26.001Z</time></trkpt><trkpt lat="48.00645085006571" lon="16.21235371618558"><ele>247.0</ele><time>2026-05-01T15:45:27.001Z</time></trkpt><trkpt lat="48.006296346758184" lon="16.212433644488218"><ele>247.0</ele><time>2026-05-01T15:45:28.001Z</time></trkpt><trkpt lat="48.00614127803923" lon="16.212503441338956"><ele>247.0</ele><time>2026-05-01T15:45:29.001Z</time></trkpt><trkpt lat="48.00598541932258" lon="16.21256434454048"><ele>247.0</ele><time>2026-05-01T15:45:30.001Z</time></trkpt><trkpt lat="48.00582985960762" lon="16.212613098304423"><ele>247.33333333333331</ele><time>2026-05-01T15:45:31.001Z</time></trkpt><trkpt lat="48.00567301978427" lon="16.212652375699076"><ele>247.66666666666669</ele><time>2026-05-01T15:45:32.001Z</time></trkpt><trkpt lat="48.00551721134237" lon="16.21268405226674"><ele>248.0</ele><time>2026-05-01T15:45:33.001Z</time></trkpt><trkpt lat="48.005359538365084" lon="16.21270712762198"><ele>248.0</ele><time>2026-05-01T15:45:34.001Z</time></trkpt><trkpt lat="48.00520486457842" lon="16.212721722692994"><ele>248.0</ele><time>2026-05-01T15:45:35.001Z</time></trkpt><trkpt lat="48.00504969393076" lon="16.212725044399424"><ele>248.0</ele><time>2026-05-01T15:45:36.001Z</time></trkpt><trkpt lat="48.004896498946664" lon="16.21271827032973"><ele>248.33333333333334</ele><time>2026-05-01T15:45:37.001Z</time></trkpt><trkpt lat="48.00474491931484" lon="16.212705951455124"><ele>248.66666666666669</ele><time>2026-05-01T15:45:38.001Z</time></trkpt><trkpt lat="48.00459292029368" lon="16.212683044022867"><ele>249.0</ele><time>2026-05-01T15:45:39.001Z</time></trkpt><trkpt lat="48.004443281947964" lon="16.212653866659366"><ele>249.0</ele><time>2026-05-01T15:45:40.001Z</time></trkpt><trkpt lat="48.004295225627004" lon="16.21261317061702"><ele>249.0</ele><time>2026-05-01T15:45:41.001Z</time></trkpt><trkpt lat="48.004145860835806" lon="16.212566951279445"><ele>249.0</ele><time>2026-05-01T15:45:42.001Z</time></trkpt><trkpt lat="48.00400129188634" lon="16.21251614648887"><ele>249.66666666666669</ele><time>2026-05-01T15:45:43.001Z</time></trkpt><trkpt lat="48.00385621009366" lon="16.212456114743187"><ele>250.33333333333334</ele><time>2026-05-01T15:45:44.001Z</time></trkpt><trkpt lat="48.00370928894439" lon="16.21239248764572"><ele>251.0</ele><time>2026-05-01T15:45:45.001Z</time></trkpt><trkpt lat="48.00356102150121" lon="16.212325011960218"><ele>252.0</ele><time>2026-05-01T15:45:46.001Z</time></trkpt><trkpt lat="48.00341215227592" lon="16.21225369651405"><ele>253.0</ele><time>2026-05-01T15:45:47.001Z</time></trkpt><trkpt lat="48.00326593005629" lon="16.212180676056526"><ele>254.0</ele><time>2026-05-01T15:45:48.001Z</time></trkpt><trkpt lat="48.0031215919397" lon="16.212105807332925"><ele>254.25</ele><time>2026-05-01T15:45:49.001Z</time></trkpt><trkpt lat="48.00298068048842" lon="16.212031287342167"><ele>254.5</ele><time>2026-05-01T15:45:50.001Z</time></trkpt><trkpt lat="48.00284225038499" lon="16.211956774884886"><ele>254.75</ele><time>2026-05-01T15:45:51.001Z</time></trkpt><trkpt lat="48.00270692968522" lon="16.211878978014628"><ele>255.0</ele><time>2026-05-01T15:45:52.001Z</time></trkpt><trkpt lat="48.00257032671881" lon="16.211799553781436"><ele>255.25</ele><time>2026-05-01T15:45:53.001Z</time></trkpt><trkpt lat="48.002437119027" lon="16.211717644118366"><ele>255.5</ele><time>2026-05-01T15:45:54.001Z</time></trkpt><trkpt lat="48.00230341446163" lon="16.211633966168876"><ele>255.75</ele><time>2026-05-01T15:45:55.001Z</time></trkpt><trkpt lat="48.00217034948466" lon="16.211549378972414"><ele>256.0</ele><time>2026-05-01T15:45:56.001Z</time></trkpt><trkpt lat="48.00203752101893" lon="16.211463228468514"><ele>256.25</ele><time>2026-05-01T15:45:57.001Z</time></trkpt><trkpt lat="48.00190477498736" lon="16.211377131382907"><ele>256.5</ele><time>2026-05-01T15:45:58.001Z</time></trkpt><trkpt lat="48.00177243675071" lon="16.211289707745788"><ele>256.75</ele><time>2026-05-01T15:45:59.001Z</time></trkpt><trkpt lat="48.00163935998827" lon="16.211200017319428"><ele>257.0</ele><time>2026-05-01T15:46:00.001Z</time></trkpt><trkpt lat="48.001505001913195" lon="16.211109005859527"><ele>257.0</ele><time>2026-05-01T15:46:01.001Z</time></trkpt><trkpt lat="48.00136913145374" lon="16.21101714956897"><ele>257.0</ele><time>2026-05-01T15:46:02.001Z</time></trkpt><trkpt lat="48.001231117069004" lon="16.210926555550117"><ele>257.0</ele><time>2026-05-01T15:46:03.001Z</time></trkpt><trkpt lat="48.00109110035322" lon="16.21083599252709"><ele>257.0</ele><time>2026-05-01T15:46:04.001Z</time></trkpt><trkpt lat="48.00094702244782" lon="16.21074951998631"><ele>257.0</ele><time>2026-05-01T15:46:05.001Z</time></trkpt><trkpt lat="48.000799337490655" lon="16.210672214324894"><ele>257.0</ele><time>2026-05-01T15:46:06.001Z</time></trkpt><trkpt lat="48.000650349707" lon="16.2106031172608"><ele>257.33333333333337</ele><time>2026-05-01T15:46:07.001Z</time></trkpt><trkpt lat="48.0004936327366" lon="16.21055241604936"><ele>257.6666666666667</ele><time>2026-05-01T15:46:08.001Z</time></trkpt><trkpt lat="48.0003361201539" lon="16.210518130779462"><ele>258.0</ele><time>2026-05-01T15:46:09.001Z</time></trkpt><trkpt lat="48.00017722773205" lon="16.210493263879002"><ele>258.0</ele><time>2026-05-01T15:46:10.001Z</time></trkpt><trkpt lat="48.0000123289773" lon="16.210481797447667"><ele>258.0</ele><time>2026-05-01T15:46:11Z</time></trkpt><trkpt lat="47.999848158165406" lon="16.210485892260714"><ele>258.0</ele><time>2026-05-01T15:46:12Z</time></trkpt><trkpt lat="47.99968351983026" lon="16.210505318612377"><ele>258.0</ele><time>2026-05-01T15:46:13Z</time></trkpt><trkpt lat="47.99951748064287" lon="16.21054195838622"><ele>258.0</ele><time>2026-05-01T15:46:14Z</time></trkpt><trkpt lat="47.999354987693636" lon="16.210587186895236"><ele>258.0</ele><time>2026-05-01T15:46:15Z</time></trkpt><trkpt lat="47.99919154331841" lon="16.210655681542995"><ele>256.6666666666667</ele><time>2026-05-01T15:46:16Z</time></trkpt><trkpt lat="47.99903349392175" lon="16.21073616571163"><ele>255.33333333333334</ele><time>2026-05-01T15:46:17Z</time></trkpt><trkpt lat="47.99887770007653" lon="16.210832322651804"><ele>254.0</ele><time>2026-05-01T15:46:18Z</time></trkpt><trkpt lat="47.9987263362884" lon="16.210938981821666"><ele>254.0</ele><time>2026-05-01T15:46:19Z</time></trkpt><trkpt lat="47.99857935462001" lon="16.211061889841073"><ele>254.0</ele><time>2026-05-01T15:46:20Z</time></trkpt><trkpt lat="47.99843875433448" lon="16.211197170509237"><ele>254.0</ele><time>2026-05-01T15:46:21Z</time></trkpt><trkpt lat="47.998302241918935" lon="16.211343546997412"><ele>254.33333333333334</ele><time>2026-05-01T15:46:22Z</time></trkpt><trkpt lat="47.99817239909985" lon="16.211507359060793"><ele>254.66666666666669</ele><time>2026-05-01T15:46:23Z</time></trkpt><trkpt lat="47.99805080381831" lon="16.211680685668465"><ele>255.0</ele><time>2026-05-01T15:46:24Z</time></trkpt><trkpt lat="47.99793554938605" lon="16.211863420560782"><ele>255.0</ele><time>2026-05-01T15:46:25Z</time></trkpt><trkpt lat="47.99782944295532" lon="16.212055536569572"><ele>255.0</ele><time>2026-05-01T15:46:26Z</time></trkpt><trkpt lat="47.99773270273079" lon="16.212259889418867"><ele>255.0</ele><time>2026-05-01T15:46:27Z</time></trkpt><trkpt lat="47.99765792750509" lon="16.212481931572253"><ele>254.33333333333331</ele><time>2026-05-01T15:46:28Z</time></trkpt><trkpt lat="47.997561561574464" lon="16.212684011248534"><ele>253.66666666666666</ele><time>2026-05-01T15:46:29Z</time></trkpt><trkpt lat="47.99750346467701" lon="16.212916195175794"><ele>253.0</ele><time>2026-05-01T15:46:30Z</time></trkpt><trkpt lat="47.99744087395282" lon="16.213142298166883"><ele>253.0</ele><time>2026-05-01T15:46:31Z</time></trkpt><trkpt lat="47.99738818813885" lon="16.21337102087882"><ele>253.0</ele><time>2026-05-01T15:46:32Z</time></trkpt><trkpt lat="47.99734460022945" lon="16.213601959657154"><ele>253.0</ele><time>2026-05-01T15:46:33Z</time></trkpt><trkpt lat="47.997307656005574" lon="16.213835879030196"><ele>253.0</ele><time>2026-05-01T15:46:34Z</time></trkpt><trkpt lat="47.99728005213603" lon="16.214071782578124"><ele>253.0</ele><time>2026-05-01T15:46:35Z</time></trkpt><trkpt lat="47.99726185321433" lon="16.214311038896323"><ele>253.0</ele><time>2026-05-01T15:46:36Z</time></trkpt><trkpt lat="47.99725048238336" lon="16.21455001047601"><ele>253.0</ele><time>2026-05-01T15:46:37Z</time></trkpt><trkpt lat="47.99724417025349" lon="16.214789532179"><ele>253.0</ele><time>2026-05-01T15:46:38Z</time></trkpt><trkpt lat="47.99723949374269" lon="16.215029665870482"><ele>253.0</ele><time>2026-05-01T15:46:39Z</time></trkpt><trkpt lat="47.99723655347757" lon="16.21527196832201"><ele>253.0</ele><time>2026-05-01T15:46:40Z</time></trkpt><trkpt lat="47.9972382099501" lon="16.21551975512054"><ele>253.0</ele><time>2026-05-01T15:46:41Z</time></trkpt><trkpt lat="47.9972422632515" lon="16.215773069114068"><ele>253.0</ele><time>2026-05-01T15:46:42Z</time></trkpt><trkpt lat="47.99725005913738" lon="16.21603613808822"><ele>253.0</ele><time>2026-05-01T15:46:43Z</time></trkpt><trkpt lat="47.9972605366366" lon="16.21631342507159"><ele>253.0</ele><time>2026-05-01T15:46:44Z</time></trkpt><trkpt lat="47.997273577962964" lon="16.216603732622794"><ele>253.0</ele><time>2026-05-01T15:46:45Z</time></trkpt><trkpt lat="47.99728993210762" lon="16.216905237555295"><ele>252.0</ele><time>2026-05-01T15:46:46Z</time></trkpt><trkpt lat="47.9973059377974" lon="16.21719902062557"><ele>251.0</ele><time>2026-05-01T15:46:47Z</time></trkpt><trkpt lat="47.9973250711759" lon="16.217498705338485"><ele>250.0</ele><time>2026-05-01T15:46:48Z</time></trkpt><trkpt lat="47.99734408470894" lon="16.217801586315865"><ele>250.0</ele><time>2026-05-01T15:46:49Z</time></trkpt><trkpt lat="47.997364851399944" lon="16.218104977836322"><ele>250.0</ele><time>2026-05-01T15:46:50Z</time></trkpt><trkpt lat="47.99738747573009" lon="16.218407214863795"><ele>250.0</ele><time>2026-05-01T15:46:51Z</time></trkpt><trkpt lat="47.9974113708613" lon="16.218715679947394"><ele>248.33333333333331</ele><time>2026-05-01T15:46:52Z</time></trkpt><trkpt lat="47.99743679155117" lon="16.21902836609245"><ele>246.66666666666669</ele><time>2026-05-01T15:46:53Z</time></trkpt><trkpt lat="47.997462830103885" lon="16.21934255668916"><ele>245.0</ele><time>2026-05-01T15:46:54Z</time></trkpt><trkpt lat="47.99748959814978" lon="16.219658101068514"><ele>244.33333333333334</ele><time>2026-05-01T15:46:55Z</time></trkpt><trkpt lat="47.9975161669137" lon="16.21997564121332"><ele>243.66666666666669</ele><time>2026-05-01T15:46:56Z</time></trkpt><trkpt lat="47.997540303350895" lon="16.220286966449244"><ele>243.0</ele><time>2026-05-01T15:46:57Z</time></trkpt><trkpt lat="47.99756151632581" lon="16.220588737029225"><ele>242.33333333333331</ele><time>2026-05-01T15:46:58Z</time></trkpt><trkpt lat="47.997576821599274" lon="16.22087883111523"><ele>241.66666666666666</ele><time>2026-05-01T15:46:59Z</time></trkpt><trkpt lat="47.99758540906583" lon="16.221171732086187"><ele>241.0</ele><time>2026-05-01T15:47:00Z</time></trkpt><trkpt lat="47.99758557802526" lon="16.221468366157094"><ele>240.0</ele><time>2026-05-01T15:47:01Z</time></trkpt><trkpt lat="47.99757724714857" lon="16.221761107128838"><ele>239.0</ele><time>2026-05-01T15:47:02Z</time></trkpt><trkpt lat="47.99754168829753" lon="16.222046568644867"><ele>238.0</ele><time>2026-05-01T15:47:03Z</time></trkpt><trkpt lat="47.99751727842174" lon="16.22232659323074"><ele>238.0</ele><time>2026-05-01T15:47:04Z</time></trkpt><trkpt lat="47.997483671813505" lon="16.222597763084195"><ele>238.0</ele><time>2026-05-01T15:47:05Z</time></trkpt><trkpt lat="47.99744205472788" lon="16.222868481183216"><ele>238.0</ele><time>2026-05-01T15:47:06Z</time></trkpt><trkpt lat="47.99739451651051" lon="16.22313592928919"><ele>237.33333333333331</ele><time>2026-05-01T15:47:07Z</time></trkpt><trkpt lat="47.99734044493087" lon="16.22340214334344"><ele>236.66666666666669</ele><time>2026-05-01T15:47:08Z</time></trkpt><trkpt lat="47.99727915494922" lon="16.22366464822943"><ele>236.0</ele><time>2026-05-01T15:47:09Z</time></trkpt><trkpt lat="47.99721538096679" lon="16.22392041197089"><ele>235.33333333333334</ele><time>2026-05-01T15:47:10Z</time></trkpt><trkpt lat="47.99714689275579" lon="16.22416741225711"><ele>234.66666666666669</ele><time>2026-05-01T15:47:11Z</time></trkpt><trkpt lat="47.997076655458805" lon="16.224404487919738"><ele>234.0</ele><time>2026-05-01T15:47:12Z</time></trkpt><trkpt lat="47.9970068261316" lon="16.224629370007612"><ele>233.33333333333331</ele><time>2026-05-01T15:47:13Z</time></trkpt><trkpt lat="47.99693682142926" lon="16.224850203945238"><ele>232.66666666666666</ele><time>2026-05-01T15:47:14Z</time></trkpt><trkpt lat="47.9968684509438" lon="16.225060125063177"><ele>232.0</ele><time>2026-05-01T15:47:15Z</time></trkpt><trkpt lat="47.996801641420674" lon="16.225263626416087"><ele>232.0</ele><time>2026-05-01T15:47:16Z</time></trkpt><trkpt lat="47.996736180766106" lon="16.225463017340207"><ele>232.0</ele><time>2026-05-01T15:47:17Z</time></trkpt><trkpt lat="47.996670889442996" lon="16.22566189342904"><ele>232.0</ele><time>2026-05-01T15:47:18Z</time></trkpt><trkpt lat="47.99660750100921" lon="16.22585497353096"><ele>232.0</ele><time>2026-05-01T15:47:19Z</time></trkpt><trkpt lat="47.9965609462453" lon="16.226057176113862"><ele>232.0</ele><time>2026-05-01T15:47:20Z</time></trkpt><trkpt lat="47.99649053378813" lon="16.226237022283787"><ele>232.0</ele><time>2026-05-01T15:47:21Z</time></trkpt><trkpt lat="47.99642710944062" lon="16.22641540492417"><ele>232.0</ele><time>2026-05-01T15:47:22Z</time></trkpt><trkpt lat="47.996363538733455" lon="16.226587912239754"><ele>232.0</ele><time>2026-05-01T15:47:23Z</time></trkpt><trkpt lat="47.99630473572231" lon="16.22675516277811"><ele>232.0</ele><time>2026-05-01T15:47:24Z</time></trkpt><trkpt lat="47.99625116559725" lon="16.226910640852026"><ele>232.0</ele><time>2026-05-01T15:47:25Z</time></trkpt><trkpt lat="47.996206824605984" lon="16.227041191989805"><ele>232.0</ele><time>2026-05-01T15:47:26Z</time></trkpt><trkpt lat="47.99617559601031" lon="16.22713312800342"><ele>232.0</ele><time>2026-05-01T15:47:27Z</time></trkpt><trkpt lat="47.99614563170196" lon="16.227221627745838"><ele>232.0</ele><time>2026-05-01T15:47:29Z</time></trkpt><trkpt lat="47.996056784637155" lon="16.22737829868043"><ele>231.99999999999997</ele><time>2026-05-01T15:49:09Z</time></trkpt><trkpt lat="47.995991937703145" lon="16.227388051828374"><ele>232.0</ele><time>2026-05-01T15:49:10Z</time></trkpt><trkpt lat="47.995915206276564" lon="16.227358605299038"><ele>232.0</ele><time>2026-05-01T15:49:11Z</time></trkpt><trkpt lat="47.99583409420781" lon="16.227303422918887"><ele>232.0</ele><time>2026-05-01T15:49:12Z</time></trkpt><trkpt lat="47.995761972965745" lon="16.227248000112347"><ele>231.99999999999997</ele><time>2026-05-01T15:49:13Z</time></trkpt><trkpt lat="47.9956980603062" lon="16.227126167865944"><ele>232.0</ele><time>2026-05-01T15:49:14Z</time></trkpt><trkpt lat="47.99560392948437" lon="16.227064319350365"><ele>232.0</ele><time>2026-05-01T15:49:15Z</time></trkpt><trkpt lat="47.99550603250521" lon="16.22699899785552"><ele>232.0</ele><time>2026-05-01T15:49:16Z</time></trkpt><trkpt lat="47.99540891930297" lon="16.22694256209601"><ele>232.0</ele><time>2026-05-01T15:49:17Z</time></trkpt><trkpt lat="47.99531708245891" lon="16.226887699695308"><ele>232.0</ele><time>2026-05-01T15:49:18Z</time></trkpt><trkpt lat="47.99522536283652" lon="16.22683290728216"><ele>232.0</ele><time>2026-05-01T15:49:19Z</time></trkpt><trkpt lat="47.99513762195549" lon="16.226772054703805"><ele>232.0</ele><time>2026-05-01T15:49:20Z</time></trkpt><trkpt lat="47.99504771147028" lon="16.226717085229005"><ele>232.0</ele><time>2026-05-01T15:49:21Z</time></trkpt><trkpt lat="47.99495851636166" lon="16.226662553131376"><ele>232.0</ele><time>2026-05-01T15:49:22Z</time></trkpt><trkpt lat="47.99486998655336" lon="16.226609841342775"><ele>232.0</ele><time>2026-05-01T15:49:23Z</time></trkpt><trkpt lat="47.99477917618986" lon="16.22656667139076"><ele>232.0</ele><time>2026-05-01T15:49:24Z</time></trkpt><trkpt lat="47.99468685305803" lon="16.22656977273231"><ele>232.16666666666666</ele><time>2026-05-01T15:49:25Z</time></trkpt><trkpt lat="47.994610511943634" lon="16.22652785379686"><ele>232.33333333333331</ele><time>2026-05-01T15:49:26Z</time></trkpt><trkpt lat="47.99454223106095" lon="16.226487851802265"><ele>232.5</ele><time>2026-05-01T15:49:27Z</time></trkpt><trkpt lat="47.99444860397023" lon="16.226390036710193"><ele>232.66666666666669</ele><time>2026-05-01T15:49:29Z</time></trkpt><trkpt lat="47.994376079802926" lon="16.226350088176826"><ele>232.83333333333334</ele><time>2026-05-01T15:49:32Z</time></trkpt><trkpt lat="47.99428612828917" lon="16.22629997827698"><ele>233.0</ele><time>2026-05-01T15:49:39Z</time></trkpt><trkpt lat="47.994214280497516" lon="16.226257659120375"><ele>234.4</ele><time>2026-05-01T15:49:40Z</time></trkpt><trkpt lat="47.99412966593784" lon="16.226207819834176"><ele>235.8</ele><time>2026-05-01T15:49:41Z</time></trkpt><trkpt lat="47.99404802094674" lon="16.22615694112077"><ele>237.2</ele><time>2026-05-01T15:49:42Z</time></trkpt><trkpt lat="47.993965659650605" lon="16.226113469883273"><ele>238.6</ele><time>2026-05-01T15:49:43Z</time></trkpt><trkpt lat="47.99387229075257" lon="16.2260638031694"><ele>240.0</ele><time>2026-05-01T15:49:44Z</time></trkpt><trkpt lat="47.99377247488189" lon="16.226010707029285"><ele>240.0</ele><time>2026-05-01T15:49:45Z</time></trkpt><trkpt lat="47.993670783786634" lon="16.225956613416518"><ele>240.0</ele><time>2026-05-01T15:49:46Z</time></trkpt><trkpt lat="47.99356623254166" lon="16.225899012974818"><ele>240.0</ele><time>2026-05-01T15:49:47Z</time></trkpt><trkpt lat="47.99346039066971" lon="16.22583512856605"><ele>240.0</ele><time>2026-05-01T15:49:48Z</time></trkpt><trkpt lat="47.993356641916236" lon="16.225771412551488"><ele>240.0</ele><time>2026-05-01T15:49:49Z</time></trkpt><trkpt lat="47.99324910177174" lon="16.22570915946868"><ele>240.5</ele><time>2026-05-01T15:49:50Z</time></trkpt><trkpt lat="47.99313380955327" lon="16.225649909346384"><ele>241.0</ele><time>2026-05-01T15:49:51Z</time></trkpt><trkpt lat="47.99300951285222" lon="16.225602278357805"><ele>241.5</ele><time>2026-05-01T15:49:52Z</time></trkpt><trkpt lat="47.99288229521005" lon="16.225578914863885"><ele>242.0</ele><time>2026-05-01T15:49:53.001Z</time></trkpt><trkpt lat="47.99276754880932" lon="16.22553435448504"><ele>242.0</ele><time>2026-05-01T15:49:54.001Z</time></trkpt><trkpt lat="47.99264702074109" lon="16.225482164670087"><ele>242.0</ele><time>2026-05-01T15:49:55.001Z</time></trkpt><trkpt lat="47.99252869670177" lon="16.225442256520644"><ele>242.0</ele><time>2026-05-01T15:49:56.001Z</time></trkpt><trkpt lat="47.99240917446487" lon="16.225403744711357"><ele>242.0</ele><time>2026-05-01T15:49:57.001Z</time></trkpt><trkpt lat="47.992287463894165" lon="16.22536452778857"><ele>241.75</ele><time>2026-05-01T15:49:58.001Z</time></trkpt><trkpt lat="47.9921621238644" lon="16.22532777584921"><ele>241.5</ele><time>2026-05-01T15:49:59.001Z</time></trkpt><trkpt lat="47.992037324132816" lon="16.22530347699533"><ele>241.25</ele><time>2026-05-01T15:50:00.001Z</time></trkpt><trkpt lat="47.99191214316775" lon="16.225285945602074"><ele>241.0</ele><time>2026-05-01T15:50:01.001Z</time></trkpt><trkpt lat="47.99178520772762" lon="16.225268077977923"><ele>240.75</ele><time>2026-05-01T15:50:02.001Z</time></trkpt><trkpt lat="47.991654915505336" lon="16.22525414514784"><ele>240.5</ele><time>2026-05-01T15:50:03.001Z</time></trkpt><trkpt lat="47.99152592951885" lon="16.225241765990386"><ele>240.25</ele><time>2026-05-01T15:50:04.001Z</time></trkpt><trkpt lat="47.99139601736905" lon="16.225227998383588"><ele>240.0</ele><time>2026-05-01T15:50:05.001Z</time></trkpt><trkpt lat="47.99126158244456" lon="16.22521502957335"><ele>240.0</ele><time>2026-05-01T15:50:06.001Z</time></trkpt><trkpt lat="47.99112043820739" lon="16.22520193868558"><ele>240.0</ele><time>2026-05-01T15:50:07.001Z</time></trkpt><trkpt lat="47.990971519454746" lon="16.225189377870745"><ele>240.0</ele><time>2026-05-01T15:50:08.001Z</time></trkpt><trkpt lat="47.990818604162605" lon="16.225172554255007"><ele>240.0</ele><time>2026-05-01T15:50:09.001Z</time></trkpt><trkpt lat="47.99066040518474" lon="16.2251468443639"><ele>239.33333333333331</ele><time>2026-05-01T15:50:10.001Z</time></trkpt><trkpt lat="47.990504446322724" lon="16.225116267886836"><ele>238.66666666666666</ele><time>2026-05-01T15:50:11.001Z</time></trkpt><trkpt lat="47.99035584621013" lon="16.225077250704032"><ele>238.0</ele><time>2026-05-01T15:50:12.001Z</time></trkpt><trkpt lat="47.990206094073514" lon="16.225027438107542"><ele>238.0</ele><time>2026-05-01T15:50:13.001Z</time></trkpt><trkpt lat="47.9900545936334" lon="16.224973843694574"><ele>238.0</ele><time>2026-05-01T15:50:14.001Z</time></trkpt><trkpt lat="47.989906178346544" lon="16.22491502128866"><ele>238.0</ele><time>2026-05-01T15:50:15.001Z</time></trkpt><trkpt lat="47.98976454498107" lon="16.224833324896114"><ele>238.0</ele><time>2026-05-01T15:50:16.001Z</time></trkpt><trkpt lat="47.98960140742381" lon="16.224814959471452"><ele>238.0</ele><time>2026-05-01T15:50:17.001Z</time></trkpt><trkpt lat="47.98945478562973" lon="16.224738278568612"><ele>238.0</ele><time>2026-05-01T15:50:18.001Z</time></trkpt><trkpt lat="47.98930598043568" lon="16.224658829402344"><ele>238.33333333333331</ele><time>2026-05-01T15:50:19.001Z</time></trkpt><trkpt lat="47.9891562868561" lon="16.224577328721903"><ele>238.66666666666669</ele><time>2026-05-01T15:50:20.001Z</time></trkpt><trkpt lat="47.98902365514466" lon="16.224423029908717"><ele>239.0</ele><time>2026-05-01T15:50:21.001Z</time></trkpt><trkpt lat="47.988869065294395" lon="16.224347579151292"><ele>239.0</ele><time>2026-05-01T15:50:22.001Z</time></trkpt><trkpt lat="47.98871586507712" lon="16.224282159839237"><ele>239.0</ele><time>2026-05-01T15:50:23Z</time></trkpt><trkpt lat="47.988563243490816" lon="16.22421652435205"><ele>239.0</ele><time>2026-05-01T15:50:24Z</time></trkpt><trkpt lat="47.988409235331176" lon="16.224149918416423"><ele>239.0</ele><time>2026-05-01T15:50:25Z</time></trkpt><trkpt lat="47.98825463635179" lon="16.22408701270543"><ele>239.0</ele><time>2026-05-01T15:50:26Z</time></trkpt><trkpt lat="47.98809893396395" lon="16.224024539527964"><ele>239.0</ele><time>2026-05-01T15:50:27Z</time></trkpt><trkpt lat="47.98794154042008" lon="16.223961619620507"><ele>239.0</ele><time>2026-05-01T15:50:28Z</time></trkpt><trkpt lat="47.9877822700272" lon="16.223898730843874"><ele>239.0</ele><time>2026-05-01T15:50:29Z</time></trkpt><trkpt lat="47.98761948445484" lon="16.22383467432586"><ele>239.0</ele><time>2026-05-01T15:50:30Z</time></trkpt><trkpt lat="47.98745398121442" lon="16.22376954835339"><ele>238.0</ele><time>2026-05-01T15:50:31Z</time></trkpt><trkpt lat="47.98728734224774" lon="16.223703975581294"><ele>237.0</ele><time>2026-05-01T15:50:32Z</time></trkpt><trkpt lat="47.98711735987456" lon="16.223636104656354"><ele>236.0</ele><time>2026-05-01T15:50:33Z</time></trkpt><trkpt lat="47.98694488911332" lon="16.22356716268171"><ele>236.0</ele><time>2026-05-01T15:50:34Z</time></trkpt><trkpt lat="47.986769003668606" lon="16.223496273370756"><ele>236.0</ele><time>2026-05-01T15:50:35Z</time></trkpt><trkpt lat="47.98659748849052" lon="16.223426965872275"><ele>236.0</ele><time>2026-05-01T15:50:36Z</time></trkpt><trkpt lat="47.986422282367016" lon="16.22335719916703"><ele>235.66666666666669</ele><time>2026-05-01T15:50:37Z</time></trkpt><trkpt lat="47.98624689268563" lon="16.223287992567897"><ele>235.33333333333331</ele><time>2026-05-01T15:50:38Z</time></trkpt><trkpt lat="47.98607813575293" lon="16.22322140327851"><ele>235.0</ele><time>2026-05-01T15:50:39Z</time></trkpt><trkpt lat="47.98592019890215" lon="16.223156176171905"><ele>235.75</ele><time>2026-05-01T15:50:40Z</time></trkpt><trkpt lat="47.9857715214371" lon="16.2230818348434"><ele>236.5</ele><time>2026-05-01T15:50:41Z</time></trkpt><trkpt lat="47.98563315024603" lon="16.223006297306444"><ele>237.25</ele><time>2026-05-01T15:50:42Z</time></trkpt><trkpt lat="47.985504627133274" lon="16.222931164934444"><ele>238.0</ele><time>2026-05-01T15:50:43Z</time></trkpt><trkpt lat="47.98538238173982" lon="16.222853731723266"><ele>238.0</ele><time>2026-05-01T15:50:44Z</time></trkpt><trkpt lat="47.98527118872706" lon="16.22277774681116"><ele>238.0</ele><time>2026-05-01T15:50:45Z</time></trkpt><trkpt lat="47.98516929841108" lon="16.222702562370525"><ele>238.0</ele><time>2026-05-01T15:50:46Z</time></trkpt><trkpt lat="47.98507066103968" lon="16.222625060655897"><ele>238.0</ele><time>2026-05-01T15:50:47Z</time></trkpt><trkpt lat="47.9849748563321" lon="16.22254223331193"><ele>238.4</ele><time>2026-05-01T15:50:48Z</time></trkpt><trkpt lat="47.98486416066168" lon="16.222499185834756"><ele>238.8</ele><time>2026-05-01T15:50:49Z</time></trkpt><trkpt lat="47.984777910885676" lon="16.222410499400965"><ele>239.2</ele><time>2026-05-01T15:50:50Z</time></trkpt><trkpt lat="47.984699286358044" lon="16.222321866353"><ele>239.6</ele><time>2026-05-01T15:50:51Z</time></trkpt><trkpt lat="47.98463001648823" lon="16.222238147721335"><ele>240.0</ele><time>2026-05-01T15:50:52Z</time></trkpt><trkpt lat="47.984564466142515" lon="16.222157113087633"><ele>240.0</ele><time>2026-05-01T15:50:53Z</time></trkpt><trkpt lat="47.98450839853702" lon="16.222080246429275"><ele>240.0</ele><time>2026-05-01T15:50:54Z</time></trkpt><trkpt lat="47.98448185509807" lon="16.2219828063631"><ele>240.0</ele><time>2026-05-01T15:50:55Z</time></trkpt><trkpt lat="47.98439878825389" lon="16.221868607929267"><ele>240.0</ele><time>2026-05-01T15:50:57Z</time></trkpt><trkpt lat="47.984311334344284" lon="16.22173574351013"><ele>240.0</ele><time>2026-05-01T15:50:59Z</time></trkpt><trkpt lat="47.984261639572324" lon="16.221659709130417"><ele>240.0</ele><time>2026-05-01T15:51:00Z</time></trkpt><trkpt lat="47.98420346647265" lon="16.221576817046966"><ele>240.0</ele><time>2026-05-01T15:51:01Z</time></trkpt><trkpt lat="47.984139224257916" lon="16.221498086222702"><ele>240.0</ele><time>2026-05-01T15:51:02Z</time></trkpt><trkpt lat="47.98405708440801" lon="16.221427166402666"><ele>240.0</ele><time>2026-05-01T15:51:03Z</time></trkpt><trkpt lat="47.98397535640639" lon="16.221353967716993"><ele>240.0</ele><time>2026-05-01T15:51:04Z</time></trkpt><trkpt lat="47.98387852743515" lon="16.221295653261027"><ele>240.6</ele><time>2026-05-01T15:51:05Z</time></trkpt><trkpt lat="47.98378278361108" lon="16.221245377423415"><ele>241.2</ele><time>2026-05-01T15:51:06Z</time></trkpt><trkpt lat="47.983679084192616" lon="16.221212621852455"><ele>241.8</ele><time>2026-05-01T15:51:07Z</time></trkpt><trkpt lat="47.98357866176241" lon="16.221179394131052"><ele>242.4</ele><time>2026-05-01T15:51:08Z</time></trkpt><trkpt lat="47.98347539021688" lon="16.221142761345863"><ele>243.0</ele><time>2026-05-01T15:51:09Z</time></trkpt><trkpt lat="47.98336564836308" lon="16.221121577107418"><ele>242.8</ele><time>2026-05-01T15:51:10Z</time></trkpt><trkpt lat="47.9832575787301" lon="16.22110991367782"><ele>242.60000000000002</ele><time>2026-05-01T15:51:11Z</time></trkpt><trkpt lat="47.983147889476236" lon="16.221099668588455"><ele>242.39999999999998</ele><time>2026-05-01T15:51:12Z</time></trkpt><trkpt lat="47.983048420774864" lon="16.22115203492272"><ele>242.2</ele><time>2026-05-01T15:51:13Z</time></trkpt><trkpt lat="47.98295605723096" lon="16.22114312067458"><ele>242.0</ele><time>2026-05-01T15:51:14Z</time></trkpt><trkpt lat="47.98287286344748" lon="16.22113767054051"><ele>242.0</ele><time>2026-05-01T15:51:15Z</time></trkpt><trkpt lat="47.98279531057171" lon="16.221132447084063"><ele>242.0</ele><time>2026-05-01T15:51:16Z</time></trkpt><trkpt lat="47.98267931904605" lon="16.221127018112828"><ele>242.0</ele><time>2026-05-01T15:51:18Z</time></trkpt><trkpt lat="47.982551072507704" lon="16.221122375732378"><ele>242.0</ele><time>2026-05-01T15:51:20Z</time></trkpt><trkpt lat="47.982469343980824" lon="16.221109938538703"><ele>242.0</ele><time>2026-05-01T15:51:21Z</time></trkpt><trkpt lat="47.982377834133615" lon="16.221097140378603"><ele>242.2</ele><time>2026-05-01T15:51:22Z</time></trkpt><trkpt lat="47.982278037554394" lon="16.22108810352691"><ele>242.39999999999998</ele><time>2026-05-01T15:51:23Z</time></trkpt><trkpt lat="47.98217508556977" lon="16.221017697951975"><ele>242.60000000000002</ele><time>2026-05-01T15:51:24Z</time></trkpt><trkpt lat="47.98206579973571" lon="16.221067284084796"><ele>242.8</ele><time>2026-05-01T15:51:25Z</time></trkpt><trkpt lat="47.981956544422374" lon="16.22105318087279"><ele>243.0</ele><time>2026-05-01T15:51:26Z</time></trkpt><trkpt lat="47.981848458562666" lon="16.22104274456216"><ele>243.0</ele><time>2026-05-01T15:51:27Z</time></trkpt><trkpt lat="47.98174111876252" lon="16.22103250239528"><ele>243.0</ele><time>2026-05-01T15:51:28Z</time></trkpt><trkpt lat="47.981636366849905" lon="16.22096509153514"><ele>243.0</ele><time>2026-05-01T15:51:29Z</time></trkpt><trkpt lat="47.98152781875211" lon="16.220950081608102"><ele>243.0</ele><time>2026-05-01T15:51:30Z</time></trkpt><trkpt lat="47.981416338063056" lon="16.220932571773456"><ele>243.0</ele><time>2026-05-01T15:51:31Z</time></trkpt><trkpt lat="47.98130272855973" lon="16.220914727578062"><ele>242.75</ele><time>2026-05-01T15:51:32Z</time></trkpt><trkpt lat="47.98119005415094" lon="16.220897030258453"><ele>242.5</ele><time>2026-05-01T15:51:33Z</time></trkpt><trkpt lat="47.98107915040052" lon="16.22087961103861"><ele>242.25</ele><time>2026-05-01T15:51:34Z</time></trkpt><trkpt lat="47.98096229214264" lon="16.22086227152679"><ele>242.0</ele><time>2026-05-01T15:51:35Z</time></trkpt><trkpt lat="47.98084548446477" lon="16.220845275456632"><ele>242.0</ele><time>2026-05-01T15:51:36Z</time></trkpt><trkpt lat="47.98072722761924" lon="16.22082806852618"><ele>242.0</ele><time>2026-05-01T15:51:37Z</time></trkpt><trkpt lat="47.98060659261216" lon="16.220810515568335"><ele>242.0</ele><time>2026-05-01T15:51:38Z</time></trkpt><trkpt lat="47.98048457573158" lon="16.22079294396029"><ele>242.0</ele><time>2026-05-01T15:51:39Z</time></trkpt><trkpt lat="47.98036364699651" lon="16.220775727137806"><ele>242.0</ele><time>2026-05-01T15:51:40Z</time></trkpt><trkpt lat="47.98024237123772" lon="16.220758460422623"><ele>242.0</ele><time>2026-05-01T15:51:41Z</time></trkpt><trkpt lat="47.98012172536999" lon="16.220740358399325"><ele>242.0</ele><time>2026-05-01T15:51:42Z</time></trkpt><trkpt lat="47.980002058634845" lon="16.220722724805906"><ele>242.0</ele><time>2026-05-01T15:51:43Z</time></trkpt><trkpt lat="47.979882274621175" lon="16.220705669453316"><ele>241.75</ele><time>2026-05-01T15:51:44Z</time></trkpt><trkpt lat="47.97976220901596" lon="16.22068878386844"><ele>241.5</ele><time>2026-05-01T15:51:45Z</time></trkpt><trkpt lat="47.979644331073594" lon="16.22067220555105"><ele>241.25</ele><time>2026-05-01T15:51:46Z</time></trkpt><trkpt lat="47.97952595785051" lon="16.22065351387031"><ele>241.0</ele><time>2026-05-01T15:51:47Z</time></trkpt><trkpt lat="47.97940774989313" lon="16.220634337289486"><ele>241.0</ele><time>2026-05-01T15:51:48Z</time></trkpt><trkpt lat="47.979288697166986" lon="16.220615586121177"><ele>241.0</ele><time>2026-05-01T15:51:49Z</time></trkpt><trkpt lat="47.97917043353558" lon="16.2205984658259"><ele>241.0</ele><time>2026-05-01T15:51:50Z</time></trkpt><trkpt lat="47.97905501326811" lon="16.22057813459065"><ele>241.0</ele><time>2026-05-01T15:51:51Z</time></trkpt><trkpt lat="47.978936831301596" lon="16.22054943292739"><ele>241.0</ele><time>2026-05-01T15:51:52Z</time></trkpt><trkpt lat="47.97882240452426" lon="16.22051153110467"><ele>241.0</ele><time>2026-05-01T15:51:53Z</time></trkpt><trkpt lat="47.97871431296868" lon="16.22046587033546"><ele>241.0</ele><time>2026-05-01T15:51:54Z</time></trkpt><trkpt lat="47.978600627117984" lon="16.22041358750964"><ele>241.0</ele><time>2026-05-01T15:51:55Z</time></trkpt><trkpt lat="47.97847077073731" lon="16.220433102525845"><ele>241.0</ele><time>2026-05-01T15:51:56Z</time></trkpt><trkpt lat="47.978356322433456" lon="16.22037644847546"><ele>241.0</ele><time>2026-05-01T15:51:57Z</time></trkpt><trkpt lat="47.97824235358875" lon="16.220318279742838"><ele>241.0</ele><time>2026-05-01T15:51:58Z</time></trkpt><trkpt lat="47.97812888700569" lon="16.220258636094165"><ele>241.0</ele><time>2026-05-01T15:51:59Z</time></trkpt><trkpt lat="47.978017435324645" lon="16.220197784214893"><ele>241.60000000000002</ele><time>2026-05-01T15:52:00Z</time></trkpt><trkpt lat="47.97791156946932" lon="16.220138060697966"><ele>242.20000000000002</ele><time>2026-05-01T15:52:01Z</time></trkpt><trkpt lat="47.97781731769004" lon="16.220084436798825"><ele>242.79999999999998</ele><time>2026-05-01T15:52:02Z</time></trkpt><trkpt lat="47.977738785410736" lon="16.220040465033343"><ele>243.39999999999998</ele><time>2026-05-01T15:52:03Z</time></trkpt><trkpt lat="47.97764296905201" lon="16.219988215178336"><ele>244.0</ele><time>2026-05-01T15:52:05Z</time></trkpt><trkpt lat="47.97755879822541" lon="16.219908004165134"><ele>244.25</ele><time>2026-05-01T15:52:07Z</time></trkpt><trkpt lat="47.977465483594855" lon="16.21973300260904"><ele>244.5</ele><time>2026-05-01T15:52:09.001Z</time></trkpt><trkpt lat="47.977356643591655" lon="16.219883481163944"><ele>244.75</ele><time>2026-05-01T15:52:11.001Z</time></trkpt><trkpt lat="47.97738317815541" lon="16.220081441610976"><ele>245.0</ele><time>2026-05-01T15:52:13.001Z</time></trkpt><trkpt lat="47.97739178249127" lon="16.22018381127413"><ele>245.0</ele><time>2026-05-01T15:52:14.001Z</time></trkpt><trkpt lat="47.97723184451978" lon="16.220216484872292"><ele>245.0</ele><time>2026-05-01T15:52:15.001Z</time></trkpt><trkpt lat="47.97735740911666" lon="16.220424428833674"><ele>245.0</ele><time>2026-05-01T15:52:16.001Z</time></trkpt><trkpt lat="47.97732776781023" lon="16.220556341831767"><ele>245.0</ele><time>2026-05-01T15:52:17.001Z</time></trkpt><trkpt lat="47.97729066070986" lon="16.220698485653813"><ele>244.8</ele><time>2026-05-01T15:52:18.001Z</time></trkpt><trkpt lat="47.977251548595575" lon="16.22085439658719"><ele>244.6</ele><time>2026-05-01T15:52:19.001Z</time></trkpt><trkpt lat="47.97721241546036" lon="16.22100686391604"><ele>244.39999999999998</ele><time>2026-05-01T15:52:20.001Z</time></trkpt><trkpt lat="47.97716902645507" lon="16.221159354343616"><ele>244.2</ele><time>2026-05-01T15:52:21.001Z</time></trkpt><trkpt lat="47.97711548524777" lon="16.221310786603713"><ele>244.0</ele><time>2026-05-01T15:52:22.001Z</time></trkpt><trkpt lat="47.977048552926" lon="16.221449217817074"><ele>244.2</ele><time>2026-05-01T15:52:23.001Z</time></trkpt><trkpt lat="47.97694930905108" lon="16.221526875700693"><ele>244.39999999999998</ele><time>2026-05-01T15:52:24.001Z</time></trkpt><trkpt lat="47.97685016351523" lon="16.221571252334503"><ele>244.6</ele><time>2026-05-01T15:52:25.001Z</time></trkpt><trkpt lat="47.97674611676035" lon="16.22160830376044"><ele>244.8</ele><time>2026-05-01T15:52:26.001Z</time></trkpt><trkpt lat="47.97663929515215" lon="16.221632584295985"><ele>245.0</ele><time>2026-05-01T15:52:27.001Z</time></trkpt><trkpt lat="47.97653068137069" lon="16.221638362671563"><ele>245.0</ele><time>2026-05-01T15:52:28.001Z</time></trkpt><trkpt lat="47.97641660313667" lon="16.221646748010215"><ele>245.0</ele><time>2026-05-01T15:52:29Z</time></trkpt><trkpt lat="47.97630280770229" lon="16.22168027575732"><ele>245.0</ele><time>2026-05-01T15:52:30Z</time></trkpt><trkpt lat="47.976191534446464" lon="16.221685534635203"><ele>245.0</ele><time>2026-05-01T15:52:31Z</time></trkpt><trkpt lat="47.97608006433752" lon="16.221691174142567"><ele>245.0</ele><time>2026-05-01T15:52:32Z</time></trkpt><trkpt lat="47.97596880253603" lon="16.221695676553264"><ele>245.0</ele><time>2026-05-01T15:52:33Z</time></trkpt><trkpt lat="47.97585726016325" lon="16.221699398373037"><ele>245.0</ele><time>2026-05-01T15:52:34Z</time></trkpt><trkpt lat="47.97574573423935" lon="16.22170303255934"><ele>245.0</ele><time>2026-05-01T15:52:35Z</time></trkpt><trkpt lat="47.97563322858162" lon="16.22166901312361"><ele>245.0</ele><time>2026-05-01T15:52:36Z</time></trkpt><trkpt lat="47.97552145195587" lon="16.221674468459447"><ele>244.4</ele><time>2026-05-01T15:52:37Z</time></trkpt><trkpt lat="47.975412776908705" lon="16.22168529694833"><ele>243.8</ele><time>2026-05-01T15:52:38Z</time></trkpt><trkpt lat="47.97531416660955" lon="16.221700254586587"><ele>243.2</ele><time>2026-05-01T15:52:39Z</time></trkpt><trkpt lat="47.975224748312876" lon="16.221761965314077"><ele>242.6</ele><time>2026-05-01T15:52:40Z</time></trkpt><trkpt lat="47.975136821788226" lon="16.221814105692058"><ele>242.0</ele><time>2026-05-01T15:52:41Z</time></trkpt><trkpt lat="47.97505624315984" lon="16.221900105355004"><ele>242.2</ele><time>2026-05-01T15:52:42Z</time></trkpt><trkpt lat="47.97499217687452" lon="16.222013139345908"><ele>242.39999999999998</ele><time>2026-05-01T15:52:43Z</time></trkpt><trkpt lat="47.97494642510539" lon="16.22215188034561"><ele>242.60000000000002</ele><time>2026-05-01T15:52:44Z</time></trkpt><trkpt lat="47.97491057295202" lon="16.222305550401895"><ele>242.8</ele><time>2026-05-01T15:52:45Z</time></trkpt><trkpt lat="47.974874356629215" lon="16.222462832571605"><ele>243.0</ele><time>2026-05-01T15:52:46Z</time></trkpt><trkpt lat="47.97483585123143" lon="16.222624828362044"><ele>243.0</ele><time>2026-05-01T15:52:47Z</time></trkpt><trkpt lat="47.97479680160443" lon="16.22278974896153"><ele>243.0</ele><time>2026-05-01T15:52:48Z</time></trkpt><trkpt lat="47.9747623272891" lon="16.222961587885724"><ele>243.0</ele><time>2026-05-01T15:52:49Z</time></trkpt><trkpt lat="47.97473741043418" lon="16.22314229766426"><ele>243.0</ele><time>2026-05-01T15:52:50Z</time></trkpt><trkpt lat="47.974722136183836" lon="16.223323192162916"><ele>242.25</ele><time>2026-05-01T15:52:51Z</time></trkpt><trkpt lat="47.974720445379944" lon="16.22351189920466"><ele>241.5</ele><time>2026-05-01T15:52:52Z</time></trkpt><trkpt lat="47.974724279690385" lon="16.22369954264152"><ele>240.75</ele><time>2026-05-01T15:52:53Z</time></trkpt><trkpt lat="47.974732643180424" lon="16.22388973736269"><ele>240.0</ele><time>2026-05-01T15:52:54Z</time></trkpt><trkpt lat="47.974748029597684" lon="16.22408099902265"><ele>240.0</ele><time>2026-05-01T15:52:55Z</time></trkpt><trkpt lat="47.974768205227356" lon="16.224272819089002"><ele>240.0</ele><time>2026-05-01T15:52:56Z</time></trkpt><trkpt lat="47.9747863748379" lon="16.224465206822085"><ele>240.0</ele><time>2026-05-01T15:52:57Z</time></trkpt><trkpt lat="47.9748028034622" lon="16.224658740103248"><ele>240.0</ele><time>2026-05-01T15:52:58Z</time></trkpt><trkpt lat="47.97481852917553" lon="16.224848958904833"><ele>240.0</ele><time>2026-05-01T15:52:59Z</time></trkpt><trkpt lat="47.97483622849476" lon="16.225040628940352"><ele>240.0</ele><time>2026-05-01T15:53:00Z</time></trkpt><trkpt lat="47.974854142382405" lon="16.22523374708011"><ele>240.0</ele><time>2026-05-01T15:53:01Z</time></trkpt><trkpt lat="47.974868026524696" lon="16.225425689988125"><ele>240.0</ele><time>2026-05-01T15:53:02Z</time></trkpt><trkpt lat="47.974880363438174" lon="16.22561999106988"><ele>240.0</ele><time>2026-05-01T15:53:03Z</time></trkpt><trkpt lat="47.974892992165145" lon="16.22581232986419"><ele>240.0</ele><time>2026-05-01T15:53:04Z</time></trkpt><trkpt lat="47.974906598993705" lon="16.226000002893727"><ele>240.0</ele><time>2026-05-01T15:53:05Z</time></trkpt><trkpt lat="47.97491843909202" lon="16.226181551835243"><ele>240.0</ele><time>2026-05-01T15:53:06Z</time></trkpt><trkpt lat="47.97492328013743" lon="16.226357475927788"><ele>239.8</ele><time>2026-05-01T15:53:07Z</time></trkpt><trkpt lat="47.97492155114318" lon="16.226517244817515"><ele>239.6</ele><time>2026-05-01T15:53:08Z</time></trkpt><trkpt lat="47.974916573171996" lon="16.22667151574299"><ele>239.39999999999998</ele><time>2026-05-01T15:53:09Z</time></trkpt><trkpt lat="47.97491014261092" lon="16.22680635905561"><ele>239.2</ele><time>2026-05-01T15:53:10Z</time></trkpt><trkpt lat="47.97490244899076" lon="16.226906744312835"><ele>239.0</ele><time>2026-05-01T15:53:11Z</time></trkpt><trkpt lat="47.97487402122723" lon="16.227086160102616"><ele>239.00000000000003</ele><time>2026-05-01T15:53:13Z</time></trkpt><trkpt lat="47.974829847341" lon="16.22717718494505"><ele>239.0</ele><time>2026-05-01T15:53:14Z</time></trkpt><trkpt lat="47.974781346379615" lon="16.227264383579445"><ele>239.0</ele><time>2026-05-01T15:53:15Z</time></trkpt><trkpt lat="47.97475995355788" lon="16.22736837978927"><ele>239.0</ele><time>2026-05-01T15:53:16Z</time></trkpt><trkpt lat="47.974763702496176" lon="16.227489126846034"><ele>239.00000000000003</ele><time>2026-05-01T15:53:17Z</time></trkpt><trkpt lat="47.97478184594753" lon="16.227620129395614"><ele>239.0</ele><time>2026-05-01T15:53:18Z</time></trkpt><trkpt lat="47.97478386784372" lon="16.22776299438226"><ele>238.39999999999998</ele><time>2026-05-01T15:53:19Z</time></trkpt><trkpt lat="47.97476145549005" lon="16.227913211102866"><ele>237.79999999999998</ele><time>2026-05-01T15:53:20Z</time></trkpt><trkpt lat="47.97472865555694" lon="16.228070160021517"><ele>237.20000000000002</ele><time>2026-05-01T15:53:21Z</time></trkpt><trkpt lat="47.974695602248076" lon="16.228234086732915"><ele>236.60000000000002</ele><time>2026-05-01T15:53:22Z</time></trkpt><trkpt lat="47.974667313996484" lon="16.228408723813263"><ele>236.0</ele><time>2026-05-01T15:53:23Z</time></trkpt><trkpt lat="47.97464590086948" lon="16.228595318909765"><ele>236.0</ele><time>2026-05-01T15:53:24Z</time></trkpt><trkpt lat="47.97462996697614" lon="16.22880119834792"><ele>236.0</ele><time>2026-05-01T15:53:25Z</time></trkpt><trkpt lat="47.97461748215287" lon="16.22902565260807"><ele>236.0</ele><time>2026-05-01T15:53:26Z</time></trkpt><trkpt lat="47.9746111668457" lon="16.229245398086213"><ele>236.0</ele><time>2026-05-01T15:53:27Z</time></trkpt><trkpt lat="47.97461556221856" lon="16.229466932447288"><ele>236.33333333333334</ele><time>2026-05-01T15:53:28Z</time></trkpt><trkpt lat="47.97463033387261" lon="16.22969275250054"><ele>236.66666666666669</ele><time>2026-05-01T15:53:29Z</time></trkpt><trkpt lat="47.974652604055656" lon="16.22992192377902"><ele>237.0</ele><time>2026-05-01T15:53:30Z</time></trkpt><trkpt lat="47.974681675263966" lon="16.230154795804907"><ele>235.66666666666669</ele><time>2026-05-01T15:53:31Z</time></trkpt><trkpt lat="47.97472086084991" lon="16.230389070439944"><ele>234.33333333333334</ele><time>2026-05-01T15:53:32Z</time></trkpt><trkpt lat="47.974767114842535" lon="16.230621840008407"><ele>233.0</ele><time>2026-05-01T15:53:33Z</time></trkpt><trkpt lat="47.97482236324017" lon="16.230855872998234"><ele>232.66666666666669</ele><time>2026-05-01T15:53:34Z</time></trkpt><trkpt lat="47.974887780544165" lon="16.23109055238974"><ele>232.33333333333331</ele><time>2026-05-01T15:53:35Z</time></trkpt><trkpt lat="47.974950075261766" lon="16.231328345326517"><ele>232.0</ele><time>2026-05-01T15:53:36Z</time></trkpt><trkpt lat="47.97498491771209" lon="16.23157568469918"><ele>231.0</ele><time>2026-05-01T15:53:37Z</time></trkpt><trkpt lat="47.9750455278892" lon="16.231823769972856"><ele>230.0</ele><time>2026-05-01T15:53:38Z</time></trkpt><trkpt lat="47.97508116303894" lon="16.232091126144677"><ele>229.0</ele><time>2026-05-01T15:53:39Z</time></trkpt><trkpt lat="47.975109163871586" lon="16.232367735761777"><ele>228.66666666666666</ele><time>2026-05-01T15:53:40Z</time></trkpt><trkpt lat="47.97512536477695" lon="16.232651015977353"><ele>228.33333333333331</ele><time>2026-05-01T15:53:41Z</time></trkpt><trkpt lat="47.975140242700334" lon="16.23293617841902"><ele>228.0</ele><time>2026-05-01T15:53:42Z</time></trkpt><trkpt lat="47.97514991320015" lon="16.23322610612681"><ele>228.66666666666669</ele><time>2026-05-01T15:53:43Z</time></trkpt><trkpt lat="47.97515805006505" lon="16.233518037947054"><ele>229.33333333333334</ele><time>2026-05-01T15:53:44Z</time></trkpt><trkpt lat="47.97516635616299" lon="16.233810806250546"><ele>230.0</ele><time>2026-05-01T15:53:45Z</time></trkpt><trkpt lat="47.97517568847529" lon="16.234101354933056"><ele>230.33333333333334</ele><time>2026-05-01T15:53:46Z</time></trkpt><trkpt lat="47.975184676910665" lon="16.234391561034926"><ele>230.66666666666669</ele><time>2026-05-01T15:53:47Z</time></trkpt><trkpt lat="47.9751930688583" lon="16.234677225950104"><ele>231.0</ele><time>2026-05-01T15:53:48Z</time></trkpt><trkpt lat="47.97520035833665" lon="16.234957430331864"><ele>230.0</ele><time>2026-05-01T15:53:49Z</time></trkpt><trkpt lat="47.975208605531584" lon="16.235233010135946"><ele>229.0</ele><time>2026-05-01T15:53:50Z</time></trkpt><trkpt lat="47.97521400840785" lon="16.235507686467216"><ele>228.0</ele><time>2026-05-01T15:53:51Z</time></trkpt><trkpt lat="47.97521643965227" lon="16.235781267611205"><ele>228.0</ele><time>2026-05-01T15:53:52Z</time></trkpt><trkpt lat="47.975215924154085" lon="16.236054324558257"><ele>228.0</ele><time>2026-05-01T15:53:53Z</time></trkpt><trkpt lat="47.97521202789614" lon="16.236322781923576"><ele>228.0</ele><time>2026-05-01T15:53:54Z</time></trkpt><trkpt lat="47.97520253854523" lon="16.23659678291718"><ele>228.0</ele><time>2026-05-01T15:53:55Z</time></trkpt><trkpt lat="47.97518255477731" lon="16.23688060035413"><ele>228.0</ele><time>2026-05-01T15:53:56Z</time></trkpt><trkpt lat="47.975152657731385" lon="16.23717453492207"><ele>228.0</ele><time>2026-05-01T15:53:57Z</time></trkpt><trkpt lat="47.9751131526137" lon="16.23745513182734"><ele>227.66666666666669</ele><time>2026-05-01T15:53:58Z</time></trkpt><trkpt lat="47.97506541082408" lon="16.237733076792217"><ele>227.33333333333334</ele><time>2026-05-01T15:53:59Z</time></trkpt><trkpt lat="47.97500497818256" lon="16.238014073029056"><ele>227.0</ele><time>2026-05-01T15:54:00Z</time></trkpt><trkpt lat="47.97493465422472" lon="16.238286193057327"><ele>227.0</ele><time>2026-05-01T15:54:01Z</time></trkpt><trkpt lat="47.97483895357443" lon="16.23852689153383"><ele>227.0</ele><time>2026-05-01T15:54:02Z</time></trkpt><trkpt lat="47.97475137039971" lon="16.238773015251528"><ele>227.0</ele><time>2026-05-01T15:54:03Z</time></trkpt><trkpt lat="47.97465182595282" lon="16.239014914428086"><ele>227.33333333333334</ele><time>2026-05-01T15:54:04Z</time></trkpt><trkpt lat="47.97456032428077" lon="16.23926320676277"><ele>227.66666666666669</ele><time>2026-05-01T15:54:05Z</time></trkpt><trkpt lat="47.97443394300536" lon="16.239467483463216"><ele>228.0</ele><time>2026-05-01T15:54:06Z</time></trkpt><trkpt lat="47.97431544116012" lon="16.239679990730476"><ele>227.66666666666669</ele><time>2026-05-01T15:54:07Z</time></trkpt><trkpt lat="47.97418760050415" lon="16.23988104237056"><ele>227.33333333333334</ele><time>2026-05-01T15:54:08Z</time></trkpt><trkpt lat="47.97405436342796" lon="16.240069023744667"><ele>227.0</ele><time>2026-05-01T15:54:09Z</time></trkpt><trkpt lat="47.97392262655529" lon="16.24024189437885"><ele>227.0</ele><time>2026-05-01T15:54:10Z</time></trkpt><trkpt lat="47.97379534202764" lon="16.240391475609513"><ele>227.0</ele><time>2026-05-01T15:54:11Z</time></trkpt><trkpt lat="47.97366630927792" lon="16.240522804548917"><ele>227.0</ele><time>2026-05-01T15:54:12Z</time></trkpt><trkpt lat="47.973547010138226" lon="16.240658551766614"><ele>227.25</ele><time>2026-05-01T15:54:13Z</time></trkpt><trkpt lat="47.97341608390771" lon="16.240755998023815"><ele>227.5</ele><time>2026-05-01T15:54:14Z</time></trkpt><trkpt lat="47.973283874894385" lon="16.24085063998484"><ele>227.75</ele><time>2026-05-01T15:54:15Z</time></trkpt><trkpt lat="47.97315468210564" lon="16.240938452492184"><ele>228.0</ele><time>2026-05-01T15:54:16Z</time></trkpt><trkpt lat="47.97303217434128" lon="16.24102133161356"><ele>228.2</ele><time>2026-05-01T15:54:17Z</time></trkpt><trkpt lat="47.972921978872066" lon="16.241085741461042"><ele>228.4</ele><time>2026-05-01T15:54:18Z</time></trkpt><trkpt lat="47.972821870634746" lon="16.241117848671944"><ele>228.59999999999997</ele><time>2026-05-01T15:54:19Z</time></trkpt><trkpt lat="47.972729452160415" lon="16.241114653929905"><ele>228.79999999999998</ele><time>2026-05-01T15:54:20Z</time></trkpt><trkpt lat="47.972643113346855" lon="16.241081090355433"><ele>229.0</ele><time>2026-05-01T15:54:21Z</time></trkpt><trkpt lat="47.97255447429683" lon="16.24102949367786"><ele>229.75</ele><time>2026-05-01T15:54:22Z</time></trkpt><trkpt lat="47.97245528051988" lon="16.24095926029991"><ele>230.5</ele><time>2026-05-01T15:54:23Z</time></trkpt><trkpt lat="47.972344636243825" lon="16.240872316743598"><ele>231.25</ele><time>2026-05-01T15:54:24Z</time></trkpt><trkpt lat="47.97222275347849" lon="16.24077066344014"><ele>232.0</ele><time>2026-05-01T15:54:25.001Z</time></trkpt><trkpt lat="47.972092394680296" lon="16.240659213169792"><ele>231.33333333333331</ele><time>2026-05-01T15:54:26.001Z</time></trkpt><trkpt lat="47.9719553005051" lon="16.24053689614945"><ele>230.66666666666669</ele><time>2026-05-01T15:54:27.001Z</time></trkpt><trkpt lat="47.97182656369595" lon="16.240384554207857"><ele>230.0</ele><time>2026-05-01T15:54:28.001Z</time></trkpt><trkpt lat="47.97169522895939" lon="16.2402396494852"><ele>231.33333333333334</ele><time>2026-05-01T15:54:29.001Z</time></trkpt><trkpt lat="47.97156161828074" lon="16.24008207888484"><ele>232.66666666666669</ele><time>2026-05-01T15:54:30.001Z</time></trkpt><trkpt lat="47.971420760796015" lon="16.23992822881678"><ele>234.0</ele><time>2026-05-01T15:54:31.001Z</time></trkpt><trkpt lat="47.97129729315248" lon="16.23974181939325"><ele>234.0</ele><time>2026-05-01T15:54:32.001Z</time></trkpt><trkpt lat="47.97117662460804" lon="16.239542360703215"><ele>234.0</ele><time>2026-05-01T15:54:33.001Z</time></trkpt><trkpt lat="47.971055180854584" lon="16.239329110096467"><ele>234.0</ele><time>2026-05-01T15:54:34.001Z</time></trkpt><trkpt lat="47.970930167461226" lon="16.23910594117834"><ele>234.33333333333331</ele><time>2026-05-01T15:54:35Z</time></trkpt><trkpt lat="47.970799324673294" lon="16.238870417984614"><ele>234.66666666666666</ele><time>2026-05-01T15:54:36Z</time></trkpt><trkpt lat="47.97066113035572" lon="16.238627735433948"><ele>235.0</ele><time>2026-05-01T15:54:37Z</time></trkpt><trkpt lat="47.970512751193" lon="16.238377872919806"><ele>235.5</ele><time>2026-05-01T15:54:38Z</time></trkpt><trkpt lat="47.97035224632001" lon="16.238118858853827"><ele>236.0</ele><time>2026-05-01T15:54:39Z</time></trkpt><trkpt lat="47.970183971975864" lon="16.23784692102335"><ele>236.0</ele><time>2026-05-01T15:54:40Z</time></trkpt><trkpt lat="47.970012942035" lon="16.237567425825898"><ele>236.0</ele><time>2026-05-01T15:54:41Z</time></trkpt><trkpt lat="47.969851407751804" lon="16.237298511267415"><ele>235.0</ele><time>2026-05-01T15:54:42Z</time></trkpt><trkpt lat="47.96968695809859" lon="16.237023799025675"><ele>234.0</ele><time>2026-05-01T15:54:43Z</time></trkpt><trkpt lat="47.96951920710007" lon="16.236743886548137"><ele>235.0</ele><time>2026-05-01T15:54:44Z</time></trkpt><trkpt lat="47.96934431446115" lon="16.236459030494252"><ele>236.0</ele><time>2026-05-01T15:54:45Z</time></trkpt><trkpt lat="47.96917034971504" lon="16.23617189505656"><ele>237.0</ele><time>2026-05-01T15:54:46Z</time></trkpt><trkpt lat="47.96899976221398" lon="16.23589717560156"><ele>238.0</ele><time>2026-05-01T15:54:47Z</time></trkpt><trkpt lat="47.968823322340334" lon="16.235617996933257"><ele>238.5</ele><time>2026-05-01T15:54:48Z</time></trkpt><trkpt lat="47.96864404283605" lon="16.23533802005851"><ele>239.0</ele><time>2026-05-01T15:54:49Z</time></trkpt><trkpt lat="47.96846261718619" lon="16.23505738997823"><ele>239.5</ele><time>2026-05-01T15:54:50Z</time></trkpt><trkpt lat="47.96827848437215" lon="16.234777113397495"><ele>240.0</ele><time>2026-05-01T15:54:51Z</time></trkpt><trkpt lat="47.968090499069206" lon="16.234496838301325"><ele>240.0</ele><time>2026-05-01T15:54:52Z</time></trkpt><trkpt lat="47.967900150954506" lon="16.234216593351228"><ele>240.0</ele><time>2026-05-01T15:54:53Z</time></trkpt><trkpt lat="47.96770890757995" lon="16.233935673967803"><ele>241.5</ele><time>2026-05-01T15:54:54Z</time></trkpt><trkpt lat="47.96751573165921" lon="16.233653867974663"><ele>243.0</ele><time>2026-05-01T15:54:55Z</time></trkpt><trkpt lat="47.96732213402094" lon="16.233373473357474"><ele>244.5</ele><time>2026-05-01T15:54:56Z</time></trkpt><trkpt lat="47.967129229799355" lon="16.233096672473604"><ele>246.0</ele><time>2026-05-01T15:54:57Z</time></trkpt><trkpt lat="47.96693517671783" lon="16.232824629132008"><ele>246.0</ele><time>2026-05-01T15:54:58Z</time></trkpt><trkpt lat="47.96674109059718" lon="16.232556461352363"><ele>246.0</ele><time>2026-05-01T15:54:59Z</time></trkpt><trkpt lat="47.96654575555572" lon="16.23228938599546"><ele>245.5</ele><time>2026-05-01T15:55:00Z</time></trkpt><trkpt lat="47.96635232802277" lon="16.232022150671284"><ele>245.0</ele><time>2026-05-01T15:55:01Z</time></trkpt><trkpt lat="47.966155051543694" lon="16.23175652822752"><ele>245.0</ele><time>2026-05-01T15:55:02Z</time></trkpt><trkpt lat="47.96595652856554" lon="16.231493342115193"><ele>245.0</ele><time>2026-05-01T15:55:03Z</time></trkpt><trkpt lat="47.96575598677361" lon="16.231234236671547"><ele>243.5</ele><time>2026-05-01T15:55:04Z</time></trkpt><trkpt lat="47.965553334018246" lon="16.23097615793449"><ele>242.0</ele><time>2026-05-01T15:55:05Z</time></trkpt><trkpt lat="47.965349941575944" lon="16.230717744233715"><ele>242.5</ele><time>2026-05-01T15:55:06Z</time></trkpt><trkpt lat="47.96514793723177" lon="16.23045889640531"><ele>243.0</ele><time>2026-05-01T15:55:07Z</time></trkpt><trkpt lat="47.96494479761821" lon="16.230201248066106"><ele>243.5</ele><time>2026-05-01T15:55:08Z</time></trkpt><trkpt lat="47.964739833096054" lon="16.229947814979102"><ele>244.0</ele><time>2026-05-01T15:55:09Z</time></trkpt><trkpt lat="47.96453285114716" lon="16.2296975444742"><ele>244.5</ele><time>2026-05-01T15:55:10Z</time></trkpt><trkpt lat="47.96432276192662" lon="16.229448145209837"><ele>245.0</ele><time>2026-05-01T15:55:11Z</time></trkpt><trkpt lat="47.96411022411632" lon="16.229198331613375"><ele>245.0</ele><time>2026-05-01T15:55:12Z</time></trkpt><trkpt lat="47.96389623323001" lon="16.228949874656543"><ele>245.0</ele><time>2026-05-01T15:55:13Z</time></trkpt><trkpt lat="47.963681109134235" lon="16.228700108553316"><ele>245.0</ele><time>2026-05-01T15:55:14Z</time></trkpt><trkpt lat="47.963466579860395" lon="16.228452152001733"><ele>245.0</ele><time>2026-05-01T15:55:15Z</time></trkpt><trkpt lat="47.96325137002446" lon="16.228206935784225"><ele>245.0</ele><time>2026-05-01T15:55:16Z</time></trkpt><trkpt lat="47.96303458853031" lon="16.227963287330642"><ele>245.0</ele><time>2026-05-01T15:55:17Z</time></trkpt><trkpt lat="47.96281635433143" lon="16.22772214250076"><ele>245.0</ele><time>2026-05-01T15:55:18Z</time></trkpt><trkpt lat="47.96259692590898" lon="16.227483314837468"><ele>245.0</ele><time>2026-05-01T15:55:19Z</time></trkpt><trkpt lat="47.962376859688895" lon="16.227245953001837"><ele>245.0</ele><time>2026-05-01T15:55:20Z</time></trkpt><trkpt lat="47.96215550438094" lon="16.227010751590253"><ele>245.0</ele><time>2026-05-01T15:55:21Z</time></trkpt><trkpt lat="47.96193292349142" lon="16.226779426715094"><ele>245.0</ele><time>2026-05-01T15:55:22Z</time></trkpt><trkpt lat="47.96170882520862" lon="16.226551497678383"><ele>245.0</ele><time>2026-05-01T15:55:23Z</time></trkpt><trkpt lat="47.96148500455987" lon="16.22632453416415"><ele>246.0</ele><time>2026-05-01T15:55:24Z</time></trkpt><trkpt lat="47.96126024559856" lon="16.226097665272473"><ele>247.0</ele><time>2026-05-01T15:55:25Z</time></trkpt><trkpt lat="47.96103564271001" lon="16.225873454177687"><ele>248.0</ele><time>2026-05-01T15:55:26Z</time></trkpt><trkpt lat="47.96080999119479" lon="16.22565170348315"><ele>249.0</ele><time>2026-05-01T15:55:27Z</time></trkpt><trkpt lat="47.96058436904681" lon="16.22543223903806"><ele>249.0</ele><time>2026-05-01T15:55:28Z</time></trkpt><trkpt lat="47.96035843322653" lon="16.225215483560543"><ele>249.0</ele><time>2026-05-01T15:55:29Z</time></trkpt><trkpt lat="47.96013161368691" lon="16.225001633950214"><ele>250.0</ele><time>2026-05-01T15:55:30Z</time></trkpt><trkpt lat="47.95990381954679" lon="16.22478937036453"><ele>251.0</ele><time>2026-05-01T15:55:31Z</time></trkpt><trkpt lat="47.95967618676196" lon="16.224579034402904"><ele>251.0</ele><time>2026-05-01T15:55:32Z</time></trkpt><trkpt lat="47.959448708306" lon="16.22437001466796"><ele>251.0</ele><time>2026-05-01T15:55:33Z</time></trkpt><trkpt lat="47.95922126600649" lon="16.224160832547735"><ele>251.0</ele><time>2026-05-01T15:55:34Z</time></trkpt><trkpt lat="47.95899443535839" lon="16.223954170234425"><ele>251.0</ele><time>2026-05-01T15:55:35Z</time></trkpt><trkpt lat="47.95876668062951" lon="16.22375009567527"><ele>251.0</ele><time>2026-05-01T15:55:36Z</time></trkpt><trkpt lat="47.95853650908851" lon="16.223550405029687"><ele>251.0</ele><time>2026-05-01T15:55:37Z</time></trkpt><trkpt lat="47.95830630878539" lon="16.223351460924118"><ele>251.5</ele><time>2026-05-01T15:55:38Z</time></trkpt><trkpt lat="47.95807494753018" lon="16.22315418161366"><ele>252.0</ele><time>2026-05-01T15:55:39Z</time></trkpt><trkpt lat="47.95784339467812" lon="16.22295858993073"><ele>252.0</ele><time>2026-05-01T15:55:40Z</time></trkpt><trkpt lat="47.95761199927387" lon="16.222764263116183"><ele>252.0</ele><time>2026-05-01T15:55:41Z</time></trkpt><trkpt lat="47.95738138044401" lon="16.222567377474515"><ele>252.5</ele><time>2026-05-01T15:55:42Z</time></trkpt><trkpt lat="47.957150077242254" lon="16.222372438145623"><ele>253.0</ele><time>2026-05-01T15:55:43Z</time></trkpt><trkpt lat="47.95691761040349" lon="16.222178675593582"><ele>255.0</ele><time>2026-05-01T15:55:44Z</time></trkpt><trkpt lat="47.95668448307578" lon="16.22198585815498"><ele>257.0</ele><time>2026-05-01T15:55:45Z</time></trkpt><trkpt lat="47.95645241848962" lon="16.22179354672681"><ele>257.0</ele><time>2026-05-01T15:55:46Z</time></trkpt><trkpt lat="47.956219838163605" lon="16.221603195190315"><ele>257.0</ele><time>2026-05-01T15:55:47Z</time></trkpt><trkpt lat="47.955986381924845" lon="16.22141581989735"><ele>256.0</ele><time>2026-05-01T15:55:48Z</time></trkpt><trkpt lat="47.955751908137366" lon="16.221229854729046"><ele>255.0</ele><time>2026-05-01T15:55:49Z</time></trkpt><trkpt lat="47.95551647947606" lon="16.221042313729054"><ele>255.0</ele><time>2026-05-01T15:55:50Z</time></trkpt><trkpt lat="47.95527857140808" lon="16.22085562677117"><ele>255.0</ele><time>2026-05-01T15:55:51Z</time></trkpt><trkpt lat="47.95503996182431" lon="16.220668064070168"><ele>255.0</ele><time>2026-05-01T15:55:52Z</time></trkpt><trkpt lat="47.954800642473906" lon="16.22048180020173"><ele>255.0</ele><time>2026-05-01T15:55:53Z</time></trkpt><trkpt lat="47.95456033780755" lon="16.220298320854305"><ele>255.0</ele><time>2026-05-01T15:55:54Z</time></trkpt><trkpt lat="47.954320093512706" lon="16.220116857337633"><ele>255.0</ele><time>2026-05-01T15:55:55Z</time></trkpt><trkpt lat="47.95407904530455" lon="16.219938245728667"><ele>254.0</ele><time>2026-05-01T15:55:56Z</time></trkpt><trkpt lat="47.9538397766166" lon="16.21976088197578"><ele>253.0</ele><time>2026-05-01T15:55:57Z</time></trkpt><trkpt lat="47.95360167151186" lon="16.219584217117962"><ele>254.0</ele><time>2026-05-01T15:55:58Z</time></trkpt><trkpt lat="47.953361856795865" lon="16.21941231322869"><ele>255.0</ele><time>2026-05-01T15:55:59Z</time></trkpt><trkpt lat="47.95312244764318" lon="16.2192385798197"><ele>255.0</ele><time>2026-05-01T15:56:00Z</time></trkpt><trkpt lat="47.95288160460637" lon="16.219065582427362"><ele>255.0</ele><time>2026-05-01T15:56:01Z</time></trkpt><trkpt lat="47.952641006559986" lon="16.218893690674985"><ele>255.0</ele><time>2026-05-01T15:56:02Z</time></trkpt><trkpt lat="47.95239899034776" lon="16.218723524523032"><ele>255.0</ele><time>2026-05-01T15:56:03Z</time></trkpt><trkpt lat="47.95215598835536" lon="16.218557382327912"><ele>255.0</ele><time>2026-05-01T15:56:04Z</time></trkpt><trkpt lat="47.951910419238175" lon="16.218393511955686"><ele>255.0</ele><time>2026-05-01T15:56:05Z</time></trkpt><trkpt lat="47.95166424265161" lon="16.218228232506476"><ele>256.0</ele><time>2026-05-01T15:56:06Z</time></trkpt><trkpt lat="47.95141718365763" lon="16.218062779378194"><ele>257.0</ele><time>2026-05-01T15:56:07Z</time></trkpt><trkpt lat="47.95117137145636" lon="16.2178982418598"><ele>257.0</ele><time>2026-05-01T15:56:08Z</time></trkpt><trkpt lat="47.950923806423525" lon="16.217738298669136"><ele>257.0</ele><time>2026-05-01T15:56:09Z</time></trkpt><trkpt lat="47.950675537920866" lon="16.217578688158383"><ele>257.0</ele><time>2026-05-01T15:56:10Z</time></trkpt><trkpt lat="47.95042834275617" lon="16.217420458682433"><ele>257.0</ele><time>2026-05-01T15:56:11Z</time></trkpt><trkpt lat="47.95018132035965" lon="16.217264214835136"><ele>257.0</ele><time>2026-05-01T15:56:12Z</time></trkpt><trkpt lat="47.949933946914236" lon="16.217109594358618"><ele>257.0</ele><time>2026-05-01T15:56:13Z</time></trkpt><trkpt lat="47.9496863607581" lon="16.216957177388853"><ele>257.0</ele><time>2026-05-01T15:56:14Z</time></trkpt><trkpt lat="47.94943793456112" lon="16.216805994665513"><ele>257.0</ele><time>2026-05-01T15:56:15Z</time></trkpt><trkpt lat="47.94918937587332" lon="16.216654384271354"><ele>257.0</ele><time>2026-05-01T15:56:16Z</time></trkpt><trkpt lat="47.948939696827935" lon="16.21650695292612"><ele>257.0</ele><time>2026-05-01T15:56:17Z</time></trkpt><trkpt lat="47.94869063629936" lon="16.216359831891896"><ele>256.0</ele><time>2026-05-01T15:56:18Z</time></trkpt><trkpt lat="47.948441451228945" lon="16.216213030155526"><ele>255.0</ele><time>2026-05-01T15:56:19Z</time></trkpt><trkpt lat="47.94819266758206" lon="16.21606741918124"><ele>255.0</ele><time>2026-05-01T15:56:20Z</time></trkpt><trkpt lat="47.94794240677973" lon="16.215925934202442"><ele>255.0</ele><time>2026-05-01T15:56:21Z</time></trkpt><trkpt lat="47.94769076334929" lon="16.215788004453465"><ele>255.0</ele><time>2026-05-01T15:56:22Z</time></trkpt><trkpt lat="47.94743832788617" lon="16.215652699775465"><ele>255.0</ele><time>2026-05-01T15:56:23Z</time></trkpt><trkpt lat="47.94718564322616" lon="16.21551594700689"><ele>255.0</ele><time>2026-05-01T15:56:24Z</time></trkpt><trkpt lat="47.946934073669205" lon="16.21537700271985"><ele>255.0</ele><time>2026-05-01T15:56:25Z</time></trkpt><trkpt lat="47.946683154647395" lon="16.21523823236085"><ele>258.0</ele><time>2026-05-01T15:56:26Z</time></trkpt><trkpt lat="47.94643081894824" lon="16.215100445613835"><ele>261.0</ele><time>2026-05-01T15:56:27Z</time></trkpt><trkpt lat="47.946178558159026" lon="16.214963425950934"><ele>261.0</ele><time>2026-05-01T15:56:28Z</time></trkpt><trkpt lat="47.94592579439283" lon="16.21483012986444"><ele>261.0</ele><time>2026-05-01T15:56:29Z</time></trkpt><trkpt lat="47.945671910207096" lon="16.21470020928601"><ele>261.5</ele><time>2026-05-01T15:56:30Z</time></trkpt><trkpt lat="47.94541808939497" lon="16.214570968433545"><ele>262.0</ele><time>2026-05-01T15:56:31Z</time></trkpt><trkpt lat="47.94516390765338" lon="16.21444284907541"><ele>265.0</ele><time>2026-05-01T15:56:32Z</time></trkpt><trkpt lat="47.944911996818284" lon="16.214313358237632"><ele>268.0</ele><time>2026-05-01T15:56:33Z</time></trkpt><trkpt lat="47.944658322140455" lon="16.214189151703817"><ele>268.0</ele><time>2026-05-01T15:56:34Z</time></trkpt><trkpt lat="47.944404817531876" lon="16.214068333833627"><ele>268.0</ele><time>2026-05-01T15:56:35.001Z</time></trkpt><trkpt lat="47.94415266255768" lon="16.21394839396526"><ele>268.5</ele><time>2026-05-01T15:56:36.001Z</time></trkpt><trkpt lat="47.94390161788062" lon="16.21382720138159"><ele>269.0</ele><time>2026-05-01T15:56:37.001Z</time></trkpt><trkpt lat="47.94365100954417" lon="16.21370679505743"><ele>269.0</ele><time>2026-05-01T15:56:38.001Z</time></trkpt><trkpt lat="47.94340150065983" lon="16.213587676747235"><ele>269.0</ele><time>2026-05-01T15:56:39.001Z</time></trkpt><trkpt lat="47.94315233336413" lon="16.213469063630995"><ele>269.5</ele><time>2026-05-01T15:56:40.001Z</time></trkpt><trkpt lat="47.94290253827013" lon="16.21335197572428"><ele>270.0</ele><time>2026-05-01T15:56:41Z</time></trkpt><trkpt lat="47.94265352225713" lon="16.21323859971881"><ele>270.5</ele><time>2026-05-01T15:56:42Z</time></trkpt><trkpt lat="47.94240361657778" lon="16.213129994370853"><ele>271.0</ele><time>2026-05-01T15:56:43Z</time></trkpt><trkpt lat="47.94215406946503" lon="16.213022168743183"><ele>271.0</ele><time>2026-05-01T15:56:44Z</time></trkpt><trkpt lat="47.94190439722917" lon="16.212915404382215"><ele>271.0</ele><time>2026-05-01T15:56:45Z</time></trkpt><trkpt lat="47.94165379427672" lon="16.212810993773196"><ele>271.0</ele><time>2026-05-01T15:56:46Z</time></trkpt><trkpt lat="47.94140266991874" lon="16.212710292823154"><ele>271.0</ele><time>2026-05-01T15:56:47Z</time></trkpt><trkpt lat="47.941152421120115" lon="16.21260695982311"><ele>271.0</ele><time>2026-05-01T15:56:48Z</time></trkpt><trkpt lat="47.9409011034164" lon="16.21250700783683"><ele>271.0</ele><time>2026-05-01T15:56:49Z</time></trkpt><trkpt lat="47.94064969207042" lon="16.212406695699325"><ele>272.5</ele><time>2026-05-01T15:56:50Z</time></trkpt><trkpt lat="47.940397772730826" lon="16.212307904377916"><ele>274.0</ele><time>2026-05-01T15:56:51Z</time></trkpt><trkpt lat="47.94014608752961" lon="16.21220846809657"><ele>273.5</ele><time>2026-05-01T15:56:52Z</time></trkpt><trkpt lat="47.93989434970696" lon="16.21211000714284"><ele>273.0</ele><time>2026-05-01T15:56:53Z</time></trkpt><trkpt lat="47.939641616999324" lon="16.21201544216141"><ele>273.0</ele><time>2026-05-01T15:56:54Z</time></trkpt><trkpt lat="47.939389056126274" lon="16.21192219784945"><ele>273.0</ele><time>2026-05-01T15:56:55Z</time></trkpt><trkpt lat="47.939136631192156" lon="16.211830128747945"><ele>273.5</ele><time>2026-05-01T15:56:56Z</time></trkpt><trkpt lat="47.938886874381225" lon="16.211737359055405"><ele>274.0</ele><time>2026-05-01T15:56:57Z</time></trkpt><trkpt lat="47.938642793589565" lon="16.21163956310437"><ele>274.0</ele><time>2026-05-01T15:56:58Z</time></trkpt><trkpt lat="47.93840075083346" lon="16.2115420574178"><ele>274.0</ele><time>2026-05-01T15:56:59Z</time></trkpt><trkpt lat="47.93816041327385" lon="16.21145362398974"><ele>276.0</ele><time>2026-05-01T15:57:00Z</time></trkpt><trkpt lat="47.93792253306511" lon="16.2113748975677"><ele>278.0</ele><time>2026-05-01T15:57:01Z</time></trkpt><trkpt lat="47.937689236164616" lon="16.211294518387188"><ele>278.0</ele><time>2026-05-01T15:57:02Z</time></trkpt><trkpt lat="47.93746832338708" lon="16.211216781294493"><ele>278.0</ele><time>2026-05-01T15:57:03Z</time></trkpt><trkpt lat="47.937260646325356" lon="16.211140424170107"><ele>278.0</ele><time>2026-05-01T15:57:04Z</time></trkpt><trkpt lat="47.937061438353815" lon="16.211061841307828"><ele>278.0</ele><time>2026-05-01T15:57:05Z</time></trkpt><trkpt lat="47.93686490640152" lon="16.210972586958242"><ele>278.0</ele><time>2026-05-01T15:57:06Z</time></trkpt><trkpt lat="47.93667085909512" lon="16.210873812922337"><ele>278.0</ele><time>2026-05-01T15:57:07Z</time></trkpt><trkpt lat="47.93647691643954" lon="16.21076601756707"><ele>278.33333333333337</ele><time>2026-05-01T15:57:08Z</time></trkpt><trkpt lat="47.93628810159252" lon="16.210645383241108"><ele>278.6666666666667</ele><time>2026-05-01T15:57:09Z</time></trkpt><trkpt lat="47.93610482484368" lon="16.210507937327282"><ele>279.0</ele><time>2026-05-01T15:57:10Z</time></trkpt><trkpt lat="47.935952282197086" lon="16.21030328273279"><ele>279.0</ele><time>2026-05-01T15:57:11Z</time></trkpt><trkpt lat="47.93579317269214" lon="16.210140816647947"><ele>279.0</ele><time>2026-05-01T15:57:12Z</time></trkpt><trkpt lat="47.93565245631002" lon="16.20995794790478"><ele>279.0</ele><time>2026-05-01T15:57:13Z</time></trkpt><trkpt lat="47.93551958862531" lon="16.209768540455457"><ele>279.6666666666667</ele><time>2026-05-01T15:57:14Z</time></trkpt><trkpt lat="47.935391081366795" lon="16.209570580996747"><ele>280.33333333333337</ele><time>2026-05-01T15:57:15Z</time></trkpt><trkpt lat="47.93527518364703" lon="16.209358292029158"><ele>281.0</ele><time>2026-05-01T15:57:16Z</time></trkpt><trkpt lat="47.93516836092442" lon="16.209131467977056"><ele>281.0</ele><time>2026-05-01T15:57:17Z</time></trkpt><trkpt lat="47.935066912652644" lon="16.20889623380616"><ele>281.0</ele><time>2026-05-01T15:57:18Z</time></trkpt><trkpt lat="47.93497852151486" lon="16.208651636213162"><ele>281.0</ele><time>2026-05-01T15:57:19Z</time></trkpt><trkpt lat="47.93489848703969" lon="16.20840847883659"><ele>279.6666666666667</ele><time>2026-05-01T15:57:20Z</time></trkpt><trkpt lat="47.934823032165184" lon="16.20817896004526"><ele>278.3333333333333</ele><time>2026-05-01T15:57:21Z</time></trkpt><trkpt lat="47.934744282173945" lon="16.207976337838787"><ele>277.0</ele><time>2026-05-01T15:57:22Z</time></trkpt><trkpt lat="47.934686203028676" lon="16.207775649237437"><ele>277.0</ele><time>2026-05-01T15:57:23Z</time></trkpt><trkpt lat="47.934626988279284" lon="16.207579021362665"><ele>277.0</ele><time>2026-05-01T15:57:24Z</time></trkpt><trkpt lat="47.934564594145755" lon="16.20737725803692"><ele>277.0</ele><time>2026-05-01T15:57:25Z</time></trkpt><trkpt lat="47.93449796962555" lon="16.20716728988149"><ele>277.0</ele><time>2026-05-01T15:57:26Z</time></trkpt><trkpt lat="47.93442848583523" lon="16.206946312346254"><ele>277.3333333333333</ele><time>2026-05-01T15:57:27Z</time></trkpt><trkpt lat="47.93436027440956" lon="16.20672801595883"><ele>277.6666666666667</ele><time>2026-05-01T15:57:28Z</time></trkpt><trkpt lat="47.93428809157173" lon="16.206517404225135"><ele>278.0</ele><time>2026-05-01T15:57:29Z</time></trkpt><trkpt lat="47.93420938031025" lon="16.206304547085452"><ele>278.0</ele><time>2026-05-01T15:57:30Z</time></trkpt><trkpt lat="47.93412343988309" lon="16.20609359502363"><ele>278.0</ele><time>2026-05-01T15:57:31Z</time></trkpt><trkpt lat="47.934030359436804" lon="16.20588288289698"><ele>278.0</ele><time>2026-05-01T15:57:32Z</time></trkpt><trkpt lat="47.933932717694844" lon="16.205673786649594"><ele>278.0</ele><time>2026-05-01T15:57:33Z</time></trkpt><trkpt lat="47.933833370208056" lon="16.205470675006627"><ele>278.0</ele><time>2026-05-01T15:57:34Z</time></trkpt><trkpt lat="47.93373308727254" lon="16.20527930502853"><ele>278.0</ele><time>2026-05-01T15:57:35Z</time></trkpt><trkpt lat="47.93363498214373" lon="16.20510191124093"><ele>278.0</ele><time>2026-05-01T15:57:36Z</time></trkpt><trkpt lat="47.9335354993788" lon="16.204937202142354"><ele>278.0</ele><time>2026-05-01T15:57:37Z</time></trkpt><trkpt lat="47.93342910268086" lon="16.2047833612062"><ele>278.0</ele><time>2026-05-01T15:57:38Z</time></trkpt><trkpt lat="47.93331554873924" lon="16.204643148251357"><ele>278.0</ele><time>2026-05-01T15:57:39Z</time></trkpt><trkpt lat="47.93319918368941" lon="16.20451472028239"><ele>276.25</ele><time>2026-05-01T15:57:40Z</time></trkpt><trkpt lat="47.93308868245477" lon="16.204397210212043"><ele>274.5</ele><time>2026-05-01T15:57:41Z</time></trkpt><trkpt lat="47.932982714151855" lon="16.204291460637204"><ele>272.75</ele><time>2026-05-01T15:57:42Z</time></trkpt><trkpt lat="47.93287263726977" lon="16.20420021066872"><ele>271.0</ele><time>2026-05-01T15:57:43Z</time></trkpt><trkpt lat="47.93275402904219" lon="16.20413192985064"><ele>271.0</ele><time>2026-05-01T15:57:44Z</time></trkpt><trkpt lat="47.93262702397136" lon="16.204085705105822"><ele>271.0</ele><time>2026-05-01T15:57:45Z</time></trkpt><trkpt lat="47.93249413466683" lon="16.204054565000245"><ele>271.0</ele><time>2026-05-01T15:57:46Z</time></trkpt><trkpt lat="47.93236500302252" lon="16.204023526873083"><ele>271.0</ele><time>2026-05-01T15:57:47Z</time></trkpt><trkpt lat="47.932249915503846" lon="16.203990545236397"><ele>270.8333333333333</ele><time>2026-05-01T15:57:48Z</time></trkpt><trkpt lat="47.93215625746437" lon="16.20395071754911"><ele>270.66666666666663</ele><time>2026-05-01T15:57:49Z</time></trkpt><trkpt lat="47.93208334583326" lon="16.203895442975092"><ele>270.5</ele><time>2026-05-01T15:57:50Z</time></trkpt><trkpt lat="47.932028207594826" lon="16.20381724470377"><ele>270.3333333333333</ele><time>2026-05-01T15:57:51Z</time></trkpt><trkpt lat="47.931992115103924" lon="16.203706931822005"><ele>270.1666666666667</ele><time>2026-05-01T15:57:52Z</time></trkpt><trkpt lat="47.93196576323162" lon="16.20356371861735"><ele>270.0</ele><time>2026-05-01T15:57:53Z</time></trkpt><trkpt lat="47.93194676775166" lon="16.203392501314855"><ele>270.0</ele><time>2026-05-01T15:57:54Z</time></trkpt><trkpt lat="47.93192712615019" lon="16.203205248480735"><ele>270.0</ele><time>2026-05-01T15:57:55Z</time></trkpt><trkpt lat="47.931905820364605" lon="16.203009380153578"><ele>270.0</ele><time>2026-05-01T15:57:56Z</time></trkpt><trkpt lat="47.93188387367661" lon="16.202807929068864"><ele>270.0</ele><time>2026-05-01T15:57:57Z</time></trkpt><trkpt lat="47.931862110315045" lon="16.20260305148088"><ele>270.25</ele><time>2026-05-01T15:57:58Z</time></trkpt><trkpt lat="47.93184266535879" lon="16.202398038141407"><ele>270.5</ele><time>2026-05-01T15:57:59Z</time></trkpt><trkpt lat="47.93182129730133" lon="16.202192812442462"><ele>270.75</ele><time>2026-05-01T15:58:00Z</time></trkpt><trkpt lat="47.931794760781365" lon="16.201986107651166"><ele>271.0</ele><time>2026-05-01T15:58:01Z</time></trkpt><trkpt lat="47.931770866942564" lon="16.20177340414004"><ele>271.0</ele><time>2026-05-01T15:58:02Z</time></trkpt><trkpt lat="47.93175193605155" lon="16.201558801665374"><ele>271.0</ele><time>2026-05-01T15:58:03Z</time></trkpt><trkpt lat="47.93173961368788" lon="16.201350021497827"><ele>271.0</ele><time>2026-05-01T15:58:04Z</time></trkpt><trkpt lat="47.9317327686753" lon="16.201148236617442"><ele>271.0</ele><time>2026-05-01T15:58:05Z</time></trkpt><trkpt lat="47.93173268833833" lon="16.200968452382114"><ele>271.0</ele><time>2026-05-01T15:58:06Z</time></trkpt><trkpt lat="47.93173379908061" lon="16.200803560411497"><ele>271.0</ele><time>2026-05-01T15:58:07Z</time></trkpt><trkpt lat="47.931734769740096" lon="16.20066091336163"><ele>271.0</ele><time>2026-05-01T15:58:08Z</time></trkpt><trkpt lat="47.931735372948935" lon="16.200549158371118"><ele>271.0</ele><time>2026-05-01T15:58:09Z</time></trkpt><trkpt lat="47.931779945425895" lon="16.200422333804873"><ele>271.0</ele><time>2026-05-01T15:58:11Z</time></trkpt><trkpt lat="47.93187761022806" lon="16.200388656506753"><ele>271.0</ele><time>2026-05-01T15:58:13Z</time></trkpt><trkpt lat="47.93197533224602" lon="16.200364375908826"><ele>271.0</ele><time>2026-05-01T15:58:15Z</time></trkpt><trkpt lat="47.93205425502161" lon="16.200408853287318"><ele>271.0</ele><time>2026-05-01T15:58:17Z</time></trkpt><trkpt lat="47.93207319202486" lon="16.20051580665745"><ele>271.0</ele><time>2026-05-01T15:58:19Z</time></trkpt><trkpt lat="47.93204178659819" lon="16.200617276715334"><ele>271.0</ele><time>2026-05-01T15:58:21Z</time></trkpt><trkpt lat="47.93198016126971" lon="16.20065025029529"><ele>271.0</ele><time>2026-05-01T15:58:23Z</time></trkpt><trkpt lat="47.932039027386224" lon="16.200683669537643"><ele>271.0</ele><time>2026-05-01T16:25:29Z</time></trkpt><trkpt lat="47.932063568334726" lon="16.200784285348462"><ele>271.0</ele><time>2026-05-01T16:25:35Z</time></trkpt><trkpt lat="47.93208580146525" lon="16.200884494874103"><ele>271.0</ele><time>2026-05-01T16:25:42Z</time></trkpt><trkpt lat="47.93213102214805" lon="16.20098305206111"><ele>271.0</ele><time>2026-05-01T16:25:48Z</time></trkpt><trkpt lat="47.932162404078014" lon="16.201072385491052"><ele>271.0</ele><time>2026-05-01T16:25:53Z</time></trkpt><trkpt lat="47.93218928572181" lon="16.20116773657857"><ele>271.0</ele><time>2026-05-01T16:25:58Z</time></trkpt><trkpt lat="47.93224078918587" lon="16.201238859281194"><ele>271.0</ele><time>2026-05-01T16:26:11Z</time></trkpt><trkpt lat="47.93216598838401" lon="16.201295987319828"><ele>271.0</ele><time>2026-05-01T16:28:40.355Z</time></trkpt><trkpt lat="47.93213897568709" lon="16.201514873322367"><ele>271.0</ele><time>2026-05-01T16:28:46.713Z</time></trkpt><trkpt lat="47.93213758876771" lon="16.201312393544015"><ele>271.0</ele><time>2026-05-01T16:30:52.001Z</time></trkpt><trkpt lat="47.932134161827655" lon="16.20117512265259"><ele>271.0</ele><time>2026-05-01T16:30:54.001Z</time></trkpt><trkpt lat="47.93216653150606" lon="16.201085103912074"><ele>271.0</ele><time>2026-05-01T16:30:58Z</time></trkpt><trkpt lat="47.932160810070926" lon="16.200990830367246"><ele>271.0</ele><time>2026-05-01T16:31:03Z</time></trkpt><trkpt lat="47.932125171932114" lon="16.200911945355784"><ele>271.0</ele><time>2026-05-01T16:31:08Z</time></trkpt><trkpt lat="47.9320837695978" lon="16.200828835996408"><ele>271.0</ele><time>2026-05-01T16:31:13Z</time></trkpt><trkpt lat="47.93205079329262" lon="16.20073410321123"><ele>271.0</ele><time>2026-05-01T16:31:18Z</time></trkpt><trkpt lat="47.9320189358337" lon="16.200643459347955"><ele>271.0</ele><time>2026-05-01T16:31:23Z</time></trkpt><trkpt lat="47.931954196245044" lon="16.20067331267877"><ele>271.0</ele><time>2026-05-01T16:43:44.001Z</time></trkpt><trkpt lat="47.931979488326846" lon="16.200769001592615"><ele>271.0</ele><time>2026-05-01T16:43:47.001Z</time></trkpt><trkpt lat="47.932054932905544" lon="16.200736466306434"><ele>270.66666666666663</ele><time>2026-05-01T16:43:49.001Z</time></trkpt><trkpt lat="47.932100527431686" lon="16.200654279574724"><ele>270.3333333333333</ele><time>2026-05-01T16:43:53.001Z</time></trkpt><trkpt lat="47.9320971514741" lon="16.20049517947333"><ele>270.0</ele><time>2026-05-01T16:43:55.001Z</time></trkpt><trkpt lat="47.93209576430421" lon="16.20039898692426"><ele>269.6666666666667</ele><time>2026-05-01T16:43:57.001Z</time></trkpt><trkpt lat="47.932030122802125" lon="16.20029831297001"><ele>269.33333333333337</ele><time>2026-05-01T16:44:03.001Z</time></trkpt><trkpt lat="47.93195448246239" lon="16.200291124506936"><ele>269.0</ele><time>2026-05-01T16:44:04.001Z</time></trkpt><trkpt lat="47.93187726637135" lon="16.20030513973601"><ele>269.0</ele><time>2026-05-01T16:44:05.001Z</time></trkpt><trkpt lat="47.93181114312593" lon="16.20032956066461"><ele>269.0</ele><time>2026-05-01T16:44:06.001Z</time></trkpt><trkpt lat="47.931747734337506" lon="16.200365212759003"><ele>269.0</ele><time>2026-05-01T16:44:13.001Z</time></trkpt><trkpt lat="47.931688340893515" lon="16.200483295532962"><ele>269.0</ele><time>2026-05-01T16:44:19.001Z</time></trkpt><trkpt lat="47.93168928482869" lon="16.200615360761805"><ele>269.0</ele><time>2026-05-01T16:44:20.001Z</time></trkpt><trkpt lat="47.93169497321882" lon="16.200779899457157"><ele>269.0</ele><time>2026-05-01T16:44:21.001Z</time></trkpt><trkpt lat="47.93170646999494" lon="16.20094351202228"><ele>269.25</ele><time>2026-05-01T16:44:22.001Z</time></trkpt><trkpt lat="47.93171933713293" lon="16.201112999644653"><ele>269.5</ele><time>2026-05-01T16:44:23.001Z</time></trkpt><trkpt lat="47.93174009166856" lon="16.201296143313723"><ele>269.75</ele><time>2026-05-01T16:44:24.001Z</time></trkpt><trkpt lat="47.93175905712157" lon="16.20149600150172"><ele>270.0</ele><time>2026-05-01T16:44:25.001Z</time></trkpt><trkpt lat="47.93177153328646" lon="16.201695468422248"><ele>270.25</ele><time>2026-05-01T16:44:26.001Z</time></trkpt><trkpt lat="47.93178413115428" lon="16.2018890722567"><ele>270.5</ele><time>2026-05-01T16:44:27.001Z</time></trkpt><trkpt lat="47.93179781130549" lon="16.20207048002682"><ele>270.75</ele><time>2026-05-01T16:44:28.001Z</time></trkpt><trkpt lat="47.9318154312381" lon="16.202247375022875"><ele>271.0</ele><time>2026-05-01T16:44:29.001Z</time></trkpt><trkpt lat="47.93183745522048" lon="16.202422520529602"><ele>271.0</ele><time>2026-05-01T16:44:30.001Z</time></trkpt><trkpt lat="47.931839260941665" lon="16.202601206357134"><ele>271.0</ele><time>2026-05-01T16:44:31.001Z</time></trkpt><trkpt lat="47.93185499093474" lon="16.20277297723089"><ele>271.0</ele><time>2026-05-01T16:44:32.001Z</time></trkpt><trkpt lat="47.93186927872615" lon="16.202943455443584"><ele>271.0</ele><time>2026-05-01T16:44:33.001Z</time></trkpt><trkpt lat="47.93188521165347" lon="16.203106820286802"><ele>270.8</ele><time>2026-05-01T16:44:34.001Z</time></trkpt><trkpt lat="47.931899434937925" lon="16.203252953947622"><ele>270.6</ele><time>2026-05-01T16:44:35.001Z</time></trkpt><trkpt lat="47.93191227792745" lon="16.203384875843277"><ele>270.4</ele><time>2026-05-01T16:44:36.001Z</time></trkpt><trkpt lat="47.931923191579884" lon="16.203495108317306"><ele>270.2</ele><time>2026-05-01T16:44:37.001Z</time></trkpt><trkpt lat="47.93193609663483" lon="16.203626144589194"><ele>270.0</ele><time>2026-05-01T16:44:39.001Z</time></trkpt><trkpt lat="47.93200132628828" lon="16.20377100740349"><ele>270.0</ele><time>2026-05-01T16:45:41Z</time></trkpt><trkpt lat="47.932021430725364" lon="16.2039143532933"><ele>270.0</ele><time>2026-05-01T16:45:42Z</time></trkpt><trkpt lat="47.93204383044222" lon="16.204034688617014"><ele>270.0</ele><time>2026-05-01T16:45:43Z</time></trkpt><trkpt lat="47.93207590969973" lon="16.20411868185759"><ele>270.0</ele><time>2026-05-01T16:45:44Z</time></trkpt><trkpt lat="47.93213201067639" lon="16.204184132984626"><ele>270.0</ele><time>2026-05-01T16:45:45Z</time></trkpt><trkpt lat="47.93220396564448" lon="16.204214684905327"><ele>270.0</ele><time>2026-05-01T16:45:46Z</time></trkpt><trkpt lat="47.932294898662875" lon="16.204221204126643"><ele>270.0</ele><time>2026-05-01T16:45:47Z</time></trkpt><trkpt lat="47.932394923682686" lon="16.204217945285258"><ele>270.0</ele><time>2026-05-01T16:45:48Z</time></trkpt><trkpt lat="47.93250801173117" lon="16.20424982069982"><ele>270.0</ele><time>2026-05-01T16:45:49Z</time></trkpt><trkpt lat="47.932630489310725" lon="16.20427909529157"><ele>270.0</ele><time>2026-05-01T16:45:50Z</time></trkpt><trkpt lat="47.93274557525136" lon="16.204322690341453"><ele>270.25</ele><time>2026-05-01T16:45:51Z</time></trkpt><trkpt lat="47.932873789013826" lon="16.204356706168788"><ele>270.5</ele><time>2026-05-01T16:45:52Z</time></trkpt><trkpt lat="47.933004611922385" lon="16.204440615238163"><ele>270.75</ele><time>2026-05-01T16:45:53Z</time></trkpt><trkpt lat="47.93314232565323" lon="16.204553748697535"><ele>271.0</ele><time>2026-05-01T16:45:54Z</time></trkpt><trkpt lat="47.933277319591646" lon="16.20468106450213"><ele>273.3333333333333</ele><time>2026-05-01T16:45:55Z</time></trkpt><trkpt lat="47.933402524782345" lon="16.204826756112368"><ele>275.6666666666667</ele><time>2026-05-01T16:45:56Z</time></trkpt><trkpt lat="47.933517254461364" lon="16.20499049185504"><ele>278.0</ele><time>2026-05-01T16:45:57Z</time></trkpt><trkpt lat="47.93362393715627" lon="16.205169233923225"><ele>278.0</ele><time>2026-05-01T16:45:58Z</time></trkpt><trkpt lat="47.933727174009505" lon="16.205360960117627"><ele>278.0</ele><time>2026-05-01T16:45:59Z</time></trkpt><trkpt lat="47.93382915882894" lon="16.20556373156848"><ele>278.0</ele><time>2026-05-01T16:46:00Z</time></trkpt><trkpt lat="47.93393180041477" lon="16.205774460931195"><ele>278.0</ele><time>2026-05-01T16:46:01Z</time></trkpt><trkpt lat="47.934025478415364" lon="16.205982335661595"><ele>278.0</ele><time>2026-05-01T16:46:02Z</time></trkpt><trkpt lat="47.93412019282182" lon="16.206208893410352"><ele>278.0</ele><time>2026-05-01T16:46:03Z</time></trkpt><trkpt lat="47.93421551432107" lon="16.20645362296864"><ele>278.0</ele><time>2026-05-01T16:46:04.001Z</time></trkpt><trkpt lat="47.93430973542869" lon="16.20670762816672"><ele>278.0</ele><time>2026-05-01T16:46:05.001Z</time></trkpt><trkpt lat="47.9343962987745" lon="16.20696530649245"><ele>278.0</ele><time>2026-05-01T16:46:06.001Z</time></trkpt><trkpt lat="47.9344776021954" lon="16.207228500174118"><ele>277.6666666666667</ele><time>2026-05-01T16:46:07.001Z</time></trkpt><trkpt lat="47.93454814419651" lon="16.20748590971944"><ele>277.3333333333333</ele><time>2026-05-01T16:46:08.001Z</time></trkpt><trkpt lat="47.93460177734095" lon="16.20772073323766"><ele>277.0</ele><time>2026-05-01T16:46:09.001Z</time></trkpt><trkpt lat="47.934648302657045" lon="16.207941627266113"><ele>277.0</ele><time>2026-05-01T16:46:10.001Z</time></trkpt><trkpt lat="47.93468205268954" lon="16.208145153915236"><ele>277.0</ele><time>2026-05-01T16:46:11.001Z</time></trkpt><trkpt lat="47.93471133439552" lon="16.208349451179263"><ele>277.0</ele><time>2026-05-01T16:46:12.001Z</time></trkpt><trkpt lat="47.934726095955654" lon="16.20854717066433"><ele>277.0</ele><time>2026-05-01T16:46:13.001Z</time></trkpt><trkpt lat="47.934730635642815" lon="16.208756065565844"><ele>276.75</ele><time>2026-05-01T16:46:14.001Z</time></trkpt><trkpt lat="47.934708258621406" lon="16.208963034782016"><ele>276.5</ele><time>2026-05-01T16:46:15.001Z</time></trkpt><trkpt lat="47.93463991330233" lon="16.209151943680812"><ele>276.25</ele><time>2026-05-01T16:46:16.001Z</time></trkpt><trkpt lat="47.934578456014066" lon="16.20934450905237"><ele>276.0</ele><time>2026-05-01T16:46:17.001Z</time></trkpt><trkpt lat="47.93448590560878" lon="16.20951488259602"><ele>275.25</ele><time>2026-05-01T16:46:18.001Z</time></trkpt><trkpt lat="47.934375832369376" lon="16.20966305985048"><ele>274.5</ele><time>2026-05-01T16:46:19.001Z</time></trkpt><trkpt lat="47.93425297117895" lon="16.209785385442345"><ele>273.75</ele><time>2026-05-01T16:46:20.001Z</time></trkpt><trkpt lat="47.93411920856035" lon="16.209886671899817"><ele>273.0</ele><time>2026-05-01T16:46:21.001Z</time></trkpt><trkpt lat="47.93397585271805" lon="16.20995978766761"><ele>273.0</ele><time>2026-05-01T16:46:22.001Z</time></trkpt><trkpt lat="47.933824534356496" lon="16.209996727443524"><ele>273.0</ele><time>2026-05-01T16:46:23.001Z</time></trkpt><trkpt lat="47.93366514780886" lon="16.210003668006582"><ele>273.0</ele><time>2026-05-01T16:46:24.001Z</time></trkpt><trkpt lat="47.93349263697165" lon="16.209992763976384"><ele>272.0</ele><time>2026-05-01T16:46:25.001Z</time></trkpt><trkpt lat="47.93330503019181" lon="16.20999552532626"><ele>271.0</ele><time>2026-05-01T16:46:26.001Z</time></trkpt><trkpt lat="47.93310336927373" lon="16.20991590499446"><ele>270.0</ele><time>2026-05-01T16:46:27.001Z</time></trkpt><trkpt lat="47.932892854051566" lon="16.209872830736238"><ele>270.0</ele><time>2026-05-01T16:46:28.001Z</time></trkpt><trkpt lat="47.932688501942046" lon="16.20983255027197"><ele>270.0</ele><time>2026-05-01T16:46:29.001Z</time></trkpt><trkpt lat="47.932477427052284" lon="16.209796129527664"><ele>270.0</ele><time>2026-05-01T16:46:30.001Z</time></trkpt><trkpt lat="47.932252163528986" lon="16.209764027915636"><ele>269.0</ele><time>2026-05-01T16:46:31.001Z</time></trkpt><trkpt lat="47.93202470239394" lon="16.209727954356836"><ele>268.0</ele><time>2026-05-01T16:46:32.001Z</time></trkpt><trkpt lat="47.931802826432886" lon="16.209690332606332"><ele>268.0</ele><time>2026-05-01T16:46:33.001Z</time></trkpt><trkpt lat="47.93158687026983" lon="16.20964882143611"><ele>268.0</ele><time>2026-05-01T16:46:34.001Z</time></trkpt><trkpt lat="47.93136485483621" lon="16.20960575140483"><ele>268.0</ele><time>2026-05-01T16:46:35.001Z</time></trkpt><trkpt lat="47.931124819899544" lon="16.209560170883105"><ele>268.5</ele><time>2026-05-01T16:46:36.001Z</time></trkpt><trkpt lat="47.930875415403264" lon="16.20951569560231"><ele>269.0</ele><time>2026-05-01T16:46:37.001Z</time></trkpt><trkpt lat="47.93062294011984" lon="16.2094717139251"><ele>269.0</ele><time>2026-05-01T16:46:38.001Z</time></trkpt><trkpt lat="47.93037473142641" lon="16.209429422105412"><ele>269.0</ele><time>2026-05-01T16:46:39.001Z</time></trkpt><trkpt lat="47.930116074013256" lon="16.209386459754402"><ele>268.0</ele><time>2026-05-01T16:46:40.001Z</time></trkpt><trkpt lat="47.92985231696556" lon="16.209343526595823"><ele>267.0</ele><time>2026-05-01T16:46:41.001Z</time></trkpt><trkpt lat="47.92958330210493" lon="16.20930090060386"><ele>267.0</ele><time>2026-05-01T16:46:42.001Z</time></trkpt><trkpt lat="47.92931285476792" lon="16.20925678086324"><ele>267.0</ele><time>2026-05-01T16:46:43.001Z</time></trkpt><trkpt lat="47.92903867473687" lon="16.209213792769397"><ele>267.5</ele><time>2026-05-01T16:46:44.001Z</time></trkpt><trkpt lat="47.92875872527321" lon="16.209181417227263"><ele>268.0</ele><time>2026-05-01T16:46:45.001Z</time></trkpt><trkpt lat="47.9284669740508" lon="16.209156359707812"><ele>268.0</ele><time>2026-05-01T16:46:46.001Z</time></trkpt><trkpt lat="47.92816555093467" lon="16.209132082491507"><ele>268.0</ele><time>2026-05-01T16:46:47.001Z</time></trkpt><trkpt lat="47.92785146256789" lon="16.20910200298497"><ele>269.5</ele><time>2026-05-01T16:46:48.001Z</time></trkpt><trkpt lat="47.92753304316884" lon="16.209063139644698"><ele>271.0</ele><time>2026-05-01T16:46:49.001Z</time></trkpt><trkpt lat="47.9272278255866" lon="16.209021976284756"><ele>270.0</ele><time>2026-05-01T16:46:50.001Z</time></trkpt><trkpt lat="47.92691327612353" lon="16.20897887069362"><ele>269.0</ele><time>2026-05-01T16:46:51.001Z</time></trkpt><trkpt lat="47.92659652004468" lon="16.208939908024064"><ele>269.0</ele><time>2026-05-01T16:46:52.001Z</time></trkpt><trkpt lat="47.926279070886885" lon="16.208905759035762"><ele>269.0</ele><time>2026-05-01T16:46:53.001Z</time></trkpt><trkpt lat="47.92596173408637" lon="16.208875346948606"><ele>269.5</ele><time>2026-05-01T16:46:54.001Z</time></trkpt><trkpt lat="47.92564705622451" lon="16.20884386383405"><ele>270.0</ele><time>2026-05-01T16:46:55.001Z</time></trkpt><trkpt lat="47.9253346179182" lon="16.208805722011117"><ele>269.0</ele><time>2026-05-01T16:46:56.001Z</time></trkpt><trkpt lat="47.92502183589698" lon="16.208759626937663"><ele>268.0</ele><time>2026-05-01T16:46:57.001Z</time></trkpt><trkpt lat="47.92470800669965" lon="16.20871381606365"><ele>268.0</ele><time>2026-05-01T16:46:58.001Z</time></trkpt><trkpt lat="47.92439419548826" lon="16.208670972368118"><ele>268.0</ele><time>2026-05-01T16:46:59.001Z</time></trkpt><trkpt lat="47.9240800970078" lon="16.208635641210954"><ele>268.5</ele><time>2026-05-01T16:47:00.001Z</time></trkpt><trkpt lat="47.92376778077256" lon="16.208608213065375"><ele>269.0</ele><time>2026-05-01T16:47:01.001Z</time></trkpt><trkpt lat="47.92345620662578" lon="16.208588743719698"><ele>269.0</ele><time>2026-05-01T16:47:02.001Z</time></trkpt><trkpt lat="47.92314617673807" lon="16.208567690883545"><ele>269.0</ele><time>2026-05-01T16:47:03.001Z</time></trkpt><trkpt lat="47.92283828347383" lon="16.20854540535202"><ele>269.5</ele><time>2026-05-01T16:47:04.001Z</time></trkpt><trkpt lat="47.92253303578709" lon="16.20852513019579"><ele>270.0</ele><time>2026-05-01T16:47:05.001Z</time></trkpt><trkpt lat="47.922229454490754" lon="16.20850600501955"><ele>270.0</ele><time>2026-05-01T16:47:06.001Z</time></trkpt><trkpt lat="47.92192558367682" lon="16.20848572035261"><ele>270.0</ele><time>2026-05-01T16:47:07.001Z</time></trkpt><trkpt lat="47.921622329189844" lon="16.20846432713335"><ele>272.5</ele><time>2026-05-01T16:47:08.001Z</time></trkpt><trkpt lat="47.921318686305035" lon="16.20844483047781"><ele>275.0</ele><time>2026-05-01T16:47:09.001Z</time></trkpt><trkpt lat="47.92101459319719" lon="16.208426015426575"><ele>275.0</ele><time>2026-05-01T16:47:10.001Z</time></trkpt><trkpt lat="47.920711440800154" lon="16.208404988779808"><ele>275.0</ele><time>2026-05-01T16:47:11.001Z</time></trkpt><trkpt lat="47.920408981155866" lon="16.20838044793084"><ele>275.0</ele><time>2026-05-01T16:47:12.001Z</time></trkpt><trkpt lat="47.92010608435092" lon="16.208356892901524"><ele>275.0</ele><time>2026-05-01T16:47:13.001Z</time></trkpt><trkpt lat="47.9198024960745" lon="16.208336903002365"><ele>277.0</ele><time>2026-05-01T16:47:14.001Z</time></trkpt><trkpt lat="47.919500024971875" lon="16.208318996596965"><ele>279.0</ele><time>2026-05-01T16:47:15.001Z</time></trkpt><trkpt lat="47.91919823336424" lon="16.208303602162992"><ele>280.5</ele><time>2026-05-01T16:47:16.001Z</time></trkpt><trkpt lat="47.91889662924689" lon="16.208289848474426"><ele>282.0</ele><time>2026-05-01T16:47:17.001Z</time></trkpt><trkpt lat="47.91859497992604" lon="16.208274059429016"><ele>283.0</ele><time>2026-05-01T16:47:18.001Z</time></trkpt><trkpt lat="47.91829210078533" lon="16.208256687246603"><ele>284.0</ele><time>2026-05-01T16:47:19.001Z</time></trkpt><trkpt lat="47.917988673419856" lon="16.208238207148796"><ele>284.0</ele><time>2026-05-01T16:47:20.001Z</time></trkpt><trkpt lat="47.91768477108473" lon="16.208219036919147"><ele>284.0</ele><time>2026-05-01T16:47:21.001Z</time></trkpt><trkpt lat="47.91738066965776" lon="16.20820015725467"><ele>285.0</ele><time>2026-05-01T16:47:22.001Z</time></trkpt><trkpt lat="47.91707691294216" lon="16.20818185488416"><ele>286.0</ele><time>2026-05-01T16:47:23.001Z</time></trkpt><trkpt lat="47.916772392120805" lon="16.208164623317742"><ele>284.0</ele><time>2026-05-01T16:47:24.001Z</time></trkpt><trkpt lat="47.91646695986051" lon="16.208145324864123"><ele>282.0</ele><time>2026-05-01T16:47:25.001Z</time></trkpt><trkpt lat="47.916159711022964" lon="16.208127578830947"><ele>282.0</ele><time>2026-05-01T16:47:26.001Z</time></trkpt><trkpt lat="47.91585047603005" lon="16.208111089615784"><ele>282.0</ele><time>2026-05-01T16:47:27.001Z</time></trkpt><trkpt lat="47.91554082541224" lon="16.20809292926627"><ele>282.0</ele><time>2026-05-01T16:47:28.001Z</time></trkpt><trkpt lat="47.91523122542473" lon="16.208074652982294"><ele>282.0</ele><time>2026-05-01T16:47:29.001Z</time></trkpt><trkpt lat="47.91492117803384" lon="16.208057536204425"><ele>282.5</ele><time>2026-05-01T16:47:30.001Z</time></trkpt><trkpt lat="47.914612804853284" lon="16.20804087565861"><ele>283.0</ele><time>2026-05-01T16:47:31.001Z</time></trkpt><trkpt lat="47.91431041668563" lon="16.2080233213122"><ele>283.0</ele><time>2026-05-01T16:47:32.001Z</time></trkpt><trkpt lat="47.91401037379418" lon="16.2080068202376"><ele>283.0</ele><time>2026-05-01T16:47:33.001Z</time></trkpt><trkpt lat="47.91370955094897" lon="16.207989749747696"><ele>283.0</ele><time>2026-05-01T16:47:34.001Z</time></trkpt><trkpt lat="47.9134075643495" lon="16.207971599984006"><ele>283.0</ele><time>2026-05-01T16:47:35.001Z</time></trkpt><trkpt lat="47.91310454420372" lon="16.20795456431891"><ele>284.0</ele><time>2026-05-01T16:47:36.001Z</time></trkpt><trkpt lat="47.912801169473624" lon="16.207940480157525"><ele>285.0</ele><time>2026-05-01T16:47:37.001Z</time></trkpt><trkpt lat="47.912496393135626" lon="16.207926278629024"><ele>286.5</ele><time>2026-05-01T16:47:38.001Z</time></trkpt><trkpt lat="47.9121916995412" lon="16.20790957531946"><ele>288.0</ele><time>2026-05-01T16:47:39.001Z</time></trkpt><trkpt lat="47.911887229855814" lon="16.207891522242793"><ele>289.5</ele><time>2026-05-01T16:47:40.001Z</time></trkpt><trkpt lat="47.91158325749833" lon="16.20787129709766"><ele>291.0</ele><time>2026-05-01T16:47:41.001Z</time></trkpt><trkpt lat="47.911278213822804" lon="16.20785227257663"><ele>291.0</ele><time>2026-05-01T16:47:42.001Z</time></trkpt><trkpt lat="47.910972814049295" lon="16.20783351262656"><ele>291.0</ele><time>2026-05-01T16:47:43Z</time></trkpt><trkpt lat="47.910667424617365" lon="16.207815044807834"><ele>291.5</ele><time>2026-05-01T16:47:44Z</time></trkpt><trkpt lat="47.91035910196242" lon="16.20780132677015"><ele>292.0</ele><time>2026-05-01T16:47:45Z</time></trkpt><trkpt lat="47.91005274942817" lon="16.207789357370945"><ele>292.5</ele><time>2026-05-01T16:47:46Z</time></trkpt><trkpt lat="47.90974655053463" lon="16.20777302954509"><ele>293.0</ele><time>2026-05-01T16:47:47Z</time></trkpt><trkpt lat="47.90943889787692" lon="16.207754646120875"><ele>292.5</ele><time>2026-05-01T16:47:48Z</time></trkpt><trkpt lat="47.90913004548568" lon="16.207735818865082"><ele>292.0</ele><time>2026-05-01T16:47:49Z</time></trkpt><trkpt lat="47.90882123523385" lon="16.207718068624136"><ele>292.0</ele><time>2026-05-01T16:47:50Z</time></trkpt><trkpt lat="47.90851283327945" lon="16.20769974569287"><ele>292.0</ele><time>2026-05-01T16:47:51Z</time></trkpt><trkpt lat="47.90820406926638" lon="16.207682412538365"><ele>293.0</ele><time>2026-05-01T16:47:52Z</time></trkpt><trkpt lat="47.907895614039106" lon="16.207665946480656"><ele>294.0</ele><time>2026-05-01T16:47:53Z</time></trkpt><trkpt lat="47.90758823938974" lon="16.20764821119948"><ele>295.5</ele><time>2026-05-01T16:47:54Z</time></trkpt><trkpt lat="47.9072819153521" lon="16.207628017549883"><ele>297.0</ele><time>2026-05-01T16:47:55Z</time></trkpt><trkpt lat="47.906975534321035" lon="16.207605410594844"><ele>296.5</ele><time>2026-05-01T16:47:56Z</time></trkpt><trkpt lat="47.90666964794692" lon="16.207585730591905"><ele>296.0</ele><time>2026-05-01T16:47:57Z</time></trkpt><trkpt lat="47.906363279956295" lon="16.207569830791346"><ele>296.0</ele><time>2026-05-01T16:47:58Z</time></trkpt><trkpt lat="47.906057658146736" lon="16.207553216684367"><ele>296.0</ele><time>2026-05-01T16:47:59Z</time></trkpt><trkpt lat="47.905751976773864" lon="16.207536154144016"><ele>296.0</ele><time>2026-05-01T16:48:00Z</time></trkpt><trkpt lat="47.90544501343285" lon="16.20751919291149"><ele>296.0</ele><time>2026-05-01T16:48:01Z</time></trkpt><trkpt lat="47.905137638549824" lon="16.20750181597073"><ele>296.0</ele><time>2026-05-01T16:48:02Z</time></trkpt><trkpt lat="47.904830874121025" lon="16.207484516108522"><ele>296.0</ele><time>2026-05-01T16:48:03Z</time></trkpt><trkpt lat="47.904523999769545" lon="16.20746742144678"><ele>296.5</ele><time>2026-05-01T16:48:04Z</time></trkpt><trkpt lat="47.90421703320369" lon="16.207450750086917"><ele>297.0</ele><time>2026-05-01T16:48:05Z</time></trkpt><trkpt lat="47.9039104406228" lon="16.207431830207682"><ele>297.0</ele><time>2026-05-01T16:48:06Z</time></trkpt><trkpt lat="47.90360415052989" lon="16.20741219230666"><ele>297.0</ele><time>2026-05-01T16:48:07Z</time></trkpt><trkpt lat="47.90329885801586" lon="16.207394761520394"><ele>296.0</ele><time>2026-05-01T16:48:08Z</time></trkpt><trkpt lat="47.902994235477074" lon="16.207379311551943"><ele>295.0</ele><time>2026-05-01T16:48:09Z</time></trkpt><trkpt lat="47.90269017307062" lon="16.207364920532314"><ele>295.5</ele><time>2026-05-01T16:48:10Z</time></trkpt><trkpt lat="47.90238684647324" lon="16.207351154826053"><ele>296.0</ele><time>2026-05-01T16:48:11Z</time></trkpt><trkpt lat="47.90208451214292" lon="16.207336243895934"><ele>296.0</ele><time>2026-05-01T16:48:12Z</time></trkpt><trkpt lat="47.90178368115004" lon="16.20731992723849"><ele>296.0</ele><time>2026-05-01T16:48:13Z</time></trkpt><trkpt lat="47.90148395891124" lon="16.2073028273767"><ele>296.0</ele><time>2026-05-01T16:48:14Z</time></trkpt><trkpt lat="47.901184470709914" lon="16.207285594802894"><ele>296.0</ele><time>2026-05-01T16:48:15Z</time></trkpt><trkpt lat="47.900885675810784" lon="16.207267027568296"><ele>296.0</ele><time>2026-05-01T16:48:16Z</time></trkpt><trkpt lat="47.900587704897774" lon="16.207249177491082"><ele>296.0</ele><time>2026-05-01T16:48:17Z</time></trkpt><trkpt lat="47.900288672572394" lon="16.20723549519195"><ele>294.0</ele><time>2026-05-01T16:48:18Z</time></trkpt><trkpt lat="47.899987678835124" lon="16.20722501771729"><ele>292.0</ele><time>2026-05-01T16:48:19Z</time></trkpt><trkpt lat="47.899685980306685" lon="16.207218185141382"><ele>292.0</ele><time>2026-05-01T16:48:20Z</time></trkpt><trkpt lat="47.8993831329877" lon="16.207213602006746"><ele>292.0</ele><time>2026-05-01T16:48:21Z</time></trkpt><trkpt lat="47.899079286785955" lon="16.20720831629954"><ele>290.0</ele><time>2026-05-01T16:48:22Z</time></trkpt><trkpt lat="47.89877527540178" lon="16.207198175321363"><ele>288.0</ele><time>2026-05-01T16:48:23Z</time></trkpt><trkpt lat="47.898470033946246" lon="16.20718093120438"><ele>287.0</ele><time>2026-05-01T16:48:24Z</time></trkpt><trkpt lat="47.89816482833039" lon="16.207161539314956"><ele>286.0</ele><time>2026-05-01T16:48:25.001Z</time></trkpt><trkpt lat="47.89785904683595" lon="16.20714347062155"><ele>287.0</ele><time>2026-05-01T16:48:26.001Z</time></trkpt><trkpt lat="47.89755374630931" lon="16.207125915690227"><ele>288.0</ele><time>2026-05-01T16:48:27.001Z</time></trkpt><trkpt lat="47.897248892515584" lon="16.20710822932681"><ele>288.0</ele><time>2026-05-01T16:48:28.001Z</time></trkpt><trkpt lat="47.8969439150642" lon="16.207088913979582"><ele>288.0</ele><time>2026-05-01T16:48:29.001Z</time></trkpt><trkpt lat="47.89663906070849" lon="16.207067649344655"><ele>288.0</ele><time>2026-05-01T16:48:30.001Z</time></trkpt><trkpt lat="47.89633395616425" lon="16.207048471139082"><ele>288.0</ele><time>2026-05-01T16:48:31.001Z</time></trkpt><trkpt lat="47.89603018576285" lon="16.2070300577948"><ele>287.5</ele><time>2026-05-01T16:48:32.001Z</time></trkpt><trkpt lat="47.8957261431199" lon="16.207013701249757"><ele>287.0</ele><time>2026-05-01T16:48:33.001Z</time></trkpt><trkpt lat="47.895422247941404" lon="16.207000285305792"><ele>287.0</ele><time>2026-05-01T16:48:34.001Z</time></trkpt><trkpt lat="47.89511891057321" lon="16.20698541008165"><ele>287.0</ele><time>2026-05-01T16:48:35.001Z</time></trkpt><trkpt lat="47.89481570037173" lon="16.206968317749823"><ele>288.0</ele><time>2026-05-01T16:48:36.001Z</time></trkpt><trkpt lat="47.894512411278555" lon="16.20694965866096"><ele>289.0</ele><time>2026-05-01T16:48:37.001Z</time></trkpt><trkpt lat="47.894208640474936" lon="16.20693232091919"><ele>290.0</ele><time>2026-05-01T16:48:38.001Z</time></trkpt><trkpt lat="47.89390510740993" lon="16.20691377357804"><ele>291.0</ele><time>2026-05-01T16:48:39.001Z</time></trkpt><trkpt lat="47.89360247042185" lon="16.206892691381892"><ele>291.5</ele><time>2026-05-01T16:48:40.001Z</time></trkpt><trkpt lat="47.89330005471228" lon="16.20687184350525"><ele>292.0</ele><time>2026-05-01T16:48:41.001Z</time></trkpt><trkpt lat="47.89299851553968" lon="16.206850884853974"><ele>292.0</ele><time>2026-05-01T16:48:42.001Z</time></trkpt><trkpt lat="47.89269714750325" lon="16.206830090353787"><ele>292.0</ele><time>2026-05-01T16:48:43.001Z</time></trkpt><trkpt lat="47.89239492951897" lon="16.206807611291847"><ele>293.5</ele><time>2026-05-01T16:48:44.001Z</time></trkpt><trkpt lat="47.892093234617896" lon="16.206783315535034"><ele>295.0</ele><time>2026-05-01T16:48:45.001Z</time></trkpt><trkpt lat="47.89179060720753" lon="16.206757357088375"><ele>297.0</ele><time>2026-05-01T16:48:46.001Z</time></trkpt><trkpt lat="47.89148739795998" lon="16.206725443325766"><ele>299.0</ele><time>2026-05-01T16:48:47.001Z</time></trkpt><trkpt lat="47.89118421298648" lon="16.206682474761777"><ele>299.0</ele><time>2026-05-01T16:48:48.001Z</time></trkpt><trkpt lat="47.89087978158236" lon="16.20663301299335"><ele>299.0</ele><time>2026-05-01T16:48:49.001Z</time></trkpt><trkpt lat="47.890576131641964" lon="16.206582696934113"><ele>299.0</ele><time>2026-05-01T16:48:50.001Z</time></trkpt><trkpt lat="47.8902706815434" lon="16.206539279682087"><ele>299.0</ele><time>2026-05-01T16:48:51.001Z</time></trkpt><trkpt lat="47.88996591411914" lon="16.206503094361732"><ele>300.0</ele><time>2026-05-01T16:48:52.001Z</time></trkpt><trkpt lat="47.88966549432531" lon="16.20646430833654"><ele>301.0</ele><time>2026-05-01T16:48:53.001Z</time></trkpt><trkpt lat="47.88936781868636" lon="16.206419852628105"><ele>300.5</ele><time>2026-05-01T16:48:54.001Z</time></trkpt><trkpt lat="47.88907006714853" lon="16.206370969080925"><ele>300.0</ele><time>2026-05-01T16:48:55.001Z</time></trkpt><trkpt lat="47.888777142229145" lon="16.206321907398344"><ele>300.0</ele><time>2026-05-01T16:48:56.001Z</time></trkpt><trkpt lat="47.88849557000228" lon="16.20627415536412"><ele>300.0</ele><time>2026-05-01T16:48:57.001Z</time></trkpt><trkpt lat="47.88820497317112" lon="16.206219448819613"><ele>299.0</ele><time>2026-05-01T16:48:58.001Z</time></trkpt><trkpt lat="47.88791231239051" lon="16.206163480814972"><ele>298.0</ele><time>2026-05-01T16:48:59.001Z</time></trkpt><trkpt lat="47.88761639884758" lon="16.206106906171062"><ele>298.0</ele><time>2026-05-01T16:49:00.001Z</time></trkpt><trkpt lat="47.88731806471448" lon="16.206045888677743"><ele>298.0</ele><time>2026-05-01T16:49:01.001Z</time></trkpt><trkpt lat="47.88701829841549" lon="16.205978510986316"><ele>299.5</ele><time>2026-05-01T16:49:02.001Z</time></trkpt><trkpt lat="47.88671868461151" lon="16.205905306037288"><ele>301.0</ele><time>2026-05-01T16:49:03.001Z</time></trkpt><trkpt lat="47.88642068140511" lon="16.20582561350154"><ele>301.0</ele><time>2026-05-01T16:49:04.001Z</time></trkpt><trkpt lat="47.88612347808975" lon="16.205744514989835"><ele>301.0</ele><time>2026-05-01T16:49:05.001Z</time></trkpt><trkpt lat="47.88582657842053" lon="16.20566358257278"><ele>302.0</ele><time>2026-05-01T16:49:06.001Z</time></trkpt><trkpt lat="47.885534373588804" lon="16.2055769055828"><ele>303.0</ele><time>2026-05-01T16:49:07.001Z</time></trkpt><trkpt lat="47.88524444200971" lon="16.205483627017603"><ele>303.0</ele><time>2026-05-01T16:49:08.001Z</time></trkpt><trkpt lat="47.88495388508534" lon="16.20538779161397"><ele>303.0</ele><time>2026-05-01T16:49:09.001Z</time></trkpt><trkpt lat="47.88466380908867" lon="16.205290321699213"><ele>303.0</ele><time>2026-05-01T16:49:10.001Z</time></trkpt><trkpt lat="47.88437509545317" lon="16.205186945051285"><ele>303.0</ele><time>2026-05-01T16:49:11.001Z</time></trkpt><trkpt lat="47.88408772680754" lon="16.205080546212933"><ele>303.0</ele><time>2026-05-01T16:49:12.001Z</time></trkpt><trkpt lat="47.88380253526586" lon="16.204969713250883"><ele>303.0</ele><time>2026-05-01T16:49:13.001Z</time></trkpt><trkpt lat="47.8835181381474" lon="16.204852894097147"><ele>302.0</ele><time>2026-05-01T16:49:14.001Z</time></trkpt><trkpt lat="47.8832342078188" lon="16.204732560038078"><ele>301.0</ele><time>2026-05-01T16:49:15.001Z</time></trkpt><trkpt lat="47.88295012492551" lon="16.204610191881372"><ele>301.0</ele><time>2026-05-01T16:49:16.001Z</time></trkpt><trkpt lat="47.88266476363515" lon="16.204484259184266"><ele>301.0</ele><time>2026-05-01T16:49:17.001Z</time></trkpt><trkpt lat="47.88237977412224" lon="16.20435318315462"><ele>301.0</ele><time>2026-05-01T16:49:18.001Z</time></trkpt><trkpt lat="47.88209533454016" lon="16.20421583268928"><ele>301.0</ele><time>2026-05-01T16:49:19.001Z</time></trkpt><trkpt lat="47.88181185987527" lon="16.204075495146036"><ele>301.5</ele><time>2026-05-01T16:49:20.001Z</time></trkpt><trkpt lat="47.88152826658588" lon="16.20393270504656"><ele>302.0</ele><time>2026-05-01T16:49:21.001Z</time></trkpt><trkpt lat="47.88124704682426" lon="16.20378294283235"><ele>302.0</ele><time>2026-05-01T16:49:22.001Z</time></trkpt><trkpt lat="47.880967342434865" lon="16.203628474597515"><ele>302.0</ele><time>2026-05-01T16:49:23.001Z</time></trkpt><trkpt lat="47.8806880788806" lon="16.20347373980058"><ele>301.5</ele><time>2026-05-01T16:49:24.001Z</time></trkpt><trkpt lat="47.88041039599824" lon="16.203316430501495"><ele>301.0</ele><time>2026-05-01T16:49:25.001Z</time></trkpt><trkpt lat="47.880133927758195" lon="16.203155756433794"><ele>301.5</ele><time>2026-05-01T16:49:26.001Z</time></trkpt><trkpt lat="47.87985877248759" lon="16.20298954003599"><ele>302.0</ele><time>2026-05-01T16:49:27.001Z</time></trkpt><trkpt lat="47.87958425130562" lon="16.202819084087448"><ele>302.0</ele><time>2026-05-01T16:49:28.001Z</time></trkpt><trkpt lat="47.87931079424568" lon="16.202643340441487"><ele>302.0</ele><time>2026-05-01T16:49:29.001Z</time></trkpt><trkpt lat="47.87903838383337" lon="16.202460910900708"><ele>304.5</ele><time>2026-05-01T16:49:30.001Z</time></trkpt><trkpt lat="47.87876753399667" lon="16.202273795925958"><ele>307.0</ele><time>2026-05-01T16:49:31.001Z</time></trkpt><trkpt lat="47.87849653987989" lon="16.20208736418638"><ele>307.5</ele><time>2026-05-01T16:49:32.001Z</time></trkpt><trkpt lat="47.87822558432279" lon="16.20190302091675"><ele>308.0</ele><time>2026-05-01T16:49:33.001Z</time></trkpt><trkpt lat="47.87795524800201" lon="16.201714967333196"><ele>308.0</ele><time>2026-05-01T16:49:34.001Z</time></trkpt><trkpt lat="47.87768636616995" lon="16.201521243667962"><ele>308.0</ele><time>2026-05-01T16:49:35.001Z</time></trkpt><trkpt lat="47.877419535019015" lon="16.20132182013732"><ele>308.0</ele><time>2026-05-01T16:49:36.001Z</time></trkpt><trkpt lat="47.87715477248423" lon="16.2011174486052"><ele>308.0</ele><time>2026-05-01T16:49:37.001Z</time></trkpt><trkpt lat="47.87689161307204" lon="16.200907288701103"><ele>308.0</ele><time>2026-05-01T16:49:38.001Z</time></trkpt><trkpt lat="47.876628443524254" lon="16.200693317758148"><ele>308.0</ele><time>2026-05-01T16:49:39.001Z</time></trkpt><trkpt lat="47.87636539296328" lon="16.200478931755473"><ele>308.5</ele><time>2026-05-01T16:49:40.001Z</time></trkpt><trkpt lat="47.876102679235146" lon="16.200263873401333"><ele>309.0</ele><time>2026-05-01T16:49:41.001Z</time></trkpt><trkpt lat="47.87584149296979" lon="16.200044597359053"><ele>309.0</ele><time>2026-05-01T16:49:42.001Z</time></trkpt><trkpt lat="47.87558238790919" lon="16.19982071794606"><ele>309.0</ele><time>2026-05-01T16:49:43.001Z</time></trkpt><trkpt lat="47.87532478455681" lon="16.19959334599447"><ele>311.0</ele><time>2026-05-01T16:49:44.001Z</time></trkpt><trkpt lat="47.875065982451964" lon="16.199365764497895"><ele>313.0</ele><time>2026-05-01T16:49:45.001Z</time></trkpt><trkpt lat="47.874807276246344" lon="16.199139066666827"><ele>314.0</ele><time>2026-05-01T16:49:46.001Z</time></trkpt><trkpt lat="47.87455032027178" lon="16.1989092351434"><ele>315.0</ele><time>2026-05-01T16:49:47.001Z</time></trkpt><trkpt lat="47.874294114272196" lon="16.19867630843755"><ele>314.0</ele><time>2026-05-01T16:49:48.001Z</time></trkpt><trkpt lat="47.87403605158615" lon="16.198443147382232"><ele>313.0</ele><time>2026-05-01T16:49:49Z</time></trkpt><trkpt lat="47.87377721921555" lon="16.198210087565435"><ele>314.5</ele><time>2026-05-01T16:49:50Z</time></trkpt><trkpt lat="47.87351812009743" lon="16.197974913199857"><ele>316.0</ele><time>2026-05-01T16:49:51Z</time></trkpt><trkpt lat="47.87325992917452" lon="16.197733687729357"><ele>316.0</ele><time>2026-05-01T16:49:52Z</time></trkpt><trkpt lat="47.87300363677539" lon="16.197486646475124"><ele>316.0</ele><time>2026-05-01T16:49:53Z</time></trkpt><trkpt lat="47.87274936686726" lon="16.19723522992023"><ele>315.5</ele><time>2026-05-01T16:49:54Z</time></trkpt><trkpt lat="47.872494390550386" lon="16.19698535313167"><ele>315.0</ele><time>2026-05-01T16:49:55Z</time></trkpt><trkpt lat="47.87223935580766" lon="16.196737535558324"><ele>318.0</ele><time>2026-05-01T16:49:56Z</time></trkpt><trkpt lat="47.87198539924883" lon="16.196488447948795"><ele>321.0</ele><time>2026-05-01T16:49:57Z</time></trkpt><trkpt lat="47.87173307639473" lon="16.196239338461115"><ele>321.0</ele><time>2026-05-01T16:49:58Z</time></trkpt><trkpt lat="47.871482502220786" lon="16.195987215269405"><ele>321.0</ele><time>2026-05-01T16:49:59Z</time></trkpt><trkpt lat="47.871230462632404" lon="16.19573768638396"><ele>321.0</ele><time>2026-05-01T16:50:00Z</time></trkpt><trkpt lat="47.870978278366024" lon="16.195489028896993"><ele>321.0</ele><time>2026-05-01T16:50:01Z</time></trkpt><trkpt lat="47.87072512921634" lon="16.195241667832644"><ele>321.0</ele><time>2026-05-01T16:50:02Z</time></trkpt><trkpt lat="47.87047298362296" lon="16.194994839778523"><ele>321.0</ele><time>2026-05-01T16:50:03Z</time></trkpt><trkpt lat="47.87022174444614" lon="16.19474987962711"><ele>321.5</ele><time>2026-05-01T16:50:04Z</time></trkpt><trkpt lat="47.869971589956606" lon="16.194504336445465"><ele>322.0</ele><time>2026-05-01T16:50:05Z</time></trkpt><trkpt lat="47.86972251040058" lon="16.19425592541421"><ele>322.0</ele><time>2026-05-01T16:50:06Z</time></trkpt><trkpt lat="47.86947334137399" lon="16.19400590727127"><ele>322.0</ele><time>2026-05-01T16:50:07Z</time></trkpt><trkpt lat="47.869225546691645" lon="16.19375640889091"><ele>318.0</ele><time>2026-05-01T16:50:08Z</time></trkpt><trkpt lat="47.86897677795901" lon="16.193511055608077"><ele>314.0</ele><time>2026-05-01T16:50:09Z</time></trkpt><trkpt lat="47.86872926770121" lon="16.193265558724285"><ele>314.0</ele><time>2026-05-01T16:50:10Z</time></trkpt><trkpt lat="47.86848286421541" lon="16.19302211799368"><ele>314.0</ele><time>2026-05-01T16:50:11Z</time></trkpt><trkpt lat="47.86823692099898" lon="16.19278070800423"><ele>310.5</ele><time>2026-05-01T16:50:12Z</time></trkpt><trkpt lat="47.86799141937509" lon="16.19254112053839"><ele>307.0</ele><time>2026-05-01T16:50:13Z</time></trkpt><trkpt lat="47.86774541231022" lon="16.192303172398617"><ele>307.0</ele><time>2026-05-01T16:50:14Z</time></trkpt><trkpt lat="47.86749800095398" lon="16.192067713777817"><ele>307.0</ele><time>2026-05-01T16:50:15Z</time></trkpt><trkpt lat="47.86725486160878" lon="16.191834559706937"><ele>307.0</ele><time>2026-05-01T16:50:16Z</time></trkpt><trkpt lat="47.86702413133171" lon="16.191612712583147"><ele>307.0</ele><time>2026-05-01T16:50:17Z</time></trkpt><trkpt lat="47.8667900935055" lon="16.19138885407841"><ele>308.0</ele><time>2026-05-01T16:50:18Z</time></trkpt><trkpt lat="47.866549921253494" lon="16.19116260263176"><ele>309.0</ele><time>2026-05-01T16:50:19Z</time></trkpt><trkpt lat="47.86630746328378" lon="16.190936360360638"><ele>309.0</ele><time>2026-05-01T16:50:20Z</time></trkpt><trkpt lat="47.866063832377556" lon="16.190712429096934"><ele>309.0</ele><time>2026-05-01T16:50:21Z</time></trkpt><trkpt lat="47.86581811393279" lon="16.190495299617762"><ele>308.5</ele><time>2026-05-01T16:50:22Z</time></trkpt><trkpt lat="47.86556539829046" lon="16.190284511298167"><ele>308.0</ele><time>2026-05-01T16:50:23Z</time></trkpt><trkpt lat="47.86530496083472" lon="16.190073136487126"><ele>308.0</ele><time>2026-05-01T16:50:24Z</time></trkpt><trkpt lat="47.865042972694404" lon="16.189856645619397"><ele>308.0</ele><time>2026-05-01T16:50:25Z</time></trkpt><trkpt lat="47.86477994367851" lon="16.189633099984007"><ele>308.0</ele><time>2026-05-01T16:50:26Z</time></trkpt><trkpt lat="47.86451495762598" lon="16.189403187161215"><ele>308.0</ele><time>2026-05-01T16:50:27Z</time></trkpt><trkpt lat="47.86425007233111" lon="16.18917393465284"><ele>309.5</ele><time>2026-05-01T16:50:28Z</time></trkpt><trkpt lat="47.86398368048149" lon="16.18894937171977"><ele>311.0</ele><time>2026-05-01T16:50:29Z</time></trkpt><trkpt lat="47.86371674964258" lon="16.18872995591025"><ele>311.0</ele><time>2026-05-01T16:50:30Z</time></trkpt><trkpt lat="47.863448986225094" lon="16.188514908450856"><ele>311.0</ele><time>2026-05-01T16:50:31Z</time></trkpt><trkpt lat="47.863182510911635" lon="16.188304021179317"><ele>310.5</ele><time>2026-05-01T16:50:32Z</time></trkpt><trkpt lat="47.862920624820084" lon="16.18810083646884"><ele>310.0</ele><time>2026-05-01T16:50:33Z</time></trkpt><trkpt lat="47.8626697537286" lon="16.18790678157994"><ele>311.5</ele><time>2026-05-01T16:50:34Z</time></trkpt><trkpt lat="47.86242855714252" lon="16.187723430196602"><ele>313.0</ele><time>2026-05-01T16:50:35Z</time></trkpt><trkpt lat="47.86219112373086" lon="16.18754510196992"><ele>313.0</ele><time>2026-05-01T16:50:36Z</time></trkpt><trkpt lat="47.861954865438534" lon="16.18737144693728"><ele>313.0</ele><time>2026-05-01T16:50:37Z</time></trkpt><trkpt lat="47.86172186805956" lon="16.187200404434822"><ele>312.5</ele><time>2026-05-01T16:50:38Z</time></trkpt><trkpt lat="47.861491317728266" lon="16.18702737876515"><ele>312.0</ele><time>2026-05-01T16:50:39Z</time></trkpt><trkpt lat="47.86126294886457" lon="16.186858532236897"><ele>312.0</ele><time>2026-05-01T16:50:40Z</time></trkpt><trkpt lat="47.861041799680216" lon="16.186700795770566"><ele>312.0</ele><time>2026-05-01T16:50:41Z</time></trkpt><trkpt lat="47.860834018092" lon="16.186556252562287"><ele>312.3333333333333</ele><time>2026-05-01T16:50:42Z</time></trkpt><trkpt lat="47.86063520013852" lon="16.18642204375259"><ele>312.66666666666663</ele><time>2026-05-01T16:50:43Z</time></trkpt><trkpt lat="47.860435675052116" lon="16.186291427607035"><ele>313.0</ele><time>2026-05-01T16:50:44Z</time></trkpt><trkpt lat="47.86023580827666" lon="16.186161981493466"><ele>314.3333333333333</ele><time>2026-05-01T16:50:45Z</time></trkpt><trkpt lat="47.8600343212601" lon="16.186033586400175"><ele>315.6666666666667</ele><time>2026-05-01T16:50:46Z</time></trkpt><trkpt lat="47.859832359512055" lon="16.185907884918223"><ele>317.0</ele><time>2026-05-01T16:50:47Z</time></trkpt><trkpt lat="47.85963009025122" lon="16.185781629872064"><ele>316.33333333333337</ele><time>2026-05-01T16:50:48Z</time></trkpt><trkpt lat="47.859426889571075" lon="16.185658193877888"><ele>315.6666666666667</ele><time>2026-05-01T16:50:49.001Z</time></trkpt><trkpt lat="47.85922096410832" lon="16.1855348757584"><ele>315.0</ele><time>2026-05-01T16:50:50.001Z</time></trkpt><trkpt lat="47.85901374153801" lon="16.185410967910915"><ele>317.0</ele><time>2026-05-01T16:50:51.001Z</time></trkpt><trkpt lat="47.858804555672975" lon="16.185287423265166"><ele>319.0</ele><time>2026-05-01T16:50:52.001Z</time></trkpt><trkpt lat="47.858595964751984" lon="16.185165941246098"><ele>321.0</ele><time>2026-05-01T16:50:53.001Z</time></trkpt><trkpt lat="47.85838813077988" lon="16.185049158604997"><ele>322.0</ele><time>2026-05-01T16:50:54.001Z</time></trkpt><trkpt lat="47.85818199936631" lon="16.184936274320865"><ele>323.0</ele><time>2026-05-01T16:50:55.001Z</time></trkpt><trkpt lat="47.85797599372505" lon="16.1848258461094"><ele>324.0</ele><time>2026-05-01T16:50:56.001Z</time></trkpt><trkpt lat="47.85777050532693" lon="16.184718641439133"><ele>324.3333333333333</ele><time>2026-05-01T16:50:57.001Z</time></trkpt><trkpt lat="47.857565131188466" lon="16.184614222014616"><ele>324.66666666666663</ele><time>2026-05-01T16:50:58.001Z</time></trkpt><trkpt lat="47.85736007164921" lon="16.184509086640166"><ele>325.0</ele><time>2026-05-01T16:50:59.001Z</time></trkpt><trkpt lat="47.857154166595755" lon="16.184402815156187"><ele>325.0</ele><time>2026-05-01T16:51:00.001Z</time></trkpt><trkpt lat="47.85694735734138" lon="16.184299101057498"><ele>325.0</ele><time>2026-05-01T16:51:01.001Z</time></trkpt><trkpt lat="47.85674018843525" lon="16.184194641644943"><ele>325.0</ele><time>2026-05-01T16:51:02.001Z</time></trkpt><trkpt lat="47.85653384759648" lon="16.184084913542776"><ele>327.0</ele><time>2026-05-01T16:51:03.001Z</time></trkpt><trkpt lat="47.856328425066025" lon="16.18397123617483"><ele>329.0</ele><time>2026-05-01T16:51:04.001Z</time></trkpt><trkpt lat="47.85612292545203" lon="16.18385955396953"><ele>331.0</ele><time>2026-05-01T16:51:05.001Z</time></trkpt><trkpt lat="47.855916533644866" lon="16.18375672380338"><ele>331.0</ele><time>2026-05-01T16:51:06.001Z</time></trkpt><trkpt lat="47.855709406174256" lon="16.18366399551336"><ele>331.0</ele><time>2026-05-01T16:51:07.001Z</time></trkpt><trkpt lat="47.855501554193594" lon="16.183577007416293"><ele>331.0</ele><time>2026-05-01T16:51:08.001Z</time></trkpt><trkpt lat="47.85529327572136" lon="16.183492565036403"><ele>332.0</ele><time>2026-05-01T16:51:09.001Z</time></trkpt><trkpt lat="47.855085412580834" lon="16.18340749737279"><ele>333.0</ele><time>2026-05-01T16:51:10.001Z</time></trkpt><trkpt lat="47.854875461895354" lon="16.183324268283005"><ele>334.0</ele><time>2026-05-01T16:51:11.001Z</time></trkpt><trkpt lat="47.854667571157044" lon="16.18324217784821"><ele>337.66666666666663</ele><time>2026-05-01T16:51:12.001Z</time></trkpt><trkpt lat="47.85446873578974" lon="16.183166461461628"><ele>341.3333333333333</ele><time>2026-05-01T16:51:13.001Z</time></trkpt><trkpt lat="47.854277571878676" lon="16.183091714070063"><ele>345.0</ele><time>2026-05-01T16:51:14.001Z</time></trkpt><trkpt lat="47.854083451929405" lon="16.183016601849022"><ele>345.0</ele><time>2026-05-01T16:51:15.001Z</time></trkpt><trkpt lat="47.853885345409616" lon="16.182943394287857"><ele>345.0</ele><time>2026-05-01T16:51:16.001Z</time></trkpt><trkpt lat="47.853686025386736" lon="16.182869760527264"><ele>345.0</ele><time>2026-05-01T16:51:17.001Z</time></trkpt><trkpt lat="47.853491618772814" lon="16.182800411781216"><ele>344.0</ele><time>2026-05-01T16:51:18.001Z</time></trkpt><trkpt lat="47.85330037084181" lon="16.182732428045966"><ele>343.0</ele><time>2026-05-01T16:51:19.001Z</time></trkpt><trkpt lat="47.85311291521407" lon="16.1826664710543"><ele>342.0</ele><time>2026-05-01T16:51:20.001Z</time></trkpt><trkpt lat="47.85292948058985" lon="16.18260347290655"><ele>342.0</ele><time>2026-05-01T16:51:21.001Z</time></trkpt><trkpt lat="47.85274280543243" lon="16.182541583449645"><ele>342.0</ele><time>2026-05-01T16:51:22.001Z</time></trkpt><trkpt lat="47.8525569529477" lon="16.18248097522499"><ele>342.0</ele><time>2026-05-01T16:51:23.001Z</time></trkpt><trkpt lat="47.852371897029364" lon="16.182421809340727"><ele>340.6666666666667</ele><time>2026-05-01T16:51:24.001Z</time></trkpt><trkpt lat="47.8521853671122" lon="16.182364554097813"><ele>339.33333333333337</ele><time>2026-05-01T16:51:25.001Z</time></trkpt><trkpt lat="47.85199809116059" lon="16.182307689524194"><ele>338.0</ele><time>2026-05-01T16:51:26.001Z</time></trkpt><trkpt lat="47.851807941325255" lon="16.182255364677793"><ele>340.0</ele><time>2026-05-01T16:51:27.001Z</time></trkpt><trkpt lat="47.85161668333855" lon="16.182204350225636"><ele>342.0</ele><time>2026-05-01T16:51:28.001Z</time></trkpt><trkpt lat="47.85142204035408" lon="16.182153398262408"><ele>344.0</ele><time>2026-05-01T16:51:29.001Z</time></trkpt><trkpt lat="47.85122569514472" lon="16.182102480815093"><ele>344.0</ele><time>2026-05-01T16:51:30.001Z</time></trkpt><trkpt lat="47.85102873406467" lon="16.182052384404628"><ele>344.0</ele><time>2026-05-01T16:51:31.001Z</time></trkpt><trkpt lat="47.85083194813605" lon="16.18200291387664"><ele>344.0</ele><time>2026-05-01T16:51:32.001Z</time></trkpt><trkpt lat="47.850634081910684" lon="16.181954518376656"><ele>342.33333333333337</ele><time>2026-05-01T16:51:33.001Z</time></trkpt><trkpt lat="47.85043474496422" lon="16.18190723813852"><ele>340.6666666666667</ele><time>2026-05-01T16:51:34.001Z</time></trkpt><trkpt lat="47.85023395212659" lon="16.181861355888195"><ele>339.0</ele><time>2026-05-01T16:51:35.001Z</time></trkpt><trkpt lat="47.850032093694004" lon="16.18181762199053"><ele>337.6666666666667</ele><time>2026-05-01T16:51:36.001Z</time></trkpt><trkpt lat="47.84982981083439" lon="16.181775334745126"><ele>336.33333333333337</ele><time>2026-05-01T16:51:37.001Z</time></trkpt><trkpt lat="47.84962720140303" lon="16.18173427210391"><ele>335.0</ele><time>2026-05-01T16:51:38.001Z</time></trkpt><trkpt lat="47.849422171992764" lon="16.181695732073493"><ele>333.6666666666667</ele><time>2026-05-01T16:51:39.001Z</time></trkpt><trkpt lat="47.84921627881524" lon="16.18165820226221"><ele>332.3333333333333</ele><time>2026-05-01T16:51:40.001Z</time></trkpt><trkpt lat="47.84900990223437" lon="16.181620987568134"><ele>331.0</ele><time>2026-05-01T16:51:41.001Z</time></trkpt><trkpt lat="47.84880838677625" lon="16.181583701236647"><ele>331.0</ele><time>2026-05-01T16:51:42.001Z</time></trkpt><trkpt lat="47.848608169113994" lon="16.181547316438788"><ele>331.0</ele><time>2026-05-01T16:51:43.001Z</time></trkpt><trkpt lat="47.848408457050645" lon="16.181514964366322"><ele>331.0</ele><time>2026-05-01T16:51:44.001Z</time></trkpt><trkpt lat="47.848209855181445" lon="16.18148461290056"><ele>330.3333333333333</ele><time>2026-05-01T16:51:45.001Z</time></trkpt><trkpt lat="47.84801109137976" lon="16.181456482295193"><ele>329.6666666666667</ele><time>2026-05-01T16:51:46.001Z</time></trkpt><trkpt lat="47.8478123422792" lon="16.181430139805723"><ele>329.0</ele><time>2026-05-01T16:51:47.001Z</time></trkpt><trkpt lat="47.84761724542881" lon="16.181407145601337"><ele>329.0</ele><time>2026-05-01T16:51:48.001Z</time></trkpt><trkpt lat="47.847430226650125" lon="16.181384826096206"><ele>329.0</ele><time>2026-05-01T16:51:49.001Z</time></trkpt><trkpt lat="47.84724009782223" lon="16.181362499591103"><ele>329.0</ele><time>2026-05-01T16:51:50.001Z</time></trkpt><trkpt lat="47.84704932345178" lon="16.181342394440478"><ele>329.0</ele><time>2026-05-01T16:51:51.001Z</time></trkpt><trkpt lat="47.84685841003229" lon="16.181325784010443"><ele>329.0</ele><time>2026-05-01T16:51:52.001Z</time></trkpt><trkpt lat="47.846666309709214" lon="16.1813094758255"><ele>329.0</ele><time>2026-05-01T16:51:53.001Z</time></trkpt><trkpt lat="47.8464724990875" lon="16.18129257959693"><ele>325.6666666666667</ele><time>2026-05-01T16:51:54.001Z</time></trkpt><trkpt lat="47.84627786838873" lon="16.18127564634712"><ele>322.3333333333333</ele><time>2026-05-01T16:51:55Z</time></trkpt><trkpt lat="47.84608376421742" lon="16.181259498492004"><ele>319.0</ele><time>2026-05-01T16:51:56Z</time></trkpt><trkpt lat="47.845888797786266" lon="16.18124588564805"><ele>318.3333333333333</ele><time>2026-05-01T16:51:57Z</time></trkpt><trkpt lat="47.845694716958114" lon="16.18123321575255"><ele>317.6666666666667</ele><time>2026-05-01T16:51:58Z</time></trkpt><trkpt lat="47.84550185492741" lon="16.181221451096075"><ele>317.0</ele><time>2026-05-01T16:51:59Z</time></trkpt><trkpt lat="47.84530904873133" lon="16.18121195072086"><ele>315.0</ele><time>2026-05-01T16:52:00Z</time></trkpt><trkpt lat="47.84511782828768" lon="16.181201379621633"><ele>313.0</ele><time>2026-05-01T16:52:01Z</time></trkpt><trkpt lat="47.84492692646872" lon="16.181193561261836"><ele>311.0</ele><time>2026-05-01T16:52:02Z</time></trkpt><trkpt lat="47.84473658498333" lon="16.18118774950919"><ele>311.0</ele><time>2026-05-01T16:52:03Z</time></trkpt><trkpt lat="47.84454553450491" lon="16.1811838219509"><ele>311.0</ele><time>2026-05-01T16:52:04Z</time></trkpt><trkpt lat="47.84435468152665" lon="16.181181068149993"><ele>311.0</ele><time>2026-05-01T16:52:05Z</time></trkpt><trkpt lat="47.84416296365295" lon="16.18118108939763"><ele>308.33333333333337</ele><time>2026-05-01T16:52:06Z</time></trkpt><trkpt lat="47.843972552368996" lon="16.181178528538908"><ele>305.6666666666667</ele><time>2026-05-01T16:52:07Z</time></trkpt><trkpt lat="47.843781585658036" lon="16.18117343031781"><ele>303.0</ele><time>2026-05-01T16:52:08Z</time></trkpt><trkpt lat="47.84358969786091" lon="16.18116952635352"><ele>301.3333333333333</ele><time>2026-05-01T16:52:09Z</time></trkpt><trkpt lat="47.84339615058035" lon="16.181169723617923"><ele>299.66666666666663</ele><time>2026-05-01T16:52:10Z</time></trkpt><trkpt lat="47.843201714969375" lon="16.181173481756872"><ele>298.0</ele><time>2026-05-01T16:52:11Z</time></trkpt><trkpt lat="47.84300483115362" lon="16.181178545851555"><ele>298.0</ele><time>2026-05-01T16:52:12Z</time></trkpt><trkpt lat="47.842806324495236" lon="16.181184986343993"><ele>298.0</ele><time>2026-05-01T16:52:13Z</time></trkpt><trkpt lat="47.84260573135688" lon="16.18119207904341"><ele>298.0</ele><time>2026-05-01T16:52:14Z</time></trkpt><trkpt lat="47.8424053669036" lon="16.181197012897925"><ele>298.0</ele><time>2026-05-01T16:52:15Z</time></trkpt><trkpt lat="47.842205622820906" lon="16.181203499482788"><ele>298.0</ele><time>2026-05-01T16:52:16Z</time></trkpt><trkpt lat="47.84201450062514" lon="16.181209359117535"><ele>298.0</ele><time>2026-05-01T16:52:17Z</time></trkpt><trkpt lat="47.841823217979645" lon="16.18121647116743"><ele>297.3333333333333</ele><time>2026-05-01T16:52:18Z</time></trkpt><trkpt lat="47.84162985223496" lon="16.18122550979565"><ele>296.6666666666667</ele><time>2026-05-01T16:52:19Z</time></trkpt><trkpt lat="47.841434612706244" lon="16.181236917941927"><ele>296.0</ele><time>2026-05-01T16:52:20Z</time></trkpt><trkpt lat="47.84123943471093" lon="16.1812476957133"><ele>296.0</ele><time>2026-05-01T16:52:21Z</time></trkpt><trkpt lat="47.84104466093098" lon="16.181258557827597"><ele>296.0</ele><time>2026-05-01T16:52:22Z</time></trkpt><trkpt lat="47.8408501682786" lon="16.181270766158768"><ele>296.0</ele><time>2026-05-01T16:52:23Z</time></trkpt><trkpt lat="47.840656609355115" lon="16.181285818155036"><ele>295.6666666666667</ele><time>2026-05-01T16:52:24Z</time></trkpt><trkpt lat="47.84046330954725" lon="16.181301031152127"><ele>295.3333333333333</ele><time>2026-05-01T16:52:25Z</time></trkpt><trkpt lat="47.84026981081939" lon="16.1813157880341"><ele>295.0</ele><time>2026-05-01T16:52:26Z</time></trkpt><trkpt lat="47.84007653352034" lon="16.1813321105351"><ele>293.0</ele><time>2026-05-01T16:52:27Z</time></trkpt><trkpt lat="47.83988425275033" lon="16.18134908389037"><ele>291.0</ele><time>2026-05-01T16:52:28Z</time></trkpt><trkpt lat="47.83969245878843" lon="16.181365949967578"><ele>289.0</ele><time>2026-05-01T16:52:29Z</time></trkpt><trkpt lat="47.839501367669634" lon="16.181383135618987"><ele>289.0</ele><time>2026-05-01T16:52:30Z</time></trkpt><trkpt lat="47.839310685456596" lon="16.181401162951314"><ele>289.0</ele><time>2026-05-01T16:52:31Z</time></trkpt><trkpt lat="47.83912083014264" lon="16.18142083650504"><ele>289.0</ele><time>2026-05-01T16:52:32Z</time></trkpt><trkpt lat="47.838931611892335" lon="16.181441724390712"><ele>289.0</ele><time>2026-05-01T16:52:33Z</time></trkpt><trkpt lat="47.838741922232735" lon="16.181462844747422"><ele>289.0</ele><time>2026-05-01T16:52:34Z</time></trkpt><trkpt lat="47.83855146942822" lon="16.18148745509024"><ele>289.0</ele><time>2026-05-01T16:52:35Z</time></trkpt><trkpt lat="47.83836246764664" lon="16.18150957171575"><ele>289.66666666666663</ele><time>2026-05-01T16:52:36Z</time></trkpt><trkpt lat="47.838173040655825" lon="16.18153068527149"><ele>290.3333333333333</ele><time>2026-05-01T16:52:37Z</time></trkpt><trkpt lat="47.83798267903264" lon="16.18155765325399"><ele>291.0</ele><time>2026-05-01T16:52:38Z</time></trkpt><trkpt lat="47.83779175909253" lon="16.181584519964886"><ele>290.3333333333333</ele><time>2026-05-01T16:52:39Z</time></trkpt><trkpt lat="47.83759919420033" lon="16.18161179737567"><ele>289.66666666666663</ele><time>2026-05-01T16:52:40Z</time></trkpt><trkpt lat="47.83740564264171" lon="16.181640166182735"><ele>289.0</ele><time>2026-05-01T16:52:41Z</time></trkpt><trkpt lat="47.83721213901554" lon="16.181668858725843"><ele>289.0</ele><time>2026-05-01T16:52:42Z</time></trkpt><trkpt lat="47.837017993114145" lon="16.181698908234278"><ele>289.0</ele><time>2026-05-01T16:52:43Z</time></trkpt><trkpt lat="47.83682429824742" lon="16.18173040015435"><ele>289.0</ele><time>2026-05-01T16:52:44Z</time></trkpt><trkpt lat="47.83663039059699" lon="16.181762155175473"><ele>288.0</ele><time>2026-05-01T16:52:45Z</time></trkpt><trkpt lat="47.83643580791665" lon="16.181795571711643"><ele>287.0</ele><time>2026-05-01T16:52:46Z</time></trkpt><trkpt lat="47.83624177737506" lon="16.18183025257399"><ele>286.0</ele><time>2026-05-01T16:52:47Z</time></trkpt><trkpt lat="47.83604863019173" lon="16.18186480262802"><ele>285.0</ele><time>2026-05-01T16:52:48Z</time></trkpt><trkpt lat="47.8358557865249" lon="16.18189930308364"><ele>284.0</ele><time>2026-05-01T16:52:49Z</time></trkpt><trkpt lat="47.835664249058674" lon="16.18193512729381"><ele>283.0</ele><time>2026-05-01T16:52:50Z</time></trkpt><trkpt lat="47.83547392645473" lon="16.181971964295723"><ele>283.0</ele><time>2026-05-01T16:52:51Z</time></trkpt><trkpt lat="47.83528434479316" lon="16.182008970040613"><ele>283.0</ele><time>2026-05-01T16:52:52Z</time></trkpt><trkpt lat="47.83509389580062" lon="16.18204619834501"><ele>283.0</ele><time>2026-05-01T16:52:53Z</time></trkpt><trkpt lat="47.834905056613806" lon="16.182084218779956"><ele>283.3333333333333</ele><time>2026-05-01T16:52:54Z</time></trkpt><trkpt lat="47.834715272049735" lon="16.18212448900343"><ele>283.6666666666667</ele><time>2026-05-01T16:52:55Z</time></trkpt><trkpt lat="47.834528541177825" lon="16.182191259061646"><ele>284.0</ele><time>2026-05-01T16:52:56Z</time></trkpt><trkpt lat="47.834338787997865" lon="16.18223717487888"><ele>285.0</ele><time>2026-05-01T16:52:57Z</time></trkpt><trkpt lat="47.83414950288596" lon="16.18228297732026"><ele>286.0</ele><time>2026-05-01T16:52:58Z</time></trkpt><trkpt lat="47.83395904303634" lon="16.182329064080264"><ele>287.0</ele><time>2026-05-01T16:52:59Z</time></trkpt><trkpt lat="47.83376984526704" lon="16.18237484549056"><ele>287.0</ele><time>2026-05-01T16:53:00Z</time></trkpt><trkpt lat="47.833580122033204" lon="16.182420753976803"><ele>287.0</ele><time>2026-05-01T16:53:01Z</time></trkpt><trkpt lat="47.83339009827492" lon="16.18246679555003"><ele>287.0</ele><time>2026-05-01T16:53:02Z</time></trkpt><trkpt lat="47.83320163739781" lon="16.18251901136997"><ele>286.0</ele><time>2026-05-01T16:53:03Z</time></trkpt><trkpt lat="47.83301387780443" lon="16.18257273723595"><ele>285.0</ele><time>2026-05-01T16:53:04Z</time></trkpt><trkpt lat="47.832826157937916" lon="16.182626451682424"><ele>284.0</ele><time>2026-05-01T16:53:05Z</time></trkpt><trkpt lat="47.8326388411142" lon="16.18268005079968"><ele>283.0</ele><time>2026-05-01T16:53:06Z</time></trkpt><trkpt lat="47.83245118227813" lon="16.18273374783381"><ele>282.0</ele><time>2026-05-01T16:53:07Z</time></trkpt><trkpt lat="47.83226370248557" lon="16.182789005202704"><ele>281.0</ele><time>2026-05-01T16:53:08Z</time></trkpt><trkpt lat="47.83207625196483" lon="16.182847057898947"><ele>281.0</ele><time>2026-05-01T16:53:09Z</time></trkpt><trkpt lat="47.83188887469183" lon="16.182908525923796"><ele>281.0</ele><time>2026-05-01T16:53:10Z</time></trkpt><trkpt lat="47.831701026033755" lon="16.18297014871389"><ele>281.0</ele><time>2026-05-01T16:53:11Z</time></trkpt><trkpt lat="47.8315136774687" lon="16.183029116524185"><ele>280.0</ele><time>2026-05-01T16:53:12Z</time></trkpt><trkpt lat="47.83132628334933" lon="16.18309022225759"><ele>279.0</ele><time>2026-05-01T16:53:13.001Z</time></trkpt><trkpt lat="47.831137474785564" lon="16.18315240319086"><ele>278.0</ele><time>2026-05-01T16:53:14.001Z</time></trkpt><trkpt lat="47.83094857982882" lon="16.18321882469241"><ele>278.0</ele><time>2026-05-01T16:53:15.001Z</time></trkpt><trkpt lat="47.83075965835144" lon="16.183286751683948"><ele>278.0</ele><time>2026-05-01T16:53:16.001Z</time></trkpt><trkpt lat="47.83057070724636" lon="16.183354689507812"><ele>278.0</ele><time>2026-05-01T16:53:17.001Z</time></trkpt><trkpt lat="47.83037883272486" lon="16.183400484540353"><ele>278.0</ele><time>2026-05-01T16:53:18.001Z</time></trkpt><trkpt lat="47.830189823801234" lon="16.18347364228792"><ele>278.0</ele><time>2026-05-01T16:53:19.001Z</time></trkpt><trkpt lat="47.830001358938866" lon="16.183547072386652"><ele>278.0</ele><time>2026-05-01T16:53:20.001Z</time></trkpt><trkpt lat="47.82981275310473" lon="16.183622492357035"><ele>277.6666666666667</ele><time>2026-05-01T16:53:21.001Z</time></trkpt><trkpt lat="47.82962490793525" lon="16.183700479716776"><ele>277.3333333333333</ele><time>2026-05-01T16:53:22.001Z</time></trkpt><trkpt lat="47.82943791779" lon="16.1837801748638"><ele>277.0</ele><time>2026-05-01T16:53:23.001Z</time></trkpt><trkpt lat="47.829251053004" lon="16.18386002580661"><ele>276.66666666666663</ele><time>2026-05-01T16:53:24.001Z</time></trkpt><trkpt lat="47.829063361206984" lon="16.18393999747771"><ele>276.3333333333333</ele><time>2026-05-01T16:53:25.001Z</time></trkpt><trkpt lat="47.82887496845782" lon="16.184020728649028"><ele>276.0</ele><time>2026-05-01T16:53:26.001Z</time></trkpt><trkpt lat="47.828685838119966" lon="16.184105771303546"><ele>276.0</ele><time>2026-05-01T16:53:27.001Z</time></trkpt><trkpt lat="47.82849762461495" lon="16.184191053700356"><ele>276.0</ele><time>2026-05-01T16:53:28.001Z</time></trkpt><trkpt lat="47.828310053937145" lon="16.184278153397475"><ele>276.0</ele><time>2026-05-01T16:53:29.001Z</time></trkpt><trkpt lat="47.82812051612888" lon="16.184366030329247"><ele>276.0</ele><time>2026-05-01T16:53:30.001Z</time></trkpt><trkpt lat="47.8279310912745" lon="16.184457108803493"><ele>276.0</ele><time>2026-05-01T16:53:31.001Z</time></trkpt><trkpt lat="47.827741042439804" lon="16.18454922078678"><ele>276.0</ele><time>2026-05-01T16:53:32.001Z</time></trkpt><trkpt lat="47.82755070540881" lon="16.184643066537106"><ele>275.6666666666667</ele><time>2026-05-01T16:53:33.001Z</time></trkpt><trkpt lat="47.827359481237025" lon="16.184737084041267"><ele>275.33333333333337</ele><time>2026-05-01T16:53:34.001Z</time></trkpt><trkpt lat="47.827167882275596" lon="16.184835209897862"><ele>275.0</ele><time>2026-05-01T16:53:35.001Z</time></trkpt><trkpt lat="47.826975449402106" lon="16.18493554732165"><ele>274.6666666666667</ele><time>2026-05-01T16:53:36.001Z</time></trkpt><trkpt lat="47.82678284535686" lon="16.185036958990047"><ele>274.3333333333333</ele><time>2026-05-01T16:53:37.001Z</time></trkpt><trkpt lat="47.82659023999903" lon="16.185141376780344"><ele>274.0</ele><time>2026-05-01T16:53:38.001Z</time></trkpt><trkpt lat="47.82640193448128" lon="16.185244495016256"><ele>274.0</ele><time>2026-05-01T16:53:39.001Z</time></trkpt><trkpt lat="47.826216304116755" lon="16.185345754217348"><ele>274.0</ele><time>2026-05-01T16:53:40.001Z</time></trkpt><trkpt lat="47.82602766051138" lon="16.185450136211696"><ele>274.0</ele><time>2026-05-01T16:53:41.001Z</time></trkpt><trkpt lat="47.82583778723952" lon="16.18555741385998"><ele>274.0</ele><time>2026-05-01T16:53:42.001Z</time></trkpt><trkpt lat="47.82564687399977" lon="16.185668666881867"><ele>274.0</ele><time>2026-05-01T16:53:43.001Z</time></trkpt><trkpt lat="47.82545618786593" lon="16.185781750208793"><ele>274.0</ele><time>2026-05-01T16:53:44.001Z</time></trkpt><trkpt lat="47.82526573855067" lon="16.18589587943181"><ele>274.0</ele><time>2026-05-01T16:53:45.001Z</time></trkpt><trkpt lat="47.82507570350723" lon="16.1860090322861"><ele>274.0</ele><time>2026-05-01T16:53:46.001Z</time></trkpt><trkpt lat="47.824886643376814" lon="16.18612389621994"><ele>274.0</ele><time>2026-05-01T16:53:47.001Z</time></trkpt><trkpt lat="47.82469754244725" lon="16.186238334650213"><ele>274.0</ele><time>2026-05-01T16:53:48.001Z</time></trkpt><trkpt lat="47.824509518138385" lon="16.186352503472126"><ele>274.0</ele><time>2026-05-01T16:53:49.001Z</time></trkpt><trkpt lat="47.824322655792585" lon="16.186467978823273"><ele>274.0</ele><time>2026-05-01T16:53:50.001Z</time></trkpt><trkpt lat="47.82413736202645" lon="16.18658523615041"><ele>274.3333333333333</ele><time>2026-05-01T16:53:51.001Z</time></trkpt><trkpt lat="47.82395277306464" lon="16.18670399344937"><ele>274.6666666666667</ele><time>2026-05-01T16:53:52.001Z</time></trkpt><trkpt lat="47.82376791345634" lon="16.186824593015796"><ele>275.0</ele><time>2026-05-01T16:53:53.001Z</time></trkpt><trkpt lat="47.82358267867987" lon="16.186947911680058"><ele>274.33333333333337</ele><time>2026-05-01T16:53:54.001Z</time></trkpt><trkpt lat="47.82339696053755" lon="16.187074697578648"><ele>273.6666666666667</ele><time>2026-05-01T16:53:55.001Z</time></trkpt><trkpt lat="47.82321136518089" lon="16.187199913387296"><ele>273.0</ele><time>2026-05-01T16:53:56.001Z</time></trkpt><trkpt lat="47.82302559975909" lon="16.18732410267797"><ele>273.6666666666667</ele><time>2026-05-01T16:53:57.001Z</time></trkpt><trkpt lat="47.822839727017325" lon="16.187450122624124"><ele>274.33333333333337</ele><time>2026-05-01T16:53:58.001Z</time></trkpt><trkpt lat="47.82265447904745" lon="16.187574708561154"><ele>275.0</ele><time>2026-05-01T16:53:59.001Z</time></trkpt><trkpt lat="47.82247075383468" lon="16.18770201381974"><ele>275.0</ele><time>2026-05-01T16:54:00.001Z</time></trkpt><trkpt lat="47.82228724911189" lon="16.187829137294937"><ele>275.0</ele><time>2026-05-01T16:54:01Z</time></trkpt><trkpt lat="47.82210401467003" lon="16.187958536458392"><ele>275.0</ele><time>2026-05-01T16:54:02Z</time></trkpt><trkpt lat="47.821920960240405" lon="16.1880879974045"><ele>275.0</ele><time>2026-05-01T16:54:03Z</time></trkpt><trkpt lat="47.82173749420083" lon="16.188218642229636"><ele>275.0</ele><time>2026-05-01T16:54:04Z</time></trkpt><trkpt lat="47.82155333706068" lon="16.18835053499017"><ele>275.0</ele><time>2026-05-01T16:54:05Z</time></trkpt><trkpt lat="47.82136894946418" lon="16.188484424639622"><ele>275.0</ele><time>2026-05-01T16:54:06Z</time></trkpt><trkpt lat="47.82118440313012" lon="16.188617190050905"><ele>275.0</ele><time>2026-05-01T16:54:07Z</time></trkpt><trkpt lat="47.82100073799651" lon="16.188749334186458"><ele>275.0</ele><time>2026-05-01T16:54:08Z</time></trkpt><trkpt lat="47.820815789180465" lon="16.188883074165712"><ele>274.33333333333337</ele><time>2026-05-01T16:54:09Z</time></trkpt><trkpt lat="47.82062744435316" lon="16.18901980533056"><ele>273.6666666666667</ele><time>2026-05-01T16:54:10Z</time></trkpt><trkpt lat="47.82043775465287" lon="16.189158928488297"><ele>273.0</ele><time>2026-05-01T16:54:11Z</time></trkpt><trkpt lat="47.82024761101099" lon="16.18929871506218"><ele>273.3333333333333</ele><time>2026-05-01T16:54:12Z</time></trkpt><trkpt lat="47.8200570365481" lon="16.189438266965155"><ele>273.66666666666663</ele><time>2026-05-01T16:54:13Z</time></trkpt><trkpt lat="47.81986640163015" lon="16.189578530200436"><ele>274.0</ele><time>2026-05-01T16:54:14Z</time></trkpt><trkpt lat="47.81967602589327" lon="16.189719249372416"><ele>274.3333333333333</ele><time>2026-05-01T16:54:15Z</time></trkpt><trkpt lat="47.81948612078014" lon="16.189862066682505"><ele>274.6666666666667</ele><time>2026-05-01T16:54:16Z</time></trkpt><trkpt lat="47.819295356165426" lon="16.190000840932484"><ele>275.0</ele><time>2026-05-01T16:54:17Z</time></trkpt><trkpt lat="47.81910550849275" lon="16.190140196323995"><ele>276.0</ele><time>2026-05-01T16:54:18Z</time></trkpt><trkpt lat="47.818914915735625" lon="16.190280354304655"><ele>277.0</ele><time>2026-05-01T16:54:19Z</time></trkpt><trkpt lat="47.818725744094934" lon="16.190419749611365"><ele>278.0</ele><time>2026-05-01T16:54:20Z</time></trkpt><trkpt lat="47.81853657477077" lon="16.19055624809523"><ele>278.33333333333337</ele><time>2026-05-01T16:54:21Z</time></trkpt><trkpt lat="47.81834803574823" lon="16.19068981620736"><ele>278.6666666666667</ele><time>2026-05-01T16:54:22Z</time></trkpt><trkpt lat="47.8181579577307" lon="16.190821951029864"><ele>279.0</ele><time>2026-05-01T16:54:23Z</time></trkpt><trkpt lat="47.81797387358143" lon="16.190959842791404"><ele>279.0</ele><time>2026-05-01T16:54:24Z</time></trkpt><trkpt lat="47.817788970331065" lon="16.19109900378179"><ele>279.0</ele><time>2026-05-01T16:54:25Z</time></trkpt><trkpt lat="47.81760420502442" lon="16.19123355218959"><ele>279.0</ele><time>2026-05-01T16:54:26Z</time></trkpt><trkpt lat="47.81741863067735" lon="16.191368473082303"><ele>278.3333333333333</ele><time>2026-05-01T16:54:27Z</time></trkpt><trkpt lat="47.81723340455693" lon="16.191504749876167"><ele>277.66666666666663</ele><time>2026-05-01T16:54:28Z</time></trkpt><trkpt lat="47.81704890039712" lon="16.191640905741064"><ele>277.0</ele><time>2026-05-01T16:54:29Z</time></trkpt><trkpt lat="47.81686392136093" lon="16.19177795571421"><ele>276.0</ele><time>2026-05-01T16:54:30Z</time></trkpt><trkpt lat="47.816678812308844" lon="16.191915317454963"><ele>275.0</ele><time>2026-05-01T16:54:31Z</time></trkpt><trkpt lat="47.81649313024187" lon="16.192051523569635"><ele>274.0</ele><time>2026-05-01T16:54:32Z</time></trkpt><trkpt lat="47.816306636269694" lon="16.192188446511768"><ele>274.0</ele><time>2026-05-01T16:54:33Z</time></trkpt><trkpt lat="47.81611896353703" lon="16.192325011364094"><ele>274.0</ele><time>2026-05-01T16:54:34Z</time></trkpt><trkpt lat="47.81593112204955" lon="16.19246436588156"><ele>274.0</ele><time>2026-05-01T16:54:35Z</time></trkpt><trkpt lat="47.815742722538516" lon="16.192602872352726"><ele>274.66666666666663</ele><time>2026-05-01T16:54:36Z</time></trkpt><trkpt lat="47.81555512008451" lon="16.19274242562774"><ele>275.3333333333333</ele><time>2026-05-01T16:54:37Z</time></trkpt><trkpt lat="47.81537220676136" lon="16.19286890314775"><ele>276.0</ele><time>2026-05-01T16:54:38Z</time></trkpt><trkpt lat="47.815186763965215" lon="16.19300104087524"><ele>275.6666666666667</ele><time>2026-05-01T16:54:39Z</time></trkpt><trkpt lat="47.81499957701313" lon="16.19313909062487"><ele>275.33333333333337</ele><time>2026-05-01T16:54:40Z</time></trkpt><trkpt lat="47.814810317977944" lon="16.193275316955972"><ele>275.0</ele><time>2026-05-01T16:54:41Z</time></trkpt><trkpt lat="47.81461881111" lon="16.19341308628876"><ele>275.0</ele><time>2026-05-01T16:54:42Z</time></trkpt><trkpt lat="47.81442684442755" lon="16.19355168146642"><ele>275.0</ele><time>2026-05-01T16:54:43Z</time></trkpt><trkpt lat="47.81423529807727" lon="16.193688964782208"><ele>275.0</ele><time>2026-05-01T16:54:44Z</time></trkpt><trkpt lat="47.81404494614443" lon="16.193824483541825"><ele>274.6666666666667</ele><time>2026-05-01T16:54:45Z</time></trkpt><trkpt lat="47.81385604711851" lon="16.193959657465342"><ele>274.3333333333333</ele><time>2026-05-01T16:54:46Z</time></trkpt><trkpt lat="47.813668015399934" lon="16.194093997115573"><ele>274.0</ele><time>2026-05-01T16:54:47Z</time></trkpt><trkpt lat="47.81348149950247" lon="16.194226869589865"><ele>274.0</ele><time>2026-05-01T16:54:48Z</time></trkpt><trkpt lat="47.81329595791254" lon="16.19435930337229"><ele>274.0</ele><time>2026-05-01T16:54:49Z</time></trkpt><trkpt lat="47.813109950207945" lon="16.194491744104553"><ele>274.0</ele><time>2026-05-01T16:54:50Z</time></trkpt><trkpt lat="47.8129242932714" lon="16.19462320244444"><ele>274.0</ele><time>2026-05-01T16:54:51Z</time></trkpt><trkpt lat="47.8127369454133" lon="16.194753559915583"><ele>274.0</ele><time>2026-05-01T16:54:52Z</time></trkpt><trkpt lat="47.812548685535795" lon="16.194881482740634"><ele>274.0</ele><time>2026-05-01T16:54:53Z</time></trkpt><trkpt lat="47.81236097661614" lon="16.195010150960012"><ele>275.0</ele><time>2026-05-01T16:54:54Z</time></trkpt><trkpt lat="47.81217360127409" lon="16.195137896613627"><ele>276.0</ele><time>2026-05-01T16:54:55Z</time></trkpt><trkpt lat="47.81198562698568" lon="16.19526540719652"><ele>277.0</ele><time>2026-05-01T16:54:56Z</time></trkpt><trkpt lat="47.811797752036426" lon="16.195391991541456"><ele>277.0</ele><time>2026-05-01T16:54:57Z</time></trkpt><trkpt lat="47.81160950895678" lon="16.1955186627557"><ele>277.0</ele><time>2026-05-01T16:54:58Z</time></trkpt><trkpt lat="47.811422007787996" lon="16.195643736107627"><ele>277.0</ele><time>2026-05-01T16:54:59Z</time></trkpt><trkpt lat="47.811234014159304" lon="16.195768026152557"><ele>277.0</ele><time>2026-05-01T16:55:00Z</time></trkpt><trkpt lat="47.81104670710864" lon="16.19589254302897"><ele>277.0</ele><time>2026-05-01T16:55:01Z</time></trkpt><trkpt lat="47.81086071108141" lon="16.196015474768902"><ele>277.0</ele><time>2026-05-01T16:55:02Z</time></trkpt><trkpt lat="47.810674931970695" lon="16.196137064455723"><ele>278.0</ele><time>2026-05-01T16:55:03Z</time></trkpt><trkpt lat="47.81048948613762" lon="16.196257435671846"><ele>279.0</ele><time>2026-05-01T16:55:04Z</time></trkpt><trkpt lat="47.81030210564253" lon="16.196376424690392"><ele>280.0</ele><time>2026-05-01T16:55:05Z</time></trkpt><trkpt lat="47.810113368474425" lon="16.19649630866663"><ele>279.3333333333333</ele><time>2026-05-01T16:55:06Z</time></trkpt><trkpt lat="47.809923662773436" lon="16.196613884295967"><ele>278.6666666666667</ele><time>2026-05-01T16:55:07Z</time></trkpt><trkpt lat="47.80973512560369" lon="16.196732802769798"><ele>278.0</ele><time>2026-05-01T16:55:08Z</time></trkpt><trkpt lat="47.80954666698731" lon="16.196850779840307"><ele>278.0</ele><time>2026-05-01T16:55:09Z</time></trkpt><trkpt lat="47.8093572021879" lon="16.196968996621948"><ele>278.0</ele><time>2026-05-01T16:55:10Z</time></trkpt><trkpt lat="47.80916842454962" lon="16.19708510095781"><ele>278.0</ele><time>2026-05-01T16:55:11Z</time></trkpt><trkpt lat="47.8089784346294" lon="16.19719944063718"><ele>278.0</ele><time>2026-05-01T16:55:12Z</time></trkpt><trkpt lat="47.808787276633616" lon="16.19731156761683"><ele>278.0</ele><time>2026-05-01T16:55:13Z</time></trkpt><trkpt lat="47.80859524291818" lon="16.197423239870044"><ele>278.0</ele><time>2026-05-01T16:55:14Z</time></trkpt><trkpt lat="47.80840251642814" lon="16.197535139789807"><ele>279.0</ele><time>2026-05-01T16:55:15Z</time></trkpt><trkpt lat="47.808208490011054" lon="16.197647915503268"><ele>280.0</ele><time>2026-05-01T16:55:16Z</time></trkpt><trkpt lat="47.80801326403918" lon="16.19775974794416"><ele>281.0</ele><time>2026-05-01T16:55:17Z</time></trkpt><trkpt lat="47.80781730694401" lon="16.19787230832897"><ele>280.6666666666667</ele><time>2026-05-01T16:55:18Z</time></trkpt><trkpt lat="47.80762168656244" lon="16.197983051731182"><ele>280.3333333333333</ele><time>2026-05-01T16:55:19Z</time></trkpt><trkpt lat="47.807425073266444" lon="16.198093523193958"><ele>280.0</ele><time>2026-05-01T16:55:20Z</time></trkpt><trkpt lat="47.807228426055865" lon="16.19820197935678"><ele>280.0</ele><time>2026-05-01T16:55:21Z</time></trkpt><trkpt lat="47.80703509386366" lon="16.198307145238232"><ele>280.0</ele><time>2026-05-01T16:55:22Z</time></trkpt><trkpt lat="47.806846541296174" lon="16.19840632495214"><ele>280.0</ele><time>2026-05-01T16:55:23Z</time></trkpt><trkpt lat="47.8066558654331" lon="16.198510795816823"><ele>280.0</ele><time>2026-05-01T16:55:24Z</time></trkpt><trkpt lat="47.80646190536192" lon="16.198615326796638"><ele>280.0</ele><time>2026-05-01T16:55:25Z</time></trkpt><trkpt lat="47.80626533178264" lon="16.198718801454213"><ele>280.0</ele><time>2026-05-01T16:55:26Z</time></trkpt><trkpt lat="47.806066376902386" lon="16.198819156765925"><ele>280.3333333333333</ele><time>2026-05-01T16:55:27Z</time></trkpt><trkpt lat="47.80586589054578" lon="16.19892795370675"><ele>280.6666666666667</ele><time>2026-05-01T16:55:28.001Z</time></trkpt><trkpt lat="47.805662409146045" lon="16.199024525818523"><ele>281.0</ele><time>2026-05-01T16:55:29.001Z</time></trkpt><trkpt lat="47.80545818884093" lon="16.199128768134333"><ele>281.0</ele><time>2026-05-01T16:55:30.001Z</time></trkpt><trkpt lat="47.80525376631484" lon="16.199228830748044"><ele>281.0</ele><time>2026-05-01T16:55:31.001Z</time></trkpt><trkpt lat="47.80504842477225" lon="16.199330814727528"><ele>281.0</ele><time>2026-05-01T16:55:32.001Z</time></trkpt><trkpt lat="47.80484407661689" lon="16.1994252519921"><ele>281.33333333333337</ele><time>2026-05-01T16:55:33.001Z</time></trkpt><trkpt lat="47.804642850224326" lon="16.199520383162824"><ele>281.6666666666667</ele><time>2026-05-01T16:55:34.001Z</time></trkpt><trkpt lat="47.80444425314815" lon="16.199614360303794"><ele>282.0</ele><time>2026-05-01T16:55:35.001Z</time></trkpt><trkpt lat="47.80424802131744" lon="16.199707846295187"><ele>281.6666666666667</ele><time>2026-05-01T16:55:36.001Z</time></trkpt><trkpt lat="47.804050699608965" lon="16.199801803844892"><ele>281.33333333333337</ele><time>2026-05-01T16:55:37.001Z</time></trkpt><trkpt lat="47.8038521601711" lon="16.19989318114975"><ele>281.0</ele><time>2026-05-01T16:55:38.001Z</time></trkpt><trkpt lat="47.80365211314461" lon="16.1999824792896"><ele>280.6666666666667</ele><time>2026-05-01T16:55:39.001Z</time></trkpt><trkpt lat="47.803451999878654" lon="16.200071781811896"><ele>280.3333333333333</ele><time>2026-05-01T16:55:40.001Z</time></trkpt><trkpt lat="47.80325130981851" lon="16.200160314214493"><ele>280.0</ele><time>2026-05-01T16:55:41.001Z</time></trkpt><trkpt lat="47.803048785191194" lon="16.200247125955553"><ele>280.0</ele><time>2026-05-01T16:55:42.001Z</time></trkpt><trkpt lat="47.80284396445427" lon="16.200334619326103"><ele>280.0</ele><time>2026-05-01T16:55:43.001Z</time></trkpt><trkpt lat="47.80263884411" lon="16.20042120713786"><ele>280.0</ele><time>2026-05-01T16:55:44.001Z</time></trkpt><trkpt lat="47.802434189742215" lon="16.200506096793394"><ele>280.0</ele><time>2026-05-01T16:55:45.001Z</time></trkpt><trkpt lat="47.802229110007715" lon="16.20059077672592"><ele>280.0</ele><time>2026-05-01T16:55:46.001Z</time></trkpt><trkpt lat="47.802027307301074" lon="16.200673484258846"><ele>280.0</ele><time>2026-05-01T16:55:47.001Z</time></trkpt><trkpt lat="47.801834190204865" lon="16.200748390035386"><ele>280.66666666666663</ele><time>2026-05-01T16:55:48.001Z</time></trkpt><trkpt lat="47.801643640488145" lon="16.200819198494365"><ele>281.3333333333333</ele><time>2026-05-01T16:55:49.001Z</time></trkpt><trkpt lat="47.80145131268141" lon="16.2008967313158"><ele>282.0</ele><time>2026-05-01T16:55:50.001Z</time></trkpt><trkpt lat="47.80125809092604" lon="16.200970294979232"><ele>282.0</ele><time>2026-05-01T16:55:51.001Z</time></trkpt><trkpt lat="47.801066203496" lon="16.20103724248547"><ele>282.0</ele><time>2026-05-01T16:55:52.001Z</time></trkpt><trkpt lat="47.80087743240991" lon="16.20111251504488"><ele>282.0</ele><time>2026-05-01T16:55:53.001Z</time></trkpt><trkpt lat="47.8006902337963" lon="16.201183219277468"><ele>282.0</ele><time>2026-05-01T16:55:54.001Z</time></trkpt><trkpt lat="47.800501373984474" lon="16.201253974971888"><ele>282.0</ele><time>2026-05-01T16:55:55.001Z</time></trkpt><trkpt lat="47.80031381756409" lon="16.201323469329704"><ele>282.0</ele><time>2026-05-01T16:55:56.001Z</time></trkpt><trkpt lat="47.80012445021344" lon="16.201390343473935"><ele>282.0</ele><time>2026-05-01T16:55:57.001Z</time></trkpt><trkpt lat="47.79993484737491" lon="16.201457106541756"><ele>282.0</ele><time>2026-05-01T16:55:58.001Z</time></trkpt><trkpt lat="47.799746554504054" lon="16.20152352648997"><ele>282.0</ele><time>2026-05-01T16:55:59.001Z</time></trkpt><trkpt lat="47.799558689170404" lon="16.201587989004906"><ele>282.6666666666667</ele><time>2026-05-01T16:56:00.001Z</time></trkpt><trkpt lat="47.799370031121704" lon="16.201652256695642"><ele>283.33333333333337</ele><time>2026-05-01T16:56:01.001Z</time></trkpt><trkpt lat="47.7991824133063" lon="16.201715166318923"><ele>284.0</ele><time>2026-05-01T16:56:02.001Z</time></trkpt><trkpt lat="47.798994258359045" lon="16.201778013221787"><ele>284.33333333333337</ele><time>2026-05-01T16:56:03.001Z</time></trkpt><trkpt lat="47.79880663682131" lon="16.201839558731113"><ele>284.6666666666667</ele><time>2026-05-01T16:56:04.001Z</time></trkpt><trkpt lat="47.798616815086355" lon="16.20189894857388"><ele>285.0</ele><time>2026-05-01T16:56:05.001Z</time></trkpt><trkpt lat="47.798426428337834" lon="16.201958470828757"><ele>285.0</ele><time>2026-05-01T16:56:06.001Z</time></trkpt><trkpt lat="47.798236183537426" lon="16.202016107198627"><ele>285.0</ele><time>2026-05-01T16:56:07Z</time></trkpt><trkpt lat="47.79804552058816" lon="16.202075291657543"><ele>285.0</ele><time>2026-05-01T16:56:08Z</time></trkpt><trkpt lat="47.797855440792446" lon="16.202133662163973"><ele>283.6666666666667</ele><time>2026-05-01T16:56:09Z</time></trkpt><trkpt lat="47.79766686492973" lon="16.202189459680298"><ele>282.33333333333337</ele><time>2026-05-01T16:56:10Z</time></trkpt><trkpt lat="47.79747836988339" lon="16.202244633385526"><ele>281.0</ele><time>2026-05-01T16:56:11Z</time></trkpt><trkpt lat="47.7972894186831" lon="16.2022988877543"><ele>282.33333333333337</ele><time>2026-05-01T16:56:12Z</time></trkpt><trkpt lat="47.79710063944084" lon="16.202350304610537"><ele>283.6666666666667</ele><time>2026-05-01T16:56:13Z</time></trkpt><trkpt lat="47.79691013200323" lon="16.202401628905815"><ele>285.0</ele><time>2026-05-01T16:56:14Z</time></trkpt><trkpt lat="47.79671862341422" lon="16.2024541900289"><ele>285.0</ele><time>2026-05-01T16:56:15Z</time></trkpt><trkpt lat="47.79652634793325" lon="16.202506196011367"><ele>285.0</ele><time>2026-05-01T16:56:16Z</time></trkpt><trkpt lat="47.796333402608326" lon="16.202557626273904"><ele>285.0</ele><time>2026-05-01T16:56:17Z</time></trkpt><trkpt lat="47.79613989638841" lon="16.202606865970743"><ele>284.6666666666667</ele><time>2026-05-01T16:56:18Z</time></trkpt><trkpt lat="47.79594766570751" lon="16.202653238236117"><ele>284.33333333333337</ele><time>2026-05-01T16:56:19Z</time></trkpt><trkpt lat="47.79575359935343" lon="16.202702343127445"><ele>284.0</ele><time>2026-05-01T16:56:20Z</time></trkpt><trkpt lat="47.795560820493904" lon="16.202749591244668"><ele>284.0</ele><time>2026-05-01T16:56:21Z</time></trkpt><trkpt lat="47.795368765136494" lon="16.202794838289567"><ele>284.0</ele><time>2026-05-01T16:56:22Z</time></trkpt><trkpt lat="47.795176600649" lon="16.202839015517306"><ele>284.0</ele><time>2026-05-01T16:56:23Z</time></trkpt><trkpt lat="47.79498498788464" lon="16.202879849658828"><ele>284.33333333333337</ele><time>2026-05-01T16:56:24Z</time></trkpt><trkpt lat="47.79479332892635" lon="16.20292194224993"><ele>284.6666666666667</ele><time>2026-05-01T16:56:25Z</time></trkpt><trkpt lat="47.7946028827913" lon="16.202962956958363"><ele>285.0</ele><time>2026-05-01T16:56:26Z</time></trkpt><trkpt lat="47.79441307809075" lon="16.203005148203157"><ele>284.6666666666667</ele><time>2026-05-01T16:56:27Z</time></trkpt><trkpt lat="47.794223770905205" lon="16.203046300918345"><ele>284.33333333333337</ele><time>2026-05-01T16:56:28Z</time></trkpt><trkpt lat="47.794033805105066" lon="16.20308778389499"><ele>284.0</ele><time>2026-05-01T16:56:29Z</time></trkpt><trkpt lat="47.79384474092607" lon="16.203130110868486"><ele>284.6666666666667</ele><time>2026-05-01T16:56:30Z</time></trkpt><trkpt lat="47.79365475750703" lon="16.203175282276415"><ele>285.3333333333333</ele><time>2026-05-01T16:56:31Z</time></trkpt><trkpt lat="47.79346242323779" lon="16.20322087154122"><ele>286.0</ele><time>2026-05-01T16:56:32Z</time></trkpt><trkpt lat="47.79326805075205" lon="16.20326478968852"><ele>286.0</ele><time>2026-05-01T16:56:33Z</time></trkpt><trkpt lat="47.793071589964434" lon="16.203302654862203"><ele>286.0</ele><time>2026-05-01T16:56:34Z</time></trkpt><trkpt lat="47.79287455686349" lon="16.203336717740264"><ele>286.0</ele><time>2026-05-01T16:56:35Z</time></trkpt><trkpt lat="47.79267668050716" lon="16.203371198698655"><ele>285.66666666666663</ele><time>2026-05-01T16:56:36Z</time></trkpt><trkpt lat="47.79247930524269" lon="16.203404123151167"><ele>285.3333333333333</ele><time>2026-05-01T16:56:37Z</time></trkpt><trkpt lat="47.79228902421054" lon="16.203431742031476"><ele>285.0</ele><time>2026-05-01T16:56:38Z</time></trkpt><trkpt lat="47.79209928944894" lon="16.20345776874469"><ele>285.0</ele><time>2026-05-01T16:56:39Z</time></trkpt><trkpt lat="47.79190682976808" lon="16.203488633077832"><ele>285.0</ele><time>2026-05-01T16:56:40Z</time></trkpt><trkpt lat="47.79171305546424" lon="16.203519967430854"><ele>285.0</ele><time>2026-05-01T16:56:41Z</time></trkpt><trkpt lat="47.7915182691087" lon="16.203550148556527"><ele>284.6666666666667</ele><time>2026-05-01T16:56:42Z</time></trkpt><trkpt lat="47.791323473805434" lon="16.203578856824965"><ele>284.33333333333337</ele><time>2026-05-01T16:56:43Z</time></trkpt><trkpt lat="47.791127890743894" lon="16.20360617373933"><ele>284.0</ele><time>2026-05-01T16:56:44Z</time></trkpt><trkpt lat="47.79093297500084" lon="16.203633710260178"><ele>284.6666666666667</ele><time>2026-05-01T16:56:45Z</time></trkpt><trkpt lat="47.79073985159285" lon="16.203659989260107"><ele>285.3333333333333</ele><time>2026-05-01T16:56:46Z</time></trkpt><trkpt lat="47.79054771525811" lon="16.203684254356325"><ele>286.0</ele><time>2026-05-01T16:56:47Z</time></trkpt><trkpt lat="47.79035753536926" lon="16.203705680337176"><ele>285.3333333333333</ele><time>2026-05-01T16:56:48Z</time></trkpt><trkpt lat="47.7901666014455" lon="16.20372627632731"><ele>284.6666666666667</ele><time>2026-05-01T16:56:49Z</time></trkpt><trkpt lat="47.78997464914395" lon="16.203745373906823"><ele>284.0</ele><time>2026-05-01T16:56:50Z</time></trkpt><trkpt lat="47.78978115166719" lon="16.203764523923432"><ele>284.0</ele><time>2026-05-01T16:56:51Z</time></trkpt><trkpt lat="47.78958608296216" lon="16.203785204059333"><ele>284.0</ele><time>2026-05-01T16:56:52Z</time></trkpt><trkpt lat="47.78938776404525" lon="16.203804365419103"><ele>284.0</ele><time>2026-05-01T16:56:53Z</time></trkpt><trkpt lat="47.78918392791751" lon="16.20382415415782"><ele>284.33333333333337</ele><time>2026-05-01T16:56:54Z</time></trkpt><trkpt lat="47.788975706364695" lon="16.203842341092322"><ele>284.6666666666667</ele><time>2026-05-01T16:56:55Z</time></trkpt><trkpt lat="47.788763408366606" lon="16.20386214550224"><ele>285.0</ele><time>2026-05-01T16:56:56Z</time></trkpt><trkpt lat="47.788548561941866" lon="16.20388265274698"><ele>285.6666666666667</ele><time>2026-05-01T16:56:57Z</time></trkpt><trkpt lat="47.788333888103736" lon="16.203900665978033"><ele>286.33333333333337</ele><time>2026-05-01T16:56:58Z</time></trkpt><trkpt lat="47.7881215798785" lon="16.203916161721835"><ele>287.0</ele><time>2026-05-01T16:56:59Z</time></trkpt><trkpt lat="47.78791069324343" lon="16.203927931838887"><ele>287.0</ele><time>2026-05-01T16:57:00Z</time></trkpt><trkpt lat="47.78770068156728" lon="16.203938174834835"><ele>287.0</ele><time>2026-05-01T16:57:01Z</time></trkpt><trkpt lat="47.78749108444107" lon="16.203947249811858"><ele>287.0</ele><time>2026-05-01T16:57:02Z</time></trkpt><trkpt lat="47.78728294305174" lon="16.203955486877103"><ele>287.6666666666667</ele><time>2026-05-01T16:57:03Z</time></trkpt><trkpt lat="47.7870753608717" lon="16.20396499937032"><ele>288.3333333333333</ele><time>2026-05-01T16:57:04Z</time></trkpt><trkpt lat="47.786868605222296" lon="16.20397185215818"><ele>289.0</ele><time>2026-05-01T16:57:05Z</time></trkpt><trkpt lat="47.786662644005794" lon="16.203977985198552"><ele>289.0</ele><time>2026-05-01T16:57:06Z</time></trkpt><trkpt lat="47.78645656694676" lon="16.203982345905988"><ele>289.0</ele><time>2026-05-01T16:57:07Z</time></trkpt><trkpt lat="47.78625111805364" lon="16.203986304468273"><ele>289.0</ele><time>2026-05-01T16:57:08Z</time></trkpt><trkpt lat="47.78604593141466" lon="16.20399008832657"><ele>289.66666666666663</ele><time>2026-05-01T16:57:09Z</time></trkpt><trkpt lat="47.785840735358896" lon="16.203993889250015"><ele>290.3333333333333</ele><time>2026-05-01T16:57:10Z</time></trkpt><trkpt lat="47.785635430236226" lon="16.203996842333265"><ele>291.0</ele><time>2026-05-01T16:57:11Z</time></trkpt><trkpt lat="47.78543039642399" lon="16.204001557166006"><ele>291.0</ele><time>2026-05-01T16:57:12Z</time></trkpt><trkpt lat="47.78522503748305" lon="16.20400802046765"><ele>291.0</ele><time>2026-05-01T16:57:13Z</time></trkpt><trkpt lat="47.78501898453735" lon="16.204013475958906"><ele>291.0</ele><time>2026-05-01T16:57:14Z</time></trkpt><trkpt lat="47.78481489299952" lon="16.20401702893302"><ele>291.0</ele><time>2026-05-01T16:57:15Z</time></trkpt><trkpt lat="47.78461093469775" lon="16.204022069676302"><ele>291.0</ele><time>2026-05-01T16:57:16Z</time></trkpt><trkpt lat="47.784407373118526" lon="16.204027931672634"><ele>291.0</ele><time>2026-05-01T16:57:17Z</time></trkpt><trkpt lat="47.784204599727175" lon="16.204033558208693"><ele>291.3333333333333</ele><time>2026-05-01T16:57:18Z</time></trkpt><trkpt lat="47.784001661969754" lon="16.20403942564417"><ele>291.66666666666663</ele><time>2026-05-01T16:57:19Z</time></trkpt><trkpt lat="47.78379822705496" lon="16.204045366798404"><ele>292.0</ele><time>2026-05-01T16:57:20Z</time></trkpt><trkpt lat="47.7835945890083" lon="16.20405001323183"><ele>292.3333333333333</ele><time>2026-05-01T16:57:21Z</time></trkpt><trkpt lat="47.783389777808786" lon="16.204052510270603"><ele>292.6666666666667</ele><time>2026-05-01T16:57:22Z</time></trkpt><trkpt lat="47.783184094249805" lon="16.204058049391975"><ele>293.0</ele><time>2026-05-01T16:57:23Z</time></trkpt><trkpt lat="47.78297917205338" lon="16.204062882365147"><ele>293.0</ele><time>2026-05-01T16:57:24Z</time></trkpt><trkpt lat="47.782782128311055" lon="16.204066833363754"><ele>293.0</ele><time>2026-05-01T16:57:25Z</time></trkpt><trkpt lat="47.782583283061776" lon="16.2040707201393"><ele>293.0</ele><time>2026-05-01T16:57:26Z</time></trkpt><trkpt lat="47.7823836059916" lon="16.204074598119366"><ele>292.6666666666667</ele><time>2026-05-01T16:57:27Z</time></trkpt><trkpt lat="47.78218344650572" lon="16.204078663688612"><ele>292.3333333333333</ele><time>2026-05-01T16:57:28Z</time></trkpt><trkpt lat="47.781981306528785" lon="16.204082086416292"><ele>292.0</ele><time>2026-05-01T16:57:29Z</time></trkpt><trkpt lat="47.78177839787281" lon="16.20408664967082"><ele>292.0</ele><time>2026-05-01T16:57:30Z</time></trkpt><trkpt lat="47.78157382123768" lon="16.20409127267988"><ele>292.0</ele><time>2026-05-01T16:57:31Z</time></trkpt><trkpt lat="47.78136976566021" lon="16.20409612731596"><ele>292.0</ele><time>2026-05-01T16:57:32Z</time></trkpt><trkpt lat="47.781165056031114" lon="16.204101967440707"><ele>292.3333333333333</ele><time>2026-05-01T16:57:33Z</time></trkpt><trkpt lat="47.780961350171125" lon="16.20410842437144"><ele>292.6666666666667</ele><time>2026-05-01T16:57:34Z</time></trkpt><trkpt lat="47.78076146128513" lon="16.204113704217935"><ele>293.0</ele><time>2026-05-01T16:57:35Z</time></trkpt><trkpt lat="47.78056187436983" lon="16.20411838564202"><ele>293.0</ele><time>2026-05-01T16:57:36Z</time></trkpt><trkpt lat="47.780362598608875" lon="16.20412266963059"><ele>293.0</ele><time>2026-05-01T16:57:37Z</time></trkpt><trkpt lat="47.78016395792431" lon="16.20412643494503"><ele>293.0</ele><time>2026-05-01T16:57:38Z</time></trkpt><trkpt lat="47.77996630576636" lon="16.204130131653585"><ele>292.33333333333337</ele><time>2026-05-01T16:57:39Z</time></trkpt><trkpt lat="47.779769107431974" lon="16.204134209274656"><ele>291.6666666666667</ele><time>2026-05-01T16:57:40Z</time></trkpt><trkpt lat="47.77957084120428" lon="16.204138367714666"><ele>291.0</ele><time>2026-05-01T16:57:41Z</time></trkpt><trkpt lat="47.77937050368836" lon="16.204141983093816"><ele>291.6666666666667</ele><time>2026-05-01T16:57:42.001Z</time></trkpt><trkpt lat="47.77916945879003" lon="16.204146264550264"><ele>292.33333333333337</ele><time>2026-05-01T16:57:43.001Z</time></trkpt><trkpt lat="47.778966689849796" lon="16.20415088443405"><ele>293.0</ele><time>2026-05-01T16:57:44.001Z</time></trkpt><trkpt lat="47.77876262938382" lon="16.204155977432077"><ele>293.0</ele><time>2026-05-01T16:57:45.001Z</time></trkpt><trkpt lat="47.77855680176306" lon="16.204162028537272"><ele>293.0</ele><time>2026-05-01T16:57:46.001Z</time></trkpt><trkpt lat="47.77835073060827" lon="16.204168743653124"><ele>293.0</ele><time>2026-05-01T16:57:47.001Z</time></trkpt><trkpt lat="47.77814432010914" lon="16.20417483886566"><ele>293.0</ele><time>2026-05-01T16:57:48.001Z</time></trkpt><trkpt lat="47.77793692262451" lon="16.204180092112328"><ele>293.0</ele><time>2026-05-01T16:57:49.001Z</time></trkpt><trkpt lat="47.77772977543552" lon="16.204185158457705"><ele>293.0</ele><time>2026-05-01T16:57:50.001Z</time></trkpt><trkpt lat="47.777522476409054" lon="16.20419056587849"><ele>293.33333333333337</ele><time>2026-05-01T16:57:51.001Z</time></trkpt><trkpt lat="47.77731586381173" lon="16.20419611372615"><ele>293.6666666666667</ele><time>2026-05-01T16:57:52.001Z</time></trkpt><trkpt lat="47.77710809348291" lon="16.204202221318553"><ele>294.0</ele><time>2026-05-01T16:57:53.001Z</time></trkpt><trkpt lat="47.77690164527745" lon="16.204207927603303"><ele>294.6666666666667</ele><time>2026-05-01T16:57:54.001Z</time></trkpt><trkpt lat="47.77669601132643" lon="16.2042125384341"><ele>295.33333333333337</ele><time>2026-05-01T16:57:55.001Z</time></trkpt><trkpt lat="47.77649259679648" lon="16.204218076378456"><ele>296.0</ele><time>2026-05-01T16:57:56.001Z</time></trkpt><trkpt lat="47.776297711844265" lon="16.20422164964894"><ele>296.0</ele><time>2026-05-01T16:57:57.001Z</time></trkpt><trkpt lat="47.776103487544475" lon="16.204223300983735"><ele>296.0</ele><time>2026-05-01T16:57:58.001Z</time></trkpt><trkpt lat="47.77590934012763" lon="16.20422787791008"><ele>296.0</ele><time>2026-05-01T16:57:59.001Z</time></trkpt><trkpt lat="47.77571600119034" lon="16.204232949786856"><ele>295.6666666666667</ele><time>2026-05-01T16:58:00.001Z</time></trkpt><trkpt lat="47.77552437012604" lon="16.204238102163398"><ele>295.3333333333333</ele><time>2026-05-01T16:58:01.001Z</time></trkpt><trkpt lat="47.77533266606931" lon="16.20424153598115"><ele>295.0</ele><time>2026-05-01T16:58:02.001Z</time></trkpt><trkpt lat="47.7751413201527" lon="16.20424630808151"><ele>295.0</ele><time>2026-05-01T16:58:03.001Z</time></trkpt><trkpt lat="47.774950732033" lon="16.20425111258663"><ele>295.0</ele><time>2026-05-01T16:58:04.001Z</time></trkpt><trkpt lat="47.77476019365443" lon="16.20425661349591"><ele>295.0</ele><time>2026-05-01T16:58:05.001Z</time></trkpt><trkpt lat="47.774570064605506" lon="16.204260157395215"><ele>295.0</ele><time>2026-05-01T16:58:06.001Z</time></trkpt><trkpt lat="47.7743796777055" lon="16.2042645395096"><ele>295.0</ele><time>2026-05-01T16:58:07.001Z</time></trkpt><trkpt lat="47.77418960691983" lon="16.20426818782812"><ele>295.0</ele><time>2026-05-01T16:58:08.001Z</time></trkpt><trkpt lat="47.77400003157263" lon="16.20427087601199"><ele>295.3333333333333</ele><time>2026-05-01T16:58:09.001Z</time></trkpt><trkpt lat="47.773809839948946" lon="16.204273217745968"><ele>295.6666666666667</ele><time>2026-05-01T16:58:10.001Z</time></trkpt><trkpt lat="47.77362027459769" lon="16.204276322870545"><ele>296.0</ele><time>2026-05-01T16:58:11.001Z</time></trkpt><trkpt lat="47.77343011546991" lon="16.20428253645102"><ele>295.33333333333337</ele><time>2026-05-01T16:58:12.001Z</time></trkpt><trkpt lat="47.77324026604724" lon="16.204288466749123"><ele>294.6666666666667</ele><time>2026-05-01T16:58:13Z</time></trkpt><trkpt lat="47.77305012325958" lon="16.20429231582803"><ele>294.0</ele><time>2026-05-01T16:58:14Z</time></trkpt><trkpt lat="47.77286011673685" lon="16.204296397197837"><ele>294.6666666666667</ele><time>2026-05-01T16:58:15Z</time></trkpt><trkpt lat="47.772670417063736" lon="16.204297014005462"><ele>295.33333333333337</ele><time>2026-05-01T16:58:16Z</time></trkpt><trkpt lat="47.77248049939193" lon="16.204293835531068"><ele>296.0</ele><time>2026-05-01T16:58:17Z</time></trkpt><trkpt lat="47.77229141119319" lon="16.204290581298885"><ele>296.0</ele><time>2026-05-01T16:58:18Z</time></trkpt><trkpt lat="47.77210145689683" lon="16.20428723958245"><ele>296.0</ele><time>2026-05-01T16:58:19Z</time></trkpt><trkpt lat="47.77191197157178" lon="16.204282109883966"><ele>296.0</ele><time>2026-05-01T16:58:20Z</time></trkpt><trkpt lat="47.77172342355275" lon="16.204278633972965"><ele>297.0</ele><time>2026-05-01T16:58:21Z</time></trkpt><trkpt lat="47.771535203914326" lon="16.204273520537544"><ele>298.0</ele><time>2026-05-01T16:58:22Z</time></trkpt><trkpt lat="47.771346913858736" lon="16.20426596229477"><ele>299.0</ele><time>2026-05-01T16:58:23Z</time></trkpt><trkpt lat="47.771158774490935" lon="16.2042564721095"><ele>298.6666666666667</ele><time>2026-05-01T16:58:24Z</time></trkpt><trkpt lat="47.77097151479576" lon="16.20424580917939"><ele>298.3333333333333</ele><time>2026-05-01T16:58:25Z</time></trkpt><trkpt lat="47.770784473963694" lon="16.204233892317987"><ele>298.0</ele><time>2026-05-01T16:58:26Z</time></trkpt><trkpt lat="47.770598011953886" lon="16.204221484142835"><ele>298.0</ele><time>2026-05-01T16:58:27Z</time></trkpt><trkpt lat="47.77041220077854" lon="16.204205559161302"><ele>298.0</ele><time>2026-05-01T16:58:28Z</time></trkpt><trkpt lat="47.7702271576245" lon="16.204189258579863"><ele>298.0</ele><time>2026-05-01T16:58:29Z</time></trkpt><trkpt lat="47.77004091138933" lon="16.20417062389395"><ele>298.66666666666663</ele><time>2026-05-01T16:58:30Z</time></trkpt><trkpt lat="47.76985510768377" lon="16.204154468924855"><ele>299.3333333333333</ele><time>2026-05-01T16:58:31Z</time></trkpt><trkpt lat="47.769670714391225" lon="16.20413500427676"><ele>300.0</ele><time>2026-05-01T16:58:32Z</time></trkpt><trkpt lat="47.76948839508652" lon="16.20411424839201"><ele>300.0</ele><time>2026-05-01T16:58:33Z</time></trkpt><trkpt lat="47.7693067190954" lon="16.20409120090072"><ele>300.0</ele><time>2026-05-01T16:58:34Z</time></trkpt><trkpt lat="47.769126484187154" lon="16.20406367852775"><ele>300.0</ele><time>2026-05-01T16:58:35Z</time></trkpt><trkpt lat="47.76894641239262" lon="16.204036344733304"><ele>300.0</ele><time>2026-05-01T16:58:36Z</time></trkpt><trkpt lat="47.76876333502162" lon="16.204007781046037"><ele>300.0</ele><time>2026-05-01T16:58:37Z</time></trkpt><trkpt lat="47.76857846999353" lon="16.20397931314692"><ele>300.0</ele><time>2026-05-01T16:58:38Z</time></trkpt><trkpt lat="47.76839337504157" lon="16.20394992183389"><ele>302.0</ele><time>2026-05-01T16:58:39Z</time></trkpt><trkpt lat="47.768208839285805" lon="16.203919207864704"><ele>304.0</ele><time>2026-05-01T16:58:40Z</time></trkpt><trkpt lat="47.76803137193131" lon="16.203885899164995"><ele>306.0</ele><time>2026-05-01T16:58:41Z</time></trkpt><trkpt lat="47.76785277029488" lon="16.203849745172505"><ele>306.0</ele><time>2026-05-01T16:58:42Z</time></trkpt><trkpt lat="47.76767200618353" lon="16.20381091109502"><ele>306.0</ele><time>2026-05-01T16:58:43Z</time></trkpt><trkpt lat="47.7674891422637" lon="16.203771597220708"><ele>306.0</ele><time>2026-05-01T16:58:44Z</time></trkpt><trkpt lat="47.76730528509074" lon="16.20373194322182"><ele>306.0</ele><time>2026-05-01T16:58:45Z</time></trkpt><trkpt lat="47.76712106126054" lon="16.20369003935576"><ele>306.0</ele><time>2026-05-01T16:58:46Z</time></trkpt><trkpt lat="47.76693712672721" lon="16.203645953267298"><ele>306.0</ele><time>2026-05-01T16:58:47Z</time></trkpt><trkpt lat="47.766754901583056" lon="16.20359752696177"><ele>305.3333333333333</ele><time>2026-05-01T16:58:48Z</time></trkpt><trkpt lat="47.76657405132537" lon="16.20355369552452"><ele>304.66666666666663</ele><time>2026-05-01T16:58:49Z</time></trkpt><trkpt lat="47.76639485812973" lon="16.20350668242986"><ele>304.0</ele><time>2026-05-01T16:58:50Z</time></trkpt><trkpt lat="47.766216314388814" lon="16.203457418518067"><ele>304.0</ele><time>2026-05-01T16:58:51Z</time></trkpt><trkpt lat="47.766037837791906" lon="16.203405996951403"><ele>304.0</ele><time>2026-05-01T16:58:52Z</time></trkpt><trkpt lat="47.76585854048454" lon="16.20335226131899"><ele>304.0</ele><time>2026-05-01T16:58:53Z</time></trkpt><trkpt lat="47.7656813743054" lon="16.203299688236605"><ele>304.0</ele><time>2026-05-01T16:58:54Z</time></trkpt><trkpt lat="47.76550336394861" lon="16.203246152509035"><ele>304.0</ele><time>2026-05-01T16:58:55Z</time></trkpt><trkpt lat="47.765325711542886" lon="16.20319036729047"><ele>304.0</ele><time>2026-05-01T16:58:56Z</time></trkpt><trkpt lat="47.76514751303227" lon="16.20313311365303"><ele>305.0</ele><time>2026-05-01T16:58:57Z</time></trkpt><trkpt lat="47.764969111223415" lon="16.203074718802494"><ele>306.0</ele><time>2026-05-01T16:58:58Z</time></trkpt><trkpt lat="47.7647900935438" lon="16.203012917075558"><ele>307.0</ele><time>2026-05-01T16:58:59Z</time></trkpt><trkpt lat="47.76461044104445" lon="16.202950191815507"><ele>307.0</ele><time>2026-05-01T16:59:00Z</time></trkpt><trkpt lat="47.764430389137736" lon="16.202885369680732"><ele>307.0</ele><time>2026-05-01T16:59:01Z</time></trkpt><trkpt lat="47.7642503336422" lon="16.20281787738556"><ele>307.0</ele><time>2026-05-01T16:59:02Z</time></trkpt><trkpt lat="47.764069005724075" lon="16.20274783382624"><ele>307.0</ele><time>2026-05-01T16:59:03Z</time></trkpt><trkpt lat="47.763887508065395" lon="16.202675901185803"><ele>307.0</ele><time>2026-05-01T16:59:04Z</time></trkpt><trkpt lat="47.76370593311356" lon="16.202602568001293"><ele>307.0</ele><time>2026-05-01T16:59:05Z</time></trkpt><trkpt lat="47.76352304907551" lon="16.202527592203758"><ele>306.66666666666663</ele><time>2026-05-01T16:59:06Z</time></trkpt><trkpt lat="47.76333971743342" lon="16.202450518762472"><ele>306.3333333333333</ele><time>2026-05-01T16:59:07Z</time></trkpt><trkpt lat="47.76315602876372" lon="16.202371332109642"><ele>306.0</ele><time>2026-05-01T16:59:08Z</time></trkpt><trkpt lat="47.76297252925353" lon="16.202289244139116"><ele>307.3333333333333</ele><time>2026-05-01T16:59:09Z</time></trkpt><trkpt lat="47.76278925750496" lon="16.202205631870147"><ele>308.66666666666663</ele><time>2026-05-01T16:59:10Z</time></trkpt><trkpt lat="47.76260559011575" lon="16.20212041148295"><ele>310.0</ele><time>2026-05-01T16:59:11Z</time></trkpt><trkpt lat="47.76242286036351" lon="16.202032733890295"><ele>310.0</ele><time>2026-05-01T16:59:12Z</time></trkpt><trkpt lat="47.76224162269211" lon="16.201945365095487"><ele>310.0</ele><time>2026-05-01T16:59:13Z</time></trkpt><trkpt lat="47.76206286319553" lon="16.20185655697796"><ele>310.0</ele><time>2026-05-01T16:59:14Z</time></trkpt><trkpt lat="47.76188693798156" lon="16.201767888471444"><ele>309.3333333333333</ele><time>2026-05-01T16:59:15Z</time></trkpt><trkpt lat="47.76171893493604" lon="16.201681097622185"><ele>308.6666666666667</ele><time>2026-05-01T16:59:16Z</time></trkpt><trkpt lat="47.76154970131812" lon="16.201592281708322"><ele>308.0</ele><time>2026-05-01T16:59:17Z</time></trkpt><trkpt lat="47.761379841127955" lon="16.20150169394289"><ele>308.33333333333337</ele><time>2026-05-01T16:59:18Z</time></trkpt><trkpt lat="47.76120914564078" lon="16.20140802781969"><ele>308.6666666666667</ele><time>2026-05-01T16:59:19Z</time></trkpt><trkpt lat="47.76103944906269" lon="16.201312932497135"><ele>309.0</ele><time>2026-05-01T16:59:20Z</time></trkpt><trkpt lat="47.76087107529321" lon="16.201216310282636"><ele>309.0</ele><time>2026-05-01T16:59:21Z</time></trkpt><trkpt lat="47.76070203453925" lon="16.20112024721074"><ele>309.0</ele><time>2026-05-01T16:59:22Z</time></trkpt><trkpt lat="47.760533610334456" lon="16.201024137436182"><ele>309.0</ele><time>2026-05-01T16:59:23Z</time></trkpt><trkpt lat="47.76036651249931" lon="16.200925460623463"><ele>308.6666666666667</ele><time>2026-05-01T16:59:24Z</time></trkpt><trkpt lat="47.76019965582645" lon="16.200822957877886"><ele>308.33333333333337</ele><time>2026-05-01T16:59:25Z</time></trkpt><trkpt lat="47.76003135371519" lon="16.2007203382823"><ele>308.0</ele><time>2026-05-01T16:59:26Z</time></trkpt><trkpt lat="47.759862200084704" lon="16.200617285026862"><ele>308.33333333333337</ele><time>2026-05-01T16:59:27Z</time></trkpt><trkpt lat="47.75969235183813" lon="16.20050967044251"><ele>308.6666666666667</ele><time>2026-05-01T16:59:28Z</time></trkpt><trkpt lat="47.75952177528059" lon="16.200400497739036"><ele>309.0</ele><time>2026-05-01T16:59:29Z</time></trkpt><trkpt lat="47.75935018756493" lon="16.20028925002554"><ele>309.0</ele><time>2026-05-01T16:59:30Z</time></trkpt><trkpt lat="47.75917780575644" lon="16.20017684815911"><ele>309.0</ele><time>2026-05-01T16:59:31Z</time></trkpt><trkpt lat="47.759005368557375" lon="16.200062009318998"><ele>309.0</ele><time>2026-05-01T16:59:32Z</time></trkpt><trkpt lat="47.758832349254455" lon="16.199945864865395"><ele>310.0</ele><time>2026-05-01T16:59:33Z</time></trkpt><trkpt lat="47.75865922452591" lon="16.19982659986491"><ele>311.0</ele><time>2026-05-01T16:59:34Z</time></trkpt><trkpt lat="47.758486987751404" lon="16.199704401156403"><ele>312.0</ele><time>2026-05-01T16:59:35Z</time></trkpt><trkpt lat="47.758314204101936" lon="16.199579509989587"><ele>312.0</ele><time>2026-05-01T16:59:36Z</time></trkpt><trkpt lat="47.758137848353584" lon="16.199450187775007"><ele>312.0</ele><time>2026-05-01T16:59:37Z</time></trkpt><trkpt lat="47.75795436665662" lon="16.199316723720482"><ele>312.0</ele><time>2026-05-01T16:59:38Z</time></trkpt><trkpt lat="47.75775911990394" lon="16.19917620852312"><ele>312.0</ele><time>2026-05-01T16:59:39Z</time></trkpt><trkpt lat="47.75754486290419" lon="16.19902706433701"><ele>312.0</ele><time>2026-05-01T16:59:40Z</time></trkpt><trkpt lat="47.757316180179615" lon="16.198880155522648"><ele>312.0</ele><time>2026-05-01T16:59:41Z</time></trkpt><trkpt lat="47.757086623813436" lon="16.198688322498228"><ele>312.0</ele><time>2026-05-01T16:59:42Z</time></trkpt><trkpt lat="47.75684233829704" lon="16.19850098783034"><ele>311.5</ele><time>2026-05-01T16:59:43Z</time></trkpt><trkpt lat="47.7565957294498" lon="16.198294777536027"><ele>311.0</ele><time>2026-05-01T16:59:44Z</time></trkpt><trkpt lat="47.7563473756316" lon="16.19807219775808"><ele>312.0</ele><time>2026-05-01T16:59:45Z</time></trkpt><trkpt lat="47.756094511294584" lon="16.197843257194897"><ele>313.0</ele><time>2026-05-01T16:59:46Z</time></trkpt><trkpt lat="47.7558374733539" lon="16.19761157641402"><ele>313.0</ele><time>2026-05-01T16:59:47Z</time></trkpt><trkpt lat="47.75558539628946" lon="16.19738008206688"><ele>313.0</ele><time>2026-05-01T16:59:48Z</time></trkpt><trkpt lat="47.75534543649298" lon="16.197156890642216"><ele>313.0</ele><time>2026-05-01T16:59:49Z</time></trkpt><trkpt lat="47.7550966867328" lon="16.196924651460538"><ele>313.0</ele><time>2026-05-01T16:59:50Z</time></trkpt><trkpt lat="47.75484274249468" lon="16.196682867048946"><ele>313.0</ele><time>2026-05-01T16:59:51Z</time></trkpt><trkpt lat="47.754587019124436" lon="16.196432270005502"><ele>313.0</ele><time>2026-05-01T16:59:52Z</time></trkpt><trkpt lat="47.754330577337235" lon="16.196176595363845"><ele>313.0</ele><time>2026-05-01T16:59:53Z</time></trkpt><trkpt lat="47.75407455939912" lon="16.19591711345029"><ele>313.0</ele><time>2026-05-01T16:59:54Z</time></trkpt><trkpt lat="47.75382100923684" lon="16.195650573530994"><ele>313.0</ele><time>2026-05-01T16:59:55Z</time></trkpt><trkpt lat="47.75356811001005" lon="16.195380320299464"><ele>313.0</ele><time>2026-05-01T16:59:56Z</time></trkpt><trkpt lat="47.75331849664469" lon="16.195107148205256"><ele>314.0</ele><time>2026-05-01T16:59:57Z</time></trkpt><trkpt lat="47.75307052799017" lon="16.19483146241336"><ele>315.0</ele><time>2026-05-01T16:59:58Z</time></trkpt><trkpt lat="47.752823057418354" lon="16.194554552215614"><ele>314.5</ele><time>2026-05-01T16:59:59.001Z</time></trkpt><trkpt lat="47.752580519900675" lon="16.19427251583017"><ele>314.0</ele><time>2026-05-01T17:00:00.001Z</time></trkpt><trkpt lat="47.75234525537661" lon="16.193981293174662"><ele>315.5</ele><time>2026-05-01T17:00:01.001Z</time></trkpt><trkpt lat="47.752116851118615" lon="16.193682782884608"><ele>317.0</ele><time>2026-05-01T17:00:02.001Z</time></trkpt><trkpt lat="47.75189022284002" lon="16.19337988706836"><ele>316.5</ele><time>2026-05-01T17:00:03.001Z</time></trkpt><trkpt lat="47.751662487398384" lon="16.19307657558782"><ele>316.0</ele><time>2026-05-01T17:00:04.001Z</time></trkpt><trkpt lat="47.75143199637398" lon="16.192774995431705"><ele>316.0</ele><time>2026-05-01T17:00:05.001Z</time></trkpt><trkpt lat="47.751203228070835" lon="16.19247274273548"><ele>316.0</ele><time>2026-05-01T17:00:06.001Z</time></trkpt><trkpt lat="47.750974547706576" lon="16.1921707818471"><ele>316.0</ele><time>2026-05-01T17:00:07.001Z</time></trkpt><trkpt lat="47.75074950603188" lon="16.191865091431712"><ele>316.0</ele><time>2026-05-01T17:00:08.001Z</time></trkpt><trkpt lat="47.750527646242155" lon="16.191556266036446"><ele>315.0</ele><time>2026-05-01T17:00:09.001Z</time></trkpt><trkpt lat="47.750307807887445" lon="16.19124740219736"><ele>314.0</ele><time>2026-05-01T17:00:10.001Z</time></trkpt><trkpt lat="47.7500903108058" lon="16.19093651278917"><ele>313.5</ele><time>2026-05-01T17:00:11.001Z</time></trkpt><trkpt lat="47.7498756801323" lon="16.190623769777464"><ele>313.0</ele><time>2026-05-01T17:00:12.001Z</time></trkpt><trkpt lat="47.74966504171782" lon="16.19030734603812"><ele>313.0</ele><time>2026-05-01T17:00:13.001Z</time></trkpt><trkpt lat="47.74945641136877" lon="16.18998648233736"><ele>313.0</ele><time>2026-05-01T17:00:14.001Z</time></trkpt><trkpt lat="47.749249452256656" lon="16.189661320371624"><ele>313.0</ele><time>2026-05-01T17:00:15.001Z</time></trkpt><trkpt lat="47.74904531861169" lon="16.1893336712689"><ele>313.0</ele><time>2026-05-01T17:00:16.001Z</time></trkpt><trkpt lat="47.748842614473524" lon="16.18900297101366"><ele>313.5</ele><time>2026-05-01T17:00:17.001Z</time></trkpt><trkpt lat="47.74864053435323" lon="16.188671249856107"><ele>314.0</ele><time>2026-05-01T17:00:18.001Z</time></trkpt><trkpt lat="47.74844025375373" lon="16.188337581261877"><ele>315.5</ele><time>2026-05-01T17:00:19Z</time></trkpt><trkpt lat="47.74824228652677" lon="16.188001558664237"><ele>317.0</ele><time>2026-05-01T17:00:20Z</time></trkpt><trkpt lat="47.74804752618209" lon="16.187662891571375"><ele>316.5</ele><time>2026-05-01T17:00:21Z</time></trkpt><trkpt lat="47.747853384560806" lon="16.187321711666215"><ele>316.0</ele><time>2026-05-01T17:00:22Z</time></trkpt><trkpt lat="47.74766072554758" lon="16.18697894336025"><ele>316.0</ele><time>2026-05-01T17:00:23Z</time></trkpt><trkpt lat="47.74746734724995" lon="16.186636452047253"><ele>316.0</ele><time>2026-05-01T17:00:24Z</time></trkpt><trkpt lat="47.747276298816104" lon="16.186292035031325"><ele>316.0</ele><time>2026-05-01T17:00:25Z</time></trkpt><trkpt lat="47.747085415200594" lon="16.185944355314216"><ele>316.0</ele><time>2026-05-01T17:00:26Z</time></trkpt><trkpt lat="47.74689787987042" lon="16.18559501761017"><ele>316.0</ele><time>2026-05-01T17:00:27Z</time></trkpt><trkpt lat="47.74671102896785" lon="16.185244542592507"><ele>316.0</ele><time>2026-05-01T17:00:28Z</time></trkpt><trkpt lat="47.74652411027067" lon="16.18489477436175"><ele>316.0</ele><time>2026-05-01T17:00:29Z</time></trkpt><trkpt lat="47.74633621012265" lon="16.18454635176126"><ele>316.0</ele><time>2026-05-01T17:00:30Z</time></trkpt><trkpt lat="47.74614893451678" lon="16.18419782209247"><ele>317.0</ele><time>2026-05-01T17:00:31Z</time></trkpt><trkpt lat="47.74596342165555" lon="16.183848691021076"><ele>318.0</ele><time>2026-05-01T17:00:32Z</time></trkpt><trkpt lat="47.745777409142796" lon="16.18349978875362"><ele>318.0</ele><time>2026-05-01T17:00:33Z</time></trkpt><trkpt lat="47.745591984939075" lon="16.183150885414648"><ele>318.0</ele><time>2026-05-01T17:00:34Z</time></trkpt><trkpt lat="47.745407611610815" lon="16.18280202714789"><ele>318.0</ele><time>2026-05-01T17:00:35Z</time></trkpt><trkpt lat="47.74522341022311" lon="16.182453294828473"><ele>318.0</ele><time>2026-05-01T17:00:36Z</time></trkpt><trkpt lat="47.74503912078539" lon="16.18210442236935"><ele>318.0</ele><time>2026-05-01T17:00:37Z</time></trkpt><trkpt lat="47.744854628803594" lon="16.181756442850602"><ele>318.0</ele><time>2026-05-01T17:00:38Z</time></trkpt><trkpt lat="47.74466920790539" lon="16.18141129509006"><ele>318.0</ele><time>2026-05-01T17:00:39Z</time></trkpt><trkpt lat="47.74448276881109" lon="16.181066592173917"><ele>318.0</ele><time>2026-05-01T17:00:40Z</time></trkpt><trkpt lat="47.74429750981459" lon="16.180720542343888"><ele>318.5</ele><time>2026-05-01T17:00:41Z</time></trkpt><trkpt lat="47.74411366369802" lon="16.180372877869107"><ele>319.0</ele><time>2026-05-01T17:00:42Z</time></trkpt><trkpt lat="47.743929936167845" lon="16.180023822380317"><ele>319.0</ele><time>2026-05-01T17:00:43Z</time></trkpt><trkpt lat="47.74374605380789" lon="16.179674035727256"><ele>319.0</ele><time>2026-05-01T17:00:44Z</time></trkpt><trkpt lat="47.74356136992606" lon="16.17932402407956"><ele>320.0</ele><time>2026-05-01T17:00:45Z</time></trkpt><trkpt lat="47.74337599927174" lon="16.17897411600726"><ele>321.0</ele><time>2026-05-01T17:00:46Z</time></trkpt><trkpt lat="47.74319008369363" lon="16.178625372553473"><ele>321.0</ele><time>2026-05-01T17:00:47Z</time></trkpt><trkpt lat="47.74300396565691" lon="16.17827650741952"><ele>321.0</ele><time>2026-05-01T17:00:48Z</time></trkpt><trkpt lat="47.74281928209612" lon="16.177928195709235"><ele>321.5</ele><time>2026-05-01T17:00:49Z</time></trkpt><trkpt lat="47.74263707242997" lon="16.177583405679318"><ele>322.0</ele><time>2026-05-01T17:00:50Z</time></trkpt><trkpt lat="47.742462102121266" lon="16.177254434528905"><ele>322.0</ele><time>2026-05-01T17:00:51Z</time></trkpt><trkpt lat="47.74227963254499" lon="16.176913459096404"><ele>322.0</ele><time>2026-05-01T17:00:52Z</time></trkpt><trkpt lat="47.742096212278554" lon="16.176571056743132"><ele>322.5</ele><time>2026-05-01T17:00:53Z</time></trkpt><trkpt lat="47.741913683484114" lon="16.176227494740836"><ele>323.0</ele><time>2026-05-01T17:00:54Z</time></trkpt><trkpt lat="47.741731818416575" lon="16.1758826487479"><ele>323.5</ele><time>2026-05-01T17:00:55Z</time></trkpt><trkpt lat="47.741548199698016" lon="16.175540484745255"><ele>324.0</ele><time>2026-05-01T17:00:56Z</time></trkpt><trkpt lat="47.74136671477861" lon="16.17519896595053"><ele>324.0</ele><time>2026-05-01T17:00:57Z</time></trkpt><trkpt lat="47.741185278742385" lon="16.174859353953888"><ele>324.0</ele><time>2026-05-01T17:00:58Z</time></trkpt><trkpt lat="47.74100447138001" lon="16.17452055851118"><ele>323.5</ele><time>2026-05-01T17:00:59Z</time></trkpt><trkpt lat="47.74082293154711" lon="16.17418041522433"><ele>323.0</ele><time>2026-05-01T17:01:00Z</time></trkpt><trkpt lat="47.74064270596564" lon="16.173839012729314"><ele>323.0</ele><time>2026-05-01T17:01:01Z</time></trkpt><trkpt lat="47.74046235153905" lon="16.17349770119365"><ele>323.0</ele><time>2026-05-01T17:01:02Z</time></trkpt><trkpt lat="47.740282456345234" lon="16.173158314853154"><ele>323.0</ele><time>2026-05-01T17:01:03Z</time></trkpt><trkpt lat="47.74010168127573" lon="16.172817606034595"><ele>323.0</ele><time>2026-05-01T17:01:04Z</time></trkpt><trkpt lat="47.73992037620814" lon="16.172477269757483"><ele>323.0</ele><time>2026-05-01T17:01:05Z</time></trkpt><trkpt lat="47.739739118924746" lon="16.172134830148945"><ele>323.0</ele><time>2026-05-01T17:01:06Z</time></trkpt><trkpt lat="47.739557315860445" lon="16.17179408576111"><ele>323.0</ele><time>2026-05-01T17:01:07Z</time></trkpt><trkpt lat="47.73937637432529" lon="16.171451754523073"><ele>323.0</ele><time>2026-05-01T17:01:08Z</time></trkpt><trkpt lat="47.73919500331629" lon="16.171109687338976"><ele>323.0</ele><time>2026-05-01T17:01:09Z</time></trkpt><trkpt lat="47.73901338556054" lon="16.17076891173396"><ele>323.0</ele><time>2026-05-01T17:01:10Z</time></trkpt><trkpt lat="47.7388310040449" lon="16.17042981150149"><ele>323.5</ele><time>2026-05-01T17:01:11Z</time></trkpt><trkpt lat="47.73865003844035" lon="16.17009224752355"><ele>324.0</ele><time>2026-05-01T17:01:12Z</time></trkpt><trkpt lat="47.738468067253706" lon="16.169754107991103"><ele>325.0</ele><time>2026-05-01T17:01:13Z</time></trkpt><trkpt lat="47.73828615060365" lon="16.16941534936489"><ele>326.0</ele><time>2026-05-01T17:01:14Z</time></trkpt><trkpt lat="47.73810341583162" lon="16.169074714995546"><ele>326.5</ele><time>2026-05-01T17:01:15Z</time></trkpt><trkpt lat="47.737921943398895" lon="16.16873142418299"><ele>327.0</ele><time>2026-05-01T17:01:16Z</time></trkpt><trkpt lat="47.7377406384329" lon="16.16838679388082"><ele>328.5</ele><time>2026-05-01T17:01:17Z</time></trkpt><trkpt lat="47.73755852233728" lon="16.16804345873023"><ele>330.0</ele><time>2026-05-01T17:01:18Z</time></trkpt><trkpt lat="47.73737641182178" lon="16.16770159359144"><ele>329.0</ele><time>2026-05-01T17:01:19Z</time></trkpt><trkpt lat="47.73719444390961" lon="16.167357594567495"><ele>328.0</ele><time>2026-05-01T17:01:20Z</time></trkpt><trkpt lat="47.737012085119" lon="16.167017810470814"><ele>328.5</ele><time>2026-05-01T17:01:21Z</time></trkpt><trkpt lat="47.736830238765656" lon="16.166675718236334"><ele>329.0</ele><time>2026-05-01T17:01:22Z</time></trkpt><trkpt lat="47.736651294041515" lon="16.166333652487577"><ele>329.0</ele><time>2026-05-01T17:01:23Z</time></trkpt><trkpt lat="47.736472565073115" lon="16.16599158077523"><ele>329.0</ele><time>2026-05-01T17:01:24Z</time></trkpt><trkpt lat="47.736294403913575" lon="16.165650473842316"><ele>328.5</ele><time>2026-05-01T17:01:25Z</time></trkpt><trkpt lat="47.73611563607093" lon="16.16531064078009"><ele>328.0</ele><time>2026-05-01T17:01:26Z</time></trkpt><trkpt lat="47.73593612331855" lon="16.164972748205056"><ele>328.5</ele><time>2026-05-01T17:01:27Z</time></trkpt><trkpt lat="47.73575647593937" lon="16.164635073041563"><ele>329.0</ele><time>2026-05-01T17:01:28Z</time></trkpt><trkpt lat="47.735576587157645" lon="16.164296795556446"><ele>328.5</ele><time>2026-05-01T17:01:29Z</time></trkpt><trkpt lat="47.73539705852723" lon="16.163958043954093"><ele>328.0</ele><time>2026-05-01T17:01:30Z</time></trkpt><trkpt lat="47.735216891232724" lon="16.16361934371683"><ele>328.0</ele><time>2026-05-01T17:01:31Z</time></trkpt><trkpt lat="47.73503692068531" lon="16.16328364120952"><ele>328.0</ele><time>2026-05-01T17:01:32Z</time></trkpt><trkpt lat="47.73486275144452" lon="16.162957711712128"><ele>328.0</ele><time>2026-05-01T17:01:33Z</time></trkpt><trkpt lat="47.734697336141686" lon="16.16264235340956"><ele>328.0</ele><time>2026-05-01T17:01:34Z</time></trkpt><trkpt lat="47.73452966015903" lon="16.16232283082278"><ele>329.0</ele><time>2026-05-01T17:01:35Z</time></trkpt><trkpt lat="47.73435855710091" lon="16.16200235464808"><ele>330.0</ele><time>2026-05-01T17:01:36Z</time></trkpt><trkpt lat="47.73418603656973" lon="16.16168067211102"><ele>330.0</ele><time>2026-05-01T17:01:37Z</time></trkpt><trkpt lat="47.73401479789848" lon="16.161358512757804"><ele>330.0</ele><time>2026-05-01T17:01:38Z</time></trkpt><trkpt lat="47.7338462052052" lon="16.1610399759062"><ele>330.0</ele><time>2026-05-01T17:01:39Z</time></trkpt><trkpt lat="47.73368112610211" lon="16.16072788752196"><ele>330.0</ele><time>2026-05-01T17:01:40Z</time></trkpt><trkpt lat="47.7335188899924" lon="16.160419906061552"><ele>331.0</ele><time>2026-05-01T17:01:41Z</time></trkpt><trkpt lat="47.733356997311276" lon="16.160117694279744"><ele>332.0</ele><time>2026-05-01T17:01:42Z</time></trkpt><trkpt lat="47.73319672404972" lon="16.159817025224136"><ele>332.0</ele><time>2026-05-01T17:01:43Z</time></trkpt><trkpt lat="47.7330375039569" lon="16.159518548817243"><ele>332.0</ele><time>2026-05-01T17:01:44Z</time></trkpt><trkpt lat="47.732875301264116" lon="16.159214471741244"><ele>333.0</ele><time>2026-05-01T17:01:45Z</time></trkpt><trkpt lat="47.732712457663354" lon="16.158907283970958"><ele>334.0</ele><time>2026-05-01T17:01:46Z</time></trkpt><trkpt lat="47.73254870052845" lon="16.158598429859467"><ele>334.0</ele><time>2026-05-01T17:01:47Z</time></trkpt><trkpt lat="47.73238318809281" lon="16.15828814035291"><ele>334.0</ele><time>2026-05-01T17:01:48Z</time></trkpt><trkpt lat="47.73221759711434" lon="16.157976154903537"><ele>333.5</ele><time>2026-05-01T17:01:49Z</time></trkpt><trkpt lat="47.73204955735689" lon="16.15766365382761"><ele>333.0</ele><time>2026-05-01T17:01:50Z</time></trkpt><trkpt lat="47.73188168443668" lon="16.157348545968937"><ele>334.0</ele><time>2026-05-01T17:01:51Z</time></trkpt><trkpt lat="47.7317140349768" lon="16.157034336165594"><ele>335.0</ele><time>2026-05-01T17:01:52Z</time></trkpt><trkpt lat="47.73154714906934" lon="16.15672202845168"><ele>335.0</ele><time>2026-05-01T17:01:53Z</time></trkpt><trkpt lat="47.73138024002962" lon="16.156408382352215"><ele>335.0</ele><time>2026-05-01T17:01:54Z</time></trkpt><trkpt lat="47.73121470293284" lon="16.156097103474007"><ele>335.0</ele><time>2026-05-01T17:01:55Z</time></trkpt><trkpt lat="47.73105100481779" lon="16.155789320459927"><ele>335.0</ele><time>2026-05-01T17:01:56Z</time></trkpt><trkpt lat="47.7308907538049" lon="16.15548654244336"><ele>335.0</ele><time>2026-05-01T17:01:57Z</time></trkpt><trkpt lat="47.730733851992454" lon="16.155185790218102"><ele>335.0</ele><time>2026-05-01T17:01:58Z</time></trkpt><trkpt lat="47.7305750018286" lon="16.154887087357977"><ele>334.0</ele><time>2026-05-01T17:01:59Z</time></trkpt><trkpt lat="47.73041617875439" lon="16.15459035193725"><ele>333.0</ele><time>2026-05-01T17:02:00Z</time></trkpt><trkpt lat="47.73025853255451" lon="16.15429779130469"><ele>334.0</ele><time>2026-05-01T17:02:01Z</time></trkpt><trkpt lat="47.73010057491879" lon="16.154008552363422"><ele>335.0</ele><time>2026-05-01T17:02:02Z</time></trkpt><trkpt lat="47.72994266036304" lon="16.15371946534035"><ele>335.0</ele><time>2026-05-01T17:02:03Z</time></trkpt><trkpt lat="47.72978422116829" lon="16.15342935038203"><ele>335.0</ele><time>2026-05-01T17:02:04Z</time></trkpt><trkpt lat="47.72962397453112" lon="16.15313518709648"><ele>334.5</ele><time>2026-05-01T17:02:05Z</time></trkpt><trkpt lat="47.7294628198739" lon="16.152837205774333"><ele>334.0</ele><time>2026-05-01T17:02:06Z</time></trkpt><trkpt lat="47.729301953290026" lon="16.15253682014615"><ele>335.5</ele><time>2026-05-01T17:02:07Z</time></trkpt><trkpt lat="47.729136738243355" lon="16.152237132442437"><ele>337.0</ele><time>2026-05-01T17:02:08Z</time></trkpt><trkpt lat="47.728971114231015" lon="16.15193950419886"><ele>337.0</ele><time>2026-05-01T17:02:09Z</time></trkpt><trkpt lat="47.72880776510454" lon="16.15164413536392"><ele>337.0</ele><time>2026-05-01T17:02:10Z</time></trkpt><trkpt lat="47.728645724207304" lon="16.151350283846376"><ele>336.5</ele><time>2026-05-01T17:02:11Z</time></trkpt><trkpt lat="47.7284826797629" lon="16.151056250785405"><ele>336.0</ele><time>2026-05-01T17:02:12Z</time></trkpt><trkpt lat="47.728317256272184" lon="16.150760476226754"><ele>336.0</ele><time>2026-05-01T17:02:13Z</time></trkpt><trkpt lat="47.72815152369063" lon="16.150461472793104"><ele>336.0</ele><time>2026-05-01T17:02:14Z</time></trkpt><trkpt lat="47.72798296780778" lon="16.15016290120894"><ele>335.5</ele><time>2026-05-01T17:02:15Z</time></trkpt><trkpt lat="47.72781379957069" lon="16.149862126126312"><ele>335.0</ele><time>2026-05-01T17:02:16.001Z</time></trkpt><trkpt lat="47.72764381440671" lon="16.14956001346132"><ele>336.0</ele><time>2026-05-01T17:02:17.001Z</time></trkpt><trkpt lat="47.727472894860355" lon="16.14925775697144"><ele>337.0</ele><time>2026-05-01T17:02:18.001Z</time></trkpt><trkpt lat="47.72730191599998" lon="16.148953893205242"><ele>337.0</ele><time>2026-05-01T17:02:19.001Z</time></trkpt><trkpt lat="47.72712730318135" lon="16.148648740907163"><ele>337.0</ele><time>2026-05-01T17:02:20.001Z</time></trkpt><trkpt lat="47.72695385442052" lon="16.148342764064584"><ele>337.5</ele><time>2026-05-01T17:02:21.001Z</time></trkpt><trkpt lat="47.726779408768394" lon="16.14803655410692"><ele>338.0</ele><time>2026-05-01T17:02:22.001Z</time></trkpt><trkpt lat="47.726605330542036" lon="16.147730590279114"><ele>338.0</ele><time>2026-05-01T17:02:23.001Z</time></trkpt><trkpt lat="47.72643171037863" lon="16.147426967668675"><ele>338.0</ele><time>2026-05-01T17:02:24.001Z</time></trkpt><trkpt lat="47.72625935322362" lon="16.147125985816718"><ele>337.0</ele><time>2026-05-01T17:02:25Z</time></trkpt><trkpt lat="47.72608785970555" lon="16.146826780157845"><ele>336.0</ele><time>2026-05-01T17:02:26Z</time></trkpt><trkpt lat="47.72591674592875" lon="16.146529124026483"><ele>335.5</ele><time>2026-05-01T17:02:27Z</time></trkpt><trkpt lat="47.725745154684006" lon="16.14623445631376"><ele>335.0</ele><time>2026-05-01T17:02:28Z</time></trkpt><trkpt lat="47.725573751715224" lon="16.14594029160681"><ele>334.5</ele><time>2026-05-01T17:02:29Z</time></trkpt><trkpt lat="47.725401223617745" lon="16.145646452621243"><ele>334.0</ele><time>2026-05-01T17:02:30Z</time></trkpt><trkpt lat="47.72522901098531" lon="16.145352413823982"><ele>335.5</ele><time>2026-05-01T17:02:31Z</time></trkpt><trkpt lat="47.7250557226761" lon="16.14505865698259"><ele>337.0</ele><time>2026-05-01T17:02:32Z</time></trkpt><trkpt lat="47.724882841624556" lon="16.14476608343608"><ele>337.0</ele><time>2026-05-01T17:02:33Z</time></trkpt><trkpt lat="47.72470895652183" lon="16.144473699863095"><ele>337.0</ele><time>2026-05-01T17:02:34Z</time></trkpt><trkpt lat="47.724534725953866" lon="16.144180201372478"><ele>338.0</ele><time>2026-05-01T17:02:35Z</time></trkpt><trkpt lat="47.7243596806354" lon="16.143885387540482"><ele>339.0</ele><time>2026-05-01T17:02:36Z</time></trkpt><trkpt lat="47.72418332130459" lon="16.143590257590905"><ele>339.0</ele><time>2026-05-01T17:02:37Z</time></trkpt><trkpt lat="47.72400768517628" lon="16.143294795228307"><ele>339.0</ele><time>2026-05-01T17:02:38Z</time></trkpt><trkpt lat="47.723831219812354" lon="16.14300165664235"><ele>338.5</ele><time>2026-05-01T17:02:39Z</time></trkpt><trkpt lat="47.723653031703584" lon="16.142712134850864"><ele>338.0</ele><time>2026-05-01T17:02:40Z</time></trkpt><trkpt lat="47.723474735468216" lon="16.14242190499"><ele>339.0</ele><time>2026-05-01T17:02:41Z</time></trkpt><trkpt lat="47.72329316953328" lon="16.142133547567145"><ele>340.0</ele><time>2026-05-01T17:02:42Z</time></trkpt><trkpt lat="47.723122258884835" lon="16.141839131216468"><ele>338.5</ele><time>2026-05-01T17:02:43Z</time></trkpt><trkpt lat="47.7229520166701" lon="16.141541457702015"><ele>337.0</ele><time>2026-05-01T17:02:44Z</time></trkpt><trkpt lat="47.72278131468453" lon="16.141246187639098"><ele>338.0</ele><time>2026-05-01T17:02:45Z</time></trkpt><trkpt lat="47.72260839861241" lon="16.140952552012862"><ele>339.0</ele><time>2026-05-01T17:02:46Z</time></trkpt><trkpt lat="47.722431097466576" lon="16.140663125412207"><ele>339.0</ele><time>2026-05-01T17:02:47Z</time></trkpt><trkpt lat="47.72225247094849" lon="16.140375581442704"><ele>339.0</ele><time>2026-05-01T17:02:48Z</time></trkpt><trkpt lat="47.72207276481247" lon="16.140089548110275"><ele>340.0</ele><time>2026-05-01T17:02:49Z</time></trkpt><trkpt lat="47.721894561799886" lon="16.139801689626477"><ele>341.0</ele><time>2026-05-01T17:02:50Z</time></trkpt><trkpt lat="47.72171869318983" lon="16.13951155056906"><ele>341.0</ele><time>2026-05-01T17:02:51Z</time></trkpt><trkpt lat="47.72154581749687" lon="16.139218320197926"><ele>341.0</ele><time>2026-05-01T17:02:52Z</time></trkpt><trkpt lat="47.7213732806047" lon="16.138924187036647"><ele>341.0</ele><time>2026-05-01T17:02:53Z</time></trkpt><trkpt lat="47.721198896523575" lon="16.13863253860987"><ele>341.0</ele><time>2026-05-01T17:02:54Z</time></trkpt><trkpt lat="47.72102023662408" lon="16.138344240627926"><ele>341.5</ele><time>2026-05-01T17:02:55Z</time></trkpt><trkpt lat="47.72083747798598" lon="16.13806146393828"><ele>342.0</ele><time>2026-05-01T17:02:56Z</time></trkpt><trkpt lat="47.72065148908779" lon="16.137780326085505"><ele>342.0</ele><time>2026-05-01T17:02:57Z</time></trkpt><trkpt lat="47.720462440895254" lon="16.137502818523497"><ele>342.0</ele><time>2026-05-01T17:02:58Z</time></trkpt><trkpt lat="47.72027237866842" lon="16.137226309861113"><ele>342.5</ele><time>2026-05-01T17:02:59Z</time></trkpt><trkpt lat="47.72008729816006" lon="16.136957999516834"><ele>343.0</ele><time>2026-05-01T17:03:00Z</time></trkpt><trkpt lat="47.71990760941198" lon="16.136699118804625"><ele>342.5</ele><time>2026-05-01T17:03:01Z</time></trkpt><trkpt lat="47.719720476233874" lon="16.13643744634821"><ele>342.0</ele><time>2026-05-01T17:03:02Z</time></trkpt><trkpt lat="47.719530111177065" lon="16.136177325288063"><ele>343.0</ele><time>2026-05-01T17:03:03Z</time></trkpt><trkpt lat="47.7193367542678" lon="16.135917396142418"><ele>344.0</ele><time>2026-05-01T17:03:04Z</time></trkpt><trkpt lat="47.71914059736808" lon="16.13565790003187"><ele>344.0</ele><time>2026-05-01T17:03:05Z</time></trkpt><trkpt lat="47.71894435340144" lon="16.13539842081076"><ele>344.0</ele><time>2026-05-01T17:03:06Z</time></trkpt><trkpt lat="47.718744624428105" lon="16.135142948821333"><ele>343.5</ele><time>2026-05-01T17:03:07Z</time></trkpt><trkpt lat="47.718542709991304" lon="16.1348908891233"><ele>343.0</ele><time>2026-05-01T17:03:08Z</time></trkpt><trkpt lat="47.71833725238596" lon="16.13464155406367"><ele>343.0</ele><time>2026-05-01T17:03:09Z</time></trkpt><trkpt lat="47.718130392620445" lon="16.13439478027872"><ele>343.0</ele><time>2026-05-01T17:03:10Z</time></trkpt><trkpt lat="47.71792227079412" lon="16.134149045985755"><ele>346.0</ele><time>2026-05-01T17:03:11Z</time></trkpt><trkpt lat="47.7177120358462" lon="16.133906365568652"><ele>349.0</ele><time>2026-05-01T17:03:12Z</time></trkpt><trkpt lat="47.71749977983841" lon="16.13366775869405"><ele>349.0</ele><time>2026-05-01T17:03:13Z</time></trkpt><trkpt lat="47.71728688644051" lon="16.13342989284451"><ele>349.0</ele><time>2026-05-01T17:03:14Z</time></trkpt><trkpt lat="47.717072894976255" lon="16.13319476710804"><ele>350.5</ele><time>2026-05-01T17:03:15Z</time></trkpt><trkpt lat="47.716857526745024" lon="16.132959864927418"><ele>352.0</ele><time>2026-05-01T17:03:16Z</time></trkpt><trkpt lat="47.71664124435618" lon="16.13272242936353"><ele>352.0</ele><time>2026-05-01T17:03:17Z</time></trkpt><trkpt lat="47.71642691056699" lon="16.13248135925802"><ele>352.0</ele><time>2026-05-01T17:03:18Z</time></trkpt><trkpt lat="47.71621164067806" lon="16.132235308396947"><ele>354.0</ele><time>2026-05-01T17:03:19Z</time></trkpt><trkpt lat="47.71600315493668" lon="16.131972560168286"><ele>356.0</ele><time>2026-05-01T17:03:20Z</time></trkpt><trkpt lat="47.715799050477976" lon="16.131700797311066"><ele>351.5</ele><time>2026-05-01T17:03:21Z</time></trkpt><trkpt lat="47.71559802465375" lon="16.131419688835994"><ele>347.0</ele><time>2026-05-01T17:03:22Z</time></trkpt><trkpt lat="47.71540055276298" lon="16.131126142250192"><ele>350.5</ele><time>2026-05-01T17:03:23Z</time></trkpt><trkpt lat="47.71520617572296" lon="16.130822015927265"><ele>354.0</ele><time>2026-05-01T17:03:24Z</time></trkpt><trkpt lat="47.71501389486781" lon="16.130510769362708"><ele>354.0</ele><time>2026-05-01T17:03:25Z</time></trkpt><trkpt lat="47.714825678582045" lon="16.130193877982947"><ele>354.0</ele><time>2026-05-01T17:03:26Z</time></trkpt><trkpt lat="47.714642683109545" lon="16.129872467828356"><ele>352.0</ele><time>2026-05-01T17:03:27Z</time></trkpt><trkpt lat="47.714467173105525" lon="16.129546622303035"><ele>350.0</ele><time>2026-05-01T17:03:28Z</time></trkpt><trkpt lat="47.714298865704095" lon="16.129216466648483"><ele>353.0</ele><time>2026-05-01T17:03:29Z</time></trkpt><trkpt lat="47.71413484312335" lon="16.128877836570624"><ele>356.0</ele><time>2026-05-01T17:03:30Z</time></trkpt><trkpt lat="47.7139689855651" lon="16.128530730221485"><ele>354.5</ele><time>2026-05-01T17:03:31Z</time></trkpt><trkpt lat="47.71380505172023" lon="16.128174461303633"><ele>353.0</ele><time>2026-05-01T17:03:32Z</time></trkpt><trkpt lat="47.71364918695318" lon="16.127803847128035"><ele>357.0</ele><time>2026-05-01T17:03:33Z</time></trkpt><trkpt lat="47.713505203494755" lon="16.1274190068484"><ele>361.0</ele><time>2026-05-01T17:03:34Z</time></trkpt><trkpt lat="47.71336989942059" lon="16.127021739824396"><ele>361.0</ele><time>2026-05-01T17:03:35Z</time></trkpt><trkpt lat="47.71324202461903" lon="16.126613869014516"><ele>361.0</ele><time>2026-05-01T17:03:36Z</time></trkpt><trkpt lat="47.71311784323262" lon="16.126202967521856"><ele>359.0</ele><time>2026-05-01T17:03:37Z</time></trkpt><trkpt lat="47.713001132496295" lon="16.12578719741821"><ele>357.0</ele><time>2026-05-01T17:03:38Z</time></trkpt><trkpt lat="47.712892086720124" lon="16.125366008259988"><ele>357.0</ele><time>2026-05-01T17:03:39Z</time></trkpt><trkpt lat="47.71278648522909" lon="16.12494262309489"><ele>357.0</ele><time>2026-05-01T17:03:40Z</time></trkpt><trkpt lat="47.7126796607971" lon="16.124522480989867"><ele>361.5</ele><time>2026-05-01T17:03:41Z</time></trkpt><trkpt lat="47.71256884427008" lon="16.124105720509245"><ele>366.0</ele><time>2026-05-01T17:03:42Z</time></trkpt><trkpt lat="47.71245931751786" lon="16.12369406298087"><ele>366.0</ele><time>2026-05-01T17:03:43Z</time></trkpt><trkpt lat="47.71235124652705" lon="16.12327915830523"><ele>366.0</ele><time>2026-05-01T17:03:44Z</time></trkpt><trkpt lat="47.71224422479101" lon="16.122862538488867"><ele>363.5</ele><time>2026-05-01T17:03:45Z</time></trkpt><trkpt lat="47.712138680778956" lon="16.12244308880897"><ele>361.0</ele><time>2026-05-01T17:03:46Z</time></trkpt><trkpt lat="47.712033558174205" lon="16.122021633930608"><ele>360.0</ele><time>2026-05-01T17:03:47Z</time></trkpt><trkpt lat="47.711929975513534" lon="16.121598748044946"><ele>359.0</ele><time>2026-05-01T17:03:48Z</time></trkpt><trkpt lat="47.71182883882577" lon="16.121172979608144"><ele>362.0</ele><time>2026-05-01T17:03:49Z</time></trkpt><trkpt lat="47.71173093087195" lon="16.120744954359793"><ele>365.0</ele><time>2026-05-01T17:03:50Z</time></trkpt><trkpt lat="47.711631903007174" lon="16.120316930687693"><ele>364.5</ele><time>2026-05-01T17:03:51Z</time></trkpt><trkpt lat="47.71153379321433" lon="16.11988954207582"><ele>364.0</ele><time>2026-05-01T17:03:52Z</time></trkpt><trkpt lat="47.71143812175789" lon="16.11946196141013"><ele>363.5</ele><time>2026-05-01T17:03:53Z</time></trkpt><trkpt lat="47.71134352573586" lon="16.11903298292721"><ele>363.0</ele><time>2026-05-01T17:03:54Z</time></trkpt><trkpt lat="47.71124961793223" lon="16.11860338378266"><ele>362.5</ele><time>2026-05-01T17:03:55Z</time></trkpt><trkpt lat="47.71115716592685" lon="16.11817512681429"><ele>362.0</ele><time>2026-05-01T17:03:56Z</time></trkpt><trkpt lat="47.71106693176351" lon="16.11774742538655"><ele>368.0</ele><time>2026-05-01T17:03:57Z</time></trkpt><trkpt lat="47.71097903486372" lon="16.1173201246033"><ele>374.0</ele><time>2026-05-01T17:03:58Z</time></trkpt><trkpt lat="47.71088964846145" lon="16.11689289197108"><ele>373.5</ele><time>2026-05-01T17:03:59Z</time></trkpt><trkpt lat="47.710799337375484" lon="16.11646675410516"><ele>373.0</ele><time>2026-05-01T17:04:00Z</time></trkpt><trkpt lat="47.71070931347745" lon="16.116038457788154"><ele>376.0</ele><time>2026-05-01T17:04:01Z</time></trkpt><trkpt lat="47.71061999888744" lon="16.115608540552465"><ele>379.0</ele><time>2026-05-01T17:04:02Z</time></trkpt><trkpt lat="47.710530389726785" lon="16.115178192460593"><ele>379.0</ele><time>2026-05-01T17:04:03Z</time></trkpt><trkpt lat="47.71044213308906" lon="16.114747789322717"><ele>379.0</ele><time>2026-05-01T17:04:04Z</time></trkpt><trkpt lat="47.71035583992314" lon="16.114321654263907"><ele>380.0</ele><time>2026-05-01T17:04:05Z</time></trkpt><trkpt lat="47.71027406894764" lon="16.113917639452726"><ele>381.0</ele><time>2026-05-01T17:04:06Z</time></trkpt><trkpt lat="47.7101878176083" lon="16.11349993813364"><ele>381.5</ele><time>2026-05-01T17:04:07Z</time></trkpt><trkpt lat="47.71009872498932" lon="16.11307334644724"><ele>382.0</ele><time>2026-05-01T17:04:08Z</time></trkpt><trkpt lat="47.71000683205682" lon="16.112646301341755"><ele>381.0</ele><time>2026-05-01T17:04:09Z</time></trkpt><trkpt lat="47.709911944617" lon="16.112217509845344"><ele>380.0</ele><time>2026-05-01T17:04:10Z</time></trkpt><trkpt lat="47.70981514869969" lon="16.111787213724547"><ele>378.5</ele><time>2026-05-01T17:04:11Z</time></trkpt><trkpt lat="47.70971977242904" lon="16.111357142978164"><ele>377.0</ele><time>2026-05-01T17:04:12Z</time></trkpt><trkpt lat="47.709624630696624" lon="16.1109260942923"><ele>376.5</ele><time>2026-05-01T17:04:13Z</time></trkpt><trkpt lat="47.709529386200046" lon="16.1104981128862"><ele>376.0</ele><time>2026-05-01T17:04:14Z</time></trkpt><trkpt lat="47.70943463633946" lon="16.1100692063248"><ele>377.0</ele><time>2026-05-01T17:04:15Z</time></trkpt><trkpt lat="47.70933999983621" lon="16.109642292715613"><ele>378.0</ele><time>2026-05-01T17:04:16Z</time></trkpt><trkpt lat="47.709245327805114" lon="16.10921513146268"><ele>380.5</ele><time>2026-05-01T17:04:17Z</time></trkpt><trkpt lat="47.70914803347019" lon="16.108788081719084"><ele>383.0</ele><time>2026-05-01T17:04:18Z</time></trkpt><trkpt lat="47.70905052970096" lon="16.108361623191392"><ele>384.0</ele><time>2026-05-01T17:04:19Z</time></trkpt><trkpt lat="47.708953573189696" lon="16.10793651442862"><ele>385.0</ele><time>2026-05-01T17:04:20Z</time></trkpt><trkpt lat="47.70885522734308" lon="16.107512406282197"><ele>385.5</ele><time>2026-05-01T17:04:21Z</time></trkpt><trkpt lat="47.7087550940646" lon="16.107089776303276"><ele>386.0</ele><time>2026-05-01T17:04:22.001Z</time></trkpt><trkpt lat="47.70865362739462" lon="16.10666952410415"><ele>385.0</ele><time>2026-05-01T17:04:23.001Z</time></trkpt><trkpt lat="47.70855201863966" lon="16.10625105458878"><ele>384.0</ele><time>2026-05-01T17:04:24.001Z</time></trkpt><trkpt lat="47.708450068182955" lon="16.10583481314969"><ele>383.0</ele><time>2026-05-01T17:04:25.001Z</time></trkpt><trkpt lat="47.70834887194977" lon="16.1054185227581"><ele>382.0</ele><time>2026-05-01T17:04:26.001Z</time></trkpt><trkpt lat="47.708248998490596" lon="16.10500228538624"><ele>380.5</ele><time>2026-05-01T17:04:27.001Z</time></trkpt><trkpt lat="47.70814913259216" lon="16.104587348244735"><ele>379.0</ele><time>2026-05-01T17:04:28.001Z</time></trkpt><trkpt lat="47.70804826499908" lon="16.104175232689023"><ele>376.0</ele><time>2026-05-01T17:04:29.001Z</time></trkpt><trkpt lat="47.70794741068105" lon="16.10376527040298"><ele>373.0</ele><time>2026-05-01T17:04:30.001Z</time></trkpt><trkpt lat="47.70784466162155" lon="16.10335661306821"><ele>372.0</ele><time>2026-05-01T17:04:31Z</time></trkpt><trkpt lat="47.70774256753231" lon="16.102947823272096"><ele>371.0</ele><time>2026-05-01T17:04:32Z</time></trkpt><trkpt lat="47.70764035971937" lon="16.10254213728213"><ele>370.5</ele><time>2026-05-01T17:04:33Z</time></trkpt><trkpt lat="47.70753703685462" lon="16.102137285460852"><ele>370.0</ele><time>2026-05-01T17:04:34Z</time></trkpt><trkpt lat="47.707433001747425" lon="16.101730390494744"><ele>369.5</ele><time>2026-05-01T17:04:35Z</time></trkpt><trkpt lat="47.707326470913195" lon="16.10131824489413"><ele>369.0</ele><time>2026-05-01T17:04:36Z</time></trkpt><trkpt lat="47.707219130767015" lon="16.10090325659352"><ele>368.5</ele><time>2026-05-01T17:04:37Z</time></trkpt><trkpt lat="47.707109025559014" lon="16.1004859233622"><ele>368.0</ele><time>2026-05-01T17:04:38Z</time></trkpt><trkpt lat="47.70699641408132" lon="16.100066831912912"><ele>369.5</ele><time>2026-05-01T17:04:39Z</time></trkpt><trkpt lat="47.70688186072822" lon="16.09964792161063"><ele>371.0</ele><time>2026-05-01T17:04:40Z</time></trkpt><trkpt lat="47.706766479082695" lon="16.099227440622723"><ele>371.0</ele><time>2026-05-01T17:04:41Z</time></trkpt><trkpt lat="47.70665095137149" lon="16.09880594580705"><ele>371.0</ele><time>2026-05-01T17:04:42Z</time></trkpt><trkpt lat="47.706535387806845" lon="16.09838198037349"><ele>370.5</ele><time>2026-05-01T17:04:43Z</time></trkpt><trkpt lat="47.7064196600069" lon="16.09795906445962"><ele>370.0</ele><time>2026-05-01T17:04:44Z</time></trkpt><trkpt lat="47.706304149139605" lon="16.097534649254982"><ele>370.0</ele><time>2026-05-01T17:04:45Z</time></trkpt><trkpt lat="47.70618902126303" lon="16.09711021128239"><ele>370.0</ele><time>2026-05-01T17:04:46Z</time></trkpt><trkpt lat="47.706072244187155" lon="16.096687793918438"><ele>370.5</ele><time>2026-05-01T17:04:47Z</time></trkpt><trkpt lat="47.70595346548717" lon="16.096267806224034"><ele>371.0</ele><time>2026-05-01T17:04:48Z</time></trkpt><trkpt lat="47.70583614015363" lon="16.09584956928471"><ele>372.0</ele><time>2026-05-01T17:04:49Z</time></trkpt><trkpt lat="47.705718100708346" lon="16.09543246006021"><ele>373.0</ele><time>2026-05-01T17:04:50Z</time></trkpt><trkpt lat="47.705598478596336" lon="16.09501803269667"><ele>373.5</ele><time>2026-05-01T17:04:51Z</time></trkpt><trkpt lat="47.705477909745014" lon="16.094605144664786"><ele>374.0</ele><time>2026-05-01T17:04:52Z</time></trkpt><trkpt lat="47.70535841280603" lon="16.094194236695078"><ele>373.5</ele><time>2026-05-01T17:04:53Z</time></trkpt><trkpt lat="47.70523849416371" lon="16.093785496003502"><ele>373.0</ele><time>2026-05-01T17:04:54Z</time></trkpt><trkpt lat="47.70511710497283" lon="16.093379078525697"><ele>374.5</ele><time>2026-05-01T17:04:55Z</time></trkpt><trkpt lat="47.70499570153025" lon="16.09297346584856"><ele>376.0</ele><time>2026-05-01T17:04:56Z</time></trkpt><trkpt lat="47.704873253283765" lon="16.09256827324166"><ele>376.5</ele><time>2026-05-01T17:04:57Z</time></trkpt><trkpt lat="47.7047514159053" lon="16.092163574319315"><ele>377.0</ele><time>2026-05-01T17:04:58Z</time></trkpt><trkpt lat="47.704628382196105" lon="16.091759219162395"><ele>377.0</ele><time>2026-05-01T17:04:59Z</time></trkpt><trkpt lat="47.704505464331824" lon="16.091352547653848"><ele>377.0</ele><time>2026-05-01T17:05:00Z</time></trkpt><trkpt lat="47.70438173807053" lon="16.09094398023636"><ele>377.5</ele><time>2026-05-01T17:05:01Z</time></trkpt><trkpt lat="47.704257035550306" lon="16.090532859792916"><ele>378.0</ele><time>2026-05-01T17:05:02Z</time></trkpt><trkpt lat="47.70413140160855" lon="16.090120853943"><ele>378.5</ele><time>2026-05-01T17:05:03Z</time></trkpt><trkpt lat="47.70400379085584" lon="16.089708711998398"><ele>379.0</ele><time>2026-05-01T17:05:04Z</time></trkpt><trkpt lat="47.703876778959945" lon="16.089295235658977"><ele>379.0</ele><time>2026-05-01T17:05:05Z</time></trkpt><trkpt lat="47.70374732420536" lon="16.088883175761907"><ele>379.0</ele><time>2026-05-01T17:05:06Z</time></trkpt><trkpt lat="47.70361866673121" lon="16.088475115013942"><ele>380.5</ele><time>2026-05-01T17:05:07Z</time></trkpt><trkpt lat="47.703498179161734" lon="16.088086913620298"><ele>382.0</ele><time>2026-05-01T17:05:08Z</time></trkpt><trkpt lat="47.70338851407046" lon="16.08771943906168"><ele>383.5</ele><time>2026-05-01T17:05:09Z</time></trkpt><trkpt lat="47.70328106441805" lon="16.08737039084272"><ele>385.0</ele><time>2026-05-01T17:05:10Z</time></trkpt><trkpt lat="47.70317182586422" lon="16.087029448277683"><ele>385.0</ele><time>2026-05-01T17:05:11Z</time></trkpt><trkpt lat="47.70306458931787" lon="16.086692242650223"><ele>385.0</ele><time>2026-05-01T17:05:12Z</time></trkpt><trkpt lat="47.70295639435969" lon="16.086361116482394"><ele>384.5</ele><time>2026-05-01T17:05:13Z</time></trkpt><trkpt lat="47.70284787518924" lon="16.08603646587369"><ele>384.0</ele><time>2026-05-01T17:05:14Z</time></trkpt><trkpt lat="47.70274142652793" lon="16.085720925228976"><ele>384.66666666666663</ele><time>2026-05-01T17:05:15Z</time></trkpt><trkpt lat="47.70264115963316" lon="16.085423026046428"><ele>385.3333333333333</ele><time>2026-05-01T17:05:16Z</time></trkpt><trkpt lat="47.70254380173799" lon="16.085131969556603"><ele>386.0</ele><time>2026-05-01T17:05:17Z</time></trkpt><trkpt lat="47.70244707565851" lon="16.084845995549014"><ele>386.66666666666663</ele><time>2026-05-01T17:05:18Z</time></trkpt><trkpt lat="47.70235196180665" lon="16.084566502846247"><ele>387.33333333333337</ele><time>2026-05-01T17:05:19Z</time></trkpt><trkpt lat="47.7022588678531" lon="16.084290072017456"><ele>388.0</ele><time>2026-05-01T17:05:20Z</time></trkpt><trkpt lat="47.70216646366754" lon="16.084018035230383"><ele>388.6666666666667</ele><time>2026-05-01T17:05:21Z</time></trkpt><trkpt lat="47.70207481693181" lon="16.083750525288806"><ele>389.33333333333337</ele><time>2026-05-01T17:05:22Z</time></trkpt><trkpt lat="47.70198483966226" lon="16.083489651302926"><ele>390.0</ele><time>2026-05-01T17:05:23Z</time></trkpt><trkpt lat="47.70190019694946" lon="16.083234407583145"><ele>390.0</ele><time>2026-05-01T17:05:24Z</time></trkpt><trkpt lat="47.70181782383694" lon="16.082981935002746"><ele>390.0</ele><time>2026-05-01T17:05:25Z</time></trkpt><trkpt lat="47.70173337447235" lon="16.08273440977768"><ele>390.0</ele><time>2026-05-01T17:05:26Z</time></trkpt><trkpt lat="47.70164788619994" lon="16.08248702621249"><ele>390.66666666666663</ele><time>2026-05-01T17:05:27Z</time></trkpt><trkpt lat="47.701560862054" lon="16.082235671196916"><ele>391.3333333333333</ele><time>2026-05-01T17:05:28Z</time></trkpt><trkpt lat="47.701474490975336" lon="16.08198307523555"><ele>392.0</ele><time>2026-05-01T17:05:29Z</time></trkpt><trkpt lat="47.70138628542287" lon="16.081729707355134"><ele>392.66666666666663</ele><time>2026-05-01T17:05:30Z</time></trkpt><trkpt lat="47.70129770050245" lon="16.081476223816072"><ele>393.33333333333337</ele><time>2026-05-01T17:05:31Z</time></trkpt><trkpt lat="47.70120771463317" lon="16.08122314655169"><ele>394.0</ele><time>2026-05-01T17:05:32Z</time></trkpt><trkpt lat="47.701117383660176" lon="16.080970279112876"><ele>394.0</ele><time>2026-05-01T17:05:33Z</time></trkpt><trkpt lat="47.70102722107692" lon="16.080718470524513"><ele>394.0</ele><time>2026-05-01T17:05:34Z</time></trkpt><trkpt lat="47.7009372375741" lon="16.080467662706322"><ele>394.0</ele><time>2026-05-01T17:05:35Z</time></trkpt><trkpt lat="47.70084674822707" lon="16.080218092495624"><ele>394.0</ele><time>2026-05-01T17:05:36Z</time></trkpt><trkpt lat="47.70075683517983" lon="16.079968900331405"><ele>394.0</ele><time>2026-05-01T17:05:37Z</time></trkpt><trkpt lat="47.70066694005481" lon="16.079721445234178"><ele>394.0</ele><time>2026-05-01T17:05:38Z</time></trkpt><trkpt lat="47.70057825979601" lon="16.079472630152026"><ele>394.33333333333337</ele><time>2026-05-01T17:05:39Z</time></trkpt><trkpt lat="47.70048928249268" lon="16.079223649036862"><ele>394.66666666666663</ele><time>2026-05-01T17:05:40Z</time></trkpt><trkpt lat="47.700401224116646" lon="16.078974389353096"><ele>395.0</ele><time>2026-05-01T17:05:41Z</time></trkpt><trkpt lat="47.70031096895366" lon="16.07872509025388"><ele>395.0</ele><time>2026-05-01T17:05:42Z</time></trkpt><trkpt lat="47.70022093379271" lon="16.078476052526156"><ele>395.0</ele><time>2026-05-01T17:05:43Z</time></trkpt><trkpt lat="47.70013036424563" lon="16.07822664450832"><ele>395.0</ele><time>2026-05-01T17:05:44Z</time></trkpt><trkpt lat="47.70004018146349" lon="16.077977632133294"><ele>395.66666666666663</ele><time>2026-05-01T17:05:45Z</time></trkpt><trkpt lat="47.69995028170149" lon="16.077730155129924"><ele>396.33333333333337</ele><time>2026-05-01T17:05:46Z</time></trkpt><trkpt lat="47.69986044591001" lon="16.07748252648227"><ele>397.0</ele><time>2026-05-01T17:05:47Z</time></trkpt><trkpt lat="47.69976998872021" lon="16.077235989239053"><ele>397.6666666666667</ele><time>2026-05-01T17:05:48Z</time></trkpt><trkpt lat="47.699679181154785" lon="16.076990606649534"><ele>398.33333333333337</ele><time>2026-05-01T17:05:49Z</time></trkpt><trkpt lat="47.6995888402317" lon="16.07674607433329"><ele>399.0</ele><time>2026-05-01T17:05:50Z</time></trkpt><trkpt lat="47.69949782338277" lon="16.076500374510616"><ele>399.0</ele><time>2026-05-01T17:05:51Z</time></trkpt><trkpt lat="47.699406245515284" lon="16.076253399962958"><ele>399.0</ele><time>2026-05-01T17:05:52Z</time></trkpt><trkpt lat="47.699314515735495" lon="16.07600454900498"><ele>399.0</ele><time>2026-05-01T17:05:53Z</time></trkpt><trkpt lat="47.69922182674031" lon="16.075754069224473"><ele>399.33333333333337</ele><time>2026-05-01T17:05:54Z</time></trkpt><trkpt lat="47.69913167998464" lon="16.075502111676293"><ele>399.6666666666667</ele><time>2026-05-01T17:05:55Z</time></trkpt><trkpt lat="47.69904090191717" lon="16.075252370821204"><ele>400.0</ele><time>2026-05-01T17:05:56Z</time></trkpt><trkpt lat="47.69894971706912" lon="16.075004259601968"><ele>400.6666666666667</ele><time>2026-05-01T17:05:57Z</time></trkpt><trkpt lat="47.69885683040774" lon="16.074756454818058"><ele>401.33333333333337</ele><time>2026-05-01T17:05:58Z</time></trkpt><trkpt lat="47.69876215218225" lon="16.07450762182885"><ele>402.0</ele><time>2026-05-01T17:05:59Z</time></trkpt><trkpt lat="47.698667014918854" lon="16.074258324463734"><ele>402.0</ele><time>2026-05-01T17:06:00Z</time></trkpt><trkpt lat="47.698571753777394" lon="16.074008465048966"><ele>402.0</ele><time>2026-05-01T17:06:01Z</time></trkpt><trkpt lat="47.6984750945666" lon="16.0737583096687"><ele>402.0</ele><time>2026-05-01T17:06:02Z</time></trkpt><trkpt lat="47.69837819117706" lon="16.07350657826425"><ele>403.0</ele><time>2026-05-01T17:06:03Z</time></trkpt><trkpt lat="47.698281095594055" lon="16.073255030844717"><ele>404.0</ele><time>2026-05-01T17:06:04Z</time></trkpt><trkpt lat="47.698183456177816" lon="16.073003825710174"><ele>405.0</ele><time>2026-05-01T17:06:05Z</time></trkpt><trkpt lat="47.698089480881436" lon="16.07276184318827"><ele>405.0</ele><time>2026-05-01T17:06:06Z</time></trkpt><trkpt lat="47.69799567928541" lon="16.072519710698252"><ele>405.0</ele><time>2026-05-01T17:06:07Z</time></trkpt><trkpt lat="47.69790068681315" lon="16.072275740617428"><ele>405.0</ele><time>2026-05-01T17:06:08Z</time></trkpt><trkpt lat="47.69780617909031" lon="16.072029850043815"><ele>405.66666666666663</ele><time>2026-05-01T17:06:09Z</time></trkpt><trkpt lat="47.69771205380195" lon="16.071783291299383"><ele>406.3333333333333</ele><time>2026-05-01T17:06:10Z</time></trkpt><trkpt lat="47.697617572153995" lon="16.07153650681848"><ele>407.0</ele><time>2026-05-01T17:06:11Z</time></trkpt><trkpt lat="47.69752298524592" lon="16.07128962087641"><ele>407.0</ele><time>2026-05-01T17:06:12Z</time></trkpt><trkpt lat="47.69742787426408" lon="16.071043217388983"><ele>407.0</ele><time>2026-05-01T17:06:13Z</time></trkpt><trkpt lat="47.697333662577165" lon="16.07079608176958"><ele>407.0</ele><time>2026-05-01T17:06:14Z</time></trkpt><trkpt lat="47.69723920246221" lon="16.070549157095254"><ele>407.3333333333333</ele><time>2026-05-01T17:06:15Z</time></trkpt><trkpt lat="47.69714397208449" lon="16.070302434389877"><ele>407.66666666666663</ele><time>2026-05-01T17:06:16Z</time></trkpt><trkpt lat="47.697049005570456" lon="16.070058855806813"><ele>408.0</ele><time>2026-05-01T17:06:17Z</time></trkpt><trkpt lat="47.696951841511996" lon="16.06981082655084"><ele>407.66666666666663</ele><time>2026-05-01T17:06:18Z</time></trkpt><trkpt lat="47.69685343521999" lon="16.069565394038484"><ele>407.3333333333333</ele><time>2026-05-01T17:06:19Z</time></trkpt><trkpt lat="47.696753606941414" lon="16.069316014244432"><ele>407.0</ele><time>2026-05-01T17:06:20Z</time></trkpt><trkpt lat="47.69665481074948" lon="16.069065159489135"><ele>408.3333333333333</ele><time>2026-05-01T17:06:21Z</time></trkpt><trkpt lat="47.69655533405118" lon="16.068809136178178"><ele>409.66666666666663</ele><time>2026-05-01T17:06:22Z</time></trkpt><trkpt lat="47.696454631236726" lon="16.068554906956955"><ele>411.0</ele><time>2026-05-01T17:06:23Z</time></trkpt><trkpt lat="47.69635116423497" lon="16.068300066522745"><ele>411.0</ele><time>2026-05-01T17:06:24Z</time></trkpt><trkpt lat="47.696247421667934" lon="16.0680423070941"><ele>411.0</ele><time>2026-05-01T17:06:25Z</time></trkpt><trkpt lat="47.696144900813444" lon="16.067782893178837"><ele>411.0</ele><time>2026-05-01T17:06:26Z</time></trkpt><trkpt lat="47.696043125218246" lon="16.06751839646187"><ele>412.0</ele><time>2026-05-01T17:06:27Z</time></trkpt><trkpt lat="47.695941230876386" lon="16.06725357829639"><ele>413.0</ele><time>2026-05-01T17:06:28Z</time></trkpt><trkpt lat="47.695839171026805" lon="16.066991369211326"><ele>414.0</ele><time>2026-05-01T17:06:29Z</time></trkpt><trkpt lat="47.695740040872096" lon="16.066737567855593"><ele>415.0</ele><time>2026-05-01T17:06:30Z</time></trkpt><trkpt lat="47.69563885405983" lon="16.06647541454917"><ele>416.0</ele><time>2026-05-01T17:06:31Z</time></trkpt><trkpt lat="47.69553778010526" lon="16.066208887113625"><ele>417.0</ele><time>2026-05-01T17:06:32Z</time></trkpt><trkpt lat="47.695434510261656" lon="16.065938997821235"><ele>417.0</ele><time>2026-05-01T17:06:33Z</time></trkpt><trkpt lat="47.69533026615673" lon="16.06566617883742"><ele>417.0</ele><time>2026-05-01T17:06:34Z</time></trkpt><trkpt lat="47.69522485711586" lon="16.065391028996512"><ele>417.0</ele><time>2026-05-01T17:06:35Z</time></trkpt><trkpt lat="47.69511877764235" lon="16.06511116507912"><ele>418.0</ele><time>2026-05-01T17:06:36Z</time></trkpt><trkpt lat="47.695011100085466" lon="16.064830586868847"><ele>419.0</ele><time>2026-05-01T17:06:37Z</time></trkpt><trkpt lat="47.69490157214253" lon="16.064548611982534"><ele>420.0</ele><time>2026-05-01T17:06:38Z</time></trkpt><trkpt lat="47.694790815419" lon="16.064264126991887"><ele>421.0</ele><time>2026-05-01T17:06:39Z</time></trkpt><trkpt lat="47.694679038135895" lon="16.06397790665264"><ele>422.0</ele><time>2026-05-01T17:06:40Z</time></trkpt><trkpt lat="47.69456797015889" lon="16.06368935881227"><ele>423.0</ele><time>2026-05-01T17:06:41Z</time></trkpt><trkpt lat="47.694458393606446" lon="16.063401165138092"><ele>424.33333333333337</ele><time>2026-05-01T17:06:42Z</time></trkpt><trkpt lat="47.694351257538884" lon="16.063118297980207"><ele>425.6666666666667</ele><time>2026-05-01T17:06:43Z</time></trkpt><trkpt lat="47.69424611593063" lon="16.062847382503506"><ele>427.0</ele><time>2026-05-01T17:06:44Z</time></trkpt><trkpt lat="47.69414619773225" lon="16.0625876394019"><ele>428.33333333333337</ele><time>2026-05-01T17:06:45Z</time></trkpt><trkpt lat="47.694043869876865" lon="16.06232509538312"><ele>429.66666666666663</ele><time>2026-05-01T17:06:46Z</time></trkpt><trkpt lat="47.69394204296754" lon="16.062059762269506"><ele>431.0</ele><time>2026-05-01T17:06:47Z</time></trkpt><trkpt lat="47.693839974104904" lon="16.061795057660465"><ele>432.0</ele><time>2026-05-01T17:06:48Z</time></trkpt><trkpt lat="47.6937377269702" lon="16.06152953723178"><ele>433.0</ele><time>2026-05-01T17:06:49Z</time></trkpt><trkpt lat="47.69363546228705" lon="16.061263857874724"><ele>434.0</ele><time>2026-05-01T17:06:50Z</time></trkpt><trkpt lat="47.69353228506743" lon="16.06099758318601"><ele>434.0</ele><time>2026-05-01T17:06:51Z</time></trkpt><trkpt lat="47.69342836047561" lon="16.06073192186454"><ele>434.0</ele><time>2026-05-01T17:06:52Z</time></trkpt><trkpt lat="47.693325287276984" lon="16.060464537751603"><ele>434.0</ele><time>2026-05-01T17:06:53Z</time></trkpt><trkpt lat="47.693222018229775" lon="16.060196133845803"><ele>434.3333333333333</ele><time>2026-05-01T17:06:54Z</time></trkpt><trkpt lat="47.69311872766379" lon="16.05992708893034"><ele>434.66666666666663</ele><time>2026-05-01T17:06:55Z</time></trkpt><trkpt lat="47.693015211707106" lon="16.059658716580532"><ele>435.0</ele><time>2026-05-01T17:06:56Z</time></trkpt><trkpt lat="47.69291140209914" lon="16.0593910660923"><ele>435.0</ele><time>2026-05-01T17:06:57Z</time></trkpt><trkpt lat="47.692808647472" lon="16.059123614734887"><ele>435.0</ele><time>2026-05-01T17:06:58Z</time></trkpt><trkpt lat="47.69270652813062" lon="16.058857128976058"><ele>435.0</ele><time>2026-05-01T17:06:59Z</time></trkpt><trkpt lat="47.69260448574818" lon="16.058591620965263"><ele>434.66666666666663</ele><time>2026-05-01T17:07:00Z</time></trkpt><trkpt lat="47.69250262800351" lon="16.05832802287046"><ele>434.3333333333333</ele><time>2026-05-01T17:07:01Z</time></trkpt><trkpt lat="47.6924014384912" lon="16.058066945605592"><ele>434.0</ele><time>2026-05-01T17:07:02Z</time></trkpt><trkpt lat="47.69230052797938" lon="16.057808014156052"><ele>434.0</ele><time>2026-05-01T17:07:03Z</time></trkpt><trkpt lat="47.69220110232433" lon="16.057551678439136"><ele>434.0</ele><time>2026-05-01T17:07:04Z</time></trkpt><trkpt lat="47.692102783009936" lon="16.057297358712045"><ele>434.0</ele><time>2026-05-01T17:07:05Z</time></trkpt><trkpt lat="47.69200485326819" lon="16.05704520285576"><ele>433.66666666666663</ele><time>2026-05-01T17:07:06Z</time></trkpt><trkpt lat="47.691906905097284" lon="16.05679151856444"><ele>433.33333333333337</ele><time>2026-05-01T17:07:07Z</time></trkpt><trkpt lat="47.69180852459252" lon="16.056536433536337"><ele>433.0</ele><time>2026-05-01T17:07:08Z</time></trkpt><trkpt lat="47.691708160789666" lon="16.05627834802324"><ele>434.0</ele><time>2026-05-01T17:07:09Z</time></trkpt><trkpt lat="47.69160746788946" lon="16.05601789357999"><ele>435.0</ele><time>2026-05-01T17:07:10Z</time></trkpt><trkpt lat="47.69150657004833" lon="16.055756973783133"><ele>436.0</ele><time>2026-05-01T17:07:11Z</time></trkpt><trkpt lat="47.691405059943705" lon="16.055496030619913"><ele>436.33333333333337</ele><time>2026-05-01T17:07:12Z</time></trkpt><trkpt lat="47.691303917422935" lon="16.05523494242003"><ele>436.66666666666663</ele><time>2026-05-01T17:07:13Z</time></trkpt><trkpt lat="47.691202664908" lon="16.054973681978815"><ele>437.0</ele><time>2026-05-01T17:07:14Z</time></trkpt><trkpt lat="47.69110185725716" lon="16.05471168212346"><ele>438.66666666666663</ele><time>2026-05-01T17:07:15Z</time></trkpt><trkpt lat="47.69100102477643" lon="16.05444859272863"><ele>440.33333333333337</ele><time>2026-05-01T17:07:16Z</time></trkpt><trkpt lat="47.69089995083776" lon="16.054185904886086"><ele>442.0</ele><time>2026-05-01T17:07:17Z</time></trkpt><trkpt lat="47.69079714311646" lon="16.053924706126597"><ele>443.0</ele><time>2026-05-01T17:07:18Z</time></trkpt><trkpt lat="47.6906952698102" lon="16.05366380070945"><ele>444.0</ele><time>2026-05-01T17:07:19Z</time></trkpt><trkpt lat="47.69059789314426" lon="16.053412274879364"><ele>445.0</ele><time>2026-05-01T17:07:20Z</time></trkpt><trkpt lat="47.69050034350243" lon="16.05315964184217"><ele>447.0</ele><time>2026-05-01T17:07:21Z</time></trkpt><trkpt lat="47.69040136499066" lon="16.052904587641688"><ele>449.0</ele><time>2026-05-01T17:07:22Z</time></trkpt><trkpt lat="47.69030236418336" lon="16.052648269557494"><ele>451.0</ele><time>2026-05-01T17:07:23Z</time></trkpt><trkpt lat="47.69020138677796" lon="16.052388887528696"><ele>452.0</ele><time>2026-05-01T17:07:24Z</time></trkpt><trkpt lat="47.69010097368147" lon="16.052128245558645"><ele>453.0</ele><time>2026-05-01T17:07:25Z</time></trkpt><trkpt lat="47.6900007090288" lon="16.051868206390807"><ele>454.0</ele><time>2026-05-01T17:07:26Z</time></trkpt><trkpt lat="47.6899003026899" lon="16.051608221285186"><ele>454.0</ele><time>2026-05-01T17:07:27Z</time></trkpt><trkpt lat="47.68980008621064" lon="16.0513505654186"><ele>454.0</ele><time>2026-05-01T17:07:28Z</time></trkpt><trkpt lat="47.68970002597903" lon="16.051095411675046"><ele>454.0</ele><time>2026-05-01T17:07:29Z</time></trkpt><trkpt lat="47.689600931642474" lon="16.05084324745009"><ele>454.33333333333337</ele><time>2026-05-01T17:07:30Z</time></trkpt><trkpt lat="47.68950406928629" lon="16.050589781707462"><ele>454.66666666666663</ele><time>2026-05-01T17:07:31Z</time></trkpt><trkpt lat="47.68940306528708" lon="16.050336815537637"><ele>455.0</ele><time>2026-05-01T17:07:32Z</time></trkpt><trkpt lat="47.68930623856913" lon="16.05008164938689"><ele>456.0</ele><time>2026-05-01T17:07:33Z</time></trkpt><trkpt lat="47.689207172844625" lon="16.04982512227385"><ele>457.0</ele><time>2026-05-01T17:07:34Z</time></trkpt><trkpt lat="47.689109255774376" lon="16.0495678780635"><ele>458.0</ele><time>2026-05-01T17:07:35Z</time></trkpt><trkpt lat="47.689011489020686" lon="16.04931099511854"><ele>459.0</ele><time>2026-05-01T17:07:36Z</time></trkpt><trkpt lat="47.68891371888771" lon="16.049055616106255"><ele>460.0</ele><time>2026-05-01T17:07:37Z</time></trkpt><trkpt lat="47.688815858602176" lon="16.048799940266896"><ele>461.0</ele><time>2026-05-01T17:07:38Z</time></trkpt><trkpt lat="47.688717776656496" lon="16.048543012274617"><ele>461.66666666666663</ele><time>2026-05-01T17:07:39Z</time></trkpt><trkpt lat="47.68861802972043" lon="16.048287462827417"><ele>462.33333333333337</ele><time>2026-05-01T17:07:40Z</time></trkpt><trkpt lat="47.68851873271805" lon="16.04803044631582"><ele>463.0</ele><time>2026-05-01T17:07:41Z</time></trkpt><trkpt lat="47.68841894232483" lon="16.047773995933884"><ele>462.0</ele><time>2026-05-01T17:07:42Z</time></trkpt><trkpt lat="47.68831796414542" lon="16.047516921313772"><ele>461.0</ele><time>2026-05-01T17:07:43Z</time></trkpt><trkpt lat="47.68821724430488" lon="16.04725946101893"><ele>460.0</ele><time>2026-05-01T17:07:44Z</time></trkpt><trkpt lat="47.68811726876494" lon="16.0470005984279"><ele>460.0</ele><time>2026-05-01T17:07:45Z</time></trkpt><trkpt lat="47.68801646580327" lon="16.04673859025457"><ele>460.0</ele><time>2026-05-01T17:07:46Z</time></trkpt><trkpt lat="47.687913589773274" lon="16.04647376688124"><ele>460.0</ele><time>2026-05-01T17:07:47Z</time></trkpt><trkpt lat="47.68780827210474" lon="16.04620580851543"><ele>460.6666666666667</ele><time>2026-05-01T17:07:48Z</time></trkpt><trkpt lat="47.68770075073806" lon="16.045934392963645"><ele>461.33333333333337</ele><time>2026-05-01T17:07:49Z</time></trkpt><trkpt lat="47.687592748382556" lon="16.045661303390226"><ele>462.0</ele><time>2026-05-01T17:07:50Z</time></trkpt><trkpt lat="47.68749028469597" lon="16.045401719209536"><ele>462.66666666666663</ele><time>2026-05-01T17:07:51Z</time></trkpt><trkpt lat="47.687388139846604" lon="16.045142912929105"><ele>463.3333333333333</ele><time>2026-05-01T17:07:52Z</time></trkpt><trkpt lat="47.68728414355333" lon="16.04488215368597"><ele>464.0</ele><time>2026-05-01T17:07:53Z</time></trkpt><trkpt lat="47.68717801808453" lon="16.04462239790557"><ele>464.66666666666663</ele><time>2026-05-01T17:07:54Z</time></trkpt><trkpt lat="47.68707025318436" lon="16.044359828758125"><ele>465.33333333333337</ele><time>2026-05-01T17:07:55Z</time></trkpt><trkpt lat="47.68696190251155" lon="16.044095000434876"><ele>466.0</ele><time>2026-05-01T17:07:56Z</time></trkpt><trkpt lat="47.68685202367246" lon="16.04382949491635"><ele>466.0</ele><time>2026-05-01T17:07:57Z</time></trkpt><trkpt lat="47.68674231816696" lon="16.043564502010355"><ele>466.0</ele><time>2026-05-01T17:07:58Z</time></trkpt><trkpt lat="47.68663274310275" lon="16.043301286798922"><ele>466.0</ele><time>2026-05-01T17:07:59Z</time></trkpt><trkpt lat="47.68652267677" lon="16.043038819677022"><ele>466.0</ele><time>2026-05-01T17:08:00Z</time></trkpt><trkpt lat="47.68641248545846" lon="16.04277755716004"><ele>466.0</ele><time>2026-05-01T17:08:01Z</time></trkpt><trkpt lat="47.68630160265402" lon="16.042514900182244"><ele>466.0</ele><time>2026-05-01T17:08:02Z</time></trkpt><trkpt lat="47.686190708514644" lon="16.042249992350257"><ele>466.6666666666667</ele><time>2026-05-01T17:08:03Z</time></trkpt><trkpt lat="47.686078794641645" lon="16.04198481854495"><ele>467.33333333333337</ele><time>2026-05-01T17:08:04Z</time></trkpt><trkpt lat="47.68596556789301" lon="16.041717818806234"><ele>468.0</ele><time>2026-05-01T17:08:05Z</time></trkpt><trkpt lat="47.68585117182228" lon="16.041449683182258"><ele>468.0</ele><time>2026-05-01T17:08:06Z</time></trkpt><trkpt lat="47.6857348128798" lon="16.041179977102576"><ele>468.0</ele><time>2026-05-01T17:08:07Z</time></trkpt><trkpt lat="47.685617808441485" lon="16.040909202850283"><ele>468.0</ele><time>2026-05-01T17:08:08Z</time></trkpt><trkpt lat="47.68550167685694" lon="16.04063713529801"><ele>468.0</ele><time>2026-05-01T17:08:09Z</time></trkpt><trkpt lat="47.68538711796777" lon="16.040367098714754"><ele>468.0</ele><time>2026-05-01T17:08:10Z</time></trkpt><trkpt lat="47.685273482071636" lon="16.040100617403667"><ele>468.0</ele><time>2026-05-01T17:08:11Z</time></trkpt><trkpt lat="47.685163544400226" lon="16.039845175093905"><ele>469.0</ele><time>2026-05-01T17:08:12Z</time></trkpt><trkpt lat="47.68505829257952" lon="16.039600570943847"><ele>470.0</ele><time>2026-05-01T17:08:13Z</time></trkpt><trkpt lat="47.68495194952831" lon="16.039354470017383"><ele>471.0</ele><time>2026-05-01T17:08:14Z</time></trkpt><trkpt lat="47.684845735180666" lon="16.039107304581655"><ele>471.0</ele><time>2026-05-01T17:08:15Z</time></trkpt><trkpt lat="47.68474100444357" lon="16.038859580230675"><ele>471.0</ele><time>2026-05-01T17:08:16Z</time></trkpt><trkpt lat="47.68463735793986" lon="16.038609547218527"><ele>471.0</ele><time>2026-05-01T17:08:17Z</time></trkpt><trkpt lat="47.684533216432655" lon="16.03835970396859"><ele>473.33333333333337</ele><time>2026-05-01T17:08:18Z</time></trkpt><trkpt lat="47.68442783368075" lon="16.038109779039857"><ele>475.6666666666667</ele><time>2026-05-01T17:08:19Z</time></trkpt><trkpt lat="47.68432227699977" lon="16.037858739222926"><ele>478.0</ele><time>2026-05-01T17:08:20Z</time></trkpt><trkpt lat="47.684216093509846" lon="16.037604476228662"><ele>478.6666666666667</ele><time>2026-05-01T17:08:21Z</time></trkpt><trkpt lat="47.68410978762913" lon="16.037347691236583"><ele>479.33333333333337</ele><time>2026-05-01T17:08:22Z</time></trkpt><trkpt lat="47.6840019881686" lon="16.037090474320078"><ele>480.0</ele><time>2026-05-01T17:08:23Z</time></trkpt><trkpt lat="47.683893455883045" lon="16.03683184883317"><ele>480.0</ele><time>2026-05-01T17:08:24Z</time></trkpt><trkpt lat="47.683785631541454" lon="16.036573206084284"><ele>480.0</ele><time>2026-05-01T17:08:25Z</time></trkpt><trkpt lat="47.68367966560571" lon="16.036313384458957"><ele>480.0</ele><time>2026-05-01T17:08:26Z</time></trkpt><trkpt lat="47.683575145030034" lon="16.036054749090525"><ele>481.33333333333337</ele><time>2026-05-01T17:08:27Z</time></trkpt><trkpt lat="47.68347082156783" lon="16.035795445852482"><ele>482.6666666666667</ele><time>2026-05-01T17:08:28Z</time></trkpt><trkpt lat="47.68336636302039" lon="16.03553635649344"><ele>484.0</ele><time>2026-05-01T17:08:29Z</time></trkpt><trkpt lat="47.68326148651095" lon="16.035279874916654"><ele>484.0</ele><time>2026-05-01T17:08:30Z</time></trkpt><trkpt lat="47.68315622781751" lon="16.03502316865857"><ele>484.0</ele><time>2026-05-01T17:08:31Z</time></trkpt><trkpt lat="47.68304850249509" lon="16.034767676018213"><ele>484.0</ele><time>2026-05-01T17:08:32Z</time></trkpt><trkpt lat="47.68293969012465" lon="16.034512532014972"><ele>484.6666666666667</ele><time>2026-05-01T17:08:33Z</time></trkpt><trkpt lat="47.682828314059485" lon="16.034256504381723"><ele>485.33333333333337</ele><time>2026-05-01T17:08:34Z</time></trkpt><trkpt lat="47.68271475215644" lon="16.03400222269197"><ele>486.0</ele><time>2026-05-01T17:08:35Z</time></trkpt><trkpt lat="47.682597506899555" lon="16.033751567033544"><ele>486.0</ele><time>2026-05-01T17:08:36Z</time></trkpt><trkpt lat="47.682478325906594" lon="16.033506137272635"><ele>486.0</ele><time>2026-05-01T17:08:37Z</time></trkpt><trkpt lat="47.68235685207037" lon="16.033266219836037"><ele>486.0</ele><time>2026-05-01T17:08:38Z</time></trkpt><trkpt lat="47.68223386876141" lon="16.033032325605852"><ele>486.0</ele><time>2026-05-01T17:08:39Z</time></trkpt><trkpt lat="47.68210826086362" lon="16.03280290255873"><ele>486.0</ele><time>2026-05-01T17:08:40Z</time></trkpt><trkpt lat="47.681979933053704" lon="16.0325762596946"><ele>486.0</ele><time>2026-05-01T17:08:41Z</time></trkpt><trkpt lat="47.68185011133646" lon="16.032356505766327"><ele>487.0</ele><time>2026-05-01T17:08:42Z</time></trkpt><trkpt lat="47.68172408575874" lon="16.032152303796202"><ele>488.0</ele><time>2026-05-01T17:08:43Z</time></trkpt><trkpt lat="47.681595550170556" lon="16.031946775963043"><ele>489.0</ele><time>2026-05-01T17:08:44Z</time></trkpt><trkpt lat="47.68146305903361" lon="16.031740243478183"><ele>490.66666666666663</ele><time>2026-05-01T17:08:45Z</time></trkpt><trkpt lat="47.68132730592346" lon="16.031531316299443"><ele>492.3333333333333</ele><time>2026-05-01T17:08:46Z</time></trkpt><trkpt lat="47.68118990573402" lon="16.031317892319457"><ele>494.0</ele><time>2026-05-01T17:08:47Z</time></trkpt><trkpt lat="47.68105119271165" lon="16.031101515367556"><ele>490.66666666666663</ele><time>2026-05-01T17:08:48Z</time></trkpt><trkpt lat="47.6809144297992" lon="16.030884566805852"><ele>487.33333333333337</ele><time>2026-05-01T17:08:49Z</time></trkpt><trkpt lat="47.680779615108406" lon="16.0306653607767"><ele>484.0</ele><time>2026-05-01T17:08:50Z</time></trkpt><trkpt lat="47.68064805229045" lon="16.03044196433125"><ele>482.6666666666667</ele><time>2026-05-01T17:08:51Z</time></trkpt><trkpt lat="47.68052147091953" lon="16.030212076417463"><ele>481.33333333333337</ele><time>2026-05-01T17:08:52Z</time></trkpt><trkpt lat="47.680397829815895" lon="16.029972430147062"><ele>480.0</ele><time>2026-05-01T17:08:53Z</time></trkpt><trkpt lat="47.68027513525204" lon="16.029724844478203"><ele>479.66666666666663</ele><time>2026-05-01T17:08:54Z</time></trkpt><trkpt lat="47.68015584225992" lon="16.029471469559617"><ele>479.3333333333333</ele><time>2026-05-01T17:08:55Z</time></trkpt><trkpt lat="47.68004088195033" lon="16.029211466195353"><ele>479.0</ele><time>2026-05-01T17:08:56Z</time></trkpt><trkpt lat="47.6799321272164" lon="16.02894485023072"><ele>479.0</ele><time>2026-05-01T17:08:57Z</time></trkpt><trkpt lat="47.67982953404828" lon="16.028673311372746"><ele>479.0</ele><time>2026-05-01T17:08:58Z</time></trkpt><trkpt lat="47.67973341025719" lon="16.028401001068374"><ele>479.0</ele><time>2026-05-01T17:08:59Z</time></trkpt><trkpt lat="47.67964237208554" lon="16.028123414564863"><ele>479.3333333333333</ele><time>2026-05-01T17:09:00Z</time></trkpt><trkpt lat="47.67955552375589" lon="16.027839727335103"><ele>479.66666666666663</ele><time>2026-05-01T17:09:01Z</time></trkpt><trkpt lat="47.67947438720333" lon="16.027549011676673"><ele>480.0</ele><time>2026-05-01T17:09:02Z</time></trkpt><trkpt lat="47.67939905235027" lon="16.027253741839946"><ele>485.0</ele><time>2026-05-01T17:09:03Z</time></trkpt><trkpt lat="47.67932845518698" lon="16.026954602435715"><ele>490.0</ele><time>2026-05-01T17:09:04Z</time></trkpt><trkpt lat="47.67926356448405" lon="16.026650684963098"><ele>495.0</ele><time>2026-05-01T17:09:05Z</time></trkpt><trkpt lat="47.67920586536241" lon="16.026342717523036"><ele>496.0</ele><time>2026-05-01T17:09:06Z</time></trkpt><trkpt lat="47.679154940117925" lon="16.026031235726148"><ele>497.0</ele><time>2026-05-01T17:09:07Z</time></trkpt><trkpt lat="47.67910995365231" lon="16.025723766069223"><ele>498.0</ele><time>2026-05-01T17:09:08Z</time></trkpt><trkpt lat="47.67907463619401" lon="16.02543052968105"><ele>498.0</ele><time>2026-05-01T17:09:09Z</time></trkpt><trkpt lat="47.679047325560624" lon="16.025150737109218"><ele>498.0</ele><time>2026-05-01T17:09:10Z</time></trkpt><trkpt lat="47.679024903206944" lon="16.024870414325015"><ele>498.0</ele><time>2026-05-01T17:09:11Z</time></trkpt><trkpt lat="47.67900623749586" lon="16.024586558866552"><ele>498.0</ele><time>2026-05-01T17:09:12Z</time></trkpt><trkpt lat="47.678990387173855" lon="16.02429756894385"><ele>498.0</ele><time>2026-05-01T17:09:13Z</time></trkpt><trkpt lat="47.678980199760645" lon="16.0240043308105"><ele>498.0</ele><time>2026-05-01T17:09:14Z</time></trkpt><trkpt lat="47.678976642717174" lon="16.0237082262414"><ele>496.66666666666663</ele><time>2026-05-01T17:09:15Z</time></trkpt><trkpt lat="47.67897873845639" lon="16.02340888903543"><ele>495.3333333333333</ele><time>2026-05-01T17:09:16Z</time></trkpt><trkpt lat="47.67898637475257" lon="16.023108536650593"><ele>494.0</ele><time>2026-05-01T17:09:17Z</time></trkpt><trkpt lat="47.67899984838472" lon="16.022810889444223"><ele>492.3333333333333</ele><time>2026-05-01T17:09:18Z</time></trkpt><trkpt lat="47.67901802275343" lon="16.022515432037096"><ele>490.66666666666663</ele><time>2026-05-01T17:09:19Z</time></trkpt><trkpt lat="47.67904126098256" lon="16.022223416774956"><ele>489.0</ele><time>2026-05-01T17:09:20Z</time></trkpt><trkpt lat="47.67906695953395" lon="16.021927456499537"><ele>489.33333333333337</ele><time>2026-05-01T17:09:21Z</time></trkpt><trkpt lat="47.679090681958016" lon="16.02162996983125"><ele>489.6666666666667</ele><time>2026-05-01T17:09:22Z</time></trkpt><trkpt lat="47.67911305562827" lon="16.021327101613714"><ele>490.0</ele><time>2026-05-01T17:09:23Z</time></trkpt><trkpt lat="47.67913018981384" lon="16.02102366350735"><ele>492.0</ele><time>2026-05-01T17:09:24Z</time></trkpt><trkpt lat="47.67914156654695" lon="16.020721031346504"><ele>494.0</ele><time>2026-05-01T17:09:25Z</time></trkpt><trkpt lat="47.67914707661086" lon="16.020417474383514"><ele>496.0</ele><time>2026-05-01T17:09:26Z</time></trkpt><trkpt lat="47.67914531518091" lon="16.0201096463724"><ele>497.0</ele><time>2026-05-01T17:09:27Z</time></trkpt><trkpt lat="47.67913488697596" lon="16.01979869153741"><ele>498.0</ele><time>2026-05-01T17:09:28Z</time></trkpt><trkpt lat="47.67911244038821" lon="16.019488738909455"><ele>499.0</ele><time>2026-05-01T17:09:29Z</time></trkpt><trkpt lat="47.67907639983349" lon="16.019179153372107"><ele>501.33333333333337</ele><time>2026-05-01T17:09:30Z</time></trkpt><trkpt lat="47.67903003417935" lon="16.018869722325874"><ele>503.66666666666663</ele><time>2026-05-01T17:09:31Z</time></trkpt><trkpt lat="47.67897317492743" lon="16.01856354069836"><ele>506.0</ele><time>2026-05-01T17:09:32Z</time></trkpt><trkpt lat="47.678907314921155" lon="16.01826369565575"><ele>508.3333333333333</ele><time>2026-05-01T17:09:33Z</time></trkpt><trkpt lat="47.678830900514235" lon="16.017971874829566"><ele>510.66666666666663</ele><time>2026-05-01T17:09:34Z</time></trkpt><trkpt lat="47.67874711362053" lon="16.01768834033068"><ele>513.0</ele><time>2026-05-01T17:09:35Z</time></trkpt><trkpt lat="47.67865309307799" lon="16.017410421403067"><ele>513.6666666666666</ele><time>2026-05-01T17:09:36Z</time></trkpt><trkpt lat="47.678548887771726" lon="16.017143591451283"><ele>514.3333333333333</ele><time>2026-05-01T17:09:37Z</time></trkpt><trkpt lat="47.67843829440835" lon="16.01688542565594"><ele>515.0</ele><time>2026-05-01T17:09:38Z</time></trkpt><trkpt lat="47.678313124874215" lon="16.016647831668468"><ele>515.0</ele><time>2026-05-01T17:09:39Z</time></trkpt><trkpt lat="47.67818611753645" lon="16.016413943789534"><ele>515.0</ele><time>2026-05-01T17:09:40Z</time></trkpt><trkpt lat="47.67805383679506" lon="16.016187687461723"><ele>515.0</ele><time>2026-05-01T17:09:41Z</time></trkpt><trkpt lat="47.677915006859365" lon="16.015974055980607"><ele>513.3333333333333</ele><time>2026-05-01T17:09:42Z</time></trkpt><trkpt lat="47.677766797787" lon="16.015772449560444"><ele>511.66666666666663</ele><time>2026-05-01T17:09:43Z</time></trkpt><trkpt lat="47.67761091522713" lon="16.015575019822386"><ele>510.0</ele><time>2026-05-01T17:09:44Z</time></trkpt><trkpt lat="47.67744723789638" lon="16.015386408801042"><ele>510.0</ele><time>2026-05-01T17:09:45Z</time></trkpt><trkpt lat="47.67727800684684" lon="16.01520984042785"><ele>510.0</ele><time>2026-05-01T17:09:46Z</time></trkpt><trkpt lat="47.67711641807769" lon="16.01505063105916"><ele>510.0</ele><time>2026-05-01T17:09:47Z</time></trkpt><trkpt lat="47.676956377656225" lon="16.01489932405005"><ele>505.0</ele><time>2026-05-01T17:09:48Z</time></trkpt><trkpt lat="47.67678999835304" lon="16.01474859364314"><ele>500.0</ele><time>2026-05-01T17:09:49Z</time></trkpt><trkpt lat="47.676626095059" lon="16.014594007199793"><ele>495.0</ele><time>2026-05-01T17:09:50Z</time></trkpt><trkpt lat="47.676468560872614" lon="16.014440707239597"><ele>495.0</ele><time>2026-05-01T17:09:51Z</time></trkpt><trkpt lat="47.67631586498459" lon="16.014282447886465"><ele>495.0</ele><time>2026-05-01T17:09:52Z</time></trkpt><trkpt lat="47.67616381953393" lon="16.01411269136577"><ele>495.0</ele><time>2026-05-01T17:09:53Z</time></trkpt><trkpt lat="47.67601207754003" lon="16.013928190588718"><ele>495.0</ele><time>2026-05-01T17:09:54Z</time></trkpt><trkpt lat="47.6758613758918" lon="16.013728042723752"><ele>495.0</ele><time>2026-05-01T17:09:55Z</time></trkpt><trkpt lat="47.67571489661981" lon="16.01351032697314"><ele>495.0</ele><time>2026-05-01T17:09:56Z</time></trkpt><trkpt lat="47.6755733894179" lon="16.01328064233164"><ele>495.0</ele><time>2026-05-01T17:09:57Z</time></trkpt><trkpt lat="47.67543813317291" lon="16.013035683791742"><ele>495.0</ele><time>2026-05-01T17:09:58Z</time></trkpt><trkpt lat="47.67529947197759" lon="16.012765891424202"><ele>495.0</ele><time>2026-05-01T17:09:59Z</time></trkpt><trkpt lat="47.67516399104169" lon="16.012466344672422"><ele>504.0</ele><time>2026-05-01T17:10:00Z</time></trkpt><trkpt lat="47.67503998800668" lon="16.01214126403057"><ele>513.0</ele><time>2026-05-01T17:10:01Z</time></trkpt><trkpt lat="47.6749299831515" lon="16.011790194156283"><ele>515.0</ele><time>2026-05-01T17:10:02Z</time></trkpt><trkpt lat="47.67483194727978" lon="16.01141677946636"><ele>517.0</ele><time>2026-05-01T17:10:03Z</time></trkpt><trkpt lat="47.67474576344764" lon="16.011024377842023"><ele>517.5</ele><time>2026-05-01T17:10:04Z</time></trkpt><trkpt lat="47.67467562024079" lon="16.01061556202138"><ele>518.0</ele><time>2026-05-01T17:10:05Z</time></trkpt><trkpt lat="47.674620056183024" lon="16.010190166433365"><ele>517.0</ele><time>2026-05-01T17:10:06Z</time></trkpt><trkpt lat="47.67457097023347" lon="16.00976661139499"><ele>516.0</ele><time>2026-05-01T17:10:07Z</time></trkpt><trkpt lat="47.67452496653517" lon="16.009353413004472"><ele>517.5</ele><time>2026-05-01T17:10:08Z</time></trkpt><trkpt lat="47.67447804169841" lon="16.008929148158078"><ele>519.0</ele><time>2026-05-01T17:10:09Z</time></trkpt><trkpt lat="47.67442069147773" lon="16.008508575247788"><ele>515.5</ele><time>2026-05-01T17:10:10Z</time></trkpt><trkpt lat="47.6743459221821" lon="16.00809966358095"><ele>512.0</ele><time>2026-05-01T17:10:11Z</time></trkpt><trkpt lat="47.674247424174474" lon="16.00769683616333"><ele>511.5</ele><time>2026-05-01T17:10:12Z</time></trkpt><trkpt lat="47.67413466267276" lon="16.007299389695845"><ele>511.0</ele><time>2026-05-01T17:10:13Z</time></trkpt><trkpt lat="47.674005344212894" lon="16.006905858712287"><ele>513.5</ele><time>2026-05-01T17:10:14Z</time></trkpt><trkpt lat="47.67386178448343" lon="16.006519550028543"><ele>516.0</ele><time>2026-05-01T17:10:15Z</time></trkpt><trkpt lat="47.67370345629194" lon="16.006142417185533"><ele>521.0</ele><time>2026-05-01T17:10:16Z</time></trkpt><trkpt lat="47.67353317526328" lon="16.005772070209066"><ele>526.0</ele><time>2026-05-01T17:10:17Z</time></trkpt><trkpt lat="47.67335673509874" lon="16.005404735576032"><ele>526.0</ele><time>2026-05-01T17:10:18Z</time></trkpt><trkpt lat="47.6731806434772" lon="16.005037437367324"><ele>526.0</ele><time>2026-05-01T17:10:19Z</time></trkpt><trkpt lat="47.67301086686535" lon="16.00466546682439"><ele>525.0</ele><time>2026-05-01T17:10:20Z</time></trkpt><trkpt lat="47.67285238533266" lon="16.00428579550495"><ele>524.0</ele><time>2026-05-01T17:10:21Z</time></trkpt><trkpt lat="47.67271230617124" lon="16.003896790258615"><ele>525.0</ele><time>2026-05-01T17:10:22Z</time></trkpt><trkpt lat="47.672588460838114" lon="16.003495152796145"><ele>526.0</ele><time>2026-05-01T17:10:23Z</time></trkpt><trkpt lat="47.67247729612331" lon="16.00308176916431"><ele>526.0</ele><time>2026-05-01T17:10:24Z</time></trkpt><trkpt lat="47.672384207953755" lon="16.002660571312497"><ele>526.0</ele><time>2026-05-01T17:10:25Z</time></trkpt><trkpt lat="47.67230928562417" lon="16.002232240664778"><ele>525.0</ele><time>2026-05-01T17:10:26Z</time></trkpt><trkpt lat="47.67224747280017" lon="16.0017982454781"><ele>524.0</ele><time>2026-05-01T17:10:27Z</time></trkpt><trkpt lat="47.67220031208955" lon="16.001358841375136"><ele>520.5</ele><time>2026-05-01T17:10:28Z</time></trkpt><trkpt lat="47.67217099311108" lon="16.00091636607711"><ele>517.0</ele><time>2026-05-01T17:10:29Z</time></trkpt><trkpt lat="47.67215930986509" lon="16.0004710930125"><ele>512.5</ele><time>2026-05-01T17:10:30Z</time></trkpt><trkpt lat="47.67216468983141" lon="16.000024923897296"><ele>508.0</ele><time>2026-05-01T17:10:31Z</time></trkpt><trkpt lat="47.67218463309459" lon="15.9995779729122"><ele>505.5</ele><time>2026-05-01T17:10:32Z</time></trkpt><trkpt lat="47.67222564110072" lon="15.999134332802114"><ele>503.0</ele><time>2026-05-01T17:10:33Z</time></trkpt><trkpt lat="47.672286091096616" lon="15.998692075032386"><ele>504.5</ele><time>2026-05-01T17:10:34Z</time></trkpt><trkpt lat="47.6723593949214" lon="15.998250631250825"><ele>506.0</ele><time>2026-05-01T17:10:35Z</time></trkpt><trkpt lat="47.67244769270031" lon="15.997814080297218"><ele>510.0</ele><time>2026-05-01T17:10:36Z</time></trkpt><trkpt lat="47.67255219859682" lon="15.997387131750507"><ele>514.0</ele><time>2026-05-01T17:10:37Z</time></trkpt><trkpt lat="47.67267247971695" lon="15.99696864334699"><ele>513.0</ele><time>2026-05-01T17:10:38Z</time></trkpt><trkpt lat="47.67280774744733" lon="15.99656018214694"><ele>512.0</ele><time>2026-05-01T17:10:39Z</time></trkpt><trkpt lat="47.672953659099875" lon="15.996158909322125"><ele>514.5</ele><time>2026-05-01T17:10:40Z</time></trkpt><trkpt lat="47.673102745561444" lon="15.995760397217875"><ele>517.0</ele><time>2026-05-01T17:10:41Z</time></trkpt><trkpt lat="47.67324871855931" lon="15.995364283919223"><ele>517.5</ele><time>2026-05-01T17:10:42Z</time></trkpt><trkpt lat="47.67337922375076" lon="15.994979061867832"><ele>518.0</ele><time>2026-05-01T17:10:43Z</time></trkpt><trkpt lat="47.673489573657214" lon="15.994606069392717"><ele>518.0</ele><time>2026-05-01T17:10:44Z</time></trkpt><trkpt lat="47.6735812177164" lon="15.99423040515282"><ele>518.0</ele><time>2026-05-01T17:10:45Z</time></trkpt><trkpt lat="47.67365833333555" lon="15.993850577418346"><ele>518.5</ele><time>2026-05-01T17:10:46Z</time></trkpt><trkpt lat="47.6737236673045" lon="15.993459276992693"><ele>519.0</ele><time>2026-05-01T17:10:47Z</time></trkpt><trkpt lat="47.67378094438424" lon="15.99305376272314"><ele>519.0</ele><time>2026-05-01T17:10:48Z</time></trkpt><trkpt lat="47.67382334746436" lon="15.992640644750201"><ele>519.0</ele><time>2026-05-01T17:10:49Z</time></trkpt><trkpt lat="47.67385124204105" lon="15.992218038897299"><ele>515.0</ele><time>2026-05-01T17:10:50Z</time></trkpt><trkpt lat="47.6738638262311" lon="15.991789174558905"><ele>511.0</ele><time>2026-05-01T17:10:51Z</time></trkpt><trkpt lat="47.67386094865118" lon="15.991355959980353"><ele>506.0</ele><time>2026-05-01T17:10:52Z</time></trkpt><trkpt lat="47.67384566958251" lon="15.990920596377201"><ele>501.0</ele><time>2026-05-01T17:10:53Z</time></trkpt><trkpt lat="47.67381462674757" lon="15.99048815137327"><ele>498.0</ele><time>2026-05-01T17:10:54Z</time></trkpt><trkpt lat="47.673767319598646" lon="15.990058951900366"><ele>495.0</ele><time>2026-05-01T17:10:55Z</time></trkpt><trkpt lat="47.673701741540036" lon="15.989635779357087"><ele>495.0</ele><time>2026-05-01T17:10:56Z</time></trkpt><trkpt lat="47.67361992535853" lon="15.989218050875094"><ele>495.0</ele><time>2026-05-01T17:10:57Z</time></trkpt><trkpt lat="47.67352320363382" lon="15.988803204140922"><ele>504.0</ele><time>2026-05-01T17:10:58Z</time></trkpt><trkpt lat="47.67341208457963" lon="15.98839536215259"><ele>513.0</ele><time>2026-05-01T17:10:59Z</time></trkpt><trkpt lat="47.673284107270966" lon="15.987995488868998"><ele>513.0</ele><time>2026-05-01T17:11:00Z</time></trkpt><trkpt lat="47.67313843166825" lon="15.98760887726214"><ele>513.0</ele><time>2026-05-01T17:11:01Z</time></trkpt><trkpt lat="47.67297417497646" lon="15.987235196698395"><ele>513.5</ele><time>2026-05-01T17:11:02Z</time></trkpt><trkpt lat="47.672794966881774" lon="15.986872125995827"><ele>514.0</ele><time>2026-05-01T17:11:03Z</time></trkpt><trkpt lat="47.67260127025792" lon="15.986520964970335"><ele>513.0</ele><time>2026-05-01T17:11:04Z</time></trkpt><trkpt lat="47.67239792889495" lon="15.98618063497811"><ele>512.0</ele><time>2026-05-01T17:11:05Z</time></trkpt><trkpt lat="47.67218409446542" lon="15.98585251311246"><ele>512.0</ele><time>2026-05-01T17:11:06Z</time></trkpt><trkpt lat="47.67195917119956" lon="15.985542347592835"><ele>512.0</ele><time>2026-05-01T17:11:07Z</time></trkpt><trkpt lat="47.67172552465699" lon="15.985248930327533"><ele>513.5</ele><time>2026-05-01T17:11:08Z</time></trkpt><trkpt lat="47.671492263983104" lon="15.9849671689473"><ele>515.0</ele><time>2026-05-01T17:11:09Z</time></trkpt><trkpt lat="47.67126254115503" lon="15.984689860877143"><ele>513.0</ele><time>2026-05-01T17:11:10Z</time></trkpt><trkpt lat="47.671036091064245" lon="15.984414902255017"><ele>511.0</ele><time>2026-05-01T17:11:11Z</time></trkpt><trkpt lat="47.67081825744411" lon="15.984120807299643"><ele>505.5</ele><time>2026-05-01T17:11:12Z</time></trkpt><trkpt lat="47.67061752116177" lon="15.983812367718171"><ele>500.0</ele><time>2026-05-01T17:11:13Z</time></trkpt><trkpt lat="47.67043899853869" lon="15.983476577893649"><ele>497.5</ele><time>2026-05-01T17:11:14Z</time></trkpt><trkpt lat="47.67028027670563" lon="15.983123750056773"><ele>495.0</ele><time>2026-05-01T17:11:15Z</time></trkpt><trkpt lat="47.670131798372786" lon="15.982751450799908"><ele>501.0</ele><time>2026-05-01T17:11:16Z</time></trkpt><trkpt lat="47.67000040830243" lon="15.982366016754936"><ele>507.0</ele><time>2026-05-01T17:11:17Z</time></trkpt><trkpt lat="47.66989479376781" lon="15.981969515872084"><ele>506.0</ele><time>2026-05-01T17:11:18Z</time></trkpt><trkpt lat="47.66981371176217" lon="15.981561324878115"><ele>505.0</ele><time>2026-05-01T17:11:19Z</time></trkpt><trkpt lat="47.66975341693084" lon="15.981138935590847"><ele>504.0</ele><time>2026-05-01T17:11:20Z</time></trkpt><trkpt lat="47.669710554536174" lon="15.980708203238747"><ele>503.0</ele><time>2026-05-01T17:11:21Z</time></trkpt><trkpt lat="47.66968057446572" lon="15.980268956939204"><ele>501.5</ele><time>2026-05-01T17:11:22Z</time></trkpt><trkpt lat="47.6696710260124" lon="15.97982217972755"><ele>500.0</ele><time>2026-05-01T17:11:23Z</time></trkpt><trkpt lat="47.66968147116053" lon="15.979375733475038"><ele>500.5</ele><time>2026-05-01T17:11:24Z</time></trkpt><trkpt lat="47.66971311746196" lon="15.978929182197952"><ele>501.0</ele><time>2026-05-01T17:11:25Z</time></trkpt><trkpt lat="47.66975201919625" lon="15.978481261567955"><ele>503.5</ele><time>2026-05-01T17:11:26Z</time></trkpt><trkpt lat="47.66978655603467" lon="15.97803488991312"><ele>506.0</ele><time>2026-05-01T17:11:27Z</time></trkpt><trkpt lat="47.66981003331975" lon="15.977592480990374"><ele>509.5</ele><time>2026-05-01T17:11:28Z</time></trkpt><trkpt lat="47.66981672871625" lon="15.977146902278216"><ele>513.0</ele><time>2026-05-01T17:11:29Z</time></trkpt><trkpt lat="47.66980130416968" lon="15.97670254176014"><ele>515.5</ele><time>2026-05-01T17:11:30Z</time></trkpt><trkpt lat="47.669758967140446" lon="15.976263402220946"><ele>518.0</ele><time>2026-05-01T17:11:31Z</time></trkpt><trkpt lat="47.669693935905585" lon="15.975828783006607"><ele>520.0</ele><time>2026-05-01T17:11:32Z</time></trkpt><trkpt lat="47.66960863287566" lon="15.975403086677114"><ele>522.0</ele><time>2026-05-01T17:11:33Z</time></trkpt><trkpt lat="47.66950240976392" lon="15.974985678509071"><ele>523.5</ele><time>2026-05-01T17:11:34Z</time></trkpt><trkpt lat="47.66937723921627" lon="15.974578397812842"><ele>525.0</ele><time>2026-05-01T17:11:35Z</time></trkpt><trkpt lat="47.66923412472991" lon="15.974183642967931"><ele>525.0</ele><time>2026-05-01T17:11:36Z</time></trkpt><trkpt lat="47.66907238810351" lon="15.973803892678289"><ele>525.0</ele><time>2026-05-01T17:11:37Z</time></trkpt><trkpt lat="47.66889043962401" lon="15.973442979318051"><ele>526.0</ele><time>2026-05-01T17:11:38Z</time></trkpt><trkpt lat="47.66869062460485" lon="15.973103778319256"><ele>527.0</ele><time>2026-05-01T17:11:39Z</time></trkpt><trkpt lat="47.66847325047991" lon="15.972791499067204"><ele>523.0</ele><time>2026-05-01T17:11:40Z</time></trkpt><trkpt lat="47.668243594761336" lon="15.972492586458829"><ele>519.0</ele><time>2026-05-01T17:11:41Z</time></trkpt><trkpt lat="47.66800190722661" lon="15.972204337418868"><ele>516.0</ele><time>2026-05-01T17:11:42Z</time></trkpt><trkpt lat="47.66776280870948" lon="15.971909717474219"><ele>513.0</ele><time>2026-05-01T17:11:43Z</time></trkpt><trkpt lat="47.66752877301176" lon="15.971606097671836"><ele>509.5</ele><time>2026-05-01T17:11:44Z</time></trkpt><trkpt lat="47.66731418125514" lon="15.971299322790003"><ele>506.0</ele><time>2026-05-01T17:11:45Z</time></trkpt><trkpt lat="47.66711302084245" lon="15.970970773161492"><ele>507.5</ele><time>2026-05-01T17:11:46Z</time></trkpt><trkpt lat="47.666930797176974" lon="15.970611618013075"><ele>509.0</ele><time>2026-05-01T17:11:47Z</time></trkpt><trkpt lat="47.66676947287338" lon="15.970232267153664"><ele>510.5</ele><time>2026-05-01T17:11:48Z</time></trkpt><trkpt lat="47.66662626885672" lon="15.969835458559796"><ele>512.0</ele><time>2026-05-01T17:11:49Z</time></trkpt><trkpt lat="47.666502133892216" lon="15.969427922183701"><ele>512.5</ele><time>2026-05-01T17:11:50Z</time></trkpt><trkpt lat="47.666401218529536" lon="15.969009603541371"><ele>513.0</ele><time>2026-05-01T17:11:51Z</time></trkpt><trkpt lat="47.66632296758302" lon="15.968582183180185"><ele>517.5</ele><time>2026-05-01T17:11:52Z</time></trkpt><trkpt lat="47.6662636505401" lon="15.968147531482"><ele>522.0</ele><time>2026-05-01T17:11:53Z</time></trkpt><trkpt lat="47.66622663227558" lon="15.967705361606459"><ele>522.5</ele><time>2026-05-01T17:11:54Z</time></trkpt><trkpt lat="47.66620936050899" lon="15.967259745830532"><ele>523.0</ele><time>2026-05-01T17:11:55Z</time></trkpt><trkpt lat="47.66621203337136" lon="15.96681335306076"><ele>522.5</ele><time>2026-05-01T17:11:56Z</time></trkpt><trkpt lat="47.66622824022491" lon="15.966366148210922"><ele>522.0</ele><time>2026-05-01T17:11:57Z</time></trkpt><trkpt lat="47.666247044165395" lon="15.965921307700743"><ele>522.5</ele><time>2026-05-01T17:11:58Z</time></trkpt><trkpt lat="47.6662576112682" lon="15.965475966982632"><ele>523.0</ele><time>2026-05-01T17:11:59Z</time></trkpt><trkpt lat="47.66625243509866" lon="15.96503036999114"><ele>524.0</ele><time>2026-05-01T17:12:00Z</time></trkpt><trkpt lat="47.666226674156086" lon="15.964587085896525"><ele>525.0</ele><time>2026-05-01T17:12:01Z</time></trkpt><trkpt lat="47.66617331661735" lon="15.964149135914235"><ele>531.0</ele><time>2026-05-01T17:12:02Z</time></trkpt><trkpt lat="47.66610070365098" lon="15.963720010449268"><ele>537.0</ele><time>2026-05-01T17:12:03Z</time></trkpt><trkpt lat="47.66600647725273" lon="15.963299778880705"><ele>537.0</ele><time>2026-05-01T17:12:04Z</time></trkpt><trkpt lat="47.66589431881036" lon="15.96288889445748"><ele>537.0</ele><time>2026-05-01T17:12:05Z</time></trkpt><trkpt lat="47.66576402074591" lon="15.962493856412273"><ele>538.0</ele><time>2026-05-01T17:12:06Z</time></trkpt><trkpt lat="47.66561237378421" lon="15.962117207480711"><ele>539.0</ele><time>2026-05-01T17:12:07Z</time></trkpt><trkpt lat="47.665441383763465" lon="15.961753975647767"><ele>537.5</ele><time>2026-05-01T17:12:08Z</time></trkpt><trkpt lat="47.66525694760329" lon="15.961401236910381"><ele>536.0</ele><time>2026-05-01T17:12:09Z</time></trkpt><trkpt lat="47.66506499293947" lon="15.961050236760059"><ele>533.5</ele><time>2026-05-01T17:12:10Z</time></trkpt><trkpt lat="47.66487083600191" lon="15.96070095609842"><ele>531.0</ele><time>2026-05-01T17:12:11Z</time></trkpt><trkpt lat="47.66468199464182" lon="15.960351699347463"><ele>531.0</ele><time>2026-05-01T17:12:12Z</time></trkpt><trkpt lat="47.66450405828704" lon="15.959992074571883"><ele>531.0</ele><time>2026-05-01T17:12:13Z</time></trkpt><trkpt lat="47.664341015882364" lon="15.959617087147343"><ele>532.5</ele><time>2026-05-01T17:12:14Z</time></trkpt><trkpt lat="47.66419466140632" lon="15.959225619124842"><ele>534.0</ele><time>2026-05-01T17:12:15Z</time></trkpt><trkpt lat="47.664063095884785" lon="15.958822137120848"><ele>534.0</ele><time>2026-05-01T17:12:16Z</time></trkpt><trkpt lat="47.66394441016883" lon="15.95840863231988"><ele>534.0</ele><time>2026-05-01T17:12:17Z</time></trkpt><trkpt lat="47.663837902480864" lon="15.957985427269596"><ele>531.5</ele><time>2026-05-01T17:12:18Z</time></trkpt><trkpt lat="47.66374421704949" lon="15.95755573262451"><ele>529.0</ele><time>2026-05-01T17:12:19Z</time></trkpt><trkpt lat="47.663661639036214" lon="15.957119823834535"><ele>513.0</ele><time>2026-05-01T17:12:20Z</time></trkpt><trkpt lat="47.66358145855966" lon="15.956681664320277"><ele>497.0</ele><time>2026-05-01T17:12:21Z</time></trkpt><trkpt lat="47.663500429807414" lon="15.956243753932883"><ele>487.0</ele><time>2026-05-01T17:12:22Z</time></trkpt><trkpt lat="47.66342018106995" lon="15.955804509861977"><ele>477.0</ele><time>2026-05-01T17:12:23Z</time></trkpt><trkpt lat="47.66334421938777" lon="15.95536453479376"><ele>471.5</ele><time>2026-05-01T17:12:24Z</time></trkpt><trkpt lat="47.663270986227914" lon="15.954924060702442"><ele>466.0</ele><time>2026-05-01T17:12:25Z</time></trkpt><trkpt lat="47.66319997378623" lon="15.954483084930791"><ele>466.5</ele><time>2026-05-01T17:12:26Z</time></trkpt><trkpt lat="47.66313010680991" lon="15.954040959442212"><ele>467.0</ele><time>2026-05-01T17:12:27Z</time></trkpt><trkpt lat="47.663062765606334" lon="15.95359700639486"><ele>471.5</ele><time>2026-05-01T17:12:28Z</time></trkpt><trkpt lat="47.66299636929015" lon="15.953152601769567"><ele>476.0</ele><time>2026-05-01T17:12:29Z</time></trkpt><trkpt lat="47.662931726521286" lon="15.952709028845646"><ele>481.0</ele><time>2026-05-01T17:12:30Z</time></trkpt><trkpt lat="47.662869986432504" lon="15.952263998593697"><ele>486.0</ele><time>2026-05-01T17:12:31Z</time></trkpt><trkpt lat="47.66281028937291" lon="15.951818513295338"><ele>497.5</ele><time>2026-05-01T17:12:32Z</time></trkpt><trkpt lat="47.66275326596215" lon="15.951370930672"><ele>509.0</ele><time>2026-05-01T17:12:33Z</time></trkpt><trkpt lat="47.66269848956497" lon="15.95092288335215"><ele>510.0</ele><time>2026-05-01T17:12:34Z</time></trkpt><trkpt lat="47.66264718176255" lon="15.95047410774922"><ele>511.0</ele><time>2026-05-01T17:12:35Z</time></trkpt><trkpt lat="47.6625995094967" lon="15.950026030694742"><ele>512.5</ele><time>2026-05-01T17:12:36Z</time></trkpt><trkpt lat="47.66255351284868" lon="15.949578268701346"><ele>514.0</ele><time>2026-05-01T17:12:37Z</time></trkpt><trkpt lat="47.66250844836956" lon="15.94913164902817"><ele>514.0</ele><time>2026-05-01T17:12:38Z</time></trkpt><trkpt lat="47.66246626383318" lon="15.948685720806134"><ele>514.0</ele><time>2026-05-01T17:12:39Z</time></trkpt><trkpt lat="47.662426567822884" lon="15.948238974675458"><ele>516.0</ele><time>2026-05-01T17:12:40Z</time></trkpt><trkpt lat="47.66239029007083" lon="15.947792275400833"><ele>518.0</ele><time>2026-05-01T17:12:41Z</time></trkpt><trkpt lat="47.66235687345922" lon="15.947345049528655"><ele>521.0</ele><time>2026-05-01T17:12:42Z</time></trkpt><trkpt lat="47.662325580873144" lon="15.946897693473066"><ele>524.0</ele><time>2026-05-01T17:12:43Z</time></trkpt><trkpt lat="47.66229719779676" lon="15.946450313888215"><ele>524.0</ele><time>2026-05-01T17:12:44Z</time></trkpt><trkpt lat="47.66227557809819" lon="15.9460024773112"><ele>524.0</ele><time>2026-05-01T17:12:45Z</time></trkpt><trkpt lat="47.66226180975451" lon="15.945554730121009"><ele>524.0</ele><time>2026-05-01T17:12:46Z</time></trkpt><trkpt lat="47.66225340637826" lon="15.94510861020233"><ele>524.0</ele><time>2026-05-01T17:12:47Z</time></trkpt><trkpt lat="47.66224880202126" lon="15.944662379472339"><ele>524.5</ele><time>2026-05-01T17:12:48Z</time></trkpt><trkpt lat="47.66224901678272" lon="15.944215978271702"><ele>525.0</ele><time>2026-05-01T17:12:49Z</time></trkpt><trkpt lat="47.66225451003603" lon="15.943770844870333"><ele>526.5</ele><time>2026-05-01T17:12:50Z</time></trkpt><trkpt lat="47.66226653908891" lon="15.943324988121168"><ele>528.0</ele><time>2026-05-01T17:12:51Z</time></trkpt><trkpt lat="47.662283169347035" lon="15.942879437100633"><ele>528.5</ele><time>2026-05-01T17:12:52Z</time></trkpt><trkpt lat="47.66230597079947" lon="15.942436561826383"><ele>529.0</ele><time>2026-05-01T17:12:53Z</time></trkpt><trkpt lat="47.66233275835818" lon="15.941994268612099"><ele>527.0</ele><time>2026-05-01T17:12:54Z</time></trkpt><trkpt lat="47.6623613723113" lon="15.941554489272939"><ele>525.0</ele><time>2026-05-01T17:12:55Z</time></trkpt><trkpt lat="47.66239582472982" lon="15.941115312557985"><ele>523.5</ele><time>2026-05-01T17:12:56Z</time></trkpt><trkpt lat="47.662432599770504" lon="15.94067927577932"><ele>522.0</ele><time>2026-05-01T17:12:57Z</time></trkpt><trkpt lat="47.66246434324613" lon="15.9402435535995"><ele>522.5</ele><time>2026-05-01T17:12:58Z</time></trkpt><trkpt lat="47.66248558785756" lon="15.939805220587347"><ele>523.0</ele><time>2026-05-01T17:12:59Z</time></trkpt><trkpt lat="47.662496578485154" lon="15.939365636281874"><ele>524.0</ele><time>2026-05-01T17:13:00Z</time></trkpt><trkpt lat="47.66249869706076" lon="15.938923764812614"><ele>525.0</ele><time>2026-05-01T17:13:01Z</time></trkpt><trkpt lat="47.66249034641429" lon="15.938480426083967"><ele>525.0</ele><time>2026-05-01T17:13:02Z</time></trkpt><trkpt lat="47.66247253742592" lon="15.938034644217023"><ele>525.0</ele><time>2026-05-01T17:13:03Z</time></trkpt><trkpt lat="47.66244629585921" lon="15.937588466202362"><ele>525.0</ele><time>2026-05-01T17:13:04Z</time></trkpt><trkpt lat="47.66240983043777" lon="15.937139914584245"><ele>525.0</ele><time>2026-05-01T17:13:05Z</time></trkpt><trkpt lat="47.66236344372078" lon="15.936690857835282"><ele>525.0</ele><time>2026-05-01T17:13:06Z</time></trkpt><trkpt lat="47.66230379496251" lon="15.936241570168109"><ele>525.0</ele><time>2026-05-01T17:13:07Z</time></trkpt><trkpt lat="47.66223348212959" lon="15.935795134515294"><ele>524.0</ele><time>2026-05-01T17:13:08Z</time></trkpt><trkpt lat="47.66215594026571" lon="15.935351600268106"><ele>523.0</ele><time>2026-05-01T17:13:09Z</time></trkpt><trkpt lat="47.66207386018475" lon="15.934931745237744"><ele>520.5</ele><time>2026-05-01T17:13:10Z</time></trkpt><trkpt lat="47.66198052241367" lon="15.934513348041266"><ele>518.0</ele><time>2026-05-01T17:13:11Z</time></trkpt><trkpt lat="47.66187396100896" lon="15.934094472593957"><ele>521.0</ele><time>2026-05-01T17:13:12Z</time></trkpt><trkpt lat="47.66175626006574" lon="15.933677509077418"><ele>524.0</ele><time>2026-05-01T17:13:13Z</time></trkpt><trkpt lat="47.66162788558768" lon="15.933264586386647"><ele>524.0</ele><time>2026-05-01T17:13:14Z</time></trkpt><trkpt lat="47.66148893083824" lon="15.932858016653555"><ele>524.0</ele><time>2026-05-01T17:13:15Z</time></trkpt><trkpt lat="47.66134010924293" lon="15.932457864231298"><ele>522.0</ele><time>2026-05-01T17:13:16Z</time></trkpt><trkpt lat="47.6611823152545" lon="15.932065532902785"><ele>520.0</ele><time>2026-05-01T17:13:17Z</time></trkpt><trkpt lat="47.661017011045914" lon="15.931678078132217"><ele>527.0</ele><time>2026-05-01T17:13:18Z</time></trkpt><trkpt lat="47.660845474062654" lon="15.93129521389106"><ele>534.0</ele><time>2026-05-01T17:13:19Z</time></trkpt><trkpt lat="47.66067103662582" lon="15.930915851573094"><ele>532.0</ele><time>2026-05-01T17:13:20Z</time></trkpt><trkpt lat="47.660499199785576" lon="15.93053535545462"><ele>530.0</ele><time>2026-05-01T17:13:21Z</time></trkpt><trkpt lat="47.66033399835218" lon="15.930150642223609"><ele>538.5</ele><time>2026-05-01T17:13:22Z</time></trkpt><trkpt lat="47.66018010460661" lon="15.929760387865707"><ele>547.0</ele><time>2026-05-01T17:13:23Z</time></trkpt><trkpt lat="47.66004058188203" lon="15.929362803699478"><ele>543.5</ele><time>2026-05-01T17:13:24Z</time></trkpt><trkpt lat="47.659917425999254" lon="15.928956781364594"><ele>540.0</ele><time>2026-05-01T17:13:25Z</time></trkpt><trkpt lat="47.65980551774996" lon="15.928545515001876"><ele>536.5</ele><time>2026-05-01T17:13:26Z</time></trkpt><trkpt lat="47.659706180228106" lon="15.928129315047176"><ele>533.0</ele><time>2026-05-01T17:13:27Z</time></trkpt><trkpt lat="47.65961641666044" lon="15.92770918671859"><ele>535.5</ele><time>2026-05-01T17:13:28Z</time></trkpt><trkpt lat="47.659536564948276" lon="15.927284517476236"><ele>538.0</ele><time>2026-05-01T17:13:29Z</time></trkpt><trkpt lat="47.65945937787535" lon="15.926860426620175"><ele>547.0</ele><time>2026-05-01T17:13:30Z</time></trkpt><trkpt lat="47.65937938806996" lon="15.926441567906162"><ele>556.0</ele><time>2026-05-01T17:13:31Z</time></trkpt><trkpt lat="47.659291404572855" lon="15.926028303115972"><ele>555.5</ele><time>2026-05-01T17:13:32Z</time></trkpt><trkpt lat="47.65919310719708" lon="15.925622509527521"><ele>555.0</ele><time>2026-05-01T17:13:33Z</time></trkpt><trkpt lat="47.65908366491151" lon="15.925226067181189"><ele>553.0</ele><time>2026-05-01T17:13:34Z</time></trkpt><trkpt lat="47.65896111183403" lon="15.924839402220957"><ele>551.0</ele><time>2026-05-01T17:13:35Z</time></trkpt><trkpt lat="47.65882569794588" lon="15.92446807306377"><ele>550.0</ele><time>2026-05-01T17:13:36Z</time></trkpt><trkpt lat="47.658682324097214" lon="15.924110895830468"><ele>549.0</ele><time>2026-05-01T17:13:37Z</time></trkpt><trkpt lat="47.658532727502205" lon="15.923764701992008"><ele>554.0</ele><time>2026-05-01T17:13:38Z</time></trkpt><trkpt lat="47.65837525502515" lon="15.923431177004831"><ele>559.0</ele><time>2026-05-01T17:13:39Z</time></trkpt><trkpt lat="47.65820742633779" lon="15.92310818315652"><ele>559.0</ele><time>2026-05-01T17:13:40Z</time></trkpt><trkpt lat="47.658030737510245" lon="15.922787944199897"><ele>559.0</ele><time>2026-05-01T17:13:41Z</time></trkpt><trkpt lat="47.657851954869344" lon="15.922470608180221"><ele>562.5</ele><time>2026-05-01T17:13:42Z</time></trkpt><trkpt lat="47.657675377765884" lon="15.922155584324917"><ele>566.0</ele><time>2026-05-01T17:13:43Z</time></trkpt><trkpt lat="47.65750291658101" lon="15.921839409771122"><ele>560.0</ele><time>2026-05-01T17:13:44Z</time></trkpt><trkpt lat="47.65734155322347" lon="15.92151181080477"><ele>554.0</ele><time>2026-05-01T17:13:45Z</time></trkpt><trkpt lat="47.65719393574936" lon="15.921167195099185"><ele>552.5</ele><time>2026-05-01T17:13:46Z</time></trkpt><trkpt lat="47.65706180985697" lon="15.920808782096998"><ele>551.0</ele><time>2026-05-01T17:13:47Z</time></trkpt><trkpt lat="47.65695132486311" lon="15.920431137193495"><ele>556.0</ele><time>2026-05-01T17:13:48Z</time></trkpt><trkpt lat="47.656852887839584" lon="15.920040460239711"><ele>561.0</ele><time>2026-05-01T17:13:49Z</time></trkpt><trkpt lat="47.65676966138023" lon="15.919638221464886"><ele>565.0</ele><time>2026-05-01T17:13:50Z</time></trkpt><trkpt lat="47.65670397429982" lon="15.91922594627606"><ele>569.0</ele><time>2026-05-01T17:13:51Z</time></trkpt><trkpt lat="47.65664906677797" lon="15.91880571068941"><ele>571.5</ele><time>2026-05-01T17:13:52Z</time></trkpt><trkpt lat="47.65660034735473" lon="15.918379951253307"><ele>574.0</ele><time>2026-05-01T17:13:53Z</time></trkpt><trkpt lat="47.65655028377886" lon="15.91795061345587"><ele>573.5</ele><time>2026-05-01T17:13:54Z</time></trkpt><trkpt lat="47.65649191872484" lon="15.917519280337942"><ele>573.0</ele><time>2026-05-01T17:13:55Z</time></trkpt><trkpt lat="47.6564165025571" lon="15.917092309323305"><ele>572.5</ele><time>2026-05-01T17:13:56Z</time></trkpt><trkpt lat="47.65631946717766" lon="15.91667299990608"><ele>572.0</ele><time>2026-05-01T17:13:57Z</time></trkpt><trkpt lat="47.656198974688074" lon="15.916265963152924"><ele>579.0</ele><time>2026-05-01T17:13:58Z</time></trkpt><trkpt lat="47.65605909433578" lon="15.915867224178031"><ele>586.0</ele><time>2026-05-01T17:13:59Z</time></trkpt><trkpt lat="47.65591266880223" lon="15.915468792084987"><ele>583.0</ele><time>2026-05-01T17:14:00Z</time></trkpt><trkpt lat="47.65576636341712" lon="15.9150684481987"><ele>580.0</ele><time>2026-05-01T17:14:01Z</time></trkpt><trkpt lat="47.65562509485891" lon="15.91466415532554"><ele>580.0</ele><time>2026-05-01T17:14:02Z</time></trkpt><trkpt lat="47.655495657296434" lon="15.9142546157985"><ele>580.0</ele><time>2026-05-01T17:14:03Z</time></trkpt><trkpt lat="47.65539598095545" lon="15.913852299074772"><ele>574.0</ele><time>2026-05-01T17:14:04Z</time></trkpt><trkpt lat="47.65531865310927" lon="15.913435090297583"><ele>568.0</ele><time>2026-05-01T17:14:05Z</time></trkpt><trkpt lat="47.65527018989632" lon="15.913006788436723"><ele>569.0</ele><time>2026-05-01T17:14:06Z</time></trkpt><trkpt lat="47.65523525628798" lon="15.912571399646295"><ele>570.0</ele><time>2026-05-01T17:14:07Z</time></trkpt><trkpt lat="47.65521151959194" lon="15.912127910967081"><ele>574.5</ele><time>2026-05-01T17:14:08Z</time></trkpt><trkpt lat="47.655207888528494" lon="15.911679490065556"><ele>579.0</ele><time>2026-05-01T17:14:09Z</time></trkpt><trkpt lat="47.65523459121427" lon="15.911234226636791"><ele>579.0</ele><time>2026-05-01T17:14:10Z</time></trkpt><trkpt lat="47.65528952244822" lon="15.910794907245796"><ele>579.0</ele><time>2026-05-01T17:14:11Z</time></trkpt><trkpt lat="47.65536161832205" lon="15.910361449138774"><ele>580.0</ele><time>2026-05-01T17:14:12Z</time></trkpt><trkpt lat="47.65544284541591" lon="15.909929786827508"><ele>581.0</ele><time>2026-05-01T17:14:13Z</time></trkpt><trkpt lat="47.65552622464327" lon="15.909488552920696"><ele>582.0</ele><time>2026-05-01T17:14:14Z</time></trkpt><trkpt lat="47.65560317605856" lon="15.909048425715676"><ele>583.0</ele><time>2026-05-01T17:14:15Z</time></trkpt><trkpt lat="47.655666638722465" lon="15.908608554551751"><ele>583.5</ele><time>2026-05-01T17:14:16Z</time></trkpt><trkpt lat="47.65570816548926" lon="15.908169084151188"><ele>584.0</ele><time>2026-05-01T17:14:17Z</time></trkpt><trkpt lat="47.6557323126894" lon="15.907727250327216"><ele>587.0</ele><time>2026-05-01T17:14:18Z</time></trkpt><trkpt lat="47.655744521923005" lon="15.907281460212445"><ele>590.0</ele><time>2026-05-01T17:14:19Z</time></trkpt><trkpt lat="47.65573851713354" lon="15.906832971796247"><ele>592.0</ele><time>2026-05-01T17:14:20Z</time></trkpt><trkpt lat="47.65570805581838" lon="15.906387267581021"><ele>594.0</ele><time>2026-05-01T17:14:21Z</time></trkpt><trkpt lat="47.65565717625737" lon="15.905944815041488"><ele>597.0</ele><time>2026-05-01T17:14:22Z</time></trkpt><trkpt lat="47.655586453828946" lon="15.905505689453493"><ele>600.0</ele><time>2026-05-01T17:14:23Z</time></trkpt><trkpt lat="47.65550487369996" lon="15.905064780177696"><ele>600.0</ele><time>2026-05-01T17:14:24Z</time></trkpt><trkpt lat="47.6554221958782" lon="15.904624617093218"><ele>600.0</ele><time>2026-05-01T17:14:25Z</time></trkpt><trkpt lat="47.65534668114379" lon="15.90418804668827"><ele>600.0</ele><time>2026-05-01T17:14:26Z</time></trkpt><trkpt lat="47.65528612569012" lon="15.90375374042276"><ele>600.0</ele><time>2026-05-01T17:14:27Z</time></trkpt><trkpt lat="47.655249130250134" lon="15.903316153583106"><ele>600.0</ele><time>2026-05-01T17:14:28Z</time></trkpt><trkpt lat="47.65522932599153" lon="15.902874046794569"><ele>600.0</ele><time>2026-05-01T17:14:29Z</time></trkpt><trkpt lat="47.65523123907144" lon="15.902434534529538"><ele>598.5</ele><time>2026-05-01T17:14:30Z</time></trkpt><trkpt lat="47.655259808098656" lon="15.902001195986994"><ele>597.0</ele><time>2026-05-01T17:14:31Z</time></trkpt><trkpt lat="47.65530788052" lon="15.901572901000218"><ele>596.0</ele><time>2026-05-01T17:14:32Z</time></trkpt><trkpt lat="47.65536305982756" lon="15.901143840636232"><ele>595.0</ele><time>2026-05-01T17:14:33Z</time></trkpt><trkpt lat="47.65541590840473" lon="15.900715478501679"><ele>595.0</ele><time>2026-05-01T17:14:34Z</time></trkpt><trkpt lat="47.65545879949162" lon="15.900287338171287"><ele>595.0</ele><time>2026-05-01T17:14:35Z</time></trkpt><trkpt lat="47.655485121807324" lon="15.899858831470517"><ele>599.5</ele><time>2026-05-01T17:14:36Z</time></trkpt><trkpt lat="47.655495848476505" lon="15.899423553378499"><ele>604.0</ele><time>2026-05-01T17:14:37Z</time></trkpt><trkpt lat="47.65549224924828" lon="15.8989858011816"><ele>605.0</ele><time>2026-05-01T17:14:38Z</time></trkpt><trkpt lat="47.655471210091854" lon="15.898549435242892"><ele>606.0</ele><time>2026-05-01T17:14:39Z</time></trkpt><trkpt lat="47.65542733110351" lon="15.898117064607685"><ele>606.0</ele><time>2026-05-01T17:14:40Z</time></trkpt><trkpt lat="47.655366202320415" lon="15.897680633854387"><ele>606.0</ele><time>2026-05-01T17:14:41Z</time></trkpt><trkpt lat="47.65531674800356" lon="15.897241269242121"><ele>618.0</ele><time>2026-05-01T17:14:42Z</time></trkpt><trkpt lat="47.65527406464943" lon="15.896797866749953"><ele>630.0</ele><time>2026-05-01T17:14:43Z</time></trkpt><trkpt lat="47.65523869865973" lon="15.896352813785738"><ele>632.5</ele><time>2026-05-01T17:14:44Z</time></trkpt><trkpt lat="47.65521136215494" lon="15.895907047264453"><ele>635.0</ele><time>2026-05-01T17:14:45Z</time></trkpt><trkpt lat="47.65519199888374" lon="15.895461040281235"><ele>635.5</ele><time>2026-05-01T17:14:46Z</time></trkpt><trkpt lat="47.655174710792636" lon="15.89501432689767"><ele>636.0</ele><time>2026-05-01T17:14:47Z</time></trkpt><trkpt lat="47.65515599207702" lon="15.894570436728225"><ele>638.5</ele><time>2026-05-01T17:14:48Z</time></trkpt><trkpt lat="47.655131964050824" lon="15.894138539557972"><ele>641.0</ele><time>2026-05-01T17:14:49Z</time></trkpt><trkpt lat="47.65509492738707" lon="15.89372604128843"><ele>642.5</ele><time>2026-05-01T17:14:50Z</time></trkpt><trkpt lat="47.65503525444004" lon="15.89330934321564"><ele>644.0</ele><time>2026-05-01T17:14:51Z</time></trkpt><trkpt lat="47.654955868853506" lon="15.89289671868518"><ele>647.0</ele><time>2026-05-01T17:14:52Z</time></trkpt><trkpt lat="47.65485814696433" lon="15.892490450506894"><ele>650.0</ele><time>2026-05-01T17:14:53Z</time></trkpt><trkpt lat="47.6547472465029" lon="15.892089518797555"><ele>645.5</ele><time>2026-05-01T17:14:54Z</time></trkpt><trkpt lat="47.65462738805009" lon="15.891692508652152"><ele>641.0</ele><time>2026-05-01T17:14:55Z</time></trkpt><trkpt lat="47.654508730914316" lon="15.89129391027167"><ele>649.5</ele><time>2026-05-01T17:14:56Z</time></trkpt><trkpt lat="47.65439835125383" lon="15.890889406255775"><ele>658.0</ele><time>2026-05-01T17:14:57Z</time></trkpt><trkpt lat="47.65430268850918" lon="15.890480558824777"><ele>655.5</ele><time>2026-05-01T17:14:58Z</time></trkpt><trkpt lat="47.654222911191624" lon="15.890065847308206"><ele>653.0</ele><time>2026-05-01T17:14:59Z</time></trkpt><trkpt lat="47.6541662680223" lon="15.889656199112547"><ele>653.0</ele><time>2026-05-01T17:15:00Z</time></trkpt><trkpt lat="47.65413315891188" lon="15.889266698133058"><ele>653.0</ele><time>2026-05-01T17:15:01Z</time></trkpt><trkpt lat="47.65412225883646" lon="15.88889641183146"><ele>651.0</ele><time>2026-05-01T17:15:02Z</time></trkpt><trkpt lat="47.65412427269671" lon="15.888544161623528"><ele>649.0</ele><time>2026-05-01T17:15:03Z</time></trkpt><trkpt lat="47.65414250328162" lon="15.888204819061968"><ele>649.0</ele><time>2026-05-01T17:15:04Z</time></trkpt><trkpt lat="47.654171206065584" lon="15.887874511036372"><ele>649.0</ele><time>2026-05-01T17:15:05Z</time></trkpt><trkpt lat="47.65421089981904" lon="15.88755488655649"><ele>649.0</ele><time>2026-05-01T17:15:06Z</time></trkpt><trkpt lat="47.654258392551974" lon="15.88724427993986"><ele>651.3333333333334</ele><time>2026-05-01T17:15:07Z</time></trkpt><trkpt lat="47.65431560029374" lon="15.886944402040884"><ele>653.6666666666666</ele><time>2026-05-01T17:15:08Z</time></trkpt><trkpt lat="47.65438081602388" lon="15.886650436598595"><ele>656.0</ele><time>2026-05-01T17:15:09Z</time></trkpt><trkpt lat="47.65445145717617" lon="15.886366654079573"><ele>657.3333333333333</ele><time>2026-05-01T17:15:10Z</time></trkpt><trkpt lat="47.654523176988036" lon="15.886099835435747"><ele>658.6666666666666</ele><time>2026-05-01T17:15:11Z</time></trkpt><trkpt lat="47.65459856827666" lon="15.88582350690078"><ele>660.0</ele><time>2026-05-01T17:15:12Z</time></trkpt><trkpt lat="47.654673528333774" lon="15.885536620649118"><ele>661.6666666666666</ele><time>2026-05-01T17:15:13Z</time></trkpt><trkpt lat="47.65474701881342" lon="15.885248528556216"><ele>663.3333333333333</ele><time>2026-05-01T17:15:14Z</time></trkpt><trkpt lat="47.65481487915009" lon="15.884953076029799"><ele>665.0</ele><time>2026-05-01T17:15:15Z</time></trkpt><trkpt lat="47.65487411584905" lon="15.884654789850401"><ele>665.0</ele><time>2026-05-01T17:15:16Z</time></trkpt><trkpt lat="47.65491977134419" lon="15.884355017315047"><ele>665.0</ele><time>2026-05-01T17:15:17Z</time></trkpt><trkpt lat="47.65495219772935" lon="15.884057979617317"><ele>665.0</ele><time>2026-05-01T17:15:18Z</time></trkpt><trkpt lat="47.65497299981707" lon="15.883762192377207"><ele>667.3333333333333</ele><time>2026-05-01T17:15:19Z</time></trkpt><trkpt lat="47.65499115611136" lon="15.883465095849152"><ele>669.6666666666666</ele><time>2026-05-01T17:15:20Z</time></trkpt><trkpt lat="47.655008077490486" lon="15.883166041574107"><ele>672.0</ele><time>2026-05-01T17:15:21Z</time></trkpt><trkpt lat="47.65502256829465" lon="15.8828667347664"><ele>679.0</ele><time>2026-05-01T17:15:22Z</time></trkpt><trkpt lat="47.65503323420608" lon="15.882567753470811"><ele>686.0</ele><time>2026-05-01T17:15:23Z</time></trkpt><trkpt lat="47.65503820577378" lon="15.88226982336784"><ele>693.0</ele><time>2026-05-01T17:15:24Z</time></trkpt><trkpt lat="47.655040492810336" lon="15.881974738055202"><ele>697.0</ele><time>2026-05-01T17:15:25Z</time></trkpt><trkpt lat="47.655042506129504" lon="15.88167978191946"><ele>701.0</ele><time>2026-05-01T17:15:26Z</time></trkpt><trkpt lat="47.65504420420775" lon="15.881386150858106"><ele>705.0</ele><time>2026-05-01T17:15:27Z</time></trkpt><trkpt lat="47.65504384508735" lon="15.881095205787968"><ele>704.0</ele><time>2026-05-01T17:15:28Z</time></trkpt><trkpt lat="47.655040684028315" lon="15.88080460749296"><ele>703.0</ele><time>2026-05-01T17:15:29Z</time></trkpt><trkpt lat="47.65503136126572" lon="15.88051449798093"><ele>702.0</ele><time>2026-05-01T17:15:30Z</time></trkpt><trkpt lat="47.65501091661994" lon="15.880223202853731"><ele>706.3333333333334</ele><time>2026-05-01T17:15:31Z</time></trkpt><trkpt lat="47.65498111672186" lon="15.879928764714906"><ele>710.6666666666667</ele><time>2026-05-01T17:15:32Z</time></trkpt><trkpt lat="47.65494214888142" lon="15.879628620184805"><ele>715.0</ele><time>2026-05-01T17:15:33Z</time></trkpt><trkpt lat="47.654895246092245" lon="15.879325147469396"><ele>720.6666666666667</ele><time>2026-05-01T17:15:34Z</time></trkpt><trkpt lat="47.6548371374457" lon="15.879020257936471"><ele>726.3333333333334</ele><time>2026-05-01T17:15:35Z</time></trkpt><trkpt lat="47.654769968393836" lon="15.878717335299603"><ele>732.0</ele><time>2026-05-01T17:15:36Z</time></trkpt><trkpt lat="47.654693116679915" lon="15.87841802147518"><ele>735.6666666666666</ele><time>2026-05-01T17:15:37Z</time></trkpt><trkpt lat="47.654606060732114" lon="15.878125521989169"><ele>739.3333333333333</ele><time>2026-05-01T17:15:38Z</time></trkpt><trkpt lat="47.65450873977636" lon="15.877842928825729"><ele>743.0</ele><time>2026-05-01T17:15:39Z</time></trkpt><trkpt lat="47.65440886358595" lon="15.877567534263951"><ele>748.3333333333333</ele><time>2026-05-01T17:15:40Z</time></trkpt><trkpt lat="47.65429048283393" lon="15.877310954368836"><ele>753.6666666666666</ele><time>2026-05-01T17:15:41Z</time></trkpt><trkpt lat="47.65417469570279" lon="15.877055170671136"><ele>759.0</ele><time>2026-05-01T17:15:42Z</time></trkpt><trkpt lat="47.65404562785676" lon="15.87681156135242"><ele>751.3333333333334</ele><time>2026-05-01T17:15:43Z</time></trkpt><trkpt lat="47.6539398424404" lon="15.87655910705336"><ele>743.6666666666667</ele><time>2026-05-01T17:15:44Z</time></trkpt><trkpt lat="47.65384465965586" lon="15.87630029565278"><ele>736.0</ele><time>2026-05-01T17:15:45Z</time></trkpt><trkpt lat="47.65375070089269" lon="15.876041435281085"><ele>730.3333333333334</ele><time>2026-05-01T17:15:46Z</time></trkpt><trkpt lat="47.65364253274084" lon="15.875797126282363"><ele>724.6666666666666</ele><time>2026-05-01T17:15:47Z</time></trkpt><trkpt lat="47.653528205571135" lon="15.875465600167058"><ele>719.0</ele><time>2026-05-01T17:15:48Z</time></trkpt><trkpt lat="47.65343751871092" lon="15.87512922199904"><ele>712.0</ele><time>2026-05-01T17:15:49Z</time></trkpt><trkpt lat="47.65334506681521" lon="15.8748522440045"><ele>705.0</ele><time>2026-05-01T17:15:50Z</time></trkpt><trkpt lat="47.65332824393125" lon="15.874506221609522"><ele>698.0</ele><time>2026-05-01T17:15:51Z</time></trkpt><trkpt lat="47.65328078761696" lon="15.874194635794332"><ele>691.3333333333333</ele><time>2026-05-01T17:15:52Z</time></trkpt><trkpt lat="47.653239798034114" lon="15.873882525548165"><ele>684.6666666666666</ele><time>2026-05-01T17:15:53Z</time></trkpt><trkpt lat="47.653197979843156" lon="15.873572558698331"><ele>678.0</ele><time>2026-05-01T17:15:54Z</time></trkpt><trkpt lat="47.65315609333342" lon="15.873276090806698"><ele>668.3333333333334</ele><time>2026-05-01T17:15:55Z</time></trkpt><trkpt lat="47.65311263103657" lon="15.872982361069687"><ele>658.6666666666667</ele><time>2026-05-01T17:15:56Z</time></trkpt><trkpt lat="47.653069235570435" lon="15.87268498149519"><ele>649.0</ele><time>2026-05-01T17:15:57Z</time></trkpt><trkpt lat="47.653005046298" lon="15.872393257116494"><ele>639.3333333333334</ele><time>2026-05-01T17:15:58Z</time></trkpt><trkpt lat="47.65296621674457" lon="15.872120265951217"><ele>629.6666666666666</ele><time>2026-05-01T17:15:59Z</time></trkpt><trkpt lat="47.65292952842872" lon="15.871859054910487"><ele>620.0</ele><time>2026-05-01T17:16:00Z</time></trkpt><trkpt lat="47.65289278249462" lon="15.871595438515385"><ele>623.6666666666666</ele><time>2026-05-01T17:16:01Z</time></trkpt><trkpt lat="47.65285385646614" lon="15.871326764470519"><ele>627.3333333333334</ele><time>2026-05-01T17:16:02Z</time></trkpt><trkpt lat="47.65281323069049" lon="15.871055873756971"><ele>631.0</ele><time>2026-05-01T17:16:03Z</time></trkpt><trkpt lat="47.65277150991069" lon="15.870779448054769"><ele>631.0</ele><time>2026-05-01T17:16:04Z</time></trkpt><trkpt lat="47.6527305821433" lon="15.870496895148927"><ele>631.0</ele><time>2026-05-01T17:16:05Z</time></trkpt><trkpt lat="47.652690052265" lon="15.870212392335116"><ele>631.0</ele><time>2026-05-01T17:16:06Z</time></trkpt><trkpt lat="47.6526499203719" lon="15.869929793867925"><ele>629.6666666666667</ele><time>2026-05-01T17:16:07Z</time></trkpt><trkpt lat="47.65260918854298" lon="15.869651412208448"><ele>628.3333333333334</ele><time>2026-05-01T17:16:08Z</time></trkpt><trkpt lat="47.65256860486918" lon="15.869375606292348"><ele>627.0</ele><time>2026-05-01T17:16:09Z</time></trkpt><trkpt lat="47.652528515003105" lon="15.869101511164315"><ele>627.0</ele><time>2026-05-01T17:16:10Z</time></trkpt><trkpt lat="47.652487883929886" lon="15.868824228772771"><ele>627.0</ele><time>2026-05-01T17:16:11Z</time></trkpt><trkpt lat="47.65244827189289" lon="15.86854568997758"><ele>627.0</ele><time>2026-05-01T17:16:12Z</time></trkpt><trkpt lat="47.65240808645852" lon="15.868266352336615"><ele>644.3333333333334</ele><time>2026-05-01T17:16:13Z</time></trkpt><trkpt lat="47.65236837605324" lon="15.867984978517175"><ele>661.6666666666667</ele><time>2026-05-01T17:16:14Z</time></trkpt><trkpt lat="47.65232850197307" lon="15.867705663630195"><ele>679.0</ele><time>2026-05-01T17:16:15Z</time></trkpt><trkpt lat="47.65228734128088" lon="15.86742789359525"><ele>688.0</ele><time>2026-05-01T17:16:16Z</time></trkpt><trkpt lat="47.652245676312226" lon="15.86715080823321"><ele>697.0</ele><time>2026-05-01T17:16:17Z</time></trkpt><trkpt lat="47.652206347657085" lon="15.86687482595185"><ele>706.0</ele><time>2026-05-01T17:16:18Z</time></trkpt><trkpt lat="47.652171121481494" lon="15.866597925651654"><ele>717.6666666666667</ele><time>2026-05-01T17:16:19Z</time></trkpt><trkpt lat="47.65213930832316" lon="15.866320470322547"><ele>729.3333333333334</ele><time>2026-05-01T17:16:20Z</time></trkpt><trkpt lat="47.652111104590176" lon="15.866042843304491"><ele>741.0</ele><time>2026-05-01T17:16:21Z</time></trkpt><trkpt lat="47.65209101397999" lon="15.865761755504096"><ele>750.3333333333333</ele><time>2026-05-01T17:16:22Z</time></trkpt><trkpt lat="47.652074994503955" lon="15.865478489600209"><ele>759.6666666666666</ele><time>2026-05-01T17:16:23Z</time></trkpt><trkpt lat="47.65206264538898" lon="15.865194721305684"><ele>769.0</ele><time>2026-05-01T17:16:24Z</time></trkpt><trkpt lat="47.65205437275797" lon="15.864912217551684"><ele>774.0</ele><time>2026-05-01T17:16:25Z</time></trkpt><trkpt lat="47.652048280514975" lon="15.864629797349838"><ele>779.0</ele><time>2026-05-01T17:16:26Z</time></trkpt><trkpt lat="47.652041562914135" lon="15.864348664208885"><ele>784.0</ele><time>2026-05-01T17:16:27Z</time></trkpt><trkpt lat="47.65203598319111" lon="15.864068175720128"><ele>784.0</ele><time>2026-05-01T17:16:28Z</time></trkpt><trkpt lat="47.65202793585472" lon="15.863790884174662"><ele>784.0</ele><time>2026-05-01T17:16:29Z</time></trkpt><trkpt lat="47.65203546716975" lon="15.863475795107345"><ele>784.0</ele><time>2026-05-01T17:16:30Z</time></trkpt><trkpt lat="47.65201323106119" lon="15.863208229339639"><ele>781.3333333333333</ele><time>2026-05-01T17:16:31Z</time></trkpt><trkpt lat="47.65198773919095" lon="15.862931202815558"><ele>778.6666666666667</ele><time>2026-05-01T17:16:32Z</time></trkpt><trkpt lat="47.65196397519187" lon="15.862655754548538"><ele>776.0</ele><time>2026-05-01T17:16:33Z</time></trkpt><trkpt lat="47.651937585706804" lon="15.862384712425841"><ele>761.3333333333334</ele><time>2026-05-01T17:16:34Z</time></trkpt><trkpt lat="47.65190507405586" lon="15.862118519571077"><ele>746.6666666666667</ele><time>2026-05-01T17:16:35Z</time></trkpt><trkpt lat="47.65186753334021" lon="15.861855869800099"><ele>732.0</ele><time>2026-05-01T17:16:36Z</time></trkpt><trkpt lat="47.65182370341473" lon="15.861598567796202"><ele>732.0</ele><time>2026-05-01T17:16:37Z</time></trkpt><trkpt lat="47.651769693950214" lon="15.861348521873389"><ele>732.0</ele><time>2026-05-01T17:16:38Z</time></trkpt><trkpt lat="47.651708094175405" lon="15.861104087006387"><ele>732.0</ele><time>2026-05-01T17:16:39Z</time></trkpt><trkpt lat="47.651641225094956" lon="15.860865091500726"><ele>736.3333333333334</ele><time>2026-05-01T17:16:40Z</time></trkpt><trkpt lat="47.651567534198314" lon="15.860633021925016"><ele>740.6666666666667</ele><time>2026-05-01T17:16:41Z</time></trkpt><trkpt lat="47.65149019602532" lon="15.860406072767239"><ele>745.0</ele><time>2026-05-01T17:16:42Z</time></trkpt><trkpt lat="47.65141767505172" lon="15.860197146518443"><ele>747.0</ele><time>2026-05-01T17:16:43Z</time></trkpt><trkpt lat="47.65135373892178" lon="15.86000822220457"><ele>749.0</ele><time>2026-05-01T17:16:44Z</time></trkpt><trkpt lat="47.6512985049803" lon="15.859833033061939"><ele>751.0</ele><time>2026-05-01T17:16:45Z</time></trkpt><trkpt lat="47.6512549182159" lon="15.859668009060373"><ele>753.0</ele><time>2026-05-01T17:16:46Z</time></trkpt><trkpt lat="47.651221102927465" lon="15.859500932133773"><ele>753.0</ele><time>2026-05-01T17:16:47Z</time></trkpt><trkpt lat="47.65119889529447" lon="15.859327281170163"><ele>753.0</ele><time>2026-05-01T17:16:48Z</time></trkpt><trkpt lat="47.65118677693203" lon="15.85914688589602"><ele>753.0</ele><time>2026-05-01T17:16:49Z</time></trkpt><trkpt lat="47.65118183060795" lon="15.85896250401683"><ele>753.0</ele><time>2026-05-01T17:16:50Z</time></trkpt><trkpt lat="47.65117993580243" lon="15.858788029981804"><ele>752.5999999999999</ele><time>2026-05-01T17:16:51Z</time></trkpt><trkpt lat="47.65117201804727" lon="15.858626529946363"><ele>752.1999999999999</ele><time>2026-05-01T17:16:52Z</time></trkpt><trkpt lat="47.65114785823424" lon="15.858481140264715"><ele>751.8</ele><time>2026-05-01T17:16:53Z</time></trkpt><trkpt lat="47.651101869390736" lon="15.858355205891868"><ele>751.4</ele><time>2026-05-01T17:16:54Z</time></trkpt><trkpt lat="47.651033794651866" lon="15.85826950561667"><ele>751.0</ele><time>2026-05-01T17:16:55Z</time></trkpt><trkpt lat="47.65095182728705" lon="15.858216871385059"><ele>751.0</ele><time>2026-05-01T17:16:56Z</time></trkpt><trkpt lat="47.650857356399776" lon="15.858203704140033"><ele>751.0</ele><time>2026-05-01T17:16:57Z</time></trkpt><trkpt lat="47.65076225083324" lon="15.858236147901435"><ele>751.0</ele><time>2026-05-01T17:16:58Z</time></trkpt><trkpt lat="47.65067379502493" lon="15.858304330957727"><ele>751.0</ele><time>2026-05-01T17:16:59Z</time></trkpt><trkpt lat="47.6505996553135" lon="15.85841783764115"><ele>751.0</ele><time>2026-05-01T17:17:00Z</time></trkpt><trkpt lat="47.65053363706089" lon="15.858559908439775"><ele>749.1999999999999</ele><time>2026-05-01T17:17:01Z</time></trkpt><trkpt lat="47.65046998330866" lon="15.858706930334792"><ele>747.4</ele><time>2026-05-01T17:17:02Z</time></trkpt><trkpt lat="47.650408175785515" lon="15.85882771744863"><ele>745.6</ele><time>2026-05-01T17:17:03Z</time></trkpt><trkpt lat="47.650320539570316" lon="15.858906689099664"><ele>743.8</ele><time>2026-05-01T17:17:04Z</time></trkpt><trkpt lat="47.65023654150773" lon="15.85895897258343"><ele>742.0</ele><time>2026-05-01T17:17:05Z</time></trkpt><trkpt lat="47.650141362269586" lon="15.858939112064828"><ele>742.0</ele><time>2026-05-01T17:17:06Z</time></trkpt><trkpt lat="47.650065703193654" lon="15.858854818340028"><ele>742.0</ele><time>2026-05-01T17:17:07Z</time></trkpt><trkpt lat="47.65000047728797" lon="15.858736542337654"><ele>742.0</ele><time>2026-05-01T17:17:08Z</time></trkpt><trkpt lat="47.649941100129766" lon="15.858607181922919"><ele>742.0</ele><time>2026-05-01T17:17:09Z</time></trkpt><trkpt lat="47.6498554007533" lon="15.858521439899057"><ele>742.0</ele><time>2026-05-01T17:17:10Z</time></trkpt><trkpt lat="47.64975081523456" lon="15.858431861442904"><ele>743.25</ele><time>2026-05-01T17:17:11Z</time></trkpt><trkpt lat="47.64965765837534" lon="15.858320911483206"><ele>744.5</ele><time>2026-05-01T17:17:12Z</time></trkpt><trkpt lat="47.64955078625849" lon="15.858226333031995"><ele>745.75</ele><time>2026-05-01T17:17:13Z</time></trkpt><trkpt lat="47.649442977084" lon="15.858127967079747"><ele>747.0</ele><time>2026-05-01T17:17:14Z</time></trkpt><trkpt lat="47.64933508038836" lon="15.858031078941835"><ele>747.0</ele><time>2026-05-01T17:17:15Z</time></trkpt><trkpt lat="47.64922445377175" lon="15.857932833310626"><ele>747.0</ele><time>2026-05-01T17:17:16Z</time></trkpt><trkpt lat="47.64911644493316" lon="15.857837758506946"><ele>747.0</ele><time>2026-05-01T17:17:17Z</time></trkpt><trkpt lat="47.6490201083374" lon="15.85774928071631"><ele>747.0</ele><time>2026-05-01T17:17:18Z</time></trkpt><trkpt lat="47.64894003871997" lon="15.85767337209222"><ele>747.0</ele><time>2026-05-01T17:17:19Z</time></trkpt><trkpt lat="47.64886405748932" lon="15.857617365881145"><ele>747.0</ele><time>2026-05-01T17:17:20Z</time></trkpt><trkpt lat="47.64878119928361" lon="15.857590607582171"><ele>747.0</ele><time>2026-05-01T17:17:21Z</time></trkpt><trkpt lat="47.64869893355547" lon="15.857615620955732"><ele>747.0</ele><time>2026-05-01T17:17:22Z</time></trkpt><trkpt lat="47.64863084996814" lon="15.857690270952817"><ele>747.0</ele><time>2026-05-01T17:17:23Z</time></trkpt><trkpt lat="47.648599057106374" lon="15.857814483388248"><ele>747.0</ele><time>2026-05-01T17:17:24Z</time></trkpt><trkpt lat="47.6485964859943" lon="15.85793978914784"><ele>747.0</ele><time>2026-05-01T17:17:25Z</time></trkpt><trkpt lat="47.6486329708956" lon="15.858054956231731"><ele>747.0</ele><time>2026-05-01T17:17:26Z</time></trkpt><trkpt lat="47.648708100694044" lon="15.85811099108185"><ele>747.0</ele><time>2026-05-01T17:17:27Z</time></trkpt><trkpt lat="47.648756848619804" lon="15.85818396640472"><ele>747.0</ele><time>2026-05-01T17:17:28Z</time></trkpt><trkpt lat="47.64882780800562" lon="15.85818267857272"><ele>747.0</ele><time>2026-05-01T17:17:29Z</time></trkpt><trkpt lat="47.64891410172582" lon="15.858254703717899"><ele>747.0</ele><time>2026-05-01T17:17:31Z</time></trkpt><trkpt lat="47.648954685611734" lon="15.858182307197373"><ele>746.9999999999999</ele><time>2026-05-01T17:17:32Z</time></trkpt><trkpt lat="47.64899183076458" lon="15.85831895003968"><ele>747.0</ele><time>2026-05-01T17:17:57Z</time></trkpt><trkpt lat="47.648959236788684" lon="15.858412464496865"><ele>747.0</ele><time>2026-05-01T17:19:57Z</time></trkpt><trkpt lat="47.64901829134116" lon="15.858452294749071"><ele>747.0</ele><time>2026-05-01T17:20:08Z</time></trkpt><trkpt lat="47.64896391394599" lon="15.858539499963541"><ele>747.0</ele><time>2026-05-01T17:20:18Z</time></trkpt><trkpt lat="47.64900360028248" lon="15.858464924922668"><ele>746.9999999999999</ele><time>2026-05-01T17:21:18Z</time></trkpt><trkpt lat="47.649031424975625" lon="15.858375659503416"><ele>747.0</ele><time>2026-05-01T17:21:33Z</time></trkpt><trkpt lat="47.64910230481868" lon="15.8584393172632"><ele>746.5714285714286</ele><time>2026-05-01T17:26:30Z</time></trkpt><trkpt lat="47.64914362863797" lon="15.858512087980083"><ele>746.1428571428571</ele><time>2026-05-01T17:26:31Z</time></trkpt><trkpt lat="47.64919606280774" lon="15.85858832555228"><ele>745.7142857142858</ele><time>2026-05-01T17:26:32Z</time></trkpt><trkpt lat="47.64924619618631" lon="15.858665315772619"><ele>745.2857142857142</ele><time>2026-05-01T17:26:33Z</time></trkpt><trkpt lat="47.649292747449465" lon="15.858744444282513"><ele>744.8571428571429</ele><time>2026-05-01T17:26:34Z</time></trkpt><trkpt lat="47.64934237194988" lon="15.858827410200398"><ele>744.4285714285714</ele><time>2026-05-01T17:26:35Z</time></trkpt><trkpt lat="47.64939589208814" lon="15.858914377251383"><ele>744.0</ele><time>2026-05-01T17:26:36Z</time></trkpt><trkpt lat="47.64945340574858" lon="15.859001435866698"><ele>743.6666666666666</ele><time>2026-05-01T17:26:37Z</time></trkpt><trkpt lat="47.649517723986555" lon="15.859093949455564"><ele>743.3333333333334</ele><time>2026-05-01T17:26:38Z</time></trkpt><trkpt lat="47.64958353054197" lon="15.859185826787279"><ele>743.0</ele><time>2026-05-01T17:26:39Z</time></trkpt><trkpt lat="47.649642561612644" lon="15.85927233609015"><ele>742.6666666666667</ele><time>2026-05-01T17:26:40Z</time></trkpt><trkpt lat="47.64970130979756" lon="15.859333059425925"><ele>742.3333333333334</ele><time>2026-05-01T17:26:41Z</time></trkpt><trkpt lat="47.649770740871006" lon="15.859364323977003"><ele>742.0</ele><time>2026-05-01T17:26:42Z</time></trkpt><trkpt lat="47.64984746102333" lon="15.859355902941786"><ele>742.0</ele><time>2026-05-01T17:26:43Z</time></trkpt><trkpt lat="47.6499259330962" lon="15.859304109763386"><ele>742.0</ele><time>2026-05-01T17:26:44Z</time></trkpt><trkpt lat="47.65000283783557" lon="15.85922149965505"><ele>742.0</ele><time>2026-05-01T17:26:45Z</time></trkpt><trkpt lat="47.650064431628536" lon="15.859112723585891"><ele>742.0</ele><time>2026-05-01T17:26:46Z</time></trkpt><trkpt lat="47.6501800462528" lon="15.859099242555464"><ele>742.0</ele><time>2026-05-01T17:26:47Z</time></trkpt><trkpt lat="47.65028257600174" lon="15.859088590329273"><ele>742.0</ele><time>2026-05-01T17:26:48Z</time></trkpt><trkpt lat="47.65037843437137" lon="15.859003371546066"><ele>742.0</ele><time>2026-05-01T17:26:49Z</time></trkpt><trkpt lat="47.650455841343486" lon="15.85889724871165"><ele>742.0</ele><time>2026-05-01T17:26:50Z</time></trkpt><trkpt lat="47.65053432934556" lon="15.858790104479082"><ele>742.0</ele><time>2026-05-01T17:26:51Z</time></trkpt><trkpt lat="47.65058171905354" lon="15.85865207681104"><ele>742.0</ele><time>2026-05-01T17:26:52Z</time></trkpt><trkpt lat="47.65065093075204" lon="15.858510271733518"><ele>742.0</ele><time>2026-05-01T17:26:53Z</time></trkpt><trkpt lat="47.650731240205154" lon="15.858395524324465"><ele>742.0</ele><time>2026-05-01T17:26:54Z</time></trkpt><trkpt lat="47.65079203720791" lon="15.858324814999865"><ele>742.0</ele><time>2026-05-01T17:26:55Z</time></trkpt><trkpt lat="47.650898541999084" lon="15.858306587753919"><ele>742.0</ele><time>2026-05-01T17:26:56Z</time></trkpt><trkpt lat="47.65099089761209" lon="15.858351239921396"><ele>742.0</ele><time>2026-05-01T17:26:57Z</time></trkpt><trkpt lat="47.65106361541224" lon="15.858452156039322"><ele>742.0</ele><time>2026-05-01T17:26:58Z</time></trkpt><trkpt lat="47.651099193361965" lon="15.858587324110024"><ele>742.0</ele><time>2026-05-01T17:26:59Z</time></trkpt><trkpt lat="47.651093490373526" lon="15.85873280700644"><ele>742.0</ele><time>2026-05-01T17:27:00Z</time></trkpt><trkpt lat="47.6510449509217" lon="15.858860701487473"><ele>742.0</ele><time>2026-05-01T17:27:01Z</time></trkpt><trkpt lat="47.650964657080095" lon="15.858947815735757"><ele>742.0</ele><time>2026-05-01T17:27:02Z</time></trkpt><trkpt lat="47.65087167192377" lon="15.858981437488328"><ele>742.0</ele><time>2026-05-01T17:27:03Z</time></trkpt><trkpt lat="47.650781978020824" lon="15.858945487480414"><ele>742.0</ele><time>2026-05-01T17:27:04Z</time></trkpt><trkpt lat="47.65070556527747" lon="15.858863690080618"><ele>742.0</ele><time>2026-05-01T17:27:05Z</time></trkpt><trkpt lat="47.65062011456707" lon="15.858792505149594"><ele>742.0</ele><time>2026-05-01T17:27:06Z</time></trkpt><trkpt lat="47.65054767963553" lon="15.858636337178265"><ele>742.0</ele><time>2026-05-01T17:27:07Z</time></trkpt><trkpt lat="47.65044523271623" lon="15.858513044568223"><ele>745.0</ele><time>2026-05-01T17:27:08Z</time></trkpt><trkpt lat="47.6503250407283" lon="15.858383960916065"><ele>748.0</ele><time>2026-05-01T17:27:09Z</time></trkpt><trkpt lat="47.650198505793924" lon="15.858256529034692"><ele>751.0</ele><time>2026-05-01T17:27:10Z</time></trkpt><trkpt lat="47.65007205437386" lon="15.858134418983193"><ele>751.0</ele><time>2026-05-01T17:27:11Z</time></trkpt><trkpt lat="47.649932637239054" lon="15.858005926582095"><ele>751.0</ele><time>2026-05-01T17:27:12Z</time></trkpt><trkpt lat="47.64977875438069" lon="15.85787584853825"><ele>751.0</ele><time>2026-05-01T17:27:13Z</time></trkpt><trkpt lat="47.64961318738032" lon="15.85774540895915"><ele>752.6666666666667</ele><time>2026-05-01T17:27:14Z</time></trkpt><trkpt lat="47.649447219247534" lon="15.85761780780134"><ele>754.3333333333334</ele><time>2026-05-01T17:27:15Z</time></trkpt><trkpt lat="47.64928777381324" lon="15.85748736572141"><ele>756.0</ele><time>2026-05-01T17:27:16Z</time></trkpt><trkpt lat="47.64912308789358" lon="15.85734717696027"><ele>756.0</ele><time>2026-05-01T17:27:17Z</time></trkpt><trkpt lat="47.6489571005033" lon="15.857188478997053"><ele>756.0</ele><time>2026-05-01T17:27:18Z</time></trkpt><trkpt lat="47.64879088056378" lon="15.857014986373477"><ele>756.0</ele><time>2026-05-01T17:27:19Z</time></trkpt><trkpt lat="47.64862682136128" lon="15.856824925178824"><ele>757.3333333333334</ele><time>2026-05-01T17:27:20Z</time></trkpt><trkpt lat="47.64847839326609" lon="15.856634503844047"><ele>758.6666666666667</ele><time>2026-05-01T17:27:21Z</time></trkpt><trkpt lat="47.648334798080384" lon="15.856431152082186"><ele>760.0</ele><time>2026-05-01T17:27:22Z</time></trkpt><trkpt lat="47.6481941977823" lon="15.856205814910508"><ele>760.0</ele><time>2026-05-01T17:27:23Z</time></trkpt><trkpt lat="47.64805731327136" lon="15.855963738646887"><ele>760.0</ele><time>2026-05-01T17:27:24Z</time></trkpt><trkpt lat="47.647923797320885" lon="15.85571061815805"><ele>760.0</ele><time>2026-05-01T17:27:25Z</time></trkpt><trkpt lat="47.64778883440155" lon="15.85545298832608"><ele>758.3333333333334</ele><time>2026-05-01T17:27:26Z</time></trkpt><trkpt lat="47.647652622067" lon="15.85519222778363"><ele>756.6666666666666</ele><time>2026-05-01T17:27:27Z</time></trkpt><trkpt lat="47.64751137508048" lon="15.854933327050276"><ele>755.0</ele><time>2026-05-01T17:27:28Z</time></trkpt><trkpt lat="47.647366538078614" lon="15.854673801781043"><ele>762.5</ele><time>2026-05-01T17:27:29Z</time></trkpt><trkpt lat="47.64721174627049" lon="15.85441384212233"><ele>770.0</ele><time>2026-05-01T17:27:30Z</time></trkpt><trkpt lat="47.64706287559906" lon="15.854180568623569"><ele>771.5</ele><time>2026-05-01T17:27:31Z</time></trkpt><trkpt lat="47.64689932324736" lon="15.853947396067575"><ele>773.0</ele><time>2026-05-01T17:27:32Z</time></trkpt><trkpt lat="47.64672519985294" lon="15.85372427848945"><ele>773.0</ele><time>2026-05-01T17:27:33Z</time></trkpt><trkpt lat="47.64654297534142" lon="15.853508965627883"><ele>773.0</ele><time>2026-05-01T17:27:34Z</time></trkpt><trkpt lat="47.64635161826827" lon="15.853305772178754"><ele>775.0</ele><time>2026-05-01T17:27:35Z</time></trkpt><trkpt lat="47.64615154067577" lon="15.853115726838467"><ele>777.0</ele><time>2026-05-01T17:27:36Z</time></trkpt><trkpt lat="47.645947082424485" lon="15.852936134175971"><ele>777.0</ele><time>2026-05-01T17:27:37Z</time></trkpt><trkpt lat="47.64573692468754" lon="15.852772203447536"><ele>777.0</ele><time>2026-05-01T17:27:38Z</time></trkpt><trkpt lat="47.64552242551697" lon="15.852624288622952"><ele>781.0</ele><time>2026-05-01T17:27:39Z</time></trkpt><trkpt lat="47.6453031747623" lon="15.852493730994723"><ele>785.0</ele><time>2026-05-01T17:27:40Z</time></trkpt><trkpt lat="47.64508270538541" lon="15.85236886572673"><ele>785.0</ele><time>2026-05-01T17:27:41Z</time></trkpt><trkpt lat="47.64486255162819" lon="15.852243914261342"><ele>785.0</ele><time>2026-05-01T17:27:42Z</time></trkpt><trkpt lat="47.644641871814216" lon="15.852117744975152"><ele>783.5</ele><time>2026-05-01T17:27:43Z</time></trkpt><trkpt lat="47.64442512491302" lon="15.851989854127902"><ele>782.0</ele><time>2026-05-01T17:27:44Z</time></trkpt><trkpt lat="47.64421189945723" lon="15.851858867555903"><ele>790.5</ele><time>2026-05-01T17:27:45Z</time></trkpt><trkpt lat="47.64400377643723" lon="15.851717605919424"><ele>799.0</ele><time>2026-05-01T17:27:46Z</time></trkpt><trkpt lat="47.64379951587203" lon="15.851562487376212"><ele>795.5</ele><time>2026-05-01T17:27:47Z</time></trkpt><trkpt lat="47.643598043907865" lon="15.851393896143621"><ele>792.0</ele><time>2026-05-01T17:27:48Z</time></trkpt><trkpt lat="47.64339782770779" lon="15.851219465083954"><ele>792.0</ele><time>2026-05-01T17:27:49Z</time></trkpt><trkpt lat="47.64319783715386" lon="15.851043258122653"><ele>792.0</ele><time>2026-05-01T17:27:50Z</time></trkpt><trkpt lat="47.64299915357024" lon="15.850868215554435"><ele>793.0</ele><time>2026-05-01T17:27:51Z</time></trkpt><trkpt lat="47.642799036752" lon="15.850694848737911"><ele>794.0</ele><time>2026-05-01T17:27:52Z</time></trkpt><trkpt lat="47.64259779716514" lon="15.850526699396504"><ele>794.0</ele><time>2026-05-01T17:27:53Z</time></trkpt><trkpt lat="47.64239194206875" lon="15.850371441766862"><ele>794.0</ele><time>2026-05-01T17:27:54Z</time></trkpt><trkpt lat="47.642180510676546" lon="15.850233483149301"><ele>801.0</ele><time>2026-05-01T17:27:55Z</time></trkpt><trkpt lat="47.641963133667836" lon="15.850113164240724"><ele>808.0</ele><time>2026-05-01T17:27:56Z</time></trkpt><trkpt lat="47.641741066304" lon="15.850012684525362"><ele>808.0</ele><time>2026-05-01T17:27:57Z</time></trkpt><trkpt lat="47.641514662914176" lon="15.84993337900263"><ele>808.0</ele><time>2026-05-01T17:27:58Z</time></trkpt><trkpt lat="47.64128648285164" lon="15.84986802488279"><ele>807.5</ele><time>2026-05-01T17:27:59Z</time></trkpt><trkpt lat="47.64105545862068" lon="15.84982066171443"><ele>807.0</ele><time>2026-05-01T17:28:00Z</time></trkpt><trkpt lat="47.64082200672729" lon="15.849790404628077"><ele>807.0</ele><time>2026-05-01T17:28:01Z</time></trkpt><trkpt lat="47.6405865759832" lon="15.849778126011248"><ele>807.0</ele><time>2026-05-01T17:28:02Z</time></trkpt><trkpt lat="47.64035048814753" lon="15.849779293025296"><ele>806.5</ele><time>2026-05-01T17:28:03Z</time></trkpt><trkpt lat="47.640114403044635" lon="15.849784993755597"><ele>806.0</ele><time>2026-05-01T17:28:04Z</time></trkpt><trkpt lat="47.6398770987101" lon="15.849788217215542"><ele>806.0</ele><time>2026-05-01T17:28:05Z</time></trkpt><trkpt lat="47.63963819959739" lon="15.849786602763775"><ele>806.0</ele><time>2026-05-01T17:28:06Z</time></trkpt><trkpt lat="47.63940084767291" lon="15.84978316635262"><ele>815.5</ele><time>2026-05-01T17:28:07Z</time></trkpt><trkpt lat="47.639163786282644" lon="15.849774844949026"><ele>825.0</ele><time>2026-05-01T17:28:08Z</time></trkpt><trkpt lat="47.638926854003586" lon="15.849763670737119"><ele>825.0</ele><time>2026-05-01T17:28:09Z</time></trkpt><trkpt lat="47.63869048043354" lon="15.849748775942667"><ele>825.0</ele><time>2026-05-01T17:28:10Z</time></trkpt><trkpt lat="47.63845287418887" lon="15.849729344947377"><ele>845.5</ele><time>2026-05-01T17:28:11Z</time></trkpt><trkpt lat="47.63821553374822" lon="15.8497039172836"><ele>866.0</ele><time>2026-05-01T17:28:12Z</time></trkpt><trkpt lat="47.637978456095745" lon="15.849672026304546"><ele>884.5</ele><time>2026-05-01T17:28:13Z</time></trkpt><trkpt lat="47.637740997137755" lon="15.849636701966952"><ele>903.0</ele><time>2026-05-01T17:28:14Z</time></trkpt><trkpt lat="47.63750558192151" lon="15.84959887716825"><ele>903.0</ele><time>2026-05-01T17:28:15Z</time></trkpt><trkpt lat="47.63726689551794" lon="15.849554600652588"><ele>903.0</ele><time>2026-05-01T17:28:16.074Z</time></trkpt><trkpt lat="47.63704748989388" lon="15.849503782154574"><ele>915.0</ele><time>2026-05-01T17:28:17.065Z</time></trkpt><trkpt lat="47.63682370560636" lon="15.849441835453266"><ele>927.0</ele><time>2026-05-01T17:28:18.064Z</time></trkpt><trkpt lat="47.63659722682066" lon="15.849374197903822"><ele>927.0</ele><time>2026-05-01T17:28:19.067Z</time></trkpt><trkpt lat="47.63637192490047" lon="15.84930371651424"><ele>927.0</ele><time>2026-05-01T17:28:20.063Z</time></trkpt><trkpt lat="47.6358747258313" lon="15.84912071107059"><ele>981.0</ele><time>2026-05-01T17:29:28.631Z</time></trkpt><trkpt lat="47.63503261937681" lon="15.848656803869957"><ele>996.0</ele><time>2026-05-01T17:29:29.63Z</time></trkpt><trkpt lat="47.63422489516644" lon="15.848080062230954"><ele>1022.0</ele><time>2026-05-01T17:29:30.628Z</time></trkpt><trkpt lat="47.633456984102956" lon="15.84738707889039"><ele>1031.0</ele><time>2026-05-01T17:29:31.628Z</time></trkpt><trkpt lat="47.632732648511194" lon="15.846595298734481"><ele>1005.0</ele><time>2026-05-01T17:29:32.63Z</time></trkpt><trkpt lat="47.632041941608534" lon="15.845741087880512"><ele>999.0</ele><time>2026-05-01T17:29:33.631Z</time></trkpt><trkpt lat="47.6313832781674" lon="15.844837455059066"><ele>974.0</ele><time>2026-05-01T17:29:34.63Z</time></trkpt><trkpt lat="47.63075187150833" lon="15.843890043717403"><ele>969.0</ele><time>2026-05-01T17:29:35.63Z</time></trkpt><trkpt lat="47.63014993233722" lon="15.842901560215166"><ele>968.0</ele><time>2026-05-01T17:29:36.63Z</time></trkpt><trkpt lat="47.62957866604293" lon="15.841874075299682"><ele>994.0</ele><time>2026-05-01T17:29:37.63Z</time></trkpt><trkpt lat="47.629038227085225" lon="15.840810282105576"><ele>1034.0</ele><time>2026-05-01T17:29:38.63Z</time></trkpt><trkpt lat="47.62853090935655" lon="15.839712207288443"><ele>1072.0</ele><time>2026-05-01T17:29:39.63Z</time></trkpt><trkpt lat="47.628057081452674" lon="15.83858146783378"><ele>1123.0</ele><time>2026-05-01T17:29:40.63Z</time></trkpt><trkpt lat="47.627617914616536" lon="15.837420581571765"><ele>1141.0</ele><time>2026-05-01T17:29:41.63Z</time></trkpt><trkpt lat="47.62721328588816" lon="15.836232496992503"><ele>1195.0</ele><time>2026-05-01T17:29:42.63Z</time></trkpt><trkpt lat="47.62684641682853" lon="15.835017845614248"><ele>1197.0</ele><time>2026-05-01T17:29:43.63Z</time></trkpt><trkpt lat="47.62651571723011" lon="15.833780380302906"><ele>1191.0</ele><time>2026-05-01T17:29:44.63Z</time></trkpt><trkpt lat="47.62622303225908" lon="15.83252279852578"><ele>1218.0</ele><time>2026-05-01T17:29:45.63Z</time></trkpt><trkpt lat="47.625980860708296" lon="15.831241612109038"><ele>1187.0</ele><time>2026-05-01T17:29:46.63Z</time></trkpt><trkpt lat="47.625754788383325" lon="15.82995381214722"><ele>1181.0</ele><time>2026-05-01T17:29:47.63Z</time></trkpt><trkpt lat="47.62557724053259" lon="15.828649831222224"><ele>1162.0</ele><time>2026-05-01T17:29:48.63Z</time></trkpt><trkpt lat="47.62544114772049" lon="15.827334832792195"><ele>1146.0</ele><time>2026-05-01T17:29:49.63Z</time></trkpt><trkpt lat="47.62534424272565" lon="15.826012795411184"><ele>1140.0</ele><time>2026-05-01T17:29:50.63Z</time></trkpt><trkpt lat="47.625326030238725" lon="15.825672682129989"><ele>1134.0</ele><time>2026-05-01T17:29:51.63Z</time></trkpt><trkpt lat="47.6253105435679" lon="15.825333145581272"><ele>1139.5</ele><time>2026-05-01T17:29:52.628Z</time></trkpt><trkpt lat="47.6252969718112" lon="15.824991953437756"><ele>1145.0</ele><time>2026-05-01T17:29:53.63Z</time></trkpt><trkpt lat="47.625286764221485" lon="15.824651291808108"><ele>1137.5</ele><time>2026-05-01T17:29:54.63Z</time></trkpt><trkpt lat="47.62527909352438" lon="15.82431106317184"><ele>1130.0</ele><time>2026-05-01T17:29:55.628Z</time></trkpt><trkpt lat="47.625273690434305" lon="15.823969429350445"><ele>1130.0</ele><time>2026-05-01T17:29:56.63Z</time></trkpt><trkpt lat="47.6252713" lon="15.823628424615725"><ele>1130.0</ele><time>2026-05-01T17:29:57.63Z</time></trkpt><trkpt lat="47.625271691652046" lon="15.823287384450335"><ele>1123.0</ele><time>2026-05-01T17:29:58.63Z</time></trkpt><trkpt lat="47.62527459722281" lon="15.822946428728054"><ele>1116.0</ele><time>2026-05-01T17:29:59.63Z</time></trkpt><trkpt lat="47.625279795729625" lon="15.822605463651449"><ele>1110.0</ele><time>2026-05-01T17:30:00.63Z</time></trkpt><trkpt lat="47.62528812779192" lon="15.822264640979858"><ele>1104.0</ele><time>2026-05-01T17:30:01.63Z</time></trkpt><trkpt lat="47.6252977352631" lon="15.821923896001929"><ele>1097.5</ele><time>2026-05-01T17:30:02.63Z</time></trkpt><trkpt lat="47.62531063631769" lon="15.821583385335552"><ele>1091.0</ele><time>2026-05-01T17:30:03.63Z</time></trkpt><trkpt lat="47.62532474231011" lon="15.821242971862572"><ele>1068.5</ele><time>2026-05-01T17:30:04.63Z</time></trkpt><trkpt lat="47.625340271352954" lon="15.820902694124753"><ele>1046.0</ele><time>2026-05-01T17:30:05.63Z</time></trkpt><trkpt lat="47.62535625545913" lon="15.820562478262785"><ele>1046.0</ele><time>2026-05-01T17:30:06.63Z</time></trkpt><trkpt lat="47.625372447293536" lon="15.820222270030259"><ele>1046.0</ele><time>2026-05-01T17:30:07.63Z</time></trkpt><trkpt lat="47.625389223774945" lon="15.819881896407809"><ele>1041.0</ele><time>2026-05-01T17:30:08.631Z</time></trkpt><trkpt lat="47.625405994874185" lon="15.81954163198266"><ele>1036.0</ele><time>2026-05-01T17:30:09.631Z</time></trkpt><trkpt lat="47.625422744296884" lon="15.819201807347305"><ele>1029.5</ele><time>2026-05-01T17:30:10.63Z</time></trkpt><trkpt lat="47.62543951301583" lon="15.818861591215503"><ele>1023.0</ele><time>2026-05-01T17:30:11.63Z</time></trkpt><trkpt lat="47.62545625029917" lon="15.818522012872169"><ele>1015.0</ele><time>2026-05-01T17:30:12.629Z</time></trkpt><trkpt lat="47.62547303925369" lon="15.818181386186088"><ele>1007.0</ele><time>2026-05-01T17:30:13.63Z</time></trkpt><trkpt lat="47.625489779638826" lon="15.817841744911371"><ele>993.5</ele><time>2026-05-01T17:30:14.629Z</time></trkpt><trkpt lat="47.625506570036315" lon="15.817501088949223"><ele>980.0</ele><time>2026-05-01T17:30:15.63Z</time></trkpt><trkpt lat="47.625523297668316" lon="15.817160937776137"><ele>980.0</ele><time>2026-05-01T17:30:16.63Z</time></trkpt><trkpt lat="47.62553999137536" lon="15.8168207850285"><ele>980.0</ele><time>2026-05-01T17:30:17.63Z</time></trkpt><trkpt lat="47.62555668533316" lon="15.81648062717162"><ele>966.0</ele><time>2026-05-01T17:30:18.63Z</time></trkpt><trkpt lat="47.62557337912379" lon="15.816140472720901"><ele>952.0</ele><time>2026-05-01T17:30:19.63Z</time></trkpt><trkpt lat="47.62558995887536" lon="15.8158003023646"><ele>937.0</ele><time>2026-05-01T17:30:20.63Z</time></trkpt><trkpt lat="47.62560640790143" lon="15.815460110533262"><ele>922.0</ele><time>2026-05-01T17:30:21.63Z</time></trkpt><trkpt lat="47.625622806567236" lon="15.815119926427851"><ele>884.0</ele><time>2026-05-01T17:30:22.63Z</time></trkpt><trkpt lat="47.62569656023095" lon="15.813421549939251"><ele>884.0</ele><time>2026-05-01T17:30:24Z</time></trkpt><trkpt lat="47.62575582060973" lon="15.813128715995333"><ele>884.0</ele><time>2026-05-01T17:30:25Z</time></trkpt><trkpt lat="47.625717771816426" lon="15.812786596891883"><ele>884.0</ele><time>2026-05-01T17:30:26Z</time></trkpt><trkpt lat="47.62570827210449" lon="15.81244416164306"><ele>882.0</ele><time>2026-05-01T17:30:27Z</time></trkpt><trkpt lat="47.62569701078625" lon="15.81210386034054"><ele>880.0</ele><time>2026-05-01T17:30:28Z</time></trkpt><trkpt lat="47.62568762885481" lon="15.811763445557078"><ele>877.5</ele><time>2026-05-01T17:30:29Z</time></trkpt><trkpt lat="47.62566443107233" lon="15.811427757722987"><ele>875.0</ele><time>2026-05-01T17:30:30Z</time></trkpt><trkpt lat="47.62562682233841" lon="15.811074873999452"><ele>876.5</ele><time>2026-05-01T17:30:31Z</time></trkpt><trkpt lat="47.62559280522252" lon="15.810724421401448"><ele>878.0</ele><time>2026-05-01T17:30:32Z</time></trkpt><trkpt lat="47.62555540410645" lon="15.810370152787485"><ele>881.0</ele><time>2026-05-01T17:30:33Z</time></trkpt><trkpt lat="47.625518829398096" lon="15.810017533065462"><ele>884.0</ele><time>2026-05-01T17:30:34Z</time></trkpt><trkpt lat="47.62548564958721" lon="15.809664010348133"><ele>885.0</ele><time>2026-05-01T17:30:35Z</time></trkpt><trkpt lat="47.625438451332414" lon="15.809311692875442"><ele>886.0</ele><time>2026-05-01T17:30:36Z</time></trkpt><trkpt lat="47.625392501391936" lon="15.808962080479395"><ele>886.0</ele><time>2026-05-01T17:30:37Z</time></trkpt><trkpt lat="47.6253441486582" lon="15.808613790911467"><ele>886.0</ele><time>2026-05-01T17:30:38Z</time></trkpt><trkpt lat="47.62528433102197" lon="15.808267799853049"><ele>877.5</ele><time>2026-05-01T17:30:39Z</time></trkpt><trkpt lat="47.6252288223652" lon="15.807923834433046"><ele>869.0</ele><time>2026-05-01T17:30:40Z</time></trkpt><trkpt lat="47.62516305833422" lon="15.807591290274855"><ele>869.0</ele><time>2026-05-01T17:30:41Z</time></trkpt><trkpt lat="47.62509184266167" lon="15.807252262966482"><ele>869.0</ele><time>2026-05-01T17:30:42Z</time></trkpt><trkpt lat="47.625020867326946" lon="15.80691669941781"><ele>871.5</ele><time>2026-05-01T17:30:43Z</time></trkpt><trkpt lat="47.624942852799975" lon="15.806586296237985"><ele>874.0</ele><time>2026-05-01T17:30:44Z</time></trkpt><trkpt lat="47.624866482309315" lon="15.806249792504813"><ele>876.0</ele><time>2026-05-01T17:30:45Z</time></trkpt><trkpt lat="47.62477946417331" lon="15.80591480610869"><ele>878.0</ele><time>2026-05-01T17:30:46Z</time></trkpt><trkpt lat="47.62469254635542" lon="15.805584810711219"><ele>878.0</ele><time>2026-05-01T17:30:47Z</time></trkpt><trkpt lat="47.624597681206275" lon="15.805257074600696"><ele>878.0</ele><time>2026-05-01T17:30:48Z</time></trkpt><trkpt lat="47.624502265262024" lon="15.804933034207272"><ele>870.0</ele><time>2026-05-01T17:30:49Z</time></trkpt><trkpt lat="47.624406298964274" lon="15.804613320027812"><ele>862.0</ele><time>2026-05-01T17:30:50Z</time></trkpt><trkpt lat="47.62430264309759" lon="15.804305020500005"><ele>862.0</ele><time>2026-05-01T17:30:51Z</time></trkpt><trkpt lat="47.62419812500874" lon="15.80399275397607"><ele>862.0</ele><time>2026-05-01T17:30:52Z</time></trkpt><trkpt lat="47.62409392433025" lon="15.803682243319699"><ele>863.5</ele><time>2026-05-01T17:30:53Z</time></trkpt><trkpt lat="47.62399142690815" lon="15.803369430790248"><ele>865.0</ele><time>2026-05-01T17:30:54Z</time></trkpt><trkpt lat="47.623859619715354" lon="15.80308715552286"><ele>865.0</ele><time>2026-05-01T17:30:55Z</time></trkpt><trkpt lat="47.62377172924726" lon="15.802787877303189"><ele>865.0</ele><time>2026-05-01T17:30:56Z</time></trkpt><trkpt lat="47.623674463657785" lon="15.80248095070106"><ele>865.0</ele><time>2026-05-01T17:30:57Z</time></trkpt><trkpt lat="47.623580528177854" lon="15.802163668743741"><ele>860.0</ele><time>2026-05-01T17:30:58Z</time></trkpt><trkpt lat="47.62348974279199" lon="15.801837493646815"><ele>855.0</ele><time>2026-05-01T17:30:59Z</time></trkpt><trkpt lat="47.623403152148576" lon="15.801507235361823"><ele>855.0</ele><time>2026-05-01T17:31:00Z</time></trkpt><trkpt lat="47.62332045485662" lon="15.801182064410165"><ele>855.0</ele><time>2026-05-01T17:31:01Z</time></trkpt><trkpt lat="47.62324824856708" lon="15.800854331578778"><ele>857.6666666666667</ele><time>2026-05-01T17:31:02Z</time></trkpt><trkpt lat="47.62319391411732" lon="15.800531795569423"><ele>860.3333333333334</ele><time>2026-05-01T17:31:03Z</time></trkpt><trkpt lat="47.62311506825696" lon="15.800228115223641"><ele>863.0</ele><time>2026-05-01T17:31:04Z</time></trkpt><trkpt lat="47.623041164497025" lon="15.799906175369435"><ele>865.0</ele><time>2026-05-01T17:31:05Z</time></trkpt><trkpt lat="47.623013408626974" lon="15.799569239953431"><ele>867.0</ele><time>2026-05-01T17:31:06Z</time></trkpt><trkpt lat="47.62296450161509" lon="15.799245125129046"><ele>867.0</ele><time>2026-05-01T17:31:07Z</time></trkpt><trkpt lat="47.622911027020415" lon="15.798920399190846"><ele>867.0</ele><time>2026-05-01T17:31:08Z</time></trkpt><trkpt lat="47.62285669641559" lon="15.798595539356356"><ele>860.5</ele><time>2026-05-01T17:31:09Z</time></trkpt><trkpt lat="47.62278576320862" lon="15.798252201866386"><ele>854.0</ele><time>2026-05-01T17:31:10.073Z</time></trkpt><trkpt lat="47.6227303012202" lon="15.797931950687714"><ele>855.0</ele><time>2026-05-01T17:31:11.065Z</time></trkpt><trkpt lat="47.62267482377513" lon="15.797607528407807"><ele>856.0</ele><time>2026-05-01T17:31:12.066Z</time></trkpt><trkpt lat="47.62261900304519" lon="15.79728577379336"><ele>856.0</ele><time>2026-05-01T17:31:13.062Z</time></trkpt><trkpt lat="47.62256488451232" lon="15.796966057987262"><ele>856.0</ele><time>2026-05-01T17:31:14.048Z</time></trkpt><trkpt lat="47.62289273335789" lon="15.796656356869265"><ele>839.0</ele><time>2026-05-01T17:31:15.037Z</time></trkpt><trkpt lat="47.621018784755506" lon="15.777634583425844"><ele>839.0</ele><time>2026-05-01T17:32:17Z</time></trkpt><trkpt lat="47.620889319918646" lon="15.777410956881427"><ele>839.0</ele><time>2026-05-01T17:32:18Z</time></trkpt><trkpt lat="47.62074846874522" lon="15.777194902058547"><ele>839.0</ele><time>2026-05-01T17:32:19Z</time></trkpt><trkpt lat="47.62061351113142" lon="15.776980771599712"><ele>840.0</ele><time>2026-05-01T17:32:20Z</time></trkpt><trkpt lat="47.62048642881661" lon="15.776759435979136"><ele>841.0</ele><time>2026-05-01T17:32:21Z</time></trkpt><trkpt lat="47.620357028672935" lon="15.776545728975897"><ele>842.0</ele><time>2026-05-01T17:32:22Z</time></trkpt><trkpt lat="47.62023064127209" lon="15.776337631946406"><ele>842.0</ele><time>2026-05-01T17:32:23Z</time></trkpt><trkpt lat="47.62010938237057" lon="15.776128182699088"><ele>842.0</ele><time>2026-05-01T17:32:24Z</time></trkpt><trkpt lat="47.61998624663151" lon="15.775918996121456"><ele>842.0</ele><time>2026-05-01T17:32:25Z</time></trkpt><trkpt lat="47.61986063050929" lon="15.77570675878455"><ele>842.3333333333334</ele><time>2026-05-01T17:32:26Z</time></trkpt><trkpt lat="47.619737257677755" lon="15.775500360005566"><ele>842.6666666666667</ele><time>2026-05-01T17:32:27Z</time></trkpt><trkpt lat="47.619618487512334" lon="15.77528634593343"><ele>843.0</ele><time>2026-05-01T17:32:28Z</time></trkpt><trkpt lat="47.61950144376352" lon="15.77507154184495"><ele>841.6666666666667</ele><time>2026-05-01T17:32:29Z</time></trkpt><trkpt lat="47.619384642816286" lon="15.774860941313547"><ele>840.3333333333334</ele><time>2026-05-01T17:32:30Z</time></trkpt><trkpt lat="47.61927087376533" lon="15.774651415310274"><ele>839.0</ele><time>2026-05-01T17:32:31Z</time></trkpt><trkpt lat="47.61916122044124" lon="15.774435052532567"><ele>840.3333333333334</ele><time>2026-05-01T17:32:32Z</time></trkpt><trkpt lat="47.61905590162991" lon="15.774211509659056"><ele>841.6666666666667</ele><time>2026-05-01T17:32:33Z</time></trkpt><trkpt lat="47.618954396055635" lon="15.773990223744601"><ele>843.0</ele><time>2026-05-01T17:32:34Z</time></trkpt><trkpt lat="47.61884491211594" lon="15.773767347497099"><ele>843.0</ele><time>2026-05-01T17:32:35Z</time></trkpt><trkpt lat="47.61875916146491" lon="15.773555470355422"><ele>843.0</ele><time>2026-05-01T17:32:36Z</time></trkpt><trkpt lat="47.61866550452086" lon="15.773343060386251"><ele>843.0</ele><time>2026-05-01T17:32:37Z</time></trkpt><trkpt lat="47.618584983444585" lon="15.773135192453411"><ele>840.6666666666667</ele><time>2026-05-01T17:32:38Z</time></trkpt><trkpt lat="47.6185047928818" lon="15.77292385905527"><ele>838.3333333333334</ele><time>2026-05-01T17:32:39Z</time></trkpt><trkpt lat="47.61842056895921" lon="15.772709052328475"><ele>836.0</ele><time>2026-05-01T17:32:40Z</time></trkpt><trkpt lat="47.61834154489016" lon="15.772491366732186"><ele>836.0</ele><time>2026-05-01T17:32:41Z</time></trkpt><trkpt lat="47.618267413042155" lon="15.772275761954026"><ele>836.0</ele><time>2026-05-01T17:32:42Z</time></trkpt><trkpt lat="47.618195311454166" lon="15.772059909414878"><ele>836.0</ele><time>2026-05-01T17:32:43Z</time></trkpt><trkpt lat="47.61812732400892" lon="15.77183689370893"><ele>837.0</ele><time>2026-05-01T17:32:44Z</time></trkpt><trkpt lat="47.6180628917629" lon="15.771615994311519"><ele>838.0</ele><time>2026-05-01T17:32:45Z</time></trkpt><trkpt lat="47.61800386526686" lon="15.771396990466336"><ele>839.0</ele><time>2026-05-01T17:32:46Z</time></trkpt><trkpt lat="47.61794746718557" lon="15.771177956751227"><ele>839.5</ele><time>2026-05-01T17:32:47Z</time></trkpt><trkpt lat="47.61790174543409" lon="15.770968876480332"><ele>840.0</ele><time>2026-05-01T17:32:48Z</time></trkpt><trkpt lat="47.61785933534751" lon="15.770768935050258"><ele>840.5</ele><time>2026-05-01T17:32:49Z</time></trkpt><trkpt lat="47.61782356455185" lon="15.770565970814394"><ele>841.0</ele><time>2026-05-01T17:32:50Z</time></trkpt><trkpt lat="47.61778977702995" lon="15.77036069710821"><ele>837.5</ele><time>2026-05-01T17:32:51Z</time></trkpt><trkpt lat="47.61776030509789" lon="15.770152416344747"><ele>834.0</ele><time>2026-05-01T17:32:52Z</time></trkpt><trkpt lat="47.61773502829715" lon="15.769944933823513"><ele>830.5</ele><time>2026-05-01T17:32:53Z</time></trkpt><trkpt lat="47.617712948690446" lon="15.76973668289516"><ele>827.0</ele><time>2026-05-01T17:32:54Z</time></trkpt><trkpt lat="47.61769523886033" lon="15.76952750704511"><ele>826.25</ele><time>2026-05-01T17:32:55Z</time></trkpt><trkpt lat="47.61768241427102" lon="15.769317748971403"><ele>825.5</ele><time>2026-05-01T17:32:56Z</time></trkpt><trkpt lat="47.61767241845689" lon="15.769109438130103"><ele>824.75</ele><time>2026-05-01T17:32:57Z</time></trkpt><trkpt lat="47.61766652478131" lon="15.768894404043301"><ele>824.0</ele><time>2026-05-01T17:32:58Z</time></trkpt><trkpt lat="47.61766433977876" lon="15.768677260556755"><ele>826.3333333333334</ele><time>2026-05-01T17:32:59Z</time></trkpt><trkpt lat="47.61766920818144" lon="15.768456263096619"><ele>828.6666666666667</ele><time>2026-05-01T17:33:00Z</time></trkpt><trkpt lat="47.61767798146522" lon="15.768232512013217"><ele>831.0</ele><time>2026-05-01T17:33:01Z</time></trkpt><trkpt lat="47.617692171839735" lon="15.768001412321949"><ele>831.0</ele><time>2026-05-01T17:33:02Z</time></trkpt><trkpt lat="47.61770780946854" lon="15.767762029366756"><ele>831.0</ele><time>2026-05-01T17:33:03Z</time></trkpt><trkpt lat="47.617724755874534" lon="15.767519544656272"><ele>831.0</ele><time>2026-05-01T17:33:04Z</time></trkpt><trkpt lat="47.61774346970728" lon="15.767272773235371"><ele>832.6666666666667</ele><time>2026-05-01T17:33:05Z</time></trkpt><trkpt lat="47.617764243812836" lon="15.767027359562803"><ele>834.3333333333334</ele><time>2026-05-01T17:33:06Z</time></trkpt><trkpt lat="47.61778602179192" lon="15.766772583063993"><ele>836.0</ele><time>2026-05-01T17:33:07Z</time></trkpt><trkpt lat="47.61781711373043" lon="15.766479520860422"><ele>839.3333333333334</ele><time>2026-05-01T17:33:08Z</time></trkpt><trkpt lat="47.61789588388416" lon="15.766210608004917"><ele>842.6666666666667</ele><time>2026-05-01T17:33:09Z</time></trkpt><trkpt lat="47.61795892232948" lon="15.765972838860888"><ele>846.0</ele><time>2026-05-01T17:33:10Z</time></trkpt><trkpt lat="47.61802609499" lon="15.765743911050372"><ele>846.0</ele><time>2026-05-01T17:33:11Z</time></trkpt><trkpt lat="47.61809894702782" lon="15.765511493491662"><ele>846.0</ele><time>2026-05-01T17:33:12Z</time></trkpt><trkpt lat="47.61817128084035" lon="15.765291978003807"><ele>846.0</ele><time>2026-05-01T17:33:13Z</time></trkpt><trkpt lat="47.61824780344746" lon="15.765070283424441"><ele>846.3333333333333</ele><time>2026-05-01T17:33:14Z</time></trkpt><trkpt lat="47.61843764148563" lon="15.764933528761388"><ele>846.6666666666666</ele><time>2026-05-01T17:33:15Z</time></trkpt><trkpt lat="47.61851910671879" lon="15.76470239239595"><ele>847.0</ele><time>2026-05-01T17:33:16Z</time></trkpt><trkpt lat="47.61860151811732" lon="15.7644692779916"><ele>853.6666666666666</ele><time>2026-05-01T17:33:17Z</time></trkpt><trkpt lat="47.61868305389831" lon="15.764235075829149"><ele>860.3333333333333</ele><time>2026-05-01T17:33:18Z</time></trkpt><trkpt lat="47.61876307170564" lon="15.764001260848548"><ele>867.0</ele><time>2026-05-01T17:33:19Z</time></trkpt><trkpt lat="47.618843641591056" lon="15.763764498121434"><ele>869.0</ele><time>2026-05-01T17:33:20Z</time></trkpt><trkpt lat="47.61892507666262" lon="15.763525966304552"><ele>871.0</ele><time>2026-05-01T17:33:21Z</time></trkpt><trkpt lat="47.619005928862016" lon="15.763286648120516"><ele>873.0</ele><time>2026-05-01T17:33:22Z</time></trkpt><trkpt lat="47.61908180933113" lon="15.76304868410034"><ele>873.0</ele><time>2026-05-01T17:33:23Z</time></trkpt><trkpt lat="47.61915556379454" lon="15.762808747137518"><ele>873.0</ele><time>2026-05-01T17:33:24Z</time></trkpt><trkpt lat="47.61922675743057" lon="15.762566484294613"><ele>873.0</ele><time>2026-05-01T17:33:25Z</time></trkpt><trkpt lat="47.61929400832363" lon="15.762322713162254"><ele>874.6666666666667</ele><time>2026-05-01T17:33:26Z</time></trkpt><trkpt lat="47.61935960019594" lon="15.762074248512768"><ele>876.3333333333334</ele><time>2026-05-01T17:33:27Z</time></trkpt><trkpt lat="47.619426063610085" lon="15.76181743210912"><ele>878.0</ele><time>2026-05-01T17:33:28Z</time></trkpt><trkpt lat="47.61949223546785" lon="15.761554241878095"><ele>887.3333333333334</ele><time>2026-05-01T17:33:29Z</time></trkpt><trkpt lat="47.61955276290252" lon="15.76129756181277"><ele>896.6666666666667</ele><time>2026-05-01T17:33:30Z</time></trkpt><trkpt lat="47.619610658863024" lon="15.761040991040202"><ele>906.0</ele><time>2026-05-01T17:33:31Z</time></trkpt><trkpt lat="47.61966983651471" lon="15.760772506985145"><ele>907.0</ele><time>2026-05-01T17:33:32Z</time></trkpt><trkpt lat="47.61970521483494" lon="15.760498004688436"><ele>908.0</ele><time>2026-05-01T17:33:33Z</time></trkpt><trkpt lat="47.619748671550454" lon="15.76025065416486"><ele>909.0</ele><time>2026-05-01T17:33:34Z</time></trkpt><trkpt lat="47.61979199753797" lon="15.75999104120431"><ele>911.6666666666667</ele><time>2026-05-01T17:33:35Z</time></trkpt><trkpt lat="47.61983469398311" lon="15.759720251622316"><ele>914.3333333333334</ele><time>2026-05-01T17:33:36Z</time></trkpt><trkpt lat="47.619874808723736" lon="15.759438452283993"><ele>917.0</ele><time>2026-05-01T17:33:37.016Z</time></trkpt><trkpt lat="47.61992653903772" lon="15.758421980871471"><ele>916.6666666666667</ele><time>2026-05-01T17:33:40.632Z</time></trkpt><trkpt lat="47.61995202392044" lon="15.758142779206084"><ele>916.3333333333333</ele><time>2026-05-01T17:33:41.631Z</time></trkpt><trkpt lat="47.61997490943862" lon="15.757862932486132"><ele>916.0</ele><time>2026-05-01T17:33:42.631Z</time></trkpt><trkpt lat="47.619994216007576" lon="15.757582497899183"><ele>916.0</ele><time>2026-05-01T17:33:43.631Z</time></trkpt><trkpt lat="47.62000961349847" lon="15.757301523912231"><ele>916.0</ele><time>2026-05-01T17:33:44.631Z</time></trkpt><trkpt lat="47.62002224053883" lon="15.757020460673942"><ele>916.0</ele><time>2026-05-01T17:33:45.63Z</time></trkpt><trkpt lat="47.62003240893816" lon="15.756738761329567"><ele>913.0</ele><time>2026-05-01T17:33:46.631Z</time></trkpt><trkpt lat="47.62003867019267" lon="15.756457025459175"><ele>910.0</ele><time>2026-05-01T17:33:47.631Z</time></trkpt><trkpt lat="47.620042145747085" lon="15.756175187517266"><ele>907.0</ele><time>2026-05-01T17:33:48.631Z</time></trkpt><trkpt lat="47.6200428648396" lon="15.755893331554775"><ele>902.0</ele><time>2026-05-01T17:33:49.631Z</time></trkpt><trkpt lat="47.62003957805565" lon="15.75561154530924"><ele>897.0</ele><time>2026-05-01T17:33:50.631Z</time></trkpt><trkpt lat="47.62003305924295" lon="15.755329734466752"><ele>892.0</ele><time>2026-05-01T17:33:51.631Z</time></trkpt><trkpt lat="47.62002350334666" lon="15.755048204593312"><ele>886.3333333333333</ele><time>2026-05-01T17:33:52.631Z</time></trkpt><trkpt lat="47.62001158589719" lon="15.754766862071566"><ele>880.6666666666667</ele><time>2026-05-01T17:33:53.631Z</time></trkpt><trkpt lat="47.619995633331264" lon="15.754485954698918"><ele>875.0</ele><time>2026-05-01T17:33:54.631Z</time></trkpt><trkpt lat="47.61997642538904" lon="15.754205434384852"><ele>875.6666666666667</ele><time>2026-05-01T17:33:55.631Z</time></trkpt><trkpt lat="47.6199548582183" lon="15.753925418228865"><ele>876.3333333333333</ele><time>2026-05-01T17:33:56.631Z</time></trkpt><trkpt lat="47.61993008496149" lon="15.753646542137867"><ele>877.0</ele><time>2026-05-01T17:33:57.629Z</time></trkpt><trkpt lat="47.619901536391744" lon="15.753367194482392"><ele>877.0</ele><time>2026-05-01T17:33:58.631Z</time></trkpt><trkpt lat="47.61987009231101" lon="15.753089168873563"><ele>877.0</ele><time>2026-05-01T17:33:59.631Z</time></trkpt><trkpt lat="47.619835872882156" lon="15.752811688839389"><ele>877.0</ele><time>2026-05-01T17:34:00.632Z</time></trkpt><trkpt lat="47.61979830915841" lon="15.752535484988327"><ele>884.0</ele><time>2026-05-01T17:34:01.631Z</time></trkpt><trkpt lat="47.6197572858052" lon="15.752260211118411"><ele>891.0</ele><time>2026-05-01T17:34:02.631Z</time></trkpt><trkpt lat="47.61971370726519" lon="15.751985777481915"><ele>898.0</ele><time>2026-05-01T17:34:03.631Z</time></trkpt><trkpt lat="47.61966656415005" lon="15.751712651949955"><ele>900.0</ele><time>2026-05-01T17:34:04.631Z</time></trkpt><trkpt lat="47.619616563410574" lon="15.751440625462477"><ele>902.0</ele><time>2026-05-01T17:34:05.631Z</time></trkpt><trkpt lat="47.619563810008515" lon="15.751169763152193"><ele>904.0</ele><time>2026-05-01T17:34:06.631Z</time></trkpt><trkpt lat="47.619507398418996" lon="15.750900431788116"><ele>890.6666666666666</ele><time>2026-05-01T17:34:07.631Z</time></trkpt><trkpt lat="47.61944825551525" lon="15.750632542879229"><ele>877.3333333333333</ele><time>2026-05-01T17:34:08.631Z</time></trkpt><trkpt lat="47.61938623753374" lon="15.750365992993398"><ele>864.0</ele><time>2026-05-01T17:34:09.631Z</time></trkpt><trkpt lat="47.619320956574626" lon="15.750100849817406"><ele>864.0</ele><time>2026-05-01T17:34:10.632Z</time></trkpt><trkpt lat="47.61925327363678" lon="15.749837631992717"><ele>864.0</ele><time>2026-05-01T17:34:11.631Z</time></trkpt><trkpt lat="47.619182206917046" lon="15.749576074714556"><ele>864.0</ele><time>2026-05-01T17:34:12.631Z</time></trkpt><trkpt lat="47.619107900760326" lon="15.749316506006332"><ele>868.0</ele><time>2026-05-01T17:34:13.631Z</time></trkpt><trkpt lat="47.61903099614142" lon="15.749058573063598"><ele>872.0</ele><time>2026-05-01T17:34:14.631Z</time></trkpt><trkpt lat="47.618951220396745" lon="15.748802568411012"><ele>876.0</ele><time>2026-05-01T17:34:15.631Z</time></trkpt><trkpt lat="47.618868579376304" lon="15.74854832182378"><ele>878.6666666666667</ele><time>2026-05-01T17:34:16.632Z</time></trkpt><trkpt lat="47.618782657630874" lon="15.748296926327312"><ele>881.3333333333334</ele><time>2026-05-01T17:34:17.631Z</time></trkpt><trkpt lat="47.6186947394524" lon="15.748046839762633"><ele>884.0</ele><time>2026-05-01T17:34:18.631Z</time></trkpt><trkpt lat="47.6186039124226" lon="15.747799017660812"><ele>874.0</ele><time>2026-05-01T17:34:19.631Z</time></trkpt><trkpt lat="47.618510095735736" lon="15.747553641931695"><ele>864.0</ele><time>2026-05-01T17:34:20.631Z</time></trkpt><trkpt lat="47.618413445944874" lon="15.747310692274596"><ele>854.0</ele><time>2026-05-01T17:34:21.631Z</time></trkpt><trkpt lat="47.61831381420667" lon="15.74707010236333"><ele>858.3333333333334</ele><time>2026-05-01T17:34:22.632Z</time></trkpt><trkpt lat="47.61821142752408" lon="15.746832647651631"><ele>862.6666666666667</ele><time>2026-05-01T17:34:23.631Z</time></trkpt><trkpt lat="47.61810603829876" lon="15.746597769779935"><ele>867.0</ele><time>2026-05-01T17:34:24.631Z</time></trkpt><trkpt lat="47.61799914138809" lon="15.746364110801853"><ele>867.0</ele><time>2026-05-01T17:34:25.632Z</time></trkpt><trkpt lat="47.61788824027249" lon="15.74613516707947"><ele>867.0</ele><time>2026-05-01T17:34:26.631Z</time></trkpt><trkpt lat="47.61777381431824" lon="15.74590974627295"><ele>867.0</ele><time>2026-05-01T17:34:27.631Z</time></trkpt><trkpt lat="47.61765645296963" lon="15.745687658692818"><ele>854.0</ele><time>2026-05-01T17:34:28.631Z</time></trkpt><trkpt lat="47.617535756346" lon="15.745469494020954"><ele>841.0</ele><time>2026-05-01T17:34:29.631Z</time></trkpt><trkpt lat="47.61741096540697" lon="15.745256426290368"><ele>828.0</ele><time>2026-05-01T17:34:30.631Z</time></trkpt><trkpt lat="47.61728315900875" lon="15.745047332567413"><ele>828.0</ele><time>2026-05-01T17:34:31.631Z</time></trkpt><trkpt lat="47.61715131568861" lon="15.744843805375615"><ele>828.0</ele><time>2026-05-01T17:34:32.631Z</time></trkpt><trkpt lat="47.617015619747825" lon="15.744645868507602"><ele>828.0</ele><time>2026-05-01T17:34:33.631Z</time></trkpt><trkpt lat="47.616876407959055" lon="15.744453367497988"><ele>830.3333333333333</ele><time>2026-05-01T17:34:34.631Z</time></trkpt><trkpt lat="47.61673345816134" lon="15.744266934237094"><ele>832.6666666666666</ele><time>2026-05-01T17:34:35.631Z</time></trkpt><trkpt lat="47.616586482645054" lon="15.744087518018015"><ele>835.0</ele><time>2026-05-01T17:34:36.631Z</time></trkpt><trkpt lat="47.61643585349473" lon="15.743914860163532"><ele>835.0</ele><time>2026-05-01T17:34:37.631Z</time></trkpt><trkpt lat="47.61628129960097" lon="15.743749984465103"><ele>835.0</ele><time>2026-05-01T17:34:38.631Z</time></trkpt><trkpt lat="47.61612323143965" lon="15.743592508508797"><ele>835.0</ele><time>2026-05-01T17:34:39.631Z</time></trkpt><trkpt lat="47.61596195973447" lon="15.743441927602017"><ele>834.6666666666666</ele><time>2026-05-01T17:34:40.632Z</time></trkpt><trkpt lat="47.61579783355985" lon="15.74329906134218"><ele>834.3333333333333</ele><time>2026-05-01T17:34:41.631Z</time></trkpt><trkpt lat="47.6156310279508" lon="15.743162708414996"><ele>834.0</ele><time>2026-05-01T17:34:42.631Z</time></trkpt><trkpt lat="47.615461235373566" lon="15.743034146236255"><ele>829.3333333333333</ele><time>2026-05-01T17:34:43.632Z</time></trkpt><trkpt lat="47.6152893833851" lon="15.742912820754034"><ele>824.6666666666666</ele><time>2026-05-01T17:34:44.631Z</time></trkpt><trkpt lat="47.61511605956197" lon="15.74279554651835"><ele>820.0</ele><time>2026-05-01T17:34:45.631Z</time></trkpt><trkpt lat="47.61494056287429" lon="15.742685590260795"><ele>820.0</ele><time>2026-05-01T17:34:46.631Z</time></trkpt><trkpt lat="47.614763939529944" lon="15.742579814727605"><ele>820.0</ele><time>2026-05-01T17:34:47.631Z</time></trkpt><trkpt lat="47.61458606244856" lon="15.742477871990484"><ele>820.0</ele><time>2026-05-01T17:34:48.632Z</time></trkpt><trkpt lat="47.61440695882265" lon="15.742382221313674"><ele>810.0</ele><time>2026-05-01T17:34:49.631Z</time></trkpt><trkpt lat="47.614227052240196" lon="15.742289185333167"><ele>800.0</ele><time>2026-05-01T17:34:50.631Z</time></trkpt><trkpt lat="47.6140459338216" lon="15.742201429602789"><ele>790.0</ele><time>2026-05-01T17:34:51.631Z</time></trkpt><trkpt lat="47.61386422358134" lon="15.742116396532218"><ele>790.0</ele><time>2026-05-01T17:34:52.631Z</time></trkpt><trkpt lat="47.61368204163287" lon="15.742033590485729"><ele>790.0</ele><time>2026-05-01T17:34:53.631Z</time></trkpt><trkpt lat="47.61349934203833" lon="15.741953282493805"><ele>790.0</ele><time>2026-05-01T17:34:54.631Z</time></trkpt><trkpt lat="47.613316436693914" lon="15.741874060574112"><ele>786.0</ele><time>2026-05-01T17:34:55.631Z</time></trkpt><trkpt lat="47.61313319105007" lon="15.741796538218402"><ele>782.0</ele><time>2026-05-01T17:34:56.631Z</time></trkpt><trkpt lat="47.612949727547665" lon="15.741720169013327"><ele>778.0</ele><time>2026-05-01T17:34:57.631Z</time></trkpt><trkpt lat="47.61276626213275" lon="15.741643788007256"><ele>774.3333333333333</ele><time>2026-05-01T17:34:58.631Z</time></trkpt><trkpt lat="47.6125828040663" lon="15.741567410060522"><ele>770.6666666666666</ele><time>2026-05-01T17:34:59.631Z</time></trkpt><trkpt lat="47.61239968344504" lon="15.741489242866498"><ele>767.0</ele><time>2026-05-01T17:35:00.631Z</time></trkpt><trkpt lat="47.61221715658609" lon="15.74140874956291"><ele>767.0</ele><time>2026-05-01T17:35:01.631Z</time></trkpt><trkpt lat="47.612034837311036" lon="15.741326012437192"><ele>767.0</ele><time>2026-05-01T17:35:02.631Z</time></trkpt><trkpt lat="47.611853903332744" lon="15.741237464781777"><ele>767.0</ele><time>2026-05-01T17:35:03.631Z</time></trkpt><trkpt lat="47.61167424605225" lon="15.741143378615511"><ele>767.0</ele><time>2026-05-01T17:35:04.631Z</time></trkpt><trkpt lat="47.61149669764924" lon="15.741040891498569"><ele>767.0</ele><time>2026-05-01T17:35:05.631Z</time></trkpt><trkpt lat="47.61111760992434" lon="15.740785134234468"><ele>764.3333333333333</ele><time>2026-05-01T17:35:21Z</time></trkpt><trkpt lat="47.610979526643334" lon="15.740670046407626"><ele>761.6666666666666</ele><time>2026-05-01T17:35:22Z</time></trkpt><trkpt lat="47.610815096408274" lon="15.74056643852511"><ele>759.0</ele><time>2026-05-01T17:35:23Z</time></trkpt><trkpt lat="47.610680025441454" lon="15.740438914009562"><ele>759.0</ele><time>2026-05-01T17:35:24Z</time></trkpt><trkpt lat="47.61054608972286" lon="15.740307114637588"><ele>759.0</ele><time>2026-05-01T17:35:25Z</time></trkpt><trkpt lat="47.61041796377218" lon="15.74015549891354"><ele>759.0</ele><time>2026-05-01T17:35:26Z</time></trkpt><trkpt lat="47.61028980790832" lon="15.739998409826038"><ele>757.6666666666666</ele><time>2026-05-01T17:35:27Z</time></trkpt><trkpt lat="47.61016482129614" lon="15.739833188809877"><ele>756.3333333333333</ele><time>2026-05-01T17:35:28Z</time></trkpt><trkpt lat="47.610042477685326" lon="15.739661840739167"><ele>755.0</ele><time>2026-05-01T17:35:29Z</time></trkpt><trkpt lat="47.60992477698079" lon="15.739484875215819"><ele>760.3333333333333</ele><time>2026-05-01T17:35:30Z</time></trkpt><trkpt lat="47.609809862847435" lon="15.739303302778623"><ele>765.6666666666666</ele><time>2026-05-01T17:35:31Z</time></trkpt><trkpt lat="47.609694054787425" lon="15.739117438220852"><ele>771.0</ele><time>2026-05-01T17:35:32Z</time></trkpt><trkpt lat="47.60957720750522" lon="15.73892876389185"><ele>767.6666666666666</ele><time>2026-05-01T17:35:33Z</time></trkpt><trkpt lat="47.60946320405059" lon="15.738739087947078"><ele>764.3333333333333</ele><time>2026-05-01T17:35:34Z</time></trkpt><trkpt lat="47.60934982413535" lon="15.738545801638692"><ele>761.0</ele><time>2026-05-01T17:35:35Z</time></trkpt><trkpt lat="47.609235829079644" lon="15.738352326434077"><ele>761.0</ele><time>2026-05-01T17:35:36Z</time></trkpt><trkpt lat="47.60912137225955" lon="15.738158450180519"><ele>761.0</ele><time>2026-05-01T17:35:37Z</time></trkpt><trkpt lat="47.60900684600962" lon="15.737963114605945"><ele>761.0</ele><time>2026-05-01T17:35:38Z</time></trkpt><trkpt lat="47.60889327289773" lon="15.737764386913934"><ele>757.6666666666666</ele><time>2026-05-01T17:35:39Z</time></trkpt><trkpt lat="47.60878176809134" lon="15.73756240447023"><ele>754.3333333333334</ele><time>2026-05-01T17:35:40Z</time></trkpt><trkpt lat="47.60866901531524" lon="15.737361074385577"><ele>751.0</ele><time>2026-05-01T17:35:41Z</time></trkpt><trkpt lat="47.60855493118542" lon="15.737163301252691"><ele>751.0</ele><time>2026-05-01T17:35:42Z</time></trkpt><trkpt lat="47.608440382394306" lon="15.736968230748122"><ele>751.0</ele><time>2026-05-01T17:35:43Z</time></trkpt><trkpt lat="47.608326519633415" lon="15.736773170137743"><ele>751.0</ele><time>2026-05-01T17:35:44Z</time></trkpt><trkpt lat="47.608213235035656" lon="15.736578888881573"><ele>753.3333333333334</ele><time>2026-05-01T17:35:45Z</time></trkpt><trkpt lat="47.608098300044446" lon="15.736383099118875"><ele>755.6666666666666</ele><time>2026-05-01T17:35:46Z</time></trkpt><trkpt lat="47.60798277158373" lon="15.736187484976757"><ele>758.0</ele><time>2026-05-01T17:35:47Z</time></trkpt><trkpt lat="47.60786738871253" lon="15.735990432188995"><ele>756.6666666666666</ele><time>2026-05-01T17:35:48Z</time></trkpt><trkpt lat="47.60775134951048" lon="15.735792771272557"><ele>755.3333333333334</ele><time>2026-05-01T17:35:49Z</time></trkpt><trkpt lat="47.60763456815176" lon="15.735595948470998"><ele>754.0</ele><time>2026-05-01T17:35:50Z</time></trkpt><trkpt lat="47.607516504697166" lon="15.735397895365768"><ele>757.3333333333334</ele><time>2026-05-01T17:35:51Z</time></trkpt><trkpt lat="47.60739905705454" lon="15.735197388951063"><ele>760.6666666666666</ele><time>2026-05-01T17:35:52Z</time></trkpt><trkpt lat="47.60728292405217" lon="15.734994910137823"><ele>764.0</ele><time>2026-05-01T17:35:53Z</time></trkpt><trkpt lat="47.607166377436805" lon="15.73479337818131"><ele>764.0</ele><time>2026-05-01T17:35:54Z</time></trkpt><trkpt lat="47.6070487473194" lon="15.734590291397375"><ele>764.0</ele><time>2026-05-01T17:35:55Z</time></trkpt><trkpt lat="47.60693054979941" lon="15.734387533366938"><ele>764.0</ele><time>2026-05-01T17:35:56Z</time></trkpt><trkpt lat="47.606812557056195" lon="15.734185289875745"><ele>761.3333333333333</ele><time>2026-05-01T17:35:57Z</time></trkpt><trkpt lat="47.606693979852786" lon="15.733983853041082"><ele>758.6666666666666</ele><time>2026-05-01T17:35:58Z</time></trkpt><trkpt lat="47.60657437372355" lon="15.733783023189527"><ele>756.0</ele><time>2026-05-01T17:35:59Z</time></trkpt><trkpt lat="47.606457935863325" lon="15.73359287690855"><ele>753.6666666666666</ele><time>2026-05-01T17:36:00Z</time></trkpt><trkpt lat="47.60633698209642" lon="15.733399841291556"><ele>751.3333333333333</ele><time>2026-05-01T17:36:01Z</time></trkpt><trkpt lat="47.60620990909776" lon="15.733211139190486"><ele>749.0</ele><time>2026-05-01T17:36:02Z</time></trkpt><trkpt lat="47.60607749481868" lon="15.73302957660257"><ele>749.0</ele><time>2026-05-01T17:36:03Z</time></trkpt><trkpt lat="47.60594146363105" lon="15.732857858931952"><ele>749.0</ele><time>2026-05-01T17:36:04Z</time></trkpt><trkpt lat="47.60580115479949" lon="15.732698239121275"><ele>749.0</ele><time>2026-05-01T17:36:05Z</time></trkpt><trkpt lat="47.60565827189333" lon="15.732548525038512"><ele>748.0</ele><time>2026-05-01T17:36:06Z</time></trkpt><trkpt lat="47.605510272171095" lon="15.732405961740104"><ele>747.0</ele><time>2026-05-01T17:36:07Z</time></trkpt><trkpt lat="47.60535925444945" lon="15.73226961546192"><ele>746.0</ele><time>2026-05-01T17:36:08Z</time></trkpt><trkpt lat="47.605204964479334" lon="15.732141675207625"><ele>746.0</ele><time>2026-05-01T17:36:09Z</time></trkpt><trkpt lat="47.60504641740952" lon="15.73202503470521"><ele>746.0</ele><time>2026-05-01T17:36:10Z</time></trkpt><trkpt lat="47.60488411494866" lon="15.731917644556981"><ele>746.0</ele><time>2026-05-01T17:36:11Z</time></trkpt><trkpt lat="47.604720260221164" lon="15.731820039398622"><ele>746.3333333333333</ele><time>2026-05-01T17:36:12Z</time></trkpt><trkpt lat="47.60455320553414" lon="15.731729804383775"><ele>746.6666666666666</ele><time>2026-05-01T17:36:13Z</time></trkpt><trkpt lat="47.60438601813252" lon="15.731642511884242"><ele>747.0</ele><time>2026-05-01T17:36:14Z</time></trkpt><trkpt lat="47.604218410649494" lon="15.731556462041159"><ele>745.0</ele><time>2026-05-01T17:36:15Z</time></trkpt><trkpt lat="47.60404843932945" lon="15.731470832278767"><ele>743.0</ele><time>2026-05-01T17:36:16Z</time></trkpt><trkpt lat="47.60387759995008" lon="15.731383832369591"><ele>741.0</ele><time>2026-05-01T17:36:17Z</time></trkpt><trkpt lat="47.60370584957107" lon="15.731295845015929"><ele>741.6666666666666</ele><time>2026-05-01T17:36:18Z</time></trkpt><trkpt lat="47.60353506383058" lon="15.73120037619041"><ele>742.3333333333333</ele><time>2026-05-01T17:36:19Z</time></trkpt><trkpt lat="47.60336594140453" lon="15.731097442141209"><ele>743.0</ele><time>2026-05-01T17:36:20Z</time></trkpt><trkpt lat="47.6031997222197" lon="15.730984275339349"><ele>741.6666666666666</ele><time>2026-05-01T17:36:21Z</time></trkpt><trkpt lat="47.603037531959465" lon="15.730861600326655"><ele>740.3333333333334</ele><time>2026-05-01T17:36:22Z</time></trkpt><trkpt lat="47.60287861569172" lon="15.730730731721511"><ele>739.0</ele><time>2026-05-01T17:36:23Z</time></trkpt><trkpt lat="47.60272430682812" lon="15.730589588072759"><ele>738.6666666666667</ele><time>2026-05-01T17:36:24Z</time></trkpt><trkpt lat="47.60257422386779" lon="15.73043814267425"><ele>738.3333333333334</ele><time>2026-05-01T17:36:25Z</time></trkpt><trkpt lat="47.60242999364119" lon="15.730276721355633"><ele>738.0</ele><time>2026-05-01T17:36:26Z</time></trkpt><trkpt lat="47.60229106167711" lon="15.73010619089285"><ele>737.6666666666666</ele><time>2026-05-01T17:36:27Z</time></trkpt><trkpt lat="47.6021574096995" lon="15.729928424965479"><ele>737.3333333333333</ele><time>2026-05-01T17:36:28Z</time></trkpt><trkpt lat="47.60202891701173" lon="15.729742983520092"><ele>737.0</ele><time>2026-05-01T17:36:29Z</time></trkpt><trkpt lat="47.60190623104043" lon="15.729550207511855"><ele>736.3333333333333</ele><time>2026-05-01T17:36:30Z</time></trkpt><trkpt lat="47.6017895954148" lon="15.729349190409513"><ele>735.6666666666666</ele><time>2026-05-01T17:36:31Z</time></trkpt><trkpt lat="47.60167940328792" lon="15.729139674472986"><ele>735.0</ele><time>2026-05-01T17:36:32Z</time></trkpt><trkpt lat="47.60157375376936" lon="15.728924604060776"><ele>735.0</ele><time>2026-05-01T17:36:33Z</time></trkpt><trkpt lat="47.60147554549774" lon="15.72870452799654"><ele>735.0</ele><time>2026-05-01T17:36:34Z</time></trkpt><trkpt lat="47.60138438126136" lon="15.728479271799161"><ele>735.0</ele><time>2026-05-01T17:36:35Z</time></trkpt><trkpt lat="47.60129951767018" lon="15.728249078629188"><ele>735.3333333333334</ele><time>2026-05-01T17:36:36Z</time></trkpt><trkpt lat="47.6012224037853" lon="15.728014033567849"><ele>735.6666666666667</ele><time>2026-05-01T17:36:37Z</time></trkpt><trkpt lat="47.601151641060596" lon="15.727775683560388"><ele>736.0</ele><time>2026-05-01T17:36:38Z</time></trkpt><trkpt lat="47.60108811819148" lon="15.727532345479608"><ele>735.3333333333334</ele><time>2026-05-01T17:36:39Z</time></trkpt><trkpt lat="47.601029970242855" lon="15.727283134102883"><ele>734.6666666666666</ele><time>2026-05-01T17:36:40Z</time></trkpt><trkpt lat="47.60097878779923" lon="15.727031257801436"><ele>734.0</ele><time>2026-05-01T17:36:41Z</time></trkpt><trkpt lat="47.600934559495634" lon="15.726775225738795"><ele>733.3333333333333</ele><time>2026-05-01T17:36:42Z</time></trkpt><trkpt lat="47.60089823377295" lon="15.726515306341252"><ele>732.6666666666666</ele><time>2026-05-01T17:36:43Z</time></trkpt><trkpt lat="47.60086960848306" lon="15.726251676448218"><ele>732.0</ele><time>2026-05-01T17:36:44Z</time></trkpt><trkpt lat="47.60084833372707" lon="15.725985852877855"><ele>731.6666666666666</ele><time>2026-05-01T17:36:45Z</time></trkpt><trkpt lat="47.600833076523486" lon="15.72571832141424"><ele>731.3333333333333</ele><time>2026-05-01T17:36:46Z</time></trkpt><trkpt lat="47.600824569492936" lon="15.72544903377552"><ele>731.0</ele><time>2026-05-01T17:36:47Z</time></trkpt><trkpt lat="47.60082088362884" lon="15.725179361678796"><ele>730.6666666666666</ele><time>2026-05-01T17:36:48Z</time></trkpt><trkpt lat="47.600820619685976" lon="15.724907520117704"><ele>730.3333333333334</ele><time>2026-05-01T17:36:49Z</time></trkpt><trkpt lat="47.60082348430958" lon="15.724634883888672"><ele>730.0</ele><time>2026-05-01T17:36:50Z</time></trkpt><trkpt lat="47.600831493786416" lon="15.724361487732505"><ele>729.0</ele><time>2026-05-01T17:36:51Z</time></trkpt><trkpt lat="47.6008426797472" lon="15.7240888625045"><ele>728.0</ele><time>2026-05-01T17:36:52Z</time></trkpt><trkpt lat="47.60085823797414" lon="15.723818074485038"><ele>727.0</ele><time>2026-05-01T17:36:53Z</time></trkpt><trkpt lat="47.60087709647918" lon="15.723549635192532"><ele>726.3333333333334</ele><time>2026-05-01T17:36:54Z</time></trkpt><trkpt lat="47.60090024928964" lon="15.723282152788757"><ele>725.6666666666666</ele><time>2026-05-01T17:36:55Z</time></trkpt><trkpt lat="47.60092771937551" lon="15.723017005382033"><ele>725.0</ele><time>2026-05-01T17:36:56Z</time></trkpt><trkpt lat="47.600958953623596" lon="15.722753393949889"><ele>725.0</ele><time>2026-05-01T17:36:57Z</time></trkpt><trkpt lat="47.600993802030956" lon="15.722492871755108"><ele>725.0</ele><time>2026-05-01T17:36:58Z</time></trkpt><trkpt lat="47.60103149038135" lon="15.722233711658061"><ele>725.0</ele><time>2026-05-01T17:36:59Z</time></trkpt><trkpt lat="47.60107311695614" lon="15.721977857039489"><ele>724.3333333333333</ele><time>2026-05-01T17:37:00Z</time></trkpt><trkpt lat="47.60111863640622" lon="15.721724547146406"><ele>723.6666666666666</ele><time>2026-05-01T17:37:01Z</time></trkpt><trkpt lat="47.60116774566013" lon="15.721472505438523"><ele>723.0</ele><time>2026-05-01T17:37:02Z</time></trkpt><trkpt lat="47.601218549481075" lon="15.721222239134265"><ele>722.6666666666666</ele><time>2026-05-01T17:37:03Z</time></trkpt><trkpt lat="47.60127214365883" lon="15.720975316435856"><ele>722.3333333333333</ele><time>2026-05-01T17:37:04Z</time></trkpt><trkpt lat="47.60132603007376" lon="15.720730085120152"><ele>722.0</ele><time>2026-05-01T17:37:05Z</time></trkpt><trkpt lat="47.60138169903202" lon="15.720484863261525"><ele>722.0</ele><time>2026-05-01T17:37:06Z</time></trkpt><trkpt lat="47.60143739287031" lon="15.720238905175075"><ele>722.0</ele><time>2026-05-01T17:37:07Z</time></trkpt><trkpt lat="47.60149465438832" lon="15.719992188911057"><ele>722.0</ele><time>2026-05-01T17:37:08Z</time></trkpt><trkpt lat="47.601551131520466" lon="15.719745525293177"><ele>721.6666666666666</ele><time>2026-05-01T17:37:09Z</time></trkpt><trkpt lat="47.60160781021592" lon="15.719498099499313"><ele>721.3333333333334</ele><time>2026-05-01T17:37:10Z</time></trkpt><trkpt lat="47.60166512983605" lon="15.719250922035084"><ele>721.0</ele><time>2026-05-01T17:37:11Z</time></trkpt><trkpt lat="47.601722142855905" lon="15.719004132667276"><ele>721.0</ele><time>2026-05-01T17:37:12Z</time></trkpt><trkpt lat="47.60177900051225" lon="15.718758121710335"><ele>721.0</ele><time>2026-05-01T17:37:13Z</time></trkpt><trkpt lat="47.60183505640376" lon="15.718511887548965"><ele>721.0</ele><time>2026-05-01T17:37:14Z</time></trkpt><trkpt lat="47.60189129720925" lon="15.718266384283293"><ele>720.6666666666667</ele><time>2026-05-01T17:37:15Z</time></trkpt><trkpt lat="47.60194734870923" lon="15.718020888022778"><ele>720.3333333333334</ele><time>2026-05-01T17:37:16Z</time></trkpt><trkpt lat="47.602003592137194" lon="15.71777579182342"><ele>720.0</ele><time>2026-05-01T17:37:17Z</time></trkpt><trkpt lat="47.60206000538076" lon="15.71753149962998"><ele>719.0</ele><time>2026-05-01T17:37:18Z</time></trkpt><trkpt lat="47.602116619670426" lon="15.717288118540313"><ele>718.0</ele><time>2026-05-01T17:37:19Z</time></trkpt><trkpt lat="47.60217355220303" lon="15.717044347191438"><ele>717.0</ele><time>2026-05-01T17:37:20Z</time></trkpt><trkpt lat="47.602230273358074" lon="15.716801398555765"><ele>716.6666666666666</ele><time>2026-05-01T17:37:21Z</time></trkpt><trkpt lat="47.6022868438587" lon="15.71655836422827"><ele>716.3333333333333</ele><time>2026-05-01T17:37:22Z</time></trkpt><trkpt lat="47.60234354842746" lon="15.71631597449465"><ele>716.0</ele><time>2026-05-01T17:37:23Z</time></trkpt><trkpt lat="47.60239947170489" lon="15.71607366627215"><ele>716.3333333333333</ele><time>2026-05-01T17:37:24Z</time></trkpt><trkpt lat="47.60245477046295" lon="15.715829948473388"><ele>716.6666666666666</ele><time>2026-05-01T17:37:25Z</time></trkpt><trkpt lat="47.602511146999575" lon="15.715582972913664"><ele>717.0</ele><time>2026-05-01T17:37:26Z</time></trkpt><trkpt lat="47.602567034354124" lon="15.715336218564662"><ele>717.6666666666666</ele><time>2026-05-01T17:37:27Z</time></trkpt><trkpt lat="47.6026238414855" lon="15.71509091929073"><ele>718.3333333333333</ele><time>2026-05-01T17:37:28Z</time></trkpt><trkpt lat="47.602680253650334" lon="15.714847722697181"><ele>719.0</ele><time>2026-05-01T17:37:29Z</time></trkpt><trkpt lat="47.602734796768644" lon="15.714616698966802"><ele>719.0</ele><time>2026-05-01T17:37:30Z</time></trkpt><trkpt lat="47.60278925138677" lon="15.714381231866005"><ele>719.0</ele><time>2026-05-01T17:37:31Z</time></trkpt><trkpt lat="47.6028371664871" lon="15.714141292664953"><ele>719.0</ele><time>2026-05-01T17:37:32Z</time></trkpt><trkpt lat="47.60288164536623" lon="15.713897224243444"><ele>718.0</ele><time>2026-05-01T17:37:33Z</time></trkpt><trkpt lat="47.602919795898906" lon="15.713651109364685"><ele>717.0</ele><time>2026-05-01T17:37:34Z</time></trkpt><trkpt lat="47.60295730193726" lon="15.713402286535011"><ele>716.0</ele><time>2026-05-01T17:37:35Z</time></trkpt><trkpt lat="47.60299620676275" lon="15.713154823888736"><ele>716.0</ele><time>2026-05-01T17:37:36Z</time></trkpt><trkpt lat="47.60303717279523" lon="15.712905579551286"><ele>716.0</ele><time>2026-05-01T17:37:37Z</time></trkpt><trkpt lat="47.60310055603132" lon="15.712665152250848"><ele>716.0</ele><time>2026-05-01T17:37:38Z</time></trkpt><trkpt lat="47.603155973780225" lon="15.712417632664803"><ele>716.3333333333333</ele><time>2026-05-01T17:37:39Z</time></trkpt><trkpt lat="47.60320666322045" lon="15.712168798956988"><ele>716.6666666666666</ele><time>2026-05-01T17:37:40Z</time></trkpt><trkpt lat="47.60325588290946" lon="15.711915615696402"><ele>717.0</ele><time>2026-05-01T17:37:41Z</time></trkpt><trkpt lat="47.6033003621145" lon="15.711661855708979"><ele>718.0</ele><time>2026-05-01T17:37:42Z</time></trkpt><trkpt lat="47.6033431863418" lon="15.711409618937102"><ele>719.0</ele><time>2026-05-01T17:37:43Z</time></trkpt><trkpt lat="47.60338166117841" lon="15.711154160665954"><ele>720.0</ele><time>2026-05-01T17:37:44Z</time></trkpt><trkpt lat="47.60341485046847" lon="15.710899148698243"><ele>720.0</ele><time>2026-05-01T17:37:45Z</time></trkpt><trkpt lat="47.603445946029176" lon="15.710646161493303"><ele>720.0</ele><time>2026-05-01T17:37:46Z</time></trkpt><trkpt lat="47.60347346622485" lon="15.710390997550933"><ele>720.0</ele><time>2026-05-01T17:37:47Z</time></trkpt><trkpt lat="47.603497867875696" lon="15.710135793495681"><ele>720.0</ele><time>2026-05-01T17:37:48Z</time></trkpt><trkpt lat="47.60352098760365" lon="15.70988110111673"><ele>720.0</ele><time>2026-05-01T17:37:49Z</time></trkpt><trkpt lat="47.603538301434206" lon="15.709621631725547"><ele>720.0</ele><time>2026-05-01T17:37:50Z</time></trkpt><trkpt lat="47.60355227127393" lon="15.70936251434003"><ele>720.6666666666666</ele><time>2026-05-01T17:37:51Z</time></trkpt><trkpt lat="47.60356551334863" lon="15.709102736673692"><ele>721.3333333333333</ele><time>2026-05-01T17:37:52Z</time></trkpt><trkpt lat="47.6035753731441" lon="15.708839602838436"><ele>722.0</ele><time>2026-05-01T17:37:53Z</time></trkpt><trkpt lat="47.603575516104605" lon="15.70857790059723"><ele>722.6666666666666</ele><time>2026-05-01T17:37:54Z</time></trkpt><trkpt lat="47.60357599336088" lon="15.708317583149235"><ele>723.3333333333334</ele><time>2026-05-01T17:37:55Z</time></trkpt><trkpt lat="47.60357281272872" lon="15.708055791291352"><ele>724.0</ele><time>2026-05-01T17:37:56Z</time></trkpt><trkpt lat="47.60356679085762" lon="15.707794344113946"><ele>724.3333333333334</ele><time>2026-05-01T17:37:57Z</time></trkpt><trkpt lat="47.60355745858532" lon="15.707535318026109"><ele>724.6666666666666</ele><time>2026-05-01T17:37:58Z</time></trkpt><trkpt lat="47.603544954239" lon="15.707275799654575"><ele>725.0</ele><time>2026-05-01T17:37:59Z</time></trkpt><trkpt lat="47.60352776709665" lon="15.707017979019003"><ele>725.3333333333333</ele><time>2026-05-01T17:38:00Z</time></trkpt><trkpt lat="47.60350665946907" lon="15.706759434468403"><ele>725.6666666666666</ele><time>2026-05-01T17:38:01Z</time></trkpt><trkpt lat="47.60348367014875" lon="15.706499841320767"><ele>726.0</ele><time>2026-05-01T17:38:02Z</time></trkpt><trkpt lat="47.60345707885465" lon="15.706237642016918"><ele>725.0</ele><time>2026-05-01T17:38:03Z</time></trkpt><trkpt lat="47.60342578487641" lon="15.705973478685214"><ele>724.0</ele><time>2026-05-01T17:38:04Z</time></trkpt><trkpt lat="47.60339056289581" lon="15.705710329573195"><ele>723.0</ele><time>2026-05-01T17:38:05Z</time></trkpt><trkpt lat="47.603352890044356" lon="15.70544713245699"><ele>722.3333333333334</ele><time>2026-05-01T17:38:06Z</time></trkpt><trkpt lat="47.603314064017425" lon="15.705184246320714"><ele>721.6666666666667</ele><time>2026-05-01T17:38:07Z</time></trkpt><trkpt lat="47.60327288492997" lon="15.704921411049787"><ele>721.0</ele><time>2026-05-01T17:38:08Z</time></trkpt><trkpt lat="47.60323154438177" lon="15.7046580636352"><ele>720.0</ele><time>2026-05-01T17:38:09Z</time></trkpt><trkpt lat="47.603186979715595" lon="15.704392980056582"><ele>719.0</ele><time>2026-05-01T17:38:10Z</time></trkpt><trkpt lat="47.603143244480144" lon="15.704128614191662"><ele>718.0</ele><time>2026-05-01T17:38:11Z</time></trkpt><trkpt lat="47.60310062761188" lon="15.703864826607685"><ele>718.0</ele><time>2026-05-01T17:38:12Z</time></trkpt><trkpt lat="47.6030584567038" lon="15.703600643479977"><ele>718.0</ele><time>2026-05-01T17:38:13Z</time></trkpt><trkpt lat="47.60301801275488" lon="15.703336327065413"><ele>718.0</ele><time>2026-05-01T17:38:14Z</time></trkpt><trkpt lat="47.60298099470878" lon="15.703069780082663"><ele>716.6666666666667</ele><time>2026-05-01T17:38:15Z</time></trkpt><trkpt lat="47.60294556324378" lon="15.702803875593114"><ele>715.3333333333334</ele><time>2026-05-01T17:38:16Z</time></trkpt><trkpt lat="47.6029126057693" lon="15.702537340591068"><ele>714.0</ele><time>2026-05-01T17:38:17Z</time></trkpt><trkpt lat="47.602883223040834" lon="15.702269862875431"><ele>712.6666666666666</ele><time>2026-05-01T17:38:18Z</time></trkpt><trkpt lat="47.60285912151774" lon="15.702000052786559"><ele>711.3333333333333</ele><time>2026-05-01T17:38:19Z</time></trkpt><trkpt lat="47.60283775510458" lon="15.701727598934053"><ele>710.0</ele><time>2026-05-01T17:38:20Z</time></trkpt><trkpt lat="47.60282037320677" lon="15.701455522261492"><ele>715.3333333333333</ele><time>2026-05-01T17:38:21Z</time></trkpt><trkpt lat="47.60280582306332" lon="15.701181997712286"><ele>720.6666666666666</ele><time>2026-05-01T17:38:22Z</time></trkpt><trkpt lat="47.60279371251985" lon="15.70090983094888"><ele>726.0</ele><time>2026-05-01T17:38:23Z</time></trkpt><trkpt lat="47.60278921510317" lon="15.700637920584649"><ele>729.0</ele><time>2026-05-01T17:38:24Z</time></trkpt><trkpt lat="47.602788920929136" lon="15.700365189738841"><ele>732.0</ele><time>2026-05-01T17:38:25Z</time></trkpt><trkpt lat="47.6027906684239" lon="15.700091739108927"><ele>735.0</ele><time>2026-05-01T17:38:26Z</time></trkpt><trkpt lat="47.60279560015995" lon="15.699821191543911"><ele>735.0</ele><time>2026-05-01T17:38:27Z</time></trkpt><trkpt lat="47.60280339171029" lon="15.699551110128848"><ele>735.0</ele><time>2026-05-01T17:38:28Z</time></trkpt><trkpt lat="47.6028134724228" lon="15.699282638822325"><ele>735.0</ele><time>2026-05-01T17:38:29Z</time></trkpt><trkpt lat="47.60282406918841" lon="15.699014956782879"><ele>727.6666666666666</ele><time>2026-05-01T17:38:30Z</time></trkpt><trkpt lat="47.602834663523154" lon="15.698747336122041"><ele>720.3333333333333</ele><time>2026-05-01T17:38:31Z</time></trkpt><trkpt lat="47.602844493340164" lon="15.698481261345345"><ele>713.0</ele><time>2026-05-01T17:38:32Z</time></trkpt><trkpt lat="47.60285375772979" lon="15.698215262703634"><ele>713.0</ele><time>2026-05-01T17:38:33Z</time></trkpt><trkpt lat="47.60286086548262" lon="15.697952397004812"><ele>713.0</ele><time>2026-05-01T17:38:34Z</time></trkpt><trkpt lat="47.60286792852042" lon="15.697691184772454"><ele>713.0</ele><time>2026-05-01T17:38:35Z</time></trkpt><trkpt lat="47.60287497470739" lon="15.69743059587282"><ele>714.3333333333333</ele><time>2026-05-01T17:38:36Z</time></trkpt><trkpt lat="47.60287913073625" lon="15.697167408364914"><ele>715.6666666666666</ele><time>2026-05-01T17:38:37Z</time></trkpt><trkpt lat="47.602882044674224" lon="15.696904668295272"><ele>717.0</ele><time>2026-05-01T17:38:38Z</time></trkpt><trkpt lat="47.60288245031246" lon="15.696640533155023"><ele>717.3333333333334</ele><time>2026-05-01T17:38:39Z</time></trkpt><trkpt lat="47.60288093725293" lon="15.696375005224898"><ele>717.6666666666667</ele><time>2026-05-01T17:38:40Z</time></trkpt><trkpt lat="47.602878302023655" lon="15.696106911922252"><ele>718.0</ele><time>2026-05-01T17:38:41Z</time></trkpt><trkpt lat="47.60287334730305" lon="15.69584027451367"><ele>718.0</ele><time>2026-05-01T17:38:42Z</time></trkpt><trkpt lat="47.60286400994315" lon="15.695570149587883"><ele>718.0</ele><time>2026-05-01T17:38:43Z</time></trkpt><trkpt lat="47.60285230564013" lon="15.69530239415546"><ele>718.0</ele><time>2026-05-01T17:38:44Z</time></trkpt><trkpt lat="47.60283892581703" lon="15.695037416792037"><ele>719.3333333333334</ele><time>2026-05-01T17:38:45Z</time></trkpt><trkpt lat="47.60282439128645" lon="15.694771411671086"><ele>720.6666666666666</ele><time>2026-05-01T17:38:46Z</time></trkpt><trkpt lat="47.60280844079079" lon="15.69450690969306"><ele>722.0</ele><time>2026-05-01T17:38:47Z</time></trkpt><trkpt lat="47.60278916345532" lon="15.694236914581886"><ele>722.0</ele><time>2026-05-01T17:38:48Z</time></trkpt><trkpt lat="47.602765741331815" lon="15.693965021398098"><ele>722.0</ele><time>2026-05-01T17:38:49Z</time></trkpt><trkpt lat="47.60273874736386" lon="15.69369894418658"><ele>722.0</ele><time>2026-05-01T17:38:50Z</time></trkpt><trkpt lat="47.60271175087761" lon="15.69343284219878"><ele>720.6666666666666</ele><time>2026-05-01T17:38:51Z</time></trkpt><trkpt lat="47.60267989389964" lon="15.693160440806938"><ele>719.3333333333334</ele><time>2026-05-01T17:38:52Z</time></trkpt><trkpt lat="47.6026474955098" lon="15.692896470106112"><ele>718.0</ele><time>2026-05-01T17:38:53Z</time></trkpt><trkpt lat="47.60261184763906" lon="15.692628065871848"><ele>717.0</ele><time>2026-05-01T17:38:54Z</time></trkpt><trkpt lat="47.6025734041248" lon="15.692365571598955"><ele>716.0</ele><time>2026-05-01T17:38:55Z</time></trkpt><trkpt lat="47.60253277915641" lon="15.692104989785241"><ele>715.0</ele><time>2026-05-01T17:38:56Z</time></trkpt><trkpt lat="47.6024891404444" lon="15.691845595522754"><ele>715.0</ele><time>2026-05-01T17:38:57Z</time></trkpt><trkpt lat="47.602444405365574" lon="15.691587348351563"><ele>715.0</ele><time>2026-05-01T17:38:58Z</time></trkpt><trkpt lat="47.60239977786824" lon="15.69133556529242"><ele>715.0</ele><time>2026-05-01T17:38:59Z</time></trkpt><trkpt lat="47.602352256290644" lon="15.691077824795453"><ele>718.0</ele><time>2026-05-01T17:39:00Z</time></trkpt><trkpt lat="47.60209831338083" lon="15.690918803626962"><ele>721.0</ele><time>2026-05-01T17:39:01Z</time></trkpt><trkpt lat="47.6020382641194" lon="15.690674536236068"><ele>720.6666666666667</ele><time>2026-05-01T17:39:02Z</time></trkpt><trkpt lat="47.60197587289024" lon="15.690430433407048"><ele>720.3333333333334</ele><time>2026-05-01T17:39:03Z</time></trkpt><trkpt lat="47.601909893648894" lon="15.690185876184955"><ele>720.0</ele><time>2026-05-01T17:39:04Z</time></trkpt><trkpt lat="47.60208440200807" lon="15.689821388647808"><ele>722.6666666666666</ele><time>2026-05-01T17:39:05Z</time></trkpt><trkpt lat="47.6020259811889" lon="15.689570385148228"><ele>725.3333333333333</ele><time>2026-05-01T17:39:06Z</time></trkpt><trkpt lat="47.601967500973" lon="15.689321041417186"><ele>728.0</ele><time>2026-05-01T17:39:07Z</time></trkpt><trkpt lat="47.60190751367759" lon="15.689067147423374"><ele>733.3333333333333</ele><time>2026-05-01T17:39:08Z</time></trkpt><trkpt lat="47.601847022727085" lon="15.68881699386793"><ele>738.6666666666666</ele><time>2026-05-01T17:39:09Z</time></trkpt><trkpt lat="47.601787511820035" lon="15.688570893133413"><ele>744.0</ele><time>2026-05-01T17:39:10Z</time></trkpt><trkpt lat="47.6017294424799" lon="15.688330482251873"><ele>747.6666666666666</ele><time>2026-05-01T17:39:11Z</time></trkpt><trkpt lat="47.60166770123218" lon="15.68808010406412"><ele>751.3333333333333</ele><time>2026-05-01T17:39:12Z</time></trkpt><trkpt lat="47.601595657800026" lon="15.687811986420229"><ele>755.0</ele><time>2026-05-01T17:39:13Z</time></trkpt><trkpt lat="47.60152852834491" lon="15.687572836233869"><ele>757.0</ele><time>2026-05-01T17:39:14Z</time></trkpt><trkpt lat="47.601461638661945" lon="15.687323937254064"><ele>759.0</ele><time>2026-05-01T17:39:15Z</time></trkpt><trkpt lat="47.60139058651684" lon="15.687063635663442"><ele>761.0</ele><time>2026-05-01T17:39:16Z</time></trkpt><trkpt lat="47.6013200399454" lon="15.686817022812532"><ele>763.3333333333333</ele><time>2026-05-01T17:39:17Z</time></trkpt><trkpt lat="47.60125092684767" lon="15.686578911281366"><ele>765.6666666666666</ele><time>2026-05-01T17:39:18Z</time></trkpt><trkpt lat="47.601178008039355" lon="15.686329963750502"><ele>768.0</ele><time>2026-05-01T17:39:19Z</time></trkpt><trkpt lat="47.60110594877412" lon="15.686089617356485"><ele>776.3333333333333</ele><time>2026-05-01T17:39:20Z</time></trkpt><trkpt lat="47.60103129495826" lon="15.685844417276096"><ele>784.6666666666666</ele><time>2026-05-01T17:39:21Z</time></trkpt><trkpt lat="47.60095508819064" lon="15.685600054578497"><ele>793.0</ele><time>2026-05-01T17:39:22Z</time></trkpt><trkpt lat="47.60088050758444" lon="15.685364808968675"><ele>793.0</ele><time>2026-05-01T17:39:23Z</time></trkpt><trkpt lat="47.600805932761965" lon="15.685129581553717"><ele>793.0</ele><time>2026-05-01T17:39:24Z</time></trkpt><trkpt lat="47.6007259749276" lon="15.684881068292688"><ele>793.0</ele><time>2026-05-01T17:39:25Z</time></trkpt><trkpt lat="47.60064547246966" lon="15.684642993061964"><ele>792.6666666666666</ele><time>2026-05-01T17:39:26Z</time></trkpt><trkpt lat="47.60056514629262" lon="15.684410603499453"><ele>792.3333333333333</ele><time>2026-05-01T17:39:27Z</time></trkpt><trkpt lat="47.60048270902962" lon="15.684172560407008"><ele>792.0</ele><time>2026-05-01T17:39:28Z</time></trkpt><trkpt lat="47.60040103733248" lon="15.68394052013865"><ele>796.3333333333333</ele><time>2026-05-01T17:39:29Z</time></trkpt><trkpt lat="47.600317093912594" lon="15.683704710161285"><ele>800.6666666666666</ele><time>2026-05-01T17:39:30Z</time></trkpt><trkpt lat="47.60023372794832" lon="15.683472907394858"><ele>805.0</ele><time>2026-05-01T17:39:31Z</time></trkpt><trkpt lat="47.60014780712527" lon="15.68323626700757"><ele>805.0</ele><time>2026-05-01T17:39:32Z</time></trkpt><trkpt lat="47.60005889752404" lon="15.682996232400349"><ele>805.0</ele><time>2026-05-01T17:39:33Z</time></trkpt><trkpt lat="47.59997104412378" lon="15.682768007371964"><ele>805.0</ele><time>2026-05-01T17:39:34Z</time></trkpt><trkpt lat="47.599882737430164" lon="15.682540242800204"><ele>801.3333333333333</ele><time>2026-05-01T17:39:35Z</time></trkpt><trkpt lat="47.59979487429821" lon="15.682314164656974"><ele>797.6666666666667</ele><time>2026-05-01T17:39:36Z</time></trkpt><trkpt lat="47.59970609252884" lon="15.682089662069693"><ele>794.0</ele><time>2026-05-01T17:39:37Z</time></trkpt><trkpt lat="47.59961649348693" lon="15.681866058941441"><ele>790.0</ele><time>2026-05-01T17:39:38Z</time></trkpt><trkpt lat="47.599524294092845" lon="15.681641356715247"><ele>786.0</ele><time>2026-05-01T17:39:39Z</time></trkpt><trkpt lat="47.59943522514797" lon="15.68142758038406"><ele>782.0</ele><time>2026-05-01T17:39:40Z</time></trkpt><trkpt lat="47.59934050253936" lon="15.681203843428737"><ele>777.0</ele><time>2026-05-01T17:39:41.019Z</time></trkpt><trkpt lat="47.59905803098847" lon="15.68036843898488"><ele>774.3333333333333</ele><time>2026-05-01T17:39:44.632Z</time></trkpt><trkpt lat="47.59896118793585" lon="15.680155512509804"><ele>771.6666666666666</ele><time>2026-05-01T17:39:45.632Z</time></trkpt><trkpt lat="47.59886407492396" lon="15.679942873724322"><ele>769.0</ele><time>2026-05-01T17:39:46.632Z</time></trkpt><trkpt lat="47.598766958207385" lon="15.679730226827052"><ele>767.6666666666666</ele><time>2026-05-01T17:39:47.632Z</time></trkpt><trkpt lat="47.59866777578389" lon="15.67951968566824"><ele>766.3333333333333</ele><time>2026-05-01T17:39:48.632Z</time></trkpt><trkpt lat="47.59856791708928" lon="15.67931017626595"><ele>765.0</ele><time>2026-05-01T17:39:49.631Z</time></trkpt><trkpt lat="47.598467057285674" lon="15.679101395670113"><ele>765.0</ele><time>2026-05-01T17:39:50.631Z</time></trkpt><trkpt lat="47.59836388872827" lon="15.678894707415754"><ele>765.0</ele><time>2026-05-01T17:39:51.633Z</time></trkpt><trkpt lat="47.59826366629528" lon="15.678685293798784"><ele>765.0</ele><time>2026-05-01T17:39:52.632Z</time></trkpt><trkpt lat="47.59816057299861" lon="15.678478921038524"><ele>756.3333333333334</ele><time>2026-05-01T17:39:53.632Z</time></trkpt><trkpt lat="47.598055705592316" lon="15.678274473148585"><ele>747.6666666666667</ele><time>2026-05-01T17:39:54.633Z</time></trkpt><trkpt lat="47.5979499204021" lon="15.678071073964635"><ele>739.0</ele><time>2026-05-01T17:39:55.633Z</time></trkpt><trkpt lat="47.59784376018557" lon="15.677868113926154"><ele>736.3333333333334</ele><time>2026-05-01T17:39:56.632Z</time></trkpt><trkpt lat="47.597736394189845" lon="15.67766672081304"><ele>733.6666666666666</ele><time>2026-05-01T17:39:57.633Z</time></trkpt><trkpt lat="47.59762934039578" lon="15.677464913358103"><ele>731.0</ele><time>2026-05-01T17:39:58.633Z</time></trkpt><trkpt lat="47.59752100461802" lon="15.677264469634313"><ele>731.0</ele><time>2026-05-01T17:39:59.633Z</time></trkpt><trkpt lat="47.59741169894482" lon="15.67706578816298"><ele>731.0</ele><time>2026-05-01T17:40:00.631Z</time></trkpt><trkpt lat="47.59730088971176" lon="15.676867732305535"><ele>731.0</ele><time>2026-05-01T17:40:01.633Z</time></trkpt><trkpt lat="47.59718905052022" lon="15.676671458561888"><ele>687.0</ele><time>2026-05-01T17:40:02.633Z</time></trkpt><trkpt lat="47.59028750100332" lon="15.668426202294214"><ele>687.0</ele><time>2026-05-01T17:40:50Z</time></trkpt><trkpt lat="47.59015345806771" lon="15.668263956789819"><ele>687.0</ele><time>2026-05-01T17:40:51Z</time></trkpt><trkpt lat="47.59007060494608" lon="15.668129894377849"><ele>687.0</ele><time>2026-05-01T17:40:52Z</time></trkpt><trkpt lat="47.5899354899775" lon="15.66797232906677"><ele>687.0</ele><time>2026-05-01T17:40:53Z</time></trkpt><trkpt lat="47.58980829307831" lon="15.667797327214235"><ele>687.0</ele><time>2026-05-01T17:40:54Z</time></trkpt><trkpt lat="47.58977952470415" lon="15.667409547994051"><ele>687.0</ele><time>2026-05-01T17:40:55Z</time></trkpt><trkpt lat="47.589636289910366" lon="15.66725481111097"><ele>687.0</ele><time>2026-05-01T17:40:56Z</time></trkpt><trkpt lat="47.58946187936363" lon="15.667066394090126"><ele>687.0</ele><time>2026-05-01T17:40:57Z</time></trkpt><trkpt lat="47.58931675991349" lon="15.666905520256565"><ele>687.0</ele><time>2026-05-01T17:40:58Z</time></trkpt><trkpt lat="47.5891742177903" lon="15.666742903735354"><ele>687.0</ele><time>2026-05-01T17:40:59Z</time></trkpt><trkpt lat="47.58902936168492" lon="15.666573508336313"><ele>687.0</ele><time>2026-05-01T17:41:00Z</time></trkpt><trkpt lat="47.588883252435565" lon="15.666396568408386"><ele>687.0</ele><time>2026-05-01T17:41:01Z</time></trkpt><trkpt lat="47.588738805724475" lon="15.666219450461353"><ele>685.0</ele><time>2026-05-01T17:41:02Z</time></trkpt><trkpt lat="47.58859765807801" lon="15.666039326299224"><ele>683.0</ele><time>2026-05-01T17:41:03Z</time></trkpt><trkpt lat="47.58845663207679" lon="15.665857329592935"><ele>681.0</ele><time>2026-05-01T17:41:04Z</time></trkpt><trkpt lat="47.58831787436473" lon="15.665671509917408"><ele>681.0</ele><time>2026-05-01T17:41:05Z</time></trkpt><trkpt lat="47.58817925727906" lon="15.665483927232398"><ele>681.0</ele><time>2026-05-01T17:41:06Z</time></trkpt><trkpt lat="47.58804532626643" lon="15.665296406325508"><ele>681.0</ele><time>2026-05-01T17:41:07Z</time></trkpt><trkpt lat="47.58790955799859" lon="15.665105128208875"><ele>682.6666666666666</ele><time>2026-05-01T17:41:08Z</time></trkpt><trkpt lat="47.587779175359465" lon="15.664917025756228"><ele>684.3333333333333</ele><time>2026-05-01T17:41:09Z</time></trkpt><trkpt lat="47.58765125911134" lon="15.664718853463377"><ele>686.0</ele><time>2026-05-01T17:41:10Z</time></trkpt><trkpt lat="47.587523386531885" lon="15.66451800968624"><ele>685.3333333333333</ele><time>2026-05-01T17:41:11Z</time></trkpt><trkpt lat="47.58739606263635" lon="15.664318027733492"><ele>684.6666666666666</ele><time>2026-05-01T17:41:12Z</time></trkpt><trkpt lat="47.58727156106032" lon="15.664117828223299"><ele>684.0</ele><time>2026-05-01T17:41:13Z</time></trkpt><trkpt lat="47.58715077878589" lon="15.663914093754242"><ele>684.0</ele><time>2026-05-01T17:41:14Z</time></trkpt><trkpt lat="47.587027255430414" lon="15.663704706809128"><ele>684.0</ele><time>2026-05-01T17:41:15Z</time></trkpt><trkpt lat="47.58690449993152" lon="15.663498132827886"><ele>684.0</ele><time>2026-05-01T17:41:16Z</time></trkpt><trkpt lat="47.586782238343154" lon="15.663292390025024"><ele>687.0</ele><time>2026-05-01T17:41:17Z</time></trkpt><trkpt lat="47.58666032916558" lon="15.663087240271098"><ele>690.0</ele><time>2026-05-01T17:41:18Z</time></trkpt><trkpt lat="47.58653833792061" lon="15.662881959384972"><ele>693.0</ele><time>2026-05-01T17:41:19Z</time></trkpt><trkpt lat="47.58641675609267" lon="15.662674430092665"><ele>693.0</ele><time>2026-05-01T17:41:20Z</time></trkpt><trkpt lat="47.58629597636127" lon="15.66246814549328"><ele>693.0</ele><time>2026-05-01T17:41:21Z</time></trkpt><trkpt lat="47.586174352051856" lon="15.66226443402158"><ele>693.0</ele><time>2026-05-01T17:41:22Z</time></trkpt><trkpt lat="47.586051074353584" lon="15.662060339556314"><ele>694.3333333333334</ele><time>2026-05-01T17:41:23Z</time></trkpt><trkpt lat="47.58592480469464" lon="15.661860882493697"><ele>695.6666666666667</ele><time>2026-05-01T17:41:24Z</time></trkpt><trkpt lat="47.58579577826275" lon="15.661664588781875"><ele>697.0</ele><time>2026-05-01T17:41:25Z</time></trkpt><trkpt lat="47.58566407766382" lon="15.66147057501496"><ele>697.0</ele><time>2026-05-01T17:41:26Z</time></trkpt><trkpt lat="47.58553115982084" lon="15.661277373668808"><ele>697.0</ele><time>2026-05-01T17:41:27Z</time></trkpt><trkpt lat="47.58539651478924" lon="15.661090038086261"><ele>697.0</ele><time>2026-05-01T17:41:28Z</time></trkpt><trkpt lat="47.58525695312575" lon="15.66090765278123"><ele>698.0</ele><time>2026-05-01T17:41:29Z</time></trkpt><trkpt lat="47.58511750324869" lon="15.660730710274985"><ele>699.0</ele><time>2026-05-01T17:41:30Z</time></trkpt><trkpt lat="47.58498069132639" lon="15.660551259330575"><ele>700.0</ele><time>2026-05-01T17:41:31Z</time></trkpt><trkpt lat="47.58485097049013" lon="15.66035696677054"><ele>701.0</ele><time>2026-05-01T17:41:32Z</time></trkpt><trkpt lat="47.58471372850179" lon="15.660170497851315"><ele>702.0</ele><time>2026-05-01T17:41:33Z</time></trkpt><trkpt lat="47.58456601471834" lon="15.659990542276677"><ele>703.0</ele><time>2026-05-01T17:41:34Z</time></trkpt><trkpt lat="47.58440510470924" lon="15.659809456920426"><ele>703.0</ele><time>2026-05-01T17:41:35Z</time></trkpt><trkpt lat="47.58423448790446" lon="15.659619625012018"><ele>703.0</ele><time>2026-05-01T17:41:36Z</time></trkpt><trkpt lat="47.58405340970637" lon="15.659425166078197"><ele>703.0</ele><time>2026-05-01T17:41:37Z</time></trkpt><trkpt lat="47.583858604570516" lon="15.659233976000955"><ele>702.0</ele><time>2026-05-01T17:41:38Z</time></trkpt><trkpt lat="47.583651911850474" lon="15.659044085088837"><ele>701.0</ele><time>2026-05-01T17:41:39Z</time></trkpt><trkpt lat="47.58343376721392" lon="15.65885516067371"><ele>701.0</ele><time>2026-05-01T17:41:40Z</time></trkpt><trkpt lat="47.58320559380315" lon="15.658666817197462"><ele>701.0</ele><time>2026-05-01T17:41:41Z</time></trkpt><trkpt lat="47.58296705213928" lon="15.658480275538048"><ele>700.0</ele><time>2026-05-01T17:41:42Z</time></trkpt><trkpt lat="47.58273373567494" lon="15.658310097625446"><ele>699.0</ele><time>2026-05-01T17:41:42.999Z</time></trkpt><trkpt lat="47.58249167205786" lon="15.658142921233894"><ele>699.0</ele><time>2026-05-01T17:41:43.999Z</time></trkpt><trkpt lat="47.58224142360981" lon="15.657974462073138"><ele>699.0</ele><time>2026-05-01T17:41:44.999Z</time></trkpt><trkpt lat="47.581987630319986" lon="15.657805039998363"><ele>694.5</ele><time>2026-05-01T17:41:45.999Z</time></trkpt><trkpt lat="47.58173107860602" lon="15.657632539004931"><ele>690.0</ele><time>2026-05-01T17:41:46.999Z</time></trkpt><trkpt lat="47.58146888665144" lon="15.65746132275209"><ele>690.0</ele><time>2026-05-01T17:41:47.999Z</time></trkpt><trkpt lat="47.58120622757732" lon="15.657282480124216"><ele>690.0</ele><time>2026-05-01T17:41:48.999Z</time></trkpt><trkpt lat="47.58094268706278" lon="15.657096000603506"><ele>688.0</ele><time>2026-05-01T17:41:49.999Z</time></trkpt><trkpt lat="47.58068018797581" lon="15.656903167156445"><ele>686.0</ele><time>2026-05-01T17:41:50.999Z</time></trkpt><trkpt lat="47.58042125630479" lon="15.656696135319208"><ele>691.5</ele><time>2026-05-01T17:41:51.999Z</time></trkpt><trkpt lat="47.58016797694188" lon="15.656473933780562"><ele>697.0</ele><time>2026-05-01T17:41:52.999Z</time></trkpt><trkpt lat="47.5799183304733" lon="15.656239870879878"><ele>697.5</ele><time>2026-05-01T17:41:54Z</time></trkpt><trkpt lat="47.57967274665837" lon="15.655994345248375"><ele>698.0</ele><time>2026-05-01T17:41:54.999Z</time></trkpt><trkpt lat="47.57943247407854" lon="15.655735140301053"><ele>698.0</ele><time>2026-05-01T17:41:55.999Z</time></trkpt><trkpt lat="47.57919696556647" lon="15.655463938270811"><ele>698.0</ele><time>2026-05-01T17:41:56.999Z</time></trkpt><trkpt lat="47.57896685112325" lon="15.65518046802541"><ele>699.5</ele><time>2026-05-01T17:41:58Z</time></trkpt><trkpt lat="47.578743583751894" lon="15.654883904396138"><ele>701.0</ele><time>2026-05-01T17:41:59Z</time></trkpt><trkpt lat="47.57852664942473" lon="15.654576267239822"><ele>697.0</ele><time>2026-05-01T17:42:00Z</time></trkpt><trkpt lat="47.578316594066536" lon="15.654259423479994"><ele>693.0</ele><time>2026-05-01T17:42:01Z</time></trkpt><trkpt lat="47.57811396982915" lon="15.65393268487558"><ele>694.0</ele><time>2026-05-01T17:42:02Z</time></trkpt><trkpt lat="47.5779193536625" lon="15.653596062685805"><ele>695.0</ele><time>2026-05-01T17:42:03Z</time></trkpt><trkpt lat="47.57773216184986" lon="15.653251401749534"><ele>695.0</ele><time>2026-05-01T17:42:04Z</time></trkpt><trkpt lat="47.577551747490574" lon="15.65289809367973"><ele>695.0</ele><time>2026-05-01T17:42:05Z</time></trkpt><trkpt lat="47.57738057924265" lon="15.652534394165965"><ele>691.0</ele><time>2026-05-01T17:42:06Z</time></trkpt><trkpt lat="47.57721946672024" lon="15.652162006204119"><ele>687.0</ele><time>2026-05-01T17:42:07.001Z</time></trkpt><trkpt lat="47.57706662884949" lon="15.651779308055186"><ele>686.0</ele><time>2026-05-01T17:42:08.001Z</time></trkpt><trkpt lat="47.57692160209947" lon="15.651386891339932"><ele>685.0</ele><time>2026-05-01T17:42:09.001Z</time></trkpt><trkpt lat="47.57677982023136" lon="15.650989990071182"><ele>681.5</ele><time>2026-05-01T17:42:10.001Z</time></trkpt><trkpt lat="47.57663867801479" lon="15.650594931029"><ele>678.0</ele><time>2026-05-01T17:42:11.001Z</time></trkpt><trkpt lat="47.576495462350245" lon="15.650203046180936"><ele>677.0</ele><time>2026-05-01T17:42:12.001Z</time></trkpt><trkpt lat="47.5763527266876" lon="15.649809916641601"><ele>676.0</ele><time>2026-05-01T17:42:13.001Z</time></trkpt><trkpt lat="47.576208810051945" lon="15.649418744132854"><ele>678.0</ele><time>2026-05-01T17:42:14.001Z</time></trkpt><trkpt lat="47.57606368758918" lon="15.649026128001179"><ele>680.0</ele><time>2026-05-01T17:42:15.001Z</time></trkpt><trkpt lat="47.5759162699052" lon="15.64863431256027"><ele>678.5</ele><time>2026-05-01T17:42:16.001Z</time></trkpt><trkpt lat="47.57576500930041" lon="15.648244790152534"><ele>677.0</ele><time>2026-05-01T17:42:17.001Z</time></trkpt><trkpt lat="47.57561175331155" lon="15.647858349486803"><ele>675.5</ele><time>2026-05-01T17:42:18.001Z</time></trkpt><trkpt lat="47.57545575587051" lon="15.647475992190975"><ele>674.0</ele><time>2026-05-01T17:42:19.001Z</time></trkpt><trkpt lat="47.57529684569584" lon="15.647098196041775"><ele>673.5</ele><time>2026-05-01T17:42:20.001Z</time></trkpt><trkpt lat="47.575133148066406" lon="15.646726147190872"><ele>673.0</ele><time>2026-05-01T17:42:21.001Z</time></trkpt><trkpt lat="47.574963122978986" lon="15.646361021618729"><ele>671.0</ele><time>2026-05-01T17:42:22.001Z</time></trkpt><trkpt lat="47.57478761211043" lon="15.646000595051996"><ele>669.0</ele><time>2026-05-01T17:42:23.001Z</time></trkpt><trkpt lat="47.57460739438308" lon="15.645642669119841"><ele>668.5</ele><time>2026-05-01T17:42:24.001Z</time></trkpt><trkpt lat="47.57442522826922" lon="15.645288363013401"><ele>668.0</ele><time>2026-05-01T17:42:25.001Z</time></trkpt><trkpt lat="47.57423884164953" lon="15.644939793551464"><ele>668.0</ele><time>2026-05-01T17:42:26.001Z</time></trkpt><trkpt lat="47.574047671073274" lon="15.644596782766099"><ele>668.0</ele><time>2026-05-01T17:42:27.001Z</time></trkpt><trkpt lat="47.5738514067948" lon="15.644260665670599"><ele>667.5</ele><time>2026-05-01T17:42:28.001Z</time></trkpt><trkpt lat="47.5736489796248" lon="15.643931970987675"><ele>667.0</ele><time>2026-05-01T17:42:29.001Z</time></trkpt><trkpt lat="47.573444132486166" lon="15.643607595822317"><ele>667.0</ele><time>2026-05-01T17:42:30.001Z</time></trkpt><trkpt lat="47.57323816787207" lon="15.643284054346827"><ele>667.0</ele><time>2026-05-01T17:42:31.001Z</time></trkpt><trkpt lat="47.57303222169918" lon="15.642960423175662"><ele>665.5</ele><time>2026-05-01T17:42:32.001Z</time></trkpt><trkpt lat="47.57282403023848" lon="15.642640302983986"><ele>664.0</ele><time>2026-05-01T17:42:33.001Z</time></trkpt><trkpt lat="47.5726150178355" lon="15.642322747694797"><ele>664.0</ele><time>2026-05-01T17:42:34.001Z</time></trkpt><trkpt lat="47.5724069347444" lon="15.642005735037124"><ele>664.0</ele><time>2026-05-01T17:42:35.001Z</time></trkpt><trkpt lat="47.57219812295028" lon="15.641687566730848"><ele>665.0</ele><time>2026-05-01T17:42:36.001Z</time></trkpt><trkpt lat="47.57198883897729" lon="15.641369772026938"><ele>666.0</ele><time>2026-05-01T17:42:37.001Z</time></trkpt><trkpt lat="47.57177864392983" lon="15.641053595408339"><ele>663.5</ele><time>2026-05-01T17:42:38.001Z</time></trkpt><trkpt lat="47.571567710041734" lon="15.640737483836256"><ele>661.0</ele><time>2026-05-01T17:42:39.001Z</time></trkpt><trkpt lat="47.571356456796316" lon="15.64042072651855"><ele>662.0</ele><time>2026-05-01T17:42:40.001Z</time></trkpt><trkpt lat="47.57114698682845" lon="15.64010424159206"><ele>663.0</ele><time>2026-05-01T17:42:41.001Z</time></trkpt><trkpt lat="47.57093856365869" lon="15.6397869937082"><ele>663.0</ele><time>2026-05-01T17:42:42.001Z</time></trkpt><trkpt lat="47.5707298046791" lon="15.639469863216226"><ele>663.0</ele><time>2026-05-01T17:42:43.001Z</time></trkpt><trkpt lat="47.570521903417145" lon="15.639154171663485"><ele>662.5</ele><time>2026-05-01T17:42:44.001Z</time></trkpt><trkpt lat="47.57031282452555" lon="15.638837612975713"><ele>662.0</ele><time>2026-05-01T17:42:45.001Z</time></trkpt><trkpt lat="47.570106058497984" lon="15.63851891154714"><ele>662.0</ele><time>2026-05-01T17:42:46.001Z</time></trkpt><trkpt lat="47.569903624279235" lon="15.638195622115708"><ele>662.0</ele><time>2026-05-01T17:42:47.001Z</time></trkpt><trkpt lat="47.56970630743226" lon="15.637865033806538"><ele>664.5</ele><time>2026-05-01T17:42:48.001Z</time></trkpt><trkpt lat="47.569518315707164" lon="15.637524298695906"><ele>667.0</ele><time>2026-05-01T17:42:49.001Z</time></trkpt><trkpt lat="47.5693439143734" lon="15.637168261048991"><ele>664.5</ele><time>2026-05-01T17:42:50.001Z</time></trkpt><trkpt lat="47.56918233448728" lon="15.636793544032816"><ele>662.0</ele><time>2026-05-01T17:42:51.001Z</time></trkpt><trkpt lat="47.56903430661783" lon="15.636406899394744"><ele>660.5</ele><time>2026-05-01T17:42:52.001Z</time></trkpt><trkpt lat="47.56889384108998" lon="15.636011385597584"><ele>659.0</ele><time>2026-05-01T17:42:53.001Z</time></trkpt><trkpt lat="47.56876106098717" lon="15.635607274133031"><ele>660.0</ele><time>2026-05-01T17:42:54.001Z</time></trkpt><trkpt lat="47.568639121039666" lon="15.635195786402477"><ele>661.0</ele><time>2026-05-01T17:42:55.001Z</time></trkpt><trkpt lat="47.56852672005614" lon="15.634780108553953"><ele>661.5</ele><time>2026-05-01T17:42:56.001Z</time></trkpt><trkpt lat="47.56841483091184" lon="15.634365752865628"><ele>662.0</ele><time>2026-05-01T17:42:57.001Z</time></trkpt><trkpt lat="47.56829522416708" lon="15.633959570805823"><ele>661.5</ele><time>2026-05-01T17:42:58.001Z</time></trkpt><trkpt lat="47.56815963812981" lon="15.63356677171211"><ele>661.0</ele><time>2026-05-01T17:42:59.001Z</time></trkpt><trkpt lat="47.56800802873169" lon="15.633188177033771"><ele>661.0</ele><time>2026-05-01T17:43:00.001Z</time></trkpt><trkpt lat="47.5678431090002" lon="15.63281868710006"><ele>661.0</ele><time>2026-05-01T17:43:01.001Z</time></trkpt><trkpt lat="47.56766862622428" lon="15.632460332399218"><ele>661.0</ele><time>2026-05-01T17:43:02.001Z</time></trkpt><trkpt lat="47.56748098728223" lon="15.632117424001503"><ele>661.0</ele><time>2026-05-01T17:43:03.001Z</time></trkpt><trkpt lat="47.56728393207387" lon="15.63178292659529"><ele>662.0</ele><time>2026-05-01T17:43:04.001Z</time></trkpt><trkpt lat="47.56708074105637" lon="15.631453430517174"><ele>663.0</ele><time>2026-05-01T17:43:05.001Z</time></trkpt><trkpt lat="47.56687609631207" lon="15.63112354460167"><ele>663.5</ele><time>2026-05-01T17:43:06.001Z</time></trkpt><trkpt lat="47.56667161272836" lon="15.630791963028253"><ele>664.0</ele><time>2026-05-01T17:43:07.001Z</time></trkpt><trkpt lat="47.56646684383343" lon="15.630457352982486"><ele>664.0</ele><time>2026-05-01T17:43:08.001Z</time></trkpt><trkpt lat="47.56626426482292" lon="15.630121630622268"><ele>664.0</ele><time>2026-05-01T17:43:09.001Z</time></trkpt><trkpt lat="47.56605917672908" lon="15.629785803616322"><ele>663.5</ele><time>2026-05-01T17:43:10.001Z</time></trkpt><trkpt lat="47.5658527012733" lon="15.629451323722103"><ele>663.0</ele><time>2026-05-01T17:43:11.001Z</time></trkpt><trkpt lat="47.56564578872944" lon="15.629117959605257"><ele>663.0</ele><time>2026-05-01T17:43:12.001Z</time></trkpt><trkpt lat="47.56543993654663" lon="15.628785427945635"><ele>663.0</ele><time>2026-05-01T17:43:13.001Z</time></trkpt><trkpt lat="47.56523738619132" lon="15.628455162111054"><ele>663.0</ele><time>2026-05-01T17:43:14.001Z</time></trkpt><trkpt lat="47.56504402711973" lon="15.628127768251641"><ele>663.0</ele><time>2026-05-01T17:43:15.001Z</time></trkpt><trkpt lat="47.564856157096706" lon="15.627794626735614"><ele>662.5</ele><time>2026-05-01T17:43:16.001Z</time></trkpt><trkpt lat="47.56466587644137" lon="15.627441318402937"><ele>662.0</ele><time>2026-05-01T17:43:17.001Z</time></trkpt><trkpt lat="47.56448004411957" lon="15.627076987734034"><ele>659.5</ele><time>2026-05-01T17:43:18.001Z</time></trkpt><trkpt lat="47.56429939244156" lon="15.626704023115991"><ele>657.0</ele><time>2026-05-01T17:43:19.001Z</time></trkpt><trkpt lat="47.56412353601189" lon="15.626324505405808"><ele>654.0</ele><time>2026-05-01T17:43:20.001Z</time></trkpt><trkpt lat="47.563952904097874" lon="15.625940230123751"><ele>651.0</ele><time>2026-05-01T17:43:21.001Z</time></trkpt><trkpt lat="47.56378722700123" lon="15.62555408329077"><ele>652.5</ele><time>2026-05-01T17:43:22.001Z</time></trkpt><trkpt lat="47.56362473137884" lon="15.625167642222678"><ele>654.0</ele><time>2026-05-01T17:43:23.001Z</time></trkpt><trkpt lat="47.56346853507511" lon="15.624777410113383"><ele>651.5</ele><time>2026-05-01T17:43:24.001Z</time></trkpt><trkpt lat="47.563318727929264" lon="15.624384287832347"><ele>649.0</ele><time>2026-05-01T17:43:25.001Z</time></trkpt><trkpt lat="47.5631741788091" lon="15.623985987608345"><ele>648.0</ele><time>2026-05-01T17:43:26.001Z</time></trkpt><trkpt lat="47.56303359243871" lon="15.623582681053897"><ele>647.0</ele><time>2026-05-01T17:43:27.001Z</time></trkpt><trkpt lat="47.562896996400745" lon="15.623174065197679"><ele>646.5</ele><time>2026-05-01T17:43:28.001Z</time></trkpt><trkpt lat="47.56276544319628" lon="15.622760320943929"><ele>646.0</ele><time>2026-05-01T17:43:29.001Z</time></trkpt><trkpt lat="47.562640503727756" lon="15.622340717681995"><ele>645.5</ele><time>2026-05-01T17:43:30.001Z</time></trkpt><trkpt lat="47.56252300204303" lon="15.621916207415442"><ele>645.0</ele><time>2026-05-01T17:43:31.001Z</time></trkpt><trkpt lat="47.56241356882339" lon="15.621487711460952"><ele>644.0</ele><time>2026-05-01T17:43:32.001Z</time></trkpt><trkpt lat="47.562308536724736" lon="15.62105588545464"><ele>643.0</ele><time>2026-05-01T17:43:33.001Z</time></trkpt><trkpt lat="47.562206807310474" lon="15.620621686115616"><ele>641.0</ele><time>2026-05-01T17:43:34.001Z</time></trkpt><trkpt lat="47.562110719826066" lon="15.62018409888912"><ele>639.0</ele><time>2026-05-01T17:43:35.001Z</time></trkpt><trkpt lat="47.562020848631235" lon="15.61974401593257"><ele>640.5</ele><time>2026-05-01T17:43:36.001Z</time></trkpt><trkpt lat="47.56193741153727" lon="15.619302764463022"><ele>642.0</ele><time>2026-05-01T17:43:37.001Z</time></trkpt><trkpt lat="47.561858887327865" lon="15.618860713606109"><ele>639.5</ele><time>2026-05-01T17:43:38.001Z</time></trkpt><trkpt lat="47.56178197680407" lon="15.618420774283065"><ele>637.0</ele><time>2026-05-01T17:43:39.001Z</time></trkpt><trkpt lat="47.56170382686679" lon="15.617981751180608"><ele>636.0</ele><time>2026-05-01T17:43:40.001Z</time></trkpt><trkpt lat="47.56162742117448" lon="15.617542903117782"><ele>635.0</ele><time>2026-05-01T17:43:41.001Z</time></trkpt><trkpt lat="47.561553025783475" lon="15.617106461348213"><ele>635.0</ele><time>2026-05-01T17:43:42.001Z</time></trkpt><trkpt lat="47.561479174740974" lon="15.616669497492747"><ele>635.0</ele><time>2026-05-01T17:43:43.001Z</time></trkpt><trkpt lat="47.56140688439235" lon="15.616235011162532"><ele>634.5</ele><time>2026-05-01T17:43:44.001Z</time></trkpt><trkpt lat="47.56133345894586" lon="15.615801693758542"><ele>634.0</ele><time>2026-05-01T17:43:45.001Z</time></trkpt><trkpt lat="47.56125747096163" lon="15.615371639685794"><ele>636.0</ele><time>2026-05-01T17:43:46.001Z</time></trkpt><trkpt lat="47.56117802078358" lon="15.614943778020676"><ele>638.0</ele><time>2026-05-01T17:43:47.001Z</time></trkpt><trkpt lat="47.561095724379506" lon="15.614518673649465"><ele>636.5</ele><time>2026-05-01T17:43:48.001Z</time></trkpt><trkpt lat="47.5610109709968" lon="15.614094620869084"><ele>635.0</ele><time>2026-05-01T17:43:49Z</time></trkpt><trkpt lat="47.56092249100233" lon="15.613675190999892"><ele>634.0</ele><time>2026-05-01T17:43:50Z</time></trkpt><trkpt lat="47.56083025619171" lon="15.613257768973346"><ele>633.0</ele><time>2026-05-01T17:43:51Z</time></trkpt><trkpt lat="47.560732121744074" lon="15.612838660674019"><ele>632.5</ele><time>2026-05-01T17:43:52Z</time></trkpt><trkpt lat="47.560629794827356" lon="15.612420175906964"><ele>632.0</ele><time>2026-05-01T17:43:53Z</time></trkpt><trkpt lat="47.560523278757664" lon="15.612002042815096"><ele>632.0</ele><time>2026-05-01T17:43:54Z</time></trkpt><trkpt lat="47.56041351776544" lon="15.611583384860731"><ele>632.0</ele><time>2026-05-01T17:43:55Z</time></trkpt><trkpt lat="47.56029899161893" lon="15.611166323286696"><ele>632.5</ele><time>2026-05-01T17:43:56Z</time></trkpt><trkpt lat="47.56018077965683" lon="15.610752008776727"><ele>633.0</ele><time>2026-05-01T17:43:57Z</time></trkpt><trkpt lat="47.56005863754637" lon="15.610339533448652"><ele>633.5</ele><time>2026-05-01T17:43:58Z</time></trkpt><trkpt lat="47.55993248951922" lon="15.609931713381775"><ele>634.0</ele><time>2026-05-01T17:43:59Z</time></trkpt><trkpt lat="47.55980455050266" lon="15.609524856854506"><ele>633.0</ele><time>2026-05-01T17:44:00Z</time></trkpt><trkpt lat="47.55967865914132" lon="15.609118543111004"><ele>632.0</ele><time>2026-05-01T17:44:01Z</time></trkpt><trkpt lat="47.55955489436607" lon="15.608707775063035"><ele>631.0</ele><time>2026-05-01T17:44:02Z</time></trkpt><trkpt lat="47.5594336174672" lon="15.608295762700527"><ele>630.0</ele><time>2026-05-01T17:44:03Z</time></trkpt><trkpt lat="47.55931243277515" lon="15.607884812411958"><ele>629.5</ele><time>2026-05-01T17:44:04Z</time></trkpt><trkpt lat="47.55919050544198" lon="15.60747552163469"><ele>629.0</ele><time>2026-05-01T17:44:05Z</time></trkpt><trkpt lat="47.55906894822119" lon="15.607065164231914"><ele>628.0</ele><time>2026-05-01T17:44:06Z</time></trkpt><trkpt lat="47.5589482226017" lon="15.606653752726148"><ele>627.0</ele><time>2026-05-01T17:44:07Z</time></trkpt><trkpt lat="47.55882803964384" lon="15.606241607812951"><ele>626.5</ele><time>2026-05-01T17:44:08Z</time></trkpt><trkpt lat="47.55871100012733" lon="15.605827631274794"><ele>626.0</ele><time>2026-05-01T17:44:09Z</time></trkpt><trkpt lat="47.55859855152183" lon="15.605410421114913"><ele>630.0</ele><time>2026-05-01T17:44:10Z</time></trkpt><trkpt lat="47.55848995844013" lon="15.604990250155376"><ele>634.0</ele><time>2026-05-01T17:44:11Z</time></trkpt><trkpt lat="47.55838972122336" lon="15.604563153264692"><ele>631.5</ele><time>2026-05-01T17:44:12.001Z</time></trkpt><trkpt lat="47.55829605672316" lon="15.604130422269002"><ele>629.0</ele><time>2026-05-01T17:44:13.001Z</time></trkpt><trkpt lat="47.558212969656374" lon="15.603693069965123"><ele>627.0</ele><time>2026-05-01T17:44:14.001Z</time></trkpt><trkpt lat="47.55814394156331" lon="15.603250215615521"><ele>625.0</ele><time>2026-05-01T17:44:15.001Z</time></trkpt><trkpt lat="47.558088027134765" lon="15.60280346807656"><ele>624.5</ele><time>2026-05-01T17:44:16.001Z</time></trkpt><trkpt lat="47.55804693128126" lon="15.602353338458787"><ele>624.0</ele><time>2026-05-01T17:44:17.001Z</time></trkpt><trkpt lat="47.55802045303143" lon="15.601900921802184"><ele>624.0</ele><time>2026-05-01T17:44:18.001Z</time></trkpt><trkpt lat="47.55800622165629" lon="15.601449402253456"><ele>624.0</ele><time>2026-05-01T17:44:19.001Z</time></trkpt><trkpt lat="47.55800369466971" lon="15.600997475794207"><ele>625.5</ele><time>2026-05-01T17:44:20.001Z</time></trkpt><trkpt lat="47.55800830605442" lon="15.600546521582606"><ele>627.0</ele><time>2026-05-01T17:44:21.001Z</time></trkpt><trkpt lat="47.5580190724744" lon="15.60009730641776"><ele>627.0</ele><time>2026-05-01T17:44:22.001Z</time></trkpt><trkpt lat="47.55803977687756" lon="15.599649401460622"><ele>627.0</ele><time>2026-05-01T17:44:23.001Z</time></trkpt><trkpt lat="47.55807044673619" lon="15.599203673803375"><ele>627.0</ele><time>2026-05-01T17:44:24.001Z</time></trkpt><trkpt lat="47.558107836362076" lon="15.5987589223603"><ele>627.0</ele><time>2026-05-01T17:44:25.001Z</time></trkpt><trkpt lat="47.55815024820226" lon="15.598313187384425"><ele>625.5</ele><time>2026-05-01T17:44:26.001Z</time></trkpt><trkpt lat="47.55819579607695" lon="15.597866408882815"><ele>624.0</ele><time>2026-05-01T17:44:27.001Z</time></trkpt><trkpt lat="47.55824308812043" lon="15.59742162321085"><ele>624.5</ele><time>2026-05-01T17:44:28.001Z</time></trkpt><trkpt lat="47.55828934144071" lon="15.59697601068741"><ele>625.0</ele><time>2026-05-01T17:44:29.001Z</time></trkpt><trkpt lat="47.55833460059841" lon="15.596530555097232"><ele>625.5</ele><time>2026-05-01T17:44:30.001Z</time></trkpt><trkpt lat="47.55837971064049" lon="15.596087174742385"><ele>626.0</ele><time>2026-05-01T17:44:31.001Z</time></trkpt><trkpt lat="47.55842322656959" lon="15.595645418543235"><ele>626.0</ele><time>2026-05-01T17:44:32.001Z</time></trkpt><trkpt lat="47.558463176296314" lon="15.595204534838802"><ele>626.0</ele><time>2026-05-01T17:44:33.001Z</time></trkpt><trkpt lat="47.55849892138045" lon="15.594764714292522"><ele>625.5</ele><time>2026-05-01T17:44:34.001Z</time></trkpt><trkpt lat="47.55853038053908" lon="15.594324888362596"><ele>625.0</ele><time>2026-05-01T17:44:35.001Z</time></trkpt><trkpt lat="47.558558595050165" lon="15.593884054397044"><ele>625.0</ele><time>2026-05-01T17:44:36.001Z</time></trkpt><trkpt lat="47.55858543699501" lon="15.593440940379647"><ele>625.0</ele><time>2026-05-01T17:44:37.001Z</time></trkpt><trkpt lat="47.558610387517945" lon="15.592996246211213"><ele>624.5</ele><time>2026-05-01T17:44:38.001Z</time></trkpt><trkpt lat="47.55863104916704" lon="15.592550209405651"><ele>624.0</ele><time>2026-05-01T17:44:39.001Z</time></trkpt><trkpt lat="47.55864516550962" lon="15.59210213764865"><ele>624.0</ele><time>2026-05-01T17:44:40.001Z</time></trkpt><trkpt lat="47.558652496945626" lon="15.591652576224078"><ele>624.0</ele><time>2026-05-01T17:44:41.001Z</time></trkpt><trkpt lat="47.55865521400006" lon="15.591201885273891"><ele>624.0</ele><time>2026-05-01T17:44:42.001Z</time></trkpt><trkpt lat="47.55865537243159" lon="15.590750777405502"><ele>624.0</ele><time>2026-05-01T17:44:43.001Z</time></trkpt><trkpt lat="47.55865301618956" lon="15.59030060487705"><ele>623.5</ele><time>2026-05-01T17:44:44.001Z</time></trkpt><trkpt lat="47.55864581609841" lon="15.589855745864773"><ele>623.0</ele><time>2026-05-01T17:44:45.001Z</time></trkpt><trkpt lat="47.55863275774138" lon="15.58942971292774"><ele>621.5</ele><time>2026-05-01T17:44:46.001Z</time></trkpt><trkpt lat="47.5586149020151" lon="15.588990817570892"><ele>620.0</ele><time>2026-05-01T17:44:47.001Z</time></trkpt><trkpt lat="47.55858819737993" lon="15.588543327751811"><ele>619.5</ele><time>2026-05-01T17:44:48.001Z</time></trkpt><trkpt lat="47.558556364186096" lon="15.58809272052086"><ele>619.0</ele><time>2026-05-01T17:44:49.001Z</time></trkpt><trkpt lat="47.558511936380995" lon="15.58764160582365"><ele>619.0</ele><time>2026-05-01T17:44:50.001Z</time></trkpt><trkpt lat="47.55845170102821" lon="15.587193655083329"><ele>619.0</ele><time>2026-05-01T17:44:51.001Z</time></trkpt><trkpt lat="47.55837776628441" lon="15.586748045764681"><ele>619.5</ele><time>2026-05-01T17:44:52.001Z</time></trkpt><trkpt lat="47.55829183919463" lon="15.5863063495045"><ele>620.0</ele><time>2026-05-01T17:44:53.001Z</time></trkpt><trkpt lat="47.558195831270815" lon="15.585870147369336"><ele>620.5</ele><time>2026-05-01T17:44:54.001Z</time></trkpt><trkpt lat="47.55809234475525" lon="15.585439479099998"><ele>621.0</ele><time>2026-05-01T17:44:55.001Z</time></trkpt><trkpt lat="47.557979775001264" lon="15.58501508654175"><ele>620.5</ele><time>2026-05-01T17:44:56.001Z</time></trkpt><trkpt lat="47.5578561187741" lon="15.584599945044369"><ele>620.0</ele><time>2026-05-01T17:44:57.001Z</time></trkpt><trkpt lat="47.55772124865189" lon="15.584196181003902"><ele>619.0</ele><time>2026-05-01T17:44:58.001Z</time></trkpt><trkpt lat="47.55757554600112" lon="15.58380297392896"><ele>618.0</ele><time>2026-05-01T17:44:59.001Z</time></trkpt><trkpt lat="47.55742071685312" lon="15.583419157041249"><ele>618.0</ele><time>2026-05-01T17:45:00.001Z</time></trkpt><trkpt lat="47.55725720702399" lon="15.58304345960452"><ele>618.0</ele><time>2026-05-01T17:45:01.001Z</time></trkpt><trkpt lat="47.55708452257424" lon="15.582678038767003"><ele>618.0</ele><time>2026-05-01T17:45:02.001Z</time></trkpt><trkpt lat="47.5569023012137" lon="15.582324565333465"><ele>618.0</ele><time>2026-05-01T17:45:03.001Z</time></trkpt><trkpt lat="47.55671162048605" lon="15.581982453563482"><ele>617.0</ele><time>2026-05-01T17:45:04.001Z</time></trkpt><trkpt lat="47.5565147672901" lon="15.5816510059156"><ele>616.0</ele><time>2026-05-01T17:45:05.001Z</time></trkpt><trkpt lat="47.55630824855055" lon="15.581331360232603"><ele>617.0</ele><time>2026-05-01T17:45:06.001Z</time></trkpt><trkpt lat="47.5560948201422" lon="15.58102312931554"><ele>618.0</ele><time>2026-05-01T17:45:07.001Z</time></trkpt><trkpt lat="47.55587471728959" lon="15.580728047281347"><ele>618.0</ele><time>2026-05-01T17:45:08.001Z</time></trkpt><trkpt lat="47.555647027996905" lon="15.580443033061016"><ele>618.0</ele><time>2026-05-01T17:45:09.001Z</time></trkpt><trkpt lat="47.55541279556826" lon="15.580167395943334"><ele>617.5</ele><time>2026-05-01T17:45:10.001Z</time></trkpt><trkpt lat="47.555169937660665" lon="15.579904466832987"><ele>617.0</ele><time>2026-05-01T17:45:11.001Z</time></trkpt><trkpt lat="47.55492068888847" lon="15.579655441748132"><ele>617.0</ele><time>2026-05-01T17:45:12.001Z</time></trkpt><trkpt lat="47.55466325899188" lon="15.579424174697825"><ele>617.0</ele><time>2026-05-01T17:45:13.001Z</time></trkpt><trkpt lat="47.55439931550027" lon="15.579209505764814"><ele>617.0</ele><time>2026-05-01T17:45:14.001Z</time></trkpt><trkpt lat="47.55412896773802" lon="15.579008064034063"><ele>617.0</ele><time>2026-05-01T17:45:15.001Z</time></trkpt><trkpt lat="47.55385479458677" lon="15.578815979035562"><ele>617.5</ele><time>2026-05-01T17:45:16.001Z</time></trkpt><trkpt lat="47.55357667179931" lon="15.578631633950938"><ele>618.0</ele><time>2026-05-01T17:45:17.001Z</time></trkpt><trkpt lat="47.55329531055002" lon="15.578452989949321"><ele>618.0</ele><time>2026-05-01T17:45:18.001Z</time></trkpt><trkpt lat="47.55301363075947" lon="15.578277721489624"><ele>618.0</ele><time>2026-05-01T17:45:19.001Z</time></trkpt><trkpt lat="47.55273251649719" lon="15.57810258390144"><ele>619.5</ele><time>2026-05-01T17:45:20.001Z</time></trkpt><trkpt lat="47.55245363975889" lon="15.577924330926182"><ele>621.0</ele><time>2026-05-01T17:45:21.001Z</time></trkpt><trkpt lat="47.55217528070015" lon="15.577743570215471"><ele>622.0</ele><time>2026-05-01T17:45:22.001Z</time></trkpt><trkpt lat="47.5518977737275" lon="15.57756549159753"><ele>623.0</ele><time>2026-05-01T17:45:23.001Z</time></trkpt><trkpt lat="47.55162159381269" lon="15.577388944388938"><ele>623.0</ele><time>2026-05-01T17:45:24.001Z</time></trkpt><trkpt lat="47.55134539005637" lon="15.57721292087194"><ele>623.0</ele><time>2026-05-01T17:45:25.001Z</time></trkpt><trkpt lat="47.55107077857273" lon="15.577036514884096"><ele>621.5</ele><time>2026-05-01T17:45:26.001Z</time></trkpt><trkpt lat="47.55079708058458" lon="15.576860258219275"><ele>620.0</ele><time>2026-05-01T17:45:27.001Z</time></trkpt><trkpt lat="47.550526307602745" lon="15.576683789498551"><ele>621.0</ele><time>2026-05-01T17:45:28.001Z</time></trkpt><trkpt lat="47.55025831735482" lon="15.576507654569427"><ele>622.0</ele><time>2026-05-01T17:45:29.001Z</time></trkpt><trkpt lat="47.54999441180238" lon="15.576330085367802"><ele>621.5</ele><time>2026-05-01T17:45:30.001Z</time></trkpt><trkpt lat="47.549734869754715" lon="15.576150863330628"><ele>621.0</ele><time>2026-05-01T17:45:31.001Z</time></trkpt><trkpt lat="47.54949009783086" lon="15.575978000675022"><ele>623.5</ele><time>2026-05-01T17:45:32.001Z</time></trkpt><trkpt lat="47.54926111928165" lon="15.575814729821474"><ele>626.0</ele><time>2026-05-01T17:45:33.001Z</time></trkpt><trkpt lat="47.54904680880801" lon="15.575659777303606"><ele>626.0</ele><time>2026-05-01T17:45:34.001Z</time></trkpt><trkpt lat="47.54884411343255" lon="15.575513447426744"><ele>626.0</ele><time>2026-05-01T17:45:35.001Z</time></trkpt><trkpt lat="47.54864932420243" lon="15.575377156021354"><ele>626.0</ele><time>2026-05-01T17:45:36.001Z</time></trkpt><trkpt lat="47.548452110859266" lon="15.575251832266591"><ele>625.6666666666666</ele><time>2026-05-01T17:45:37.001Z</time></trkpt><trkpt lat="47.54825424420322" lon="15.575140379793849"><ele>625.3333333333334</ele><time>2026-05-01T17:45:38.001Z</time></trkpt><trkpt lat="47.5480554899382" lon="15.575039982859384"><ele>625.0</ele><time>2026-05-01T17:45:39.001Z</time></trkpt><trkpt lat="47.54785325181701" lon="15.574947578695717"><ele>626.3333333333334</ele><time>2026-05-01T17:45:40.001Z</time></trkpt><trkpt lat="47.54764884457463" lon="15.574865450087852"><ele>627.6666666666666</ele><time>2026-05-01T17:45:41.001Z</time></trkpt><trkpt lat="47.54744151550696" lon="15.574793566707534"><ele>629.0</ele><time>2026-05-01T17:45:42.001Z</time></trkpt><trkpt lat="47.54723189292894" lon="15.574736646226695"><ele>629.6666666666666</ele><time>2026-05-01T17:45:43.001Z</time></trkpt><trkpt lat="47.547022478378" lon="15.57469277046287"><ele>630.3333333333334</ele><time>2026-05-01T17:45:44.001Z</time></trkpt><trkpt lat="47.54681338766904" lon="15.574662456857231"><ele>631.0</ele><time>2026-05-01T17:45:45.001Z</time></trkpt><trkpt lat="47.546602939830045" lon="15.574644319178585"><ele>631.0</ele><time>2026-05-01T17:45:46.001Z</time></trkpt><trkpt lat="47.54638991921746" lon="15.574637120718059"><ele>631.0</ele><time>2026-05-01T17:45:47.001Z</time></trkpt><trkpt lat="47.54617415048719" lon="15.574635337381176"><ele>631.0</ele><time>2026-05-01T17:45:48.001Z</time></trkpt><trkpt lat="47.545956090394064" lon="15.57463508716284"><ele>632.3333333333334</ele><time>2026-05-01T17:45:49.001Z</time></trkpt><trkpt lat="47.54573644853943" lon="15.574634762930607"><ele>633.6666666666666</ele><time>2026-05-01T17:45:50.001Z</time></trkpt><trkpt lat="47.54551635175575" lon="15.5746305611846"><ele>635.0</ele><time>2026-05-01T17:45:51.001Z</time></trkpt><trkpt lat="47.54529499810157" lon="15.574616911956243"><ele>636.6666666666666</ele><time>2026-05-01T17:45:52.001Z</time></trkpt><trkpt lat="47.54507441493174" lon="15.57459346984118"><ele>638.3333333333334</ele><time>2026-05-01T17:45:53.001Z</time></trkpt><trkpt lat="47.544856077595114" lon="15.574561521065556"><ele>640.0</ele><time>2026-05-01T17:45:54.001Z</time></trkpt><trkpt lat="47.54463938447046" lon="15.574519227904043"><ele>642.0</ele><time>2026-05-01T17:45:55Z</time></trkpt><trkpt lat="47.544423831487904" lon="15.574465238478258"><ele>644.0</ele><time>2026-05-01T17:45:56Z</time></trkpt><trkpt lat="47.54420793295594" lon="15.57439553245016"><ele>646.0</ele><time>2026-05-01T17:45:57Z</time></trkpt><trkpt lat="47.54399388824457" lon="15.57431289006029"><ele>646.0</ele><time>2026-05-01T17:45:58Z</time></trkpt><trkpt lat="47.54378173774557" lon="15.574216830972881"><ele>646.0</ele><time>2026-05-01T17:45:59Z</time></trkpt><trkpt lat="47.54357114520486" lon="15.57410614375618"><ele>646.0</ele><time>2026-05-01T17:46:00Z</time></trkpt><trkpt lat="47.54336228487885" lon="15.57398149442381"><ele>647.5</ele><time>2026-05-01T17:46:01Z</time></trkpt><trkpt lat="47.54315556096042" lon="15.573844323961765"><ele>649.0</ele><time>2026-05-01T17:46:02Z</time></trkpt><trkpt lat="47.542950046106036" lon="15.5737004285862"><ele>648.0</ele><time>2026-05-01T17:46:03Z</time></trkpt><trkpt lat="47.542745054948064" lon="15.573551118578823"><ele>647.0</ele><time>2026-05-01T17:46:04Z</time></trkpt><trkpt lat="47.54253915513443" lon="15.573403403129129"><ele>647.0</ele><time>2026-05-01T17:46:05Z</time></trkpt><trkpt lat="47.54233449119735" lon="15.573245387342006"><ele>647.0</ele><time>2026-05-01T17:46:06Z</time></trkpt><trkpt lat="47.542131280359605" lon="15.573080400777021"><ele>646.0</ele><time>2026-05-01T17:46:07Z</time></trkpt><trkpt lat="47.54195873006564" lon="15.572886796201308"><ele>645.0</ele><time>2026-05-01T17:46:08Z</time></trkpt><trkpt lat="47.541772736759086" lon="15.572701193506099"><ele>644.0</ele><time>2026-05-01T17:46:09Z</time></trkpt><trkpt lat="47.54158413270118" lon="15.572530863248607"><ele>643.0</ele><time>2026-05-01T17:46:10Z</time></trkpt><trkpt lat="47.54140841288334" lon="15.572349014112302"><ele>642.0</ele><time>2026-05-01T17:46:11Z</time></trkpt><trkpt lat="47.541227340021365" lon="15.57214835589542"><ele>641.0</ele><time>2026-05-01T17:46:12Z</time></trkpt><trkpt lat="47.541046656417876" lon="15.57193310937848"><ele>644.5</ele><time>2026-05-01T17:46:13Z</time></trkpt><trkpt lat="47.54086287239125" lon="15.571696116716835"><ele>648.0</ele><time>2026-05-01T17:46:14Z</time></trkpt><trkpt lat="47.540677289055814" lon="15.571444027633103"><ele>646.5</ele><time>2026-05-01T17:46:15Z</time></trkpt><trkpt lat="47.540493927837545" lon="15.571172676901844"><ele>645.0</ele><time>2026-05-01T17:46:16Z</time></trkpt><trkpt lat="47.540314507123384" lon="15.57088709890082"><ele>648.0</ele><time>2026-05-01T17:46:17Z</time></trkpt><trkpt lat="47.54013991616124" lon="15.570586277507909"><ele>651.0</ele><time>2026-05-01T17:46:18Z</time></trkpt><trkpt lat="47.53997335227628" lon="15.570270861081639"><ele>651.0</ele><time>2026-05-01T17:46:19Z</time></trkpt><trkpt lat="47.53981123239801" lon="15.56994457313117"><ele>651.0</ele><time>2026-05-01T17:46:20Z</time></trkpt><trkpt lat="47.53965502634111" lon="15.569609678366382"><ele>654.0</ele><time>2026-05-01T17:46:21Z</time></trkpt><trkpt lat="47.53950760640726" lon="15.569280197753567"><ele>657.0</ele><time>2026-05-01T17:46:22Z</time></trkpt><trkpt lat="47.53935502437934" lon="15.568914356593462"><ele>654.5</ele><time>2026-05-01T17:46:23.001Z</time></trkpt><trkpt lat="47.53920622419083" lon="15.568558954140332"><ele>652.0</ele><time>2026-05-01T17:46:24.001Z</time></trkpt><trkpt lat="47.539057508904875" lon="15.568196608600283"><ele>651.0</ele><time>2026-05-01T17:46:25.001Z</time></trkpt><trkpt lat="47.53891402947285" lon="15.567828261146001"><ele>650.0</ele><time>2026-05-01T17:46:26.001Z</time></trkpt><trkpt lat="47.538774500583656" lon="15.567451847192448"><ele>653.0</ele><time>2026-05-01T17:46:27.001Z</time></trkpt><trkpt lat="47.538638594158755" lon="15.567067429529686"><ele>656.0</ele><time>2026-05-01T17:46:28.001Z</time></trkpt><trkpt lat="47.538505565628476" lon="15.56667683599677"><ele>656.0</ele><time>2026-05-01T17:46:29.001Z</time></trkpt><trkpt lat="47.5383758840741" lon="15.566279530555349"><ele>656.0</ele><time>2026-05-01T17:46:30.001Z</time></trkpt><trkpt lat="47.53824918095698" lon="15.565876207054103"><ele>650.5</ele><time>2026-05-01T17:46:31.001Z</time></trkpt><trkpt lat="47.53812646321835" lon="15.565466273714827"><ele>645.0</ele><time>2026-05-01T17:46:32.001Z</time></trkpt><trkpt lat="47.538007649020024" lon="15.565050500132061"><ele>642.0</ele><time>2026-05-01T17:46:33.001Z</time></trkpt><trkpt lat="47.53789204297186" lon="15.564631392907529"><ele>639.0</ele><time>2026-05-01T17:46:34.001Z</time></trkpt><trkpt lat="47.53778290192049" lon="15.56420698619554"><ele>647.5</ele><time>2026-05-01T17:46:35.001Z</time></trkpt><trkpt lat="47.53768261720128" lon="15.563775485471586"><ele>656.0</ele><time>2026-05-01T17:46:36.001Z</time></trkpt><trkpt lat="47.53759084353286" lon="15.563341084093551"><ele>656.0</ele><time>2026-05-01T17:46:37.001Z</time></trkpt><trkpt lat="47.537506700261275" lon="15.562901420828993"><ele>656.0</ele><time>2026-05-01T17:46:38.001Z</time></trkpt><trkpt lat="47.53742883940965" lon="15.56246061278615"><ele>653.0</ele><time>2026-05-01T17:46:39.001Z</time></trkpt><trkpt lat="47.537357578037465" lon="15.562019946559296"><ele>650.0</ele><time>2026-05-01T17:46:40.001Z</time></trkpt><trkpt lat="47.53728984139189" lon="15.56158035841517"><ele>647.5</ele><time>2026-05-01T17:46:41.001Z</time></trkpt><trkpt lat="47.53722692116314" lon="15.561140999298177"><ele>645.0</ele><time>2026-05-01T17:46:42.001Z</time></trkpt><trkpt lat="47.53716940806459" lon="15.560701099418848"><ele>643.5</ele><time>2026-05-01T17:46:43.001Z</time></trkpt><trkpt lat="47.537116570690145" lon="15.560260843292541"><ele>642.0</ele><time>2026-05-01T17:46:44.001Z</time></trkpt><trkpt lat="47.53706616928277" lon="15.559816823155794"><ele>647.0</ele><time>2026-05-01T17:46:45.001Z</time></trkpt><trkpt lat="47.53701868632599" lon="15.559371123616852"><ele>652.0</ele><time>2026-05-01T17:46:46.001Z</time></trkpt><trkpt lat="47.536968997813474" lon="15.558925304965737"><ele>651.5</ele><time>2026-05-01T17:46:47.001Z</time></trkpt><trkpt lat="47.53691983465616" lon="15.558479653003094"><ele>651.0</ele><time>2026-05-01T17:46:48.001Z</time></trkpt><trkpt lat="47.53686821187512" lon="15.55803320796898"><ele>649.0</ele><time>2026-05-01T17:46:49.001Z</time></trkpt><trkpt lat="47.536816475686656" lon="15.557585597448828"><ele>647.0</ele><time>2026-05-01T17:46:50.001Z</time></trkpt><trkpt lat="47.53676449010906" lon="15.55713735813508"><ele>646.0</ele><time>2026-05-01T17:46:51.001Z</time></trkpt><trkpt lat="47.53671209544381" lon="15.556688820211843"><ele>645.0</ele><time>2026-05-01T17:46:52.001Z</time></trkpt><trkpt lat="47.53666114924356" lon="15.556240400807472"><ele>644.0</ele><time>2026-05-01T17:46:53.001Z</time></trkpt><trkpt lat="47.53661191265459" lon="15.555791443513513"><ele>643.0</ele><time>2026-05-01T17:46:54.001Z</time></trkpt><trkpt lat="47.536563563796356" lon="15.555344982234365"><ele>643.0</ele><time>2026-05-01T17:46:55.001Z</time></trkpt><trkpt lat="47.536515835761946" lon="15.554900530256207"><ele>643.0</ele><time>2026-05-01T17:46:56.001Z</time></trkpt><trkpt lat="47.53646873147307" lon="15.55445647875892"><ele>642.0</ele><time>2026-05-01T17:46:57.001Z</time></trkpt><trkpt lat="47.53641961870201" lon="15.554015278278893"><ele>641.0</ele><time>2026-05-01T17:46:58.001Z</time></trkpt><trkpt lat="47.53636882703185" lon="15.553576531143543"><ele>640.5</ele><time>2026-05-01T17:46:59.001Z</time></trkpt><trkpt lat="47.5363170737792" lon="15.553138722240144"><ele>640.0</ele><time>2026-05-01T17:47:00.001Z</time></trkpt><trkpt lat="47.53626116151729" lon="15.55270321898559"><ele>641.0</ele><time>2026-05-01T17:47:01.001Z</time></trkpt><trkpt lat="47.53619699506021" lon="15.552271605945188"><ele>642.0</ele><time>2026-05-01T17:47:02.001Z</time></trkpt><trkpt lat="47.536121502286875" lon="15.551843842248747"><ele>642.5</ele><time>2026-05-01T17:47:03.001Z</time></trkpt><trkpt lat="47.53603903425439" lon="15.551417497445739"><ele>643.0</ele><time>2026-05-01T17:47:04.001Z</time></trkpt><trkpt lat="47.53595458802781" lon="15.550990545902154"><ele>642.0</ele><time>2026-05-01T17:47:05.001Z</time></trkpt><trkpt lat="47.535870949116514" lon="15.550561908863376"><ele>641.0</ele><time>2026-05-01T17:47:06.001Z</time></trkpt><trkpt lat="47.5357907172006" lon="15.550130813559738"><ele>641.0</ele><time>2026-05-01T17:47:07.001Z</time></trkpt><trkpt lat="47.535718611321535" lon="15.549696463796444"><ele>641.0</ele><time>2026-05-01T17:47:08.001Z</time></trkpt><trkpt lat="47.535654636652545" lon="15.549259371788795"><ele>641.5</ele><time>2026-05-01T17:47:09.001Z</time></trkpt><trkpt lat="47.53560763071443" lon="15.548818727419373"><ele>642.0</ele><time>2026-05-01T17:47:10.001Z</time></trkpt><trkpt lat="47.53557818714038" lon="15.548375756361258"><ele>642.5</ele><time>2026-05-01T17:47:11.001Z</time></trkpt><trkpt lat="47.53555732479418" lon="15.547932623156976"><ele>643.0</ele><time>2026-05-01T17:47:12.001Z</time></trkpt><trkpt lat="47.53553856143805" lon="15.547489797337407"><ele>643.0</ele><time>2026-05-01T17:47:13.001Z</time></trkpt><trkpt lat="47.53551641685675" lon="15.547048443676653"><ele>643.0</ele><time>2026-05-01T17:47:14.001Z</time></trkpt><trkpt lat="47.53548771692391" lon="15.546608815432585"><ele>639.5</ele><time>2026-05-01T17:47:15.001Z</time></trkpt><trkpt lat="47.535447922831096" lon="15.54616895578406"><ele>636.0</ele><time>2026-05-01T17:47:16.001Z</time></trkpt><trkpt lat="47.53540303741834" lon="15.545731230746032"><ele>638.0</ele><time>2026-05-01T17:47:17.001Z</time></trkpt><trkpt lat="47.535348669715255" lon="15.545295111396415"><ele>640.0</ele><time>2026-05-01T17:47:18.001Z</time></trkpt><trkpt lat="47.5352877293955" lon="15.544860635411599"><ele>642.5</ele><time>2026-05-01T17:47:19.001Z</time></trkpt><trkpt lat="47.535219936708906" lon="15.544426356242395"><ele>645.0</ele><time>2026-05-01T17:47:20.001Z</time></trkpt><trkpt lat="47.53514372397166" lon="15.543993283200132"><ele>646.5</ele><time>2026-05-01T17:47:21.001Z</time></trkpt><trkpt lat="47.535064578899195" lon="15.543558931690514"><ele>648.0</ele><time>2026-05-01T17:47:22.001Z</time></trkpt><trkpt lat="47.534983376627046" lon="15.543124803931011"><ele>647.0</ele><time>2026-05-01T17:47:23.001Z</time></trkpt><trkpt lat="47.53490294199467" lon="15.542686884185816"><ele>646.0</ele><time>2026-05-01T17:47:24.001Z</time></trkpt><trkpt lat="47.5348263570848" lon="15.542250161102617"><ele>646.5</ele><time>2026-05-01T17:47:25.001Z</time></trkpt><trkpt lat="47.53474871704608" lon="15.541814821958011"><ele>647.0</ele><time>2026-05-01T17:47:26.001Z</time></trkpt><trkpt lat="47.53467267508529" lon="15.541389238871698"><ele>648.0</ele><time>2026-05-01T17:47:27.001Z</time></trkpt><trkpt lat="47.534599680648256" lon="15.540980011109507"><ele>649.0</ele><time>2026-05-01T17:47:28.001Z</time></trkpt><trkpt lat="47.5345266810347" lon="15.540556800817052"><ele>649.5</ele><time>2026-05-01T17:47:29.001Z</time></trkpt><trkpt lat="47.53445860158164" lon="15.540125892059812"><ele>650.0</ele><time>2026-05-01T17:47:30.001Z</time></trkpt><trkpt lat="47.53440105153346" lon="15.539689636329365"><ele>651.0</ele><time>2026-05-01T17:47:31.001Z</time></trkpt><trkpt lat="47.534357047684054" lon="15.539248315870136"><ele>652.0</ele><time>2026-05-01T17:47:32.001Z</time></trkpt><trkpt lat="47.534326397141875" lon="15.538803985427164"><ele>653.5</ele><time>2026-05-01T17:47:33.001Z</time></trkpt><trkpt lat="47.534305425370725" lon="15.538358728874908"><ele>655.0</ele><time>2026-05-01T17:47:34.001Z</time></trkpt><trkpt lat="47.53428873341404" lon="15.537912026444433"><ele>655.0</ele><time>2026-05-01T17:47:35.001Z</time></trkpt><trkpt lat="47.53427227939771" lon="15.537466281096112"><ele>655.0</ele><time>2026-05-01T17:47:36.001Z</time></trkpt><trkpt lat="47.53425409122635" lon="15.537020829281445"><ele>656.0</ele><time>2026-05-01T17:47:37.001Z</time></trkpt><trkpt lat="47.53423400716245" lon="15.536576132540077"><ele>657.0</ele><time>2026-05-01T17:47:38.001Z</time></trkpt><trkpt lat="47.53421265651564" lon="15.536131064202884"><ele>658.0</ele><time>2026-05-01T17:47:39.001Z</time></trkpt><trkpt lat="47.5341905491709" lon="15.535687013571367"><ele>659.0</ele><time>2026-05-01T17:47:40.001Z</time></trkpt><trkpt lat="47.534165888249916" lon="15.535243978184848"><ele>659.0</ele><time>2026-05-01T17:47:41.001Z</time></trkpt><trkpt lat="47.53413689171623" lon="15.534804708234207"><ele>659.0</ele><time>2026-05-01T17:47:42.001Z</time></trkpt><trkpt lat="47.53410947281769" lon="15.534364200453675"><ele>659.0</ele><time>2026-05-01T17:47:43.001Z</time></trkpt><trkpt lat="47.53407925765235" lon="15.533922534105274"><ele>659.0</ele><time>2026-05-01T17:47:44.001Z</time></trkpt><trkpt lat="47.534046774896886" lon="15.533480118925791"><ele>658.5</ele><time>2026-05-01T17:47:45.001Z</time></trkpt><trkpt lat="47.53401213006553" lon="15.53303485127693"><ele>658.0</ele><time>2026-05-01T17:47:46.001Z</time></trkpt><trkpt lat="47.533973737586564" lon="15.532587434407745"><ele>659.0</ele><time>2026-05-01T17:47:47.001Z</time></trkpt><trkpt lat="47.53393132824961" lon="15.532139723844766"><ele>660.0</ele><time>2026-05-01T17:47:48.001Z</time></trkpt><trkpt lat="47.533886395369365" lon="15.53169206713859"><ele>658.0</ele><time>2026-05-01T17:47:49.001Z</time></trkpt><trkpt lat="47.533839408355504" lon="15.53124450384369"><ele>656.0</ele><time>2026-05-01T17:47:50.001Z</time></trkpt><trkpt lat="47.533791233821425" lon="15.530796942119204"><ele>653.5</ele><time>2026-05-01T17:47:51.001Z</time></trkpt><trkpt lat="47.533741253318965" lon="15.530350236030918"><ele>651.0</ele><time>2026-05-01T17:47:52.001Z</time></trkpt><trkpt lat="47.53368741526255" lon="15.52990295221685"><ele>660.0</ele><time>2026-05-01T17:47:53.001Z</time></trkpt><trkpt lat="47.533629973463405" lon="15.529456047506715"><ele>669.0</ele><time>2026-05-01T17:47:54.001Z</time></trkpt><trkpt lat="47.53356927702048" lon="15.529008934497528"><ele>666.0</ele><time>2026-05-01T17:47:55.001Z</time></trkpt><trkpt lat="47.53350788974611" lon="15.528561857773978"><ele>663.0</ele><time>2026-05-01T17:47:56.001Z</time></trkpt><trkpt lat="47.533446025462986" lon="15.528117977793128"><ele>660.0</ele><time>2026-05-01T17:47:57.001Z</time></trkpt><trkpt lat="47.533382965621776" lon="15.527673585242644"><ele>657.0</ele><time>2026-05-01T17:47:58.001Z</time></trkpt><trkpt lat="47.53331755909677" lon="15.527230873292108"><ele>655.0</ele><time>2026-05-01T17:47:59.001Z</time></trkpt><trkpt lat="47.533241615599096" lon="15.526791409344003"><ele>653.0</ele><time>2026-05-01T17:48:00.001Z</time></trkpt><trkpt lat="47.53315214140877" lon="15.526360017347677"><ele>653.0</ele><time>2026-05-01T17:48:01Z</time></trkpt><trkpt lat="47.53305039234408" lon="15.525934626753399"><ele>653.0</ele><time>2026-05-01T17:48:02Z</time></trkpt><trkpt lat="47.53293227512871" lon="15.525517405302192"><ele>647.5</ele><time>2026-05-01T17:48:03Z</time></trkpt><trkpt lat="47.53280206766718" lon="15.525109167966917"><ele>642.0</ele><time>2026-05-01T17:48:04Z</time></trkpt><trkpt lat="47.532655753664365" lon="15.524711890981067"><ele>641.5</ele><time>2026-05-01T17:48:05Z</time></trkpt><trkpt lat="47.532497962319965" lon="15.52432276098698"><ele>641.0</ele><time>2026-05-01T17:48:06Z</time></trkpt><trkpt lat="47.532328825305484" lon="15.523943098250967"><ele>641.0</ele><time>2026-05-01T17:48:07Z</time></trkpt><trkpt lat="47.53214343806322" lon="15.523579174674511"><ele>641.0</ele><time>2026-05-01T17:48:08Z</time></trkpt><trkpt lat="47.531948522184514" lon="15.523221918622912"><ele>648.0</ele><time>2026-05-01T17:48:09Z</time></trkpt><trkpt lat="47.531741859254375" lon="15.522879890974096"><ele>655.0</ele><time>2026-05-01T17:48:10Z</time></trkpt><trkpt lat="47.531523398514054" lon="15.522549505501088"><ele>655.0</ele><time>2026-05-01T17:48:11Z</time></trkpt><trkpt lat="47.531292423400444" lon="15.522234674772845"><ele>655.0</ele><time>2026-05-01T17:48:12Z</time></trkpt><trkpt lat="47.53104784929572" lon="15.521945599736467"><ele>656.0</ele><time>2026-05-01T17:48:13Z</time></trkpt><trkpt lat="47.53078874063294" lon="15.521684254920638"><ele>657.0</ele><time>2026-05-01T17:48:14Z</time></trkpt><trkpt lat="47.530520459550736" lon="15.52144836497194"><ele>656.0</ele><time>2026-05-01T17:48:15Z</time></trkpt><trkpt lat="47.53024442308956" lon="15.521230858282772"><ele>655.0</ele><time>2026-05-01T17:48:16Z</time></trkpt><trkpt lat="47.529963113247426" lon="15.521022024440876"><ele>655.0</ele><time>2026-05-01T17:48:17Z</time></trkpt><trkpt lat="47.529680906053294" lon="15.520810683638365"><ele>655.0</ele><time>2026-05-01T17:48:18Z</time></trkpt><trkpt lat="47.52940230917583" lon="15.520588206795821"><ele>654.0</ele><time>2026-05-01T17:48:19Z</time></trkpt><trkpt lat="47.52913136056938" lon="15.520349173740042"><ele>653.0</ele><time>2026-05-01T17:48:20Z</time></trkpt><trkpt lat="47.528872113781205" lon="15.520080333177768"><ele>652.5</ele><time>2026-05-01T17:48:21Z</time></trkpt><trkpt lat="47.5286281904952" lon="15.519786847914025"><ele>652.0</ele><time>2026-05-01T17:48:22Z</time></trkpt><trkpt lat="47.528398470832016" lon="15.519469930861757"><ele>652.0</ele><time>2026-05-01T17:48:23Z</time></trkpt><trkpt lat="47.5281798616924" lon="15.519136287813494"><ele>652.0</ele><time>2026-05-01T17:48:24Z</time></trkpt><trkpt lat="47.52797558878563" lon="15.518784185072318"><ele>651.5</ele><time>2026-05-01T17:48:25Z</time></trkpt><trkpt lat="47.52779145741828" lon="15.518413784728564"><ele>651.0</ele><time>2026-05-01T17:48:26Z</time></trkpt><trkpt lat="47.527625937643855" lon="15.518027506745366"><ele>650.0</ele><time>2026-05-01T17:48:27Z</time></trkpt><trkpt lat="47.52747598296073" lon="15.517627206945718"><ele>649.0</ele><time>2026-05-01T17:48:28Z</time></trkpt><trkpt lat="47.52734480296291" lon="15.517213046022814"><ele>648.5</ele><time>2026-05-01T17:48:29Z</time></trkpt><trkpt lat="47.527231498275626" lon="15.516789717581629"><ele>648.0</ele><time>2026-05-01T17:48:30Z</time></trkpt><trkpt lat="47.52713050657218" lon="15.51635815211526"><ele>656.5</ele><time>2026-05-01T17:48:31Z</time></trkpt><trkpt lat="47.52704152629613" lon="15.515922148929867"><ele>665.0</ele><time>2026-05-01T17:48:32Z</time></trkpt><trkpt lat="47.52696241692776" lon="15.515480221481184"><ele>662.5</ele><time>2026-05-01T17:48:33Z</time></trkpt><trkpt lat="47.52688419019458" lon="15.515036962012719"><ele>660.0</ele><time>2026-05-01T17:48:34Z</time></trkpt><trkpt lat="47.526801770930575" lon="15.514595638918639"><ele>657.0</ele><time>2026-05-01T17:48:35Z</time></trkpt><trkpt lat="47.526707818724766" lon="15.514158892513509"><ele>654.0</ele><time>2026-05-01T17:48:36.001Z</time></trkpt><trkpt lat="47.52660118305112" lon="15.513728816478553"><ele>653.0</ele><time>2026-05-01T17:48:37.001Z</time></trkpt><trkpt lat="47.52647720674318" lon="15.51330815183874"><ele>652.0</ele><time>2026-05-01T17:48:38.001Z</time></trkpt><trkpt lat="47.526333603741236" lon="15.512898459475608"><ele>654.5</ele><time>2026-05-01T17:48:39.001Z</time></trkpt><trkpt lat="47.526171388636385" lon="15.512501351583294"><ele>657.0</ele><time>2026-05-01T17:48:40.001Z</time></trkpt><trkpt lat="47.52599538302548" lon="15.51211562892821"><ele>654.5</ele><time>2026-05-01T17:48:41.001Z</time></trkpt><trkpt lat="47.52580688387303" lon="15.511742348967774"><ele>652.0</ele><time>2026-05-01T17:48:42.001Z</time></trkpt><trkpt lat="47.525608406011195" lon="15.51137864836811"><ele>652.0</ele><time>2026-05-01T17:48:43.001Z</time></trkpt><trkpt lat="47.52539923446126" lon="15.51102483302536"><ele>652.0</ele><time>2026-05-01T17:48:44.001Z</time></trkpt><trkpt lat="47.52519250352748" lon="15.51066689315421"><ele>644.5</ele><time>2026-05-01T17:48:45.001Z</time></trkpt><trkpt lat="47.524987262786" lon="15.510307060961267"><ele>637.0</ele><time>2026-05-01T17:48:46.001Z</time></trkpt><trkpt lat="47.52479458723397" lon="15.509959077419332"><ele>637.0</ele><time>2026-05-01T17:48:47.001Z</time></trkpt><trkpt lat="47.52461216963403" lon="15.509613082925714"><ele>637.0</ele><time>2026-05-01T17:48:48.001Z</time></trkpt><trkpt lat="47.52443929428036" lon="15.509249924046575"><ele>637.0</ele><time>2026-05-01T17:48:49.001Z</time></trkpt><trkpt lat="47.52428235272135" lon="15.508868366995097"><ele>637.0</ele><time>2026-05-01T17:48:50.001Z</time></trkpt><trkpt lat="47.524139584416545" lon="15.508472268207713"><ele>637.0</ele><time>2026-05-01T17:48:51.001Z</time></trkpt><trkpt lat="47.52401106572276" lon="15.508065172743377"><ele>637.0</ele><time>2026-05-01T17:48:52.001Z</time></trkpt><trkpt lat="47.52389540029281" lon="15.507647591642238"><ele>639.0</ele><time>2026-05-01T17:48:53.001Z</time></trkpt><trkpt lat="47.52379134455678" lon="15.507222081699393"><ele>641.0</ele><time>2026-05-01T17:48:54.001Z</time></trkpt><trkpt lat="47.52369600956209" lon="15.506789656740532"><ele>649.0</ele><time>2026-05-01T17:48:55.001Z</time></trkpt><trkpt lat="47.52360346759033" lon="15.506354612232194"><ele>657.0</ele><time>2026-05-01T17:48:56.001Z</time></trkpt><trkpt lat="47.52350877448307" lon="15.505917674450522"><ele>657.0</ele><time>2026-05-01T17:48:57.001Z</time></trkpt><trkpt lat="47.523408758159945" lon="15.505482409337194"><ele>657.0</ele><time>2026-05-01T17:48:58.001Z</time></trkpt><trkpt lat="47.52330009364704" lon="15.50505495389569"><ele>655.5</ele><time>2026-05-01T17:48:59.001Z</time></trkpt><trkpt lat="47.52318429781184" lon="15.504634685004252"><ele>654.0</ele><time>2026-05-01T17:49:00.001Z</time></trkpt><trkpt lat="47.523056633650945" lon="15.504223807260969"><ele>651.0</ele><time>2026-05-01T17:49:01.001Z</time></trkpt><trkpt lat="47.52291719807507" lon="15.50382028711423"><ele>648.0</ele><time>2026-05-01T17:49:02.001Z</time></trkpt><trkpt lat="47.52277147081925" lon="15.503421797528544"><ele>648.0</ele><time>2026-05-01T17:49:03.001Z</time></trkpt><trkpt lat="47.5226265604018" lon="15.503022677144111"><ele>648.0</ele><time>2026-05-01T17:49:04.001Z</time></trkpt><trkpt lat="47.52248132491333" lon="15.502625294124174"><ele>646.5</ele><time>2026-05-01T17:49:05.001Z</time></trkpt><trkpt lat="47.522338990662746" lon="15.502227277197214"><ele>645.0</ele><time>2026-05-01T17:49:06.001Z</time></trkpt><trkpt lat="47.52220077619834" lon="15.501826583826961"><ele>644.0</ele><time>2026-05-01T17:49:07.001Z</time></trkpt><trkpt lat="47.52206985405087" lon="15.501422444946238"><ele>643.0</ele><time>2026-05-01T17:49:08.001Z</time></trkpt><trkpt lat="47.5219457773876" lon="15.50101080710911"><ele>647.5</ele><time>2026-05-01T17:49:09.001Z</time></trkpt><trkpt lat="47.52182760676596" lon="15.500593783360745"><ele>652.0</ele><time>2026-05-01T17:49:10.001Z</time></trkpt><trkpt lat="47.52171472291911" lon="15.500172504051367"><ele>652.0</ele><time>2026-05-01T17:49:11.001Z</time></trkpt><trkpt lat="47.521607445250346" lon="15.499747319111398"><ele>652.0</ele><time>2026-05-01T17:49:12.001Z</time></trkpt><trkpt lat="47.52150830116278" lon="15.499317389081547"><ele>651.0</ele><time>2026-05-01T17:49:13.001Z</time></trkpt><trkpt lat="47.52141627347648" lon="15.49888545220684"><ele>650.0</ele><time>2026-05-01T17:49:14.001Z</time></trkpt><trkpt lat="47.52132873262399" lon="15.498447821533242"><ele>647.5</ele><time>2026-05-01T17:49:15.001Z</time></trkpt><trkpt lat="47.52124714411152" lon="15.498005789356064"><ele>645.0</ele><time>2026-05-01T17:49:16.001Z</time></trkpt><trkpt lat="47.52117429151807" lon="15.497559278849783"><ele>652.5</ele><time>2026-05-01T17:49:17.001Z</time></trkpt><trkpt lat="47.52111284127073" lon="15.497108588725759"><ele>660.0</ele><time>2026-05-01T17:49:18.001Z</time></trkpt><trkpt lat="47.521058080858346" lon="15.496655102073882"><ele>662.0</ele><time>2026-05-01T17:49:19.001Z</time></trkpt><trkpt lat="47.52100904499948" lon="15.496201576909533"><ele>664.0</ele><time>2026-05-01T17:49:20.001Z</time></trkpt><trkpt lat="47.52096428202413" lon="15.495749671290584"><ele>663.0</ele><time>2026-05-01T17:49:21.001Z</time></trkpt><trkpt lat="47.520921839992596" lon="15.495297572901796"><ele>662.0</ele><time>2026-05-01T17:49:22.001Z</time></trkpt><trkpt lat="47.520880790678284" lon="15.494848701907797"><ele>660.5</ele><time>2026-05-01T17:49:23.001Z</time></trkpt><trkpt lat="47.520836096554156" lon="15.494408908426227"><ele>659.0</ele><time>2026-05-01T17:49:24.001Z</time></trkpt><trkpt lat="47.52078527295842" lon="15.493968065599026"><ele>659.5</ele><time>2026-05-01T17:49:25.001Z</time></trkpt><trkpt lat="47.520731643913976" lon="15.493524961144294"><ele>660.0</ele><time>2026-05-01T17:49:26.001Z</time></trkpt><trkpt lat="47.52066988110547" lon="15.493083964848026"><ele>660.0</ele><time>2026-05-01T17:49:27.001Z</time></trkpt><trkpt lat="47.52058968009699" lon="15.49265298715897"><ele>660.0</ele><time>2026-05-01T17:49:28.001Z</time></trkpt><trkpt lat="47.52048702111097" lon="15.492233731342234"><ele>662.5</ele><time>2026-05-01T17:49:29.001Z</time></trkpt><trkpt lat="47.52036185789949" lon="15.491828151360679"><ele>665.0</ele><time>2026-05-01T17:49:30.001Z</time></trkpt><trkpt lat="47.52022538258721" lon="15.491430943631538"><ele>660.5</ele><time>2026-05-01T17:49:31.001Z</time></trkpt><trkpt lat="47.52007698153966" lon="15.49104116654348"><ele>656.0</ele><time>2026-05-01T17:49:32.001Z</time></trkpt><trkpt lat="47.519913398962544" lon="15.490663610417876"><ele>657.5</ele><time>2026-05-01T17:49:33.001Z</time></trkpt><trkpt lat="47.51973104118859" lon="15.490307678397873"><ele>659.0</ele><time>2026-05-01T17:49:34.001Z</time></trkpt><trkpt lat="47.519527592545835" lon="15.489977114310294"><ele>659.0</ele><time>2026-05-01T17:49:35.001Z</time></trkpt><trkpt lat="47.51930702440032" lon="15.489667033928379"><ele>659.0</ele><time>2026-05-01T17:49:36.001Z</time></trkpt><trkpt lat="47.519072092499826" lon="15.489376814178184"><ele>661.0</ele><time>2026-05-01T17:49:37.001Z</time></trkpt><trkpt lat="47.518824767322556" lon="15.48910249636004"><ele>663.0</ele><time>2026-05-01T17:49:38.001Z</time></trkpt><trkpt lat="47.51857227896022" lon="15.488830371232948"><ele>657.5</ele><time>2026-05-01T17:49:39.001Z</time></trkpt><trkpt lat="47.51832131337376" lon="15.488552909985541"><ele>652.0</ele><time>2026-05-01T17:49:40.001Z</time></trkpt><trkpt lat="47.518076714886845" lon="15.488259957611572"><ele>652.5</ele><time>2026-05-01T17:49:41.001Z</time></trkpt><trkpt lat="47.51784491140279" lon="15.487947378770523"><ele>653.0</ele><time>2026-05-01T17:49:42.001Z</time></trkpt><trkpt lat="47.51763323403972" lon="15.487610374919704"><ele>653.0</ele><time>2026-05-01T17:49:43.001Z</time></trkpt><trkpt lat="47.51744066187099" lon="15.487249360991099"><ele>653.0</ele><time>2026-05-01T17:49:44.001Z</time></trkpt><trkpt lat="47.51726283140715" lon="15.486873368019037"><ele>650.0</ele><time>2026-05-01T17:49:45.001Z</time></trkpt><trkpt lat="47.51709854894691" lon="15.48648292116899"><ele>647.0</ele><time>2026-05-01T17:49:46.001Z</time></trkpt><trkpt lat="47.516950607796076" lon="15.48608129134934"><ele>647.0</ele><time>2026-05-01T17:49:47.001Z</time></trkpt><trkpt lat="47.51682711416378" lon="15.485667123142568"><ele>647.0</ele><time>2026-05-01T17:49:48.001Z</time></trkpt><trkpt lat="47.51673138014722" lon="15.485241455318363"><ele>645.0</ele><time>2026-05-01T17:49:49.001Z</time></trkpt><trkpt lat="47.516659099998385" lon="15.48480579385406"><ele>643.0</ele><time>2026-05-01T17:49:50.001Z</time></trkpt><trkpt lat="47.51660514010712" lon="15.484363137206639"><ele>643.0</ele><time>2026-05-01T17:49:51.001Z</time></trkpt><trkpt lat="47.51656172282746" lon="15.483916966904658"><ele>643.0</ele><time>2026-05-01T17:49:52.001Z</time></trkpt><trkpt lat="47.51652328973184" lon="15.483468351011329"><ele>644.5</ele><time>2026-05-01T17:49:53.001Z</time></trkpt><trkpt lat="47.51648821270841" lon="15.48301702911205"><ele>646.0</ele><time>2026-05-01T17:49:54.001Z</time></trkpt><trkpt lat="47.51646073589752" lon="15.482561036594237"><ele>646.0</ele><time>2026-05-01T17:49:55.001Z</time></trkpt><trkpt lat="47.51642797077001" lon="15.482110324528252"><ele>646.0</ele><time>2026-05-01T17:49:56.001Z</time></trkpt><trkpt lat="47.51639004070125" lon="15.481661673373063"><ele>636.0</ele><time>2026-05-01T17:49:57.001Z</time></trkpt><trkpt lat="47.51635009514645" lon="15.48121457911112"><ele>626.0</ele><time>2026-05-01T17:49:58.001Z</time></trkpt><trkpt lat="47.51626810501257" lon="15.480729083987697"><ele>628.5</ele><time>2026-05-01T17:49:59.001Z</time></trkpt><trkpt lat="47.51614753881033" lon="15.480310816126675"><ele>631.0</ele><time>2026-05-01T17:50:00.001Z</time></trkpt><trkpt lat="47.51600275203102" lon="15.479904035199272"><ele>628.0</ele><time>2026-05-01T17:50:01.001Z</time></trkpt><trkpt lat="47.51585906582058" lon="15.479492629745826"><ele>625.0</ele><time>2026-05-01T17:50:02.001Z</time></trkpt><trkpt lat="47.51571703724155" lon="15.479083261706501"><ele>623.0</ele><time>2026-05-01T17:50:03.001Z</time></trkpt><trkpt lat="47.51556768783781" lon="15.47868091039144"><ele>621.0</ele><time>2026-05-01T17:50:04.001Z</time></trkpt><trkpt lat="47.51540563874926" lon="15.478287711678933"><ele>622.0</ele><time>2026-05-01T17:50:05.001Z</time></trkpt><trkpt lat="47.5152356627845" lon="15.477901177477946"><ele>623.0</ele><time>2026-05-01T17:50:06.001Z</time></trkpt><trkpt lat="47.51505769205123" lon="15.477522597617707"><ele>623.0</ele><time>2026-05-01T17:50:07Z</time></trkpt><trkpt lat="47.51487030441171" lon="15.477149298094622"><ele>623.0</ele><time>2026-05-01T17:50:08Z</time></trkpt><trkpt lat="47.51467739774486" lon="15.476780358972121"><ele>626.5</ele><time>2026-05-01T17:50:09Z</time></trkpt><trkpt lat="47.51448406153992" lon="15.476409526050478"><ele>630.0</ele><time>2026-05-01T17:50:10Z</time></trkpt><trkpt lat="47.51428985820009" lon="15.476036887917159"><ele>622.5</ele><time>2026-05-01T17:50:11Z</time></trkpt><trkpt lat="47.51409627723157" lon="15.475660395194971"><ele>615.0</ele><time>2026-05-01T17:50:12Z</time></trkpt><trkpt lat="47.51390447688505" lon="15.475280834878234"><ele>615.5</ele><time>2026-05-01T17:50:13Z</time></trkpt><trkpt lat="47.51371505674392" lon="15.474893828158729"><ele>616.0</ele><time>2026-05-01T17:50:14Z</time></trkpt><trkpt lat="47.51352617614148" lon="15.474503004009568"><ele>612.5</ele><time>2026-05-01T17:50:15Z</time></trkpt><trkpt lat="47.513338975907445" lon="15.474104143386782"><ele>609.0</ele><time>2026-05-01T17:50:16Z</time></trkpt><trkpt lat="47.51315799875577" lon="15.473698078508473"><ele>608.5</ele><time>2026-05-01T17:50:17Z</time></trkpt><trkpt lat="47.512983902013566" lon="15.473283931183579"><ele>608.0</ele><time>2026-05-01T17:50:18Z</time></trkpt><trkpt lat="47.51282125497116" lon="15.472859600483408"><ele>608.0</ele><time>2026-05-01T17:50:19Z</time></trkpt><trkpt lat="47.51266216173622" lon="15.472431321126228"><ele>608.0</ele><time>2026-05-01T17:50:20Z</time></trkpt><trkpt lat="47.51250256200793" lon="15.471998677447147"><ele>605.0</ele><time>2026-05-01T17:50:21Z</time></trkpt><trkpt lat="47.512348119175925" lon="15.471563932705699"><ele>602.0</ele><time>2026-05-01T17:50:22Z</time></trkpt><trkpt lat="47.51219985263804" lon="15.47112639083258"><ele>603.0</ele><time>2026-05-01T17:50:23Z</time></trkpt><trkpt lat="47.512062346605845" lon="15.47068168159826"><ele>604.0</ele><time>2026-05-01T17:50:24Z</time></trkpt><trkpt lat="47.51193660706171" lon="15.47023303998724"><ele>604.0</ele><time>2026-05-01T17:50:25Z</time></trkpt><trkpt lat="47.51181570861893" lon="15.469781293296775"><ele>604.0</ele><time>2026-05-01T17:50:26Z</time></trkpt><trkpt lat="47.511701318759606" lon="15.469325493149588"><ele>603.5</ele><time>2026-05-01T17:50:27Z</time></trkpt><trkpt lat="47.51159099316753" lon="15.468869251860678"><ele>603.0</ele><time>2026-05-01T17:50:28Z</time></trkpt><trkpt lat="47.51148490625017" lon="15.468409895899434"><ele>603.0</ele><time>2026-05-01T17:50:29Z</time></trkpt><trkpt lat="47.51138117356822" lon="15.467947876171765"><ele>603.0</ele><time>2026-05-01T17:50:30Z</time></trkpt><trkpt lat="47.51128294933345" lon="15.467486799225009"><ele>600.5</ele><time>2026-05-01T17:50:31Z</time></trkpt><trkpt lat="47.51118989754602" lon="15.467023024825574"><ele>598.0</ele><time>2026-05-01T17:50:32Z</time></trkpt><trkpt lat="47.51110070679361" lon="15.466560091356214"><ele>594.5</ele><time>2026-05-01T17:50:33Z</time></trkpt><trkpt lat="47.5110129620319" lon="15.46609806932615"><ele>591.0</ele><time>2026-05-01T17:50:34Z</time></trkpt><trkpt lat="47.510926045594886" lon="15.465642158488464"><ele>589.5</ele><time>2026-05-01T17:50:35Z</time></trkpt><trkpt lat="47.51084699871844" lon="15.465211374831094"><ele>588.0</ele><time>2026-05-01T17:50:36Z</time></trkpt><trkpt lat="47.51078095775282" lon="15.464783728423791"><ele>585.5</ele><time>2026-05-01T17:50:37Z</time></trkpt><trkpt lat="47.51073093263315" lon="15.464350694256845"><ele>583.0</ele><time>2026-05-01T17:50:38Z</time></trkpt><trkpt lat="47.510700950026916" lon="15.463917711976062"><ele>580.5</ele><time>2026-05-01T17:50:39Z</time></trkpt><trkpt lat="47.51069229401044" lon="15.463484297173135"><ele>578.0</ele><time>2026-05-01T17:50:40Z</time></trkpt><trkpt lat="47.51070016642078" lon="15.463049853717525"><ele>578.5</ele><time>2026-05-01T17:50:41Z</time></trkpt><trkpt lat="47.51071978097702" lon="15.46261250748425"><ele>579.0</ele><time>2026-05-01T17:50:42Z</time></trkpt><trkpt lat="47.510749729394654" lon="15.462175256057328"><ele>579.0</ele><time>2026-05-01T17:50:43Z</time></trkpt><trkpt lat="47.51079287394003" lon="15.461739236356367"><ele>579.0</ele><time>2026-05-01T17:50:44Z</time></trkpt><trkpt lat="47.51084629843127" lon="15.461306074684492"><ele>578.0</ele><time>2026-05-01T17:50:45Z</time></trkpt><trkpt lat="47.51090206574803" lon="15.460875772872992"><ele>577.0</ele><time>2026-05-01T17:50:46Z</time></trkpt><trkpt lat="47.51095661008126" lon="15.460449708815773"><ele>575.0</ele><time>2026-05-01T17:50:47Z</time></trkpt><trkpt lat="47.51101016714251" lon="15.460026890314253"><ele>573.0</ele><time>2026-05-01T17:50:48Z</time></trkpt><trkpt lat="47.51105855662673" lon="15.45960485647467"><ele>571.5</ele><time>2026-05-01T17:50:49Z</time></trkpt><trkpt lat="47.511102010103485" lon="15.459183163781159"><ele>570.0</ele><time>2026-05-01T17:50:50Z</time></trkpt><trkpt lat="47.51113575664944" lon="15.45875940146588"><ele>569.0</ele><time>2026-05-01T17:50:51.001Z</time></trkpt><trkpt lat="47.51115824024218" lon="15.458335336139793"><ele>568.0</ele><time>2026-05-01T17:50:52.001Z</time></trkpt><trkpt lat="47.51116922108352" lon="15.457909773395881"><ele>567.5</ele><time>2026-05-01T17:50:53.001Z</time></trkpt><trkpt lat="47.51116721805709" lon="15.457483239267813"><ele>567.0</ele><time>2026-05-01T17:50:54.001Z</time></trkpt><trkpt lat="47.51115475394774" lon="15.457055735978265"><ele>567.0</ele><time>2026-05-01T17:50:55.001Z</time></trkpt><trkpt lat="47.511132144477024" lon="15.456627612485764"><ele>567.0</ele><time>2026-05-01T17:50:56.001Z</time></trkpt><trkpt lat="47.51109864767547" lon="15.456200312731154"><ele>567.0</ele><time>2026-05-01T17:50:57.001Z</time></trkpt><trkpt lat="47.51105301962733" lon="15.455774218426635"><ele>567.0</ele><time>2026-05-01T17:50:58.001Z</time></trkpt><trkpt lat="47.510997196794946" lon="15.455350623818372"><ele>565.5</ele><time>2026-05-01T17:50:59.001Z</time></trkpt><trkpt lat="47.5109266893165" lon="15.454932413759673"><ele>564.0</ele><time>2026-05-01T17:51:00.001Z</time></trkpt><trkpt lat="47.510844082519974" lon="15.454519294985978"><ele>564.0</ele><time>2026-05-01T17:51:01.001Z</time></trkpt><trkpt lat="47.51075016561728" lon="15.454112752226498"><ele>564.0</ele><time>2026-05-01T17:51:02.001Z</time></trkpt><trkpt lat="47.51064679959723" lon="15.453712412982398"><ele>563.5</ele><time>2026-05-01T17:51:03.001Z</time></trkpt><trkpt lat="47.51053174879574" lon="15.453322246849094"><ele>563.0</ele><time>2026-05-01T17:51:04.001Z</time></trkpt><trkpt lat="47.510404124370325" lon="15.452944211110244"><ele>563.0</ele><time>2026-05-01T17:51:05.001Z</time></trkpt><trkpt lat="47.51026642502673" lon="15.452574781821156"><ele>563.0</ele><time>2026-05-01T17:51:06.001Z</time></trkpt><trkpt lat="47.51012202407811" lon="15.452210275844356"><ele>562.0</ele><time>2026-05-01T17:51:07.001Z</time></trkpt><trkpt lat="47.50997097964337" lon="15.451849383594896"><ele>561.0</ele><time>2026-05-01T17:51:08.001Z</time></trkpt><trkpt lat="47.509812287778296" lon="15.451494265691773"><ele>562.0</ele><time>2026-05-01T17:51:09.001Z</time></trkpt><trkpt lat="47.50964223560554" lon="15.451146906310896"><ele>563.0</ele><time>2026-05-01T17:51:10.001Z</time></trkpt><trkpt lat="47.509459319560065" lon="15.45080846801073"><ele>565.0</ele><time>2026-05-01T17:51:11.001Z</time></trkpt><trkpt lat="47.50926359435399" lon="15.450482261890352"><ele>567.0</ele><time>2026-05-01T17:51:12.001Z</time></trkpt><trkpt lat="47.50905814430732" lon="15.450166257821685"><ele>567.0</ele><time>2026-05-01T17:51:13.001Z</time></trkpt><trkpt lat="47.508843826007045" lon="15.449861079944199"><ele>567.0</ele><time>2026-05-01T17:51:14.001Z</time></trkpt><trkpt lat="47.508621345840865" lon="15.449567190993637"><ele>565.5</ele><time>2026-05-01T17:51:15.001Z</time></trkpt><trkpt lat="47.50838763612118" lon="15.449287833150365"><ele>564.0</ele><time>2026-05-01T17:51:16.001Z</time></trkpt><trkpt lat="47.50814563725596" lon="15.449019194158415"><ele>569.0</ele><time>2026-05-01T17:51:17.001Z</time></trkpt><trkpt lat="47.50789516988198" lon="15.448761998685313"><ele>574.0</ele><time>2026-05-01T17:51:18.001Z</time></trkpt><trkpt lat="47.50763791030435" lon="15.448517897524397"><ele>574.0</ele><time>2026-05-01T17:51:19.001Z</time></trkpt><trkpt lat="47.50737337243635" lon="15.448287106275243"><ele>574.0</ele><time>2026-05-01T17:51:20.001Z</time></trkpt><trkpt lat="47.50710474229528" lon="15.448064650743072"><ele>575.5</ele><time>2026-05-01T17:51:21.001Z</time></trkpt><trkpt lat="47.50683567700026" lon="15.447844291945867"><ele>577.0</ele><time>2026-05-01T17:51:22.001Z</time></trkpt><trkpt lat="47.50656920085837" lon="15.44762191044209"><ele>577.0</ele><time>2026-05-01T17:51:23.001Z</time></trkpt><trkpt lat="47.506306554583155" lon="15.447396500719812"><ele>577.0</ele><time>2026-05-01T17:51:24.001Z</time></trkpt><trkpt lat="47.506050810443845" lon="15.447158852138678"><ele>578.0</ele><time>2026-05-01T17:51:25.001Z</time></trkpt><trkpt lat="47.505802542198275" lon="15.44690546559067"><ele>579.0</ele><time>2026-05-01T17:51:26.001Z</time></trkpt><trkpt lat="47.505563982112186" lon="15.446636043330638"><ele>577.5</ele><time>2026-05-01T17:51:27.001Z</time></trkpt><trkpt lat="47.50533555548207" lon="15.446349154484327"><ele>576.0</ele><time>2026-05-01T17:51:28.001Z</time></trkpt><trkpt lat="47.50511467447882" lon="15.446050636822084"><ele>575.0</ele><time>2026-05-01T17:51:29.001Z</time></trkpt><trkpt lat="47.50490244047106" lon="15.445737158247233"><ele>574.0</ele><time>2026-05-01T17:51:30.001Z</time></trkpt><trkpt lat="47.50469918288835" lon="15.445411385019709"><ele>571.0</ele><time>2026-05-01T17:51:31.001Z</time></trkpt><trkpt lat="47.50450562604308" lon="15.445075218162675"><ele>568.0</ele><time>2026-05-01T17:51:32.001Z</time></trkpt><trkpt lat="47.504321270368216" lon="15.444726929928509"><ele>570.5</ele><time>2026-05-01T17:51:33.001Z</time></trkpt><trkpt lat="47.50413998348518" lon="15.44437441464543"><ele>573.0</ele><time>2026-05-01T17:51:34.001Z</time></trkpt><trkpt lat="47.50396439687184" lon="15.444016156396499"><ele>573.5</ele><time>2026-05-01T17:51:35.001Z</time></trkpt><trkpt lat="47.50379168040781" lon="15.443652217826642"><ele>574.0</ele><time>2026-05-01T17:51:36.001Z</time></trkpt><trkpt lat="47.503615987587175" lon="15.44328620204055"><ele>567.5</ele><time>2026-05-01T17:51:37.001Z</time></trkpt><trkpt lat="47.503436176324946" lon="15.44292189437269"><ele>561.0</ele><time>2026-05-01T17:51:38.001Z</time></trkpt><trkpt lat="47.503251903586516" lon="15.442557155968714"><ele>561.0</ele><time>2026-05-01T17:51:39.001Z</time></trkpt><trkpt lat="47.50306430340056" lon="15.442190755293344"><ele>561.0</ele><time>2026-05-01T17:51:40.001Z</time></trkpt><trkpt lat="47.502875023140945" lon="15.441828874796775"><ele>559.5</ele><time>2026-05-01T17:51:41.001Z</time></trkpt><trkpt lat="47.50269377015585" lon="15.441486372758517"><ele>558.0</ele><time>2026-05-01T17:51:42.001Z</time></trkpt><trkpt lat="47.50250535929452" lon="15.441138495381823"><ele>557.0</ele><time>2026-05-01T17:51:43.001Z</time></trkpt><trkpt lat="47.50230832913636" lon="15.440793063577363"><ele>556.0</ele><time>2026-05-01T17:51:44.001Z</time></trkpt><trkpt lat="47.50210133904709" lon="15.44045579651162"><ele>555.5</ele><time>2026-05-01T17:51:45.001Z</time></trkpt><trkpt lat="47.50188255124907" lon="15.440131934651932"><ele>555.0</ele><time>2026-05-01T17:51:46.001Z</time></trkpt><trkpt lat="47.50165493292123" lon="15.43981971536196"><ele>553.0</ele><time>2026-05-01T17:51:47.001Z</time></trkpt><trkpt lat="47.50142480040845" lon="15.439511697779514"><ele>551.0</ele><time>2026-05-01T17:51:48.001Z</time></trkpt><trkpt lat="47.50119485857153" lon="15.439209529183168"><ele>551.0</ele><time>2026-05-01T17:51:49.001Z</time></trkpt><trkpt lat="47.50096474569224" lon="15.43891356718933"><ele>551.0</ele><time>2026-05-01T17:51:50.001Z</time></trkpt><trkpt lat="47.50073229177626" lon="15.438622470256767"><ele>551.5</ele><time>2026-05-01T17:51:51.001Z</time></trkpt><trkpt lat="47.50049655471491" lon="15.438338707665418"><ele>552.0</ele><time>2026-05-01T17:51:52.001Z</time></trkpt><trkpt lat="47.50025989350293" lon="15.438057703240203"><ele>552.5</ele><time>2026-05-01T17:51:53.001Z</time></trkpt><trkpt lat="47.50002301423879" lon="15.437781644307972"><ele>553.0</ele><time>2026-05-01T17:51:54.001Z</time></trkpt><trkpt lat="47.49978680056206" lon="15.43750632506041"><ele>553.5</ele><time>2026-05-01T17:51:55.001Z</time></trkpt><trkpt lat="47.499551249006586" lon="15.437231377522242"><ele>554.0</ele><time>2026-05-01T17:51:56.001Z</time></trkpt><trkpt lat="47.4993157161598" lon="15.436956664589507"><ele>553.0</ele><time>2026-05-01T17:51:57.001Z</time></trkpt><trkpt lat="47.49908124103415" lon="15.436677427782111"><ele>552.0</ele><time>2026-05-01T17:51:58.001Z</time></trkpt><trkpt lat="47.498848827307214" lon="15.436393082264319"><ele>552.0</ele><time>2026-05-01T17:51:59.001Z</time></trkpt><trkpt lat="47.49862025004228" lon="15.436101116549324"><ele>552.0</ele><time>2026-05-01T17:52:00.001Z</time></trkpt><trkpt lat="47.49839689085592" lon="15.435800820266616"><ele>552.0</ele><time>2026-05-01T17:52:01.001Z</time></trkpt><trkpt lat="47.498180119501384" lon="15.435490451431212"><ele>552.0</ele><time>2026-05-01T17:52:02.001Z</time></trkpt><trkpt lat="47.49797060989611" lon="15.4351679628289"><ele>552.5</ele><time>2026-05-01T17:52:03.001Z</time></trkpt><trkpt lat="47.49776998204641" lon="15.434831704965482"><ele>553.0</ele><time>2026-05-01T17:52:04.001Z</time></trkpt><trkpt lat="47.49757707309768" lon="15.434486733623528"><ele>553.0</ele><time>2026-05-01T17:52:05.001Z</time></trkpt><trkpt lat="47.497389942449836" lon="15.434134981899472"><ele>553.0</ele><time>2026-05-01T17:52:06.001Z</time></trkpt><trkpt lat="47.49721019195112" lon="15.433776205891606"><ele>552.5</ele><time>2026-05-01T17:52:07.001Z</time></trkpt><trkpt lat="47.497039494532004" lon="15.433408545632863"><ele>552.0</ele><time>2026-05-01T17:52:08.001Z</time></trkpt><trkpt lat="47.49687829810245" lon="15.433030349945904"><ele>551.5</ele><time>2026-05-01T17:52:09.001Z</time></trkpt><trkpt lat="47.496725705630865" lon="15.432642857361769"><ele>551.0</ele><time>2026-05-01T17:52:10.001Z</time></trkpt><trkpt lat="47.49658201408401" lon="15.432247616011791"><ele>551.0</ele><time>2026-05-01T17:52:11.001Z</time></trkpt><trkpt lat="47.49644448363771" lon="15.431846466004231"><ele>551.0</ele><time>2026-05-01T17:52:12.001Z</time></trkpt><trkpt lat="47.49630992008701" lon="15.431441256068267"><ele>551.5</ele><time>2026-05-01T17:52:13Z</time></trkpt><trkpt lat="47.49617534792467" lon="15.431035271620546"><ele>552.0</ele><time>2026-05-01T17:52:14Z</time></trkpt><trkpt lat="47.49603904858477" lon="15.4306300924017"><ele>552.5</ele><time>2026-05-01T17:52:15Z</time></trkpt><trkpt lat="47.49590093534784" lon="15.430227576223714"><ele>553.0</ele><time>2026-05-01T17:52:16Z</time></trkpt><trkpt lat="47.49576490832279" lon="15.429823985727504"><ele>552.5</ele><time>2026-05-01T17:52:17Z</time></trkpt><trkpt lat="47.49562880772625" lon="15.429419931460494"><ele>552.0</ele><time>2026-05-01T17:52:18Z</time></trkpt><trkpt lat="47.495494706929684" lon="15.429014388366504"><ele>551.0</ele><time>2026-05-01T17:52:19Z</time></trkpt><trkpt lat="47.49536241171731" lon="15.428608891612456"><ele>550.0</ele><time>2026-05-01T17:52:20Z</time></trkpt><trkpt lat="47.49523039773164" lon="15.428204672273745"><ele>550.0</ele><time>2026-05-01T17:52:21Z</time></trkpt><trkpt lat="47.49509905565234" lon="15.427802374470511"><ele>550.0</ele><time>2026-05-01T17:52:22Z</time></trkpt><trkpt lat="47.4949661436653" lon="15.4274033818243"><ele>550.5</ele><time>2026-05-01T17:52:23Z</time></trkpt><trkpt lat="47.49483222362189" lon="15.427004839165136"><ele>551.0</ele><time>2026-05-01T17:52:24Z</time></trkpt><trkpt lat="47.49469893886973" lon="15.426607915052946"><ele>550.5</ele><time>2026-05-01T17:52:25Z</time></trkpt><trkpt lat="47.49456630678191" lon="15.426210665116907"><ele>550.0</ele><time>2026-05-01T17:52:26Z</time></trkpt><trkpt lat="47.494433633809415" lon="15.425813749033214"><ele>550.0</ele><time>2026-05-01T17:52:27Z</time></trkpt><trkpt lat="47.494299514750374" lon="15.425417511412"><ele>550.0</ele><time>2026-05-01T17:52:28Z</time></trkpt><trkpt lat="47.494164828166376" lon="15.425019941290822"><ele>549.0</ele><time>2026-05-01T17:52:29Z</time></trkpt><trkpt lat="47.49402796443602" lon="15.424621909097214"><ele>548.0</ele><time>2026-05-01T17:52:30Z</time></trkpt><trkpt lat="47.493885858316624" lon="15.42422632570863"><ele>548.0</ele><time>2026-05-01T17:52:31Z</time></trkpt><trkpt lat="47.493737587608344" lon="15.42383119451101"><ele>548.0</ele><time>2026-05-01T17:52:32Z</time></trkpt><trkpt lat="47.49358716762454" lon="15.423434630486152"><ele>548.0</ele><time>2026-05-01T17:52:33Z</time></trkpt><trkpt lat="47.493435759880995" lon="15.423036254132091"><ele>548.0</ele><time>2026-05-01T17:52:34Z</time></trkpt><trkpt lat="47.493283731451555" lon="15.422638033129255"><ele>548.0</ele><time>2026-05-01T17:52:35Z</time></trkpt><trkpt lat="47.49313080160054" lon="15.422244279843365"><ele>548.0</ele><time>2026-05-01T17:52:36Z</time></trkpt><trkpt lat="47.49297570195501" lon="15.42185409795566"><ele>547.5</ele><time>2026-05-01T17:52:37Z</time></trkpt><trkpt lat="47.49281942557634" lon="15.421465015535132"><ele>547.0</ele><time>2026-05-01T17:52:38Z</time></trkpt><trkpt lat="47.49265845325055" lon="15.421079580212233"><ele>547.0</ele><time>2026-05-01T17:52:39Z</time></trkpt><trkpt lat="47.49249210846499" lon="15.420699542769059"><ele>547.0</ele><time>2026-05-01T17:52:40Z</time></trkpt><trkpt lat="47.49232494625799" lon="15.420319057181688"><ele>545.5</ele><time>2026-05-01T17:52:41Z</time></trkpt><trkpt lat="47.49215778259144" lon="15.41993773864342"><ele>544.0</ele><time>2026-05-01T17:52:42Z</time></trkpt><trkpt lat="47.49199054021816" lon="15.419555370358294"><ele>543.0</ele><time>2026-05-01T17:52:43Z</time></trkpt><trkpt lat="47.49182252351555" lon="15.419175991077482"><ele>542.0</ele><time>2026-05-01T17:52:44Z</time></trkpt><trkpt lat="47.49165411143393" lon="15.41879747473704"><ele>542.0</ele><time>2026-05-01T17:52:45Z</time></trkpt><trkpt lat="47.49148782639172" lon="15.418416299290502"><ele>542.0</ele><time>2026-05-01T17:52:46Z</time></trkpt><trkpt lat="47.49132198347607" lon="15.418035283274982"><ele>542.5</ele><time>2026-05-01T17:52:47Z</time></trkpt><trkpt lat="47.49115457083064" lon="15.417653511822243"><ele>543.0</ele><time>2026-05-01T17:52:48Z</time></trkpt><trkpt lat="47.49098617010186" lon="15.417272201571448"><ele>542.0</ele><time>2026-05-01T17:52:49Z</time></trkpt><trkpt lat="47.490817206459205" lon="15.416891045739654"><ele>541.0</ele><time>2026-05-01T17:52:50Z</time></trkpt><trkpt lat="47.49064783801134" lon="15.416509998479572"><ele>541.5</ele><time>2026-05-01T17:52:51Z</time></trkpt><trkpt lat="47.49047937786645" lon="15.416128112857578"><ele>542.0</ele><time>2026-05-01T17:52:52Z</time></trkpt><trkpt lat="47.49031110653876" lon="15.415746379953935"><ele>541.5</ele><time>2026-05-01T17:52:53Z</time></trkpt><trkpt lat="47.49014274286773" lon="15.415364500945715"><ele>541.0</ele><time>2026-05-01T17:52:54Z</time></trkpt><trkpt lat="47.48997355951879" lon="15.414982492838124"><ele>541.5</ele><time>2026-05-01T17:52:55Z</time></trkpt><trkpt lat="47.489803924719396" lon="15.414602830118502"><ele>542.0</ele><time>2026-05-01T17:52:56Z</time></trkpt><trkpt lat="47.489635910034444" lon="15.41422070741679"><ele>541.0</ele><time>2026-05-01T17:52:57Z</time></trkpt><trkpt lat="47.489467084662635" lon="15.413839902546613"><ele>540.0</ele><time>2026-05-01T17:52:58Z</time></trkpt><trkpt lat="47.4892969924125" lon="15.413460909788485"><ele>540.0</ele><time>2026-05-01T17:52:59Z</time></trkpt><trkpt lat="47.48912695143827" lon="15.413082726966605"><ele>540.0</ele><time>2026-05-01T17:53:00Z</time></trkpt><trkpt lat="47.488955947289796" lon="15.412706045641665"><ele>540.0</ele><time>2026-05-01T17:53:01Z</time></trkpt><trkpt lat="47.48878216949357" lon="15.412332420214733"><ele>540.0</ele><time>2026-05-01T17:53:02Z</time></trkpt><trkpt lat="47.48860789031149" lon="15.41195973168398"><ele>540.0</ele><time>2026-05-01T17:53:03Z</time></trkpt><trkpt lat="47.488433133994775" lon="15.411589588067685"><ele>540.0</ele><time>2026-05-01T17:53:04Z</time></trkpt><trkpt lat="47.48825732432488" lon="15.411221047300394"><ele>540.0</ele><time>2026-05-01T17:53:05Z</time></trkpt><trkpt lat="47.48808464523722" lon="15.410866392344035"><ele>540.0</ele><time>2026-05-01T17:53:06.001Z</time></trkpt><trkpt lat="47.48791292205673" lon="15.410513292033217"><ele>540.5</ele><time>2026-05-01T17:53:07.001Z</time></trkpt><trkpt lat="47.48773395048333" lon="15.410151349471768"><ele>541.0</ele><time>2026-05-01T17:53:08.001Z</time></trkpt><trkpt lat="47.48755014181794" lon="15.409787969725869"><ele>540.0</ele><time>2026-05-01T17:53:09.001Z</time></trkpt><trkpt lat="47.487362817678004" lon="15.409425627005291"><ele>539.0</ele><time>2026-05-01T17:53:10.001Z</time></trkpt><trkpt lat="47.48717296979128" lon="15.40906358556461"><ele>539.5</ele><time>2026-05-01T17:53:11.001Z</time></trkpt><trkpt lat="47.486981714756546" lon="15.408699809116309"><ele>540.0</ele><time>2026-05-01T17:53:12.001Z</time></trkpt><trkpt lat="47.48678882829242" lon="15.408334672510787"><ele>539.5</ele><time>2026-05-01T17:53:13.001Z</time></trkpt><trkpt lat="47.4865930731142" lon="15.40797127110212"><ele>539.0</ele><time>2026-05-01T17:53:14.001Z</time></trkpt><trkpt lat="47.48639494143994" lon="15.407609245865405"><ele>539.0</ele><time>2026-05-01T17:53:15.001Z</time></trkpt><trkpt lat="47.48619338078231" lon="15.407248603206675"><ele>539.0</ele><time>2026-05-01T17:53:16.001Z</time></trkpt><trkpt lat="47.48598904337904" lon="15.406887860921172"><ele>539.0</ele><time>2026-05-01T17:53:17.001Z</time></trkpt><trkpt lat="47.485781044931414" lon="15.406531581967814"><ele>539.0</ele><time>2026-05-01T17:53:18.001Z</time></trkpt><trkpt lat="47.48557138011644" lon="15.406176129627303"><ele>538.5</ele><time>2026-05-01T17:53:19.001Z</time></trkpt><trkpt lat="47.4853623861956" lon="15.405821718067315"><ele>538.0</ele><time>2026-05-01T17:53:20.001Z</time></trkpt><trkpt lat="47.485153423677396" lon="15.405467106120083"><ele>539.0</ele><time>2026-05-01T17:53:21.001Z</time></trkpt><trkpt lat="47.484942886026346" lon="15.405116464243038"><ele>540.0</ele><time>2026-05-01T17:53:22.001Z</time></trkpt><trkpt lat="47.48472954860978" lon="15.404772536624732"><ele>539.0</ele><time>2026-05-01T17:53:23.001Z</time></trkpt><trkpt lat="47.4845127054171" lon="15.404434573001845"><ele>538.0</ele><time>2026-05-01T17:53:24.001Z</time></trkpt><trkpt lat="47.48429571667812" lon="15.4040973266821"><ele>537.5</ele><time>2026-05-01T17:53:25.001Z</time></trkpt><trkpt lat="47.484079437712985" lon="15.403760680933148"><ele>537.0</ele><time>2026-05-01T17:53:26.001Z</time></trkpt><trkpt lat="47.48386200365708" lon="15.403427748734218"><ele>537.0</ele><time>2026-05-01T17:53:27.001Z</time></trkpt><trkpt lat="47.48378818806018" lon="15.402909309162634"><ele>537.0</ele><time>2026-05-01T17:53:28.001Z</time></trkpt><trkpt lat="47.483581555914675" lon="15.402564201563218"><ele>537.0</ele><time>2026-05-01T17:53:29.001Z</time></trkpt><trkpt lat="47.48337496243577" lon="15.402219158361907"><ele>537.0</ele><time>2026-05-01T17:53:30.001Z</time></trkpt><trkpt lat="47.483159836444884" lon="15.401887998504998"><ele>537.0</ele><time>2026-05-01T17:53:31.001Z</time></trkpt><trkpt lat="47.48275565585569" lon="15.40180200332478"><ele>537.0</ele><time>2026-05-01T17:53:32.001Z</time></trkpt><trkpt lat="47.48252998650762" lon="15.40148422233285"><ele>536.5</ele><time>2026-05-01T17:53:33.001Z</time></trkpt><trkpt lat="47.48230422681297" lon="15.4011702037165"><ele>536.0</ele><time>2026-05-01T17:53:34.001Z</time></trkpt><trkpt lat="47.48207784568157" lon="15.400858512038583"><ele>536.0</ele><time>2026-05-01T17:53:35.001Z</time></trkpt><trkpt lat="47.48185148440548" lon="15.400552275145168"><ele>536.0</ele><time>2026-05-01T17:53:36.001Z</time></trkpt><trkpt lat="47.48162373392119" lon="15.400252341278772"><ele>537.0</ele><time>2026-05-01T17:53:37.001Z</time></trkpt><trkpt lat="47.481394410288466" lon="15.39995387007066"><ele>538.0</ele><time>2026-05-01T17:53:38.001Z</time></trkpt><trkpt lat="47.481164802472016" lon="15.399657801365253"><ele>538.0</ele><time>2026-05-01T17:53:39.001Z</time></trkpt><trkpt lat="47.48093476035183" lon="15.399365187957727"><ele>538.0</ele><time>2026-05-01T17:53:40.001Z</time></trkpt><trkpt lat="47.480702538152535" lon="15.399074831675444"><ele>537.5</ele><time>2026-05-01T17:53:41.001Z</time></trkpt><trkpt lat="47.480468916590915" lon="15.398785572837278"><ele>537.0</ele><time>2026-05-01T17:53:42.001Z</time></trkpt><trkpt lat="47.4802347052915" lon="15.39849615099073"><ele>537.0</ele><time>2026-05-01T17:53:43.001Z</time></trkpt><trkpt lat="47.479999533431915" lon="15.398208821011739"><ele>537.0</ele><time>2026-05-01T17:53:44.001Z</time></trkpt><trkpt lat="47.479761860600405" lon="15.397926375355933"><ele>537.5</ele><time>2026-05-01T17:53:45.001Z</time></trkpt><trkpt lat="47.479522186955194" lon="15.397646544800342"><ele>538.0</ele><time>2026-05-01T17:53:46.001Z</time></trkpt><trkpt lat="47.479281540402035" lon="15.397368173814886"><ele>537.5</ele><time>2026-05-01T17:53:47.001Z</time></trkpt><trkpt lat="47.4790388654188" lon="15.39709210832184"><ele>537.0</ele><time>2026-05-01T17:53:48.001Z</time></trkpt><trkpt lat="47.47879433109111" lon="15.396818176379037"><ele>537.0</ele><time>2026-05-01T17:53:49.001Z</time></trkpt><trkpt lat="47.47854899499191" lon="15.396544297337607"><ele>537.0</ele><time>2026-05-01T17:53:50.001Z</time></trkpt><trkpt lat="47.47830186969175" lon="15.396271906032691"><ele>537.0</ele><time>2026-05-01T17:53:51.001Z</time></trkpt><trkpt lat="47.47805320142391" lon="15.396003840943997"><ele>537.0</ele><time>2026-05-01T17:53:52.001Z</time></trkpt><trkpt lat="47.47780258497257" lon="15.395738708353885"><ele>536.0</ele><time>2026-05-01T17:53:53.001Z</time></trkpt><trkpt lat="47.47755096573334" lon="15.395476835559869"><ele>535.0</ele><time>2026-05-01T17:53:54.001Z</time></trkpt><trkpt lat="47.47729848753151" lon="15.395216961662063"><ele>534.5</ele><time>2026-05-01T17:53:55.001Z</time></trkpt><trkpt lat="47.47704483484964" lon="15.394960314731366"><ele>534.0</ele><time>2026-05-01T17:53:56.001Z</time></trkpt><trkpt lat="47.47679058510618" lon="15.394704876091916"><ele>534.0</ele><time>2026-05-01T17:53:57.001Z</time></trkpt><trkpt lat="47.47653529715567" lon="15.394451654016057"><ele>534.0</ele><time>2026-05-01T17:53:58.001Z</time></trkpt><trkpt lat="47.476280989451375" lon="15.394196095306613"><ele>533.5</ele><time>2026-05-01T17:53:59.001Z</time></trkpt><trkpt lat="47.47602903293232" lon="15.393938365097833"><ele>533.0</ele><time>2026-05-01T17:54:00.001Z</time></trkpt><trkpt lat="47.47577621418432" lon="15.393683721111831"><ele>533.0</ele><time>2026-05-01T17:54:01.001Z</time></trkpt><trkpt lat="47.475520982505046" lon="15.393431236408125"><ele>533.0</ele><time>2026-05-01T17:54:02.001Z</time></trkpt><trkpt lat="47.47526688792351" lon="15.393176614790729"><ele>532.5</ele><time>2026-05-01T17:54:03.001Z</time></trkpt><trkpt lat="47.47501330893322" lon="15.392920814107244"><ele>532.0</ele><time>2026-05-01T17:54:04.001Z</time></trkpt><trkpt lat="47.47476083192064" lon="15.392664473104446"><ele>532.0</ele><time>2026-05-01T17:54:05.001Z</time></trkpt><trkpt lat="47.47450928974674" lon="15.392406524552657"><ele>532.0</ele><time>2026-05-01T17:54:06.001Z</time></trkpt><trkpt lat="47.474257992137936" lon="15.39214715404391"><ele>531.5</ele><time>2026-05-01T17:54:07.001Z</time></trkpt><trkpt lat="47.47400914845479" lon="15.391882595128207"><ele>531.0</ele><time>2026-05-01T17:54:08.001Z</time></trkpt><trkpt lat="47.47376529276058" lon="15.391617671890657"><ele>531.5</ele><time>2026-05-01T17:54:09.001Z</time></trkpt><trkpt lat="47.4735270331408" lon="15.39134180273672"><ele>532.0</ele><time>2026-05-01T17:54:10.001Z</time></trkpt><trkpt lat="47.473292425191765" lon="15.391058636928827"><ele>532.0</ele><time>2026-05-01T17:54:11.001Z</time></trkpt><trkpt lat="47.47305972422698" lon="15.390769888719246"><ele>532.0</ele><time>2026-05-01T17:54:12.001Z</time></trkpt><trkpt lat="47.472831448220845" lon="15.390473374930345"><ele>533.5</ele><time>2026-05-01T17:54:13.001Z</time></trkpt><trkpt lat="47.47260987618551" lon="15.390167910395895"><ele>535.0</ele><time>2026-05-01T17:54:14.001Z</time></trkpt><trkpt lat="47.472392936415446" lon="15.389852553310433"><ele>533.0</ele><time>2026-05-01T17:54:15.001Z</time></trkpt><trkpt lat="47.472181198828636" lon="15.38952977268026"><ele>531.0</ele><time>2026-05-01T17:54:16.001Z</time></trkpt><trkpt lat="47.47197432307454" lon="15.389200620573009"><ele>533.5</ele><time>2026-05-01T17:54:17.001Z</time></trkpt><trkpt lat="47.47177051794509" lon="15.388865540234915"><ele>536.0</ele><time>2026-05-01T17:54:18.001Z</time></trkpt><trkpt lat="47.471570233668324" lon="15.388523943067446"><ele>536.0</ele><time>2026-05-01T17:54:19Z</time></trkpt><trkpt lat="47.4713756457975" lon="15.388174668389498"><ele>536.0</ele><time>2026-05-01T17:54:20Z</time></trkpt><trkpt lat="47.471187866414475" lon="15.38781801254839"><ele>538.0</ele><time>2026-05-01T17:54:21Z</time></trkpt><trkpt lat="47.471005929890126" lon="15.387452900948833"><ele>540.0</ele><time>2026-05-01T17:54:22Z</time></trkpt><trkpt lat="47.470830017603795" lon="15.38708195513628"><ele>540.0</ele><time>2026-05-01T17:54:23Z</time></trkpt><trkpt lat="47.4706588283657" lon="15.386707627598224"><ele>540.0</ele><time>2026-05-01T17:54:24Z</time></trkpt><trkpt lat="47.470492763853265" lon="15.386332977311374"><ele>540.0</ele><time>2026-05-01T17:54:25Z</time></trkpt><trkpt lat="47.470333643273975" lon="15.385955026466227"><ele>540.0</ele><time>2026-05-01T17:54:26Z</time></trkpt><trkpt lat="47.47018503714586" lon="15.385569520130304"><ele>538.0</ele><time>2026-05-01T17:54:27Z</time></trkpt><trkpt lat="47.47004358902777" lon="15.38517433373313"><ele>536.0</ele><time>2026-05-01T17:54:28Z</time></trkpt><trkpt lat="47.46990458195931" lon="15.384775672607"><ele>535.5</ele><time>2026-05-01T17:54:29Z</time></trkpt><trkpt lat="47.46976593998109" lon="15.384374075909554"><ele>535.0</ele><time>2026-05-01T17:54:30Z</time></trkpt><trkpt lat="47.46963189640637" lon="15.383966071340684"><ele>538.0</ele><time>2026-05-01T17:54:31Z</time></trkpt><trkpt lat="47.46950421691553" lon="15.383554678949453"><ele>541.0</ele><time>2026-05-01T17:54:32Z</time></trkpt><trkpt lat="47.46938199533008" lon="15.383139378429195"><ele>538.5</ele><time>2026-05-01T17:54:33Z</time></trkpt><trkpt lat="47.46926107947916" lon="15.382726155835565"><ele>536.0</ele><time>2026-05-01T17:54:34Z</time></trkpt><trkpt lat="47.46914556994322" lon="15.382332589538594"><ele>533.5</ele><time>2026-05-01T17:54:35Z</time></trkpt><trkpt lat="47.469036460214156" lon="15.381960001332649"><ele>531.0</ele><time>2026-05-01T17:54:36Z</time></trkpt><trkpt lat="47.468932759192775" lon="15.381603848635981"><ele>529.5</ele><time>2026-05-01T17:54:37Z</time></trkpt><trkpt lat="47.468833837559" lon="15.381263662329385"><ele>528.0</ele><time>2026-05-01T17:54:38Z</time></trkpt><trkpt lat="47.468738644418174" lon="15.38093791718165"><ele>529.6666666666666</ele><time>2026-05-01T17:54:39Z</time></trkpt><trkpt lat="47.46864834452703" lon="15.380627141299831"><ele>531.3333333333333</ele><time>2026-05-01T17:54:40Z</time></trkpt><trkpt lat="47.46856197977534" lon="15.380327375252792"><ele>533.0</ele><time>2026-05-01T17:54:41Z</time></trkpt><trkpt lat="47.46847898384936" lon="15.380037978876768"><ele>533.0</ele><time>2026-05-01T17:54:42Z</time></trkpt><trkpt lat="47.46839877940317" lon="15.37976193814249"><ele>533.0</ele><time>2026-05-01T17:54:43Z</time></trkpt><trkpt lat="47.468317855338775" lon="15.379484972287553"><ele>533.0</ele><time>2026-05-01T17:54:44Z</time></trkpt><trkpt lat="47.4682375167347" lon="15.379211007545571"><ele>531.6666666666666</ele><time>2026-05-01T17:54:45Z</time></trkpt><trkpt lat="47.46815894623916" lon="15.378943107243673"><ele>530.3333333333334</ele><time>2026-05-01T17:54:46Z</time></trkpt><trkpt lat="47.46808175796861" lon="15.37867751948239"><ele>529.0</ele><time>2026-05-01T17:54:47Z</time></trkpt><trkpt lat="47.46800471985532" lon="15.378413205928318"><ele>528.3333333333334</ele><time>2026-05-01T17:54:48Z</time></trkpt><trkpt lat="47.46792787766318" lon="15.378150626051502"><ele>527.6666666666666</ele><time>2026-05-01T17:54:49Z</time></trkpt><trkpt lat="47.467850995544765" lon="15.377889245001613"><ele>527.0</ele><time>2026-05-01T17:54:50Z</time></trkpt><trkpt lat="47.46777484884561" lon="15.377628801278425"><ele>527.0</ele><time>2026-05-01T17:54:51Z</time></trkpt><trkpt lat="47.467697571233266" lon="15.377367087605258"><ele>527.0</ele><time>2026-05-01T17:54:52Z</time></trkpt><trkpt lat="47.46762008714995" lon="15.37710596682715"><ele>527.0</ele><time>2026-05-01T17:54:53Z</time></trkpt><trkpt lat="47.46754247019286" lon="15.376843208645075"><ele>527.3333333333333</ele><time>2026-05-01T17:54:54Z</time></trkpt><trkpt lat="47.467464520228525" lon="15.376579145698603"><ele>527.6666666666666</ele><time>2026-05-01T17:54:55Z</time></trkpt><trkpt lat="47.46738675047107" lon="15.376315111976066"><ele>528.0</ele><time>2026-05-01T17:54:56Z</time></trkpt><trkpt lat="47.4673088140836" lon="15.37605184360727"><ele>526.6666666666666</ele><time>2026-05-01T17:54:57Z</time></trkpt><trkpt lat="47.46723063800478" lon="15.375790009290181"><ele>525.3333333333333</ele><time>2026-05-01T17:54:58Z</time></trkpt><trkpt lat="47.467151824614824" lon="15.375529050005682"><ele>524.0</ele><time>2026-05-01T17:54:59Z</time></trkpt><trkpt lat="47.46707243521905" lon="15.375269268776389"><ele>524.0</ele><time>2026-05-01T17:55:00Z</time></trkpt><trkpt lat="47.4669940230835" lon="15.375009360883661"><ele>524.0</ele><time>2026-05-01T17:55:01Z</time></trkpt><trkpt lat="47.46691791439847" lon="15.37474989001291"><ele>524.0</ele><time>2026-05-01T17:55:02Z</time></trkpt><trkpt lat="47.466843150511096" lon="15.374491273697272"><ele>524.0</ele><time>2026-05-01T17:55:03Z</time></trkpt><trkpt lat="47.46676974443867" lon="15.374228641701386"><ele>524.0</ele><time>2026-05-01T17:55:04Z</time></trkpt><trkpt lat="47.466697346985704" lon="15.373962932399651"><ele>524.0</ele><time>2026-05-01T17:55:05Z</time></trkpt><trkpt lat="47.46662559406822" lon="15.373693831523132"><ele>524.3333333333333</ele><time>2026-05-01T17:55:06Z</time></trkpt><trkpt lat="47.466553221729775" lon="15.373422053558317"><ele>524.6666666666666</ele><time>2026-05-01T17:55:07Z</time></trkpt><trkpt lat="47.4664814763546" lon="15.373147327856"><ele>525.0</ele><time>2026-05-01T17:55:08Z</time></trkpt><trkpt lat="47.46641281279969" lon="15.372870025651665"><ele>525.0</ele><time>2026-05-01T17:55:09Z</time></trkpt><trkpt lat="47.46634603366986" lon="15.37259052320533"><ele>525.0</ele><time>2026-05-01T17:55:10Z</time></trkpt><trkpt lat="47.466280272666715" lon="15.372307341858694"><ele>525.0</ele><time>2026-05-01T17:55:11Z</time></trkpt><trkpt lat="47.4662151814978" lon="15.372022466408533"><ele>524.3333333333334</ele><time>2026-05-01T17:55:12Z</time></trkpt><trkpt lat="47.46615241881449" lon="15.371736878929442"><ele>523.6666666666667</ele><time>2026-05-01T17:55:13Z</time></trkpt><trkpt lat="47.466092303067484" lon="15.371453522125021"><ele>523.0</ele><time>2026-05-01T17:55:14Z</time></trkpt><trkpt lat="47.466034855158206" lon="15.371178838607998"><ele>523.0</ele><time>2026-05-01T17:55:15Z</time></trkpt><trkpt lat="47.465978698118555" lon="15.370896775743923"><ele>523.0</ele><time>2026-05-01T17:55:16Z</time></trkpt><trkpt lat="47.46592365639485" lon="15.370612518168103"><ele>523.0</ele><time>2026-05-01T17:55:17Z</time></trkpt><trkpt lat="47.46587095930852" lon="15.370323194820921"><ele>523.0</ele><time>2026-05-01T17:55:18Z</time></trkpt><trkpt lat="47.46581926371211" lon="15.370030146429476"><ele>523.0</ele><time>2026-05-01T17:55:19Z</time></trkpt><trkpt lat="47.46576866464505" lon="15.369736567878249"><ele>523.0</ele><time>2026-05-01T17:55:20Z</time></trkpt><trkpt lat="47.46572003905922" lon="15.369440607976959"><ele>522.6666666666667</ele><time>2026-05-01T17:55:21Z</time></trkpt><trkpt lat="47.46567292982537" lon="15.369143423394469"><ele>522.3333333333334</ele><time>2026-05-01T17:55:22.001Z</time></trkpt><trkpt lat="47.4656287390321" lon="15.368845430987836"><ele>522.0</ele><time>2026-05-01T17:55:23.001Z</time></trkpt><trkpt lat="47.46558588901977" lon="15.368549228468163"><ele>522.0</ele><time>2026-05-01T17:55:24.001Z</time></trkpt><trkpt lat="47.465544442512424" lon="15.368255383711782"><ele>522.0</ele><time>2026-05-01T17:55:25.001Z</time></trkpt><trkpt lat="47.465504375098725" lon="15.367964753030083"><ele>522.0</ele><time>2026-05-01T17:55:26.001Z</time></trkpt><trkpt lat="47.46546590436299" lon="15.367677478264662"><ele>522.3333333333334</ele><time>2026-05-01T17:55:27.001Z</time></trkpt><trkpt lat="47.46542965233591" lon="15.367391877437091"><ele>522.6666666666667</ele><time>2026-05-01T17:55:28.001Z</time></trkpt><trkpt lat="47.46539487681866" lon="15.367106356853371"><ele>523.0</ele><time>2026-05-01T17:55:29.001Z</time></trkpt><trkpt lat="47.46536170659659" lon="15.366820369739486"><ele>522.6666666666667</ele><time>2026-05-01T17:55:30.001Z</time></trkpt><trkpt lat="47.46532893075106" lon="15.366534139860638"><ele>522.3333333333334</ele><time>2026-05-01T17:55:31.001Z</time></trkpt><trkpt lat="47.46529651271535" lon="15.366247453668606"><ele>522.0</ele><time>2026-05-01T17:55:32.001Z</time></trkpt><trkpt lat="47.46526411339453" lon="15.365961444474502"><ele>522.0</ele><time>2026-05-01T17:55:33.001Z</time></trkpt><trkpt lat="47.4652331552285" lon="15.365674461122728"><ele>522.0</ele><time>2026-05-01T17:55:34.001Z</time></trkpt><trkpt lat="47.46520234378001" lon="15.365387824335372"><ele>522.0</ele><time>2026-05-01T17:55:35.001Z</time></trkpt><trkpt lat="47.465170922739716" lon="15.365102625423873"><ele>521.6666666666666</ele><time>2026-05-01T17:55:36.001Z</time></trkpt><trkpt lat="47.46514054773054" lon="15.364819021280752"><ele>521.3333333333333</ele><time>2026-05-01T17:55:37.001Z</time></trkpt><trkpt lat="47.46511127354417" lon="15.364537132172021"><ele>521.0</ele><time>2026-05-01T17:55:38.001Z</time></trkpt><trkpt lat="47.46508227995981" lon="15.36425542090236"><ele>520.6666666666666</ele><time>2026-05-01T17:55:39.001Z</time></trkpt><trkpt lat="47.465052971785795" lon="15.363974591485471"><ele>520.3333333333334</ele><time>2026-05-01T17:55:40.001Z</time></trkpt><trkpt lat="47.465023668652684" lon="15.363694290873894"><ele>520.0</ele><time>2026-05-01T17:55:41.001Z</time></trkpt><trkpt lat="47.46499353829198" lon="15.363412559121652"><ele>520.0</ele><time>2026-05-01T17:55:42.001Z</time></trkpt><trkpt lat="47.46496320879359" lon="15.363131274938373"><ele>520.0</ele><time>2026-05-01T17:55:43.001Z</time></trkpt><trkpt lat="47.46493286293693" lon="15.362849325293343"><ele>520.0</ele><time>2026-05-01T17:55:44.001Z</time></trkpt><trkpt lat="47.464903341805936" lon="15.36256792730814"><ele>520.0</ele><time>2026-05-01T17:55:45.001Z</time></trkpt><trkpt lat="47.46487318647833" lon="15.362285032314386"><ele>520.0</ele><time>2026-05-01T17:55:46.001Z</time></trkpt><trkpt lat="47.464842790399985" lon="15.36200193349415"><ele>520.0</ele><time>2026-05-01T17:55:47.001Z</time></trkpt><trkpt lat="47.464813981162536" lon="15.361719633558721"><ele>520.0</ele><time>2026-05-01T17:55:48.001Z</time></trkpt><trkpt lat="47.46478812972213" lon="15.361440789362904"><ele>520.0</ele><time>2026-05-01T17:55:49.001Z</time></trkpt><trkpt lat="47.46475992958132" lon="15.361165514757419"><ele>520.0</ele><time>2026-05-01T17:55:50.001Z</time></trkpt><trkpt lat="47.46472578525533" lon="15.360895781159348"><ele>520.0</ele><time>2026-05-01T17:55:51.001Z</time></trkpt><trkpt lat="47.46468395935443" lon="15.360630420834774"><ele>520.0</ele><time>2026-05-01T17:55:52.001Z</time></trkpt><trkpt lat="47.464638080689426" lon="15.36036192223177"><ele>520.0</ele><time>2026-05-01T17:55:53.001Z</time></trkpt><trkpt lat="47.46458901024693" lon="15.36009751739979"><ele>520.0</ele><time>2026-05-01T17:55:54.001Z</time></trkpt><trkpt lat="47.46457283466025" lon="15.359821047171744"><ele>520.0</ele><time>2026-05-01T17:55:55.001Z</time></trkpt><trkpt lat="47.46454371937154" lon="15.359543093723257"><ele>520.0</ele><time>2026-05-01T17:55:56.001Z</time></trkpt><trkpt lat="47.464514296021996" lon="15.35926206312991"><ele>520.3333333333334</ele><time>2026-05-01T17:55:57.001Z</time></trkpt><trkpt lat="47.46448250329525" lon="15.358977514491954"><ele>520.6666666666666</ele><time>2026-05-01T17:55:58.001Z</time></trkpt><trkpt lat="47.46445205566201" lon="15.358691275129306"><ele>521.0</ele><time>2026-05-01T17:55:59.001Z</time></trkpt><trkpt lat="47.46442151041643" lon="15.358401374575655"><ele>520.6666666666666</ele><time>2026-05-01T17:56:00.001Z</time></trkpt><trkpt lat="47.46439012399459" lon="15.358110898163392"><ele>520.3333333333334</ele><time>2026-05-01T17:56:01.001Z</time></trkpt><trkpt lat="47.46435894230825" lon="15.35782211998628"><ele>520.0</ele><time>2026-05-01T17:56:02.001Z</time></trkpt><trkpt lat="47.4643284448329" lon="15.357538218803404"><ele>520.0</ele><time>2026-05-01T17:56:03.001Z</time></trkpt><trkpt lat="47.46429826228235" lon="15.357257249252084"><ele>520.0</ele><time>2026-05-01T17:56:04.001Z</time></trkpt><trkpt lat="47.46426867722159" lon="15.356977232216787"><ele>520.0</ele><time>2026-05-01T17:56:05.001Z</time></trkpt><trkpt lat="47.46423948990447" lon="15.35669805722074"><ele>520.3333333333334</ele><time>2026-05-01T17:56:06.001Z</time></trkpt><trkpt lat="47.46420961809257" lon="15.356416840933697"><ele>520.6666666666666</ele><time>2026-05-01T17:56:07.001Z</time></trkpt><trkpt lat="47.46417978082842" lon="15.356135949866296"><ele>521.0</ele><time>2026-05-01T17:56:08.001Z</time></trkpt><trkpt lat="47.46414988899064" lon="15.355854545054223"><ele>521.0</ele><time>2026-05-01T17:56:09.001Z</time></trkpt><trkpt lat="47.4641199810446" lon="15.35557298859535"><ele>521.0</ele><time>2026-05-01T17:56:10.001Z</time></trkpt><trkpt lat="47.46409016217811" lon="15.355292695366947"><ele>521.0</ele><time>2026-05-01T17:56:11.001Z</time></trkpt><trkpt lat="47.46406040628374" lon="15.355014234766356"><ele>522.3333333333333</ele><time>2026-05-01T17:56:12.001Z</time></trkpt><trkpt lat="47.464030706829064" lon="15.354736301451716"><ele>523.6666666666666</ele><time>2026-05-01T17:56:13.001Z</time></trkpt><trkpt lat="47.46399934386227" lon="15.354462751808512"><ele>525.0</ele><time>2026-05-01T17:56:14.001Z</time></trkpt><trkpt lat="47.4639685594524" lon="15.354204498774498"><ele>525.3333333333334</ele><time>2026-05-01T17:56:15.001Z</time></trkpt><trkpt lat="47.46393653079631" lon="15.353950260031867"><ele>525.6666666666667</ele><time>2026-05-01T17:56:16.001Z</time></trkpt><trkpt lat="47.46390358149061" lon="15.353692607073967"><ele>526.0</ele><time>2026-05-01T17:56:17.001Z</time></trkpt><trkpt lat="47.463868021119715" lon="15.353433481253226"><ele>526.6666666666667</ele><time>2026-05-01T17:56:18.001Z</time></trkpt><trkpt lat="47.463831514050554" lon="15.353177074745588"><ele>527.3333333333334</ele><time>2026-05-01T17:56:19.001Z</time></trkpt><trkpt lat="47.46379401059957" lon="15.352922432229706"><ele>528.0</ele><time>2026-05-01T17:56:20.001Z</time></trkpt><trkpt lat="47.463751452865736" lon="15.352666203046224"><ele>525.6666666666666</ele><time>2026-05-01T17:56:21.001Z</time></trkpt><trkpt lat="47.463705645125835" lon="15.352410623117368"><ele>523.3333333333333</ele><time>2026-05-01T17:56:22.001Z</time></trkpt><trkpt lat="47.463656201041985" lon="15.352157614581419"><ele>521.0</ele><time>2026-05-01T17:56:23.001Z</time></trkpt><trkpt lat="47.463603564631214" lon="15.351905432119315"><ele>521.0</ele><time>2026-05-01T17:56:24.001Z</time></trkpt><trkpt lat="47.46354723847766" lon="15.351654945446997"><ele>521.0</ele><time>2026-05-01T17:56:25Z</time></trkpt><trkpt lat="47.4634871407044" lon="15.351408487269095"><ele>521.0</ele><time>2026-05-01T17:56:26Z</time></trkpt><trkpt lat="47.46342407781515" lon="15.351160932063756"><ele>520.6666666666666</ele><time>2026-05-01T17:56:27Z</time></trkpt><trkpt lat="47.46335724861787" lon="15.350915092767304"><ele>520.3333333333334</ele><time>2026-05-01T17:56:28Z</time></trkpt><trkpt lat="47.46328536182776" lon="15.350669876745062"><ele>520.0</ele><time>2026-05-01T17:56:29Z</time></trkpt><trkpt lat="47.46320796789532" lon="15.350425704393079"><ele>520.0</ele><time>2026-05-01T17:56:30Z</time></trkpt><trkpt lat="47.46312209465339" lon="15.350185359171656"><ele>520.0</ele><time>2026-05-01T17:56:31Z</time></trkpt><trkpt lat="47.46303317683809" lon="15.349949074049064"><ele>520.0</ele><time>2026-05-01T17:56:32Z</time></trkpt><trkpt lat="47.46293922494836" lon="15.34971033447298"><ele>521.6666666666667</ele><time>2026-05-01T17:56:33Z</time></trkpt><trkpt lat="47.462837503504176" lon="15.349474240592201"><ele>523.3333333333334</ele><time>2026-05-01T17:56:34Z</time></trkpt><trkpt lat="47.46273092484241" lon="15.349240226144753"><ele>525.0</ele><time>2026-05-01T17:56:35Z</time></trkpt><trkpt lat="47.46261942389666" lon="15.349006518037672"><ele>524.0</ele><time>2026-05-01T17:56:36Z</time></trkpt><trkpt lat="47.462501729036106" lon="15.34877894599099"><ele>523.0</ele><time>2026-05-01T17:56:37Z</time></trkpt><trkpt lat="47.46237747778845" lon="15.348557093245244"><ele>522.0</ele><time>2026-05-01T17:56:38Z</time></trkpt><trkpt lat="47.46224987979654" lon="15.348338142199411"><ele>522.0</ele><time>2026-05-01T17:56:39Z</time></trkpt><trkpt lat="47.462120532883475" lon="15.3481168454406"><ele>522.0</ele><time>2026-05-01T17:56:40Z</time></trkpt><trkpt lat="47.46198422300964" lon="15.347913095733928"><ele>522.0</ele><time>2026-05-01T17:56:41Z</time></trkpt><trkpt lat="47.46184240011296" lon="15.347710277648213"><ele>522.0</ele><time>2026-05-01T17:56:42Z</time></trkpt><trkpt lat="47.46170159714245" lon="15.34751538684517"><ele>522.0</ele><time>2026-05-01T17:56:43Z</time></trkpt><trkpt lat="47.46155471003406" lon="15.347324708459904"><ele>522.0</ele><time>2026-05-01T17:56:44Z</time></trkpt><trkpt lat="47.461405999116344" lon="15.347140467082172"><ele>523.3333333333334</ele><time>2026-05-01T17:56:45Z</time></trkpt><trkpt lat="47.46125389065843" lon="15.346966850744385"><ele>524.6666666666667</ele><time>2026-05-01T17:56:46Z</time></trkpt><trkpt lat="47.46109862415055" lon="15.346797940474271"><ele>526.0</ele><time>2026-05-01T17:56:47Z</time></trkpt><trkpt lat="47.460940771944976" lon="15.346635619530888"><ele>526.0</ele><time>2026-05-01T17:56:48Z</time></trkpt><trkpt lat="47.46078024425014" lon="15.346480117185548"><ele>526.0</ele><time>2026-05-01T17:56:49Z</time></trkpt><trkpt lat="47.4606157439262" lon="15.346333499044366"><ele>526.0</ele><time>2026-05-01T17:56:50Z</time></trkpt><trkpt lat="47.46044999559424" lon="15.346194641197227"><ele>524.6666666666667</ele><time>2026-05-01T17:56:51Z</time></trkpt><trkpt lat="47.46028137103669" lon="15.346061733436434"><ele>523.3333333333334</ele><time>2026-05-01T17:56:52Z</time></trkpt><trkpt lat="47.4601094583921" lon="15.345938144439849"><ele>522.0</ele><time>2026-05-01T17:56:53Z</time></trkpt><trkpt lat="47.45993680147408" lon="15.345820115830847"><ele>522.0</ele><time>2026-05-01T17:56:54Z</time></trkpt><trkpt lat="47.459759802963134" lon="15.34570908547254"><ele>522.0</ele><time>2026-05-01T17:56:55Z</time></trkpt><trkpt lat="47.45958104492045" lon="15.345603247116602"><ele>522.0</ele><time>2026-05-01T17:56:56Z</time></trkpt><trkpt lat="47.45939916489669" lon="15.345505565544668"><ele>521.0</ele><time>2026-05-01T17:56:57Z</time></trkpt><trkpt lat="47.459215018451445" lon="15.34541574036251"><ele>520.0</ele><time>2026-05-01T17:56:58Z</time></trkpt><trkpt lat="47.45902855804309" lon="15.345333067179036"><ele>519.0</ele><time>2026-05-01T17:56:59Z</time></trkpt><trkpt lat="47.45883767112579" lon="15.345257309747646"><ele>519.6666666666666</ele><time>2026-05-01T17:57:00Z</time></trkpt><trkpt lat="47.458645734049085" lon="15.345191793873852"><ele>520.3333333333333</ele><time>2026-05-01T17:57:01Z</time></trkpt><trkpt lat="47.458452414456346" lon="15.34513188563789"><ele>521.0</ele><time>2026-05-01T17:57:02Z</time></trkpt><trkpt lat="47.45825762842179" lon="15.345081352147803"><ele>521.0</ele><time>2026-05-01T17:57:03Z</time></trkpt><trkpt lat="47.458063758639824" lon="15.34503977820907"><ele>521.0</ele><time>2026-05-01T17:57:04Z</time></trkpt><trkpt lat="47.45786831812622" lon="15.34500490943501"><ele>521.0</ele><time>2026-05-01T17:57:05Z</time></trkpt><trkpt lat="47.45767247954884" lon="15.344986865405945"><ele>521.0</ele><time>2026-05-01T17:57:06Z</time></trkpt><trkpt lat="47.45747854655774" lon="15.344958718766506"><ele>521.0</ele><time>2026-05-01T17:57:07Z</time></trkpt><trkpt lat="47.457284579142694" lon="15.34493044679352"><ele>521.0</ele><time>2026-05-01T17:57:08Z</time></trkpt><trkpt lat="47.45708957263411" lon="15.34489962501251"><ele>521.3333333333333</ele><time>2026-05-01T17:57:09Z</time></trkpt><trkpt lat="47.4568939723757" lon="15.344868709380421"><ele>521.6666666666666</ele><time>2026-05-01T17:57:10Z</time></trkpt><trkpt lat="47.456699106200126" lon="15.344837909776926"><ele>522.0</ele><time>2026-05-01T17:57:11Z</time></trkpt><trkpt lat="47.456505509671196" lon="15.344803502775278"><ele>522.0</ele><time>2026-05-01T17:57:12Z</time></trkpt><trkpt lat="47.45631237305869" lon="15.344763178446144"><ele>522.0</ele><time>2026-05-01T17:57:13Z</time></trkpt><trkpt lat="47.45611954489706" lon="15.344718266792793"><ele>522.0</ele><time>2026-05-01T17:57:14Z</time></trkpt><trkpt lat="47.45592650924133" lon="15.34466384572871"><ele>522.3333333333334</ele><time>2026-05-01T17:57:15Z</time></trkpt><trkpt lat="47.45573732892854" lon="15.344594888928947"><ele>522.6666666666667</ele><time>2026-05-01T17:57:16Z</time></trkpt><trkpt lat="47.455556508128346" lon="15.344520200494424"><ele>523.0</ele><time>2026-05-01T17:57:17Z</time></trkpt><trkpt lat="47.45537095730107" lon="15.344449159905558"><ele>524.3333333333334</ele><time>2026-05-01T17:57:18Z</time></trkpt><trkpt lat="47.455186969918216" lon="15.344367608804127"><ele>525.6666666666666</ele><time>2026-05-01T17:57:19Z</time></trkpt><trkpt lat="47.455000602892355" lon="15.344278777456484"><ele>527.0</ele><time>2026-05-01T17:57:20Z</time></trkpt><trkpt lat="47.45481366719614" lon="15.344186914170978"><ele>527.0</ele><time>2026-05-01T17:57:21Z</time></trkpt><trkpt lat="47.45463027545353" lon="15.344087103809573"><ele>527.0</ele><time>2026-05-01T17:57:22Z</time></trkpt><trkpt lat="47.45444796899385" lon="15.343982281332508"><ele>527.0</ele><time>2026-05-01T17:57:23Z</time></trkpt><trkpt lat="47.454268369330954" lon="15.343873651169702"><ele>527.3333333333333</ele><time>2026-05-01T17:57:24Z</time></trkpt><trkpt lat="47.45408906464689" lon="15.343758635282846"><ele>527.6666666666666</ele><time>2026-05-01T17:57:25Z</time></trkpt><trkpt lat="47.453910669744104" lon="15.34363751922754"><ele>528.0</ele><time>2026-05-01T17:57:26Z</time></trkpt><trkpt lat="47.45373333001838" lon="15.343510084837733"><ele>528.3333333333334</ele><time>2026-05-01T17:57:27Z</time></trkpt><trkpt lat="47.45355878669077" lon="15.343378021179568"><ele>528.6666666666667</ele><time>2026-05-01T17:57:28Z</time></trkpt><trkpt lat="47.45338803773565" lon="15.343238536730219"><ele>529.0</ele><time>2026-05-01T17:57:29Z</time></trkpt><trkpt lat="47.45322010730002" lon="15.343096133247048"><ele>528.3333333333334</ele><time>2026-05-01T17:57:30Z</time></trkpt><trkpt lat="47.453053155371315" lon="15.342948225219377"><ele>527.6666666666666</ele><time>2026-05-01T17:57:31Z</time></trkpt><trkpt lat="47.45288880744736" lon="15.342798771135717"><ele>527.0</ele><time>2026-05-01T17:57:32.001Z</time></trkpt><trkpt lat="47.452731264310614" lon="15.342645039907644"><ele>526.0</ele><time>2026-05-01T17:57:33.001Z</time></trkpt><trkpt lat="47.45257577138141" lon="15.342481634165663"><ele>525.0</ele><time>2026-05-01T17:57:34.001Z</time></trkpt><trkpt lat="47.45242238152086" lon="15.342317045607427"><ele>524.0</ele><time>2026-05-01T17:57:35.001Z</time></trkpt><trkpt lat="47.45228240122863" lon="15.342134639533898"><ele>524.0</ele><time>2026-05-01T17:57:36.001Z</time></trkpt><trkpt lat="47.452133892156006" lon="15.341949267698254"><ele>524.0</ele><time>2026-05-01T17:57:37.001Z</time></trkpt><trkpt lat="47.451984839834196" lon="15.341766618019525"><ele>524.0</ele><time>2026-05-01T17:57:38.001Z</time></trkpt><trkpt lat="47.451835034521025" lon="15.341582227333515"><ele>524.3333333333333</ele><time>2026-05-01T17:57:39.001Z</time></trkpt><trkpt lat="47.45169355810089" lon="15.341389378844168"><ele>524.6666666666666</ele><time>2026-05-01T17:57:40.001Z</time></trkpt><trkpt lat="47.45155065079552" lon="15.341186794249488"><ele>525.0</ele><time>2026-05-01T17:57:41.001Z</time></trkpt><trkpt lat="47.45140999511683" lon="15.340983894014895"><ele>525.6666666666666</ele><time>2026-05-01T17:57:42.001Z</time></trkpt><trkpt lat="47.451270591565645" lon="15.3407705330878"><ele>526.3333333333333</ele><time>2026-05-01T17:57:43.001Z</time></trkpt><trkpt lat="47.45113082809992" lon="15.340556621098415"><ele>527.0</ele><time>2026-05-01T17:57:44.001Z</time></trkpt><trkpt lat="47.45099394474306" lon="15.340339519621702"><ele>527.0</ele><time>2026-05-01T17:57:45.001Z</time></trkpt><trkpt lat="47.45086173792238" lon="15.340118707726104"><ele>527.0</ele><time>2026-05-01T17:57:46.001Z</time></trkpt><trkpt lat="47.450733228041685" lon="15.339888185762847"><ele>527.0</ele><time>2026-05-01T17:57:47.001Z</time></trkpt><trkpt lat="47.45060859244127" lon="15.339652773353894"><ele>526.3333333333333</ele><time>2026-05-01T17:57:48.001Z</time></trkpt><trkpt lat="47.45048813899367" lon="15.339413335227379"><ele>525.6666666666666</ele><time>2026-05-01T17:57:49.001Z</time></trkpt><trkpt lat="47.450370492409334" lon="15.339168838724612"><ele>525.0</ele><time>2026-05-01T17:57:50.001Z</time></trkpt><trkpt lat="47.45025704958967" lon="15.338920075808533"><ele>524.6666666666666</ele><time>2026-05-01T17:57:51.001Z</time></trkpt><trkpt lat="47.45014771319294" lon="15.338668960219922"><ele>524.3333333333333</ele><time>2026-05-01T17:57:52.001Z</time></trkpt><trkpt lat="47.45004210891738" lon="15.338415961104527"><ele>524.0</ele><time>2026-05-01T17:57:53.001Z</time></trkpt><trkpt lat="47.44994242859604" lon="15.33815998531197"><ele>523.6666666666666</ele><time>2026-05-01T17:57:54.001Z</time></trkpt><trkpt lat="47.44984609784157" lon="15.337900410746862"><ele>523.3333333333334</ele><time>2026-05-01T17:57:55.001Z</time></trkpt><trkpt lat="47.44975333531199" lon="15.337638360097996"><ele>523.0</ele><time>2026-05-01T17:57:56.001Z</time></trkpt><trkpt lat="47.449665130923705" lon="15.33737534940741"><ele>529.0</ele><time>2026-05-01T17:57:57.001Z</time></trkpt><trkpt lat="47.44958104922966" lon="15.337109537818012"><ele>535.0</ele><time>2026-05-01T17:57:58.001Z</time></trkpt><trkpt lat="47.44950129623945" lon="15.336842016857434"><ele>541.0</ele><time>2026-05-01T17:57:59.001Z</time></trkpt><trkpt lat="47.449424775066454" lon="15.336571446373373"><ele>537.3333333333334</ele><time>2026-05-01T17:58:00.001Z</time></trkpt><trkpt lat="47.44935338467039" lon="15.336300033201743"><ele>533.6666666666666</ele><time>2026-05-01T17:58:01.001Z</time></trkpt><trkpt lat="47.44928567181477" lon="15.336026236994291"><ele>530.0</ele><time>2026-05-01T17:58:02.001Z</time></trkpt><trkpt lat="47.44922118787205" lon="15.335751315239039"><ele>527.0</ele><time>2026-05-01T17:58:03.001Z</time></trkpt><trkpt lat="47.449164057593144" lon="15.33547554305506"><ele>524.0</ele><time>2026-05-01T17:58:04.001Z</time></trkpt><trkpt lat="47.44910927401921" lon="15.335196415087678"><ele>521.0</ele><time>2026-05-01T17:58:05.001Z</time></trkpt><trkpt lat="47.449057929643054" lon="15.334912868659455"><ele>519.3333333333333</ele><time>2026-05-01T17:58:06.001Z</time></trkpt><trkpt lat="47.44900964090886" lon="15.334627663053457"><ele>517.6666666666666</ele><time>2026-05-01T17:58:07.001Z</time></trkpt><trkpt lat="47.44896422571896" lon="15.334339679483577"><ele>516.0</ele><time>2026-05-01T17:58:08.001Z</time></trkpt><trkpt lat="47.448921889317674" lon="15.334049764953832"><ele>516.0</ele><time>2026-05-01T17:58:09.001Z</time></trkpt><trkpt lat="47.448882651098714" lon="15.333760433519373"><ele>516.0</ele><time>2026-05-01T17:58:10.001Z</time></trkpt><trkpt lat="47.44884568538032" lon="15.333471912979837"><ele>516.0</ele><time>2026-05-01T17:58:11.001Z</time></trkpt><trkpt lat="47.44881019828913" lon="15.333182883350595"><ele>520.0</ele><time>2026-05-01T17:58:12.001Z</time></trkpt><trkpt lat="47.44877757526552" lon="15.332893518762369"><ele>524.0</ele><time>2026-05-01T17:58:13.001Z</time></trkpt><trkpt lat="47.44874664508821" lon="15.332604687651811"><ele>528.0</ele><time>2026-05-01T17:58:14.001Z</time></trkpt><trkpt lat="47.4487157790298" lon="15.332316928333999"><ele>526.3333333333334</ele><time>2026-05-01T17:58:15.001Z</time></trkpt><trkpt lat="47.44868569223498" lon="15.332031449175233"><ele>524.6666666666667</ele><time>2026-05-01T17:58:16.001Z</time></trkpt><trkpt lat="47.44865608948117" lon="15.331744487962895"><ele>523.0</ele><time>2026-05-01T17:58:17.001Z</time></trkpt><trkpt lat="47.4486265411201" lon="15.331458054042912"><ele>521.6666666666667</ele><time>2026-05-01T17:58:18.001Z</time></trkpt><trkpt lat="47.44859755400964" lon="15.331172167733614"><ele>520.3333333333334</ele><time>2026-05-01T17:58:19.001Z</time></trkpt><trkpt lat="47.44856909110451" lon="15.33088788001597"><ele>519.0</ele><time>2026-05-01T17:58:20.001Z</time></trkpt><trkpt lat="47.448540885418694" lon="15.33060616132224"><ele>518.3333333333334</ele><time>2026-05-01T17:58:21.001Z</time></trkpt><trkpt lat="47.448513596142426" lon="15.33033186997467"><ele>517.6666666666667</ele><time>2026-05-01T17:58:22.001Z</time></trkpt><trkpt lat="47.44847658494809" lon="15.330074055773972"><ele>517.0</ele><time>2026-05-01T17:58:23.001Z</time></trkpt><trkpt lat="47.448469901546034" lon="15.32979537741959"><ele>517.3333333333334</ele><time>2026-05-01T17:58:24.001Z</time></trkpt><trkpt lat="47.44846179251692" lon="15.329510508510031"><ele>517.6666666666666</ele><time>2026-05-01T17:58:25.001Z</time></trkpt><trkpt lat="47.44844604147307" lon="15.329218689068794"><ele>518.0</ele><time>2026-05-01T17:58:26.001Z</time></trkpt><trkpt lat="47.44841966388566" lon="15.328922520322894"><ele>516.6666666666666</ele><time>2026-05-01T17:58:27.001Z</time></trkpt><trkpt lat="47.44838775048531" lon="15.328623813659881"><ele>515.3333333333334</ele><time>2026-05-01T17:58:28.001Z</time></trkpt><trkpt lat="47.44835571190026" lon="15.328323171216985"><ele>514.0</ele><time>2026-05-01T17:58:29.001Z</time></trkpt><trkpt lat="47.448326905600695" lon="15.328028057285875"><ele>513.6666666666667</ele><time>2026-05-01T17:58:30.001Z</time></trkpt><trkpt lat="47.44829882325908" lon="15.327737940680448"><ele>513.3333333333334</ele><time>2026-05-01T17:58:31Z</time></trkpt><trkpt lat="47.4482711503899" lon="15.327449722991053"><ele>513.0</ele><time>2026-05-01T17:58:32Z</time></trkpt><trkpt lat="47.448242670962955" lon="15.327163981069614"><ele>513.0</ele><time>2026-05-01T17:58:33Z</time></trkpt><trkpt lat="47.44821358384608" lon="15.326878742261039"><ele>513.0</ele><time>2026-05-01T17:58:34Z</time></trkpt><trkpt lat="47.44818277293564" lon="15.3265938538354"><ele>513.0</ele><time>2026-05-01T17:58:35Z</time></trkpt><trkpt lat="47.448152943316806" lon="15.326307046035017"><ele>513.0</ele><time>2026-05-01T17:58:36Z</time></trkpt><trkpt lat="47.44812407759797" lon="15.32602259789403"><ele>513.0</ele><time>2026-05-01T17:58:37Z</time></trkpt><trkpt lat="47.44809636166489" lon="15.325739613842355"><ele>513.0</ele><time>2026-05-01T17:58:38Z</time></trkpt><trkpt lat="47.44806891202885" lon="15.325456562889972"><ele>512.0</ele><time>2026-05-01T17:58:39Z</time></trkpt><trkpt lat="47.44804130338916" lon="15.32516801126872"><ele>511.0</ele><time>2026-05-01T17:58:40Z</time></trkpt><trkpt lat="47.4480132317103" lon="15.32487405562413"><ele>510.0</ele><time>2026-05-01T17:58:41Z</time></trkpt><trkpt lat="47.447985180656744" lon="15.324575929242535"><ele>513.0</ele><time>2026-05-01T17:58:42Z</time></trkpt><trkpt lat="47.44795515800994" lon="15.324269188256368"><ele>516.0</ele><time>2026-05-01T17:58:43Z</time></trkpt><trkpt lat="47.447921566152125" lon="15.323956631790848"><ele>519.0</ele><time>2026-05-01T17:58:44Z</time></trkpt><trkpt lat="47.44788329929723" lon="15.323637270320711"><ele>519.6666666666666</ele><time>2026-05-01T17:58:45Z</time></trkpt><trkpt lat="47.44784307003913" lon="15.32331382779444"><ele>520.3333333333333</ele><time>2026-05-01T17:58:46Z</time></trkpt><trkpt lat="47.447801247101225" lon="15.322987033252874"><ele>521.0</ele><time>2026-05-01T17:58:47Z</time></trkpt><trkpt lat="47.44775545127966" lon="15.322658159061326"><ele>517.5</ele><time>2026-05-01T17:58:48Z</time></trkpt><trkpt lat="47.447705010343974" lon="15.32232841477044"><ele>514.0</ele><time>2026-05-01T17:58:49Z</time></trkpt><trkpt lat="47.44764749115695" lon="15.321996110154286"><ele>512.0</ele><time>2026-05-01T17:58:50Z</time></trkpt><trkpt lat="47.447586541110866" lon="15.321663758360247"><ele>510.0</ele><time>2026-05-01T17:58:51Z</time></trkpt><trkpt lat="47.44752723169239" lon="15.321333799530834"><ele>509.5</ele><time>2026-05-01T17:58:52Z</time></trkpt><trkpt lat="47.44746642244232" lon="15.32100609049692"><ele>509.0</ele><time>2026-05-01T17:58:53Z</time></trkpt><trkpt lat="47.447401219775394" lon="15.320682300116864"><ele>508.0</ele><time>2026-05-01T17:58:54Z</time></trkpt><trkpt lat="47.447333499018235" lon="15.32035997711369"><ele>507.0</ele><time>2026-05-01T17:58:55Z</time></trkpt><trkpt lat="47.447263008165706" lon="15.320040703250168"><ele>506.0</ele><time>2026-05-01T17:58:56Z</time></trkpt><trkpt lat="47.44718553550612" lon="15.319722821043317"><ele>505.0</ele><time>2026-05-01T17:58:57Z</time></trkpt><trkpt lat="47.44709831999306" lon="15.319405492121135"><ele>509.0</ele><time>2026-05-01T17:58:58Z</time></trkpt><trkpt lat="47.44700775011511" lon="15.319102657183763"><ele>513.0</ele><time>2026-05-01T17:58:59Z</time></trkpt><trkpt lat="47.44690844644107" lon="15.318800648864707"><ele>513.0</ele><time>2026-05-01T17:59:00Z</time></trkpt><trkpt lat="47.44680344060871" lon="15.318494878829663"><ele>513.0</ele><time>2026-05-01T17:59:01Z</time></trkpt><trkpt lat="47.446694003405014" lon="15.318193336078208"><ele>512.0</ele><time>2026-05-01T17:59:02Z</time></trkpt><trkpt lat="47.44658233625144" lon="15.31789479148714"><ele>511.0</ele><time>2026-05-01T17:59:03Z</time></trkpt><trkpt lat="47.44646659625018" lon="15.317598734929765"><ele>511.0</ele><time>2026-05-01T17:59:04Z</time></trkpt><trkpt lat="47.44634770511327" lon="15.317306657424826"><ele>511.0</ele><time>2026-05-01T17:59:05Z</time></trkpt><trkpt lat="47.44622423853757" lon="15.31701927629549"><ele>530.0</ele><time>2026-05-01T17:59:06Z</time></trkpt><trkpt lat="47.44609253954087" lon="15.316740166875825"><ele>549.0</ele><time>2026-05-01T17:59:07Z</time></trkpt><trkpt lat="47.445953564497785" lon="15.31646930036402"><ele>555.0</ele><time>2026-05-01T17:59:08Z</time></trkpt><trkpt lat="47.44580956224894" lon="15.316200036104116"><ele>561.0</ele><time>2026-05-01T17:59:09Z</time></trkpt><trkpt lat="47.44566263541247" lon="15.315933647531988"><ele>561.0</ele><time>2026-05-01T17:59:10Z</time></trkpt><trkpt lat="47.445513237512415" lon="15.315669778961437"><ele>561.0</ele><time>2026-05-01T17:59:11Z</time></trkpt><trkpt lat="47.44535957500415" lon="15.31541283391366"><ele>583.0</ele><time>2026-05-01T17:59:12Z</time></trkpt><trkpt lat="47.445202392660285" lon="15.315162711921852"><ele>605.0</ele><time>2026-05-01T17:59:13Z</time></trkpt><trkpt lat="47.445042158054406" lon="15.314920157203082"><ele>600.5</ele><time>2026-05-01T17:59:14Z</time></trkpt><trkpt lat="47.4448782338601" lon="15.314685726868614"><ele>596.0</ele><time>2026-05-01T17:59:15Z</time></trkpt><trkpt lat="47.444710876923224" lon="15.314459220644556"><ele>620.0</ele><time>2026-05-01T17:59:16Z</time></trkpt><trkpt lat="47.44454124749188" lon="15.314240150842886"><ele>644.0</ele><time>2026-05-01T17:59:17Z</time></trkpt><trkpt lat="47.444368605834036" lon="15.314027244741956"><ele>640.0</ele><time>2026-05-01T17:59:18Z</time></trkpt><trkpt lat="47.444191720346296" lon="15.313818498617465"><ele>636.0</ele><time>2026-05-01T17:59:19Z</time></trkpt><trkpt lat="47.444003696060975" lon="15.313550885316804"><ele>636.0</ele><time>2026-05-01T17:59:20Z</time></trkpt><trkpt lat="47.44381778488988" lon="15.313345902584869"><ele>636.0</ele><time>2026-05-01T17:59:21Z</time></trkpt><trkpt lat="47.443627295146676" lon="15.31315349196541"><ele>635.5</ele><time>2026-05-01T17:59:22Z</time></trkpt><trkpt lat="47.44343415442976" lon="15.312968681497608"><ele>635.0</ele><time>2026-05-01T17:59:23Z</time></trkpt><trkpt lat="47.4432375115487" lon="15.312793552830836"><ele>635.0</ele><time>2026-05-01T17:59:24Z</time></trkpt><trkpt lat="47.44303842067333" lon="15.312623055221348"><ele>635.0</ele><time>2026-05-01T17:59:25Z</time></trkpt><trkpt lat="47.442838087598666" lon="15.312462025987832"><ele>617.0</ele><time>2026-05-01T17:59:26Z</time></trkpt><trkpt lat="47.442632112693936" lon="15.31229906136806"><ele>599.0</ele><time>2026-05-01T17:59:27Z</time></trkpt><trkpt lat="47.4424255233458" lon="15.312146428807294"><ele>584.0</ele><time>2026-05-01T17:59:28Z</time></trkpt><trkpt lat="47.44221908862277" lon="15.312001327523433"><ele>569.0</ele><time>2026-05-01T17:59:29Z</time></trkpt><trkpt lat="47.44201609893608" lon="15.311866444358776"><ele>561.3333333333333</ele><time>2026-05-01T17:59:30Z</time></trkpt><trkpt lat="47.44181478243501" lon="15.311733438210794"><ele>553.6666666666666</ele><time>2026-05-01T17:59:31Z</time></trkpt><trkpt lat="47.44161051809961" lon="15.311600083315428"><ele>546.0</ele><time>2026-05-01T17:59:32Z</time></trkpt><trkpt lat="47.441410349312726" lon="15.311459490097404"><ele>548.6666666666666</ele><time>2026-05-01T17:59:33Z</time></trkpt><trkpt lat="47.44121333360877" lon="15.31134429600561"><ele>551.3333333333333</ele><time>2026-05-01T17:59:34Z</time></trkpt><trkpt lat="47.44102012426572" lon="15.311227657080066"><ele>554.0</ele><time>2026-05-01T17:59:35Z</time></trkpt><trkpt lat="47.440833120156064" lon="15.311104694761344"><ele>554.0</ele><time>2026-05-01T17:59:36Z</time></trkpt><trkpt lat="47.440648164787056" lon="15.310987101100965"><ele>554.0</ele><time>2026-05-01T17:59:37Z</time></trkpt><trkpt lat="47.44044759187654" lon="15.310861401850104"><ele>554.0</ele><time>2026-05-01T17:59:38Z</time></trkpt><trkpt lat="47.44026184118359" lon="15.310741491095326"><ele>560.6666666666666</ele><time>2026-05-01T17:59:39Z</time></trkpt><trkpt lat="47.440069738533985" lon="15.310624880574006"><ele>567.3333333333334</ele><time>2026-05-01T17:59:40Z</time></trkpt><trkpt lat="47.439889630212576" lon="15.310518246334725"><ele>574.0</ele><time>2026-05-01T17:59:41Z</time></trkpt><trkpt lat="47.43969874121148" lon="15.31039596486007"><ele>593.0</ele><time>2026-05-01T17:59:42Z</time></trkpt><trkpt lat="47.43953079362112" lon="15.310290194309681"><ele>612.0</ele><time>2026-05-01T17:59:43Z</time></trkpt><trkpt lat="47.43935601222263" lon="15.310184975794531"><ele>631.0</ele><time>2026-05-01T17:59:44Z</time></trkpt><trkpt lat="47.43918159629554" lon="15.310076900850977"><ele>601.0</ele><time>2026-05-01T17:59:45.016Z</time></trkpt><trkpt lat="47.425927996037814" lon="15.301350721995696"><ele>601.0</ele><time>2026-05-01T18:00:46.001Z</time></trkpt><trkpt lat="47.425732615902895" lon="15.301129272723841"><ele>601.0</ele><time>2026-05-01T18:00:47.001Z</time></trkpt><trkpt lat="47.42545752819686" lon="15.30082290218323"><ele>588.5</ele><time>2026-05-01T18:00:48.001Z</time></trkpt><trkpt lat="47.425264584997514" lon="15.30056619945667"><ele>576.0</ele><time>2026-05-01T18:00:49.001Z</time></trkpt><trkpt lat="47.4250505454606" lon="15.300320252851959"><ele>576.0</ele><time>2026-05-01T18:00:50.001Z</time></trkpt><trkpt lat="47.42483644158567" lon="15.300058447206222"><ele>576.0</ele><time>2026-05-01T18:00:51.001Z</time></trkpt><trkpt lat="47.42462381708108" lon="15.29978758797474"><ele>577.0</ele><time>2026-05-01T18:00:52Z</time></trkpt><trkpt lat="47.42440436414129" lon="15.299513290943215"><ele>578.0</ele><time>2026-05-01T18:00:53Z</time></trkpt><trkpt lat="47.42418482767894" lon="15.299242608590358"><ele>578.0</ele><time>2026-05-01T18:00:54Z</time></trkpt><trkpt lat="47.42396293900781" lon="15.298983190259174"><ele>578.0</ele><time>2026-05-01T18:00:55Z</time></trkpt><trkpt lat="47.42373722941515" lon="15.298739737609933"><ele>573.0</ele><time>2026-05-01T18:00:56Z</time></trkpt><trkpt lat="47.42350435792937" lon="15.298512885749322"><ele>568.0</ele><time>2026-05-01T18:00:57Z</time></trkpt><trkpt lat="47.423263126757625" lon="15.29829238659489"><ele>571.5</ele><time>2026-05-01T18:00:58Z</time></trkpt><trkpt lat="47.42301649806874" lon="15.298079706019989"><ele>575.0</ele><time>2026-05-01T18:00:59Z</time></trkpt><trkpt lat="47.422765050395334" lon="15.297875116595025"><ele>567.0</ele><time>2026-05-01T18:01:00Z</time></trkpt><trkpt lat="47.42250937809368" lon="15.297671519629963"><ele>559.0</ele><time>2026-05-01T18:01:01Z</time></trkpt><trkpt lat="47.42225492652631" lon="15.297460821895825"><ele>555.5</ele><time>2026-05-01T18:01:02Z</time></trkpt><trkpt lat="47.42200570724285" lon="15.297246429315399"><ele>552.0</ele><time>2026-05-01T18:01:03Z</time></trkpt><trkpt lat="47.42177235881418" lon="15.297032847242845"><ele>552.0</ele><time>2026-05-01T18:01:04Z</time></trkpt><trkpt lat="47.4215492900319" lon="15.296819526703848"><ele>552.0</ele><time>2026-05-01T18:01:05Z</time></trkpt><trkpt lat="47.42132279543664" lon="15.296591659067932"><ele>554.0</ele><time>2026-05-01T18:01:06Z</time></trkpt><trkpt lat="47.42109687383372" lon="15.296350919413728"><ele>556.0</ele><time>2026-05-01T18:01:07Z</time></trkpt><trkpt lat="47.42087379591959" lon="15.296101348743742"><ele>556.0</ele><time>2026-05-01T18:01:08Z</time></trkpt><trkpt lat="47.42065087514717" lon="15.295847832602067"><ele>556.0</ele><time>2026-05-01T18:01:09Z</time></trkpt><trkpt lat="47.4204264434746" lon="15.295579099911752"><ele>554.0</ele><time>2026-05-01T18:01:10Z</time></trkpt><trkpt lat="47.420204738959015" lon="15.295291679622293"><ele>552.0</ele><time>2026-05-01T18:01:11Z</time></trkpt><trkpt lat="47.41998894413198" lon="15.294984231042209"><ele>554.0</ele><time>2026-05-01T18:01:12Z</time></trkpt><trkpt lat="47.41977899698588" lon="15.294664531360961"><ele>556.0</ele><time>2026-05-01T18:01:13Z</time></trkpt><trkpt lat="47.41957672414172" lon="15.294332553550548"><ele>556.0</ele><time>2026-05-01T18:01:14Z</time></trkpt><trkpt lat="47.41937468082015" lon="15.294001191453829"><ele>556.0</ele><time>2026-05-01T18:01:15Z</time></trkpt><trkpt lat="47.41916859615515" lon="15.293677980862098"><ele>550.5</ele><time>2026-05-01T18:01:16Z</time></trkpt><trkpt lat="47.41896113249468" lon="15.293361837413837"><ele>545.0</ele><time>2026-05-01T18:01:17Z</time></trkpt><trkpt lat="47.4187551335066" lon="15.293051825213336"><ele>545.0</ele><time>2026-05-01T18:01:18Z</time></trkpt><trkpt lat="47.4185497600872" lon="15.292747637131459"><ele>545.0</ele><time>2026-05-01T18:01:19Z</time></trkpt><trkpt lat="47.418346214693976" lon="15.292448016194346"><ele>543.5</ele><time>2026-05-01T18:01:20Z</time></trkpt><trkpt lat="47.41814298567371" lon="15.292157030351403"><ele>542.0</ele><time>2026-05-01T18:01:21Z</time></trkpt><trkpt lat="47.417936836943625" lon="15.291869062492475"><ele>542.0</ele><time>2026-05-01T18:01:22Z</time></trkpt><trkpt lat="47.41772653472986" lon="15.291585126378022"><ele>542.0</ele><time>2026-05-01T18:01:23Z</time></trkpt><trkpt lat="47.41751199757829" lon="15.29130572748744"><ele>542.0</ele><time>2026-05-01T18:01:24Z</time></trkpt><trkpt lat="47.41729438392234" lon="15.291035090298402"><ele>542.0</ele><time>2026-05-01T18:01:25Z</time></trkpt><trkpt lat="47.41707211297106" lon="15.290771527733769"><ele>535.5</ele><time>2026-05-01T18:01:26Z</time></trkpt><trkpt lat="47.41684589706987" lon="15.29051560876458"><ele>529.0</ele><time>2026-05-01T18:01:27Z</time></trkpt><trkpt lat="47.41661673028214" lon="15.290262705404526"><ele>529.0</ele><time>2026-05-01T18:01:28Z</time></trkpt><trkpt lat="47.41638516153801" lon="15.29001224151673"><ele>529.0</ele><time>2026-05-01T18:01:29Z</time></trkpt><trkpt lat="47.41615010331738" lon="15.289763122697382"><ele>525.0</ele><time>2026-05-01T18:01:30Z</time></trkpt><trkpt lat="47.41591452958813" lon="15.289512115923243"><ele>521.0</ele><time>2026-05-01T18:01:31Z</time></trkpt><trkpt lat="47.415678985925794" lon="15.289258947719498"><ele>519.0</ele><time>2026-05-01T18:01:32Z</time></trkpt><trkpt lat="47.41544409292868" lon="15.289005732024844"><ele>517.0</ele><time>2026-05-01T18:01:33Z</time></trkpt><trkpt lat="47.41520956812659" lon="15.288751621608403"><ele>517.0</ele><time>2026-05-01T18:01:34Z</time></trkpt><trkpt lat="47.414976120887104" lon="15.288498454817883"><ele>517.0</ele><time>2026-05-01T18:01:35Z</time></trkpt><trkpt lat="47.41474463442098" lon="15.2882456489948"><ele>514.5</ele><time>2026-05-01T18:01:36Z</time></trkpt><trkpt lat="47.414514856951" lon="15.28799359894971"><ele>512.0</ele><time>2026-05-01T18:01:37Z</time></trkpt><trkpt lat="47.41428621309225" lon="15.287742913207452"><ele>512.0</ele><time>2026-05-01T18:01:38Z</time></trkpt><trkpt lat="47.41405778809305" lon="15.287494590391947"><ele>512.0</ele><time>2026-05-01T18:01:39Z</time></trkpt><trkpt lat="47.41382943636153" lon="15.2872474141149"><ele>509.5</ele><time>2026-05-01T18:01:40Z</time></trkpt><trkpt lat="47.41360178624471" lon="15.287001798327879"><ele>507.0</ele><time>2026-05-01T18:01:41Z</time></trkpt><trkpt lat="47.413375272104275" lon="15.28675802127665"><ele>507.0</ele><time>2026-05-01T18:01:42Z</time></trkpt><trkpt lat="47.413149787184174" lon="15.286515849472654"><ele>507.0</ele><time>2026-05-01T18:01:43Z</time></trkpt><trkpt lat="47.41292777018885" lon="15.286275290177967"><ele>503.5</ele><time>2026-05-01T18:01:44Z</time></trkpt><trkpt lat="47.412713556329564" lon="15.28604471045243"><ele>500.0</ele><time>2026-05-01T18:01:45Z</time></trkpt><trkpt lat="47.412508562623856" lon="15.285824444446794"><ele>500.0</ele><time>2026-05-01T18:01:46Z</time></trkpt><trkpt lat="47.41230489035682" lon="15.285609375690274"><ele>500.0</ele><time>2026-05-01T18:01:47Z</time></trkpt><trkpt lat="47.41209707089883" lon="15.2854001989473"><ele>498.0</ele><time>2026-05-01T18:01:48Z</time></trkpt><trkpt lat="47.4118907017095" lon="15.285212818675864"><ele>496.0</ele><time>2026-05-01T18:01:49Z</time></trkpt><trkpt lat="47.41168348961752" lon="15.28504330941486"><ele>496.0</ele><time>2026-05-01T18:01:50Z</time></trkpt><trkpt lat="47.411470085672214" lon="15.284887525111552"><ele>496.0</ele><time>2026-05-01T18:01:51Z</time></trkpt><trkpt lat="47.41125194956816" lon="15.284739324509236"><ele>487.5</ele><time>2026-05-01T18:01:52Z</time></trkpt><trkpt lat="47.41102852088579" lon="15.284596171132508"><ele>479.0</ele><time>2026-05-01T18:01:53Z</time></trkpt><trkpt lat="47.41080188062045" lon="15.284460334279487"><ele>479.0</ele><time>2026-05-01T18:01:54Z</time></trkpt><trkpt lat="47.41057277154024" lon="15.284325926852574"><ele>479.0</ele><time>2026-05-01T18:01:55Z</time></trkpt><trkpt lat="47.410342160952" lon="15.284190770222148"><ele>479.0</ele><time>2026-05-01T18:01:56Z</time></trkpt><trkpt lat="47.410111846079865" lon="15.284056297305982"><ele>479.0</ele><time>2026-05-01T18:01:57Z</time></trkpt><trkpt lat="47.40988419815462" lon="15.28392041538592"><ele>485.5</ele><time>2026-05-01T18:01:58Z</time></trkpt><trkpt lat="47.409657431386" lon="15.283785157132911"><ele>492.0</ele><time>2026-05-01T18:01:59Z</time></trkpt><trkpt lat="47.4094303716545" lon="15.28365318466064"><ele>492.0</ele><time>2026-05-01T18:02:00Z</time></trkpt><trkpt lat="47.409202676554024" lon="15.283521158241703"><ele>492.0</ele><time>2026-05-01T18:02:01Z</time></trkpt><trkpt lat="47.40897405341815" lon="15.28338907071926"><ele>491.0</ele><time>2026-05-01T18:02:02Z</time></trkpt><trkpt lat="47.408747552266895" lon="15.283255362551577"><ele>490.0</ele><time>2026-05-01T18:02:03Z</time></trkpt><trkpt lat="47.40852250531354" lon="15.283120881154646"><ele>488.5</ele><time>2026-05-01T18:02:04Z</time></trkpt><trkpt lat="47.40829836286479" lon="15.282986037567408"><ele>487.0</ele><time>2026-05-01T18:02:05Z</time></trkpt><trkpt lat="47.40807658555019" lon="15.282848725678228"><ele>487.0</ele><time>2026-05-01T18:02:06Z</time></trkpt><trkpt lat="47.40785892433478" lon="15.282704250894643"><ele>487.0</ele><time>2026-05-01T18:02:07Z</time></trkpt><trkpt lat="47.40764792739937" lon="15.282543721479115"><ele>487.0</ele><time>2026-05-01T18:02:08Z</time></trkpt><trkpt lat="47.40744457315226" lon="15.28237064638816"><ele>487.0</ele><time>2026-05-01T18:02:09Z</time></trkpt><trkpt lat="47.40725003615136" lon="15.282182694034136"><ele>487.0</ele><time>2026-05-01T18:02:10Z</time></trkpt><trkpt lat="47.407063845215944" lon="15.281978889832196"><ele>487.0</ele><time>2026-05-01T18:02:11Z</time></trkpt><trkpt lat="47.406887790511156" lon="15.2817585383913"><ele>487.0</ele><time>2026-05-01T18:02:12Z</time></trkpt><trkpt lat="47.40671850464242" lon="15.28152534174412"><ele>487.0</ele><time>2026-05-01T18:02:13Z</time></trkpt><trkpt lat="47.40655406827197" lon="15.281280377571182"><ele>486.5</ele><time>2026-05-01T18:02:14Z</time></trkpt><trkpt lat="47.40639616619232" lon="15.281021625145218"><ele>486.0</ele><time>2026-05-01T18:02:15Z</time></trkpt><trkpt lat="47.406247703671724" lon="15.28074932413763"><ele>486.0</ele><time>2026-05-01T18:02:16.001Z</time></trkpt><trkpt lat="47.40611032149258" lon="15.280464037332912"><ele>486.0</ele><time>2026-05-01T18:02:17.001Z</time></trkpt><trkpt lat="47.40598420828463" lon="15.280166905105167"><ele>486.0</ele><time>2026-05-01T18:02:18.001Z</time></trkpt><trkpt lat="47.405865933249345" lon="15.279861312533985"><ele>486.0</ele><time>2026-05-01T18:02:19.001Z</time></trkpt><trkpt lat="47.40575779197863" lon="15.279544902089867"><ele>485.5</ele><time>2026-05-01T18:02:20.001Z</time></trkpt><trkpt lat="47.405661829000756" lon="15.279219286200373"><ele>485.0</ele><time>2026-05-01T18:02:21.001Z</time></trkpt><trkpt lat="47.40558061356418" lon="15.278887604354043"><ele>485.0</ele><time>2026-05-01T18:02:22.001Z</time></trkpt><trkpt lat="47.40551244704024" lon="15.278547350822057"><ele>485.0</ele><time>2026-05-01T18:02:23.001Z</time></trkpt><trkpt lat="47.405455380620104" lon="15.278200593845794"><ele>493.5</ele><time>2026-05-01T18:02:24.001Z</time></trkpt><trkpt lat="47.40540870722996" lon="15.277848633287453"><ele>502.0</ele><time>2026-05-01T18:02:25.001Z</time></trkpt><trkpt lat="47.40536717360543" lon="15.277496290105285"><ele>502.0</ele><time>2026-05-01T18:02:26.001Z</time></trkpt><trkpt lat="47.40532823829417" lon="15.277142707550292"><ele>502.0</ele><time>2026-05-01T18:02:27.001Z</time></trkpt><trkpt lat="47.405289022809434" lon="15.276794834843079"><ele>502.0</ele><time>2026-05-01T18:02:28.001Z</time></trkpt><trkpt lat="47.405250472088035" lon="15.276465212439577"><ele>502.0</ele><time>2026-05-01T18:02:29.001Z</time></trkpt><trkpt lat="47.40520983395273" lon="15.276133685903263"><ele>500.0</ele><time>2026-05-01T18:02:30.001Z</time></trkpt><trkpt lat="47.40516421192459" lon="15.275799041465778"><ele>498.0</ele><time>2026-05-01T18:02:31.001Z</time></trkpt><trkpt lat="47.40511101637041" lon="15.275462190267465"><ele>496.0</ele><time>2026-05-01T18:02:32.001Z</time></trkpt><trkpt lat="47.405048166071374" lon="15.27512758832992"><ele>494.0</ele><time>2026-05-01T18:02:33.001Z</time></trkpt><trkpt lat="47.40497298200197" lon="15.274800345187083"><ele>493.5</ele><time>2026-05-01T18:02:34.001Z</time></trkpt><trkpt lat="47.404886814321486" lon="15.27448062829513"><ele>493.0</ele><time>2026-05-01T18:02:35.001Z</time></trkpt><trkpt lat="47.404788977309316" lon="15.274164719007265"><ele>495.5</ele><time>2026-05-01T18:02:36.001Z</time></trkpt><trkpt lat="47.40468487403804" lon="15.273850107851247"><ele>498.0</ele><time>2026-05-01T18:02:37.001Z</time></trkpt><trkpt lat="47.40458213002817" lon="15.273537333258673"><ele>514.0</ele><time>2026-05-01T18:02:38.001Z</time></trkpt><trkpt lat="47.404482744494516" lon="15.273226887855545"><ele>530.0</ele><time>2026-05-01T18:02:39.001Z</time></trkpt><trkpt lat="47.4043834440201" lon="15.2729133007032"><ele>542.5</ele><time>2026-05-01T18:02:40.001Z</time></trkpt><trkpt lat="47.40428621922694" lon="15.272597092592928"><ele>555.0</ele><time>2026-05-01T18:02:41.001Z</time></trkpt><trkpt lat="47.40419155107043" lon="15.272279161169932"><ele>558.0</ele><time>2026-05-01T18:02:42.001Z</time></trkpt><trkpt lat="47.40410065662359" lon="15.271959456540237"><ele>561.0</ele><time>2026-05-01T18:02:43.001Z</time></trkpt><trkpt lat="47.40401369557963" lon="15.271637926901361"><ele>562.5</ele><time>2026-05-01T18:02:44.001Z</time></trkpt><trkpt lat="47.403928393344096" lon="15.271315519382302"><ele>564.0</ele><time>2026-05-01T18:02:45.001Z</time></trkpt><trkpt lat="47.403844790766065" lon="15.270992817796232"><ele>580.0</ele><time>2026-05-01T18:02:46.001Z</time></trkpt><trkpt lat="47.40376356913141" lon="15.270668424258082"><ele>596.0</ele><time>2026-05-01T18:02:47.001Z</time></trkpt><trkpt lat="47.40368449968765" lon="15.270343632917493"><ele>599.0</ele><time>2026-05-01T18:02:48.001Z</time></trkpt><trkpt lat="47.4036082312959" lon="15.270017970048137"><ele>602.0</ele><time>2026-05-01T18:02:49.001Z</time></trkpt><trkpt lat="47.403533329994644" lon="15.269692084971924"><ele>606.0</ele><time>2026-05-01T18:02:50.001Z</time></trkpt><trkpt lat="47.403459798509466" lon="15.26936565950065"><ele>610.0</ele><time>2026-05-01T18:02:51.001Z</time></trkpt><trkpt lat="47.4034271020039" lon="15.268925689442785"><ele>610.0</ele><time>2026-05-01T18:02:52.001Z</time></trkpt><trkpt lat="47.403359231867405" lon="15.26858354280494"><ele>610.0</ele><time>2026-05-01T18:02:53.001Z</time></trkpt><trkpt lat="47.403295751784334" lon="15.268240725227685"><ele>609.0</ele><time>2026-05-01T18:02:54.001Z</time></trkpt><trkpt lat="47.403231871102044" lon="15.26789696487321"><ele>608.0</ele><time>2026-05-01T18:02:55.001Z</time></trkpt><trkpt lat="47.40317237958883" lon="15.267552107649196"><ele>608.0</ele><time>2026-05-01T18:02:56.001Z</time></trkpt><trkpt lat="47.40311462612656" lon="15.267206797489287"><ele>608.0</ele><time>2026-05-01T18:02:57.001Z</time></trkpt><trkpt lat="47.40306177973671" lon="15.266861729385466"><ele>608.0</ele><time>2026-05-01T18:02:58Z</time></trkpt><trkpt lat="47.403013421567486" lon="15.266519396527178"><ele>608.0</ele><time>2026-05-01T18:02:59Z</time></trkpt><trkpt lat="47.40296829448563" lon="15.266179084288654"><ele>622.5</ele><time>2026-05-01T18:03:00Z</time></trkpt><trkpt lat="47.40292484279944" lon="15.265841355329359"><ele>637.0</ele><time>2026-05-01T18:03:01Z</time></trkpt><trkpt lat="47.40288377660741" lon="15.265499144175347"><ele>637.0</ele><time>2026-05-01T18:03:02Z</time></trkpt><trkpt lat="47.402848698653216" lon="15.265164990476546"><ele>637.0</ele><time>2026-05-01T18:03:03Z</time></trkpt><trkpt lat="47.40281457842751" lon="15.264829166128239"><ele>633.5</ele><time>2026-05-01T18:03:04Z</time></trkpt><trkpt lat="47.40278065481333" lon="15.264489134759406"><ele>630.0</ele><time>2026-05-01T18:03:05Z</time></trkpt><trkpt lat="47.40274700652084" lon="15.264141707130685"><ele>628.5</ele><time>2026-05-01T18:03:06Z</time></trkpt><trkpt lat="47.40271977222042" lon="15.26379939134184"><ele>627.0</ele><time>2026-05-01T18:03:07Z</time></trkpt><trkpt lat="47.40269593339703" lon="15.263455526873926"><ele>627.0</ele><time>2026-05-01T18:03:08Z</time></trkpt><trkpt lat="47.402677718696744" lon="15.263122089457543"><ele>627.0</ele><time>2026-05-01T18:03:09Z</time></trkpt><trkpt lat="47.40265984555812" lon="15.262779362491539"><ele>622.0</ele><time>2026-05-01T18:03:10Z</time></trkpt><trkpt lat="47.40264242383381" lon="15.262429055766507"><ele>617.0</ele><time>2026-05-01T18:03:11Z</time></trkpt><trkpt lat="47.402627824678206" lon="15.262083588002877"><ele>610.5</ele><time>2026-05-01T18:03:12Z</time></trkpt><trkpt lat="47.40261339071362" lon="15.261724761164556"><ele>604.0</ele><time>2026-05-01T18:03:13Z</time></trkpt><trkpt lat="47.40260421999422" lon="15.26137000184337"><ele>597.5</ele><time>2026-05-01T18:03:14Z</time></trkpt><trkpt lat="47.40259760730033" lon="15.261013280497302"><ele>591.0</ele><time>2026-05-01T18:03:15Z</time></trkpt><trkpt lat="47.40259547681437" lon="15.260661984013103"><ele>571.0</ele><time>2026-05-01T18:03:16.024Z</time></trkpt><trkpt lat="47.40253169263947" lon="15.259413814377483"><ele>571.0</ele><time>2026-05-01T18:03:19.638Z</time></trkpt><trkpt lat="47.40254168025997" lon="15.259069831161217"><ele>571.0</ele><time>2026-05-01T18:03:20.638Z</time></trkpt><trkpt lat="47.40255319977213" lon="15.25872596807644"><ele>558.0</ele><time>2026-05-01T18:03:21.638Z</time></trkpt><trkpt lat="47.402564719778674" lon="15.258382090234116"><ele>545.0</ele><time>2026-05-01T18:03:22.638Z</time></trkpt><trkpt lat="47.40257626001367" lon="15.258038214894952"><ele>538.0</ele><time>2026-05-01T18:03:23.638Z</time></trkpt><trkpt lat="47.40259365683403" lon="15.257694675486231"><ele>531.0</ele><time>2026-05-01T18:03:24.639Z</time></trkpt><trkpt lat="47.40253749314314" lon="15.256753463891316"><ele>526.6666666666666</ele><time>2026-05-01T18:03:27Z</time></trkpt><trkpt lat="47.402526799702024" lon="15.256417334318732"><ele>522.3333333333333</ele><time>2026-05-01T18:03:28Z</time></trkpt><trkpt lat="47.40252998309184" lon="15.256121792737"><ele>518.0</ele><time>2026-05-01T18:03:29Z</time></trkpt><trkpt lat="47.402511315483444" lon="15.25582128796392"><ele>518.6666666666666</ele><time>2026-05-01T18:03:30Z</time></trkpt><trkpt lat="47.40246561027452" lon="15.255515623841603"><ele>519.3333333333334</ele><time>2026-05-01T18:03:31Z</time></trkpt><trkpt lat="47.40241177732451" lon="15.255192793081765"><ele>520.0</ele><time>2026-05-01T18:03:32Z</time></trkpt><trkpt lat="47.40234985466649" lon="15.25488210315932"><ele>516.5</ele><time>2026-05-01T18:03:33Z</time></trkpt><trkpt lat="47.40227752793868" lon="15.2545589070365"><ele>513.0</ele><time>2026-05-01T18:03:34Z</time></trkpt><trkpt lat="47.402191781869725" lon="15.254253751766152"><ele>523.5</ele><time>2026-05-01T18:03:35Z</time></trkpt><trkpt lat="47.40209467863372" lon="15.25395781250064"><ele>534.0</ele><time>2026-05-01T18:03:36Z</time></trkpt><trkpt lat="47.40198579515946" lon="15.25366357221306"><ele>534.0</ele><time>2026-05-01T18:03:37Z</time></trkpt><trkpt lat="47.40186481961199" lon="15.25337666949128"><ele>534.0</ele><time>2026-05-01T18:03:38Z</time></trkpt><trkpt lat="47.40173471317293" lon="15.2530968786611"><ele>530.5</ele><time>2026-05-01T18:03:39Z</time></trkpt><trkpt lat="47.401593809357664" lon="15.25283237416817"><ele>527.0</ele><time>2026-05-01T18:03:40Z</time></trkpt><trkpt lat="47.40144439675717" lon="15.2525788362526"><ele>538.5</ele><time>2026-05-01T18:03:41Z</time></trkpt><trkpt lat="47.40128475303617" lon="15.252337677665361"><ele>550.0</ele><time>2026-05-01T18:03:42Z</time></trkpt><trkpt lat="47.40111264592568" lon="15.252109784937906"><ele>550.0</ele><time>2026-05-01T18:03:43Z</time></trkpt><trkpt lat="47.4009308942353" lon="15.251888519118802"><ele>550.0</ele><time>2026-05-01T18:03:44Z</time></trkpt><trkpt lat="47.40074278210552" lon="15.251672160877513"><ele>543.5</ele><time>2026-05-01T18:03:45Z</time></trkpt><trkpt lat="47.400550028914225" lon="15.251456640245857"><ele>537.0</ele><time>2026-05-01T18:03:46Z</time></trkpt><trkpt lat="47.400356934728315" lon="15.251238847348075"><ele>557.5</ele><time>2026-05-01T18:03:47Z</time></trkpt><trkpt lat="47.40017213958249" lon="15.251019284398119"><ele>578.0</ele><time>2026-05-01T18:03:48Z</time></trkpt><trkpt lat="47.39999570225025" lon="15.250796237317756"><ele>569.5</ele><time>2026-05-01T18:03:49Z</time></trkpt><trkpt lat="47.399818914457434" lon="15.250556566887086"><ele>561.0</ele><time>2026-05-01T18:03:50Z</time></trkpt><trkpt lat="47.39964314657331" lon="15.250306778418192"><ele>563.0</ele><time>2026-05-01T18:03:51Z</time></trkpt><trkpt lat="47.399641106984426" lon="15.249946697155318"><ele>565.0</ele><time>2026-05-01T18:03:52.079Z</time></trkpt><trkpt lat="47.39909226609099" lon="15.248643328459298"><ele>565.0</ele><time>2026-05-01T18:03:56.639Z</time></trkpt><trkpt lat="47.399017533111774" lon="15.248320589813659"><ele>565.0</ele><time>2026-05-01T18:03:57.639Z</time></trkpt><trkpt lat="47.398957139256616" lon="15.247991136224329"><ele>559.0</ele><time>2026-05-01T18:03:58.639Z</time></trkpt><trkpt lat="47.39890910409309" lon="15.247657381844313"><ele>553.0</ele><time>2026-05-01T18:03:59.639Z</time></trkpt><trkpt lat="47.398874409274086" lon="15.247320233326747"><ele>547.5</ele><time>2026-05-01T18:04:00.639Z</time></trkpt><trkpt lat="47.39885256827626" lon="15.24698049023135"><ele>542.0</ele><time>2026-05-01T18:04:01.639Z</time></trkpt><trkpt lat="47.39884341279578" lon="15.246639590393366"><ele>534.5</ele><time>2026-05-01T18:04:02.639Z</time></trkpt><trkpt lat="47.39884940300399" lon="15.24629844200278"><ele>527.0</ele><time>2026-05-01T18:04:03.639Z</time></trkpt><trkpt lat="47.39886824541064" lon="15.245958329632677"><ele>516.0</ele><time>2026-05-01T18:04:04.639Z</time></trkpt><trkpt lat="47.398844951865215" lon="15.244985047218464"><ele>516.0</ele><time>2026-05-01T18:04:07Z</time></trkpt><trkpt lat="47.398887894851406" lon="15.244636320939291"><ele>516.0</ele><time>2026-05-01T18:04:08Z</time></trkpt><trkpt lat="47.398957707245984" lon="15.244307000565843"><ele>513.5</ele><time>2026-05-01T18:04:09Z</time></trkpt><trkpt lat="47.3990291560436" lon="15.243933172271527"><ele>511.0</ele><time>2026-05-01T18:04:10Z</time></trkpt><trkpt lat="47.39903418796031" lon="15.243591479947337"><ele>511.0</ele><time>2026-05-01T18:04:11Z</time></trkpt><trkpt lat="47.399027647394114" lon="15.24323918959766"><ele>511.0</ele><time>2026-05-01T18:04:12Z</time></trkpt><trkpt lat="47.39901982037321" lon="15.242900933854372"><ele>510.0</ele><time>2026-05-01T18:04:13Z</time></trkpt><trkpt lat="47.39899574681588" lon="15.242547213460645"><ele>509.0</ele><time>2026-05-01T18:04:14Z</time></trkpt><trkpt lat="47.39895041780785" lon="15.242196444699653"><ele>505.5</ele><time>2026-05-01T18:04:15Z</time></trkpt><trkpt lat="47.398891682861155" lon="15.241841996534498"><ele>502.0</ele><time>2026-05-01T18:04:16Z</time></trkpt><trkpt lat="47.39881765205272" lon="15.241486334003365"><ele>513.0</ele><time>2026-05-01T18:04:17Z</time></trkpt><trkpt lat="47.398727808897874" lon="15.241134942318894"><ele>524.0</ele><time>2026-05-01T18:04:18Z</time></trkpt><trkpt lat="47.39862282706172" lon="15.240787240948443"><ele>516.0</ele><time>2026-05-01T18:04:19Z</time></trkpt><trkpt lat="47.39850525327614" lon="15.240443093571349"><ele>508.0</ele><time>2026-05-01T18:04:20Z</time></trkpt><trkpt lat="47.39837199146301" lon="15.240106058610221"><ele>504.0</ele><time>2026-05-01T18:04:21Z</time></trkpt><trkpt lat="47.39822769033542" lon="15.239773407925684"><ele>500.0</ele><time>2026-05-01T18:04:22Z</time></trkpt><trkpt lat="47.39808048552043" lon="15.239438454329454"><ele>507.5</ele><time>2026-05-01T18:04:23Z</time></trkpt><trkpt lat="47.39793561078067" lon="15.239098605205488"><ele>515.0</ele><time>2026-05-01T18:04:24Z</time></trkpt><trkpt lat="47.39779713788055" lon="15.238749849980987"><ele>515.0</ele><time>2026-05-01T18:04:25Z</time></trkpt><trkpt lat="47.39767403548454" lon="15.238387178369647"><ele>515.0</ele><time>2026-05-01T18:04:26Z</time></trkpt><trkpt lat="47.397568777655174" lon="15.238011509698216"><ele>509.5</ele><time>2026-05-01T18:04:27.001Z</time></trkpt><trkpt lat="47.39747967957229" lon="15.237624417460006"><ele>504.0</ele><time>2026-05-01T18:04:28.001Z</time></trkpt><trkpt lat="47.39740912587839" lon="15.237226223936021"><ele>502.5</ele><time>2026-05-01T18:04:29.001Z</time></trkpt><trkpt lat="47.397355176720914" lon="15.236819531187011"><ele>501.0</ele><time>2026-05-01T18:04:30.001Z</time></trkpt><trkpt lat="47.39731875975731" lon="15.236406211925008"><ele>500.0</ele><time>2026-05-01T18:04:31.001Z</time></trkpt><trkpt lat="47.397302635244685" lon="15.235988255679061"><ele>499.0</ele><time>2026-05-01T18:04:32.001Z</time></trkpt><trkpt lat="47.39731148986669" lon="15.23556954429181"><ele>498.5</ele><time>2026-05-01T18:04:33.001Z</time></trkpt><trkpt lat="47.39734168728884" lon="15.235150353145066"><ele>498.0</ele><time>2026-05-01T18:04:34.001Z</time></trkpt><trkpt lat="47.397390127281966" lon="15.234730688226712"><ele>498.0</ele><time>2026-05-01T18:04:35.001Z</time></trkpt><trkpt lat="47.39745154664085" lon="15.234311753374682"><ele>498.0</ele><time>2026-05-01T18:04:36.001Z</time></trkpt><trkpt lat="47.39752222323226" lon="15.233893679627721"><ele>498.0</ele><time>2026-05-01T18:04:37.001Z</time></trkpt><trkpt lat="47.397599486564864" lon="15.233476392401231"><ele>498.0</ele><time>2026-05-01T18:04:38.001Z</time></trkpt><trkpt lat="47.397678023823694" lon="15.23305688254192"><ele>498.5</ele><time>2026-05-01T18:04:39.001Z</time></trkpt><trkpt lat="47.39775846760486" lon="15.232634235743877"><ele>499.0</ele><time>2026-05-01T18:04:40.001Z</time></trkpt><trkpt lat="47.39783862134532" lon="15.232210676140541"><ele>498.0</ele><time>2026-05-01T18:04:41.001Z</time></trkpt><trkpt lat="47.39791946301571" lon="15.231785317468367"><ele>497.0</ele><time>2026-05-01T18:04:42.001Z</time></trkpt><trkpt lat="47.398003077025066" lon="15.23136115219324"><ele>496.0</ele><time>2026-05-01T18:04:43.001Z</time></trkpt><trkpt lat="47.39808894626386" lon="15.230944703638182"><ele>495.0</ele><time>2026-05-01T18:04:44.001Z</time></trkpt><trkpt lat="47.39817554930993" lon="15.230550625654802"><ele>494.5</ele><time>2026-05-01T18:04:45.001Z</time></trkpt><trkpt lat="47.398271256873755" lon="15.230148867286633"><ele>494.0</ele><time>2026-05-01T18:04:46.001Z</time></trkpt><trkpt lat="47.39838041487381" lon="15.229741550440215"><ele>495.5</ele><time>2026-05-01T18:04:47.001Z</time></trkpt><trkpt lat="47.39850098953656" lon="15.229339225951838"><ele>497.0</ele><time>2026-05-01T18:04:48.001Z</time></trkpt><trkpt lat="47.39863521951045" lon="15.228941610860613"><ele>498.0</ele><time>2026-05-01T18:04:49.001Z</time></trkpt><trkpt lat="47.39878221467528" lon="15.228552030958374"><ele>499.0</ele><time>2026-05-01T18:04:50.001Z</time></trkpt><trkpt lat="47.39894013695471" lon="15.228169801969019"><ele>497.0</ele><time>2026-05-01T18:04:51.001Z</time></trkpt><trkpt lat="47.3991079052602" lon="15.227795025459773"><ele>495.0</ele><time>2026-05-01T18:04:52.001Z</time></trkpt><trkpt lat="47.39928620065426" lon="15.227431398442832"><ele>496.0</ele><time>2026-05-01T18:04:53.001Z</time></trkpt><trkpt lat="47.399472113041675" lon="15.227078648280223"><ele>497.0</ele><time>2026-05-01T18:04:54.001Z</time></trkpt><trkpt lat="47.39966651244102" lon="15.226736503685697"><ele>494.5</ele><time>2026-05-01T18:04:55.001Z</time></trkpt><trkpt lat="47.39986680301497" lon="15.22640249277509"><ele>492.0</ele><time>2026-05-01T18:04:56.001Z</time></trkpt><trkpt lat="47.40007231244959" lon="15.226076920553663"><ele>492.0</ele><time>2026-05-01T18:04:57.001Z</time></trkpt><trkpt lat="47.40028091022418" lon="15.225757128071578"><ele>492.0</ele><time>2026-05-01T18:04:58.001Z</time></trkpt><trkpt lat="47.40049233440185" lon="15.225442084360768"><ele>492.0</ele><time>2026-05-01T18:04:59.001Z</time></trkpt><trkpt lat="47.40070374054022" lon="15.225129060468056"><ele>492.0</ele><time>2026-05-01T18:05:00.001Z</time></trkpt><trkpt lat="47.40091731725622" lon="15.224819352266282"><ele>492.5</ele><time>2026-05-01T18:05:01.001Z</time></trkpt><trkpt lat="47.401133661073764" lon="15.224514164311078"><ele>493.0</ele><time>2026-05-01T18:05:02.001Z</time></trkpt><trkpt lat="47.40135072720221" lon="15.224210857921538"><ele>493.5</ele><time>2026-05-01T18:05:03Z</time></trkpt><trkpt lat="47.401567644845166" lon="15.223908041282874"><ele>494.0</ele><time>2026-05-01T18:05:04Z</time></trkpt><trkpt lat="47.40178135960691" lon="15.223601837927122"><ele>494.0</ele><time>2026-05-01T18:05:05Z</time></trkpt><trkpt lat="47.40199234120113" lon="15.223291686761886"><ele>494.0</ele><time>2026-05-01T18:05:06Z</time></trkpt><trkpt lat="47.402201012655595" lon="15.22297887023347"><ele>494.5</ele><time>2026-05-01T18:05:07Z</time></trkpt><trkpt lat="47.40240760292946" lon="15.222662316709432"><ele>495.0</ele><time>2026-05-01T18:05:08Z</time></trkpt><trkpt lat="47.40261138657743" lon="15.2223395566952"><ele>496.0</ele><time>2026-05-01T18:05:09Z</time></trkpt><trkpt lat="47.40281007174874" lon="15.222009092260231"><ele>497.0</ele><time>2026-05-01T18:05:10Z</time></trkpt><trkpt lat="47.40300279563287" lon="15.221670345547437"><ele>496.5</ele><time>2026-05-01T18:05:11Z</time></trkpt><trkpt lat="47.40319196273724" lon="15.221321992970163"><ele>496.0</ele><time>2026-05-01T18:05:12Z</time></trkpt><trkpt lat="47.403376373441084" lon="15.220967249605089"><ele>496.0</ele><time>2026-05-01T18:05:13Z</time></trkpt><trkpt lat="47.40355520745324" lon="15.220603027610743"><ele>496.0</ele><time>2026-05-01T18:05:14Z</time></trkpt><trkpt lat="47.40372853288077" lon="15.2202322427846"><ele>495.5</ele><time>2026-05-01T18:05:15Z</time></trkpt><trkpt lat="47.40389623959543" lon="15.21985415303506"><ele>495.0</ele><time>2026-05-01T18:05:16Z</time></trkpt><trkpt lat="47.40405905757406" lon="15.219469747922048"><ele>495.0</ele><time>2026-05-01T18:05:17Z</time></trkpt><trkpt lat="47.404215750613375" lon="15.219079853930735"><ele>495.0</ele><time>2026-05-01T18:05:18Z</time></trkpt><trkpt lat="47.40436750480088" lon="15.21868584971088"><ele>495.0</ele><time>2026-05-01T18:05:19Z</time></trkpt><trkpt lat="47.40451380883171" lon="15.218290575936765"><ele>495.0</ele><time>2026-05-01T18:05:20Z</time></trkpt><trkpt lat="47.404655714153606" lon="15.217895931977036"><ele>496.0</ele><time>2026-05-01T18:05:21Z</time></trkpt><trkpt lat="47.40479644748046" lon="15.2175040281309"><ele>497.0</ele><time>2026-05-01T18:05:22Z</time></trkpt><trkpt lat="47.40493498410367" lon="15.217114933957236"><ele>498.5</ele><time>2026-05-01T18:05:23Z</time></trkpt><trkpt lat="47.40507180110337" lon="15.216726959412796"><ele>500.0</ele><time>2026-05-01T18:05:24Z</time></trkpt><trkpt lat="47.4052079088907" lon="15.216339406851237"><ele>501.5</ele><time>2026-05-01T18:05:25Z</time></trkpt><trkpt lat="47.40534532619834" lon="15.21594924172375"><ele>503.0</ele><time>2026-05-01T18:05:26Z</time></trkpt><trkpt lat="47.40548330363796" lon="15.215560009596484"><ele>500.0</ele><time>2026-05-01T18:05:27Z</time></trkpt><trkpt lat="47.40561695814286" lon="15.215168839264065"><ele>497.0</ele><time>2026-05-01T18:05:28Z</time></trkpt><trkpt lat="47.40574721589333" lon="15.214776259490542"><ele>497.0</ele><time>2026-05-01T18:05:29Z</time></trkpt><trkpt lat="47.405875519040606" lon="15.21438209805833"><ele>497.0</ele><time>2026-05-01T18:05:30Z</time></trkpt><trkpt lat="47.40600567835954" lon="15.213988071334805"><ele>497.5</ele><time>2026-05-01T18:05:31Z</time></trkpt><trkpt lat="47.406136258641155" lon="15.213595773710948"><ele>498.0</ele><time>2026-05-01T18:05:32Z</time></trkpt><trkpt lat="47.406271011027194" lon="15.213206005381458"><ele>496.5</ele><time>2026-05-01T18:05:33Z</time></trkpt><trkpt lat="47.40640500968207" lon="15.212816991794906"><ele>495.0</ele><time>2026-05-01T18:05:34Z</time></trkpt><trkpt lat="47.40653726968591" lon="15.212429771208605"><ele>497.5</ele><time>2026-05-01T18:05:35Z</time></trkpt><trkpt lat="47.40666973427299" lon="15.21204455890586"><ele>500.0</ele><time>2026-05-01T18:05:36Z</time></trkpt><trkpt lat="47.406802106461505" lon="15.211660395042694"><ele>503.0</ele><time>2026-05-01T18:05:37Z</time></trkpt><trkpt lat="47.40693159606661" lon="15.211273034988732"><ele>506.0</ele><time>2026-05-01T18:05:38Z</time></trkpt><trkpt lat="47.407054464598566" lon="15.210880875615484"><ele>502.0</ele><time>2026-05-01T18:05:39Z</time></trkpt><trkpt lat="47.40716934833812" lon="15.210481830424888"><ele>498.0</ele><time>2026-05-01T18:05:40Z</time></trkpt><trkpt lat="47.40727825829214" lon="15.210075688381167"><ele>499.0</ele><time>2026-05-01T18:05:41Z</time></trkpt><trkpt lat="47.40738445720596" lon="15.209665439139812"><ele>500.0</ele><time>2026-05-01T18:05:42Z</time></trkpt><trkpt lat="47.4074891933916" lon="15.209251345327715"><ele>502.0</ele><time>2026-05-01T18:05:43Z</time></trkpt><trkpt lat="47.40759135479992" lon="15.208836592338901"><ele>504.0</ele><time>2026-05-01T18:05:44Z</time></trkpt><trkpt lat="47.40768908871526" lon="15.20841781056974"><ele>505.0</ele><time>2026-05-01T18:05:45Z</time></trkpt><trkpt lat="47.40777994986157" lon="15.207995751083008"><ele>506.0</ele><time>2026-05-01T18:05:46Z</time></trkpt><trkpt lat="47.40786247060112" lon="15.207568427507384"><ele>508.5</ele><time>2026-05-01T18:05:47Z</time></trkpt><trkpt lat="47.40793339443868" lon="15.207135270733088"><ele>511.0</ele><time>2026-05-01T18:05:48Z</time></trkpt><trkpt lat="47.40799113056995" lon="15.206698113004483"><ele>505.5</ele><time>2026-05-01T18:05:49Z</time></trkpt><trkpt lat="47.40803978787652" lon="15.206260487163073"><ele>500.0</ele><time>2026-05-01T18:05:50Z</time></trkpt><trkpt lat="47.40807536391815" lon="15.205821651508323"><ele>500.5</ele><time>2026-05-01T18:05:51Z</time></trkpt><trkpt lat="47.40810576566361" lon="15.20539561291631"><ele>501.0</ele><time>2026-05-01T18:05:52Z</time></trkpt><trkpt lat="47.40812386543898" lon="15.20498038871943"><ele>502.5</ele><time>2026-05-01T18:05:53Z</time></trkpt><trkpt lat="47.40812546262807" lon="15.204578527951172"><ele>504.0</ele><time>2026-05-01T18:05:54Z</time></trkpt><trkpt lat="47.40812756264023" lon="15.204173603839237"><ele>503.5</ele><time>2026-05-01T18:05:55Z</time></trkpt><trkpt lat="47.408118493811436" lon="15.203775173570817"><ele>503.0</ele><time>2026-05-01T18:05:56Z</time></trkpt><trkpt lat="47.40810582727664" lon="15.203380609713296"><ele>501.5</ele><time>2026-05-01T18:05:57Z</time></trkpt><trkpt lat="47.40808474578065" lon="15.203002340587531"><ele>500.0</ele><time>2026-05-01T18:05:58Z</time></trkpt><trkpt lat="47.40805679123155" lon="15.202643549242474"><ele>499.5</ele><time>2026-05-01T18:05:59Z</time></trkpt><trkpt lat="47.408024537018605" lon="15.202295172465975"><ele>499.0</ele><time>2026-05-01T18:06:00Z</time></trkpt><trkpt lat="47.407987042399505" lon="15.201945907442484"><ele>503.5</ele><time>2026-05-01T18:06:01Z</time></trkpt><trkpt lat="47.40794091920904" lon="15.201585410266272"><ele>508.0</ele><time>2026-05-01T18:06:02Z</time></trkpt><trkpt lat="47.40788523039938" lon="15.201217855248167"><ele>508.0</ele><time>2026-05-01T18:06:03Z</time></trkpt><trkpt lat="47.40782162500743" lon="15.200849408973024"><ele>508.0</ele><time>2026-05-01T18:06:04Z</time></trkpt><trkpt lat="47.40775062004263" lon="15.200487086022157"><ele>506.5</ele><time>2026-05-01T18:06:05Z</time></trkpt><trkpt lat="47.40767366633638" lon="15.200130385712754"><ele>505.0</ele><time>2026-05-01T18:06:06Z</time></trkpt><trkpt lat="47.40759064996819" lon="15.199774773377028"><ele>504.0</ele><time>2026-05-01T18:06:07Z</time></trkpt><trkpt lat="47.4075032857316" lon="15.19942113417602"><ele>503.0</ele><time>2026-05-01T18:06:08Z</time></trkpt><trkpt lat="47.407411585388815" lon="15.199067104826383"><ele>501.5</ele><time>2026-05-01T18:06:09Z</time></trkpt><trkpt lat="47.40731721105435" lon="15.198712548956564"><ele>500.0</ele><time>2026-05-01T18:06:10Z</time></trkpt><trkpt lat="47.407218195479274" lon="15.198359608276304"><ele>501.5</ele><time>2026-05-01T18:06:11Z</time></trkpt><trkpt lat="47.407113424166425" lon="15.198011396831895"><ele>503.0</ele><time>2026-05-01T18:06:12Z</time></trkpt><trkpt lat="47.40700414536832" lon="15.19766462490619"><ele>501.5</ele><time>2026-05-01T18:06:13Z</time></trkpt><trkpt lat="47.40689024439551" lon="15.197317194017424"><ele>500.0</ele><time>2026-05-01T18:06:14Z</time></trkpt><trkpt lat="47.40677009105936" lon="15.196969764107877"><ele>500.0</ele><time>2026-05-01T18:06:15Z</time></trkpt><trkpt lat="47.4066435902412" lon="15.196624125490526"><ele>500.0</ele><time>2026-05-01T18:06:16Z</time></trkpt><trkpt lat="47.40650884565361" lon="15.196279398599465"><ele>498.5</ele><time>2026-05-01T18:06:17Z</time></trkpt><trkpt lat="47.40635876520667" lon="15.195957683244542"><ele>497.0</ele><time>2026-05-01T18:06:18Z</time></trkpt><trkpt lat="47.40619329079982" lon="15.195645091881886"><ele>497.0</ele><time>2026-05-01T18:06:19Z</time></trkpt><trkpt lat="47.40601219072489" lon="15.195344969030772"><ele>497.0</ele><time>2026-05-01T18:06:20Z</time></trkpt><trkpt lat="47.405819260147204" lon="15.19505538827212"><ele>497.5</ele><time>2026-05-01T18:06:21Z</time></trkpt><trkpt lat="47.40561776631833" lon="15.194774489285486"><ele>498.0</ele><time>2026-05-01T18:06:22Z</time></trkpt><trkpt lat="47.405407147348306" lon="15.19450559338355"><ele>498.0</ele><time>2026-05-01T18:06:23Z</time></trkpt><trkpt lat="47.40518986545037" lon="15.194239525983571"><ele>498.0</ele><time>2026-05-01T18:06:24Z</time></trkpt><trkpt lat="47.404972070633306" lon="15.193967978462416"><ele>497.0</ele><time>2026-05-01T18:06:25Z</time></trkpt><trkpt lat="47.404755629505786" lon="15.193687122592097"><ele>496.0</ele><time>2026-05-01T18:06:26Z</time></trkpt><trkpt lat="47.404546682725446" lon="15.193395645653371"><ele>496.5</ele><time>2026-05-01T18:06:27Z</time></trkpt><trkpt lat="47.40434454168314" lon="15.193091155284092"><ele>497.0</ele><time>2026-05-01T18:06:28Z</time></trkpt><trkpt lat="47.40414873602195" lon="15.192775051012573"><ele>497.0</ele><time>2026-05-01T18:06:29Z</time></trkpt><trkpt lat="47.403962414468374" lon="15.192448906717459"><ele>497.0</ele><time>2026-05-01T18:06:30Z</time></trkpt><trkpt lat="47.40378365267103" lon="15.192111647138967"><ele>497.5</ele><time>2026-05-01T18:06:31Z</time></trkpt><trkpt lat="47.40361485688368" lon="15.19176275149326"><ele>498.0</ele><time>2026-05-01T18:06:32Z</time></trkpt><trkpt lat="47.4034543137759" lon="15.191404375031532"><ele>498.0</ele><time>2026-05-01T18:06:33Z</time></trkpt><trkpt lat="47.403302118169194" lon="15.191039453513328"><ele>498.0</ele><time>2026-05-01T18:06:34Z</time></trkpt><trkpt lat="47.40315231951754" lon="15.190669641413187"><ele>498.5</ele><time>2026-05-01T18:06:35Z</time></trkpt><trkpt lat="47.40300161067472" lon="15.190295951451386"><ele>499.0</ele><time>2026-05-01T18:06:36.001Z</time></trkpt><trkpt lat="47.40285260123445" lon="15.189917228221573"><ele>500.0</ele><time>2026-05-01T18:06:37.001Z</time></trkpt><trkpt lat="47.40270906416476" lon="15.189534399515"><ele>501.0</ele><time>2026-05-01T18:06:38.001Z</time></trkpt><trkpt lat="47.40257191484889" lon="15.189145203779395"><ele>501.5</ele><time>2026-05-01T18:06:39.001Z</time></trkpt><trkpt lat="47.402440443870844" lon="15.188750763019282"><ele>502.0</ele><time>2026-05-01T18:06:40.001Z</time></trkpt><trkpt lat="47.40231376047327" lon="15.188352752488731"><ele>502.0</ele><time>2026-05-01T18:06:41.001Z</time></trkpt><trkpt lat="47.40219141212437" lon="15.187951599802375"><ele>502.0</ele><time>2026-05-01T18:06:42.001Z</time></trkpt><trkpt lat="47.402072604612876" lon="15.187549149146914"><ele>505.0</ele><time>2026-05-01T18:06:43.001Z</time></trkpt><trkpt lat="47.40195790791512" lon="15.18714518103181"><ele>508.0</ele><time>2026-05-01T18:06:44.001Z</time></trkpt><trkpt lat="47.4018483350724" lon="15.186739943448645"><ele>507.0</ele><time>2026-05-01T18:06:45.001Z</time></trkpt><trkpt lat="47.401745736256274" lon="15.186333213033045"><ele>506.0</ele><time>2026-05-01T18:06:46.001Z</time></trkpt><trkpt lat="47.40164841957928" lon="15.185922322781165"><ele>505.5</ele><time>2026-05-01T18:06:47.001Z</time></trkpt><trkpt lat="47.40155578913249" lon="15.185511272395047"><ele>505.0</ele><time>2026-05-01T18:06:48.001Z</time></trkpt><trkpt lat="47.4014639320288" lon="15.185099858503646"><ele>506.0</ele><time>2026-05-01T18:06:49.001Z</time></trkpt><trkpt lat="47.4013727187728" lon="15.184688464950996"><ele>507.0</ele><time>2026-05-01T18:06:50.001Z</time></trkpt><trkpt lat="47.40128764652106" lon="15.184275002766617"><ele>509.0</ele><time>2026-05-01T18:06:51.001Z</time></trkpt><trkpt lat="47.401209947895246" lon="15.183858393229142"><ele>511.0</ele><time>2026-05-01T18:06:52.001Z</time></trkpt><trkpt lat="47.401138032298796" lon="15.183441034852782"><ele>511.0</ele><time>2026-05-01T18:06:53.001Z</time></trkpt><trkpt lat="47.40106779935142" lon="15.183024107937895"><ele>511.0</ele><time>2026-05-01T18:06:54.001Z</time></trkpt><trkpt lat="47.40099517415367" lon="15.182609168243076"><ele>512.5</ele><time>2026-05-01T18:06:55.001Z</time></trkpt><trkpt lat="47.40092473812324" lon="15.18219902543002"><ele>514.0</ele><time>2026-05-01T18:06:56.001Z</time></trkpt><trkpt lat="47.40086042396448" lon="15.181812061120231"><ele>512.5</ele><time>2026-05-01T18:06:57.001Z</time></trkpt><trkpt lat="47.40080219331868" lon="15.18144990443288"><ele>511.0</ele><time>2026-05-01T18:06:58.001Z</time></trkpt><trkpt lat="47.40074878359457" lon="15.181107017155611"><ele>511.0</ele><time>2026-05-01T18:06:59.001Z</time></trkpt><trkpt lat="47.400697648621204" lon="15.180774836137573"><ele>511.0</ele><time>2026-05-01T18:07:00.001Z</time></trkpt><trkpt lat="47.400646047556556" lon="15.180443188278124"><ele>511.0</ele><time>2026-05-01T18:07:01.001Z</time></trkpt><trkpt lat="47.40059107792959" lon="15.18011517818188"><ele>511.0</ele><time>2026-05-01T18:07:02.001Z</time></trkpt><trkpt lat="47.40053512364502" lon="15.179790328604353"><ele>513.0</ele><time>2026-05-01T18:07:03.001Z</time></trkpt><trkpt lat="47.40048110254918" lon="15.179468198510051"><ele>515.0</ele><time>2026-05-01T18:07:04.001Z</time></trkpt><trkpt lat="47.4004285964151" lon="15.179148283994227"><ele>517.0</ele><time>2026-05-01T18:07:05.001Z</time></trkpt><trkpt lat="47.40037644576549" lon="15.178830271273934"><ele>517.0</ele><time>2026-05-01T18:07:06.001Z</time></trkpt><trkpt lat="47.400324177373136" lon="15.178513168797293"><ele>517.0</ele><time>2026-05-01T18:07:07.001Z</time></trkpt><trkpt lat="47.40027317807289" lon="15.17819898871289"><ele>517.0</ele><time>2026-05-01T18:07:08.001Z</time></trkpt><trkpt lat="47.40022326432633" lon="15.17788592848975"><ele>517.3333333333334</ele><time>2026-05-01T18:07:09Z</time></trkpt><trkpt lat="47.40017107909494" lon="15.177575716515802"><ele>517.6666666666666</ele><time>2026-05-01T18:07:10Z</time></trkpt><trkpt lat="47.40011571481969" lon="15.1772677972342"><ele>518.0</ele><time>2026-05-01T18:07:11Z</time></trkpt><trkpt lat="47.40005673084476" lon="15.176961918219394"><ele>518.0</ele><time>2026-05-01T18:07:12Z</time></trkpt><trkpt lat="47.39999545188724" lon="15.176658415934106"><ele>518.0</ele><time>2026-05-01T18:07:13Z</time></trkpt><trkpt lat="47.39993479064912" lon="15.176356609265602"><ele>518.0</ele><time>2026-05-01T18:07:14Z</time></trkpt><trkpt lat="47.399872591204335" lon="15.176052612034814"><ele>518.0</ele><time>2026-05-01T18:07:15Z</time></trkpt><trkpt lat="47.39980794052071" lon="15.17574689602332"><ele>518.0</ele><time>2026-05-01T18:07:16Z</time></trkpt><trkpt lat="47.399739732532545" lon="15.175443801219833"><ele>518.0</ele><time>2026-05-01T18:07:17Z</time></trkpt><trkpt lat="47.39966936933866" lon="15.175152435094658"><ele>518.0</ele><time>2026-05-01T18:07:18Z</time></trkpt><trkpt lat="47.39959736942691" lon="15.174874510529452"><ele>518.0</ele><time>2026-05-01T18:07:19Z</time></trkpt><trkpt lat="47.39952223429313" lon="15.174605088014683"><ele>518.0</ele><time>2026-05-01T18:07:20Z</time></trkpt><trkpt lat="47.39944186918237" lon="15.174334097016908"><ele>518.0</ele><time>2026-05-01T18:07:21Z</time></trkpt><trkpt lat="47.39936082196386" lon="15.174069204145265"><ele>518.0</ele><time>2026-05-01T18:07:22Z</time></trkpt><trkpt lat="47.39927706610047" lon="15.173813594264386"><ele>518.0</ele><time>2026-05-01T18:07:23Z</time></trkpt><trkpt lat="47.39919225533096" lon="15.17357167639775"><ele>518.3333333333333</ele><time>2026-05-01T18:07:24Z</time></trkpt><trkpt lat="47.39910315190789" lon="15.173331004980097"><ele>518.6666666666666</ele><time>2026-05-01T18:07:25Z</time></trkpt><trkpt lat="47.39900911005377" lon="15.173090914700373"><ele>519.0</ele><time>2026-05-01T18:07:26Z</time></trkpt><trkpt lat="47.39891077617621" lon="15.172851690143709"><ele>518.3333333333334</ele><time>2026-05-01T18:07:27Z</time></trkpt><trkpt lat="47.39881080009695" lon="15.172613136862292"><ele>517.6666666666667</ele><time>2026-05-01T18:07:28Z</time></trkpt><trkpt lat="47.398709731507935" lon="15.172379351191005"><ele>517.0</ele><time>2026-05-01T18:07:29Z</time></trkpt><trkpt lat="47.398604954142264" lon="15.172146680324047"><ele>517.0</ele><time>2026-05-01T18:07:30Z</time></trkpt><trkpt lat="47.398495842966234" lon="15.17191785828876"><ele>517.0</ele><time>2026-05-01T18:07:31Z</time></trkpt><trkpt lat="47.398382254774745" lon="15.171692671848506"><ele>517.0</ele><time>2026-05-01T18:07:32Z</time></trkpt><trkpt lat="47.39826390036524" lon="15.171471015241066"><ele>517.0</ele><time>2026-05-01T18:07:33Z</time></trkpt><trkpt lat="47.398142612611196" lon="15.171252443095689"><ele>517.0</ele><time>2026-05-01T18:07:34Z</time></trkpt><trkpt lat="47.39801695598871" lon="15.17104225026036"><ele>517.0</ele><time>2026-05-01T18:07:35Z</time></trkpt><trkpt lat="47.39788640317082" lon="15.170822766117112"><ele>517.0</ele><time>2026-05-01T18:07:36Z</time></trkpt><trkpt lat="47.39775936535408" lon="15.170602786413024"><ele>517.0</ele><time>2026-05-01T18:07:37Z</time></trkpt><trkpt lat="47.39762970263536" lon="15.170386632749848"><ele>517.0</ele><time>2026-05-01T18:07:38Z</time></trkpt><trkpt lat="47.39750295238682" lon="15.170169730507743"><ele>517.0</ele><time>2026-05-01T18:07:39Z</time></trkpt><trkpt lat="47.397376092627646" lon="15.169952498814233"><ele>517.0</ele><time>2026-05-01T18:07:40Z</time></trkpt><trkpt lat="47.39724584852761" lon="15.16973601509162"><ele>517.0</ele><time>2026-05-01T18:07:41Z</time></trkpt><trkpt lat="47.397118686805236" lon="15.169520429540754"><ele>517.6666666666667</ele><time>2026-05-01T18:07:42Z</time></trkpt><trkpt lat="47.39698908395002" lon="15.169304642566031"><ele>518.3333333333334</ele><time>2026-05-01T18:07:43Z</time></trkpt><trkpt lat="47.39686313360245" lon="15.169092502739298"><ele>519.0</ele><time>2026-05-01T18:07:44Z</time></trkpt><trkpt lat="47.39674324434067" lon="15.168888525244286"><ele>519.0</ele><time>2026-05-01T18:07:45Z</time></trkpt><trkpt lat="47.396619284112326" lon="15.168678649822402"><ele>519.0</ele><time>2026-05-01T18:07:46Z</time></trkpt><trkpt lat="47.39649133552066" lon="15.168463478442357"><ele>519.0</ele><time>2026-05-01T18:07:47Z</time></trkpt><trkpt lat="47.39636250182518" lon="15.168243384967049"><ele>519.6666666666666</ele><time>2026-05-01T18:07:48Z</time></trkpt><trkpt lat="47.396233373297555" lon="15.168024875839727"><ele>520.3333333333333</ele><time>2026-05-01T18:07:49Z</time></trkpt><trkpt lat="47.39610600160215" lon="15.167805689243547"><ele>521.0</ele><time>2026-05-01T18:07:50Z</time></trkpt><trkpt lat="47.39597954015629" lon="15.167584807548653"><ele>521.0</ele><time>2026-05-01T18:07:51Z</time></trkpt><trkpt lat="47.39585557870152" lon="15.167363333169929"><ele>521.0</ele><time>2026-05-01T18:07:52Z</time></trkpt><trkpt lat="47.39573598702645" lon="15.167145321652772"><ele>521.0</ele><time>2026-05-01T18:07:53Z</time></trkpt><trkpt lat="47.39561789545958" lon="15.166926379950992"><ele>523.0</ele><time>2026-05-01T18:07:54Z</time></trkpt><trkpt lat="47.3955004597895" lon="15.166707179117601"><ele>525.0</ele><time>2026-05-01T18:07:55Z</time></trkpt><trkpt lat="47.39538411563344" lon="15.166485723484305"><ele>527.0</ele><time>2026-05-01T18:07:56Z</time></trkpt><trkpt lat="47.395268783183894" lon="15.166263070439822"><ele>527.0</ele><time>2026-05-01T18:07:57Z</time></trkpt><trkpt lat="47.39515511425171" lon="15.166038511035632"><ele>527.0</ele><time>2026-05-01T18:07:58Z</time></trkpt><trkpt lat="47.395043635399105" lon="15.16581134633161"><ele>527.0</ele><time>2026-05-01T18:07:59Z</time></trkpt><trkpt lat="47.394932634333436" lon="15.165581687637095"><ele>528.0</ele><time>2026-05-01T18:08:00Z</time></trkpt><trkpt lat="47.39482201319455" lon="15.165349202919222"><ele>529.0</ele><time>2026-05-01T18:08:01Z</time></trkpt><trkpt lat="47.394710979808124" lon="15.165115230335106"><ele>530.0</ele><time>2026-05-01T18:08:02Z</time></trkpt><trkpt lat="47.394599978929676" lon="15.164879770678796"><ele>534.0</ele><time>2026-05-01T18:08:03Z</time></trkpt><trkpt lat="47.39448835804456" lon="15.164643849066774"><ele>538.0</ele><time>2026-05-01T18:08:04Z</time></trkpt><trkpt lat="47.394376451144346" lon="15.164408922145252"><ele>542.0</ele><time>2026-05-01T18:08:05Z</time></trkpt><trkpt lat="47.394263560913416" lon="15.164176192660525"><ele>540.0</ele><time>2026-05-01T18:08:06Z</time></trkpt><trkpt lat="47.39415013844207" lon="15.163944542671903"><ele>538.0</ele><time>2026-05-01T18:08:07Z</time></trkpt><trkpt lat="47.39403801717922" lon="15.16371308393387"><ele>536.0</ele><time>2026-05-01T18:08:08Z</time></trkpt><trkpt lat="47.39392658745209" lon="15.163483248292446"><ele>537.3333333333333</ele><time>2026-05-01T18:08:09Z</time></trkpt><trkpt lat="47.39381489468445" lon="15.163254023037393"><ele>538.6666666666666</ele><time>2026-05-01T18:08:10Z</time></trkpt><trkpt lat="47.393732161059916" lon="15.16299709192549"><ele>540.0</ele><time>2026-05-01T18:08:11Z</time></trkpt><trkpt lat="47.393623855468846" lon="15.162764622081015"><ele>540.0</ele><time>2026-05-01T18:08:12Z</time></trkpt><trkpt lat="47.39351606762923" lon="15.162532409580512"><ele>540.0</ele><time>2026-05-01T18:08:13Z</time></trkpt><trkpt lat="47.39340719293369" lon="15.162302292684483"><ele>540.0</ele><time>2026-05-01T18:08:14Z</time></trkpt><trkpt lat="47.393299229233456" lon="15.16207059800736"><ele>539.0</ele><time>2026-05-01T18:08:15Z</time></trkpt><trkpt lat="47.3931905509558" lon="15.161840896560694"><ele>538.0</ele><time>2026-05-01T18:08:16Z</time></trkpt><trkpt lat="47.39308282290014" lon="15.161610820217836"><ele>537.0</ele><time>2026-05-01T18:08:17Z</time></trkpt><trkpt lat="47.3929776707242" lon="15.161379117529949"><ele>546.0</ele><time>2026-05-01T18:08:18Z</time></trkpt><trkpt lat="47.392871400775896" lon="15.161147630055712"><ele>555.0</ele><time>2026-05-01T18:08:19Z</time></trkpt><trkpt lat="47.39276430866245" lon="15.160917635862864"><ele>564.0</ele><time>2026-05-01T18:08:20Z</time></trkpt><trkpt lat="47.392658460129155" lon="15.160686233607125"><ele>566.6666666666666</ele><time>2026-05-01T18:08:21Z</time></trkpt><trkpt lat="47.392548738343365" lon="15.160456773123274"><ele>569.3333333333333</ele><time>2026-05-01T18:08:22Z</time></trkpt><trkpt lat="47.39243825387285" lon="15.160224423962376"><ele>572.0</ele><time>2026-05-01T18:08:23Z</time></trkpt><trkpt lat="47.39232823498972" lon="15.159993282393991"><ele>569.3333333333333</ele><time>2026-05-01T18:08:24Z</time></trkpt><trkpt lat="47.392217587405774" lon="15.15976501162515"><ele>566.6666666666666</ele><time>2026-05-01T18:08:25Z</time></trkpt><trkpt lat="47.392107328078254" lon="15.159538057405829"><ele>564.0</ele><time>2026-05-01T18:08:26Z</time></trkpt><trkpt lat="47.39199669864217" lon="15.15930625962777"><ele>577.0</ele><time>2026-05-01T18:08:27Z</time></trkpt><trkpt lat="47.39188617511225" lon="15.159073749203673"><ele>590.0</ele><time>2026-05-01T18:08:28Z</time></trkpt><trkpt lat="47.39177458310181" lon="15.158840392129266"><ele>603.0</ele><time>2026-05-01T18:08:29Z</time></trkpt><trkpt lat="47.39166800330034" lon="15.158610242356207"><ele>603.0</ele><time>2026-05-01T18:08:30Z</time></trkpt><trkpt lat="47.39155986754505" lon="15.15837824953293"><ele>603.0</ele><time>2026-05-01T18:08:31Z</time></trkpt><trkpt lat="47.39144974296162" lon="15.15814675156023"><ele>603.0</ele><time>2026-05-01T18:08:32Z</time></trkpt><trkpt lat="47.39134130700351" lon="15.157914792552775"><ele>603.0</ele><time>2026-05-01T18:08:33Z</time></trkpt><trkpt lat="47.3912358313565" lon="15.157684221617101"><ele>603.0</ele><time>2026-05-01T18:08:34Z</time></trkpt><trkpt lat="47.39112765227954" lon="15.157453111357329"><ele>603.0</ele><time>2026-05-01T18:08:35Z</time></trkpt><trkpt lat="47.39102165791151" lon="15.157231871485934"><ele>603.0</ele><time>2026-05-01T18:08:36Z</time></trkpt><trkpt lat="47.39091206520004" lon="15.15700042672894"><ele>603.0</ele><time>2026-05-01T18:08:37.021Z</time></trkpt><trkpt lat="47.390472865500804" lon="15.156220115641766"><ele>603.0</ele><time>2026-05-01T18:08:40.64Z</time></trkpt><trkpt lat="47.39036381949037" lon="15.155991786061037"><ele>603.0</ele><time>2026-05-01T18:08:41.64Z</time></trkpt><trkpt lat="47.39025336948625" lon="15.155764935532725"><ele>603.0</ele><time>2026-05-01T18:08:42.64Z</time></trkpt><trkpt lat="47.39014314937023" lon="15.155538401257658"><ele>591.3333333333334</ele><time>2026-05-01T18:08:43.638Z</time></trkpt><trkpt lat="47.39003265694865" lon="15.155311030240487"><ele>579.6666666666667</ele><time>2026-05-01T18:08:44.64Z</time></trkpt><trkpt lat="47.38992234137072" lon="15.155084023131723"><ele>568.0</ele><time>2026-05-01T18:08:45.64Z</time></trkpt><trkpt lat="47.38981213785865" lon="15.15485724663178"><ele>569.0</ele><time>2026-05-01T18:08:46.639Z</time></trkpt><trkpt lat="47.389701699430205" lon="15.154630034041471"><ele>570.0</ele><time>2026-05-01T18:08:47.64Z</time></trkpt><trkpt lat="47.38959108126171" lon="15.15440337350169"><ele>571.0</ele><time>2026-05-01T18:08:48.64Z</time></trkpt><trkpt lat="47.389488377069384" lon="15.154168790695362"><ele>567.6666666666667</ele><time>2026-05-01T18:08:49.64Z</time></trkpt><trkpt lat="47.38938643748608" lon="15.153933766392315"><ele>564.3333333333334</ele><time>2026-05-01T18:08:50.639Z</time></trkpt><trkpt lat="47.38929475969026" lon="15.153689158447891"><ele>561.0</ele><time>2026-05-01T18:08:51.64Z</time></trkpt><trkpt lat="47.38920316506286" lon="15.153444772407303"><ele>557.3333333333334</ele><time>2026-05-01T18:08:52.64Z</time></trkpt><trkpt lat="47.389111571167014" lon="15.153200388318604"><ele>553.6666666666667</ele><time>2026-05-01T18:08:53.64Z</time></trkpt><trkpt lat="47.38902725175842" lon="15.152950665074577"><ele>550.0</ele><time>2026-05-01T18:08:54.64Z</time></trkpt><trkpt lat="47.38894985205287" lon="15.152695840033466"><ele>550.0</ele><time>2026-05-01T18:08:55.64Z</time></trkpt><trkpt lat="47.38887464487638" lon="15.152439689820799"><ele>550.0</ele><time>2026-05-01T18:08:56.64Z</time></trkpt><trkpt lat="47.38880436667792" lon="15.152180455299442"><ele>550.0</ele><time>2026-05-01T18:08:57.64Z</time></trkpt><trkpt lat="47.38873408798516" lon="15.151921218954776"><ele>551.6666666666667</ele><time>2026-05-01T18:08:58.64Z</time></trkpt><trkpt lat="47.388671095389796" lon="15.151657966821494"><ele>553.3333333333334</ele><time>2026-05-01T18:08:59.64Z</time></trkpt><trkpt lat="47.38860876983355" lon="15.151394350807875"><ele>555.0</ele><time>2026-05-01T18:09:00.64Z</time></trkpt><trkpt lat="47.388443177427" lon="15.150545476526991"><ele>555.0</ele><time>2026-05-01T18:09:02.001Z</time></trkpt><trkpt lat="47.38838930326472" lon="15.150261707046454"><ele>555.0</ele><time>2026-05-01T18:09:03.001Z</time></trkpt><trkpt lat="47.38830399154817" lon="15.150010621234943"><ele>555.0</ele><time>2026-05-01T18:09:04.001Z</time></trkpt><trkpt lat="47.38825510134989" lon="15.14970694219021"><ele>553.0</ele><time>2026-05-01T18:09:05.001Z</time></trkpt><trkpt lat="47.388233354722004" lon="15.149430227396008"><ele>551.0</ele><time>2026-05-01T18:09:06.001Z</time></trkpt><trkpt lat="47.38821373253498" lon="15.149166980263326"><ele>549.0</ele><time>2026-05-01T18:09:07.001Z</time></trkpt><trkpt lat="47.388196569569594" lon="15.148875661731227"><ele>548.0</ele><time>2026-05-01T18:09:08.001Z</time></trkpt><trkpt lat="47.38815261785416" lon="15.148596256567762"><ele>547.0</ele><time>2026-05-01T18:09:09.001Z</time></trkpt><trkpt lat="47.38811223810829" lon="15.148313001830171"><ele>546.0</ele><time>2026-05-01T18:09:10.001Z</time></trkpt><trkpt lat="47.38806854603859" lon="15.14803184274023"><ele>544.6666666666666</ele><time>2026-05-01T18:09:11.001Z</time></trkpt><trkpt lat="47.388024087668356" lon="15.14775437510945"><ele>543.3333333333333</ele><time>2026-05-01T18:09:12.001Z</time></trkpt><trkpt lat="47.38797678277653" lon="15.147477969924186"><ele>542.0</ele><time>2026-05-01T18:09:13.001Z</time></trkpt><trkpt lat="47.38792941113392" lon="15.147202580917446"><ele>551.6666666666666</ele><time>2026-05-01T18:09:14.001Z</time></trkpt><trkpt lat="47.3878818795863" lon="15.146928968066527"><ele>561.3333333333334</ele><time>2026-05-01T18:09:15Z</time></trkpt><trkpt lat="47.387834921613944" lon="15.146657423451133"><ele>571.0</ele><time>2026-05-01T18:09:16Z</time></trkpt><trkpt lat="47.387787761853765" lon="15.146387470496837"><ele>571.0</ele><time>2026-05-01T18:09:17Z</time></trkpt><trkpt lat="47.38773936879538" lon="15.146120113763343"><ele>571.0</ele><time>2026-05-01T18:09:18Z</time></trkpt><trkpt lat="47.38768920542121" lon="15.14585531656304"><ele>571.0</ele><time>2026-05-01T18:09:19Z</time></trkpt><trkpt lat="47.38763737953433" lon="15.145591674385784"><ele>568.3333333333334</ele><time>2026-05-01T18:09:20Z</time></trkpt><trkpt lat="47.38758351427424" lon="15.145326470994416"><ele>565.6666666666666</ele><time>2026-05-01T18:09:21Z</time></trkpt><trkpt lat="47.387527633834466" lon="15.145058983560652"><ele>563.0</ele><time>2026-05-01T18:09:22Z</time></trkpt><trkpt lat="47.38747020867503" lon="15.144789943276937"><ele>561.0</ele><time>2026-05-01T18:09:23Z</time></trkpt><trkpt lat="47.38741376744985" lon="15.144519742446999"><ele>559.0</ele><time>2026-05-01T18:09:24Z</time></trkpt><trkpt lat="47.38735735443089" lon="15.144247551425632"><ele>557.0</ele><time>2026-05-01T18:09:25Z</time></trkpt><trkpt lat="47.38730170127719" lon="15.14397664820072"><ele>556.0</ele><time>2026-05-01T18:09:26Z</time></trkpt><trkpt lat="47.38724496207219" lon="15.143705829420025"><ele>555.0</ele><time>2026-05-01T18:09:27Z</time></trkpt><trkpt lat="47.38719065409934" lon="15.143434708405549"><ele>554.0</ele><time>2026-05-01T18:09:28Z</time></trkpt><trkpt lat="47.38713863325249" lon="15.143163336910092"><ele>553.3333333333333</ele><time>2026-05-01T18:09:29Z</time></trkpt><trkpt lat="47.38708786273249" lon="15.142891082051761"><ele>552.6666666666666</ele><time>2026-05-01T18:09:30Z</time></trkpt><trkpt lat="47.38703902644246" lon="15.142616067371346"><ele>552.0</ele><time>2026-05-01T18:09:31Z</time></trkpt><trkpt lat="47.38699327229009" lon="15.142335931524753"><ele>552.0</ele><time>2026-05-01T18:09:32Z</time></trkpt><trkpt lat="47.386949198693614" lon="15.142049761296676"><ele>552.0</ele><time>2026-05-01T18:09:33Z</time></trkpt><trkpt lat="47.38690853133905" lon="15.141760145963968"><ele>552.0</ele><time>2026-05-01T18:09:34Z</time></trkpt><trkpt lat="47.386872954006044" lon="15.141468100658258"><ele>554.6666666666666</ele><time>2026-05-01T18:09:35Z</time></trkpt><trkpt lat="47.386840718078076" lon="15.141173605636768"><ele>557.3333333333333</ele><time>2026-05-01T18:09:36Z</time></trkpt><trkpt lat="47.386811030940294" lon="15.14087958590998"><ele>560.0</ele><time>2026-05-01T18:09:37Z</time></trkpt><trkpt lat="47.38678236170778" lon="15.140585004657256"><ele>560.3333333333333</ele><time>2026-05-01T18:09:38Z</time></trkpt><trkpt lat="47.38675291643753" lon="15.140288826277809"><ele>560.6666666666666</ele><time>2026-05-01T18:09:39Z</time></trkpt><trkpt lat="47.38672313637859" lon="15.139991007344788"><ele>561.0</ele><time>2026-05-01T18:09:40Z</time></trkpt><trkpt lat="47.38669048625504" lon="15.139694294551772"><ele>561.0</ele><time>2026-05-01T18:09:41Z</time></trkpt><trkpt lat="47.386654826030664" lon="15.13939961650799"><ele>561.0</ele><time>2026-05-01T18:09:42Z</time></trkpt><trkpt lat="47.38661287786356" lon="15.139106630586225"><ele>561.0</ele><time>2026-05-01T18:09:43Z</time></trkpt><trkpt lat="47.38656553077732" lon="15.138817538326288"><ele>558.6666666666666</ele><time>2026-05-01T18:09:44Z</time></trkpt><trkpt lat="47.386512643845144" lon="15.138532411607912"><ele>556.3333333333333</ele><time>2026-05-01T18:09:45Z</time></trkpt><trkpt lat="47.38645447493197" lon="15.138251032010608"><ele>554.0</ele><time>2026-05-01T18:09:46Z</time></trkpt><trkpt lat="47.38639113563743" lon="15.137973271387775"><ele>552.3333333333333</ele><time>2026-05-01T18:09:47Z</time></trkpt><trkpt lat="47.38632260581232" lon="15.13769994172392"><ele>550.6666666666666</ele><time>2026-05-01T18:09:48Z</time></trkpt><trkpt lat="47.38624843102291" lon="15.137430791636278"><ele>549.0</ele><time>2026-05-01T18:09:49Z</time></trkpt><trkpt lat="47.38616992466565" lon="15.137164308164332"><ele>549.0</ele><time>2026-05-01T18:09:50Z</time></trkpt><trkpt lat="47.38608552435863" lon="15.136900390904563"><ele>549.0</ele><time>2026-05-01T18:09:51Z</time></trkpt><trkpt lat="47.385993047735425" lon="15.136644267068577"><ele>549.0</ele><time>2026-05-01T18:09:52Z</time></trkpt><trkpt lat="47.385897546472656" lon="15.136392804016452"><ele>548.0</ele><time>2026-05-01T18:09:53Z</time></trkpt><trkpt lat="47.38579874193105" lon="15.136143481854482"><ele>547.0</ele><time>2026-05-01T18:09:54Z</time></trkpt><trkpt lat="47.38569678080142" lon="15.13590215648908"><ele>546.0</ele><time>2026-05-01T18:09:55Z</time></trkpt><trkpt lat="47.385588423286364" lon="15.135666417214956"><ele>552.3333333333334</ele><time>2026-05-01T18:09:56Z</time></trkpt><trkpt lat="47.38547661009907" lon="15.135434961970706"><ele>558.6666666666667</ele><time>2026-05-01T18:09:57Z</time></trkpt><trkpt lat="47.385360154832526" lon="15.135205663261846"><ele>565.0</ele><time>2026-05-01T18:09:58Z</time></trkpt><trkpt lat="47.385239193450886" lon="15.134980653069544"><ele>559.0</ele><time>2026-05-01T18:09:59Z</time></trkpt><trkpt lat="47.38511374089631" lon="15.134759550251406"><ele>553.0</ele><time>2026-05-01T18:10:00Z</time></trkpt><trkpt lat="47.384984197896614" lon="15.134541923258482"><ele>547.0</ele><time>2026-05-01T18:10:01Z</time></trkpt><trkpt lat="47.38485072463351" lon="15.134327241073537"><ele>547.0</ele><time>2026-05-01T18:10:02Z</time></trkpt><trkpt lat="47.384714785110006" lon="15.134112965812374"><ele>547.0</ele><time>2026-05-01T18:10:03Z</time></trkpt><trkpt lat="47.38458341924372" lon="15.133899593222369"><ele>547.0</ele><time>2026-05-01T18:10:04Z</time></trkpt><trkpt lat="47.38445880517215" lon="15.133688098848749"><ele>549.0</ele><time>2026-05-01T18:10:05Z</time></trkpt><trkpt lat="47.38433342005204" lon="15.133468192344418"><ele>551.0</ele><time>2026-05-01T18:10:06Z</time></trkpt><trkpt lat="47.38421025702409" lon="15.133240157409162"><ele>553.0</ele><time>2026-05-01T18:10:07Z</time></trkpt><trkpt lat="47.38408882284669" lon="15.133006225404088"><ele>554.0</ele><time>2026-05-01T18:10:08Z</time></trkpt><trkpt lat="47.383980316075935" lon="15.132755583340668"><ele>555.0</ele><time>2026-05-01T18:10:09Z</time></trkpt><trkpt lat="47.38388508940608" lon="15.132499514704042"><ele>556.0</ele><time>2026-05-01T18:10:10Z</time></trkpt><trkpt lat="47.383796980494466" lon="15.132237044160416"><ele>556.0</ele><time>2026-05-01T18:10:11Z</time></trkpt><trkpt lat="47.38371656897521" lon="15.131971938823359"><ele>556.0</ele><time>2026-05-01T18:10:12Z</time></trkpt><trkpt lat="47.383643860633704" lon="15.131704681710344"><ele>556.0</ele><time>2026-05-01T18:10:13Z</time></trkpt><trkpt lat="47.383582596990635" lon="15.131433838298722"><ele>552.6666666666667</ele><time>2026-05-01T18:10:14Z</time></trkpt><trkpt lat="47.38353161031625" lon="15.13115777761231"><ele>549.3333333333334</ele><time>2026-05-01T18:10:15Z</time></trkpt><trkpt lat="47.3834905381329" lon="15.130878298712354"><ele>546.0</ele><time>2026-05-01T18:10:16Z</time></trkpt><trkpt lat="47.38345742208404" lon="15.130595268931145"><ele>544.0</ele><time>2026-05-01T18:10:17Z</time></trkpt><trkpt lat="47.383434362264616" lon="15.130305889277167"><ele>542.0</ele><time>2026-05-01T18:10:18Z</time></trkpt><trkpt lat="47.38342151344444" lon="15.130013023046732"><ele>540.0</ele><time>2026-05-01T18:10:19Z</time></trkpt><trkpt lat="47.38341812230806" lon="15.129717323382268"><ele>538.6666666666666</ele><time>2026-05-01T18:10:20Z</time></trkpt><trkpt lat="47.38342250713002" lon="15.12942123232778"><ele>537.3333333333333</ele><time>2026-05-01T18:10:21Z</time></trkpt><trkpt lat="47.38342619789107" lon="15.129127538577611"><ele>536.0</ele><time>2026-05-01T18:10:22Z</time></trkpt><trkpt lat="47.38342884683702" lon="15.128835481985664"><ele>535.0</ele><time>2026-05-01T18:10:23Z</time></trkpt><trkpt lat="47.38343138126211" lon="15.12854277531029"><ele>534.0</ele><time>2026-05-01T18:10:24Z</time></trkpt><trkpt lat="47.383433664882325" lon="15.128251154009476"><ele>533.0</ele><time>2026-05-01T18:10:25Z</time></trkpt><trkpt lat="47.38343294199848" lon="15.12795873155867"><ele>533.0</ele><time>2026-05-01T18:10:26Z</time></trkpt><trkpt lat="47.38342536953379" lon="15.127666146344867"><ele>533.0</ele><time>2026-05-01T18:10:27Z</time></trkpt><trkpt lat="47.38340642760419" lon="15.127371941699622"><ele>533.0</ele><time>2026-05-01T18:10:28Z</time></trkpt><trkpt lat="47.38337780076121" lon="15.12707982348437"><ele>533.0</ele><time>2026-05-01T18:10:29Z</time></trkpt><trkpt lat="47.383343484522655" lon="15.126789723077422"><ele>533.0</ele><time>2026-05-01T18:10:30Z</time></trkpt><trkpt lat="47.38330315683608" lon="15.126502026777883"><ele>533.0</ele><time>2026-05-01T18:10:31Z</time></trkpt><trkpt lat="47.38325198720278" lon="15.126217832505773"><ele>533.0</ele><time>2026-05-01T18:10:32Z</time></trkpt><trkpt lat="47.383190760229404" lon="15.1259377085452"><ele>533.0</ele><time>2026-05-01T18:10:33Z</time></trkpt><trkpt lat="47.383120156252815" lon="15.12566128033625"><ele>533.0</ele><time>2026-05-01T18:10:34Z</time></trkpt><trkpt lat="47.383041406033975" lon="15.125389915787013"><ele>536.3333333333333</ele><time>2026-05-01T18:10:35Z</time></trkpt><trkpt lat="47.382955716458795" lon="15.125122511944008"><ele>539.6666666666666</ele><time>2026-05-01T18:10:36Z</time></trkpt><trkpt lat="47.38286446126571" lon="15.124861672945517"><ele>543.0</ele><time>2026-05-01T18:10:37Z</time></trkpt><trkpt lat="47.38276544461344" lon="15.124608810198682"><ele>543.0</ele><time>2026-05-01T18:10:38Z</time></trkpt><trkpt lat="47.38266499893421" lon="15.124361074516111"><ele>543.0</ele><time>2026-05-01T18:10:39Z</time></trkpt><trkpt lat="47.382567580705306" lon="15.124113707537468"><ele>543.0</ele><time>2026-05-01T18:10:40Z</time></trkpt><trkpt lat="47.382468841633894" lon="15.123870443696212"><ele>541.6666666666666</ele><time>2026-05-01T18:10:41Z</time></trkpt><trkpt lat="47.38237176255276" lon="15.123627865910937"><ele>540.3333333333333</ele><time>2026-05-01T18:10:42Z</time></trkpt><trkpt lat="47.382275466362756" lon="15.123385326339317"><ele>539.0</ele><time>2026-05-01T18:10:43Z</time></trkpt><trkpt lat="47.38218061449505" lon="15.123144267694284"><ele>542.6666666666666</ele><time>2026-05-01T18:10:44Z</time></trkpt><trkpt lat="47.382086888884174" lon="15.122901101912127"><ele>546.3333333333334</ele><time>2026-05-01T18:10:45Z</time></trkpt><trkpt lat="47.381996723013756" lon="15.122654424268742"><ele>550.0</ele><time>2026-05-01T18:10:46Z</time></trkpt><trkpt lat="47.38191153907604" lon="15.122405932494992"><ele>549.0</ele><time>2026-05-01T18:10:47Z</time></trkpt><trkpt lat="47.38182781193733" lon="15.122154906747436"><ele>548.0</ele><time>2026-05-01T18:10:48Z</time></trkpt><trkpt lat="47.38174712766582" lon="15.121901975842208"><ele>547.0</ele><time>2026-05-01T18:10:49Z</time></trkpt><trkpt lat="47.381671695985844" lon="15.121645244082304"><ele>545.3333333333334</ele><time>2026-05-01T18:10:50Z</time></trkpt><trkpt lat="47.38160007236472" lon="15.121387516207376"><ele>543.6666666666666</ele><time>2026-05-01T18:10:51Z</time></trkpt><trkpt lat="47.381535383517765" lon="15.121127544571896"><ele>542.0</ele><time>2026-05-01T18:10:52Z</time></trkpt><trkpt lat="47.38147595722416" lon="15.120864069467947"><ele>542.3333333333333</ele><time>2026-05-01T18:10:53Z</time></trkpt><trkpt lat="47.381421537728905" lon="15.120598684959303"><ele>542.6666666666666</ele><time>2026-05-01T18:10:54Z</time></trkpt><trkpt lat="47.38136916975802" lon="15.120332123222537"><ele>543.0</ele><time>2026-05-01T18:10:55Z</time></trkpt><trkpt lat="47.38131883926494" lon="15.12006415538323"><ele>551.6666666666666</ele><time>2026-05-01T18:10:56Z</time></trkpt><trkpt lat="47.38127179514439" lon="15.11980292280045"><ele>560.3333333333333</ele><time>2026-05-01T18:10:57Z</time></trkpt><trkpt lat="47.38122547103534" lon="15.119545762167498"><ele>569.0</ele><time>2026-05-01T18:10:58Z</time></trkpt><trkpt lat="47.38117772812067" lon="15.119278671973893"><ele>565.3333333333333</ele><time>2026-05-01T18:10:59Z</time></trkpt><trkpt lat="47.381126420014446" lon="15.119006812337169"><ele>561.6666666666666</ele><time>2026-05-01T18:11:00Z</time></trkpt><trkpt lat="47.38106886164405" lon="15.118733918182402"><ele>558.0</ele><time>2026-05-01T18:11:01Z</time></trkpt><trkpt lat="47.38100591712618" lon="15.118460943015322"><ele>556.6666666666666</ele><time>2026-05-01T18:11:02Z</time></trkpt><trkpt lat="47.38093451708443" lon="15.118193349361471"><ele>555.3333333333333</ele><time>2026-05-01T18:11:03Z</time></trkpt><trkpt lat="47.38085765339812" lon="15.117929767798847"><ele>554.0</ele><time>2026-05-01T18:11:04Z</time></trkpt><trkpt lat="47.38077478261699" lon="15.117672501723034"><ele>554.0</ele><time>2026-05-01T18:11:05.001Z</time></trkpt><trkpt lat="47.38068796931036" lon="15.11742258452039"><ele>554.0</ele><time>2026-05-01T18:11:06.001Z</time></trkpt><trkpt lat="47.380600000940916" lon="15.11717825874557"><ele>554.0</ele><time>2026-05-01T18:11:07.001Z</time></trkpt><trkpt lat="47.380512765180555" lon="15.116933418719897"><ele>556.6666666666666</ele><time>2026-05-01T18:11:08.001Z</time></trkpt><trkpt lat="47.380427871933776" lon="15.116684657639436"><ele>559.3333333333334</ele><time>2026-05-01T18:11:09.001Z</time></trkpt><trkpt lat="47.380348215006094" lon="15.116428459702897"><ele>562.0</ele><time>2026-05-01T18:11:10.001Z</time></trkpt><trkpt lat="47.38027334236693" lon="15.116165108920464"><ele>562.0</ele><time>2026-05-01T18:11:11.001Z</time></trkpt><trkpt lat="47.38020399059231" lon="15.115897455353272"><ele>562.0</ele><time>2026-05-01T18:11:12.001Z</time></trkpt><trkpt lat="47.38013548418185" lon="15.115629848162827"><ele>562.0</ele><time>2026-05-01T18:11:13.001Z</time></trkpt><trkpt lat="47.38006683498658" lon="15.115362306538486"><ele>560.0</ele><time>2026-05-01T18:11:14.001Z</time></trkpt><trkpt lat="47.37999782912639" lon="15.115095178333556"><ele>558.0</ele><time>2026-05-01T18:11:15.001Z</time></trkpt><trkpt lat="47.379926337500414" lon="15.114830244550244"><ele>556.0</ele><time>2026-05-01T18:11:16.001Z</time></trkpt><trkpt lat="47.37985119789302" lon="15.114565882049947"><ele>555.6666666666667</ele><time>2026-05-01T18:11:17.001Z</time></trkpt><trkpt lat="47.379769847545475" lon="15.114304120562755"><ele>555.3333333333334</ele><time>2026-05-01T18:11:18.001Z</time></trkpt><trkpt lat="47.37968226317555" lon="15.114046232975358"><ele>555.0</ele><time>2026-05-01T18:11:19.001Z</time></trkpt><trkpt lat="47.37958792374978" lon="15.1137941464028"><ele>556.3333333333334</ele><time>2026-05-01T18:11:20.001Z</time></trkpt><trkpt lat="47.37948728521888" lon="15.113549788129964"><ele>557.6666666666667</ele><time>2026-05-01T18:11:21Z</time></trkpt><trkpt lat="47.379377434633284" lon="15.113315414223527"><ele>559.0</ele><time>2026-05-01T18:11:22Z</time></trkpt><trkpt lat="47.37925951674551" lon="15.11308776804207"><ele>559.0</ele><time>2026-05-01T18:11:23Z</time></trkpt><trkpt lat="47.37913587444901" lon="15.11286539297385"><ele>559.0</ele><time>2026-05-01T18:11:24Z</time></trkpt><trkpt lat="47.37900736633389" lon="15.112648542607618"><ele>559.0</ele><time>2026-05-01T18:11:25Z</time></trkpt><trkpt lat="47.378871919620195" lon="15.112443303312903"><ele>562.3333333333334</ele><time>2026-05-01T18:11:26Z</time></trkpt><trkpt lat="47.37872988094647" lon="15.112249695596649"><ele>565.6666666666666</ele><time>2026-05-01T18:11:27Z</time></trkpt><trkpt lat="47.378584059909635" lon="15.112064445354594"><ele>569.0</ele><time>2026-05-01T18:11:28Z</time></trkpt><trkpt lat="47.37843412941845" lon="15.11188533712673"><ele>569.0</ele><time>2026-05-01T18:11:29Z</time></trkpt><trkpt lat="47.37828254226538" lon="15.111711339798562"><ele>569.0</ele><time>2026-05-01T18:11:30Z</time></trkpt><trkpt lat="47.37813158937829" lon="15.11153724796607"><ele>569.0</ele><time>2026-05-01T18:11:31Z</time></trkpt><trkpt lat="47.377982427378434" lon="15.111360855351275"><ele>571.3333333333333</ele><time>2026-05-01T18:11:32Z</time></trkpt><trkpt lat="47.37783403450444" lon="15.11117948910908"><ele>573.6666666666666</ele><time>2026-05-01T18:11:33Z</time></trkpt><trkpt lat="47.37768892035499" lon="15.110992851102555"><ele>576.0</ele><time>2026-05-01T18:11:34Z</time></trkpt><trkpt lat="47.37754730974125" lon="15.110798173180244"><ele>576.3333333333334</ele><time>2026-05-01T18:11:35Z</time></trkpt><trkpt lat="47.37741125948025" lon="15.110596409311455"><ele>576.6666666666667</ele><time>2026-05-01T18:11:36Z</time></trkpt><trkpt lat="47.37728086457133" lon="15.110386556988422"><ele>577.0</ele><time>2026-05-01T18:11:37Z</time></trkpt><trkpt lat="47.377156946988" lon="15.11016813161232"><ele>577.0</ele><time>2026-05-01T18:11:38Z</time></trkpt><trkpt lat="47.3770403094801" lon="15.109939506344313"><ele>577.0</ele><time>2026-05-01T18:11:39Z</time></trkpt><trkpt lat="47.376932114020924" lon="15.109700165683376"><ele>577.0</ele><time>2026-05-01T18:11:40Z</time></trkpt><trkpt lat="47.376831565828226" lon="15.109452012552003"><ele>576.3333333333334</ele><time>2026-05-01T18:11:41Z</time></trkpt><trkpt lat="47.37673857322713" lon="15.109196863309982"><ele>575.6666666666666</ele><time>2026-05-01T18:11:42Z</time></trkpt><trkpt lat="47.376653803071235" lon="15.108937426542001"><ele>575.0</ele><time>2026-05-01T18:11:43Z</time></trkpt><trkpt lat="47.376575267052054" lon="15.108674026289098"><ele>574.6666666666666</ele><time>2026-05-01T18:11:44Z</time></trkpt><trkpt lat="47.37650043267399" lon="15.108408723685663"><ele>574.3333333333334</ele><time>2026-05-01T18:11:45Z</time></trkpt><trkpt lat="47.376428819132606" lon="15.108142354314726"><ele>574.0</ele><time>2026-05-01T18:11:46Z</time></trkpt><trkpt lat="47.376360615107316" lon="15.107878682686637"><ele>578.6666666666667</ele><time>2026-05-01T18:11:47Z</time></trkpt><trkpt lat="47.37629092540426" lon="15.107619335166307"><ele>583.3333333333334</ele><time>2026-05-01T18:11:48Z</time></trkpt><trkpt lat="47.376218303752104" lon="15.107364992549321"><ele>588.0</ele><time>2026-05-01T18:11:49Z</time></trkpt><trkpt lat="47.37614140786169" lon="15.107115097008725"><ele>588.0</ele><time>2026-05-01T18:11:50Z</time></trkpt><trkpt lat="47.376059947397195" lon="15.106870317216964"><ele>588.0</ele><time>2026-05-01T18:11:51Z</time></trkpt><trkpt lat="47.37597253126475" lon="15.106633425704027"><ele>588.0</ele><time>2026-05-01T18:11:52Z</time></trkpt><trkpt lat="47.37587793809872" lon="15.106402002307354"><ele>587.0</ele><time>2026-05-01T18:11:53Z</time></trkpt><trkpt lat="47.37577929408515" lon="15.10617627045284"><ele>586.0</ele><time>2026-05-01T18:11:54Z</time></trkpt><trkpt lat="47.37567286550945" lon="15.105959970025976"><ele>585.0</ele><time>2026-05-01T18:11:55Z</time></trkpt><trkpt lat="47.37556034310795" lon="15.105752967732805"><ele>589.0</ele><time>2026-05-01T18:11:56Z</time></trkpt><trkpt lat="47.37545152790399" lon="15.10556531748766"><ele>593.0</ele><time>2026-05-01T18:11:57Z</time></trkpt><trkpt lat="47.37534640464933" lon="15.105395522085296"><ele>597.0</ele><time>2026-05-01T18:11:58Z</time></trkpt><trkpt lat="47.37524553568102" lon="15.105243941370357"><ele>597.0</ele><time>2026-05-01T18:11:59Z</time></trkpt><trkpt lat="47.37514429429793" lon="15.10510350361325"><ele>597.0</ele><time>2026-05-01T18:12:00Z</time></trkpt><trkpt lat="47.37504077502403" lon="15.10496981032262"><ele>597.0</ele><time>2026-05-01T18:12:01Z</time></trkpt><trkpt lat="47.37493428525331" lon="15.104838942554302"><ele>597.0</ele><time>2026-05-01T18:12:02Z</time></trkpt><trkpt lat="47.3748251220604" lon="15.104712715015951"><ele>597.75</ele><time>2026-05-01T18:12:03Z</time></trkpt><trkpt lat="47.37471104513764" lon="15.104592219266634"><ele>598.5</ele><time>2026-05-01T18:12:04Z</time></trkpt><trkpt lat="47.37459513040851" lon="15.104476300077005"><ele>599.25</ele><time>2026-05-01T18:12:05Z</time></trkpt><trkpt lat="47.37447538760489" lon="15.104364088815952"><ele>600.0</ele><time>2026-05-01T18:12:06Z</time></trkpt><trkpt lat="47.37435365977068" lon="15.10425373681518"><ele>607.0</ele><time>2026-05-01T18:12:07Z</time></trkpt><trkpt lat="47.37422817736965" lon="15.104147730409187"><ele>614.0</ele><time>2026-05-01T18:12:08Z</time></trkpt><trkpt lat="47.374098535237465" lon="15.104048614286663"><ele>621.0</ele><time>2026-05-01T18:12:09Z</time></trkpt><trkpt lat="47.37396478114813" lon="15.103957140144688"><ele>628.0</ele><time>2026-05-01T18:12:10Z</time></trkpt><trkpt lat="47.37382777181183" lon="15.103875490453218"><ele>634.25</ele><time>2026-05-01T18:12:11Z</time></trkpt><trkpt lat="47.3736888108065" lon="15.103801685613535"><ele>640.5</ele><time>2026-05-01T18:12:12Z</time></trkpt><trkpt lat="47.373548247140235" lon="15.103733255371797"><ele>646.75</ele><time>2026-05-01T18:12:13Z</time></trkpt><trkpt lat="47.37340652634043" lon="15.103669957771999"><ele>653.0</ele><time>2026-05-01T18:12:14Z</time></trkpt><trkpt lat="47.37326568621696" lon="15.10361243558696"><ele>653.0</ele><time>2026-05-01T18:12:15Z</time></trkpt><trkpt lat="47.37312161257052" lon="15.103563093647152"><ele>653.0</ele><time>2026-05-01T18:12:16Z</time></trkpt><trkpt lat="47.373046786972694" lon="15.103503822000617"><ele>653.0</ele><time>2026-05-01T18:12:17Z</time></trkpt><trkpt lat="47.372907609711106" lon="15.103466921531115"><ele>653.0</ele><time>2026-05-01T18:12:18Z</time></trkpt><trkpt lat="47.37276861506682" lon="15.103442040213384"><ele>656.0</ele><time>2026-05-01T18:12:19Z</time></trkpt><trkpt lat="47.37262973360218" lon="15.103424598798101"><ele>659.0</ele><time>2026-05-01T18:12:20Z</time></trkpt><trkpt lat="47.37248918377307" lon="15.103412170259057"><ele>662.0</ele><time>2026-05-01T18:12:21Z</time></trkpt><trkpt lat="47.372346394462674" lon="15.103406332876483"><ele>665.0</ele><time>2026-05-01T18:12:22Z</time></trkpt><trkpt lat="47.37220221919118" lon="15.103407055067917"><ele>662.75</ele><time>2026-05-01T18:12:23Z</time></trkpt><trkpt lat="47.3720593766042" lon="15.103416705344667"><ele>660.5</ele><time>2026-05-01T18:12:24Z</time></trkpt><trkpt lat="47.37191833581675" lon="15.103435925155903"><ele>658.25</ele><time>2026-05-01T18:12:25Z</time></trkpt><trkpt lat="47.37177835177615" lon="15.103463223402898"><ele>656.0</ele><time>2026-05-01T18:12:26Z</time></trkpt><trkpt lat="47.37164669890652" lon="15.103499259713315"><ele>656.0</ele><time>2026-05-01T18:12:27Z</time></trkpt><trkpt lat="47.371508995010366" lon="15.103539420397773"><ele>656.0</ele><time>2026-05-01T18:12:28Z</time></trkpt><trkpt lat="47.37137733062085" lon="15.10358460746647"><ele>656.0</ele><time>2026-05-01T18:12:29Z</time></trkpt><trkpt lat="47.37124508123521" lon="15.103635740549086"><ele>656.0</ele><time>2026-05-01T18:12:30Z</time></trkpt><trkpt lat="47.37110818954523" lon="15.103695347148498"><ele>643.3333333333333</ele><time>2026-05-01T18:12:31Z</time></trkpt><trkpt lat="47.37096739016857" lon="15.103765871989548"><ele>630.6666666666666</ele><time>2026-05-01T18:12:32Z</time></trkpt><trkpt lat="47.370741514505355" lon="15.103894758048412"><ele>618.0</ele><time>2026-05-01T18:12:33Z</time></trkpt><trkpt lat="47.370550793807936" lon="15.104015844705751"><ele>612.0</ele><time>2026-05-01T18:12:34Z</time></trkpt><trkpt lat="47.370390948863005" lon="15.104132668778005"><ele>606.0</ele><time>2026-05-01T18:12:35Z</time></trkpt><trkpt lat="47.37025047384877" lon="15.104275502854192"><ele>600.0</ele><time>2026-05-01T18:12:36Z</time></trkpt><trkpt lat="47.3700963625381" lon="15.10440989976653"><ele>600.0</ele><time>2026-05-01T18:12:37Z</time></trkpt><trkpt lat="47.36994932950316" lon="15.104555383285186"><ele>600.0</ele><time>2026-05-01T18:12:38Z</time></trkpt><trkpt lat="47.36977286598046" lon="15.104706716662635"><ele>600.0</ele><time>2026-05-01T18:12:39Z</time></trkpt><trkpt lat="47.36962405041457" lon="15.104845194468854"><ele>600.6666666666666</ele><time>2026-05-01T18:12:40Z</time></trkpt><trkpt lat="47.36947220880618" lon="15.104983522850972"><ele>601.3333333333333</ele><time>2026-05-01T18:12:41Z</time></trkpt><trkpt lat="47.369318194805" lon="15.105122494908386"><ele>602.0</ele><time>2026-05-01T18:12:42Z</time></trkpt><trkpt lat="47.3691622707177" lon="15.105255314058642"><ele>602.0</ele><time>2026-05-01T18:12:43Z</time></trkpt><trkpt lat="47.36900730271383" lon="15.105383692643233"><ele>602.0</ele><time>2026-05-01T18:12:44Z</time></trkpt><trkpt lat="47.36884756109097" lon="15.105509921315537"><ele>602.0</ele><time>2026-05-01T18:12:45Z</time></trkpt><trkpt lat="47.368685225598924" lon="15.10564152706855"><ele>602.3333333333333</ele><time>2026-05-01T18:12:46Z</time></trkpt><trkpt lat="47.36851662311392" lon="15.105770952437258"><ele>602.6666666666666</ele><time>2026-05-01T18:12:47Z</time></trkpt><trkpt lat="47.3683445705967" lon="15.105898172875325"><ele>603.0</ele><time>2026-05-01T18:12:48Z</time></trkpt><trkpt lat="47.36817117906648" lon="15.106025458547517"><ele>602.6666666666666</ele><time>2026-05-01T18:12:49Z</time></trkpt><trkpt lat="47.367994419192236" lon="15.106150145439907"><ele>602.3333333333333</ele><time>2026-05-01T18:12:50Z</time></trkpt><trkpt lat="47.36781581249318" lon="15.106274474502595"><ele>602.0</ele><time>2026-05-01T18:12:51Z</time></trkpt><trkpt lat="47.367637026601095" lon="15.10639660740003"><ele>602.0</ele><time>2026-05-01T18:12:52Z</time></trkpt><trkpt lat="47.367459950652446" lon="15.1065150087854"><ele>602.0</ele><time>2026-05-01T18:12:53Z</time></trkpt><trkpt lat="47.36728018010197" lon="15.106628552134552"><ele>602.0</ele><time>2026-05-01T18:12:54Z</time></trkpt><trkpt lat="47.36709789179011" lon="15.106740502478235"><ele>603.3333333333333</ele><time>2026-05-01T18:12:55Z</time></trkpt><trkpt lat="47.366914307552825" lon="15.10685080312505"><ele>604.6666666666666</ele><time>2026-05-01T18:12:56Z</time></trkpt><trkpt lat="47.366728931119326" lon="15.106961651685983"><ele>606.0</ele><time>2026-05-01T18:12:57Z</time></trkpt><trkpt lat="47.366541405188244" lon="15.107070736042965"><ele>604.0</ele><time>2026-05-01T18:12:58Z</time></trkpt><trkpt lat="47.3663530100782" lon="15.10717641325924"><ele>602.0</ele><time>2026-05-01T18:12:59Z</time></trkpt><trkpt lat="47.366163618241025" lon="15.107280859660122"><ele>600.0</ele><time>2026-05-01T18:13:00Z</time></trkpt><trkpt lat="47.36597328587161" lon="15.107381378657136"><ele>598.6666666666666</ele><time>2026-05-01T18:13:01Z</time></trkpt><trkpt lat="47.3657833828881" lon="15.107476812598804"><ele>597.3333333333333</ele><time>2026-05-01T18:13:02Z</time></trkpt><trkpt lat="47.36559326816834" lon="15.107566856800744"><ele>596.0</ele><time>2026-05-01T18:13:03Z</time></trkpt><trkpt lat="47.36540556937912" lon="15.107655112048938"><ele>591.6666666666666</ele><time>2026-05-01T18:13:04Z</time></trkpt><trkpt lat="47.365217338430114" lon="15.107739754218104"><ele>587.3333333333334</ele><time>2026-05-01T18:13:05Z</time></trkpt><trkpt lat="47.365030950253676" lon="15.107821440138167"><ele>583.0</ele><time>2026-05-01T18:13:06Z</time></trkpt><trkpt lat="47.364845811280645" lon="15.107899718059672"><ele>581.0</ele><time>2026-05-01T18:13:07Z</time></trkpt><trkpt lat="47.36466108635934" lon="15.107972465218847"><ele>579.0</ele><time>2026-05-01T18:13:08Z</time></trkpt><trkpt lat="47.364477623757715" lon="15.108042033141508"><ele>577.0</ele><time>2026-05-01T18:13:09Z</time></trkpt><trkpt lat="47.364293640398216" lon="15.108107947398551"><ele>577.0</ele><time>2026-05-01T18:13:10Z</time></trkpt><trkpt lat="47.36410656560065" lon="15.108169652372387"><ele>577.0</ele><time>2026-05-01T18:13:11Z</time></trkpt><trkpt lat="47.363916207360624" lon="15.108224481140459"><ele>577.0</ele><time>2026-05-01T18:13:12Z</time></trkpt><trkpt lat="47.36372125054463" lon="15.108272599923849"><ele>576.6666666666667</ele><time>2026-05-01T18:13:13Z</time></trkpt><trkpt lat="47.36351768925677" lon="15.108313106043893"><ele>576.3333333333334</ele><time>2026-05-01T18:13:14Z</time></trkpt><trkpt lat="47.363306249361735" lon="15.108344288635292"><ele>576.0</ele><time>2026-05-01T18:13:15Z</time></trkpt><trkpt lat="47.363087452982285" lon="15.108364081195887"><ele>574.0</ele><time>2026-05-01T18:13:16Z</time></trkpt><trkpt lat="47.362861750718324" lon="15.108365340400018"><ele>572.0</ele><time>2026-05-01T18:13:17Z</time></trkpt><trkpt lat="47.36262797329763" lon="15.108349530293701"><ele>572.0</ele><time>2026-05-01T18:13:18Z</time></trkpt><trkpt lat="47.36239382439583" lon="15.108320262099326"><ele>572.0</ele><time>2026-05-01T18:13:19Z</time></trkpt><trkpt lat="47.36216506655617" lon="15.108274385230958"><ele>569.0</ele><time>2026-05-01T18:13:20Z</time></trkpt><trkpt lat="47.36192914967762" lon="15.108203422111915"><ele>566.0</ele><time>2026-05-01T18:13:21.001Z</time></trkpt><trkpt lat="47.361691248358284" lon="15.108101618988432"><ele>566.0</ele><time>2026-05-01T18:13:22.001Z</time></trkpt><trkpt lat="47.36145324261433" lon="15.10797290414141"><ele>566.0</ele><time>2026-05-01T18:13:23.001Z</time></trkpt><trkpt lat="47.36121843339497" lon="15.107821845470031"><ele>567.5</ele><time>2026-05-01T18:13:24.001Z</time></trkpt><trkpt lat="47.360991756672874" lon="15.107653741975593"><ele>569.0</ele><time>2026-05-01T18:13:25.001Z</time></trkpt><trkpt lat="47.36077812178135" lon="15.10746990070143"><ele>569.5</ele><time>2026-05-01T18:13:26.001Z</time></trkpt><trkpt lat="47.36057350598426" lon="15.107270527754213"><ele>570.0</ele><time>2026-05-01T18:13:27Z</time></trkpt><trkpt lat="47.360377896766764" lon="15.107058787449425"><ele>570.0</ele><time>2026-05-01T18:13:28Z</time></trkpt><trkpt lat="47.36019123410854" lon="15.10683562937635"><ele>570.0</ele><time>2026-05-01T18:13:29Z</time></trkpt><trkpt lat="47.36000909212596" lon="15.10660066724772"><ele>567.0</ele><time>2026-05-01T18:13:30Z</time></trkpt><trkpt lat="47.35982975213045" lon="15.106355217685145"><ele>564.0</ele><time>2026-05-01T18:13:31Z</time></trkpt><trkpt lat="47.35965437868264" lon="15.106102433382704"><ele>565.5</ele><time>2026-05-01T18:13:32Z</time></trkpt><trkpt lat="47.359482073691666" lon="15.105841521137787"><ele>567.0</ele><time>2026-05-01T18:13:33Z</time></trkpt><trkpt lat="47.359312924207046" lon="15.105575638035065"><ele>567.0</ele><time>2026-05-01T18:13:34Z</time></trkpt><trkpt lat="47.35914749981828" lon="15.10530706402295"><ele>567.0</ele><time>2026-05-01T18:13:35Z</time></trkpt><trkpt lat="47.358984784258965" lon="15.105037720728125"><ele>571.0</ele><time>2026-05-01T18:13:36Z</time></trkpt><trkpt lat="47.358823152445474" lon="15.104768879615847"><ele>575.0</ele><time>2026-05-01T18:13:37Z</time></trkpt><trkpt lat="47.35866285168926" lon="15.104502108866988"><ele>575.0</ele><time>2026-05-01T18:13:38Z</time></trkpt><trkpt lat="47.358506962758455" lon="15.10423570023246"><ele>575.0</ele><time>2026-05-01T18:13:39Z</time></trkpt><trkpt lat="47.35835326268954" lon="15.1039691833394"><ele>568.5</ele><time>2026-05-01T18:13:40Z</time></trkpt><trkpt lat="47.35820062584612" lon="15.103699902432902"><ele>562.0</ele><time>2026-05-01T18:13:41Z</time></trkpt><trkpt lat="47.35804764268583" lon="15.103430186427163"><ele>567.5</ele><time>2026-05-01T18:13:42Z</time></trkpt><trkpt lat="47.35789541856456" lon="15.103159144829343"><ele>573.0</ele><time>2026-05-01T18:13:43Z</time></trkpt><trkpt lat="47.357743796761966" lon="15.102889947450038"><ele>573.0</ele><time>2026-05-01T18:13:44Z</time></trkpt><trkpt lat="47.35759395133926" lon="15.102617910735132"><ele>573.0</ele><time>2026-05-01T18:13:45Z</time></trkpt><trkpt lat="47.357446064245046" lon="15.102344591606037"><ele>573.5</ele><time>2026-05-01T18:13:46Z</time></trkpt><trkpt lat="47.357298891405975" lon="15.102069745374456"><ele>574.0</ele><time>2026-05-01T18:13:47Z</time></trkpt><trkpt lat="47.35715213771208" lon="15.101794172590532"><ele>570.5</ele><time>2026-05-01T18:13:48Z</time></trkpt><trkpt lat="47.357004794713305" lon="15.101518598494499"><ele>567.0</ele><time>2026-05-01T18:13:49Z</time></trkpt><trkpt lat="47.35685741035555" lon="15.10124088111367"><ele>567.0</ele><time>2026-05-01T18:13:50Z</time></trkpt><trkpt lat="47.356709697525964" lon="15.10096011356322"><ele>567.0</ele><time>2026-05-01T18:13:51Z</time></trkpt><trkpt lat="47.35656147414922" lon="15.100666768351935"><ele>569.0</ele><time>2026-05-01T18:13:52Z</time></trkpt><trkpt lat="47.356409036808905" lon="15.100358366502729"><ele>571.0</ele><time>2026-05-01T18:13:53Z</time></trkpt><trkpt lat="47.35625297491961" lon="15.100040686510338"><ele>567.5</ele><time>2026-05-01T18:13:54Z</time></trkpt><trkpt lat="47.35609127704609" lon="15.099713942260983"><ele>564.0</ele><time>2026-05-01T18:13:55Z</time></trkpt><trkpt lat="47.35592585118828" lon="15.09937908068134"><ele>561.0</ele><time>2026-05-01T18:13:56Z</time></trkpt><trkpt lat="47.35575937101352" lon="15.09903359330003"><ele>558.0</ele><time>2026-05-01T18:13:57Z</time></trkpt><trkpt lat="47.355592357438304" lon="15.098678566898549"><ele>562.0</ele><time>2026-05-01T18:13:58Z</time></trkpt><trkpt lat="47.355425567520044" lon="15.098317081819323"><ele>566.0</ele><time>2026-05-01T18:13:59Z</time></trkpt><trkpt lat="47.35525779874524" lon="15.097953609445216"><ele>566.0</ele><time>2026-05-01T18:14:00Z</time></trkpt><trkpt lat="47.355097234382185" lon="15.09760091925574"><ele>566.0</ele><time>2026-05-01T18:14:01Z</time></trkpt><trkpt lat="47.354938362129886" lon="15.09724534781642"><ele>565.5</ele><time>2026-05-01T18:14:02Z</time></trkpt><trkpt lat="47.35478054533828" lon="15.09687955829335"><ele>565.0</ele><time>2026-05-01T18:14:03Z</time></trkpt><trkpt lat="47.354625455924" lon="15.09650435937601"><ele>565.0</ele><time>2026-05-01T18:14:04Z</time></trkpt><trkpt lat="47.354471725272106" lon="15.096124486600951"><ele>565.0</ele><time>2026-05-01T18:14:05Z</time></trkpt><trkpt lat="47.354319494683686" lon="15.095740448955102"><ele>562.5</ele><time>2026-05-01T18:14:06Z</time></trkpt><trkpt lat="47.3541700994386" lon="15.095354621887317"><ele>560.0</ele><time>2026-05-01T18:14:07Z</time></trkpt><trkpt lat="47.354024220931564" lon="15.094963233090317"><ele>557.5</ele><time>2026-05-01T18:14:08Z</time></trkpt><trkpt lat="47.353881583699376" lon="15.094568892731477"><ele>555.0</ele><time>2026-05-01T18:14:09Z</time></trkpt><trkpt lat="47.35374418451579" lon="15.094170497233126"><ele>559.0</ele><time>2026-05-01T18:14:10Z</time></trkpt><trkpt lat="47.353612467354736" lon="15.093767769040413"><ele>563.0</ele><time>2026-05-01T18:14:11Z</time></trkpt><trkpt lat="47.35348932823812" lon="15.093361850857972"><ele>559.5</ele><time>2026-05-01T18:14:12Z</time></trkpt><trkpt lat="47.353374256764404" lon="15.092953994797291"><ele>556.0</ele><time>2026-05-01T18:14:13Z</time></trkpt><trkpt lat="47.35326613789372" lon="15.09254628223149"><ele>554.0</ele><time>2026-05-01T18:14:14Z</time></trkpt><trkpt lat="47.35316423867128" lon="15.092137002142888"><ele>552.0</ele><time>2026-05-01T18:14:15Z</time></trkpt><trkpt lat="47.35307201722267" lon="15.091727721162705"><ele>568.0</ele><time>2026-05-01T18:14:16Z</time></trkpt><trkpt lat="47.35298987050117" lon="15.091315191735998"><ele>584.0</ele><time>2026-05-01T18:14:17Z</time></trkpt><trkpt lat="47.3529154705206" lon="15.090894582008163"><ele>580.0</ele><time>2026-05-01T18:14:18Z</time></trkpt><trkpt lat="47.35284450479789" lon="15.090468590645653"><ele>576.0</ele><time>2026-05-01T18:14:19Z</time></trkpt><trkpt lat="47.35277757257896" lon="15.090037302995173"><ele>573.0</ele><time>2026-05-01T18:14:20Z</time></trkpt><trkpt lat="47.35271792582624" lon="15.089603226673244"><ele>570.0</ele><time>2026-05-01T18:14:21Z</time></trkpt><trkpt lat="47.35266648050469" lon="15.089164997113544"><ele>567.5</ele><time>2026-05-01T18:14:22Z</time></trkpt><trkpt lat="47.35262551180512" lon="15.088724837089392"><ele>565.0</ele><time>2026-05-01T18:14:23Z</time></trkpt><trkpt lat="47.352592092836986" lon="15.088283651765968"><ele>561.5</ele><time>2026-05-01T18:14:24Z</time></trkpt><trkpt lat="47.352562440735" lon="15.087842599583245"><ele>558.0</ele><time>2026-05-01T18:14:25Z</time></trkpt><trkpt lat="47.35254257493866" lon="15.087399868886779"><ele>556.5</ele><time>2026-05-01T18:14:26Z</time></trkpt><trkpt lat="47.35253347828903" lon="15.086957695017484"><ele>555.0</ele><time>2026-05-01T18:14:27Z</time></trkpt><trkpt lat="47.352532368216735" lon="15.086516646797529"><ele>555.0</ele><time>2026-05-01T18:14:28Z</time></trkpt><trkpt lat="47.352537310323626" lon="15.086076384810012"><ele>555.0</ele><time>2026-05-01T18:14:29Z</time></trkpt><trkpt lat="47.352549132761375" lon="15.085636726480649"><ele>555.0</ele><time>2026-05-01T18:14:30Z</time></trkpt><trkpt lat="47.35256834893099" lon="15.085198913195505"><ele>555.0</ele><time>2026-05-01T18:14:31Z</time></trkpt><trkpt lat="47.35259656055238" lon="15.084762619081365"><ele>555.5</ele><time>2026-05-01T18:14:32Z</time></trkpt><trkpt lat="47.35263430561815" lon="15.084327379895022"><ele>556.0</ele><time>2026-05-01T18:14:33Z</time></trkpt><trkpt lat="47.35267843397253" lon="15.08389301367393"><ele>555.0</ele><time>2026-05-01T18:14:34Z</time></trkpt><trkpt lat="47.3527282231259" lon="15.083461308661285"><ele>554.0</ele><time>2026-05-01T18:14:35Z</time></trkpt><trkpt lat="47.35278297137673" lon="15.083030921121901"><ele>554.0</ele><time>2026-05-01T18:14:36Z</time></trkpt><trkpt lat="47.35284697530178" lon="15.082604803887538"><ele>554.0</ele><time>2026-05-01T18:14:37Z</time></trkpt><trkpt lat="47.35291911308944" lon="15.082183751555243"><ele>554.0</ele><time>2026-05-01T18:14:38Z</time></trkpt><trkpt lat="47.352998609223114" lon="15.081766700247526"><ele>554.0</ele><time>2026-05-01T18:14:39Z</time></trkpt><trkpt lat="47.35308498133296" lon="15.081353922267677"><ele>554.0</ele><time>2026-05-01T18:14:40Z</time></trkpt><trkpt lat="47.3531768625665" lon="15.080945453496266"><ele>554.0</ele><time>2026-05-01T18:14:41Z</time></trkpt><trkpt lat="47.35327379706078" lon="15.080539678282335"><ele>554.5</ele><time>2026-05-01T18:14:42Z</time></trkpt><trkpt lat="47.35337760431389" lon="15.080136991873315"><ele>555.0</ele><time>2026-05-01T18:14:43Z</time></trkpt><trkpt lat="47.35348485253513" lon="15.079734750414469"><ele>555.5</ele><time>2026-05-01T18:14:44Z</time></trkpt><trkpt lat="47.35359442679112" lon="15.07933349485957"><ele>556.0</ele><time>2026-05-01T18:14:45Z</time></trkpt><trkpt lat="47.353701693331104" lon="15.078930962806288"><ele>556.0</ele><time>2026-05-01T18:14:46Z</time></trkpt><trkpt lat="47.35380672635594" lon="15.078526457400656"><ele>556.0</ele><time>2026-05-01T18:14:47Z</time></trkpt><trkpt lat="47.35390756630684" lon="15.078119552526314"><ele>556.0</ele><time>2026-05-01T18:14:48Z</time></trkpt><trkpt lat="47.354001695896365" lon="15.077708866386281"><ele>556.0</ele><time>2026-05-01T18:14:49Z</time></trkpt><trkpt lat="47.35409105792436" lon="15.077294693086964"><ele>556.5</ele><time>2026-05-01T18:14:50Z</time></trkpt><trkpt lat="47.35417257955216" lon="15.07687744105111"><ele>557.0</ele><time>2026-05-01T18:14:51Z</time></trkpt><trkpt lat="47.354239911766015" lon="15.076454417350146"><ele>558.0</ele><time>2026-05-01T18:14:52Z</time></trkpt><trkpt lat="47.35429336149506" lon="15.076027309719377"><ele>559.0</ele><time>2026-05-01T18:14:53Z</time></trkpt><trkpt lat="47.35433476340839" lon="15.075597558299691"><ele>559.0</ele><time>2026-05-01T18:14:54Z</time></trkpt><trkpt lat="47.35436451811032" lon="15.075168142888725"><ele>559.0</ele><time>2026-05-01T18:14:55Z</time></trkpt><trkpt lat="47.35437709296788" lon="15.07473936791507"><ele>559.0</ele><time>2026-05-01T18:14:56Z</time></trkpt><trkpt lat="47.354373442039964" lon="15.074312698273573"><ele>559.0</ele><time>2026-05-01T18:14:57Z</time></trkpt><trkpt lat="47.35435542582694" lon="15.073887293563153"><ele>559.0</ele><time>2026-05-01T18:14:58Z</time></trkpt><trkpt lat="47.354322698922054" lon="15.073461901630933"><ele>559.0</ele><time>2026-05-01T18:14:59Z</time></trkpt><trkpt lat="47.35427596245257" lon="15.073038871012727"><ele>559.5</ele><time>2026-05-01T18:15:00Z</time></trkpt><trkpt lat="47.35420965139869" lon="15.072626305386676"><ele>560.0</ele><time>2026-05-01T18:15:01Z</time></trkpt><trkpt lat="47.35412617136533" lon="15.07221870219741"><ele>560.0</ele><time>2026-05-01T18:15:02Z</time></trkpt><trkpt lat="47.35403040188173" lon="15.071811185177891"><ele>560.0</ele><time>2026-05-01T18:15:03Z</time></trkpt><trkpt lat="47.353932009715585" lon="15.07140096028421"><ele>561.5</ele><time>2026-05-01T18:15:04Z</time></trkpt><trkpt lat="47.35383315701634" lon="15.070989885202154"><ele>563.0</ele><time>2026-05-01T18:15:05Z</time></trkpt><trkpt lat="47.35373273193616" lon="15.07057859917283"><ele>563.0</ele><time>2026-05-01T18:15:06Z</time></trkpt><trkpt lat="47.353634619824454" lon="15.07016656808018"><ele>563.0</ele><time>2026-05-01T18:15:07Z</time></trkpt><trkpt lat="47.35353680005896" lon="15.069755286891228"><ele>563.0</ele><time>2026-05-01T18:15:08Z</time></trkpt><trkpt lat="47.35343986330406" lon="15.06935225511625"><ele>563.0</ele><time>2026-05-01T18:15:09Z</time></trkpt><trkpt lat="47.35334697109304" lon="15.068969440845198"><ele>563.5</ele><time>2026-05-01T18:15:10Z</time></trkpt><trkpt lat="47.35324807620928" lon="15.068572196610422"><ele>564.0</ele><time>2026-05-01T18:15:11Z</time></trkpt><trkpt lat="47.353146228164924" lon="15.068170264780282"><ele>564.0</ele><time>2026-05-01T18:15:12Z</time></trkpt><trkpt lat="47.35304428240482" lon="15.067768705744317"><ele>564.0</ele><time>2026-05-01T18:15:13Z</time></trkpt><trkpt lat="47.352938941514665" lon="15.067365817892926"><ele>565.0</ele><time>2026-05-01T18:15:14Z</time></trkpt><trkpt lat="47.35283115014401" lon="15.06696197653711"><ele>566.0</ele><time>2026-05-01T18:15:15Z</time></trkpt><trkpt lat="47.352721937028974" lon="15.066558213426877"><ele>567.0</ele><time>2026-05-01T18:15:16Z</time></trkpt><trkpt lat="47.352611298392404" lon="15.066151083992061"><ele>568.0</ele><time>2026-05-01T18:15:17Z</time></trkpt><trkpt lat="47.35249831486545" lon="15.065740286252616"><ele>569.5</ele><time>2026-05-01T18:15:18Z</time></trkpt><trkpt lat="47.35238471104604" lon="15.065326590562494"><ele>571.0</ele><time>2026-05-01T18:15:19Z</time></trkpt><trkpt lat="47.35227071571229" lon="15.064909250268132"><ele>573.5</ele><time>2026-05-01T18:15:20Z</time></trkpt><trkpt lat="47.35215652996146" lon="15.064490081431469"><ele>576.0</ele><time>2026-05-01T18:15:21Z</time></trkpt><trkpt lat="47.352041668493584" lon="15.064069328385703"><ele>576.0</ele><time>2026-05-01T18:15:22Z</time></trkpt><trkpt lat="47.351926316880935" lon="15.063648206305947"><ele>576.0</ele><time>2026-05-01T18:15:23Z</time></trkpt><trkpt lat="47.3518085334598" lon="15.063230474327773"><ele>575.0</ele><time>2026-05-01T18:15:24Z</time></trkpt><trkpt lat="47.35168809253925" lon="15.062815280698054"><ele>574.0</ele><time>2026-05-01T18:15:25Z</time></trkpt><trkpt lat="47.351564936079974" lon="15.062404753573677"><ele>574.0</ele><time>2026-05-01T18:15:26Z</time></trkpt><trkpt lat="47.35143600300585" lon="15.06199941844932"><ele>574.0</ele><time>2026-05-01T18:15:27Z</time></trkpt><trkpt lat="47.35130001959983" lon="15.061600732713789"><ele>574.0</ele><time>2026-05-01T18:15:28Z</time></trkpt><trkpt lat="47.35115587548482" lon="15.061209455887532"><ele>574.0</ele><time>2026-05-01T18:15:29Z</time></trkpt><trkpt lat="47.3510004033348" lon="15.06082765071843"><ele>571.0</ele><time>2026-05-01T18:15:30Z</time></trkpt><trkpt lat="47.350832751469824" lon="15.060455374743205"><ele>568.0</ele><time>2026-05-01T18:15:31Z</time></trkpt><trkpt lat="47.350652714906175" lon="15.060092584160955"><ele>569.5</ele><time>2026-05-01T18:15:32Z</time></trkpt><trkpt lat="47.35046183629867" lon="15.059741524791798"><ele>571.0</ele><time>2026-05-01T18:15:33Z</time></trkpt><trkpt lat="47.35026050999071" lon="15.059400246887897"><ele>570.0</ele><time>2026-05-01T18:15:34Z</time></trkpt><trkpt lat="47.35004912897294" lon="15.059070496180455"><ele>569.0</ele><time>2026-05-01T18:15:35Z</time></trkpt><trkpt lat="47.34982958718428" lon="15.058753153804835"><ele>569.0</ele><time>2026-05-01T18:15:36Z</time></trkpt><trkpt lat="47.34959964970337" lon="15.058449217323552"><ele>569.0</ele><time>2026-05-01T18:15:37Z</time></trkpt><trkpt lat="47.34936384603347" lon="15.058153394827398"><ele>569.0</ele><time>2026-05-01T18:15:38Z</time></trkpt><trkpt lat="47.3491210040409" lon="15.057871430022166"><ele>569.0</ele><time>2026-05-01T18:15:39Z</time></trkpt><trkpt lat="47.34887146003691" lon="15.057602699666695"><ele>567.5</ele><time>2026-05-01T18:15:40Z</time></trkpt><trkpt lat="47.348615162408024" lon="15.057346810363363"><ele>566.0</ele><time>2026-05-01T18:15:41Z</time></trkpt><trkpt lat="47.348353564772104" lon="15.057102687157668"><ele>566.0</ele><time>2026-05-01T18:15:42Z</time></trkpt><trkpt lat="47.34808679746967" lon="15.056875263966598"><ele>566.0</ele><time>2026-05-01T18:15:43Z</time></trkpt><trkpt lat="47.34781414323137" lon="15.056667054722991"><ele>562.5</ele><time>2026-05-01T18:15:44Z</time></trkpt><trkpt lat="47.34753465128395" lon="15.056480026386884"><ele>559.0</ele><time>2026-05-01T18:15:45Z</time></trkpt><trkpt lat="47.34724906928035" lon="15.056317019546254"><ele>559.5</ele><time>2026-05-01T18:15:46Z</time></trkpt><trkpt lat="47.3469575748543" lon="15.05617906487694"><ele>560.0</ele><time>2026-05-01T18:15:47Z</time></trkpt><trkpt lat="47.34666132485052" lon="15.056066028674811"><ele>562.5</ele><time>2026-05-01T18:15:48Z</time></trkpt><trkpt lat="47.34636091246251" lon="15.055972164260096"><ele>565.0</ele><time>2026-05-01T18:15:49Z</time></trkpt><trkpt lat="47.346057363341195" lon="15.055893623329991"><ele>565.0</ele><time>2026-05-01T18:15:50Z</time></trkpt><trkpt lat="47.34575050667925" lon="15.055831899479825"><ele>565.0</ele><time>2026-05-01T18:15:51Z</time></trkpt><trkpt lat="47.345440685220204" lon="15.05578514108993"><ele>559.5</ele><time>2026-05-01T18:15:52Z</time></trkpt><trkpt lat="47.34512851381928" lon="15.055754588664175"><ele>554.0</ele><time>2026-05-01T18:15:53Z</time></trkpt><trkpt lat="47.34481531127542" lon="15.055738083693004"><ele>554.5</ele><time>2026-05-01T18:15:54Z</time></trkpt><trkpt lat="47.34450040078545" lon="15.055727735534845"><ele>555.0</ele><time>2026-05-01T18:15:55Z</time></trkpt><trkpt lat="47.3441853720482" lon="15.055716262998812"><ele>555.0</ele><time>2026-05-01T18:15:56Z</time></trkpt><trkpt lat="47.343868912068494" lon="15.055694706349165"><ele>555.0</ele><time>2026-05-01T18:15:57Z</time></trkpt><trkpt lat="47.343553741512224" lon="15.055655519950664"><ele>555.0</ele><time>2026-05-01T18:15:58Z</time></trkpt><trkpt lat="47.343240830513054" lon="15.05559387443769"><ele>555.0</ele><time>2026-05-01T18:15:59Z</time></trkpt><trkpt lat="47.34293277790331" lon="15.055502113094548"><ele>557.0</ele><time>2026-05-01T18:16:00Z</time></trkpt><trkpt lat="47.34263187455303" lon="15.055379471567678"><ele>559.0</ele><time>2026-05-01T18:16:01Z</time></trkpt><trkpt lat="47.342342273483915" lon="15.0552266558881"><ele>557.5</ele><time>2026-05-01T18:16:02Z</time></trkpt><trkpt lat="47.34206719851851" lon="15.055041051996314"><ele>556.0</ele><time>2026-05-01T18:16:03Z</time></trkpt><trkpt lat="47.34180677948308" lon="15.0548230263296"><ele>556.0</ele><time>2026-05-01T18:16:04Z</time></trkpt><trkpt lat="47.341557757042295" lon="15.054575614301031"><ele>556.0</ele><time>2026-05-01T18:16:05Z</time></trkpt><trkpt lat="47.34132166317256" lon="15.054304047458855"><ele>557.5</ele><time>2026-05-01T18:16:06Z</time></trkpt><trkpt lat="47.3410947268657" lon="15.054012404126844"><ele>559.0</ele><time>2026-05-01T18:16:07Z</time></trkpt><trkpt lat="47.34087524708169" lon="15.05370559332889"><ele>559.0</ele><time>2026-05-01T18:16:08Z</time></trkpt><trkpt lat="47.34066372935556" lon="15.05338455107866"><ele>559.0</ele><time>2026-05-01T18:16:09Z</time></trkpt><trkpt lat="47.34046212755492" lon="15.053049988788374"><ele>558.0</ele><time>2026-05-01T18:16:10Z</time></trkpt><trkpt lat="47.34027010398649" lon="15.052702884256009"><ele>557.0</ele><time>2026-05-01T18:16:11Z</time></trkpt><trkpt lat="47.3400871300154" lon="15.052346946689125"><ele>557.0</ele><time>2026-05-01T18:16:12Z</time></trkpt><trkpt lat="47.339915646290315" lon="15.051981207367295"><ele>557.0</ele><time>2026-05-01T18:16:13Z</time></trkpt><trkpt lat="47.33975552074189" lon="15.051605063276442"><ele>560.5</ele><time>2026-05-01T18:16:14Z</time></trkpt><trkpt lat="47.339608579837076" lon="15.051219889470653"><ele>564.0</ele><time>2026-05-01T18:16:15Z</time></trkpt><trkpt lat="47.33947632367808" lon="15.050825260511106"><ele>562.5</ele><time>2026-05-01T18:16:16Z</time></trkpt><trkpt lat="47.33936055391307" lon="15.050419702814946"><ele>561.0</ele><time>2026-05-01T18:16:17Z</time></trkpt><trkpt lat="47.33926646265909" lon="15.050011207197205"><ele>560.0</ele><time>2026-05-01T18:16:18Z</time></trkpt><trkpt lat="47.3391947758705" lon="15.049598951634874"><ele>559.0</ele><time>2026-05-01T18:16:19Z</time></trkpt><trkpt lat="47.33914142098384" lon="15.049177402837518"><ele>560.5</ele><time>2026-05-01T18:16:20Z</time></trkpt><trkpt lat="47.33910579787196" lon="15.048750244293032"><ele>562.0</ele><time>2026-05-01T18:16:21Z</time></trkpt><trkpt lat="47.339082642827925" lon="15.048317985452098"><ele>563.0</ele><time>2026-05-01T18:16:22Z</time></trkpt><trkpt lat="47.339066306637875" lon="15.047883888216953"><ele>564.0</ele><time>2026-05-01T18:16:23Z</time></trkpt><trkpt lat="47.339055433201224" lon="15.047448949931763"><ele>565.0</ele><time>2026-05-01T18:16:24Z</time></trkpt><trkpt lat="47.33904674144141" lon="15.047014651397909"><ele>566.0</ele><time>2026-05-01T18:16:25Z</time></trkpt><trkpt lat="47.339036682171766" lon="15.046581041255552"><ele>566.0</ele><time>2026-05-01T18:16:26Z</time></trkpt><trkpt lat="47.33901766707974" lon="15.046150543110778"><ele>566.0</ele><time>2026-05-01T18:16:27Z</time></trkpt><trkpt lat="47.33898023565661" lon="15.045724610305362"><ele>566.0</ele><time>2026-05-01T18:16:28Z</time></trkpt><trkpt lat="47.33891657682735" lon="15.045309218821481"><ele>566.0</ele><time>2026-05-01T18:16:29Z</time></trkpt><trkpt lat="47.338830194611496" lon="15.044900152885715"><ele>567.0</ele><time>2026-05-01T18:16:30Z</time></trkpt><trkpt lat="47.33872746350498" lon="15.044495765568506"><ele>568.0</ele><time>2026-05-01T18:16:31Z</time></trkpt><trkpt lat="47.338608279368806" lon="15.044097810137954"><ele>566.0</ele><time>2026-05-01T18:16:32Z</time></trkpt><trkpt lat="47.33847180370916" lon="15.043709275527345"><ele>564.0</ele><time>2026-05-01T18:16:33Z</time></trkpt><trkpt lat="47.33832255445443" lon="15.04332699688437"><ele>565.5</ele><time>2026-05-01T18:16:34Z</time></trkpt><trkpt lat="47.338171081673956" lon="15.042943484780142"><ele>567.0</ele><time>2026-05-01T18:16:35Z</time></trkpt><trkpt lat="47.33802347816493" lon="15.042555980837026"><ele>570.0</ele><time>2026-05-01T18:16:36Z</time></trkpt><trkpt lat="47.33788485503347" lon="15.042171087261364"><ele>573.0</ele><time>2026-05-01T18:16:37Z</time></trkpt><trkpt lat="47.337764880982164" lon="15.041786601187738"><ele>573.5</ele><time>2026-05-01T18:16:38Z</time></trkpt><trkpt lat="47.33765927539138" lon="15.04138058079244"><ele>574.0</ele><time>2026-05-01T18:16:39Z</time></trkpt><trkpt lat="47.33757614857557" lon="15.040964291656143"><ele>576.0</ele><time>2026-05-01T18:16:40Z</time></trkpt><trkpt lat="47.33751347667243" lon="15.040537527079806"><ele>578.0</ele><time>2026-05-01T18:16:41Z</time></trkpt><trkpt lat="47.3374731885342" lon="15.040102739228113"><ele>578.5</ele><time>2026-05-01T18:16:42Z</time></trkpt><trkpt lat="47.33745372869605" lon="15.039661481021083"><ele>579.0</ele><time>2026-05-01T18:16:43Z</time></trkpt><trkpt lat="47.33745453045" lon="15.039218232397198"><ele>584.0</ele><time>2026-05-01T18:16:44Z</time></trkpt><trkpt lat="47.33747804540604" lon="15.038775446200516"><ele>589.0</ele><time>2026-05-01T18:16:45Z</time></trkpt><trkpt lat="47.33751872036088" lon="15.038333854921106"><ele>593.0</ele><time>2026-05-01T18:16:46Z</time></trkpt><trkpt lat="47.337573879981846" lon="15.037894387389558"><ele>597.0</ele><time>2026-05-01T18:16:47Z</time></trkpt><trkpt lat="47.33763063335862" lon="15.037454050940383"><ele>598.0</ele><time>2026-05-01T18:16:48Z</time></trkpt><trkpt lat="47.337680190280146" lon="15.037011633471765"><ele>599.0</ele><time>2026-05-01T18:16:49Z</time></trkpt><trkpt lat="47.337711475374086" lon="15.036565295144763"><ele>599.0</ele><time>2026-05-01T18:16:50Z</time></trkpt><trkpt lat="47.33772493848048" lon="15.03611695845839"><ele>599.0</ele><time>2026-05-01T18:16:51Z</time></trkpt><trkpt lat="47.33771559602739" lon="15.035670402195375"><ele>594.0</ele><time>2026-05-01T18:16:52Z</time></trkpt><trkpt lat="47.33768119388988" lon="15.035226105114575"><ele>589.0</ele><time>2026-05-01T18:16:53Z</time></trkpt><trkpt lat="47.33762684769284" lon="15.034785450199148"><ele>581.0</ele><time>2026-05-01T18:16:54Z</time></trkpt><trkpt lat="47.33755080806703" lon="15.034351060340173"><ele>573.0</ele><time>2026-05-01T18:16:55Z</time></trkpt><trkpt lat="47.33745462960545" lon="15.033925424903815"><ele>571.0</ele><time>2026-05-01T18:16:56Z</time></trkpt><trkpt lat="47.337337965051624" lon="15.03351499027643"><ele>569.0</ele><time>2026-05-01T18:16:57Z</time></trkpt><trkpt lat="47.33719688932717" lon="15.033124997381035"><ele>569.0</ele><time>2026-05-01T18:16:58Z</time></trkpt><trkpt lat="47.33703917436508" lon="15.032750526046334"><ele>569.0</ele><time>2026-05-01T18:16:59Z</time></trkpt><trkpt lat="47.3368613063608" lon="15.032396080904217"><ele>570.5</ele><time>2026-05-01T18:17:00Z</time></trkpt><trkpt lat="47.33666725239791" lon="15.03206338662661"><ele>572.0</ele><time>2026-05-01T18:17:01Z</time></trkpt><trkpt lat="47.33645821719828" lon="15.031747190946188"><ele>574.5</ele><time>2026-05-01T18:17:02Z</time></trkpt><trkpt lat="47.33623758901172" lon="15.031449361525192"><ele>577.0</ele><time>2026-05-01T18:17:03Z</time></trkpt><trkpt lat="47.33600419232061" lon="15.031168585842467"><ele>577.0</ele><time>2026-05-01T18:17:04Z</time></trkpt><trkpt lat="47.335761134030996" lon="15.030901767430827"><ele>577.0</ele><time>2026-05-01T18:17:05Z</time></trkpt><trkpt lat="47.3355121567197" lon="15.030641267044695"><ele>577.0</ele><time>2026-05-01T18:17:06Z</time></trkpt><trkpt lat="47.33526438080453" lon="15.030374766578053"><ele>577.0</ele><time>2026-05-01T18:17:07Z</time></trkpt><trkpt lat="47.335018546410936" lon="15.030100036138409"><ele>578.0</ele><time>2026-05-01T18:17:08Z</time></trkpt><trkpt lat="47.33478299213834" lon="15.029809443939039"><ele>579.0</ele><time>2026-05-01T18:17:09Z</time></trkpt><trkpt lat="47.33456250358708" lon="15.029500943930048"><ele>577.5</ele><time>2026-05-01T18:17:10Z</time></trkpt><trkpt lat="47.33435847648118" lon="15.029173704044942"><ele>576.0</ele><time>2026-05-01T18:17:11Z</time></trkpt><trkpt lat="47.33417175527897" lon="15.028826005591181"><ele>576.0</ele><time>2026-05-01T18:17:12Z</time></trkpt><trkpt lat="47.33400584345693" lon="15.028459249300544"><ele>576.0</ele><time>2026-05-01T18:17:13Z</time></trkpt><trkpt lat="47.33386268321163" lon="15.028075813592556"><ele>572.5</ele><time>2026-05-01T18:17:14Z</time></trkpt><trkpt lat="47.33374049118246" lon="15.027678919249341"><ele>569.0</ele><time>2026-05-01T18:17:15Z</time></trkpt><trkpt lat="47.33363788523107" lon="15.027270219439693"><ele>569.0</ele><time>2026-05-01T18:17:16Z</time></trkpt><trkpt lat="47.333555735550625" lon="15.026851265761987"><ele>569.0</ele><time>2026-05-01T18:17:17Z</time></trkpt><trkpt lat="47.33349457934348" lon="15.02642678510822"><ele>569.0</ele><time>2026-05-01T18:17:18Z</time></trkpt><trkpt lat="47.33345563517694" lon="15.025997981340465"><ele>569.0</ele><time>2026-05-01T18:17:19Z</time></trkpt><trkpt lat="47.33343714639232" lon="15.025566813545401"><ele>569.0</ele><time>2026-05-01T18:17:20Z</time></trkpt><trkpt lat="47.33343917741717" lon="15.02513539954261"><ele>569.0</ele><time>2026-05-01T18:17:21Z</time></trkpt><trkpt lat="47.33346450145459" lon="15.024707657223404"><ele>568.0</ele><time>2026-05-01T18:17:22Z</time></trkpt><trkpt lat="47.333510882690064" lon="15.024283429438833"><ele>567.0</ele><time>2026-05-01T18:17:23Z</time></trkpt><trkpt lat="47.33357744417385" lon="15.023863248177742"><ele>566.5</ele><time>2026-05-01T18:17:24Z</time></trkpt><trkpt lat="47.33366488004528" lon="15.023451514222723"><ele>566.0</ele><time>2026-05-01T18:17:25Z</time></trkpt><trkpt lat="47.33377327097966" lon="15.023049204795642"><ele>568.0</ele><time>2026-05-01T18:17:26Z</time></trkpt><trkpt lat="47.33390116025721" lon="15.022658704483428"><ele>570.0</ele><time>2026-05-01T18:17:27Z</time></trkpt><trkpt lat="47.334048413429706" lon="15.022282773796618"><ele>570.0</ele><time>2026-05-01T18:17:28Z</time></trkpt><trkpt lat="47.334212538562724" lon="15.021918754213553"><ele>570.0</ele><time>2026-05-01T18:17:29Z</time></trkpt><trkpt lat="47.33438883597461" lon="15.021562161882517"><ele>570.0</ele><time>2026-05-01T18:17:30Z</time></trkpt><trkpt lat="47.33456937006286" lon="15.021206550096155"><ele>570.0</ele><time>2026-05-01T18:17:31Z</time></trkpt><trkpt lat="47.33474818602899" lon="15.020848079467408"><ele>569.5</ele><time>2026-05-01T18:17:32Z</time></trkpt><trkpt lat="47.33492541840078" lon="15.020490427302713"><ele>569.0</ele><time>2026-05-01T18:17:33Z</time></trkpt><trkpt lat="47.33510131302477" lon="15.020130391842384"><ele>568.5</ele><time>2026-05-01T18:17:34Z</time></trkpt><trkpt lat="47.33527121114265" lon="15.019765979468799"><ele>568.0</ele><time>2026-05-01T18:17:35Z</time></trkpt><trkpt lat="47.3354321333857" lon="15.019391965321427"><ele>572.0</ele><time>2026-05-01T18:17:36Z</time></trkpt><trkpt lat="47.33558160615294" lon="15.019007841686781"><ele>576.0</ele><time>2026-05-01T18:17:37Z</time></trkpt><trkpt lat="47.3357245720869" lon="15.01861735323132"><ele>578.5</ele><time>2026-05-01T18:17:38Z</time></trkpt><trkpt lat="47.335859079285946" lon="15.018217396841054"><ele>581.0</ele><time>2026-05-01T18:17:39Z</time></trkpt><trkpt lat="47.335984679611194" lon="15.017809931568898"><ele>583.0</ele><time>2026-05-01T18:17:40Z</time></trkpt><trkpt lat="47.33610353577869" lon="15.017396833903968"><ele>585.0</ele><time>2026-05-01T18:17:41Z</time></trkpt><trkpt lat="47.336210650552665" lon="15.016976791788302"><ele>585.0</ele><time>2026-05-01T18:17:42Z</time></trkpt><trkpt lat="47.33630579806295" lon="15.016550927498303"><ele>585.0</ele><time>2026-05-01T18:17:43Z</time></trkpt><trkpt lat="47.336391550257225" lon="15.016118943713261"><ele>584.5</ele><time>2026-05-01T18:17:44Z</time></trkpt><trkpt lat="47.336467664825776" lon="15.015683702991229"><ele>584.0</ele><time>2026-05-01T18:17:45Z</time></trkpt><trkpt lat="47.33653602338803" lon="15.015246874919656"><ele>583.0</ele><time>2026-05-01T18:17:46Z</time></trkpt><trkpt lat="47.33659738704378" lon="15.014807201882288"><ele>582.0</ele><time>2026-05-01T18:17:47Z</time></trkpt><trkpt lat="47.33664842310253" lon="15.014363786473528"><ele>581.5</ele><time>2026-05-01T18:17:48Z</time></trkpt><trkpt lat="47.336687132054266" lon="15.013917204125475"><ele>581.0</ele><time>2026-05-01T18:17:49Z</time></trkpt><trkpt lat="47.33671173008998" lon="15.013467072078768"><ele>582.5</ele><time>2026-05-01T18:17:50Z</time></trkpt><trkpt lat="47.33672702752309" lon="15.013014986803794"><ele>584.0</ele><time>2026-05-01T18:17:51Z</time></trkpt><trkpt lat="47.33673496090853" lon="15.012561139538965"><ele>584.5</ele><time>2026-05-01T18:17:52Z</time></trkpt><trkpt lat="47.33673891677261" lon="15.012105752407884"><ele>585.0</ele><time>2026-05-01T18:17:53Z</time></trkpt><trkpt lat="47.33673800867131" lon="15.011648655695017"><ele>585.5</ele><time>2026-05-01T18:17:54Z</time></trkpt><trkpt lat="47.33673634940091" lon="15.011190419682348"><ele>586.0</ele><time>2026-05-01T18:17:55Z</time></trkpt><trkpt lat="47.33673663452745" lon="15.010732984603628"><ele>586.0</ele><time>2026-05-01T18:17:56Z</time></trkpt><trkpt lat="47.33673762281509" lon="15.010275070134682"><ele>586.0</ele><time>2026-05-01T18:17:57Z</time></trkpt><trkpt lat="47.33673968579007" lon="15.009817666223432"><ele>584.5</ele><time>2026-05-01T18:17:58Z</time></trkpt><trkpt lat="47.336741923560965" lon="15.00935596160268"><ele>583.0</ele><time>2026-05-01T18:17:59Z</time></trkpt><trkpt lat="47.33674132087314" lon="15.0088976194341"><ele>582.0</ele><time>2026-05-01T18:18:00Z</time></trkpt><trkpt lat="47.336731553804654" lon="15.008446379310497"><ele>581.0</ele><time>2026-05-01T18:18:01Z</time></trkpt><trkpt lat="47.33673036288795" lon="15.007995630259602"><ele>581.0</ele><time>2026-05-01T18:18:02Z</time></trkpt><trkpt lat="47.3367289578899" lon="15.007545618441576"><ele>581.0</ele><time>2026-05-01T18:18:03Z</time></trkpt><trkpt lat="47.33672533796487" lon="15.007094701649637"><ele>578.5</ele><time>2026-05-01T18:18:04Z</time></trkpt><trkpt lat="47.33672395126409" lon="15.006637936923516"><ele>576.0</ele><time>2026-05-01T18:18:05Z</time></trkpt><trkpt lat="47.336724204548496" lon="15.006189505551236"><ele>574.5</ele><time>2026-05-01T18:18:06Z</time></trkpt><trkpt lat="47.33672412576895" lon="15.005737884203201"><ele>573.0</ele><time>2026-05-01T18:18:07Z</time></trkpt><trkpt lat="47.336720765900424" lon="15.005291917937855"><ele>572.5</ele><time>2026-05-01T18:18:08Z</time></trkpt><trkpt lat="47.33671881013639" lon="15.004838776314106"><ele>572.0</ele><time>2026-05-01T18:18:09Z</time></trkpt><trkpt lat="47.33671805071416" lon="15.00438702424207"><ele>571.0</ele><time>2026-05-01T18:18:10Z</time></trkpt><trkpt lat="47.33671807534396" lon="15.003936091943645"><ele>570.0</ele><time>2026-05-01T18:18:11Z</time></trkpt><trkpt lat="47.336718998288" lon="15.003485267287983"><ele>570.0</ele><time>2026-05-01T18:18:12Z</time></trkpt><trkpt lat="47.336719744759904" lon="15.003035250498435"><ele>570.0</ele><time>2026-05-01T18:18:13Z</time></trkpt><trkpt lat="47.336720509124596" lon="15.002586213498605"><ele>570.5</ele><time>2026-05-01T18:18:14Z</time></trkpt><trkpt lat="47.33671829901503" lon="15.002136232228807"><ele>571.0</ele><time>2026-05-01T18:18:15Z</time></trkpt><trkpt lat="47.336714321498036" lon="15.001685234430713"><ele>570.5</ele><time>2026-05-01T18:18:16Z</time></trkpt><trkpt lat="47.33671189871643" lon="15.001231933317626"><ele>570.0</ele><time>2026-05-01T18:18:17Z</time></trkpt><trkpt lat="47.336710672538224" lon="15.000778053108702"><ele>569.0</ele><time>2026-05-01T18:18:18Z</time></trkpt><trkpt lat="47.336709595925065" lon="15.000323384697435"><ele>568.0</ele><time>2026-05-01T18:18:19Z</time></trkpt><trkpt lat="47.336707543129855" lon="14.999869710884628"><ele>568.0</ele><time>2026-05-01T18:18:20Z</time></trkpt><trkpt lat="47.336704890276174" lon="14.99941608257042"><ele>568.0</ele><time>2026-05-01T18:18:21Z</time></trkpt><trkpt lat="47.336701693622864" lon="14.998963137913378"><ele>568.5</ele><time>2026-05-01T18:18:22Z</time></trkpt><trkpt lat="47.33669546453204" lon="14.998511200257067"><ele>569.0</ele><time>2026-05-01T18:18:23Z</time></trkpt><trkpt lat="47.336682139405866" lon="14.99806034007502"><ele>569.0</ele><time>2026-05-01T18:18:24Z</time></trkpt><trkpt lat="47.33665661730943" lon="14.997612047871597"><ele>569.0</ele><time>2026-05-01T18:18:25Z</time></trkpt><trkpt lat="47.33661944916911" lon="14.9971633440257"><ele>569.0</ele><time>2026-05-01T18:18:26Z</time></trkpt><trkpt lat="47.33657061050757" lon="14.996714005223259"><ele>569.0</ele><time>2026-05-01T18:18:27Z</time></trkpt><trkpt lat="47.33651265640103" lon="14.996264889167161"><ele>569.0</ele><time>2026-05-01T18:18:28Z</time></trkpt><trkpt lat="47.33644447425023" lon="14.995820644676078"><ele>569.0</ele><time>2026-05-01T18:18:29Z</time></trkpt><trkpt lat="47.33636700988854" lon="14.995377499847075"><ele>569.0</ele><time>2026-05-01T18:18:30Z</time></trkpt><trkpt lat="47.336279530546896" lon="14.994938055092234"><ele>569.0</ele><time>2026-05-01T18:18:31Z</time></trkpt><trkpt lat="47.33618666825443" lon="14.994500641763418"><ele>569.0</ele><time>2026-05-01T18:18:32Z</time></trkpt><trkpt lat="47.336091455082574" lon="14.99406404907507"><ele>569.0</ele><time>2026-05-01T18:18:33Z</time></trkpt><trkpt lat="47.33599585174718" lon="14.993628684797592"><ele>569.0</ele><time>2026-05-01T18:18:34Z</time></trkpt><trkpt lat="47.3359003907449" lon="14.993193891234217"><ele>569.0</ele><time>2026-05-01T18:18:35Z</time></trkpt><trkpt lat="47.335807376017904" lon="14.992758928275508"><ele>570.5</ele><time>2026-05-01T18:18:36Z</time></trkpt><trkpt lat="47.33571681808156" lon="14.992324118290998"><ele>572.0</ele><time>2026-05-01T18:18:37Z</time></trkpt><trkpt lat="47.33562823797595" lon="14.991889191850467"><ele>571.0</ele><time>2026-05-01T18:18:38Z</time></trkpt><trkpt lat="47.335540289256706" lon="14.991453947388134"><ele>570.0</ele><time>2026-05-01T18:18:39Z</time></trkpt><trkpt lat="47.335455470301405" lon="14.991017939546769"><ele>571.0</ele><time>2026-05-01T18:18:40Z</time></trkpt><trkpt lat="47.335375595565715" lon="14.990581628116534"><ele>572.0</ele><time>2026-05-01T18:18:41Z</time></trkpt><trkpt lat="47.335300406759245" lon="14.990142788679092"><ele>573.5</ele><time>2026-05-01T18:18:42Z</time></trkpt><trkpt lat="47.33522707168336" lon="14.989703084166473"><ele>575.0</ele><time>2026-05-01T18:18:43Z</time></trkpt><trkpt lat="47.335153945907884" lon="14.989264679615282"><ele>575.5</ele><time>2026-05-01T18:18:44Z</time></trkpt><trkpt lat="47.335078977440375" lon="14.988827304480223"><ele>576.0</ele><time>2026-05-01T18:18:45Z</time></trkpt><trkpt lat="47.33500212811846" lon="14.98839102317068"><ele>578.0</ele><time>2026-05-01T18:18:46Z</time></trkpt><trkpt lat="47.33492564084793" lon="14.987954784935722"><ele>580.0</ele><time>2026-05-01T18:18:47Z</time></trkpt><trkpt lat="47.334849730629024" lon="14.987519132530144"><ele>583.5</ele><time>2026-05-01T18:18:48Z</time></trkpt><trkpt lat="47.33477352768387" lon="14.987085313742169"><ele>587.0</ele><time>2026-05-01T18:18:49Z</time></trkpt><trkpt lat="47.33469826978414" lon="14.986659182017414"><ele>581.5</ele><time>2026-05-01T18:18:50Z</time></trkpt><trkpt lat="47.3346246939629" lon="14.98625581985475"><ele>576.0</ele><time>2026-05-01T18:18:51Z</time></trkpt><trkpt lat="47.33454568364039" lon="14.985837009521886"><ele>576.0</ele><time>2026-05-01T18:18:52Z</time></trkpt><trkpt lat="47.334456394130505" lon="14.985415263182942"><ele>576.0</ele><time>2026-05-01T18:18:53Z</time></trkpt><trkpt lat="47.33435221055916" lon="14.984994487180371"><ele>577.5</ele><time>2026-05-01T18:18:54Z</time></trkpt><trkpt lat="47.33423337580892" lon="14.984577317101872"><ele>579.0</ele><time>2026-05-01T18:18:55Z</time></trkpt><trkpt lat="47.33410098105586" lon="14.984164834572477"><ele>581.5</ele><time>2026-05-01T18:18:56Z</time></trkpt><trkpt lat="47.33395778057752" lon="14.983758745691041"><ele>584.0</ele><time>2026-05-01T18:18:57Z</time></trkpt><trkpt lat="47.33380471460995" lon="14.983359204572498"><ele>580.5</ele><time>2026-05-01T18:18:58Z</time></trkpt><trkpt lat="47.33364358570972" lon="14.982966048425638"><ele>577.0</ele><time>2026-05-01T18:18:59Z</time></trkpt><trkpt lat="47.33347502358081" lon="14.98257950386876"><ele>577.0</ele><time>2026-05-01T18:19:00Z</time></trkpt><trkpt lat="47.33330035829414" lon="14.982198331763716"><ele>577.0</ele><time>2026-05-01T18:19:01Z</time></trkpt><trkpt lat="47.33311976517701" lon="14.981822979133394"><ele>576.0</ele><time>2026-05-01T18:19:02Z</time></trkpt><trkpt lat="47.332934928014915" lon="14.981453186385595"><ele>575.0</ele><time>2026-05-01T18:19:03Z</time></trkpt><trkpt lat="47.33274569986674" lon="14.981091052283645"><ele>575.5</ele><time>2026-05-01T18:19:04Z</time></trkpt><trkpt lat="47.332551629566936" lon="14.980734813370923"><ele>576.0</ele><time>2026-05-01T18:19:05Z</time></trkpt><trkpt lat="47.33235313064276" lon="14.980383918914537"><ele>575.5</ele><time>2026-05-01T18:19:06Z</time></trkpt><trkpt lat="47.33215035031219" lon="14.980038564021047"><ele>575.0</ele><time>2026-05-01T18:19:07Z</time></trkpt><trkpt lat="47.33194325848111" lon="14.979699948312179"><ele>575.0</ele><time>2026-05-01T18:19:08Z</time></trkpt><trkpt lat="47.33173153172876" lon="14.979367596211329"><ele>575.0</ele><time>2026-05-01T18:19:09Z</time></trkpt><trkpt lat="47.331515798123384" lon="14.979041159067837"><ele>573.5</ele><time>2026-05-01T18:19:10Z</time></trkpt><trkpt lat="47.33129867653004" lon="14.978717977552991"><ele>572.0</ele><time>2026-05-01T18:19:11Z</time></trkpt><trkpt lat="47.33107949491404" lon="14.978397362895244"><ele>573.0</ele><time>2026-05-01T18:19:12Z</time></trkpt><trkpt lat="47.33085878706136" lon="14.978080240344633"><ele>574.0</ele><time>2026-05-01T18:19:13Z</time></trkpt><trkpt lat="47.33063664821141" lon="14.977765849093254"><ele>574.0</ele><time>2026-05-01T18:19:14Z</time></trkpt><trkpt lat="47.330412802405256" lon="14.977454127073633"><ele>574.0</ele><time>2026-05-01T18:19:15Z</time></trkpt><trkpt lat="47.33018756751229" lon="14.977146520227878"><ele>574.0</ele><time>2026-05-01T18:19:16Z</time></trkpt><trkpt lat="47.32996034167358" lon="14.976841355243922"><ele>574.0</ele><time>2026-05-01T18:19:17Z</time></trkpt><trkpt lat="47.329731596728394" lon="14.976538577596612"><ele>573.0</ele><time>2026-05-01T18:19:18Z</time></trkpt><trkpt lat="47.32950393595326" lon="14.97623596481962"><ele>572.0</ele><time>2026-05-01T18:19:19Z</time></trkpt><trkpt lat="47.329276653434334" lon="14.975932917195667"><ele>572.5</ele><time>2026-05-01T18:19:20Z</time></trkpt><trkpt lat="47.329050377306" lon="14.975629593189577"><ele>573.0</ele><time>2026-05-01T18:19:21Z</time></trkpt><trkpt lat="47.328821241667896" lon="14.975334196265834"><ele>573.0</ele><time>2026-05-01T18:19:22Z</time></trkpt><trkpt lat="47.32858455204593" lon="14.97505179691993"><ele>573.0</ele><time>2026-05-01T18:19:23Z</time></trkpt><trkpt lat="47.3283394339484" lon="14.974783231208367"><ele>573.5</ele><time>2026-05-01T18:19:24Z</time></trkpt><trkpt lat="47.328085566635686" lon="14.974533108737829"><ele>574.0</ele><time>2026-05-01T18:19:25Z</time></trkpt><trkpt lat="47.32782347887719" lon="14.974302935812112"><ele>575.5</ele><time>2026-05-01T18:19:26Z</time></trkpt><trkpt lat="47.32755442380845" lon="14.974090646023805"><ele>577.0</ele><time>2026-05-01T18:19:27Z</time></trkpt><trkpt lat="47.32727783384593" lon="14.97389757093056"><ele>576.5</ele><time>2026-05-01T18:19:28Z</time></trkpt><trkpt lat="47.32699403842477" lon="14.973729153658"><ele>576.0</ele><time>2026-05-01T18:19:29Z</time></trkpt><trkpt lat="47.3267018102307" lon="14.973580694830561"><ele>576.0</ele><time>2026-05-01T18:19:30Z</time></trkpt><trkpt lat="47.326405713687116" lon="14.973442301375686"><ele>576.0</ele><time>2026-05-01T18:19:31Z</time></trkpt><trkpt lat="47.32610795405506" lon="14.973309232207926"><ele>577.0</ele><time>2026-05-01T18:19:32Z</time></trkpt><trkpt lat="47.3258101016417" lon="14.973179537507027"><ele>578.0</ele><time>2026-05-01T18:19:33Z</time></trkpt><trkpt lat="47.32551286905315" lon="14.973046725716332"><ele>578.0</ele><time>2026-05-01T18:19:34Z</time></trkpt><trkpt lat="47.325218452251825" lon="14.972903819219125"><ele>578.0</ele><time>2026-05-01T18:19:35Z</time></trkpt><trkpt lat="47.32492875707433" lon="14.972742606917492"><ele>578.5</ele><time>2026-05-01T18:19:36Z</time></trkpt><trkpt lat="47.3246449642609" lon="14.972560278857738"><ele>579.0</ele><time>2026-05-01T18:19:37Z</time></trkpt><trkpt lat="47.32436607394029" lon="14.972359516846558"><ele>579.0</ele><time>2026-05-01T18:19:38Z</time></trkpt><trkpt lat="47.324094250187976" lon="14.972138138104173"><ele>579.0</ele><time>2026-05-01T18:19:39Z</time></trkpt><trkpt lat="47.323832688813745" lon="14.971893357849714"><ele>579.5</ele><time>2026-05-01T18:19:40Z</time></trkpt><trkpt lat="47.323576985551156" lon="14.971629974420058"><ele>580.0</ele><time>2026-05-01T18:19:41Z</time></trkpt><trkpt lat="47.32329965137327" lon="14.971435712706873"><ele>580.0</ele><time>2026-05-01T18:19:42Z</time></trkpt><trkpt lat="47.32308782375102" lon="14.971053804379906"><ele>580.0</ele><time>2026-05-01T18:19:43Z</time></trkpt><trkpt lat="47.322859549665445" lon="14.97073620056047"><ele>578.5</ele><time>2026-05-01T18:19:44Z</time></trkpt><trkpt lat="47.32264261078698" lon="14.970399225291386"><ele>577.0</ele><time>2026-05-01T18:19:45Z</time></trkpt><trkpt lat="47.32243748496265" lon="14.970043392415233"><ele>576.5</ele><time>2026-05-01T18:19:46Z</time></trkpt><trkpt lat="47.32224259907288" lon="14.969674195036365"><ele>576.0</ele><time>2026-05-01T18:19:47Z</time></trkpt><trkpt lat="47.322057062692636" lon="14.969293533346887"><ele>575.5</ele><time>2026-05-01T18:19:48Z</time></trkpt><trkpt lat="47.32188295634251" lon="14.968899528852488"><ele>575.0</ele><time>2026-05-01T18:19:49Z</time></trkpt><trkpt lat="47.321723159489004" lon="14.968492195488492"><ele>575.0</ele><time>2026-05-01T18:19:50Z</time></trkpt><trkpt lat="47.321572984796845" lon="14.968075179476324"><ele>575.0</ele><time>2026-05-01T18:19:51Z</time></trkpt><trkpt lat="47.32142288446834" lon="14.967656461367824"><ele>574.5</ele><time>2026-05-01T18:19:52Z</time></trkpt><trkpt lat="47.321268262196014" lon="14.967239322753086"><ele>574.0</ele><time>2026-05-01T18:19:53Z</time></trkpt><trkpt lat="47.32110918933245" lon="14.966824600307024"><ele>574.0</ele><time>2026-05-01T18:19:54Z</time></trkpt><trkpt lat="47.32094749510208" lon="14.966412033144083"><ele>574.0</ele><time>2026-05-01T18:19:55Z</time></trkpt><trkpt lat="47.320783053714344" lon="14.966001743708114"><ele>574.5</ele><time>2026-05-01T18:19:56Z</time></trkpt><trkpt lat="47.32061849849741" lon="14.96559286451633"><ele>575.0</ele><time>2026-05-01T18:19:57Z</time></trkpt><trkpt lat="47.32045372449059" lon="14.965186149172492"><ele>576.5</ele><time>2026-05-01T18:19:58Z</time></trkpt><trkpt lat="47.32029074139205" lon="14.964785802501474"><ele>578.0</ele><time>2026-05-01T18:19:59Z</time></trkpt><trkpt lat="47.320138245269355" lon="14.964407024485583"><ele>577.5</ele><time>2026-05-01T18:20:00Z</time></trkpt><trkpt lat="47.319990331988826" lon="14.96403470066447"><ele>577.0</ele><time>2026-05-01T18:20:01Z</time></trkpt><trkpt lat="47.3198394061909" lon="14.963649316880058"><ele>576.5</ele><time>2026-05-01T18:20:02Z</time></trkpt><trkpt lat="47.31968750322482" lon="14.963262422179751"><ele>576.0</ele><time>2026-05-01T18:20:03Z</time></trkpt><trkpt lat="47.3195341751603" lon="14.962875072647815"><ele>575.5</ele><time>2026-05-01T18:20:04Z</time></trkpt><trkpt lat="47.319378647151105" lon="14.962487136012307"><ele>575.0</ele><time>2026-05-01T18:20:05Z</time></trkpt><trkpt lat="47.31922377663737" lon="14.962098648401073"><ele>575.0</ele><time>2026-05-01T18:20:06Z</time></trkpt><trkpt lat="47.31906826275682" lon="14.961712273878966"><ele>575.0</ele><time>2026-05-01T18:20:07Z</time></trkpt><trkpt lat="47.31891227553756" lon="14.961325002931401"><ele>576.0</ele><time>2026-05-01T18:20:08Z</time></trkpt><trkpt lat="47.31875635850865" lon="14.9609408849635"><ele>577.0</ele><time>2026-05-01T18:20:09Z</time></trkpt><trkpt lat="47.31860053230125" lon="14.960556599613815"><ele>577.0</ele><time>2026-05-01T18:20:10Z</time></trkpt><trkpt lat="47.31844528847849" lon="14.960170823170094"><ele>577.0</ele><time>2026-05-01T18:20:11Z</time></trkpt><trkpt lat="47.3182910181516" lon="14.959783645668493"><ele>577.0</ele><time>2026-05-01T18:20:12Z</time></trkpt><trkpt lat="47.31813803884038" lon="14.959397438554639"><ele>577.0</ele><time>2026-05-01T18:20:13Z</time></trkpt><trkpt lat="47.31798449276536" lon="14.959011271282826"><ele>577.0</ele><time>2026-05-01T18:20:14Z</time></trkpt><trkpt lat="47.3178299634371" lon="14.958625197559519"><ele>577.0</ele><time>2026-05-01T18:20:15Z</time></trkpt><trkpt lat="47.317674687434256" lon="14.958240310122285"><ele>577.0</ele><time>2026-05-01T18:20:16Z</time></trkpt><trkpt lat="47.3175180508733" lon="14.957855119002605"><ele>577.0</ele><time>2026-05-01T18:20:17Z</time></trkpt><trkpt lat="47.317361772546334" lon="14.957470866489151"><ele>577.0</ele><time>2026-05-01T18:20:18Z</time></trkpt><trkpt lat="47.31720531755456" lon="14.95708859080301"><ele>577.0</ele><time>2026-05-01T18:20:19Z</time></trkpt><trkpt lat="47.31704795575275" lon="14.956709435472034"><ele>577.5</ele><time>2026-05-01T18:20:20Z</time></trkpt><trkpt lat="47.31688470483989" lon="14.956337180691964"><ele>578.0</ele><time>2026-05-01T18:20:21Z</time></trkpt><trkpt lat="47.31671179766504" lon="14.955972290029184"><ele>579.0</ele><time>2026-05-01T18:20:22Z</time></trkpt><trkpt lat="47.31652960698252" lon="14.955615236806201"><ele>580.0</ele><time>2026-05-01T18:20:23Z</time></trkpt><trkpt lat="47.316337294045276" lon="14.955266971348074"><ele>580.0</ele><time>2026-05-01T18:20:24Z</time></trkpt><trkpt lat="47.31613612967472" lon="14.954927934719471"><ele>580.0</ele><time>2026-05-01T18:20:25Z</time></trkpt><trkpt lat="47.31592629913578" lon="14.954600419091198"><ele>580.0</ele><time>2026-05-01T18:20:26Z</time></trkpt><trkpt lat="47.31570719726202" lon="14.95428382373107"><ele>580.0</ele><time>2026-05-01T18:20:27Z</time></trkpt><trkpt lat="47.31547940013276" lon="14.953979750994543"><ele>579.0</ele><time>2026-05-01T18:20:28Z</time></trkpt><trkpt lat="47.315243747936265" lon="14.953687848890468"><ele>578.0</ele><time>2026-05-01T18:20:29Z</time></trkpt><trkpt lat="47.31500078432907" lon="14.953409850146432"><ele>578.0</ele><time>2026-05-01T18:20:30Z</time></trkpt><trkpt lat="47.314751238093756" lon="14.953146564895489"><ele>578.0</ele><time>2026-05-01T18:20:31Z</time></trkpt><trkpt lat="47.31449706557045" lon="14.952896374922442"><ele>578.0</ele><time>2026-05-01T18:20:32Z</time></trkpt><trkpt lat="47.31423801687687" lon="14.95265853007625"><ele>578.0</ele><time>2026-05-01T18:20:33Z</time></trkpt><trkpt lat="47.3139737498635" lon="14.952435419054856"><ele>579.5</ele><time>2026-05-01T18:20:34Z</time></trkpt><trkpt lat="47.3137054808141" lon="14.952227340996107"><ele>581.0</ele><time>2026-05-01T18:20:35Z</time></trkpt><trkpt lat="47.31343022897156" lon="14.952039653597287"><ele>581.0</ele><time>2026-05-01T18:20:36Z</time></trkpt><trkpt lat="47.313151278324725" lon="14.951865362998014"><ele>581.0</ele><time>2026-05-01T18:20:37Z</time></trkpt><trkpt lat="47.312866890343805" lon="14.951706751957461"><ele>580.5</ele><time>2026-05-01T18:20:38Z</time></trkpt><trkpt lat="47.31258058611528" lon="14.951551074395708"><ele>580.0</ele><time>2026-05-01T18:20:39Z</time></trkpt><trkpt lat="47.3122927459946" lon="14.951400121748026"><ele>579.5</ele><time>2026-05-01T18:20:40Z</time></trkpt><trkpt lat="47.31200474362332" lon="14.951251414252559"><ele>579.0</ele><time>2026-05-01T18:20:41Z</time></trkpt><trkpt lat="47.3117168128336" lon="14.951103295761309"><ele>579.0</ele><time>2026-05-01T18:20:42Z</time></trkpt><trkpt lat="47.31143039794952" lon="14.950957718861687"><ele>579.0</ele><time>2026-05-01T18:20:43Z</time></trkpt><trkpt lat="47.31114531312013" lon="14.95081179168226"><ele>580.0</ele><time>2026-05-01T18:20:44Z</time></trkpt><trkpt lat="47.310860946472474" lon="14.950666103314962"><ele>581.0</ele><time>2026-05-01T18:20:45Z</time></trkpt><trkpt lat="47.31057616311053" lon="14.950522705520841"><ele>580.5</ele><time>2026-05-01T18:20:46Z</time></trkpt><trkpt lat="47.31029064512129" lon="14.950384191593386"><ele>580.0</ele><time>2026-05-01T18:20:47Z</time></trkpt><trkpt lat="47.310004047941725" lon="14.950248183788979"><ele>580.0</ele><time>2026-05-01T18:20:48Z</time></trkpt><trkpt lat="47.30971796513806" lon="14.950111315811245"><ele>580.0</ele><time>2026-05-01T18:20:49Z</time></trkpt><trkpt lat="47.30943221906523" lon="14.949971056450439"><ele>580.0</ele><time>2026-05-01T18:20:50Z</time></trkpt><trkpt lat="47.309147533581616" lon="14.9498260394689"><ele>580.0</ele><time>2026-05-01T18:20:51Z</time></trkpt><trkpt lat="47.30886219412093" lon="14.949677966150817"><ele>580.0</ele><time>2026-05-01T18:20:52Z</time></trkpt><trkpt lat="47.308576657222915" lon="14.949530361518674"><ele>580.0</ele><time>2026-05-01T18:20:53Z</time></trkpt><trkpt lat="47.30829078141217" lon="14.94938384885654"><ele>580.0</ele><time>2026-05-01T18:20:54Z</time></trkpt><trkpt lat="47.30800530968454" lon="14.949234915550086"><ele>580.0</ele><time>2026-05-01T18:20:55Z</time></trkpt><trkpt lat="47.30772150293972" lon="14.94908115042373"><ele>580.0</ele><time>2026-05-01T18:20:56Z</time></trkpt><trkpt lat="47.30744027541403" lon="14.948919621016742"><ele>580.0</ele><time>2026-05-01T18:20:57Z</time></trkpt><trkpt lat="47.307160647858964" lon="14.948760477523168"><ele>581.0</ele><time>2026-05-01T18:20:58Z</time></trkpt><trkpt lat="47.3068800241519" lon="14.948607039782559"><ele>582.0</ele><time>2026-05-01T18:20:59Z</time></trkpt><trkpt lat="47.30659940428076" lon="14.948459795164206"><ele>582.0</ele><time>2026-05-01T18:21:00Z</time></trkpt><trkpt lat="47.30631700968667" lon="14.948314202159223"><ele>582.0</ele><time>2026-05-01T18:21:01Z</time></trkpt><trkpt lat="47.30603504270073" lon="14.948166827296207"><ele>582.0</ele><time>2026-05-01T18:21:02Z</time></trkpt><trkpt lat="47.30575550599401" lon="14.94801433331918"><ele>582.0</ele><time>2026-05-01T18:21:03Z</time></trkpt><trkpt lat="47.30547892992086" lon="14.947852763155197"><ele>582.0</ele><time>2026-05-01T18:21:04Z</time></trkpt><trkpt lat="47.30520762140865" lon="14.947681490267385"><ele>582.0</ele><time>2026-05-01T18:21:05Z</time></trkpt><trkpt lat="47.30493851014673" lon="14.947501825190894"><ele>581.5</ele><time>2026-05-01T18:21:06Z</time></trkpt><trkpt lat="47.304671466622096" lon="14.9473146881389"><ele>581.0</ele><time>2026-05-01T18:21:07Z</time></trkpt><trkpt lat="47.304405919468124" lon="14.947118954195325"><ele>581.0</ele><time>2026-05-01T18:21:08Z</time></trkpt><trkpt lat="47.30414560258756" lon="14.946910083403177"><ele>581.0</ele><time>2026-05-01T18:21:09Z</time></trkpt><trkpt lat="47.303889416475016" lon="14.946689068986801"><ele>583.0</ele><time>2026-05-01T18:21:10Z</time></trkpt><trkpt lat="47.30363507433427" lon="14.946460341883403"><ele>585.0</ele><time>2026-05-01T18:21:11Z</time></trkpt><trkpt lat="47.30338405561407" lon="14.946219494251423"><ele>585.0</ele><time>2026-05-01T18:21:12Z</time></trkpt><trkpt lat="47.303138057543926" lon="14.945971499649447"><ele>585.0</ele><time>2026-05-01T18:21:13Z</time></trkpt><trkpt lat="47.3029034734149" lon="14.9457217587755"><ele>585.0</ele><time>2026-05-01T18:21:14Z</time></trkpt><trkpt lat="47.30267652512761" lon="14.945469467483909"><ele>585.0</ele><time>2026-05-01T18:21:15Z</time></trkpt><trkpt lat="47.302448529316536" lon="14.94520229001329"><ele>584.0</ele><time>2026-05-01T18:21:16Z</time></trkpt><trkpt lat="47.30221995537897" lon="14.944921297885312"><ele>583.0</ele><time>2026-05-01T18:21:17Z</time></trkpt><trkpt lat="47.30199021936522" lon="14.944636759939694"><ele>583.0</ele><time>2026-05-01T18:21:18Z</time></trkpt><trkpt lat="47.301758741567525" lon="14.94435155486514"><ele>583.0</ele><time>2026-05-01T18:21:19Z</time></trkpt><trkpt lat="47.3015260112836" lon="14.944068442152695"><ele>583.0</ele><time>2026-05-01T18:21:20Z</time></trkpt><trkpt lat="47.301293832911874" lon="14.94378602801744"><ele>583.0</ele><time>2026-05-01T18:21:21Z</time></trkpt><trkpt lat="47.30106351683197" lon="14.943502496043946"><ele>584.0</ele><time>2026-05-01T18:21:22Z</time></trkpt><trkpt lat="47.30083528363657" lon="14.943220025396318"><ele>585.0</ele><time>2026-05-01T18:21:23Z</time></trkpt><trkpt lat="47.30060888339716" lon="14.942937472499569"><ele>584.5</ele><time>2026-05-01T18:21:24Z</time></trkpt><trkpt lat="47.300383043535724" lon="14.94265972488949"><ele>584.0</ele><time>2026-05-01T18:21:25Z</time></trkpt><trkpt lat="47.30015609473556" lon="14.942388138472584"><ele>584.0</ele><time>2026-05-01T18:21:26Z</time></trkpt><trkpt lat="47.299926663719226" lon="14.94212329215658"><ele>584.0</ele><time>2026-05-01T18:21:27Z</time></trkpt><trkpt lat="47.29968850024697" lon="14.941874652523232"><ele>585.0</ele><time>2026-05-01T18:21:28Z</time></trkpt><trkpt lat="47.299443847707416" lon="14.941636494779887"><ele>586.0</ele><time>2026-05-01T18:21:29Z</time></trkpt><trkpt lat="47.29918978527976" lon="14.941419247321347"><ele>586.0</ele><time>2026-05-01T18:21:30Z</time></trkpt><trkpt lat="47.298927888869315" lon="14.941220497069272"><ele>586.0</ele><time>2026-05-01T18:21:31Z</time></trkpt><trkpt lat="47.29865975171995" lon="14.941040540108594"><ele>586.5</ele><time>2026-05-01T18:21:32Z</time></trkpt><trkpt lat="47.29838555562148" lon="14.940876435295383"><ele>587.0</ele><time>2026-05-01T18:21:33Z</time></trkpt><trkpt lat="47.298105291399516" lon="14.94073048296285"><ele>587.0</ele><time>2026-05-01T18:21:34Z</time></trkpt><trkpt lat="47.29781962223312" lon="14.940604278676107"><ele>587.0</ele><time>2026-05-01T18:21:35Z</time></trkpt><trkpt lat="47.29753015798849" lon="14.940493707157495"><ele>587.5</ele><time>2026-05-01T18:21:36Z</time></trkpt><trkpt lat="47.29723643077721" lon="14.940405201891902"><ele>588.0</ele><time>2026-05-01T18:21:37Z</time></trkpt><trkpt lat="47.296939693560105" lon="14.940338792845477"><ele>588.0</ele><time>2026-05-01T18:21:38Z</time></trkpt><trkpt lat="47.29664064451667" lon="14.940293216961525"><ele>588.0</ele><time>2026-05-01T18:21:39Z</time></trkpt><trkpt lat="47.29633988393139" lon="14.940269945289318"><ele>587.0</ele><time>2026-05-01T18:21:40Z</time></trkpt><trkpt lat="47.29603801514865" lon="14.940267157620465"><ele>586.0</ele><time>2026-05-01T18:21:41Z</time></trkpt><trkpt lat="47.29573626385493" lon="14.940286043140123"><ele>586.0</ele><time>2026-05-01T18:21:42Z</time></trkpt><trkpt lat="47.29543566697085" lon="14.940325788852675"><ele>586.0</ele><time>2026-05-01T18:21:43Z</time></trkpt><trkpt lat="47.295135244214855" lon="14.94037943303928"><ele>586.0</ele><time>2026-05-01T18:21:44Z</time></trkpt><trkpt lat="47.29483450460267" lon="14.940444575502585"><ele>586.0</ele><time>2026-05-01T18:21:45Z</time></trkpt><trkpt lat="47.29453454448729" lon="14.940513999733863"><ele>586.0</ele><time>2026-05-01T18:21:46Z</time></trkpt><trkpt lat="47.29423462421335" lon="14.940587735582573"><ele>586.0</ele><time>2026-05-01T18:21:47Z</time></trkpt><trkpt lat="47.29393481176712" lon="14.940663394879056"><ele>585.5</ele><time>2026-05-01T18:21:48Z</time></trkpt><trkpt lat="47.29363524528247" lon="14.940737497842546"><ele>585.0</ele><time>2026-05-01T18:21:49Z</time></trkpt><trkpt lat="47.29333708707619" lon="14.940808041047543"><ele>585.5</ele><time>2026-05-01T18:21:50Z</time></trkpt><trkpt lat="47.293039397129846" lon="14.940879472639148"><ele>586.0</ele><time>2026-05-01T18:21:51Z</time></trkpt><trkpt lat="47.292742020500114" lon="14.94095406757801"><ele>585.0</ele><time>2026-05-01T18:21:52Z</time></trkpt><trkpt lat="47.29244487107504" lon="14.941027789045407"><ele>584.0</ele><time>2026-05-01T18:21:53Z</time></trkpt><trkpt lat="47.29214809167861" lon="14.941098091578661"><ele>584.0</ele><time>2026-05-01T18:21:54Z</time></trkpt><trkpt lat="47.291852543182834" lon="14.941165770326258"><ele>584.0</ele><time>2026-05-01T18:21:55Z</time></trkpt><trkpt lat="47.29155697090106" lon="14.941228694928633"><ele>583.5</ele><time>2026-05-01T18:21:56Z</time></trkpt><trkpt lat="47.29126147576739" lon="14.941284156555444"><ele>583.0</ele><time>2026-05-01T18:21:57Z</time></trkpt><trkpt lat="47.290965377476866" lon="14.941335263413754"><ele>583.0</ele><time>2026-05-01T18:21:58Z</time></trkpt><trkpt lat="47.29066853057162" lon="14.941383295883723"><ele>583.0</ele><time>2026-05-01T18:21:59Z</time></trkpt><trkpt lat="47.29037076858127" lon="14.941429360267326"><ele>584.0</ele><time>2026-05-01T18:22:00Z</time></trkpt><trkpt lat="47.290073421413425" lon="14.941476157790348"><ele>585.0</ele><time>2026-05-01T18:22:01Z</time></trkpt><trkpt lat="47.28977473957092" lon="14.941525910641426"><ele>585.0</ele><time>2026-05-01T18:22:02Z</time></trkpt><trkpt lat="47.28947699392124" lon="14.941569650214824"><ele>585.0</ele><time>2026-05-01T18:22:03Z</time></trkpt><trkpt lat="47.28918383940907" lon="14.941599987081483"><ele>585.5</ele><time>2026-05-01T18:22:04Z</time></trkpt><trkpt lat="47.28889800742429" lon="14.941610093077783"><ele>586.0</ele><time>2026-05-01T18:22:05Z</time></trkpt><trkpt lat="47.28860323220155" lon="14.941597571979587"><ele>586.0</ele><time>2026-05-01T18:22:06Z</time></trkpt><trkpt lat="47.28830673773976" lon="14.941560843940243"><ele>586.0</ele><time>2026-05-01T18:22:07Z</time></trkpt><trkpt lat="47.28800941709977" lon="14.941506333297676"><ele>585.5</ele><time>2026-05-01T18:22:08Z</time></trkpt><trkpt lat="47.28771132821099" lon="14.941435073936372"><ele>585.0</ele><time>2026-05-01T18:22:09Z</time></trkpt><trkpt lat="47.287413884365996" lon="14.941343147952777"><ele>586.0</ele><time>2026-05-01T18:22:10Z</time></trkpt><trkpt lat="47.287120955211414" lon="14.94122887220632"><ele>587.0</ele><time>2026-05-01T18:22:11Z</time></trkpt><trkpt lat="47.286831537075024" lon="14.941094120194848"><ele>587.0</ele><time>2026-05-01T18:22:12Z</time></trkpt><trkpt lat="47.28654862244688" lon="14.940939017623302"><ele>587.0</ele><time>2026-05-01T18:22:13Z</time></trkpt><trkpt lat="47.28627227725776" lon="14.940763911438436"><ele>587.0</ele><time>2026-05-01T18:22:14Z</time></trkpt><trkpt lat="47.28600286300001" lon="14.940568955305386"><ele>587.0</ele><time>2026-05-01T18:22:15Z</time></trkpt><trkpt lat="47.2857409775208" lon="14.940356974275858"><ele>586.5</ele><time>2026-05-01T18:22:16Z</time></trkpt><trkpt lat="47.28548764517352" lon="14.940127013832553"><ele>586.0</ele><time>2026-05-01T18:22:17Z</time></trkpt><trkpt lat="47.285241208470005" lon="14.939881345956874"><ele>587.5</ele><time>2026-05-01T18:22:18Z</time></trkpt><trkpt lat="47.28500170398826" lon="14.939621734152725"><ele>589.0</ele><time>2026-05-01T18:22:19Z</time></trkpt><trkpt lat="47.28476701789055" lon="14.93935046144835"><ele>590.5</ele><time>2026-05-01T18:22:20Z</time></trkpt><trkpt lat="47.284536946120824" lon="14.93906953513864"><ele>592.0</ele><time>2026-05-01T18:22:21Z</time></trkpt><trkpt lat="47.28431257852068" lon="14.938776521502048"><ele>592.0</ele><time>2026-05-01T18:22:22Z</time></trkpt><trkpt lat="47.284095204996326" lon="14.938469972889314"><ele>592.0</ele><time>2026-05-01T18:22:23Z</time></trkpt><trkpt lat="47.28388658626594" lon="14.938150506158202"><ele>591.5</ele><time>2026-05-01T18:22:24Z</time></trkpt><trkpt lat="47.283683460758084" lon="14.937819159106445"><ele>591.0</ele><time>2026-05-01T18:22:25Z</time></trkpt><trkpt lat="47.283487157015145" lon="14.937479386408011"><ele>591.0</ele><time>2026-05-01T18:22:26Z</time></trkpt><trkpt lat="47.2833034032342" lon="14.937124637068122"><ele>591.0</ele><time>2026-05-01T18:22:27Z</time></trkpt><trkpt lat="47.283132154969095" lon="14.936757931317969"><ele>589.5</ele><time>2026-05-01T18:22:28Z</time></trkpt><trkpt lat="47.28297394937077" lon="14.936378559796488"><ele>588.0</ele><time>2026-05-01T18:22:29Z</time></trkpt><trkpt lat="47.28282903779177" lon="14.9359876793073"><ele>589.0</ele><time>2026-05-01T18:22:30Z</time></trkpt><trkpt lat="47.282697001602294" lon="14.935586493742102"><ele>590.0</ele><time>2026-05-01T18:22:31Z</time></trkpt><trkpt lat="47.28257870284004" lon="14.935176736845262"><ele>592.0</ele><time>2026-05-01T18:22:32Z</time></trkpt><trkpt lat="47.282471419842565" lon="14.934759768410343"><ele>594.0</ele><time>2026-05-01T18:22:33Z</time></trkpt><trkpt lat="47.28237250800966" lon="14.934337737840357"><ele>590.5</ele><time>2026-05-01T18:22:34Z</time></trkpt><trkpt lat="47.28227862473472" lon="14.93391160291273"><ele>587.0</ele><time>2026-05-01T18:22:35Z</time></trkpt><trkpt lat="47.28218874344929" lon="14.93348326990579"><ele>586.5</ele><time>2026-05-01T18:22:36Z</time></trkpt><trkpt lat="47.28210256023138" lon="14.933052339662297"><ele>586.0</ele><time>2026-05-01T18:22:37Z</time></trkpt><trkpt lat="47.282018955863855" lon="14.932619723537954"><ele>587.0</ele><time>2026-05-01T18:22:38Z</time></trkpt><trkpt lat="47.28193588906279" lon="14.932187409838878"><ele>588.0</ele><time>2026-05-01T18:22:39Z</time></trkpt><trkpt lat="47.28185052497321" lon="14.93175544262811"><ele>588.0</ele><time>2026-05-01T18:22:40Z</time></trkpt><trkpt lat="47.281765026133876" lon="14.93132415267588"><ele>588.0</ele><time>2026-05-01T18:22:41Z</time></trkpt><trkpt lat="47.281679838748936" lon="14.930892290858962"><ele>589.5</ele><time>2026-05-01T18:22:42Z</time></trkpt><trkpt lat="47.2815956621272" lon="14.930459951446142"><ele>591.0</ele><time>2026-05-01T18:22:43Z</time></trkpt><trkpt lat="47.28151141690951" lon="14.930026614411247"><ele>588.5</ele><time>2026-05-01T18:22:44Z</time></trkpt><trkpt lat="47.28142699449642" lon="14.929592491057338"><ele>586.0</ele><time>2026-05-01T18:22:45Z</time></trkpt><trkpt lat="47.28134231236208" lon="14.929158715472235"><ele>586.0</ele><time>2026-05-01T18:22:46Z</time></trkpt><trkpt lat="47.281257113452234" lon="14.928723983932072"><ele>586.0</ele><time>2026-05-01T18:22:47Z</time></trkpt><trkpt lat="47.28117271604087" lon="14.928288812492507"><ele>587.0</ele><time>2026-05-01T18:22:48Z</time></trkpt><trkpt lat="47.28108969522001" lon="14.927853899835148"><ele>588.0</ele><time>2026-05-01T18:22:49Z</time></trkpt><trkpt lat="47.28100545297267" lon="14.927420128462288"><ele>589.0</ele><time>2026-05-01T18:22:50Z</time></trkpt><trkpt lat="47.280919853687735" lon="14.926988073023578"><ele>590.0</ele><time>2026-05-01T18:22:51Z</time></trkpt><trkpt lat="47.28083164070024" lon="14.926559216147052"><ele>591.5</ele><time>2026-05-01T18:22:52Z</time></trkpt><trkpt lat="47.280737967377846" lon="14.926133456571336"><ele>593.0</ele><time>2026-05-01T18:22:53Z</time></trkpt><trkpt lat="47.28063805109107" lon="14.925709492744128"><ele>591.5</ele><time>2026-05-01T18:22:54Z</time></trkpt><trkpt lat="47.28053408517684" lon="14.925283856231871"><ele>590.0</ele><time>2026-05-01T18:22:55Z</time></trkpt><trkpt lat="47.280428239033895" lon="14.924858438553866"><ele>590.0</ele><time>2026-05-01T18:22:56Z</time></trkpt><trkpt lat="47.28032115705412" lon="14.924432466224284"><ele>590.0</ele><time>2026-05-01T18:22:57Z</time></trkpt><trkpt lat="47.280212026047934" lon="14.924008408608204"><ele>590.0</ele><time>2026-05-01T18:22:58Z</time></trkpt><trkpt lat="47.28009929902195" lon="14.923587083041648"><ele>590.0</ele><time>2026-05-01T18:22:59Z</time></trkpt><trkpt lat="47.2799828677433" lon="14.923167427391512"><ele>589.5</ele><time>2026-05-01T18:23:00Z</time></trkpt><trkpt lat="47.27986160110387" lon="14.922752307106169"><ele>589.0</ele><time>2026-05-01T18:23:01Z</time></trkpt><trkpt lat="47.27973634183048" lon="14.922340078454841"><ele>589.0</ele><time>2026-05-01T18:23:02Z</time></trkpt><trkpt lat="47.27960912846099" lon="14.92193125625259"><ele>589.0</ele><time>2026-05-01T18:23:03Z</time></trkpt><trkpt lat="47.27947931112631" lon="14.921526867142655"><ele>589.5</ele><time>2026-05-01T18:23:04Z</time></trkpt><trkpt lat="47.27934617307586" lon="14.921128625347713"><ele>590.0</ele><time>2026-05-01T18:23:05Z</time></trkpt><trkpt lat="47.279208661864615" lon="14.920737817544884"><ele>589.0</ele><time>2026-05-01T18:23:06Z</time></trkpt><trkpt lat="47.279064814141094" lon="14.920354144653356"><ele>588.0</ele><time>2026-05-01T18:23:07Z</time></trkpt><trkpt lat="47.27891382205296" lon="14.919977769897507"><ele>588.0</ele><time>2026-05-01T18:23:08Z</time></trkpt><trkpt lat="47.27875297754057" lon="14.919611376098773"><ele>588.0</ele><time>2026-05-01T18:23:09Z</time></trkpt><trkpt lat="47.27858034101492" lon="14.919257266929879"><ele>591.5</ele><time>2026-05-01T18:23:10Z</time></trkpt><trkpt lat="47.2783964085424" lon="14.918914240386147"><ele>595.0</ele><time>2026-05-01T18:23:11Z</time></trkpt><trkpt lat="47.27820026396091" lon="14.91858614749334"><ele>594.0</ele><time>2026-05-01T18:23:12Z</time></trkpt><trkpt lat="47.27799426783664" lon="14.918270101080939"><ele>593.0</ele><time>2026-05-01T18:23:13Z</time></trkpt><trkpt lat="47.27777984852788" lon="14.917969480410651"><ele>593.0</ele><time>2026-05-01T18:23:14Z</time></trkpt><trkpt lat="47.27755533888021" lon="14.917681988585233"><ele>593.0</ele><time>2026-05-01T18:23:15Z</time></trkpt><trkpt lat="47.27732046346757" lon="14.917412368347009"><ele>591.0</ele><time>2026-05-01T18:23:16Z</time></trkpt><trkpt lat="47.277076275203015" lon="14.917158161899257"><ele>589.0</ele><time>2026-05-01T18:23:17Z</time></trkpt><trkpt lat="47.27682341903105" lon="14.91691941845051"><ele>589.0</ele><time>2026-05-01T18:23:18Z</time></trkpt><trkpt lat="47.27656357613799" lon="14.916694902189695"><ele>589.0</ele><time>2026-05-01T18:23:19Z</time></trkpt><trkpt lat="47.27629846283486" lon="14.916481002245817"><ele>589.0</ele><time>2026-05-01T18:23:20Z</time></trkpt><trkpt lat="47.27602969565926" lon="14.916274958565106"><ele>589.0</ele><time>2026-05-01T18:23:21Z</time></trkpt><trkpt lat="47.2757579255104" lon="14.916072490464886"><ele>590.5</ele><time>2026-05-01T18:23:22Z</time></trkpt><trkpt lat="47.275483083621396" lon="14.91587330151475"><ele>592.0</ele><time>2026-05-01T18:23:23Z</time></trkpt><trkpt lat="47.27520684594982" lon="14.915675882804845"><ele>592.0</ele><time>2026-05-01T18:23:24Z</time></trkpt><trkpt lat="47.27492907627658" lon="14.91548094374541"><ele>592.0</ele><time>2026-05-01T18:23:25Z</time></trkpt><trkpt lat="47.27465178035222" lon="14.915283881334556"><ele>591.5</ele><time>2026-05-01T18:23:26Z</time></trkpt><trkpt lat="47.27437691115552" lon="14.915085161819961"><ele>591.0</ele><time>2026-05-01T18:23:27Z</time></trkpt><trkpt lat="47.274104199156966" lon="14.914884059071298"><ele>592.0</ele><time>2026-05-01T18:23:28Z</time></trkpt><trkpt lat="47.273833833265854" lon="14.91468083736348"><ele>593.0</ele><time>2026-05-01T18:23:29Z</time></trkpt><trkpt lat="47.27356568992019" lon="14.91447542560078"><ele>593.0</ele><time>2026-05-01T18:23:30Z</time></trkpt><trkpt lat="47.27330006925523" lon="14.914267608232478"><ele>593.0</ele><time>2026-05-01T18:23:31Z</time></trkpt><trkpt lat="47.27303570196019" lon="14.91406089001155"><ele>593.0</ele><time>2026-05-01T18:23:32Z</time></trkpt><trkpt lat="47.27277093028061" lon="14.913857157002186"><ele>593.0</ele><time>2026-05-01T18:23:33Z</time></trkpt><trkpt lat="47.272506218592355" lon="14.913651556936404"><ele>591.0</ele><time>2026-05-01T18:23:34Z</time></trkpt><trkpt lat="47.272242935128475" lon="14.91344360248907"><ele>589.0</ele><time>2026-05-01T18:23:35Z</time></trkpt><trkpt lat="47.271981771050896" lon="14.91323693802865"><ele>589.0</ele><time>2026-05-01T18:23:36Z</time></trkpt><trkpt lat="47.27172557604798" lon="14.913034843840727"><ele>589.0</ele><time>2026-05-01T18:23:37Z</time></trkpt><trkpt lat="47.27148054563951" lon="14.912844139150877"><ele>588.5</ele><time>2026-05-01T18:23:38Z</time></trkpt><trkpt lat="47.271224127034436" lon="14.912648828668305"><ele>588.0</ele><time>2026-05-01T18:23:39Z</time></trkpt><trkpt lat="47.27095814181244" lon="14.912460997252992"><ele>589.0</ele><time>2026-05-01T18:23:40Z</time></trkpt><trkpt lat="47.27068485984827" lon="14.91228258793362"><ele>590.0</ele><time>2026-05-01T18:23:41Z</time></trkpt><trkpt lat="47.27040630969651" lon="14.912115365678071"><ele>590.0</ele><time>2026-05-01T18:23:42Z</time></trkpt><trkpt lat="47.27012390004129" lon="14.91196097194275"><ele>590.0</ele><time>2026-05-01T18:23:43Z</time></trkpt><trkpt lat="47.269837335009335" lon="14.911819789994112"><ele>589.5</ele><time>2026-05-01T18:23:44Z</time></trkpt><trkpt lat="47.26954677637639" lon="14.91169386927659"><ele>589.0</ele><time>2026-05-01T18:23:45Z</time></trkpt><trkpt lat="47.269251320699155" lon="14.911583494649731"><ele>589.0</ele><time>2026-05-01T18:23:46Z</time></trkpt><trkpt lat="47.268953595697276" lon="14.911488633985188"><ele>589.0</ele><time>2026-05-01T18:23:47Z</time></trkpt><trkpt lat="47.26865347045191" lon="14.911400284631886"><ele>590.0</ele><time>2026-05-01T18:23:48Z</time></trkpt><trkpt lat="47.26835276000149" lon="14.911313789152757"><ele>591.0</ele><time>2026-05-01T18:23:49Z</time></trkpt><trkpt lat="47.26805543396778" lon="14.91122621901587"><ele>591.5</ele><time>2026-05-01T18:23:50Z</time></trkpt><trkpt lat="47.26776074734982" lon="14.911145274946236"><ele>592.0</ele><time>2026-05-01T18:23:51Z</time></trkpt><trkpt lat="47.26746895585944" lon="14.911055735205643"><ele>593.0</ele><time>2026-05-01T18:23:52Z</time></trkpt><trkpt lat="47.26718024589315" lon="14.910952317664037"><ele>594.0</ele><time>2026-05-01T18:23:53Z</time></trkpt><trkpt lat="47.26689213241304" lon="14.910835960981807"><ele>594.0</ele><time>2026-05-01T18:23:54Z</time></trkpt><trkpt lat="47.266603596701906" lon="14.910708702912784"><ele>594.0</ele><time>2026-05-01T18:23:55Z</time></trkpt><trkpt lat="47.26631382788421" lon="14.910572313539088"><ele>594.0</ele><time>2026-05-01T18:23:56Z</time></trkpt><trkpt lat="47.26602517417952" lon="14.910424527693525"><ele>594.0</ele><time>2026-05-01T18:23:57Z</time></trkpt><trkpt lat="47.26573825769462" lon="14.910265691131631"><ele>594.5</ele><time>2026-05-01T18:23:58Z</time></trkpt><trkpt lat="47.26545363167102" lon="14.910097066169048"><ele>595.0</ele><time>2026-05-01T18:23:59Z</time></trkpt><trkpt lat="47.265170624557406" lon="14.909919594814511"><ele>595.0</ele><time>2026-05-01T18:24:00Z</time></trkpt><trkpt lat="47.26489167139532" lon="14.909731768312215"><ele>595.0</ele><time>2026-05-01T18:24:01Z</time></trkpt><trkpt lat="47.26461754362183" lon="14.90952918026126"><ele>594.5</ele><time>2026-05-01T18:24:02Z</time></trkpt><trkpt lat="47.264348421243746" lon="14.909316358928653"><ele>594.0</ele><time>2026-05-01T18:24:03Z</time></trkpt><trkpt lat="47.26408338590347" lon="14.909093859039452"><ele>596.0</ele><time>2026-05-01T18:24:04Z</time></trkpt><trkpt lat="47.263823621206285" lon="14.90885977604532"><ele>598.0</ele><time>2026-05-01T18:24:05Z</time></trkpt><trkpt lat="47.26357060928928" lon="14.90861359242278"><ele>598.0</ele><time>2026-05-01T18:24:06Z</time></trkpt><trkpt lat="47.26332306946908" lon="14.908356286170912"><ele>598.0</ele><time>2026-05-01T18:24:07Z</time></trkpt><trkpt lat="47.26307732230291" lon="14.908095341949087"><ele>598.0</ele><time>2026-05-01T18:24:08Z</time></trkpt><trkpt lat="47.26283524786083" lon="14.907827927448196"><ele>598.0</ele><time>2026-05-01T18:24:09Z</time></trkpt><trkpt lat="47.262600704013515" lon="14.90754882958798"><ele>599.0</ele><time>2026-05-01T18:24:10Z</time></trkpt><trkpt lat="47.262373235814074" lon="14.90725781042415"><ele>600.0</ele><time>2026-05-01T18:24:11Z</time></trkpt><trkpt lat="47.26215174399196" lon="14.906958381926778"><ele>600.5</ele><time>2026-05-01T18:24:12Z</time></trkpt><trkpt lat="47.261930842510466" lon="14.90665365741541"><ele>601.0</ele><time>2026-05-01T18:24:13Z</time></trkpt><trkpt lat="47.26171201048779" lon="14.906344447009364"><ele>601.0</ele><time>2026-05-01T18:24:14Z</time></trkpt><trkpt lat="47.26149691025771" lon="14.906027130671204"><ele>601.0</ele><time>2026-05-01T18:24:15Z</time></trkpt><trkpt lat="47.26128736465774" lon="14.905701095161257"><ele>601.0</ele><time>2026-05-01T18:24:16Z</time></trkpt><trkpt lat="47.26108055530116" lon="14.905369908644433"><ele>601.0</ele><time>2026-05-01T18:24:17Z</time></trkpt><trkpt lat="47.2608764607258" lon="14.905033016293302"><ele>601.0</ele><time>2026-05-01T18:24:18Z</time></trkpt><trkpt lat="47.26067587249711" lon="14.904693404938403"><ele>601.0</ele><time>2026-05-01T18:24:19Z</time></trkpt><trkpt lat="47.26047675864829" lon="14.904348971609943"><ele>600.5</ele><time>2026-05-01T18:24:20Z</time></trkpt><trkpt lat="47.26027896821655" lon="14.904000336131302"><ele>600.0</ele><time>2026-05-01T18:24:21Z</time></trkpt><trkpt lat="47.26008402936755" lon="14.903645911624373"><ele>600.0</ele><time>2026-05-01T18:24:22Z</time></trkpt><trkpt lat="47.25989333830776" lon="14.903288215154426"><ele>600.0</ele><time>2026-05-01T18:24:23Z</time></trkpt><trkpt lat="47.25970706410959" lon="14.902923525147925"><ele>600.0</ele><time>2026-05-01T18:24:24Z</time></trkpt><trkpt lat="47.259522285676574" lon="14.902556014500684"><ele>600.0</ele><time>2026-05-01T18:24:25Z</time></trkpt><trkpt lat="47.25934118075414" lon="14.90218433538922"><ele>600.0</ele><time>2026-05-01T18:24:26Z</time></trkpt><trkpt lat="47.259165235197486" lon="14.901809569000743"><ele>600.0</ele><time>2026-05-01T18:24:27Z</time></trkpt><trkpt lat="47.25899279709064" lon="14.901432374158382"><ele>602.0</ele><time>2026-05-01T18:24:28Z</time></trkpt><trkpt lat="47.25882198421131" lon="14.901054011793798"><ele>604.0</ele><time>2026-05-01T18:24:29Z</time></trkpt><trkpt lat="47.25865412439746" lon="14.900672739470703"><ele>604.0</ele><time>2026-05-01T18:24:30Z</time></trkpt><trkpt lat="47.258489704591376" lon="14.900287705928273"><ele>604.0</ele><time>2026-05-01T18:24:31Z</time></trkpt><trkpt lat="47.25833108065867" lon="14.899898062379204"><ele>604.0</ele><time>2026-05-01T18:24:32Z</time></trkpt><trkpt lat="47.25817786766511" lon="14.899503914458082"><ele>604.0</ele><time>2026-05-01T18:24:33Z</time></trkpt><trkpt lat="47.25802772716962" lon="14.899107555355076"><ele>604.0</ele><time>2026-05-01T18:24:34Z</time></trkpt><trkpt lat="47.257879857010295" lon="14.898708826778432"><ele>604.0</ele><time>2026-05-01T18:24:35Z</time></trkpt><trkpt lat="47.257735457474084" lon="14.898307140262588"><ele>603.0</ele><time>2026-05-01T18:24:36Z</time></trkpt><trkpt lat="47.257598287490254" lon="14.897900414913341"><ele>602.0</ele><time>2026-05-01T18:24:37Z</time></trkpt><trkpt lat="47.257468110006954" lon="14.897488013709914"><ele>602.0</ele><time>2026-05-01T18:24:38Z</time></trkpt><trkpt lat="47.25734413180702" lon="14.897070645884247"><ele>602.0</ele><time>2026-05-01T18:24:39Z</time></trkpt><trkpt lat="47.25722481312391" lon="14.896649391502319"><ele>602.0</ele><time>2026-05-01T18:24:40Z</time></trkpt><trkpt lat="47.25711083109618" lon="14.896224213209852"><ele>602.0</ele><time>2026-05-01T18:24:41Z</time></trkpt><trkpt lat="47.25700244354504" lon="14.895796143379046"><ele>603.0</ele><time>2026-05-01T18:24:42Z</time></trkpt><trkpt lat="47.25690225845273" lon="14.895363450739616"><ele>604.0</ele><time>2026-05-01T18:24:43Z</time></trkpt><trkpt lat="47.25680824078921" lon="14.894927048806569"><ele>604.0</ele><time>2026-05-01T18:24:44Z</time></trkpt><trkpt lat="47.2567196985825" lon="14.894487713356307"><ele>604.0</ele><time>2026-05-01T18:24:45Z</time></trkpt><trkpt lat="47.25663512796712" lon="14.894046101186245"><ele>604.5</ele><time>2026-05-01T18:24:46Z</time></trkpt><trkpt lat="47.25655395820615" lon="14.893601431583255"><ele>605.0</ele><time>2026-05-01T18:24:47Z</time></trkpt><trkpt lat="47.25647369537103" lon="14.893155608010908"><ele>604.5</ele><time>2026-05-01T18:24:48Z</time></trkpt><trkpt lat="47.25639370346597" lon="14.89270807693272"><ele>604.0</ele><time>2026-05-01T18:24:49Z</time></trkpt><trkpt lat="47.256315181910495" lon="14.892259161744313"><ele>604.0</ele><time>2026-05-01T18:24:50Z</time></trkpt><trkpt lat="47.25623707177736" lon="14.891808527483397"><ele>604.0</ele><time>2026-05-01T18:24:51Z</time></trkpt><trkpt lat="47.256159546456026" lon="14.891357124249822"><ele>604.0</ele><time>2026-05-01T18:24:52Z</time></trkpt><trkpt lat="47.25608241000643" lon="14.890905130795899"><ele>604.0</ele><time>2026-05-01T18:24:53Z</time></trkpt><trkpt lat="47.256003133793314" lon="14.890451569565363"><ele>605.0</ele><time>2026-05-01T18:24:54Z</time></trkpt><trkpt lat="47.25592306094834" lon="14.8899984169326"><ele>606.0</ele><time>2026-05-01T18:24:55Z</time></trkpt><trkpt lat="47.255844288519675" lon="14.889543367406352"><ele>608.0</ele><time>2026-05-01T18:24:56Z</time></trkpt><trkpt lat="47.25576699326949" lon="14.88909300252288"><ele>610.0</ele><time>2026-05-01T18:24:57Z</time></trkpt><trkpt lat="47.25569332313953" lon="14.88866756778063"><ele>612.5</ele><time>2026-05-01T18:24:58Z</time></trkpt><trkpt lat="47.25562248973618" lon="14.88824923960367"><ele>615.0</ele><time>2026-05-01T18:24:59Z</time></trkpt><trkpt lat="47.25554908654804" lon="14.887821003720406"><ele>609.5</ele><time>2026-05-01T18:25:00Z</time></trkpt><trkpt lat="47.25547144430011" lon="14.88738982547405"><ele>604.0</ele><time>2026-05-01T18:25:01Z</time></trkpt><trkpt lat="47.25538962322898" lon="14.886956922318726"><ele>603.5</ele><time>2026-05-01T18:25:02Z</time></trkpt><trkpt lat="47.255308064534816" lon="14.88652284783716"><ele>603.0</ele><time>2026-05-01T18:25:03Z</time></trkpt><trkpt lat="47.2552254515751" lon="14.886089040892257"><ele>602.5</ele><time>2026-05-01T18:25:04Z</time></trkpt><trkpt lat="47.25514088758967" lon="14.885655305079073"><ele>602.0</ele><time>2026-05-01T18:25:05Z</time></trkpt><trkpt lat="47.255051834144574" lon="14.885224324293928"><ele>603.0</ele><time>2026-05-01T18:25:06Z</time></trkpt><trkpt lat="47.25495787847557" lon="14.884795973701197"><ele>604.0</ele><time>2026-05-01T18:25:07Z</time></trkpt><trkpt lat="47.254861972966886" lon="14.8843703168841"><ele>603.5</ele><time>2026-05-01T18:25:08Z</time></trkpt><trkpt lat="47.2547652764498" lon="14.883944744116175"><ele>603.0</ele><time>2026-05-01T18:25:09Z</time></trkpt><trkpt lat="47.25466919409921" lon="14.883520659598476"><ele>602.5</ele><time>2026-05-01T18:25:10Z</time></trkpt><trkpt lat="47.25457392498491" lon="14.883098471881171"><ele>602.0</ele><time>2026-05-01T18:25:11Z</time></trkpt><trkpt lat="47.25447829599817" lon="14.882679382591405"><ele>602.5</ele><time>2026-05-01T18:25:12Z</time></trkpt><trkpt lat="47.25438104697292" lon="14.88226316340527"><ele>603.0</ele><time>2026-05-01T18:25:13Z</time></trkpt><trkpt lat="47.25428145723173" lon="14.881850014110029"><ele>604.5</ele><time>2026-05-01T18:25:14Z</time></trkpt><trkpt lat="47.254180003635035" lon="14.881436840698841"><ele>606.0</ele><time>2026-05-01T18:25:15Z</time></trkpt><trkpt lat="47.25407656793567" lon="14.881024189614072"><ele>605.5</ele><time>2026-05-01T18:25:16Z</time></trkpt><trkpt lat="47.253970801871425" lon="14.880612402456428"><ele>605.0</ele><time>2026-05-01T18:25:17Z</time></trkpt><trkpt lat="47.253863472198155" lon="14.880201325495676"><ele>606.0</ele><time>2026-05-01T18:25:18Z</time></trkpt><trkpt lat="47.25375384239296" lon="14.879792208392688"><ele>607.0</ele><time>2026-05-01T18:25:19Z</time></trkpt><trkpt lat="47.253644008672026" lon="14.879385032778579"><ele>607.0</ele><time>2026-05-01T18:25:20Z</time></trkpt><trkpt lat="47.25353277668145" lon="14.878980449901418"><ele>607.0</ele><time>2026-05-01T18:25:21Z</time></trkpt><trkpt lat="47.253419602732606" lon="14.878577260320712"><ele>606.5</ele><time>2026-05-01T18:25:22Z</time></trkpt><trkpt lat="47.25330376973131" lon="14.878175577111202"><ele>606.0</ele><time>2026-05-01T18:25:23Z</time></trkpt><trkpt lat="47.25318592420169" lon="14.877776131455885"><ele>605.0</ele><time>2026-05-01T18:25:24Z</time></trkpt><trkpt lat="47.2530665985862" lon="14.877377575728767"><ele>604.0</ele><time>2026-05-01T18:25:25Z</time></trkpt><trkpt lat="47.25294605881928" lon="14.876979452009484"><ele>605.0</ele><time>2026-05-01T18:25:26Z</time></trkpt><trkpt lat="47.25282330824775" lon="14.876582098796806"><ele>606.0</ele><time>2026-05-01T18:25:27Z</time></trkpt><trkpt lat="47.252699402144984" lon="14.876186444678964"><ele>606.5</ele><time>2026-05-01T18:25:28Z</time></trkpt><trkpt lat="47.25257331598184" lon="14.87579067947608"><ele>607.0</ele><time>2026-05-01T18:25:29Z</time></trkpt><trkpt lat="47.25244406540242" lon="14.875397726319614"><ele>606.5</ele><time>2026-05-01T18:25:30Z</time></trkpt><trkpt lat="47.2523143345937" lon="14.875006055686018"><ele>606.0</ele><time>2026-05-01T18:25:31Z</time></trkpt><trkpt lat="47.25218439834732" lon="14.874613752291372"><ele>605.0</ele><time>2026-05-01T18:25:32Z</time></trkpt><trkpt lat="47.25205271492903" lon="14.874222192124735"><ele>604.0</ele><time>2026-05-01T18:25:33Z</time></trkpt><trkpt lat="47.251920460605554" lon="14.873830753696506"><ele>604.0</ele><time>2026-05-01T18:25:34Z</time></trkpt><trkpt lat="47.25178699238679" lon="14.873439523537435"><ele>604.0</ele><time>2026-05-01T18:25:35Z</time></trkpt><trkpt lat="47.25165155995551" lon="14.873048410755436"><ele>607.0</ele><time>2026-05-01T18:25:36Z</time></trkpt><trkpt lat="47.251514235752225" lon="14.872659552374275"><ele>610.0</ele><time>2026-05-01T18:25:37Z</time></trkpt><trkpt lat="47.25137345495656" lon="14.872273327837448"><ele>610.0</ele><time>2026-05-01T18:25:38Z</time></trkpt><trkpt lat="47.25122931412072" lon="14.871891031584228"><ele>610.0</ele><time>2026-05-01T18:25:39Z</time></trkpt><trkpt lat="47.251083877444536" lon="14.871508899571786"><ele>610.0</ele><time>2026-05-01T18:25:40Z</time></trkpt><trkpt lat="47.250936940490035" lon="14.871128888404433"><ele>610.0</ele><time>2026-05-01T18:25:41Z</time></trkpt><trkpt lat="47.250788734315535" lon="14.870749949295718"><ele>609.5</ele><time>2026-05-01T18:25:42Z</time></trkpt><trkpt lat="47.25064089498449" lon="14.870370777682524"><ele>609.0</ele><time>2026-05-01T18:25:43Z</time></trkpt><trkpt lat="47.2504913855558" lon="14.86999417432975"><ele>608.0</ele><time>2026-05-01T18:25:44Z</time></trkpt><trkpt lat="47.25033907916008" lon="14.869619710135867"><ele>607.0</ele><time>2026-05-01T18:25:45Z</time></trkpt><trkpt lat="47.25018402720641" lon="14.86924724883662"><ele>606.0</ele><time>2026-05-01T18:25:46Z</time></trkpt><trkpt lat="47.250028154798954" lon="14.86887735598412"><ele>605.0</ele><time>2026-05-01T18:25:47Z</time></trkpt><trkpt lat="47.24987144316313" lon="14.868508037170164"><ele>604.5</ele><time>2026-05-01T18:25:48Z</time></trkpt><trkpt lat="47.24971273325209" lon="14.868141077668414"><ele>604.0</ele><time>2026-05-01T18:25:49Z</time></trkpt><trkpt lat="47.24955391806938" lon="14.867774555739897"><ele>604.5</ele><time>2026-05-01T18:25:50Z</time></trkpt><trkpt lat="47.24939401058397" lon="14.867410431186393"><ele>605.0</ele><time>2026-05-01T18:25:51Z</time></trkpt><trkpt lat="47.24923343242057" lon="14.867048357482124"><ele>605.0</ele><time>2026-05-01T18:25:52Z</time></trkpt><trkpt lat="47.24907038560103" lon="14.866689669077093"><ele>605.0</ele><time>2026-05-01T18:25:53Z</time></trkpt><trkpt lat="47.248905599834735" lon="14.866332298757182"><ele>604.5</ele><time>2026-05-01T18:25:54Z</time></trkpt><trkpt lat="47.24873875542227" lon="14.865975492288802"><ele>604.0</ele><time>2026-05-01T18:25:55Z</time></trkpt><trkpt lat="47.248570465906134" lon="14.865618299499477"><ele>605.0</ele><time>2026-05-01T18:25:56Z</time></trkpt><trkpt lat="47.24840231986855" lon="14.865259865362914"><ele>606.0</ele><time>2026-05-01T18:25:57Z</time></trkpt><trkpt lat="47.248232574287826" lon="14.864902605865476"><ele>606.0</ele><time>2026-05-01T18:25:58Z</time></trkpt><trkpt lat="47.248059849345914" lon="14.864548252459922"><ele>606.0</ele><time>2026-05-01T18:25:59Z</time></trkpt><trkpt lat="47.24788623203304" lon="14.864194773919683"><ele>605.5</ele><time>2026-05-01T18:26:00Z</time></trkpt><trkpt lat="47.247709263439255" lon="14.863843300390911"><ele>605.0</ele><time>2026-05-01T18:26:01Z</time></trkpt><trkpt lat="47.24752954964451" lon="14.863493582092183"><ele>605.5</ele><time>2026-05-01T18:26:02Z</time></trkpt><trkpt lat="47.24734628440815" lon="14.863144817723404"><ele>606.0</ele><time>2026-05-01T18:26:03Z</time></trkpt><trkpt lat="47.24716179858476" lon="14.86279615219653"><ele>606.0</ele><time>2026-05-01T18:26:04Z</time></trkpt><trkpt lat="47.24697750725431" lon="14.86244518497979"><ele>606.0</ele><time>2026-05-01T18:26:05Z</time></trkpt><trkpt lat="47.24679357846058" lon="14.862094883898958"><ele>606.5</ele><time>2026-05-01T18:26:06Z</time></trkpt><trkpt lat="47.246607140023734" lon="14.86174602284007"><ele>607.0</ele><time>2026-05-01T18:26:07Z</time></trkpt><trkpt lat="47.24641852543036" lon="14.861398044474244"><ele>607.5</ele><time>2026-05-01T18:26:08Z</time></trkpt><trkpt lat="47.24622972974948" lon="14.861051461572913"><ele>608.0</ele><time>2026-05-01T18:26:09Z</time></trkpt><trkpt lat="47.24603958586106" lon="14.860704766466462"><ele>608.0</ele><time>2026-05-01T18:26:10Z</time></trkpt><trkpt lat="47.24584920561629" lon="14.86035844775044"><ele>608.0</ele><time>2026-05-01T18:26:11Z</time></trkpt><trkpt lat="47.24566317504751" lon="14.860008761543083"><ele>607.5</ele><time>2026-05-01T18:26:12Z</time></trkpt><trkpt lat="47.24547433040795" lon="14.85966103499852"><ele>607.0</ele><time>2026-05-01T18:26:13Z</time></trkpt><trkpt lat="47.24528471635741" lon="14.859313576150905"><ele>607.5</ele><time>2026-05-01T18:26:14Z</time></trkpt><trkpt lat="47.24509698656375" lon="14.85896399574485"><ele>608.0</ele><time>2026-05-01T18:26:15Z</time></trkpt><trkpt lat="47.244908901910534" lon="14.858615373991446"><ele>609.0</ele><time>2026-05-01T18:26:16Z</time></trkpt><trkpt lat="47.244720413924746" lon="14.858268080677314"><ele>610.0</ele><time>2026-05-01T18:26:17Z</time></trkpt><trkpt lat="47.24453044390377" lon="14.857922910001317"><ele>611.0</ele><time>2026-05-01T18:26:18Z</time></trkpt><trkpt lat="47.24433911699068" lon="14.857581787877665"><ele>612.0</ele><time>2026-05-01T18:26:19Z</time></trkpt><trkpt lat="47.244149554351296" lon="14.857235177422007"><ele>611.0</ele><time>2026-05-01T18:26:20Z</time></trkpt><trkpt lat="47.243962530069155" lon="14.856888037526561"><ele>610.0</ele><time>2026-05-01T18:26:21Z</time></trkpt><trkpt lat="47.24377649731219" lon="14.856539220428024"><ele>610.0</ele><time>2026-05-01T18:26:22Z</time></trkpt><trkpt lat="47.243591508768944" lon="14.856190511781211"><ele>610.0</ele><time>2026-05-01T18:26:23Z</time></trkpt><trkpt lat="47.243404549453594" lon="14.855845867550673"><ele>610.0</ele><time>2026-05-01T18:26:24Z</time></trkpt><trkpt lat="47.243215918049415" lon="14.85550151854501"><ele>610.0</ele><time>2026-05-01T18:26:25Z</time></trkpt><trkpt lat="47.24302802975819" lon="14.855156079040269"><ele>610.5</ele><time>2026-05-01T18:26:26Z</time></trkpt><trkpt lat="47.24284084824209" lon="14.854808671484342"><ele>611.0</ele><time>2026-05-01T18:26:27Z</time></trkpt><trkpt lat="47.242653471711854" lon="14.854461590415507"><ele>611.5</ele><time>2026-05-01T18:26:28Z</time></trkpt><trkpt lat="47.242465363173466" lon="14.854113677602301"><ele>612.0</ele><time>2026-05-01T18:26:29Z</time></trkpt><trkpt lat="47.24227651488329" lon="14.853767022736884"><ele>612.0</ele><time>2026-05-01T18:26:30Z</time></trkpt><trkpt lat="47.242090534180534" lon="14.853427898916719"><ele>612.0</ele><time>2026-05-01T18:26:31Z</time></trkpt><trkpt lat="47.24191741500753" lon="14.853109137496885"><ele>612.0</ele><time>2026-05-01T18:26:32Z</time></trkpt><trkpt lat="47.24174684916818" lon="14.852796241858785"><ele>612.0</ele><time>2026-05-01T18:26:33Z</time></trkpt><trkpt lat="47.24157496548013" lon="14.852475455003258"><ele>611.5</ele><time>2026-05-01T18:26:34Z</time></trkpt><trkpt lat="47.24140373009801" lon="14.852150793803414"><ele>611.0</ele><time>2026-05-01T18:26:35Z</time></trkpt><trkpt lat="47.24123347838269" lon="14.851822310771656"><ele>611.5</ele><time>2026-05-01T18:26:36Z</time></trkpt><trkpt lat="47.241066406201746" lon="14.851492626646513"><ele>612.0</ele><time>2026-05-01T18:26:37Z</time></trkpt><trkpt lat="47.240902867528874" lon="14.8511625738608"><ele>612.0</ele><time>2026-05-01T18:26:38Z</time></trkpt><trkpt lat="47.24074491726726" lon="14.850831448202293"><ele>612.0</ele><time>2026-05-01T18:26:39Z</time></trkpt><trkpt lat="47.24059106887824" lon="14.850497746304649"><ele>611.5</ele><time>2026-05-01T18:26:40Z</time></trkpt><trkpt lat="47.240434446075824" lon="14.850147965879424"><ele>611.0</ele><time>2026-05-01T18:26:41Z</time></trkpt><trkpt lat="47.24027936172197" lon="14.849784282422817"><ele>611.0</ele><time>2026-05-01T18:26:42Z</time></trkpt><trkpt lat="47.24012998793368" lon="14.849405591262945"><ele>611.0</ele><time>2026-05-01T18:26:43Z</time></trkpt><trkpt lat="47.23998603608544" lon="14.849012774485365"><ele>611.0</ele><time>2026-05-01T18:26:44Z</time></trkpt><trkpt lat="47.239848214752264" lon="14.848606514056293"><ele>611.0</ele><time>2026-05-01T18:26:45Z</time></trkpt><trkpt lat="47.2397179701081" lon="14.848193608043852"><ele>611.0</ele><time>2026-05-01T18:26:46Z</time></trkpt><trkpt lat="47.23959580491849" lon="14.847776133997693"><ele>611.0</ele><time>2026-05-01T18:26:47Z</time></trkpt><trkpt lat="47.239482646212146" lon="14.847354592558968"><ele>611.0</ele><time>2026-05-01T18:26:48Z</time></trkpt><trkpt lat="47.23937712383962" lon="14.846928252181167"><ele>611.0</ele><time>2026-05-01T18:26:49Z</time></trkpt><trkpt lat="47.239275673051374" lon="14.84649842013816"><ele>611.0</ele><time>2026-05-01T18:26:50Z</time></trkpt><trkpt lat="47.239173264827826" lon="14.846067074845463"><ele>611.0</ele><time>2026-05-01T18:26:51Z</time></trkpt><trkpt lat="47.23906981944207" lon="14.845638022725629"><ele>611.5</ele><time>2026-05-01T18:26:52Z</time></trkpt><trkpt lat="47.23896399137373" lon="14.845214178283381"><ele>612.0</ele><time>2026-05-01T18:26:53Z</time></trkpt><trkpt lat="47.23885585340574" lon="14.844794450655298"><ele>612.0</ele><time>2026-05-01T18:26:54Z</time></trkpt><trkpt lat="47.238747377644316" lon="14.84437519031436"><ele>612.0</ele><time>2026-05-01T18:26:55Z</time></trkpt><trkpt lat="47.2386375502107" lon="14.843959314329084"><ele>612.0</ele><time>2026-05-01T18:26:56Z</time></trkpt><trkpt lat="47.23852187504176" lon="14.84354805896143"><ele>612.0</ele><time>2026-05-01T18:26:57Z</time></trkpt><trkpt lat="47.2383970851281" lon="14.843145116872034"><ele>612.0</ele><time>2026-05-01T18:26:58Z</time></trkpt><trkpt lat="47.238262329761305" lon="14.84274947164967"><ele>612.0</ele><time>2026-05-01T18:26:59Z</time></trkpt><trkpt lat="47.23812412014185" lon="14.842356927001575"><ele>612.0</ele><time>2026-05-01T18:27:00Z</time></trkpt><trkpt lat="47.23798125054627" lon="14.841967293731162"><ele>612.0</ele><time>2026-05-01T18:27:01Z</time></trkpt><trkpt lat="47.237836487802696" lon="14.841581845271042"><ele>612.5</ele><time>2026-05-01T18:27:02Z</time></trkpt><trkpt lat="47.23768652574988" lon="14.841201715266093"><ele>613.0</ele><time>2026-05-01T18:27:03Z</time></trkpt><trkpt lat="47.23752996542367" lon="14.84082865196339"><ele>613.5</ele><time>2026-05-01T18:27:04Z</time></trkpt><trkpt lat="47.23736556825371" lon="14.840462750331847"><ele>614.0</ele><time>2026-05-01T18:27:05Z</time></trkpt><trkpt lat="47.23719436872933" lon="14.840103411428968"><ele>614.5</ele><time>2026-05-01T18:27:06Z</time></trkpt><trkpt lat="47.23701790132093" lon="14.839748882311417"><ele>615.0</ele><time>2026-05-01T18:27:07Z</time></trkpt><trkpt lat="47.236836183308746" lon="14.839400126580694"><ele>615.5</ele><time>2026-05-01T18:27:08Z</time></trkpt><trkpt lat="47.23664902006869" lon="14.839057144614385"><ele>616.0</ele><time>2026-05-01T18:27:09Z</time></trkpt><trkpt lat="47.23645258714716" lon="14.83872200212393"><ele>617.0</ele><time>2026-05-01T18:27:10Z</time></trkpt><trkpt lat="47.23624735642403" lon="14.838391491842923"><ele>618.0</ele><time>2026-05-01T18:27:11Z</time></trkpt><trkpt lat="47.236034733149204" lon="14.838067385848797"><ele>618.0</ele><time>2026-05-01T18:27:12Z</time></trkpt><trkpt lat="47.235817515238416" lon="14.837749644347989"><ele>618.0</ele><time>2026-05-01T18:27:13Z</time></trkpt><trkpt lat="47.23559810465909" lon="14.837432940625527"><ele>618.0</ele><time>2026-05-01T18:27:14Z</time></trkpt><trkpt lat="47.235377062271645" lon="14.837119910269694"><ele>618.0</ele><time>2026-05-01T18:27:15Z</time></trkpt><trkpt lat="47.23515171484175" lon="14.836813523379684"><ele>618.0</ele><time>2026-05-01T18:27:16Z</time></trkpt><trkpt lat="47.23492154223918" lon="14.836514718912527"><ele>618.0</ele><time>2026-05-01T18:27:17Z</time></trkpt><trkpt lat="47.23468819065583" lon="14.836224302144586"><ele>619.5</ele><time>2026-05-01T18:27:18Z</time></trkpt><trkpt lat="47.23445130639938" lon="14.835941411153343"><ele>621.0</ele><time>2026-05-01T18:27:19Z</time></trkpt><trkpt lat="47.23420816660677" lon="14.835669812993405"><ele>620.5</ele><time>2026-05-01T18:27:20Z</time></trkpt><trkpt lat="47.23396117997603" lon="14.835407503891993"><ele>620.0</ele><time>2026-05-01T18:27:21Z</time></trkpt><trkpt lat="47.233712495975354" lon="14.835149238722785"><ele>620.5</ele><time>2026-05-01T18:27:22Z</time></trkpt><trkpt lat="47.23346375835845" lon="14.834893157560035"><ele>621.0</ele><time>2026-05-01T18:27:23Z</time></trkpt><trkpt lat="47.233213881946455" lon="14.834640842770375"><ele>621.0</ele><time>2026-05-01T18:27:24Z</time></trkpt><trkpt lat="47.232965937300875" lon="14.834386414225412"><ele>621.0</ele><time>2026-05-01T18:27:25Z</time></trkpt><trkpt lat="47.232719132907604" lon="14.834130931970762"><ele>621.0</ele><time>2026-05-01T18:27:26Z</time></trkpt><trkpt lat="47.23247394247313" lon="14.833876793761348"><ele>621.0</ele><time>2026-05-01T18:27:27Z</time></trkpt><trkpt lat="47.23222644050073" lon="14.83362669287879"><ele>621.0</ele><time>2026-05-01T18:27:28Z</time></trkpt><trkpt lat="47.231979133421255" lon="14.833378999400276"><ele>621.0</ele><time>2026-05-01T18:27:29Z</time></trkpt><trkpt lat="47.23173207330912" lon="14.83313329765432"><ele>621.0</ele><time>2026-05-01T18:27:30Z</time></trkpt><trkpt lat="47.23148638803832" lon="14.83288378351695"><ele>621.0</ele><time>2026-05-01T18:27:31Z</time></trkpt><trkpt lat="47.23123999583541" lon="14.832636008758657"><ele>622.0</ele><time>2026-05-01T18:27:32Z</time></trkpt><trkpt lat="47.2309922967573" lon="14.832387125455343"><ele>623.0</ele><time>2026-05-01T18:27:33Z</time></trkpt><trkpt lat="47.230746847978864" lon="14.83213452256862"><ele>624.0</ele><time>2026-05-01T18:27:34Z</time></trkpt><trkpt lat="47.230503432605914" lon="14.831874599359594"><ele>625.0</ele><time>2026-05-01T18:27:35Z</time></trkpt><trkpt lat="47.23026248389859" lon="14.831606320411666"><ele>625.0</ele><time>2026-05-01T18:27:36Z</time></trkpt><trkpt lat="47.23002376592412" lon="14.831333998342105"><ele>625.0</ele><time>2026-05-01T18:27:37Z</time></trkpt><trkpt lat="47.22979097089968" lon="14.831056708441233"><ele>628.0</ele><time>2026-05-01T18:27:38Z</time></trkpt><trkpt lat="47.22957623994336" lon="14.830787100152246"><ele>631.0</ele><time>2026-05-01T18:27:39Z</time></trkpt><trkpt lat="47.22935622196593" lon="14.830497723855732"><ele>631.0</ele><time>2026-05-01T18:27:40Z</time></trkpt><trkpt lat="47.22913646378413" lon="14.83019539752354"><ele>631.0</ele><time>2026-05-01T18:27:41Z</time></trkpt><trkpt lat="47.22891895695045" lon="14.829884819455623"><ele>633.0</ele><time>2026-05-01T18:27:42Z</time></trkpt><trkpt lat="47.22870425204274" lon="14.82956492315896"><ele>635.0</ele><time>2026-05-01T18:27:43Z</time></trkpt><trkpt lat="47.22849469344076" lon="14.829236655779294"><ele>637.0</ele><time>2026-05-01T18:27:44Z</time></trkpt><trkpt lat="47.22829016121032" lon="14.828899792926466"><ele>639.0</ele><time>2026-05-01T18:27:45Z</time></trkpt><trkpt lat="47.228089618595504" lon="14.828554249709255"><ele>641.0</ele><time>2026-05-01T18:27:46Z</time></trkpt><trkpt lat="47.22789545787168" lon="14.828200282646424"><ele>643.0</ele><time>2026-05-01T18:27:47Z</time></trkpt><trkpt lat="47.22770838641117" lon="14.827837482303059"><ele>645.5</ele><time>2026-05-01T18:27:48Z</time></trkpt><trkpt lat="47.2275264242466" lon="14.827467499663832"><ele>648.0</ele><time>2026-05-01T18:27:49Z</time></trkpt><trkpt lat="47.227349076177866" lon="14.827090808341126"><ele>650.0</ele><time>2026-05-01T18:27:50Z</time></trkpt><trkpt lat="47.22717948093917" lon="14.82670617439709"><ele>652.0</ele><time>2026-05-01T18:27:51Z</time></trkpt><trkpt lat="47.22701684773063" lon="14.826314702913136"><ele>654.0</ele><time>2026-05-01T18:27:52Z</time></trkpt><trkpt lat="47.22686056882004" lon="14.825918707632283"><ele>656.0</ele><time>2026-05-01T18:27:53Z</time></trkpt><trkpt lat="47.22671106662842" lon="14.82551750871023"><ele>658.0</ele><time>2026-05-01T18:27:54Z</time></trkpt><trkpt lat="47.22656912691401" lon="14.825111483165648"><ele>660.0</ele><time>2026-05-01T18:27:55Z</time></trkpt><trkpt lat="47.22643204787651" lon="14.82470318665754"><ele>662.5</ele><time>2026-05-01T18:27:56Z</time></trkpt><trkpt lat="47.22629846775591" lon="14.824290184331465"><ele>665.0</ele><time>2026-05-01T18:27:57Z</time></trkpt><trkpt lat="47.22616899815229" lon="14.823875463880798"><ele>666.0</ele><time>2026-05-01T18:27:58Z</time></trkpt><trkpt lat="47.22604234593378" lon="14.823458808644737"><ele>667.0</ele><time>2026-05-01T18:27:59Z</time></trkpt><trkpt lat="47.22591710096012" lon="14.82304051371337"><ele>668.0</ele><time>2026-05-01T18:28:00Z</time></trkpt><trkpt lat="47.225793490902625" lon="14.822619160610374"><ele>669.0</ele><time>2026-05-01T18:28:01Z</time></trkpt><trkpt lat="47.22567196265513" lon="14.822193708652447"><ele>669.0</ele><time>2026-05-01T18:28:02Z</time></trkpt><trkpt lat="47.22555070407376" lon="14.82176849594441"><ele>669.0</ele><time>2026-05-01T18:28:03Z</time></trkpt><trkpt lat="47.225432005913916" lon="14.821337655847001"><ele>669.5</ele><time>2026-05-01T18:28:04Z</time></trkpt><trkpt lat="47.22531201040201" lon="14.820907642851905"><ele>670.0</ele><time>2026-05-01T18:28:05Z</time></trkpt><trkpt lat="47.225190138648614" lon="14.820476472194931"><ele>671.0</ele><time>2026-05-01T18:28:06Z</time></trkpt><trkpt lat="47.22506481225697" lon="14.820045733308433"><ele>672.0</ele><time>2026-05-01T18:28:07Z</time></trkpt><trkpt lat="47.22493898207449" lon="14.819612965472853"><ele>669.0</ele><time>2026-05-01T18:28:08Z</time></trkpt><trkpt lat="47.22481004066935" lon="14.819183688507383"><ele>666.0</ele><time>2026-05-01T18:28:09Z</time></trkpt><trkpt lat="47.22468307554869" lon="14.818758452703083"><ele>665.5</ele><time>2026-05-01T18:28:10Z</time></trkpt><trkpt lat="47.224556713112705" lon="14.818340745898071"><ele>665.0</ele><time>2026-05-01T18:28:11Z</time></trkpt><trkpt lat="47.2244312609471" lon="14.817932350062858"><ele>665.5</ele><time>2026-05-01T18:28:12Z</time></trkpt><trkpt lat="47.22430199235078" lon="14.817528381300393"><ele>666.0</ele><time>2026-05-01T18:28:13Z</time></trkpt><trkpt lat="47.2241671958444" lon="14.817125416657712"><ele>665.5</ele><time>2026-05-01T18:28:14Z</time></trkpt><trkpt lat="47.22402751300496" lon="14.816723720033231"><ele>665.0</ele><time>2026-05-01T18:28:15Z</time></trkpt><trkpt lat="47.22388549700034" lon="14.81632271481989"><ele>664.5</ele><time>2026-05-01T18:28:16Z</time></trkpt><trkpt lat="47.22374039932495" lon="14.815922336534873"><ele>664.0</ele><time>2026-05-01T18:28:17Z</time></trkpt><trkpt lat="47.223595075205466" lon="14.815524642544558"><ele>664.5</ele><time>2026-05-01T18:28:18Z</time></trkpt><trkpt lat="47.22344702227179" lon="14.815132411194623"><ele>665.0</ele><time>2026-05-01T18:28:19Z</time></trkpt><trkpt lat="47.223297201173175" lon="14.814744731633272"><ele>665.0</ele><time>2026-05-01T18:28:20Z</time></trkpt><trkpt lat="47.22314445023767" lon="14.814361020812614"><ele>665.0</ele><time>2026-05-01T18:28:21Z</time></trkpt><trkpt lat="47.222989996021504" lon="14.813981399978433"><ele>665.0</ele><time>2026-05-01T18:28:22Z</time></trkpt><trkpt lat="47.22283450306647" lon="14.813603186120757"><ele>665.0</ele><time>2026-05-01T18:28:23Z</time></trkpt><trkpt lat="47.22267748368488" lon="14.813226715040162"><ele>666.0</ele><time>2026-05-01T18:28:24Z</time></trkpt><trkpt lat="47.22251821788712" lon="14.812851778177082"><ele>667.0</ele><time>2026-05-01T18:28:25Z</time></trkpt><trkpt lat="47.222358609095004" lon="14.812476135283843"><ele>666.0</ele><time>2026-05-01T18:28:26Z</time></trkpt><trkpt lat="47.22219811631741" lon="14.812100426276828"><ele>665.0</ele><time>2026-05-01T18:28:27Z</time></trkpt><trkpt lat="47.222034533522134" lon="14.811725710330125"><ele>665.0</ele><time>2026-05-01T18:28:28Z</time></trkpt><trkpt lat="47.22187034066699" lon="14.811350758303496"><ele>665.0</ele><time>2026-05-01T18:28:29Z</time></trkpt><trkpt lat="47.22170455313984" lon="14.810977987544545"><ele>664.5</ele><time>2026-05-01T18:28:30Z</time></trkpt><trkpt lat="47.221538601481285" lon="14.810604713228663"><ele>664.0</ele><time>2026-05-01T18:28:31Z</time></trkpt><trkpt lat="47.22136994070302" lon="14.810233318609034"><ele>664.0</ele><time>2026-05-01T18:28:32Z</time></trkpt><trkpt lat="47.22120185481869" lon="14.809860769244862"><ele>664.0</ele><time>2026-05-01T18:28:33Z</time></trkpt><trkpt lat="47.221034164425554" lon="14.8094892582099"><ele>664.5</ele><time>2026-05-01T18:28:34Z</time></trkpt><trkpt lat="47.22086645266943" lon="14.80911624660967"><ele>665.0</ele><time>2026-05-01T18:28:35Z</time></trkpt><trkpt lat="47.220698380035486" lon="14.808743747647966"><ele>665.5</ele><time>2026-05-01T18:28:36Z</time></trkpt><trkpt lat="47.22053053441906" lon="14.808370007474199"><ele>666.0</ele><time>2026-05-01T18:28:37Z</time></trkpt><trkpt lat="47.22036186133916" lon="14.80799725943488"><ele>666.5</ele><time>2026-05-01T18:28:38Z</time></trkpt><trkpt lat="47.220194024800065" lon="14.807622740412908"><ele>667.0</ele><time>2026-05-01T18:28:39Z</time></trkpt><trkpt lat="47.220027235277875" lon="14.807247396628613"><ele>667.0</ele><time>2026-05-01T18:28:40Z</time></trkpt><trkpt lat="47.219859586350275" lon="14.806874287881113"><ele>667.0</ele><time>2026-05-01T18:28:41Z</time></trkpt><trkpt lat="47.21969229733533" lon="14.806501151972158"><ele>667.0</ele><time>2026-05-01T18:28:42Z</time></trkpt><trkpt lat="47.21952444538191" lon="14.806128510843708"><ele>667.0</ele><time>2026-05-01T18:28:43Z</time></trkpt><trkpt lat="47.21935720060965" lon="14.805757248023227"><ele>668.5</ele><time>2026-05-01T18:28:44Z</time></trkpt><trkpt lat="47.219191340057854" lon="14.805386142542096"><ele>670.0</ele><time>2026-05-01T18:28:45Z</time></trkpt><trkpt lat="47.21902528937851" lon="14.805016405785004"><ele>670.0</ele><time>2026-05-01T18:28:46Z</time></trkpt><trkpt lat="47.21885910191885" lon="14.804646172143157"><ele>670.0</ele><time>2026-05-01T18:28:47Z</time></trkpt><trkpt lat="47.21869222842309" lon="14.804278661367494"><ele>670.0</ele><time>2026-05-01T18:28:48Z</time></trkpt><trkpt lat="47.21852633012988" lon="14.803910692069413"><ele>670.0</ele><time>2026-05-01T18:28:49Z</time></trkpt><trkpt lat="47.21836010554939" lon="14.803543215329656"><ele>669.5</ele><time>2026-05-01T18:28:50Z</time></trkpt><trkpt lat="47.2181932288564" lon="14.80317534596672"><ele>669.0</ele><time>2026-05-01T18:28:51Z</time></trkpt><trkpt lat="47.21802699278133" lon="14.802806019300515"><ele>670.0</ele><time>2026-05-01T18:28:52Z</time></trkpt><trkpt lat="47.21786319832806" lon="14.80243640983903"><ele>671.0</ele><time>2026-05-01T18:28:53Z</time></trkpt><trkpt lat="47.217698241962694" lon="14.802067915551513"><ele>671.0</ele><time>2026-05-01T18:28:54Z</time></trkpt><trkpt lat="47.217532263860576" lon="14.801698971997364"><ele>671.0</ele><time>2026-05-01T18:28:55Z</time></trkpt><trkpt lat="47.21736593179587" lon="14.801328595666925"><ele>670.0</ele><time>2026-05-01T18:28:56Z</time></trkpt><trkpt lat="47.21719854548465" lon="14.800959077900437"><ele>669.0</ele><time>2026-05-01T18:28:57Z</time></trkpt><trkpt lat="47.21703197411126" lon="14.800588138174795"><ele>669.0</ele><time>2026-05-01T18:28:58Z</time></trkpt><trkpt lat="47.21686426710295" lon="14.80021614390267"><ele>669.0</ele><time>2026-05-01T18:28:59Z</time></trkpt><trkpt lat="47.21669683223284" lon="14.799843438876444"><ele>669.5</ele><time>2026-05-01T18:29:00Z</time></trkpt><trkpt lat="47.21652845632745" lon="14.799469090223223"><ele>670.0</ele><time>2026-05-01T18:29:01Z</time></trkpt><trkpt lat="47.2163595469878" lon="14.799093150075535"><ele>670.0</ele><time>2026-05-01T18:29:02Z</time></trkpt><trkpt lat="47.21618950023541" lon="14.798715465304692"><ele>670.0</ele><time>2026-05-01T18:29:03Z</time></trkpt><trkpt lat="47.216019993304094" lon="14.798336235826444"><ele>671.5</ele><time>2026-05-01T18:29:04Z</time></trkpt><trkpt lat="47.21584904200537" lon="14.797957027612828"><ele>673.0</ele><time>2026-05-01T18:29:05Z</time></trkpt><trkpt lat="47.21567815651555" lon="14.79757659195176"><ele>672.0</ele><time>2026-05-01T18:29:06Z</time></trkpt><trkpt lat="47.215508904580446" lon="14.797195417297624"><ele>671.0</ele><time>2026-05-01T18:29:07Z</time></trkpt><trkpt lat="47.21533900182558" lon="14.796814931634273"><ele>670.5</ele><time>2026-05-01T18:29:08Z</time></trkpt><trkpt lat="47.215169799202236" lon="14.796434669264098"><ele>670.0</ele><time>2026-05-01T18:29:09Z</time></trkpt><trkpt lat="47.215000941824904" lon="14.796056525920923"><ele>670.0</ele><time>2026-05-01T18:29:10Z</time></trkpt><trkpt lat="47.21483192368684" lon="14.79567679240047"><ele>670.0</ele><time>2026-05-01T18:29:11Z</time></trkpt><trkpt lat="47.214661772076674" lon="14.795299311827858"><ele>670.0</ele><time>2026-05-01T18:29:12Z</time></trkpt><trkpt lat="47.21448989343735" lon="14.794922708061526"><ele>670.0</ele><time>2026-05-01T18:29:13Z</time></trkpt><trkpt lat="47.214317836706776" lon="14.79454811251888"><ele>670.0</ele><time>2026-05-01T18:29:14Z</time></trkpt><trkpt lat="47.21414730719541" lon="14.794171641977938"><ele>670.0</ele><time>2026-05-01T18:29:15Z</time></trkpt><trkpt lat="47.21397766560032" lon="14.793794524917715"><ele>670.5</ele><time>2026-05-01T18:29:16Z</time></trkpt><trkpt lat="47.21380910554235" lon="14.793416404974082"><ele>671.0</ele><time>2026-05-01T18:29:17Z</time></trkpt><trkpt lat="47.21364288192017" lon="14.793035017993033"><ele>670.5</ele><time>2026-05-01T18:29:18Z</time></trkpt><trkpt lat="47.21347595633114" lon="14.792651591481855"><ele>670.0</ele><time>2026-05-01T18:29:19Z</time></trkpt><trkpt lat="47.21331071024283" lon="14.79226698792976"><ele>668.5</ele><time>2026-05-01T18:29:20Z</time></trkpt><trkpt lat="47.21314767700736" lon="14.791880045809043"><ele>667.0</ele><time>2026-05-01T18:29:21Z</time></trkpt><trkpt lat="47.21298838784631" lon="14.791489432050447"><ele>667.0</ele><time>2026-05-01T18:29:22Z</time></trkpt><trkpt lat="47.2128344958401" lon="14.791095029615423"><ele>667.0</ele><time>2026-05-01T18:29:23Z</time></trkpt><trkpt lat="47.212684907391214" lon="14.790697389161682"><ele>667.5</ele><time>2026-05-01T18:29:24Z</time></trkpt><trkpt lat="47.212537824633635" lon="14.79029704026115"><ele>668.0</ele><time>2026-05-01T18:29:25Z</time></trkpt><trkpt lat="47.212395384394995" lon="14.789893985535569"><ele>667.0</ele><time>2026-05-01T18:29:26Z</time></trkpt><trkpt lat="47.212257791017656" lon="14.78948741487668"><ele>666.0</ele><time>2026-05-01T18:29:27Z</time></trkpt><trkpt lat="47.212126186780104" lon="14.78907914689074"><ele>666.0</ele><time>2026-05-01T18:29:28Z</time></trkpt><trkpt lat="47.21200168085165" lon="14.788664597412215"><ele>666.0</ele><time>2026-05-01T18:29:29Z</time></trkpt><trkpt lat="47.21188372904026" lon="14.78824578273305"><ele>666.5</ele><time>2026-05-01T18:29:30Z</time></trkpt><trkpt lat="47.21177388109951" lon="14.78782395860784"><ele>667.0</ele><time>2026-05-01T18:29:31Z</time></trkpt><trkpt lat="47.211675792647426" lon="14.787398140223742"><ele>667.0</ele><time>2026-05-01T18:29:32Z</time></trkpt><trkpt lat="47.21158980719933" lon="14.786966514464016"><ele>667.0</ele><time>2026-05-01T18:29:33Z</time></trkpt><trkpt lat="47.211515496397986" lon="14.786531187346268"><ele>666.5</ele><time>2026-05-01T18:29:34Z</time></trkpt><trkpt lat="47.21145496254296" lon="14.786089507428493"><ele>666.0</ele><time>2026-05-01T18:29:35Z</time></trkpt><trkpt lat="47.21141154028906" lon="14.785644316594135"><ele>666.0</ele><time>2026-05-01T18:29:36Z</time></trkpt><trkpt lat="47.211383030424145" lon="14.785195983007121"><ele>666.0</ele><time>2026-05-01T18:29:37Z</time></trkpt><trkpt lat="47.211367744427996" lon="14.78474557557464"><ele>664.0</ele><time>2026-05-01T18:29:38Z</time></trkpt><trkpt lat="47.211363666339935" lon="14.78429430597202"><ele>662.0</ele><time>2026-05-01T18:29:39Z</time></trkpt><trkpt lat="47.21137026325773" lon="14.783842522288392"><ele>661.5</ele><time>2026-05-01T18:29:40Z</time></trkpt><trkpt lat="47.21139045683123" lon="14.783392377431277"><ele>661.0</ele><time>2026-05-01T18:29:41Z</time></trkpt><trkpt lat="47.21142295142694" lon="14.782943784382065"><ele>661.5</ele><time>2026-05-01T18:29:42Z</time></trkpt><trkpt lat="47.21146676230028" lon="14.782497246716307"><ele>662.0</ele><time>2026-05-01T18:29:43Z</time></trkpt><trkpt lat="47.21152444082557" lon="14.782055155655366"><ele>662.5</ele><time>2026-05-01T18:29:44Z</time></trkpt><trkpt lat="47.211596362980856" lon="14.781617039063612"><ele>663.0</ele><time>2026-05-01T18:29:45Z</time></trkpt><trkpt lat="47.21167966972275" lon="14.781182742677975"><ele>662.5</ele><time>2026-05-01T18:29:46Z</time></trkpt><trkpt lat="47.21177089640616" lon="14.780750108394379"><ele>662.0</ele><time>2026-05-01T18:29:47Z</time></trkpt><trkpt lat="47.211869247381706" lon="14.780319948048103"><ele>661.5</ele><time>2026-05-01T18:29:48Z</time></trkpt><trkpt lat="47.211968963580354" lon="14.779889609384783"><ele>661.0</ele><time>2026-05-01T18:29:49Z</time></trkpt><trkpt lat="47.212066799807204" lon="14.779457853827292"><ele>660.5</ele><time>2026-05-01T18:29:50Z</time></trkpt><trkpt lat="47.212163597624624" lon="14.779026960497871"><ele>660.0</ele><time>2026-05-01T18:29:51Z</time></trkpt><trkpt lat="47.212256431520714" lon="14.778598480286304"><ele>660.5</ele><time>2026-05-01T18:29:52Z</time></trkpt><trkpt lat="47.21234515355506" lon="14.778183257393945"><ele>661.0</ele><time>2026-05-01T18:29:53Z</time></trkpt><trkpt lat="47.21242847169845" lon="14.777780274861504"><ele>660.5</ele><time>2026-05-01T18:29:54Z</time></trkpt><trkpt lat="47.21251217084929" lon="14.777355568968787"><ele>660.0</ele><time>2026-05-01T18:29:55Z</time></trkpt><trkpt lat="47.21259327540412" lon="14.776923512463167"><ele>660.0</ele><time>2026-05-01T18:29:56Z</time></trkpt><trkpt lat="47.212673989873885" lon="14.776489558939932"><ele>660.0</ele><time>2026-05-01T18:29:57Z</time></trkpt><trkpt lat="47.212750725945675" lon="14.776052709321144"><ele>660.0</ele><time>2026-05-01T18:29:58Z</time></trkpt><trkpt lat="47.21282567626626" lon="14.775614569080858"><ele>660.0</ele><time>2026-05-01T18:29:59Z</time></trkpt><trkpt lat="47.21289583844873" lon="14.775174867070128"><ele>660.5</ele><time>2026-05-01T18:30:00Z</time></trkpt><trkpt lat="47.21295800686138" lon="14.774731675358739"><ele>661.0</ele><time>2026-05-01T18:30:01Z</time></trkpt><trkpt lat="47.21301349457028" lon="14.774290211666665"><ele>661.0</ele><time>2026-05-01T18:30:02Z</time></trkpt><trkpt lat="47.21306510061423" lon="14.7738485337717"><ele>661.0</ele><time>2026-05-01T18:30:03Z</time></trkpt><trkpt lat="47.213115134658906" lon="14.773407019782626"><ele>661.0</ele><time>2026-05-01T18:30:04Z</time></trkpt><trkpt lat="47.21316324783697" lon="14.772966041730278"><ele>661.0</ele><time>2026-05-01T18:30:05Z</time></trkpt><trkpt lat="47.213207940434714" lon="14.772523922103037"><ele>661.0</ele><time>2026-05-01T18:30:06Z</time></trkpt><trkpt lat="47.21324727561985" lon="14.772081530912281"><ele>661.0</ele><time>2026-05-01T18:30:07Z</time></trkpt><trkpt lat="47.21328210540855" lon="14.771638008400496"><ele>662.0</ele><time>2026-05-01T18:30:08Z</time></trkpt><trkpt lat="47.21331400807988" lon="14.771193351832311"><ele>663.0</ele><time>2026-05-01T18:30:09Z</time></trkpt><trkpt lat="47.21334130945036" lon="14.77074878920308"><ele>663.0</ele><time>2026-05-01T18:30:10Z</time></trkpt><trkpt lat="47.213363615743205" lon="14.77030374587975"><ele>663.0</ele><time>2026-05-01T18:30:11Z</time></trkpt><trkpt lat="47.21338131603798" lon="14.769857760910076"><ele>663.0</ele><time>2026-05-01T18:30:12Z</time></trkpt><trkpt lat="47.2133946787174" lon="14.76941119160174"><ele>663.0</ele><time>2026-05-01T18:30:13Z</time></trkpt><trkpt lat="47.213404041101946" lon="14.768964537628792"><ele>663.0</ele><time>2026-05-01T18:30:14Z</time></trkpt><trkpt lat="47.21340686044672" lon="14.76851675256513"><ele>663.0</ele><time>2026-05-01T18:30:15Z</time></trkpt><trkpt lat="47.21340376848506" lon="14.768068388407595"><ele>663.0</ele><time>2026-05-01T18:30:16Z</time></trkpt><trkpt lat="47.213393886281786" lon="14.767620257214741"><ele>663.0</ele><time>2026-05-01T18:30:17Z</time></trkpt><trkpt lat="47.21337909884075" lon="14.767173606117973"><ele>663.5</ele><time>2026-05-01T18:30:18Z</time></trkpt><trkpt lat="47.21336032667419" lon="14.766727014803715"><ele>664.0</ele><time>2026-05-01T18:30:19Z</time></trkpt><trkpt lat="47.21333827765406" lon="14.766281714408215"><ele>664.0</ele><time>2026-05-01T18:30:20Z</time></trkpt><trkpt lat="47.21331232430664" lon="14.765835314613975"><ele>664.0</ele><time>2026-05-01T18:30:21Z</time></trkpt><trkpt lat="47.21328033131398" lon="14.765388056107604"><ele>664.0</ele><time>2026-05-01T18:30:22Z</time></trkpt><trkpt lat="47.21324245596874" lon="14.7649409141559"><ele>664.0</ele><time>2026-05-01T18:30:23Z</time></trkpt><trkpt lat="47.213200528065656" lon="14.764493626031753"><ele>663.5</ele><time>2026-05-01T18:30:24Z</time></trkpt><trkpt lat="47.21315570274915" lon="14.764044395099463"><ele>663.0</ele><time>2026-05-01T18:30:25Z</time></trkpt><trkpt lat="47.21311051801433" lon="14.763594681149163"><ele>663.5</ele><time>2026-05-01T18:30:26Z</time></trkpt><trkpt lat="47.2130649543842" lon="14.76314481402084"><ele>664.0</ele><time>2026-05-01T18:30:27Z</time></trkpt><trkpt lat="47.2130195072359" lon="14.762694787113814"><ele>665.0</ele><time>2026-05-01T18:30:28Z</time></trkpt><trkpt lat="47.212973054418576" lon="14.762248245553742"><ele>666.0</ele><time>2026-05-01T18:30:29Z</time></trkpt><trkpt lat="47.21292697684419" lon="14.761804147854054"><ele>666.0</ele><time>2026-05-01T18:30:30Z</time></trkpt><trkpt lat="47.212881971699495" lon="14.761364440749137"><ele>666.0</ele><time>2026-05-01T18:30:31Z</time></trkpt><trkpt lat="47.21283812480321" lon="14.760925807317438"><ele>667.0</ele><time>2026-05-01T18:30:32Z</time></trkpt><trkpt lat="47.21279425863231" lon="14.760488971304664"><ele>668.0</ele><time>2026-05-01T18:30:33Z</time></trkpt><trkpt lat="47.21275068905641" lon="14.76005437379664"><ele>668.5</ele><time>2026-05-01T18:30:34Z</time></trkpt><trkpt lat="47.212706077393086" lon="14.759617930672665"><ele>669.0</ele><time>2026-05-01T18:30:35Z</time></trkpt><trkpt lat="47.212660258885734" lon="14.759180334821815"><ele>669.0</ele><time>2026-05-01T18:30:36Z</time></trkpt><trkpt lat="47.21261384219502" lon="14.758741110198354"><ele>669.0</ele><time>2026-05-01T18:30:37Z</time></trkpt><trkpt lat="47.21256782437197" lon="14.758299947096457"><ele>669.0</ele><time>2026-05-01T18:30:38Z</time></trkpt><trkpt lat="47.21252261882305" lon="14.757857008900466"><ele>669.0</ele><time>2026-05-01T18:30:39Z</time></trkpt><trkpt lat="47.21247870835765" lon="14.757412667711083"><ele>669.0</ele><time>2026-05-01T18:30:40Z</time></trkpt><trkpt lat="47.21243482521488" lon="14.756967991578684"><ele>669.0</ele><time>2026-05-01T18:30:41Z</time></trkpt><trkpt lat="47.2123891614933" lon="14.756522182367759"><ele>669.5</ele><time>2026-05-01T18:30:42Z</time></trkpt><trkpt lat="47.21234188422546" lon="14.75607620436801"><ele>670.0</ele><time>2026-05-01T18:30:43Z</time></trkpt><trkpt lat="47.21229454513684" lon="14.755630315410203"><ele>669.5</ele><time>2026-05-01T18:30:44Z</time></trkpt><trkpt lat="47.212248075402755" lon="14.755184457589978"><ele>669.0</ele><time>2026-05-01T18:30:45Z</time></trkpt><trkpt lat="47.21220215413802" lon="14.754739255376519"><ele>669.5</ele><time>2026-05-01T18:30:46Z</time></trkpt><trkpt lat="47.21215674934403" lon="14.754292879728153"><ele>670.0</ele><time>2026-05-01T18:30:47Z</time></trkpt><trkpt lat="47.212111847022676" lon="14.75384740688568"><ele>670.0</ele><time>2026-05-01T18:30:48Z</time></trkpt><trkpt lat="47.21206706237323" lon="14.75340375444662"><ele>670.0</ele><time>2026-05-01T18:30:49Z</time></trkpt><trkpt lat="47.21202145042265" lon="14.752961006699215"><ele>670.0</ele><time>2026-05-01T18:30:50Z</time></trkpt><trkpt lat="47.21197557880714" lon="14.752518700280623"><ele>670.0</ele><time>2026-05-01T18:30:51Z</time></trkpt><trkpt lat="47.21192913577009" lon="14.752077344518598"><ele>670.5</ele><time>2026-05-01T18:30:52Z</time></trkpt><trkpt lat="47.211883923293534" lon="14.751635047605685"><ele>671.0</ele><time>2026-05-01T18:30:53Z</time></trkpt><trkpt lat="47.21183935472183" lon="14.751195112239062"><ele>671.5</ele><time>2026-05-01T18:30:54Z</time></trkpt><trkpt lat="47.21179431765035" lon="14.750756339426262"><ele>672.0</ele><time>2026-05-01T18:30:55Z</time></trkpt><trkpt lat="47.21174818933013" lon="14.750318766989526"><ele>673.0</ele><time>2026-05-01T18:30:56Z</time></trkpt><trkpt lat="47.211702011266865" lon="14.749882477339106"><ele>674.0</ele><time>2026-05-01T18:30:57Z</time></trkpt><trkpt lat="47.21165681778839" lon="14.74944518542489"><ele>674.0</ele><time>2026-05-01T18:30:58Z</time></trkpt><trkpt lat="47.21161122050518" lon="14.74900612254846"><ele>674.0</ele><time>2026-05-01T18:30:59Z</time></trkpt><trkpt lat="47.21156559213955" lon="14.748564844170662"><ele>674.0</ele><time>2026-05-01T18:31:00Z</time></trkpt><trkpt lat="47.21152075435613" lon="14.748122032548807"><ele>674.0</ele><time>2026-05-01T18:31:01Z</time></trkpt><trkpt lat="47.211475787344455" lon="14.747679243874298"><ele>674.0</ele><time>2026-05-01T18:31:02Z</time></trkpt><trkpt lat="47.211430312596356" lon="14.747235867681963"><ele>674.0</ele><time>2026-05-01T18:31:03Z</time></trkpt><trkpt lat="47.21138477056004" lon="14.74679267398276"><ele>674.5</ele><time>2026-05-01T18:31:04Z</time></trkpt><trkpt lat="47.21133943773716" lon="14.746348994420574"><ele>675.0</ele><time>2026-05-01T18:31:05Z</time></trkpt><trkpt lat="47.2112940489154" lon="14.74590711313567"><ele>675.0</ele><time>2026-05-01T18:31:06Z</time></trkpt><trkpt lat="47.211251386333345" lon="14.745467915057857"><ele>675.0</ele><time>2026-05-01T18:31:07Z</time></trkpt><trkpt lat="47.21120795746014" lon="14.745029311674966"><ele>675.5</ele><time>2026-05-01T18:31:08Z</time></trkpt><trkpt lat="47.211164481452066" lon="14.74459064127412"><ele>676.0</ele><time>2026-05-01T18:31:09Z</time></trkpt><trkpt lat="47.211118303424946" lon="14.744150946542108"><ele>676.0</ele><time>2026-05-01T18:31:10Z</time></trkpt><trkpt lat="47.21107235419712" lon="14.743713599622765"><ele>676.0</ele><time>2026-05-01T18:31:11Z</time></trkpt><trkpt lat="47.211024907889495" lon="14.743274920032958"><ele>676.5</ele><time>2026-05-01T18:31:12Z</time></trkpt><trkpt lat="47.21097872955984" lon="14.74283630324792"><ele>677.0</ele><time>2026-05-01T18:31:13Z</time></trkpt><trkpt lat="47.21093359088004" lon="14.742396714550226"><ele>677.0</ele><time>2026-05-01T18:31:14Z</time></trkpt><trkpt lat="47.21088778144678" lon="14.741957143060391"><ele>677.0</ele><time>2026-05-01T18:31:15Z</time></trkpt><trkpt lat="47.210841981146004" lon="14.741517961374853"><ele>677.0</ele><time>2026-05-01T18:31:16Z</time></trkpt><trkpt lat="47.21079735816098" lon="14.741077688472414"><ele>677.0</ele><time>2026-05-01T18:31:17Z</time></trkpt><trkpt lat="47.21075117902748" lon="14.740637812729402"><ele>677.5</ele><time>2026-05-01T18:31:18Z</time></trkpt><trkpt lat="47.21070552160965" lon="14.740197880375446"><ele>678.0</ele><time>2026-05-01T18:31:19Z</time></trkpt><trkpt lat="47.21065992479727" lon="14.739758018700124"><ele>679.0</ele><time>2026-05-01T18:31:20Z</time></trkpt><trkpt lat="47.210616690461734" lon="14.739324262378409"><ele>680.0</ele><time>2026-05-01T18:31:21Z</time></trkpt><trkpt lat="47.21057492283848" lon="14.738895600529673"><ele>679.5</ele><time>2026-05-01T18:31:22Z</time></trkpt><trkpt lat="47.21052758232454" lon="14.738478848205416"><ele>679.0</ele><time>2026-05-01T18:31:23Z</time></trkpt><trkpt lat="47.21047860367227" lon="14.738043999945203"><ele>678.5</ele><time>2026-05-01T18:31:24Z</time></trkpt><trkpt lat="47.21042316350503" lon="14.737604210613913"><ele>678.0</ele><time>2026-05-01T18:31:25Z</time></trkpt><trkpt lat="47.21036761588598" lon="14.737158125518878"><ele>678.5</ele><time>2026-05-01T18:31:26Z</time></trkpt><trkpt lat="47.21031188004609" lon="14.736709599709702"><ele>679.0</ele><time>2026-05-01T18:31:27Z</time></trkpt><trkpt lat="47.21025217062997" lon="14.736264174038824"><ele>680.5</ele><time>2026-05-01T18:31:28Z</time></trkpt><trkpt lat="47.21018588951444" lon="14.735823338910015"><ele>682.0</ele><time>2026-05-01T18:31:29Z</time></trkpt><trkpt lat="47.21011016550511" lon="14.735384529735047"><ele>681.5</ele><time>2026-05-01T18:31:30Z</time></trkpt><trkpt lat="47.21002775005475" lon="14.734953055346038"><ele>681.0</ele><time>2026-05-01T18:31:31Z</time></trkpt><trkpt lat="47.209939320529436" lon="14.734523459895694"><ele>681.0</ele><time>2026-05-01T18:31:32Z</time></trkpt><trkpt lat="47.20984268068649" lon="14.734097902726417"><ele>681.0</ele><time>2026-05-01T18:31:33Z</time></trkpt><trkpt lat="47.20973610364082" lon="14.733677454190765"><ele>682.0</ele><time>2026-05-01T18:31:34Z</time></trkpt><trkpt lat="47.2096195787627" lon="14.733261377898797"><ele>683.0</ele><time>2026-05-01T18:31:35Z</time></trkpt><trkpt lat="47.20949231905031" lon="14.732851509354692"><ele>683.0</ele><time>2026-05-01T18:31:36Z</time></trkpt><trkpt lat="47.209357200498644" lon="14.732446122950545"><ele>683.0</ele><time>2026-05-01T18:31:37Z</time></trkpt><trkpt lat="47.209215249661135" lon="14.732043679731333"><ele>683.0</ele><time>2026-05-01T18:31:38Z</time></trkpt><trkpt lat="47.20906782077165" lon="14.731647535119052"><ele>683.0</ele><time>2026-05-01T18:31:39Z</time></trkpt><trkpt lat="47.20891350095675" lon="14.731258671569671"><ele>684.0</ele><time>2026-05-01T18:31:40Z</time></trkpt><trkpt lat="47.20875401189944" lon="14.730874098577505"><ele>685.0</ele><time>2026-05-01T18:31:41Z</time></trkpt><trkpt lat="47.208589433719915" lon="14.730496427359862"><ele>685.0</ele><time>2026-05-01T18:31:42Z</time></trkpt><trkpt lat="47.20841833654072" lon="14.730125028201744"><ele>685.0</ele><time>2026-05-01T18:31:43Z</time></trkpt><trkpt lat="47.20824046239308" lon="14.72976145543927"><ele>685.0</ele><time>2026-05-01T18:31:44Z</time></trkpt><trkpt lat="47.20805620275238" lon="14.729403751378"><ele>685.0</ele><time>2026-05-01T18:31:45Z</time></trkpt><trkpt lat="47.20786551816054" lon="14.729053775680555"><ele>685.0</ele><time>2026-05-01T18:31:46Z</time></trkpt><trkpt lat="47.2076700977021" lon="14.728710327637767"><ele>685.0</ele><time>2026-05-01T18:31:47Z</time></trkpt><trkpt lat="47.20746958898214" lon="14.728374765670887"><ele>685.0</ele><time>2026-05-01T18:31:48Z</time></trkpt><trkpt lat="47.20726317916556" lon="14.728044752791112"><ele>685.0</ele><time>2026-05-01T18:31:49Z</time></trkpt><trkpt lat="47.207052183490795" lon="14.72772172285794"><ele>685.0</ele><time>2026-05-01T18:31:50Z</time></trkpt><trkpt lat="47.206834901532716" lon="14.727407840754852"><ele>685.0</ele><time>2026-05-01T18:31:51Z</time></trkpt><trkpt lat="47.20661191771579" lon="14.727102690688817"><ele>685.0</ele><time>2026-05-01T18:31:52Z</time></trkpt><trkpt lat="47.20638427373452" lon="14.726803917198676"><ele>685.0</ele><time>2026-05-01T18:31:53Z</time></trkpt><trkpt lat="47.20615268214928" lon="14.726512087379133"><ele>685.0</ele><time>2026-05-01T18:31:54Z</time></trkpt><trkpt lat="47.20591673462492" lon="14.726227827137622"><ele>685.0</ele><time>2026-05-01T18:31:55Z</time></trkpt><trkpt lat="47.205676792605054" lon="14.725952158143764"><ele>685.0</ele><time>2026-05-01T18:31:56Z</time></trkpt><trkpt lat="47.20543126320634" lon="14.725685953634551"><ele>685.0</ele><time>2026-05-01T18:31:57Z</time></trkpt><trkpt lat="47.20518055378925" lon="14.725428866589352"><ele>686.0</ele><time>2026-05-01T18:31:58Z</time></trkpt><trkpt lat="47.20492377475781" lon="14.725181286507697"><ele>687.0</ele><time>2026-05-01T18:31:59Z</time></trkpt><trkpt lat="47.20466320051269" lon="14.724940202602257"><ele>687.0</ele><time>2026-05-01T18:32:00Z</time></trkpt><trkpt lat="47.20439815415015" lon="14.724706345920477"><ele>687.0</ele><time>2026-05-01T18:32:01Z</time></trkpt><trkpt lat="47.204130751112174" lon="14.724481851318302"><ele>687.5</ele><time>2026-05-01T18:32:02Z</time></trkpt><trkpt lat="47.20385806169413" lon="14.724271118457812"><ele>688.0</ele><time>2026-05-01T18:32:03Z</time></trkpt><trkpt lat="47.203582043038644" lon="14.724072916349503"><ele>688.0</ele><time>2026-05-01T18:32:04Z</time></trkpt><trkpt lat="47.203302564181364" lon="14.723884911375551"><ele>688.0</ele><time>2026-05-01T18:32:05Z</time></trkpt><trkpt lat="47.203021090491916" lon="14.723707234214872"><ele>687.5</ele><time>2026-05-01T18:32:06Z</time></trkpt><trkpt lat="47.20273721051134" lon="14.723537879206313"><ele>687.0</ele><time>2026-05-01T18:32:07Z</time></trkpt><trkpt lat="47.202454538359625" lon="14.723373564814707"><ele>686.5</ele><time>2026-05-01T18:32:08Z</time></trkpt><trkpt lat="47.20217120734869" lon="14.723218532965967"><ele>686.0</ele><time>2026-05-01T18:32:09Z</time></trkpt><trkpt lat="47.20188727853443" lon="14.72306599894659"><ele>686.0</ele><time>2026-05-01T18:32:10Z</time></trkpt><trkpt lat="47.20159803447159" lon="14.722925405288734"><ele>686.0</ele><time>2026-05-01T18:32:11Z</time></trkpt><trkpt lat="47.201306808452586" lon="14.7227871423275"><ele>687.0</ele><time>2026-05-01T18:32:12Z</time></trkpt><trkpt lat="47.20101464714982" lon="14.722647655070093"><ele>688.0</ele><time>2026-05-01T18:32:13Z</time></trkpt><trkpt lat="47.200722654013916" lon="14.722505589250474"><ele>688.0</ele><time>2026-05-01T18:32:14Z</time></trkpt><trkpt lat="47.2004326782954" lon="14.722364213331948"><ele>688.0</ele><time>2026-05-01T18:32:15Z</time></trkpt><trkpt lat="47.20014522931495" lon="14.722221283219683"><ele>688.0</ele><time>2026-05-01T18:32:16Z</time></trkpt><trkpt lat="47.1998587206536" lon="14.722077891276184"><ele>688.0</ele><time>2026-05-01T18:32:17Z</time></trkpt><trkpt lat="47.19957443022846" lon="14.721935211575904"><ele>686.5</ele><time>2026-05-01T18:32:18Z</time></trkpt><trkpt lat="47.19929161454656" lon="14.721789965126984"><ele>685.0</ele><time>2026-05-01T18:32:19Z</time></trkpt><trkpt lat="47.199009890350496" lon="14.721640060689257"><ele>684.0</ele><time>2026-05-01T18:32:20Z</time></trkpt><trkpt lat="47.19872836941664" lon="14.721485059182807"><ele>683.0</ele><time>2026-05-01T18:32:21Z</time></trkpt><trkpt lat="47.19844880985889" lon="14.72132430019136"><ele>683.0</ele><time>2026-05-01T18:32:22Z</time></trkpt><trkpt lat="47.19816944952653" lon="14.721158974357277"><ele>683.0</ele><time>2026-05-01T18:32:23Z</time></trkpt><trkpt lat="47.197891934543165" lon="14.72098653103976"><ele>682.0</ele><time>2026-05-01T18:32:24Z</time></trkpt><trkpt lat="47.197615465296124" lon="14.720811939829463"><ele>681.0</ele><time>2026-05-01T18:32:25Z</time></trkpt><trkpt lat="47.19734016318721" lon="14.720632370494332"><ele>681.5</ele><time>2026-05-01T18:32:26Z</time></trkpt><trkpt lat="47.19706710589444" lon="14.72044532144325"><ele>682.0</ele><time>2026-05-01T18:32:27Z</time></trkpt><trkpt lat="47.19679629919186" lon="14.720252912774413"><ele>683.0</ele><time>2026-05-01T18:32:28Z</time></trkpt><trkpt lat="47.19652771737723" lon="14.720048089415652"><ele>684.0</ele><time>2026-05-01T18:32:29Z</time></trkpt><trkpt lat="47.196262829830054" lon="14.719833413826093"><ele>685.0</ele><time>2026-05-01T18:32:30Z</time></trkpt><trkpt lat="47.19601530740814" lon="14.71962363997728"><ele>686.0</ele><time>2026-05-01T18:32:31Z</time></trkpt><trkpt lat="47.1957858131475" lon="14.719418970145039"><ele>686.5</ele><time>2026-05-01T18:32:32Z</time></trkpt><trkpt lat="47.19555474006783" lon="14.71920830126153"><ele>687.0</ele><time>2026-05-01T18:32:33Z</time></trkpt><trkpt lat="47.19531884375107" lon="14.71898191514445"><ele>687.0</ele><time>2026-05-01T18:32:34Z</time></trkpt><trkpt lat="47.19508043468448" lon="14.718740367884298"><ele>687.0</ele><time>2026-05-01T18:32:35Z</time></trkpt><trkpt lat="47.19484016301774" lon="14.718486670457466"><ele>686.0</ele><time>2026-05-01T18:32:36Z</time></trkpt><trkpt lat="47.19459464137528" lon="14.718223985963023"><ele>685.0</ele><time>2026-05-01T18:32:37Z</time></trkpt><trkpt lat="47.19435301327901" lon="14.717963443801391"><ele>686.5</ele><time>2026-05-01T18:32:38Z</time></trkpt><trkpt lat="47.19411918597074" lon="14.71769704438257"><ele>688.0</ele><time>2026-05-01T18:32:39Z</time></trkpt><trkpt lat="47.19389282531868" lon="14.71742058272388"><ele>685.5</ele><time>2026-05-01T18:32:40Z</time></trkpt><trkpt lat="47.19366978099593" lon="14.717139271217043"><ele>683.0</ele><time>2026-05-01T18:32:41Z</time></trkpt><trkpt lat="47.19344987142928" lon="14.716853779534137"><ele>683.0</ele><time>2026-05-01T18:32:42Z</time></trkpt><trkpt lat="47.19323588124381" lon="14.716560819099628"><ele>683.0</ele><time>2026-05-01T18:32:43Z</time></trkpt><trkpt lat="47.19302781991677" lon="14.716261049435069"><ele>684.0</ele><time>2026-05-01T18:32:44Z</time></trkpt><trkpt lat="47.192823649479436" lon="14.715958543157639"><ele>685.0</ele><time>2026-05-01T18:32:45Z</time></trkpt><trkpt lat="47.192620878752784" lon="14.715647807830788"><ele>685.0</ele><time>2026-05-01T18:32:46Z</time></trkpt><trkpt lat="47.192418845571645" lon="14.715330709826857"><ele>685.0</ele><time>2026-05-01T18:32:47Z</time></trkpt><trkpt lat="47.19221860341551" lon="14.715005833059458"><ele>687.5</ele><time>2026-05-01T18:32:48Z</time></trkpt><trkpt lat="47.19202158937896" lon="14.714672275297701"><ele>690.0</ele><time>2026-05-01T18:32:49Z</time></trkpt><trkpt lat="47.191830046360465" lon="14.714330623994993"><ele>690.0</ele><time>2026-05-01T18:32:50Z</time></trkpt><trkpt lat="47.19164471946124" lon="14.713982052525946"><ele>690.0</ele><time>2026-05-01T18:32:51Z</time></trkpt><trkpt lat="47.19146465505982" lon="14.713627263652542"><ele>692.5</ele><time>2026-05-01T18:32:52Z</time></trkpt><trkpt lat="47.19129014717025" lon="14.7132669920338"><ele>695.0</ele><time>2026-05-01T18:32:53Z</time></trkpt><trkpt lat="47.191119467118995" lon="14.712903468129035"><ele>695.0</ele><time>2026-05-01T18:32:54Z</time></trkpt><trkpt lat="47.19095144717278" lon="14.712536548397301"><ele>695.0</ele><time>2026-05-01T18:32:55Z</time></trkpt><trkpt lat="47.19078790118121" lon="14.712165998751509"><ele>696.5</ele><time>2026-05-01T18:32:56Z</time></trkpt><trkpt lat="47.19062898174489" lon="14.711790678052983"><ele>698.0</ele><time>2026-05-01T18:32:57Z</time></trkpt><trkpt lat="47.19047545249538" lon="14.711409700312773"><ele>697.5</ele><time>2026-05-01T18:32:58Z</time></trkpt><trkpt lat="47.19032634806617" lon="14.711024584530056"><ele>697.0</ele><time>2026-05-01T18:32:59Z</time></trkpt><trkpt lat="47.190180947291694" lon="14.710636050657937"><ele>697.0</ele><time>2026-05-01T18:33:00Z</time></trkpt><trkpt lat="47.19004019166469" lon="14.710243045995236"><ele>697.0</ele><time>2026-05-01T18:33:01Z</time></trkpt><trkpt lat="47.189903793652654" lon="14.70984653857519"><ele>697.0</ele><time>2026-05-01T18:33:02Z</time></trkpt><trkpt lat="47.189769445179635" lon="14.70944581830315"><ele>697.0</ele><time>2026-05-01T18:33:03Z</time></trkpt><trkpt lat="47.1896380466767" lon="14.709040336925298"><ele>698.0</ele><time>2026-05-01T18:33:04Z</time></trkpt><trkpt lat="47.18951067160185" lon="14.70863108976396"><ele>699.0</ele><time>2026-05-01T18:33:05Z</time></trkpt><trkpt lat="47.18938520987155" lon="14.708218884726483"><ele>699.0</ele><time>2026-05-01T18:33:06Z</time></trkpt><trkpt lat="47.18926369806536" lon="14.707803506691505"><ele>699.0</ele><time>2026-05-01T18:33:07Z</time></trkpt><trkpt lat="47.18914677250453" lon="14.707384538918463"><ele>699.5</ele><time>2026-05-01T18:33:08Z</time></trkpt><trkpt lat="47.189034917462315" lon="14.706963009617256"><ele>700.0</ele><time>2026-05-01T18:33:09Z</time></trkpt><trkpt lat="47.18892499481542" lon="14.706538466955713"><ele>701.0</ele><time>2026-05-01T18:33:10Z</time></trkpt><trkpt lat="47.188816097102915" lon="14.70611279540353"><ele>702.0</ele><time>2026-05-01T18:33:11Z</time></trkpt><trkpt lat="47.18870915376811" lon="14.705687622891418"><ele>702.0</ele><time>2026-05-01T18:33:12Z</time></trkpt><trkpt lat="47.1886067753933" lon="14.705264856782778"><ele>702.0</ele><time>2026-05-01T18:33:13Z</time></trkpt><trkpt lat="47.18850770846104" lon="14.704845133638205"><ele>702.0</ele><time>2026-05-01T18:33:14Z</time></trkpt><trkpt lat="47.188410716703125" lon="14.70442137036293"><ele>702.0</ele><time>2026-05-01T18:33:15Z</time></trkpt><trkpt lat="47.1883152232506" lon="14.70399431407159"><ele>703.0</ele><time>2026-05-01T18:33:16Z</time></trkpt><trkpt lat="47.1882201955185" lon="14.70356478518435"><ele>704.0</ele><time>2026-05-01T18:33:17Z</time></trkpt><trkpt lat="47.18812627599081" lon="14.703133396031612"><ele>703.5</ele><time>2026-05-01T18:33:18Z</time></trkpt><trkpt lat="47.188030881291304" lon="14.702700221874629"><ele>703.0</ele><time>2026-05-01T18:33:19Z</time></trkpt><trkpt lat="47.187932083058364" lon="14.702268137470007"><ele>704.0</ele><time>2026-05-01T18:33:20Z</time></trkpt><trkpt lat="47.18783223107197" lon="14.701836787836008"><ele>705.0</ele><time>2026-05-01T18:33:21Z</time></trkpt><trkpt lat="47.18773718548325" lon="14.701402965478001"><ele>705.0</ele><time>2026-05-01T18:33:22Z</time></trkpt><trkpt lat="47.187651318212474" lon="14.700966324163801"><ele>705.0</ele><time>2026-05-01T18:33:23Z</time></trkpt><trkpt lat="47.18757061549697" lon="14.700526650260224"><ele>705.5</ele><time>2026-05-01T18:33:24Z</time></trkpt><trkpt lat="47.18749110929959" lon="14.700085836782991"><ele>706.0</ele><time>2026-05-01T18:33:25Z</time></trkpt><trkpt lat="47.18741046585858" lon="14.699645148620846"><ele>706.0</ele><time>2026-05-01T18:33:26Z</time></trkpt><trkpt lat="47.18733042998471" lon="14.6992049582696"><ele>706.0</ele><time>2026-05-01T18:33:27Z</time></trkpt><trkpt lat="47.18725210884047" lon="14.698763613614881"><ele>706.5</ele><time>2026-05-01T18:33:28Z</time></trkpt><trkpt lat="47.18717584462639" lon="14.698321847012542"><ele>707.0</ele><time>2026-05-01T18:33:29Z</time></trkpt><trkpt lat="47.187102338166234" lon="14.697879094864946"><ele>707.0</ele><time>2026-05-01T18:33:30Z</time></trkpt><trkpt lat="47.18702996212118" lon="14.697436496823245"><ele>707.0</ele><time>2026-05-01T18:33:31Z</time></trkpt><trkpt lat="47.18696094092801" lon="14.696992171411361"><ele>707.5</ele><time>2026-05-01T18:33:32Z</time></trkpt><trkpt lat="47.18689520448742" lon="14.696547231321754"><ele>708.0</ele><time>2026-05-01T18:33:33Z</time></trkpt><trkpt lat="47.18682834816591" lon="14.696103415605986"><ele>708.5</ele><time>2026-05-01T18:33:34Z</time></trkpt><trkpt lat="47.18676278030402" lon="14.695660682280959"><ele>709.0</ele><time>2026-05-01T18:33:35Z</time></trkpt><trkpt lat="47.186700009720326" lon="14.6952159464763"><ele>709.0</ele><time>2026-05-01T18:33:36Z</time></trkpt><trkpt lat="47.18664027079931" lon="14.694773493132292"><ele>709.0</ele><time>2026-05-01T18:33:37Z</time></trkpt><trkpt lat="47.18658205178108" lon="14.694329202546305"><ele>709.0</ele><time>2026-05-01T18:33:38Z</time></trkpt><trkpt lat="47.18652437796463" lon="14.693885895491192"><ele>709.0</ele><time>2026-05-01T18:33:39Z</time></trkpt><trkpt lat="47.1864687981754" lon="14.693441808882355"><ele>709.0</ele><time>2026-05-01T18:33:40Z</time></trkpt><trkpt lat="47.186414195422046" lon="14.692995482241372"><ele>709.0</ele><time>2026-05-01T18:33:41Z</time></trkpt><trkpt lat="47.18636328335658" lon="14.692548235985253"><ele>710.0</ele><time>2026-05-01T18:33:42Z</time></trkpt><trkpt lat="47.186317909672375" lon="14.692098995897883"><ele>711.0</ele><time>2026-05-01T18:33:43Z</time></trkpt><trkpt lat="47.186277924641715" lon="14.69164919088977"><ele>711.5</ele><time>2026-05-01T18:33:44Z</time></trkpt><trkpt lat="47.18624129491249" lon="14.69119731244681"><ele>712.0</ele><time>2026-05-01T18:33:45Z</time></trkpt><trkpt lat="47.186205539218975" lon="14.690744430870906"><ele>713.5</ele><time>2026-05-01T18:33:46Z</time></trkpt><trkpt lat="47.186167115689074" lon="14.690291489029889"><ele>715.0</ele><time>2026-05-01T18:33:47Z</time></trkpt><trkpt lat="47.18612753930037" lon="14.689838652647722"><ele>715.0</ele><time>2026-05-01T18:33:48Z</time></trkpt><trkpt lat="47.186088142805254" lon="14.689385147756472"><ele>715.0</ele><time>2026-05-01T18:33:49Z</time></trkpt><trkpt lat="47.18605076395642" lon="14.688932498204913"><ele>714.5</ele><time>2026-05-01T18:33:50Z</time></trkpt><trkpt lat="47.18601569863091" lon="14.688481178163695"><ele>714.0</ele><time>2026-05-01T18:33:51Z</time></trkpt><trkpt lat="47.185980581041925" lon="14.688031216922601"><ele>714.5</ele><time>2026-05-01T18:33:52Z</time></trkpt><trkpt lat="47.185945528387954" lon="14.687581658595764"><ele>715.0</ele><time>2026-05-01T18:33:53Z</time></trkpt><trkpt lat="47.18591197704263" lon="14.68713390523814"><ele>715.0</ele><time>2026-05-01T18:33:54Z</time></trkpt><trkpt lat="47.18588097629916" lon="14.686687109739525"><ele>715.0</ele><time>2026-05-01T18:33:55Z</time></trkpt><trkpt lat="47.18585043429722" lon="14.686241017981496"><ele>715.0</ele><time>2026-05-01T18:33:56Z</time></trkpt><trkpt lat="47.185819017375856" lon="14.685796910576121"><ele>715.0</ele><time>2026-05-01T18:33:57Z</time></trkpt><trkpt lat="47.185784507587165" lon="14.685353985012313"><ele>715.5</ele><time>2026-05-01T18:33:58Z</time></trkpt><trkpt lat="47.18574820560959" lon="14.684911565978155"><ele>716.0</ele><time>2026-05-01T18:33:59Z</time></trkpt><trkpt lat="47.18571025799217" lon="14.684468876356972"><ele>716.0</ele><time>2026-05-01T18:34:00Z</time></trkpt><trkpt lat="47.185672455374046" lon="14.684027012180307"><ele>716.0</ele><time>2026-05-01T18:34:01Z</time></trkpt><trkpt lat="47.185633908887205" lon="14.683588918041993"><ele>715.5</ele><time>2026-05-01T18:34:02Z</time></trkpt><trkpt lat="47.185596008278054" lon="14.68317026120519"><ele>715.0</ele><time>2026-05-01T18:34:03Z</time></trkpt><trkpt lat="47.18555849455895" lon="14.682748820010316"><ele>715.0</ele><time>2026-05-01T18:34:04Z</time></trkpt><trkpt lat="47.18551699304851" lon="14.682315064641724"><ele>715.0</ele><time>2026-05-01T18:34:05Z</time></trkpt><trkpt lat="47.185470438269064" lon="14.681880143641187"><ele>716.0</ele><time>2026-05-01T18:34:06Z</time></trkpt><trkpt lat="47.185419593289765" lon="14.681441242399703"><ele>717.0</ele><time>2026-05-01T18:34:07Z</time></trkpt><trkpt lat="47.18536726661099" lon="14.680997603659344"><ele>718.0</ele><time>2026-05-01T18:34:08Z</time></trkpt><trkpt lat="47.18531353658171" lon="14.680554326245561"><ele>719.0</ele><time>2026-05-01T18:34:09Z</time></trkpt><trkpt lat="47.18525558738858" lon="14.68011152630402"><ele>719.0</ele><time>2026-05-01T18:34:10Z</time></trkpt><trkpt lat="47.185191254385444" lon="14.679669482714656"><ele>719.0</ele><time>2026-05-01T18:34:11Z</time></trkpt><trkpt lat="47.18512004412206" lon="14.679226687986043"><ele>719.5</ele><time>2026-05-01T18:34:12Z</time></trkpt><trkpt lat="47.18504184370784" lon="14.678784364178867"><ele>720.0</ele><time>2026-05-01T18:34:13Z</time></trkpt><trkpt lat="47.18495796855624" lon="14.678343872527746"><ele>721.0</ele><time>2026-05-01T18:34:14Z</time></trkpt><trkpt lat="47.18487211534742" lon="14.677906025197807"><ele>722.0</ele><time>2026-05-01T18:34:15Z</time></trkpt><trkpt lat="47.18478385593914" lon="14.677468471337308"><ele>722.0</ele><time>2026-05-01T18:34:16Z</time></trkpt><trkpt lat="47.18469290068159" lon="14.677033659058557"><ele>722.0</ele><time>2026-05-01T18:34:17Z</time></trkpt><trkpt lat="47.184597525375615" lon="14.676602878075379"><ele>721.5</ele><time>2026-05-01T18:34:18Z</time></trkpt><trkpt lat="47.18449665338818" lon="14.676175572064825"><ele>721.0</ele><time>2026-05-01T18:34:19Z</time></trkpt><trkpt lat="47.184390172701875" lon="14.67575070301262"><ele>722.0</ele><time>2026-05-01T18:34:20Z</time></trkpt><trkpt lat="47.18428178289003" lon="14.675329192561174"><ele>723.0</ele><time>2026-05-01T18:34:21Z</time></trkpt><trkpt lat="47.18416880007266" lon="14.674910436727762"><ele>723.0</ele><time>2026-05-01T18:34:22Z</time></trkpt><trkpt lat="47.18405093873975" lon="14.67449566243428"><ele>723.0</ele><time>2026-05-01T18:34:23Z</time></trkpt><trkpt lat="47.183926279738216" lon="14.674083699370506"><ele>723.5</ele><time>2026-05-01T18:34:24Z</time></trkpt><trkpt lat="47.18379637885167" lon="14.673673106780099"><ele>724.0</ele><time>2026-05-01T18:34:25Z</time></trkpt><trkpt lat="47.18366575106861" lon="14.673263934108673"><ele>724.0</ele><time>2026-05-01T18:34:26Z</time></trkpt><trkpt lat="47.18353211227093" lon="14.672857314154044"><ele>724.0</ele><time>2026-05-01T18:34:27Z</time></trkpt><trkpt lat="47.183393776753505" lon="14.67245458202629"><ele>724.0</ele><time>2026-05-01T18:34:28Z</time></trkpt><trkpt lat="47.18325021739457" lon="14.672054337494114"><ele>724.0</ele><time>2026-05-01T18:34:29Z</time></trkpt><trkpt lat="47.18310184706013" lon="14.671657359546005"><ele>724.5</ele><time>2026-05-01T18:34:30Z</time></trkpt><trkpt lat="47.182950875387384" lon="14.67126414633862"><ele>725.0</ele><time>2026-05-01T18:34:31Z</time></trkpt><trkpt lat="47.182796407438374" lon="14.670874831882838"><ele>725.5</ele><time>2026-05-01T18:34:32Z</time></trkpt><trkpt lat="47.18263839069819" lon="14.670489459898402"><ele>726.0</ele><time>2026-05-01T18:34:33Z</time></trkpt><trkpt lat="47.18247777822043" lon="14.670104453559459"><ele>725.0</ele><time>2026-05-01T18:34:34Z</time></trkpt><trkpt lat="47.182315645310965" lon="14.66972123746938"><ele>724.0</ele><time>2026-05-01T18:34:35Z</time></trkpt><trkpt lat="47.182150958253715" lon="14.669340898907773"><ele>726.0</ele><time>2026-05-01T18:34:36Z</time></trkpt><trkpt lat="47.18198298130196" lon="14.668963016635443"><ele>728.0</ele><time>2026-05-01T18:34:37Z</time></trkpt><trkpt lat="47.181812667256565" lon="14.668587365658812"><ele>728.0</ele><time>2026-05-01T18:34:38Z</time></trkpt><trkpt lat="47.18164070288301" lon="14.668213505081367"><ele>728.0</ele><time>2026-05-01T18:34:39Z</time></trkpt><trkpt lat="47.18146818250605" lon="14.667842926064633"><ele>729.0</ele><time>2026-05-01T18:34:40Z</time></trkpt><trkpt lat="47.181295766335104" lon="14.667471905288712"><ele>730.0</ele><time>2026-05-01T18:34:41Z</time></trkpt><trkpt lat="47.1811240725621" lon="14.667101164872761"><ele>730.5</ele><time>2026-05-01T18:34:42Z</time></trkpt><trkpt lat="47.18095236171736" lon="14.666732171426876"><ele>731.0</ele><time>2026-05-01T18:34:43Z</time></trkpt><trkpt lat="47.180781328774415" lon="14.666365046990782"><ele>731.5</ele><time>2026-05-01T18:34:44Z</time></trkpt><trkpt lat="47.18060993207038" lon="14.66600195919855"><ele>732.0</ele><time>2026-05-01T18:34:45Z</time></trkpt><trkpt lat="47.18043711375725" lon="14.665639382037467"><ele>732.0</ele><time>2026-05-01T18:34:46Z</time></trkpt><trkpt lat="47.180264568465674" lon="14.665277215942616"><ele>732.0</ele><time>2026-05-01T18:34:47Z</time></trkpt><trkpt lat="47.18009384424196" lon="14.664913559014211"><ele>732.0</ele><time>2026-05-01T18:34:48Z</time></trkpt><trkpt lat="47.179923838589836" lon="14.664551390650496"><ele>732.0</ele><time>2026-05-01T18:34:49Z</time></trkpt><trkpt lat="47.17975376796407" lon="14.66419054549105"><ele>731.5</ele><time>2026-05-01T18:34:50Z</time></trkpt><trkpt lat="47.179583703325925" lon="14.663829247633473"><ele>731.0</ele><time>2026-05-01T18:34:51Z</time></trkpt><trkpt lat="47.179413467173525" lon="14.66347014589004"><ele>732.0</ele><time>2026-05-01T18:34:52Z</time></trkpt><trkpt lat="47.17924252235111" lon="14.663113173108052"><ele>733.0</ele><time>2026-05-01T18:34:53Z</time></trkpt><trkpt lat="47.17907242561661" lon="14.662757481502954"><ele>734.0</ele><time>2026-05-01T18:34:54Z</time></trkpt><trkpt lat="47.17890328556344" lon="14.662400317450489"><ele>735.0</ele><time>2026-05-01T18:34:55Z</time></trkpt><trkpt lat="47.17873520353687" lon="14.662042215847741"><ele>735.5</ele><time>2026-05-01T18:34:56Z</time></trkpt><trkpt lat="47.17856799625137" lon="14.661685479163813"><ele>736.0</ele><time>2026-05-01T18:34:57Z</time></trkpt><trkpt lat="47.178398814104966" lon="14.66132920672286"><ele>735.5</ele><time>2026-05-01T18:34:58Z</time></trkpt><trkpt lat="47.1782282790245" lon="14.660972791291979"><ele>735.0</ele><time>2026-05-01T18:34:59Z</time></trkpt><trkpt lat="47.17805793591486" lon="14.66061515971053"><ele>736.0</ele><time>2026-05-01T18:35:00Z</time></trkpt><trkpt lat="47.17788851274303" lon="14.66025634063425"><ele>737.0</ele><time>2026-05-01T18:35:01Z</time></trkpt><trkpt lat="47.177718850286446" lon="14.659897028458873"><ele>737.0</ele><time>2026-05-01T18:35:02Z</time></trkpt><trkpt lat="47.17754824694816" lon="14.659536838500038"><ele>737.0</ele><time>2026-05-01T18:35:03Z</time></trkpt><trkpt lat="47.177377114362" lon="14.65917704962928"><ele>736.0</ele><time>2026-05-01T18:35:04Z</time></trkpt><trkpt lat="47.17720499232336" lon="14.658815679754705"><ele>735.0</ele><time>2026-05-01T18:35:05Z</time></trkpt><trkpt lat="47.17703509190297" lon="14.658451307726281"><ele>735.0</ele><time>2026-05-01T18:35:06Z</time></trkpt><trkpt lat="47.17686848325413" lon="14.658081670813589"><ele>735.0</ele><time>2026-05-01T18:35:07Z</time></trkpt><trkpt lat="47.176707144206816" lon="14.657706433182573"><ele>735.5</ele><time>2026-05-01T18:35:08Z</time></trkpt><trkpt lat="47.17655002482025" lon="14.657325819841052"><ele>736.0</ele><time>2026-05-01T18:35:09Z</time></trkpt><trkpt lat="47.17639597617305" lon="14.656940316455504"><ele>734.0</ele><time>2026-05-01T18:35:10Z</time></trkpt><trkpt lat="47.17625005102815" lon="14.65654818572865"><ele>732.0</ele><time>2026-05-01T18:35:11Z</time></trkpt><trkpt lat="47.17611533458105" lon="14.656147432433665"><ele>734.0</ele><time>2026-05-01T18:35:12Z</time></trkpt><trkpt lat="47.175991157067095" lon="14.655740204379203"><ele>736.0</ele><time>2026-05-01T18:35:13Z</time></trkpt><trkpt lat="47.175875972607464" lon="14.655326369617796"><ele>738.0</ele><time>2026-05-01T18:35:14Z</time></trkpt><trkpt lat="47.17577743869068" lon="14.654904648818002"><ele>740.0</ele><time>2026-05-01T18:35:15Z</time></trkpt><trkpt lat="47.17569391806666" lon="14.654478364311831"><ele>731.5</ele><time>2026-05-01T18:35:16Z</time></trkpt><trkpt lat="47.17562619786811" lon="14.654048261365347"><ele>723.0</ele><time>2026-05-01T18:35:17Z</time></trkpt><trkpt lat="47.175574275821674" lon="14.65361532181368"><ele>723.0</ele><time>2026-05-01T18:35:18Z</time></trkpt><trkpt lat="47.1755367882342" lon="14.653180107591135"><ele>723.0</ele><time>2026-05-01T18:35:19Z</time></trkpt><trkpt lat="47.175516321179074" lon="14.652750531242633"><ele>724.0</ele><time>2026-05-01T18:35:20Z</time></trkpt><trkpt lat="47.17551141008701" lon="14.652340520961673"><ele>725.0</ele><time>2026-05-01T18:35:21Z</time></trkpt><trkpt lat="47.17551828497397" lon="14.651953654547716"><ele>725.5</ele><time>2026-05-01T18:35:22Z</time></trkpt><trkpt lat="47.1755337390302" lon="14.651586596369276"><ele>726.0</ele><time>2026-05-01T18:35:23Z</time></trkpt><trkpt lat="47.17555886859442" lon="14.65123890834216"><ele>726.5</ele><time>2026-05-01T18:35:24Z</time></trkpt><trkpt lat="47.17559618970991" lon="14.650896756953747"><ele>727.0</ele><time>2026-05-01T18:35:25Z</time></trkpt><trkpt lat="47.175643951001156" lon="14.650556818065374"><ele>740.5</ele><time>2026-05-01T18:35:26Z</time></trkpt><trkpt lat="47.17569960196822" lon="14.650218551313873"><ele>754.0</ele><time>2026-05-01T18:35:27Z</time></trkpt><trkpt lat="47.17576696056137" lon="14.649886587317617"><ele>754.0</ele><time>2026-05-01T18:35:28Z</time></trkpt><trkpt lat="47.17584327762299" lon="14.649560191877754"><ele>754.0</ele><time>2026-05-01T18:35:29Z</time></trkpt><trkpt lat="47.175923637269754" lon="14.649240029736227"><ele>750.3333333333334</ele><time>2026-05-01T18:35:30Z</time></trkpt><trkpt lat="47.17600363082413" lon="14.648936384912135"><ele>746.6666666666666</ele><time>2026-05-01T18:35:31Z</time></trkpt><trkpt lat="47.17608276507338" lon="14.648652340879543"><ele>743.0</ele><time>2026-05-01T18:35:32Z</time></trkpt><trkpt lat="47.17616440847776" lon="14.648379105397973"><ele>740.0</ele><time>2026-05-01T18:35:33Z</time></trkpt><trkpt lat="47.17624525860535" lon="14.648116068446724"><ele>737.0</ele><time>2026-05-01T18:35:34Z</time></trkpt><trkpt lat="47.17632095192776" lon="14.6478693300966"><ele>734.0</ele><time>2026-05-01T18:35:35Z</time></trkpt><trkpt lat="47.1763964529227" lon="14.647621341359065"><ele>732.6666666666666</ele><time>2026-05-01T18:35:36Z</time></trkpt><trkpt lat="47.17647134642231" lon="14.647370340165647"><ele>731.3333333333334</ele><time>2026-05-01T18:35:37Z</time></trkpt><trkpt lat="47.17654213054221" lon="14.647116185066224"><ele>730.0</ele><time>2026-05-01T18:35:38Z</time></trkpt><trkpt lat="47.1766114387983" lon="14.64686119473391"><ele>735.6666666666667</ele><time>2026-05-01T18:35:39Z</time></trkpt><trkpt lat="47.176676526167945" lon="14.646603115098554"><ele>741.3333333333334</ele><time>2026-05-01T18:35:40Z</time></trkpt><trkpt lat="47.176737233604406" lon="14.646342258272535"><ele>747.0</ele><time>2026-05-01T18:35:41Z</time></trkpt><trkpt lat="47.17679330308475" lon="14.646079131301645"><ele>747.0</ele><time>2026-05-01T18:35:42Z</time></trkpt><trkpt lat="47.176846891643166" lon="14.64581356936199"><ele>747.0</ele><time>2026-05-01T18:35:43Z</time></trkpt><trkpt lat="47.176899758916726" lon="14.64554645477903"><ele>747.0</ele><time>2026-05-01T18:35:44Z</time></trkpt><trkpt lat="47.17695006498937" lon="14.645278582712443"><ele>746.3333333333334</ele><time>2026-05-01T18:35:45Z</time></trkpt><trkpt lat="47.17699706958205" lon="14.645011746645103"><ele>745.6666666666667</ele><time>2026-05-01T18:35:46Z</time></trkpt><trkpt lat="47.177038199389266" lon="14.64474352804674"><ele>745.0</ele><time>2026-05-01T18:35:47Z</time></trkpt><trkpt lat="47.177074359423706" lon="14.644474966749906"><ele>744.0</ele><time>2026-05-01T18:35:48Z</time></trkpt><trkpt lat="47.17710719217774" lon="14.64420720982208"><ele>743.0</ele><time>2026-05-01T18:35:49Z</time></trkpt><trkpt lat="47.17713251902987" lon="14.64393961171803"><ele>742.0</ele><time>2026-05-01T18:35:50Z</time></trkpt><trkpt lat="47.17715018231406" lon="14.64367091709284"><ele>740.3333333333334</ele><time>2026-05-01T18:35:51Z</time></trkpt><trkpt lat="47.177162322232675" lon="14.643400930507093"><ele>738.6666666666666</ele><time>2026-05-01T18:35:52Z</time></trkpt><trkpt lat="47.17717006393452" lon="14.64312733751629"><ele>737.0</ele><time>2026-05-01T18:35:53Z</time></trkpt><trkpt lat="47.177175927739015" lon="14.642852182852646"><ele>733.6666666666666</ele><time>2026-05-01T18:35:54Z</time></trkpt><trkpt lat="47.177179958457295" lon="14.642575102866804"><ele>730.3333333333334</ele><time>2026-05-01T18:35:55Z</time></trkpt><trkpt lat="47.17718000759229" lon="14.642296630400912"><ele>727.0</ele><time>2026-05-01T18:35:56Z</time></trkpt><trkpt lat="47.17717471024528" lon="14.642018427018147"><ele>724.3333333333334</ele><time>2026-05-01T18:35:57Z</time></trkpt><trkpt lat="47.177165332982824" lon="14.641738796425788"><ele>721.6666666666666</ele><time>2026-05-01T18:35:58Z</time></trkpt><trkpt lat="47.17715000284311" lon="14.641458445096816"><ele>719.0</ele><time>2026-05-01T18:35:59Z</time></trkpt><trkpt lat="47.17712904797733" lon="14.641178377554798"><ele>718.0</ele><time>2026-05-01T18:36:00Z</time></trkpt><trkpt lat="47.17710452355631" lon="14.64089820822028"><ele>717.0</ele><time>2026-05-01T18:36:01Z</time></trkpt><trkpt lat="47.17707617575725" lon="14.640619026890809"><ele>716.0</ele><time>2026-05-01T18:36:02Z</time></trkpt><trkpt lat="47.177044422232996" lon="14.640341697043283"><ele>717.0</ele><time>2026-05-01T18:36:03Z</time></trkpt><trkpt lat="47.17700693157789" lon="14.64006644504693"><ele>718.0</ele><time>2026-05-01T18:36:04Z</time></trkpt><trkpt lat="47.17696323999525" lon="14.639792455796812"><ele>719.0</ele><time>2026-05-01T18:36:05Z</time></trkpt><trkpt lat="47.17691513699083" lon="14.639521213995222"><ele>715.0</ele><time>2026-05-01T18:36:06Z</time></trkpt><trkpt lat="47.17686329901791" lon="14.639250176749526"><ele>711.0</ele><time>2026-05-01T18:36:07Z</time></trkpt><trkpt lat="47.17680788283141" lon="14.638982417276821"><ele>707.0</ele><time>2026-05-01T18:36:08Z</time></trkpt><trkpt lat="47.17674850009153" lon="14.63871555269326"><ele>707.0</ele><time>2026-05-01T18:36:09Z</time></trkpt><trkpt lat="47.17668477395777" lon="14.638450616386029"><ele>707.0</ele><time>2026-05-01T18:36:10Z</time></trkpt><trkpt lat="47.17661719318019" lon="14.638188025031678"><ele>707.0</ele><time>2026-05-01T18:36:11Z</time></trkpt><trkpt lat="47.176544944539266" lon="14.637926942167095"><ele>720.6666666666666</ele><time>2026-05-01T18:36:12Z</time></trkpt><trkpt lat="47.17646901099013" lon="14.637668455956401"><ele>734.3333333333334</ele><time>2026-05-01T18:36:13Z</time></trkpt><trkpt lat="47.17638796874455" lon="14.637412968373265"><ele>748.0</ele><time>2026-05-01T18:36:14Z</time></trkpt><trkpt lat="47.176302084082494" lon="14.637159975087094"><ele>747.6666666666667</ele><time>2026-05-01T18:36:15Z</time></trkpt><trkpt lat="47.176212029638826" lon="14.636906315580152"><ele>747.3333333333334</ele><time>2026-05-01T18:36:16Z</time></trkpt><trkpt lat="47.176118082276965" lon="14.636655591536055"><ele>747.0</ele><time>2026-05-01T18:36:17Z</time></trkpt><trkpt lat="47.17602045869263" lon="14.636405975847843"><ele>747.0</ele><time>2026-05-01T18:36:18Z</time></trkpt><trkpt lat="47.1759226641227" lon="14.636157335338707"><ele>747.0</ele><time>2026-05-01T18:36:19Z</time></trkpt><trkpt lat="47.17582142866156" lon="14.635914165171075"><ele>747.0</ele><time>2026-05-01T18:36:20Z</time></trkpt><trkpt lat="47.1757166281138" lon="14.635676215428125"><ele>749.0</ele><time>2026-05-01T18:36:21Z</time></trkpt><trkpt lat="47.17560874204259" lon="14.635441394963863"><ele>751.0</ele><time>2026-05-01T18:36:22Z</time></trkpt><trkpt lat="47.175499581844996" lon="14.635210618990413"><ele>753.0</ele><time>2026-05-01T18:36:23Z</time></trkpt><trkpt lat="47.175390289914134" lon="14.634980370685035"><ele>753.0</ele><time>2026-05-01T18:36:24Z</time></trkpt><trkpt lat="47.17528296266218" lon="14.634750912698014"><ele>753.0</ele><time>2026-05-01T18:36:25Z</time></trkpt><trkpt lat="47.17517652372989" lon="14.634521681100383"><ele>753.0</ele><time>2026-05-01T18:36:26Z</time></trkpt><trkpt lat="47.1750719714519" lon="14.634291534768357"><ele>753.0</ele><time>2026-05-01T18:36:27Z</time></trkpt><trkpt lat="47.17496557099878" lon="14.634059920318423"><ele>753.0</ele><time>2026-05-01T18:36:28Z</time></trkpt><trkpt lat="47.17486014090906" lon="14.6338269345201"><ele>753.0</ele><time>2026-05-01T18:36:29Z</time></trkpt><trkpt lat="47.17475453781416" lon="14.633592763415349"><ele>754.6666666666666</ele><time>2026-05-01T18:36:30Z</time></trkpt><trkpt lat="47.17464655804499" lon="14.633359932046075"><ele>756.3333333333333</ele><time>2026-05-01T18:36:31Z</time></trkpt><trkpt lat="47.1745369940383" lon="14.633131411497818"><ele>758.0</ele><time>2026-05-01T18:36:32Z</time></trkpt><trkpt lat="47.1744236376718" lon="14.63291068520078"><ele>758.6666666666666</ele><time>2026-05-01T18:36:33Z</time></trkpt><trkpt lat="47.17430646855529" lon="14.63269697356484"><ele>759.3333333333334</ele><time>2026-05-01T18:36:34Z</time></trkpt><trkpt lat="47.174186497265815" lon="14.632487644449261"><ele>760.0</ele><time>2026-05-01T18:36:35Z</time></trkpt><trkpt lat="47.174061446068905" lon="14.632285089780234"><ele>760.3333333333334</ele><time>2026-05-01T18:36:36Z</time></trkpt><trkpt lat="47.173929302082634" lon="14.632095853458388"><ele>760.6666666666666</ele><time>2026-05-01T18:36:37Z</time></trkpt><trkpt lat="47.173792949714894" lon="14.631914381256758"><ele>761.0</ele><time>2026-05-01T18:36:38Z</time></trkpt><trkpt lat="47.17365037744495" lon="14.63174433513301"><ele>761.6666666666666</ele><time>2026-05-01T18:36:39Z</time></trkpt><trkpt lat="47.173502209024704" lon="14.631586529031413"><ele>762.3333333333334</ele><time>2026-05-01T18:36:40Z</time></trkpt><trkpt lat="47.17335000801126" lon="14.63143958982924"><ele>763.0</ele><time>2026-05-01T18:36:41Z</time></trkpt><trkpt lat="47.173193337613924" lon="14.631300427850038"><ele>763.0</ele><time>2026-05-01T18:36:42Z</time></trkpt><trkpt lat="47.17303275327015" lon="14.631168899738912"><ele>763.0</ele><time>2026-05-01T18:36:43Z</time></trkpt><trkpt lat="47.17287673486489" lon="14.631030725228623"><ele>763.0</ele><time>2026-05-01T18:36:44Z</time></trkpt><trkpt lat="47.17273519351757" lon="14.630883538031535"><ele>763.0</ele><time>2026-05-01T18:36:45Z</time></trkpt><trkpt lat="47.172615766574644" lon="14.630716846443296"><ele>763.0</ele><time>2026-05-01T18:36:46Z</time></trkpt><trkpt lat="47.17251015932611" lon="14.630522519394404"><ele>763.0</ele><time>2026-05-01T18:36:47Z</time></trkpt><trkpt lat="47.172427467885754" lon="14.63030707309059"><ele>763.0</ele><time>2026-05-01T18:36:48Z</time></trkpt><trkpt lat="47.172365429719854" lon="14.630071690305527"><ele>763.0</ele><time>2026-05-01T18:36:49Z</time></trkpt><trkpt lat="47.17233020974731" lon="14.629822018887195"><ele>763.0</ele><time>2026-05-01T18:36:50Z</time></trkpt><trkpt lat="47.172324198980455" lon="14.629564714579214"><ele>764.0</ele><time>2026-05-01T18:36:51Z</time></trkpt><trkpt lat="47.17234341812148" lon="14.629303210067379"><ele>765.0</ele><time>2026-05-01T18:36:52Z</time></trkpt><trkpt lat="47.17237786705172" lon="14.629037745335783"><ele>766.0</ele><time>2026-05-01T18:36:53Z</time></trkpt><trkpt lat="47.1724167028992" lon="14.628767046137174"><ele>767.3333333333334</ele><time>2026-05-01T18:36:54Z</time></trkpt><trkpt lat="47.1724545216879" lon="14.628488343684522"><ele>768.6666666666667</ele><time>2026-05-01T18:36:55Z</time></trkpt><trkpt lat="47.172491171354835" lon="14.62820841760761"><ele>770.0</ele><time>2026-05-01T18:36:56Z</time></trkpt><trkpt lat="47.17252907445811" lon="14.627932056853238"><ele>770.0</ele><time>2026-05-01T18:36:57Z</time></trkpt><trkpt lat="47.17256784078293" lon="14.62765840666822"><ele>770.0</ele><time>2026-05-01T18:36:58Z</time></trkpt><trkpt lat="47.17260588998086" lon="14.627384481934152"><ele>770.0</ele><time>2026-05-01T18:36:59Z</time></trkpt><trkpt lat="47.17264125600599" lon="14.627107038983347"><ele>769.0</ele><time>2026-05-01T18:37:00Z</time></trkpt><trkpt lat="47.172670674182214" lon="14.626826170254716"><ele>768.0</ele><time>2026-05-01T18:37:01Z</time></trkpt><trkpt lat="47.172693648610355" lon="14.626540710343118"><ele>767.0</ele><time>2026-05-01T18:37:02Z</time></trkpt><trkpt lat="47.17271089380893" lon="14.626247793123856"><ele>767.0</ele><time>2026-05-01T18:37:03Z</time></trkpt><trkpt lat="47.17272374270514" lon="14.625948297672728"><ele>767.0</ele><time>2026-05-01T18:37:04Z</time></trkpt><trkpt lat="47.17273166190193" lon="14.625644126975184"><ele>767.0</ele><time>2026-05-01T18:37:05Z</time></trkpt><trkpt lat="47.17273408897795" lon="14.62534076243571"><ele>767.3333333333333</ele><time>2026-05-01T18:37:06Z</time></trkpt><trkpt lat="47.172732876419055" lon="14.625034121773703"><ele>767.6666666666666</ele><time>2026-05-01T18:37:07Z</time></trkpt><trkpt lat="47.172732315783094" lon="14.624736232580831"><ele>768.0</ele><time>2026-05-01T18:37:08Z</time></trkpt><trkpt lat="47.17273308969812" lon="14.624453760450777"><ele>766.6666666666666</ele><time>2026-05-01T18:37:09Z</time></trkpt><trkpt lat="47.17273708575774" lon="14.624171300362645"><ele>765.3333333333333</ele><time>2026-05-01T18:37:10Z</time></trkpt><trkpt lat="47.1727453762206" lon="14.623879650930483"><ele>764.0</ele><time>2026-05-01T18:37:11Z</time></trkpt><trkpt lat="47.17275907667751" lon="14.623582727228603"><ele>764.0</ele><time>2026-05-01T18:37:12Z</time></trkpt><trkpt lat="47.172777368292884" lon="14.623283091778202"><ele>764.0</ele><time>2026-05-01T18:37:13Z</time></trkpt><trkpt lat="47.17280674142414" lon="14.622978289826218"><ele>764.0</ele><time>2026-05-01T18:37:14Z</time></trkpt><trkpt lat="47.172849366573296" lon="14.622672585530747"><ele>766.3333333333333</ele><time>2026-05-01T18:37:15Z</time></trkpt><trkpt lat="47.17289432206434" lon="14.622369970644257"><ele>768.6666666666666</ele><time>2026-05-01T18:37:16Z</time></trkpt><trkpt lat="47.17294712048551" lon="14.622081888417847"><ele>771.0</ele><time>2026-05-01T18:37:17Z</time></trkpt><trkpt lat="47.173003530168316" lon="14.621807803391404"><ele>773.6666666666667</ele><time>2026-05-01T18:37:18Z</time></trkpt><trkpt lat="47.17306678666586" lon="14.621532647095966"><ele>776.3333333333334</ele><time>2026-05-01T18:37:19Z</time></trkpt><trkpt lat="47.173133751973616" lon="14.621251861110592"><ele>779.0</ele><time>2026-05-01T18:37:20Z</time></trkpt><trkpt lat="47.173203402007374" lon="14.620967866057251"><ele>769.3333333333334</ele><time>2026-05-01T18:37:21Z</time></trkpt><trkpt lat="47.17327448765008" lon="14.62067974134398"><ele>759.6666666666667</ele><time>2026-05-01T18:37:22Z</time></trkpt><trkpt lat="47.1733433673059" lon="14.620390133099923"><ele>750.0</ele><time>2026-05-01T18:37:23Z</time></trkpt><trkpt lat="47.17341235276646" lon="14.620100318493925"><ele>750.0</ele><time>2026-05-01T18:37:24Z</time></trkpt><trkpt lat="47.17347912862371" lon="14.619817358413817"><ele>750.0</ele><time>2026-05-01T18:37:25Z</time></trkpt><trkpt lat="47.173546523923896" lon="14.619529660682815"><ele>750.0</ele><time>2026-05-01T18:37:26Z</time></trkpt><trkpt lat="47.17361480588279" lon="14.619243035695094"><ele>751.3333333333334</ele><time>2026-05-01T18:37:27Z</time></trkpt><trkpt lat="47.17368312088151" lon="14.618956754850261"><ele>752.6666666666667</ele><time>2026-05-01T18:37:28Z</time></trkpt><trkpt lat="47.173750609600106" lon="14.618672682872743"><ele>754.0</ele><time>2026-05-01T18:37:29Z</time></trkpt><trkpt lat="47.17381822361209" lon="14.618388927120872"><ele>754.0</ele><time>2026-05-01T18:37:30Z</time></trkpt><trkpt lat="47.17388501665427" lon="14.618105306798068"><ele>754.0</ele><time>2026-05-01T18:37:31Z</time></trkpt><trkpt lat="47.17395140306124" lon="14.617823920971759"><ele>754.0</ele><time>2026-05-01T18:37:32Z</time></trkpt><trkpt lat="47.174015567841614" lon="14.617543419143068"><ele>750.3333333333334</ele><time>2026-05-01T18:37:33Z</time></trkpt><trkpt lat="47.17407842440006" lon="14.617262151822102"><ele>746.6666666666666</ele><time>2026-05-01T18:37:34Z</time></trkpt><trkpt lat="47.17414170156421" lon="14.616980247639077"><ele>743.0</ele><time>2026-05-01T18:37:35Z</time></trkpt><trkpt lat="47.17420771524548" lon="14.616699243904447"><ele>743.0</ele><time>2026-05-01T18:37:36Z</time></trkpt><trkpt lat="47.174274719292214" lon="14.616421254168108"><ele>743.0</ele><time>2026-05-01T18:37:37Z</time></trkpt><trkpt lat="47.17433851020254" lon="14.616144984089338"><ele>743.0</ele><time>2026-05-01T18:37:38Z</time></trkpt><trkpt lat="47.174402150374895" lon="14.615866059835653"><ele>743.0</ele><time>2026-05-01T18:37:39Z</time></trkpt><trkpt lat="47.17446809555567" lon="14.615588091523156"><ele>743.0</ele><time>2026-05-01T18:37:40Z</time></trkpt><trkpt lat="47.17453487924133" lon="14.61531152218084"><ele>743.0</ele><time>2026-05-01T18:37:41Z</time></trkpt><trkpt lat="47.1746016975731" lon="14.615034477378261"><ele>743.6666666666666</ele><time>2026-05-01T18:37:42Z</time></trkpt><trkpt lat="47.174669026134254" lon="14.614754675219439"><ele>744.3333333333334</ele><time>2026-05-01T18:37:43Z</time></trkpt><trkpt lat="47.17473638630078" lon="14.614476888539691"><ele>745.0</ele><time>2026-05-01T18:37:44Z</time></trkpt><trkpt lat="47.17480268853578" lon="14.614200373865595"><ele>744.3333333333334</ele><time>2026-05-01T18:37:45Z</time></trkpt><trkpt lat="47.17486764713707" lon="14.613922494342447"><ele>743.6666666666666</ele><time>2026-05-01T18:37:46Z</time></trkpt><trkpt lat="47.17493199579568" lon="14.613644759245437"><ele>743.0</ele><time>2026-05-01T18:37:47Z</time></trkpt><trkpt lat="47.17499639280905" lon="14.613367996599262"><ele>743.0</ele><time>2026-05-01T18:37:48Z</time></trkpt><trkpt lat="47.17505965751817" lon="14.613094361057817"><ele>743.0</ele><time>2026-05-01T18:37:49Z</time></trkpt><trkpt lat="47.175118755153406" lon="14.612833527093"><ele>743.0</ele><time>2026-05-01T18:37:50Z</time></trkpt><trkpt lat="47.175175116716375" lon="14.61258945440659"><ele>743.6666666666666</ele><time>2026-05-01T18:37:51Z</time></trkpt><trkpt lat="47.17522882565967" lon="14.61235033705955"><ele>744.3333333333334</ele><time>2026-05-01T18:37:52Z</time></trkpt><trkpt lat="47.17527452388317" lon="14.612125432920879"><ele>745.0</ele><time>2026-05-01T18:37:53Z</time></trkpt><trkpt lat="47.17531040048164" lon="14.611922280808919"><ele>745.5</ele><time>2026-05-01T18:37:54Z</time></trkpt><trkpt lat="47.17533486868744" lon="14.611735441810113"><ele>746.0</ele><time>2026-05-01T18:37:55Z</time></trkpt><trkpt lat="47.17535284043242" lon="14.611549867057443"><ele>746.5</ele><time>2026-05-01T18:37:56Z</time></trkpt><trkpt lat="47.175369878979836" lon="14.61136437743633"><ele>747.0</ele><time>2026-05-01T18:37:57Z</time></trkpt><trkpt lat="47.175383853620396" lon="14.611179525161376"><ele>747.25</ele><time>2026-05-01T18:37:58Z</time></trkpt><trkpt lat="47.175397122236205" lon="14.61099690459906"><ele>747.5</ele><time>2026-05-01T18:37:59Z</time></trkpt><trkpt lat="47.175412977021274" lon="14.610816995224633"><ele>747.75</ele><time>2026-05-01T18:38:00Z</time></trkpt><trkpt lat="47.17543046059701" lon="14.610643496618337"><ele>748.0</ele><time>2026-05-01T18:38:01Z</time></trkpt><trkpt lat="47.17545400701406" lon="14.61047271809967"><ele>747.75</ele><time>2026-05-01T18:38:02Z</time></trkpt><trkpt lat="47.17548205895948" lon="14.610306677841358"><ele>747.5</ele><time>2026-05-01T18:38:03Z</time></trkpt><trkpt lat="47.17551453265906" lon="14.61014349427121"><ele>747.25</ele><time>2026-05-01T18:38:04Z</time></trkpt><trkpt lat="47.175550840290754" lon="14.609982150862951"><ele>747.0</ele><time>2026-05-01T18:38:05Z</time></trkpt><trkpt lat="47.17558981065636" lon="14.609819565579908"><ele>747.0</ele><time>2026-05-01T18:38:06Z</time></trkpt><trkpt lat="47.17563505903756" lon="14.60965726600038"><ele>747.0</ele><time>2026-05-01T18:38:07Z</time></trkpt><trkpt lat="47.175685020451155" lon="14.609501402272466"><ele>747.0</ele><time>2026-05-01T18:38:08Z</time></trkpt><trkpt lat="47.17574220276591" lon="14.609346078255001"><ele>747.0</ele><time>2026-05-01T18:38:09Z</time></trkpt><trkpt lat="47.175801839444524" lon="14.609198414385864"><ele>743.75</ele><time>2026-05-01T18:38:10Z</time></trkpt><trkpt lat="47.17587240830104" lon="14.609058077292548"><ele>740.5</ele><time>2026-05-01T18:38:11Z</time></trkpt><trkpt lat="47.17594773683205" lon="14.60892290263017"><ele>737.25</ele><time>2026-05-01T18:38:12Z</time></trkpt><trkpt lat="47.17602769468412" lon="14.608792328310605"><ele>734.0</ele><time>2026-05-01T18:38:13Z</time></trkpt><trkpt lat="47.17610762674623" lon="14.60866241288389"><ele>735.0</ele><time>2026-05-01T18:38:14Z</time></trkpt><trkpt lat="47.176186245689074" lon="14.608525756579425"><ele>736.0</ele><time>2026-05-01T18:38:15Z</time></trkpt><trkpt lat="47.176266660681144" lon="14.60839167437242"><ele>737.0</ele><time>2026-05-01T18:38:16Z</time></trkpt><trkpt lat="47.17634624127966" lon="14.608258204403501"><ele>738.0</ele><time>2026-05-01T18:38:17Z</time></trkpt><trkpt lat="47.176427423316994" lon="14.608126361972213"><ele>738.0</ele><time>2026-05-01T18:38:18Z</time></trkpt><trkpt lat="47.176507928244504" lon="14.60799593124658"><ele>738.0</ele><time>2026-05-01T18:38:19Z</time></trkpt><trkpt lat="47.176589320524485" lon="14.607867727163619"><ele>738.0</ele><time>2026-05-01T18:38:20Z</time></trkpt><trkpt lat="47.176669651879195" lon="14.60773895229046"><ele>738.0</ele><time>2026-05-01T18:38:21Z</time></trkpt><trkpt lat="47.176748185450464" lon="14.607611106673524"><ele>737.25</ele><time>2026-05-01T18:38:22Z</time></trkpt><trkpt lat="47.17682857446241" lon="14.607480378016524"><ele>736.5</ele><time>2026-05-01T18:38:23Z</time></trkpt><trkpt lat="47.17691000589374" lon="14.607349186775853"><ele>735.75</ele><time>2026-05-01T18:38:24Z</time></trkpt><trkpt lat="47.17699161198778" lon="14.607215735389632"><ele>735.0</ele><time>2026-05-01T18:38:25Z</time></trkpt><trkpt lat="47.17707405945961" lon="14.607080707424412"><ele>735.0</ele><time>2026-05-01T18:38:26Z</time></trkpt><trkpt lat="47.17715770297304" lon="14.606946349716155"><ele>735.0</ele><time>2026-05-01T18:38:27Z</time></trkpt><trkpt lat="47.17724374755276" lon="14.606814224757827"><ele>735.0</ele><time>2026-05-01T18:38:28Z</time></trkpt><trkpt lat="47.177330998150865" lon="14.606683166964194"><ele>735.0</ele><time>2026-05-01T18:38:29Z</time></trkpt><trkpt lat="47.177419494361345" lon="14.606554103011465"><ele>735.0</ele><time>2026-05-01T18:38:30Z</time></trkpt><trkpt lat="47.17750736736948" lon="14.606424095451075"><ele>735.0</ele><time>2026-05-01T18:38:31Z</time></trkpt><trkpt lat="47.177595952699875" lon="14.60629469383266"><ele>735.0</ele><time>2026-05-01T18:38:32Z</time></trkpt><trkpt lat="47.1776842224605" lon="14.606168670459459"><ele>735.0</ele><time>2026-05-01T18:38:33Z</time></trkpt><trkpt lat="47.17777346416622" lon="14.60604572619748"><ele>734.75</ele><time>2026-05-01T18:38:34Z</time></trkpt><trkpt lat="47.17785859725426" lon="14.605918227515568"><ele>734.5</ele><time>2026-05-01T18:38:35Z</time></trkpt><trkpt lat="47.17794202235632" lon="14.605785033134218"><ele>734.25</ele><time>2026-05-01T18:38:36Z</time></trkpt><trkpt lat="47.17802588274923" lon="14.60564652268981"><ele>734.0</ele><time>2026-05-01T18:38:37Z</time></trkpt><trkpt lat="47.17811447454401" lon="14.605499729964425"><ele>733.25</ele><time>2026-05-01T18:38:38Z</time></trkpt><trkpt lat="47.178209745762196" lon="14.605347062221483"><ele>732.5</ele><time>2026-05-01T18:38:39Z</time></trkpt><trkpt lat="47.17830892248555" lon="14.605186307752282"><ele>731.75</ele><time>2026-05-01T18:38:40Z</time></trkpt><trkpt lat="47.17841183790789" lon="14.605017693855606"><ele>731.0</ele><time>2026-05-01T18:38:41Z</time></trkpt><trkpt lat="47.178514955759596" lon="14.604849824244809"><ele>730.6666666666666</ele><time>2026-05-01T18:38:42Z</time></trkpt><trkpt lat="47.17861805076547" lon="14.604682127761698"><ele>730.3333333333334</ele><time>2026-05-01T18:38:43Z</time></trkpt><trkpt lat="47.17872674050977" lon="14.604504892632832"><ele>730.0</ele><time>2026-05-01T18:38:44Z</time></trkpt><trkpt lat="47.17883949985753" lon="14.604319016171374"><ele>729.6666666666667</ele><time>2026-05-01T18:38:45Z</time></trkpt><trkpt lat="47.17895552643231" lon="14.604127703274383"><ele>729.3333333333334</ele><time>2026-05-01T18:38:46Z</time></trkpt><trkpt lat="47.17906972126564" lon="14.603940925059181"><ele>729.0</ele><time>2026-05-01T18:38:47Z</time></trkpt><trkpt lat="47.179181765745064" lon="14.603757913760184"><ele>728.0</ele><time>2026-05-01T18:38:48Z</time></trkpt><trkpt lat="47.17929403462459" lon="14.603578012760234"><ele>727.0</ele><time>2026-05-01T18:38:49Z</time></trkpt><trkpt lat="47.179406709011054" lon="14.60340006701941"><ele>726.0</ele><time>2026-05-01T18:38:50Z</time></trkpt><trkpt lat="47.17951993079269" lon="14.603224075279075"><ele>726.0</ele><time>2026-05-01T18:38:51Z</time></trkpt><trkpt lat="47.17963236429619" lon="14.603047172207827"><ele>726.0</ele><time>2026-05-01T18:38:52Z</time></trkpt><trkpt lat="47.17974541325945" lon="14.602871059687866"><ele>726.0</ele><time>2026-05-01T18:38:53Z</time></trkpt><trkpt lat="47.17985855474133" lon="14.602695693329814"><ele>725.3333333333334</ele><time>2026-05-01T18:38:54Z</time></trkpt><trkpt lat="47.17997229188828" lon="14.602520352996063"><ele>724.6666666666667</ele><time>2026-05-01T18:38:55Z</time></trkpt><trkpt lat="47.18008847237435" lon="14.602348039051401"><ele>724.0</ele><time>2026-05-01T18:38:56Z</time></trkpt><trkpt lat="47.180205005912356" lon="14.602176655356624"><ele>724.0</ele><time>2026-05-01T18:38:57Z</time></trkpt><trkpt lat="47.180322199877445" lon="14.60200711466964"><ele>724.0</ele><time>2026-05-01T18:38:58Z</time></trkpt><trkpt lat="47.18043899753946" lon="14.601837640854152"><ele>724.0</ele><time>2026-05-01T18:38:59Z</time></trkpt><trkpt lat="47.180554905856205" lon="14.601664632189383"><ele>724.0</ele><time>2026-05-01T18:39:00Z</time></trkpt><trkpt lat="47.18067001551153" lon="14.601491356163507"><ele>724.0</ele><time>2026-05-01T18:39:01Z</time></trkpt><trkpt lat="47.18078394544302" lon="14.60131917182508"><ele>724.0</ele><time>2026-05-01T18:39:02Z</time></trkpt><trkpt lat="47.18089630175069" lon="14.601153060525192"><ele>723.25</ele><time>2026-05-01T18:39:03Z</time></trkpt><trkpt lat="47.18099947180458" lon="14.601005211706697"><ele>722.5</ele><time>2026-05-01T18:39:04Z</time></trkpt><trkpt lat="47.18110259426687" lon="14.600851063227209"><ele>721.75</ele><time>2026-05-01T18:39:05Z</time></trkpt><trkpt lat="47.18120449678309" lon="14.60070163912184"><ele>721.0</ele><time>2026-05-01T18:39:06Z</time></trkpt><trkpt lat="47.18130295364027" lon="14.600552772465038"><ele>721.0</ele><time>2026-05-01T18:39:07Z</time></trkpt><trkpt lat="47.18139997014272" lon="14.600403726743185"><ele>721.0</ele><time>2026-05-01T18:39:08Z</time></trkpt><trkpt lat="47.18149564651087" lon="14.60025417966219"><ele>721.0</ele><time>2026-05-01T18:39:09Z</time></trkpt><trkpt lat="47.1815899427327" lon="14.600103994264632"><ele>721.0</ele><time>2026-05-01T18:39:10Z</time></trkpt><trkpt lat="47.18168342671822" lon="14.599954029798129"><ele>720.0</ele><time>2026-05-01T18:39:11Z</time></trkpt><trkpt lat="47.181775742012796" lon="14.599804034810566"><ele>719.0</ele><time>2026-05-01T18:39:12Z</time></trkpt><trkpt lat="47.181867493496746" lon="14.599653590406465"><ele>718.0</ele><time>2026-05-01T18:39:13Z</time></trkpt><trkpt lat="47.181955901687104" lon="14.599507564389818"><ele>717.0</ele><time>2026-05-01T18:39:14Z</time></trkpt><trkpt lat="47.182043929285946" lon="14.599360607125485"><ele>716.75</ele><time>2026-05-01T18:39:15Z</time></trkpt><trkpt lat="47.18213301814967" lon="14.599214460519393"><ele>716.5</ele><time>2026-05-01T18:39:16Z</time></trkpt><trkpt lat="47.18222105424466" lon="14.599066419270006"><ele>716.25</ele><time>2026-05-01T18:39:17Z</time></trkpt><trkpt lat="47.18230821568661" lon="14.59891826439439"><ele>716.0</ele><time>2026-05-01T18:39:18Z</time></trkpt><trkpt lat="47.18239592973643" lon="14.598767467526379"><ele>716.25</ele><time>2026-05-01T18:39:19Z</time></trkpt><trkpt lat="47.18248489963647" lon="14.59861968867148"><ele>716.5</ele><time>2026-05-01T18:39:20Z</time></trkpt><trkpt lat="47.182574511423326" lon="14.59847161278688"><ele>716.75</ele><time>2026-05-01T18:39:21Z</time></trkpt><trkpt lat="47.18266381923075" lon="14.59832407288408"><ele>717.0</ele><time>2026-05-01T18:39:22Z</time></trkpt><trkpt lat="47.182752729150096" lon="14.598177626301105"><ele>717.0</ele><time>2026-05-01T18:39:23Z</time></trkpt><trkpt lat="47.182842251695895" lon="14.59803390212313"><ele>717.0</ele><time>2026-05-01T18:39:24Z</time></trkpt><trkpt lat="47.18293106724066" lon="14.597890201905598"><ele>717.0</ele><time>2026-05-01T18:39:25Z</time></trkpt><trkpt lat="47.18301892441559" lon="14.597746733756905"><ele>717.0</ele><time>2026-05-01T18:39:26Z</time></trkpt><trkpt lat="47.183106182396955" lon="14.59760445595729"><ele>717.0</ele><time>2026-05-01T18:39:27Z</time></trkpt><trkpt lat="47.183192333215395" lon="14.597465186269506"><ele>717.0</ele><time>2026-05-01T18:39:28Z</time></trkpt><trkpt lat="47.1832769973417" lon="14.597327386810553"><ele>717.0</ele><time>2026-05-01T18:39:29Z</time></trkpt><trkpt lat="47.18335993508191" lon="14.597191913041602"><ele>717.0</ele><time>2026-05-01T18:39:30Z</time></trkpt><trkpt lat="47.18344196756856" lon="14.597060221707492"><ele>716.8</ele><time>2026-05-01T18:39:31Z</time></trkpt><trkpt lat="47.18352267466954" lon="14.596930692443099"><ele>716.6</ele><time>2026-05-01T18:39:32Z</time></trkpt><trkpt lat="47.183600926771895" lon="14.596806204940261"><ele>716.4</ele><time>2026-05-01T18:39:33Z</time></trkpt><trkpt lat="47.183677981507685" lon="14.596690824733836"><ele>716.1999999999999</ele><time>2026-05-01T18:39:34Z</time></trkpt><trkpt lat="47.18374518898528" lon="14.596591864371081"><ele>716.0</ele><time>2026-05-01T18:39:35Z</time></trkpt><trkpt lat="47.18381161351469" lon="14.596506300544249"><ele>716.0</ele><time>2026-05-01T18:39:36Z</time></trkpt><trkpt lat="47.18388346922114" lon="14.596438042872446"><ele>716.0</ele><time>2026-05-01T18:39:37Z</time></trkpt><trkpt lat="47.18395520258528" lon="14.596380270235903"><ele>716.0</ele><time>2026-05-01T18:39:38Z</time></trkpt><trkpt lat="47.18401901413376" lon="14.596318536920434"><ele>716.0</ele><time>2026-05-01T18:39:39Z</time></trkpt><trkpt lat="47.18407191426083" lon="14.596242878107217"><ele>716.0</ele><time>2026-05-01T18:39:40Z</time></trkpt><trkpt lat="47.18410957187223" lon="14.596164941049846"><ele>716.0</ele><time>2026-05-01T18:39:41Z</time></trkpt><trkpt lat="47.18415629752602" lon="14.596049823164693"><ele>716.5</ele><time>2026-05-01T18:39:43Z</time></trkpt><trkpt lat="47.184206523740556" lon="14.595989646529103"><ele>717.0</ele><time>2026-05-01T18:41:42Z</time></trkpt><trkpt lat="47.184286276517504" lon="14.59592661681054"><ele>717.5</ele><time>2026-05-01T18:56:43.001Z</time></trkpt><trkpt lat="47.1843521520039" lon="14.595817170972298"><ele>718.0</ele><time>2026-05-01T18:56:45.001Z</time></trkpt><trkpt lat="47.18443505021168" lon="14.595692915707238"><ele>718.5</ele><time>2026-05-01T18:56:47.001Z</time></trkpt><trkpt lat="47.18447886213154" lon="14.59562081262481"><ele>719.0</ele><time>2026-05-01T18:56:48.001Z</time></trkpt><trkpt lat="47.184531710976934" lon="14.595502766039905"><ele>719.0</ele><time>2026-05-01T18:56:50.001Z</time></trkpt><trkpt lat="47.184569026480226" lon="14.595371765412004"><ele>719.0</ele><time>2026-05-01T18:57:02.001Z</time></trkpt><trkpt lat="47.18461786413388" lon="14.595283180002225"><ele>719.0</ele><time>2026-05-01T18:57:03.001Z</time></trkpt><trkpt lat="47.18469071671011" lon="14.595173166641224"><ele>719.0</ele><time>2026-05-01T18:57:04.001Z</time></trkpt><trkpt lat="47.18476867301556" lon="14.595059696075129"><ele>719.0</ele><time>2026-05-01T18:57:05.001Z</time></trkpt><trkpt lat="47.184841159904074" lon="14.594954717528685"><ele>719.5</ele><time>2026-05-01T18:57:06.001Z</time></trkpt><trkpt lat="47.184922412094224" lon="14.59483369456479"><ele>720.0</ele><time>2026-05-01T18:57:07.001Z</time></trkpt><trkpt lat="47.18501435297583" lon="14.59469690748239"><ele>720.5</ele><time>2026-05-01T18:57:08.001Z</time></trkpt><trkpt lat="47.185110061459056" lon="14.594547748734213"><ele>721.0</ele><time>2026-05-01T18:57:09.001Z</time></trkpt><trkpt lat="47.18520713469386" lon="14.594400260093453"><ele>721.75</ele><time>2026-05-01T18:57:10.001Z</time></trkpt><trkpt lat="47.18530487718125" lon="14.594255144269036"><ele>722.5</ele><time>2026-05-01T18:57:11.001Z</time></trkpt><trkpt lat="47.18540498427548" lon="14.594103396366863"><ele>723.25</ele><time>2026-05-01T18:57:12.001Z</time></trkpt><trkpt lat="47.18551028245155" lon="14.593939183573502"><ele>724.0</ele><time>2026-05-01T18:57:13.001Z</time></trkpt><trkpt lat="47.1856205421955" lon="14.593768382727385"><ele>724.6666666666667</ele><time>2026-05-01T18:57:14.001Z</time></trkpt><trkpt lat="47.18573590876466" lon="14.593589323504354"><ele>725.3333333333334</ele><time>2026-05-01T18:57:15.001Z</time></trkpt><trkpt lat="47.1858519199703" lon="14.59341925439422"><ele>726.0</ele><time>2026-05-01T18:57:16.001Z</time></trkpt><trkpt lat="47.185967947689285" lon="14.593242811832232"><ele>726.0</ele><time>2026-05-01T18:57:17.001Z</time></trkpt><trkpt lat="47.18609051287413" lon="14.593059572062117"><ele>726.0</ele><time>2026-05-01T18:57:18.001Z</time></trkpt><trkpt lat="47.18621271706921" lon="14.592875564634662"><ele>726.0</ele><time>2026-05-01T18:57:19.001Z</time></trkpt><trkpt lat="47.186336276532934" lon="14.592693094899303"><ele>727.0</ele><time>2026-05-01T18:57:20.001Z</time></trkpt><trkpt lat="47.18646039421206" lon="14.592508372471055"><ele>728.0</ele><time>2026-05-01T18:57:21.001Z</time></trkpt><trkpt lat="47.186587222813905" lon="14.592319181891042"><ele>729.0</ele><time>2026-05-01T18:57:22.001Z</time></trkpt><trkpt lat="47.186715214609976" lon="14.592129710481187"><ele>730.0</ele><time>2026-05-01T18:57:23.001Z</time></trkpt><trkpt lat="47.18684327919719" lon="14.59193485026324"><ele>731.0</ele><time>2026-05-01T18:57:24.001Z</time></trkpt><trkpt lat="47.18697096803424" lon="14.591740094969953"><ele>732.0</ele><time>2026-05-01T18:57:25.001Z</time></trkpt><trkpt lat="47.187100003302525" lon="14.591539308957625"><ele>732.0</ele><time>2026-05-01T18:57:26.001Z</time></trkpt><trkpt lat="47.1872311810828" lon="14.591334381255157"><ele>732.0</ele><time>2026-05-01T18:57:27.001Z</time></trkpt><trkpt lat="47.18737144805438" lon="14.59111773426128"><ele>732.0</ele><time>2026-05-01T18:57:28.001Z</time></trkpt><trkpt lat="47.18751621602138" lon="14.590896474375958"><ele>731.6666666666666</ele><time>2026-05-01T18:57:29.001Z</time></trkpt><trkpt lat="47.187653755815084" lon="14.59068626818678"><ele>731.3333333333333</ele><time>2026-05-01T18:57:30.001Z</time></trkpt><trkpt lat="47.187797301342634" lon="14.590470321035431"><ele>731.0</ele><time>2026-05-01T18:57:31Z</time></trkpt><trkpt lat="47.18794354099618" lon="14.59025216637915"><ele>731.3333333333333</ele><time>2026-05-01T18:57:32Z</time></trkpt><trkpt lat="47.18809107007964" lon="14.590026261262345"><ele>731.6666666666666</ele><time>2026-05-01T18:57:33Z</time></trkpt><trkpt lat="47.18823728708501" lon="14.589799649572734"><ele>732.0</ele><time>2026-05-01T18:57:34Z</time></trkpt><trkpt lat="47.18838313541047" lon="14.589573761695073"><ele>733.0</ele><time>2026-05-01T18:57:35Z</time></trkpt><trkpt lat="47.1885266046978" lon="14.589348742878974"><ele>734.0</ele><time>2026-05-01T18:57:36Z</time></trkpt><trkpt lat="47.18867036493638" lon="14.589125280073306"><ele>735.0</ele><time>2026-05-01T18:57:37Z</time></trkpt><trkpt lat="47.18880626951584" lon="14.588900455078427"><ele>734.6666666666666</ele><time>2026-05-01T18:57:38Z</time></trkpt><trkpt lat="47.18893374038297" lon="14.58866516562355"><ele>734.3333333333333</ele><time>2026-05-01T18:57:39Z</time></trkpt><trkpt lat="47.189050468427666" lon="14.588420625156283"><ele>734.0</ele><time>2026-05-01T18:57:40Z</time></trkpt><trkpt lat="47.18916396656682" lon="14.588165453605889"><ele>734.0</ele><time>2026-05-01T18:57:41Z</time></trkpt><trkpt lat="47.18926982423386" lon="14.58789748217156"><ele>734.0</ele><time>2026-05-01T18:57:42Z</time></trkpt><trkpt lat="47.18936903554719" lon="14.587617640682742"><ele>734.0</ele><time>2026-05-01T18:57:43Z</time></trkpt><trkpt lat="47.189458090381315" lon="14.587327484201422"><ele>735.3333333333333</ele><time>2026-05-01T18:57:44Z</time></trkpt><trkpt lat="47.18954014354926" lon="14.58702761585825"><ele>736.6666666666666</ele><time>2026-05-01T18:57:45Z</time></trkpt><trkpt lat="47.18961926990601" lon="14.586721531147617"><ele>738.0</ele><time>2026-05-01T18:57:46Z</time></trkpt><trkpt lat="47.18970067667786" lon="14.586413007412252"><ele>739.0</ele><time>2026-05-01T18:57:47Z</time></trkpt><trkpt lat="47.18978361349229" lon="14.586103797646583"><ele>740.0</ele><time>2026-05-01T18:57:48Z</time></trkpt><trkpt lat="47.18987231103172" lon="14.585800404891605"><ele>739.6666666666666</ele><time>2026-05-01T18:57:49Z</time></trkpt><trkpt lat="47.18996917846981" lon="14.585507613676029"><ele>739.3333333333334</ele><time>2026-05-01T18:57:50Z</time></trkpt><trkpt lat="47.19008115478388" lon="14.585228428298985"><ele>739.0</ele><time>2026-05-01T18:57:51Z</time></trkpt><trkpt lat="47.190210166142315" lon="14.584958262323845"><ele>739.0</ele><time>2026-05-01T18:57:52Z</time></trkpt><trkpt lat="47.19035288909311" lon="14.584707599278241"><ele>739.0</ele><time>2026-05-01T18:57:53Z</time></trkpt><trkpt lat="47.19050807819393" lon="14.584474364430658"><ele>739.0</ele><time>2026-05-01T18:57:54Z</time></trkpt><trkpt lat="47.190676515120984" lon="14.5842599450412"><ele>736.6666666666667</ele><time>2026-05-01T18:57:55Z</time></trkpt><trkpt lat="47.19085526735913" lon="14.58406614430665"><ele>734.3333333333334</ele><time>2026-05-01T18:57:56Z</time></trkpt><trkpt lat="47.191043571412564" lon="14.583881751446336"><ele>732.0</ele><time>2026-05-01T18:57:57Z</time></trkpt><trkpt lat="47.19123457514835" lon="14.583702600255018"><ele>730.6666666666666</ele><time>2026-05-01T18:57:58Z</time></trkpt><trkpt lat="47.19142501000278" lon="14.583522333127396"><ele>729.3333333333333</ele><time>2026-05-01T18:57:59Z</time></trkpt><trkpt lat="47.19161243584562" lon="14.583344877883972"><ele>728.0</ele><time>2026-05-01T18:58:00Z</time></trkpt><trkpt lat="47.191797797339575" lon="14.583168504341813"><ele>728.0</ele><time>2026-05-01T18:58:01Z</time></trkpt><trkpt lat="47.191973868683576" lon="14.582999612459842"><ele>728.0</ele><time>2026-05-01T18:58:02Z</time></trkpt><trkpt lat="47.19214952311568" lon="14.582829105076486"><ele>728.0</ele><time>2026-05-01T18:58:03Z</time></trkpt><trkpt lat="47.19232256315431" lon="14.582648759685595"><ele>728.6666666666666</ele><time>2026-05-01T18:58:04Z</time></trkpt><trkpt lat="47.19249205087084" lon="14.582458320497958"><ele>729.3333333333334</ele><time>2026-05-01T18:58:05Z</time></trkpt><trkpt lat="47.19265809186233" lon="14.582256006788832"><ele>730.0</ele><time>2026-05-01T18:58:06Z</time></trkpt><trkpt lat="47.19281369192109" lon="14.582036492922992"><ele>729.3333333333334</ele><time>2026-05-01T18:58:07Z</time></trkpt><trkpt lat="47.192959162129476" lon="14.581796747647005"><ele>728.6666666666666</ele><time>2026-05-01T18:58:08Z</time></trkpt><trkpt lat="47.193092062554825" lon="14.581540705858734"><ele>728.0</ele><time>2026-05-01T18:58:09Z</time></trkpt><trkpt lat="47.19321314984453" lon="14.581270597178328"><ele>731.3333333333333</ele><time>2026-05-01T18:58:10Z</time></trkpt><trkpt lat="47.19332152786671" lon="14.580986049669098"><ele>734.6666666666666</ele><time>2026-05-01T18:58:11Z</time></trkpt><trkpt lat="47.193418139952556" lon="14.580690645007405"><ele>738.0</ele><time>2026-05-01T18:58:12Z</time></trkpt><trkpt lat="47.19350567685239" lon="14.580382995703609"><ele>742.0</ele><time>2026-05-01T18:58:13.001Z</time></trkpt><trkpt lat="47.193582953891394" lon="14.580071185221078"><ele>746.0</ele><time>2026-05-01T18:58:14.001Z</time></trkpt><trkpt lat="47.193654962553786" lon="14.579751767526721"><ele>748.5</ele><time>2026-05-01T18:58:15.001Z</time></trkpt><trkpt lat="47.19372369250204" lon="14.579428802251586"><ele>751.0</ele><time>2026-05-01T18:58:16.001Z</time></trkpt><trkpt lat="47.193794378441595" lon="14.579102207211333"><ele>751.0</ele><time>2026-05-01T18:58:17.001Z</time></trkpt><trkpt lat="47.193872877786646" lon="14.578777250122151"><ele>751.0</ele><time>2026-05-01T18:58:18.001Z</time></trkpt><trkpt lat="47.19396298701465" lon="14.57845739800811"><ele>748.0</ele><time>2026-05-01T18:58:19.001Z</time></trkpt><trkpt lat="47.19406572772345" lon="14.578144440672242"><ele>745.0</ele><time>2026-05-01T18:58:20.001Z</time></trkpt><trkpt lat="47.194181010051416" lon="14.57783671918688"><ele>745.0</ele><time>2026-05-01T18:58:21.001Z</time></trkpt><trkpt lat="47.19430711037483" lon="14.577537362726455"><ele>745.0</ele><time>2026-05-01T18:58:22.001Z</time></trkpt><trkpt lat="47.19444475039751" lon="14.577251256305779"><ele>756.5</ele><time>2026-05-01T18:58:23.001Z</time></trkpt><trkpt lat="47.1945932208732" lon="14.576970142990787"><ele>768.0</ele><time>2026-05-01T18:58:24.001Z</time></trkpt><trkpt lat="47.194746142670766" lon="14.57669432195986"><ele>764.0</ele><time>2026-05-01T18:58:25.001Z</time></trkpt><trkpt lat="47.194901235415976" lon="14.576415891443888"><ele>760.0</ele><time>2026-05-01T18:58:26.001Z</time></trkpt><trkpt lat="47.19505575262824" lon="14.576131805603227"><ele>760.0</ele><time>2026-05-01T18:58:27.001Z</time></trkpt><trkpt lat="47.19520992541143" lon="14.575846224052578"><ele>760.0</ele><time>2026-05-01T18:58:28.001Z</time></trkpt><trkpt lat="47.19536563055566" lon="14.575557069307465"><ele>752.0</ele><time>2026-05-01T18:58:29.001Z</time></trkpt><trkpt lat="47.195520551342085" lon="14.57527143923705"><ele>744.0</ele><time>2026-05-01T18:58:30.001Z</time></trkpt><trkpt lat="47.19567551336341" lon="14.574989130739535"><ele>744.0</ele><time>2026-05-01T18:58:31.001Z</time></trkpt><trkpt lat="47.19582546626281" lon="14.574718979633518"><ele>744.0</ele><time>2026-05-01T18:58:32.001Z</time></trkpt><trkpt lat="47.1959691574108" lon="14.574461035469186"><ele>756.5</ele><time>2026-05-01T18:58:33.001Z</time></trkpt><trkpt lat="47.196113193550886" lon="14.574199713788575"><ele>769.0</ele><time>2026-05-01T18:58:34.001Z</time></trkpt><trkpt lat="47.196255952853896" lon="14.573938399354612"><ele>759.5</ele><time>2026-05-01T18:58:35.001Z</time></trkpt><trkpt lat="47.19640108628809" lon="14.57367333341228"><ele>750.0</ele><time>2026-05-01T18:58:36.001Z</time></trkpt><trkpt lat="47.196548371703344" lon="14.573406007763143"><ele>750.0</ele><time>2026-05-01T18:58:37.001Z</time></trkpt><trkpt lat="47.196695234640494" lon="14.573140612779188"><ele>750.0</ele><time>2026-05-01T18:58:38.001Z</time></trkpt><trkpt lat="47.19684081139549" lon="14.572881830877376"><ele>758.0</ele><time>2026-05-01T18:58:39.001Z</time></trkpt><trkpt lat="47.19698883682874" lon="14.572632427929912"><ele>766.0</ele><time>2026-05-01T18:58:40.001Z</time></trkpt><trkpt lat="47.19714021484928" lon="14.572391435924667"><ele>774.0</ele><time>2026-05-01T18:58:41.001Z</time></trkpt><trkpt lat="47.19729684314264" lon="14.572156879678579"><ele>760.0</ele><time>2026-05-01T18:58:42.001Z</time></trkpt><trkpt lat="47.19745530881867" lon="14.571924674180783"><ele>746.0</ele><time>2026-05-01T18:58:43.001Z</time></trkpt><trkpt lat="47.19761779950469" lon="14.571688306660098"><ele>746.0</ele><time>2026-05-01T18:58:44.001Z</time></trkpt><trkpt lat="47.19778142154044" lon="14.571451823059297"><ele>746.0</ele><time>2026-05-01T18:58:45.001Z</time></trkpt><trkpt lat="47.19794673466135" lon="14.571211541347822"><ele>741.5</ele><time>2026-05-01T18:58:46.001Z</time></trkpt><trkpt lat="47.19811577488098" lon="14.570967353286479"><ele>737.0</ele><time>2026-05-01T18:58:47.001Z</time></trkpt><trkpt lat="47.198288109362146" lon="14.570721931392635"><ele>737.0</ele><time>2026-05-01T18:58:48.001Z</time></trkpt><trkpt lat="47.19846302694104" lon="14.57048156666141"><ele>737.0</ele><time>2026-05-01T18:58:49.001Z</time></trkpt><trkpt lat="47.19864400361719" lon="14.570249049443543"><ele>732.5</ele><time>2026-05-01T18:58:50.001Z</time></trkpt><trkpt lat="47.19883378089589" lon="14.570026105930983"><ele>728.0</ele><time>2026-05-01T18:58:51.001Z</time></trkpt><trkpt lat="47.199036026505375" lon="14.569839405229407"><ele>728.0</ele><time>2026-05-01T18:58:52.001Z</time></trkpt><trkpt lat="47.19924289154359" lon="14.569671526317347"><ele>728.0</ele><time>2026-05-01T18:58:53.001Z</time></trkpt><trkpt lat="47.19945359863597" lon="14.569517650609862"><ele>729.0</ele><time>2026-05-01T18:58:54.001Z</time></trkpt><trkpt lat="47.19966553695391" lon="14.569371469122265"><ele>730.0</ele><time>2026-05-01T18:58:55.001Z</time></trkpt><trkpt lat="47.199868979551844" lon="14.56922964785848"><ele>730.0</ele><time>2026-05-01T18:58:56.001Z</time></trkpt><trkpt lat="47.20005854199173" lon="14.569092898228375"><ele>730.0</ele><time>2026-05-01T18:58:57.001Z</time></trkpt><trkpt lat="47.20024938332335" lon="14.56895642331443"><ele>730.0</ele><time>2026-05-01T18:58:58.001Z</time></trkpt><trkpt lat="47.20044122868205" lon="14.568817161104596"><ele>731.3333333333334</ele><time>2026-05-01T18:58:59.001Z</time></trkpt><trkpt lat="47.200637592050825" lon="14.568675222105945"><ele>732.6666666666666</ele><time>2026-05-01T18:59:00.001Z</time></trkpt><trkpt lat="47.200832560972" lon="14.568537992810377"><ele>734.0</ele><time>2026-05-01T18:59:01.001Z</time></trkpt><trkpt lat="47.20101148909964" lon="14.56840261314436"><ele>734.0</ele><time>2026-05-01T18:59:02.001Z</time></trkpt><trkpt lat="47.201174705479175" lon="14.568254248720624"><ele>734.0</ele><time>2026-05-01T18:59:03.001Z</time></trkpt><trkpt lat="47.201321471965365" lon="14.568087122647885"><ele>734.0</ele><time>2026-05-01T18:59:04.001Z</time></trkpt><trkpt lat="47.20144548507516" lon="14.567898785733181"><ele>729.6666666666666</ele><time>2026-05-01T18:59:05.001Z</time></trkpt><trkpt lat="47.2015541851828" lon="14.567691307175625"><ele>725.3333333333334</ele><time>2026-05-01T18:59:06.001Z</time></trkpt><trkpt lat="47.20163772916409" lon="14.567474121318604"><ele>721.0</ele><time>2026-05-01T18:59:07.001Z</time></trkpt><trkpt lat="47.201701171383554" lon="14.56725036454183"><ele>720.6666666666667</ele><time>2026-05-01T18:59:08.001Z</time></trkpt><trkpt lat="47.20175105491242" lon="14.567015520390532"><ele>720.3333333333334</ele><time>2026-05-01T18:59:09.001Z</time></trkpt><trkpt lat="47.201790718973605" lon="14.566773825640992"><ele>720.0</ele><time>2026-05-01T18:59:10.001Z</time></trkpt><trkpt lat="47.20181599352693" lon="14.56652752491584"><ele>720.0</ele><time>2026-05-01T18:59:11.001Z</time></trkpt><trkpt lat="47.201820102919335" lon="14.56627840684409"><ele>720.0</ele><time>2026-05-01T18:59:12.001Z</time></trkpt><trkpt lat="47.20181092271271" lon="14.566029119475195"><ele>720.0</ele><time>2026-05-01T18:59:13.001Z</time></trkpt><trkpt lat="47.20179510290723" lon="14.565778654682973"><ele>719.3333333333334</ele><time>2026-05-01T18:59:14.001Z</time></trkpt><trkpt lat="47.201773266143476" lon="14.565519127481089"><ele>718.6666666666667</ele><time>2026-05-01T18:59:15.001Z</time></trkpt><trkpt lat="47.201748381194776" lon="14.565249316551748"><ele>718.0</ele><time>2026-05-01T18:59:16.001Z</time></trkpt><trkpt lat="47.201726078279926" lon="14.564969441216226"><ele>716.6666666666667</ele><time>2026-05-01T18:59:17.001Z</time></trkpt><trkpt lat="47.201709159034216" lon="14.564675374375678"><ele>715.3333333333334</ele><time>2026-05-01T18:59:18.001Z</time></trkpt><trkpt lat="47.20170216230574" lon="14.564370082985617"><ele>714.0</ele><time>2026-05-01T18:59:19.001Z</time></trkpt><trkpt lat="47.20170522944919" lon="14.564064034324671"><ele>713.3333333333334</ele><time>2026-05-01T18:59:20.001Z</time></trkpt><trkpt lat="47.201718856668485" lon="14.563765409359018"><ele>712.6666666666667</ele><time>2026-05-01T18:59:21.001Z</time></trkpt><trkpt lat="47.20174574630862" lon="14.563459591226243"><ele>712.0</ele><time>2026-05-01T18:59:22.001Z</time></trkpt><trkpt lat="47.201782238412804" lon="14.563152353666531"><ele>713.6666666666667</ele><time>2026-05-01T18:59:23.001Z</time></trkpt><trkpt lat="47.20182619810137" lon="14.562845591761981"><ele>715.3333333333334</ele><time>2026-05-01T18:59:24.001Z</time></trkpt><trkpt lat="47.20188241312983" lon="14.5625401949056"><ele>717.0</ele><time>2026-05-01T18:59:25.001Z</time></trkpt><trkpt lat="47.20195249063212" lon="14.562239102703337"><ele>719.3333333333334</ele><time>2026-05-01T18:59:26.001Z</time></trkpt><trkpt lat="47.202030088802346" lon="14.561940878911772"><ele>721.6666666666667</ele><time>2026-05-01T18:59:27.001Z</time></trkpt><trkpt lat="47.202110523227276" lon="14.56164154992426"><ele>724.0</ele><time>2026-05-01T18:59:28.001Z</time></trkpt><trkpt lat="47.20219069829523" lon="14.561340688141453"><ele>729.3333333333334</ele><time>2026-05-01T18:59:29.001Z</time></trkpt><trkpt lat="47.202270098215806" lon="14.561041036614519"><ele>734.6666666666666</ele><time>2026-05-01T18:59:30.001Z</time></trkpt><trkpt lat="47.2023527776898" lon="14.560738720971182"><ele>740.0</ele><time>2026-05-01T18:59:31.001Z</time></trkpt><trkpt lat="47.202433797333" lon="14.560442837267164"><ele>731.3333333333333</ele><time>2026-05-01T18:59:32.001Z</time></trkpt><trkpt lat="47.20251003506803" lon="14.560143168299502"><ele>722.6666666666666</ele><time>2026-05-01T18:59:33.001Z</time></trkpt><trkpt lat="47.20258192938471" lon="14.559840628047688"><ele>714.0</ele><time>2026-05-01T18:59:34.001Z</time></trkpt><trkpt lat="47.20265068511662" lon="14.55953627231221"><ele>715.3333333333334</ele><time>2026-05-01T18:59:35.001Z</time></trkpt><trkpt lat="47.20271428542299" lon="14.559231883416688"><ele>716.6666666666667</ele><time>2026-05-01T18:59:36.001Z</time></trkpt><trkpt lat="47.202772600432986" lon="14.558927545108856"><ele>718.0</ele><time>2026-05-01T18:59:37Z</time></trkpt><trkpt lat="47.20282795405016" lon="14.558623926559381"><ele>717.0</ele><time>2026-05-01T18:59:38Z</time></trkpt><trkpt lat="47.20288209042139" lon="14.558320710520533"><ele>716.0</ele><time>2026-05-01T18:59:39Z</time></trkpt><trkpt lat="47.202935537713124" lon="14.558017258821552"><ele>715.0</ele><time>2026-05-01T18:59:40Z</time></trkpt><trkpt lat="47.20298702254713" lon="14.557717436057933"><ele>715.0</ele><time>2026-05-01T18:59:41Z</time></trkpt><trkpt lat="47.20303822170603" lon="14.557416037786892"><ele>715.0</ele><time>2026-05-01T18:59:42Z</time></trkpt><trkpt lat="47.20308968987744" lon="14.55711231579938"><ele>715.0</ele><time>2026-05-01T18:59:43Z</time></trkpt><trkpt lat="47.203141654219884" lon="14.556817098084965"><ele>710.3333333333334</ele><time>2026-05-01T18:59:44Z</time></trkpt><trkpt lat="47.20319635333617" lon="14.556515534273125"><ele>705.6666666666666</ele><time>2026-05-01T18:59:45Z</time></trkpt><trkpt lat="47.20324966358341" lon="14.55621619432731"><ele>701.0</ele><time>2026-05-01T18:59:46Z</time></trkpt><trkpt lat="47.2033019863568" lon="14.555916189006908"><ele>701.0</ele><time>2026-05-01T18:59:47Z</time></trkpt><trkpt lat="47.203353424989395" lon="14.555613671468915"><ele>701.0</ele><time>2026-05-01T18:59:48Z</time></trkpt><trkpt lat="47.20340341281177" lon="14.555317374156258"><ele>701.0</ele><time>2026-05-01T18:59:49Z</time></trkpt><trkpt lat="47.20345445311063" lon="14.555016048896528"><ele>702.6666666666666</ele><time>2026-05-01T18:59:50Z</time></trkpt><trkpt lat="47.20350725702275" lon="14.55471627491613"><ele>704.3333333333334</ele><time>2026-05-01T18:59:51Z</time></trkpt><trkpt lat="47.20356267681167" lon="14.554418042853841"><ele>706.0</ele><time>2026-05-01T18:59:52Z</time></trkpt><trkpt lat="47.20361942963254" lon="14.554113332207463"><ele>708.3333333333334</ele><time>2026-05-01T18:59:53Z</time></trkpt><trkpt lat="47.20367424157735" lon="14.553812617199684"><ele>710.6666666666666</ele><time>2026-05-01T18:59:54Z</time></trkpt><trkpt lat="47.20372216068511" lon="14.553511344543313"><ele>713.0</ele><time>2026-05-01T18:59:55Z</time></trkpt><trkpt lat="47.20375960099482" lon="14.553204633688475"><ele>716.6666666666666</ele><time>2026-05-01T18:59:56Z</time></trkpt><trkpt lat="47.20378544491679" lon="14.552897737576336"><ele>720.3333333333334</ele><time>2026-05-01T18:59:57Z</time></trkpt><trkpt lat="47.20380127344346" lon="14.55259018481634"><ele>724.0</ele><time>2026-05-01T18:59:58Z</time></trkpt><trkpt lat="47.203804718701385" lon="14.552281524287341"><ele>723.6666666666667</ele><time>2026-05-01T18:59:59Z</time></trkpt><trkpt lat="47.203797316097045" lon="14.551968959007953"><ele>723.3333333333334</ele><time>2026-05-01T19:00:00Z</time></trkpt><trkpt lat="47.203778686655404" lon="14.551654430186025"><ele>723.0</ele><time>2026-05-01T19:00:01Z</time></trkpt><trkpt lat="47.20375515502192" lon="14.551341074475323"><ele>721.6666666666666</ele><time>2026-05-01T19:00:02Z</time></trkpt><trkpt lat="47.20373102186088" lon="14.551027515269833"><ele>720.3333333333333</ele><time>2026-05-01T19:00:03Z</time></trkpt><trkpt lat="47.2037071422658" lon="14.550715540515476"><ele>719.0</ele><time>2026-05-01T19:00:04Z</time></trkpt><trkpt lat="47.20368228556292" lon="14.550413929708393"><ele>718.3333333333333</ele><time>2026-05-01T19:00:05Z</time></trkpt><trkpt lat="47.20365561296528" lon="14.550113001492162"><ele>717.6666666666666</ele><time>2026-05-01T19:00:06Z</time></trkpt><trkpt lat="47.20362851477995" lon="14.549816261683523"><ele>717.0</ele><time>2026-05-01T19:00:07Z</time></trkpt><trkpt lat="47.20360303031769" lon="14.549520362946518"><ele>716.6666666666666</ele><time>2026-05-01T19:00:08Z</time></trkpt><trkpt lat="47.203576262430516" lon="14.54922902091695"><ele>716.3333333333333</ele><time>2026-05-01T19:00:09Z</time></trkpt><trkpt lat="47.20354181283402" lon="14.548944360887717"><ele>716.0</ele><time>2026-05-01T19:00:10Z</time></trkpt><trkpt lat="47.20349413823254" lon="14.548667731296227"><ele>714.6666666666666</ele><time>2026-05-01T19:00:11Z</time></trkpt><trkpt lat="47.20343342131811" lon="14.548396197932334"><ele>713.3333333333334</ele><time>2026-05-01T19:00:12Z</time></trkpt><trkpt lat="47.20336007418708" lon="14.548135164960623"><ele>712.0</ele><time>2026-05-01T19:00:13Z</time></trkpt><trkpt lat="47.2032750677287" lon="14.547874335520795"><ele>711.6666666666667</ele><time>2026-05-01T19:00:14Z</time></trkpt><trkpt lat="47.20319217339678" lon="14.54761107396415"><ele>711.3333333333334</ele><time>2026-05-01T19:00:15Z</time></trkpt><trkpt lat="47.20311190998432" lon="14.54734204581881"><ele>711.0</ele><time>2026-05-01T19:00:16Z</time></trkpt><trkpt lat="47.203041994007684" lon="14.547061320045099"><ele>722.0</ele><time>2026-05-01T19:00:17Z</time></trkpt><trkpt lat="47.202987788960016" lon="14.546775364325622"><ele>733.0</ele><time>2026-05-01T19:00:18Z</time></trkpt><trkpt lat="47.20294696394465" lon="14.546478995820644"><ele>744.0</ele><time>2026-05-01T19:00:19Z</time></trkpt><trkpt lat="47.202914673142" lon="14.546178193405884"><ele>745.0</ele><time>2026-05-01T19:00:20Z</time></trkpt><trkpt lat="47.202894269590516" lon="14.545875490080073"><ele>746.0</ele><time>2026-05-01T19:00:21Z</time></trkpt><trkpt lat="47.202886500545965" lon="14.54557172876073"><ele>747.0</ele><time>2026-05-01T19:00:22Z</time></trkpt><trkpt lat="47.20288620476614" lon="14.54527012070406"><ele>746.6666666666666</ele><time>2026-05-01T19:00:23Z</time></trkpt><trkpt lat="47.202892263277334" lon="14.54496926009562"><ele>746.3333333333333</ele><time>2026-05-01T19:00:24Z</time></trkpt><trkpt lat="47.20290605905685" lon="14.544668024867999"><ele>746.0</ele><time>2026-05-01T19:00:25Z</time></trkpt><trkpt lat="47.20292084543452" lon="14.544372148442148"><ele>746.0</ele><time>2026-05-01T19:00:26Z</time></trkpt><trkpt lat="47.20292790400594" lon="14.544078137615593"><ele>746.0</ele><time>2026-05-01T19:00:27Z</time></trkpt><trkpt lat="47.20292122904869" lon="14.543781269029981"><ele>746.0</ele><time>2026-05-01T19:00:28Z</time></trkpt><trkpt lat="47.202902460372854" lon="14.543486972803613"><ele>746.3333333333333</ele><time>2026-05-01T19:00:29Z</time></trkpt><trkpt lat="47.20286930121427" lon="14.543195728629858"><ele>746.6666666666666</ele><time>2026-05-01T19:00:30.001Z</time></trkpt><trkpt lat="47.20282146923009" lon="14.542903371599103"><ele>747.0</ele><time>2026-05-01T19:00:31.001Z</time></trkpt><trkpt lat="47.20275917786931" lon="14.542619935698758"><ele>747.3333333333334</ele><time>2026-05-01T19:00:32.001Z</time></trkpt><trkpt lat="47.20268527633339" lon="14.542340790317436"><ele>747.6666666666667</ele><time>2026-05-01T19:00:33.001Z</time></trkpt><trkpt lat="47.20260000780222" lon="14.542069754554168"><ele>748.0</ele><time>2026-05-01T19:00:34.001Z</time></trkpt><trkpt lat="47.20250857760651" lon="14.541796681502545"><ele>747.0</ele><time>2026-05-01T19:00:35.001Z</time></trkpt><trkpt lat="47.20241904469921" lon="14.541519664946236"><ele>746.0</ele><time>2026-05-01T19:00:36.001Z</time></trkpt><trkpt lat="47.202334908184625" lon="14.541238597208794"><ele>745.0</ele><time>2026-05-01T19:00:37.001Z</time></trkpt><trkpt lat="47.20225954931852" lon="14.540949153476125"><ele>748.6666666666667</ele><time>2026-05-01T19:00:38.001Z</time></trkpt><trkpt lat="47.20218649295118" lon="14.540652982397715"><ele>752.3333333333334</ele><time>2026-05-01T19:00:39.001Z</time></trkpt><trkpt lat="47.20212087042743" lon="14.54035564321175"><ele>756.0</ele><time>2026-05-01T19:00:40.001Z</time></trkpt><trkpt lat="47.20206263371356" lon="14.540057528177272"><ele>756.0</ele><time>2026-05-01T19:00:41.001Z</time></trkpt><trkpt lat="47.20201379517452" lon="14.539772286296065"><ele>756.0</ele><time>2026-05-01T19:00:42.001Z</time></trkpt><trkpt lat="47.2019753417405" lon="14.539495585030439"><ele>756.0</ele><time>2026-05-01T19:00:43.001Z</time></trkpt><trkpt lat="47.201938697173766" lon="14.539205867181447"><ele>757.6666666666666</ele><time>2026-05-01T19:00:44.001Z</time></trkpt><trkpt lat="47.20191453985628" lon="14.538906396609383"><ele>759.3333333333333</ele><time>2026-05-01T19:00:45.001Z</time></trkpt><trkpt lat="47.20190002309487" lon="14.538603237666436"><ele>761.0</ele><time>2026-05-01T19:00:46.001Z</time></trkpt><trkpt lat="47.20189307066164" lon="14.538292969858254"><ele>762.0</ele><time>2026-05-01T19:00:47.001Z</time></trkpt><trkpt lat="47.20189565279255" lon="14.537977743673459"><ele>763.0</ele><time>2026-05-01T19:00:48.001Z</time></trkpt><trkpt lat="47.2019068348534" lon="14.537656600434959"><ele>764.0</ele><time>2026-05-01T19:00:49.001Z</time></trkpt><trkpt lat="47.201923724155975" lon="14.537339663455215"><ele>768.0</ele><time>2026-05-01T19:00:50.001Z</time></trkpt><trkpt lat="47.2019462859954" lon="14.537026537081449"><ele>772.0</ele><time>2026-05-01T19:00:51.001Z</time></trkpt><trkpt lat="47.20197013479024" lon="14.536712575890588"><ele>776.0</ele><time>2026-05-01T19:00:52.001Z</time></trkpt><trkpt lat="47.201992830942366" lon="14.536402147165369"><ele>775.6666666666667</ele><time>2026-05-01T19:00:53.001Z</time></trkpt><trkpt lat="47.20200613476712" lon="14.53609668671294"><ele>775.3333333333333</ele><time>2026-05-01T19:00:54.001Z</time></trkpt><trkpt lat="47.202007266430435" lon="14.535799153635791"><ele>775.0</ele><time>2026-05-01T19:00:55.001Z</time></trkpt><trkpt lat="47.20199722824535" lon="14.535506024844995"><ele>774.3333333333333</ele><time>2026-05-01T19:00:56.001Z</time></trkpt><trkpt lat="47.20197102969177" lon="14.53521882181367"><ele>773.6666666666667</ele><time>2026-05-01T19:00:57.001Z</time></trkpt><trkpt lat="47.201926771624436" lon="14.534928617668005"><ele>773.0</ele><time>2026-05-01T19:00:58.001Z</time></trkpt><trkpt lat="47.201871124027576" lon="14.534645156513355"><ele>770.0</ele><time>2026-05-01T19:00:59.001Z</time></trkpt><trkpt lat="47.201801263437574" lon="14.534366834987294"><ele>767.0</ele><time>2026-05-01T19:01:00.001Z</time></trkpt><trkpt lat="47.20171863078759" lon="14.534087089807423"><ele>764.0</ele><time>2026-05-01T19:01:01.001Z</time></trkpt><trkpt lat="47.2016259289565" lon="14.533811574664272"><ele>762.6666666666666</ele><time>2026-05-01T19:01:02.001Z</time></trkpt><trkpt lat="47.20152681972638" lon="14.533534399570538"><ele>761.3333333333334</ele><time>2026-05-01T19:01:03.001Z</time></trkpt><trkpt lat="47.20142772123259" lon="14.533258564928673"><ele>760.0</ele><time>2026-05-01T19:01:04.001Z</time></trkpt><trkpt lat="47.201333250532436" lon="14.532979602158182"><ele>771.3333333333334</ele><time>2026-05-01T19:01:05.001Z</time></trkpt><trkpt lat="47.201247299357355" lon="14.532697936434932"><ele>782.6666666666667</ele><time>2026-05-01T19:01:06.001Z</time></trkpt><trkpt lat="47.20117336735989" lon="14.53242063460659"><ele>794.0</ele><time>2026-05-01T19:01:07.001Z</time></trkpt><trkpt lat="47.201117564046704" lon="14.532133277674264"><ele>791.0</ele><time>2026-05-01T19:01:08.001Z</time></trkpt><trkpt lat="47.20108162734181" lon="14.531837897358796"><ele>788.0</ele><time>2026-05-01T19:01:09.001Z</time></trkpt><trkpt lat="47.201061383480685" lon="14.531540523592419"><ele>785.0</ele><time>2026-05-01T19:01:10.001Z</time></trkpt><trkpt lat="47.201052006732105" lon="14.531229997464733"><ele>783.0</ele><time>2026-05-01T19:01:11.001Z</time></trkpt><trkpt lat="47.20106038393033" lon="14.530923333543257"><ele>781.0</ele><time>2026-05-01T19:01:12.001Z</time></trkpt><trkpt lat="47.201084411817774" lon="14.530616046482418"><ele>779.0</ele><time>2026-05-01T19:01:13.001Z</time></trkpt><trkpt lat="47.20112166686563" lon="14.530311184878594"><ele>775.6666666666667</ele><time>2026-05-01T19:01:14.001Z</time></trkpt><trkpt lat="47.201169848697326" lon="14.530008757688806"><ele>772.3333333333333</ele><time>2026-05-01T19:01:15.001Z</time></trkpt><trkpt lat="47.201224286331545" lon="14.529708555673292"><ele>769.0</ele><time>2026-05-01T19:01:16.001Z</time></trkpt><trkpt lat="47.20127543909584" lon="14.52941067403243"><ele>768.6666666666666</ele><time>2026-05-01T19:01:17.001Z</time></trkpt><trkpt lat="47.201316589654105" lon="14.529122578201125"><ele>768.3333333333333</ele><time>2026-05-01T19:01:18.001Z</time></trkpt><trkpt lat="47.20135134257762" lon="14.528836820491847"><ele>768.0</ele><time>2026-05-01T19:01:19.001Z</time></trkpt><trkpt lat="47.20137469102517" lon="14.5285535233636"><ele>767.0</ele><time>2026-05-01T19:01:20.001Z</time></trkpt><trkpt lat="47.20138325687698" lon="14.528278971455379"><ele>766.0</ele><time>2026-05-01T19:01:21.001Z</time></trkpt><trkpt lat="47.20138191321886" lon="14.528001189231484"><ele>765.0</ele><time>2026-05-01T19:01:22.001Z</time></trkpt><trkpt lat="47.20136984072824" lon="14.527715532679887"><ele>764.0</ele><time>2026-05-01T19:01:23.001Z</time></trkpt><trkpt lat="47.201351669876324" lon="14.527422083711206"><ele>763.0</ele><time>2026-05-01T19:01:24.001Z</time></trkpt><trkpt lat="47.201335736690716" lon="14.527117800797862"><ele>762.0</ele><time>2026-05-01T19:01:25.001Z</time></trkpt><trkpt lat="47.201315561672295" lon="14.526808286682867"><ele>760.6666666666666</ele><time>2026-05-01T19:01:26.001Z</time></trkpt><trkpt lat="47.20129055024412" lon="14.52649712851113"><ele>759.3333333333333</ele><time>2026-05-01T19:01:27.001Z</time></trkpt><trkpt lat="47.2012648619077" lon="14.526178052394325"><ele>758.0</ele><time>2026-05-01T19:01:28.001Z</time></trkpt><trkpt lat="47.201239896269165" lon="14.525852401929399"><ele>757.0</ele><time>2026-05-01T19:01:29.001Z</time></trkpt><trkpt lat="47.201214580522894" lon="14.525526268275526"><ele>756.0</ele><time>2026-05-01T19:01:30.001Z</time></trkpt><trkpt lat="47.20118800543249" lon="14.525198915727092"><ele>755.0</ele><time>2026-05-01T19:01:31.001Z</time></trkpt><trkpt lat="47.201161934418415" lon="14.524873017210824"><ele>753.6666666666666</ele><time>2026-05-01T19:01:32.001Z</time></trkpt><trkpt lat="47.201138126194266" lon="14.524544456017168"><ele>752.3333333333334</ele><time>2026-05-01T19:01:33.001Z</time></trkpt><trkpt lat="47.201121000347605" lon="14.524215580139746"><ele>751.0</ele><time>2026-05-01T19:01:34.001Z</time></trkpt><trkpt lat="47.20111262754794" lon="14.523888248099889"><ele>750.3333333333334</ele><time>2026-05-01T19:01:35.001Z</time></trkpt><trkpt lat="47.20111509977398" lon="14.523559201507325"><ele>749.6666666666666</ele><time>2026-05-01T19:01:36.001Z</time></trkpt><trkpt lat="47.20112848699594" lon="14.523230794475142"><ele>749.0</ele><time>2026-05-01T19:01:37.001Z</time></trkpt><trkpt lat="47.201151712842645" lon="14.522907316883755"><ele>750.0</ele><time>2026-05-01T19:01:38.001Z</time></trkpt><trkpt lat="47.20118612884163" lon="14.522590928161764"><ele>751.0</ele><time>2026-05-01T19:01:39.001Z</time></trkpt><trkpt lat="47.20123262615192" lon="14.522277403717716"><ele>752.0</ele><time>2026-05-01T19:01:40.001Z</time></trkpt><trkpt lat="47.201286393976474" lon="14.521964990654801"><ele>752.3333333333333</ele><time>2026-05-01T19:01:41.001Z</time></trkpt><trkpt lat="47.201343261097236" lon="14.521649963445428"><ele>752.6666666666666</ele><time>2026-05-01T19:01:42.001Z</time></trkpt><trkpt lat="47.20140041406528" lon="14.521336790757857"><ele>753.0</ele><time>2026-05-01T19:01:43Z</time></trkpt><trkpt lat="47.201458433338544" lon="14.521024453020098"><ele>749.0</ele><time>2026-05-01T19:01:44Z</time></trkpt><trkpt lat="47.20151413964269" lon="14.520708159012287"><ele>745.0</ele><time>2026-05-01T19:01:45Z</time></trkpt><trkpt lat="47.20156126546041" lon="14.520390608259648"><ele>741.0</ele><time>2026-05-01T19:01:46Z</time></trkpt><trkpt lat="47.20159277620801" lon="14.520068838487473"><ele>741.0</ele><time>2026-05-01T19:01:47Z</time></trkpt><trkpt lat="47.20160753381296" lon="14.519750899394836"><ele>741.0</ele><time>2026-05-01T19:01:48Z</time></trkpt><trkpt lat="47.20160769876348" lon="14.519430115337801"><ele>741.0</ele><time>2026-05-01T19:01:49Z</time></trkpt><trkpt lat="47.20159137791429" lon="14.519111128099517"><ele>740.6666666666666</ele><time>2026-05-01T19:01:50Z</time></trkpt><trkpt lat="47.20155890010694" lon="14.518796444836141"><ele>740.3333333333333</ele><time>2026-05-01T19:01:51Z</time></trkpt><trkpt lat="47.20151692232356" lon="14.518480553508494"><ele>740.0</ele><time>2026-05-01T19:01:52Z</time></trkpt><trkpt lat="47.20147138959109" lon="14.518165563234986"><ele>746.6666666666666</ele><time>2026-05-01T19:01:53Z</time></trkpt><trkpt lat="47.201427744861455" lon="14.517853352450167"><ele>753.3333333333334</ele><time>2026-05-01T19:01:54Z</time></trkpt><trkpt lat="47.201389412086215" lon="14.517533922902745"><ele>760.0</ele><time>2026-05-01T19:01:55Z</time></trkpt><trkpt lat="47.20136086327229" lon="14.517210650633338"><ele>762.3333333333334</ele><time>2026-05-01T19:01:56Z</time></trkpt><trkpt lat="47.201349818409916" lon="14.51689036755916"><ele>764.6666666666666</ele><time>2026-05-01T19:01:57Z</time></trkpt><trkpt lat="47.201363584755555" lon="14.516568837469691"><ele>767.0</ele><time>2026-05-01T19:01:58Z</time></trkpt><trkpt lat="47.20140013371451" lon="14.516255304832608"><ele>771.0</ele><time>2026-05-01T19:01:59Z</time></trkpt><trkpt lat="47.20145526344961" lon="14.515945094888458"><ele>775.0</ele><time>2026-05-01T19:02:00Z</time></trkpt><trkpt lat="47.20152555177707" lon="14.515640658307523"><ele>779.0</ele><time>2026-05-01T19:02:01Z</time></trkpt><trkpt lat="47.20160172467461" lon="14.515333821281459"><ele>768.0</ele><time>2026-05-01T19:02:02Z</time></trkpt><trkpt lat="47.201678672573586" lon="14.515033428316976"><ele>757.0</ele><time>2026-05-01T19:02:03Z</time></trkpt><trkpt lat="47.20175789076621" lon="14.514732601434547"><ele>746.0</ele><time>2026-05-01T19:02:04Z</time></trkpt><trkpt lat="47.20183613846306" lon="14.514443090513579"><ele>746.0</ele><time>2026-05-01T19:02:05Z</time></trkpt><trkpt lat="47.20191152760381" lon="14.514172791126747"><ele>746.0</ele><time>2026-05-01T19:02:06Z</time></trkpt><trkpt lat="47.20198699819373" lon="14.513914538287246"><ele>746.0</ele><time>2026-05-01T19:02:07Z</time></trkpt><trkpt lat="47.20206842458434" lon="14.513652313078445"><ele>747.0</ele><time>2026-05-01T19:02:08Z</time></trkpt><trkpt lat="47.202155141568404" lon="14.513392146576377"><ele>748.0</ele><time>2026-05-01T19:02:09Z</time></trkpt><trkpt lat="47.20224451898761" lon="14.513139728237876"><ele>749.0</ele><time>2026-05-01T19:02:10Z</time></trkpt><trkpt lat="47.20233536634367" lon="14.512898631344472"><ele>747.0</ele><time>2026-05-01T19:02:11Z</time></trkpt><trkpt lat="47.20243158681118" lon="14.512659971021757"><ele>745.0</ele><time>2026-05-01T19:02:12Z</time></trkpt><trkpt lat="47.20253002379611" lon="14.512425855841053"><ele>743.0</ele><time>2026-05-01T19:02:13Z</time></trkpt><trkpt lat="47.202629964930686" lon="14.51219408241723"><ele>744.6666666666666</ele><time>2026-05-01T19:02:14Z</time></trkpt><trkpt lat="47.20272907701145" lon="14.511963953064994"><ele>746.3333333333334</ele><time>2026-05-01T19:02:15Z</time></trkpt><trkpt lat="47.20283014584101" lon="14.511731764442333"><ele>748.0</ele><time>2026-05-01T19:02:16Z</time></trkpt><trkpt lat="47.20293477906267" lon="14.511503786826939"><ele>748.0</ele><time>2026-05-01T19:02:17Z</time></trkpt><trkpt lat="47.203044450543246" lon="14.511283095310446"><ele>748.0</ele><time>2026-05-01T19:02:18Z</time></trkpt><trkpt lat="47.20315684347605" lon="14.511069840004469"><ele>748.0</ele><time>2026-05-01T19:02:19Z</time></trkpt><trkpt lat="47.20326596484272" lon="14.510860515410128"><ele>746.3333333333334</ele><time>2026-05-01T19:02:20Z</time></trkpt><trkpt lat="47.20336758961176" lon="14.51065238897107"><ele>744.6666666666666</ele><time>2026-05-01T19:02:21Z</time></trkpt><trkpt lat="47.203463853556634" lon="14.510444025218359"><ele>743.0</ele><time>2026-05-01T19:02:22Z</time></trkpt><trkpt lat="47.203547218416716" lon="14.510236840861271"><ele>743.0</ele><time>2026-05-01T19:02:23Z</time></trkpt><trkpt lat="47.2036242364156" lon="14.510038065732777"><ele>743.0</ele><time>2026-05-01T19:02:24Z</time></trkpt><trkpt lat="47.20369934392647" lon="14.509846113153738"><ele>743.0</ele><time>2026-05-01T19:02:25Z</time></trkpt><trkpt lat="47.20377844598913" lon="14.509660558587315"><ele>743.0</ele><time>2026-05-01T19:02:26Z</time></trkpt><trkpt lat="47.203866152193925" lon="14.50946710321463"><ele>743.0</ele><time>2026-05-01T19:02:27Z</time></trkpt><trkpt lat="47.203956589483" lon="14.509269666279359"><ele>743.0</ele><time>2026-05-01T19:02:28Z</time></trkpt><trkpt lat="47.204046921637435" lon="14.509073122880062"><ele>739.6666666666666</ele><time>2026-05-01T19:02:29Z</time></trkpt><trkpt lat="47.20413701520805" lon="14.508872086429"><ele>736.3333333333334</ele><time>2026-05-01T19:02:30Z</time></trkpt><trkpt lat="47.20422510868679" lon="14.508661788820525"><ele>733.0</ele><time>2026-05-01T19:02:31Z</time></trkpt><trkpt lat="47.204306950520944" lon="14.508443436274064"><ele>733.0</ele><time>2026-05-01T19:02:32Z</time></trkpt><trkpt lat="47.20438848852945" lon="14.508214267128523"><ele>733.0</ele><time>2026-05-01T19:02:33Z</time></trkpt><trkpt lat="47.204469351411895" lon="14.507980038837674"><ele>733.0</ele><time>2026-05-01T19:02:34Z</time></trkpt><trkpt lat="47.20454898851172" lon="14.50774303900604"><ele>733.3333333333334</ele><time>2026-05-01T19:02:35Z</time></trkpt><trkpt lat="47.204626068954575" lon="14.507505740798969"><ele>733.6666666666666</ele><time>2026-05-01T19:02:36Z</time></trkpt><trkpt lat="47.20470218761709" lon="14.507262133934988"><ele>734.0</ele><time>2026-05-01T19:02:37Z</time></trkpt><trkpt lat="47.20477692184455" lon="14.507011877953236"><ele>733.3333333333333</ele><time>2026-05-01T19:02:38Z</time></trkpt><trkpt lat="47.204851194847066" lon="14.506755969017322"><ele>732.6666666666666</ele><time>2026-05-01T19:02:39Z</time></trkpt><trkpt lat="47.20492398354833" lon="14.506497851321653"><ele>732.0</ele><time>2026-05-01T19:02:40Z</time></trkpt><trkpt lat="47.204994159387596" lon="14.506237664296703"><ele>732.0</ele><time>2026-05-01T19:02:41.001Z</time></trkpt><trkpt lat="47.20506130144652" lon="14.505979963201208"><ele>732.0</ele><time>2026-05-01T19:02:42.001Z</time></trkpt><trkpt lat="47.20512630070282" lon="14.50571920865773"><ele>732.0</ele><time>2026-05-01T19:02:43.001Z</time></trkpt><trkpt lat="47.20518818022734" lon="14.505455509757127"><ele>732.6666666666666</ele><time>2026-05-01T19:02:44.001Z</time></trkpt><trkpt lat="47.205246721675444" lon="14.505182580976907"><ele>733.3333333333333</ele><time>2026-05-01T19:02:45.001Z</time></trkpt><trkpt lat="47.205303931194074" lon="14.50489551106101"><ele>734.0</ele><time>2026-05-01T19:02:46.001Z</time></trkpt><trkpt lat="47.20535860514374" lon="14.504601878912409"><ele>733.6666666666666</ele><time>2026-05-01T19:02:47.001Z</time></trkpt><trkpt lat="47.20540977202223" lon="14.504303241079057"><ele>733.3333333333334</ele><time>2026-05-01T19:02:48.001Z</time></trkpt><trkpt lat="47.20545472541811" lon="14.504001704590822"><ele>733.0</ele><time>2026-05-01T19:02:49.001Z</time></trkpt><trkpt lat="47.20549609082672" lon="14.503693246207723"><ele>733.0</ele><time>2026-05-01T19:02:50.001Z</time></trkpt><trkpt lat="47.20553122007899" lon="14.503388218010874"><ele>733.0</ele><time>2026-05-01T19:02:51.001Z</time></trkpt><trkpt lat="47.205559923074745" lon="14.503083133527207"><ele>733.0</ele><time>2026-05-01T19:02:52.001Z</time></trkpt><trkpt lat="47.20558139041486" lon="14.502775183820846"><ele>733.6666666666667</ele><time>2026-05-01T19:02:53.001Z</time></trkpt><trkpt lat="47.205600978924274" lon="14.502462045998852"><ele>734.3333333333334</ele><time>2026-05-01T19:02:54.001Z</time></trkpt><trkpt lat="47.205619634520524" lon="14.502142915511616"><ele>735.0</ele><time>2026-05-01T19:02:55.001Z</time></trkpt><trkpt lat="47.20563820934221" lon="14.501829319698258"><ele>736.0</ele><time>2026-05-01T19:02:56.001Z</time></trkpt><trkpt lat="47.205657737535404" lon="14.501505475415696"><ele>737.0</ele><time>2026-05-01T19:02:57.001Z</time></trkpt><trkpt lat="47.20567875567" lon="14.501184366953122"><ele>738.0</ele><time>2026-05-01T19:02:58.001Z</time></trkpt><trkpt lat="47.20570217688183" lon="14.500860039160996"><ele>738.0</ele><time>2026-05-01T19:02:59.001Z</time></trkpt><trkpt lat="47.205728112064556" lon="14.500534483299148"><ele>738.0</ele><time>2026-05-01T19:03:00.001Z</time></trkpt><trkpt lat="47.20575814460592" lon="14.500205532298864"><ele>738.0</ele><time>2026-05-01T19:03:01.001Z</time></trkpt><trkpt lat="47.2057955068615" lon="14.499876689457302"><ele>740.5</ele><time>2026-05-01T19:03:02.001Z</time></trkpt><trkpt lat="47.20583911018486" lon="14.49954873340494"><ele>743.0</ele><time>2026-05-01T19:03:03.001Z</time></trkpt><trkpt lat="47.20588522424045" lon="14.499219744274313"><ele>743.0</ele><time>2026-05-01T19:03:04.001Z</time></trkpt><trkpt lat="47.205937448537796" lon="14.498887485304389"><ele>743.0</ele><time>2026-05-01T19:03:05.001Z</time></trkpt><trkpt lat="47.20599539359478" lon="14.498552596850486"><ele>744.5</ele><time>2026-05-01T19:03:06.001Z</time></trkpt><trkpt lat="47.20605398324477" lon="14.498220529201577"><ele>746.0</ele><time>2026-05-01T19:03:07.001Z</time></trkpt><trkpt lat="47.206121393587644" lon="14.497885607685934"><ele>747.5</ele><time>2026-05-01T19:03:08.001Z</time></trkpt><trkpt lat="47.20619490299548" lon="14.497550157748027"><ele>749.0</ele><time>2026-05-01T19:03:09.001Z</time></trkpt><trkpt lat="47.206278844788926" lon="14.497208678668006"><ele>749.3333333333333</ele><time>2026-05-01T19:03:10.001Z</time></trkpt><trkpt lat="47.2062584323057" lon="14.496897423913763"><ele>749.6666666666666</ele><time>2026-05-01T19:03:11.001Z</time></trkpt><trkpt lat="47.20632016279811" lon="14.496573980923474"><ele>750.0</ele><time>2026-05-01T19:03:12.001Z</time></trkpt><trkpt lat="47.20637704439583" lon="14.496245422966348"><ele>752.0</ele><time>2026-05-01T19:03:13.001Z</time></trkpt><trkpt lat="47.20642733392468" lon="14.495917425103405"><ele>754.0</ele><time>2026-05-01T19:03:14.001Z</time></trkpt><trkpt lat="47.20647212332362" lon="14.49558878012529"><ele>748.5</ele><time>2026-05-01T19:03:15.001Z</time></trkpt><trkpt lat="47.206517356572235" lon="14.495263258353367"><ele>743.0</ele><time>2026-05-01T19:03:16.001Z</time></trkpt><trkpt lat="47.20655472131558" lon="14.494933528091202"><ele>743.0</ele><time>2026-05-01T19:03:17.001Z</time></trkpt><trkpt lat="47.20658936100096" lon="14.494603783387504"><ele>743.0</ele><time>2026-05-01T19:03:18.001Z</time></trkpt><trkpt lat="47.20662496626587" lon="14.49427154097333"><ele>742.5</ele><time>2026-05-01T19:03:19.001Z</time></trkpt><trkpt lat="47.20666266568939" lon="14.493937007695976"><ele>742.0</ele><time>2026-05-01T19:03:20.001Z</time></trkpt><trkpt lat="47.20669843627448" lon="14.493603732782915"><ele>741.6666666666667</ele><time>2026-05-01T19:03:21.001Z</time></trkpt><trkpt lat="47.20674584796616" lon="14.49329480912979"><ele>741.3333333333334</ele><time>2026-05-01T19:03:22.001Z</time></trkpt><trkpt lat="47.20676597937191" lon="14.49297299547081"><ele>741.0</ele><time>2026-05-01T19:03:23.001Z</time></trkpt><trkpt lat="47.20680952424448" lon="14.492630902402778"><ele>741.0</ele><time>2026-05-01T19:03:24.001Z</time></trkpt><trkpt lat="47.20685044603151" lon="14.492305044957062"><ele>741.0</ele><time>2026-05-01T19:03:25.001Z</time></trkpt><trkpt lat="47.206892448081135" lon="14.491981615378046"><ele>741.0</ele><time>2026-05-01T19:03:26.001Z</time></trkpt><trkpt lat="47.20693806553164" lon="14.491663448066369"><ele>741.5</ele><time>2026-05-01T19:03:27.001Z</time></trkpt><trkpt lat="47.20699201366307" lon="14.491337038378532"><ele>742.0</ele><time>2026-05-01T19:03:28.001Z</time></trkpt><trkpt lat="47.20704788854963" lon="14.491010606036788"><ele>742.0</ele><time>2026-05-01T19:03:29.001Z</time></trkpt><trkpt lat="47.20710920576258" lon="14.490682759232453"><ele>742.0</ele><time>2026-05-01T19:03:30.001Z</time></trkpt><trkpt lat="47.207176667806486" lon="14.49035282596477"><ele>745.5</ele><time>2026-05-01T19:03:31.001Z</time></trkpt><trkpt lat="47.207247492081414" lon="14.490030902436104"><ele>749.0</ele><time>2026-05-01T19:03:32.001Z</time></trkpt><trkpt lat="47.207320634319025" lon="14.48971414068162"><ele>746.0</ele><time>2026-05-01T19:03:33.001Z</time></trkpt><trkpt lat="47.2073925868146" lon="14.489396215130268"><ele>743.0</ele><time>2026-05-01T19:03:34.001Z</time></trkpt><trkpt lat="47.20745805582863" lon="14.48907976880214"><ele>743.0</ele><time>2026-05-01T19:03:35.001Z</time></trkpt><trkpt lat="47.207513801726286" lon="14.48876131369094"><ele>743.0</ele><time>2026-05-01T19:03:36.001Z</time></trkpt><trkpt lat="47.20755722728179" lon="14.488436153459077"><ele>743.0</ele><time>2026-05-01T19:03:37.001Z</time></trkpt><trkpt lat="47.207587421980236" lon="14.488110197482053"><ele>745.0</ele><time>2026-05-01T19:03:38.001Z</time></trkpt><trkpt lat="47.20760099458193" lon="14.48778064555106"><ele>747.0</ele><time>2026-05-01T19:03:39.001Z</time></trkpt><trkpt lat="47.20760104796545" lon="14.487447351268788"><ele>747.0</ele><time>2026-05-01T19:03:40.001Z</time></trkpt><trkpt lat="47.20759411956746" lon="14.487117288816297"><ele>747.0</ele><time>2026-05-01T19:03:41.001Z</time></trkpt><trkpt lat="47.20758975660963" lon="14.486788173087632"><ele>747.0</ele><time>2026-05-01T19:03:42.001Z</time></trkpt><trkpt lat="47.20759520896486" lon="14.486454147648477"><ele>749.6666666666666</ele><time>2026-05-01T19:03:43.001Z</time></trkpt><trkpt lat="47.207622743359316" lon="14.486130590325779"><ele>752.3333333333333</ele><time>2026-05-01T19:03:44.001Z</time></trkpt><trkpt lat="47.20767344216407" lon="14.485813774877911"><ele>755.0</ele><time>2026-05-01T19:03:45.001Z</time></trkpt><trkpt lat="47.2077390221474" lon="14.485502984715676"><ele>759.6666666666666</ele><time>2026-05-01T19:03:46.001Z</time></trkpt><trkpt lat="47.207812483357834" lon="14.485195670982446"><ele>764.3333333333333</ele><time>2026-05-01T19:03:47.001Z</time></trkpt><trkpt lat="47.207893603460455" lon="14.484891455074127"><ele>769.0</ele><time>2026-05-01T19:03:48.001Z</time></trkpt><trkpt lat="47.207976909797" lon="14.4845792240669"><ele>777.0</ele><time>2026-05-01T19:03:49Z</time></trkpt><trkpt lat="47.20805637727857" lon="14.484261771199987"><ele>785.0</ele><time>2026-05-01T19:03:50Z</time></trkpt><trkpt lat="47.208131263479935" lon="14.483939446788256"><ele>763.0</ele><time>2026-05-01T19:03:51Z</time></trkpt><trkpt lat="47.20820272411054" lon="14.483613211418993"><ele>741.0</ele><time>2026-05-01T19:03:52Z</time></trkpt><trkpt lat="47.20827186169663" lon="14.483286201746731"><ele>741.0</ele><time>2026-05-01T19:03:53Z</time></trkpt><trkpt lat="47.20833944041451" lon="14.48295810077292"><ele>741.0</ele><time>2026-05-01T19:03:54Z</time></trkpt><trkpt lat="47.20840709797357" lon="14.48263161273055"><ele>747.5</ele><time>2026-05-01T19:03:55Z</time></trkpt><trkpt lat="47.208476556957116" lon="14.482313648462075"><ele>754.0</ele><time>2026-05-01T19:03:56Z</time></trkpt><trkpt lat="47.20854890834693" lon="14.482002702684618"><ele>757.6666666666667</ele><time>2026-05-01T19:03:57Z</time></trkpt><trkpt lat="47.208624399097296" lon="14.481706186244153"><ele>761.3333333333334</ele><time>2026-05-01T19:03:58Z</time></trkpt><trkpt lat="47.20870734120887" lon="14.48139803490084"><ele>765.0</ele><time>2026-05-01T19:03:59Z</time></trkpt><trkpt lat="47.208796483135195" lon="14.481082552890854"><ele>767.5</ele><time>2026-05-01T19:04:00Z</time></trkpt><trkpt lat="47.208886305250545" lon="14.480761860478369"><ele>770.0</ele><time>2026-05-01T19:04:01Z</time></trkpt><trkpt lat="47.20897950369443" lon="14.480438173550837"><ele>758.0</ele><time>2026-05-01T19:04:02Z</time></trkpt><trkpt lat="47.209075506333924" lon="14.480114074925826"><ele>746.0</ele><time>2026-05-01T19:04:03Z</time></trkpt><trkpt lat="47.209169626084666" lon="14.479787716921576"><ele>747.5</ele><time>2026-05-01T19:04:04Z</time></trkpt><trkpt lat="47.20926233497643" lon="14.479460202347745"><ele>749.0</ele><time>2026-05-01T19:04:05Z</time></trkpt><trkpt lat="47.20935571899207" lon="14.479127665220945"><ele>749.0</ele><time>2026-05-01T19:04:06Z</time></trkpt><trkpt lat="47.20945041569704" lon="14.47879860097027"><ele>749.0</ele><time>2026-05-01T19:04:07Z</time></trkpt><trkpt lat="47.20954868899827" lon="14.478468909360172"><ele>751.5</ele><time>2026-05-01T19:04:08Z</time></trkpt><trkpt lat="47.2096471656955" lon="14.478136797664325"><ele>754.0</ele><time>2026-05-01T19:04:09Z</time></trkpt><trkpt lat="47.20974463950406" lon="14.477799990079035"><ele>750.0</ele><time>2026-05-01T19:04:10Z</time></trkpt><trkpt lat="47.20984041309063" lon="14.47746535363889"><ele>746.0</ele><time>2026-05-01T19:04:11Z</time></trkpt><trkpt lat="47.20993757079054" lon="14.477128202540191"><ele>748.5</ele><time>2026-05-01T19:04:12Z</time></trkpt><trkpt lat="47.21003651265526" lon="14.476790202224848"><ele>751.0</ele><time>2026-05-01T19:04:13Z</time></trkpt><trkpt lat="47.21013644529453" lon="14.476453028923183"><ele>753.5</ele><time>2026-05-01T19:04:14Z</time></trkpt><trkpt lat="47.210236311518166" lon="14.47611574075192"><ele>756.0</ele><time>2026-05-01T19:04:15Z</time></trkpt><trkpt lat="47.210334204926255" lon="14.475779088630416"><ele>756.0</ele><time>2026-05-01T19:04:16Z</time></trkpt><trkpt lat="47.210430840822426" lon="14.475443159395576"><ele>756.0</ele><time>2026-05-01T19:04:17Z</time></trkpt><trkpt lat="47.210520925888" lon="14.475104643301583"><ele>759.5</ele><time>2026-05-01T19:04:18Z</time></trkpt><trkpt lat="47.210599802628074" lon="14.47476464789163"><ele>763.0</ele><time>2026-05-01T19:04:19Z</time></trkpt><trkpt lat="47.21066433226133" lon="14.47442356703777"><ele>756.5</ele><time>2026-05-01T19:04:20Z</time></trkpt><trkpt lat="47.210717184614566" lon="14.474074004894142"><ele>750.0</ele><time>2026-05-01T19:04:21Z</time></trkpt><trkpt lat="47.21075714713064" lon="14.473719096242224"><ele>750.0</ele><time>2026-05-01T19:04:22Z</time></trkpt><trkpt lat="47.210784036951544" lon="14.473363558436244"><ele>750.0</ele><time>2026-05-01T19:04:23Z</time></trkpt><trkpt lat="47.210796868586336" lon="14.473004740543725"><ele>749.0</ele><time>2026-05-01T19:04:24Z</time></trkpt><trkpt lat="47.21079701577295" lon="14.472639954252005"><ele>748.0</ele><time>2026-05-01T19:04:25Z</time></trkpt><trkpt lat="47.21078470024921" lon="14.472276615376698"><ele>747.0</ele><time>2026-05-01T19:04:26Z</time></trkpt><trkpt lat="47.21075986431108" lon="14.471914985893278"><ele>746.0</ele><time>2026-05-01T19:04:27Z</time></trkpt><trkpt lat="47.21072390350765" lon="14.471551001811052"><ele>746.5</ele><time>2026-05-01T19:04:28Z</time></trkpt><trkpt lat="47.210681963268364" lon="14.471187648656343"><ele>747.0</ele><time>2026-05-01T19:04:29Z</time></trkpt><trkpt lat="47.21064096825853" lon="14.47082690544981"><ele>747.0</ele><time>2026-05-01T19:04:30Z</time></trkpt><trkpt lat="47.2106010523401" lon="14.470463214629547"><ele>747.0</ele><time>2026-05-01T19:04:31Z</time></trkpt><trkpt lat="47.21056157528215" lon="14.470100409565092"><ele>745.5</ele><time>2026-05-01T19:04:32Z</time></trkpt><trkpt lat="47.21052043921328" lon="14.469740172239373"><ele>744.0</ele><time>2026-05-01T19:04:33Z</time></trkpt><trkpt lat="47.210480106941226" lon="14.469380999574863"><ele>740.0</ele><time>2026-05-01T19:04:34Z</time></trkpt><trkpt lat="47.21044050640617" lon="14.469020867436102"><ele>736.0</ele><time>2026-05-01T19:04:35Z</time></trkpt><trkpt lat="47.21040041884852" lon="14.468657781370633"><ele>734.5</ele><time>2026-05-01T19:04:36Z</time></trkpt><trkpt lat="47.210360419971" lon="14.46830026068106"><ele>733.0</ele><time>2026-05-01T19:04:37Z</time></trkpt><trkpt lat="47.210321242339226" lon="14.467938008439296"><ele>731.5</ele><time>2026-05-01T19:04:38Z</time></trkpt><trkpt lat="47.210282068816255" lon="14.467578296479704"><ele>730.0</ele><time>2026-05-01T19:04:39Z</time></trkpt><trkpt lat="47.21024155758656" lon="14.46721657015295"><ele>729.5</ele><time>2026-05-01T19:04:40Z</time></trkpt><trkpt lat="47.2102005400654" lon="14.466859241487992"><ele>729.0</ele><time>2026-05-01T19:04:41Z</time></trkpt><trkpt lat="47.21016030625448" lon="14.46650377974759"><ele>729.0</ele><time>2026-05-01T19:04:42Z</time></trkpt><trkpt lat="47.21012036846793" lon="14.466144845426832"><ele>729.0</ele><time>2026-05-01T19:04:43Z</time></trkpt><trkpt lat="47.210080357755686" lon="14.465792384880727"><ele>728.0</ele><time>2026-05-01T19:04:44Z</time></trkpt><trkpt lat="47.210039457257544" lon="14.465440829205049"><ele>727.0</ele><time>2026-05-01T19:04:45Z</time></trkpt><trkpt lat="47.2099999320411" lon="14.465095927270347"><ele>727.0</ele><time>2026-05-01T19:04:46.001Z</time></trkpt><trkpt lat="47.20996210519043" lon="14.464754845320016"><ele>727.0</ele><time>2026-05-01T19:04:47.001Z</time></trkpt><trkpt lat="47.209925468211125" lon="14.464408741043874"><ele>725.5</ele><time>2026-05-01T19:04:48.001Z</time></trkpt><trkpt lat="47.2098871402594" lon="14.464070374113673"><ele>724.0</ele><time>2026-05-01T19:04:49.001Z</time></trkpt><trkpt lat="47.20984493675462" lon="14.46373182851692"><ele>730.0</ele><time>2026-05-01T19:04:50.001Z</time></trkpt><trkpt lat="47.20979402946777" lon="14.46339754361165"><ele>736.0</ele><time>2026-05-01T19:04:51.001Z</time></trkpt><trkpt lat="47.20973501743662" lon="14.463064165724788"><ele>732.5</ele><time>2026-05-01T19:04:52.001Z</time></trkpt><trkpt lat="47.2096671123049" lon="14.462735999789157"><ele>729.0</ele><time>2026-05-01T19:04:53.001Z</time></trkpt><trkpt lat="47.20959114845768" lon="14.462411701521768"><ele>727.0</ele><time>2026-05-01T19:04:54.001Z</time></trkpt><trkpt lat="47.20950885584165" lon="14.462091373715232"><ele>725.0</ele><time>2026-05-01T19:04:55.001Z</time></trkpt><trkpt lat="47.209419035674465" lon="14.46177014540582"><ele>725.0</ele><time>2026-05-01T19:04:56.001Z</time></trkpt><trkpt lat="47.2093204619868" lon="14.461459552109835"><ele>725.0</ele><time>2026-05-01T19:04:57.001Z</time></trkpt><trkpt lat="47.20921383987542" lon="14.46115443988095"><ele>724.5</ele><time>2026-05-01T19:04:58.001Z</time></trkpt><trkpt lat="47.20909722683836" lon="14.460857152239567"><ele>724.0</ele><time>2026-05-01T19:04:59.001Z</time></trkpt><trkpt lat="47.20897134089028" lon="14.460564711009598"><ele>727.0</ele><time>2026-05-01T19:05:00.001Z</time></trkpt><trkpt lat="47.208840476461" lon="14.46027358410575"><ele>730.0</ele><time>2026-05-01T19:05:01.001Z</time></trkpt><trkpt lat="47.208708754390024" lon="14.459987025665114"><ele>730.0</ele><time>2026-05-01T19:05:02.001Z</time></trkpt><trkpt lat="47.20857364860339" lon="14.459703269905038"><ele>730.0</ele><time>2026-05-01T19:05:03.001Z</time></trkpt><trkpt lat="47.20843562004056" lon="14.459414543882684"><ele>727.5</ele><time>2026-05-01T19:05:04.001Z</time></trkpt><trkpt lat="47.20829884879846" lon="14.459130067985967"><ele>725.0</ele><time>2026-05-01T19:05:05.001Z</time></trkpt><trkpt lat="47.20816201094067" lon="14.458839155290907"><ele>733.5</ele><time>2026-05-01T19:05:06.001Z</time></trkpt><trkpt lat="47.208026647080814" lon="14.458554610311822"><ele>742.0</ele><time>2026-05-01T19:05:07.001Z</time></trkpt><trkpt lat="47.207888422173674" lon="14.458268357734523"><ele>742.0</ele><time>2026-05-01T19:05:08.001Z</time></trkpt><trkpt lat="47.20775059119574" lon="14.457984703262511"><ele>742.0</ele><time>2026-05-01T19:05:09.001Z</time></trkpt><trkpt lat="47.20761456196467" lon="14.457701668090122"><ele>737.0</ele><time>2026-05-01T19:05:10.001Z</time></trkpt><trkpt lat="47.207477114064446" lon="14.45742066895348"><ele>732.0</ele><time>2026-05-01T19:05:11.001Z</time></trkpt><trkpt lat="47.20734585429469" lon="14.457136826832766"><ele>739.5</ele><time>2026-05-01T19:05:12.001Z</time></trkpt><trkpt lat="47.20721000746748" lon="14.456851032511555"><ele>747.0</ele><time>2026-05-01T19:05:13.001Z</time></trkpt><trkpt lat="47.207076482307166" lon="14.456575858719404"><ele>747.0</ele><time>2026-05-01T19:05:14.001Z</time></trkpt><trkpt lat="47.206943571482874" lon="14.456298610340278"><ele>747.0</ele><time>2026-05-01T19:05:15.001Z</time></trkpt><trkpt lat="47.206811408123386" lon="14.45602299738109"><ele>742.0</ele><time>2026-05-01T19:05:16.001Z</time></trkpt><trkpt lat="47.206677536743165" lon="14.455753188264604"><ele>737.0</ele><time>2026-05-01T19:05:17.001Z</time></trkpt><trkpt lat="47.2065382093945" lon="14.455493475247149"><ele>742.3333333333333</ele><time>2026-05-01T19:05:18.001Z</time></trkpt><trkpt lat="47.20638977480011" lon="14.455250163304541"><ele>747.6666666666666</ele><time>2026-05-01T19:05:19.001Z</time></trkpt><trkpt lat="47.20623208604732" lon="14.455021808918575"><ele>753.0</ele><time>2026-05-01T19:05:20.001Z</time></trkpt><trkpt lat="47.2060642542349" lon="14.454808915784646"><ele>754.3333333333334</ele><time>2026-05-01T19:05:21.001Z</time></trkpt><trkpt lat="47.20589098259208" lon="14.454606759341466"><ele>755.6666666666667</ele><time>2026-05-01T19:05:22.001Z</time></trkpt><trkpt lat="47.20571420759061" lon="14.454411206855742"><ele>757.0</ele><time>2026-05-01T19:05:23.001Z</time></trkpt><trkpt lat="47.2055342749275" lon="14.454214191776748"><ele>757.0</ele><time>2026-05-01T19:05:24.001Z</time></trkpt><trkpt lat="47.20535327184938" lon="14.454016028030766"><ele>757.0</ele><time>2026-05-01T19:05:25.001Z</time></trkpt><trkpt lat="47.20517217803132" lon="14.453818207751805"><ele>760.5</ele><time>2026-05-01T19:05:26.001Z</time></trkpt><trkpt lat="47.20498812060076" lon="14.453619144491233"><ele>764.0</ele><time>2026-05-01T19:05:27.001Z</time></trkpt><trkpt lat="47.204802742782114" lon="14.453419140914544"><ele>764.0</ele><time>2026-05-01T19:05:28.001Z</time></trkpt><trkpt lat="47.20462039776386" lon="14.453220670996581"><ele>764.0</ele><time>2026-05-01T19:05:29.001Z</time></trkpt><trkpt lat="47.204437582177306" lon="14.453010768033122"><ele>752.0</ele><time>2026-05-01T19:05:30.001Z</time></trkpt><trkpt lat="47.20426593849912" lon="14.452792988753068"><ele>740.0</ele><time>2026-05-01T19:05:31.001Z</time></trkpt><trkpt lat="47.20410698039699" lon="14.452557446570037"><ele>745.0</ele><time>2026-05-01T19:05:32.001Z</time></trkpt><trkpt lat="47.20395942982841" lon="14.45230528671826"><ele>750.0</ele><time>2026-05-01T19:05:33.001Z</time></trkpt><trkpt lat="47.2038232727255" lon="14.452049274260034"><ele>755.0</ele><time>2026-05-01T19:05:34.001Z</time></trkpt><trkpt lat="47.20368562289926" lon="14.451794105740968"><ele>755.0</ele><time>2026-05-01T19:05:35.001Z</time></trkpt><trkpt lat="47.2035406445863" lon="14.451544735468792"><ele>755.0</ele><time>2026-05-01T19:05:36.001Z</time></trkpt><trkpt lat="47.20338092082809" lon="14.451320566784895"><ele>755.0</ele><time>2026-05-01T19:05:37.001Z</time></trkpt><trkpt lat="47.203209183060714" lon="14.451113472872594"><ele>751.5</ele><time>2026-05-01T19:05:38.001Z</time></trkpt><trkpt lat="47.20302453385048" lon="14.450922255888651"><ele>748.0</ele><time>2026-05-01T19:05:39.001Z</time></trkpt><trkpt lat="47.20283242818584" lon="14.450743516616381"><ele>748.0</ele><time>2026-05-01T19:05:40.001Z</time></trkpt><trkpt lat="47.20263880697091" lon="14.450563218766469"><ele>748.0</ele><time>2026-05-01T19:05:41.001Z</time></trkpt><trkpt lat="47.20244315417503" lon="14.45037583376837"><ele>750.5</ele><time>2026-05-01T19:05:42.001Z</time></trkpt><trkpt lat="47.20224839919176" lon="14.450180421046305"><ele>753.0</ele><time>2026-05-01T19:05:43.001Z</time></trkpt><trkpt lat="47.202058458689464" lon="14.449978478341777"><ele>753.0</ele><time>2026-05-01T19:05:44.001Z</time></trkpt><trkpt lat="47.20187038058431" lon="14.449770819595106"><ele>753.0</ele><time>2026-05-01T19:05:45.001Z</time></trkpt><trkpt lat="47.2016836306233" lon="14.449560407719677"><ele>756.5</ele><time>2026-05-01T19:05:46.001Z</time></trkpt><trkpt lat="47.20150099054525" lon="14.44935479128978"><ele>760.0</ele><time>2026-05-01T19:05:47.001Z</time></trkpt><trkpt lat="47.20131577262365" lon="14.449157687566517"><ele>760.0</ele><time>2026-05-01T19:05:48.001Z</time></trkpt><trkpt lat="47.20112749105886" lon="14.448968481567382"><ele>760.0</ele><time>2026-05-01T19:05:49.001Z</time></trkpt><trkpt lat="47.20093712077665" lon="14.448779106701304"><ele>755.0</ele><time>2026-05-01T19:05:50.001Z</time></trkpt><trkpt lat="47.20074783836681" lon="14.448586862621926"><ele>750.0</ele><time>2026-05-01T19:05:51.001Z</time></trkpt><trkpt lat="47.200560524464514" lon="14.448394095682406"><ele>750.0</ele><time>2026-05-01T19:05:52.001Z</time></trkpt><trkpt lat="47.200373391781795" lon="14.448199567272313"><ele>750.0</ele><time>2026-05-01T19:05:53.001Z</time></trkpt><trkpt lat="47.2001883564012" lon="14.44800283689722"><ele>748.0</ele><time>2026-05-01T19:05:54.001Z</time></trkpt><trkpt lat="47.20000596368374" lon="14.447806303899101"><ele>746.0</ele><time>2026-05-01T19:05:55Z</time></trkpt><trkpt lat="47.19982225036669" lon="14.447605635465331"><ele>750.5</ele><time>2026-05-01T19:05:56Z</time></trkpt><trkpt lat="47.19963956233568" lon="14.44740191641292"><ele>755.0</ele><time>2026-05-01T19:05:57Z</time></trkpt><trkpt lat="47.19945756380429" lon="14.447191276562402"><ele>752.5</ele><time>2026-05-01T19:05:58Z</time></trkpt><trkpt lat="47.19927371992376" lon="14.446974771142099"><ele>750.0</ele><time>2026-05-01T19:05:59Z</time></trkpt><trkpt lat="47.19908717907844" lon="14.446759082315085"><ele>754.5</ele><time>2026-05-01T19:06:00Z</time></trkpt><trkpt lat="47.19889525808524" lon="14.44654771730895"><ele>759.0</ele><time>2026-05-01T19:06:01Z</time></trkpt><trkpt lat="47.198698106870125" lon="14.446338020037379"><ele>757.0</ele><time>2026-05-01T19:06:02Z</time></trkpt><trkpt lat="47.19849706420418" lon="14.446127220529846"><ele>755.0</ele><time>2026-05-01T19:06:03Z</time></trkpt><trkpt lat="47.198294632444416" lon="14.445915906523693"><ele>760.0</ele><time>2026-05-01T19:06:04Z</time></trkpt><trkpt lat="47.19809304246755" lon="14.445702305828803"><ele>765.0</ele><time>2026-05-01T19:06:05Z</time></trkpt><trkpt lat="47.197898548211235" lon="14.44549137450795"><ele>761.0</ele><time>2026-05-01T19:06:06Z</time></trkpt><trkpt lat="47.19770920213477" lon="14.44528368476101"><ele>757.0</ele><time>2026-05-01T19:06:07Z</time></trkpt><trkpt lat="47.19751215462892" lon="14.445067957973292"><ele>758.5</ele><time>2026-05-01T19:06:08Z</time></trkpt><trkpt lat="47.19731194415504" lon="14.444845301004351"><ele>760.0</ele><time>2026-05-01T19:06:09Z</time></trkpt><trkpt lat="47.197113972363766" lon="14.444615907020063"><ele>754.5</ele><time>2026-05-01T19:06:10Z</time></trkpt><trkpt lat="47.19691906109924" lon="14.444380790361327"><ele>749.0</ele><time>2026-05-01T19:06:11Z</time></trkpt><trkpt lat="47.196770673357" lon="14.4441692068572"><ele>749.0</ele><time>2026-05-01T19:06:12Z</time></trkpt><trkpt lat="47.19659211981872" lon="14.44393184243032"><ele>749.0</ele><time>2026-05-01T19:06:13Z</time></trkpt><trkpt lat="47.19641899856083" lon="14.443697274242519"><ele>746.5</ele><time>2026-05-01T19:06:14Z</time></trkpt><trkpt lat="47.1962458498606" lon="14.443456824140759"><ele>744.0</ele><time>2026-05-01T19:06:15Z</time></trkpt><trkpt lat="47.19607508538259" lon="14.443211414422663"><ele>744.0</ele><time>2026-05-01T19:06:16Z</time></trkpt><trkpt lat="47.19590572934314" lon="14.442968178618928"><ele>744.0</ele><time>2026-05-01T19:06:17Z</time></trkpt><trkpt lat="47.19573988690492" lon="14.442731802344658"><ele>744.5</ele><time>2026-05-01T19:06:18Z</time></trkpt><trkpt lat="47.19557792858799" lon="14.442501503588275"><ele>745.0</ele><time>2026-05-01T19:06:19Z</time></trkpt><trkpt lat="47.19541566303355" lon="14.44226620021047"><ele>744.5</ele><time>2026-05-01T19:06:20Z</time></trkpt><trkpt lat="47.195253334906596" lon="14.442028742562316"><ele>744.0</ele><time>2026-05-01T19:06:21Z</time></trkpt><trkpt lat="47.19508878689947" lon="14.441800535159565"><ele>744.0</ele><time>2026-05-01T19:06:22Z</time></trkpt><trkpt lat="47.194921317993646" lon="14.441589772752419"><ele>744.0</ele><time>2026-05-01T19:06:23Z</time></trkpt><trkpt lat="47.19474801812634" lon="14.44139087048642"><ele>744.0</ele><time>2026-05-01T19:06:24Z</time></trkpt><trkpt lat="47.194568847340655" lon="14.44120170547085"><ele>745.0</ele><time>2026-05-01T19:06:25Z</time></trkpt><trkpt lat="47.19438389457519" lon="14.441007233803454"><ele>746.0</ele><time>2026-05-01T19:06:26Z</time></trkpt><trkpt lat="47.1941968876907" lon="14.440804300322215"><ele>746.0</ele><time>2026-05-01T19:06:27Z</time></trkpt><trkpt lat="47.19401519884676" lon="14.440603509946488"><ele>746.0</ele><time>2026-05-01T19:06:28Z</time></trkpt><trkpt lat="47.19384483967891" lon="14.44040147931918"><ele>746.0</ele><time>2026-05-01T19:06:29Z</time></trkpt><trkpt lat="47.19368228400788" lon="14.44019588223885"><ele>746.3333333333333</ele><time>2026-05-01T19:06:30Z</time></trkpt><trkpt lat="47.19352414524678" lon="14.439983282217383"><ele>746.6666666666666</ele><time>2026-05-01T19:06:31Z</time></trkpt><trkpt lat="47.193360819162976" lon="14.43976004776775"><ele>747.0</ele><time>2026-05-01T19:06:32Z</time></trkpt><trkpt lat="47.19319562674266" lon="14.439532816172445"><ele>744.5</ele><time>2026-05-01T19:06:33Z</time></trkpt><trkpt lat="47.193032654326345" lon="14.439305341343282"><ele>742.0</ele><time>2026-05-01T19:06:34Z</time></trkpt><trkpt lat="47.19277464829687" lon="14.43895054665779"><ele>739.0</ele><time>2026-05-01T19:06:35Z</time></trkpt><trkpt lat="47.19258910668065" lon="14.438698638568443"><ele>736.0</ele><time>2026-05-01T19:06:36Z</time></trkpt><trkpt lat="47.19238814314875" lon="14.438446369088927"><ele>737.5</ele><time>2026-05-01T19:06:37Z</time></trkpt><trkpt lat="47.19221124321802" lon="14.43820990027003"><ele>739.0</ele><time>2026-05-01T19:06:38Z</time></trkpt><trkpt lat="47.192025781551905" lon="14.437982501614625"><ele>736.0</ele><time>2026-05-01T19:06:39Z</time></trkpt><trkpt lat="47.19183944850988" lon="14.437763150576"><ele>733.0</ele><time>2026-05-01T19:06:40Z</time></trkpt><trkpt lat="47.19164977355999" lon="14.437554269937625"><ele>733.0</ele><time>2026-05-01T19:06:41Z</time></trkpt><trkpt lat="47.191454165062574" lon="14.437353298484535"><ele>733.0</ele><time>2026-05-01T19:06:42Z</time></trkpt><trkpt lat="47.19125548587696" lon="14.437151116921457"><ele>730.5</ele><time>2026-05-01T19:06:43Z</time></trkpt><trkpt lat="47.191052406357464" lon="14.436961953885547"><ele>728.0</ele><time>2026-05-01T19:06:44Z</time></trkpt><trkpt lat="47.190843835312656" lon="14.43677618467217"><ele>728.0</ele><time>2026-05-01T19:06:45Z</time></trkpt><trkpt lat="47.19063171786967" lon="14.436599025041488"><ele>728.0</ele><time>2026-05-01T19:06:46Z</time></trkpt><trkpt lat="47.190417778810364" lon="14.436429878703766"><ele>727.0</ele><time>2026-05-01T19:06:47Z</time></trkpt><trkpt lat="47.19020307493219" lon="14.43626116229961"><ele>726.0</ele><time>2026-05-01T19:06:48Z</time></trkpt><trkpt lat="47.18998674227723" lon="14.436096906436209"><ele>727.0</ele><time>2026-05-01T19:06:49Z</time></trkpt><trkpt lat="47.189770369470516" lon="14.435937905386984"><ele>728.0</ele><time>2026-05-01T19:06:50Z</time></trkpt><trkpt lat="47.18955201372289" lon="14.435783860201097"><ele>728.0</ele><time>2026-05-01T19:06:51Z</time></trkpt><trkpt lat="47.18934908746342" lon="14.435618797060746"><ele>728.0</ele><time>2026-05-01T19:06:52Z</time></trkpt><trkpt lat="47.189135473206036" lon="14.435474823347182"><ele>728.5</ele><time>2026-05-01T19:06:53Z</time></trkpt><trkpt lat="47.18892160861214" lon="14.435327497533606"><ele>729.0</ele><time>2026-05-01T19:06:54.001Z</time></trkpt><trkpt lat="47.18870633476952" lon="14.435187899428133"><ele>729.0</ele><time>2026-05-01T19:06:55.001Z</time></trkpt><trkpt lat="47.18849090637324" lon="14.435048704694893"><ele>729.0</ele><time>2026-05-01T19:06:56.001Z</time></trkpt><trkpt lat="47.18827813755852" lon="14.434916655443407"><ele>735.5</ele><time>2026-05-01T19:06:57.001Z</time></trkpt><trkpt lat="47.18807048540209" lon="14.434786338863557"><ele>742.0</ele><time>2026-05-01T19:06:58.001Z</time></trkpt><trkpt lat="47.1878599591851" lon="14.43466295069333"><ele>738.3333333333334</ele><time>2026-05-01T19:06:59.001Z</time></trkpt><trkpt lat="47.18767821232743" lon="14.434581468725886"><ele>734.6666666666666</ele><time>2026-05-01T19:07:00.001Z</time></trkpt><trkpt lat="47.187489615136535" lon="14.434497112729437"><ele>731.0</ele><time>2026-05-01T19:07:01.001Z</time></trkpt><trkpt lat="47.18730653651906" lon="14.434425644553896"><ele>731.0</ele><time>2026-05-01T19:07:02.001Z</time></trkpt><trkpt lat="47.18712614153365" lon="14.434362985006912"><ele>731.0</ele><time>2026-05-01T19:07:03.001Z</time></trkpt><trkpt lat="47.18695008730186" lon="14.43431084285088"><ele>731.0</ele><time>2026-05-01T19:07:04.001Z</time></trkpt><trkpt lat="47.1867696239062" lon="14.434259522932718"><ele>731.0</ele><time>2026-05-01T19:07:05.001Z</time></trkpt><trkpt lat="47.1865858006661" lon="14.43420675429126"><ele>731.0</ele><time>2026-05-01T19:07:06.001Z</time></trkpt><trkpt lat="47.186402648946874" lon="14.434153519012177"><ele>731.0</ele><time>2026-05-01T19:07:07.001Z</time></trkpt><trkpt lat="47.18622286590956" lon="14.43409728919709"><ele>733.0</ele><time>2026-05-01T19:07:08.001Z</time></trkpt><trkpt lat="47.18603621194157" lon="14.43402979183427"><ele>735.0</ele><time>2026-05-01T19:07:09.001Z</time></trkpt><trkpt lat="47.185849632932786" lon="14.433954331686353"><ele>737.0</ele><time>2026-05-01T19:07:10.001Z</time></trkpt><trkpt lat="47.18566738742265" lon="14.433871314638266"><ele>733.3333333333333</ele><time>2026-05-01T19:07:11.001Z</time></trkpt><trkpt lat="47.18548527599549" lon="14.433777700508895"><ele>729.6666666666666</ele><time>2026-05-01T19:07:12.001Z</time></trkpt><trkpt lat="47.18530302403945" lon="14.433675476269077"><ele>726.0</ele><time>2026-05-01T19:07:13.001Z</time></trkpt><trkpt lat="47.185124348685555" lon="14.43357287705611"><ele>726.0</ele><time>2026-05-01T19:07:14.001Z</time></trkpt><trkpt lat="47.184943403795906" lon="14.433465647692307"><ele>726.0</ele><time>2026-05-01T19:07:15.001Z</time></trkpt><trkpt lat="47.18476344223809" lon="14.433360802638138"><ele>726.0</ele><time>2026-05-01T19:07:16.001Z</time></trkpt><trkpt lat="47.18458501090728" lon="14.433255095649537"><ele>726.0</ele><time>2026-05-01T19:07:17.001Z</time></trkpt><trkpt lat="47.18440676079247" lon="14.433149590062145"><ele>726.0</ele><time>2026-05-01T19:07:18.001Z</time></trkpt><trkpt lat="47.18423197005416" lon="14.433055573229735"><ele>726.0</ele><time>2026-05-01T19:07:19.001Z</time></trkpt><trkpt lat="47.18405371241105" lon="14.432966188127345"><ele>725.6666666666666</ele><time>2026-05-01T19:07:20.001Z</time></trkpt><trkpt lat="47.18387472144563" lon="14.432884890201656"><ele>725.3333333333333</ele><time>2026-05-01T19:07:21.001Z</time></trkpt><trkpt lat="47.18369366494279" lon="14.43281085955719"><ele>725.0</ele><time>2026-05-01T19:07:22.001Z</time></trkpt><trkpt lat="47.18351237674444" lon="14.432739101225478"><ele>725.0</ele><time>2026-05-01T19:07:23.001Z</time></trkpt><trkpt lat="47.18333063728815" lon="14.432661886222647"><ele>725.0</ele><time>2026-05-01T19:07:24.001Z</time></trkpt><trkpt lat="47.183152190999984" lon="14.43257726233942"><ele>725.0</ele><time>2026-05-01T19:07:25.001Z</time></trkpt><trkpt lat="47.18297733082474" lon="14.432481973756598"><ele>725.6666666666666</ele><time>2026-05-01T19:07:26.001Z</time></trkpt><trkpt lat="47.182808109367905" lon="14.432381350246049"><ele>726.3333333333334</ele><time>2026-05-01T19:07:27.001Z</time></trkpt><trkpt lat="47.18263678592228" lon="14.43227072206472"><ele>727.0</ele><time>2026-05-01T19:07:28.001Z</time></trkpt><trkpt lat="47.18247588565423" lon="14.432162688274397"><ele>728.0</ele><time>2026-05-01T19:07:29.001Z</time></trkpt><trkpt lat="47.18231021919271" lon="14.432033041083187"><ele>729.0</ele><time>2026-05-01T19:07:30.001Z</time></trkpt><trkpt lat="47.18215173965461" lon="14.431889565178002"><ele>730.0</ele><time>2026-05-01T19:07:31.001Z</time></trkpt><trkpt lat="47.18200191291555" lon="14.43173307816134"><ele>730.0</ele><time>2026-05-01T19:07:32.001Z</time></trkpt><trkpt lat="47.181855024497004" lon="14.431561197083248"><ele>730.0</ele><time>2026-05-01T19:07:33.001Z</time></trkpt><trkpt lat="47.1817130783756" lon="14.43137335810151"><ele>730.0</ele><time>2026-05-01T19:07:34.001Z</time></trkpt><trkpt lat="47.18157479076192" lon="14.431177105965364"><ele>732.3333333333334</ele><time>2026-05-01T19:07:35.001Z</time></trkpt><trkpt lat="47.18143612333813" lon="14.430967155940863"><ele>734.6666666666666</ele><time>2026-05-01T19:07:36.001Z</time></trkpt><trkpt lat="47.181304563949844" lon="14.43076370464267"><ele>737.0</ele><time>2026-05-01T19:07:37.001Z</time></trkpt><trkpt lat="47.18117034503625" lon="14.430553579792699"><ele>735.6666666666666</ele><time>2026-05-01T19:07:38.001Z</time></trkpt><trkpt lat="47.18103620191409" lon="14.430341105883432"><ele>734.3333333333334</ele><time>2026-05-01T19:07:39.001Z</time></trkpt><trkpt lat="47.18090250423912" lon="14.430121006515774"><ele>733.0</ele><time>2026-05-01T19:07:40.001Z</time></trkpt><trkpt lat="47.18076523337788" lon="14.429902193138066"><ele>732.0</ele><time>2026-05-01T19:07:41.001Z</time></trkpt><trkpt lat="47.18062125315817" lon="14.429679307445044"><ele>731.0</ele><time>2026-05-01T19:07:42.001Z</time></trkpt><trkpt lat="47.180468430916584" lon="14.429461561151193"><ele>730.0</ele><time>2026-05-01T19:07:43.001Z</time></trkpt><trkpt lat="47.1803102703317" lon="14.42925923570315"><ele>730.0</ele><time>2026-05-01T19:07:44.001Z</time></trkpt><trkpt lat="47.18014690602098" lon="14.429069645857341"><ele>730.0</ele><time>2026-05-01T19:07:45.001Z</time></trkpt><trkpt lat="47.17997441912089" lon="14.428891594106137"><ele>730.0</ele><time>2026-05-01T19:07:46.001Z</time></trkpt><trkpt lat="47.179800974619454" lon="14.428729194616407"><ele>729.3333333333334</ele><time>2026-05-01T19:07:47.001Z</time></trkpt><trkpt lat="47.17961849348063" lon="14.428572352254744"><ele>728.6666666666666</ele><time>2026-05-01T19:07:48.001Z</time></trkpt><trkpt lat="47.17943440082931" lon="14.428438268669568"><ele>728.0</ele><time>2026-05-01T19:07:49.001Z</time></trkpt><trkpt lat="47.179243048374886" lon="14.428316926860093"><ele>728.0</ele><time>2026-05-01T19:07:50.001Z</time></trkpt><trkpt lat="47.17904978654241" lon="14.428205289407469"><ele>728.0</ele><time>2026-05-01T19:07:51.001Z</time></trkpt><trkpt lat="47.178854277563985" lon="14.428105318085834"><ele>728.0</ele><time>2026-05-01T19:07:52.001Z</time></trkpt><trkpt lat="47.178653476271414" lon="14.428021970623169"><ele>727.6666666666666</ele><time>2026-05-01T19:07:53.001Z</time></trkpt><trkpt lat="47.178458122947426" lon="14.427955787391385"><ele>727.3333333333334</ele><time>2026-05-01T19:07:54.001Z</time></trkpt><trkpt lat="47.178257694257915" lon="14.427907024357584"><ele>727.0</ele><time>2026-05-01T19:07:55.001Z</time></trkpt><trkpt lat="47.17806400357957" lon="14.427883120053727"><ele>727.6666666666667</ele><time>2026-05-01T19:07:56.001Z</time></trkpt><trkpt lat="47.177871740159844" lon="14.42787946654231"><ele>728.3333333333334</ele><time>2026-05-01T19:07:57.001Z</time></trkpt><trkpt lat="47.17767404791395" lon="14.427896046413428"><ele>729.0</ele><time>2026-05-01T19:07:58.001Z</time></trkpt><trkpt lat="47.177480420933655" lon="14.42792586230683"><ele>730.0</ele><time>2026-05-01T19:07:59.001Z</time></trkpt><trkpt lat="47.17727637557421" lon="14.427961151981709"><ele>731.0</ele><time>2026-05-01T19:08:00.001Z</time></trkpt><trkpt lat="47.177071438629014" lon="14.427990153948556"><ele>732.0</ele><time>2026-05-01T19:08:01Z</time></trkpt><trkpt lat="47.176855523101864" lon="14.428021859010784"><ele>734.0</ele><time>2026-05-01T19:08:02Z</time></trkpt><trkpt lat="47.17663990655859" lon="14.428055881543731"><ele>736.0</ele><time>2026-05-01T19:08:03Z</time></trkpt><trkpt lat="47.17643173524504" lon="14.428086754521582"><ele>738.0</ele><time>2026-05-01T19:08:04Z</time></trkpt><trkpt lat="47.176211854139986" lon="14.428122977311412"><ele>738.0</ele><time>2026-05-01T19:08:05Z</time></trkpt><trkpt lat="47.175990629060365" lon="14.428152053165308"><ele>738.0</ele><time>2026-05-01T19:08:06Z</time></trkpt><trkpt lat="47.175764795146726" lon="14.428190563342808"><ele>738.0</ele><time>2026-05-01T19:08:07Z</time></trkpt><trkpt lat="47.1755363725318" lon="14.428244360534329"><ele>734.0</ele><time>2026-05-01T19:08:08Z</time></trkpt><trkpt lat="47.175313395646754" lon="14.42831825256063"><ele>730.0</ele><time>2026-05-01T19:08:09Z</time></trkpt><trkpt lat="47.17508715370745" lon="14.42840501928257"><ele>730.0</ele><time>2026-05-01T19:08:10Z</time></trkpt><trkpt lat="47.17486063516105" lon="14.428496828938908"><ele>730.0</ele><time>2026-05-01T19:08:11Z</time></trkpt><trkpt lat="47.17463799270607" lon="14.42858854047795"><ele>729.0</ele><time>2026-05-01T19:08:12Z</time></trkpt><trkpt lat="47.17441671839341" lon="14.428682268195697"><ele>728.0</ele><time>2026-05-01T19:08:13Z</time></trkpt><trkpt lat="47.17418895251564" lon="14.428775891124092"><ele>729.0</ele><time>2026-05-01T19:08:14Z</time></trkpt><trkpt lat="47.17396564824034" lon="14.428867686312625"><ele>730.0</ele><time>2026-05-01T19:08:15Z</time></trkpt><trkpt lat="47.17375162172145" lon="14.428958319114333"><ele>730.0</ele><time>2026-05-01T19:08:16Z</time></trkpt><trkpt lat="47.173532847982315" lon="14.429040264775777"><ele>730.0</ele><time>2026-05-01T19:08:17Z</time></trkpt><trkpt lat="47.17331707797707" lon="14.429111093055326"><ele>730.0</ele><time>2026-05-01T19:08:18Z</time></trkpt><trkpt lat="47.17309817620759" lon="14.429164682718332"><ele>730.0</ele><time>2026-05-01T19:08:19Z</time></trkpt><trkpt lat="47.17288262270184" lon="14.42920410280027"><ele>730.0</ele><time>2026-05-01T19:08:20Z</time></trkpt><trkpt lat="47.17265775176532" lon="14.429239862951047"><ele>730.0</ele><time>2026-05-01T19:08:21Z</time></trkpt><trkpt lat="47.172438861240416" lon="14.429269820220808"><ele>729.0</ele><time>2026-05-01T19:08:22Z</time></trkpt><trkpt lat="47.17221489934093" lon="14.429295124081145"><ele>728.0</ele><time>2026-05-01T19:08:23Z</time></trkpt><trkpt lat="47.17199262013365" lon="14.42931843785273"><ele>727.0</ele><time>2026-05-01T19:08:24Z</time></trkpt><trkpt lat="47.17177215406004" lon="14.429341084403772"><ele>727.0</ele><time>2026-05-01T19:08:25Z</time></trkpt><trkpt lat="47.17155050814518" lon="14.42936389431658"><ele>727.0</ele><time>2026-05-01T19:08:26Z</time></trkpt><trkpt lat="47.17132894425859" lon="14.429385412342135"><ele>727.0</ele><time>2026-05-01T19:08:27Z</time></trkpt><trkpt lat="47.17110555577784" lon="14.429400205233092"><ele>727.0</ele><time>2026-05-01T19:08:28Z</time></trkpt><trkpt lat="47.1708888318399" lon="14.429409802324548"><ele>727.0</ele><time>2026-05-01T19:08:29Z</time></trkpt><trkpt lat="47.17066973603396" lon="14.42941423585875"><ele>727.0</ele><time>2026-05-01T19:08:30Z</time></trkpt><trkpt lat="47.170456188419" lon="14.429415812011642"><ele>727.0</ele><time>2026-05-01T19:08:31Z</time></trkpt><trkpt lat="47.17023766385565" lon="14.429409413415911"><ele>727.0</ele><time>2026-05-01T19:08:32Z</time></trkpt><trkpt lat="47.17002396411235" lon="14.429400362865925"><ele>727.0</ele><time>2026-05-01T19:08:33Z</time></trkpt><trkpt lat="47.169808622521714" lon="14.42938013546026"><ele>727.6666666666667</ele><time>2026-05-01T19:08:34Z</time></trkpt><trkpt lat="47.16960195477459" lon="14.42935890561765"><ele>728.3333333333334</ele><time>2026-05-01T19:08:35Z</time></trkpt><trkpt lat="47.169388171976486" lon="14.429331394236483"><ele>729.0</ele><time>2026-05-01T19:08:36Z</time></trkpt><trkpt lat="47.16918003565464" lon="14.429302725445416"><ele>730.0</ele><time>2026-05-01T19:08:37Z</time></trkpt><trkpt lat="47.16897122624636" lon="14.429267257088258"><ele>731.0</ele><time>2026-05-01T19:08:38Z</time></trkpt><trkpt lat="47.16876208378126" lon="14.429225690176992"><ele>732.0</ele><time>2026-05-01T19:08:39Z</time></trkpt><trkpt lat="47.16855242442608" lon="14.429172548684452"><ele>732.0</ele><time>2026-05-01T19:08:40Z</time></trkpt><trkpt lat="47.16834399048771" lon="14.42911523636098"><ele>732.0</ele><time>2026-05-01T19:08:41Z</time></trkpt><trkpt lat="47.168134058666055" lon="14.429053339080925"><ele>732.0</ele><time>2026-05-01T19:08:42Z</time></trkpt><trkpt lat="47.16791819646355" lon="14.428984513306128"><ele>732.3333333333334</ele><time>2026-05-01T19:08:43Z</time></trkpt><trkpt lat="47.16771033407471" lon="14.428914788144017"><ele>732.6666666666667</ele><time>2026-05-01T19:08:44Z</time></trkpt><trkpt lat="47.16749526073691" lon="14.428831434363994"><ele>733.0</ele><time>2026-05-01T19:08:45Z</time></trkpt><trkpt lat="47.16728359855839" lon="14.428745021909615"><ele>733.3333333333334</ele><time>2026-05-01T19:08:46Z</time></trkpt><trkpt lat="47.16707485263462" lon="14.428654890056169"><ele>733.6666666666666</ele><time>2026-05-01T19:08:47Z</time></trkpt><trkpt lat="47.16686639262514" lon="14.428561001472557"><ele>734.0</ele><time>2026-05-01T19:08:48Z</time></trkpt><trkpt lat="47.16665944196777" lon="14.428455558523048"><ele>733.3333333333333</ele><time>2026-05-01T19:08:49Z</time></trkpt><trkpt lat="47.166458587117894" lon="14.428349293906557"><ele>732.6666666666666</ele><time>2026-05-01T19:08:50Z</time></trkpt><trkpt lat="47.16625736751951" lon="14.428234939630215"><ele>732.0</ele><time>2026-05-01T19:08:51Z</time></trkpt><trkpt lat="47.16605667951055" lon="14.428117585148154"><ele>732.0</ele><time>2026-05-01T19:08:52Z</time></trkpt><trkpt lat="47.16585941582091" lon="14.427994359999005"><ele>732.0</ele><time>2026-05-01T19:08:53Z</time></trkpt><trkpt lat="47.165661688404434" lon="14.427866340558515"><ele>732.0</ele><time>2026-05-01T19:08:54Z</time></trkpt><trkpt lat="47.16546240098282" lon="14.427734225538622"><ele>731.0</ele><time>2026-05-01T19:08:55Z</time></trkpt><trkpt lat="47.16526714616517" lon="14.427591385662904"><ele>730.0</ele><time>2026-05-01T19:08:56Z</time></trkpt><trkpt lat="47.16507193050037" lon="14.42744659400909"><ele>729.0</ele><time>2026-05-01T19:08:57Z</time></trkpt><trkpt lat="47.16487762927431" lon="14.427295798802348"><ele>730.3333333333334</ele><time>2026-05-01T19:08:58Z</time></trkpt><trkpt lat="47.164684014512645" lon="14.42714136443458"><ele>731.6666666666667</ele><time>2026-05-01T19:08:59Z</time></trkpt><trkpt lat="47.164492540919646" lon="14.426981938744257"><ele>733.0</ele><time>2026-05-01T19:09:00Z</time></trkpt><trkpt lat="47.16429972457305" lon="14.426821597166933"><ele>733.0</ele><time>2026-05-01T19:09:01Z</time></trkpt><trkpt lat="47.164104416009906" lon="14.426648474951978"><ele>733.0</ele><time>2026-05-01T19:09:02Z</time></trkpt><trkpt lat="47.163916340223764" lon="14.426470871642115"><ele>732.5</ele><time>2026-05-01T19:09:03.001Z</time></trkpt><trkpt lat="47.163728519238425" lon="14.426288910445068"><ele>732.0</ele><time>2026-05-01T19:09:04.001Z</time></trkpt><trkpt lat="47.16354141472397" lon="14.426104649687135"><ele>732.0</ele><time>2026-05-01T19:09:05.001Z</time></trkpt><trkpt lat="47.163357607790935" lon="14.425918763490408"><ele>732.0</ele><time>2026-05-01T19:09:06.001Z</time></trkpt><trkpt lat="47.16317545236222" lon="14.425726840253036"><ele>732.0</ele><time>2026-05-01T19:09:07.001Z</time></trkpt><trkpt lat="47.162994738731044" lon="14.425530418812128"><ele>734.0</ele><time>2026-05-01T19:09:08.001Z</time></trkpt><trkpt lat="47.162817799474354" lon="14.425336989048281"><ele>736.0</ele><time>2026-05-01T19:09:09.001Z</time></trkpt><trkpt lat="47.16264218819697" lon="14.425144188977239"><ele>738.0</ele><time>2026-05-01T19:09:10.001Z</time></trkpt><trkpt lat="47.162469235512255" lon="14.424944780293643"><ele>736.3333333333334</ele><time>2026-05-01T19:09:11.001Z</time></trkpt><trkpt lat="47.162294167028506" lon="14.424753059097794"><ele>734.6666666666667</ele><time>2026-05-01T19:09:12.001Z</time></trkpt><trkpt lat="47.162122960057" lon="14.424561044092352"><ele>733.0</ele><time>2026-05-01T19:09:13.001Z</time></trkpt><trkpt lat="47.1619473403169" lon="14.424355104731465"><ele>733.0</ele><time>2026-05-01T19:09:14.001Z</time></trkpt><trkpt lat="47.16177143311879" lon="14.424156234914776"><ele>733.0</ele><time>2026-05-01T19:09:15.001Z</time></trkpt><trkpt lat="47.16159735369599" lon="14.423961599873783"><ele>733.0</ele><time>2026-05-01T19:09:16.001Z</time></trkpt><trkpt lat="47.1614199631717" lon="14.423767760003903"><ele>731.6666666666667</ele><time>2026-05-01T19:09:17.001Z</time></trkpt><trkpt lat="47.16123491899809" lon="14.423575023279048"><ele>730.3333333333334</ele><time>2026-05-01T19:09:18.001Z</time></trkpt><trkpt lat="47.16105337035508" lon="14.423393379359231"><ele>729.0</ele><time>2026-05-01T19:09:19.001Z</time></trkpt><trkpt lat="47.160879123737004" lon="14.423228276795017"><ele>729.0</ele><time>2026-05-01T19:09:20.001Z</time></trkpt><trkpt lat="47.16071887940494" lon="14.423078412510376"><ele>729.0</ele><time>2026-05-01T19:09:21.001Z</time></trkpt><trkpt lat="47.16055948536437" lon="14.422940629094818"><ele>729.0</ele><time>2026-05-01T19:09:22.001Z</time></trkpt><trkpt lat="47.160402735407736" lon="14.422812526551578"><ele>730.0</ele><time>2026-05-01T19:09:23.001Z</time></trkpt><trkpt lat="47.16024352509642" lon="14.42269075614759"><ele>731.0</ele><time>2026-05-01T19:09:24.001Z</time></trkpt><trkpt lat="47.16008184042605" lon="14.422576374001522"><ele>732.0</ele><time>2026-05-01T19:09:25.001Z</time></trkpt><trkpt lat="47.159917316769125" lon="14.422466982233653"><ele>741.6666666666666</ele><time>2026-05-01T19:09:26.001Z</time></trkpt><trkpt lat="47.15975007898688" lon="14.422361406802983"><ele>751.3333333333333</ele><time>2026-05-01T19:09:27.001Z</time></trkpt><trkpt lat="47.159578370916705" lon="14.42225760023538"><ele>761.0</ele><time>2026-05-01T19:09:28.001Z</time></trkpt><trkpt lat="47.159408292218174" lon="14.42215540864015"><ele>756.3333333333333</ele><time>2026-05-01T19:09:29.001Z</time></trkpt><trkpt lat="47.15923700260836" lon="14.422051017084408"><ele>751.6666666666666</ele><time>2026-05-01T19:09:30.001Z</time></trkpt><trkpt lat="47.159067223725856" lon="14.421943971491388"><ele>747.0</ele><time>2026-05-01T19:09:31.001Z</time></trkpt><trkpt lat="47.15889594945861" lon="14.421830515224345"><ele>756.3333333333333</ele><time>2026-05-01T19:09:32.001Z</time></trkpt><trkpt lat="47.158723999861195" lon="14.421710392791397"><ele>765.6666666666666</ele><time>2026-05-01T19:09:33.001Z</time></trkpt><trkpt lat="47.15855209118128" lon="14.421584397796373"><ele>775.0</ele><time>2026-05-01T19:09:34.001Z</time></trkpt><trkpt lat="47.158382455146615" lon="14.421452960412209"><ele>767.0</ele><time>2026-05-01T19:09:35.001Z</time></trkpt><trkpt lat="47.15821686590155" lon="14.421310744702218"><ele>759.0</ele><time>2026-05-01T19:09:36.001Z</time></trkpt><trkpt lat="47.158057309241364" lon="14.421157631531743"><ele>751.0</ele><time>2026-05-01T19:09:37.001Z</time></trkpt><trkpt lat="47.15790313896907" lon="14.420992785009243"><ele>751.0</ele><time>2026-05-01T19:09:38.001Z</time></trkpt><trkpt lat="47.15775411764856" lon="14.420817069101833"><ele>751.0</ele><time>2026-05-01T19:09:39.001Z</time></trkpt><trkpt lat="47.157607443623164" lon="14.420626774859565"><ele>751.0</ele><time>2026-05-01T19:09:40.001Z</time></trkpt><trkpt lat="47.15743623288291" lon="14.420435626009134"><ele>751.0</ele><time>2026-05-01T19:09:41.001Z</time></trkpt><trkpt lat="47.1572934320805" lon="14.420248665400841"><ele>751.0</ele><time>2026-05-01T19:09:42.001Z</time></trkpt><trkpt lat="47.157183309333256" lon="14.420047200456722"><ele>751.0</ele><time>2026-05-01T19:09:43.001Z</time></trkpt><trkpt lat="47.15706707508993" lon="14.41983036196803"><ele>747.6666666666667</ele><time>2026-05-01T19:09:44.001Z</time></trkpt><trkpt lat="47.15694736945933" lon="14.41960710281944"><ele>744.3333333333334</ele><time>2026-05-01T19:09:45.001Z</time></trkpt><trkpt lat="47.156824584380665" lon="14.41937287759265"><ele>741.0</ele><time>2026-05-01T19:09:46.001Z</time></trkpt><trkpt lat="47.15670478188623" lon="14.419130203422"><ele>741.0</ele><time>2026-05-01T19:09:47.001Z</time></trkpt><trkpt lat="47.15658736776342" lon="14.418883290277517"><ele>741.0</ele><time>2026-05-01T19:09:48.001Z</time></trkpt><trkpt lat="47.156466175875906" lon="14.41863506714052"><ele>741.0</ele><time>2026-05-01T19:09:49.001Z</time></trkpt><trkpt lat="47.156343017837315" lon="14.418382656176158"><ele>742.0</ele><time>2026-05-01T19:09:50.001Z</time></trkpt><trkpt lat="47.15621464943144" lon="14.418126850609013"><ele>743.0</ele><time>2026-05-01T19:09:51.001Z</time></trkpt><trkpt lat="47.156081372407286" lon="14.417871948486587"><ele>744.0</ele><time>2026-05-01T19:09:52.001Z</time></trkpt><trkpt lat="47.15594369178985" lon="14.41761930916093"><ele>744.0</ele><time>2026-05-01T19:09:53.001Z</time></trkpt><trkpt lat="47.15580406895967" lon="14.417388719073097"><ele>744.0</ele><time>2026-05-01T19:09:54.001Z</time></trkpt><trkpt lat="47.155652592888686" lon="14.417162419938526"><ele>744.0</ele><time>2026-05-01T19:09:55.001Z</time></trkpt><trkpt lat="47.15549326370137" lon="14.416948085755308"><ele>747.3333333333334</ele><time>2026-05-01T19:09:56.001Z</time></trkpt><trkpt lat="47.155328342385" lon="14.416747564365895"><ele>750.6666666666667</ele><time>2026-05-01T19:09:57.001Z</time></trkpt><trkpt lat="47.15515919820367" lon="14.416559723054233"><ele>754.0</ele><time>2026-05-01T19:09:58.001Z</time></trkpt><trkpt lat="47.154987166238826" lon="14.416385453375707"><ele>754.0</ele><time>2026-05-01T19:09:59.001Z</time></trkpt><trkpt lat="47.154822706610574" lon="14.416234174480543"><ele>754.0</ele><time>2026-05-01T19:10:00.001Z</time></trkpt><trkpt lat="47.15467004158789" lon="14.416099988486467"><ele>754.0</ele><time>2026-05-01T19:10:01.001Z</time></trkpt><trkpt lat="47.15453131022356" lon="14.415984308516826"><ele>754.0</ele><time>2026-05-01T19:10:02.001Z</time></trkpt><trkpt lat="47.15440480129115" lon="14.415881804716687"><ele>754.0</ele><time>2026-05-01T19:10:03.001Z</time></trkpt><trkpt lat="47.15429065777424" lon="14.415790335327195"><ele>754.0</ele><time>2026-05-01T19:10:04.001Z</time></trkpt><trkpt lat="47.15418666168124" lon="14.415705694126896"><ele>754.0</ele><time>2026-05-01T19:10:05.001Z</time></trkpt><trkpt lat="47.15409038498373" lon="14.41562463041806"><ele>754.4000000000001</ele><time>2026-05-01T19:10:06.001Z</time></trkpt><trkpt lat="47.15400581690279" lon="14.415550242133751"><ele>754.8</ele><time>2026-05-01T19:10:07Z</time></trkpt><trkpt lat="47.15392595017306" lon="14.41547779824342"><ele>755.2</ele><time>2026-05-01T19:10:08Z</time></trkpt><trkpt lat="47.15384641802558" lon="14.415404300603527"><ele>755.5999999999999</ele><time>2026-05-01T19:10:09Z</time></trkpt><trkpt lat="47.153767111094666" lon="14.415328810344091"><ele>756.0</ele><time>2026-05-01T19:10:10Z</time></trkpt><trkpt lat="47.15368826520326" lon="14.415252566393125"><ele>756.0</ele><time>2026-05-01T19:10:11Z</time></trkpt><trkpt lat="47.153609702626845" lon="14.415178644884797"><ele>756.0</ele><time>2026-05-01T19:10:12Z</time></trkpt><trkpt lat="47.1535293837042" lon="14.415103218621523"><ele>756.0</ele><time>2026-05-01T19:10:13Z</time></trkpt><trkpt lat="47.15344674815548" lon="14.41502600192835"><ele>756.0</ele><time>2026-05-01T19:10:14Z</time></trkpt><trkpt lat="47.153364589502715" lon="14.414949434339142"><ele>756.0</ele><time>2026-05-01T19:10:15Z</time></trkpt><trkpt lat="47.153282108366184" lon="14.414870929088798"><ele>756.5999999999999</ele><time>2026-05-01T19:10:16Z</time></trkpt><trkpt lat="47.15319990340856" lon="14.414792382589042"><ele>757.2</ele><time>2026-05-01T19:10:17Z</time></trkpt><trkpt lat="47.15311749132428" lon="14.414714192381627"><ele>757.8</ele><time>2026-05-01T19:10:18Z</time></trkpt><trkpt lat="47.153035642358496" lon="14.414634961773897"><ele>758.4000000000001</ele><time>2026-05-01T19:10:19Z</time></trkpt><trkpt lat="47.152956317509336" lon="14.414552822443742"><ele>759.0</ele><time>2026-05-01T19:10:20Z</time></trkpt><trkpt lat="47.15287910007806" lon="14.41446743032259"><ele>759.0</ele><time>2026-05-01T19:10:21Z</time></trkpt><trkpt lat="47.152805838202575" lon="14.414376481615733"><ele>759.0</ele><time>2026-05-01T19:10:22Z</time></trkpt><trkpt lat="47.152735045149456" lon="14.41428082893928"><ele>759.0</ele><time>2026-05-01T19:10:23Z</time></trkpt><trkpt lat="47.15266689590913" lon="14.414183543107171"><ele>759.0</ele><time>2026-05-01T19:10:24Z</time></trkpt><trkpt lat="47.15259964298465" lon="14.414084912501197"><ele>759.0</ele><time>2026-05-01T19:10:25Z</time></trkpt><trkpt lat="47.152533005974284" lon="14.413983354560942"><ele>759.0</ele><time>2026-05-01T19:10:26Z</time></trkpt><trkpt lat="47.15246629455029" lon="14.413882844137941"><ele>759.0</ele><time>2026-05-01T19:10:27Z</time></trkpt><trkpt lat="47.1523985503646" lon="14.4137787213611"><ele>759.0</ele><time>2026-05-01T19:10:28Z</time></trkpt><trkpt lat="47.15233340033975" lon="14.413672366172195"><ele>759.0</ele><time>2026-05-01T19:10:29Z</time></trkpt><trkpt lat="47.1522676048106" lon="14.413565338334164"><ele>759.0</ele><time>2026-05-01T19:10:30Z</time></trkpt><trkpt lat="47.152202396081464" lon="14.413458109591833"><ele>759.2</ele><time>2026-05-01T19:10:31Z</time></trkpt><trkpt lat="47.152137860848214" lon="14.41335141486748"><ele>759.4000000000001</ele><time>2026-05-01T19:10:32Z</time></trkpt><trkpt lat="47.15207419951947" lon="14.413245779203654"><ele>759.6</ele><time>2026-05-01T19:10:33Z</time></trkpt><trkpt lat="47.152011638906984" lon="14.413139720832763"><ele>759.8</ele><time>2026-05-01T19:10:34Z</time></trkpt><trkpt lat="47.15194965423093" lon="14.413033592719767"><ele>760.0</ele><time>2026-05-01T19:10:35Z</time></trkpt><trkpt lat="47.151887953476674" lon="14.41292913626343"><ele>760.0</ele><time>2026-05-01T19:10:36Z</time></trkpt><trkpt lat="47.15182540302376" lon="14.412825115263175"><ele>760.0</ele><time>2026-05-01T19:10:37Z</time></trkpt><trkpt lat="47.15176126185525" lon="14.412720537123219"><ele>760.0</ele><time>2026-05-01T19:10:38Z</time></trkpt><trkpt lat="47.15169572691049" lon="14.412617190149943"><ele>760.0</ele><time>2026-05-01T19:10:39Z</time></trkpt><trkpt lat="47.15162905213855" lon="14.412515877416837"><ele>760.0</ele><time>2026-05-01T19:10:40Z</time></trkpt><trkpt lat="47.15155838484106" lon="14.412418849018925"><ele>760.2</ele><time>2026-05-01T19:10:41Z</time></trkpt><trkpt lat="47.15148234863024" lon="14.412331623269571"><ele>760.4</ele><time>2026-05-01T19:10:42Z</time></trkpt><trkpt lat="47.151400192927596" lon="14.412253187183177"><ele>760.5999999999999</ele><time>2026-05-01T19:10:43Z</time></trkpt><trkpt lat="47.15130947437327" lon="14.412191648682002"><ele>760.8</ele><time>2026-05-01T19:10:44Z</time></trkpt><trkpt lat="47.15121520980269" lon="14.412141498223255"><ele>761.0</ele><time>2026-05-01T19:10:45Z</time></trkpt><trkpt lat="47.15111914157758" lon="14.412105499652466"><ele>761.0</ele><time>2026-05-01T19:10:46Z</time></trkpt><trkpt lat="47.151020942160464" lon="14.412084790885347"><ele>761.0</ele><time>2026-05-01T19:10:47Z</time></trkpt><trkpt lat="47.150924455516055" lon="14.412076238578772"><ele>761.0</ele><time>2026-05-01T19:10:48Z</time></trkpt><trkpt lat="47.150828623641026" lon="14.412076932057198"><ele>761.0</ele><time>2026-05-01T19:10:49Z</time></trkpt><trkpt lat="47.15073679053281" lon="14.412089974394172"><ele>761.0</ele><time>2026-05-01T19:10:50Z</time></trkpt><trkpt lat="47.15064092183039" lon="14.412108733397396"><ele>761.5999999999999</ele><time>2026-05-01T19:10:51Z</time></trkpt><trkpt lat="47.150544638731866" lon="14.412134182071913"><ele>762.2</ele><time>2026-05-01T19:10:52Z</time></trkpt><trkpt lat="47.150451076078056" lon="14.412164900707888"><ele>762.8</ele><time>2026-05-01T19:10:53Z</time></trkpt><trkpt lat="47.150357828117215" lon="14.412199762305528"><ele>763.4000000000001</ele><time>2026-05-01T19:10:54Z</time></trkpt><trkpt lat="47.15026296012859" lon="14.412236235729925"><ele>764.0</ele><time>2026-05-01T19:10:55Z</time></trkpt><trkpt lat="47.150169577792596" lon="14.412271496954336"><ele>764.4000000000001</ele><time>2026-05-01T19:10:56Z</time></trkpt><trkpt lat="47.15007744115312" lon="14.412310150697362"><ele>764.8</ele><time>2026-05-01T19:10:57Z</time></trkpt><trkpt lat="47.149989305140814" lon="14.4123561936983"><ele>765.2</ele><time>2026-05-01T19:10:58Z</time></trkpt><trkpt lat="47.14990046633259" lon="14.412407765717273"><ele>765.5999999999999</ele><time>2026-05-01T19:10:59Z</time></trkpt><trkpt lat="47.149815141420774" lon="14.41246464799751"><ele>766.0</ele><time>2026-05-01T19:11:00Z</time></trkpt><trkpt lat="47.149733172083394" lon="14.412526920643481"><ele>766.1999999999999</ele><time>2026-05-01T19:11:01Z</time></trkpt><trkpt lat="47.149654387336795" lon="14.412598401372875"><ele>766.4</ele><time>2026-05-01T19:11:02Z</time></trkpt><trkpt lat="47.14957716005046" lon="14.412678904937767"><ele>766.6</ele><time>2026-05-01T19:11:03Z</time></trkpt><trkpt lat="47.149504467677666" lon="14.412764950816024"><ele>766.8</ele><time>2026-05-01T19:11:04Z</time></trkpt><trkpt lat="47.14943371604525" lon="14.412855526571597"><ele>767.0</ele><time>2026-05-01T19:11:05Z</time></trkpt><trkpt lat="47.14936577201926" lon="14.412950892975003"><ele>767.4000000000001</ele><time>2026-05-01T19:11:06Z</time></trkpt><trkpt lat="47.14929799475686" lon="14.413050982081"><ele>767.8000000000001</ele><time>2026-05-01T19:11:07.001Z</time></trkpt><trkpt lat="47.14923324904262" lon="14.413155045193129"><ele>768.2</ele><time>2026-05-01T19:11:08.001Z</time></trkpt><trkpt lat="47.149171173922454" lon="14.413261303554327"><ele>768.6</ele><time>2026-05-01T19:11:09.001Z</time></trkpt><trkpt lat="47.14910915568962" lon="14.413368816806006"><ele>769.0</ele><time>2026-05-01T19:11:10.001Z</time></trkpt><trkpt lat="47.14904567713527" lon="14.413477261511913"><ele>769.6</ele><time>2026-05-01T19:11:11.001Z</time></trkpt><trkpt lat="47.14898105526166" lon="14.413583528590465"><ele>770.2</ele><time>2026-05-01T19:11:12.001Z</time></trkpt><trkpt lat="47.14891725750782" lon="14.413688326251606"><ele>770.8000000000001</ele><time>2026-05-01T19:11:13.001Z</time></trkpt><trkpt lat="47.1488532099781" lon="14.413792980523118"><ele>771.4000000000001</ele><time>2026-05-01T19:11:14.001Z</time></trkpt><trkpt lat="47.148789302962946" lon="14.413896274823198"><ele>772.0</ele><time>2026-05-01T19:11:15.001Z</time></trkpt><trkpt lat="47.14872490022124" lon="14.414000673359961"><ele>772.2</ele><time>2026-05-01T19:11:16.001Z</time></trkpt><trkpt lat="47.14866012714424" lon="14.4141048061275"><ele>772.4000000000001</ele><time>2026-05-01T19:11:17.001Z</time></trkpt><trkpt lat="47.14859419548033" lon="14.4142088428938"><ele>772.5999999999999</ele><time>2026-05-01T19:11:18.001Z</time></trkpt><trkpt lat="47.14852771155296" lon="14.414313147995633"><ele>772.8</ele><time>2026-05-01T19:11:19.001Z</time></trkpt><trkpt lat="47.148461715814896" lon="14.414416622105005"><ele>773.0</ele><time>2026-05-01T19:11:20.001Z</time></trkpt><trkpt lat="47.14839500542258" lon="14.414518920573958"><ele>773.0</ele><time>2026-05-01T19:11:21.001Z</time></trkpt><trkpt lat="47.14832839616131" lon="14.414619415401933"><ele>773.0</ele><time>2026-05-01T19:11:22.001Z</time></trkpt><trkpt lat="47.14825941171392" lon="14.414718367418308"><ele>773.0</ele><time>2026-05-01T19:11:23.001Z</time></trkpt><trkpt lat="47.14818920424961" lon="14.414815764768719"><ele>773.0</ele><time>2026-05-01T19:11:24.001Z</time></trkpt><trkpt lat="47.14811885885678" lon="14.41491101274822"><ele>773.0</ele><time>2026-05-01T19:11:25.001Z</time></trkpt><trkpt lat="47.14804641916576" lon="14.415007200627556"><ele>773.5999999999999</ele><time>2026-05-01T19:11:26.001Z</time></trkpt><trkpt lat="47.1479729976865" lon="14.41510226998095"><ele>774.1999999999999</ele><time>2026-05-01T19:11:27.001Z</time></trkpt><trkpt lat="47.14789869337099" lon="14.415196291034976"><ele>774.8</ele><time>2026-05-01T19:11:28.001Z</time></trkpt><trkpt lat="47.1478225015575" lon="14.41528808380185"><ele>775.4</ele><time>2026-05-01T19:11:29.001Z</time></trkpt><trkpt lat="47.147744538258806" lon="14.415373505693216"><ele>776.0</ele><time>2026-05-01T19:11:30.001Z</time></trkpt><trkpt lat="47.14766478670361" lon="14.415460184600892"><ele>776.8</ele><time>2026-05-01T19:11:31.001Z</time></trkpt><trkpt lat="47.1475818276627" lon="14.415544596893712"><ele>777.5999999999999</ele><time>2026-05-01T19:11:32.001Z</time></trkpt><trkpt lat="47.14749419458902" lon="14.415625294774715"><ele>778.4</ele><time>2026-05-01T19:11:33.001Z</time></trkpt><trkpt lat="47.147405060328126" lon="14.415702340618227"><ele>779.2</ele><time>2026-05-01T19:11:34.001Z</time></trkpt><trkpt lat="47.14731349580148" lon="14.415778370486882"><ele>780.0</ele><time>2026-05-01T19:11:35.001Z</time></trkpt><trkpt lat="47.147220155709576" lon="14.415853305744227"><ele>780.0</ele><time>2026-05-01T19:11:36.001Z</time></trkpt><trkpt lat="47.14712707996218" lon="14.415925653842905"><ele>780.0</ele><time>2026-05-01T19:11:37.001Z</time></trkpt><trkpt lat="47.147035291681846" lon="14.41599506733954"><ele>780.0</ele><time>2026-05-01T19:11:38.001Z</time></trkpt><trkpt lat="47.14694418909276" lon="14.41606322014266"><ele>780.0</ele><time>2026-05-01T19:11:39.001Z</time></trkpt><trkpt lat="47.14685213278607" lon="14.416128667655883"><ele>780.0</ele><time>2026-05-01T19:11:40.001Z</time></trkpt><trkpt lat="47.14676044163104" lon="14.416191415454417"><ele>780.0</ele><time>2026-05-01T19:11:41.001Z</time></trkpt><trkpt lat="47.146669142638814" lon="14.416250533740474"><ele>780.0</ele><time>2026-05-01T19:11:42.001Z</time></trkpt><trkpt lat="47.14657550968627" lon="14.41630433899925"><ele>780.0</ele><time>2026-05-01T19:11:43.001Z</time></trkpt><trkpt lat="47.146483190192285" lon="14.416352419177457"><ele>780.0</ele><time>2026-05-01T19:11:44.001Z</time></trkpt><trkpt lat="47.14639025898615" lon="14.41639941821367"><ele>780.0</ele><time>2026-05-01T19:11:45.001Z</time></trkpt><trkpt lat="47.14629977722136" lon="14.416445161358064"><ele>781.8</ele><time>2026-05-01T19:11:46.001Z</time></trkpt><trkpt lat="47.146207912268" lon="14.416488868070061"><ele>783.6</ele><time>2026-05-01T19:11:47.001Z</time></trkpt><trkpt lat="47.14611290127439" lon="14.416529280965321"><ele>785.4000000000001</ele><time>2026-05-01T19:11:48.001Z</time></trkpt><trkpt lat="47.14601656963969" lon="14.416566255578047"><ele>787.2</ele><time>2026-05-01T19:11:49.001Z</time></trkpt><trkpt lat="47.14592005966156" lon="14.416603321641649"><ele>789.0</ele><time>2026-05-01T19:11:50.001Z</time></trkpt><trkpt lat="47.14582140375485" lon="14.41664182041061"><ele>789.0</ele><time>2026-05-01T19:11:51.001Z</time></trkpt><trkpt lat="47.145723018207725" lon="14.416679577542714"><ele>789.0</ele><time>2026-05-01T19:11:52.001Z</time></trkpt><trkpt lat="47.1456208435904" lon="14.41671656154758"><ele>789.0</ele><time>2026-05-01T19:11:53.001Z</time></trkpt><trkpt lat="47.14551606177274" lon="14.416753934382754"><ele>789.0</ele><time>2026-05-01T19:11:54.001Z</time></trkpt><trkpt lat="47.14540833829873" lon="14.416792597708897"><ele>789.0</ele><time>2026-05-01T19:11:55.001Z</time></trkpt><trkpt lat="47.14529384293837" lon="14.416834928620492"><ele>789.25</ele><time>2026-05-01T19:11:56.001Z</time></trkpt><trkpt lat="47.14517104560751" lon="14.41687953873328"><ele>789.5</ele><time>2026-05-01T19:11:57.001Z</time></trkpt><trkpt lat="47.145041683874474" lon="14.416926653854686"><ele>789.75</ele><time>2026-05-01T19:11:58.001Z</time></trkpt><trkpt lat="47.14490463425764" lon="14.416977107805865"><ele>790.0</ele><time>2026-05-01T19:11:59.001Z</time></trkpt><trkpt lat="47.144760468613654" lon="14.417030970017866"><ele>790.3333333333333</ele><time>2026-05-01T19:12:00.001Z</time></trkpt><trkpt lat="47.14460932112436" lon="14.417090816207114"><ele>790.6666666666667</ele><time>2026-05-01T19:12:01.001Z</time></trkpt><trkpt lat="47.14445314724131" lon="14.417150640984188"><ele>791.0</ele><time>2026-05-01T19:12:02.001Z</time></trkpt><trkpt lat="47.14430406258735" lon="14.417208019305605"><ele>791.0</ele><time>2026-05-01T19:12:03.001Z</time></trkpt><trkpt lat="47.14414912308141" lon="14.417268250306984"><ele>791.0</ele><time>2026-05-01T19:12:04.001Z</time></trkpt><trkpt lat="47.14399067478794" lon="14.41732846860995"><ele>791.0</ele><time>2026-05-01T19:12:05.001Z</time></trkpt><trkpt lat="47.14382852737561" lon="14.417391727529484"><ele>792.3333333333334</ele><time>2026-05-01T19:12:06.001Z</time></trkpt><trkpt lat="47.14366650250956" lon="14.417454755642787"><ele>793.6666666666667</ele><time>2026-05-01T19:12:07.001Z</time></trkpt><trkpt lat="47.14350732998362" lon="14.417514085811964"><ele>795.0</ele><time>2026-05-01T19:12:08.001Z</time></trkpt><trkpt lat="47.14335870290834" lon="14.417576201071215"><ele>795.0</ele><time>2026-05-01T19:12:09.001Z</time></trkpt><trkpt lat="47.14321670978922" lon="14.417652045175842"><ele>795.0</ele><time>2026-05-01T19:12:10.001Z</time></trkpt><trkpt lat="47.143078220885926" lon="14.417745938428341"><ele>795.0</ele><time>2026-05-01T19:12:11.001Z</time></trkpt><trkpt lat="47.14295099969941" lon="14.417858193972801"><ele>797.6666666666667</ele><time>2026-05-01T19:12:12.001Z</time></trkpt><trkpt lat="47.14282917790018" lon="14.417990280612418"><ele>800.3333333333334</ele><time>2026-05-01T19:12:13Z</time></trkpt><trkpt lat="47.14271869845654" lon="14.418138685203473"><ele>803.0</ele><time>2026-05-01T19:12:14Z</time></trkpt><trkpt lat="47.14262087426526" lon="14.41830510737781"><ele>803.0</ele><time>2026-05-01T19:12:15Z</time></trkpt><trkpt lat="47.14253572055194" lon="14.418486710111466"><ele>803.0</ele><time>2026-05-01T19:12:16Z</time></trkpt><trkpt lat="47.14246311156617" lon="14.41868186406055"><ele>803.0</ele><time>2026-05-01T19:12:17Z</time></trkpt><trkpt lat="47.14238696550644" lon="14.418875956814222"><ele>806.0</ele><time>2026-05-01T19:12:18Z</time></trkpt><trkpt lat="47.14235043857483" lon="14.41909927285773"><ele>809.0</ele><time>2026-05-01T19:12:19Z</time></trkpt><trkpt lat="47.14230441016501" lon="14.419319293071974"><ele>812.0</ele><time>2026-05-01T19:12:20Z</time></trkpt><trkpt lat="47.14225808785951" lon="14.419550276576485"><ele>812.0</ele><time>2026-05-01T19:12:21Z</time></trkpt><trkpt lat="47.14220944834032" lon="14.419784094624134"><ele>812.0</ele><time>2026-05-01T19:12:22Z</time></trkpt><trkpt lat="47.14216111447355" lon="14.420023907064659"><ele>812.0</ele><time>2026-05-01T19:12:23Z</time></trkpt><trkpt lat="47.14210683685205" lon="14.420261507416496"><ele>812.6666666666667</ele><time>2026-05-01T19:12:24Z</time></trkpt><trkpt lat="47.14204318341345" lon="14.420497490502337"><ele>813.3333333333333</ele><time>2026-05-01T19:12:25Z</time></trkpt><trkpt lat="47.141970112699944" lon="14.420730931041117"><ele>814.0</ele><time>2026-05-01T19:12:26Z</time></trkpt><trkpt lat="47.141884647266515" lon="14.420958921267797"><ele>814.0</ele><time>2026-05-01T19:12:27Z</time></trkpt><trkpt lat="47.14178771905979" lon="14.421180221861833"><ele>814.0</ele><time>2026-05-01T19:12:28Z</time></trkpt><trkpt lat="47.14167803716988" lon="14.42139128432978"><ele>814.0</ele><time>2026-05-01T19:12:29Z</time></trkpt><trkpt lat="47.14155749122808" lon="14.42159721842808"><ele>814.6666666666666</ele><time>2026-05-01T19:12:30Z</time></trkpt><trkpt lat="47.14143094853061" lon="14.42179137166761"><ele>815.3333333333333</ele><time>2026-05-01T19:12:31Z</time></trkpt><trkpt lat="47.14130469779042" lon="14.421977325329367"><ele>816.0</ele><time>2026-05-01T19:12:32Z</time></trkpt><trkpt lat="47.1411818884372" lon="14.422152463972836"><ele>816.0</ele><time>2026-05-01T19:12:33Z</time></trkpt><trkpt lat="47.14105726370386" lon="14.422324877728805"><ele>816.0</ele><time>2026-05-01T19:12:34Z</time></trkpt><trkpt lat="47.14093365122582" lon="14.422495522246384"><ele>816.0</ele><time>2026-05-01T19:12:35Z</time></trkpt><trkpt lat="47.14081324920652" lon="14.42266477618938"><ele>817.6666666666667</ele><time>2026-05-01T19:12:36Z</time></trkpt><trkpt lat="47.14069343596907" lon="14.422835693883338"><ele>819.3333333333334</ele><time>2026-05-01T19:12:37Z</time></trkpt><trkpt lat="47.14057703694903" lon="14.423005587613627"><ele>821.0</ele><time>2026-05-01T19:12:38Z</time></trkpt><trkpt lat="47.140462957213856" lon="14.423174853950895"><ele>821.0</ele><time>2026-05-01T19:12:39Z</time></trkpt><trkpt lat="47.14035498530942" lon="14.423347795182565"><ele>821.0</ele><time>2026-05-01T19:12:40Z</time></trkpt><trkpt lat="47.1402532886415" lon="14.423526551218057"><ele>821.0</ele><time>2026-05-01T19:12:41Z</time></trkpt><trkpt lat="47.14016019206614" lon="14.423713676305612"><ele>822.0</ele><time>2026-05-01T19:12:42Z</time></trkpt><trkpt lat="47.14007409872888" lon="14.423906920151113"><ele>823.0</ele><time>2026-05-01T19:12:43Z</time></trkpt><trkpt lat="47.13999636563226" lon="14.424101317376786"><ele>824.0</ele><time>2026-05-01T19:12:44Z</time></trkpt><trkpt lat="47.1399254374492" lon="14.424292357127577"><ele>824.0</ele><time>2026-05-01T19:12:45Z</time></trkpt><trkpt lat="47.1398536284978" lon="14.424480399430406"><ele>824.0</ele><time>2026-05-01T19:12:46Z</time></trkpt><trkpt lat="47.13978409838223" lon="14.424666911533498"><ele>824.0</ele><time>2026-05-01T19:12:47Z</time></trkpt><trkpt lat="47.13971823000858" lon="14.42485245202367"><ele>824.0</ele><time>2026-05-01T19:12:48Z</time></trkpt><trkpt lat="47.139653821060996" lon="14.425042220716628"><ele>824.0</ele><time>2026-05-01T19:12:49Z</time></trkpt><trkpt lat="47.13959231013797" lon="14.42523362300008"><ele>824.0</ele><time>2026-05-01T19:12:50Z</time></trkpt><trkpt lat="47.13953199623871" lon="14.42542791207594"><ele>824.0</ele><time>2026-05-01T19:12:51Z</time></trkpt><trkpt lat="47.139477687659436" lon="14.425625171110028"><ele>824.0</ele><time>2026-05-01T19:12:52Z</time></trkpt><trkpt lat="47.13942800555607" lon="14.425826527629763"><ele>824.6666666666667</ele><time>2026-05-01T19:12:53Z</time></trkpt><trkpt lat="47.139381587499116" lon="14.426031403095875"><ele>825.3333333333333</ele><time>2026-05-01T19:12:54Z</time></trkpt><trkpt lat="47.13933862145447" lon="14.42624254749352"><ele>826.0</ele><time>2026-05-01T19:12:55Z</time></trkpt><trkpt lat="47.13929822278026" lon="14.426460206833207"><ele>827.0</ele><time>2026-05-01T19:12:56Z</time></trkpt><trkpt lat="47.13925740798174" lon="14.4266820901513"><ele>828.0</ele><time>2026-05-01T19:12:57Z</time></trkpt><trkpt lat="47.1392152513643" lon="14.426905469280536"><ele>829.0</ele><time>2026-05-01T19:12:58Z</time></trkpt><trkpt lat="47.13916996700759" lon="14.427131787221708"><ele>829.3333333333333</ele><time>2026-05-01T19:12:59Z</time></trkpt><trkpt lat="47.1391226684361" lon="14.427359230451318"><ele>829.6666666666667</ele><time>2026-05-01T19:13:00Z</time></trkpt><trkpt lat="47.13907607924062" lon="14.427585685479944"><ele>830.0</ele><time>2026-05-01T19:13:01Z</time></trkpt><trkpt lat="47.13902942499158" lon="14.427800430292057"><ele>830.0</ele><time>2026-05-01T19:13:02Z</time></trkpt><trkpt lat="47.13897594350261" lon="14.428020334801678"><ele>830.0</ele><time>2026-05-01T19:13:03Z</time></trkpt><trkpt lat="47.138915131781246" lon="14.428243818280569"><ele>830.0</ele><time>2026-05-01T19:13:04Z</time></trkpt><trkpt lat="47.138842550217475" lon="14.428471079642899"><ele>830.0</ele><time>2026-05-01T19:13:05Z</time></trkpt><trkpt lat="47.13875604975566" lon="14.428695265935609"><ele>830.0</ele><time>2026-05-01T19:13:06Z</time></trkpt><trkpt lat="47.13865825814321" lon="14.42892187717587"><ele>830.0</ele><time>2026-05-01T19:13:07Z</time></trkpt><trkpt lat="47.138554476906236" lon="14.429153950709201"><ele>830.0</ele><time>2026-05-01T19:13:08Z</time></trkpt><trkpt lat="47.13844086069105" lon="14.429394274803828"><ele>830.0</ele><time>2026-05-01T19:13:09Z</time></trkpt><trkpt lat="47.13833201715648" lon="14.42962480938089"><ele>830.0</ele><time>2026-05-01T19:13:10Z</time></trkpt><trkpt lat="47.13822448631998" lon="14.429859562416334"><ele>831.3333333333334</ele><time>2026-05-01T19:13:11Z</time></trkpt><trkpt lat="47.13811222714086" lon="14.43009785895182"><ele>832.6666666666667</ele><time>2026-05-01T19:13:12Z</time></trkpt><trkpt lat="47.138001753441536" lon="14.430336712257462"><ele>834.0</ele><time>2026-05-01T19:13:13Z</time></trkpt><trkpt lat="47.13789107442234" lon="14.430576552830873"><ele>835.3333333333333</ele><time>2026-05-01T19:13:14.001Z</time></trkpt><trkpt lat="47.13778194968496" lon="14.430812776318904"><ele>836.6666666666666</ele><time>2026-05-01T19:13:15.001Z</time></trkpt><trkpt lat="47.13767396913293" lon="14.431048715058155"><ele>838.0</ele><time>2026-05-01T19:13:16.001Z</time></trkpt><trkpt lat="47.137567059440215" lon="14.43128141200471"><ele>839.0</ele><time>2026-05-01T19:13:17.001Z</time></trkpt><trkpt lat="47.13745954650083" lon="14.431508745817851"><ele>840.0</ele><time>2026-05-01T19:13:18.001Z</time></trkpt><trkpt lat="47.13735108957702" lon="14.431726375418446"><ele>841.0</ele><time>2026-05-01T19:13:19.001Z</time></trkpt><trkpt lat="47.13724271458414" lon="14.43194596323865"><ele>842.6666666666666</ele><time>2026-05-01T19:13:20.001Z</time></trkpt><trkpt lat="47.13712595300136" lon="14.432162041172655"><ele>844.3333333333333</ele><time>2026-05-01T19:13:21.001Z</time></trkpt><trkpt lat="47.137001345911905" lon="14.432361844649892"><ele>846.0</ele><time>2026-05-01T19:13:22.001Z</time></trkpt><trkpt lat="47.13686736196784" lon="14.432552323931185"><ele>846.0</ele><time>2026-05-01T19:13:23.001Z</time></trkpt><trkpt lat="47.1367247449795" lon="14.43272775337299"><ele>846.0</ele><time>2026-05-01T19:13:24.001Z</time></trkpt><trkpt lat="47.13657177918531" lon="14.432891817018705"><ele>846.0</ele><time>2026-05-01T19:13:25.001Z</time></trkpt><trkpt lat="47.1364106231462" lon="14.433044341545397"><ele>846.6666666666667</ele><time>2026-05-01T19:13:26.001Z</time></trkpt><trkpt lat="47.13624000222835" lon="14.433187923240249"><ele>847.3333333333334</ele><time>2026-05-01T19:13:27.001Z</time></trkpt><trkpt lat="47.13606341978342" lon="14.433324280268417"><ele>848.0</ele><time>2026-05-01T19:13:28.001Z</time></trkpt><trkpt lat="47.13588275738525" lon="14.433457228318714"><ele>849.0</ele><time>2026-05-01T19:13:29.001Z</time></trkpt><trkpt lat="47.13569945845128" lon="14.433590281362083"><ele>850.0</ele><time>2026-05-01T19:13:30.001Z</time></trkpt><trkpt lat="47.13551871839072" lon="14.433724112465397"><ele>851.0</ele><time>2026-05-01T19:13:31.001Z</time></trkpt><trkpt lat="47.13533679986449" lon="14.433857015343465"><ele>851.0</ele><time>2026-05-01T19:13:32.001Z</time></trkpt><trkpt lat="47.1351552687514" lon="14.433990774577122"><ele>851.0</ele><time>2026-05-01T19:13:33.001Z</time></trkpt><trkpt lat="47.13497516656519" lon="14.434125640900797"><ele>851.0</ele><time>2026-05-01T19:13:34.001Z</time></trkpt><trkpt lat="47.13479863960188" lon="14.434257930784026"><ele>854.3333333333334</ele><time>2026-05-01T19:13:35.001Z</time></trkpt><trkpt lat="47.134619485096536" lon="14.434389088530542"><ele>857.6666666666667</ele><time>2026-05-01T19:13:36.001Z</time></trkpt><trkpt lat="47.13444252960034" lon="14.434516617365341"><ele>861.0</ele><time>2026-05-01T19:13:37.001Z</time></trkpt><trkpt lat="47.13426474395264" lon="14.434645317412658"><ele>861.6666666666667</ele><time>2026-05-01T19:13:38.001Z</time></trkpt><trkpt lat="47.13408527664942" lon="14.434770480959546"><ele>862.3333333333334</ele><time>2026-05-01T19:13:39.001Z</time></trkpt><trkpt lat="47.13390433825337" lon="14.434888869276104"><ele>863.0</ele><time>2026-05-01T19:13:40.001Z</time></trkpt><trkpt lat="47.133720034737166" lon="14.434999104528302"><ele>864.3333333333334</ele><time>2026-05-01T19:13:41.001Z</time></trkpt><trkpt lat="47.133532571875826" lon="14.435102322605399"><ele>865.6666666666667</ele><time>2026-05-01T19:13:42.001Z</time></trkpt><trkpt lat="47.13334319787615" lon="14.435202981554745"><ele>867.0</ele><time>2026-05-01T19:13:43.001Z</time></trkpt><trkpt lat="47.133153855105924" lon="14.435303807838073"><ele>868.6666666666667</ele><time>2026-05-01T19:13:44.001Z</time></trkpt><trkpt lat="47.13296209790359" lon="14.435399934030576"><ele>870.3333333333334</ele><time>2026-05-01T19:13:45.001Z</time></trkpt><trkpt lat="47.13276946946299" lon="14.43549603775816"><ele>872.0</ele><time>2026-05-01T19:13:46.001Z</time></trkpt><trkpt lat="47.132575735540456" lon="14.435590671530885"><ele>872.0</ele><time>2026-05-01T19:13:47.001Z</time></trkpt><trkpt lat="47.13239086800057" lon="14.435675573736711"><ele>872.0</ele><time>2026-05-01T19:13:48.001Z</time></trkpt><trkpt lat="47.13220537333702" lon="14.435761411083746"><ele>872.0</ele><time>2026-05-01T19:13:49.001Z</time></trkpt><trkpt lat="47.13201690195419" lon="14.435852555996005"><ele>875.3333333333334</ele><time>2026-05-01T19:13:50.001Z</time></trkpt><trkpt lat="47.13182504307688" lon="14.435947906070352"><ele>878.6666666666667</ele><time>2026-05-01T19:13:51.001Z</time></trkpt><trkpt lat="47.1316342353828" lon="14.436042231736707"><ele>882.0</ele><time>2026-05-01T19:13:52.001Z</time></trkpt><trkpt lat="47.131442956586675" lon="14.436136160525075"><ele>882.3333333333333</ele><time>2026-05-01T19:13:53.001Z</time></trkpt><trkpt lat="47.13125281072811" lon="14.436229365554684"><ele>882.6666666666666</ele><time>2026-05-01T19:13:54.001Z</time></trkpt><trkpt lat="47.13106276352511" lon="14.43631652524866"><ele>883.0</ele><time>2026-05-01T19:13:55.001Z</time></trkpt><trkpt lat="47.130870485852824" lon="14.436401547623584"><ele>884.0</ele><time>2026-05-01T19:13:56.001Z</time></trkpt><trkpt lat="47.130675361402005" lon="14.436481779616788"><ele>885.0</ele><time>2026-05-01T19:13:57.001Z</time></trkpt><trkpt lat="47.130479415322085" lon="14.436559025115612"><ele>886.0</ele><time>2026-05-01T19:13:58.001Z</time></trkpt><trkpt lat="47.130282493752226" lon="14.436639181493916"><ele>886.0</ele><time>2026-05-01T19:13:59.001Z</time></trkpt><trkpt lat="47.1300819674572" lon="14.436713975980835"><ele>886.0</ele><time>2026-05-01T19:14:00.001Z</time></trkpt><trkpt lat="47.129883299236" lon="14.436795375111423"><ele>886.0</ele><time>2026-05-01T19:14:01.001Z</time></trkpt><trkpt lat="47.12968466767153" lon="14.436877537080903"><ele>886.0</ele><time>2026-05-01T19:14:02.001Z</time></trkpt><trkpt lat="47.12948804608334" lon="14.43696583337318"><ele>886.0</ele><time>2026-05-01T19:14:03.001Z</time></trkpt><trkpt lat="47.12929365990078" lon="14.437064086750171"><ele>886.0</ele><time>2026-05-01T19:14:04.001Z</time></trkpt><trkpt lat="47.12910202034689" lon="14.43717540263549"><ele>887.3333333333333</ele><time>2026-05-01T19:14:05.001Z</time></trkpt><trkpt lat="47.1289137175916" lon="14.437297358581896"><ele>888.6666666666667</ele><time>2026-05-01T19:14:06.001Z</time></trkpt><trkpt lat="47.1287298960233" lon="14.437425281789233"><ele>890.0</ele><time>2026-05-01T19:14:07.001Z</time></trkpt><trkpt lat="47.1285497545831" lon="14.437558575351806"><ele>890.0</ele><time>2026-05-01T19:14:08.001Z</time></trkpt><trkpt lat="47.12837556369693" lon="14.437702395146172"><ele>890.0</ele><time>2026-05-01T19:14:09.001Z</time></trkpt><trkpt lat="47.12820666220785" lon="14.437857258929016"><ele>890.0</ele><time>2026-05-01T19:14:10.001Z</time></trkpt><trkpt lat="47.12804171100958" lon="14.438018017377049"><ele>891.6666666666667</ele><time>2026-05-01T19:14:11.001Z</time></trkpt><trkpt lat="47.127881926752536" lon="14.438185646804452"><ele>893.3333333333333</ele><time>2026-05-01T19:14:12.001Z</time></trkpt><trkpt lat="47.12772793327133" lon="14.43835415032068"><ele>895.0</ele><time>2026-05-01T19:14:13.001Z</time></trkpt><trkpt lat="47.12758137524948" lon="14.438521800895089"><ele>895.0</ele><time>2026-05-01T19:14:14.001Z</time></trkpt><trkpt lat="47.12744753274936" lon="14.438676583855417"><ele>895.0</ele><time>2026-05-01T19:14:15.001Z</time></trkpt><trkpt lat="47.12731872358264" lon="14.438832789081014"><ele>895.0</ele><time>2026-05-01T19:14:16.001Z</time></trkpt><trkpt lat="47.12719594468863" lon="14.438995058973248"><ele>896.3333333333333</ele><time>2026-05-01T19:14:17.001Z</time></trkpt><trkpt lat="47.12708466409375" lon="14.43916378503491"><ele>897.6666666666667</ele><time>2026-05-01T19:14:18.001Z</time></trkpt><trkpt lat="47.12698762512096" lon="14.439328514706736"><ele>899.0</ele><time>2026-05-01T19:14:19Z</time></trkpt><trkpt lat="47.1269024396133" lon="14.439494731976753"><ele>899.3333333333334</ele><time>2026-05-01T19:14:20Z</time></trkpt><trkpt lat="47.126809947609864" lon="14.43965811645364"><ele>899.6666666666667</ele><time>2026-05-01T19:14:21Z</time></trkpt><trkpt lat="47.12675818226333" lon="14.439868371667657"><ele>900.0</ele><time>2026-05-01T19:14:22Z</time></trkpt><trkpt lat="47.126692488127595" lon="14.440080247557653"><ele>900.0</ele><time>2026-05-01T19:14:23Z</time></trkpt><trkpt lat="47.12662411901244" lon="14.440302636120675"><ele>900.0</ele><time>2026-05-01T19:14:24Z</time></trkpt><trkpt lat="47.1265546806471" lon="14.440513673541794"><ele>900.0</ele><time>2026-05-01T19:14:25Z</time></trkpt><trkpt lat="47.12647229114653" lon="14.440732491473437"><ele>902.6666666666667</ele><time>2026-05-01T19:14:26Z</time></trkpt><trkpt lat="47.126373590452744" lon="14.440938504753655"><ele>905.3333333333334</ele><time>2026-05-01T19:14:27Z</time></trkpt><trkpt lat="47.126256459980695" lon="14.441126925247294"><ele>908.0</ele><time>2026-05-01T19:14:28Z</time></trkpt><trkpt lat="47.12612458255843" lon="14.441294044728778"><ele>907.0</ele><time>2026-05-01T19:14:29Z</time></trkpt><trkpt lat="47.125979124790625" lon="14.441434080352268"><ele>906.0</ele><time>2026-05-01T19:14:30Z</time></trkpt><trkpt lat="47.12582227547377" lon="14.441545462679494"><ele>905.0</ele><time>2026-05-01T19:14:31Z</time></trkpt><trkpt lat="47.12565771481273" lon="14.441622271417488"><ele>908.0</ele><time>2026-05-01T19:14:32Z</time></trkpt><trkpt lat="47.1254903275065" lon="14.441674730969204"><ele>911.0</ele><time>2026-05-01T19:14:33Z</time></trkpt><trkpt lat="47.125312019783884" lon="14.441719576144942"><ele>914.0</ele><time>2026-05-01T19:14:34Z</time></trkpt><trkpt lat="47.125135180332975" lon="14.441758921096657"><ele>914.0</ele><time>2026-05-01T19:14:35Z</time></trkpt><trkpt lat="47.12495615280531" lon="14.44179679580911"><ele>914.0</ele><time>2026-05-01T19:14:36Z</time></trkpt><trkpt lat="47.1247796065251" lon="14.441839076410822"><ele>914.0</ele><time>2026-05-01T19:14:37Z</time></trkpt><trkpt lat="47.12460732663297" lon="14.441894079592771"><ele>915.0</ele><time>2026-05-01T19:14:38Z</time></trkpt><trkpt lat="47.12443972170934" lon="14.44196842749408"><ele>916.0</ele><time>2026-05-01T19:14:39Z</time></trkpt><trkpt lat="47.12427920110058" lon="14.442067733988106"><ele>917.0</ele><time>2026-05-01T19:14:40Z</time></trkpt><trkpt lat="47.12412475800688" lon="14.44218562520335"><ele>921.3333333333334</ele><time>2026-05-01T19:14:41Z</time></trkpt><trkpt lat="47.123976688820754" lon="14.44232303957237"><ele>925.6666666666667</ele><time>2026-05-01T19:14:42Z</time></trkpt><trkpt lat="47.12383627502153" lon="14.442485171837573"><ele>930.0</ele><time>2026-05-01T19:14:43Z</time></trkpt><trkpt lat="47.123704482083106" lon="14.442665281411164"><ele>930.0</ele><time>2026-05-01T19:14:44Z</time></trkpt><trkpt lat="47.12358146197254" lon="14.442861196223623"><ele>930.0</ele><time>2026-05-01T19:14:45Z</time></trkpt><trkpt lat="47.12346878773736" lon="14.443068818000704"><ele>930.0</ele><time>2026-05-01T19:14:46Z</time></trkpt><trkpt lat="47.12336677720509" lon="14.443290780389074"><ele>929.0</ele><time>2026-05-01T19:14:47Z</time></trkpt><trkpt lat="47.12327890569845" lon="14.443527918383491"><ele>928.0</ele><time>2026-05-01T19:14:48Z</time></trkpt><trkpt lat="47.1232096532769" lon="14.443777330812848"><ele>927.0</ele><time>2026-05-01T19:14:49Z</time></trkpt><trkpt lat="47.123151398320545" lon="14.444039537705166"><ele>929.6666666666667</ele><time>2026-05-01T19:14:50Z</time></trkpt><trkpt lat="47.12309425656701" lon="14.444311758196006"><ele>932.3333333333334</ele><time>2026-05-01T19:14:51Z</time></trkpt><trkpt lat="47.12303185078864" lon="14.444593885994248"><ele>935.0</ele><time>2026-05-01T19:14:52Z</time></trkpt><trkpt lat="47.12297051852073" lon="14.444861679546884"><ele>935.0</ele><time>2026-05-01T19:14:53Z</time></trkpt><trkpt lat="47.12290693103425" lon="14.445138679448519"><ele>935.0</ele><time>2026-05-01T19:14:54Z</time></trkpt><trkpt lat="47.122837234533804" lon="14.445419359024518"><ele>935.0</ele><time>2026-05-01T19:14:55Z</time></trkpt><trkpt lat="47.122754774897274" lon="14.445690550346857"><ele>934.3333333333334</ele><time>2026-05-01T19:14:56Z</time></trkpt><trkpt lat="47.122656189840114" lon="14.445945452905788"><ele>933.6666666666667</ele><time>2026-05-01T19:14:57Z</time></trkpt><trkpt lat="47.12253775970079" lon="14.44617350598973"><ele>933.0</ele><time>2026-05-01T19:14:58Z</time></trkpt><trkpt lat="47.12240419600282" lon="14.44637455005165"><ele>936.6666666666667</ele><time>2026-05-01T19:14:59Z</time></trkpt><trkpt lat="47.1222532853561" lon="14.44655074683672"><ele>940.3333333333334</ele><time>2026-05-01T19:15:00Z</time></trkpt><trkpt lat="47.12209215406848" lon="14.44670811841995"><ele>944.0</ele><time>2026-05-01T19:15:01Z</time></trkpt><trkpt lat="47.12192161958581" lon="14.446843189659521"><ele>944.0</ele><time>2026-05-01T19:15:02Z</time></trkpt><trkpt lat="47.12174983441072" lon="14.446976479854177"><ele>944.0</ele><time>2026-05-01T19:15:03Z</time></trkpt><trkpt lat="47.121576475565426" lon="14.447114476865234"><ele>944.0</ele><time>2026-05-01T19:15:04Z</time></trkpt><trkpt lat="47.1214013534636" lon="14.44725140407676"><ele>946.6666666666667</ele><time>2026-05-01T19:15:05Z</time></trkpt><trkpt lat="47.121227875709444" lon="14.447387859386454"><ele>949.3333333333333</ele><time>2026-05-01T19:15:06Z</time></trkpt><trkpt lat="47.12105490990497" lon="14.447528753700945"><ele>952.0</ele><time>2026-05-01T19:15:07Z</time></trkpt><trkpt lat="47.12088531410154" lon="14.447676062317896"><ele>953.6666666666666</ele><time>2026-05-01T19:15:08Z</time></trkpt><trkpt lat="47.12071776975255" lon="14.447830608777458"><ele>955.3333333333333</ele><time>2026-05-01T19:15:09Z</time></trkpt><trkpt lat="47.12055069104574" lon="14.447993458449796"><ele>957.0</ele><time>2026-05-01T19:15:10Z</time></trkpt><trkpt lat="47.120385806743506" lon="14.44816698178253"><ele>957.0</ele><time>2026-05-01T19:15:11Z</time></trkpt><trkpt lat="47.12022626120147" lon="14.448349606450995"><ele>957.0</ele><time>2026-05-01T19:15:12Z</time></trkpt><trkpt lat="47.1200676531285" lon="14.448544092896904"><ele>957.0</ele><time>2026-05-01T19:15:13Z</time></trkpt><trkpt lat="47.11991266883096" lon="14.448746908990962"><ele>959.0</ele><time>2026-05-01T19:15:14Z</time></trkpt><trkpt lat="47.11975672818907" lon="14.448956304724996"><ele>961.0</ele><time>2026-05-01T19:15:15Z</time></trkpt><trkpt lat="47.119601102430416" lon="14.4491649421126"><ele>963.0</ele><time>2026-05-01T19:15:16Z</time></trkpt><trkpt lat="47.1194534479064" lon="14.449362678265192"><ele>963.0</ele><time>2026-05-01T19:15:17Z</time></trkpt><trkpt lat="47.11929899311779" lon="14.449566698665892"><ele>963.0</ele><time>2026-05-01T19:15:18Z</time></trkpt><trkpt lat="47.119139712991384" lon="14.449769942552393"><ele>963.0</ele><time>2026-05-01T19:15:19Z</time></trkpt><trkpt lat="47.11897666288667" lon="14.449970413385394"><ele>963.3333333333333</ele><time>2026-05-01T19:15:20Z</time></trkpt><trkpt lat="47.11881253596838" lon="14.450163732604166"><ele>963.6666666666666</ele><time>2026-05-01T19:15:21Z</time></trkpt><trkpt lat="47.118647746801905" lon="14.45035321321445"><ele>964.0</ele><time>2026-05-01T19:15:22Z</time></trkpt><trkpt lat="47.118483296927906" lon="14.450542679281092"><ele>965.3333333333333</ele><time>2026-05-01T19:15:23Z</time></trkpt><trkpt lat="47.11831967701504" lon="14.45073138141799"><ele>966.6666666666667</ele><time>2026-05-01T19:15:24Z</time></trkpt><trkpt lat="47.1181562259485" lon="14.450920247221239"><ele>968.0</ele><time>2026-05-01T19:15:25.001Z</time></trkpt><trkpt lat="47.11799321899426" lon="14.4511100964071"><ele>967.3333333333334</ele><time>2026-05-01T19:15:26.001Z</time></trkpt><trkpt lat="47.11783168704697" lon="14.451298642971627"><ele>966.6666666666667</ele><time>2026-05-01T19:15:27.001Z</time></trkpt><trkpt lat="47.11767104012039" lon="14.451486485449918"><ele>966.0</ele><time>2026-05-01T19:15:28.001Z</time></trkpt><trkpt lat="47.11751054268085" lon="14.451672838541976"><ele>967.3333333333333</ele><time>2026-05-01T19:15:29.001Z</time></trkpt><trkpt lat="47.11735009750399" lon="14.451858153126206"><ele>968.6666666666666</ele><time>2026-05-01T19:15:30.001Z</time></trkpt><trkpt lat="47.11718748538773" lon="14.45204800065733"><ele>970.0</ele><time>2026-05-01T19:15:31.001Z</time></trkpt><trkpt lat="47.11702765956431" lon="14.452241653012733"><ele>970.0</ele><time>2026-05-01T19:15:32.001Z</time></trkpt><trkpt lat="47.11686791418393" lon="14.452439464044206"><ele>970.0</ele><time>2026-05-01T19:15:33.001Z</time></trkpt><trkpt lat="47.11670783347978" lon="14.452641963594143"><ele>970.0</ele><time>2026-05-01T19:15:34.001Z</time></trkpt><trkpt lat="47.11655056214318" lon="14.452842507445018"><ele>973.6666666666666</ele><time>2026-05-01T19:15:35.001Z</time></trkpt><trkpt lat="47.116390676355074" lon="14.453043482085294"><ele>977.3333333333333</ele><time>2026-05-01T19:15:36.001Z</time></trkpt><trkpt lat="47.116228944904364" lon="14.453244214010734"><ele>981.0</ele><time>2026-05-01T19:15:37.001Z</time></trkpt><trkpt lat="47.116066018952694" lon="14.453447109821687"><ele>981.0</ele><time>2026-05-01T19:15:38.001Z</time></trkpt><trkpt lat="47.115905061507775" lon="14.453650197808587"><ele>981.0</ele><time>2026-05-01T19:15:39.001Z</time></trkpt><trkpt lat="47.1157444187781" lon="14.453853379175234"><ele>981.0</ele><time>2026-05-01T19:15:40.001Z</time></trkpt><trkpt lat="47.11558613024106" lon="14.45405400892025"><ele>980.0</ele><time>2026-05-01T19:15:41.001Z</time></trkpt><trkpt lat="47.115428064633456" lon="14.4542541315538"><ele>979.0</ele><time>2026-05-01T19:15:42.001Z</time></trkpt><trkpt lat="47.11526931087441" lon="14.454455763077187"><ele>978.0</ele><time>2026-05-01T19:15:43.001Z</time></trkpt><trkpt lat="47.11510988830358" lon="14.454658541512732"><ele>978.0</ele><time>2026-05-01T19:15:44.001Z</time></trkpt><trkpt lat="47.11495012727341" lon="14.45486292315529"><ele>978.0</ele><time>2026-05-01T19:15:45.001Z</time></trkpt><trkpt lat="47.114792162668316" lon="14.45506953100545"><ele>978.0</ele><time>2026-05-01T19:15:46.001Z</time></trkpt><trkpt lat="47.1146350079932" lon="14.455274660297986"><ele>981.3333333333333</ele><time>2026-05-01T19:15:47.001Z</time></trkpt><trkpt lat="47.11447476313783" lon="14.455481991119807"><ele>984.6666666666666</ele><time>2026-05-01T19:15:48.001Z</time></trkpt><trkpt lat="47.11431430214315" lon="14.455690017797213"><ele>988.0</ele><time>2026-05-01T19:15:49.001Z</time></trkpt><trkpt lat="47.114154645941426" lon="14.455900618176683"><ele>989.3333333333333</ele><time>2026-05-01T19:15:50.001Z</time></trkpt><trkpt lat="47.113994937413324" lon="14.456111781611353"><ele>990.6666666666667</ele><time>2026-05-01T19:15:51.001Z</time></trkpt><trkpt lat="47.11383465402238" lon="14.456323288721585"><ele>992.0</ele><time>2026-05-01T19:15:52.001Z</time></trkpt><trkpt lat="47.113672700594776" lon="14.456531443106996"><ele>992.0</ele><time>2026-05-01T19:15:53.001Z</time></trkpt><trkpt lat="47.11350872418438" lon="14.456734076981169"><ele>992.0</ele><time>2026-05-01T19:15:54.001Z</time></trkpt><trkpt lat="47.113346482414286" lon="14.456924934109685"><ele>992.0</ele><time>2026-05-01T19:15:55.001Z</time></trkpt><trkpt lat="47.11318339698051" lon="14.457082053608083"><ele>991.3333333333334</ele><time>2026-05-01T19:15:56.001Z</time></trkpt><trkpt lat="47.11301300400979" lon="14.457221839782289"><ele>990.6666666666667</ele><time>2026-05-01T19:15:57.001Z</time></trkpt><trkpt lat="47.11283545641244" lon="14.4573410560921"><ele>990.0</ele><time>2026-05-01T19:15:58.001Z</time></trkpt><trkpt lat="47.112649021509604" lon="14.457426215072028"><ele>990.0</ele><time>2026-05-01T19:15:59.001Z</time></trkpt><trkpt lat="47.1124577465437" lon="14.457489528812305"><ele>990.0</ele><time>2026-05-01T19:16:00.001Z</time></trkpt><trkpt lat="47.112254292283076" lon="14.457553156900646"><ele>990.0</ele><time>2026-05-01T19:16:01.001Z</time></trkpt><trkpt lat="47.112043910598864" lon="14.457606927377299"><ele>990.0</ele><time>2026-05-01T19:16:02.001Z</time></trkpt><trkpt lat="47.11185389482941" lon="14.457650017522203"><ele>990.0</ele><time>2026-05-01T19:16:03.001Z</time></trkpt><trkpt lat="47.111644357712876" lon="14.457686167016666"><ele>990.0</ele><time>2026-05-01T19:16:04.001Z</time></trkpt><trkpt lat="47.11143307127187" lon="14.457714832597768"><ele>990.6666666666667</ele><time>2026-05-01T19:16:05.001Z</time></trkpt><trkpt lat="47.11122024190831" lon="14.457736332093061"><ele>991.3333333333334</ele><time>2026-05-01T19:16:06.001Z</time></trkpt><trkpt lat="47.11100831796841" lon="14.457747506721345"><ele>992.0</ele><time>2026-05-01T19:16:07.001Z</time></trkpt><trkpt lat="47.1107942727308" lon="14.457752263404798"><ele>992.3333333333334</ele><time>2026-05-01T19:16:08.001Z</time></trkpt><trkpt lat="47.110580204329175" lon="14.457744117037327"><ele>992.6666666666667</ele><time>2026-05-01T19:16:09.001Z</time></trkpt><trkpt lat="47.110365106049386" lon="14.457726323836862"><ele>993.0</ele><time>2026-05-01T19:16:10.001Z</time></trkpt><trkpt lat="47.11015907123476" lon="14.457698790532822"><ele>993.0</ele><time>2026-05-01T19:16:11.001Z</time></trkpt><trkpt lat="47.10996825235799" lon="14.45766597471889"><ele>993.0</ele><time>2026-05-01T19:16:12.001Z</time></trkpt><trkpt lat="47.10979443493398" lon="14.4576338797624"><ele>993.0</ele><time>2026-05-01T19:16:13.001Z</time></trkpt><trkpt lat="47.10963749803354" lon="14.457603007732775"><ele>993.0</ele><time>2026-05-01T19:16:14.001Z</time></trkpt><trkpt lat="47.10949384153627" lon="14.457578187731315"><ele>993.0</ele><time>2026-05-01T19:16:15.001Z</time></trkpt><trkpt lat="47.109359155901565" lon="14.457556529994598"><ele>993.0</ele><time>2026-05-01T19:16:16.001Z</time></trkpt><trkpt lat="47.10922935372864" lon="14.457534636585923"><ele>993.0</ele><time>2026-05-01T19:16:17.001Z</time></trkpt><trkpt lat="47.109105648540755" lon="14.457510787586529"><ele>993.0</ele><time>2026-05-01T19:16:18.001Z</time></trkpt><trkpt lat="47.10898614711904" lon="14.457485505226698"><ele>993.0</ele><time>2026-05-01T19:16:19.001Z</time></trkpt><trkpt lat="47.10886723887904" lon="14.457459557521002"><ele>993.0</ele><time>2026-05-01T19:16:20.001Z</time></trkpt><trkpt lat="47.108750444479426" lon="14.457435858708894"><ele>993.0</ele><time>2026-05-01T19:16:21.001Z</time></trkpt><trkpt lat="47.108633540401286" lon="14.457412006230923"><ele>993.0</ele><time>2026-05-01T19:16:22.001Z</time></trkpt><trkpt lat="47.10852079078057" lon="14.457390400568562"><ele>993.0</ele><time>2026-05-01T19:16:23.001Z</time></trkpt><trkpt lat="47.10840999902756" lon="14.457363396294607"><ele>993.0</ele><time>2026-05-01T19:16:24.001Z</time></trkpt><trkpt lat="47.108303037689296" lon="14.457332556310076"><ele>993.0</ele><time>2026-05-01T19:16:25Z</time></trkpt><trkpt lat="47.108199041036" lon="14.457303639138793"><ele>993.0</ele><time>2026-05-01T19:16:26Z</time></trkpt><trkpt lat="47.1080933305351" lon="14.457274860321906"><ele>992.0</ele><time>2026-05-01T19:16:27Z</time></trkpt><trkpt lat="47.107984935792615" lon="14.457245593117115"><ele>991.0</ele><time>2026-05-01T19:16:28Z</time></trkpt><trkpt lat="47.107875473238536" lon="14.457214064051453"><ele>990.0</ele><time>2026-05-01T19:16:29Z</time></trkpt><trkpt lat="47.10776451655854" lon="14.457178536316167"><ele>989.0</ele><time>2026-05-01T19:16:30Z</time></trkpt><trkpt lat="47.10765302406809" lon="14.457142187692941"><ele>989.25</ele><time>2026-05-01T19:16:31Z</time></trkpt><trkpt lat="47.107541780912165" lon="14.45710462658696"><ele>989.5</ele><time>2026-05-01T19:16:32Z</time></trkpt><trkpt lat="47.10742880493903" lon="14.457071747908108"><ele>989.75</ele><time>2026-05-01T19:16:33Z</time></trkpt><trkpt lat="47.10731608022541" lon="14.45703966623752"><ele>990.0</ele><time>2026-05-01T19:16:34Z</time></trkpt><trkpt lat="47.10720215815541" lon="14.45701075193863"><ele>989.0</ele><time>2026-05-01T19:16:35Z</time></trkpt><trkpt lat="47.10708693614804" lon="14.456981582728046"><ele>988.0</ele><time>2026-05-01T19:16:36Z</time></trkpt><trkpt lat="47.10697117933261" lon="14.45695061844441"><ele>987.0</ele><time>2026-05-01T19:16:37Z</time></trkpt><trkpt lat="47.10685023865869" lon="14.45691731896202"><ele>986.0</ele><time>2026-05-01T19:16:38Z</time></trkpt><trkpt lat="47.10672430179055" lon="14.456878873806831"><ele>986.0</ele><time>2026-05-01T19:16:39Z</time></trkpt><trkpt lat="47.106592243100586" lon="14.456839373697127"><ele>986.0</ele><time>2026-05-01T19:16:40Z</time></trkpt><trkpt lat="47.106454617625104" lon="14.456797772321233"><ele>986.0</ele><time>2026-05-01T19:16:41Z</time></trkpt><trkpt lat="47.10630861788946" lon="14.456755925786865"><ele>986.0</ele><time>2026-05-01T19:16:42Z</time></trkpt><trkpt lat="47.10615423081267" lon="14.456711307320122"><ele>985.3333333333334</ele><time>2026-05-01T19:16:43Z</time></trkpt><trkpt lat="47.10599391105092" lon="14.456665018632508"><ele>984.6666666666667</ele><time>2026-05-01T19:16:44Z</time></trkpt><trkpt lat="47.10583221538699" lon="14.456617311527273"><ele>984.0</ele><time>2026-05-01T19:16:45Z</time></trkpt><trkpt lat="47.10567121954437" lon="14.456569849686048"><ele>982.6666666666667</ele><time>2026-05-01T19:16:46Z</time></trkpt><trkpt lat="47.105501506090306" lon="14.456519583435528"><ele>981.3333333333334</ele><time>2026-05-01T19:16:47Z</time></trkpt><trkpt lat="47.105328737017096" lon="14.456469890198184"><ele>980.0</ele><time>2026-05-01T19:16:48Z</time></trkpt><trkpt lat="47.10515221340654" lon="14.456419843245087"><ele>980.0</ele><time>2026-05-01T19:16:49Z</time></trkpt><trkpt lat="47.10497263514382" lon="14.456369588299433"><ele>980.0</ele><time>2026-05-01T19:16:50Z</time></trkpt><trkpt lat="47.104798281865556" lon="14.456318669357454"><ele>980.0</ele><time>2026-05-01T19:16:51Z</time></trkpt><trkpt lat="47.10461909444178" lon="14.456265582449788"><ele>980.3333333333334</ele><time>2026-05-01T19:16:52Z</time></trkpt><trkpt lat="47.10443654952519" lon="14.456213869477686"><ele>980.6666666666667</ele><time>2026-05-01T19:16:53Z</time></trkpt><trkpt lat="47.104254025733454" lon="14.456166524244587"><ele>981.0</ele><time>2026-05-01T19:16:54Z</time></trkpt><trkpt lat="47.104068492403655" lon="14.456122493997096"><ele>981.0</ele><time>2026-05-01T19:16:55Z</time></trkpt><trkpt lat="47.1038830677569" lon="14.456083381632265"><ele>981.0</ele><time>2026-05-01T19:16:56Z</time></trkpt><trkpt lat="47.103699592567274" lon="14.456045575687122"><ele>981.0</ele><time>2026-05-01T19:16:57Z</time></trkpt><trkpt lat="47.10351577293017" lon="14.45601548057938"><ele>981.0</ele><time>2026-05-01T19:16:58Z</time></trkpt><trkpt lat="47.10333395377721" lon="14.455991097189079"><ele>981.0</ele><time>2026-05-01T19:16:59Z</time></trkpt><trkpt lat="47.10315047721392" lon="14.455971773209864"><ele>981.0</ele><time>2026-05-01T19:17:00Z</time></trkpt><trkpt lat="47.10296602288505" lon="14.45595381961782"><ele>980.0</ele><time>2026-05-01T19:17:01Z</time></trkpt><trkpt lat="47.10278174666533" lon="14.455930523961806"><ele>979.0</ele><time>2026-05-01T19:17:02Z</time></trkpt><trkpt lat="47.102596169584196" lon="14.45591216813494"><ele>978.0</ele><time>2026-05-01T19:17:03Z</time></trkpt><trkpt lat="47.102416469987844" lon="14.455885651516722"><ele>976.3333333333333</ele><time>2026-05-01T19:17:04Z</time></trkpt><trkpt lat="47.102238064755554" lon="14.455849688758466"><ele>974.6666666666666</ele><time>2026-05-01T19:17:05Z</time></trkpt><trkpt lat="47.102056495433544" lon="14.455795741386316"><ele>973.0</ele><time>2026-05-01T19:17:06Z</time></trkpt><trkpt lat="47.101874891692084" lon="14.455717265365418"><ele>973.0</ele><time>2026-05-01T19:17:07Z</time></trkpt><trkpt lat="47.101691327414976" lon="14.45561963590482"><ele>973.0</ele><time>2026-05-01T19:17:08Z</time></trkpt><trkpt lat="47.1015080968023" lon="14.45550156434275"><ele>973.0</ele><time>2026-05-01T19:17:09Z</time></trkpt><trkpt lat="47.10132796796068" lon="14.455361480577048"><ele>972.0</ele><time>2026-05-01T19:17:10Z</time></trkpt><trkpt lat="47.10115045543546" lon="14.455204110062326"><ele>971.0</ele><time>2026-05-01T19:17:11Z</time></trkpt><trkpt lat="47.10097205547565" lon="14.45503924674488"><ele>970.0</ele><time>2026-05-01T19:17:12Z</time></trkpt><trkpt lat="47.1007896344658" lon="14.454867621712733"><ele>968.6666666666666</ele><time>2026-05-01T19:17:13Z</time></trkpt><trkpt lat="47.1006070035877" lon="14.454693144164937"><ele>967.3333333333333</ele><time>2026-05-01T19:17:14Z</time></trkpt><trkpt lat="47.10042236494017" lon="14.454517057561494"><ele>966.0</ele><time>2026-05-01T19:17:15Z</time></trkpt><trkpt lat="47.1002366945868" lon="14.454339849133378"><ele>965.6666666666667</ele><time>2026-05-01T19:17:16Z</time></trkpt><trkpt lat="47.100053129389444" lon="14.454169607444216"><ele>965.3333333333334</ele><time>2026-05-01T19:17:17Z</time></trkpt><trkpt lat="47.09986610491444" lon="14.45399977672968"><ele>965.0</ele><time>2026-05-01T19:17:18Z</time></trkpt><trkpt lat="47.09967654283881" lon="14.453826988721305"><ele>964.0</ele><time>2026-05-01T19:17:19Z</time></trkpt><trkpt lat="47.09948589248547" lon="14.453656850115475"><ele>963.0</ele><time>2026-05-01T19:17:20Z</time></trkpt><trkpt lat="47.09929628681891" lon="14.453484863435554"><ele>962.0</ele><time>2026-05-01T19:17:21Z</time></trkpt><trkpt lat="47.099109748996604" lon="14.453311689939463"><ele>961.6666666666667</ele><time>2026-05-01T19:17:22Z</time></trkpt><trkpt lat="47.09893426985408" lon="14.453141250492274"><ele>961.3333333333333</ele><time>2026-05-01T19:17:23Z</time></trkpt><trkpt lat="47.09876955827436" lon="14.452962236671867"><ele>961.0</ele><time>2026-05-01T19:17:24Z</time></trkpt><trkpt lat="47.098609907938965" lon="14.452767805952574"><ele>960.6666666666666</ele><time>2026-05-01T19:17:25Z</time></trkpt><trkpt lat="47.09845632342143" lon="14.452558625113948"><ele>960.3333333333333</ele><time>2026-05-01T19:17:26Z</time></trkpt><trkpt lat="47.098305309270536" lon="14.452339038376408"><ele>960.0</ele><time>2026-05-01T19:17:27Z</time></trkpt><trkpt lat="47.098153281067155" lon="14.452115109384653"><ele>960.0</ele><time>2026-05-01T19:17:28Z</time></trkpt><trkpt lat="47.09800143621364" lon="14.451886521049556"><ele>960.0</ele><time>2026-05-01T19:17:29Z</time></trkpt><trkpt lat="47.09784846795508" lon="14.451657737789992"><ele>960.0</ele><time>2026-05-01T19:17:30Z</time></trkpt><trkpt lat="47.097694800509956" lon="14.451429674962323"><ele>959.6666666666667</ele><time>2026-05-01T19:17:31Z</time></trkpt><trkpt lat="47.09754309510523" lon="14.451204474793865"><ele>959.3333333333334</ele><time>2026-05-01T19:17:32Z</time></trkpt><trkpt lat="47.097395362425104" lon="14.450977552503955"><ele>959.0</ele><time>2026-05-01T19:17:33Z</time></trkpt><trkpt lat="47.09725124654817" lon="14.45075416797056"><ele>959.0</ele><time>2026-05-01T19:17:34Z</time></trkpt><trkpt lat="47.097110119054776" lon="14.450540819113087"><ele>959.0</ele><time>2026-05-01T19:17:35Z</time></trkpt><trkpt lat="47.096961071038486" lon="14.450340745986598"><ele>959.0</ele><time>2026-05-01T19:17:36Z</time></trkpt><trkpt lat="47.096801161416586" lon="14.450155774793"><ele>957.3333333333334</ele><time>2026-05-01T19:17:37.001Z</time></trkpt><trkpt lat="47.096634097352904" lon="14.449980376426142"><ele>955.6666666666667</ele><time>2026-05-01T19:17:38.001Z</time></trkpt><trkpt lat="47.09645835273207" lon="14.449824500991008"><ele>954.0</ele><time>2026-05-01T19:17:39.001Z</time></trkpt><trkpt lat="47.09627426206193" lon="14.449684951685576"><ele>953.3333333333333</ele><time>2026-05-01T19:17:40.001Z</time></trkpt><trkpt lat="47.096101267462316" lon="14.449522599834596"><ele>952.6666666666666</ele><time>2026-05-01T19:17:41.001Z</time></trkpt><trkpt lat="47.09592535901762" lon="14.449367023449918"><ele>952.0</ele><time>2026-05-01T19:17:42.001Z</time></trkpt><trkpt lat="47.095684868445346" lon="14.44937101111527"><ele>952.0</ele><time>2026-05-01T19:17:43.001Z</time></trkpt><trkpt lat="47.095483905307674" lon="14.449298562857303"><ele>952.0</ele><time>2026-05-01T19:17:44.001Z</time></trkpt><trkpt lat="47.09529124521277" lon="14.449228739444361"><ele>952.0</ele><time>2026-05-01T19:17:45.001Z</time></trkpt><trkpt lat="47.095113794440316" lon="14.449135073969012"><ele>952.0</ele><time>2026-05-01T19:17:46.001Z</time></trkpt><trkpt lat="47.094956560858535" lon="14.449007060848336"><ele>952.0</ele><time>2026-05-01T19:17:47.001Z</time></trkpt><trkpt lat="47.0948254475052" lon="14.448842005512907"><ele>952.0</ele><time>2026-05-01T19:17:48.001Z</time></trkpt><trkpt lat="47.09471326987801" lon="14.448639951098025"><ele>951.6666666666666</ele><time>2026-05-01T19:17:49.001Z</time></trkpt><trkpt lat="47.09461794344369" lon="14.448411232557824"><ele>951.3333333333333</ele><time>2026-05-01T19:17:50.001Z</time></trkpt><trkpt lat="47.09453927518573" lon="14.44815682154533"><ele>951.0</ele><time>2026-05-01T19:17:51.001Z</time></trkpt><trkpt lat="47.094465015222184" lon="14.447889726417769"><ele>951.0</ele><time>2026-05-01T19:17:52.001Z</time></trkpt><trkpt lat="47.09438704667084" lon="14.447611051552668"><ele>951.0</ele><time>2026-05-01T19:17:53.001Z</time></trkpt><trkpt lat="47.094304573712925" lon="14.447327034036876"><ele>951.0</ele><time>2026-05-01T19:17:54.001Z</time></trkpt><trkpt lat="47.094219669371334" lon="14.447031391690969"><ele>950.6666666666667</ele><time>2026-05-01T19:17:55.001Z</time></trkpt><trkpt lat="47.09413359207072" lon="14.446729275988597"><ele>950.3333333333334</ele><time>2026-05-01T19:17:56.001Z</time></trkpt><trkpt lat="47.09405174671992" lon="14.446430408235342"><ele>950.0</ele><time>2026-05-01T19:17:57.001Z</time></trkpt><trkpt lat="47.09397314909938" lon="14.446130298606384"><ele>959.0</ele><time>2026-05-01T19:17:58.001Z</time></trkpt><trkpt lat="47.09389294579162" lon="14.445820907953587"><ele>968.0</ele><time>2026-05-01T19:17:59.001Z</time></trkpt><trkpt lat="47.093808993047965" lon="14.445514005413656"><ele>964.0</ele><time>2026-05-01T19:18:00.001Z</time></trkpt><trkpt lat="47.09372256998251" lon="14.44520522764584"><ele>960.0</ele><time>2026-05-01T19:18:01.001Z</time></trkpt><trkpt lat="47.09363849423897" lon="14.444895587028276"><ele>956.0</ele><time>2026-05-01T19:18:02.001Z</time></trkpt><trkpt lat="47.09355501506367" lon="14.444583054242312"><ele>952.0</ele><time>2026-05-01T19:18:03.001Z</time></trkpt><trkpt lat="47.09347029711121" lon="14.444270345197806"><ele>952.0</ele><time>2026-05-01T19:18:04.001Z</time></trkpt><trkpt lat="47.093384652825954" lon="14.443956290368028"><ele>952.0</ele><time>2026-05-01T19:18:05.001Z</time></trkpt><trkpt lat="47.093299921892104" lon="14.443643330331797"><ele>952.0</ele><time>2026-05-01T19:18:06.001Z</time></trkpt><trkpt lat="47.09321801699175" lon="14.443331982695913"><ele>952.0</ele><time>2026-05-01T19:18:07.001Z</time></trkpt><trkpt lat="47.093136494849375" lon="14.443026331003079"><ele>950.0</ele><time>2026-05-01T19:18:08.001Z</time></trkpt><trkpt lat="47.093053431576315" lon="14.442745846284257"><ele>948.0</ele><time>2026-05-01T19:18:09.001Z</time></trkpt><trkpt lat="47.09296411872477" lon="14.442478578544872"><ele>946.0</ele><time>2026-05-01T19:18:10.001Z</time></trkpt><trkpt lat="47.092860973801436" lon="14.442219503787042"><ele>944.6666666666666</ele><time>2026-05-01T19:18:11.001Z</time></trkpt><trkpt lat="47.092745252857306" lon="14.441972317604437"><ele>943.3333333333333</ele><time>2026-05-01T19:18:12.001Z</time></trkpt><trkpt lat="47.09261937667656" lon="14.441731635533555"><ele>942.0</ele><time>2026-05-01T19:18:13.001Z</time></trkpt><trkpt lat="47.09248266434574" lon="14.441496970850412"><ele>940.6666666666667</ele><time>2026-05-01T19:18:14.001Z</time></trkpt><trkpt lat="47.092337451350566" lon="14.441266740170917"><ele>939.3333333333334</ele><time>2026-05-01T19:18:15.001Z</time></trkpt><trkpt lat="47.09218744908561" lon="14.44103585111115"><ele>938.0</ele><time>2026-05-01T19:18:16.001Z</time></trkpt><trkpt lat="47.092033656540515" lon="14.440803095062412"><ele>938.0</ele><time>2026-05-01T19:18:17.001Z</time></trkpt><trkpt lat="47.091873205060665" lon="14.440574914365401"><ele>938.0</ele><time>2026-05-01T19:18:18.001Z</time></trkpt><trkpt lat="47.09170646070337" lon="14.440357379025583"><ele>938.0</ele><time>2026-05-01T19:18:19.001Z</time></trkpt><trkpt lat="47.09153342621982" lon="14.440145219503268"><ele>939.5</ele><time>2026-05-01T19:18:20.001Z</time></trkpt><trkpt lat="47.09136119147421" lon="14.439931363785686"><ele>941.0</ele><time>2026-05-01T19:18:21.001Z</time></trkpt><trkpt lat="47.09119093335906" lon="14.439716519067353"><ele>941.3333333333334</ele><time>2026-05-01T19:18:22.001Z</time></trkpt><trkpt lat="47.09102393871283" lon="14.439497762475453"><ele>941.6666666666667</ele><time>2026-05-01T19:18:23.001Z</time></trkpt><trkpt lat="47.09087218619399" lon="14.439281861846743"><ele>942.0</ele><time>2026-05-01T19:18:24.001Z</time></trkpt><trkpt lat="47.09073970275002" lon="14.43906115980283"><ele>943.0</ele><time>2026-05-01T19:18:25.001Z</time></trkpt><trkpt lat="47.09063439033795" lon="14.438832138267278"><ele>944.0</ele><time>2026-05-01T19:18:26.001Z</time></trkpt><trkpt lat="47.090540852542496" lon="14.438584079058762"><ele>945.0</ele><time>2026-05-01T19:18:27.001Z</time></trkpt><trkpt lat="47.090472590682054" lon="14.43832230831519"><ele>945.0</ele><time>2026-05-01T19:18:28.001Z</time></trkpt><trkpt lat="47.090426925664126" lon="14.43804969094797"><ele>945.0</ele><time>2026-05-01T19:18:29.001Z</time></trkpt><trkpt lat="47.09040159927411" lon="14.437769104167193"><ele>945.0</ele><time>2026-05-01T19:18:30.001Z</time></trkpt><trkpt lat="47.0903982223632" lon="14.437490761945353"><ele>945.3333333333333</ele><time>2026-05-01T19:18:31Z</time></trkpt><trkpt lat="47.09041887471652" lon="14.437212003477846"><ele>945.6666666666666</ele><time>2026-05-01T19:18:32Z</time></trkpt><trkpt lat="47.090460975099454" lon="14.436936848996861"><ele>946.0</ele><time>2026-05-01T19:18:33Z</time></trkpt><trkpt lat="47.090524736856096" lon="14.43665897963398"><ele>946.3333333333333</ele><time>2026-05-01T19:18:34Z</time></trkpt><trkpt lat="47.0905975023604" lon="14.436379726063683"><ele>946.6666666666667</ele><time>2026-05-01T19:18:35Z</time></trkpt><trkpt lat="47.09067153486501" lon="14.436097147986393"><ele>947.0</ele><time>2026-05-01T19:18:36Z</time></trkpt><trkpt lat="47.09075405562668" lon="14.43581130028721"><ele>943.3333333333334</ele><time>2026-05-01T19:18:37Z</time></trkpt><trkpt lat="47.09084167210693" lon="14.435535336523177"><ele>939.6666666666667</ele><time>2026-05-01T19:18:38Z</time></trkpt><trkpt lat="47.09093942589509" lon="14.435268454762483"><ele>936.0</ele><time>2026-05-01T19:18:39Z</time></trkpt><trkpt lat="47.091048801317974" lon="14.43501526016406"><ele>936.0</ele><time>2026-05-01T19:18:40Z</time></trkpt><trkpt lat="47.09116143536811" lon="14.434775749540037"><ele>936.0</ele><time>2026-05-01T19:18:41Z</time></trkpt><trkpt lat="47.09126908953051" lon="14.43454514283118"><ele>936.0</ele><time>2026-05-01T19:18:42Z</time></trkpt><trkpt lat="47.09136659147398" lon="14.434311933634225"><ele>936.3333333333333</ele><time>2026-05-01T19:18:43Z</time></trkpt><trkpt lat="47.09143134076652" lon="14.434077031151887"><ele>936.6666666666666</ele><time>2026-05-01T19:18:44Z</time></trkpt><trkpt lat="47.091469747728254" lon="14.433846092622924"><ele>937.0</ele><time>2026-05-01T19:18:45Z</time></trkpt><trkpt lat="47.091479359822024" lon="14.43361529157805"><ele>937.0</ele><time>2026-05-01T19:18:46Z</time></trkpt><trkpt lat="47.09145467992872" lon="14.433383052737083"><ele>937.0</ele><time>2026-05-01T19:18:47Z</time></trkpt><trkpt lat="47.091405565740324" lon="14.433158962279318"><ele>937.0</ele><time>2026-05-01T19:18:48Z</time></trkpt><trkpt lat="47.09132820606228" lon="14.4329516704933"><ele>933.0</ele><time>2026-05-01T19:18:49Z</time></trkpt><trkpt lat="47.09122500068727" lon="14.432769933061325"><ele>929.0</ele><time>2026-05-01T19:18:50Z</time></trkpt><trkpt lat="47.091106319753905" lon="14.432614626971155"><ele>925.0</ele><time>2026-05-01T19:18:51Z</time></trkpt><trkpt lat="47.090966784871895" lon="14.432472790275183"><ele>925.0</ele><time>2026-05-01T19:18:52Z</time></trkpt><trkpt lat="47.090824744084316" lon="14.43232671072945"><ele>925.0</ele><time>2026-05-01T19:18:53Z</time></trkpt><trkpt lat="47.090684078546076" lon="14.432181967480254"><ele>925.0</ele><time>2026-05-01T19:18:54Z</time></trkpt><trkpt lat="47.09053753289983" lon="14.432028316838423"><ele>924.6666666666666</ele><time>2026-05-01T19:18:55Z</time></trkpt><trkpt lat="47.09038593723019" lon="14.43187066344982"><ele>924.3333333333333</ele><time>2026-05-01T19:18:56Z</time></trkpt><trkpt lat="47.09022855457736" lon="14.431720595372376"><ele>924.0</ele><time>2026-05-01T19:18:57Z</time></trkpt><trkpt lat="47.090061367579004" lon="14.431577510912852"><ele>924.6666666666667</ele><time>2026-05-01T19:18:58Z</time></trkpt><trkpt lat="47.089890859691295" lon="14.431436978995427"><ele>925.3333333333334</ele><time>2026-05-01T19:18:59Z</time></trkpt><trkpt lat="47.089723149635205" lon="14.431302998253111"><ele>926.0</ele><time>2026-05-01T19:19:00Z</time></trkpt><trkpt lat="47.08956448835155" lon="14.431172458031472"><ele>926.0</ele><time>2026-05-01T19:19:01Z</time></trkpt><trkpt lat="47.089421266006525" lon="14.431036453944403"><ele>926.0</ele><time>2026-05-01T19:19:02Z</time></trkpt><trkpt lat="47.08929354929721" lon="14.430880980827435"><ele>926.0</ele><time>2026-05-01T19:19:03Z</time></trkpt><trkpt lat="47.08917137838834" lon="14.43070241519844"><ele>927.3333333333334</ele><time>2026-05-01T19:19:04Z</time></trkpt><trkpt lat="47.08905525388176" lon="14.430505847406552"><ele>928.6666666666667</ele><time>2026-05-01T19:19:05Z</time></trkpt><trkpt lat="47.088939871803845" lon="14.430301282583091"><ele>930.0</ele><time>2026-05-01T19:19:06Z</time></trkpt><trkpt lat="47.08882284036768" lon="14.430098981545674"><ele>926.3333333333333</ele><time>2026-05-01T19:19:07Z</time></trkpt><trkpt lat="47.08870701943196" lon="14.429894037190563"><ele>922.6666666666666</ele><time>2026-05-01T19:19:08Z</time></trkpt><trkpt lat="47.088593971195024" lon="14.429692647646982"><ele>919.0</ele><time>2026-05-01T19:19:09Z</time></trkpt><trkpt lat="47.088486069751795" lon="14.429503071843765"><ele>917.6666666666666</ele><time>2026-05-01T19:19:10Z</time></trkpt><trkpt lat="47.08837988622684" lon="14.429321209642971"><ele>916.3333333333333</ele><time>2026-05-01T19:19:11Z</time></trkpt><trkpt lat="47.088271781839396" lon="14.429149145436886"><ele>915.0</ele><time>2026-05-01T19:19:12Z</time></trkpt><trkpt lat="47.088158269539115" lon="14.428997190168952"><ele>914.6666666666667</ele><time>2026-05-01T19:19:13Z</time></trkpt><trkpt lat="47.08803425931289" lon="14.428868123424788"><ele>914.3333333333334</ele><time>2026-05-01T19:19:14Z</time></trkpt><trkpt lat="47.08790076148088" lon="14.42876340501701"><ele>914.0</ele><time>2026-05-01T19:19:15Z</time></trkpt><trkpt lat="47.087755767827204" lon="14.428689919675815"><ele>914.0</ele><time>2026-05-01T19:19:16Z</time></trkpt><trkpt lat="47.087606482847086" lon="14.428644905092577"><ele>914.0</ele><time>2026-05-01T19:19:17Z</time></trkpt><trkpt lat="47.087450349462905" lon="14.428627619323168"><ele>914.0</ele><time>2026-05-01T19:19:18Z</time></trkpt><trkpt lat="47.08729402883254" lon="14.428648971789267"><ele>914.0</ele><time>2026-05-01T19:19:19Z</time></trkpt><trkpt lat="47.08713860463311" lon="14.42869509688755"><ele>914.0</ele><time>2026-05-01T19:19:20Z</time></trkpt><trkpt lat="47.08698016403533" lon="14.428760465831592"><ele>914.0</ele><time>2026-05-01T19:19:21Z</time></trkpt><trkpt lat="47.08681728101936" lon="14.42882738262405"><ele>913.6666666666667</ele><time>2026-05-01T19:19:22Z</time></trkpt><trkpt lat="47.086653793239044" lon="14.42889632120042"><ele>913.3333333333333</ele><time>2026-05-01T19:19:23Z</time></trkpt><trkpt lat="47.08649099569551" lon="14.428965126374065"><ele>913.0</ele><time>2026-05-01T19:19:24Z</time></trkpt><trkpt lat="47.086334620374934" lon="14.429031846621752"><ele>912.0</ele><time>2026-05-01T19:19:25Z</time></trkpt><trkpt lat="47.08618327975356" lon="14.429098023776051"><ele>911.0</ele><time>2026-05-01T19:19:26Z</time></trkpt><trkpt lat="47.086033099424654" lon="14.429162608747369"><ele>910.0</ele><time>2026-05-01T19:19:27Z</time></trkpt><trkpt lat="47.085878421875705" lon="14.429223060267708"><ele>908.6666666666666</ele><time>2026-05-01T19:19:28Z</time></trkpt><trkpt lat="47.08572544235778" lon="14.429274558743128"><ele>907.3333333333333</ele><time>2026-05-01T19:19:29Z</time></trkpt><trkpt lat="47.08556728147476" lon="14.429316251650427"><ele>906.0</ele><time>2026-05-01T19:19:30Z</time></trkpt><trkpt lat="47.08540727311885" lon="14.429349771524212"><ele>906.0</ele><time>2026-05-01T19:19:31Z</time></trkpt><trkpt lat="47.0852455902596" lon="14.42937981846487"><ele>906.0</ele><time>2026-05-01T19:19:32Z</time></trkpt><trkpt lat="47.08508247966476" lon="14.429407414273928"><ele>906.0</ele><time>2026-05-01T19:19:33Z</time></trkpt><trkpt lat="47.084922240406364" lon="14.429433624523393"><ele>904.0</ele><time>2026-05-01T19:19:34Z</time></trkpt><trkpt lat="47.084763757077745" lon="14.42945942624639"><ele>902.0</ele><time>2026-05-01T19:19:35Z</time></trkpt><trkpt lat="47.08460747131122" lon="14.429479813612454"><ele>900.0</ele><time>2026-05-01T19:19:36Z</time></trkpt><trkpt lat="47.084457673681555" lon="14.429489379774598"><ele>900.0</ele><time>2026-05-01T19:19:37Z</time></trkpt><trkpt lat="47.084315318295396" lon="14.429473774224338"><ele>900.0</ele><time>2026-05-01T19:19:38Z</time></trkpt><trkpt lat="47.08417604750842" lon="14.429430018896332"><ele>900.0</ele><time>2026-05-01T19:19:39Z</time></trkpt><trkpt lat="47.08403636374266" lon="14.429357909035359"><ele>900.0</ele><time>2026-05-01T19:19:40Z</time></trkpt><trkpt lat="47.08389654753349" lon="14.429262490288892"><ele>901.6666666666667</ele><time>2026-05-01T19:19:41Z</time></trkpt><trkpt lat="47.08375583649713" lon="14.429151507022198"><ele>903.3333333333334</ele><time>2026-05-01T19:19:42Z</time></trkpt><trkpt lat="47.083610743596516" lon="14.429034568168438"><ele>905.0</ele><time>2026-05-01T19:19:43Z</time></trkpt><trkpt lat="47.083467133843826" lon="14.428919727532618"><ele>905.0</ele><time>2026-05-01T19:19:44Z</time></trkpt><trkpt lat="47.083316933917914" lon="14.428811271040406"><ele>905.0</ele><time>2026-05-01T19:19:45.001Z</time></trkpt><trkpt lat="47.08316115304819" lon="14.42871797192247"><ele>905.0</ele><time>2026-05-01T19:19:46.001Z</time></trkpt><trkpt lat="47.08300264039513" lon="14.428633645532084"><ele>900.6666666666667</ele><time>2026-05-01T19:19:47.001Z</time></trkpt><trkpt lat="47.08284721255902" lon="14.428548507012826"><ele>896.3333333333333</ele><time>2026-05-01T19:19:48.001Z</time></trkpt><trkpt lat="47.08269960186724" lon="14.428449631424137"><ele>892.0</ele><time>2026-05-01T19:19:49.001Z</time></trkpt><trkpt lat="47.08256414307185" lon="14.428331704089695"><ele>892.0</ele><time>2026-05-01T19:19:50.001Z</time></trkpt><trkpt lat="47.0824482271183" lon="14.428187285836264"><ele>892.0</ele><time>2026-05-01T19:19:51.001Z</time></trkpt><trkpt lat="47.082353922096985" lon="14.42801129064571"><ele>892.0</ele><time>2026-05-01T19:19:52.001Z</time></trkpt><trkpt lat="47.082267743507224" lon="14.427824101546596"><ele>890.0</ele><time>2026-05-01T19:19:53.001Z</time></trkpt><trkpt lat="47.082193118591704" lon="14.427641376776052"><ele>888.0</ele><time>2026-05-01T19:19:54.001Z</time></trkpt><trkpt lat="47.08211876406411" lon="14.427461851324251"><ele>886.0</ele><time>2026-05-01T19:19:55.001Z</time></trkpt><trkpt lat="47.08204114712483" lon="14.427299195450454"><ele>884.0</ele><time>2026-05-01T19:19:56.001Z</time></trkpt><trkpt lat="47.08195662256019" lon="14.427154682213228"><ele>879.0</ele><time>2026-05-01T19:19:57.001Z</time></trkpt><trkpt lat="47.0818633880195" lon="14.427024832978077"><ele>874.0</ele><time>2026-05-01T19:19:58.001Z</time></trkpt><trkpt lat="47.08176441251721" lon="14.426908914302505"><ele>869.0</ele><time>2026-05-01T19:19:59.001Z</time></trkpt><trkpt lat="47.08166087602386" lon="14.42680479268984"><ele>864.0</ele><time>2026-05-01T19:20:00.001Z</time></trkpt><trkpt lat="47.081558945387734" lon="14.42669936695957"><ele>864.0</ele><time>2026-05-01T19:20:01.001Z</time></trkpt><trkpt lat="47.08145557214529" lon="14.426590673526077"><ele>864.0</ele><time>2026-05-01T19:20:02.001Z</time></trkpt><trkpt lat="47.081352571257604" lon="14.42648273563966"><ele>864.0</ele><time>2026-05-01T19:20:03.001Z</time></trkpt><trkpt lat="47.08125013913691" lon="14.42637305334001"><ele>864.0</ele><time>2026-05-01T19:20:04.001Z</time></trkpt><trkpt lat="47.08114714509933" lon="14.426261959314887"><ele>862.5</ele><time>2026-05-01T19:20:05.001Z</time></trkpt><trkpt lat="47.081043590418545" lon="14.426155905292871"><ele>861.0</ele><time>2026-05-01T19:20:06.001Z</time></trkpt><trkpt lat="47.08094555124192" lon="14.42606331530692"><ele>859.5</ele><time>2026-05-01T19:20:07.001Z</time></trkpt><trkpt lat="47.08085035872872" lon="14.425982924271263"><ele>858.0</ele><time>2026-05-01T19:20:08.001Z</time></trkpt><trkpt lat="47.08075106236546" lon="14.425912452014597"><ele>856.5999999999999</ele><time>2026-05-01T19:20:09.001Z</time></trkpt><trkpt lat="47.080649380687575" lon="14.425852504896008"><ele>855.1999999999999</ele><time>2026-05-01T19:20:10.001Z</time></trkpt><trkpt lat="47.080547526269605" lon="14.425795512826317"><ele>853.8</ele><time>2026-05-01T19:20:11.001Z</time></trkpt><trkpt lat="47.08044460297243" lon="14.425738184583222"><ele>852.4</ele><time>2026-05-01T19:20:12.001Z</time></trkpt><trkpt lat="47.080339790576" lon="14.425679207480428"><ele>851.0</ele><time>2026-05-01T19:20:13.001Z</time></trkpt><trkpt lat="47.08023395722123" lon="14.425617335195012"><ele>851.0</ele><time>2026-05-01T19:20:14.001Z</time></trkpt><trkpt lat="47.080128542920235" lon="14.425554547377468"><ele>851.0</ele><time>2026-05-01T19:20:15.001Z</time></trkpt><trkpt lat="47.08002310544838" lon="14.425488288890056"><ele>851.0</ele><time>2026-05-01T19:20:16.001Z</time></trkpt><trkpt lat="47.079918401513076" lon="14.425419844990541"><ele>851.0</ele><time>2026-05-01T19:20:17.001Z</time></trkpt><trkpt lat="47.07981344362379" lon="14.425347863211021"><ele>850.0</ele><time>2026-05-01T19:20:18.001Z</time></trkpt><trkpt lat="47.079709410051684" lon="14.42527479891524"><ele>849.0</ele><time>2026-05-01T19:20:19.001Z</time></trkpt><trkpt lat="47.07960413552955" lon="14.425201074204226"><ele>848.0</ele><time>2026-05-01T19:20:20.001Z</time></trkpt><trkpt lat="47.07949814927898" lon="14.425130909683999"><ele>847.0</ele><time>2026-05-01T19:20:21.001Z</time></trkpt><trkpt lat="47.07939218863789" lon="14.42506235365777"><ele>847.0</ele><time>2026-05-01T19:20:22.001Z</time></trkpt><trkpt lat="47.07928589197052" lon="14.424991105562329"><ele>847.0</ele><time>2026-05-01T19:20:23.001Z</time></trkpt><trkpt lat="47.0791794969117" lon="14.424916988315166"><ele>847.0</ele><time>2026-05-01T19:20:24.001Z</time></trkpt><trkpt lat="47.07907458126873" lon="14.424842221080688"><ele>847.0</ele><time>2026-05-01T19:20:25.001Z</time></trkpt><trkpt lat="47.07896834406065" lon="14.424766899886345"><ele>846.25</ele><time>2026-05-01T19:20:26.001Z</time></trkpt><trkpt lat="47.078863597343975" lon="14.424690156565198"><ele>845.5</ele><time>2026-05-01T19:20:27.001Z</time></trkpt><trkpt lat="47.07875887566229" lon="14.424611706815876"><ele>844.75</ele><time>2026-05-01T19:20:28.001Z</time></trkpt><trkpt lat="47.07865510662971" lon="14.424536196821805"><ele>844.0</ele><time>2026-05-01T19:20:29.001Z</time></trkpt><trkpt lat="47.078551277443296" lon="14.424462141573034"><ele>844.0</ele><time>2026-05-01T19:20:30.001Z</time></trkpt><trkpt lat="47.07844862554935" lon="14.4243884167674"><ele>844.0</ele><time>2026-05-01T19:20:31.001Z</time></trkpt><trkpt lat="47.07834927979402" lon="14.424318191978564"><ele>844.0</ele><time>2026-05-01T19:20:32.001Z</time></trkpt><trkpt lat="47.07825370812451" lon="14.42425209980255"><ele>844.0</ele><time>2026-05-01T19:20:33.001Z</time></trkpt><trkpt lat="47.07815833171178" lon="14.42419523604151"><ele>844.0</ele><time>2026-05-01T19:20:34.001Z</time></trkpt><trkpt lat="47.078057992767555" lon="14.424152594314407"><ele>844.0</ele><time>2026-05-01T19:20:35.001Z</time></trkpt><trkpt lat="47.0779530456986" lon="14.424128151170184"><ele>844.0</ele><time>2026-05-01T19:20:36.001Z</time></trkpt><trkpt lat="47.077845389125585" lon="14.42412238250473"><ele>844.0</ele><time>2026-05-01T19:20:37Z</time></trkpt><trkpt lat="47.07773527867489" lon="14.424136808353328"><ele>844.0</ele><time>2026-05-01T19:20:38Z</time></trkpt><trkpt lat="47.07762318169398" lon="14.424169389649263"><ele>844.0</ele><time>2026-05-01T19:20:39Z</time></trkpt><trkpt lat="47.077508780621365" lon="14.424213704775488"><ele>845.0</ele><time>2026-05-01T19:20:40Z</time></trkpt><trkpt lat="47.077397186182424" lon="14.424261877540983"><ele>846.0</ele><time>2026-05-01T19:20:41Z</time></trkpt><trkpt lat="47.077288399397204" lon="14.424309703016919"><ele>847.0</ele><time>2026-05-01T19:20:42Z</time></trkpt><trkpt lat="47.0771800380429" lon="14.424359804388999"><ele>848.0</ele><time>2026-05-01T19:20:43Z</time></trkpt><trkpt lat="47.077071850594635" lon="14.42441114839302"><ele>848.0</ele><time>2026-05-01T19:20:44Z</time></trkpt><trkpt lat="47.07696143400537" lon="14.424462179493771"><ele>848.0</ele><time>2026-05-01T19:20:45Z</time></trkpt><trkpt lat="47.07684981930017" lon="14.4245126546914"><ele>848.0</ele><time>2026-05-01T19:20:46Z</time></trkpt><trkpt lat="47.076736299596654" lon="14.424565421119828"><ele>848.0</ele><time>2026-05-01T19:20:47Z</time></trkpt><trkpt lat="47.07662244916934" lon="14.424618885239147"><ele>846.75</ele><time>2026-05-01T19:20:48Z</time></trkpt><trkpt lat="47.07650722153234" lon="14.424674473182511"><ele>845.5</ele><time>2026-05-01T19:20:49Z</time></trkpt><trkpt lat="47.076393870887884" lon="14.42472782306508"><ele>844.25</ele><time>2026-05-01T19:20:50Z</time></trkpt><trkpt lat="47.076278676387346" lon="14.42477970536005"><ele>843.0</ele><time>2026-05-01T19:20:51Z</time></trkpt><trkpt lat="47.07616461491636" lon="14.42483119422002"><ele>843.0</ele><time>2026-05-01T19:20:52Z</time></trkpt><trkpt lat="47.076054345636386" lon="14.424881582251185"><ele>843.0</ele><time>2026-05-01T19:20:53Z</time></trkpt><trkpt lat="47.07594683926656" lon="14.424931799567647"><ele>843.0</ele><time>2026-05-01T19:20:54Z</time></trkpt><trkpt lat="47.075843405186134" lon="14.424980268871815"><ele>843.0</ele><time>2026-05-01T19:20:55Z</time></trkpt><trkpt lat="47.07574491365001" lon="14.425028181217575"><ele>843.0</ele><time>2026-05-01T19:20:56Z</time></trkpt><trkpt lat="47.075647399752434" lon="14.425074941543269"><ele>843.0</ele><time>2026-05-01T19:20:57Z</time></trkpt><trkpt lat="47.07555458185094" lon="14.425118281566322"><ele>843.0</ele><time>2026-05-01T19:20:58Z</time></trkpt><trkpt lat="47.07547139947198" lon="14.425156939077556"><ele>843.0</ele><time>2026-05-01T19:20:59Z</time></trkpt><trkpt lat="47.07539271239882" lon="14.425191923781972"><ele>843.0</ele><time>2026-05-01T19:21:00Z</time></trkpt><trkpt lat="47.0753145161784" lon="14.425226096013343"><ele>843.0</ele><time>2026-05-01T19:21:01Z</time></trkpt><trkpt lat="47.075237412537035" lon="14.425261520859804"><ele>843.0</ele><time>2026-05-01T19:21:02Z</time></trkpt><trkpt lat="47.07516112884496" lon="14.425297305192336"><ele>843.0</ele><time>2026-05-01T19:21:03Z</time></trkpt><trkpt lat="47.075083340104236" lon="14.425333327860116"><ele>843.0</ele><time>2026-05-01T19:21:04Z</time></trkpt><trkpt lat="47.07500244904181" lon="14.425370691889974"><ele>843.0</ele><time>2026-05-01T19:21:05Z</time></trkpt><trkpt lat="47.07492433663426" lon="14.42540672747142"><ele>843.0</ele><time>2026-05-01T19:21:06Z</time></trkpt><trkpt lat="47.074847189257696" lon="14.42544285018526"><ele>843.0</ele><time>2026-05-01T19:21:07Z</time></trkpt><trkpt lat="47.074771344791515" lon="14.42547908377354"><ele>843.0</ele><time>2026-05-01T19:21:08Z</time></trkpt><trkpt lat="47.07469595830455" lon="14.425515544888945"><ele>842.3333333333334</ele><time>2026-05-01T19:21:09Z</time></trkpt><trkpt lat="47.07462132040213" lon="14.42554749354921"><ele>841.6666666666667</ele><time>2026-05-01T19:21:10Z</time></trkpt><trkpt lat="47.07454355971691" lon="14.425578312186685"><ele>841.0</ele><time>2026-05-01T19:21:11Z</time></trkpt><trkpt lat="47.07446478238271" lon="14.425606703810468"><ele>840.3333333333334</ele><time>2026-05-01T19:21:12Z</time></trkpt><trkpt lat="47.07438704256956" lon="14.425633281673447"><ele>839.6666666666667</ele><time>2026-05-01T19:21:13Z</time></trkpt><trkpt lat="47.07430744885248" lon="14.425659497965334"><ele>839.0</ele><time>2026-05-01T19:21:14Z</time></trkpt><trkpt lat="47.07422934525282" lon="14.425686097454475"><ele>839.0000000000001</ele><time>2026-05-01T19:21:15Z</time></trkpt><trkpt lat="47.074150111697364" lon="14.425713203911847"><ele>839.0</ele><time>2026-05-01T19:21:16Z</time></trkpt><trkpt lat="47.07406969274887" lon="14.425741010004915"><ele>839.0</ele><time>2026-05-01T19:21:17Z</time></trkpt><trkpt lat="47.073988888773165" lon="14.425768369408031"><ele>839.0</ele><time>2026-05-01T19:21:18Z</time></trkpt><trkpt lat="47.073909777389886" lon="14.425795086188488"><ele>839.0000000000001</ele><time>2026-05-01T19:21:19Z</time></trkpt><trkpt lat="47.07383037403554" lon="14.425822832953907"><ele>839.0</ele><time>2026-05-01T19:21:20Z</time></trkpt><trkpt lat="47.0737535154678" lon="14.425850650169673"><ele>838.8333333333334</ele><time>2026-05-01T19:21:21Z</time></trkpt><trkpt lat="47.07367664439028" lon="14.425879953381862"><ele>838.6666666666667</ele><time>2026-05-01T19:21:22Z</time></trkpt><trkpt lat="47.07359824972912" lon="14.425911148004273"><ele>838.5</ele><time>2026-05-01T19:21:23Z</time></trkpt><trkpt lat="47.07351821891325" lon="14.42594305472179"><ele>838.3333333333333</ele><time>2026-05-01T19:21:24Z</time></trkpt><trkpt lat="47.073437069239844" lon="14.425976853946608"><ele>838.1666666666666</ele><time>2026-05-01T19:21:25Z</time></trkpt><trkpt lat="47.07335707592148" lon="14.426013437321698"><ele>838.0</ele><time>2026-05-01T19:21:26Z</time></trkpt><trkpt lat="47.07327548789104" lon="14.426051868715865"><ele>837.8333333333333</ele><time>2026-05-01T19:21:27Z</time></trkpt><trkpt lat="47.073195044256074" lon="14.42609004619562"><ele>837.6666666666666</ele><time>2026-05-01T19:21:28Z</time></trkpt><trkpt lat="47.07311393657502" lon="14.426131012699738"><ele>837.5</ele><time>2026-05-01T19:21:29Z</time></trkpt><trkpt lat="47.07303242313148" lon="14.426175134411226"><ele>837.3333333333333</ele><time>2026-05-01T19:21:30Z</time></trkpt><trkpt lat="47.07294939539093" lon="14.42621939951414"><ele>837.1666666666666</ele><time>2026-05-01T19:21:31Z</time></trkpt><trkpt lat="47.07286835849451" lon="14.426265297719837"><ele>837.0</ele><time>2026-05-01T19:21:32Z</time></trkpt><trkpt lat="47.0727871571619" lon="14.426313397657346"><ele>836.8333333333334</ele><time>2026-05-01T19:21:33Z</time></trkpt><trkpt lat="47.072706437102624" lon="14.42636266124726"><ele>836.6666666666667</ele><time>2026-05-01T19:21:34Z</time></trkpt><trkpt lat="47.07262984091855" lon="14.426408854536227"><ele>836.5</ele><time>2026-05-01T19:21:35Z</time></trkpt><trkpt lat="47.07255262649914" lon="14.426454943978905"><ele>836.3333333333334</ele><time>2026-05-01T19:21:36Z</time></trkpt><trkpt lat="47.07247519838226" lon="14.42650088710737"><ele>836.1666666666667</ele><time>2026-05-01T19:21:37Z</time></trkpt><trkpt lat="47.072399122461285" lon="14.426545073227432"><ele>836.0</ele><time>2026-05-01T19:21:38Z</time></trkpt><trkpt lat="47.072324632321546" lon="14.42658963307688"><ele>835.8333333333334</ele><time>2026-05-01T19:21:39Z</time></trkpt><trkpt lat="47.07225037928575" lon="14.426634343497973"><ele>835.6666666666667</ele><time>2026-05-01T19:21:40Z</time></trkpt><trkpt lat="47.07217467624199" lon="14.426677390949932"><ele>835.5</ele><time>2026-05-01T19:21:41Z</time></trkpt><trkpt lat="47.07209876367772" lon="14.426719644314687"><ele>835.3333333333333</ele><time>2026-05-01T19:21:42Z</time></trkpt><trkpt lat="47.072024775250874" lon="14.426761899598226"><ele>835.1666666666666</ele><time>2026-05-01T19:21:43Z</time></trkpt><trkpt lat="47.071951140940676" lon="14.426804817871886"><ele>835.0</ele><time>2026-05-01T19:21:44Z</time></trkpt><trkpt lat="47.071879954575195" lon="14.426846265595431"><ele>834.9999999999999</ele><time>2026-05-01T19:21:45Z</time></trkpt><trkpt lat="47.071808356637035" lon="14.426888664821815"><ele>835.0</ele><time>2026-05-01T19:21:46Z</time></trkpt><trkpt lat="47.07173797014229" lon="14.426931315423856"><ele>835.0</ele><time>2026-05-01T19:21:47Z</time></trkpt><trkpt lat="47.071668407680455" lon="14.426976364764405"><ele>835.0</ele><time>2026-05-01T19:21:48Z</time></trkpt><trkpt lat="47.07159984594606" lon="14.427020142363979"><ele>834.9999999999999</ele><time>2026-05-01T19:21:49Z</time></trkpt><trkpt lat="47.071530575941104" lon="14.427065483230681"><ele>835.0</ele><time>2026-05-01T19:21:50Z</time></trkpt><trkpt lat="47.071462409986246" lon="14.427109566863276"><ele>834.8333333333333</ele><time>2026-05-01T19:21:51Z</time></trkpt><trkpt lat="47.07139363358487" lon="14.427152852516475"><ele>834.6666666666666</ele><time>2026-05-01T19:21:52Z</time></trkpt><trkpt lat="47.0713249634457" lon="14.427198219307687"><ele>834.5</ele><time>2026-05-01T19:21:53Z</time></trkpt><trkpt lat="47.071256952615165" lon="14.42724663879804"><ele>834.3333333333333</ele><time>2026-05-01T19:21:54Z</time></trkpt><trkpt lat="47.071186326757086" lon="14.427295300052972"><ele>834.1666666666666</ele><time>2026-05-01T19:21:55Z</time></trkpt><trkpt lat="47.071115960922874" lon="14.427342518296946"><ele>834.0</ele><time>2026-05-01T19:21:56Z</time></trkpt><trkpt lat="47.071044192218615" lon="14.427388957035328"><ele>834.0</ele><time>2026-05-01T19:21:57Z</time></trkpt><trkpt lat="47.070972675297135" lon="14.427433405556664"><ele>834.0</ele><time>2026-05-01T19:21:58Z</time></trkpt><trkpt lat="47.070899683632824" lon="14.427477640568593"><ele>834.0</ele><time>2026-05-01T19:21:59Z</time></trkpt><trkpt lat="47.07082560724269" lon="14.427519512187502"><ele>834.0</ele><time>2026-05-01T19:22:00Z</time></trkpt><trkpt lat="47.07074992597142" lon="14.427558396388344"><ele>834.0</ele><time>2026-05-01T19:22:01.001Z</time></trkpt><trkpt lat="47.070669900769296" lon="14.427599152481797"><ele>834.0</ele><time>2026-05-01T19:22:02.001Z</time></trkpt><trkpt lat="47.070585009640276" lon="14.42764418111168"><ele>834.2</ele><time>2026-05-01T19:22:03.001Z</time></trkpt><trkpt lat="47.070493039680926" lon="14.427692858373328"><ele>834.4000000000001</ele><time>2026-05-01T19:22:04.001Z</time></trkpt><trkpt lat="47.07039437814088" lon="14.427742282685564"><ele>834.6</ele><time>2026-05-01T19:22:05.001Z</time></trkpt><trkpt lat="47.070290581009026" lon="14.427792739256496"><ele>834.8</ele><time>2026-05-01T19:22:06.001Z</time></trkpt><trkpt lat="47.07018156837385" lon="14.42784706995366"><ele>835.0</ele><time>2026-05-01T19:22:07.001Z</time></trkpt><trkpt lat="47.0700732689276" lon="14.427901367000288"><ele>835.0</ele><time>2026-05-01T19:22:08.001Z</time></trkpt><trkpt lat="47.069964991989124" lon="14.427955406900818"><ele>835.0</ele><time>2026-05-01T19:22:09.001Z</time></trkpt><trkpt lat="47.06984951945735" lon="14.428014140216037"><ele>835.0</ele><time>2026-05-01T19:22:10.001Z</time></trkpt><trkpt lat="47.06973409412369" lon="14.428077625935952"><ele>835.0</ele><time>2026-05-01T19:22:11.001Z</time></trkpt><trkpt lat="47.069621691990854" lon="14.428143501553128"><ele>834.0</ele><time>2026-05-01T19:22:12.001Z</time></trkpt><trkpt lat="47.06950799801236" lon="14.428217230383497"><ele>833.0</ele><time>2026-05-01T19:22:13.001Z</time></trkpt><trkpt lat="47.06939584438623" lon="14.428300503466176"><ele>832.0</ele><time>2026-05-01T19:22:14.001Z</time></trkpt><trkpt lat="47.06928491361744" lon="14.428393504647298"><ele>831.0</ele><time>2026-05-01T19:22:15.001Z</time></trkpt><trkpt lat="47.06917672632761" lon="14.428492245661763"><ele>830.75</ele><time>2026-05-01T19:22:16.001Z</time></trkpt><trkpt lat="47.06907286506697" lon="14.428594725578622"><ele>830.5</ele><time>2026-05-01T19:22:17.001Z</time></trkpt><trkpt lat="47.06897183360914" lon="14.428705369551867"><ele>830.25</ele><time>2026-05-01T19:22:18.001Z</time></trkpt><trkpt lat="47.06887113622184" lon="14.428819795630643"><ele>830.0</ele><time>2026-05-01T19:22:19.001Z</time></trkpt><trkpt lat="47.06877201140563" lon="14.428932872403962"><ele>829.25</ele><time>2026-05-01T19:22:20.001Z</time></trkpt><trkpt lat="47.06867267489308" lon="14.42904275567652"><ele>828.5</ele><time>2026-05-01T19:22:21.001Z</time></trkpt><trkpt lat="47.068575599318365" lon="14.429152487016271"><ele>827.75</ele><time>2026-05-01T19:22:22.001Z</time></trkpt><trkpt lat="47.06847804823526" lon="14.42926157653463"><ele>827.0</ele><time>2026-05-01T19:22:23.001Z</time></trkpt><trkpt lat="47.0683789556094" lon="14.429368855354824"><ele>827.0</ele><time>2026-05-01T19:22:24.001Z</time></trkpt><trkpt lat="47.068276523091846" lon="14.429467524819627"><ele>827.0</ele><time>2026-05-01T19:22:25.001Z</time></trkpt><trkpt lat="47.068171903907256" lon="14.429559599411606"><ele>827.0</ele><time>2026-05-01T19:22:26.001Z</time></trkpt><trkpt lat="47.068063922909474" lon="14.42964619707572"><ele>827.0</ele><time>2026-05-01T19:22:27.001Z</time></trkpt><trkpt lat="47.06795807806395" lon="14.429726306237065"><ele>826.5</ele><time>2026-05-01T19:22:28.001Z</time></trkpt><trkpt lat="47.067851304394836" lon="14.429797429726094"><ele>826.0</ele><time>2026-05-01T19:22:29.001Z</time></trkpt><trkpt lat="47.067743610372176" lon="14.42986316707939"><ele>825.5</ele><time>2026-05-01T19:22:30.001Z</time></trkpt><trkpt lat="47.06763425309502" lon="14.429923238727318"><ele>825.0</ele><time>2026-05-01T19:22:31.001Z</time></trkpt><trkpt lat="47.06752529196929" lon="14.429975140751061"><ele>825.0</ele><time>2026-05-01T19:22:32.001Z</time></trkpt><trkpt lat="47.06741644546865" lon="14.430019733069562"><ele>825.0</ele><time>2026-05-01T19:22:33.001Z</time></trkpt><trkpt lat="47.06730912989853" lon="14.430059384738087"><ele>825.0</ele><time>2026-05-01T19:22:34.001Z</time></trkpt><trkpt lat="47.067203037413194" lon="14.430094076882918"><ele>825.0</ele><time>2026-05-01T19:22:35.001Z</time></trkpt><trkpt lat="47.067097632187355" lon="14.430124059085607"><ele>825.0</ele><time>2026-05-01T19:22:36.001Z</time></trkpt><trkpt lat="47.06699312451053" lon="14.430151024984514"><ele>825.0</ele><time>2026-05-01T19:22:37.001Z</time></trkpt><trkpt lat="47.06688518980976" lon="14.430176367133887"><ele>825.0</ele><time>2026-05-01T19:22:38.001Z</time></trkpt><trkpt lat="47.06677594952577" lon="14.43020290271917"><ele>825.0</ele><time>2026-05-01T19:22:39.001Z</time></trkpt><trkpt lat="47.06666691827116" lon="14.430227470516943"><ele>825.0</ele><time>2026-05-01T19:22:40.001Z</time></trkpt><trkpt lat="47.06655564210403" lon="14.43025121539886"><ele>825.0</ele><time>2026-05-01T19:22:41.001Z</time></trkpt><trkpt lat="47.066441585815" lon="14.430275757160432"><ele>825.0</ele><time>2026-05-01T19:22:42.001Z</time></trkpt><trkpt lat="47.06632698100195" lon="14.430301201099109"><ele>825.0</ele><time>2026-05-01T19:22:43Z</time></trkpt><trkpt lat="47.06621253719645" lon="14.43032838264952"><ele>825.0</ele><time>2026-05-01T19:22:44Z</time></trkpt><trkpt lat="47.06609959126071" lon="14.430360250534834"><ele>825.0</ele><time>2026-05-01T19:22:45Z</time></trkpt><trkpt lat="47.06598864864" lon="14.430399038433734"><ele>825.0</ele><time>2026-05-01T19:22:46Z</time></trkpt><trkpt lat="47.06587758806531" lon="14.430446435745772"><ele>825.0</ele><time>2026-05-01T19:22:47Z</time></trkpt><trkpt lat="47.06576772734686" lon="14.430500049312107"><ele>825.0</ele><time>2026-05-01T19:22:48Z</time></trkpt><trkpt lat="47.06565744069869" lon="14.430555045814751"><ele>825.0</ele><time>2026-05-01T19:22:49Z</time></trkpt><trkpt lat="47.0655459091355" lon="14.430608107812647"><ele>824.25</ele><time>2026-05-01T19:22:50Z</time></trkpt><trkpt lat="47.06543339816686" lon="14.430660952481885"><ele>823.5</ele><time>2026-05-01T19:22:51Z</time></trkpt><trkpt lat="47.06531869333924" lon="14.430713081006623"><ele>822.75</ele><time>2026-05-01T19:22:52Z</time></trkpt><trkpt lat="47.06520302701327" lon="14.430763354774362"><ele>822.0</ele><time>2026-05-01T19:22:53Z</time></trkpt><trkpt lat="47.06508712248178" lon="14.430813874616453"><ele>822.0</ele><time>2026-05-01T19:22:54Z</time></trkpt><trkpt lat="47.06496940972516" lon="14.430863471598894"><ele>822.0</ele><time>2026-05-01T19:22:55Z</time></trkpt><trkpt lat="47.06485152367777" lon="14.430912868198417"><ele>822.0</ele><time>2026-05-01T19:22:56Z</time></trkpt><trkpt lat="47.06473425756188" lon="14.430960440808773"><ele>822.0</ele><time>2026-05-01T19:22:57Z</time></trkpt><trkpt lat="47.06461617939149" lon="14.431006268221203"><ele>822.0</ele><time>2026-05-01T19:22:58Z</time></trkpt><trkpt lat="47.064497994537895" lon="14.43104954331811"><ele>822.0</ele><time>2026-05-01T19:22:59Z</time></trkpt><trkpt lat="47.06437880109606" lon="14.431090531649287"><ele>822.0</ele><time>2026-05-01T19:23:00Z</time></trkpt><trkpt lat="47.06426009988433" lon="14.431130412440023"><ele>822.0</ele><time>2026-05-01T19:23:01Z</time></trkpt><trkpt lat="47.064140395479406" lon="14.43116728244037"><ele>821.5</ele><time>2026-05-01T19:23:02Z</time></trkpt><trkpt lat="47.064021275440105" lon="14.431201242799915"><ele>821.0</ele><time>2026-05-01T19:23:03Z</time></trkpt><trkpt lat="47.06390279024866" lon="14.431232786115565"><ele>820.5</ele><time>2026-05-01T19:23:04Z</time></trkpt><trkpt lat="47.06378455881376" lon="14.431254219882637"><ele>820.0</ele><time>2026-05-01T19:23:05Z</time></trkpt><trkpt lat="47.06366553031293" lon="14.431263375069449"><ele>820.0</ele><time>2026-05-01T19:23:06Z</time></trkpt><trkpt lat="47.063546942212334" lon="14.431267704958424"><ele>820.0</ele><time>2026-05-01T19:23:07Z</time></trkpt><trkpt lat="47.063428377816514" lon="14.431270112219167"><ele>820.0</ele><time>2026-05-01T19:23:08Z</time></trkpt><trkpt lat="47.063311242150064" lon="14.431270962822706"><ele>820.0</ele><time>2026-05-01T19:23:09Z</time></trkpt><trkpt lat="47.063195773911175" lon="14.43127201478799"><ele>819.6</ele><time>2026-05-01T19:23:10Z</time></trkpt><trkpt lat="47.06308314816568" lon="14.431276242345932"><ele>819.2</ele><time>2026-05-01T19:23:11Z</time></trkpt><trkpt lat="47.06297260169242" lon="14.431285999240247"><ele>818.8</ele><time>2026-05-01T19:23:12Z</time></trkpt><trkpt lat="47.062863825587094" lon="14.431300369763438"><ele>818.4</ele><time>2026-05-01T19:23:13Z</time></trkpt><trkpt lat="47.06275393023374" lon="14.431317174824528"><ele>818.0</ele><time>2026-05-01T19:23:14Z</time></trkpt><trkpt lat="47.06264243096091" lon="14.431336376764872"><ele>818.0</ele><time>2026-05-01T19:23:15Z</time></trkpt><trkpt lat="47.06253098860273" lon="14.43135768852208"><ele>818.0</ele><time>2026-05-01T19:23:16Z</time></trkpt><trkpt lat="47.06241884869874" lon="14.431382027213155"><ele>818.0</ele><time>2026-05-01T19:23:17Z</time></trkpt><trkpt lat="47.06230846779175" lon="14.431408730311814"><ele>818.0</ele><time>2026-05-01T19:23:18Z</time></trkpt><trkpt lat="47.06219690624589" lon="14.43143857837545"><ele>818.0</ele><time>2026-05-01T19:23:19Z</time></trkpt><trkpt lat="47.06208586347917" lon="14.431471301362771"><ele>818.0</ele><time>2026-05-01T19:23:20Z</time></trkpt><trkpt lat="47.0619755973331" lon="14.431506163318232"><ele>818.0</ele><time>2026-05-01T19:23:21Z</time></trkpt><trkpt lat="47.06186389405279" lon="14.431542944575543"><ele>818.0</ele><time>2026-05-01T19:23:22Z</time></trkpt><trkpt lat="47.06175345423568" lon="14.431579823420655"><ele>818.0</ele><time>2026-05-01T19:23:23Z</time></trkpt><trkpt lat="47.061643500111934" lon="14.431615213154533"><ele>818.0</ele><time>2026-05-01T19:23:24Z</time></trkpt><trkpt lat="47.06153329724104" lon="14.431650121399139"><ele>818.0</ele><time>2026-05-01T19:23:25Z</time></trkpt><trkpt lat="47.061423797913875" lon="14.431685703127226"><ele>818.0</ele><time>2026-05-01T19:23:26Z</time></trkpt><trkpt lat="47.06131464437944" lon="14.431722964293128"><ele>817.75</ele><time>2026-05-01T19:23:27Z</time></trkpt><trkpt lat="47.0612057403031" lon="14.431762274481803"><ele>817.5</ele><time>2026-05-01T19:23:28Z</time></trkpt><trkpt lat="47.06109606001828" lon="14.431802987895946"><ele>817.25</ele><time>2026-05-01T19:23:29Z</time></trkpt><trkpt lat="47.060979909138396" lon="14.43184490572691"><ele>817.0</ele><time>2026-05-01T19:23:30Z</time></trkpt><trkpt lat="47.06085657862244" lon="14.431887494461167"><ele>816.5</ele><time>2026-05-01T19:23:31Z</time></trkpt><trkpt lat="47.06072808084533" lon="14.43193293250668"><ele>816.0</ele><time>2026-05-01T19:23:32Z</time></trkpt><trkpt lat="47.060594176269774" lon="14.431977680952691"><ele>815.5</ele><time>2026-05-01T19:23:33Z</time></trkpt><trkpt lat="47.0604560304252" lon="14.432023373718923"><ele>815.0</ele><time>2026-05-01T19:23:34Z</time></trkpt><trkpt lat="47.06031527803583" lon="14.432068521695452"><ele>815.0</ele><time>2026-05-01T19:23:35Z</time></trkpt><trkpt lat="47.060172137738974" lon="14.432115055731877"><ele>815.0</ele><time>2026-05-01T19:23:36Z</time></trkpt><trkpt lat="47.06002587076224" lon="14.432165925935609"><ele>815.0</ele><time>2026-05-01T19:23:37Z</time></trkpt><trkpt lat="47.05988173947394" lon="14.432216224806512"><ele>815.0</ele><time>2026-05-01T19:23:38Z</time></trkpt><trkpt lat="47.05973680545089" lon="14.432267195201026"><ele>815.3333333333334</ele><time>2026-05-01T19:23:39Z</time></trkpt><trkpt lat="47.05958400865052" lon="14.432319391194858"><ele>815.6666666666667</ele><time>2026-05-01T19:23:40Z</time></trkpt><trkpt lat="47.059426088761455" lon="14.432372999434975"><ele>816.0</ele><time>2026-05-01T19:23:41Z</time></trkpt><trkpt lat="47.059265151913756" lon="14.432426070714518"><ele>815.3333333333333</ele><time>2026-05-01T19:23:42Z</time></trkpt><trkpt lat="47.05909609302842" lon="14.43248384822032"><ele>814.6666666666666</ele><time>2026-05-01T19:23:43Z</time></trkpt><trkpt lat="47.05892435539348" lon="14.432544510554255"><ele>814.0</ele><time>2026-05-01T19:23:44Z</time></trkpt><trkpt lat="47.058749509755316" lon="14.43260757373912"><ele>814.0</ele><time>2026-05-01T19:23:45Z</time></trkpt><trkpt lat="47.05857463918155" lon="14.432669222023971"><ele>814.0</ele><time>2026-05-01T19:23:46Z</time></trkpt><trkpt lat="47.05840479729676" lon="14.432727155475376"><ele>814.0</ele><time>2026-05-01T19:23:47Z</time></trkpt><trkpt lat="47.058229072491244" lon="14.432785456730352"><ele>813.6666666666666</ele><time>2026-05-01T19:23:48Z</time></trkpt><trkpt lat="47.05804985741738" lon="14.432841276570588"><ele>813.3333333333333</ele><time>2026-05-01T19:23:49Z</time></trkpt><trkpt lat="47.05786904478417" lon="14.432891778006406"><ele>813.0</ele><time>2026-05-01T19:23:50Z</time></trkpt><trkpt lat="47.05768632191632" lon="14.432938505411245"><ele>813.6666666666667</ele><time>2026-05-01T19:23:51Z</time></trkpt><trkpt lat="47.05750419868688" lon="14.432977776804155"><ele>814.3333333333334</ele><time>2026-05-01T19:23:52Z</time></trkpt><trkpt lat="47.05732031830406" lon="14.433016336731619"><ele>815.0</ele><time>2026-05-01T19:23:53Z</time></trkpt><trkpt lat="47.057138257499616" lon="14.4330497669745"><ele>815.0</ele><time>2026-05-01T19:23:54Z</time></trkpt><trkpt lat="47.056955316163304" lon="14.433077182524286"><ele>815.0</ele><time>2026-05-01T19:23:55Z</time></trkpt><trkpt lat="47.05677139780681" lon="14.433098629535223"><ele>815.0</ele><time>2026-05-01T19:23:56Z</time></trkpt><trkpt lat="47.056592761085035" lon="14.433116591119534"><ele>814.6666666666667</ele><time>2026-05-01T19:23:57Z</time></trkpt><trkpt lat="47.05641710976157" lon="14.433134035103283"><ele>814.3333333333333</ele><time>2026-05-01T19:23:58Z</time></trkpt><trkpt lat="47.05623920143833" lon="14.43314817495761"><ele>814.0</ele><time>2026-05-01T19:23:59Z</time></trkpt><trkpt lat="47.05606227532504" lon="14.43316029489944"><ele>814.0</ele><time>2026-05-01T19:24:00Z</time></trkpt><trkpt lat="47.05588371686432" lon="14.433169486932627"><ele>814.0</ele><time>2026-05-01T19:24:01Z</time></trkpt><trkpt lat="47.055708504051765" lon="14.433178761646348"><ele>814.0</ele><time>2026-05-01T19:24:02Z</time></trkpt><trkpt lat="47.05553403200215" lon="14.433190597114711"><ele>815.6666666666666</ele><time>2026-05-01T19:24:03Z</time></trkpt><trkpt lat="47.05535607765578" lon="14.433202565717611"><ele>817.3333333333333</ele><time>2026-05-01T19:24:04Z</time></trkpt><trkpt lat="47.05517686658478" lon="14.433214478853987"><ele>819.0</ele><time>2026-05-01T19:24:05Z</time></trkpt><trkpt lat="47.05499743534571" lon="14.43322680235186"><ele>819.3333333333333</ele><time>2026-05-01T19:24:06Z</time></trkpt><trkpt lat="47.05481865579196" lon="14.433232159109773"><ele>819.6666666666666</ele><time>2026-05-01T19:24:07.001Z</time></trkpt><trkpt lat="47.05463966469964" lon="14.433230007178983"><ele>820.0</ele><time>2026-05-01T19:24:08.001Z</time></trkpt><trkpt lat="47.05445918493852" lon="14.433225108786262"><ele>820.0</ele><time>2026-05-01T19:24:09.001Z</time></trkpt><trkpt lat="47.054279545911506" lon="14.43322034669574"><ele>820.0</ele><time>2026-05-01T19:24:10.001Z</time></trkpt><trkpt lat="47.05410119861407" lon="14.433211611343173"><ele>820.0</ele><time>2026-05-01T19:24:11.001Z</time></trkpt><trkpt lat="47.05392192945744" lon="14.43319770483805"><ele>819.0</ele><time>2026-05-01T19:24:12.001Z</time></trkpt><trkpt lat="47.05374294805815" lon="14.4331824229417"><ele>818.0</ele><time>2026-05-01T19:24:13.001Z</time></trkpt><trkpt lat="47.053569168580395" lon="14.433164819892317"><ele>817.0</ele><time>2026-05-01T19:24:14.001Z</time></trkpt><trkpt lat="47.05340195972604" lon="14.433146952300156"><ele>816.0</ele><time>2026-05-01T19:24:15.001Z</time></trkpt><trkpt lat="47.053242879558404" lon="14.433127184507159"><ele>815.0</ele><time>2026-05-01T19:24:16.001Z</time></trkpt><trkpt lat="47.05308022559328" lon="14.433102303663178"><ele>814.0</ele><time>2026-05-01T19:24:17.001Z</time></trkpt><trkpt lat="47.05291564896511" lon="14.433075591977955"><ele>814.0</ele><time>2026-05-01T19:24:18.001Z</time></trkpt><trkpt lat="47.05274641024729" lon="14.433044230414108"><ele>814.0</ele><time>2026-05-01T19:24:19.001Z</time></trkpt><trkpt lat="47.05257640774466" lon="14.433014426250555"><ele>814.0</ele><time>2026-05-01T19:24:20.001Z</time></trkpt><trkpt lat="47.05240080696458" lon="14.432987057278142"><ele>811.3333333333333</ele><time>2026-05-01T19:24:21.001Z</time></trkpt><trkpt lat="47.05222200713723" lon="14.432954183427961"><ele>808.6666666666667</ele><time>2026-05-01T19:24:22.001Z</time></trkpt><trkpt lat="47.05203920123353" lon="14.432908792915494"><ele>806.0</ele><time>2026-05-01T19:24:23.001Z</time></trkpt><trkpt lat="47.05185742649994" lon="14.432840797560992"><ele>806.0</ele><time>2026-05-01T19:24:24.001Z</time></trkpt><trkpt lat="47.05168033437844" lon="14.432752675197403"><ele>806.0</ele><time>2026-05-01T19:24:25.001Z</time></trkpt><trkpt lat="47.05150158664209" lon="14.432658404105169"><ele>806.0</ele><time>2026-05-01T19:24:26.001Z</time></trkpt><trkpt lat="47.05132407480067" lon="14.432561844175336"><ele>802.3333333333334</ele><time>2026-05-01T19:24:27.001Z</time></trkpt><trkpt lat="47.05114845876447" lon="14.432463534726516"><ele>798.6666666666667</ele><time>2026-05-01T19:24:28.001Z</time></trkpt><trkpt lat="47.0509746766329" lon="14.432370665043068"><ele>795.0</ele><time>2026-05-01T19:24:29.001Z</time></trkpt><trkpt lat="47.050805187458785" lon="14.432274700996691"><ele>795.0</ele><time>2026-05-01T19:24:30.001Z</time></trkpt><trkpt lat="47.050642355253316" lon="14.43218056593471"><ele>795.0</ele><time>2026-05-01T19:24:31.001Z</time></trkpt><trkpt lat="47.05048663008444" lon="14.432100459429213"><ele>795.0</ele><time>2026-05-01T19:24:32.001Z</time></trkpt><trkpt lat="47.05033453464687" lon="14.43204221766359"><ele>794.3333333333333</ele><time>2026-05-01T19:24:33.001Z</time></trkpt><trkpt lat="47.050181048091254" lon="14.432014317832074"><ele>793.6666666666666</ele><time>2026-05-01T19:24:34.001Z</time></trkpt><trkpt lat="47.05002539773584" lon="14.432019959899256"><ele>793.0</ele><time>2026-05-01T19:24:35.001Z</time></trkpt><trkpt lat="47.04987354636314" lon="14.4320639887311"><ele>792.0</ele><time>2026-05-01T19:24:36.001Z</time></trkpt><trkpt lat="47.04972390579243" lon="14.432137395832665"><ele>791.0</ele><time>2026-05-01T19:24:37.001Z</time></trkpt><trkpt lat="47.04957362017202" lon="14.432237521927085"><ele>790.0</ele><time>2026-05-01T19:24:38.001Z</time></trkpt><trkpt lat="47.049424634252844" lon="14.432332372361842"><ele>790.0</ele><time>2026-05-01T19:24:39.001Z</time></trkpt><trkpt lat="47.04926891687513" lon="14.432407810418246"><ele>790.0</ele><time>2026-05-01T19:24:40.001Z</time></trkpt><trkpt lat="47.04911239526713" lon="14.432461286250147"><ele>790.0</ele><time>2026-05-01T19:24:41.001Z</time></trkpt><trkpt lat="47.04894892827057" lon="14.432496780927274"><ele>790.6666666666666</ele><time>2026-05-01T19:24:42.001Z</time></trkpt><trkpt lat="47.04878574242657" lon="14.432518073089472"><ele>791.3333333333333</ele><time>2026-05-01T19:24:43.001Z</time></trkpt><trkpt lat="47.04862625340231" lon="14.432530658025765"><ele>792.0</ele><time>2026-05-01T19:24:44.001Z</time></trkpt><trkpt lat="47.04847334860813" lon="14.432535355242285"><ele>792.0</ele><time>2026-05-01T19:24:45.001Z</time></trkpt><trkpt lat="47.04831259017866" lon="14.432535117728863"><ele>792.0</ele><time>2026-05-01T19:24:46.001Z</time></trkpt><trkpt lat="47.0481464503021" lon="14.432533056544692"><ele>792.0</ele><time>2026-05-01T19:24:47.001Z</time></trkpt><trkpt lat="47.04797209206585" lon="14.43252928067195"><ele>795.0</ele><time>2026-05-01T19:24:48.001Z</time></trkpt><trkpt lat="47.047792455739675" lon="14.432528944267352"><ele>798.0</ele><time>2026-05-01T19:24:49Z</time></trkpt><trkpt lat="47.04761308841159" lon="14.432529451023795"><ele>801.0</ele><time>2026-05-01T19:24:50Z</time></trkpt><trkpt lat="47.047430602425266" lon="14.432525174722633"><ele>805.6666666666667</ele><time>2026-05-01T19:24:51Z</time></trkpt><trkpt lat="47.04726059610219" lon="14.43250818619235"><ele>810.3333333333334</ele><time>2026-05-01T19:24:52Z</time></trkpt><trkpt lat="47.047101642669816" lon="14.432462062677985"><ele>815.0</ele><time>2026-05-01T19:24:53Z</time></trkpt><trkpt lat="47.04694428804484" lon="14.432384031293788"><ele>815.0</ele><time>2026-05-01T19:24:54Z</time></trkpt><trkpt lat="47.04679647450492" lon="14.432272188798894"><ele>815.0</ele><time>2026-05-01T19:24:55Z</time></trkpt><trkpt lat="47.04666666932446" lon="14.432131794129807"><ele>815.0</ele><time>2026-05-01T19:24:56Z</time></trkpt><trkpt lat="47.04656967993049" lon="14.431963260258104"><ele>815.5</ele><time>2026-05-01T19:24:57Z</time></trkpt><trkpt lat="47.046511688549906" lon="14.431774826919098"><ele>816.0</ele><time>2026-05-01T19:24:58Z</time></trkpt><trkpt lat="47.046492533694504" lon="14.431580410893964"><ele>816.5</ele><time>2026-05-01T19:24:59Z</time></trkpt><trkpt lat="47.04648756076731" lon="14.431375972149564"><ele>817.0</ele><time>2026-05-01T19:25:00Z</time></trkpt><trkpt lat="47.04649051668464" lon="14.43117237877428"><ele>817.0</ele><time>2026-05-01T19:25:01Z</time></trkpt><trkpt lat="47.04647982644969" lon="14.430978178806445"><ele>817.0</ele><time>2026-05-01T19:25:02Z</time></trkpt><trkpt lat="47.046450460911956" lon="14.43078726129515"><ele>817.0</ele><time>2026-05-01T19:25:03Z</time></trkpt><trkpt lat="47.046398876919035" lon="14.430596511149789"><ele>817.0</ele><time>2026-05-01T19:25:04Z</time></trkpt><trkpt lat="47.04632938865506" lon="14.430407480503538"><ele>812.3333333333333</ele><time>2026-05-01T19:25:05Z</time></trkpt><trkpt lat="47.04624042275006" lon="14.430233872344013"><ele>807.6666666666667</ele><time>2026-05-01T19:25:06Z</time></trkpt><trkpt lat="47.0461315121129" lon="14.430079332186402"><ele>803.0</ele><time>2026-05-01T19:25:07Z</time></trkpt><trkpt lat="47.046009741357544" lon="14.429937896029076"><ele>803.0</ele><time>2026-05-01T19:25:08Z</time></trkpt><trkpt lat="47.0458759011501" lon="14.429805636487337"><ele>803.0</ele><time>2026-05-01T19:25:09Z</time></trkpt><trkpt lat="47.04574305145977" lon="14.429672281572966"><ele>803.0</ele><time>2026-05-01T19:25:10Z</time></trkpt><trkpt lat="47.04561758990337" lon="14.429532075526295"><ele>807.0</ele><time>2026-05-01T19:25:11Z</time></trkpt><trkpt lat="47.04551314930785" lon="14.429381673156177"><ele>811.0</ele><time>2026-05-01T19:25:12Z</time></trkpt><trkpt lat="47.04543934661962" lon="14.429213964340475"><ele>815.0</ele><time>2026-05-01T19:25:13Z</time></trkpt><trkpt lat="47.04541257534124" lon="14.429045048804461"><ele>819.0</ele><time>2026-05-01T19:25:14Z</time></trkpt><trkpt lat="47.04541954395677" lon="14.428858559055579"><ele>818.0</ele><time>2026-05-01T19:25:15Z</time></trkpt><trkpt lat="47.04543287913508" lon="14.428653319280615"><ele>817.0</ele><time>2026-05-01T19:25:16Z</time></trkpt><trkpt lat="47.045430157851385" lon="14.428437777877544"><ele>816.0</ele><time>2026-05-01T19:25:17Z</time></trkpt><trkpt lat="47.04540993784528" lon="14.428218833099203"><ele>815.0</ele><time>2026-05-01T19:25:18Z</time></trkpt><trkpt lat="47.045380126782334" lon="14.42799748083321"><ele>812.0</ele><time>2026-05-01T19:25:19Z</time></trkpt><trkpt lat="47.045341814848555" lon="14.427781004170722"><ele>809.0</ele><time>2026-05-01T19:25:20Z</time></trkpt><trkpt lat="47.04529326522643" lon="14.427573447887859"><ele>806.0</ele><time>2026-05-01T19:25:21Z</time></trkpt><trkpt lat="47.045234753648444" lon="14.427376737618612"><ele>803.0</ele><time>2026-05-01T19:25:22Z</time></trkpt><trkpt lat="47.04516320341336" lon="14.427197790821827"><ele>802.75</ele><time>2026-05-01T19:25:23Z</time></trkpt><trkpt lat="47.04508077902731" lon="14.427045642285904"><ele>802.5</ele><time>2026-05-01T19:25:24Z</time></trkpt><trkpt lat="47.04498423462745" lon="14.42691808599089"><ele>802.25</ele><time>2026-05-01T19:25:25Z</time></trkpt><trkpt lat="47.04488004278915" lon="14.426813438137007"><ele>802.0</ele><time>2026-05-01T19:25:26Z</time></trkpt><trkpt lat="47.044766968308735" lon="14.426727862706201"><ele>802.0</ele><time>2026-05-01T19:25:27Z</time></trkpt><trkpt lat="47.04463962917346" lon="14.426643840932359"><ele>802.0</ele><time>2026-05-01T19:25:28Z</time></trkpt><trkpt lat="47.04450327055014" lon="14.42655638587598"><ele>802.0</ele><time>2026-05-01T19:25:29Z</time></trkpt><trkpt lat="47.04435900491942" lon="14.42646492511171"><ele>802.0</ele><time>2026-05-01T19:25:30Z</time></trkpt><trkpt lat="47.04420809968743" lon="14.426373346140908"><ele>799.6666666666666</ele><time>2026-05-01T19:25:31Z</time></trkpt><trkpt lat="47.04404862040688" lon="14.426276710592079"><ele>797.3333333333333</ele><time>2026-05-01T19:25:32Z</time></trkpt><trkpt lat="47.043882406570035" lon="14.426176754848345"><ele>795.0</ele><time>2026-05-01T19:25:33Z</time></trkpt><trkpt lat="47.04371561917652" lon="14.426078577579185"><ele>795.0</ele><time>2026-05-01T19:25:34Z</time></trkpt><trkpt lat="47.04355136868373" lon="14.425986730586345"><ele>795.0</ele><time>2026-05-01T19:25:35Z</time></trkpt><trkpt lat="47.04338345376972" lon="14.425898995391934"><ele>795.0</ele><time>2026-05-01T19:25:36Z</time></trkpt><trkpt lat="47.043225528619914" lon="14.42582059513858"><ele>792.5</ele><time>2026-05-01T19:25:37Z</time></trkpt><trkpt lat="47.043075469518136" lon="14.42575167587965"><ele>790.0</ele><time>2026-05-01T19:25:38Z</time></trkpt><trkpt lat="47.042933369446004" lon="14.425704207704957"><ele>787.5</ele><time>2026-05-01T19:25:39Z</time></trkpt><trkpt lat="47.042790569400694" lon="14.42568215660229"><ele>785.0</ele><time>2026-05-01T19:25:40Z</time></trkpt><trkpt lat="47.04264741364623" lon="14.42569299184677"><ele>785.0</ele><time>2026-05-01T19:25:41Z</time></trkpt><trkpt lat="47.042498412973465" lon="14.425732690110848"><ele>785.0</ele><time>2026-05-01T19:25:42Z</time></trkpt><trkpt lat="47.042343471018626" lon="14.42579127705873"><ele>785.0</ele><time>2026-05-01T19:25:43Z</time></trkpt><trkpt lat="47.04218220943733" lon="14.4258673058439"><ele>786.3333333333334</ele><time>2026-05-01T19:25:44Z</time></trkpt><trkpt lat="47.0420165002919" lon="14.425947566435823"><ele>787.6666666666667</ele><time>2026-05-01T19:25:45Z</time></trkpt><trkpt lat="47.04184463650861" lon="14.426032006615904"><ele>789.0</ele><time>2026-05-01T19:25:46Z</time></trkpt><trkpt lat="47.04166573910995" lon="14.426115313973487"><ele>788.0</ele><time>2026-05-01T19:25:47Z</time></trkpt><trkpt lat="47.04149614251098" lon="14.426188092034893"><ele>787.0</ele><time>2026-05-01T19:25:48Z</time></trkpt><trkpt lat="47.04133218828212" lon="14.42624328731924"><ele>786.0</ele><time>2026-05-01T19:25:49Z</time></trkpt><trkpt lat="47.04116755168009" lon="14.426274856945073"><ele>786.0</ele><time>2026-05-01T19:25:50Z</time></trkpt><trkpt lat="47.04099871381466" lon="14.426279019308032"><ele>786.0</ele><time>2026-05-01T19:25:51Z</time></trkpt><trkpt lat="47.04082591711356" lon="14.426298549818931"><ele>786.0</ele><time>2026-05-01T19:25:52Z</time></trkpt><trkpt lat="47.04065756309497" lon="14.42634983334258"><ele>784.3333333333333</ele><time>2026-05-01T19:25:53Z</time></trkpt><trkpt lat="47.04048731950664" lon="14.426429005216388"><ele>782.6666666666666</ele><time>2026-05-01T19:25:54Z</time></trkpt><trkpt lat="47.040316697243895" lon="14.426527817551417"><ele>781.0</ele><time>2026-05-01T19:25:55Z</time></trkpt><trkpt lat="47.04014259558662" lon="14.426630013744097"><ele>781.0</ele><time>2026-05-01T19:25:56Z</time></trkpt><trkpt lat="47.03996879839823" lon="14.426728818708108"><ele>781.0</ele><time>2026-05-01T19:25:57Z</time></trkpt><trkpt lat="47.03979768193927" lon="14.426822539602911"><ele>781.0</ele><time>2026-05-01T19:25:58Z</time></trkpt><trkpt lat="47.039628150916705" lon="14.426914136027268"><ele>777.6666666666666</ele><time>2026-05-01T19:25:59Z</time></trkpt><trkpt lat="47.03946686421165" lon="14.42699101442907"><ele>774.3333333333333</ele><time>2026-05-01T19:26:00Z</time></trkpt><trkpt lat="47.039305496773046" lon="14.427040124752159"><ele>771.0</ele><time>2026-05-01T19:26:01Z</time></trkpt><trkpt lat="47.039134828266995" lon="14.427056910212064"><ele>769.6666666666666</ele><time>2026-05-01T19:26:02Z</time></trkpt><trkpt lat="47.038963760678165" lon="14.427042639108118"><ele>768.3333333333333</ele><time>2026-05-01T19:26:03Z</time></trkpt><trkpt lat="47.038798115236396" lon="14.426995510825964"><ele>767.0</ele><time>2026-05-01T19:26:04Z</time></trkpt><trkpt lat="47.03864460885277" lon="14.42691417303888"><ele>767.0</ele><time>2026-05-01T19:26:05Z</time></trkpt><trkpt lat="47.03850981841807" lon="14.42679353361856"><ele>767.0</ele><time>2026-05-01T19:26:06Z</time></trkpt><trkpt lat="47.03838846126922" lon="14.426643059568788"><ele>767.0</ele><time>2026-05-01T19:26:07Z</time></trkpt><trkpt lat="47.03827730878357" lon="14.426466676337368"><ele>776.0</ele><time>2026-05-01T19:26:08Z</time></trkpt><trkpt lat="47.03817447568486" lon="14.426272455529451"><ele>785.0</ele><time>2026-05-01T19:26:09Z</time></trkpt><trkpt lat="47.03807773188618" lon="14.426062021631658"><ele>794.0</ele><time>2026-05-01T19:26:10Z</time></trkpt><trkpt lat="47.03799440132312" lon="14.425839672119691"><ele>794.0</ele><time>2026-05-01T19:26:11Z</time></trkpt><trkpt lat="47.037919057609066" lon="14.425601346817176"><ele>794.0</ele><time>2026-05-01T19:26:12Z</time></trkpt><trkpt lat="47.03784222836634" lon="14.42536203609273"><ele>794.0</ele><time>2026-05-01T19:26:13Z</time></trkpt><trkpt lat="47.037761275077116" lon="14.425114027317719"><ele>788.6666666666667</ele><time>2026-05-01T19:26:14Z</time></trkpt><trkpt lat="47.037684177199736" lon="14.424858940214234"><ele>783.3333333333333</ele><time>2026-05-01T19:26:15Z</time></trkpt><trkpt lat="47.03760744383711" lon="14.42461650779959"><ele>778.0</ele><time>2026-05-01T19:26:16Z</time></trkpt><trkpt lat="47.03753269674113" lon="14.424380675271978"><ele>780.0</ele><time>2026-05-01T19:26:17Z</time></trkpt><trkpt lat="47.03745079488324" lon="14.424137163284309"><ele>782.0</ele><time>2026-05-01T19:26:18Z</time></trkpt><trkpt lat="47.03736480412168" lon="14.423893058866847"><ele>784.0</ele><time>2026-05-01T19:26:19Z</time></trkpt><trkpt lat="47.03727453298121" lon="14.423653029280432"><ele>784.0</ele><time>2026-05-01T19:26:20.001Z</time></trkpt><trkpt lat="47.03717859299674" lon="14.423418771498886"><ele>784.0</ele><time>2026-05-01T19:26:21.001Z</time></trkpt><trkpt lat="47.03707704170488" lon="14.423193611180997"><ele>784.0</ele><time>2026-05-01T19:26:22.001Z</time></trkpt><trkpt lat="47.03697158349169" lon="14.422970595590197"><ele>786.6666666666666</ele><time>2026-05-01T19:26:23.001Z</time></trkpt><trkpt lat="47.03685936394505" lon="14.42274746226564"><ele>789.3333333333333</ele><time>2026-05-01T19:26:24.001Z</time></trkpt><trkpt lat="47.036744126315384" lon="14.42252081689851"><ele>792.0</ele><time>2026-05-01T19:26:25.001Z</time></trkpt><trkpt lat="47.03662741446956" lon="14.42229666113981"><ele>784.3333333333333</ele><time>2026-05-01T19:26:26.001Z</time></trkpt><trkpt lat="47.03650711532406" lon="14.422073535516057"><ele>776.6666666666666</ele><time>2026-05-01T19:26:27.001Z</time></trkpt><trkpt lat="47.03638321360901" lon="14.421854501550687"><ele>769.0</ele><time>2026-05-01T19:26:28.001Z</time></trkpt><trkpt lat="47.036259069098485" lon="14.42163479860288"><ele>769.0</ele><time>2026-05-01T19:26:29.001Z</time></trkpt><trkpt lat="47.03613995366464" lon="14.421417735887747"><ele>769.0</ele><time>2026-05-01T19:26:30.001Z</time></trkpt><trkpt lat="47.03602034505242" lon="14.421193285231135"><ele>769.0</ele><time>2026-05-01T19:26:31.001Z</time></trkpt><trkpt lat="47.03589852220524" lon="14.420959793354545"><ele>766.6666666666666</ele><time>2026-05-01T19:26:32.001Z</time></trkpt><trkpt lat="47.03577379737469" lon="14.420722319130784"><ele>764.3333333333333</ele><time>2026-05-01T19:26:33.001Z</time></trkpt><trkpt lat="47.035647970377305" lon="14.420487289574732"><ele>762.0</ele><time>2026-05-01T19:26:34.001Z</time></trkpt><trkpt lat="47.03552075108625" lon="14.420252614401797"><ele>760.6666666666666</ele><time>2026-05-01T19:26:35.001Z</time></trkpt><trkpt lat="47.03539416508025" lon="14.42001582925307"><ele>759.3333333333333</ele><time>2026-05-01T19:26:36.001Z</time></trkpt><trkpt lat="47.035266245194734" lon="14.419780178034564"><ele>758.0</ele><time>2026-05-01T19:26:37.001Z</time></trkpt><trkpt lat="47.03513918532224" lon="14.419544167944776"><ele>758.0</ele><time>2026-05-01T19:26:38.001Z</time></trkpt><trkpt lat="47.03501473277873" lon="14.41930775961834"><ele>758.0</ele><time>2026-05-01T19:26:39.001Z</time></trkpt><trkpt lat="47.03489107936304" lon="14.419078236381562"><ele>758.0</ele><time>2026-05-01T19:26:40.001Z</time></trkpt><trkpt lat="47.034762776246154" lon="14.418851067928049"><ele>759.6666666666666</ele><time>2026-05-01T19:26:41.001Z</time></trkpt><trkpt lat="47.034626656495924" lon="14.41863003870834"><ele>761.3333333333334</ele><time>2026-05-01T19:26:42.001Z</time></trkpt><trkpt lat="47.034485295102414" lon="14.41841867617807"><ele>763.0</ele><time>2026-05-01T19:26:43.001Z</time></trkpt><trkpt lat="47.034336301938595" lon="14.418218500587338"><ele>763.0</ele><time>2026-05-01T19:26:44.001Z</time></trkpt><trkpt lat="47.034181698588064" lon="14.418031966469217"><ele>763.0</ele><time>2026-05-01T19:26:45.001Z</time></trkpt><trkpt lat="47.03401866590771" lon="14.417852978519678"><ele>763.0</ele><time>2026-05-01T19:26:46.001Z</time></trkpt><trkpt lat="47.03385160197448" lon="14.417685145647122"><ele>759.0</ele><time>2026-05-01T19:26:47.001Z</time></trkpt><trkpt lat="47.033679109852784" lon="14.417528010008231"><ele>755.0</ele><time>2026-05-01T19:26:48.001Z</time></trkpt><trkpt lat="47.03350100281874" lon="14.41738674779468"><ele>751.0</ele><time>2026-05-01T19:26:49.001Z</time></trkpt><trkpt lat="47.03331647038997" lon="14.417260166335023"><ele>751.0</ele><time>2026-05-01T19:26:50.001Z</time></trkpt><trkpt lat="47.03312700088514" lon="14.417146560601232"><ele>751.0</ele><time>2026-05-01T19:26:51.001Z</time></trkpt><trkpt lat="47.03293106330219" lon="14.417036022948523"><ele>751.0</ele><time>2026-05-01T19:26:52.001Z</time></trkpt><trkpt lat="47.032735132155416" lon="14.416935217582632"><ele>751.0</ele><time>2026-05-01T19:26:53.001Z</time></trkpt><trkpt lat="47.03253524628468" lon="14.416833843910107"><ele>751.0</ele><time>2026-05-01T19:26:54.001Z</time></trkpt><trkpt lat="47.03233968652628" lon="14.416734271733876"><ele>751.0</ele><time>2026-05-01T19:26:55Z</time></trkpt><trkpt lat="47.03214033434007" lon="14.416635439926493"><ele>751.0</ele><time>2026-05-01T19:26:56Z</time></trkpt><trkpt lat="47.031942584555544" lon="14.41653886362892"><ele>751.0</ele><time>2026-05-01T19:26:57Z</time></trkpt><trkpt lat="47.0317428185719" lon="14.416447893017725"><ele>751.0</ele><time>2026-05-01T19:26:58Z</time></trkpt><trkpt lat="47.03154293102642" lon="14.416364731336323"><ele>751.0</ele><time>2026-05-01T19:26:59Z</time></trkpt><trkpt lat="47.03134595552745" lon="14.416293935379858"><ele>751.0</ele><time>2026-05-01T19:27:00Z</time></trkpt><trkpt lat="47.0311476976432" lon="14.416235334806832"><ele>751.0</ele><time>2026-05-01T19:27:01Z</time></trkpt><trkpt lat="47.03094886925806" lon="14.416192836813948"><ele>750.0</ele><time>2026-05-01T19:27:02Z</time></trkpt><trkpt lat="47.03074958421125" lon="14.416162172571566"><ele>749.0</ele><time>2026-05-01T19:27:03Z</time></trkpt><trkpt lat="47.030546994384316" lon="14.416147887127337"><ele>748.0</ele><time>2026-05-01T19:27:04Z</time></trkpt><trkpt lat="47.03035324022537" lon="14.416147109277308"><ele>748.0</ele><time>2026-05-01T19:27:05Z</time></trkpt><trkpt lat="47.03016423360734" lon="14.416159423505274"><ele>748.0</ele><time>2026-05-01T19:27:06Z</time></trkpt><trkpt lat="47.02997559208356" lon="14.416184747384124"><ele>748.0</ele><time>2026-05-01T19:27:07Z</time></trkpt><trkpt lat="47.02979148404578" lon="14.416221498550124"><ele>747.6666666666667</ele><time>2026-05-01T19:27:08Z</time></trkpt><trkpt lat="47.02960770182174" lon="14.41626968849504"><ele>747.3333333333334</ele><time>2026-05-01T19:27:09Z</time></trkpt><trkpt lat="47.029425686367425" lon="14.416331233452516"><ele>747.0</ele><time>2026-05-01T19:27:10Z</time></trkpt><trkpt lat="47.029243784650824" lon="14.416404753413993"><ele>745.6666666666666</ele><time>2026-05-01T19:27:11Z</time></trkpt><trkpt lat="47.02906146495126" lon="14.416491674069832"><ele>744.3333333333333</ele><time>2026-05-01T19:27:12Z</time></trkpt><trkpt lat="47.028879062855026" lon="14.416593635926382"><ele>743.0</ele><time>2026-05-01T19:27:13Z</time></trkpt><trkpt lat="47.028701412922096" lon="14.416708342400517"><ele>743.0</ele><time>2026-05-01T19:27:14Z</time></trkpt><trkpt lat="47.02852369377896" lon="14.41683047992721"><ele>743.0</ele><time>2026-05-01T19:27:15Z</time></trkpt><trkpt lat="47.028348387624284" lon="14.416958605854523"><ele>743.0</ele><time>2026-05-01T19:27:16Z</time></trkpt><trkpt lat="47.02817157118246" lon="14.417088979159724"><ele>744.0</ele><time>2026-05-01T19:27:17Z</time></trkpt><trkpt lat="47.02799383024945" lon="14.417215194139606"><ele>745.0</ele><time>2026-05-01T19:27:18Z</time></trkpt><trkpt lat="47.02781386390456" lon="14.417333518770702"><ele>746.0</ele><time>2026-05-01T19:27:19Z</time></trkpt><trkpt lat="47.027630871498474" lon="14.417438454235768"><ele>746.3333333333333</ele><time>2026-05-01T19:27:20Z</time></trkpt><trkpt lat="47.027446408522856" lon="14.417528700862707"><ele>746.6666666666666</ele><time>2026-05-01T19:27:21Z</time></trkpt><trkpt lat="47.02725950983235" lon="14.417608375098727"><ele>747.0</ele><time>2026-05-01T19:27:22Z</time></trkpt><trkpt lat="47.027069057601516" lon="14.417675149213085"><ele>747.0</ele><time>2026-05-01T19:27:23Z</time></trkpt><trkpt lat="47.02687803348842" lon="14.417730008552404"><ele>747.0</ele><time>2026-05-01T19:27:24Z</time></trkpt><trkpt lat="47.026681943193736" lon="14.417771812747048"><ele>747.0</ele><time>2026-05-01T19:27:25Z</time></trkpt><trkpt lat="47.02648732361748" lon="14.417799338547285"><ele>746.3333333333334</ele><time>2026-05-01T19:27:26Z</time></trkpt><trkpt lat="47.026290698450566" lon="14.41781425518877"><ele>745.6666666666667</ele><time>2026-05-01T19:27:27Z</time></trkpt><trkpt lat="47.026096318822155" lon="14.417813364226424"><ele>745.0</ele><time>2026-05-01T19:27:28Z</time></trkpt><trkpt lat="47.02590145329098" lon="14.41779619827798"><ele>744.3333333333334</ele><time>2026-05-01T19:27:29Z</time></trkpt><trkpt lat="47.025705253890095" lon="14.417765328412514"><ele>743.6666666666666</ele><time>2026-05-01T19:27:30Z</time></trkpt><trkpt lat="47.025512384141656" lon="14.417721386467388"><ele>743.0</ele><time>2026-05-01T19:27:31Z</time></trkpt><trkpt lat="47.025319043325574" lon="14.417662751483126"><ele>743.0</ele><time>2026-05-01T19:27:32Z</time></trkpt><trkpt lat="47.02512891058977" lon="14.417596376709183"><ele>743.0</ele><time>2026-05-01T19:27:33Z</time></trkpt><trkpt lat="47.02493957039141" lon="14.417515073019317"><ele>743.0</ele><time>2026-05-01T19:27:34Z</time></trkpt><trkpt lat="47.02475237654788" lon="14.41741561066782"><ele>743.0</ele><time>2026-05-01T19:27:35Z</time></trkpt><trkpt lat="47.02457495383859" lon="14.417305898847799"><ele>743.0</ele><time>2026-05-01T19:27:36Z</time></trkpt><trkpt lat="47.02439824891363" lon="14.417187384623832"><ele>743.0</ele><time>2026-05-01T19:27:37Z</time></trkpt><trkpt lat="47.02422355252657" lon="14.417063280749758"><ele>747.0</ele><time>2026-05-01T19:27:38Z</time></trkpt><trkpt lat="47.02405235103608" lon="14.41693286236622"><ele>751.0</ele><time>2026-05-01T19:27:39Z</time></trkpt><trkpt lat="47.02388171561431" lon="14.416799411343455"><ele>755.0</ele><time>2026-05-01T19:27:40Z</time></trkpt><trkpt lat="47.023711930562605" lon="14.416667537222654"><ele>755.0</ele><time>2026-05-01T19:27:41Z</time></trkpt><trkpt lat="47.02354433118917" lon="14.41653311585436"><ele>755.0</ele><time>2026-05-01T19:27:42Z</time></trkpt><trkpt lat="47.023377442750736" lon="14.416398329810246"><ele>755.0</ele><time>2026-05-01T19:27:43Z</time></trkpt><trkpt lat="47.023210511898945" lon="14.41626384688239"><ele>752.0</ele><time>2026-05-01T19:27:44Z</time></trkpt><trkpt lat="47.023044587517276" lon="14.416134109644622"><ele>749.0</ele><time>2026-05-01T19:27:45Z</time></trkpt><trkpt lat="47.02288628923617" lon="14.416012016913408"><ele>746.0</ele><time>2026-05-01T19:27:46Z</time></trkpt><trkpt lat="47.02271921679402" lon="14.415885212155551"><ele>746.0</ele><time>2026-05-01T19:27:47Z</time></trkpt><trkpt lat="47.02255008501124" lon="14.415764224691618"><ele>746.0</ele><time>2026-05-01T19:27:48Z</time></trkpt><trkpt lat="47.02237615130484" lon="14.415647917392063"><ele>746.0</ele><time>2026-05-01T19:27:49Z</time></trkpt><trkpt lat="47.02219701803483" lon="14.415545081661755"><ele>743.3333333333333</ele><time>2026-05-01T19:27:50Z</time></trkpt><trkpt lat="47.02201732947931" lon="14.415454688424612"><ele>740.6666666666666</ele><time>2026-05-01T19:27:51Z</time></trkpt><trkpt lat="47.0218360608789" lon="14.415369970390643"><ele>738.0</ele><time>2026-05-01T19:27:52Z</time></trkpt><trkpt lat="47.021653479148924" lon="14.415286912320822"><ele>739.6666666666666</ele><time>2026-05-01T19:27:53Z</time></trkpt><trkpt lat="47.021468585866664" lon="14.415204275047515"><ele>741.3333333333333</ele><time>2026-05-01T19:27:54Z</time></trkpt><trkpt lat="47.021283275742256" lon="14.415122164265648"><ele>743.0</ele><time>2026-05-01T19:27:55Z</time></trkpt><trkpt lat="47.02110039023395" lon="14.415035266435074"><ele>743.0</ele><time>2026-05-01T19:27:56Z</time></trkpt><trkpt lat="47.02091758035552" lon="14.414937556832305"><ele>743.0</ele><time>2026-05-01T19:27:57Z</time></trkpt><trkpt lat="47.02073686695193" lon="14.414830081523153"><ele>743.0</ele><time>2026-05-01T19:27:58Z</time></trkpt><trkpt lat="47.02056195788626" lon="14.414710373303553"><ele>741.0</ele><time>2026-05-01T19:27:59Z</time></trkpt><trkpt lat="47.02039462428703" lon="14.414583678425354"><ele>739.0</ele><time>2026-05-01T19:28:00Z</time></trkpt><trkpt lat="47.02023048204363" lon="14.414447686928217"><ele>737.0</ele><time>2026-05-01T19:28:01Z</time></trkpt><trkpt lat="47.02007187957669" lon="14.414299089605983"><ele>736.3333333333333</ele><time>2026-05-01T19:28:02Z</time></trkpt><trkpt lat="47.01991720792768" lon="14.414139103191115"><ele>735.6666666666666</ele><time>2026-05-01T19:28:03Z</time></trkpt><trkpt lat="47.01977101867657" lon="14.41397131192067"><ele>735.0</ele><time>2026-05-01T19:28:04Z</time></trkpt><trkpt lat="47.01963048219095" lon="14.413795912235098"><ele>735.0</ele><time>2026-05-01T19:28:05Z</time></trkpt><trkpt lat="47.01949532086499" lon="14.413609349535704"><ele>735.0</ele><time>2026-05-01T19:28:06Z</time></trkpt><trkpt lat="47.01936676543083" lon="14.413416041756125"><ele>735.0</ele><time>2026-05-01T19:28:07Z</time></trkpt><trkpt lat="47.01924555443649" lon="14.413217477647148"><ele>735.6666666666666</ele><time>2026-05-01T19:28:08Z</time></trkpt><trkpt lat="47.01913072270897" lon="14.413013386911842"><ele>736.3333333333333</ele><time>2026-05-01T19:28:09Z</time></trkpt><trkpt lat="47.01902059240863" lon="14.412811395737004"><ele>737.0</ele><time>2026-05-01T19:28:10Z</time></trkpt><trkpt lat="47.01891230596102" lon="14.412606834292074"><ele>737.0</ele><time>2026-05-01T19:28:11Z</time></trkpt><trkpt lat="47.01880552930918" lon="14.412407360426936"><ele>737.0</ele><time>2026-05-01T19:28:12Z</time></trkpt><trkpt lat="47.018698535786015" lon="14.412212167432171"><ele>737.0</ele><time>2026-05-01T19:28:13Z</time></trkpt><trkpt lat="47.01858835094422" lon="14.412021284021156"><ele>737.6666666666666</ele><time>2026-05-01T19:28:14Z</time></trkpt><trkpt lat="47.01846929648997" lon="14.41183978262256"><ele>738.3333333333334</ele><time>2026-05-01T19:28:15Z</time></trkpt><trkpt lat="47.018346586372274" lon="14.411671213162"><ele>739.0</ele><time>2026-05-01T19:28:16Z</time></trkpt><trkpt lat="47.01821893713065" lon="14.411509972173729"><ele>739.0</ele><time>2026-05-01T19:28:17Z</time></trkpt><trkpt lat="47.018090333872046" lon="14.411359369235516"><ele>739.0</ele><time>2026-05-01T19:28:18Z</time></trkpt><trkpt lat="47.017960596480734" lon="14.41121455094541"><ele>739.0</ele><time>2026-05-01T19:28:19Z</time></trkpt><trkpt lat="47.01783115448672" lon="14.411070016390799"><ele>739.3333333333334</ele><time>2026-05-01T19:28:20Z</time></trkpt><trkpt lat="47.017702691857366" lon="14.410924809622967"><ele>739.6666666666666</ele><time>2026-05-01T19:28:21Z</time></trkpt><trkpt lat="47.01757672253392" lon="14.410779729384528"><ele>740.0</ele><time>2026-05-01T19:28:22Z</time></trkpt><trkpt lat="47.01745541415132" lon="14.41063304635848"><ele>739.3333333333333</ele><time>2026-05-01T19:28:23Z</time></trkpt><trkpt lat="47.017333733841355" lon="14.41047740784905"><ele>738.6666666666666</ele><time>2026-05-01T19:28:24Z</time></trkpt><trkpt lat="47.01721629853851" lon="14.410317077612259"><ele>738.0</ele><time>2026-05-01T19:28:25Z</time></trkpt><trkpt lat="47.01710219414452" lon="14.41015344888693"><ele>738.0</ele><time>2026-05-01T19:28:26Z</time></trkpt><trkpt lat="47.01699110208039" lon="14.409992354755078"><ele>738.0</ele><time>2026-05-01T19:28:27Z</time></trkpt><trkpt lat="47.01687665097015" lon="14.40983356958851"><ele>738.0</ele><time>2026-05-01T19:28:28.001Z</time></trkpt><trkpt lat="47.01675643048735" lon="14.409674638095822"><ele>738.6666666666666</ele><time>2026-05-01T19:28:29.001Z</time></trkpt><trkpt lat="47.01663350388873" lon="14.40951974529507"><ele>739.3333333333333</ele><time>2026-05-01T19:28:30.001Z</time></trkpt><trkpt lat="47.016507677415895" lon="14.409370151419978"><ele>740.0</ele><time>2026-05-01T19:28:31.001Z</time></trkpt><trkpt lat="47.01637870150646" lon="14.40922912643906"><ele>740.0</ele><time>2026-05-01T19:28:32.001Z</time></trkpt><trkpt lat="47.016246306976605" lon="14.409096077824154"><ele>740.0</ele><time>2026-05-01T19:28:33.001Z</time></trkpt><trkpt lat="47.01611027575397" lon="14.408969446954083"><ele>740.0</ele><time>2026-05-01T19:28:34.001Z</time></trkpt><trkpt lat="47.0159698784936" lon="14.408850565603062"><ele>739.6666666666666</ele><time>2026-05-01T19:28:35.001Z</time></trkpt><trkpt lat="47.01582914971309" lon="14.408737138780326"><ele>739.3333333333334</ele><time>2026-05-01T19:28:36.001Z</time></trkpt><trkpt lat="47.015685751276116" lon="14.408626512738044"><ele>739.0</ele><time>2026-05-01T19:28:37.001Z</time></trkpt><trkpt lat="47.01554095592025" lon="14.408514248175074"><ele>739.0</ele><time>2026-05-01T19:28:38.001Z</time></trkpt><trkpt lat="47.01540115669482" lon="14.408403903528647"><ele>739.0</ele><time>2026-05-01T19:28:39.001Z</time></trkpt><trkpt lat="47.01525882329311" lon="14.408296293750524"><ele>739.0</ele><time>2026-05-01T19:28:40.001Z</time></trkpt><trkpt lat="47.01511550237522" lon="14.408186650542968"><ele>739.0</ele><time>2026-05-01T19:28:41.001Z</time></trkpt><trkpt lat="47.014976154485836" lon="14.40807147438343"><ele>739.0</ele><time>2026-05-01T19:28:42.001Z</time></trkpt><trkpt lat="47.01483858056549" lon="14.407947641987805"><ele>739.0</ele><time>2026-05-01T19:28:43.001Z</time></trkpt><trkpt lat="47.01469879431761" lon="14.407823149717311"><ele>739.0</ele><time>2026-05-01T19:28:44.001Z</time></trkpt><trkpt lat="47.01455839611069" lon="14.407699802055621"><ele>739.0</ele><time>2026-05-01T19:28:45.001Z</time></trkpt><trkpt lat="47.01441722419476" lon="14.407577127838977"><ele>739.0</ele><time>2026-05-01T19:28:46.001Z</time></trkpt><trkpt lat="47.01427433526406" lon="14.407454744147438"><ele>739.0</ele><time>2026-05-01T19:28:47.001Z</time></trkpt><trkpt lat="47.01413167368703" lon="14.407323226602196"><ele>739.0</ele><time>2026-05-01T19:28:48.001Z</time></trkpt><trkpt lat="47.01398731405395" lon="14.407191827768779"><ele>739.0</ele><time>2026-05-01T19:28:49.001Z</time></trkpt><trkpt lat="47.013841842159984" lon="14.407052319447315"><ele>739.0</ele><time>2026-05-01T19:28:50.001Z</time></trkpt><trkpt lat="47.01369602089231" lon="14.40691942555037"><ele>739.0</ele><time>2026-05-01T19:28:51.001Z</time></trkpt><trkpt lat="47.01354977189582" lon="14.406790146431035"><ele>739.0</ele><time>2026-05-01T19:28:52.001Z</time></trkpt><trkpt lat="47.01339724043332" lon="14.406664857563912"><ele>737.0</ele><time>2026-05-01T19:28:53.001Z</time></trkpt><trkpt lat="47.01323953464673" lon="14.406543286554108"><ele>735.0</ele><time>2026-05-01T19:28:54.001Z</time></trkpt><trkpt lat="47.01307976177912" lon="14.406431465243951"><ele>733.0</ele><time>2026-05-01T19:28:55.001Z</time></trkpt><trkpt lat="47.01291768780314" lon="14.4063331994774"><ele>733.3333333333334</ele><time>2026-05-01T19:28:56.001Z</time></trkpt><trkpt lat="47.01275136692896" lon="14.406245573065473"><ele>733.6666666666666</ele><time>2026-05-01T19:28:57.001Z</time></trkpt><trkpt lat="47.012580146961966" lon="14.406168628840854"><ele>734.0</ele><time>2026-05-01T19:28:58.001Z</time></trkpt><trkpt lat="47.01240318344675" lon="14.406099527749465"><ele>734.0</ele><time>2026-05-01T19:28:59.001Z</time></trkpt><trkpt lat="47.012224925369054" lon="14.406040197633645"><ele>734.0</ele><time>2026-05-01T19:29:00.001Z</time></trkpt><trkpt lat="47.012044501569754" lon="14.405983083581024"><ele>734.0</ele><time>2026-05-01T19:29:01Z</time></trkpt><trkpt lat="47.0118638384068" lon="14.405921675822007"><ele>734.0</ele><time>2026-05-01T19:29:02Z</time></trkpt><trkpt lat="47.0116818484969" lon="14.405854700489746"><ele>734.0</ele><time>2026-05-01T19:29:03Z</time></trkpt><trkpt lat="47.01150448457985" lon="14.405775128544606"><ele>734.0</ele><time>2026-05-01T19:29:04Z</time></trkpt><trkpt lat="47.0113264383975" lon="14.405681588093513"><ele>734.3333333333333</ele><time>2026-05-01T19:29:05Z</time></trkpt><trkpt lat="47.01115013847106" lon="14.405566970434238"><ele>734.6666666666666</ele><time>2026-05-01T19:29:06Z</time></trkpt><trkpt lat="47.010975672137306" lon="14.405435357947331"><ele>735.0</ele><time>2026-05-01T19:29:07Z</time></trkpt><trkpt lat="47.010806206609864" lon="14.405286035375331"><ele>731.3333333333334</ele><time>2026-05-01T19:29:08Z</time></trkpt><trkpt lat="47.010640083396126" lon="14.40512170098671"><ele>727.6666666666667</ele><time>2026-05-01T19:29:09Z</time></trkpt><trkpt lat="47.01048364060817" lon="14.404944067772057"><ele>724.0</ele><time>2026-05-01T19:29:10Z</time></trkpt><trkpt lat="47.010336886154" lon="14.404751142551344"><ele>724.0</ele><time>2026-05-01T19:29:11Z</time></trkpt><trkpt lat="47.01019833793068" lon="14.40454351702345"><ele>724.0</ele><time>2026-05-01T19:29:12Z</time></trkpt><trkpt lat="47.010067062343566" lon="14.404319683600503"><ele>724.0</ele><time>2026-05-01T19:29:13Z</time></trkpt><trkpt lat="47.009946600542236" lon="14.404088692703024"><ele>724.0</ele><time>2026-05-01T19:29:14Z</time></trkpt><trkpt lat="47.00983624250927" lon="14.403844429557495"><ele>724.0</ele><time>2026-05-01T19:29:15Z</time></trkpt><trkpt lat="47.009739330042436" lon="14.403592978762136"><ele>724.0</ele><time>2026-05-01T19:29:16Z</time></trkpt><trkpt lat="47.00965203703801" lon="14.403333257535698"><ele>722.6666666666667</ele><time>2026-05-01T19:29:17Z</time></trkpt><trkpt lat="47.009576523154195" lon="14.403068779250274"><ele>721.3333333333334</ele><time>2026-05-01T19:29:18Z</time></trkpt><trkpt lat="47.00950687953648" lon="14.402798121221625"><ele>720.0</ele><time>2026-05-01T19:29:19Z</time></trkpt><trkpt lat="47.00944016512238" lon="14.402531147733047"><ele>719.3333333333334</ele><time>2026-05-01T19:29:20Z</time></trkpt><trkpt lat="47.009374528933236" lon="14.402267027656203"><ele>718.6666666666667</ele><time>2026-05-01T19:29:21Z</time></trkpt><trkpt lat="47.009311539181695" lon="14.402007953990566"><ele>718.0</ele><time>2026-05-01T19:29:22Z</time></trkpt><trkpt lat="47.009245034713665" lon="14.401744566681"><ele>717.3333333333334</ele><time>2026-05-01T19:29:23Z</time></trkpt><trkpt lat="47.00916945271722" lon="14.401482209580504"><ele>716.6666666666666</ele><time>2026-05-01T19:29:24Z</time></trkpt><trkpt lat="47.00908126055275" lon="14.401230341606091"><ele>716.0</ele><time>2026-05-01T19:29:25Z</time></trkpt><trkpt lat="47.00897949779305" lon="14.400990740847945"><ele>716.0</ele><time>2026-05-01T19:29:26Z</time></trkpt><trkpt lat="47.00886202745393" lon="14.400765508004804"><ele>716.0</ele><time>2026-05-01T19:29:27Z</time></trkpt><trkpt lat="47.00873321631777" lon="14.400554341166226"><ele>716.0</ele><time>2026-05-01T19:29:28Z</time></trkpt><trkpt lat="47.00858961579705" lon="14.400358204231395"><ele>715.3333333333333</ele><time>2026-05-01T19:29:29Z</time></trkpt><trkpt lat="47.008435567726494" lon="14.400182748496539"><ele>714.6666666666666</ele><time>2026-05-01T19:29:30Z</time></trkpt><trkpt lat="47.00827309428254" lon="14.400027418989305"><ele>714.0</ele><time>2026-05-01T19:29:31Z</time></trkpt><trkpt lat="47.00810263961287" lon="14.399897588262828"><ele>714.0</ele><time>2026-05-01T19:29:32Z</time></trkpt><trkpt lat="47.00792494638104" lon="14.399787131179854"><ele>714.0</ele><time>2026-05-01T19:29:33Z</time></trkpt><trkpt lat="47.00774132028283" lon="14.399698885147297"><ele>714.0</ele><time>2026-05-01T19:29:34Z</time></trkpt><trkpt lat="47.0075547751083" lon="14.399629279286517"><ele>715.6666666666666</ele><time>2026-05-01T19:29:35Z</time></trkpt><trkpt lat="47.007364056499775" lon="14.39957528600068"><ele>717.3333333333333</ele><time>2026-05-01T19:29:36Z</time></trkpt><trkpt lat="47.00717085070336" lon="14.399533895484725"><ele>719.0</ele><time>2026-05-01T19:29:37Z</time></trkpt><trkpt lat="47.00697950141387" lon="14.399499060459208"><ele>719.0</ele><time>2026-05-01T19:29:38Z</time></trkpt><trkpt lat="47.00679086539021" lon="14.399462350828669"><ele>719.0</ele><time>2026-05-01T19:29:39Z</time></trkpt><trkpt lat="47.00660455487962" lon="14.39941647487071"><ele>719.0</ele><time>2026-05-01T19:29:40Z</time></trkpt><trkpt lat="47.00641798748603" lon="14.39935869217758"><ele>716.0</ele><time>2026-05-01T19:29:41Z</time></trkpt><trkpt lat="47.006234744571294" lon="14.399289897391549"><ele>713.0</ele><time>2026-05-01T19:29:42Z</time></trkpt><trkpt lat="47.0060535557075" lon="14.399207078556223"><ele>710.0</ele><time>2026-05-01T19:29:43Z</time></trkpt><trkpt lat="47.00587567553302" lon="14.399105558018407"><ele>710.3333333333333</ele><time>2026-05-01T19:29:44Z</time></trkpt><trkpt lat="47.00570504658225" lon="14.39898780880373"><ele>710.6666666666666</ele><time>2026-05-01T19:29:45Z</time></trkpt><trkpt lat="47.005538971994596" lon="14.398855225750317"><ele>711.0</ele><time>2026-05-01T19:29:46Z</time></trkpt><trkpt lat="47.00537655359795" lon="14.398706442528377"><ele>711.0</ele><time>2026-05-01T19:29:47Z</time></trkpt><trkpt lat="47.00522183583797" lon="14.398547452150567"><ele>711.0</ele><time>2026-05-01T19:29:48Z</time></trkpt><trkpt lat="47.00507613054107" lon="14.398381403494323"><ele>711.0</ele><time>2026-05-01T19:29:49Z</time></trkpt><trkpt lat="47.00494305758596" lon="14.39821138894406"><ele>712.0</ele><time>2026-05-01T19:29:50Z</time></trkpt><trkpt lat="47.004812578912066" lon="14.398034556795062"><ele>713.0</ele><time>2026-05-01T19:29:51Z</time></trkpt><trkpt lat="47.004683007969504" lon="14.397857694586284"><ele>714.0</ele><time>2026-05-01T19:29:52Z</time></trkpt><trkpt lat="47.00455346857883" lon="14.397682520143805"><ele>711.3333333333334</ele><time>2026-05-01T19:29:53Z</time></trkpt><trkpt lat="47.004427735520785" lon="14.397516507181981"><ele>708.6666666666667</ele><time>2026-05-01T19:29:54Z</time></trkpt><trkpt lat="47.0043039122082" lon="14.397359371517135"><ele>706.0</ele><time>2026-05-01T19:29:55Z</time></trkpt><trkpt lat="47.004177416299655" lon="14.397216242672052"><ele>704.6666666666667</ele><time>2026-05-01T19:29:56Z</time></trkpt><trkpt lat="47.004045856687725" lon="14.397079576411826"><ele>703.3333333333334</ele><time>2026-05-01T19:29:57Z</time></trkpt><trkpt lat="47.003906982983814" lon="14.396954470744928"><ele>702.0</ele><time>2026-05-01T19:29:58Z</time></trkpt><trkpt lat="47.003763637136664" lon="14.396848577061299"><ele>702.0</ele><time>2026-05-01T19:29:59Z</time></trkpt><trkpt lat="47.00361282902116" lon="14.3967506159172"><ele>702.0</ele><time>2026-05-01T19:30:00Z</time></trkpt><trkpt lat="47.00345881408888" lon="14.396653075862009"><ele>702.0</ele><time>2026-05-01T19:30:01Z</time></trkpt><trkpt lat="47.00331416535048" lon="14.396558741441671"><ele>699.0</ele><time>2026-05-01T19:30:02Z</time></trkpt><trkpt lat="47.00317150304504" lon="14.396463698286576"><ele>696.0</ele><time>2026-05-01T19:30:03Z</time></trkpt><trkpt lat="47.003029855349645" lon="14.396365773101696"><ele>693.0</ele><time>2026-05-01T19:30:04Z</time></trkpt><trkpt lat="47.002890120237794" lon="14.396256211101127"><ele>692.6666666666666</ele><time>2026-05-01T19:30:05Z</time></trkpt><trkpt lat="47.00275348278117" lon="14.396133107954908"><ele>692.3333333333333</ele><time>2026-05-01T19:30:06Z</time></trkpt><trkpt lat="47.00261942418623" lon="14.395997435941966"><ele>692.0</ele><time>2026-05-01T19:30:07Z</time></trkpt><trkpt lat="47.002488126860975" lon="14.39584715568436"><ele>690.3333333333333</ele><time>2026-05-01T19:30:08Z</time></trkpt><trkpt lat="47.002362756532385" lon="14.39568667295892"><ele>688.6666666666666</ele><time>2026-05-01T19:30:09Z</time></trkpt><trkpt lat="47.002244830385955" lon="14.395514640986988"><ele>687.0</ele><time>2026-05-01T19:30:10Z</time></trkpt><trkpt lat="47.00212995001769" lon="14.39533263831879"><ele>687.0</ele><time>2026-05-01T19:30:11Z</time></trkpt><trkpt lat="47.002027200963106" lon="14.395150936370765"><ele>687.0</ele><time>2026-05-01T19:30:12Z</time></trkpt><trkpt lat="47.001929545981206" lon="14.394973597244972"><ele>687.0</ele><time>2026-05-01T19:30:13Z</time></trkpt><trkpt lat="47.00183260776426" lon="14.394794586807222"><ele>685.6666666666666</ele><time>2026-05-01T19:30:14Z</time></trkpt><trkpt lat="47.001735197635874" lon="14.39461633265154"><ele>684.3333333333333</ele><time>2026-05-01T19:30:15Z</time></trkpt><trkpt lat="47.00163304788331" lon="14.394439048586143"><ele>683.0</ele><time>2026-05-01T19:30:16Z</time></trkpt><trkpt lat="47.001521651946824" lon="14.394272168631252"><ele>683.0</ele><time>2026-05-01T19:30:17Z</time></trkpt><trkpt lat="47.00139944161077" lon="14.39411883166239"><ele>683.0</ele><time>2026-05-01T19:30:18Z</time></trkpt><trkpt lat="47.00126525553072" lon="14.393977450266679"><ele>683.0</ele><time>2026-05-01T19:30:19Z</time></trkpt><trkpt lat="47.00112237384" lon="14.393851880646523"><ele>681.6666666666666</ele><time>2026-05-01T19:30:20Z</time></trkpt><trkpt lat="47.000976703026936" lon="14.393740485177485"><ele>680.3333333333334</ele><time>2026-05-01T19:30:21Z</time></trkpt><trkpt lat="47.000826255746176" lon="14.393630711964034"><ele>679.0</ele><time>2026-05-01T19:30:22Z</time></trkpt><trkpt lat="47.000675167772194" lon="14.393524519572425"><ele>679.0</ele><time>2026-05-01T19:30:23Z</time></trkpt><trkpt lat="47.00052265589551" lon="14.393421058412208"><ele>679.0</ele><time>2026-05-01T19:30:24Z</time></trkpt><trkpt lat="47.00036958938098" lon="14.393315978937826"><ele>679.0</ele><time>2026-05-01T19:30:25Z</time></trkpt><trkpt lat="47.00021750625654" lon="14.393206778278287"><ele>679.0</ele><time>2026-05-01T19:30:26Z</time></trkpt><trkpt lat="47.0000682549025" lon="14.393095661729271"><ele>679.0</ele><time>2026-05-01T19:30:27Z</time></trkpt><trkpt lat="46.99992317717397" lon="14.392984780802388"><ele>679.0</ele><time>2026-05-01T19:30:28Z</time></trkpt><trkpt lat="46.999774837957666" lon="14.392872992033201"><ele>679.3333333333334</ele><time>2026-05-01T19:30:29Z</time></trkpt><trkpt lat="46.9996305108983" lon="14.392763757079171"><ele>679.6666666666666</ele><time>2026-05-01T19:30:30Z</time></trkpt><trkpt lat="46.999488537203334" lon="14.392656097858868"><ele>680.0</ele><time>2026-05-01T19:30:31Z</time></trkpt><trkpt lat="46.999352220990204" lon="14.392551128146541"><ele>680.0</ele><time>2026-05-01T19:30:32Z</time></trkpt><trkpt lat="46.999226015611" lon="14.392453267905674"><ele>680.0</ele><time>2026-05-01T19:30:33Z</time></trkpt><trkpt lat="46.999106166078256" lon="14.392359984435105"><ele>680.0</ele><time>2026-05-01T19:30:34Z</time></trkpt><trkpt lat="46.99898810196625" lon="14.392270525146103"><ele>680.0</ele><time>2026-05-01T19:30:35Z</time></trkpt><trkpt lat="46.99887525716428" lon="14.392189554192818"><ele>679.5</ele><time>2026-05-01T19:30:36Z</time></trkpt><trkpt lat="46.998766444577875" lon="14.392114598303271"><ele>679.0</ele><time>2026-05-01T19:30:37.001Z</time></trkpt><trkpt lat="46.99866364723679" lon="14.392048569855111"><ele>678.5</ele><time>2026-05-01T19:30:38.001Z</time></trkpt><trkpt lat="46.998561790476394" lon="14.391988168123236"><ele>678.0</ele><time>2026-05-01T19:30:39.001Z</time></trkpt><trkpt lat="46.99845808712552" lon="14.391934836752418"><ele>678.0</ele><time>2026-05-01T19:30:40.001Z</time></trkpt><trkpt lat="46.99835345772872" lon="14.391889350022769"><ele>678.0</ele><time>2026-05-01T19:30:41.001Z</time></trkpt><trkpt lat="46.99824626553251" lon="14.391848932847076"><ele>678.0</ele><time>2026-05-01T19:30:42.001Z</time></trkpt><trkpt lat="46.998137374439324" lon="14.391815100362187"><ele>678.0</ele><time>2026-05-01T19:30:43.001Z</time></trkpt><trkpt lat="46.998029471106506" lon="14.39178537736723"><ele>678.0</ele><time>2026-05-01T19:30:44.001Z</time></trkpt><trkpt lat="46.99791980677625" lon="14.391758672574712"><ele>676.4</ele><time>2026-05-01T19:30:45.001Z</time></trkpt><trkpt lat="46.99781098371471" lon="14.391734792638882"><ele>674.8</ele><time>2026-05-01T19:30:46.001Z</time></trkpt><trkpt lat="46.997701991579774" lon="14.391711424528486"><ele>673.2</ele><time>2026-05-01T19:30:47.001Z</time></trkpt><trkpt lat="46.99759087324007" lon="14.39168734822788"><ele>671.6</ele><time>2026-05-01T19:30:48.001Z</time></trkpt><trkpt lat="46.99747981879627" lon="14.391662844451805"><ele>670.0</ele><time>2026-05-01T19:30:49.001Z</time></trkpt><trkpt lat="46.99736785702785" lon="14.391638756761726"><ele>669.5</ele><time>2026-05-01T19:30:50.001Z</time></trkpt><trkpt lat="46.99725659375876" lon="14.391618352221775"><ele>669.0</ele><time>2026-05-01T19:30:51.001Z</time></trkpt><trkpt lat="46.99714595937098" lon="14.39159492609785"><ele>668.5</ele><time>2026-05-01T19:30:52.001Z</time></trkpt><trkpt lat="46.99703301129102" lon="14.391569806342687"><ele>668.0</ele><time>2026-05-01T19:30:53.001Z</time></trkpt><trkpt lat="46.99691944952457" lon="14.391545018767951"><ele>668.0</ele><time>2026-05-01T19:30:54.001Z</time></trkpt><trkpt lat="46.996804023255116" lon="14.391519839678137"><ele>668.0</ele><time>2026-05-01T19:30:55.001Z</time></trkpt><trkpt lat="46.996688254347504" lon="14.391495187931381"><ele>668.0</ele><time>2026-05-01T19:30:56.001Z</time></trkpt><trkpt lat="46.99657050566936" lon="14.391469999177273"><ele>668.0</ele><time>2026-05-01T19:30:57.001Z</time></trkpt><trkpt lat="46.996452171701605" lon="14.391445356293769"><ele>668.25</ele><time>2026-05-01T19:30:58.001Z</time></trkpt><trkpt lat="46.99633438331195" lon="14.391420627338057"><ele>668.5</ele><time>2026-05-01T19:30:59.001Z</time></trkpt><trkpt lat="46.99621615311453" lon="14.391394828488496"><ele>668.75</ele><time>2026-05-01T19:31:00.001Z</time></trkpt><trkpt lat="46.996097062627754" lon="14.391367216615532"><ele>669.0</ele><time>2026-05-01T19:31:01.001Z</time></trkpt><trkpt lat="46.995979256573314" lon="14.391337369646177"><ele>669.0</ele><time>2026-05-01T19:31:02.001Z</time></trkpt><trkpt lat="46.995862244397486" lon="14.391299931984165"><ele>669.0</ele><time>2026-05-01T19:31:03.001Z</time></trkpt><trkpt lat="46.995746838028516" lon="14.391256814258243"><ele>669.0</ele><time>2026-05-01T19:31:04.001Z</time></trkpt><trkpt lat="46.995633995479444" lon="14.39121017622764"><ele>669.0</ele><time>2026-05-01T19:31:05.001Z</time></trkpt><trkpt lat="46.99552050800088" lon="14.39116110697132"><ele>668.5</ele><time>2026-05-01T19:31:06.001Z</time></trkpt><trkpt lat="46.99540756670402" lon="14.391113883017763"><ele>668.0</ele><time>2026-05-01T19:31:07Z</time></trkpt><trkpt lat="46.99529369025661" lon="14.391068463481762"><ele>667.5</ele><time>2026-05-01T19:31:08Z</time></trkpt><trkpt lat="46.995180832834635" lon="14.391023564731444"><ele>667.0</ele><time>2026-05-01T19:31:09Z</time></trkpt><trkpt lat="46.995068870145325" lon="14.39097926003847"><ele>667.75</ele><time>2026-05-01T19:31:10Z</time></trkpt><trkpt lat="46.99495813068012" lon="14.390936043494245"><ele>668.5</ele><time>2026-05-01T19:31:11Z</time></trkpt><trkpt lat="46.99484909850884" lon="14.390893090585077"><ele>669.25</ele><time>2026-05-01T19:31:12Z</time></trkpt><trkpt lat="46.994741865438286" lon="14.390851493094152"><ele>670.0</ele><time>2026-05-01T19:31:13Z</time></trkpt><trkpt lat="46.99463244490894" lon="14.390807977411129"><ele>670.0</ele><time>2026-05-01T19:31:14Z</time></trkpt><trkpt lat="46.99452133102971" lon="14.390762487099128"><ele>670.0</ele><time>2026-05-01T19:31:15Z</time></trkpt><trkpt lat="46.994409955982995" lon="14.390716900355041"><ele>670.0</ele><time>2026-05-01T19:31:16Z</time></trkpt><trkpt lat="46.99429859933361" lon="14.390670670247845"><ele>670.0</ele><time>2026-05-01T19:31:17Z</time></trkpt><trkpt lat="46.99418602171336" lon="14.390624950160474"><ele>669.25</ele><time>2026-05-01T19:31:18Z</time></trkpt><trkpt lat="46.994071629691035" lon="14.390580336708537"><ele>668.5</ele><time>2026-05-01T19:31:19Z</time></trkpt><trkpt lat="46.993956441221364" lon="14.39053742005706"><ele>667.75</ele><time>2026-05-01T19:31:20Z</time></trkpt><trkpt lat="46.993840519848504" lon="14.390496217553796"><ele>667.0</ele><time>2026-05-01T19:31:21Z</time></trkpt><trkpt lat="46.9937251471484" lon="14.390457795796507"><ele>667.0</ele><time>2026-05-01T19:31:22Z</time></trkpt><trkpt lat="46.99360858391208" lon="14.390419811611709"><ele>667.0</ele><time>2026-05-01T19:31:23Z</time></trkpt><trkpt lat="46.993492601244625" lon="14.390381792982554"><ele>667.0</ele><time>2026-05-01T19:31:24Z</time></trkpt><trkpt lat="46.993377550826395" lon="14.390345842783521"><ele>667.0</ele><time>2026-05-01T19:31:25Z</time></trkpt><trkpt lat="46.99326232586436" lon="14.390311220055851"><ele>667.0</ele><time>2026-05-01T19:31:26Z</time></trkpt><trkpt lat="46.9931474948011" lon="14.390276492540345"><ele>667.0</ele><time>2026-05-01T19:31:27Z</time></trkpt><trkpt lat="46.993033484445796" lon="14.390241013825666"><ele>667.0</ele><time>2026-05-01T19:31:28Z</time></trkpt><trkpt lat="46.99292130213635" lon="14.39020446700212"><ele>667.0</ele><time>2026-05-01T19:31:29Z</time></trkpt><trkpt lat="46.992809430859054" lon="14.390165735365189"><ele>667.0</ele><time>2026-05-01T19:31:30Z</time></trkpt><trkpt lat="46.992700381301226" lon="14.39012854758338"><ele>667.0</ele><time>2026-05-01T19:31:31Z</time></trkpt><trkpt lat="46.99259197131066" lon="14.390091887487964"><ele>667.0</ele><time>2026-05-01T19:31:32Z</time></trkpt><trkpt lat="46.99248158887616" lon="14.390052911577977"><ele>667.0</ele><time>2026-05-01T19:31:33Z</time></trkpt><trkpt lat="46.99237014955888" lon="14.390014056800242"><ele>668.0</ele><time>2026-05-01T19:31:34Z</time></trkpt><trkpt lat="46.99225590354891" lon="14.389973995924127"><ele>669.0</ele><time>2026-05-01T19:31:35Z</time></trkpt><trkpt lat="46.99214166435788" lon="14.389935575758336"><ele>670.0</ele><time>2026-05-01T19:31:36Z</time></trkpt><trkpt lat="46.99202656536824" lon="14.389900605310615"><ele>671.0</ele><time>2026-05-01T19:31:37Z</time></trkpt><trkpt lat="46.99191328912529" lon="14.389867957677902"><ele>671.0</ele><time>2026-05-01T19:31:38Z</time></trkpt><trkpt lat="46.991805570416766" lon="14.3898399648784"><ele>671.0</ele><time>2026-05-01T19:31:39Z</time></trkpt><trkpt lat="46.99169659647087" lon="14.389815172801821"><ele>671.0</ele><time>2026-05-01T19:31:40Z</time></trkpt><trkpt lat="46.99158523511189" lon="14.389792689836533"><ele>671.0</ele><time>2026-05-01T19:31:41Z</time></trkpt><trkpt lat="46.99147419478257" lon="14.389772664443715"><ele>671.0</ele><time>2026-05-01T19:31:42Z</time></trkpt><trkpt lat="46.991361785249765" lon="14.389756076224668"><ele>672.25</ele><time>2026-05-01T19:31:43Z</time></trkpt><trkpt lat="46.99124871086989" lon="14.389741852761745"><ele>673.5</ele><time>2026-05-01T19:31:44Z</time></trkpt><trkpt lat="46.9911355666101" lon="14.389731048257087"><ele>674.75</ele><time>2026-05-01T19:31:45Z</time></trkpt><trkpt lat="46.99102325079976" lon="14.389723643984894"><ele>676.0</ele><time>2026-05-01T19:31:46Z</time></trkpt><trkpt lat="46.990912230402806" lon="14.389718156064536"><ele>674.4</ele><time>2026-05-01T19:31:47Z</time></trkpt><trkpt lat="46.990802961902425" lon="14.389716676759784"><ele>672.8</ele><time>2026-05-01T19:31:48Z</time></trkpt><trkpt lat="46.9906932510282" lon="14.389716210492638"><ele>671.1999999999999</ele><time>2026-05-01T19:31:49Z</time></trkpt><trkpt lat="46.99058598105468" lon="14.389720300193824"><ele>669.5999999999999</ele><time>2026-05-01T19:31:50Z</time></trkpt><trkpt lat="46.99047815721583" lon="14.389726710174019"><ele>668.0</ele><time>2026-05-01T19:31:51Z</time></trkpt><trkpt lat="46.99037077436384" lon="14.389736331551704"><ele>668.0</ele><time>2026-05-01T19:31:52Z</time></trkpt><trkpt lat="46.99026206324614" lon="14.389747892368204"><ele>668.0</ele><time>2026-05-01T19:31:53Z</time></trkpt><trkpt lat="46.99015045457437" lon="14.389759995028914"><ele>668.0</ele><time>2026-05-01T19:31:54Z</time></trkpt><trkpt lat="46.99003837769935" lon="14.389774061257473"><ele>668.0</ele><time>2026-05-01T19:31:55Z</time></trkpt><trkpt lat="46.98992410977024" lon="14.38979132499269"><ele>668.0</ele><time>2026-05-01T19:31:56Z</time></trkpt><trkpt lat="46.98980907177299" lon="14.389812246587004"><ele>667.5</ele><time>2026-05-01T19:31:57Z</time></trkpt><trkpt lat="46.98969232913942" lon="14.389836745215831"><ele>667.0</ele><time>2026-05-01T19:31:58Z</time></trkpt><trkpt lat="46.989574800753324" lon="14.38986614195173"><ele>666.5</ele><time>2026-05-01T19:31:59Z</time></trkpt><trkpt lat="46.98945769520533" lon="14.389897494323012"><ele>666.0</ele><time>2026-05-01T19:32:00Z</time></trkpt><trkpt lat="46.98934007799212" lon="14.38992952344034"><ele>666.0</ele><time>2026-05-01T19:32:01Z</time></trkpt><trkpt lat="46.98922306394017" lon="14.389964694861868"><ele>666.0</ele><time>2026-05-01T19:32:02Z</time></trkpt><trkpt lat="46.989106999623836" lon="14.390001014113027"><ele>666.0</ele><time>2026-05-01T19:32:03Z</time></trkpt><trkpt lat="46.98899142327723" lon="14.390039209238179"><ele>666.0</ele><time>2026-05-01T19:32:04Z</time></trkpt><trkpt lat="46.98887614659" lon="14.390079353840559"><ele>665.0</ele><time>2026-05-01T19:32:05Z</time></trkpt><trkpt lat="46.98875781002594" lon="14.390120829660894"><ele>664.0</ele><time>2026-05-01T19:32:06Z</time></trkpt><trkpt lat="46.98863900327562" lon="14.390159760163142"><ele>663.0</ele><time>2026-05-01T19:32:07Z</time></trkpt><trkpt lat="46.98851890076432" lon="14.390197181752496"><ele>662.0</ele><time>2026-05-01T19:32:08Z</time></trkpt><trkpt lat="46.98839918599083" lon="14.390233668682763"><ele>661.0</ele><time>2026-05-01T19:32:09Z</time></trkpt><trkpt lat="46.98827683765822" lon="14.390267105912692"><ele>660.0</ele><time>2026-05-01T19:32:10Z</time></trkpt><trkpt lat="46.988155491771685" lon="14.390296088053807"><ele>659.0</ele><time>2026-05-01T19:32:11Z</time></trkpt><trkpt lat="46.988033336307346" lon="14.390317026455284"><ele>658.0</ele><time>2026-05-01T19:32:12Z</time></trkpt><trkpt lat="46.98791036906858" lon="14.390335775398023"><ele>658.0</ele><time>2026-05-01T19:32:13Z</time></trkpt><trkpt lat="46.98778279179733" lon="14.390353785729086"><ele>658.0</ele><time>2026-05-01T19:32:14Z</time></trkpt><trkpt lat="46.98765122959016" lon="14.390372351156357"><ele>658.0</ele><time>2026-05-01T19:32:15Z</time></trkpt><trkpt lat="46.98751403709031" lon="14.390393285014941"><ele>658.0</ele><time>2026-05-01T19:32:16Z</time></trkpt><trkpt lat="46.987372006215594" lon="14.39041642329114"><ele>658.0</ele><time>2026-05-01T19:32:17Z</time></trkpt><trkpt lat="46.98722596677651" lon="14.390441434759412"><ele>658.0</ele><time>2026-05-01T19:32:18Z</time></trkpt><trkpt lat="46.98707464215021" lon="14.3904680304307"><ele>658.0</ele><time>2026-05-01T19:32:19Z</time></trkpt><trkpt lat="46.98691948496935" lon="14.390496177510018"><ele>658.0</ele><time>2026-05-01T19:32:20Z</time></trkpt><trkpt lat="46.98676240815796" lon="14.390525574647832"><ele>658.0</ele><time>2026-05-01T19:32:21Z</time></trkpt><trkpt lat="46.98660812164757" lon="14.390552265028026"><ele>658.0</ele><time>2026-05-01T19:32:22Z</time></trkpt><trkpt lat="46.98645041585972" lon="14.39057836414271"><ele>658.0</ele><time>2026-05-01T19:32:23Z</time></trkpt><trkpt lat="46.98628693348556" lon="14.390604039154672"><ele>658.0</ele><time>2026-05-01T19:32:24Z</time></trkpt><trkpt lat="46.986120083404565" lon="14.390631218424932"><ele>658.0</ele><time>2026-05-01T19:32:25Z</time></trkpt><trkpt lat="46.985948154415524" lon="14.390658075181522"><ele>657.3333333333334</ele><time>2026-05-01T19:32:26Z</time></trkpt><trkpt lat="46.98577625178291" lon="14.390685771073647"><ele>656.6666666666666</ele><time>2026-05-01T19:32:27Z</time></trkpt><trkpt lat="46.98560231931984" lon="14.39071573670825"><ele>656.0</ele><time>2026-05-01T19:32:28Z</time></trkpt><trkpt lat="46.985427034907545" lon="14.39074595262615"><ele>656.0</ele><time>2026-05-01T19:32:29Z</time></trkpt><trkpt lat="46.98525257526426" lon="14.390777481922724"><ele>656.0</ele><time>2026-05-01T19:32:30Z</time></trkpt><trkpt lat="46.98508088878759" lon="14.390807541814471"><ele>656.0</ele><time>2026-05-01T19:32:31Z</time></trkpt><trkpt lat="46.98491127913622" lon="14.390837714800385"><ele>656.0</ele><time>2026-05-01T19:32:32Z</time></trkpt><trkpt lat="46.98474291801045" lon="14.390865859296866"><ele>656.0</ele><time>2026-05-01T19:32:33Z</time></trkpt><trkpt lat="46.98457239132433" lon="14.390897458172683"><ele>656.0</ele><time>2026-05-01T19:32:34Z</time></trkpt><trkpt lat="46.98440305196831" lon="14.39093100683295"><ele>656.0</ele><time>2026-05-01T19:32:35Z</time></trkpt><trkpt lat="46.984229972937705" lon="14.390962735851529"><ele>656.0</ele><time>2026-05-01T19:32:36Z</time></trkpt><trkpt lat="46.984055377525785" lon="14.390993238305553"><ele>656.0</ele><time>2026-05-01T19:32:37Z</time></trkpt><trkpt lat="46.98387894990785" lon="14.391024901109844"><ele>656.0</ele><time>2026-05-01T19:32:38Z</time></trkpt><trkpt lat="46.98369884551854" lon="14.391057671710563"><ele>656.0</ele><time>2026-05-01T19:32:39Z</time></trkpt><trkpt lat="46.98351931554542" lon="14.391089858998132"><ele>656.0</ele><time>2026-05-01T19:32:40Z</time></trkpt><trkpt lat="46.98334092344165" lon="14.391120845056232"><ele>656.0</ele><time>2026-05-01T19:32:41Z</time></trkpt><trkpt lat="46.983166177466344" lon="14.391151565991539"><ele>656.0</ele><time>2026-05-01T19:32:42Z</time></trkpt><trkpt lat="46.98299476369743" lon="14.391183516938927"><ele>656.0</ele><time>2026-05-01T19:32:43Z</time></trkpt><trkpt lat="46.982822552018945" lon="14.391214349432435"><ele>656.0</ele><time>2026-05-01T19:32:44Z</time></trkpt><trkpt lat="46.98264891866615" lon="14.391243902652416"><ele>656.0</ele><time>2026-05-01T19:32:45Z</time></trkpt><trkpt lat="46.982472584417614" lon="14.391275525848387"><ele>656.0</ele><time>2026-05-01T19:32:46Z</time></trkpt><trkpt lat="46.98229821505167" lon="14.391310183864753"><ele>656.3333333333333</ele><time>2026-05-01T19:32:47.001Z</time></trkpt><trkpt lat="46.98212441137522" lon="14.391345100855261"><ele>656.6666666666666</ele><time>2026-05-01T19:32:48.001Z</time></trkpt><trkpt lat="46.9819513599629" lon="14.391377571590324"><ele>657.0</ele><time>2026-05-01T19:32:49.001Z</time></trkpt><trkpt lat="46.9817793369357" lon="14.391411063042275"><ele>657.3333333333334</ele><time>2026-05-01T19:32:50.001Z</time></trkpt><trkpt lat="46.98160890762507" lon="14.391442362861877"><ele>657.6666666666667</ele><time>2026-05-01T19:32:51.001Z</time></trkpt><trkpt lat="46.981437925857676" lon="14.391471105447975"><ele>658.0</ele><time>2026-05-01T19:32:52.001Z</time></trkpt><trkpt lat="46.9812662741509" lon="14.391503495647285"><ele>658.0</ele><time>2026-05-01T19:32:53.001Z</time></trkpt><trkpt lat="46.981101085904335" lon="14.391542152734159"><ele>658.0</ele><time>2026-05-01T19:32:54.001Z</time></trkpt><trkpt lat="46.98092918573853" lon="14.391576611652686"><ele>658.0</ele><time>2026-05-01T19:32:55.001Z</time></trkpt><trkpt lat="46.980759883064394" lon="14.391611103090176"><ele>658.3333333333334</ele><time>2026-05-01T19:32:56.001Z</time></trkpt><trkpt lat="46.98059144918429" lon="14.391644108037118"><ele>658.6666666666666</ele><time>2026-05-01T19:32:57.001Z</time></trkpt><trkpt lat="46.98042241441944" lon="14.391678722328104"><ele>659.0</ele><time>2026-05-01T19:32:58.001Z</time></trkpt><trkpt lat="46.98025306875241" lon="14.391714768683356"><ele>659.0</ele><time>2026-05-01T19:32:59.001Z</time></trkpt><trkpt lat="46.98008273600197" lon="14.391751342561186"><ele>659.0</ele><time>2026-05-01T19:33:00.001Z</time></trkpt><trkpt lat="46.97990649405803" lon="14.391787481356491"><ele>659.0</ele><time>2026-05-01T19:33:01.001Z</time></trkpt><trkpt lat="46.97973816605721" lon="14.391819493658726"><ele>659.6666666666666</ele><time>2026-05-01T19:33:02.001Z</time></trkpt><trkpt lat="46.97956244868467" lon="14.391854855400167"><ele>660.3333333333334</ele><time>2026-05-01T19:33:03.001Z</time></trkpt><trkpt lat="46.97937921610369" lon="14.391892966841604"><ele>661.0</ele><time>2026-05-01T19:33:04.001Z</time></trkpt><trkpt lat="46.97919528598469" lon="14.391932118187407"><ele>660.0</ele><time>2026-05-01T19:33:05.001Z</time></trkpt><trkpt lat="46.979013946120304" lon="14.391972296825"><ele>659.0</ele><time>2026-05-01T19:33:06.001Z</time></trkpt><trkpt lat="46.978833859768805" lon="14.392014239239126"><ele>658.0</ele><time>2026-05-01T19:33:07.001Z</time></trkpt><trkpt lat="46.978656195971865" lon="14.39205540810437"><ele>658.0</ele><time>2026-05-01T19:33:08.001Z</time></trkpt><trkpt lat="46.97848122766912" lon="14.392097658716988"><ele>658.0</ele><time>2026-05-01T19:33:09.001Z</time></trkpt><trkpt lat="46.978306238177666" lon="14.392140738913668"><ele>658.0</ele><time>2026-05-01T19:33:10.001Z</time></trkpt><trkpt lat="46.9781298947454" lon="14.392185911575714"><ele>658.0</ele><time>2026-05-01T19:33:11.001Z</time></trkpt><trkpt lat="46.97795309329688" lon="14.392231625625207"><ele>658.0</ele><time>2026-05-01T19:33:12.001Z</time></trkpt><trkpt lat="46.97777452234886" lon="14.39227956611151"><ele>658.0</ele><time>2026-05-01T19:33:13Z</time></trkpt><trkpt lat="46.97759370265376" lon="14.392327199680386"><ele>657.0</ele><time>2026-05-01T19:33:14Z</time></trkpt><trkpt lat="46.9774108195954" lon="14.392374217552819"><ele>656.0</ele><time>2026-05-01T19:33:15Z</time></trkpt><trkpt lat="46.97722856462134" lon="14.392421689912917"><ele>655.0</ele><time>2026-05-01T19:33:16Z</time></trkpt><trkpt lat="46.977046590783075" lon="14.392469466370025"><ele>655.0</ele><time>2026-05-01T19:33:17Z</time></trkpt><trkpt lat="46.976864077864214" lon="14.392519585794238"><ele>655.0</ele><time>2026-05-01T19:33:18Z</time></trkpt><trkpt lat="46.976682495322514" lon="14.392570886103783"><ele>655.0</ele><time>2026-05-01T19:33:19Z</time></trkpt><trkpt lat="46.97650046531783" lon="14.392623617781712"><ele>654.0</ele><time>2026-05-01T19:33:20Z</time></trkpt><trkpt lat="46.97632174591052" lon="14.39267764880611"><ele>653.0</ele><time>2026-05-01T19:33:21Z</time></trkpt><trkpt lat="46.9761420103709" lon="14.392731718496115"><ele>652.0</ele><time>2026-05-01T19:33:22Z</time></trkpt><trkpt lat="46.97596143504165" lon="14.392788019213834"><ele>651.0</ele><time>2026-05-01T19:33:23Z</time></trkpt><trkpt lat="46.9757809086186" lon="14.392845316405847"><ele>650.0</ele><time>2026-05-01T19:33:24Z</time></trkpt><trkpt lat="46.97560168702127" lon="14.392904880490683"><ele>649.0</ele><time>2026-05-01T19:33:25Z</time></trkpt><trkpt lat="46.97542417513892" lon="14.39296389160496"><ele>649.6666666666667</ele><time>2026-05-01T19:33:26Z</time></trkpt><trkpt lat="46.9752449697107" lon="14.393023157032374"><ele>650.3333333333334</ele><time>2026-05-01T19:33:27Z</time></trkpt><trkpt lat="46.97506647948743" lon="14.393082693288779"><ele>651.0</ele><time>2026-05-01T19:33:28Z</time></trkpt><trkpt lat="46.974886090011594" lon="14.393144171497086"><ele>649.6666666666666</ele><time>2026-05-01T19:33:29Z</time></trkpt><trkpt lat="46.97470393185729" lon="14.39320856361664"><ele>648.3333333333333</ele><time>2026-05-01T19:33:30Z</time></trkpt><trkpt lat="46.97451981943164" lon="14.393274226134107"><ele>647.0</ele><time>2026-05-01T19:33:31Z</time></trkpt><trkpt lat="46.97433411925876" lon="14.393340971351446"><ele>647.3333333333333</ele><time>2026-05-01T19:33:32Z</time></trkpt><trkpt lat="46.974149975195196" lon="14.393407869768131"><ele>647.6666666666666</ele><time>2026-05-01T19:33:33Z</time></trkpt><trkpt lat="46.97396388868838" lon="14.393476538070118"><ele>648.0</ele><time>2026-05-01T19:33:34Z</time></trkpt><trkpt lat="46.97377990064616" lon="14.393549539460777"><ele>648.0</ele><time>2026-05-01T19:33:35Z</time></trkpt><trkpt lat="46.973596144949894" lon="14.393625437490698"><ele>648.0</ele><time>2026-05-01T19:33:36Z</time></trkpt><trkpt lat="46.973413845927496" lon="14.393704873203475"><ele>648.0</ele><time>2026-05-01T19:33:37Z</time></trkpt><trkpt lat="46.97323101701651" lon="14.393787061206762"><ele>647.6666666666666</ele><time>2026-05-01T19:33:38Z</time></trkpt><trkpt lat="46.97304942900805" lon="14.393873210146596"><ele>647.3333333333333</ele><time>2026-05-01T19:33:39Z</time></trkpt><trkpt lat="46.972869446413185" lon="14.393962838653417"><ele>647.0</ele><time>2026-05-01T19:33:40Z</time></trkpt><trkpt lat="46.9726886420127" lon="14.394054348742479"><ele>646.6666666666666</ele><time>2026-05-01T19:33:41Z</time></trkpt><trkpt lat="46.97250839110252" lon="14.394148999447733"><ele>646.3333333333334</ele><time>2026-05-01T19:33:42Z</time></trkpt><trkpt lat="46.97232937117584" lon="14.394241644351167"><ele>646.0</ele><time>2026-05-01T19:33:43Z</time></trkpt><trkpt lat="46.972157479005986" lon="14.394327658047342"><ele>646.0</ele><time>2026-05-01T19:33:44Z</time></trkpt><trkpt lat="46.97198309586713" lon="14.39441559461791"><ele>646.0</ele><time>2026-05-01T19:33:45Z</time></trkpt><trkpt lat="46.97180672442139" lon="14.394507095234161"><ele>646.0</ele><time>2026-05-01T19:33:46Z</time></trkpt><trkpt lat="46.97163072839735" lon="14.394601469503558"><ele>646.0</ele><time>2026-05-01T19:33:47Z</time></trkpt><trkpt lat="46.97145355516635" lon="14.394697567483156"><ele>646.0</ele><time>2026-05-01T19:33:48Z</time></trkpt><trkpt lat="46.97127639279721" lon="14.39479736719034"><ele>646.0</ele><time>2026-05-01T19:33:49Z</time></trkpt><trkpt lat="46.97110017713241" lon="14.394899724928777"><ele>646.0</ele><time>2026-05-01T19:33:50Z</time></trkpt><trkpt lat="46.97092756424683" lon="14.395003516046941"><ele>646.0</ele><time>2026-05-01T19:33:51Z</time></trkpt><trkpt lat="46.9707530802211" lon="14.395108432877034"><ele>646.0</ele><time>2026-05-01T19:33:52Z</time></trkpt><trkpt lat="46.97057675813941" lon="14.395217224995772"><ele>646.0</ele><time>2026-05-01T19:33:53Z</time></trkpt><trkpt lat="46.970403225909905" lon="14.395325112184945"><ele>646.0</ele><time>2026-05-01T19:33:54Z</time></trkpt><trkpt lat="46.97023168377072" lon="14.395435371335104"><ele>646.0</ele><time>2026-05-01T19:33:55Z</time></trkpt><trkpt lat="46.970058001582" lon="14.395549653814568"><ele>645.3333333333334</ele><time>2026-05-01T19:33:56Z</time></trkpt><trkpt lat="46.96988669542114" lon="14.395666994499447"><ele>644.6666666666666</ele><time>2026-05-01T19:33:57Z</time></trkpt><trkpt lat="46.969714103675805" lon="14.395787397146613"><ele>644.0</ele><time>2026-05-01T19:33:58Z</time></trkpt><trkpt lat="46.96954302799257" lon="14.395907090412413"><ele>644.0</ele><time>2026-05-01T19:33:59Z</time></trkpt><trkpt lat="46.96937052504874" lon="14.396031764463624"><ele>644.0</ele><time>2026-05-01T19:34:00Z</time></trkpt><trkpt lat="46.96920105143589" lon="14.396157519661054"><ele>644.0</ele><time>2026-05-01T19:34:01Z</time></trkpt><trkpt lat="46.96903286947654" lon="14.39628735823788"><ele>644.0</ele><time>2026-05-01T19:34:02Z</time></trkpt><trkpt lat="46.96886540536583" lon="14.396418844214992"><ele>644.0</ele><time>2026-05-01T19:34:03Z</time></trkpt><trkpt lat="46.96869708294568" lon="14.39655132433934"><ele>644.0</ele><time>2026-05-01T19:34:04Z</time></trkpt><trkpt lat="46.96853132822239" lon="14.396682896641702"><ele>644.0</ele><time>2026-05-01T19:34:05Z</time></trkpt><trkpt lat="46.96836689667568" lon="14.39681924043433"><ele>644.0</ele><time>2026-05-01T19:34:06Z</time></trkpt><trkpt lat="46.96820401671464" lon="14.39695853531346"><ele>644.0</ele><time>2026-05-01T19:34:07Z</time></trkpt><trkpt lat="46.96804271140705" lon="14.397098938881685"><ele>644.3333333333333</ele><time>2026-05-01T19:34:08Z</time></trkpt><trkpt lat="46.96788303091468" lon="14.397240217439862"><ele>644.6666666666666</ele><time>2026-05-01T19:34:09Z</time></trkpt><trkpt lat="46.96772259037035" lon="14.397385882494945"><ele>645.0</ele><time>2026-05-01T19:34:10Z</time></trkpt><trkpt lat="46.96756254215621" lon="14.39753554792146"><ele>644.6666666666666</ele><time>2026-05-01T19:34:11Z</time></trkpt><trkpt lat="46.96740643506894" lon="14.39768612372677"><ele>644.3333333333333</ele><time>2026-05-01T19:34:12Z</time></trkpt><trkpt lat="46.96725008792812" lon="14.397839761130987"><ele>644.0</ele><time>2026-05-01T19:34:13Z</time></trkpt><trkpt lat="46.96709453127571" lon="14.397996378116465"><ele>643.6666666666666</ele><time>2026-05-01T19:34:14Z</time></trkpt><trkpt lat="46.966937909777506" lon="14.398158720237996"><ele>643.3333333333334</ele><time>2026-05-01T19:34:15Z</time></trkpt><trkpt lat="46.96678204213148" lon="14.39832350306977"><ele>643.0</ele><time>2026-05-01T19:34:16Z</time></trkpt><trkpt lat="46.96662780091627" lon="14.398490898713902"><ele>642.6666666666667</ele><time>2026-05-01T19:34:17Z</time></trkpt><trkpt lat="46.96647836797444" lon="14.398658181759503"><ele>642.3333333333334</ele><time>2026-05-01T19:34:18Z</time></trkpt><trkpt lat="46.96632939940508" lon="14.398826005633042"><ele>642.0</ele><time>2026-05-01T19:34:19Z</time></trkpt><trkpt lat="46.966182139096986" lon="14.398995320077123"><ele>642.0</ele><time>2026-05-01T19:34:20Z</time></trkpt><trkpt lat="46.96603553380975" lon="14.39916520462749"><ele>642.0</ele><time>2026-05-01T19:34:21Z</time></trkpt><trkpt lat="46.96589157704014" lon="14.399336996629819"><ele>642.0</ele><time>2026-05-01T19:34:22Z</time></trkpt><trkpt lat="46.96574527509" lon="14.399513759244714"><ele>642.6666666666666</ele><time>2026-05-01T19:34:23Z</time></trkpt><trkpt lat="46.965601364189354" lon="14.399697087669981"><ele>643.3333333333333</ele><time>2026-05-01T19:34:24Z</time></trkpt><trkpt lat="46.96545687146791" lon="14.399881598542155"><ele>644.0</ele><time>2026-05-01T19:34:25Z</time></trkpt><trkpt lat="46.965311109819204" lon="14.400069408456982"><ele>644.0</ele><time>2026-05-01T19:34:26Z</time></trkpt><trkpt lat="46.96516558988807" lon="14.400263030386782"><ele>644.0</ele><time>2026-05-01T19:34:27Z</time></trkpt><trkpt lat="46.96502160447781" lon="14.40045965818299"><ele>644.0</ele><time>2026-05-01T19:34:28Z</time></trkpt><trkpt lat="46.96487914978362" lon="14.400660382507954"><ele>643.0</ele><time>2026-05-01T19:34:29Z</time></trkpt><trkpt lat="46.96473671084363" lon="14.400864799801953"><ele>642.0</ele><time>2026-05-01T19:34:30Z</time></trkpt><trkpt lat="46.96459810133994" lon="14.401073591119797"><ele>641.0</ele><time>2026-05-01T19:34:31Z</time></trkpt><trkpt lat="46.96446111612364" lon="14.4012859839214"><ele>641.0</ele><time>2026-05-01T19:34:32Z</time></trkpt><trkpt lat="46.964326658585925" lon="14.401497357187605"><ele>641.0</ele><time>2026-05-01T19:34:33Z</time></trkpt><trkpt lat="46.964192027742115" lon="14.40171280882016"><ele>641.0</ele><time>2026-05-01T19:34:34Z</time></trkpt><trkpt lat="46.96405851401515" lon="14.4019267068928"><ele>641.0</ele><time>2026-05-01T19:34:35Z</time></trkpt><trkpt lat="46.96392723035926" lon="14.402143107712568"><ele>641.0</ele><time>2026-05-01T19:34:36Z</time></trkpt><trkpt lat="46.96379556987778" lon="14.402366208317094"><ele>641.0</ele><time>2026-05-01T19:34:37Z</time></trkpt><trkpt lat="46.96366584181476" lon="14.402589886160815"><ele>640.6666666666666</ele><time>2026-05-01T19:34:38Z</time></trkpt><trkpt lat="46.96353476778131" lon="14.402814991402153"><ele>640.3333333333334</ele><time>2026-05-01T19:34:39Z</time></trkpt><trkpt lat="46.96340105965342" lon="14.403039011448787"><ele>640.0</ele><time>2026-05-01T19:34:40Z</time></trkpt><trkpt lat="46.963266528139876" lon="14.403263971906304"><ele>639.3333333333334</ele><time>2026-05-01T19:34:41Z</time></trkpt><trkpt lat="46.963133700391516" lon="14.403483070356193"><ele>638.6666666666666</ele><time>2026-05-01T19:34:42Z</time></trkpt><trkpt lat="46.96299925263342" lon="14.403703511918705"><ele>638.0</ele><time>2026-05-01T19:34:43Z</time></trkpt><trkpt lat="46.962865965542115" lon="14.403922282845402"><ele>638.0</ele><time>2026-05-01T19:34:44Z</time></trkpt><trkpt lat="46.96273641588132" lon="14.404132786568027"><ele>638.0</ele><time>2026-05-01T19:34:45Z</time></trkpt><trkpt lat="46.962604522399246" lon="14.404345062400909"><ele>638.0</ele><time>2026-05-01T19:34:46Z</time></trkpt><trkpt lat="46.96246701043016" lon="14.404563144087515"><ele>638.3333333333333</ele><time>2026-05-01T19:34:47Z</time></trkpt><trkpt lat="46.96232419455922" lon="14.404776764599012"><ele>638.6666666666666</ele><time>2026-05-01T19:34:48Z</time></trkpt><trkpt lat="46.96217684781476" lon="14.404994224833215"><ele>639.0</ele><time>2026-05-01T19:34:49Z</time></trkpt><trkpt lat="46.962028605356984" lon="14.4052119109007"><ele>639.0</ele><time>2026-05-01T19:34:50Z</time></trkpt><trkpt lat="46.96187759951318" lon="14.405429643381275"><ele>639.0</ele><time>2026-05-01T19:34:51Z</time></trkpt><trkpt lat="46.961725752163936" lon="14.405646280818123"><ele>639.0</ele><time>2026-05-01T19:34:52Z</time></trkpt><trkpt lat="46.961571778617596" lon="14.405859053105122"><ele>638.3333333333334</ele><time>2026-05-01T19:34:53.001Z</time></trkpt><trkpt lat="46.96141594784542" lon="14.406071086557821"><ele>637.6666666666667</ele><time>2026-05-01T19:34:54.001Z</time></trkpt><trkpt lat="46.961258971526846" lon="14.406283574583307"><ele>637.0</ele><time>2026-05-01T19:34:55.001Z</time></trkpt><trkpt lat="46.96109968914854" lon="14.406491484985189"><ele>637.0</ele><time>2026-05-01T19:34:56.001Z</time></trkpt><trkpt lat="46.960936989690396" lon="14.406699366969045"><ele>637.0</ele><time>2026-05-01T19:34:57.001Z</time></trkpt><trkpt lat="46.96077222919104" lon="14.40690374184417"><ele>637.0</ele><time>2026-05-01T19:34:58.001Z</time></trkpt><trkpt lat="46.96060601491016" lon="14.407103830682637"><ele>636.3333333333334</ele><time>2026-05-01T19:34:59.001Z</time></trkpt><trkpt lat="46.96043671827578" lon="14.40730627311274"><ele>635.6666666666666</ele><time>2026-05-01T19:35:00.001Z</time></trkpt><trkpt lat="46.96026780403749" lon="14.407506839952223"><ele>635.0</ele><time>2026-05-01T19:35:01.001Z</time></trkpt><trkpt lat="46.9600961597552" lon="14.407705724706307"><ele>635.3333333333333</ele><time>2026-05-01T19:35:02.001Z</time></trkpt><trkpt lat="46.95992242905511" lon="14.407904670815084"><ele>635.6666666666666</ele><time>2026-05-01T19:35:03.001Z</time></trkpt><trkpt lat="46.959748550699246" lon="14.408097712830376"><ele>636.0</ele><time>2026-05-01T19:35:04.001Z</time></trkpt><trkpt lat="46.95957253271365" lon="14.408293153254503"><ele>635.3333333333334</ele><time>2026-05-01T19:35:05.001Z</time></trkpt><trkpt lat="46.95939625398444" lon="14.408485557515187"><ele>634.6666666666667</ele><time>2026-05-01T19:35:06.001Z</time></trkpt><trkpt lat="46.95921677533874" lon="14.408674111484013"><ele>634.0</ele><time>2026-05-01T19:35:07.001Z</time></trkpt><trkpt lat="46.95903761634772" lon="14.408860524094452"><ele>634.0</ele><time>2026-05-01T19:35:08.001Z</time></trkpt><trkpt lat="46.95885545314841" lon="14.409046288044708"><ele>634.0</ele><time>2026-05-01T19:35:09.001Z</time></trkpt><trkpt lat="46.958674370874526" lon="14.409226526630102"><ele>634.0</ele><time>2026-05-01T19:35:10.001Z</time></trkpt><trkpt lat="46.9584886392708" lon="14.409407949929756"><ele>634.0</ele><time>2026-05-01T19:35:11.001Z</time></trkpt><trkpt lat="46.95830242896683" lon="14.409587219490689"><ele>634.0</ele><time>2026-05-01T19:35:12.001Z</time></trkpt><trkpt lat="46.95811678774178" lon="14.409763102825865"><ele>634.0</ele><time>2026-05-01T19:35:13.001Z</time></trkpt><trkpt lat="46.9579313223244" lon="14.409939360373402"><ele>634.0</ele><time>2026-05-01T19:35:14.001Z</time></trkpt><trkpt lat="46.957742610826074" lon="14.410113745907095"><ele>634.0</ele><time>2026-05-01T19:35:15.001Z</time></trkpt><trkpt lat="46.95755414592174" lon="14.410288082319495"><ele>634.0</ele><time>2026-05-01T19:35:16.001Z</time></trkpt><trkpt lat="46.95736261384992" lon="14.410462029947977"><ele>633.6666666666667</ele><time>2026-05-01T19:35:17.001Z</time></trkpt><trkpt lat="46.95717403977655" lon="14.410632898115598"><ele>633.3333333333334</ele><time>2026-05-01T19:35:18Z</time></trkpt><trkpt lat="46.95698491129837" lon="14.410802075657804"><ele>633.0</ele><time>2026-05-01T19:35:19Z</time></trkpt><trkpt lat="46.956799331138996" lon="14.410974571014924"><ele>632.6666666666666</ele><time>2026-05-01T19:35:20Z</time></trkpt><trkpt lat="46.95661483570236" lon="14.411147358785684"><ele>632.3333333333333</ele><time>2026-05-01T19:35:21Z</time></trkpt><trkpt lat="46.95642971714976" lon="14.411320698578633"><ele>632.0</ele><time>2026-05-01T19:35:22Z</time></trkpt><trkpt lat="46.956243153012004" lon="14.411495270657321"><ele>632.0</ele><time>2026-05-01T19:35:23Z</time></trkpt><trkpt lat="46.956058887527924" lon="14.41166669702562"><ele>632.0</ele><time>2026-05-01T19:35:24Z</time></trkpt><trkpt lat="46.955874612808344" lon="14.411843920649654"><ele>632.0</ele><time>2026-05-01T19:35:25Z</time></trkpt><trkpt lat="46.95569383877104" lon="14.412020022153754"><ele>632.3333333333333</ele><time>2026-05-01T19:35:26Z</time></trkpt><trkpt lat="46.955515948669785" lon="14.412199852450673"><ele>632.6666666666666</ele><time>2026-05-01T19:35:27Z</time></trkpt><trkpt lat="46.95533796757908" lon="14.412383861988019"><ele>633.0</ele><time>2026-05-01T19:35:28Z</time></trkpt><trkpt lat="46.95516312666613" lon="14.412571420249241"><ele>633.0</ele><time>2026-05-01T19:35:29Z</time></trkpt><trkpt lat="46.954991002488605" lon="14.412760278819324"><ele>633.0</ele><time>2026-05-01T19:35:30Z</time></trkpt><trkpt lat="46.95482067848072" lon="14.412953986641806"><ele>633.0</ele><time>2026-05-01T19:35:31Z</time></trkpt><trkpt lat="46.954653308066675" lon="14.413144245419796"><ele>633.0</ele><time>2026-05-01T19:35:32Z</time></trkpt><trkpt lat="46.95448608295443" lon="14.41333403116093"><ele>633.0</ele><time>2026-05-01T19:35:33Z</time></trkpt><trkpt lat="46.954322415552795" lon="14.413529298507774"><ele>633.0</ele><time>2026-05-01T19:35:34Z</time></trkpt><trkpt lat="46.9541602569208" lon="14.41372738316775"><ele>633.3333333333334</ele><time>2026-05-01T19:35:35Z</time></trkpt><trkpt lat="46.95400017954432" lon="14.413926142966668"><ele>633.6666666666667</ele><time>2026-05-01T19:35:36Z</time></trkpt><trkpt lat="46.953840588396346" lon="14.414128667368864"><ele>634.0</ele><time>2026-05-01T19:35:37Z</time></trkpt><trkpt lat="46.953684018936805" lon="14.414337701054615"><ele>634.0</ele><time>2026-05-01T19:35:38Z</time></trkpt><trkpt lat="46.95352964381527" lon="14.41454952683732"><ele>634.0</ele><time>2026-05-01T19:35:39Z</time></trkpt><trkpt lat="46.953376923729635" lon="14.414765890179378"><ele>634.0</ele><time>2026-05-01T19:35:40Z</time></trkpt><trkpt lat="46.95322206239434" lon="14.414984071071355"><ele>633.3333333333334</ele><time>2026-05-01T19:35:41Z</time></trkpt><trkpt lat="46.953068687232346" lon="14.415201363706538"><ele>632.6666666666666</ele><time>2026-05-01T19:35:42Z</time></trkpt><trkpt lat="46.952916302576426" lon="14.41542197010057"><ele>632.0</ele><time>2026-05-01T19:35:43Z</time></trkpt><trkpt lat="46.95276309910847" lon="14.415642558501848"><ele>631.6666666666666</ele><time>2026-05-01T19:35:44Z</time></trkpt><trkpt lat="46.95261213467103" lon="14.415863969614152"><ele>631.3333333333334</ele><time>2026-05-01T19:35:45Z</time></trkpt><trkpt lat="46.95246231009742" lon="14.416087521898431"><ele>631.0</ele><time>2026-05-01T19:35:46Z</time></trkpt><trkpt lat="46.95231066002944" lon="14.416310314141352"><ele>631.0</ele><time>2026-05-01T19:35:47Z</time></trkpt><trkpt lat="46.952159582562885" lon="14.416535715380704"><ele>631.0</ele><time>2026-05-01T19:35:48Z</time></trkpt><trkpt lat="46.952005715715266" lon="14.416758300775882"><ele>631.0</ele><time>2026-05-01T19:35:49Z</time></trkpt><trkpt lat="46.95185241895774" lon="14.41698422616557"><ele>630.6666666666667</ele><time>2026-05-01T19:35:50Z</time></trkpt><trkpt lat="46.95169781806085" lon="14.417205235727966"><ele>630.3333333333334</ele><time>2026-05-01T19:35:51Z</time></trkpt><trkpt lat="46.95154017664626" lon="14.41742361310413"><ele>630.0</ele><time>2026-05-01T19:35:52Z</time></trkpt><trkpt lat="46.95138173205724" lon="14.417641827416546"><ele>630.0</ele><time>2026-05-01T19:35:53Z</time></trkpt><trkpt lat="46.95122319623975" lon="14.417859629600596"><ele>630.0</ele><time>2026-05-01T19:35:54Z</time></trkpt><trkpt lat="46.9510609497619" lon="14.4180731322182"><ele>630.0</ele><time>2026-05-01T19:35:55Z</time></trkpt><trkpt lat="46.95089904598838" lon="14.418286117440541"><ele>629.3333333333334</ele><time>2026-05-01T19:35:56Z</time></trkpt><trkpt lat="46.950735683518765" lon="14.418496515578779"><ele>628.6666666666667</ele><time>2026-05-01T19:35:57Z</time></trkpt><trkpt lat="46.95056992997015" lon="14.418703500996951"><ele>628.0</ele><time>2026-05-01T19:35:58Z</time></trkpt><trkpt lat="46.95040061452138" lon="14.418904481691936"><ele>628.0</ele><time>2026-05-01T19:35:59Z</time></trkpt><trkpt lat="46.950230158078156" lon="14.419101668671617"><ele>628.0</ele><time>2026-05-01T19:36:00Z</time></trkpt><trkpt lat="46.950060005149574" lon="14.419291711242424"><ele>628.0</ele><time>2026-05-01T19:36:01Z</time></trkpt><trkpt lat="46.94989425320496" lon="14.419470863117095"><ele>628.3333333333334</ele><time>2026-05-01T19:36:02Z</time></trkpt><trkpt lat="46.949723604536565" lon="14.41965259414765"><ele>628.6666666666666</ele><time>2026-05-01T19:36:03Z</time></trkpt><trkpt lat="46.94954277978963" lon="14.419835213525985"><ele>629.0</ele><time>2026-05-01T19:36:04Z</time></trkpt><trkpt lat="46.94935675594682" lon="14.420017120372695"><ele>627.5</ele><time>2026-05-01T19:36:05Z</time></trkpt><trkpt lat="46.949169584860826" lon="14.42019636194397"><ele>626.0</ele><time>2026-05-01T19:36:06Z</time></trkpt><trkpt lat="46.94897812507554" lon="14.420373927512372"><ele>626.0</ele><time>2026-05-01T19:36:07Z</time></trkpt><trkpt lat="46.948784996114654" lon="14.420546246196944"><ele>626.0</ele><time>2026-05-01T19:36:08Z</time></trkpt><trkpt lat="46.94858894863713" lon="14.420711666805474"><ele>626.0</ele><time>2026-05-01T19:36:09Z</time></trkpt><trkpt lat="46.94839010605411" lon="14.420872711548688"><ele>626.0</ele><time>2026-05-01T19:36:10Z</time></trkpt><trkpt lat="46.9481875200212" lon="14.421029642352178"><ele>626.0</ele><time>2026-05-01T19:36:11Z</time></trkpt><trkpt lat="46.94798155391148" lon="14.421183220448734"><ele>626.0</ele><time>2026-05-01T19:36:12Z</time></trkpt><trkpt lat="46.94777409411975" lon="14.421331713412682"><ele>626.0</ele><time>2026-05-01T19:36:13Z</time></trkpt><trkpt lat="46.94756381213937" lon="14.421478737989705"><ele>626.0</ele><time>2026-05-01T19:36:14Z</time></trkpt><trkpt lat="46.94735143397858" lon="14.421616684100494"><ele>626.0</ele><time>2026-05-01T19:36:15Z</time></trkpt><trkpt lat="46.94713743417795" lon="14.421749049202145"><ele>626.0</ele><time>2026-05-01T19:36:16Z</time></trkpt><trkpt lat="46.946921564240405" lon="14.421878072059597"><ele>625.0</ele><time>2026-05-01T19:36:17Z</time></trkpt><trkpt lat="46.94670562592584" lon="14.422000632468247"><ele>624.0</ele><time>2026-05-01T19:36:18Z</time></trkpt><trkpt lat="46.946492322977484" lon="14.42211930682843"><ele>625.0</ele><time>2026-05-01T19:36:19Z</time></trkpt><trkpt lat="46.94627908135269" lon="14.422230351039634"><ele>626.0</ele><time>2026-05-01T19:36:20Z</time></trkpt><trkpt lat="46.94606603994274" lon="14.422333257701327"><ele>625.6666666666666</ele><time>2026-05-01T19:36:21Z</time></trkpt><trkpt lat="46.94585362390686" lon="14.422430698592116"><ele>625.3333333333334</ele><time>2026-05-01T19:36:22Z</time></trkpt><trkpt lat="46.94563936140531" lon="14.422520728026317"><ele>625.0</ele><time>2026-05-01T19:36:23Z</time></trkpt><trkpt lat="46.94542377448548" lon="14.42260587793163"><ele>625.0</ele><time>2026-05-01T19:36:24Z</time></trkpt><trkpt lat="46.945208968995594" lon="14.422687304151955"><ele>625.0</ele><time>2026-05-01T19:36:25Z</time></trkpt><trkpt lat="46.94499373978155" lon="14.422765125005405"><ele>625.0</ele><time>2026-05-01T19:36:26Z</time></trkpt><trkpt lat="46.94477893320454" lon="14.42284064110266"><ele>624.6666666666667</ele><time>2026-05-01T19:36:27Z</time></trkpt><trkpt lat="46.94456728355508" lon="14.422913779966029"><ele>624.3333333333334</ele><time>2026-05-01T19:36:28Z</time></trkpt><trkpt lat="46.94435304980926" lon="14.422982525041476"><ele>624.0</ele><time>2026-05-01T19:36:29Z</time></trkpt><trkpt lat="46.94413960399023" lon="14.423051770908588"><ele>624.0</ele><time>2026-05-01T19:36:30Z</time></trkpt><trkpt lat="46.94392526203586" lon="14.42311911497761"><ele>624.0</ele><time>2026-05-01T19:36:31Z</time></trkpt><trkpt lat="46.94371113000065" lon="14.423185212545622"><ele>624.0</ele><time>2026-05-01T19:36:32Z</time></trkpt><trkpt lat="46.94349836974545" lon="14.42325121217433"><ele>624.0</ele><time>2026-05-01T19:36:33Z</time></trkpt><trkpt lat="46.94328458491878" lon="14.423319413007459"><ele>624.0</ele><time>2026-05-01T19:36:34Z</time></trkpt><trkpt lat="46.9430708047193" lon="14.423381517298711"><ele>624.0</ele><time>2026-05-01T19:36:35Z</time></trkpt><trkpt lat="46.942861107666545" lon="14.423445568988978"><ele>624.0</ele><time>2026-05-01T19:36:36Z</time></trkpt><trkpt lat="46.942652554927335" lon="14.423511463313696"><ele>624.0</ele><time>2026-05-01T19:36:37Z</time></trkpt><trkpt lat="46.942444753892346" lon="14.423579482677102"><ele>624.0</ele><time>2026-05-01T19:36:38Z</time></trkpt><trkpt lat="46.942239438811825" lon="14.423642446960445"><ele>623.6666666666666</ele><time>2026-05-01T19:36:39Z</time></trkpt><trkpt lat="46.94203460817262" lon="14.423709219174103"><ele>623.3333333333333</ele><time>2026-05-01T19:36:40Z</time></trkpt><trkpt lat="46.941829448776446" lon="14.423772641902136"><ele>623.0</ele><time>2026-05-01T19:36:41Z</time></trkpt><trkpt lat="46.94162322653399" lon="14.423835757262164"><ele>622.6666666666666</ele><time>2026-05-01T19:36:42Z</time></trkpt><trkpt lat="46.941419415605615" lon="14.423900623377182"><ele>622.3333333333334</ele><time>2026-05-01T19:36:43Z</time></trkpt><trkpt lat="46.9412155103779" lon="14.423963295365972"><ele>622.0</ele><time>2026-05-01T19:36:44Z</time></trkpt><trkpt lat="46.94101060469566" lon="14.42402323278013"><ele>622.0</ele><time>2026-05-01T19:36:45Z</time></trkpt><trkpt lat="46.940808783984785" lon="14.424089052925948"><ele>622.0</ele><time>2026-05-01T19:36:46Z</time></trkpt><trkpt lat="46.940608949106846" lon="14.424150060085783"><ele>622.0</ele><time>2026-05-01T19:36:47Z</time></trkpt><trkpt lat="46.94041328076901" lon="14.424212826484167"><ele>622.0</ele><time>2026-05-01T19:36:48Z</time></trkpt><trkpt lat="46.940220663508626" lon="14.424273531977995"><ele>622.0</ele><time>2026-05-01T19:36:49Z</time></trkpt><trkpt lat="46.940028820308896" lon="14.424334870648298"><ele>622.0</ele><time>2026-05-01T19:36:50Z</time></trkpt><trkpt lat="46.93984279064924" lon="14.424397402144338"><ele>622.0</ele><time>2026-05-01T19:36:51Z</time></trkpt><trkpt lat="46.93966346052907" lon="14.424453661934903"><ele>622.0</ele><time>2026-05-01T19:36:52Z</time></trkpt><trkpt lat="46.93948679585447" lon="14.424511563504055"><ele>622.0</ele><time>2026-05-01T19:36:53Z</time></trkpt><trkpt lat="46.93931032153909" lon="14.424570200351674"><ele>621.6666666666667</ele><time>2026-05-01T19:36:54Z</time></trkpt><trkpt lat="46.93913262860023" lon="14.424621797142361"><ele>621.3333333333334</ele><time>2026-05-01T19:36:55Z</time></trkpt><trkpt lat="46.93895528628838" lon="14.424670411110014"><ele>621.0</ele><time>2026-05-01T19:36:56Z</time></trkpt><trkpt lat="46.93877332391997" lon="14.424721257777799"><ele>621.0</ele><time>2026-05-01T19:36:57Z</time></trkpt><trkpt lat="46.938589732394085" lon="14.424772561854693"><ele>621.0</ele><time>2026-05-01T19:36:58Z</time></trkpt><trkpt lat="46.93840405724246" lon="14.42482579510978"><ele>621.0</ele><time>2026-05-01T19:36:59Z</time></trkpt><trkpt lat="46.93821616942992" lon="14.424884842170254"><ele>620.3333333333334</ele><time>2026-05-01T19:37:00Z</time></trkpt><trkpt lat="46.9380210610302" lon="14.424946005100605"><ele>619.6666666666667</ele><time>2026-05-01T19:37:01Z</time></trkpt><trkpt lat="46.937821467870776" lon="14.425010269256616"><ele>619.0</ele><time>2026-05-01T19:37:02Z</time></trkpt><trkpt lat="46.93761733336236" lon="14.425074022341214"><ele>619.0</ele><time>2026-05-01T19:37:03.001Z</time></trkpt><trkpt lat="46.93740987804409" lon="14.425137529547385"><ele>619.0</ele><time>2026-05-01T19:37:04.001Z</time></trkpt><trkpt lat="46.93719774100657" lon="14.425204829047326"><ele>619.0</ele><time>2026-05-01T19:37:05.001Z</time></trkpt><trkpt lat="46.936984345659454" lon="14.425272338806113"><ele>619.0</ele><time>2026-05-01T19:37:06.001Z</time></trkpt><trkpt lat="46.93677072978018" lon="14.425342324181488"><ele>619.0</ele><time>2026-05-01T19:37:07.001Z</time></trkpt><trkpt lat="46.93655447716344" lon="14.425412129773225"><ele>619.0</ele><time>2026-05-01T19:37:08.001Z</time></trkpt><trkpt lat="46.93633497030249" lon="14.42547805488271"><ele>619.0</ele><time>2026-05-01T19:37:09.001Z</time></trkpt><trkpt lat="46.93611566608081" lon="14.425544223118983"><ele>619.0</ele><time>2026-05-01T19:37:10.001Z</time></trkpt><trkpt lat="46.93589770902075" lon="14.425611066602942"><ele>619.0</ele><time>2026-05-01T19:37:11.001Z</time></trkpt><trkpt lat="46.93567447116009" lon="14.425678542514028"><ele>619.0</ele><time>2026-05-01T19:37:12.001Z</time></trkpt><trkpt lat="46.93545536970177" lon="14.425743881776985"><ele>619.0</ele><time>2026-05-01T19:37:13.001Z</time></trkpt><trkpt lat="46.93523513362985" lon="14.425809767910202"><ele>619.0</ele><time>2026-05-01T19:37:14.001Z</time></trkpt><trkpt lat="46.93501562410662" lon="14.425876996481373"><ele>619.0</ele><time>2026-05-01T19:37:15.001Z</time></trkpt><trkpt lat="46.93479626619817" lon="14.4259427282203"><ele>619.0</ele><time>2026-05-01T19:37:16.001Z</time></trkpt><trkpt lat="46.934575217478205" lon="14.426011047955026"><ele>619.0</ele><time>2026-05-01T19:37:17.001Z</time></trkpt><trkpt lat="46.934355663526354" lon="14.426080778369656"><ele>619.0</ele><time>2026-05-01T19:37:18.001Z</time></trkpt><trkpt lat="46.934136732033075" lon="14.42615035687699"><ele>619.0</ele><time>2026-05-01T19:37:19.001Z</time></trkpt><trkpt lat="46.93391846375044" lon="14.42621994141092"><ele>618.6666666666667</ele><time>2026-05-01T19:37:20.001Z</time></trkpt><trkpt lat="46.93370067807739" lon="14.426287816553751"><ele>618.3333333333334</ele><time>2026-05-01T19:37:21.001Z</time></trkpt><trkpt lat="46.93348407971718" lon="14.426353183171392"><ele>618.0</ele><time>2026-05-01T19:37:22.001Z</time></trkpt><trkpt lat="46.9332682226581" lon="14.426417790406662"><ele>617.6666666666666</ele><time>2026-05-01T19:37:23.001Z</time></trkpt><trkpt lat="46.93305220016258" lon="14.426484070937459"><ele>617.3333333333333</ele><time>2026-05-01T19:37:24Z</time></trkpt><trkpt lat="46.93283556561669" lon="14.426550256893321"><ele>617.0</ele><time>2026-05-01T19:37:25Z</time></trkpt><trkpt lat="46.932617666371655" lon="14.426617115574551"><ele>616.6666666666666</ele><time>2026-05-01T19:37:26Z</time></trkpt><trkpt lat="46.93240237331924" lon="14.42668411381626"><ele>616.3333333333334</ele><time>2026-05-01T19:37:27Z</time></trkpt><trkpt lat="46.932185860438246" lon="14.426752317755291"><ele>616.0</ele><time>2026-05-01T19:37:28Z</time></trkpt><trkpt lat="46.93197150305945" lon="14.426819873718413"><ele>616.0</ele><time>2026-05-01T19:37:29Z</time></trkpt><trkpt lat="46.93175641215509" lon="14.426887093084709"><ele>616.0</ele><time>2026-05-01T19:37:30Z</time></trkpt><trkpt lat="46.931541048853894" lon="14.426953656890278"><ele>616.0</ele><time>2026-05-01T19:37:31Z</time></trkpt><trkpt lat="46.93132514250065" lon="14.42701956665792"><ele>616.0</ele><time>2026-05-01T19:37:32Z</time></trkpt><trkpt lat="46.93111018060237" lon="14.427084039653899"><ele>616.0</ele><time>2026-05-01T19:37:33Z</time></trkpt><trkpt lat="46.93089558655537" lon="14.42714931668366"><ele>616.0</ele><time>2026-05-01T19:37:34Z</time></trkpt><trkpt lat="46.930680014843695" lon="14.427214202929724"><ele>616.0</ele><time>2026-05-01T19:37:35Z</time></trkpt><trkpt lat="46.93046551798072" lon="14.427281883059884"><ele>616.0</ele><time>2026-05-01T19:37:36Z</time></trkpt><trkpt lat="46.93024855455698" lon="14.427346374828087"><ele>616.0</ele><time>2026-05-01T19:37:37Z</time></trkpt><trkpt lat="46.93003188944852" lon="14.427407007892114"><ele>616.0</ele><time>2026-05-01T19:37:38Z</time></trkpt><trkpt lat="46.92981346185575" lon="14.427470494276621"><ele>616.0</ele><time>2026-05-01T19:37:39Z</time></trkpt><trkpt lat="46.92959717494209" lon="14.427534186445756"><ele>616.0</ele><time>2026-05-01T19:37:40Z</time></trkpt><trkpt lat="46.92938009556151" lon="14.427598524499231"><ele>616.3333333333334</ele><time>2026-05-01T19:37:41Z</time></trkpt><trkpt lat="46.92916204857626" lon="14.427661478274336"><ele>616.6666666666666</ele><time>2026-05-01T19:37:42Z</time></trkpt><trkpt lat="46.92894416570945" lon="14.427723723071773"><ele>617.0</ele><time>2026-05-01T19:37:43Z</time></trkpt><trkpt lat="46.928725794215154" lon="14.427788693539298"><ele>617.0</ele><time>2026-05-01T19:37:44Z</time></trkpt><trkpt lat="46.92850820576282" lon="14.427854739560122"><ele>617.0</ele><time>2026-05-01T19:37:45Z</time></trkpt><trkpt lat="46.92828940007745" lon="14.427919034146822"><ele>617.0</ele><time>2026-05-01T19:37:46Z</time></trkpt><trkpt lat="46.928069873217275" lon="14.42798295782203"><ele>616.6666666666666</ele><time>2026-05-01T19:37:47Z</time></trkpt><trkpt lat="46.92785022342181" lon="14.428041375568501"><ele>616.3333333333334</ele><time>2026-05-01T19:37:48Z</time></trkpt><trkpt lat="46.92763337447214" lon="14.428101046918353"><ele>616.0</ele><time>2026-05-01T19:37:49Z</time></trkpt><trkpt lat="46.927412820441766" lon="14.42816276469712"><ele>616.0</ele><time>2026-05-01T19:37:50Z</time></trkpt><trkpt lat="46.92719191143142" lon="14.42822504587832"><ele>616.0</ele><time>2026-05-01T19:37:51Z</time></trkpt><trkpt lat="46.92697172215771" lon="14.42829066560524"><ele>616.0</ele><time>2026-05-01T19:37:52Z</time></trkpt><trkpt lat="46.92675221381833" lon="14.428351767408774"><ele>616.0</ele><time>2026-05-01T19:37:53Z</time></trkpt><trkpt lat="46.926531386830014" lon="14.42841114268012"><ele>616.0</ele><time>2026-05-01T19:37:54Z</time></trkpt><trkpt lat="46.926308227526334" lon="14.42847099786864"><ele>616.0</ele><time>2026-05-01T19:37:55Z</time></trkpt><trkpt lat="46.926086614705355" lon="14.428531498947414"><ele>616.0</ele><time>2026-05-01T19:37:56Z</time></trkpt><trkpt lat="46.92587504604632" lon="14.428593300620687"><ele>616.0</ele><time>2026-05-01T19:37:57Z</time></trkpt><trkpt lat="46.925657234685794" lon="14.428652627292566"><ele>613.5</ele><time>2026-05-01T19:37:58Z</time></trkpt><trkpt lat="46.92543669505812" lon="14.428714332799991"><ele>611.0</ele><time>2026-05-01T19:37:59Z</time></trkpt><trkpt lat="46.9252133206586" lon="14.428775149614552"><ele>611.5</ele><time>2026-05-01T19:38:00Z</time></trkpt><trkpt lat="46.92498903983388" lon="14.428835510344983"><ele>612.0</ele><time>2026-05-01T19:38:01Z</time></trkpt><trkpt lat="46.924766527823444" lon="14.428897705639285"><ele>612.0</ele><time>2026-05-01T19:38:02Z</time></trkpt><trkpt lat="46.92454470751033" lon="14.428960821269015"><ele>612.0</ele><time>2026-05-01T19:38:03Z</time></trkpt><trkpt lat="46.924323696446564" lon="14.429022326532031"><ele>611.5</ele><time>2026-05-01T19:38:04Z</time></trkpt><trkpt lat="46.92410218963897" lon="14.429082345541188"><ele>611.0</ele><time>2026-05-01T19:38:05Z</time></trkpt><trkpt lat="46.923880402649054" lon="14.429142612167311"><ele>611.0</ele><time>2026-05-01T19:38:06Z</time></trkpt><trkpt lat="46.923661191132965" lon="14.429200393742638"><ele>611.0</ele><time>2026-05-01T19:38:07Z</time></trkpt><trkpt lat="46.923444686997414" lon="14.429258482046059"><ele>611.0</ele><time>2026-05-01T19:38:08Z</time></trkpt><trkpt lat="46.923227472134" lon="14.429316411324017"><ele>611.0</ele><time>2026-05-01T19:38:09Z</time></trkpt><trkpt lat="46.923012820108426" lon="14.42937307086296"><ele>611.0</ele><time>2026-05-01T19:38:10Z</time></trkpt><trkpt lat="46.922801390406434" lon="14.42942918760856"><ele>611.0</ele><time>2026-05-01T19:38:11Z</time></trkpt><trkpt lat="46.92259089460142" lon="14.429486878969119"><ele>611.3333333333333</ele><time>2026-05-01T19:38:12Z</time></trkpt><trkpt lat="46.92238095162929" lon="14.429545149863419"><ele>611.6666666666666</ele><time>2026-05-01T19:38:13Z</time></trkpt><trkpt lat="46.922173117971674" lon="14.429605817306992"><ele>612.0</ele><time>2026-05-01T19:38:14Z</time></trkpt><trkpt lat="46.92196122548202" lon="14.42967476065457"><ele>612.0</ele><time>2026-05-01T19:38:15Z</time></trkpt><trkpt lat="46.92175422179569" lon="14.429761172645284"><ele>612.0</ele><time>2026-05-01T19:38:16Z</time></trkpt><trkpt lat="46.92154653080115" lon="14.429858841303332"><ele>612.0</ele><time>2026-05-01T19:38:17Z</time></trkpt><trkpt lat="46.92134230457977" lon="14.42996737328984"><ele>612.0</ele><time>2026-05-01T19:38:18Z</time></trkpt><trkpt lat="46.921139126746716" lon="14.430082583738418"><ele>612.0</ele><time>2026-05-01T19:38:19Z</time></trkpt><trkpt lat="46.92093999410823" lon="14.430202069156953"><ele>612.0</ele><time>2026-05-01T19:38:20Z</time></trkpt><trkpt lat="46.92074432030083" lon="14.430340424441058"><ele>611.3333333333334</ele><time>2026-05-01T19:38:21Z</time></trkpt><trkpt lat="46.92055051350275" lon="14.430488214575385"><ele>610.6666666666667</ele><time>2026-05-01T19:38:22Z</time></trkpt><trkpt lat="46.92036516790296" lon="14.430647543426739"><ele>610.0</ele><time>2026-05-01T19:38:23Z</time></trkpt><trkpt lat="46.92018259668901" lon="14.430813925685486"><ele>610.3333333333334</ele><time>2026-05-01T19:38:24Z</time></trkpt><trkpt lat="46.920002609501616" lon="14.430991536110282"><ele>610.6666666666666</ele><time>2026-05-01T19:38:25Z</time></trkpt><trkpt lat="46.91982541473373" lon="14.431178913182611"><ele>611.0</ele><time>2026-05-01T19:38:26Z</time></trkpt><trkpt lat="46.91964941651555" lon="14.431369166012148"><ele>611.0</ele><time>2026-05-01T19:38:27Z</time></trkpt><trkpt lat="46.919475644256906" lon="14.431567070025238"><ele>611.0</ele><time>2026-05-01T19:38:28Z</time></trkpt><trkpt lat="46.91930214960249" lon="14.431769607743572"><ele>611.0</ele><time>2026-05-01T19:38:29Z</time></trkpt><trkpt lat="46.919127693896186" lon="14.431970402448904"><ele>611.6666666666666</ele><time>2026-05-01T19:38:30Z</time></trkpt><trkpt lat="46.91895398515211" lon="14.432170277223245"><ele>612.3333333333334</ele><time>2026-05-01T19:38:31Z</time></trkpt><trkpt lat="46.9187814658316" lon="14.43236827650569"><ele>613.0</ele><time>2026-05-01T19:38:32Z</time></trkpt><trkpt lat="46.91860770139925" lon="14.432566024669148"><ele>613.0</ele><time>2026-05-01T19:38:33Z</time></trkpt><trkpt lat="46.9184362387656" lon="14.432763491664186"><ele>613.0</ele><time>2026-05-01T19:38:34Z</time></trkpt><trkpt lat="46.91826322077687" lon="14.432960888055447"><ele>613.0</ele><time>2026-05-01T19:38:35Z</time></trkpt><trkpt lat="46.918091092326804" lon="14.433158292908224"><ele>613.0</ele><time>2026-05-01T19:38:36Z</time></trkpt><trkpt lat="46.9179200579943" lon="14.433356154443667"><ele>613.0</ele><time>2026-05-01T19:38:37Z</time></trkpt><trkpt lat="46.91774673526065" lon="14.433554547483423"><ele>613.0</ele><time>2026-05-01T19:38:38Z</time></trkpt><trkpt lat="46.91757501371764" lon="14.433749065586348"><ele>612.6666666666667</ele><time>2026-05-01T19:38:39Z</time></trkpt><trkpt lat="46.91740068756996" lon="14.433946050129824"><ele>612.3333333333334</ele><time>2026-05-01T19:38:40Z</time></trkpt><trkpt lat="46.91722618316591" lon="14.43414267917852"><ele>612.0</ele><time>2026-05-01T19:38:41Z</time></trkpt><trkpt lat="46.91705182757188" lon="14.434336369737284"><ele>612.0</ele><time>2026-05-01T19:38:42Z</time></trkpt><trkpt lat="46.91687767129368" lon="14.434530236930804"><ele>612.0</ele><time>2026-05-01T19:38:43Z</time></trkpt><trkpt lat="46.916704793229876" lon="14.43472622760499"><ele>612.0</ele><time>2026-05-01T19:38:44Z</time></trkpt><trkpt lat="46.916532042247134" lon="14.434922023360922"><ele>612.6666666666666</ele><time>2026-05-01T19:38:45Z</time></trkpt><trkpt lat="46.916358457260515" lon="14.435115790287925"><ele>613.3333333333333</ele><time>2026-05-01T19:38:46Z</time></trkpt><trkpt lat="46.91618182199486" lon="14.435304891169318"><ele>614.0</ele><time>2026-05-01T19:38:47Z</time></trkpt><trkpt lat="46.91600296691484" lon="14.435493892037607"><ele>614.6666666666666</ele><time>2026-05-01T19:38:48Z</time></trkpt><trkpt lat="46.915821858755415" lon="14.435670302674165"><ele>615.3333333333334</ele><time>2026-05-01T19:38:49Z</time></trkpt><trkpt lat="46.91563666776169" lon="14.435841452374024"><ele>616.0</ele><time>2026-05-01T19:38:50Z</time></trkpt><trkpt lat="46.91544656258625" lon="14.43600085864228"><ele>616.0</ele><time>2026-05-01T19:38:51Z</time></trkpt><trkpt lat="46.91525126436687" lon="14.436147687336344"><ele>616.0</ele><time>2026-05-01T19:38:52Z</time></trkpt><trkpt lat="46.91505190527549" lon="14.436290397672131"><ele>616.0</ele><time>2026-05-01T19:38:53Z</time></trkpt><trkpt lat="46.91484580075331" lon="14.436424302520813"><ele>615.0</ele><time>2026-05-01T19:38:54Z</time></trkpt><trkpt lat="46.91463760457862" lon="14.436548583705978"><ele>614.0</ele><time>2026-05-01T19:38:55Z</time></trkpt><trkpt lat="46.91442507088828" lon="14.436658587763457"><ele>613.0</ele><time>2026-05-01T19:38:56Z</time></trkpt><trkpt lat="46.9142086667215" lon="14.436758222472925"><ele>612.0</ele><time>2026-05-01T19:38:57Z</time></trkpt><trkpt lat="46.913987817835945" lon="14.436847735530584"><ele>612.0</ele><time>2026-05-01T19:38:58Z</time></trkpt><trkpt lat="46.9137644961422" lon="14.436928017686048"><ele>612.0</ele><time>2026-05-01T19:38:59Z</time></trkpt><trkpt lat="46.913541147534914" lon="14.436996597207965"><ele>611.0</ele><time>2026-05-01T19:39:00Z</time></trkpt><trkpt lat="46.91331591781171" lon="14.437052357882568"><ele>610.0</ele><time>2026-05-01T19:39:01Z</time></trkpt><trkpt lat="46.913089738544066" lon="14.437092848395578"><ele>610.0</ele><time>2026-05-01T19:39:02Z</time></trkpt><trkpt lat="46.912863470924975" lon="14.437119218938841"><ele>610.0</ele><time>2026-05-01T19:39:03Z</time></trkpt><trkpt lat="46.91263653635148" lon="14.43713413793326"><ele>612.5</ele><time>2026-05-01T19:39:04Z</time></trkpt><trkpt lat="46.912409236380824" lon="14.437140321854574"><ele>615.0</ele><time>2026-05-01T19:39:05Z</time></trkpt><trkpt lat="46.91218315078763" lon="14.437138655582654"><ele>613.0</ele><time>2026-05-01T19:39:06Z</time></trkpt><trkpt lat="46.91195550985454" lon="14.437124122696043"><ele>611.0</ele><time>2026-05-01T19:39:07Z</time></trkpt><trkpt lat="46.91172962840679" lon="14.437100456896744"><ele>611.0</ele><time>2026-05-01T19:39:08Z</time></trkpt><trkpt lat="46.911505420714896" lon="14.437069201168972"><ele>611.0</ele><time>2026-05-01T19:39:09Z</time></trkpt><trkpt lat="46.911281848975975" lon="14.437036352071766"><ele>611.0</ele><time>2026-05-01T19:39:10Z</time></trkpt><trkpt lat="46.91105740821724" lon="14.437001294570683"><ele>611.0</ele><time>2026-05-01T19:39:11Z</time></trkpt><trkpt lat="46.91083269120035" lon="14.436966004938876"><ele>612.0</ele><time>2026-05-01T19:39:12.001Z</time></trkpt><trkpt lat="46.91060851947515" lon="14.436933480719349"><ele>613.0</ele><time>2026-05-01T19:39:13.001Z</time></trkpt><trkpt lat="46.91038386070755" lon="14.436908548209189"><ele>613.0</ele><time>2026-05-01T19:39:14.001Z</time></trkpt><trkpt lat="46.91016035234774" lon="14.43689401660025"><ele>613.0</ele><time>2026-05-01T19:39:15.001Z</time></trkpt><trkpt lat="46.909938265062976" lon="14.436893313092511"><ele>613.0</ele><time>2026-05-01T19:39:16.001Z</time></trkpt><trkpt lat="46.909714027909686" lon="14.43689499992906"><ele>612.6666666666667</ele><time>2026-05-01T19:39:17.001Z</time></trkpt><trkpt lat="46.90948974429929" lon="14.436906186866631"><ele>612.3333333333334</ele><time>2026-05-01T19:39:18.001Z</time></trkpt><trkpt lat="46.90926791209325" lon="14.436928241275465"><ele>612.0</ele><time>2026-05-01T19:39:19.001Z</time></trkpt><trkpt lat="46.90904442710989" lon="14.436960453747567"><ele>612.0</ele><time>2026-05-01T19:39:20.001Z</time></trkpt><trkpt lat="46.90882465262162" lon="14.437001536144319"><ele>612.0</ele><time>2026-05-01T19:39:21.001Z</time></trkpt><trkpt lat="46.90860564673086" lon="14.4370540609464"><ele>612.0</ele><time>2026-05-01T19:39:22.001Z</time></trkpt><trkpt lat="46.90838850391342" lon="14.43711673908324"><ele>612.6666666666666</ele><time>2026-05-01T19:39:23.001Z</time></trkpt><trkpt lat="46.90817406866698" lon="14.437188465461839"><ele>613.3333333333333</ele><time>2026-05-01T19:39:24.001Z</time></trkpt><trkpt lat="46.90795924753583" lon="14.437269237344964"><ele>614.0</ele><time>2026-05-01T19:39:25.001Z</time></trkpt><trkpt lat="46.9077479783439" lon="14.437356273015661"><ele>614.0</ele><time>2026-05-01T19:39:26.001Z</time></trkpt><trkpt lat="46.90753664333306" lon="14.437453087867098"><ele>614.0</ele><time>2026-05-01T19:39:27.001Z</time></trkpt><trkpt lat="46.90732716134552" lon="14.437552064013028"><ele>614.0</ele><time>2026-05-01T19:39:28.001Z</time></trkpt><trkpt lat="46.907115802257884" lon="14.437656408776698"><ele>614.0</ele><time>2026-05-01T19:39:29.001Z</time></trkpt><trkpt lat="46.90690384968031" lon="14.437758438993844"><ele>614.0</ele><time>2026-05-01T19:39:30Z</time></trkpt><trkpt lat="46.90668961352264" lon="14.437867320791275"><ele>614.0</ele><time>2026-05-01T19:39:31Z</time></trkpt><trkpt lat="46.90647518749259" lon="14.437965251907993"><ele>614.0</ele><time>2026-05-01T19:39:32Z</time></trkpt><trkpt lat="46.906260427043435" lon="14.438064504522814"><ele>614.0</ele><time>2026-05-01T19:39:33Z</time></trkpt><trkpt lat="46.90604588460544" lon="14.438169389555636"><ele>614.0</ele><time>2026-05-01T19:39:34Z</time></trkpt><trkpt lat="46.90583463801597" lon="14.438277428636363"><ele>613.3333333333333</ele><time>2026-05-01T19:39:35Z</time></trkpt><trkpt lat="46.90561789530319" lon="14.438379068809578"><ele>612.6666666666666</ele><time>2026-05-01T19:39:36Z</time></trkpt><trkpt lat="46.905410770939234" lon="14.43847552843672"><ele>612.0</ele><time>2026-05-01T19:39:37Z</time></trkpt><trkpt lat="46.90521271356776" lon="14.438569419616863"><ele>611.3333333333334</ele><time>2026-05-01T19:39:38Z</time></trkpt><trkpt lat="46.90500913738441" lon="14.438665187736225"><ele>610.6666666666667</ele><time>2026-05-01T19:39:39Z</time></trkpt><trkpt lat="46.90480426373308" lon="14.438761355872831"><ele>610.0</ele><time>2026-05-01T19:39:40Z</time></trkpt><trkpt lat="46.90459679663206" lon="14.438847138695396"><ele>610.0</ele><time>2026-05-01T19:39:41Z</time></trkpt><trkpt lat="46.90438639765202" lon="14.438924832614065"><ele>610.0</ele><time>2026-05-01T19:39:42Z</time></trkpt><trkpt lat="46.90417730821823" lon="14.438994914739883"><ele>610.0</ele><time>2026-05-01T19:39:43Z</time></trkpt><trkpt lat="46.90396748712491" lon="14.439058003392212"><ele>610.0</ele><time>2026-05-01T19:39:44Z</time></trkpt><trkpt lat="46.90375411166606" lon="14.439117764884957"><ele>610.0</ele><time>2026-05-01T19:39:45Z</time></trkpt><trkpt lat="46.903543854960674" lon="14.439167740909742"><ele>610.0</ele><time>2026-05-01T19:39:46Z</time></trkpt><trkpt lat="46.90333756499137" lon="14.439210038492705"><ele>610.3333333333334</ele><time>2026-05-01T19:39:47Z</time></trkpt><trkpt lat="46.903142251612664" lon="14.43924517849065"><ele>610.6666666666666</ele><time>2026-05-01T19:39:48Z</time></trkpt><trkpt lat="46.9029577342245" lon="14.43927549795532"><ele>611.0</ele><time>2026-05-01T19:39:49Z</time></trkpt><trkpt lat="46.90278015463389" lon="14.43930407324802"><ele>611.0</ele><time>2026-05-01T19:39:50Z</time></trkpt><trkpt lat="46.90261123038946" lon="14.439329794140061"><ele>611.0</ele><time>2026-05-01T19:39:51Z</time></trkpt><trkpt lat="46.90244757866707" lon="14.439356679121694"><ele>611.0</ele><time>2026-05-01T19:39:52Z</time></trkpt><trkpt lat="46.90229064883771" lon="14.43938824271951"><ele>610.0</ele><time>2026-05-01T19:39:53Z</time></trkpt><trkpt lat="46.90213627472232" lon="14.439422877483167"><ele>609.0</ele><time>2026-05-01T19:39:54Z</time></trkpt><trkpt lat="46.90198254434448" lon="14.439463875264286"><ele>608.0</ele><time>2026-05-01T19:39:55Z</time></trkpt><trkpt lat="46.90183169113233" lon="14.439509597311197"><ele>607.6666666666666</ele><time>2026-05-01T19:39:56Z</time></trkpt><trkpt lat="46.901680175720735" lon="14.439564150194247"><ele>607.3333333333334</ele><time>2026-05-01T19:39:57Z</time></trkpt><trkpt lat="46.90153225262035" lon="14.439620187860907"><ele>607.0</ele><time>2026-05-01T19:39:58Z</time></trkpt><trkpt lat="46.90138175483841" lon="14.439683569438735"><ele>607.6666666666667</ele><time>2026-05-01T19:39:59Z</time></trkpt><trkpt lat="46.90123305442541" lon="14.439756374707525"><ele>608.3333333333334</ele><time>2026-05-01T19:40:00Z</time></trkpt><trkpt lat="46.9010872502129" lon="14.439840598662354"><ele>609.0</ele><time>2026-05-01T19:40:01Z</time></trkpt><trkpt lat="46.90094418795703" lon="14.439933676272453"><ele>608.3333333333334</ele><time>2026-05-01T19:40:02Z</time></trkpt><trkpt lat="46.90080365254664" lon="14.440033815364137"><ele>607.6666666666667</ele><time>2026-05-01T19:40:03Z</time></trkpt><trkpt lat="46.90066411504077" lon="14.440140606695676"><ele>607.0</ele><time>2026-05-01T19:40:04Z</time></trkpt><trkpt lat="46.90052688331302" lon="14.440256945976524"><ele>607.0</ele><time>2026-05-01T19:40:05Z</time></trkpt><trkpt lat="46.90039210623517" lon="14.440381774377833"><ele>607.0</ele><time>2026-05-01T19:40:06Z</time></trkpt><trkpt lat="46.900260112031354" lon="14.440512162783326"><ele>607.0</ele><time>2026-05-01T19:40:07Z</time></trkpt><trkpt lat="46.90013039841194" lon="14.440646670721327"><ele>608.0</ele><time>2026-05-01T19:40:08Z</time></trkpt><trkpt lat="46.90000426727681" lon="14.440790849266806"><ele>609.0</ele><time>2026-05-01T19:40:09Z</time></trkpt><trkpt lat="46.89988268859429" lon="14.440939286400281"><ele>610.0</ele><time>2026-05-01T19:40:10Z</time></trkpt><trkpt lat="46.89976383548902" lon="14.441093613321586"><ele>610.0</ele><time>2026-05-01T19:40:11Z</time></trkpt><trkpt lat="46.899643413613084" lon="14.44124462424797"><ele>610.0</ele><time>2026-05-01T19:40:12Z</time></trkpt><trkpt lat="46.89952364639023" lon="14.441399432830933"><ele>610.0</ele><time>2026-05-01T19:40:13Z</time></trkpt><trkpt lat="46.899404417497685" lon="14.4415582795895"><ele>609.3333333333334</ele><time>2026-05-01T19:40:14Z</time></trkpt><trkpt lat="46.899283722292004" lon="14.441718837103005"><ele>608.6666666666666</ele><time>2026-05-01T19:40:15Z</time></trkpt><trkpt lat="46.899157044742026" lon="14.441873200768129"><ele>608.0</ele><time>2026-05-01T19:40:16Z</time></trkpt><trkpt lat="46.899028206097974" lon="14.44202501834141"><ele>615.0</ele><time>2026-05-01T19:40:17Z</time></trkpt><trkpt lat="46.8988919401187" lon="14.44216071203615"><ele>622.0</ele><time>2026-05-01T19:40:18Z</time></trkpt><trkpt lat="46.89875528155346" lon="14.442295738070921"><ele>629.0</ele><time>2026-05-01T19:40:19Z</time></trkpt><trkpt lat="46.89861594749267" lon="14.442430594892615"><ele>629.0</ele><time>2026-05-01T19:40:20Z</time></trkpt><trkpt lat="46.89847375492656" lon="14.442561202557595"><ele>629.0</ele><time>2026-05-01T19:40:21Z</time></trkpt><trkpt lat="46.898331911884185" lon="14.442686971121992"><ele>629.0</ele><time>2026-05-01T19:40:22Z</time></trkpt><trkpt lat="46.89818640453739" lon="14.442801878059683"><ele>630.3333333333333</ele><time>2026-05-01T19:40:23Z</time></trkpt><trkpt lat="46.898036775133995" lon="14.44289697111251"><ele>631.6666666666666</ele><time>2026-05-01T19:40:24Z</time></trkpt><trkpt lat="46.89788141220724" lon="14.442984236502404"><ele>633.0</ele><time>2026-05-01T19:40:25Z</time></trkpt><trkpt lat="46.89772557202841" lon="14.443072164882144"><ele>625.3333333333334</ele><time>2026-05-01T19:40:26Z</time></trkpt><trkpt lat="46.897571119242755" lon="14.443172312420089"><ele>617.6666666666667</ele><time>2026-05-01T19:40:27Z</time></trkpt><trkpt lat="46.8974232122081" lon="14.443292382577868"><ele>610.0</ele><time>2026-05-01T19:40:28Z</time></trkpt><trkpt lat="46.89727665761289" lon="14.443413290279663"><ele>610.0</ele><time>2026-05-01T19:40:29Z</time></trkpt><trkpt lat="46.89712870754764" lon="14.443534854485447"><ele>610.0</ele><time>2026-05-01T19:40:30Z</time></trkpt><trkpt lat="46.896979502763315" lon="14.443658883029212"><ele>610.0</ele><time>2026-05-01T19:40:31Z</time></trkpt><trkpt lat="46.89683234611255" lon="14.443780091968534"><ele>611.6666666666667</ele><time>2026-05-01T19:40:32Z</time></trkpt><trkpt lat="46.89668555185412" lon="14.443902056185598"><ele>613.3333333333334</ele><time>2026-05-01T19:40:33Z</time></trkpt><trkpt lat="46.896537937357245" lon="14.444021678936279"><ele>615.0</ele><time>2026-05-01T19:40:34Z</time></trkpt><trkpt lat="46.89639163027556" lon="14.444138955523886"><ele>615.0</ele><time>2026-05-01T19:40:35Z</time></trkpt><trkpt lat="46.89625332217887" lon="14.444250050794787"><ele>615.0</ele><time>2026-05-01T19:40:36Z</time></trkpt><trkpt lat="46.896114704210596" lon="14.444362134866582"><ele>615.0</ele><time>2026-05-01T19:40:37Z</time></trkpt><trkpt lat="46.89597630451104" lon="14.444472921730746"><ele>615.3333333333334</ele><time>2026-05-01T19:40:38Z</time></trkpt><trkpt lat="46.89583873560222" lon="14.444586722208674"><ele>615.6666666666667</ele><time>2026-05-01T19:40:39Z</time></trkpt><trkpt lat="46.895699233360546" lon="14.444702102688428"><ele>616.0</ele><time>2026-05-01T19:40:40Z</time></trkpt><trkpt lat="46.89555662998904" lon="14.444821669210192"><ele>616.0</ele><time>2026-05-01T19:40:41Z</time></trkpt><trkpt lat="46.895414082466125" lon="14.444940553747356"><ele>616.0</ele><time>2026-05-01T19:40:42Z</time></trkpt><trkpt lat="46.89527030882912" lon="14.445060236222044"><ele>616.0</ele><time>2026-05-01T19:40:43Z</time></trkpt><trkpt lat="46.89512375692583" lon="14.445175186585304"><ele>614.6666666666667</ele><time>2026-05-01T19:40:44Z</time></trkpt><trkpt lat="46.89497512491814" lon="14.44528825782175"><ele>613.3333333333334</ele><time>2026-05-01T19:40:45Z</time></trkpt><trkpt lat="46.89482791731148" lon="14.445392770327008"><ele>612.0</ele><time>2026-05-01T19:40:46Z</time></trkpt><trkpt lat="46.894679201391995" lon="14.445482673395768"><ele>612.0</ele><time>2026-05-01T19:40:47Z</time></trkpt><trkpt lat="46.89452974289716" lon="14.445550692385327"><ele>612.0</ele><time>2026-05-01T19:40:48Z</time></trkpt><trkpt lat="46.89437572760439" lon="14.44559009299705"><ele>612.0</ele><time>2026-05-01T19:40:49Z</time></trkpt><trkpt lat="46.89422184175133" lon="14.445597540098726"><ele>612.0</ele><time>2026-05-01T19:40:50Z</time></trkpt><trkpt lat="46.894069946998144" lon="14.445574783897598"><ele>612.0</ele><time>2026-05-01T19:40:51Z</time></trkpt><trkpt lat="46.89392643783183" lon="14.445521977860666"><ele>612.0</ele><time>2026-05-01T19:40:52Z</time></trkpt><trkpt lat="46.89379580720692" lon="14.445435337531615"><ele>612.0</ele><time>2026-05-01T19:40:53Z</time></trkpt><trkpt lat="46.89367555747919" lon="14.445319777003276"><ele>610.5</ele><time>2026-05-01T19:40:54Z</time></trkpt><trkpt lat="46.893566233224504" lon="14.445184502081142"><ele>609.0</ele><time>2026-05-01T19:40:55Z</time></trkpt><trkpt lat="46.89346921273519" lon="14.44502470432941"><ele>607.5</ele><time>2026-05-01T19:40:56Z</time></trkpt><trkpt lat="46.89338366747435" lon="14.444849516065437"><ele>606.0</ele><time>2026-05-01T19:40:57Z</time></trkpt><trkpt lat="46.89331045052817" lon="14.444659347442787"><ele>607.3333333333334</ele><time>2026-05-01T19:40:58Z</time></trkpt><trkpt lat="46.8932415040744" lon="14.44446621139144"><ele>608.6666666666667</ele><time>2026-05-01T19:40:59Z</time></trkpt><trkpt lat="46.89317314608125" lon="14.444269426954982"><ele>610.0</ele><time>2026-05-01T19:41:00Z</time></trkpt><trkpt lat="46.89309835560948" lon="14.444073150080602"><ele>610.0</ele><time>2026-05-01T19:41:01Z</time></trkpt><trkpt lat="46.89301788743475" lon="14.443876559763785"><ele>610.0</ele><time>2026-05-01T19:41:02Z</time></trkpt><trkpt lat="46.892930307804626" lon="14.443686693679933"><ele>610.0</ele><time>2026-05-01T19:41:03Z</time></trkpt><trkpt lat="46.89283964736082" lon="14.443500417817303"><ele>608.6666666666667</ele><time>2026-05-01T19:41:04Z</time></trkpt><trkpt lat="46.89274926820796" lon="14.443319013965592"><ele>607.3333333333334</ele><time>2026-05-01T19:41:05Z</time></trkpt><trkpt lat="46.89265457889335" lon="14.44313766826091"><ele>606.0</ele><time>2026-05-01T19:41:06Z</time></trkpt><trkpt lat="46.89255367007765" lon="14.442960418895748"><ele>606.0</ele><time>2026-05-01T19:41:07Z</time></trkpt><trkpt lat="46.89244659629401" lon="14.442786867266895"><ele>606.0</ele><time>2026-05-01T19:41:08Z</time></trkpt><trkpt lat="46.892336602610946" lon="14.442616446428945"><ele>606.0</ele><time>2026-05-01T19:41:09Z</time></trkpt><trkpt lat="46.89222240124949" lon="14.44244619515349"><ele>606.0</ele><time>2026-05-01T19:41:10Z</time></trkpt><trkpt lat="46.892105072038106" lon="14.442278574619344"><ele>606.0</ele><time>2026-05-01T19:41:11Z</time></trkpt><trkpt lat="46.891984775157134" lon="14.4421094151452"><ele>606.0</ele><time>2026-05-01T19:41:12Z</time></trkpt><trkpt lat="46.89186453139664" lon="14.441941628392241"><ele>606.3333333333334</ele><time>2026-05-01T19:41:13Z</time></trkpt><trkpt lat="46.89175048929627" lon="14.441777380048329"><ele>606.6666666666667</ele><time>2026-05-01T19:41:14Z</time></trkpt><trkpt lat="46.891635556391265" lon="14.441615846451517"><ele>607.0</ele><time>2026-05-01T19:41:15Z</time></trkpt><trkpt lat="46.891518687577076" lon="14.44145291159216"><ele>605.3333333333334</ele><time>2026-05-01T19:41:16Z</time></trkpt><trkpt lat="46.89140195849675" lon="14.441282738682961"><ele>603.6666666666666</ele><time>2026-05-01T19:41:17Z</time></trkpt><trkpt lat="46.891283667409525" lon="14.441111735883862"><ele>602.0</ele><time>2026-05-01T19:41:18Z</time></trkpt><trkpt lat="46.891165461705896" lon="14.440942062208121"><ele>602.0</ele><time>2026-05-01T19:41:19Z</time></trkpt><trkpt lat="46.89104868552" lon="14.44077592835385"><ele>602.0</ele><time>2026-05-01T19:41:20Z</time></trkpt><trkpt lat="46.890930528114055" lon="14.44060808947861"><ele>602.0</ele><time>2026-05-01T19:41:21.001Z</time></trkpt><trkpt lat="46.89081394302293" lon="14.440442211543822"><ele>602.0</ele><time>2026-05-01T19:41:22.001Z</time></trkpt><trkpt lat="46.89069374464521" lon="14.44027823571038"><ele>602.0</ele><time>2026-05-01T19:41:23.001Z</time></trkpt><trkpt lat="46.89056759009046" lon="14.440121951992301"><ele>602.0</ele><time>2026-05-01T19:41:24.001Z</time></trkpt><trkpt lat="46.89043852286943" lon="14.439974497300758"><ele>602.0</ele><time>2026-05-01T19:41:25.001Z</time></trkpt><trkpt lat="46.890304141166325" lon="14.439841469219964"><ele>602.0</ele><time>2026-05-01T19:41:26.001Z</time></trkpt><trkpt lat="46.890162124426695" lon="14.43972679782012"><ele>602.0</ele><time>2026-05-01T19:41:27.001Z</time></trkpt><trkpt lat="46.890014518647526" lon="14.439629225320745"><ele>599.6666666666666</ele><time>2026-05-01T19:41:28.001Z</time></trkpt><trkpt lat="46.889864732793804" lon="14.439544797988281"><ele>597.3333333333334</ele><time>2026-05-01T19:41:29.001Z</time></trkpt><trkpt lat="46.88971380919301" lon="14.439469358419396"><ele>595.0</ele><time>2026-05-01T19:41:30.001Z</time></trkpt><trkpt lat="46.889570114380064" lon="14.439412925893686"><ele>595.0</ele><time>2026-05-01T19:41:31.001Z</time></trkpt><trkpt lat="46.889428082390054" lon="14.439372531717618"><ele>595.0</ele><time>2026-05-01T19:41:32.001Z</time></trkpt><trkpt lat="46.88928391173107" lon="14.439345390022973"><ele>595.0</ele><time>2026-05-01T19:41:33.001Z</time></trkpt><trkpt lat="46.88913570018952" lon="14.439328509729807"><ele>595.0</ele><time>2026-05-01T19:41:34.001Z</time></trkpt><trkpt lat="46.88898823279734" lon="14.439321814142705"><ele>595.5</ele><time>2026-05-01T19:41:35.001Z</time></trkpt><trkpt lat="46.88884043777129" lon="14.439326394799723"><ele>596.0</ele><time>2026-05-01T19:41:36Z</time></trkpt><trkpt lat="46.888692980654135" lon="14.439346678568343"><ele>596.5</ele><time>2026-05-01T19:41:37Z</time></trkpt><trkpt lat="46.88854679563421" lon="14.439381563932603"><ele>597.0</ele><time>2026-05-01T19:41:38Z</time></trkpt><trkpt lat="46.888401587746536" lon="14.43942999169068"><ele>596.6666666666666</ele><time>2026-05-01T19:41:39Z</time></trkpt><trkpt lat="46.88825784203189" lon="14.439493239768078"><ele>596.3333333333333</ele><time>2026-05-01T19:41:40Z</time></trkpt><trkpt lat="46.88811799324105" lon="14.439570824492623"><ele>596.0</ele><time>2026-05-01T19:41:41Z</time></trkpt><trkpt lat="46.88798024830733" lon="14.43966303962486"><ele>596.0</ele><time>2026-05-01T19:41:42Z</time></trkpt><trkpt lat="46.887846010901036" lon="14.43976633950896"><ele>596.0</ele><time>2026-05-01T19:41:43Z</time></trkpt><trkpt lat="46.88771339235492" lon="14.439878809696639"><ele>596.0</ele><time>2026-05-01T19:41:44Z</time></trkpt><trkpt lat="46.88758198449342" lon="14.440000197786942"><ele>597.6666666666666</ele><time>2026-05-01T19:41:45Z</time></trkpt><trkpt lat="46.88745177483139" lon="14.440129046450664"><ele>599.3333333333334</ele><time>2026-05-01T19:41:46Z</time></trkpt><trkpt lat="46.88732172371205" lon="14.440263441661386"><ele>601.0</ele><time>2026-05-01T19:41:47Z</time></trkpt><trkpt lat="46.88719006099171" lon="14.440402654853925"><ele>598.6666666666667</ele><time>2026-05-01T19:41:48Z</time></trkpt><trkpt lat="46.887058213174626" lon="14.440551304406666"><ele>596.3333333333334</ele><time>2026-05-01T19:41:49Z</time></trkpt><trkpt lat="46.88692779944474" lon="14.440707159068088"><ele>594.0</ele><time>2026-05-01T19:41:50Z</time></trkpt><trkpt lat="46.88680104371856" lon="14.44087207305901"><ele>595.0</ele><time>2026-05-01T19:41:51Z</time></trkpt><trkpt lat="46.886679329288164" lon="14.441048178635786"><ele>596.0</ele><time>2026-05-01T19:41:52Z</time></trkpt><trkpt lat="46.88656223566872" lon="14.441232457584341"><ele>597.0</ele><time>2026-05-01T19:41:53Z</time></trkpt><trkpt lat="46.88645519131163" lon="14.441427135175552"><ele>597.0</ele><time>2026-05-01T19:41:54Z</time></trkpt><trkpt lat="46.88635453566516" lon="14.44163475751468"><ele>597.0</ele><time>2026-05-01T19:41:55Z</time></trkpt><trkpt lat="46.88626375748302" lon="14.44184698522192"><ele>597.0</ele><time>2026-05-01T19:41:56Z</time></trkpt><trkpt lat="46.886172203894695" lon="14.442063653828447"><ele>596.6666666666666</ele><time>2026-05-01T19:41:57Z</time></trkpt><trkpt lat="46.88607600705276" lon="14.442281191505568"><ele>596.3333333333333</ele><time>2026-05-01T19:41:58Z</time></trkpt><trkpt lat="46.885972395462105" lon="14.442493661453474"><ele>596.0</ele><time>2026-05-01T19:41:59Z</time></trkpt><trkpt lat="46.885859905745896" lon="14.442696869537"><ele>598.3333333333333</ele><time>2026-05-01T19:42:00Z</time></trkpt><trkpt lat="46.88573880499028" lon="14.44288952399927"><ele>600.6666666666666</ele><time>2026-05-01T19:42:01Z</time></trkpt><trkpt lat="46.88561092879458" lon="14.443079780029434"><ele>603.0</ele><time>2026-05-01T19:42:02Z</time></trkpt><trkpt lat="46.885473774605195" lon="14.443257598211957"><ele>603.0</ele><time>2026-05-01T19:42:03Z</time></trkpt><trkpt lat="46.88532494771303" lon="14.443417145889017"><ele>603.0</ele><time>2026-05-01T19:42:04Z</time></trkpt><trkpt lat="46.88517125359914" lon="14.443565058168259"><ele>603.0</ele><time>2026-05-01T19:42:05Z</time></trkpt><trkpt lat="46.88501021757143" lon="14.443705730399058"><ele>602.6666666666666</ele><time>2026-05-01T19:42:06Z</time></trkpt><trkpt lat="46.88484703508895" lon="14.443844353304666"><ele>602.3333333333333</ele><time>2026-05-01T19:42:07Z</time></trkpt><trkpt lat="46.88468109362466" lon="14.443978165597294"><ele>602.0</ele><time>2026-05-01T19:42:08Z</time></trkpt><trkpt lat="46.88451971619488" lon="14.444109354801364"><ele>602.0</ele><time>2026-05-01T19:42:09Z</time></trkpt><trkpt lat="46.88435206327911" lon="14.444242723315128"><ele>602.0</ele><time>2026-05-01T19:42:10Z</time></trkpt><trkpt lat="46.884182451363905" lon="14.444381624571099"><ele>602.0</ele><time>2026-05-01T19:42:11Z</time></trkpt><trkpt lat="46.88400931881935" lon="14.444522890659115"><ele>602.0</ele><time>2026-05-01T19:42:12Z</time></trkpt><trkpt lat="46.88383812541487" lon="14.44466362631637"><ele>602.0</ele><time>2026-05-01T19:42:13Z</time></trkpt><trkpt lat="46.88366508941001" lon="14.44480539134859"><ele>602.0</ele><time>2026-05-01T19:42:14Z</time></trkpt><trkpt lat="46.883492363070154" lon="14.444946133680817"><ele>603.3333333333333</ele><time>2026-05-01T19:42:15Z</time></trkpt><trkpt lat="46.88331934736618" lon="14.445088358352796"><ele>604.6666666666666</ele><time>2026-05-01T19:42:16Z</time></trkpt><trkpt lat="46.88315209717202" lon="14.44523388360572"><ele>606.0</ele><time>2026-05-01T19:42:17Z</time></trkpt><trkpt lat="46.88298444383986" lon="14.445385775397929"><ele>604.0</ele><time>2026-05-01T19:42:18Z</time></trkpt><trkpt lat="46.88282232723093" lon="14.44554441724472"><ele>602.0</ele><time>2026-05-01T19:42:19Z</time></trkpt><trkpt lat="46.882660992428995" lon="14.445711240508425"><ele>600.0</ele><time>2026-05-01T19:42:20Z</time></trkpt><trkpt lat="46.88250134548186" lon="14.445889857790377"><ele>600.6666666666666</ele><time>2026-05-01T19:42:21Z</time></trkpt><trkpt lat="46.882349534093414" lon="14.446080249347645"><ele>601.3333333333333</ele><time>2026-05-01T19:42:22Z</time></trkpt><trkpt lat="46.8822032482243" lon="14.446282197715579"><ele>602.0</ele><time>2026-05-01T19:42:23Z</time></trkpt><trkpt lat="46.88205682024872" lon="14.446490138701229"><ele>602.0</ele><time>2026-05-01T19:42:24Z</time></trkpt><trkpt lat="46.881912810251556" lon="14.446700440523855"><ele>602.0</ele><time>2026-05-01T19:42:25Z</time></trkpt><trkpt lat="46.88176994860032" lon="14.446918937764728"><ele>602.0</ele><time>2026-05-01T19:42:26Z</time></trkpt><trkpt lat="46.881627964386986" lon="14.44713272767384"><ele>602.3333333333333</ele><time>2026-05-01T19:42:27Z</time></trkpt><trkpt lat="46.881487879737094" lon="14.447353172061973"><ele>602.6666666666666</ele><time>2026-05-01T19:42:28Z</time></trkpt><trkpt lat="46.8813511878408" lon="14.447562331694511"><ele>603.0</ele><time>2026-05-01T19:42:29Z</time></trkpt><trkpt lat="46.88121058811581" lon="14.44777469544806"><ele>602.3333333333334</ele><time>2026-05-01T19:42:30Z</time></trkpt><trkpt lat="46.88106868372769" lon="14.447990865359783"><ele>601.6666666666667</ele><time>2026-05-01T19:42:31Z</time></trkpt><trkpt lat="46.88092801717127" lon="14.448207697741806"><ele>601.0</ele><time>2026-05-01T19:42:32Z</time></trkpt><trkpt lat="46.88078647166885" lon="14.448426393911282"><ele>602.3333333333334</ele><time>2026-05-01T19:42:33Z</time></trkpt><trkpt lat="46.88064261309129" lon="14.448644805987309"><ele>603.6666666666666</ele><time>2026-05-01T19:42:34Z</time></trkpt><trkpt lat="46.88049225428534" lon="14.4488609500605"><ele>605.0</ele><time>2026-05-01T19:42:35Z</time></trkpt><trkpt lat="46.88033795624768" lon="14.449069121034714"><ele>605.0</ele><time>2026-05-01T19:42:36Z</time></trkpt><trkpt lat="46.880177466507185" lon="14.449269082326252"><ele>605.0</ele><time>2026-05-01T19:42:37Z</time></trkpt><trkpt lat="46.88000928044779" lon="14.449458777650433"><ele>605.0</ele><time>2026-05-01T19:42:38Z</time></trkpt><trkpt lat="46.879836614034026" lon="14.449635005106352"><ele>604.3333333333333</ele><time>2026-05-01T19:42:39Z</time></trkpt><trkpt lat="46.87966141798951" lon="14.449803209747891"><ele>603.6666666666666</ele><time>2026-05-01T19:42:40Z</time></trkpt><trkpt lat="46.87948228139631" lon="14.449961767654575"><ele>603.0</ele><time>2026-05-01T19:42:41Z</time></trkpt><trkpt lat="46.87929767879446" lon="14.450108971341326"><ele>603.0</ele><time>2026-05-01T19:42:42Z</time></trkpt><trkpt lat="46.879107581797506" lon="14.450246387657344"><ele>603.0</ele><time>2026-05-01T19:42:43Z</time></trkpt><trkpt lat="46.87891229712127" lon="14.450371506665194"><ele>603.0</ele><time>2026-05-01T19:42:44Z</time></trkpt><trkpt lat="46.878714336985816" lon="14.45048232158871"><ele>603.0</ele><time>2026-05-01T19:42:45Z</time></trkpt><trkpt lat="46.87851253014144" lon="14.450581410969136"><ele>603.0</ele><time>2026-05-01T19:42:46Z</time></trkpt><trkpt lat="46.878307313695586" lon="14.450672979924562"><ele>603.0</ele><time>2026-05-01T19:42:47Z</time></trkpt><trkpt lat="46.878101111980676" lon="14.450754833849404"><ele>604.3333333333334</ele><time>2026-05-01T19:42:48Z</time></trkpt><trkpt lat="46.87789062454554" lon="14.45082356294604"><ele>605.6666666666667</ele><time>2026-05-01T19:42:49Z</time></trkpt><trkpt lat="46.87767531808649" lon="14.450883340911288"><ele>607.0</ele><time>2026-05-01T19:42:50Z</time></trkpt><trkpt lat="46.87746323426649" lon="14.450934745304886"><ele>607.0</ele><time>2026-05-01T19:42:51Z</time></trkpt><trkpt lat="46.87724716172364" lon="14.450979728223563"><ele>607.0</ele><time>2026-05-01T19:42:52Z</time></trkpt><trkpt lat="46.87703060633524" lon="14.451011800765384"><ele>607.0</ele><time>2026-05-01T19:42:53Z</time></trkpt><trkpt lat="46.87681198452062" lon="14.451029544272151"><ele>608.0</ele><time>2026-05-01T19:42:54Z</time></trkpt><trkpt lat="46.876596862824755" lon="14.451032533274951"><ele>609.0</ele><time>2026-05-01T19:42:55Z</time></trkpt><trkpt lat="46.876376125684004" lon="14.451030262665952"><ele>610.0</ele><time>2026-05-01T19:42:56Z</time></trkpt><trkpt lat="46.87615463329833" lon="14.451017033884213"><ele>610.0</ele><time>2026-05-01T19:42:57Z</time></trkpt><trkpt lat="46.87593534288955" lon="14.450989795706485"><ele>610.0</ele><time>2026-05-01T19:42:58Z</time></trkpt><trkpt lat="46.87571796441922" lon="14.450950846046906"><ele>610.0</ele><time>2026-05-01T19:42:59Z</time></trkpt><trkpt lat="46.875501372290195" lon="14.450902529053332"><ele>610.0</ele><time>2026-05-01T19:43:00Z</time></trkpt><trkpt lat="46.875285971848655" lon="14.45084498369659"><ele>610.0</ele><time>2026-05-01T19:43:01Z</time></trkpt><trkpt lat="46.87507221297097" lon="14.450777638601805"><ele>610.0</ele><time>2026-05-01T19:43:02Z</time></trkpt><trkpt lat="46.87485625374217" lon="14.450703873635566"><ele>608.6666666666667</ele><time>2026-05-01T19:43:03Z</time></trkpt><trkpt lat="46.87464179797244" lon="14.450624960199434"><ele>607.3333333333334</ele><time>2026-05-01T19:43:04Z</time></trkpt><trkpt lat="46.87442695741474" lon="14.450536072017846"><ele>606.0</ele><time>2026-05-01T19:43:05Z</time></trkpt><trkpt lat="46.874210304509596" lon="14.450445635401751"><ele>605.6666666666666</ele><time>2026-05-01T19:43:06Z</time></trkpt><trkpt lat="46.873993155778756" lon="14.450352335166585"><ele>605.3333333333333</ele><time>2026-05-01T19:43:07Z</time></trkpt><trkpt lat="46.873779835632135" lon="14.450261027667196"><ele>605.0</ele><time>2026-05-01T19:43:08Z</time></trkpt><trkpt lat="46.87356529793328" lon="14.450173308588507"><ele>604.6666666666666</ele><time>2026-05-01T19:43:09Z</time></trkpt><trkpt lat="46.873359431856635" lon="14.450087112932584"><ele>604.3333333333334</ele><time>2026-05-01T19:43:10Z</time></trkpt><trkpt lat="46.873152848028646" lon="14.449995147220736"><ele>604.0</ele><time>2026-05-01T19:43:11Z</time></trkpt><trkpt lat="46.872943928323245" lon="14.449901503047"><ele>604.0</ele><time>2026-05-01T19:43:12Z</time></trkpt><trkpt lat="46.87271898989258" lon="14.449810375659363"><ele>604.0</ele><time>2026-05-01T19:43:13Z</time></trkpt><trkpt lat="46.87249803559495" lon="14.449717356579661"><ele>603.0</ele><time>2026-05-01T19:43:14Z</time></trkpt><trkpt lat="46.87228006014825" lon="14.4496276912118"><ele>602.0</ele><time>2026-05-01T19:43:15Z</time></trkpt><trkpt lat="46.87205796670433" lon="14.449535315936949"><ele>601.5</ele><time>2026-05-01T19:43:16Z</time></trkpt><trkpt lat="46.8718326990762" lon="14.449446569496004"><ele>601.0</ele><time>2026-05-01T19:43:17Z</time></trkpt><trkpt lat="46.87161028057728" lon="14.449366990042133"><ele>601.0</ele><time>2026-05-01T19:43:18Z</time></trkpt><trkpt lat="46.87138530097663" lon="14.449286639443839"><ele>601.0</ele><time>2026-05-01T19:43:19Z</time></trkpt><trkpt lat="46.87115890800067" lon="14.44920847120656"><ele>601.0</ele><time>2026-05-01T19:43:20Z</time></trkpt><trkpt lat="46.8709345426183" lon="14.449129181630065"><ele>601.0</ele><time>2026-05-01T19:43:21Z</time></trkpt><trkpt lat="46.87070697897289" lon="14.449057857263027"><ele>601.0</ele><time>2026-05-01T19:43:22Z</time></trkpt><trkpt lat="46.87047889369937" lon="14.448991919903905"><ele>601.0</ele><time>2026-05-01T19:43:23Z</time></trkpt><trkpt lat="46.87024819294649" lon="14.448933338974644"><ele>601.0</ele><time>2026-05-01T19:43:24Z</time></trkpt><trkpt lat="46.8700157201662" lon="14.44888349789017"><ele>601.0</ele><time>2026-05-01T19:43:25Z</time></trkpt><trkpt lat="46.869782776667826" lon="14.448840223547933"><ele>601.0</ele><time>2026-05-01T19:43:26Z</time></trkpt><trkpt lat="46.86954977102339" lon="14.448801366958712"><ele>601.0</ele><time>2026-05-01T19:43:27Z</time></trkpt><trkpt lat="46.869317386490316" lon="14.448765286082812"><ele>600.5</ele><time>2026-05-01T19:43:28Z</time></trkpt><trkpt lat="46.86908504639896" lon="14.448736785918392"><ele>600.0</ele><time>2026-05-01T19:43:29Z</time></trkpt><trkpt lat="46.86885446370956" lon="14.448716126399336"><ele>600.0</ele><time>2026-05-01T19:43:30Z</time></trkpt><trkpt lat="46.8686254154792" lon="14.448701955009149"><ele>600.0</ele><time>2026-05-01T19:43:31Z</time></trkpt><trkpt lat="46.86839778143493" lon="14.448690524631598"><ele>600.0</ele><time>2026-05-01T19:43:32Z</time></trkpt><trkpt lat="46.86816845322203" lon="14.44868395038963"><ele>600.0</ele><time>2026-05-01T19:43:33Z</time></trkpt><trkpt lat="46.86794119937835" lon="14.448680096566491"><ele>600.0</ele><time>2026-05-01T19:43:34.001Z</time></trkpt><trkpt lat="46.86771607087139" lon="14.448684623533692"><ele>600.0</ele><time>2026-05-01T19:43:35.001Z</time></trkpt><trkpt lat="46.867491130320104" lon="14.448694192042765"><ele>599.0</ele><time>2026-05-01T19:43:36.001Z</time></trkpt><trkpt lat="46.867266294855995" lon="14.448710262426328"><ele>598.0</ele><time>2026-05-01T19:43:37.001Z</time></trkpt><trkpt lat="46.86704389289878" lon="14.448735967981245"><ele>597.0</ele><time>2026-05-01T19:43:38.001Z</time></trkpt><trkpt lat="46.86682300805184" lon="14.448763004167002"><ele>597.0</ele><time>2026-05-01T19:43:39.001Z</time></trkpt><trkpt lat="46.86660129324577" lon="14.448790984665088"><ele>597.0</ele><time>2026-05-01T19:43:40.001Z</time></trkpt><trkpt lat="46.86638124431124" lon="14.448820495235346"><ele>597.0</ele><time>2026-05-01T19:43:41.001Z</time></trkpt><trkpt lat="46.86616075430647" lon="14.44885696778129"><ele>597.0</ele><time>2026-05-01T19:43:42Z</time></trkpt><trkpt lat="46.86594381314113" lon="14.448899851150387"><ele>597.0</ele><time>2026-05-01T19:43:43Z</time></trkpt><trkpt lat="46.865728086872075" lon="14.448946438373317"><ele>597.0</ele><time>2026-05-01T19:43:44Z</time></trkpt><trkpt lat="46.865511119779505" lon="14.448993758721082"><ele>597.0</ele><time>2026-05-01T19:43:45Z</time></trkpt><trkpt lat="46.865293188859134" lon="14.449044334279064"><ele>597.0</ele><time>2026-05-01T19:43:46Z</time></trkpt><trkpt lat="46.86507446101019" lon="14.449097031503136"><ele>597.0</ele><time>2026-05-01T19:43:47Z</time></trkpt><trkpt lat="46.864855181593846" lon="14.449149427073847"><ele>596.3333333333334</ele><time>2026-05-01T19:43:48Z</time></trkpt><trkpt lat="46.86463674284184" lon="14.449199717097732"><ele>595.6666666666667</ele><time>2026-05-01T19:43:49Z</time></trkpt><trkpt lat="46.8644151235536" lon="14.449248629118225"><ele>595.0</ele><time>2026-05-01T19:43:50Z</time></trkpt><trkpt lat="46.86419367848467" lon="14.449294254277058"><ele>594.5</ele><time>2026-05-01T19:43:51Z</time></trkpt><trkpt lat="46.86397099272962" lon="14.449339772623812"><ele>594.0</ele><time>2026-05-01T19:43:52Z</time></trkpt><trkpt lat="46.86374787816455" lon="14.44938482538652"><ele>594.0</ele><time>2026-05-01T19:43:53Z</time></trkpt><trkpt lat="46.86352351701082" lon="14.449431027069227"><ele>594.0</ele><time>2026-05-01T19:43:54Z</time></trkpt><trkpt lat="46.863302000278345" lon="14.449476220346634"><ele>591.5</ele><time>2026-05-01T19:43:55Z</time></trkpt><trkpt lat="46.863076759445875" lon="14.44951663974283"><ele>589.0</ele><time>2026-05-01T19:43:56Z</time></trkpt><trkpt lat="46.86284943625247" lon="14.449555400126842"><ele>589.0</ele><time>2026-05-01T19:43:57Z</time></trkpt><trkpt lat="46.8626282805637" lon="14.449575022477434"><ele>589.0</ele><time>2026-05-01T19:43:58Z</time></trkpt><trkpt lat="46.86240135962562" lon="14.449603937250133"><ele>589.0</ele><time>2026-05-01T19:43:59Z</time></trkpt><trkpt lat="46.86217461824182" lon="14.449621658294511"><ele>589.0</ele><time>2026-05-01T19:44:00Z</time></trkpt><trkpt lat="46.86195225629053" lon="14.449631293988505"><ele>589.0</ele><time>2026-05-01T19:44:01Z</time></trkpt><trkpt lat="46.86172763960137" lon="14.44963373682136"><ele>589.0</ele><time>2026-05-01T19:44:02Z</time></trkpt><trkpt lat="46.86150708855758" lon="14.44962989402904"><ele>588.6666666666667</ele><time>2026-05-01T19:44:03Z</time></trkpt><trkpt lat="46.861288782042124" lon="14.44961993861201"><ele>588.3333333333334</ele><time>2026-05-01T19:44:04Z</time></trkpt><trkpt lat="46.86107325899715" lon="14.449605318712845"><ele>588.0</ele><time>2026-05-01T19:44:05Z</time></trkpt><trkpt lat="46.86085904702903" lon="14.449582956293456"><ele>587.0</ele><time>2026-05-01T19:44:06Z</time></trkpt><trkpt lat="46.86064659290014" lon="14.449556231969709"><ele>586.0</ele><time>2026-05-01T19:44:07Z</time></trkpt><trkpt lat="46.86043274927437" lon="14.449523750610428"><ele>585.0</ele><time>2026-05-01T19:44:08Z</time></trkpt><trkpt lat="46.86021850223696" lon="14.449483862674189"><ele>585.0</ele><time>2026-05-01T19:44:09Z</time></trkpt><trkpt lat="46.86000190313904" lon="14.449439347864168"><ele>585.0</ele><time>2026-05-01T19:44:10Z</time></trkpt><trkpt lat="46.85978608702663" lon="14.449389487432825"><ele>585.0</ele><time>2026-05-01T19:44:11Z</time></trkpt><trkpt lat="46.85957136885863" lon="14.449339815373088"><ele>585.0</ele><time>2026-05-01T19:44:12Z</time></trkpt><trkpt lat="46.85935612259164" lon="14.4492810315239"><ele>585.0</ele><time>2026-05-01T19:44:13Z</time></trkpt><trkpt lat="46.85914220064903" lon="14.44921744312151"><ele>585.0</ele><time>2026-05-01T19:44:14Z</time></trkpt><trkpt lat="46.85892753032375" lon="14.44915495175214"><ele>586.6666666666666</ele><time>2026-05-01T19:44:15Z</time></trkpt><trkpt lat="46.858712740700625" lon="14.449100783217194"><ele>588.3333333333333</ele><time>2026-05-01T19:44:16Z</time></trkpt><trkpt lat="46.85849893666062" lon="14.449046011257243"><ele>590.0</ele><time>2026-05-01T19:44:17Z</time></trkpt><trkpt lat="46.85828370677999" lon="14.448985431526552"><ele>593.0</ele><time>2026-05-01T19:44:18Z</time></trkpt><trkpt lat="46.85806989550831" lon="14.448924492936456"><ele>596.0</ele><time>2026-05-01T19:44:19Z</time></trkpt><trkpt lat="46.857852191032435" lon="14.448866102445416"><ele>599.0</ele><time>2026-05-01T19:44:20Z</time></trkpt><trkpt lat="46.85763440671533" lon="14.448813476748047"><ele>600.3333333333333</ele><time>2026-05-01T19:44:21Z</time></trkpt><trkpt lat="46.8574152754321" lon="14.44876177100541"><ele>601.6666666666666</ele><time>2026-05-01T19:44:22Z</time></trkpt><trkpt lat="46.85719628824149" lon="14.448710150367786"><ele>603.0</ele><time>2026-05-01T19:44:23Z</time></trkpt><trkpt lat="46.85697544327373" lon="14.448663457304253"><ele>602.0</ele><time>2026-05-01T19:44:24Z</time></trkpt><trkpt lat="46.85675033049726" lon="14.448616105865087"><ele>601.0</ele><time>2026-05-01T19:44:25Z</time></trkpt><trkpt lat="46.85652626834251" lon="14.448569936530099"><ele>601.0</ele><time>2026-05-01T19:44:26Z</time></trkpt><trkpt lat="46.85630360248692" lon="14.448529464326423"><ele>601.0</ele><time>2026-05-01T19:44:27Z</time></trkpt><trkpt lat="46.85607784535343" lon="14.448489170231479"><ele>601.5</ele><time>2026-05-01T19:44:28Z</time></trkpt><trkpt lat="46.855852410501775" lon="14.448452944982108"><ele>602.0</ele><time>2026-05-01T19:44:29Z</time></trkpt><trkpt lat="46.85562625303992" lon="14.448419830473634"><ele>602.0</ele><time>2026-05-01T19:44:30Z</time></trkpt><trkpt lat="46.85540047894369" lon="14.44839015908265"><ele>602.0</ele><time>2026-05-01T19:44:31Z</time></trkpt><trkpt lat="46.855172906462556" lon="14.448360895246786"><ele>603.0</ele><time>2026-05-01T19:44:32Z</time></trkpt><trkpt lat="46.85494604439467" lon="14.448335107634335"><ele>604.0</ele><time>2026-05-01T19:44:33Z</time></trkpt><trkpt lat="46.85471772393311" lon="14.448312620961849"><ele>604.0</ele><time>2026-05-01T19:44:34Z</time></trkpt><trkpt lat="46.85448953551478" lon="14.448294005812262"><ele>604.0</ele><time>2026-05-01T19:44:35Z</time></trkpt><trkpt lat="46.854262227911164" lon="14.448278527173661"><ele>602.0</ele><time>2026-05-01T19:44:36Z</time></trkpt><trkpt lat="46.85403486884961" lon="14.448264779532991"><ele>600.0</ele><time>2026-05-01T19:44:37Z</time></trkpt><trkpt lat="46.853806088018075" lon="14.44825092816587"><ele>600.0</ele><time>2026-05-01T19:44:38Z</time></trkpt><trkpt lat="46.853576294462066" lon="14.448242105184923"><ele>600.0</ele><time>2026-05-01T19:44:39Z</time></trkpt><trkpt lat="46.85334654624508" lon="14.448231128831901"><ele>599.0</ele><time>2026-05-01T19:44:40Z</time></trkpt><trkpt lat="46.85311581034887" lon="14.44821998410135"><ele>598.0</ele><time>2026-05-01T19:44:41Z</time></trkpt><trkpt lat="46.852883063983285" lon="14.448211400497987"><ele>598.0</ele><time>2026-05-01T19:44:42Z</time></trkpt><trkpt lat="46.852650648652215" lon="14.448201975788782"><ele>598.0</ele><time>2026-05-01T19:44:43Z</time></trkpt><trkpt lat="46.85242090940166" lon="14.448187930829093"><ele>597.5</ele><time>2026-05-01T19:44:44Z</time></trkpt><trkpt lat="46.8521903656595" lon="14.448179307284677"><ele>597.0</ele><time>2026-05-01T19:44:45Z</time></trkpt><trkpt lat="46.851956542931866" lon="14.4481679359088"><ele>595.0</ele><time>2026-05-01T19:44:46Z</time></trkpt><trkpt lat="46.85172429360766" lon="14.448158992080307"><ele>593.0</ele><time>2026-05-01T19:44:47Z</time></trkpt><trkpt lat="46.85149151975433" lon="14.448152170754827"><ele>593.0</ele><time>2026-05-01T19:44:48Z</time></trkpt><trkpt lat="46.85125808244375" lon="14.4481415259198"><ele>593.0</ele><time>2026-05-01T19:44:49Z</time></trkpt><trkpt lat="46.85102853365846" lon="14.448132859415512"><ele>592.5</ele><time>2026-05-01T19:44:50Z</time></trkpt><trkpt lat="46.85080383754219" lon="14.448122354102946"><ele>592.0</ele><time>2026-05-01T19:44:51Z</time></trkpt><trkpt lat="46.85057435126322" lon="14.448116309236589"><ele>592.0</ele><time>2026-05-01T19:44:52Z</time></trkpt><trkpt lat="46.850343691191625" lon="14.448113555206449"><ele>592.0</ele><time>2026-05-01T19:44:53Z</time></trkpt><trkpt lat="46.850109182856364" lon="14.448111224900243"><ele>591.0</ele><time>2026-05-01T19:44:54Z</time></trkpt><trkpt lat="46.84986771772655" lon="14.448097408070199"><ele>590.0</ele><time>2026-05-01T19:44:55Z</time></trkpt><trkpt lat="46.84962676169378" lon="14.44809025361653"><ele>590.0</ele><time>2026-05-01T19:44:56Z</time></trkpt><trkpt lat="46.849383100096425" lon="14.44807651953116"><ele>590.0</ele><time>2026-05-01T19:44:57Z</time></trkpt><trkpt lat="46.84914233052282" lon="14.448065159030033"><ele>589.0</ele><time>2026-05-01T19:44:58Z</time></trkpt><trkpt lat="46.84890568751357" lon="14.448058165519285"><ele>588.0</ele><time>2026-05-01T19:44:59Z</time></trkpt><trkpt lat="46.8486739695569" lon="14.448043235749372"><ele>589.0</ele><time>2026-05-01T19:45:00Z</time></trkpt><trkpt lat="46.84844043156136" lon="14.448036632429075"><ele>590.0</ele><time>2026-05-01T19:45:01Z</time></trkpt><trkpt lat="46.84820574115722" lon="14.448026357275458"><ele>590.0</ele><time>2026-05-01T19:45:02Z</time></trkpt><trkpt lat="46.84797364391913" lon="14.448018525604697"><ele>590.0</ele><time>2026-05-01T19:45:03Z</time></trkpt><trkpt lat="46.84774166492588" lon="14.44800828882711"><ele>590.5</ele><time>2026-05-01T19:45:04Z</time></trkpt><trkpt lat="46.84750874811877" lon="14.447998559060776"><ele>591.0</ele><time>2026-05-01T19:45:05Z</time></trkpt><trkpt lat="46.8472752998764" lon="14.447989661254262"><ele>591.0</ele><time>2026-05-01T19:45:06Z</time></trkpt><trkpt lat="46.847042291001074" lon="14.447980492902989"><ele>591.0</ele><time>2026-05-01T19:45:07Z</time></trkpt><trkpt lat="46.846807013304606" lon="14.447970528383793"><ele>592.0</ele><time>2026-05-01T19:45:08Z</time></trkpt><trkpt lat="46.84657336039118" lon="14.447961393843384"><ele>593.0</ele><time>2026-05-01T19:45:09Z</time></trkpt><trkpt lat="46.846338538436584" lon="14.447951359763291"><ele>592.5</ele><time>2026-05-01T19:45:10Z</time></trkpt><trkpt lat="46.846104118782755" lon="14.447942812212085"><ele>592.0</ele><time>2026-05-01T19:45:11Z</time></trkpt><trkpt lat="46.84586748209939" lon="14.447932317033834"><ele>592.0</ele><time>2026-05-01T19:45:12Z</time></trkpt><trkpt lat="46.845630981726146" lon="14.447919417118467"><ele>592.0</ele><time>2026-05-01T19:45:13Z</time></trkpt><trkpt lat="46.845393832484724" lon="14.447899350366288"><ele>592.0</ele><time>2026-05-01T19:45:14Z</time></trkpt><trkpt lat="46.8451552153717" lon="14.44787721367286"><ele>592.0</ele><time>2026-05-01T19:45:15Z</time></trkpt><trkpt lat="46.84491573961004" lon="14.447856209995102"><ele>590.5</ele><time>2026-05-01T19:45:16Z</time></trkpt><trkpt lat="46.84467551103664" lon="14.44782975909583"><ele>589.0</ele><time>2026-05-01T19:45:17Z</time></trkpt><trkpt lat="46.84443579778971" lon="14.447799891414713"><ele>588.5</ele><time>2026-05-01T19:45:18Z</time></trkpt><trkpt lat="46.84419729809315" lon="14.447768264093154"><ele>588.0</ele><time>2026-05-01T19:45:19Z</time></trkpt><trkpt lat="46.84396075699868" lon="14.447732418515761"><ele>588.0</ele><time>2026-05-01T19:45:20Z</time></trkpt><trkpt lat="46.84372373653396" lon="14.447694115932636"><ele>588.0</ele><time>2026-05-01T19:45:21Z</time></trkpt><trkpt lat="46.843488717786606" lon="14.44765164899421"><ele>587.5</ele><time>2026-05-01T19:45:22Z</time></trkpt><trkpt lat="46.843254130691136" lon="14.447611532142075"><ele>587.0</ele><time>2026-05-01T19:45:23Z</time></trkpt><trkpt lat="46.8430222843273" lon="14.447572834192131"><ele>587.0</ele><time>2026-05-01T19:45:24Z</time></trkpt><trkpt lat="46.842793434332904" lon="14.447531377640317"><ele>587.0</ele><time>2026-05-01T19:45:25Z</time></trkpt><trkpt lat="46.84256473429663" lon="14.447484303641046"><ele>585.0</ele><time>2026-05-01T19:45:26Z</time></trkpt><trkpt lat="46.84233882165747" lon="14.447429570166"><ele>583.0</ele><time>2026-05-01T19:45:27Z</time></trkpt><trkpt lat="46.84211525930969" lon="14.447368550683583"><ele>583.0</ele><time>2026-05-01T19:45:28Z</time></trkpt><trkpt lat="46.84189146519276" lon="14.44730854181545"><ele>583.0</ele><time>2026-05-01T19:45:29Z</time></trkpt><trkpt lat="46.841668624242146" lon="14.447248445389201"><ele>581.5</ele><time>2026-05-01T19:45:30Z</time></trkpt><trkpt lat="46.84144552469279" lon="14.447186589301978"><ele>580.0</ele><time>2026-05-01T19:45:31Z</time></trkpt><trkpt lat="46.84122172329577" lon="14.447122687160775"><ele>578.0</ele><time>2026-05-01T19:45:32Z</time></trkpt><trkpt lat="46.84100015621815" lon="14.447056166370597"><ele>576.0</ele><time>2026-05-01T19:45:33Z</time></trkpt><trkpt lat="46.840782084477354" lon="14.446981345570908"><ele>574.3333333333334</ele><time>2026-05-01T19:45:34Z</time></trkpt><trkpt lat="46.84056268798586" lon="14.446906749495879"><ele>572.6666666666667</ele><time>2026-05-01T19:45:35Z</time></trkpt><trkpt lat="46.84034611946297" lon="14.446833266172916"><ele>571.0</ele><time>2026-05-01T19:45:36Z</time></trkpt><trkpt lat="46.84013231368952" lon="14.44675245732382"><ele>569.3333333333334</ele><time>2026-05-01T19:45:37Z</time></trkpt><trkpt lat="46.83991904280611" lon="14.446675892237652"><ele>567.6666666666666</ele><time>2026-05-01T19:45:38Z</time></trkpt><trkpt lat="46.83971107741821" lon="14.446602691634357"><ele>566.0</ele><time>2026-05-01T19:45:39Z</time></trkpt><trkpt lat="46.83950143711364" lon="14.446520261704936"><ele>564.3333333333333</ele><time>2026-05-01T19:45:40Z</time></trkpt><trkpt lat="46.83929142959752" lon="14.44643423223381"><ele>562.6666666666666</ele><time>2026-05-01T19:45:41Z</time></trkpt><trkpt lat="46.839081571460376" lon="14.44634575155633"><ele>561.0</ele><time>2026-05-01T19:45:42.001Z</time></trkpt><trkpt lat="46.83887279111639" lon="14.446253791936721"><ele>561.0</ele><time>2026-05-01T19:45:43.001Z</time></trkpt><trkpt lat="46.83866432207991" lon="14.446162288363578"><ele>561.0</ele><time>2026-05-01T19:45:44.001Z</time></trkpt><trkpt lat="46.83845801864147" lon="14.446070648717166"><ele>561.0</ele><time>2026-05-01T19:45:45.001Z</time></trkpt><trkpt lat="46.83825214475444" lon="14.445977468248833"><ele>561.6666666666666</ele><time>2026-05-01T19:45:46.001Z</time></trkpt><trkpt lat="46.83804789577677" lon="14.445883562374984"><ele>562.3333333333333</ele><time>2026-05-01T19:45:47.001Z</time></trkpt><trkpt lat="46.8378445232296" lon="14.445788531168443"><ele>563.0</ele><time>2026-05-01T19:45:48Z</time></trkpt><trkpt lat="46.8376419124611" lon="14.445695561247032"><ele>565.0</ele><time>2026-05-01T19:45:49Z</time></trkpt><trkpt lat="46.837439655318796" lon="14.445600309771924"><ele>567.0</ele><time>2026-05-01T19:45:50Z</time></trkpt><trkpt lat="46.83723831816956" lon="14.445499674092563"><ele>569.0</ele><time>2026-05-01T19:45:51Z</time></trkpt><trkpt lat="46.8370349667422" lon="14.445393987156638"><ele>569.0</ele><time>2026-05-01T19:45:52Z</time></trkpt><trkpt lat="46.836833228926345" lon="14.44528442362314"><ele>569.0</ele><time>2026-05-01T19:45:53Z</time></trkpt><trkpt lat="46.83663062772779" lon="14.44516917592395"><ele>569.0</ele><time>2026-05-01T19:45:54Z</time></trkpt><trkpt lat="46.83642980265277" lon="14.44504974898368"><ele>569.3333333333333</ele><time>2026-05-01T19:45:55Z</time></trkpt><trkpt lat="46.83623152849316" lon="14.444924618087718"><ele>569.6666666666666</ele><time>2026-05-01T19:45:56Z</time></trkpt><trkpt lat="46.83603293427248" lon="14.444796251682956"><ele>570.0</ele><time>2026-05-01T19:45:57Z</time></trkpt><trkpt lat="46.83583860898039" lon="14.444665192746498"><ele>570.6666666666666</ele><time>2026-05-01T19:45:58Z</time></trkpt><trkpt lat="46.83564343619435" lon="14.444528331473665"><ele>571.3333333333333</ele><time>2026-05-01T19:45:59Z</time></trkpt><trkpt lat="46.835452419017315" lon="14.444388712390712"><ele>572.0</ele><time>2026-05-01T19:46:00Z</time></trkpt><trkpt lat="46.835264593602744" lon="14.44424587073248"><ele>572.6666666666666</ele><time>2026-05-01T19:46:01Z</time></trkpt><trkpt lat="46.83507546565588" lon="14.44409917100703"><ele>573.3333333333334</ele><time>2026-05-01T19:46:02Z</time></trkpt><trkpt lat="46.83488727886459" lon="14.443945822890736"><ele>574.0</ele><time>2026-05-01T19:46:03Z</time></trkpt><trkpt lat="46.8347008068173" lon="14.443794238449833"><ele>574.3333333333334</ele><time>2026-05-01T19:46:04Z</time></trkpt><trkpt lat="46.83451543144243" lon="14.443642762385526"><ele>574.6666666666666</ele><time>2026-05-01T19:46:05Z</time></trkpt><trkpt lat="46.83432941496494" lon="14.443490254600658"><ele>575.0</ele><time>2026-05-01T19:46:06Z</time></trkpt><trkpt lat="46.83414592488475" lon="14.443333054294232"><ele>575.3333333333333</ele><time>2026-05-01T19:46:07Z</time></trkpt><trkpt lat="46.83396043870018" lon="14.443175735496501"><ele>575.6666666666666</ele><time>2026-05-01T19:46:08Z</time></trkpt><trkpt lat="46.83377612768654" lon="14.443016642567608"><ele>576.0</ele><time>2026-05-01T19:46:09Z</time></trkpt><trkpt lat="46.83358926182034" lon="14.442859364539958"><ele>575.6666666666666</ele><time>2026-05-01T19:46:10Z</time></trkpt><trkpt lat="46.83340163978012" lon="14.442705218866713"><ele>575.3333333333333</ele><time>2026-05-01T19:46:11Z</time></trkpt><trkpt lat="46.83321521654716" lon="14.442549248906385"><ele>575.0</ele><time>2026-05-01T19:46:12Z</time></trkpt><trkpt lat="46.833027606436694" lon="14.442395195968398"><ele>575.0</ele><time>2026-05-01T19:46:13Z</time></trkpt><trkpt lat="46.83283764125262" lon="14.442247615543549"><ele>575.0</ele><time>2026-05-01T19:46:14Z</time></trkpt><trkpt lat="46.832645907622094" lon="14.442107535282423"><ele>575.0</ele><time>2026-05-01T19:46:15Z</time></trkpt><trkpt lat="46.8324498320326" lon="14.44197589852136"><ele>575.0</ele><time>2026-05-01T19:46:16Z</time></trkpt><trkpt lat="46.832253015142435" lon="14.441848859625352"><ele>575.0</ele><time>2026-05-01T19:46:17Z</time></trkpt><trkpt lat="46.83205242450113" lon="14.441722905317818"><ele>575.0</ele><time>2026-05-01T19:46:18Z</time></trkpt><trkpt lat="46.83184957399885" lon="14.441602591974522"><ele>575.3333333333333</ele><time>2026-05-01T19:46:19Z</time></trkpt><trkpt lat="46.8316434665273" lon="14.441488544529388"><ele>575.6666666666666</ele><time>2026-05-01T19:46:20Z</time></trkpt><trkpt lat="46.83143256603664" lon="14.441388230020346"><ele>576.0</ele><time>2026-05-01T19:46:21Z</time></trkpt><trkpt lat="46.83121855803208" lon="14.44129264185734"><ele>576.0</ele><time>2026-05-01T19:46:22Z</time></trkpt><trkpt lat="46.83100404189818" lon="14.441200150111463"><ele>576.0</ele><time>2026-05-01T19:46:23Z</time></trkpt><trkpt lat="46.8307842552985" lon="14.441120282560144"><ele>576.0</ele><time>2026-05-01T19:46:24Z</time></trkpt><trkpt lat="46.83056388152009" lon="14.441039811818824"><ele>576.0</ele><time>2026-05-01T19:46:25Z</time></trkpt><trkpt lat="46.830341809692314" lon="14.440969047485408"><ele>576.0</ele><time>2026-05-01T19:46:26Z</time></trkpt><trkpt lat="46.83012809035634" lon="14.440898300547243"><ele>576.0</ele><time>2026-05-01T19:46:27Z</time></trkpt><trkpt lat="46.82991359210792" lon="14.440825281995377"><ele>576.0</ele><time>2026-05-01T19:46:28Z</time></trkpt><trkpt lat="46.829693414535555" lon="14.44075594978848"><ele>576.0</ele><time>2026-05-01T19:46:29Z</time></trkpt><trkpt lat="46.82946734275641" lon="14.440683246505092"><ele>576.0</ele><time>2026-05-01T19:46:30Z</time></trkpt><trkpt lat="46.829238662616376" lon="14.440604268556902"><ele>576.5</ele><time>2026-05-01T19:46:31Z</time></trkpt><trkpt lat="46.829006752901314" lon="14.440521589224891"><ele>577.0</ele><time>2026-05-01T19:46:32Z</time></trkpt><trkpt lat="46.828773462714594" lon="14.440435535587199"><ele>577.0</ele><time>2026-05-01T19:46:33Z</time></trkpt><trkpt lat="46.82853644834545" lon="14.440351304245757"><ele>577.0</ele><time>2026-05-01T19:46:34Z</time></trkpt><trkpt lat="46.82830166371298" lon="14.440262278137112"><ele>576.5</ele><time>2026-05-01T19:46:35Z</time></trkpt><trkpt lat="46.82807036274038" lon="14.440172549490203"><ele>576.0</ele><time>2026-05-01T19:46:36Z</time></trkpt><trkpt lat="46.8278434800936" lon="14.440081425666499"><ele>575.5</ele><time>2026-05-01T19:46:37Z</time></trkpt><trkpt lat="46.82761608225878" lon="14.4399901388664"><ele>575.0</ele><time>2026-05-01T19:46:38Z</time></trkpt><trkpt lat="46.82739020106671" lon="14.439896618821855"><ele>575.0</ele><time>2026-05-01T19:46:39Z</time></trkpt><trkpt lat="46.82716553343468" lon="14.439797720077895"><ele>575.0</ele><time>2026-05-01T19:46:40Z</time></trkpt><trkpt lat="46.82694112845548" lon="14.439699065020761"><ele>576.0</ele><time>2026-05-01T19:46:41Z</time></trkpt><trkpt lat="46.82671478679945" lon="14.439598782790329"><ele>577.0</ele><time>2026-05-01T19:46:42Z</time></trkpt><trkpt lat="46.826489223809794" lon="14.439499857591244"><ele>577.0</ele><time>2026-05-01T19:46:43Z</time></trkpt><trkpt lat="46.82626379320445" lon="14.439400962154245"><ele>577.0</ele><time>2026-05-01T19:46:44Z</time></trkpt><trkpt lat="46.82604007774253" lon="14.43930191219512"><ele>575.5</ele><time>2026-05-01T19:46:45Z</time></trkpt><trkpt lat="46.825816684633665" lon="14.439203703979988"><ele>574.0</ele><time>2026-05-01T19:46:46Z</time></trkpt><trkpt lat="46.82559513545351" lon="14.439106817047696"><ele>574.0</ele><time>2026-05-01T19:46:47Z</time></trkpt><trkpt lat="46.8253777872157" lon="14.439008788732398"><ele>574.0</ele><time>2026-05-01T19:46:48Z</time></trkpt><trkpt lat="46.825160585557725" lon="14.438912221828371"><ele>574.0</ele><time>2026-05-01T19:46:49Z</time></trkpt><trkpt lat="46.824941797579754" lon="14.438820915774507"><ele>574.0</ele><time>2026-05-01T19:46:50Z</time></trkpt><trkpt lat="46.824718895016815" lon="14.438726049560316"><ele>574.0</ele><time>2026-05-01T19:46:51Z</time></trkpt><trkpt lat="46.82449502878585" lon="14.438637214659035"><ele>574.0</ele><time>2026-05-01T19:46:52Z</time></trkpt><trkpt lat="46.82427028089664" lon="14.438549505010002"><ele>574.0</ele><time>2026-05-01T19:46:53Z</time></trkpt><trkpt lat="46.8240457446622" lon="14.43846363036372"><ele>574.0</ele><time>2026-05-01T19:46:54Z</time></trkpt><trkpt lat="46.8238203034197" lon="14.43837817241763"><ele>574.0</ele><time>2026-05-01T19:46:55Z</time></trkpt><trkpt lat="46.82359314987761" lon="14.438298206000363"><ele>574.0</ele><time>2026-05-01T19:46:56Z</time></trkpt><trkpt lat="46.82336727804411" lon="14.438212836720224"><ele>573.5</ele><time>2026-05-01T19:46:57Z</time></trkpt><trkpt lat="46.823143465390935" lon="14.438119086719237"><ele>573.0</ele><time>2026-05-01T19:46:58Z</time></trkpt><trkpt lat="46.82292096051997" lon="14.438020434323832"><ele>573.0</ele><time>2026-05-01T19:46:59Z</time></trkpt><trkpt lat="46.822700216993404" lon="14.437908338054642"><ele>573.0</ele><time>2026-05-01T19:47:00Z</time></trkpt><trkpt lat="46.82248526954269" lon="14.437778039934917"><ele>573.0</ele><time>2026-05-01T19:47:01Z</time></trkpt><trkpt lat="46.82227744975193" lon="14.437630351534343"><ele>573.0</ele><time>2026-05-01T19:47:02Z</time></trkpt><trkpt lat="46.82207255905715" lon="14.437471025247989"><ele>573.0</ele><time>2026-05-01T19:47:03Z</time></trkpt><trkpt lat="46.821873751700224" lon="14.437298502473887"><ele>573.0</ele><time>2026-05-01T19:47:04Z</time></trkpt><trkpt lat="46.821680013745514" lon="14.43711117959356"><ele>572.0</ele><time>2026-05-01T19:47:05Z</time></trkpt><trkpt lat="46.821494533709895" lon="14.436915644034762"><ele>571.0</ele><time>2026-05-01T19:47:06Z</time></trkpt><trkpt lat="46.82131953287851" lon="14.43670377619965"><ele>571.0</ele><time>2026-05-01T19:47:07Z</time></trkpt><trkpt lat="46.82115297110484" lon="14.436476491163237"><ele>571.0</ele><time>2026-05-01T19:47:08Z</time></trkpt><trkpt lat="46.82099127791422" lon="14.436242473821498"><ele>571.0</ele><time>2026-05-01T19:47:09Z</time></trkpt><trkpt lat="46.82083235448392" lon="14.436002973473867"><ele>571.0</ele><time>2026-05-01T19:47:10Z</time></trkpt><trkpt lat="46.82067332323721" lon="14.435766046630953"><ele>571.0</ele><time>2026-05-01T19:47:11Z</time></trkpt><trkpt lat="46.82051630696498" lon="14.435530904452113"><ele>571.0</ele><time>2026-05-01T19:47:12Z</time></trkpt><trkpt lat="46.82036353913416" lon="14.435287741298348"><ele>570.3333333333334</ele><time>2026-05-01T19:47:13Z</time></trkpt><trkpt lat="46.820210466724305" lon="14.435046667820881"><ele>569.6666666666666</ele><time>2026-05-01T19:47:14Z</time></trkpt><trkpt lat="46.82005743459883" lon="14.43480961815792"><ele>569.0</ele><time>2026-05-01T19:47:15Z</time></trkpt><trkpt lat="46.81990099742277" lon="14.434568623426491"><ele>569.0</ele><time>2026-05-01T19:47:16Z</time></trkpt><trkpt lat="46.81974454735888" lon="14.434330860784359"><ele>569.0</ele><time>2026-05-01T19:47:17Z</time></trkpt><trkpt lat="46.81958857449573" lon="14.434088665493464"><ele>569.0</ele><time>2026-05-01T19:47:18Z</time></trkpt><trkpt lat="46.81943286504989" lon="14.433845038685313"><ele>569.0</ele><time>2026-05-01T19:47:19Z</time></trkpt><trkpt lat="46.81927892500932" lon="14.433605554790983"><ele>568.5</ele><time>2026-05-01T19:47:20Z</time></trkpt><trkpt lat="46.81911863666502" lon="14.433371344562888"><ele>568.0</ele><time>2026-05-01T19:47:21Z</time></trkpt><trkpt lat="46.81895205192436" lon="14.433151334907896"><ele>568.3333333333334</ele><time>2026-05-01T19:47:22Z</time></trkpt><trkpt lat="46.818780476393904" lon="14.432941237405549"><ele>568.6666666666666</ele><time>2026-05-01T19:47:23Z</time></trkpt><trkpt lat="46.81860294253041" lon="14.43274281475689"><ele>569.0</ele><time>2026-05-01T19:47:24Z</time></trkpt><trkpt lat="46.818418993388" lon="14.432556592991146"><ele>569.0</ele><time>2026-05-01T19:47:25Z</time></trkpt><trkpt lat="46.81822664259772" lon="14.43238625487528"><ele>569.0</ele><time>2026-05-01T19:47:26Z</time></trkpt><trkpt lat="46.8180293294766" lon="14.432233179016231"><ele>569.0</ele><time>2026-05-01T19:47:27Z</time></trkpt><trkpt lat="46.817824338464916" lon="14.432097538894359"><ele>570.5</ele><time>2026-05-01T19:47:28Z</time></trkpt><trkpt lat="46.817615986540595" lon="14.431974186987741"><ele>572.0</ele><time>2026-05-01T19:47:29Z</time></trkpt><trkpt lat="46.81740381567266" lon="14.431855201600314"><ele>572.0</ele><time>2026-05-01T19:47:30Z</time></trkpt><trkpt lat="46.81718888007919" lon="14.431738398159707"><ele>572.0</ele><time>2026-05-01T19:47:31Z</time></trkpt><trkpt lat="46.81697589675611" lon="14.431612834247753"><ele>578.5</ele><time>2026-05-01T19:47:32Z</time></trkpt><trkpt lat="46.81676668456343" lon="14.431486652880261"><ele>585.0</ele><time>2026-05-01T19:47:33Z</time></trkpt><trkpt lat="46.816560144522285" lon="14.431353075434563"><ele>589.5</ele><time>2026-05-01T19:47:34Z</time></trkpt><trkpt lat="46.81635984056977" lon="14.431202780974385"><ele>594.0</ele><time>2026-05-01T19:47:35Z</time></trkpt><trkpt lat="46.81616721561464" lon="14.43103409286186"><ele>594.0</ele><time>2026-05-01T19:47:36Z</time></trkpt><trkpt lat="46.81598137524918" lon="14.430852146068386"><ele>594.0</ele><time>2026-05-01T19:47:37Z</time></trkpt><trkpt lat="46.81580676824646" lon="14.430656322489844"><ele>594.0</ele><time>2026-05-01T19:47:38Z</time></trkpt><trkpt lat="46.81563705693551" lon="14.43044718190417"><ele>594.0</ele><time>2026-05-01T19:47:39Z</time></trkpt><trkpt lat="46.81547744872236" lon="14.430223643004375"><ele>594.0</ele><time>2026-05-01T19:47:40Z</time></trkpt><trkpt lat="46.815327343596365" lon="14.429990352997008"><ele>594.0</ele><time>2026-05-01T19:47:41Z</time></trkpt><trkpt lat="46.815183949983464" lon="14.429747105746198"><ele>594.0</ele><time>2026-05-01T19:47:42Z</time></trkpt><trkpt lat="46.81504832697451" lon="14.42949543486297"><ele>594.0</ele><time>2026-05-01T19:47:43Z</time></trkpt><trkpt lat="46.81492035379253" lon="14.429238908607422"><ele>594.0</ele><time>2026-05-01T19:47:44Z</time></trkpt><trkpt lat="46.81479374627433" lon="14.428976250257511"><ele>596.6666666666666</ele><time>2026-05-01T19:47:45Z</time></trkpt><trkpt lat="46.81467069366309" lon="14.428711522320684"><ele>599.3333333333333</ele><time>2026-05-01T19:47:46Z</time></trkpt><trkpt lat="46.81454433856727" lon="14.428450226660264"><ele>602.0</ele><time>2026-05-01T19:47:47Z</time></trkpt><trkpt lat="46.814415683477264" lon="14.428187557798005"><ele>600.3333333333333</ele><time>2026-05-01T19:47:48Z</time></trkpt><trkpt lat="46.8142781123765" lon="14.427935758750687"><ele>598.6666666666666</ele><time>2026-05-01T19:47:49Z</time></trkpt><trkpt lat="46.81413103271724" lon="14.427696445896453"><ele>597.0</ele><time>2026-05-01T19:47:50Z</time></trkpt><trkpt lat="46.813976694543065" lon="14.42747080637758"><ele>597.0</ele><time>2026-05-01T19:47:51Z</time></trkpt><trkpt lat="46.81381576388148" lon="14.4272508083442"><ele>597.0</ele><time>2026-05-01T19:47:52.001Z</time></trkpt><trkpt lat="46.813647899610615" lon="14.42704078621354"><ele>597.0</ele><time>2026-05-01T19:47:53.001Z</time></trkpt><trkpt lat="46.813474640318496" lon="14.42683448917805"><ele>598.0</ele><time>2026-05-01T19:47:54Z</time></trkpt><trkpt lat="46.81329917318173" lon="14.426630544172058"><ele>599.0</ele><time>2026-05-01T19:47:55Z</time></trkpt><trkpt lat="46.81312394662602" lon="14.426428535564835"><ele>600.0</ele><time>2026-05-01T19:47:56Z</time></trkpt><trkpt lat="46.81294693083559" lon="14.426225557669214"><ele>600.0</ele><time>2026-05-01T19:47:57Z</time></trkpt><trkpt lat="46.812774040522996" lon="14.426026023204377"><ele>600.0</ele><time>2026-05-01T19:47:58Z</time></trkpt><trkpt lat="46.8126087395895" lon="14.425831072838047"><ele>600.0</ele><time>2026-05-01T19:47:59Z</time></trkpt><trkpt lat="46.81244040281721" lon="14.425625993502626"><ele>598.3333333333334</ele><time>2026-05-01T19:48:00Z</time></trkpt><trkpt lat="46.81227198494458" lon="14.425416127525136"><ele>596.6666666666667</ele><time>2026-05-01T19:48:01Z</time></trkpt><trkpt lat="46.8121058408158" lon="14.425199355158599"><ele>595.0</ele><time>2026-05-01T19:48:02Z</time></trkpt><trkpt lat="46.81194691743572" lon="14.424974643005287"><ele>594.3333333333334</ele><time>2026-05-01T19:48:03Z</time></trkpt><trkpt lat="46.81179602343489" lon="14.424735434955437"><ele>593.6666666666666</ele><time>2026-05-01T19:48:04Z</time></trkpt><trkpt lat="46.811652322696204" lon="14.424489181440594"><ele>593.0</ele><time>2026-05-01T19:48:05Z</time></trkpt><trkpt lat="46.81151382880874" lon="14.42423681864988"><ele>593.0</ele><time>2026-05-01T19:48:06Z</time></trkpt><trkpt lat="46.81138244715134" lon="14.423978459549117"><ele>593.0</ele><time>2026-05-01T19:48:07Z</time></trkpt><trkpt lat="46.811257986735335" lon="14.423714576579902"><ele>593.0</ele><time>2026-05-01T19:48:08Z</time></trkpt><trkpt lat="46.81113827194242" lon="14.423447382972679"><ele>593.6666666666666</ele><time>2026-05-01T19:48:09Z</time></trkpt><trkpt lat="46.81102107100257" lon="14.423176364347562"><ele>594.3333333333334</ele><time>2026-05-01T19:48:10Z</time></trkpt><trkpt lat="46.81090251344483" lon="14.422904109088988"><ele>595.0</ele><time>2026-05-01T19:48:11Z</time></trkpt><trkpt lat="46.810784331696084" lon="14.422629911700374"><ele>595.0</ele><time>2026-05-01T19:48:12Z</time></trkpt><trkpt lat="46.81066345967368" lon="14.42235367338297"><ele>595.0</ele><time>2026-05-01T19:48:13Z</time></trkpt><trkpt lat="46.81054526271871" lon="14.422073526696716"><ele>595.5</ele><time>2026-05-01T19:48:14Z</time></trkpt><trkpt lat="46.810425618780286" lon="14.421794406976964"><ele>596.0</ele><time>2026-05-01T19:48:15Z</time></trkpt><trkpt lat="46.81030435368748" lon="14.421515381145277"><ele>596.6666666666666</ele><time>2026-05-01T19:48:16Z</time></trkpt><trkpt lat="46.810186556972994" lon="14.42123622600087"><ele>597.3333333333334</ele><time>2026-05-01T19:48:17Z</time></trkpt><trkpt lat="46.81006970388152" lon="14.420960166626331"><ele>598.0</ele><time>2026-05-01T19:48:18Z</time></trkpt><trkpt lat="46.80995066119598" lon="14.420685415331691"><ele>593.3333333333334</ele><time>2026-05-01T19:48:19Z</time></trkpt><trkpt lat="46.809831914058854" lon="14.420411189861573"><ele>588.6666666666666</ele><time>2026-05-01T19:48:20Z</time></trkpt><trkpt lat="46.80971504894039" lon="14.420137882798423"><ele>584.0</ele><time>2026-05-01T19:48:21Z</time></trkpt><trkpt lat="46.80959772613544" lon="14.419863638487929"><ele>584.6666666666666</ele><time>2026-05-01T19:48:22Z</time></trkpt><trkpt lat="46.80948029389845" lon="14.41959316981165"><ele>585.3333333333334</ele><time>2026-05-01T19:48:23Z</time></trkpt><trkpt lat="46.80936389621125" lon="14.419321573758289"><ele>586.0</ele><time>2026-05-01T19:48:24Z</time></trkpt><trkpt lat="46.80924991483877" lon="14.419050427077686"><ele>586.6666666666667</ele><time>2026-05-01T19:48:25Z</time></trkpt><trkpt lat="46.80913245635107" lon="14.418780050801153"><ele>587.3333333333334</ele><time>2026-05-01T19:48:26Z</time></trkpt><trkpt lat="46.80901737644603" lon="14.418507513292624"><ele>588.0</ele><time>2026-05-01T19:48:27Z</time></trkpt><trkpt lat="46.80890062183009" lon="14.41823667202273"><ele>588.0</ele><time>2026-05-01T19:48:28Z</time></trkpt><trkpt lat="46.80878302426691" lon="14.41796171242773"><ele>588.0</ele><time>2026-05-01T19:48:29Z</time></trkpt><trkpt lat="46.8086618903631" lon="14.417685181912299"><ele>588.0</ele><time>2026-05-01T19:48:30Z</time></trkpt><trkpt lat="46.808541848228614" lon="14.417407879536805"><ele>590.5</ele><time>2026-05-01T19:48:31Z</time></trkpt><trkpt lat="46.80842201889938" lon="14.417126825696101"><ele>593.0</ele><time>2026-05-01T19:48:32Z</time></trkpt><trkpt lat="46.80830036189898" lon="14.416846050102686"><ele>593.0</ele><time>2026-05-01T19:48:33Z</time></trkpt><trkpt lat="46.80818114532085" lon="14.416563883702562"><ele>593.0</ele><time>2026-05-01T19:48:34Z</time></trkpt><trkpt lat="46.80805803303377" lon="14.416279530383576"><ele>595.0</ele><time>2026-05-01T19:48:35Z</time></trkpt><trkpt lat="46.80793516053483" lon="14.415998452975685"><ele>597.0</ele><time>2026-05-01T19:48:36Z</time></trkpt><trkpt lat="46.807808237525244" lon="14.415716750173369"><ele>597.0</ele><time>2026-05-01T19:48:37Z</time></trkpt><trkpt lat="46.80768039827152" lon="14.415434666752061"><ele>597.0</ele><time>2026-05-01T19:48:38Z</time></trkpt><trkpt lat="46.80754902287075" lon="14.41515668303975"><ele>594.5</ele><time>2026-05-01T19:48:39Z</time></trkpt><trkpt lat="46.80741624076505" lon="14.414876790810228"><ele>592.0</ele><time>2026-05-01T19:48:40Z</time></trkpt><trkpt lat="46.80727691467496" lon="14.414599192916734"><ele>589.5</ele><time>2026-05-01T19:48:41Z</time></trkpt><trkpt lat="46.807138005012796" lon="14.414318811124378"><ele>587.0</ele><time>2026-05-01T19:48:42Z</time></trkpt><trkpt lat="46.80699877032129" lon="14.41403546995641"><ele>584.0</ele><time>2026-05-01T19:48:43Z</time></trkpt><trkpt lat="46.80685538581948" lon="14.41375733263534"><ele>581.0</ele><time>2026-05-01T19:48:44Z</time></trkpt><trkpt lat="46.80670651090308" lon="14.413483072709472"><ele>581.0</ele><time>2026-05-01T19:48:45Z</time></trkpt><trkpt lat="46.806558142112074" lon="14.41320920185712"><ele>581.0</ele><time>2026-05-01T19:48:46Z</time></trkpt><trkpt lat="46.80640233320135" lon="14.412943001232808"><ele>577.0</ele><time>2026-05-01T19:48:47Z</time></trkpt><trkpt lat="46.8062427012579" lon="14.412679860858235"><ele>573.0</ele><time>2026-05-01T19:48:48Z</time></trkpt><trkpt lat="46.80607828143379" lon="14.412423232086736"><ele>573.0</ele><time>2026-05-01T19:48:49Z</time></trkpt><trkpt lat="46.80591732005846" lon="14.412164843663186"><ele>573.0</ele><time>2026-05-01T19:48:50Z</time></trkpt><trkpt lat="46.80575768656808" lon="14.41190409407615"><ele>570.0</ele><time>2026-05-01T19:48:51Z</time></trkpt><trkpt lat="46.805600824128355" lon="14.4116457715465"><ele>567.0</ele><time>2026-05-01T19:48:52Z</time></trkpt><trkpt lat="46.80544123682234" lon="14.411386488188883"><ele>567.0</ele><time>2026-05-01T19:48:53Z</time></trkpt><trkpt lat="46.80528229984332" lon="14.411123178611637"><ele>567.0</ele><time>2026-05-01T19:48:54Z</time></trkpt><trkpt lat="46.80512808151874" lon="14.41085446977568"><ele>567.0</ele><time>2026-05-01T19:48:55Z</time></trkpt><trkpt lat="46.804977549482516" lon="14.41057865487469"><ele>567.0</ele><time>2026-05-01T19:48:56Z</time></trkpt><trkpt lat="46.804834312647976" lon="14.410297472961199"><ele>563.5</ele><time>2026-05-01T19:48:57Z</time></trkpt><trkpt lat="46.80469454631936" lon="14.41001343784173"><ele>560.0</ele><time>2026-05-01T19:48:58Z</time></trkpt><trkpt lat="46.80455535131234" lon="14.409726741841695"><ele>560.0</ele><time>2026-05-01T19:48:59Z</time></trkpt><trkpt lat="46.8044202727331" lon="14.409437781269567"><ele>560.0</ele><time>2026-05-01T19:49:00Z</time></trkpt><trkpt lat="46.80429267953027" lon="14.409155693739056"><ele>560.0</ele><time>2026-05-01T19:49:01Z</time></trkpt><trkpt lat="46.80417354717749" lon="14.408881428327494"><ele>560.0</ele><time>2026-05-01T19:49:02Z</time></trkpt><trkpt lat="46.804058839027874" lon="14.408609039369741"><ele>560.0</ele><time>2026-05-01T19:49:03Z</time></trkpt><trkpt lat="46.80394630813385" lon="14.408335031611646"><ele>559.3333333333333</ele><time>2026-05-01T19:49:04Z</time></trkpt><trkpt lat="46.803837978151414" lon="14.40805405165211"><ele>558.6666666666666</ele><time>2026-05-01T19:49:05Z</time></trkpt><trkpt lat="46.80373355981855" lon="14.407771886164934"><ele>558.0</ele><time>2026-05-01T19:49:06Z</time></trkpt><trkpt lat="46.803632504313065" lon="14.407488199658191"><ele>557.6666666666666</ele><time>2026-05-01T19:49:07Z</time></trkpt><trkpt lat="46.80353563199517" lon="14.407202214901428"><ele>557.3333333333333</ele><time>2026-05-01T19:49:08Z</time></trkpt><trkpt lat="46.8034389906695" lon="14.406916232452895"><ele>557.0</ele><time>2026-05-01T19:49:09Z</time></trkpt><trkpt lat="46.80334271823294" lon="14.406628821101847"><ele>555.3333333333333</ele><time>2026-05-01T19:49:10Z</time></trkpt><trkpt lat="46.80324835257303" lon="14.406344267083938"><ele>553.6666666666666</ele><time>2026-05-01T19:49:11Z</time></trkpt><trkpt lat="46.80315374195062" lon="14.406066638814343"><ele>552.0</ele><time>2026-05-01T19:49:12Z</time></trkpt><trkpt lat="46.803059837344634" lon="14.405795102566215"><ele>551.6666666666666</ele><time>2026-05-01T19:49:13Z</time></trkpt><trkpt lat="46.80296824833768" lon="14.405535863880617"><ele>551.3333333333333</ele><time>2026-05-01T19:49:14Z</time></trkpt><trkpt lat="46.80287518027987" lon="14.405276720124952"><ele>551.0</ele><time>2026-05-01T19:49:15Z</time></trkpt><trkpt lat="46.80278091125531" lon="14.405018732207193"><ele>550.3333333333333</ele><time>2026-05-01T19:49:16Z</time></trkpt><trkpt lat="46.8026870440854" lon="14.404760181601402"><ele>549.6666666666666</ele><time>2026-05-01T19:49:17Z</time></trkpt><trkpt lat="46.80259156162057" lon="14.404503835744556"><ele>549.0</ele><time>2026-05-01T19:49:18Z</time></trkpt><trkpt lat="46.802496080123" lon="14.404252753028233"><ele>547.0</ele><time>2026-05-01T19:49:19Z</time></trkpt><trkpt lat="46.802399505344304" lon="14.404005664207194"><ele>545.0</ele><time>2026-05-01T19:49:20Z</time></trkpt><trkpt lat="46.802303257508875" lon="14.403767101353061"><ele>543.0</ele><time>2026-05-01T19:49:21Z</time></trkpt><trkpt lat="46.8022071399256" lon="14.40353120440029"><ele>543.0</ele><time>2026-05-01T19:49:22Z</time></trkpt><trkpt lat="46.80211174249641" lon="14.403293343427164"><ele>543.0</ele><time>2026-05-01T19:49:23Z</time></trkpt><trkpt lat="46.80201289093394" lon="14.403056945010654"><ele>543.0</ele><time>2026-05-01T19:49:24Z</time></trkpt><trkpt lat="46.80191428537837" lon="14.402823750931415"><ele>543.0</ele><time>2026-05-01T19:49:25Z</time></trkpt><trkpt lat="46.80181446515951" lon="14.402584989419866"><ele>543.0</ele><time>2026-05-01T19:49:26Z</time></trkpt><trkpt lat="46.80171625472731" lon="14.40234737359211"><ele>543.0</ele><time>2026-05-01T19:49:27Z</time></trkpt><trkpt lat="46.801621406072734" lon="14.40210108797974"><ele>543.0</ele><time>2026-05-01T19:49:28Z</time></trkpt><trkpt lat="46.80153452012563" lon="14.401845225776826"><ele>543.0</ele><time>2026-05-01T19:49:29Z</time></trkpt><trkpt lat="46.801456014713104" lon="14.401582443144884"><ele>543.0</ele><time>2026-05-01T19:49:30Z</time></trkpt><trkpt lat="46.80137388409984" lon="14.401309912916002"><ele>543.0</ele><time>2026-05-01T19:49:31Z</time></trkpt><trkpt lat="46.80129347521273" lon="14.401035087143674"><ele>543.0</ele><time>2026-05-01T19:49:32Z</time></trkpt><trkpt lat="46.801214623205844" lon="14.400759991173764"><ele>543.0</ele><time>2026-05-01T19:49:33Z</time></trkpt><trkpt lat="46.80114348011344" lon="14.4004741168887"><ele>543.0</ele><time>2026-05-01T19:49:34Z</time></trkpt><trkpt lat="46.80107854773057" lon="14.400186257744434"><ele>543.0</ele><time>2026-05-01T19:49:35Z</time></trkpt><trkpt lat="46.801021241497395" lon="14.399891118401058"><ele>543.0</ele><time>2026-05-01T19:49:36Z</time></trkpt><trkpt lat="46.80097046954262" lon="14.399590486393729"><ele>543.0</ele><time>2026-05-01T19:49:37Z</time></trkpt><trkpt lat="46.80092428571509" lon="14.399288372141495"><ele>543.0</ele><time>2026-05-01T19:49:38Z</time></trkpt><trkpt lat="46.800880848351234" lon="14.398997957938079"><ele>543.0</ele><time>2026-05-01T19:49:39Z</time></trkpt><trkpt lat="46.80083986585689" lon="14.39871539776075"><ele>542.6666666666666</ele><time>2026-05-01T19:49:40Z</time></trkpt><trkpt lat="46.8007984649761" lon="14.398428463705153"><ele>542.3333333333333</ele><time>2026-05-01T19:49:41Z</time></trkpt><trkpt lat="46.800756640050594" lon="14.398133075864214"><ele>542.0</ele><time>2026-05-01T19:49:42Z</time></trkpt><trkpt lat="46.80070958902878" lon="14.397837673026153"><ele>541.6666666666666</ele><time>2026-05-01T19:49:43Z</time></trkpt><trkpt lat="46.8006574217454" lon="14.397540951554301"><ele>541.3333333333334</ele><time>2026-05-01T19:49:44Z</time></trkpt><trkpt lat="46.800602701684284" lon="14.397234952336657"><ele>541.0</ele><time>2026-05-01T19:49:45Z</time></trkpt><trkpt lat="46.80054020135262" lon="14.396939635658299"><ele>537.0</ele><time>2026-05-01T19:49:46Z</time></trkpt><trkpt lat="46.8004743171242" lon="14.39665868980041"><ele>533.0</ele><time>2026-05-01T19:49:47Z</time></trkpt><trkpt lat="46.800401224454944" lon="14.396391198587864"><ele>529.0</ele><time>2026-05-01T19:49:48Z</time></trkpt><trkpt lat="46.800319620210296" lon="14.396120153677048"><ele>529.3333333333334</ele><time>2026-05-01T19:49:49Z</time></trkpt><trkpt lat="46.80022958381447" lon="14.395841318005868"><ele>529.6666666666666</ele><time>2026-05-01T19:49:50Z</time></trkpt><trkpt lat="46.800133670104145" lon="14.395551897840141"><ele>530.0</ele><time>2026-05-01T19:49:51Z</time></trkpt><trkpt lat="46.80003517495328" lon="14.395259504495437"><ele>530.0</ele><time>2026-05-01T19:49:52Z</time></trkpt><trkpt lat="46.79992996428691" lon="14.394963941098181"><ele>530.0</ele><time>2026-05-01T19:49:53Z</time></trkpt><trkpt lat="46.79981672387916" lon="14.394677775637561"><ele>528.3333333333333</ele><time>2026-05-01T19:49:54Z</time></trkpt><trkpt lat="46.799696884220936" lon="14.394411694434918"><ele>526.6666666666666</ele><time>2026-05-01T19:49:55Z</time></trkpt><trkpt lat="46.79956937341459" lon="14.394151888093186"><ele>525.0</ele><time>2026-05-01T19:49:56Z</time></trkpt><trkpt lat="46.799428137154024" lon="14.393908019419818"><ele>524.0</ele><time>2026-05-01T19:49:57Z</time></trkpt><trkpt lat="46.79927622327834" lon="14.393670977282383"><ele>523.0</ele><time>2026-05-01T19:49:58Z</time></trkpt><trkpt lat="46.7991140728279" lon="14.39344244606938"><ele>522.0</ele><time>2026-05-01T19:49:59Z</time></trkpt><trkpt lat="46.798944005019294" lon="14.393220031418043"><ele>522.0</ele><time>2026-05-01T19:50:00Z</time></trkpt><trkpt lat="46.79876566576562" lon="14.393007978355588"><ele>522.0</ele><time>2026-05-01T19:50:01Z</time></trkpt><trkpt lat="46.798578041777596" lon="14.392807565847058"><ele>519.0</ele><time>2026-05-01T19:50:02Z</time></trkpt><trkpt lat="46.79838487204398" lon="14.392621154827191"><ele>516.0</ele><time>2026-05-01T19:50:03Z</time></trkpt><trkpt lat="46.798182764924775" lon="14.392445238209513"><ele>516.0</ele><time>2026-05-01T19:50:04Z</time></trkpt><trkpt lat="46.79797617038" lon="14.392279525687623"><ele>516.0</ele><time>2026-05-01T19:50:05Z</time></trkpt><trkpt lat="46.79776197563153" lon="14.392124944719432"><ele>515.0</ele><time>2026-05-01T19:50:06Z</time></trkpt><trkpt lat="46.79754305858938" lon="14.391985104756888"><ele>514.0</ele><time>2026-05-01T19:50:07Z</time></trkpt><trkpt lat="46.79731793329637" lon="14.391856176383495"><ele>514.0</ele><time>2026-05-01T19:50:08Z</time></trkpt><trkpt lat="46.797092489621335" lon="14.391734953507573"><ele>514.0</ele><time>2026-05-01T19:50:09Z</time></trkpt><trkpt lat="46.79686744700697" lon="14.391615223130588"><ele>511.5</ele><time>2026-05-01T19:50:10Z</time></trkpt><trkpt lat="46.79664991032726" lon="14.391498099506004"><ele>509.0</ele><time>2026-05-01T19:50:11Z</time></trkpt><trkpt lat="46.79644423507323" lon="14.391384040449255"><ele>509.3333333333333</ele><time>2026-05-01T19:50:12Z</time></trkpt><trkpt lat="46.79623660385839" lon="14.391269420564809"><ele>509.66666666666663</ele><time>2026-05-01T19:50:13Z</time></trkpt><trkpt lat="46.79602929650932" lon="14.391150560315332"><ele>510.0</ele><time>2026-05-01T19:50:14Z</time></trkpt><trkpt lat="46.79582575777786" lon="14.391031484707689"><ele>510.66666666666663</ele><time>2026-05-01T19:50:15Z</time></trkpt><trkpt lat="46.79562297529067" lon="14.390903522812986"><ele>511.3333333333333</ele><time>2026-05-01T19:50:16Z</time></trkpt><trkpt lat="46.795422233063505" lon="14.390765834387125"><ele>512.0</ele><time>2026-05-01T19:50:17Z</time></trkpt><trkpt lat="46.79522878590608" lon="14.390623759203377"><ele>515.0</ele><time>2026-05-01T19:50:18Z</time></trkpt><trkpt lat="46.79503638106915" lon="14.390479393426975"><ele>518.0</ele><time>2026-05-01T19:50:19Z</time></trkpt><trkpt lat="46.794841817965846" lon="14.390325868909594"><ele>521.0</ele><time>2026-05-01T19:50:20Z</time></trkpt><trkpt lat="46.79465220580952" lon="14.390170827604601"><ele>521.0</ele><time>2026-05-01T19:50:21Z</time></trkpt><trkpt lat="46.7944659369489" lon="14.390008664700744"><ele>521.0</ele><time>2026-05-01T19:50:22Z</time></trkpt><trkpt lat="46.79428365794579" lon="14.389838045408121"><ele>521.0</ele><time>2026-05-01T19:50:23Z</time></trkpt><trkpt lat="46.79410707463928" lon="14.389659898375582"><ele>519.0</ele><time>2026-05-01T19:50:24Z</time></trkpt><trkpt lat="46.793931671721865" lon="14.38947628278083"><ele>517.0</ele><time>2026-05-01T19:50:25Z</time></trkpt><trkpt lat="46.79375905336061" lon="14.38928921680831"><ele>515.0</ele><time>2026-05-01T19:50:26Z</time></trkpt><trkpt lat="46.79358628893251" lon="14.389097238614776"><ele>514.6666666666666</ele><time>2026-05-01T19:50:27Z</time></trkpt><trkpt lat="46.79341576068776" lon="14.388904169534175"><ele>514.3333333333334</ele><time>2026-05-01T19:50:28Z</time></trkpt><trkpt lat="46.793243794879" lon="14.388709225723243"><ele>514.0</ele><time>2026-05-01T19:50:29Z</time></trkpt><trkpt lat="46.793069845082385" lon="14.38851466558196"><ele>514.0</ele><time>2026-05-01T19:50:30Z</time></trkpt><trkpt lat="46.79289569398041" lon="14.388321332949008"><ele>514.0</ele><time>2026-05-01T19:50:31Z</time></trkpt><trkpt lat="46.792721563960264" lon="14.388128481196306"><ele>514.0</ele><time>2026-05-01T19:50:32Z</time></trkpt><trkpt lat="46.79254676025566" lon="14.387937674336893"><ele>512.3333333333334</ele><time>2026-05-01T19:50:33Z</time></trkpt><trkpt lat="46.792374469664026" lon="14.387751559090376"><ele>510.66666666666663</ele><time>2026-05-01T19:50:34Z</time></trkpt><trkpt lat="46.79220349078711" lon="14.387570993344717"><ele>509.0</ele><time>2026-05-01T19:50:35Z</time></trkpt><trkpt lat="46.792027572416615" lon="14.387392163766991"><ele>509.0</ele><time>2026-05-01T19:50:36Z</time></trkpt><trkpt lat="46.791847480630366" lon="14.387218624993666"><ele>509.0</ele><time>2026-05-01T19:50:37Z</time></trkpt><trkpt lat="46.79166211637708" lon="14.387051452591612"><ele>509.0</ele><time>2026-05-01T19:50:38Z</time></trkpt><trkpt lat="46.791476043177866" lon="14.386886260236544"><ele>508.3333333333333</ele><time>2026-05-01T19:50:39Z</time></trkpt><trkpt lat="46.79128635977504" lon="14.386720767492525"><ele>507.66666666666663</ele><time>2026-05-01T19:50:40Z</time></trkpt><trkpt lat="46.79110002310437" lon="14.386564191222762"><ele>507.0</ele><time>2026-05-01T19:50:41Z</time></trkpt><trkpt lat="46.79090616750513" lon="14.386417432266102"><ele>505.66666666666663</ele><time>2026-05-01T19:50:42Z</time></trkpt><trkpt lat="46.79071168360069" lon="14.38628767505942"><ele>504.3333333333333</ele><time>2026-05-01T19:50:43Z</time></trkpt><trkpt lat="46.79051065924712" lon="14.386167310762277"><ele>503.0</ele><time>2026-05-01T19:50:44Z</time></trkpt><trkpt lat="46.790307744549395" lon="14.386058027656274"><ele>500.66666666666663</ele><time>2026-05-01T19:50:45Z</time></trkpt><trkpt lat="46.79010254742755" lon="14.385959586686363"><ele>498.33333333333337</ele><time>2026-05-01T19:50:46Z</time></trkpt><trkpt lat="46.789893892607175" lon="14.385869180264008"><ele>496.0</ele><time>2026-05-01T19:50:47Z</time></trkpt><trkpt lat="46.78968654552216" lon="14.385783786382849"><ele>496.0</ele><time>2026-05-01T19:50:48Z</time></trkpt><trkpt lat="46.78947741662031" lon="14.385708895569165"><ele>496.0</ele><time>2026-05-01T19:50:49Z</time></trkpt><trkpt lat="46.78926719951138" lon="14.385648573226721"><ele>496.0</ele><time>2026-05-01T19:50:50Z</time></trkpt><trkpt lat="46.78905654028172" lon="14.385601211015375"><ele>496.33333333333337</ele><time>2026-05-01T19:50:51Z</time></trkpt><trkpt lat="46.788848020694005" lon="14.385566533178713"><ele>496.66666666666663</ele><time>2026-05-01T19:50:52Z</time></trkpt><trkpt lat="46.788637817977595" lon="14.38554046857741"><ele>497.0</ele><time>2026-05-01T19:50:53Z</time></trkpt><trkpt lat="46.78842752487649" lon="14.385520210138834"><ele>496.0</ele><time>2026-05-01T19:50:54Z</time></trkpt><trkpt lat="46.788216927791964" lon="14.385506320454894"><ele>495.0</ele><time>2026-05-01T19:50:55Z</time></trkpt><trkpt lat="46.78800599235474" lon="14.385499641634494"><ele>494.0</ele><time>2026-05-01T19:50:56Z</time></trkpt><trkpt lat="46.787794134126415" lon="14.385503501006777"><ele>501.0</ele><time>2026-05-01T19:50:57Z</time></trkpt><trkpt lat="46.78758198253657" lon="14.385515730937797"><ele>508.0</ele><time>2026-05-01T19:50:58Z</time></trkpt><trkpt lat="46.787369656433675" lon="14.385534698003779"><ele>515.0</ele><time>2026-05-01T19:50:59Z</time></trkpt><trkpt lat="46.78715673346983" lon="14.38555670820223"><ele>515.0</ele><time>2026-05-01T19:51:00Z</time></trkpt><trkpt lat="46.78694169065463" lon="14.385582628745482"><ele>515.0</ele><time>2026-05-01T19:51:01Z</time></trkpt><trkpt lat="46.78672587870907" lon="14.385606880398859"><ele>515.0</ele><time>2026-05-01T19:51:02Z</time></trkpt><trkpt lat="46.78651267289342" lon="14.385632993395685"><ele>516.3333333333333</ele><time>2026-05-01T19:51:03Z</time></trkpt><trkpt lat="46.7862987439346" lon="14.385659912596163"><ele>517.6666666666666</ele><time>2026-05-01T19:51:04Z</time></trkpt><trkpt lat="46.78608403805034" lon="14.385687537230435"><ele>519.0</ele><time>2026-05-01T19:51:05Z</time></trkpt><trkpt lat="46.78586806638691" lon="14.385711125183276"><ele>519.0</ele><time>2026-05-01T19:51:06Z</time></trkpt><trkpt lat="46.785650789244905" lon="14.385731144375919"><ele>519.0</ele><time>2026-05-01T19:51:07Z</time></trkpt><trkpt lat="46.785432036454395" lon="14.385746314724992"><ele>519.0</ele><time>2026-05-01T19:51:08Z</time></trkpt><trkpt lat="46.785210993615685" lon="14.38575804914243"><ele>519.3333333333334</ele><time>2026-05-01T19:51:09Z</time></trkpt><trkpt lat="46.784990525337406" lon="14.385765708353931"><ele>519.6666666666667</ele><time>2026-05-01T19:51:10Z</time></trkpt><trkpt lat="46.784768594838795" lon="14.385766643862883"><ele>520.0</ele><time>2026-05-01T19:51:11Z</time></trkpt><trkpt lat="46.784545508368595" lon="14.385761431123973"><ele>520.3333333333334</ele><time>2026-05-01T19:51:12Z</time></trkpt><trkpt lat="46.784322859816605" lon="14.385748917840502"><ele>520.6666666666666</ele><time>2026-05-01T19:51:13Z</time></trkpt><trkpt lat="46.78409883095106" lon="14.385725478377086"><ele>521.0</ele><time>2026-05-01T19:51:14Z</time></trkpt><trkpt lat="46.78387575340336" lon="14.385690605432393"><ele>521.0</ele><time>2026-05-01T19:51:15Z</time></trkpt><trkpt lat="46.7836524664269" lon="14.385649525170935"><ele>521.0</ele><time>2026-05-01T19:51:16Z</time></trkpt><trkpt lat="46.783430719888734" lon="14.385600345950264"><ele>521.0</ele><time>2026-05-01T19:51:17Z</time></trkpt><trkpt lat="46.78320764900549" lon="14.385541000527722"><ele>519.0</ele><time>2026-05-01T19:51:18Z</time></trkpt><trkpt lat="46.78298741871606" lon="14.385469598658991"><ele>517.0</ele><time>2026-05-01T19:51:19Z</time></trkpt><trkpt lat="46.782766220855734" lon="14.38538511763594"><ele>516.5</ele><time>2026-05-01T19:51:20Z</time></trkpt><trkpt lat="46.782547863547755" lon="14.385290679475148"><ele>516.0</ele><time>2026-05-01T19:51:21Z</time></trkpt><trkpt lat="46.782335509231864" lon="14.385189936646686"><ele>516.0</ele><time>2026-05-01T19:51:22Z</time></trkpt><trkpt lat="46.782128515415295" lon="14.385082663854984"><ele>516.0</ele><time>2026-05-01T19:51:23Z</time></trkpt><trkpt lat="46.7819187028824" lon="14.38496999577022"><ele>516.0</ele><time>2026-05-01T19:51:24Z</time></trkpt><trkpt lat="46.781709883181804" lon="14.384852688137574"><ele>516.0</ele><time>2026-05-01T19:51:25Z</time></trkpt><trkpt lat="46.781503337690985" lon="14.384725781116959"><ele>516.0</ele><time>2026-05-01T19:51:26Z</time></trkpt><trkpt lat="46.78129579473482" lon="14.384591550374301"><ele>516.0</ele><time>2026-05-01T19:51:27Z</time></trkpt><trkpt lat="46.78108915666906" lon="14.38445094926122"><ele>516.0</ele><time>2026-05-01T19:51:28Z</time></trkpt><trkpt lat="46.78088230228242" lon="14.384308204411417"><ele>516.0</ele><time>2026-05-01T19:51:29Z</time></trkpt><trkpt lat="46.78067577424424" lon="14.384163765380695"><ele>516.0</ele><time>2026-05-01T19:51:30Z</time></trkpt><trkpt lat="46.780469585339155" lon="14.38401636570749"><ele>516.0</ele><time>2026-05-01T19:51:31Z</time></trkpt><trkpt lat="46.78026304058955" lon="14.383867948372147"><ele>516.0</ele><time>2026-05-01T19:51:32Z</time></trkpt><trkpt lat="46.78006255262441" lon="14.383723200807097"><ele>515.6666666666666</ele><time>2026-05-01T19:51:33Z</time></trkpt><trkpt lat="46.77986934938964" lon="14.38358393496566"><ele>515.3333333333333</ele><time>2026-05-01T19:51:34Z</time></trkpt><trkpt lat="46.77967151134355" lon="14.383442112444445"><ele>515.0</ele><time>2026-05-01T19:51:35Z</time></trkpt><trkpt lat="46.779471140884574" lon="14.38329732425515"><ele>514.0</ele><time>2026-05-01T19:51:36Z</time></trkpt><trkpt lat="46.779268526357086" lon="14.38315130041778"><ele>513.0</ele><time>2026-05-01T19:51:37Z</time></trkpt><trkpt lat="46.77906521848045" lon="14.383007186562779"><ele>512.5</ele><time>2026-05-01T19:51:38Z</time></trkpt><trkpt lat="46.778858718945024" lon="14.382862430968633"><ele>512.0</ele><time>2026-05-01T19:51:39Z</time></trkpt><trkpt lat="46.77865081148653" lon="14.38271945966518"><ele>509.5</ele><time>2026-05-01T19:51:40Z</time></trkpt><trkpt lat="46.778439837999194" lon="14.382575572252566"><ele>507.0</ele><time>2026-05-01T19:51:41Z</time></trkpt><trkpt lat="46.77822881496983" lon="14.382434863174044"><ele>507.0</ele><time>2026-05-01T19:51:42Z</time></trkpt><trkpt lat="46.778019478591396" lon="14.382303845317095"><ele>507.0</ele><time>2026-05-01T19:51:43Z</time></trkpt><trkpt lat="46.77781399664739" lon="14.38217764154702"><ele>505.33333333333337</ele><time>2026-05-01T19:51:44Z</time></trkpt><trkpt lat="46.77760687869865" lon="14.382059806345042"><ele>503.6666666666667</ele><time>2026-05-01T19:51:45Z</time></trkpt><trkpt lat="46.77739835154439" lon="14.381947994525701"><ele>502.0</ele><time>2026-05-01T19:51:46Z</time></trkpt><trkpt lat="46.7771892265403" lon="14.381838957656512"><ele>502.0</ele><time>2026-05-01T19:51:47Z</time></trkpt><trkpt lat="46.77698044169487" lon="14.3817369232233"><ele>502.0</ele><time>2026-05-01T19:51:48Z</time></trkpt><trkpt lat="46.77676870288248" lon="14.381637294050075"><ele>502.0</ele><time>2026-05-01T19:51:49Z</time></trkpt><trkpt lat="46.77656044172641" lon="14.381547657051302"><ele>501.0</ele><time>2026-05-01T19:51:50Z</time></trkpt><trkpt lat="46.77636105216419" lon="14.381466790419177"><ele>500.0</ele><time>2026-05-01T19:51:51Z</time></trkpt><trkpt lat="46.77616281518403" lon="14.381390098799706"><ele>499.0</ele><time>2026-05-01T19:51:52Z</time></trkpt><trkpt lat="46.77595974886961" lon="14.381317939066067"><ele>499.0</ele><time>2026-05-01T19:51:53Z</time></trkpt><trkpt lat="46.77575027028506" lon="14.381248591653293"><ele>499.0</ele><time>2026-05-01T19:51:54Z</time></trkpt><trkpt lat="46.77553966164085" lon="14.38118164141031"><ele>499.0</ele><time>2026-05-01T19:51:55Z</time></trkpt><trkpt lat="46.77532236782981" lon="14.381114030552158"><ele>498.33333333333337</ele><time>2026-05-01T19:51:56Z</time></trkpt><trkpt lat="46.77510352763152" lon="14.381048328252646"><ele>497.66666666666663</ele><time>2026-05-01T19:51:57Z</time></trkpt><trkpt lat="46.77488228367125" lon="14.380984808208291"><ele>497.0</ele><time>2026-05-01T19:51:58Z</time></trkpt><trkpt lat="46.774661133931865" lon="14.38092511152654"><ele>497.0</ele><time>2026-05-01T19:51:59Z</time></trkpt><trkpt lat="46.77443921499997" lon="14.3808692774065"><ele>497.0</ele><time>2026-05-01T19:52:00Z</time></trkpt><trkpt lat="46.774216262598586" lon="14.380815678810555"><ele>494.5</ele><time>2026-05-01T19:52:01Z</time></trkpt><trkpt lat="46.77399266719893" lon="14.380767604086914"><ele>492.0</ele><time>2026-05-01T19:52:02Z</time></trkpt><trkpt lat="46.773764928135115" lon="14.380720678785336"><ele>492.0</ele><time>2026-05-01T19:52:03Z</time></trkpt><trkpt lat="46.7735374834857" lon="14.380677046789733"><ele>492.0</ele><time>2026-05-01T19:52:04Z</time></trkpt><trkpt lat="46.77331247648473" lon="14.380636680692442"><ele>492.5</ele><time>2026-05-01T19:52:05Z</time></trkpt><trkpt lat="46.77308737179584" lon="14.380597400448943"><ele>493.0</ele><time>2026-05-01T19:52:06Z</time></trkpt><trkpt lat="46.77285869146729" lon="14.380556733318596"><ele>491.0</ele><time>2026-05-01T19:52:07Z</time></trkpt><trkpt lat="46.77263155549434" lon="14.380516583322416"><ele>489.0</ele><time>2026-05-01T19:52:08Z</time></trkpt><trkpt lat="46.772406052169764" lon="14.380477509682137"><ele>489.0</ele><time>2026-05-01T19:52:09Z</time></trkpt><trkpt lat="46.77218315504766" lon="14.380439396360108"><ele>489.0</ele><time>2026-05-01T19:52:10Z</time></trkpt><trkpt lat="46.77196174842969" lon="14.380400805792272"><ele>489.0</ele><time>2026-05-01T19:52:11Z</time></trkpt><trkpt lat="46.77173695816217" lon="14.380359305638217"><ele>488.0</ele><time>2026-05-01T19:52:12Z</time></trkpt><trkpt lat="46.771514315906096" lon="14.380318022092267"><ele>487.0</ele><time>2026-05-01T19:52:13Z</time></trkpt><trkpt lat="46.77129072850799" lon="14.380274755998725"><ele>487.0</ele><time>2026-05-01T19:52:14Z</time></trkpt><trkpt lat="46.77105956575316" lon="14.380232777625745"><ele>487.0</ele><time>2026-05-01T19:52:15Z</time></trkpt><trkpt lat="46.77083293273679" lon="14.380192913984999"><ele>482.0</ele><time>2026-05-01T19:52:16Z</time></trkpt><trkpt lat="46.77060730193974" lon="14.380153185858614"><ele>477.0</ele><time>2026-05-01T19:52:17Z</time></trkpt><trkpt lat="46.77038254571442" lon="14.380116366742744"><ele>476.0</ele><time>2026-05-01T19:52:18Z</time></trkpt><trkpt lat="46.770157128480896" lon="14.380080486751504"><ele>475.0</ele><time>2026-05-01T19:52:19Z</time></trkpt><trkpt lat="46.76993109371326" lon="14.380047758526139"><ele>475.0</ele><time>2026-05-01T19:52:20Z</time></trkpt><trkpt lat="46.76970475402274" lon="14.380018704589698"><ele>475.0</ele><time>2026-05-01T19:52:21Z</time></trkpt><trkpt lat="46.76947934292693" lon="14.379993419924137"><ele>473.5</ele><time>2026-05-01T19:52:22Z</time></trkpt><trkpt lat="46.769253402868955" lon="14.379971163423034"><ele>472.0</ele><time>2026-05-01T19:52:23Z</time></trkpt><trkpt lat="46.769028097192574" lon="14.379952105444465"><ele>472.0</ele><time>2026-05-01T19:52:24Z</time></trkpt><trkpt lat="46.76880181427247" lon="14.37993580602838"><ele>472.0</ele><time>2026-05-01T19:52:25Z</time></trkpt><trkpt lat="46.76857535978336" lon="14.379923167329284"><ele>472.0</ele><time>2026-05-01T19:52:26Z</time></trkpt><trkpt lat="46.768352066971616" lon="14.379917433264037"><ele>472.0</ele><time>2026-05-01T19:52:27Z</time></trkpt><trkpt lat="46.768132018700214" lon="14.37992038771677"><ele>472.0</ele><time>2026-05-01T19:52:28Z</time></trkpt><trkpt lat="46.76791278185506" lon="14.379925640016806"><ele>472.0</ele><time>2026-05-01T19:52:29Z</time></trkpt><trkpt lat="46.767702181141864" lon="14.379943926199134"><ele>472.0</ele><time>2026-05-01T19:52:30Z</time></trkpt><trkpt lat="46.76749137909439" lon="14.379973145805403"><ele>472.0</ele><time>2026-05-01T19:52:31Z</time></trkpt><trkpt lat="46.767278014935485" lon="14.380008999062087"><ele>471.0</ele><time>2026-05-01T19:52:32Z</time></trkpt><trkpt lat="46.767064663080326" lon="14.380056322595085"><ele>470.0</ele><time>2026-05-01T19:52:33Z</time></trkpt><trkpt lat="46.766853041708245" lon="14.380114611147276"><ele>469.0</ele><time>2026-05-01T19:52:34Z</time></trkpt><trkpt lat="46.766641007347346" lon="14.38017550771725"><ele>469.0</ele><time>2026-05-01T19:52:35Z</time></trkpt><trkpt lat="46.76642776767368" lon="14.3802401370482"><ele>469.0</ele><time>2026-05-01T19:52:36Z</time></trkpt><trkpt lat="46.76621395932209" lon="14.380305120836852"><ele>469.0</ele><time>2026-05-01T19:52:37Z</time></trkpt><trkpt lat="46.766001009124885" lon="14.380373139213475"><ele>469.6666666666667</ele><time>2026-05-01T19:52:38Z</time></trkpt><trkpt lat="46.76578757973347" lon="14.380445288412616"><ele>470.33333333333337</ele><time>2026-05-01T19:52:39Z</time></trkpt><trkpt lat="46.765575367288264" lon="14.380523167637104"><ele>471.0</ele><time>2026-05-01T19:52:40Z</time></trkpt><trkpt lat="46.765365693188926" lon="14.380609892363955"><ele>469.33333333333337</ele><time>2026-05-01T19:52:41Z</time></trkpt><trkpt lat="46.76515780131986" lon="14.380702843741151"><ele>467.6666666666667</ele><time>2026-05-01T19:52:42Z</time></trkpt><trkpt lat="46.76495151246373" lon="14.380800885964051"><ele>466.0</ele><time>2026-05-01T19:52:43Z</time></trkpt><trkpt lat="46.7647466200007" lon="14.380907947288602"><ele>466.0</ele><time>2026-05-01T19:52:44Z</time></trkpt><trkpt lat="46.764542404918636" lon="14.381017691142096"><ele>466.0</ele><time>2026-05-01T19:52:45Z</time></trkpt><trkpt lat="46.764336590883744" lon="14.381133848487943"><ele>466.0</ele><time>2026-05-01T19:52:46Z</time></trkpt><trkpt lat="46.76413317037924" lon="14.381254996944266"><ele>466.0</ele><time>2026-05-01T19:52:47Z</time></trkpt><trkpt lat="46.763932354066576" lon="14.381380823327893"><ele>466.0</ele><time>2026-05-01T19:52:48Z</time></trkpt><trkpt lat="46.76373173049957" lon="14.381515534640105"><ele>466.0</ele><time>2026-05-01T19:52:49Z</time></trkpt><trkpt lat="46.7635356407199" lon="14.381656939320452"><ele>465.6666666666667</ele><time>2026-05-01T19:52:50Z</time></trkpt><trkpt lat="46.76333922788621" lon="14.381803927433296"><ele>465.33333333333337</ele><time>2026-05-01T19:52:51Z</time></trkpt><trkpt lat="46.76314602545191" lon="14.381952103503638"><ele>465.0</ele><time>2026-05-01T19:52:52Z</time></trkpt><trkpt lat="46.76295487386743" lon="14.382109207925392"><ele>465.0</ele><time>2026-05-01T19:52:53Z</time></trkpt><trkpt lat="46.76276524879904" lon="14.38227356554838"><ele>465.0</ele><time>2026-05-01T19:52:54Z</time></trkpt><trkpt lat="46.76257638901048" lon="14.382442361988916"><ele>465.0</ele><time>2026-05-01T19:52:55Z</time></trkpt><trkpt lat="46.76239113471409" lon="14.382615091549539"><ele>465.0</ele><time>2026-05-01T19:52:56Z</time></trkpt><trkpt lat="46.76220982299304" lon="14.382795915064653"><ele>465.0</ele><time>2026-05-01T19:52:57Z</time></trkpt><trkpt lat="46.76202709985796" lon="14.382981511930208"><ele>465.0</ele><time>2026-05-01T19:52:58Z</time></trkpt><trkpt lat="46.761850737303526" lon="14.38316978315068"><ele>464.66666666666663</ele><time>2026-05-01T19:52:59Z</time></trkpt><trkpt lat="46.761676097196066" lon="14.383364582980622"><ele>464.3333333333333</ele><time>2026-05-01T19:53:00Z</time></trkpt><trkpt lat="46.76150438100963" lon="14.383563816175082"><ele>464.0</ele><time>2026-05-01T19:53:01Z</time></trkpt><trkpt lat="46.76133799161222" lon="14.38376919383653"><ele>464.0</ele><time>2026-05-01T19:53:02Z</time></trkpt><trkpt lat="46.761179450604125" lon="14.383967255788212"><ele>464.0</ele><time>2026-05-01T19:53:03Z</time></trkpt><trkpt lat="46.76103341008045" lon="14.38415791556606"><ele>464.0</ele><time>2026-05-01T19:53:04Z</time></trkpt><trkpt lat="46.76088534437172" lon="14.384348916786754"><ele>464.3333333333333</ele><time>2026-05-01T19:53:05Z</time></trkpt><trkpt lat="46.76073634409899" lon="14.38454102802012"><ele>464.66666666666663</ele><time>2026-05-01T19:53:06Z</time></trkpt><trkpt lat="46.76058825991708" lon="14.384734579403977"><ele>465.0</ele><time>2026-05-01T19:53:07Z</time></trkpt><trkpt lat="46.76044180094896" lon="14.384930227078932"><ele>465.0</ele><time>2026-05-01T19:53:08Z</time></trkpt><trkpt lat="46.760295931325814" lon="14.385123799187522"><ele>465.0</ele><time>2026-05-01T19:53:09Z</time></trkpt><trkpt lat="46.76015089012652" lon="14.385314008389416"><ele>465.0</ele><time>2026-05-01T19:53:10Z</time></trkpt><trkpt lat="46.76000523477956" lon="14.385499929153934"><ele>464.33333333333337</ele><time>2026-05-01T19:53:11Z</time></trkpt><trkpt lat="46.759859784726295" lon="14.385685366864516"><ele>463.6666666666667</ele><time>2026-05-01T19:53:12Z</time></trkpt><trkpt lat="46.75971650338537" lon="14.385866489081057"><ele>463.0</ele><time>2026-05-01T19:53:13Z</time></trkpt><trkpt lat="46.75956938238919" lon="14.38604923457738"><ele>463.0</ele><time>2026-05-01T19:53:14Z</time></trkpt><trkpt lat="46.75942090005522" lon="14.38622882439695"><ele>463.0</ele><time>2026-05-01T19:53:15Z</time></trkpt><trkpt lat="46.75927380980592" lon="14.386402939482991"><ele>463.0</ele><time>2026-05-01T19:53:16Z</time></trkpt><trkpt lat="46.75912378580372" lon="14.386571744225861"><ele>463.0</ele><time>2026-05-01T19:53:17Z</time></trkpt><trkpt lat="46.75897276151861" lon="14.386732236763903"><ele>463.0</ele><time>2026-05-01T19:53:18Z</time></trkpt><trkpt lat="46.7588196345857" lon="14.386888958237224"><ele>463.0</ele><time>2026-05-01T19:53:19Z</time></trkpt><trkpt lat="46.75866439793984" lon="14.387043989724813"><ele>462.6666666666667</ele><time>2026-05-01T19:53:20Z</time></trkpt><trkpt lat="46.75850683773182" lon="14.387193955353375"><ele>462.33333333333337</ele><time>2026-05-01T19:53:21Z</time></trkpt><trkpt lat="46.758348271411734" lon="14.387342400125439"><ele>462.0</ele><time>2026-05-01T19:53:22Z</time></trkpt><trkpt lat="46.758187277791215" lon="14.387484156503916"><ele>462.0</ele><time>2026-05-01T19:53:23Z</time></trkpt><trkpt lat="46.75802577697719" lon="14.387621544394598"><ele>462.0</ele><time>2026-05-01T19:53:24Z</time></trkpt><trkpt lat="46.75785805079414" lon="14.387754217728432"><ele>462.0</ele><time>2026-05-01T19:53:25Z</time></trkpt><trkpt lat="46.75768417402621" lon="14.387885760170432"><ele>464.0</ele><time>2026-05-01T19:53:26Z</time></trkpt><trkpt lat="46.757507119243584" lon="14.3880111659718"><ele>466.0</ele><time>2026-05-01T19:53:27Z</time></trkpt><trkpt lat="46.75732625171318" lon="14.388133914535652"><ele>468.0</ele><time>2026-05-01T19:53:28Z</time></trkpt><trkpt lat="46.757144248068094" lon="14.388249385461735"><ele>468.0</ele><time>2026-05-01T19:53:29Z</time></trkpt><trkpt lat="46.75696027856299" lon="14.388356882041267"><ele>468.0</ele><time>2026-05-01T19:53:30Z</time></trkpt><trkpt lat="46.756773787325756" lon="14.388457683855004"><ele>468.0</ele><time>2026-05-01T19:53:31Z</time></trkpt><trkpt lat="46.756588185083935" lon="14.388551587833215"><ele>467.0</ele><time>2026-05-01T19:53:32Z</time></trkpt><trkpt lat="46.756401429115236" lon="14.388643197752417"><ele>466.0</ele><time>2026-05-01T19:53:33Z</time></trkpt><trkpt lat="46.75621139851969" lon="14.388731989557238"><ele>465.0</ele><time>2026-05-01T19:53:34Z</time></trkpt><trkpt lat="46.75601877480067" lon="14.388812914324367"><ele>465.66666666666663</ele><time>2026-05-01T19:53:35Z</time></trkpt><trkpt lat="46.755826792161784" lon="14.388890551127385"><ele>466.3333333333333</ele><time>2026-05-01T19:53:36Z</time></trkpt><trkpt lat="46.75563477452914" lon="14.388957743558393"><ele>467.0</ele><time>2026-05-01T19:53:37Z</time></trkpt><trkpt lat="46.755442319203254" lon="14.389020361227136"><ele>467.0</ele><time>2026-05-01T19:53:38Z</time></trkpt><trkpt lat="46.75524816054824" lon="14.389074091556447"><ele>467.0</ele><time>2026-05-01T19:53:39Z</time></trkpt><trkpt lat="46.75505388850275" lon="14.389124390556102"><ele>467.0</ele><time>2026-05-01T19:53:40Z</time></trkpt><trkpt lat="46.75485878313167" lon="14.389166595005085"><ele>466.66666666666663</ele><time>2026-05-01T19:53:41Z</time></trkpt><trkpt lat="46.75466249503956" lon="14.389200538868883"><ele>466.33333333333337</ele><time>2026-05-01T19:53:42Z</time></trkpt><trkpt lat="46.75446644903175" lon="14.389227371398677"><ele>466.0</ele><time>2026-05-01T19:53:43Z</time></trkpt><trkpt lat="46.754270309397754" lon="14.389247016002772"><ele>464.6666666666667</ele><time>2026-05-01T19:53:44Z</time></trkpt><trkpt lat="46.75407110534686" lon="14.389262229700362"><ele>463.33333333333337</ele><time>2026-05-01T19:53:45Z</time></trkpt><trkpt lat="46.753874089380474" lon="14.389270190062982"><ele>462.0</ele><time>2026-05-01T19:53:46Z</time></trkpt><trkpt lat="46.753675855308124" lon="14.389272013432556"><ele>462.33333333333337</ele><time>2026-05-01T19:53:47Z</time></trkpt><trkpt lat="46.753480156553614" lon="14.389267576206274"><ele>462.6666666666667</ele><time>2026-05-01T19:53:48Z</time></trkpt><trkpt lat="46.75328171798043" lon="14.389258510962811"><ele>463.0</ele><time>2026-05-01T19:53:49Z</time></trkpt><trkpt lat="46.75308376252368" lon="14.389247056235698"><ele>463.0</ele><time>2026-05-01T19:53:50Z</time></trkpt><trkpt lat="46.75288644290339" lon="14.38922602443235"><ele>463.0</ele><time>2026-05-01T19:53:51Z</time></trkpt><trkpt lat="46.75269031628693" lon="14.389200337633964"><ele>463.0</ele><time>2026-05-01T19:53:52Z</time></trkpt><trkpt lat="46.75249378856836" lon="14.389169799630448"><ele>463.0</ele><time>2026-05-01T19:53:53Z</time></trkpt><trkpt lat="46.752297703735636" lon="14.389130741406424"><ele>463.0</ele><time>2026-05-01T19:53:54Z</time></trkpt><trkpt lat="46.75210209363492" lon="14.389083957388989"><ele>463.0</ele><time>2026-05-01T19:53:55Z</time></trkpt><trkpt lat="46.751905608764595" lon="14.389033907464594"><ele>463.6666666666667</ele><time>2026-05-01T19:53:56Z</time></trkpt><trkpt lat="46.75170637034493" lon="14.388982354095711"><ele>464.33333333333337</ele><time>2026-05-01T19:53:57Z</time></trkpt><trkpt lat="46.751505285582915" lon="14.388931158995927"><ele>465.0</ele><time>2026-05-01T19:53:58Z</time></trkpt><trkpt lat="46.75130826293036" lon="14.388872787321274"><ele>464.66666666666663</ele><time>2026-05-01T19:53:59Z</time></trkpt><trkpt lat="46.7511132054641" lon="14.388817381782328"><ele>464.3333333333333</ele><time>2026-05-01T19:54:00Z</time></trkpt><trkpt lat="46.750912784798" lon="14.388751128477217"><ele>464.0</ele><time>2026-05-01T19:54:01Z</time></trkpt><trkpt lat="46.75070985141447" lon="14.388686753136103"><ele>463.66666666666663</ele><time>2026-05-01T19:54:02Z</time></trkpt><trkpt lat="46.75050284117644" lon="14.388621047742333"><ele>463.33333333333337</ele><time>2026-05-01T19:54:03Z</time></trkpt><trkpt lat="46.75029415681979" lon="14.388558059327345"><ele>463.0</ele><time>2026-05-01T19:54:04Z</time></trkpt><trkpt lat="46.7500846703669" lon="14.388499818476587"><ele>463.0</ele><time>2026-05-01T19:54:05Z</time></trkpt><trkpt lat="46.749876740521586" lon="14.388444859356783"><ele>463.0</ele><time>2026-05-01T19:54:06Z</time></trkpt><trkpt lat="46.74966877194855" lon="14.388386886374136"><ele>463.0</ele><time>2026-05-01T19:54:07Z</time></trkpt><trkpt lat="46.74946126840754" lon="14.388326938719542"><ele>463.6666666666667</ele><time>2026-05-01T19:54:08Z</time></trkpt><trkpt lat="46.74925479273094" lon="14.388269115921876"><ele>464.33333333333337</ele><time>2026-05-01T19:54:09Z</time></trkpt><trkpt lat="46.74904970316625" lon="14.388210441591797"><ele>465.0</ele><time>2026-05-01T19:54:10Z</time></trkpt><trkpt lat="46.748847023100964" lon="14.388154458622896"><ele>465.0</ele><time>2026-05-01T19:54:11Z</time></trkpt><trkpt lat="46.74864643688993" lon="14.388100513415758"><ele>465.0</ele><time>2026-05-01T19:54:12Z</time></trkpt><trkpt lat="46.74844509795369" lon="14.3880457966922"><ele>465.0</ele><time>2026-05-01T19:54:13Z</time></trkpt><trkpt lat="46.74824445004395" lon="14.387995797189177"><ele>464.66666666666663</ele><time>2026-05-01T19:54:14Z</time></trkpt><trkpt lat="46.74804357089358" lon="14.38794749885562"><ele>464.3333333333333</ele><time>2026-05-01T19:54:15Z</time></trkpt><trkpt lat="46.74784153299536" lon="14.387902111796361"><ele>464.0</ele><time>2026-05-01T19:54:16Z</time></trkpt><trkpt lat="46.74763810971307" lon="14.387856948906471"><ele>464.0</ele><time>2026-05-01T19:54:17Z</time></trkpt><trkpt lat="46.747437763057924" lon="14.387814236642635"><ele>464.0</ele><time>2026-05-01T19:54:18Z</time></trkpt><trkpt lat="46.747235960225254" lon="14.387774633365899"><ele>464.0</ele><time>2026-05-01T19:54:19Z</time></trkpt><trkpt lat="46.747034742986436" lon="14.387737978869623"><ele>464.3333333333333</ele><time>2026-05-01T19:54:20Z</time></trkpt><trkpt lat="46.746829467849984" lon="14.387699559704876"><ele>464.66666666666663</ele><time>2026-05-01T19:54:21Z</time></trkpt><trkpt lat="46.74662544208958" lon="14.387666084742689"><ele>465.0</ele><time>2026-05-01T19:54:22Z</time></trkpt><trkpt lat="46.74641914439106" lon="14.387633112350343"><ele>465.0</ele><time>2026-05-01T19:54:23Z</time></trkpt><trkpt lat="46.7462125049333" lon="14.387603412426854"><ele>465.0</ele><time>2026-05-01T19:54:24Z</time></trkpt><trkpt lat="46.74600472218143" lon="14.387576631166173"><ele>465.0</ele><time>2026-05-01T19:54:25Z</time></trkpt><trkpt lat="46.745794122054164" lon="14.38755362011077"><ele>464.66666666666663</ele><time>2026-05-01T19:54:26Z</time></trkpt><trkpt lat="46.74558482831505" lon="14.387537141750085"><ele>464.3333333333333</ele><time>2026-05-01T19:54:27Z</time></trkpt><trkpt lat="46.745372460319345" lon="14.387525575865212"><ele>464.0</ele><time>2026-05-01T19:54:28Z</time></trkpt><trkpt lat="46.74515996224268" lon="14.387511291606094"><ele>463.66666666666663</ele><time>2026-05-01T19:54:29Z</time></trkpt><trkpt lat="46.74494730274956" lon="14.38749864369897"><ele>463.33333333333337</ele><time>2026-05-01T19:54:30Z</time></trkpt><trkpt lat="46.74473426285653" lon="14.387489038653449"><ele>463.0</ele><time>2026-05-01T19:54:31Z</time></trkpt><trkpt lat="46.74452291055677" lon="14.387482296058943"><ele>462.6666666666667</ele><time>2026-05-01T19:54:32Z</time></trkpt><trkpt lat="46.744312470817775" lon="14.387477834865528"><ele>462.33333333333337</ele><time>2026-05-01T19:54:33Z</time></trkpt><trkpt lat="46.744101209238686" lon="14.387478236570937"><ele>462.0</ele><time>2026-05-01T19:54:34Z</time></trkpt><trkpt lat="46.743890028986314" lon="14.38748246493741"><ele>462.0</ele><time>2026-05-01T19:54:35Z</time></trkpt><trkpt lat="46.74367593280123" lon="14.387490605550886"><ele>462.0</ele><time>2026-05-01T19:54:36Z</time></trkpt><trkpt lat="46.743464340055" lon="14.387503886530876"><ele>462.0</ele><time>2026-05-01T19:54:37Z</time></trkpt><trkpt lat="46.743250032391636" lon="14.38751753106041"><ele>461.66666666666663</ele><time>2026-05-01T19:54:38Z</time></trkpt><trkpt lat="46.74303799785243" lon="14.387531819817921"><ele>461.3333333333333</ele><time>2026-05-01T19:54:39Z</time></trkpt><trkpt lat="46.74282681544921" lon="14.387549338285108"><ele>461.0</ele><time>2026-05-01T19:54:40Z</time></trkpt><trkpt lat="46.742617093899746" lon="14.387566840030491"><ele>460.66666666666663</ele><time>2026-05-01T19:54:41Z</time></trkpt><trkpt lat="46.742409666145946" lon="14.38758694910035"><ele>460.33333333333337</ele><time>2026-05-01T19:54:42Z</time></trkpt><trkpt lat="46.7422023057873" lon="14.387608905197858"><ele>460.0</ele><time>2026-05-01T19:54:43Z</time></trkpt><trkpt lat="46.74199707280771" lon="14.387627472312298"><ele>460.33333333333337</ele><time>2026-05-01T19:54:44Z</time></trkpt><trkpt lat="46.74179128632048" lon="14.387634918824416"><ele>460.66666666666663</ele><time>2026-05-01T19:54:45Z</time></trkpt><trkpt lat="46.741583342286674" lon="14.387641493454916"><ele>461.0</ele><time>2026-05-01T19:54:46Z</time></trkpt><trkpt lat="46.7413742184628" lon="14.387640524253072"><ele>461.0</ele><time>2026-05-01T19:54:47Z</time></trkpt><trkpt lat="46.74116621303572" lon="14.38763347388593"><ele>461.0</ele><time>2026-05-01T19:54:48Z</time></trkpt><trkpt lat="46.74095849572982" lon="14.387620368493232"><ele>461.0</ele><time>2026-05-01T19:54:49Z</time></trkpt><trkpt lat="46.74075304413943" lon="14.387602498333953"><ele>461.0</ele><time>2026-05-01T19:54:50Z</time></trkpt><trkpt lat="46.74054984578661" lon="14.387577261576295"><ele>461.0</ele><time>2026-05-01T19:54:51Z</time></trkpt><trkpt lat="46.740354364708935" lon="14.387548835879983"><ele>461.0</ele><time>2026-05-01T19:54:52Z</time></trkpt><trkpt lat="46.74017092577732" lon="14.387519348241659"><ele>461.0</ele><time>2026-05-01T19:54:53Z</time></trkpt><trkpt lat="46.739984872157876" lon="14.38747910480626"><ele>461.0</ele><time>2026-05-01T19:54:54Z</time></trkpt><trkpt lat="46.7398002480521" lon="14.387433494627958"><ele>461.0</ele><time>2026-05-01T19:54:55Z</time></trkpt><trkpt lat="46.739616087261886" lon="14.38738371117171"><ele>461.0</ele><time>2026-05-01T19:54:56Z</time></trkpt><trkpt lat="46.7394318807464" lon="14.387326575382701"><ele>461.0</ele><time>2026-05-01T19:54:57Z</time></trkpt><trkpt lat="46.739248381335535" lon="14.387259412734252"><ele>461.0</ele><time>2026-05-01T19:54:58Z</time></trkpt><trkpt lat="46.739065217748745" lon="14.387189365415574"><ele>461.0</ele><time>2026-05-01T19:54:59Z</time></trkpt><trkpt lat="46.73888107803127" lon="14.387113875408863"><ele>461.0</ele><time>2026-05-01T19:55:00Z</time></trkpt><trkpt lat="46.738698793802165" lon="14.387036283938471"><ele>461.0</ele><time>2026-05-01T19:55:01Z</time></trkpt><trkpt lat="46.73851930960408" lon="14.386948317867699"><ele>461.0</ele><time>2026-05-01T19:55:02Z</time></trkpt><trkpt lat="46.73833982992271" lon="14.386859087201792"><ele>461.0</ele><time>2026-05-01T19:55:03Z</time></trkpt><trkpt lat="46.738162240860646" lon="14.3867615369346"><ele>461.0</ele><time>2026-05-01T19:55:04Z</time></trkpt><trkpt lat="46.73798687512228" lon="14.386656188212623"><ele>461.0</ele><time>2026-05-01T19:55:05Z</time></trkpt><trkpt lat="46.73780858772054" lon="14.386545301683574"><ele>461.0</ele><time>2026-05-01T19:55:06Z</time></trkpt><trkpt lat="46.73762678743001" lon="14.386429145048869"><ele>461.0</ele><time>2026-05-01T19:55:07Z</time></trkpt><trkpt lat="46.737441614135506" lon="14.386303591792615"><ele>460.66666666666663</ele><time>2026-05-01T19:55:08Z</time></trkpt><trkpt lat="46.73725378244761" lon="14.38616971582097"><ele>460.33333333333337</ele><time>2026-05-01T19:55:09Z</time></trkpt><trkpt lat="46.737063313780425" lon="14.386024155085213"><ele>460.0</ele><time>2026-05-01T19:55:10Z</time></trkpt><trkpt lat="46.73687574184481" lon="14.385869281038287"><ele>459.6666666666667</ele><time>2026-05-01T19:55:11Z</time></trkpt><trkpt lat="46.73668727139543" lon="14.38570720422632"><ele>459.33333333333337</ele><time>2026-05-01T19:55:12Z</time></trkpt><trkpt lat="46.736498385558754" lon="14.385540822141055"><ele>459.0</ele><time>2026-05-01T19:55:13Z</time></trkpt><trkpt lat="46.73630977017007" lon="14.38537240401632"><ele>459.0</ele><time>2026-05-01T19:55:14Z</time></trkpt><trkpt lat="46.73612221583203" lon="14.385201073478207"><ele>459.0</ele><time>2026-05-01T19:55:15Z</time></trkpt><trkpt lat="46.735936259403104" lon="14.385022275946037"><ele>459.0</ele><time>2026-05-01T19:55:16Z</time></trkpt><trkpt lat="46.73575425148289" lon="14.384843046278977"><ele>459.0</ele><time>2026-05-01T19:55:17Z</time></trkpt><trkpt lat="46.7355717474818" lon="14.38466120674708"><ele>459.0</ele><time>2026-05-01T19:55:18Z</time></trkpt><trkpt lat="46.735389855430306" lon="14.384477666566777"><ele>459.0</ele><time>2026-05-01T19:55:19Z</time></trkpt><trkpt lat="46.73520880345315" lon="14.384293901192217"><ele>459.0</ele><time>2026-05-01T19:55:20Z</time></trkpt><trkpt lat="46.73502934659143" lon="14.384109212359666"><ele>459.0</ele><time>2026-05-01T19:55:21Z</time></trkpt><trkpt lat="46.73484856996547" lon="14.383923570196554"><ele>459.0</ele><time>2026-05-01T19:55:22Z</time></trkpt><trkpt lat="46.7346717144971" lon="14.383743822582373"><ele>459.0</ele><time>2026-05-01T19:55:23Z</time></trkpt><trkpt lat="46.73449252791942" lon="14.383563301974286"><ele>459.0</ele><time>2026-05-01T19:55:24Z</time></trkpt><trkpt lat="46.73431394439009" lon="14.383385861002589"><ele>459.0</ele><time>2026-05-01T19:55:25Z</time></trkpt><trkpt lat="46.73413875170436" lon="14.383205320486363"><ele>459.0</ele><time>2026-05-01T19:55:26Z</time></trkpt><trkpt lat="46.7339603625665" lon="14.383026793154974"><ele>459.0</ele><time>2026-05-01T19:55:27Z</time></trkpt><trkpt lat="46.73378065636033" lon="14.382849372778402"><ele>459.0</ele><time>2026-05-01T19:55:28Z</time></trkpt><trkpt lat="46.733599119515745" lon="14.382675489632359"><ele>459.66666666666663</ele><time>2026-05-01T19:55:29Z</time></trkpt><trkpt lat="46.73341583803694" lon="14.382508428595829"><ele>460.3333333333333</ele><time>2026-05-01T19:55:30Z</time></trkpt><trkpt lat="46.73323320182706" lon="14.382347580655397"><ele>461.0</ele><time>2026-05-01T19:55:31Z</time></trkpt><trkpt lat="46.7330486825789" lon="14.382188123160603"><ele>460.66666666666663</ele><time>2026-05-01T19:55:32Z</time></trkpt><trkpt lat="46.73286099638013" lon="14.382030678373566"><ele>460.33333333333337</ele><time>2026-05-01T19:55:33Z</time></trkpt><trkpt lat="46.73267024455519" lon="14.381876336208506"><ele>460.0</ele><time>2026-05-01T19:55:34Z</time></trkpt><trkpt lat="46.73247692059205" lon="14.381728164268175"><ele>460.0</ele><time>2026-05-01T19:55:35Z</time></trkpt><trkpt lat="46.73228395695222" lon="14.381580629524965"><ele>460.0</ele><time>2026-05-01T19:55:36Z</time></trkpt><trkpt lat="46.73208669846083" lon="14.381440276272468"><ele>460.0</ele><time>2026-05-01T19:55:37Z</time></trkpt><trkpt lat="46.73188747697361" lon="14.381303238659862"><ele>460.0</ele><time>2026-05-01T19:55:38Z</time></trkpt><trkpt lat="46.73168597041171" lon="14.381177082540598"><ele>460.0</ele><time>2026-05-01T19:55:39Z</time></trkpt><trkpt lat="46.73148491135652" lon="14.381051285870976"><ele>460.0</ele><time>2026-05-01T19:55:40Z</time></trkpt><trkpt lat="46.73128041564693" lon="14.38093185005187"><ele>460.0</ele><time>2026-05-01T19:55:41Z</time></trkpt><trkpt lat="46.73107518290207" lon="14.380811649792333"><ele>460.0</ele><time>2026-05-01T19:55:42Z</time></trkpt><trkpt lat="46.73086667855387" lon="14.380699614228089"><ele>460.0</ele><time>2026-05-01T19:55:43Z</time></trkpt><trkpt lat="46.73065645504014" lon="14.380596744212639"><ele>460.0</ele><time>2026-05-01T19:55:44Z</time></trkpt><trkpt lat="46.73044510622432" lon="14.380494979076337"><ele>460.0</ele><time>2026-05-01T19:55:45Z</time></trkpt><trkpt lat="46.73023053462959" lon="14.380401541121229"><ele>460.0</ele><time>2026-05-01T19:55:46Z</time></trkpt><trkpt lat="46.73001853588753" lon="14.380309256961786"><ele>460.0</ele><time>2026-05-01T19:55:47Z</time></trkpt><trkpt lat="46.72980486896478" lon="14.380221806751209"><ele>460.0</ele><time>2026-05-01T19:55:48Z</time></trkpt><trkpt lat="46.72959043859313" lon="14.38013279994651"><ele>460.0</ele><time>2026-05-01T19:55:49Z</time></trkpt><trkpt lat="46.72937616321415" lon="14.38004630491812"><ele>459.6666666666667</ele><time>2026-05-01T19:55:50Z</time></trkpt><trkpt lat="46.729161677770975" lon="14.379963216968136"><ele>459.33333333333337</ele><time>2026-05-01T19:55:51Z</time></trkpt><trkpt lat="46.728945849810586" lon="14.379876414052339"><ele>459.0</ele><time>2026-05-01T19:55:52Z</time></trkpt><trkpt lat="46.72873139340936" lon="14.379797588860614"><ele>459.0</ele><time>2026-05-01T19:55:53Z</time></trkpt><trkpt lat="46.728515401061344" lon="14.379713215794334"><ele>459.0</ele><time>2026-05-01T19:55:54Z</time></trkpt><trkpt lat="46.728298389230616" lon="14.379636067259442"><ele>459.0</ele><time>2026-05-01T19:55:55Z</time></trkpt><trkpt lat="46.72808094070264" lon="14.379549849826597"><ele>458.66666666666663</ele><time>2026-05-01T19:55:56Z</time></trkpt><trkpt lat="46.72786677896275" lon="14.379463525648816"><ele>458.3333333333333</ele><time>2026-05-01T19:55:57Z</time></trkpt><trkpt lat="46.72764945528291" lon="14.379376924512314"><ele>458.0</ele><time>2026-05-01T19:55:58Z</time></trkpt><trkpt lat="46.72743284460726" lon="14.379291589336631"><ele>458.0</ele><time>2026-05-01T19:55:59Z</time></trkpt><trkpt lat="46.72721467360218" lon="14.37920376779007"><ele>458.0</ele><time>2026-05-01T19:56:00Z</time></trkpt><trkpt lat="46.72699628150603" lon="14.379114286168424"><ele>458.0</ele><time>2026-05-01T19:56:01Z</time></trkpt><trkpt lat="46.726778711168606" lon="14.379020610546629"><ele>458.0</ele><time>2026-05-01T19:56:02Z</time></trkpt><trkpt lat="46.726559675031076" lon="14.378928875638055"><ele>457.5</ele><time>2026-05-01T19:56:03Z</time></trkpt><trkpt lat="46.72633922359325" lon="14.378836190467167"><ele>457.0</ele><time>2026-05-01T19:56:04Z</time></trkpt><trkpt lat="46.726118922737776" lon="14.378744893726967"><ele>457.5</ele><time>2026-05-01T19:56:05Z</time></trkpt><trkpt lat="46.72590017729107" lon="14.378648778568566"><ele>458.0</ele><time>2026-05-01T19:56:06Z</time></trkpt><trkpt lat="46.72568258262882" lon="14.378550506547802"><ele>458.0</ele><time>2026-05-01T19:56:07Z</time></trkpt><trkpt lat="46.72546738143832" lon="14.378451438047987"><ele>458.0</ele><time>2026-05-01T19:56:08Z</time></trkpt><trkpt lat="46.72526000955291" lon="14.37835466307604"><ele>458.0</ele><time>2026-05-01T19:56:09Z</time></trkpt><trkpt lat="46.725052589929504" lon="14.378257131987233"><ele>458.0</ele><time>2026-05-01T19:56:10Z</time></trkpt><trkpt lat="46.72484185229057" lon="14.378156635437627"><ele>458.0</ele><time>2026-05-01T19:56:11Z</time></trkpt><trkpt lat="46.72462770452143" lon="14.378050776307852"><ele>458.0</ele><time>2026-05-01T19:56:12Z</time></trkpt><trkpt lat="46.72441130532685" lon="14.37794616285649"><ele>459.0</ele><time>2026-05-01T19:56:13Z</time></trkpt><trkpt lat="46.72419252272477" lon="14.377835289223121"><ele>460.0</ele><time>2026-05-01T19:56:14Z</time></trkpt><trkpt lat="46.723971275920256" lon="14.37771908112069"><ele>460.0</ele><time>2026-05-01T19:56:15Z</time></trkpt><trkpt lat="46.72375042813435" lon="14.377603370346687"><ele>460.0</ele><time>2026-05-01T19:56:16Z</time></trkpt><trkpt lat="46.72353020559151" lon="14.37748818456685"><ele>460.5</ele><time>2026-05-01T19:56:17Z</time></trkpt><trkpt lat="46.72331306525809" lon="14.377371072671805"><ele>461.0</ele><time>2026-05-01T19:56:18Z</time></trkpt><trkpt lat="46.72309665541269" lon="14.377251099074444"><ele>460.0</ele><time>2026-05-01T19:56:19Z</time></trkpt><trkpt lat="46.722881992807274" lon="14.37713169302796"><ele>459.0</ele><time>2026-05-01T19:56:20Z</time></trkpt><trkpt lat="46.72266701814378" lon="14.37701250518909"><ele>459.0</ele><time>2026-05-01T19:56:21Z</time></trkpt><trkpt lat="46.722453778185795" lon="14.376889166042552"><ele>459.0</ele><time>2026-05-01T19:56:22Z</time></trkpt><trkpt lat="46.722241996494056" lon="14.376759668592195"><ele>459.0</ele><time>2026-05-01T19:56:23Z</time></trkpt><trkpt lat="46.7220325263066" lon="14.376626885929705"><ele>459.0</ele><time>2026-05-01T19:56:24Z</time></trkpt><trkpt lat="46.721822228632014" lon="14.376495492716488"><ele>459.0</ele><time>2026-05-01T19:56:25Z</time></trkpt><trkpt lat="46.721610171063254" lon="14.376364679294044"><ele>459.0</ele><time>2026-05-01T19:56:26Z</time></trkpt><trkpt lat="46.72139777817796" lon="14.376233880549874"><ele>458.5</ele><time>2026-05-01T19:56:27Z</time></trkpt><trkpt lat="46.721185584253895" lon="14.376102691083844"><ele>458.0</ele><time>2026-05-01T19:56:28Z</time></trkpt><trkpt lat="46.720973554447845" lon="14.37596773705994"><ele>458.0</ele><time>2026-05-01T19:56:29Z</time></trkpt><trkpt lat="46.7207629012991" lon="14.375827703017855"><ele>458.0</ele><time>2026-05-01T19:56:30Z</time></trkpt><trkpt lat="46.7205523025317" lon="14.375684255954408"><ele>458.0</ele><time>2026-05-01T19:56:31Z</time></trkpt><trkpt lat="46.72034006088398" lon="14.375538636136008"><ele>458.0</ele><time>2026-05-01T19:56:32Z</time></trkpt><trkpt lat="46.72013094986661" lon="14.375393006508611"><ele>458.5</ele><time>2026-05-01T19:56:33Z</time></trkpt><trkpt lat="46.719922021938046" lon="14.375243532222507"><ele>459.0</ele><time>2026-05-01T19:56:34Z</time></trkpt><trkpt lat="46.71971688066277" lon="14.37509576430317"><ele>459.0</ele><time>2026-05-01T19:56:35Z</time></trkpt><trkpt lat="46.71951439976984" lon="14.374944816973644"><ele>459.0</ele><time>2026-05-01T19:56:36Z</time></trkpt><trkpt lat="46.7193119914785" lon="14.37479667006277"><ele>458.66666666666663</ele><time>2026-05-01T19:56:37Z</time></trkpt><trkpt lat="46.71911045183032" lon="14.374650109412126"><ele>458.3333333333333</ele><time>2026-05-01T19:56:38Z</time></trkpt><trkpt lat="46.71891024851419" lon="14.374502633558789"><ele>458.0</ele><time>2026-05-01T19:56:39Z</time></trkpt><trkpt lat="46.71870895300748" lon="14.374351343514393"><ele>458.5</ele><time>2026-05-01T19:56:40Z</time></trkpt><trkpt lat="46.71850827844534" lon="14.374196391761393"><ele>459.0</ele><time>2026-05-01T19:56:41Z</time></trkpt><trkpt lat="46.71830795051778" lon="14.374039299249306"><ele>459.0</ele><time>2026-05-01T19:56:42Z</time></trkpt><trkpt lat="46.71810945143527" lon="14.37387744432701"><ele>459.0</ele><time>2026-05-01T19:56:43Z</time></trkpt><trkpt lat="46.71791032411935" lon="14.373717601759953"><ele>459.0</ele><time>2026-05-01T19:56:44Z</time></trkpt><trkpt lat="46.717709969243494" lon="14.373558862099815"><ele>459.0</ele><time>2026-05-01T19:56:45Z</time></trkpt><trkpt lat="46.717508506194314" lon="14.373396823884228"><ele>459.0</ele><time>2026-05-01T19:56:46Z</time></trkpt><trkpt lat="46.717310964734885" lon="14.373233292871106"><ele>459.0</ele><time>2026-05-01T19:56:47Z</time></trkpt><trkpt lat="46.71711407597872" lon="14.373064345106846"><ele>458.0</ele><time>2026-05-01T19:56:48Z</time></trkpt><trkpt lat="46.71691886161463" lon="14.372893122114968"><ele>457.0</ele><time>2026-05-01T19:56:49Z</time></trkpt><trkpt lat="46.716725176425555" lon="14.372720600764286"><ele>456.5</ele><time>2026-05-01T19:56:50Z</time></trkpt><trkpt lat="46.71653190228363" lon="14.372550525177912"><ele>456.0</ele><time>2026-05-01T19:56:51Z</time></trkpt><trkpt lat="46.7163405566839" lon="14.372380707294958"><ele>456.0</ele><time>2026-05-01T19:56:52Z</time></trkpt><trkpt lat="46.71615031355207" lon="14.372211350984767"><ele>456.0</ele><time>2026-05-01T19:56:53Z</time></trkpt><trkpt lat="46.71596099487624" lon="14.372039836683838"><ele>456.0</ele><time>2026-05-01T19:56:54Z</time></trkpt><trkpt lat="46.71577119573059" lon="14.371867849768417"><ele>456.33333333333337</ele><time>2026-05-01T19:56:55Z</time></trkpt><trkpt lat="46.71558237833388" lon="14.371696788507995"><ele>456.6666666666667</ele><time>2026-05-01T19:56:56Z</time></trkpt><trkpt lat="46.71539401723996" lon="14.371522088496445"><ele>457.0</ele><time>2026-05-01T19:56:57Z</time></trkpt><trkpt lat="46.715205815195326" lon="14.37134239476424"><ele>457.0</ele><time>2026-05-01T19:56:58Z</time></trkpt><trkpt lat="46.71501760132773" lon="14.371162952631696"><ele>457.0</ele><time>2026-05-01T19:56:59Z</time></trkpt><trkpt lat="46.71482988877157" lon="14.370978813497931"><ele>457.0</ele><time>2026-05-01T19:57:00Z</time></trkpt><trkpt lat="46.71464216696812" lon="14.370796520628542"><ele>457.0</ele><time>2026-05-01T19:57:01Z</time></trkpt><trkpt lat="46.71445259043077" lon="14.37061404769025"><ele>457.0</ele><time>2026-05-01T19:57:02Z</time></trkpt><trkpt lat="46.714263173700665" lon="14.370431192179364"><ele>457.0</ele><time>2026-05-01T19:57:03Z</time></trkpt><trkpt lat="46.71407579662225" lon="14.370247301811718"><ele>457.0</ele><time>2026-05-01T19:57:04Z</time></trkpt><trkpt lat="46.713891722946435" lon="14.370059471511091"><ele>457.0</ele><time>2026-05-01T19:57:05Z</time></trkpt><trkpt lat="46.713703202726975" lon="14.36987239461486"><ele>457.0</ele><time>2026-05-01T19:57:06Z</time></trkpt><trkpt lat="46.71351612056554" lon="14.36968569855395"><ele>457.0</ele><time>2026-05-01T19:57:07Z</time></trkpt><trkpt lat="46.713331765075" lon="14.369494416586877"><ele>457.0</ele><time>2026-05-01T19:57:08Z</time></trkpt><trkpt lat="46.71314836670659" lon="14.369306261611507"><ele>457.0</ele><time>2026-05-01T19:57:09Z</time></trkpt><trkpt lat="46.712964669318296" lon="14.36911729869546"><ele>457.0</ele><time>2026-05-01T19:57:10Z</time></trkpt><trkpt lat="46.712778364058025" lon="14.368930672018664"><ele>456.5</ele><time>2026-05-01T19:57:11Z</time></trkpt><trkpt lat="46.7125934500435" lon="14.368736578455856"><ele>456.0</ele><time>2026-05-01T19:57:12Z</time></trkpt><trkpt lat="46.71240647757062" lon="14.368548459343486"><ele>456.0</ele><time>2026-05-01T19:57:13Z</time></trkpt><trkpt lat="46.71222499693875" lon="14.368355507271577"><ele>456.0</ele><time>2026-05-01T19:57:14Z</time></trkpt><trkpt lat="46.71204171644391" lon="14.368165464090985"><ele>456.0</ele><time>2026-05-01T19:57:15Z</time></trkpt><trkpt lat="46.71185653089418" lon="14.367977047073135"><ele>456.0</ele><time>2026-05-01T19:57:16Z</time></trkpt><trkpt lat="46.711674587888496" lon="14.367781939906275"><ele>456.0</ele><time>2026-05-01T19:57:17Z</time></trkpt><trkpt lat="46.71149104120256" lon="14.367591728362187"><ele>456.0</ele><time>2026-05-01T19:57:18Z</time></trkpt><trkpt lat="46.711308180438614" lon="14.36740185800983"><ele>456.0</ele><time>2026-05-01T19:57:19Z</time></trkpt><trkpt lat="46.711128409228216" lon="14.3672155369456"><ele>456.0</ele><time>2026-05-01T19:57:20Z</time></trkpt><trkpt lat="46.71094730821784" lon="14.367027564357645"><ele>455.66666666666663</ele><time>2026-05-01T19:57:21Z</time></trkpt><trkpt lat="46.71076595870303" lon="14.366837146389857"><ele>455.3333333333333</ele><time>2026-05-01T19:57:22Z</time></trkpt><trkpt lat="46.710583554173816" lon="14.36665008981917"><ele>455.0</ele><time>2026-05-01T19:57:23Z</time></trkpt><trkpt lat="46.71040070014446" lon="14.36646177938776"><ele>455.66666666666663</ele><time>2026-05-01T19:57:24Z</time></trkpt><trkpt lat="46.71021726079485" lon="14.36627320182702"><ele>456.33333333333337</ele><time>2026-05-01T19:57:25Z</time></trkpt><trkpt lat="46.710037443913656" lon="14.366086082988346"><ele>457.0</ele><time>2026-05-01T19:57:26Z</time></trkpt><trkpt lat="46.70985718224106" lon="14.36589674262485"><ele>457.0</ele><time>2026-05-01T19:57:27Z</time></trkpt><trkpt lat="46.70967926362308" lon="14.36570663656684"><ele>457.0</ele><time>2026-05-01T19:57:28Z</time></trkpt><trkpt lat="46.70949954281934" lon="14.36552070355317"><ele>457.0</ele><time>2026-05-01T19:57:29Z</time></trkpt><trkpt lat="46.70931838558419" lon="14.36534297963938"><ele>457.33333333333337</ele><time>2026-05-01T19:57:30Z</time></trkpt><trkpt lat="46.70913887432136" lon="14.365163578233883"><ele>457.66666666666663</ele><time>2026-05-01T19:57:31Z</time></trkpt><trkpt lat="46.70896389105122" lon="14.36498083931677"><ele>458.0</ele><time>2026-05-01T19:57:32Z</time></trkpt><trkpt lat="46.70878707452911" lon="14.36479965307404"><ele>457.66666666666663</ele><time>2026-05-01T19:57:33Z</time></trkpt><trkpt lat="46.70861224152563" lon="14.364616730887251"><ele>457.33333333333337</ele><time>2026-05-01T19:57:34Z</time></trkpt><trkpt lat="46.70843797693748" lon="14.364434393856488"><ele>457.0</ele><time>2026-05-01T19:57:35Z</time></trkpt><trkpt lat="46.708264623318414" lon="14.364249197214244"><ele>457.0</ele><time>2026-05-01T19:57:36Z</time></trkpt><trkpt lat="46.70809243940057" lon="14.364070409230461"><ele>457.0</ele><time>2026-05-01T19:57:37Z</time></trkpt><trkpt lat="46.70792140996107" lon="14.363893690089752"><ele>457.0</ele><time>2026-05-01T19:57:38Z</time></trkpt><trkpt lat="46.707749434102844" lon="14.363711654927297"><ele>457.0</ele><time>2026-05-01T19:57:39Z</time></trkpt><trkpt lat="46.707577099622725" lon="14.363535959348768"><ele>457.0</ele><time>2026-05-01T19:57:40Z</time></trkpt><trkpt lat="46.70740371541459" lon="14.363356208431686"><ele>457.0</ele><time>2026-05-01T19:57:41Z</time></trkpt><trkpt lat="46.70723070486389" lon="14.363173903620932"><ele>457.0</ele><time>2026-05-01T19:57:42Z</time></trkpt><trkpt lat="46.70705572924534" lon="14.362990794346093"><ele>457.0</ele><time>2026-05-01T19:57:43Z</time></trkpt><trkpt lat="46.70688094781537" lon="14.362808396069202"><ele>457.0</ele><time>2026-05-01T19:57:44Z</time></trkpt><trkpt lat="46.706701845938134" lon="14.362624280683452"><ele>457.0</ele><time>2026-05-01T19:57:45Z</time></trkpt><trkpt lat="46.706523265809416" lon="14.36244307042354"><ele>457.0</ele><time>2026-05-01T19:57:46Z</time></trkpt><trkpt lat="46.70634079877756" lon="14.362255862702291"><ele>457.0</ele><time>2026-05-01T19:57:47Z</time></trkpt><trkpt lat="46.70615699652869" lon="14.362069547143427"><ele>457.33333333333337</ele><time>2026-05-01T19:57:48Z</time></trkpt><trkpt lat="46.70598005078806" lon="14.361876132072258"><ele>457.66666666666663</ele><time>2026-05-01T19:57:49Z</time></trkpt><trkpt lat="46.705798792654555" lon="14.3616873843008"><ele>458.0</ele><time>2026-05-01T19:57:50Z</time></trkpt><trkpt lat="46.70561895929875" lon="14.361499471410342"><ele>457.66666666666663</ele><time>2026-05-01T19:57:51Z</time></trkpt><trkpt lat="46.70545146756182" lon="14.361316138339877"><ele>457.33333333333337</ele><time>2026-05-01T19:57:52Z</time></trkpt><trkpt lat="46.70527737635445" lon="14.361133026681589"><ele>457.0</ele><time>2026-05-01T19:57:53Z</time></trkpt><trkpt lat="46.7051014093683" lon="14.360944135748767"><ele>456.6666666666667</ele><time>2026-05-01T19:57:54Z</time></trkpt><trkpt lat="46.70491883949568" lon="14.360761901273142"><ele>456.33333333333337</ele><time>2026-05-01T19:57:55Z</time></trkpt><trkpt lat="46.704740217041454" lon="14.360574493278303"><ele>456.0</ele><time>2026-05-01T19:57:56Z</time></trkpt><trkpt lat="46.70455940333164" lon="14.36039468948983"><ele>456.66666666666663</ele><time>2026-05-01T19:57:57Z</time></trkpt><trkpt lat="46.704377680832216" lon="14.360211398534078"><ele>457.3333333333333</ele><time>2026-05-01T19:57:58Z</time></trkpt><trkpt lat="46.70419643948542" lon="14.360024625073786"><ele>458.0</ele><time>2026-05-01T19:57:59Z</time></trkpt><trkpt lat="46.70401453161372" lon="14.359844105346241"><ele>457.66666666666663</ele><time>2026-05-01T19:58:00Z</time></trkpt><trkpt lat="46.703833895691645" lon="14.359662353054288"><ele>457.33333333333337</ele><time>2026-05-01T19:58:01Z</time></trkpt><trkpt lat="46.70365348121013" lon="14.359477600205148"><ele>457.0</ele><time>2026-05-01T19:58:02Z</time></trkpt><trkpt lat="46.703474775104795" lon="14.359290498914467"><ele>457.0</ele><time>2026-05-01T19:58:03Z</time></trkpt><trkpt lat="46.703299635213476" lon="14.359108580325469"><ele>457.0</ele><time>2026-05-01T19:58:04Z</time></trkpt><trkpt lat="46.70312679060967" lon="14.35892694577849"><ele>457.0</ele><time>2026-05-01T19:58:05Z</time></trkpt><trkpt lat="46.70295074066273" lon="14.358745629745025"><ele>457.0</ele><time>2026-05-01T19:58:06Z</time></trkpt><trkpt lat="46.702774730727675" lon="14.358561402396308"><ele>457.0</ele><time>2026-05-01T19:58:07Z</time></trkpt><trkpt lat="46.70259772589439" lon="14.358380010113946"><ele>457.0</ele><time>2026-05-01T19:58:08Z</time></trkpt><trkpt lat="46.70242230162134" lon="14.358199334952868"><ele>457.0</ele><time>2026-05-01T19:58:09Z</time></trkpt><trkpt lat="46.70224605321015" lon="14.358020706794571"><ele>457.0</ele><time>2026-05-01T19:58:10Z</time></trkpt><trkpt lat="46.70207141203887" lon="14.357841649204499"><ele>457.0</ele><time>2026-05-01T19:58:11Z</time></trkpt><trkpt lat="46.701897637655335" lon="14.357661829095374"><ele>457.0</ele><time>2026-05-01T19:58:12Z</time></trkpt><trkpt lat="46.701725054173195" lon="14.357479308535057"><ele>457.0</ele><time>2026-05-01T19:58:13Z</time></trkpt><trkpt lat="46.70155089299831" lon="14.357295354815156"><ele>457.0</ele><time>2026-05-01T19:58:14Z</time></trkpt><trkpt lat="46.7013744115953" lon="14.357110789978384"><ele>456.6666666666667</ele><time>2026-05-01T19:58:15Z</time></trkpt><trkpt lat="46.70119767805896" lon="14.356927874741217"><ele>456.33333333333337</ele><time>2026-05-01T19:58:16Z</time></trkpt><trkpt lat="46.701020436009365" lon="14.356744046998116"><ele>456.0</ele><time>2026-05-01T19:58:17Z</time></trkpt><trkpt lat="46.700842529936935" lon="14.356561372870573"><ele>456.0</ele><time>2026-05-01T19:58:18Z</time></trkpt><trkpt lat="46.700665064431185" lon="14.356380260726732"><ele>456.0</ele><time>2026-05-01T19:58:19Z</time></trkpt><trkpt lat="46.70048811802115" lon="14.356198667709819"><ele>456.0</ele><time>2026-05-01T19:58:20Z</time></trkpt><trkpt lat="46.70031300466047" lon="14.3560152845499"><ele>456.0</ele><time>2026-05-01T19:58:21Z</time></trkpt><trkpt lat="46.7001390674029" lon="14.355831518763043"><ele>456.0</ele><time>2026-05-01T19:58:22Z</time></trkpt><trkpt lat="46.699964542414946" lon="14.355647732510157"><ele>456.0</ele><time>2026-05-01T19:58:23Z</time></trkpt><trkpt lat="46.69979195649938" lon="14.355465679349418"><ele>456.0</ele><time>2026-05-01T19:58:24Z</time></trkpt><trkpt lat="46.699621056363206" lon="14.35528298628646"><ele>456.0</ele><time>2026-05-01T19:58:25Z</time></trkpt><trkpt lat="46.6994507620888" lon="14.355100634356802"><ele>456.0</ele><time>2026-05-01T19:58:26Z</time></trkpt><trkpt lat="46.69928017549503" lon="14.354918921223037"><ele>456.0</ele><time>2026-05-01T19:58:27Z</time></trkpt><trkpt lat="46.69910888957755" lon="14.354737408287246"><ele>456.0</ele><time>2026-05-01T19:58:28Z</time></trkpt><trkpt lat="46.69893638341186" lon="14.354554723375449"><ele>456.0</ele><time>2026-05-01T19:58:29Z</time></trkpt><trkpt lat="46.698763319202286" lon="14.354370849037391"><ele>455.66666666666663</ele><time>2026-05-01T19:58:30Z</time></trkpt><trkpt lat="46.69859175035295" lon="14.35418596678099"><ele>455.3333333333333</ele><time>2026-05-01T19:58:31Z</time></trkpt><trkpt lat="46.69841810678318" lon="14.353998857097567"><ele>455.0</ele><time>2026-05-01T19:58:32Z</time></trkpt><trkpt lat="46.698243390929136" lon="14.353809679196058"><ele>455.0</ele><time>2026-05-01T19:58:33Z</time></trkpt><trkpt lat="46.69806753575822" lon="14.353618943201576"><ele>455.0</ele><time>2026-05-01T19:58:34Z</time></trkpt><trkpt lat="46.69788943339662" lon="14.353428353374444"><ele>455.0</ele><time>2026-05-01T19:58:35Z</time></trkpt><trkpt lat="46.697711851440026" lon="14.353241813858412"><ele>455.3333333333333</ele><time>2026-05-01T19:58:36Z</time></trkpt><trkpt lat="46.697534540016576" lon="14.353051408878036"><ele>455.66666666666663</ele><time>2026-05-01T19:58:37Z</time></trkpt><trkpt lat="46.697356188536126" lon="14.35285936800899"><ele>456.0</ele><time>2026-05-01T19:58:38Z</time></trkpt><trkpt lat="46.697180315836455" lon="14.352664105843607"><ele>456.33333333333337</ele><time>2026-05-01T19:58:39Z</time></trkpt><trkpt lat="46.69700499378031" lon="14.35246636661462"><ele>456.6666666666667</ele><time>2026-05-01T19:58:40Z</time></trkpt><trkpt lat="46.69682906729354" lon="14.352270926710379"><ele>457.0</ele><time>2026-05-01T19:58:41Z</time></trkpt><trkpt lat="46.69665372944264" lon="14.352076840145221"><ele>456.0</ele><time>2026-05-01T19:58:42Z</time></trkpt><trkpt lat="46.69647744439381" lon="14.351880379532275"><ele>455.0</ele><time>2026-05-01T19:58:43Z</time></trkpt><trkpt lat="46.69630112818746" lon="14.351686093107558"><ele>454.0</ele><time>2026-05-01T19:58:44Z</time></trkpt><trkpt lat="46.696127213216634" lon="14.351493624054886"><ele>454.0</ele><time>2026-05-01T19:58:45Z</time></trkpt><trkpt lat="46.69595347793319" lon="14.351304134098955"><ele>454.0</ele><time>2026-05-01T19:58:46Z</time></trkpt><trkpt lat="46.69577854106389" lon="14.351111234333267"><ele>454.0</ele><time>2026-05-01T19:58:47Z</time></trkpt><trkpt lat="46.69560659490232" lon="14.350921061345083"><ele>454.0</ele><time>2026-05-01T19:58:48Z</time></trkpt><trkpt lat="46.69543343078632" lon="14.35073115196333"><ele>454.0</ele><time>2026-05-01T19:58:49Z</time></trkpt><trkpt lat="46.69526105452584" lon="14.350541316167714"><ele>454.0</ele><time>2026-05-01T19:58:50Z</time></trkpt><trkpt lat="46.6950860614974" lon="14.350352567160217"><ele>454.0</ele><time>2026-05-01T19:58:51Z</time></trkpt><trkpt lat="46.69491423901886" lon="14.35016084833611"><ele>454.0</ele><time>2026-05-01T19:58:52Z</time></trkpt><trkpt lat="46.69474070929682" lon="14.349970231595464"><ele>454.0</ele><time>2026-05-01T19:58:53Z</time></trkpt><trkpt lat="46.694570091056804" lon="14.349775503527697"><ele>454.0</ele><time>2026-05-01T19:58:54Z</time></trkpt><trkpt lat="46.694397516501745" lon="14.349583420123913"><ele>454.0</ele><time>2026-05-01T19:58:55Z</time></trkpt><trkpt lat="46.694227163232874" lon="14.349391805583645"><ele>454.0</ele><time>2026-05-01T19:58:56Z</time></trkpt><trkpt lat="46.69405328105461" lon="14.349198719823518"><ele>454.0</ele><time>2026-05-01T19:58:57Z</time></trkpt><trkpt lat="46.69387838210308" lon="14.349005500179281"><ele>454.0</ele><time>2026-05-01T19:58:58Z</time></trkpt><trkpt lat="46.69370334403494" lon="14.34881390186409"><ele>454.0</ele><time>2026-05-01T19:58:59Z</time></trkpt><trkpt lat="46.693527411387834" lon="14.348619633321897"><ele>454.0</ele><time>2026-05-01T19:59:00Z</time></trkpt><trkpt lat="46.69335146004217" lon="14.348427717119339"><ele>454.0</ele><time>2026-05-01T19:59:01Z</time></trkpt><trkpt lat="46.69317829426106" lon="14.34823337916369"><ele>454.0</ele><time>2026-05-01T19:59:02Z</time></trkpt><trkpt lat="46.693003832683814" lon="14.348040382422264"><ele>454.0</ele><time>2026-05-01T19:59:03Z</time></trkpt><trkpt lat="46.69282820868191" lon="14.347850144672824"><ele>454.0</ele><time>2026-05-01T19:59:04Z</time></trkpt><trkpt lat="46.69265424630656" lon="14.347657031426802"><ele>454.0</ele><time>2026-05-01T19:59:05Z</time></trkpt><trkpt lat="46.692482869943156" lon="14.347464535066495"><ele>454.0</ele><time>2026-05-01T19:59:06Z</time></trkpt><trkpt lat="46.69231168639909" lon="14.347274472596519"><ele>454.0</ele><time>2026-05-01T19:59:07Z</time></trkpt><trkpt lat="46.692139590564004" lon="14.34708532453452"><ele>454.0</ele><time>2026-05-01T19:59:08Z</time></trkpt><trkpt lat="46.69196904052415" lon="14.346902697717686"><ele>454.0</ele><time>2026-05-01T19:59:09Z</time></trkpt><trkpt lat="46.69180088698899" lon="14.346714408839988"><ele>454.0</ele><time>2026-05-01T19:59:10Z</time></trkpt><trkpt lat="46.691633916610066" lon="14.34653047544641"><ele>454.0</ele><time>2026-05-01T19:59:11Z</time></trkpt><trkpt lat="46.69146611364402" lon="14.346346522875356"><ele>454.0</ele><time>2026-05-01T19:59:12Z</time></trkpt><trkpt lat="46.69130002461687" lon="14.346164958252738"><ele>454.0</ele><time>2026-05-01T19:59:13Z</time></trkpt><trkpt lat="46.69113532793219" lon="14.3459824283293"><ele>454.0</ele><time>2026-05-01T19:59:14Z</time></trkpt><trkpt lat="46.69097065504391" lon="14.345797250018604"><ele>454.0</ele><time>2026-05-01T19:59:15Z</time></trkpt><trkpt lat="46.69080649471327" lon="14.345611504788897"><ele>454.0</ele><time>2026-05-01T19:59:16Z</time></trkpt><trkpt lat="46.69064032511215" lon="14.345425624172282"><ele>454.0</ele><time>2026-05-01T19:59:17Z</time></trkpt><trkpt lat="46.690473103912424" lon="14.345244166028019"><ele>454.0</ele><time>2026-05-01T19:59:18Z</time></trkpt><trkpt lat="46.69030443798628" lon="14.345068476774012"><ele>454.0</ele><time>2026-05-01T19:59:19Z</time></trkpt><trkpt lat="46.690137388460364" lon="14.344880438260828"><ele>454.0</ele><time>2026-05-01T19:59:20Z</time></trkpt><trkpt lat="46.68996818870201" lon="14.344698936973144"><ele>453.6666666666667</ele><time>2026-05-01T19:59:21Z</time></trkpt><trkpt lat="46.689802184503755" lon="14.3445077819187"><ele>453.33333333333337</ele><time>2026-05-01T19:59:22Z</time></trkpt><trkpt lat="46.68963496760979" lon="14.344317313597948"><ele>453.0</ele><time>2026-05-01T19:59:23Z</time></trkpt><trkpt lat="46.68946402454595" lon="14.344128975249221"><ele>453.0</ele><time>2026-05-01T19:59:24Z</time></trkpt><trkpt lat="46.68929569152558" lon="14.34394151874565"><ele>453.0</ele><time>2026-05-01T19:59:25Z</time></trkpt><trkpt lat="46.689127526849056" lon="14.343751974435229"><ele>453.0</ele><time>2026-05-01T19:59:26Z</time></trkpt><trkpt lat="46.688958226603354" lon="14.343563590416183"><ele>453.0</ele><time>2026-05-01T19:59:27Z</time></trkpt><trkpt lat="46.68878940680633" lon="14.343375712844358"><ele>453.0</ele><time>2026-05-01T19:59:28Z</time></trkpt><trkpt lat="46.688621227147586" lon="14.34318469294029"><ele>453.0</ele><time>2026-05-01T19:59:29Z</time></trkpt><trkpt lat="46.6884531481304" lon="14.342994778487801"><ele>453.0</ele><time>2026-05-01T19:59:30Z</time></trkpt><trkpt lat="46.6882837789152" lon="14.342806026394427"><ele>453.0</ele><time>2026-05-01T19:59:31Z</time></trkpt><trkpt lat="46.68811409201565" lon="14.34261917689911"><ele>453.0</ele><time>2026-05-01T19:59:32Z</time></trkpt><trkpt lat="46.687945849590044" lon="14.342433038977672"><ele>453.0</ele><time>2026-05-01T19:59:33Z</time></trkpt><trkpt lat="46.687785827260285" lon="14.342254225079174"><ele>453.0</ele><time>2026-05-01T19:59:34Z</time></trkpt><trkpt lat="46.68762763741611" lon="14.342071823346705"><ele>453.0</ele><time>2026-05-01T19:59:35Z</time></trkpt><trkpt lat="46.68746302119487" lon="14.34188811533403"><ele>453.0</ele><time>2026-05-01T19:59:36Z</time></trkpt><trkpt lat="46.68730030421081" lon="14.341696208138348"><ele>453.0</ele><time>2026-05-01T19:59:37Z</time></trkpt><trkpt lat="46.68713419652398" lon="14.34151266698994"><ele>453.0</ele><time>2026-05-01T19:59:38Z</time></trkpt><trkpt lat="46.68696682046052" lon="14.341331552428327"><ele>453.66666666666663</ele><time>2026-05-01T19:59:39Z</time></trkpt><trkpt lat="46.686801309172566" lon="14.34115326581022"><ele>454.3333333333333</ele><time>2026-05-01T19:59:40Z</time></trkpt><trkpt lat="46.68663745474027" lon="14.340973073725458"><ele>455.0</ele><time>2026-05-01T19:59:41Z</time></trkpt><trkpt lat="46.68647586482292" lon="14.340793495058213"><ele>455.0</ele><time>2026-05-01T19:59:42Z</time></trkpt><trkpt lat="46.686314163328056" lon="14.340616316728415"><ele>455.0</ele><time>2026-05-01T19:59:43Z</time></trkpt><trkpt lat="46.68615268259721" lon="14.340440322745783"><ele>455.0</ele><time>2026-05-01T19:59:44Z</time></trkpt><trkpt lat="46.68599205800239" lon="14.340263547740792"><ele>455.3333333333333</ele><time>2026-05-01T19:59:45Z</time></trkpt><trkpt lat="46.68583121941157" lon="14.340086288519052"><ele>455.66666666666663</ele><time>2026-05-01T19:59:46Z</time></trkpt><trkpt lat="46.68566856263504" lon="14.339906218557338"><ele>456.0</ele><time>2026-05-01T19:59:47Z</time></trkpt><trkpt lat="46.68550661651944" lon="14.339722967327896"><ele>455.66666666666663</ele><time>2026-05-01T19:59:48Z</time></trkpt><trkpt lat="46.6853436453908" lon="14.339540379389911"><ele>455.3333333333333</ele><time>2026-05-01T19:59:49Z</time></trkpt><trkpt lat="46.68517978699047" lon="14.339355909671665"><ele>455.0</ele><time>2026-05-01T19:59:50Z</time></trkpt><trkpt lat="46.685015337247634" lon="14.339171402633335"><ele>455.0</ele><time>2026-05-01T19:59:51Z</time></trkpt><trkpt lat="46.684850855303345" lon="14.33899228787838"><ele>455.0</ele><time>2026-05-01T19:59:52Z</time></trkpt><trkpt lat="46.684690070324706" lon="14.338815037441615"><ele>455.0</ele><time>2026-05-01T19:59:53Z</time></trkpt><trkpt lat="46.68453059586369" lon="14.33863439168509"><ele>454.66666666666663</ele><time>2026-05-01T19:59:54Z</time></trkpt><trkpt lat="46.68437179153757" lon="14.338453713949695"><ele>454.33333333333337</ele><time>2026-05-01T19:59:55Z</time></trkpt><trkpt lat="46.68421440000822" lon="14.338269939286327"><ele>454.0</ele><time>2026-05-01T19:59:56Z</time></trkpt><trkpt lat="46.68406145718123" lon="14.338085617387513"><ele>453.6666666666667</ele><time>2026-05-01T19:59:57Z</time></trkpt><trkpt lat="46.68390912393945" lon="14.337897969823954"><ele>453.33333333333337</ele><time>2026-05-01T19:59:58Z</time></trkpt><trkpt lat="46.683755455907914" lon="14.337710133711633"><ele>453.0</ele><time>2026-05-01T19:59:59Z</time></trkpt><trkpt lat="46.683600803280164" lon="14.337525152188135"><ele>453.0</ele><time>2026-05-01T20:00:00Z</time></trkpt><trkpt lat="46.683446407534674" lon="14.337333925540502"><ele>453.0</ele><time>2026-05-01T20:00:01Z</time></trkpt><trkpt lat="46.6832911366195" lon="14.337140586595295"><ele>453.0</ele><time>2026-05-01T20:00:02Z</time></trkpt><trkpt lat="46.68313605217517" lon="14.336945505095684"><ele>453.0</ele><time>2026-05-01T20:00:03Z</time></trkpt><trkpt lat="46.68298418509784" lon="14.336749368340902"><ele>453.0</ele><time>2026-05-01T20:00:04Z</time></trkpt><trkpt lat="46.68282952859529" lon="14.336555942813744"><ele>453.0</ele><time>2026-05-01T20:00:05Z</time></trkpt><trkpt lat="46.68267493784247" lon="14.336357967745375"><ele>453.33333333333337</ele><time>2026-05-01T20:00:06Z</time></trkpt><trkpt lat="46.68252026694298" lon="14.336160328546889"><ele>453.6666666666667</ele><time>2026-05-01T20:00:07Z</time></trkpt><trkpt lat="46.68236378579708" lon="14.335958583752223"><ele>454.0</ele><time>2026-05-01T20:00:08Z</time></trkpt><trkpt lat="46.68221197279144" lon="14.335753623863969"><ele>453.6666666666667</ele><time>2026-05-01T20:00:09Z</time></trkpt><trkpt lat="46.68206131525635" lon="14.335548645966568"><ele>453.33333333333337</ele><time>2026-05-01T20:00:10Z</time></trkpt><trkpt lat="46.68191249441481" lon="14.33534622112222"><ele>453.0</ele><time>2026-05-01T20:00:11Z</time></trkpt><trkpt lat="46.68176415801147" lon="14.335142373431642"><ele>453.0</ele><time>2026-05-01T20:00:12Z</time></trkpt><trkpt lat="46.68161656058356" lon="14.334938043390506"><ele>453.0</ele><time>2026-05-01T20:00:13Z</time></trkpt><trkpt lat="46.681468755401184" lon="14.334735234485727"><ele>453.0</ele><time>2026-05-01T20:00:14Z</time></trkpt><trkpt lat="46.681319945404475" lon="14.334531406660615"><ele>452.66666666666663</ele><time>2026-05-01T20:00:15Z</time></trkpt><trkpt lat="46.68117308203129" lon="14.334328819074925"><ele>452.3333333333333</ele><time>2026-05-01T20:00:16Z</time></trkpt><trkpt lat="46.68102620864429" lon="14.334121748294283"><ele>452.0</ele><time>2026-05-01T20:00:17Z</time></trkpt><trkpt lat="46.680880528141245" lon="14.333912530159255"><ele>451.66666666666663</ele><time>2026-05-01T20:00:18Z</time></trkpt><trkpt lat="46.680736032880866" lon="14.333704045429766"><ele>451.33333333333337</ele><time>2026-05-01T20:00:19Z</time></trkpt><trkpt lat="46.68059137425517" lon="14.33349902359913"><ele>451.0</ele><time>2026-05-01T20:00:20Z</time></trkpt><trkpt lat="46.68044789289016" lon="14.333297883887111"><ele>451.0</ele><time>2026-05-01T20:00:21Z</time></trkpt><trkpt lat="46.68030555655954" lon="14.333092801977765"><ele>451.0</ele><time>2026-05-01T20:00:22Z</time></trkpt><trkpt lat="46.68016557483654" lon="14.332890010112925"><ele>451.0</ele><time>2026-05-01T20:00:23Z</time></trkpt><trkpt lat="46.68002810581308" lon="14.332689888697828"><ele>451.0</ele><time>2026-05-01T20:00:24Z</time></trkpt><trkpt lat="46.6798917132358" lon="14.332494038020545"><ele>451.0</ele><time>2026-05-01T20:00:25Z</time></trkpt><trkpt lat="46.67972498639523" lon="14.332265233334704"><ele>451.0</ele><time>2026-05-01T20:00:26Z</time></trkpt><trkpt lat="46.67957979544923" lon="14.332059132240786"><ele>451.0</ele><time>2026-05-01T20:00:27Z</time></trkpt><trkpt lat="46.679434665419045" lon="14.33185477105509"><ele>451.0</ele><time>2026-05-01T20:00:28Z</time></trkpt><trkpt lat="46.67928741085068" lon="14.331652794256879"><ele>451.0</ele><time>2026-05-01T20:00:29Z</time></trkpt><trkpt lat="46.679140793478815" lon="14.331449742793023"><ele>451.33333333333337</ele><time>2026-05-01T20:00:30Z</time></trkpt><trkpt lat="46.67899660125556" lon="14.331248829745112"><ele>451.66666666666663</ele><time>2026-05-01T20:00:31Z</time></trkpt><trkpt lat="46.67885169387906" lon="14.331048156654566"><ele>452.0</ele><time>2026-05-01T20:00:32Z</time></trkpt><trkpt lat="46.67870691456567" lon="14.33084714831245"><ele>452.66666666666663</ele><time>2026-05-01T20:00:33Z</time></trkpt><trkpt lat="46.678565398736716" lon="14.330646462369906"><ele>453.33333333333337</ele><time>2026-05-01T20:00:34Z</time></trkpt><trkpt lat="46.678422971398184" lon="14.330452003192818"><ele>454.0</ele><time>2026-05-01T20:00:35Z</time></trkpt><trkpt lat="46.678278132433384" lon="14.330262161009934"><ele>454.0</ele><time>2026-05-01T20:00:36Z</time></trkpt><trkpt lat="46.67813153945359" lon="14.330073153224422"><ele>454.0</ele><time>2026-05-01T20:00:37Z</time></trkpt><trkpt lat="46.6779865989133" lon="14.32987696504472"><ele>454.0</ele><time>2026-05-01T20:00:38Z</time></trkpt><trkpt lat="46.67783983283134" lon="14.32967960247361"><ele>453.33333333333337</ele><time>2026-05-01T20:00:39Z</time></trkpt><trkpt lat="46.67769126930212" lon="14.329480385765372"><ele>452.66666666666663</ele><time>2026-05-01T20:00:40Z</time></trkpt><trkpt lat="46.67753805774119" lon="14.329281662971095"><ele>452.0</ele><time>2026-05-01T20:00:41Z</time></trkpt><trkpt lat="46.67738119752086" lon="14.329080023474523"><ele>452.0</ele><time>2026-05-01T20:00:42Z</time></trkpt><trkpt lat="46.677221052399" lon="14.328880259654976"><ele>452.0</ele><time>2026-05-01T20:00:43Z</time></trkpt><trkpt lat="46.677061014082014" lon="14.328676643642225"><ele>452.0</ele><time>2026-05-01T20:00:44Z</time></trkpt><trkpt lat="46.67689869724634" lon="14.32847307262424"><ele>452.3333333333333</ele><time>2026-05-01T20:00:45Z</time></trkpt><trkpt lat="46.67673203315328" lon="14.328270389941599"><ele>452.66666666666663</ele><time>2026-05-01T20:00:46Z</time></trkpt><trkpt lat="46.676566900184774" lon="14.32807416079509"><ele>453.0</ele><time>2026-05-01T20:00:47Z</time></trkpt><trkpt lat="46.67640004303563" lon="14.327872511983465"><ele>453.0</ele><time>2026-05-01T20:00:48Z</time></trkpt><trkpt lat="46.67623870978748" lon="14.327673923318038"><ele>453.0</ele><time>2026-05-01T20:00:49Z</time></trkpt><trkpt lat="46.67608156432586" lon="14.327483894115343"><ele>453.0</ele><time>2026-05-01T20:00:50Z</time></trkpt><trkpt lat="46.67591986317384" lon="14.327289414254155"><ele>453.66666666666663</ele><time>2026-05-01T20:00:51Z</time></trkpt><trkpt lat="46.67575480589659" lon="14.327087681837794"><ele>454.3333333333333</ele><time>2026-05-01T20:00:52Z</time></trkpt><trkpt lat="46.67558788937142" lon="14.326884943420579"><ele>455.0</ele><time>2026-05-01T20:00:53Z</time></trkpt><trkpt lat="46.67541683771603" lon="14.32668695540814"><ele>455.0</ele><time>2026-05-01T20:00:54Z</time></trkpt><trkpt lat="46.67524621159886" lon="14.326490342845066"><ele>455.0</ele><time>2026-05-01T20:00:55Z</time></trkpt><trkpt lat="46.675075253471135" lon="14.326294576649333"><ele>455.0</ele><time>2026-05-01T20:00:56Z</time></trkpt><trkpt lat="46.674906035861675" lon="14.326101251284467"><ele>455.66666666666663</ele><time>2026-05-01T20:00:57Z</time></trkpt><trkpt lat="46.67473303863521" lon="14.325903162678891"><ele>456.33333333333337</ele><time>2026-05-01T20:00:58Z</time></trkpt><trkpt lat="46.67455989304" lon="14.325705872106123"><ele>457.0</ele><time>2026-05-01T20:00:59Z</time></trkpt><trkpt lat="46.67438928286018" lon="14.325512283515119"><ele>457.0</ele><time>2026-05-01T20:01:00Z</time></trkpt><trkpt lat="46.67421977897187" lon="14.325319149144452"><ele>457.0</ele><time>2026-05-01T20:01:01Z</time></trkpt><trkpt lat="46.674049371691076" lon="14.325125285436972"><ele>457.0</ele><time>2026-05-01T20:01:02Z</time></trkpt><trkpt lat="46.67387975428182" lon="14.32493814601172"><ele>457.0</ele><time>2026-05-01T20:01:03Z</time></trkpt><trkpt lat="46.67371014550059" lon="14.324749938622789"><ele>457.0</ele><time>2026-05-01T20:01:04Z</time></trkpt><trkpt lat="46.67354200871965" lon="14.324559778362952"><ele>457.0</ele><time>2026-05-01T20:01:05Z</time></trkpt><trkpt lat="46.67337503907819" lon="14.324368437950971"><ele>456.33333333333337</ele><time>2026-05-01T20:01:06Z</time></trkpt><trkpt lat="46.67320874361562" lon="14.324175868359127"><ele>455.66666666666663</ele><time>2026-05-01T20:01:07Z</time></trkpt><trkpt lat="46.67304319111283" lon="14.323984752693427"><ele>455.0</ele><time>2026-05-01T20:01:08Z</time></trkpt><trkpt lat="46.67287608761651" lon="14.32378686286615"><ele>454.0</ele><time>2026-05-01T20:01:09Z</time></trkpt><trkpt lat="46.67270903856104" lon="14.323592617832679"><ele>453.0</ele><time>2026-05-01T20:01:10Z</time></trkpt><trkpt lat="46.6725405084039" lon="14.323398083795562"><ele>452.0</ele><time>2026-05-01T20:01:11Z</time></trkpt><trkpt lat="46.67237259211559" lon="14.323202391036656"><ele>452.0</ele><time>2026-05-01T20:01:12Z</time></trkpt><trkpt lat="46.67220142824977" lon="14.32300065071615"><ele>452.0</ele><time>2026-05-01T20:01:13Z</time></trkpt><trkpt lat="46.67203069029592" lon="14.322803588863158"><ele>452.0</ele><time>2026-05-01T20:01:14Z</time></trkpt><trkpt lat="46.67185911943004" lon="14.322606017398494"><ele>452.0</ele><time>2026-05-01T20:01:15Z</time></trkpt><trkpt lat="46.67168753256918" lon="14.322406586037129"><ele>452.0</ele><time>2026-05-01T20:01:16Z</time></trkpt><trkpt lat="46.67151517037688" lon="14.322205863282951"><ele>452.0</ele><time>2026-05-01T20:01:17Z</time></trkpt><trkpt lat="46.67134393322066" lon="14.322010955540122"><ele>452.3333333333333</ele><time>2026-05-01T20:01:18Z</time></trkpt><trkpt lat="46.67117413673299" lon="14.321810765560825"><ele>452.66666666666663</ele><time>2026-05-01T20:01:19Z</time></trkpt><trkpt lat="46.67100505984425" lon="14.321607937511002"><ele>453.0</ele><time>2026-05-01T20:01:20Z</time></trkpt><trkpt lat="46.67083759541827" lon="14.321404184859663"><ele>452.0</ele><time>2026-05-01T20:01:21Z</time></trkpt><trkpt lat="46.670671221912954" lon="14.32119561578904"><ele>451.0</ele><time>2026-05-01T20:01:22Z</time></trkpt><trkpt lat="46.67050607976273" lon="14.32098267437145"><ele>450.0</ele><time>2026-05-01T20:01:23Z</time></trkpt><trkpt lat="46.670339955563996" lon="14.320769027365225"><ele>450.0</ele><time>2026-05-01T20:01:24Z</time></trkpt><trkpt lat="46.67017314197041" lon="14.320549026492937"><ele>450.0</ele><time>2026-05-01T20:01:25Z</time></trkpt><trkpt lat="46.670007623254875" lon="14.320328859444114"><ele>450.0</ele><time>2026-05-01T20:01:26Z</time></trkpt><trkpt lat="46.66984658785783" lon="14.32010403424146"><ele>450.0</ele><time>2026-05-01T20:01:27Z</time></trkpt><trkpt lat="46.669685694647974" lon="14.319877328311973"><ele>450.0</ele><time>2026-05-01T20:01:28Z</time></trkpt><trkpt lat="46.66952358546234" lon="14.319647142887112"><ele>451.5</ele><time>2026-05-01T20:01:29Z</time></trkpt><trkpt lat="46.66936496022012" lon="14.319411603104795"><ele>453.0</ele><time>2026-05-01T20:01:30Z</time></trkpt><trkpt lat="46.66920916396258" lon="14.319169361918993"><ele>453.0</ele><time>2026-05-01T20:01:31Z</time></trkpt><trkpt lat="46.669061216450594" lon="14.31892576477015"><ele>453.0</ele><time>2026-05-01T20:01:32Z</time></trkpt><trkpt lat="46.668906758696004" lon="14.31867420875466"><ele>451.5</ele><time>2026-05-01T20:01:33Z</time></trkpt><trkpt lat="46.6687587739753" lon="14.318421950610075"><ele>450.0</ele><time>2026-05-01T20:01:34Z</time></trkpt><trkpt lat="46.668613626288966" lon="14.318166047961721"><ele>453.0</ele><time>2026-05-01T20:01:35Z</time></trkpt><trkpt lat="46.66847088622386" lon="14.317913618379869"><ele>456.0</ele><time>2026-05-01T20:01:36Z</time></trkpt><trkpt lat="46.66832939004735" lon="14.31765143141521"><ele>456.0</ele><time>2026-05-01T20:01:37Z</time></trkpt><trkpt lat="46.66819350303828" lon="14.317387729495413"><ele>456.0</ele><time>2026-05-01T20:01:38Z</time></trkpt><trkpt lat="46.66806220904972" lon="14.317121890338113"><ele>455.5</ele><time>2026-05-01T20:01:39Z</time></trkpt><trkpt lat="46.667928822633435" lon="14.316849371518877"><ele>455.0</ele><time>2026-05-01T20:01:40Z</time></trkpt><trkpt lat="46.6678009892575" lon="14.316575438938846"><ele>456.0</ele><time>2026-05-01T20:01:41Z</time></trkpt><trkpt lat="46.66767854495826" lon="14.316297711779416"><ele>457.0</ele><time>2026-05-01T20:01:42Z</time></trkpt><trkpt lat="46.667558930802365" lon="14.31602272387221"><ele>457.0</ele><time>2026-05-01T20:01:43Z</time></trkpt><trkpt lat="46.66744450483882" lon="14.315740735119668"><ele>457.0</ele><time>2026-05-01T20:01:44Z</time></trkpt><trkpt lat="46.66733006686121" lon="14.315456890690786"><ele>455.33333333333337</ele><time>2026-05-01T20:01:45Z</time></trkpt><trkpt lat="46.66722121582654" lon="14.315170462121252"><ele>453.66666666666663</ele><time>2026-05-01T20:01:46Z</time></trkpt><trkpt lat="46.6671167141716" lon="14.314884973956033"><ele>452.0</ele><time>2026-05-01T20:01:47Z</time></trkpt><trkpt lat="46.6670179611729" lon="14.31459761911992"><ele>452.0</ele><time>2026-05-01T20:01:48Z</time></trkpt><trkpt lat="46.66692009879407" lon="14.314312483970149"><ele>452.0</ele><time>2026-05-01T20:01:49Z</time></trkpt><trkpt lat="46.6668282071654" lon="14.314025663263532"><ele>452.0</ele><time>2026-05-01T20:01:50Z</time></trkpt><trkpt lat="46.666736553653266" lon="14.313736080533474"><ele>452.0</ele><time>2026-05-01T20:01:51Z</time></trkpt><trkpt lat="46.666644968477975" lon="14.313442710461405"><ele>452.0</ele><time>2026-05-01T20:01:52Z</time></trkpt><trkpt lat="46.666554469803046" lon="14.313149059613545"><ele>452.0</ele><time>2026-05-01T20:01:53Z</time></trkpt><trkpt lat="46.66646149102916" lon="14.31285807696988"><ele>451.3333333333333</ele><time>2026-05-01T20:01:54Z</time></trkpt><trkpt lat="46.66636998106521" lon="14.312564907718288"><ele>450.66666666666663</ele><time>2026-05-01T20:01:55Z</time></trkpt><trkpt lat="46.66628064587084" lon="14.312269706169525"><ele>450.0</ele><time>2026-05-01T20:01:56Z</time></trkpt><trkpt lat="46.66619174985174" lon="14.311971315995667"><ele>450.0</ele><time>2026-05-01T20:01:57Z</time></trkpt><trkpt lat="46.666102425284365" lon="14.311669966670145"><ele>450.0</ele><time>2026-05-01T20:01:58Z</time></trkpt><trkpt lat="46.66601471639536" lon="14.311370609477647"><ele>450.0</ele><time>2026-05-01T20:01:59Z</time></trkpt><trkpt lat="46.66592804098726" lon="14.311071748210137"><ele>450.0</ele><time>2026-05-01T20:02:00Z</time></trkpt><trkpt lat="46.66584056759974" lon="14.310771585747219"><ele>450.0</ele><time>2026-05-01T20:02:01Z</time></trkpt><trkpt lat="46.665754479382926" lon="14.310474376714225"><ele>450.0</ele><time>2026-05-01T20:02:02Z</time></trkpt><trkpt lat="46.66566841958648" lon="14.310181081170727"><ele>450.0</ele><time>2026-05-01T20:02:03Z</time></trkpt><trkpt lat="46.665582277218576" lon="14.309887470948947"><ele>450.0</ele><time>2026-05-01T20:02:04Z</time></trkpt><trkpt lat="46.66549788789722" lon="14.309596103986506"><ele>450.0</ele><time>2026-05-01T20:02:05Z</time></trkpt><trkpt lat="46.66541353229428" lon="14.309303435305438"><ele>449.66666666666663</ele><time>2026-05-01T20:02:06Z</time></trkpt><trkpt lat="46.66532945721685" lon="14.309008919978886"><ele>449.3333333333333</ele><time>2026-05-01T20:02:07Z</time></trkpt><trkpt lat="46.66524510938365" lon="14.308715140739228"><ele>449.0</ele><time>2026-05-01T20:02:08Z</time></trkpt><trkpt lat="46.6651610321921" lon="14.308420173425766"><ele>449.66666666666663</ele><time>2026-05-01T20:02:09Z</time></trkpt><trkpt lat="46.66507499401465" lon="14.308126026633035"><ele>450.33333333333337</ele><time>2026-05-01T20:02:10Z</time></trkpt><trkpt lat="46.66498781637997" lon="14.307827856272993"><ele>451.0</ele><time>2026-05-01T20:02:11Z</time></trkpt><trkpt lat="46.66490011643305" lon="14.307530140831952"><ele>451.0</ele><time>2026-05-01T20:02:12Z</time></trkpt><trkpt lat="46.664814973602134" lon="14.307226828859763"><ele>451.0</ele><time>2026-05-01T20:02:13Z</time></trkpt><trkpt lat="46.664735281504186" lon="14.30692180824499"><ele>451.0</ele><time>2026-05-01T20:02:14Z</time></trkpt><trkpt lat="46.66466604624863" lon="14.306610943266254"><ele>450.0</ele><time>2026-05-01T20:02:15Z</time></trkpt><trkpt lat="46.66459949956434" lon="14.306292106766415"><ele>449.0</ele><time>2026-05-01T20:02:16Z</time></trkpt><trkpt lat="46.66455053311629" lon="14.305974385263063"><ele>449.0</ele><time>2026-05-01T20:02:17Z</time></trkpt><trkpt lat="46.664504765748205" lon="14.305653260822417"><ele>449.0</ele><time>2026-05-01T20:02:18Z</time></trkpt><trkpt lat="46.66446324849227" lon="14.30532998791638"><ele>449.0</ele><time>2026-05-01T20:02:19Z</time></trkpt><trkpt lat="46.66443176371675" lon="14.30500387364494"><ele>449.0</ele><time>2026-05-01T20:02:20Z</time></trkpt><trkpt lat="46.66439782506645" lon="14.304678934197952"><ele>449.0</ele><time>2026-05-01T20:02:21Z</time></trkpt><trkpt lat="46.664361356841034" lon="14.304355133467844"><ele>449.0</ele><time>2026-05-01T20:02:22Z</time></trkpt><trkpt lat="46.664329813471035" lon="14.304033068861509"><ele>449.0</ele><time>2026-05-01T20:02:23Z</time></trkpt><trkpt lat="46.66429732088057" lon="14.303710811675108"><ele>448.66666666666663</ele><time>2026-05-01T20:02:24Z</time></trkpt><trkpt lat="46.66426004179795" lon="14.30339216785989"><ele>448.33333333333337</ele><time>2026-05-01T20:02:25Z</time></trkpt><trkpt lat="46.66421948643586" lon="14.303078585405858"><ele>448.0</ele><time>2026-05-01T20:02:26Z</time></trkpt><trkpt lat="46.66417599076296" lon="14.302762612621574"><ele>448.6666666666667</ele><time>2026-05-01T20:02:27Z</time></trkpt><trkpt lat="46.66412229127275" lon="14.302449546162839"><ele>449.33333333333337</ele><time>2026-05-01T20:02:28Z</time></trkpt><trkpt lat="46.664060858532125" lon="14.30214026831888"><ele>450.0</ele><time>2026-05-01T20:02:29Z</time></trkpt><trkpt lat="46.66398873035616" lon="14.301834214921042"><ele>450.33333333333337</ele><time>2026-05-01T20:02:30Z</time></trkpt><trkpt lat="46.66390795637494" lon="14.301536062115664"><ele>450.6666666666667</ele><time>2026-05-01T20:02:31Z</time></trkpt><trkpt lat="46.6638191056739" lon="14.3012419411725"><ele>451.0</ele><time>2026-05-01T20:02:32Z</time></trkpt><trkpt lat="46.663721316045034" lon="14.300951092117977"><ele>450.5</ele><time>2026-05-01T20:02:33Z</time></trkpt><trkpt lat="46.66361344944566" lon="14.3006616437375"><ele>450.0</ele><time>2026-05-01T20:02:34Z</time></trkpt><trkpt lat="46.663502135322226" lon="14.300377012973957"><ele>449.0</ele><time>2026-05-01T20:02:35Z</time></trkpt><trkpt lat="46.663383809082475" lon="14.300095638937309"><ele>448.0</ele><time>2026-05-01T20:02:36Z</time></trkpt><trkpt lat="46.663258907931116" lon="14.29981798644446"><ele>448.0</ele><time>2026-05-01T20:02:37Z</time></trkpt><trkpt lat="46.66313490652029" lon="14.299545178715704"><ele>448.0</ele><time>2026-05-01T20:02:38Z</time></trkpt><trkpt lat="46.663010198214494" lon="14.299272955382444"><ele>448.0</ele><time>2026-05-01T20:02:39Z</time></trkpt><trkpt lat="46.66288649163577" lon="14.299010765704663"><ele>448.33333333333337</ele><time>2026-05-01T20:02:40Z</time></trkpt><trkpt lat="46.66277090852896" lon="14.298755679409746"><ele>448.66666666666663</ele><time>2026-05-01T20:02:41Z</time></trkpt><trkpt lat="46.66265229270679" lon="14.298498435291878"><ele>449.0</ele><time>2026-05-01T20:02:42Z</time></trkpt><trkpt lat="46.66253138359016" lon="14.298235571275168"><ele>448.66666666666663</ele><time>2026-05-01T20:02:43Z</time></trkpt><trkpt lat="46.66241049837843" lon="14.297976050594503"><ele>448.33333333333337</ele><time>2026-05-01T20:02:44Z</time></trkpt><trkpt lat="46.66229271688956" lon="14.297722946323901"><ele>448.0</ele><time>2026-05-01T20:02:45Z</time></trkpt><trkpt lat="46.662178117519645" lon="14.297474987518466"><ele>448.33333333333337</ele><time>2026-05-01T20:02:46Z</time></trkpt><trkpt lat="46.6620637028883" lon="14.297230022656885"><ele>448.66666666666663</ele><time>2026-05-01T20:02:47Z</time></trkpt><trkpt lat="46.661951715208545" lon="14.29699039054709"><ele>449.0</ele><time>2026-05-01T20:02:48Z</time></trkpt><trkpt lat="46.661841098904574" lon="14.296747091935172"><ele>449.3333333333333</ele><time>2026-05-01T20:02:49Z</time></trkpt><trkpt lat="46.661730144694374" lon="14.2965038019588"><ele>449.66666666666663</ele><time>2026-05-01T20:02:50Z</time></trkpt><trkpt lat="46.66161746108712" lon="14.296264254877128"><ele>450.0</ele><time>2026-05-01T20:02:51Z</time></trkpt><trkpt lat="46.66150512557249" lon="14.29602775581079"><ele>450.0</ele><time>2026-05-01T20:02:52Z</time></trkpt><trkpt lat="46.66139644681097" lon="14.295799954011082"><ele>450.0</ele><time>2026-05-01T20:02:53Z</time></trkpt><trkpt lat="46.661293916700394" lon="14.295589350133845"><ele>450.0</ele><time>2026-05-01T20:02:54Z</time></trkpt><trkpt lat="46.661195552563605" lon="14.295390871008417"><ele>450.33333333333337</ele><time>2026-05-01T20:02:55Z</time></trkpt><trkpt lat="46.66109935819753" lon="14.295203203315785"><ele>450.6666666666667</ele><time>2026-05-01T20:02:56Z</time></trkpt><trkpt lat="46.66100548933215" lon="14.295019745918028"><ele>451.0</ele><time>2026-05-01T20:02:57Z</time></trkpt><trkpt lat="46.66090932935822" lon="14.294838782623875"><ele>451.33333333333337</ele><time>2026-05-01T20:02:58Z</time></trkpt><trkpt lat="46.66081528837119" lon="14.294657006601952"><ele>451.66666666666663</ele><time>2026-05-01T20:02:59Z</time></trkpt><trkpt lat="46.66072268763803" lon="14.294477330350324"><ele>452.0</ele><time>2026-05-01T20:03:00Z</time></trkpt><trkpt lat="46.660628709251704" lon="14.294302511615243"><ele>452.0</ele><time>2026-05-01T20:03:01Z</time></trkpt><trkpt lat="46.66053964421953" lon="14.2941421034503"><ele>452.0</ele><time>2026-05-01T20:03:02Z</time></trkpt><trkpt lat="46.66045545240275" lon="14.293993342015167"><ele>452.0</ele><time>2026-05-01T20:03:03Z</time></trkpt><trkpt lat="46.66037626759745" lon="14.293859642915203"><ele>452.0</ele><time>2026-05-01T20:03:04Z</time></trkpt><trkpt lat="46.66029889060289" lon="14.293730922550015"><ele>452.20000000000005</ele><time>2026-05-01T20:03:05Z</time></trkpt><trkpt lat="46.66022356755439" lon="14.293606890469027"><ele>452.40000000000003</ele><time>2026-05-01T20:03:06Z</time></trkpt><trkpt lat="46.66014814907796" lon="14.293486626013985"><ele>452.59999999999997</ele><time>2026-05-01T20:03:07Z</time></trkpt><trkpt lat="46.66008046994967" lon="14.293373395289033"><ele>452.79999999999995</ele><time>2026-05-01T20:03:08Z</time></trkpt><trkpt lat="46.66002812750568" lon="14.293275711455776"><ele>453.0</ele><time>2026-05-01T20:03:09Z</time></trkpt><trkpt lat="46.65998039104491" lon="14.293138652738632"><ele>453.1666666666667</ele><time>2026-05-01T20:03:11Z</time></trkpt><trkpt lat="46.659966942194664" lon="14.293026518504892"><ele>453.33333333333337</ele><time>2026-05-01T20:03:13Z</time></trkpt><trkpt lat="46.65998503155714" lon="14.292887044159427"><ele>453.5</ele><time>2026-05-01T20:03:15Z</time></trkpt><trkpt lat="46.66002457696571" lon="14.29280066987438"><ele>453.6666666666667</ele><time>2026-05-01T20:03:16Z</time></trkpt><trkpt lat="46.66008239946913" lon="14.292705661401802"><ele>453.83333333333337</ele><time>2026-05-01T20:03:17Z</time></trkpt><trkpt lat="46.66015565456564" lon="14.292604301964415"><ele>454.0</ele><time>2026-05-01T20:03:18Z</time></trkpt><trkpt lat="46.660231865479965" lon="14.29249040265148"><ele>453.0</ele><time>2026-05-01T20:03:19Z</time></trkpt><trkpt lat="46.6603031947992" lon="14.29235675969376"><ele>452.0</ele><time>2026-05-01T20:03:20Z</time></trkpt><trkpt lat="46.66035838932493" lon="14.292206009781006"><ele>451.0</ele><time>2026-05-01T20:03:21Z</time></trkpt><trkpt lat="46.66039650461123" lon="14.29204286416359"><ele>450.0</ele><time>2026-05-01T20:03:22Z</time></trkpt><trkpt lat="46.66040961542642" lon="14.291870911690193"><ele>449.75</ele><time>2026-05-01T20:03:23Z</time></trkpt><trkpt lat="46.66039807141184" lon="14.291699905699202"><ele>449.5</ele><time>2026-05-01T20:03:24Z</time></trkpt><trkpt lat="46.66035893507467" lon="14.291538998396886"><ele>449.25</ele><time>2026-05-01T20:03:25Z</time></trkpt><trkpt lat="46.66029708206981" lon="14.29139621901353"><ele>449.0</ele><time>2026-05-01T20:03:26Z</time></trkpt><trkpt lat="46.6602166868033" lon="14.291275772958102"><ele>448.5</ele><time>2026-05-01T20:03:27Z</time></trkpt><trkpt lat="46.66012704450673" lon="14.291165840099376"><ele>448.0</ele><time>2026-05-01T20:03:28Z</time></trkpt><trkpt lat="46.66003481511529" lon="14.29104910968459"><ele>447.5</ele><time>2026-05-01T20:03:29Z</time></trkpt><trkpt lat="46.65994773792605" lon="14.290925425708824"><ele>447.0</ele><time>2026-05-01T20:03:30Z</time></trkpt><trkpt lat="46.65987665696194" lon="14.29078690142109"><ele>447.0</ele><time>2026-05-01T20:03:31Z</time></trkpt><trkpt lat="46.65982944183183" lon="14.290628510421872"><ele>447.0</ele><time>2026-05-01T20:03:32Z</time></trkpt><trkpt lat="46.65980654077046" lon="14.290453468921129"><ele>447.0</ele><time>2026-05-01T20:03:33Z</time></trkpt><trkpt lat="46.65980646719757" lon="14.290262551771303"><ele>447.0</ele><time>2026-05-01T20:03:34Z</time></trkpt><trkpt lat="46.65981838461313" lon="14.290060917801432"><ele>447.0</ele><time>2026-05-01T20:03:35Z</time></trkpt><trkpt lat="46.65983785625726" lon="14.289846228071598"><ele>447.0</ele><time>2026-05-01T20:03:36Z</time></trkpt><trkpt lat="46.659856580495514" lon="14.289617170086373"><ele>447.0</ele><time>2026-05-01T20:03:37Z</time></trkpt><trkpt lat="46.65987368508127" lon="14.289372241427396"><ele>447.33333333333337</ele><time>2026-05-01T20:03:38Z</time></trkpt><trkpt lat="46.65989009284518" lon="14.289115765709822"><ele>447.6666666666667</ele><time>2026-05-01T20:03:39Z</time></trkpt><trkpt lat="46.65990385103776" lon="14.288845497181471"><ele>448.0</ele><time>2026-05-01T20:03:40Z</time></trkpt><trkpt lat="46.659915027563045" lon="14.28857386904823"><ele>449.0</ele><time>2026-05-01T20:03:41Z</time></trkpt><trkpt lat="46.659922694706886" lon="14.288307016204953"><ele>450.0</ele><time>2026-05-01T20:03:42Z</time></trkpt><trkpt lat="46.6599209962618" lon="14.288034685933273"><ele>451.0</ele><time>2026-05-01T20:03:43Z</time></trkpt><trkpt lat="46.65991054370095" lon="14.287751408602862"><ele>451.0</ele><time>2026-05-01T20:03:44Z</time></trkpt><trkpt lat="46.65989395367655" lon="14.287462766691597"><ele>451.0</ele><time>2026-05-01T20:03:45Z</time></trkpt><trkpt lat="46.659867669748905" lon="14.28716594114802"><ele>451.0</ele><time>2026-05-01T20:03:46Z</time></trkpt><trkpt lat="46.65983889925217" lon="14.286860423620405"><ele>450.33333333333337</ele><time>2026-05-01T20:03:47Z</time></trkpt><trkpt lat="46.65981006212449" lon="14.286562131683613"><ele>449.66666666666663</ele><time>2026-05-01T20:03:48Z</time></trkpt><trkpt lat="46.659774575162004" lon="14.286272328632858"><ele>449.0</ele><time>2026-05-01T20:03:49Z</time></trkpt><trkpt lat="46.65973210834114" lon="14.285977292068567"><ele>449.0</ele><time>2026-05-01T20:03:50Z</time></trkpt><trkpt lat="46.65968134700493" lon="14.28567893598533"><ele>449.0</ele><time>2026-05-01T20:03:51Z</time></trkpt><trkpt lat="46.65962330654814" lon="14.285383162205669"><ele>449.0</ele><time>2026-05-01T20:03:52Z</time></trkpt><trkpt lat="46.65955853434661" lon="14.285089517769633"><ele>449.3333333333333</ele><time>2026-05-01T20:03:53Z</time></trkpt><trkpt lat="46.65948765413023" lon="14.284795194429112"><ele>449.66666666666663</ele><time>2026-05-01T20:03:54Z</time></trkpt><trkpt lat="46.65940663712425" lon="14.284507116487827"><ele>450.0</ele><time>2026-05-01T20:03:55Z</time></trkpt><trkpt lat="46.659318226183316" lon="14.28422617944152"><ele>450.0</ele><time>2026-05-01T20:03:56Z</time></trkpt><trkpt lat="46.6592231796915" lon="14.283942900506903"><ele>450.0</ele><time>2026-05-01T20:03:57Z</time></trkpt><trkpt lat="46.65912362603339" lon="14.283662359942968"><ele>450.0</ele><time>2026-05-01T20:03:58Z</time></trkpt><trkpt lat="46.65901631613439" lon="14.28338659292294"><ele>450.0</ele><time>2026-05-01T20:03:59Z</time></trkpt><trkpt lat="46.65890220202129" lon="14.283115254654762"><ele>450.0</ele><time>2026-05-01T20:04:00Z</time></trkpt><trkpt lat="46.658779252628115" lon="14.28284021664717"><ele>450.0</ele><time>2026-05-01T20:04:01Z</time></trkpt><trkpt lat="46.65865388821956" lon="14.282577584818876"><ele>450.0</ele><time>2026-05-01T20:04:02Z</time></trkpt><trkpt lat="46.658521934650125" lon="14.282318278888804"><ele>450.0</ele><time>2026-05-01T20:04:03Z</time></trkpt><trkpt lat="46.658381305859685" lon="14.282060258417003"><ele>450.0</ele><time>2026-05-01T20:04:04Z</time></trkpt><trkpt lat="46.658233911132875" lon="14.281802152408334"><ele>450.0</ele><time>2026-05-01T20:04:05Z</time></trkpt><trkpt lat="46.65807905125807" lon="14.281543792597994"><ele>450.0</ele><time>2026-05-01T20:04:06Z</time></trkpt><trkpt lat="46.65792031982099" lon="14.281288116872911"><ele>449.0</ele><time>2026-05-01T20:04:07Z</time></trkpt><trkpt lat="46.65775684604744" lon="14.281035434016612"><ele>448.0</ele><time>2026-05-01T20:04:08Z</time></trkpt><trkpt lat="46.65759091144639" lon="14.280784924924085"><ele>449.0</ele><time>2026-05-01T20:04:09Z</time></trkpt><trkpt lat="46.65742400789439" lon="14.28053983772263"><ele>450.0</ele><time>2026-05-01T20:04:10Z</time></trkpt><trkpt lat="46.65727881124761" lon="14.280275620027512"><ele>450.0</ele><time>2026-05-01T20:04:11Z</time></trkpt><trkpt lat="46.657117904953026" lon="14.280045137262764"><ele>450.0</ele><time>2026-05-01T20:04:12Z</time></trkpt><trkpt lat="46.656970960189426" lon="14.279835186404254"><ele>450.0</ele><time>2026-05-01T20:04:13Z</time></trkpt><trkpt lat="46.65681807464076" lon="14.279619718664303"><ele>450.0</ele><time>2026-05-01T20:04:14Z</time></trkpt><trkpt lat="46.656664580310476" lon="14.2793987543459"><ele>450.0</ele><time>2026-05-01T20:04:15Z</time></trkpt><trkpt lat="46.656504566738924" lon="14.279170856515567"><ele>450.0</ele><time>2026-05-01T20:04:16Z</time></trkpt><trkpt lat="46.656338043088134" lon="14.278934550018956"><ele>450.0</ele><time>2026-05-01T20:04:17Z</time></trkpt><trkpt lat="46.65617536050221" lon="14.278697859893983"><ele>450.0</ele><time>2026-05-01T20:04:18Z</time></trkpt><trkpt lat="46.656016613114424" lon="14.27845812801263"><ele>450.0</ele><time>2026-05-01T20:04:19Z</time></trkpt><trkpt lat="46.65586167545694" lon="14.278213034119046"><ele>450.0</ele><time>2026-05-01T20:04:20Z</time></trkpt><trkpt lat="46.65571216545018" lon="14.277962615118"><ele>449.5</ele><time>2026-05-01T20:04:21Z</time></trkpt><trkpt lat="46.6555702619898" lon="14.277706404507239"><ele>449.0</ele><time>2026-05-01T20:04:22Z</time></trkpt><trkpt lat="46.65543419968853" lon="14.27744416938096"><ele>448.66666666666663</ele><time>2026-05-01T20:04:23Z</time></trkpt><trkpt lat="46.655304821549876" lon="14.2771775893534"><ele>448.33333333333337</ele><time>2026-05-01T20:04:24Z</time></trkpt><trkpt lat="46.655184740010114" lon="14.276906110352888"><ele>448.0</ele><time>2026-05-01T20:04:25Z</time></trkpt><trkpt lat="46.65507574037144" lon="14.276629892075814"><ele>448.0</ele><time>2026-05-01T20:04:26Z</time></trkpt><trkpt lat="46.65496806452706" lon="14.276344096252158"><ele>448.0</ele><time>2026-05-01T20:04:27Z</time></trkpt><trkpt lat="46.65486647420904" lon="14.276049086850731"><ele>448.0</ele><time>2026-05-01T20:04:28Z</time></trkpt><trkpt lat="46.65477056837223" lon="14.275746089745242"><ele>448.0</ele><time>2026-05-01T20:04:29Z</time></trkpt><trkpt lat="46.65468427144611" lon="14.275440548303088"><ele>448.0</ele><time>2026-05-01T20:04:30Z</time></trkpt><trkpt lat="46.6546076653358" lon="14.275134764923394"><ele>448.0</ele><time>2026-05-01T20:04:31Z</time></trkpt><trkpt lat="46.654537698449765" lon="14.274822865740047"><ele>448.0</ele><time>2026-05-01T20:04:32Z</time></trkpt><trkpt lat="46.65446788396196" lon="14.27450010283342"><ele>451.6666666666667</ele><time>2026-05-01T20:04:33Z</time></trkpt><trkpt lat="46.65440928396561" lon="14.274183469794604"><ele>455.33333333333337</ele><time>2026-05-01T20:04:34Z</time></trkpt><trkpt lat="46.65442481693939" lon="14.274052400307717"><ele>459.0</ele><time>2026-05-01T20:04:35Z</time></trkpt><trkpt lat="46.65434751607973" lon="14.273727687454635"><ele>459.0</ele><time>2026-05-01T20:04:36Z</time></trkpt><trkpt lat="46.65430559237537" lon="14.273427114741441"><ele>459.0</ele><time>2026-05-01T20:04:37Z</time></trkpt><trkpt lat="46.65424568572149" lon="14.273119832259914"><ele>459.0</ele><time>2026-05-01T20:04:38Z</time></trkpt><trkpt lat="46.65418088910804" lon="14.272839642648199"><ele>456.5</ele><time>2026-05-01T20:04:39Z</time></trkpt><trkpt lat="46.65411887459253" lon="14.272521635386653"><ele>454.0</ele><time>2026-05-01T20:04:40Z</time></trkpt><trkpt lat="46.654054802880076" lon="14.272199881668119"><ele>453.5</ele><time>2026-05-01T20:04:41Z</time></trkpt><trkpt lat="46.65398933020202" lon="14.271880334482688"><ele>453.0</ele><time>2026-05-01T20:04:42Z</time></trkpt><trkpt lat="46.65392361660297" lon="14.271557407888777"><ele>452.5</ele><time>2026-05-01T20:04:43Z</time></trkpt><trkpt lat="46.65385754799308" lon="14.271234153682395"><ele>452.0</ele><time>2026-05-01T20:04:44Z</time></trkpt><trkpt lat="46.65378753502818" lon="14.270909586976236"><ele>452.5</ele><time>2026-05-01T20:04:45Z</time></trkpt><trkpt lat="46.65371380356846" lon="14.270590270379762"><ele>453.0</ele><time>2026-05-01T20:04:46Z</time></trkpt><trkpt lat="46.653641831693804" lon="14.270286196877642"><ele>454.66666666666663</ele><time>2026-05-01T20:04:47Z</time></trkpt><trkpt lat="46.65356942061049" lon="14.269990511010311"><ele>456.3333333333333</ele><time>2026-05-01T20:04:48Z</time></trkpt><trkpt lat="46.65349220021545" lon="14.269688418220188"><ele>458.0</ele><time>2026-05-01T20:04:49Z</time></trkpt><trkpt lat="46.65341273760902" lon="14.269387875272306"><ele>458.66666666666663</ele><time>2026-05-01T20:04:50Z</time></trkpt><trkpt lat="46.65333255824384" lon="14.26909156020191"><ele>459.33333333333337</ele><time>2026-05-01T20:04:51Z</time></trkpt><trkpt lat="46.65324923300353" lon="14.268802439570324"><ele>460.0</ele><time>2026-05-01T20:04:52Z</time></trkpt><trkpt lat="46.65316345585875" lon="14.268517923859715"><ele>461.33333333333337</ele><time>2026-05-01T20:04:53Z</time></trkpt><trkpt lat="46.65307468527726" lon="14.268235853713746"><ele>462.66666666666663</ele><time>2026-05-01T20:04:54Z</time></trkpt><trkpt lat="46.652983837422816" lon="14.267957905469446"><ele>464.0</ele><time>2026-05-01T20:04:55Z</time></trkpt><trkpt lat="46.6528925544167" lon="14.267680011491775"><ele>464.66666666666663</ele><time>2026-05-01T20:04:56Z</time></trkpt><trkpt lat="46.652800078618796" lon="14.267401829142441"><ele>465.33333333333337</ele><time>2026-05-01T20:04:57Z</time></trkpt><trkpt lat="46.652706005952346" lon="14.267127225743137"><ele>466.0</ele><time>2026-05-01T20:04:58Z</time></trkpt><trkpt lat="46.65261074640217" lon="14.266857250810254"><ele>464.0</ele><time>2026-05-01T20:04:59Z</time></trkpt><trkpt lat="46.652513163746676" lon="14.266592315645081"><ele>462.0</ele><time>2026-05-01T20:05:00Z</time></trkpt><trkpt lat="46.65241496827839" lon="14.266328842437666"><ele>460.0</ele><time>2026-05-01T20:05:01Z</time></trkpt><trkpt lat="46.652315181119796" lon="14.26606435395728"><ele>459.0</ele><time>2026-05-01T20:05:02Z</time></trkpt><trkpt lat="46.65221048416508" lon="14.265798048329726"><ele>458.0</ele><time>2026-05-01T20:05:03Z</time></trkpt><trkpt lat="46.65210241772738" lon="14.26553340353657"><ele>457.0</ele><time>2026-05-01T20:05:04Z</time></trkpt><trkpt lat="46.65198923816839" lon="14.2652718124375"><ele>457.33333333333337</ele><time>2026-05-01T20:05:05Z</time></trkpt><trkpt lat="46.651873091130184" lon="14.265009866117719"><ele>457.66666666666663</ele><time>2026-05-01T20:05:06Z</time></trkpt><trkpt lat="46.65175468510041" lon="14.264746494083417"><ele>458.0</ele><time>2026-05-01T20:05:07Z</time></trkpt><trkpt lat="46.65163338925895" lon="14.264481226923792"><ele>458.0</ele><time>2026-05-01T20:05:08Z</time></trkpt><trkpt lat="46.65151230892353" lon="14.264215326926037"><ele>458.0</ele><time>2026-05-01T20:05:09Z</time></trkpt><trkpt lat="46.6513887756389" lon="14.263950285925779"><ele>458.0</ele><time>2026-05-01T20:05:10Z</time></trkpt><trkpt lat="46.651264269533115" lon="14.263687875523482"><ele>458.0</ele><time>2026-05-01T20:05:11Z</time></trkpt><trkpt lat="46.651137918381764" lon="14.263428095336039"><ele>458.0</ele><time>2026-05-01T20:05:12Z</time></trkpt><trkpt lat="46.651011782230064" lon="14.263171623611298"><ele>458.0</ele><time>2026-05-01T20:05:13Z</time></trkpt><trkpt lat="46.65088703188912" lon="14.262913461141315"><ele>458.0</ele><time>2026-05-01T20:05:14Z</time></trkpt><trkpt lat="46.65076503335319" lon="14.262650322403505"><ele>458.0</ele><time>2026-05-01T20:05:15Z</time></trkpt><trkpt lat="46.65064993111513" lon="14.262380055302838"><ele>458.0</ele><time>2026-05-01T20:05:16Z</time></trkpt><trkpt lat="46.65054268811826" lon="14.262102157435496"><ele>458.3333333333333</ele><time>2026-05-01T20:05:17Z</time></trkpt><trkpt lat="46.65044177591429" lon="14.261815675110459"><ele>458.66666666666663</ele><time>2026-05-01T20:05:18Z</time></trkpt><trkpt lat="46.65035304064882" lon="14.261526964834951"><ele>459.0</ele><time>2026-05-01T20:05:19Z</time></trkpt><trkpt lat="46.6502738580794" lon="14.261235010615763"><ele>459.0</ele><time>2026-05-01T20:05:20Z</time></trkpt><trkpt lat="46.65020624419734" lon="14.26094133948911"><ele>459.0</ele><time>2026-05-01T20:05:21Z</time></trkpt><trkpt lat="46.650148878383845" lon="14.260644206022352"><ele>459.0</ele><time>2026-05-01T20:05:22Z</time></trkpt><trkpt lat="46.65009942804862" lon="14.260343303218539"><ele>459.0</ele><time>2026-05-01T20:05:23Z</time></trkpt><trkpt lat="46.65005669657174" lon="14.26003983300748"><ele>459.0</ele><time>2026-05-01T20:05:24Z</time></trkpt><trkpt lat="46.650022210947185" lon="14.259735291155756"><ele>459.0</ele><time>2026-05-01T20:05:25Z</time></trkpt><trkpt lat="46.64999348011703" lon="14.2594299091945"><ele>459.0</ele><time>2026-05-01T20:05:26Z</time></trkpt><trkpt lat="46.64997216519709" lon="14.259120034729575"><ele>459.0</ele><time>2026-05-01T20:05:27Z</time></trkpt><trkpt lat="46.64995375864437" lon="14.258810423636598"><ele>459.0</ele><time>2026-05-01T20:05:28Z</time></trkpt><trkpt lat="46.649935281732056" lon="14.258500718424283"><ele>459.0</ele><time>2026-05-01T20:05:29Z</time></trkpt><trkpt lat="46.64991294643607" lon="14.258189918482314"><ele>459.0</ele><time>2026-05-01T20:05:30Z</time></trkpt><trkpt lat="46.64988404475322" lon="14.257880625830978"><ele>459.0</ele><time>2026-05-01T20:05:31Z</time></trkpt><trkpt lat="46.649846900473214" lon="14.257571629170865"><ele>459.0</ele><time>2026-05-01T20:05:32Z</time></trkpt><trkpt lat="46.64979996776892" lon="14.257264387175931"><ele>459.0</ele><time>2026-05-01T20:05:33Z</time></trkpt><trkpt lat="46.64974629037824" lon="14.256957649520176"><ele>459.0</ele><time>2026-05-01T20:05:34Z</time></trkpt><trkpt lat="46.64967136772971" lon="14.256626812727115"><ele>460.0</ele><time>2026-05-01T20:05:35Z</time></trkpt><trkpt lat="46.649592287521905" lon="14.256324649451413"><ele>461.0</ele><time>2026-05-01T20:05:36Z</time></trkpt><trkpt lat="46.6494986564112" lon="14.256031602241611"><ele>462.0</ele><time>2026-05-01T20:05:37Z</time></trkpt><trkpt lat="46.6493960522141" lon="14.255743540667982"><ele>460.66666666666663</ele><time>2026-05-01T20:05:38Z</time></trkpt><trkpt lat="46.649285576711584" lon="14.25545822569156"><ele>459.3333333333333</ele><time>2026-05-01T20:05:39Z</time></trkpt><trkpt lat="46.64916525856057" lon="14.255183361435515"><ele>458.0</ele><time>2026-05-01T20:05:40Z</time></trkpt><trkpt lat="46.64903523835123" lon="14.25491881298362"><ele>458.3333333333333</ele><time>2026-05-01T20:05:41Z</time></trkpt><trkpt lat="46.648898514345056" lon="14.254660127579738"><ele>458.66666666666663</ele><time>2026-05-01T20:05:42Z</time></trkpt><trkpt lat="46.648753734453976" lon="14.254414991489341"><ele>459.0</ele><time>2026-05-01T20:05:43Z</time></trkpt><trkpt lat="46.648602603752146" lon="14.254178936405223"><ele>459.0</ele><time>2026-05-01T20:05:44Z</time></trkpt><trkpt lat="46.648446445513045" lon="14.253960565927741"><ele>459.0</ele><time>2026-05-01T20:05:45Z</time></trkpt><trkpt lat="46.64828515281318" lon="14.253753305673872"><ele>459.0</ele><time>2026-05-01T20:05:46Z</time></trkpt><trkpt lat="46.64815679188508" lon="14.253514502267247"><ele>459.33333333333337</ele><time>2026-05-01T20:05:47Z</time></trkpt><trkpt lat="46.647967833753725" lon="14.25336198530111"><ele>459.6666666666667</ele><time>2026-05-01T20:05:48Z</time></trkpt><trkpt lat="46.64779488905002" lon="14.253201064087369"><ele>460.0</ele><time>2026-05-01T20:05:49Z</time></trkpt><trkpt lat="46.64761087202613" lon="14.253055823151504"><ele>460.0</ele><time>2026-05-01T20:05:50Z</time></trkpt><trkpt lat="46.64742248527518" lon="14.252925213779896"><ele>460.0</ele><time>2026-05-01T20:05:51Z</time></trkpt><trkpt lat="46.647234626419966" lon="14.252792809974304"><ele>460.0</ele><time>2026-05-01T20:05:52Z</time></trkpt><trkpt lat="46.64703675139274" lon="14.252678424679935"><ele>462.6666666666667</ele><time>2026-05-01T20:05:53Z</time></trkpt><trkpt lat="46.64683736574548" lon="14.252572594428813"><ele>465.33333333333337</ele><time>2026-05-01T20:05:54Z</time></trkpt><trkpt lat="46.64663403466192" lon="14.25247453184293"><ele>468.0</ele><time>2026-05-01T20:05:55Z</time></trkpt><trkpt lat="46.64642791707584" lon="14.25239033331178"><ele>468.0</ele><time>2026-05-01T20:05:56Z</time></trkpt><trkpt lat="46.64622046745628" lon="14.25231592913605"><ele>468.0</ele><time>2026-05-01T20:05:57Z</time></trkpt><trkpt lat="46.646008898857836" lon="14.252254071889329"><ele>468.0</ele><time>2026-05-01T20:05:58Z</time></trkpt><trkpt lat="46.64579740296029" lon="14.252206628919982"><ele>469.33333333333337</ele><time>2026-05-01T20:05:59Z</time></trkpt><trkpt lat="46.64558415567912" lon="14.252163479310957"><ele>470.6666666666667</ele><time>2026-05-01T20:06:00Z</time></trkpt><trkpt lat="46.6453721378842" lon="14.252126142838408"><ele>472.0</ele><time>2026-05-01T20:06:01Z</time></trkpt><trkpt lat="46.645161632225594" lon="14.25209243010231"><ele>473.6666666666667</ele><time>2026-05-01T20:06:02Z</time></trkpt><trkpt lat="46.64494871625873" lon="14.252065606732138"><ele>475.33333333333337</ele><time>2026-05-01T20:06:03Z</time></trkpt><trkpt lat="46.644733701371635" lon="14.252047788539754"><ele>477.0</ele><time>2026-05-01T20:06:04Z</time></trkpt><trkpt lat="46.644519584400086" lon="14.252036598617613"><ele>477.66666666666663</ele><time>2026-05-01T20:06:05Z</time></trkpt><trkpt lat="46.644306460583586" lon="14.252030763927634"><ele>478.3333333333333</ele><time>2026-05-01T20:06:06Z</time></trkpt><trkpt lat="46.64409051638327" lon="14.252023293181118"><ele>479.0</ele><time>2026-05-01T20:06:07Z</time></trkpt><trkpt lat="46.64387833790216" lon="14.25200919985175"><ele>479.0</ele><time>2026-05-01T20:06:08Z</time></trkpt><trkpt lat="46.643665888797536" lon="14.251995105387648"><ele>479.0</ele><time>2026-05-01T20:06:09Z</time></trkpt><trkpt lat="46.64345512346567" lon="14.251986692193762"><ele>479.0</ele><time>2026-05-01T20:06:10Z</time></trkpt><trkpt lat="46.64324274156871" lon="14.251980443549385"><ele>488.3333333333333</ele><time>2026-05-01T20:06:11Z</time></trkpt><trkpt lat="46.64303007434347" lon="14.251975681842945"><ele>497.66666666666663</ele><time>2026-05-01T20:06:12Z</time></trkpt><trkpt lat="46.64281533260725" lon="14.251969224345158"><ele>507.0</ele><time>2026-05-01T20:06:13Z</time></trkpt><trkpt lat="46.64259942450664" lon="14.251959829798528"><ele>511.0</ele><time>2026-05-01T20:06:14Z</time></trkpt><trkpt lat="46.64238058087675" lon="14.251948334314415"><ele>515.0</ele><time>2026-05-01T20:06:15Z</time></trkpt><trkpt lat="46.64216373278637" lon="14.251939899823054"><ele>519.0</ele><time>2026-05-01T20:06:16Z</time></trkpt><trkpt lat="46.64194610638012" lon="14.251927048880777"><ele>522.5</ele><time>2026-05-01T20:06:17Z</time></trkpt><trkpt lat="46.64173256058781" lon="14.251907886791948"><ele>526.0</ele><time>2026-05-01T20:06:18Z</time></trkpt><trkpt lat="46.64147375028968" lon="14.251921579287098"><ele>526.0</ele><time>2026-05-01T20:06:19Z</time></trkpt><trkpt lat="46.641258609897406" lon="14.251898447760407"><ele>526.0</ele><time>2026-05-01T20:06:20Z</time></trkpt><trkpt lat="46.641042893811886" lon="14.251869512593352"><ele>526.0</ele><time>2026-05-01T20:06:21Z</time></trkpt><trkpt lat="46.64082119252368" lon="14.251829673808736"><ele>528.0</ele><time>2026-05-01T20:06:22Z</time></trkpt><trkpt lat="46.6405953299693" lon="14.251783635169383"><ele>530.0</ele><time>2026-05-01T20:06:23Z</time></trkpt><trkpt lat="46.64037231256891" lon="14.2517318844212"><ele>528.6666666666666</ele><time>2026-05-01T20:06:24Z</time></trkpt><trkpt lat="46.640151988873406" lon="14.251668908357065"><ele>527.3333333333334</ele><time>2026-05-01T20:06:25Z</time></trkpt><trkpt lat="46.63993450436008" lon="14.251591621446483"><ele>526.0</ele><time>2026-05-01T20:06:26Z</time></trkpt><trkpt lat="46.639722284938834" lon="14.25150214644244"><ele>523.6666666666667</ele><time>2026-05-01T20:06:27Z</time></trkpt><trkpt lat="46.639513574102594" lon="14.251401411817502"><ele>521.3333333333334</ele><time>2026-05-01T20:06:28Z</time></trkpt><trkpt lat="46.63930823627436" lon="14.251292504234033"><ele>519.0</ele><time>2026-05-01T20:06:29Z</time></trkpt><trkpt lat="46.63910699616038" lon="14.251175258745997"><ele>520.3333333333334</ele><time>2026-05-01T20:06:30Z</time></trkpt><trkpt lat="46.63891177261159" lon="14.251050569799755"><ele>521.6666666666667</ele><time>2026-05-01T20:06:31Z</time></trkpt><trkpt lat="46.63871739051505" lon="14.250916019697357"><ele>523.0</ele><time>2026-05-01T20:06:32Z</time></trkpt><trkpt lat="46.63853207731269" lon="14.250771836481928"><ele>518.6666666666667</ele><time>2026-05-01T20:06:33Z</time></trkpt><trkpt lat="46.638344446415225" lon="14.250617297551571"><ele>514.3333333333334</ele><time>2026-05-01T20:06:34Z</time></trkpt><trkpt lat="46.638162139325246" lon="14.25045218240701"><ele>510.0</ele><time>2026-05-01T20:06:35Z</time></trkpt><trkpt lat="46.63798630413062" lon="14.250278554968347"><ele>510.0</ele><time>2026-05-01T20:06:36Z</time></trkpt><trkpt lat="46.63781493058207" lon="14.250096737169885"><ele>510.0</ele><time>2026-05-01T20:06:37Z</time></trkpt><trkpt lat="46.637647809996615" lon="14.249905346138226"><ele>510.0</ele><time>2026-05-01T20:06:38Z</time></trkpt><trkpt lat="46.63748444642664" lon="14.249704801273102"><ele>511.66666666666663</ele><time>2026-05-01T20:06:39Z</time></trkpt><trkpt lat="46.63732208264246" lon="14.249495030068925"><ele>513.3333333333333</ele><time>2026-05-01T20:06:40Z</time></trkpt><trkpt lat="46.637165988947984" lon="14.24927811302511"><ele>515.0</ele><time>2026-05-01T20:06:41Z</time></trkpt><trkpt lat="46.63701546385133" lon="14.249054147530387"><ele>518.3333333333333</ele><time>2026-05-01T20:06:42Z</time></trkpt><trkpt lat="46.6368716148421" lon="14.248824446878373"><ele>521.6666666666666</ele><time>2026-05-01T20:06:43Z</time></trkpt><trkpt lat="46.63673186840699" lon="14.248586516634722"><ele>525.0</ele><time>2026-05-01T20:06:44Z</time></trkpt><trkpt lat="46.636602508044135" lon="14.248346134651841"><ele>516.6666666666666</ele><time>2026-05-01T20:06:45Z</time></trkpt><trkpt lat="46.636480376704746" lon="14.248106013008531"><ele>508.3333333333333</ele><time>2026-05-01T20:06:46Z</time></trkpt><trkpt lat="46.63635513742999" lon="14.24786716686186"><ele>500.0</ele><time>2026-05-01T20:06:47Z</time></trkpt><trkpt lat="46.63622755953149" lon="14.247626086772778"><ele>498.0</ele><time>2026-05-01T20:06:48Z</time></trkpt><trkpt lat="46.63609810213577" lon="14.247380276358895"><ele>496.0</ele><time>2026-05-01T20:06:49Z</time></trkpt><trkpt lat="46.63596791442249" lon="14.247134024389688"><ele>494.0</ele><time>2026-05-01T20:06:50Z</time></trkpt><trkpt lat="46.63583530532943" lon="14.246886502278805"><ele>494.0</ele><time>2026-05-01T20:06:51Z</time></trkpt><trkpt lat="46.63560138116941" lon="14.246546872717703"><ele>494.0</ele><time>2026-05-01T20:06:52Z</time></trkpt><trkpt lat="46.63542749378222" lon="14.2462332785353"><ele>493.3333333333333</ele><time>2026-05-01T20:06:53Z</time></trkpt><trkpt lat="46.635300215992544" lon="14.245990194205193"><ele>492.66666666666663</ele><time>2026-05-01T20:06:54Z</time></trkpt><trkpt lat="46.63516681096283" lon="14.245765314793484"><ele>492.0</ele><time>2026-05-01T20:06:55Z</time></trkpt><trkpt lat="46.63500665522922" lon="14.245520513168708"><ele>489.66666666666663</ele><time>2026-05-01T20:06:56Z</time></trkpt><trkpt lat="46.63485215970783" lon="14.245280115624263"><ele>487.3333333333333</ele><time>2026-05-01T20:06:57Z</time></trkpt><trkpt lat="46.63470106383754" lon="14.245043245702641"><ele>485.0</ele><time>2026-05-01T20:06:58Z</time></trkpt><trkpt lat="46.63455016598998" lon="14.24480657912335"><ele>485.0</ele><time>2026-05-01T20:06:59Z</time></trkpt><trkpt lat="46.634398837810174" lon="14.244568831416537"><ele>485.0</ele><time>2026-05-01T20:07:00Z</time></trkpt><trkpt lat="46.634245679335734" lon="14.244329911268819"><ele>485.0</ele><time>2026-05-01T20:07:01Z</time></trkpt><trkpt lat="46.634092531439805" lon="14.244090170371338"><ele>483.5</ele><time>2026-05-01T20:07:02Z</time></trkpt><trkpt lat="46.63393719359172" lon="14.24385023590991"><ele>482.0</ele><time>2026-05-01T20:07:03Z</time></trkpt><trkpt lat="46.6337960136367" lon="14.243587828822482"><ele>482.0</ele><time>2026-05-01T20:07:04Z</time></trkpt><trkpt lat="46.63363949699813" lon="14.243348674948463"><ele>482.0</ele><time>2026-05-01T20:07:05Z</time></trkpt><trkpt lat="46.63348342870432" lon="14.24310946846517"><ele>481.66666666666663</ele><time>2026-05-01T20:07:06Z</time></trkpt><trkpt lat="46.63332676899284" lon="14.242873346370141"><ele>481.33333333333337</ele><time>2026-05-01T20:07:07Z</time></trkpt><trkpt lat="46.63317101748529" lon="14.242641555901965"><ele>481.0</ele><time>2026-05-01T20:07:08Z</time></trkpt><trkpt lat="46.63301746871834" lon="14.242412352786978"><ele>481.0</ele><time>2026-05-01T20:07:09Z</time></trkpt><trkpt lat="46.632866487752466" lon="14.242183853323542"><ele>481.0</ele><time>2026-05-01T20:07:10Z</time></trkpt><trkpt lat="46.63271446987803" lon="14.241953740272661"><ele>481.0</ele><time>2026-05-01T20:07:11Z</time></trkpt><trkpt lat="46.632562483512125" lon="14.24172158730866"><ele>480.0</ele><time>2026-05-01T20:07:12Z</time></trkpt><trkpt lat="46.63241133928597" lon="14.241490851601968"><ele>479.0</ele><time>2026-05-01T20:07:13Z</time></trkpt><trkpt lat="46.63226051966432" lon="14.241261489252793"><ele>478.0</ele><time>2026-05-01T20:07:14Z</time></trkpt><trkpt lat="46.63211257013228" lon="14.241033287396263"><ele>477.33333333333337</ele><time>2026-05-01T20:07:15Z</time></trkpt><trkpt lat="46.63196486738742" lon="14.240805016355932"><ele>476.66666666666663</ele><time>2026-05-01T20:07:16Z</time></trkpt><trkpt lat="46.631820484680404" lon="14.240575843556055"><ele>476.0</ele><time>2026-05-01T20:07:17Z</time></trkpt><trkpt lat="46.63167917663997" lon="14.240340071973197"><ele>475.0</ele><time>2026-05-01T20:07:18Z</time></trkpt><trkpt lat="46.631558441257496" lon="14.240088874117447"><ele>474.0</ele><time>2026-05-01T20:07:19Z</time></trkpt><trkpt lat="46.6314493775952" lon="14.239827045427285"><ele>473.0</ele><time>2026-05-01T20:07:20Z</time></trkpt><trkpt lat="46.63135144165281" lon="14.239556326294972"><ele>473.0</ele><time>2026-05-01T20:07:21Z</time></trkpt><trkpt lat="46.631267936865136" lon="14.239274826348444"><ele>473.0</ele><time>2026-05-01T20:07:22Z</time></trkpt><trkpt lat="46.63120457126925" lon="14.238984609748421"><ele>473.0</ele><time>2026-05-01T20:07:23Z</time></trkpt><trkpt lat="46.63115362512512" lon="14.2386916143662"><ele>472.66666666666663</ele><time>2026-05-01T20:07:24Z</time></trkpt><trkpt lat="46.63111859694861" lon="14.238389088587411"><ele>472.33333333333337</ele><time>2026-05-01T20:07:25Z</time></trkpt><trkpt lat="46.631100998308895" lon="14.23808820576614"><ele>472.0</ele><time>2026-05-01T20:07:26Z</time></trkpt><trkpt lat="46.63109771143378" lon="14.237782580633763"><ele>473.0</ele><time>2026-05-01T20:07:27Z</time></trkpt><trkpt lat="46.6311030319692" lon="14.23747750751466"><ele>474.0</ele><time>2026-05-01T20:07:28Z</time></trkpt><trkpt lat="46.63111431977326" lon="14.23717132326669"><ele>475.0</ele><time>2026-05-01T20:07:29Z</time></trkpt><trkpt lat="46.63112199742586" lon="14.236866068941442"><ele>476.0</ele><time>2026-05-01T20:07:30Z</time></trkpt><trkpt lat="46.63113034317281" lon="14.23655509781169"><ele>477.0</ele><time>2026-05-01T20:07:31Z</time></trkpt><trkpt lat="46.63113859789566" lon="14.236244928328702"><ele>478.0</ele><time>2026-05-01T20:07:32Z</time></trkpt><trkpt lat="46.6311456646121" lon="14.235947972421878"><ele>479.6666666666667</ele><time>2026-05-01T20:07:33Z</time></trkpt><trkpt lat="46.63115022199152" lon="14.235636330161222"><ele>481.33333333333337</ele><time>2026-05-01T20:07:34Z</time></trkpt><trkpt lat="46.631148061519205" lon="14.235317973531865"><ele>483.0</ele><time>2026-05-01T20:07:35Z</time></trkpt><trkpt lat="46.63113615834245" lon="14.234992685641659"><ele>482.0</ele><time>2026-05-01T20:07:36Z</time></trkpt><trkpt lat="46.631124862768274" lon="14.234658546631893"><ele>481.0</ele><time>2026-05-01T20:07:37Z</time></trkpt><trkpt lat="46.63110738140935" lon="14.234331746107232"><ele>481.0</ele><time>2026-05-01T20:07:38Z</time></trkpt><trkpt lat="46.63108544110473" lon="14.23400366517693"><ele>481.0</ele><time>2026-05-01T20:07:39Z</time></trkpt><trkpt lat="46.63106161071772" lon="14.233672065676904"><ele>482.5</ele><time>2026-05-01T20:07:40Z</time></trkpt><trkpt lat="46.6310289949843" lon="14.23334415980125"><ele>484.0</ele><time>2026-05-01T20:07:41Z</time></trkpt><trkpt lat="46.630985492968584" lon="14.23301707854195"><ele>484.0</ele><time>2026-05-01T20:07:42Z</time></trkpt><trkpt lat="46.63093127399424" lon="14.232692527318294"><ele>484.0</ele><time>2026-05-01T20:07:43Z</time></trkpt><trkpt lat="46.630870838259526" lon="14.23237077835306"><ele>489.0</ele><time>2026-05-01T20:07:44Z</time></trkpt><trkpt lat="46.63080706129762" lon="14.232054196905228"><ele>494.0</ele><time>2026-05-01T20:07:45Z</time></trkpt><trkpt lat="46.63074040461414" lon="14.231740523111627"><ele>501.5</ele><time>2026-05-01T20:07:46Z</time></trkpt><trkpt lat="46.63066786893247" lon="14.23142995536835"><ele>509.0</ele><time>2026-05-01T20:07:47Z</time></trkpt><trkpt lat="46.630587408257774" lon="14.231124529339015"><ele>509.0</ele><time>2026-05-01T20:07:48Z</time></trkpt><trkpt lat="46.6304991204057" lon="14.230826095311203"><ele>509.0</ele><time>2026-05-01T20:07:49Z</time></trkpt><trkpt lat="46.63040604791453" lon="14.230530346534074"><ele>509.0</ele><time>2026-05-01T20:07:50Z</time></trkpt><trkpt lat="46.630310076842655" lon="14.230238418095636"><ele>508.5</ele><time>2026-05-01T20:07:51Z</time></trkpt><trkpt lat="46.630210918803414" lon="14.22994628419834"><ele>508.0</ele><time>2026-05-01T20:07:52Z</time></trkpt><trkpt lat="46.630112237560596" lon="14.229649292771565"><ele>508.0</ele><time>2026-05-01T20:07:53Z</time></trkpt><trkpt lat="46.630013707192425" lon="14.229353492347414"><ele>508.0</ele><time>2026-05-01T20:07:54Z</time></trkpt><trkpt lat="46.6299131580095" lon="14.22905374944878"><ele>512.5</ele><time>2026-05-01T20:07:55Z</time></trkpt><trkpt lat="46.629813205007196" lon="14.228749468959528"><ele>517.0</ele><time>2026-05-01T20:07:56Z</time></trkpt><trkpt lat="46.62970756280541" lon="14.228432995652659"><ele>521.0</ele><time>2026-05-01T20:07:57Z</time></trkpt><trkpt lat="46.62960533162392" lon="14.228106670346826"><ele>525.0</ele><time>2026-05-01T20:07:58Z</time></trkpt><trkpt lat="46.62950734596025" lon="14.227770995041633"><ele>515.0</ele><time>2026-05-01T20:07:59Z</time></trkpt><trkpt lat="46.62941898405188" lon="14.2274207161389"><ele>505.0</ele><time>2026-05-01T20:08:00Z</time></trkpt><trkpt lat="46.62933443480451" lon="14.227060587112861"><ele>505.0</ele><time>2026-05-01T20:08:01Z</time></trkpt><trkpt lat="46.62925568384037" lon="14.226691199815084"><ele>505.0</ele><time>2026-05-01T20:08:02Z</time></trkpt><trkpt lat="46.62918064203296" lon="14.22631981271479"><ele>507.5</ele><time>2026-05-01T20:08:03Z</time></trkpt><trkpt lat="46.62911367166495" lon="14.225944002584018"><ele>510.0</ele><time>2026-05-01T20:08:04Z</time></trkpt><trkpt lat="46.62905715380707" lon="14.225564684008733"><ele>510.0</ele><time>2026-05-01T20:08:05Z</time></trkpt><trkpt lat="46.62900742066289" lon="14.225183980338597"><ele>510.0</ele><time>2026-05-01T20:08:06Z</time></trkpt><trkpt lat="46.62896666089052" lon="14.224806193369206"><ele>510.5</ele><time>2026-05-01T20:08:07Z</time></trkpt><trkpt lat="46.62893321337162" lon="14.224425152071854"><ele>511.0</ele><time>2026-05-01T20:08:08Z</time></trkpt><trkpt lat="46.62890622703845" lon="14.224043322158897"><ele>511.0</ele><time>2026-05-01T20:08:09Z</time></trkpt><trkpt lat="46.628885432345044" lon="14.22365925841217"><ele>511.0</ele><time>2026-05-01T20:08:10Z</time></trkpt><trkpt lat="46.62887487848042" lon="14.223279932831119"><ele>507.5</ele><time>2026-05-01T20:08:11Z</time></trkpt><trkpt lat="46.628872546582826" lon="14.222897868959908"><ele>504.0</ele><time>2026-05-01T20:08:12Z</time></trkpt><trkpt lat="46.62887857955915" lon="14.222518837648748"><ele>505.0</ele><time>2026-05-01T20:08:13Z</time></trkpt><trkpt lat="46.62889050702818" lon="14.222137361380122"><ele>506.0</ele><time>2026-05-01T20:08:14Z</time></trkpt><trkpt lat="46.628909591958326" lon="14.221756859430824"><ele>507.0</ele><time>2026-05-01T20:08:15Z</time></trkpt><trkpt lat="46.628935673798146" lon="14.22139863494111"><ele>508.0</ele><time>2026-05-01T20:08:16Z</time></trkpt><trkpt lat="46.62896577322003" lon="14.221056235666897"><ele>508.0</ele><time>2026-05-01T20:08:17Z</time></trkpt><trkpt lat="46.62900328743743" lon="14.220724840981868"><ele>508.0</ele><time>2026-05-01T20:08:18Z</time></trkpt><trkpt lat="46.62904650522386" lon="14.220401846827707"><ele>507.6666666666667</ele><time>2026-05-01T20:08:19Z</time></trkpt><trkpt lat="46.62909681444644" lon="14.220083183352505"><ele>507.33333333333337</ele><time>2026-05-01T20:08:20Z</time></trkpt><trkpt lat="46.62915154717904" lon="14.219769842917001"><ele>507.0</ele><time>2026-05-01T20:08:21Z</time></trkpt><trkpt lat="46.62920940480914" lon="14.219457543682436"><ele>507.0</ele><time>2026-05-01T20:08:22Z</time></trkpt><trkpt lat="46.62927030452203" lon="14.219151085755684"><ele>507.0</ele><time>2026-05-01T20:08:23Z</time></trkpt><trkpt lat="46.629337144735636" lon="14.218846013341905"><ele>507.0</ele><time>2026-05-01T20:08:24Z</time></trkpt><trkpt lat="46.62940867044867" lon="14.218544231534503"><ele>511.66666666666663</ele><time>2026-05-01T20:08:25Z</time></trkpt><trkpt lat="46.62948504838769" lon="14.218244647499105"><ele>516.3333333333333</ele><time>2026-05-01T20:08:26Z</time></trkpt><trkpt lat="46.629565658306205" lon="14.217947972482014"><ele>521.0</ele><time>2026-05-01T20:08:27Z</time></trkpt><trkpt lat="46.62965247977742" lon="14.217656458268761"><ele>521.0</ele><time>2026-05-01T20:08:28Z</time></trkpt><trkpt lat="46.62974654989399" lon="14.217373425931118"><ele>521.0</ele><time>2026-05-01T20:08:29Z</time></trkpt><trkpt lat="46.62984600938926" lon="14.217097911548912"><ele>521.0</ele><time>2026-05-01T20:08:30Z</time></trkpt><trkpt lat="46.62994735246884" lon="14.216819166525186"><ele>519.6666666666666</ele><time>2026-05-01T20:08:31Z</time></trkpt><trkpt lat="46.63005403829559" lon="14.216537313006466"><ele>518.3333333333334</ele><time>2026-05-01T20:08:32Z</time></trkpt><trkpt lat="46.63016286811303" lon="14.216254797431175"><ele>517.0</ele><time>2026-05-01T20:08:33Z</time></trkpt><trkpt lat="46.63027510005612" lon="14.215977661519386"><ele>519.3333333333334</ele><time>2026-05-01T20:08:34Z</time></trkpt><trkpt lat="46.63038805012655" lon="14.215699978064508"><ele>521.6666666666666</ele><time>2026-05-01T20:08:35Z</time></trkpt><trkpt lat="46.63049868747869" lon="14.215424580385614"><ele>524.0</ele><time>2026-05-01T20:08:36Z</time></trkpt><trkpt lat="46.630613149922866" lon="14.215148646600081"><ele>524.0</ele><time>2026-05-01T20:08:37Z</time></trkpt><trkpt lat="46.63072972649641" lon="14.214870707480852"><ele>524.0</ele><time>2026-05-01T20:08:38Z</time></trkpt><trkpt lat="46.630846406047425" lon="14.21459045405946"><ele>524.0</ele><time>2026-05-01T20:08:39Z</time></trkpt><trkpt lat="46.630959998443565" lon="14.214303193968151"><ele>520.0</ele><time>2026-05-01T20:08:40Z</time></trkpt><trkpt lat="46.63106783315514" lon="14.21401079987307"><ele>516.0</ele><time>2026-05-01T20:08:41Z</time></trkpt><trkpt lat="46.63117442903362" lon="14.213712801614871"><ele>521.0</ele><time>2026-05-01T20:08:42Z</time></trkpt><trkpt lat="46.631279886809054" lon="14.213408797908519"><ele>526.0</ele><time>2026-05-01T20:08:43Z</time></trkpt><trkpt lat="46.63138208021082" lon="14.213101700779909"><ele>526.0</ele><time>2026-05-01T20:08:44Z</time></trkpt><trkpt lat="46.63147904342057" lon="14.212787375638793"><ele>526.0</ele><time>2026-05-01T20:08:45Z</time></trkpt><trkpt lat="46.63156798701388" lon="14.21246513717403"><ele>521.0</ele><time>2026-05-01T20:08:46Z</time></trkpt><trkpt lat="46.63164543743077" lon="14.212140153401947"><ele>516.0</ele><time>2026-05-01T20:08:47Z</time></trkpt><trkpt lat="46.63171773969621" lon="14.211803915471176"><ele>513.0</ele><time>2026-05-01T20:08:48Z</time></trkpt><trkpt lat="46.631780009797325" lon="14.211469352580176"><ele>510.0</ele><time>2026-05-01T20:08:49Z</time></trkpt><trkpt lat="46.63183730005104" lon="14.211137199172397"><ele>510.0</ele><time>2026-05-01T20:08:50Z</time></trkpt><trkpt lat="46.63188473014503" lon="14.210812661702757"><ele>510.0</ele><time>2026-05-01T20:08:51Z</time></trkpt><trkpt lat="46.6319242652233" lon="14.210479399934895"><ele>506.5</ele><time>2026-05-01T20:08:52Z</time></trkpt><trkpt lat="46.631958649135086" lon="14.21013886715894"><ele>503.0</ele><time>2026-05-01T20:08:53Z</time></trkpt><trkpt lat="46.63198670200946" lon="14.209795050306585"><ele>512.0</ele><time>2026-05-01T20:08:54Z</time></trkpt><trkpt lat="46.63200681744307" lon="14.209449649133509"><ele>521.0</ele><time>2026-05-01T20:08:55Z</time></trkpt><trkpt lat="46.63202018375857" lon="14.209104744386197"><ele>522.5</ele><time>2026-05-01T20:08:56Z</time></trkpt><trkpt lat="46.632023896136516" lon="14.208764983912454"><ele>524.0</ele><time>2026-05-01T20:08:57Z</time></trkpt><trkpt lat="46.632018962299696" lon="14.208420779710652"><ele>525.0</ele><time>2026-05-01T20:08:58Z</time></trkpt><trkpt lat="46.632007577815905" lon="14.20808155905345"><ele>526.0</ele><time>2026-05-01T20:08:59Z</time></trkpt><trkpt lat="46.63198776173575" lon="14.207740774775488"><ele>518.0</ele><time>2026-05-01T20:09:00Z</time></trkpt><trkpt lat="46.631960998775185" lon="14.207399599848026"><ele>510.0</ele><time>2026-05-01T20:09:01Z</time></trkpt><trkpt lat="46.631927703530415" lon="14.207063101693477"><ele>510.0</ele><time>2026-05-01T20:09:02Z</time></trkpt><trkpt lat="46.6318846556591" lon="14.206725777385893"><ele>510.0</ele><time>2026-05-01T20:09:03Z</time></trkpt><trkpt lat="46.63183460750393" lon="14.206394013996313"><ele>509.0</ele><time>2026-05-01T20:09:04Z</time></trkpt><trkpt lat="46.631779338394644" lon="14.206059715299533"><ele>508.0</ele><time>2026-05-01T20:09:05Z</time></trkpt><trkpt lat="46.63171674232699" lon="14.20572945961752"><ele>506.0</ele><time>2026-05-01T20:09:06Z</time></trkpt><trkpt lat="46.63164545953385" lon="14.205404273681358"><ele>504.0</ele><time>2026-05-01T20:09:07Z</time></trkpt><trkpt lat="46.63156805260467" lon="14.205085498999157"><ele>500.0</ele><time>2026-05-01T20:09:08Z</time></trkpt><trkpt lat="46.631484190752005" lon="14.204768877903932"><ele>496.0</ele><time>2026-05-01T20:09:09Z</time></trkpt><trkpt lat="46.631392235180684" lon="14.204457181856618"><ele>496.0</ele><time>2026-05-01T20:09:10Z</time></trkpt><trkpt lat="46.63129340517777" lon="14.20414663218035"><ele>496.0</ele><time>2026-05-01T20:09:11Z</time></trkpt><trkpt lat="46.63118916877711" lon="14.203843968226547"><ele>497.0</ele><time>2026-05-01T20:09:12Z</time></trkpt><trkpt lat="46.63107718722448" lon="14.203546735931447"><ele>498.0</ele><time>2026-05-01T20:09:13Z</time></trkpt><trkpt lat="46.63095773765604" lon="14.203252499207174"><ele>502.5</ele><time>2026-05-01T20:09:14Z</time></trkpt><trkpt lat="46.63083260429164" lon="14.20296544331271"><ele>507.0</ele><time>2026-05-01T20:09:15Z</time></trkpt><trkpt lat="46.63070111162212" lon="14.202682318577137"><ele>507.0</ele><time>2026-05-01T20:09:16Z</time></trkpt><trkpt lat="46.63056417362414" lon="14.202405338777766"><ele>507.0</ele><time>2026-05-01T20:09:17Z</time></trkpt><trkpt lat="46.63042215484567" lon="14.202129773538003"><ele>506.5</ele><time>2026-05-01T20:09:18Z</time></trkpt><trkpt lat="46.630278254357044" lon="14.201859159673393"><ele>506.0</ele><time>2026-05-01T20:09:19Z</time></trkpt><trkpt lat="46.630131074232885" lon="14.20159083849454"><ele>508.5</ele><time>2026-05-01T20:09:20Z</time></trkpt><trkpt lat="46.62997947280189" lon="14.20132600320561"><ele>511.0</ele><time>2026-05-01T20:09:21Z</time></trkpt><trkpt lat="46.62982420138517" lon="14.201058476816593"><ele>511.0</ele><time>2026-05-01T20:09:22Z</time></trkpt><trkpt lat="46.62966865539946" lon="14.200791122868486"><ele>511.0</ele><time>2026-05-01T20:09:23Z</time></trkpt><trkpt lat="46.62951504327255" lon="14.200525177711707"><ele>513.5</ele><time>2026-05-01T20:09:24Z</time></trkpt><trkpt lat="46.629360586441074" lon="14.200259147277281"><ele>516.0</ele><time>2026-05-01T20:09:25Z</time></trkpt><trkpt lat="46.629209018881475" lon="14.199990198770834"><ele>517.5</ele><time>2026-05-01T20:09:26Z</time></trkpt><trkpt lat="46.62905560685121" lon="14.19972256879006"><ele>519.0</ele><time>2026-05-01T20:09:27Z</time></trkpt><trkpt lat="46.62890260402543" lon="14.199457117530443"><ele>519.0</ele><time>2026-05-01T20:09:28Z</time></trkpt><trkpt lat="46.628750449143645" lon="14.199188117988017"><ele>519.0</ele><time>2026-05-01T20:09:29Z</time></trkpt><trkpt lat="46.62860172006257" lon="14.198923333614541"><ele>521.0</ele><time>2026-05-01T20:09:30Z</time></trkpt><trkpt lat="46.62845389120751" lon="14.198656151222863"><ele>523.0</ele><time>2026-05-01T20:09:31Z</time></trkpt><trkpt lat="46.6283143254167" lon="14.198383621941943"><ele>527.0</ele><time>2026-05-01T20:09:32Z</time></trkpt><trkpt lat="46.62817882352861" lon="14.198107611200053"><ele>531.0</ele><time>2026-05-01T20:09:33Z</time></trkpt><trkpt lat="46.62804322392564" lon="14.197829031380918"><ele>531.0</ele><time>2026-05-01T20:09:34Z</time></trkpt><trkpt lat="46.62791348834912" lon="14.197543450122387"><ele>531.0</ele><time>2026-05-01T20:09:35Z</time></trkpt><trkpt lat="46.62778931882709" lon="14.19724836694195"><ele>528.0</ele><time>2026-05-01T20:09:36Z</time></trkpt><trkpt lat="46.627673314148495" lon="14.196948531329177"><ele>525.0</ele><time>2026-05-01T20:09:37Z</time></trkpt><trkpt lat="46.62756537920815" lon="14.196642755128082"><ele>527.5</ele><time>2026-05-01T20:09:38Z</time></trkpt><trkpt lat="46.62746574196926" lon="14.196328717428822"><ele>530.0</ele><time>2026-05-01T20:09:39Z</time></trkpt><trkpt lat="46.62737513290893" lon="14.196010696808639"><ele>530.0</ele><time>2026-05-01T20:09:40Z</time></trkpt><trkpt lat="46.627292750881466" lon="14.195687138316602"><ele>530.0</ele><time>2026-05-01T20:09:41Z</time></trkpt><trkpt lat="46.627219090456265" lon="14.195362565522814"><ele>535.0</ele><time>2026-05-01T20:09:42Z</time></trkpt><trkpt lat="46.62715212345794" lon="14.195029128345084"><ele>540.0</ele><time>2026-05-01T20:09:43Z</time></trkpt><trkpt lat="46.62709657949482" lon="14.19469723563136"><ele>544.0</ele><time>2026-05-01T20:09:44Z</time></trkpt><trkpt lat="46.62705085424609" lon="14.194364458056263"><ele>548.0</ele><time>2026-05-01T20:09:45Z</time></trkpt><trkpt lat="46.627011307069345" lon="14.194027552338227"><ele>550.0</ele><time>2026-05-01T20:09:46Z</time></trkpt><trkpt lat="46.62698220508203" lon="14.193695051614961"><ele>552.0</ele><time>2026-05-01T20:09:47Z</time></trkpt><trkpt lat="46.62696147153836" lon="14.193357610556074"><ele>540.0</ele><time>2026-05-01T20:09:48Z</time></trkpt><trkpt lat="46.62694696899787" lon="14.193021918957799"><ele>528.0</ele><time>2026-05-01T20:09:49Z</time></trkpt><trkpt lat="46.62694096143853" lon="14.192685293031543"><ele>528.0</ele><time>2026-05-01T20:09:50Z</time></trkpt><trkpt lat="46.62694539143466" lon="14.19234866567411"><ele>528.0</ele><time>2026-05-01T20:09:51Z</time></trkpt><trkpt lat="46.62695690731591" lon="14.19201111126525"><ele>534.0</ele><time>2026-05-01T20:09:52Z</time></trkpt><trkpt lat="46.626977999900134" lon="14.191675869763214"><ele>540.0</ele><time>2026-05-01T20:09:53Z</time></trkpt><trkpt lat="46.62700483336045" lon="14.191341926005943"><ele>540.0</ele><time>2026-05-01T20:09:54Z</time></trkpt><trkpt lat="46.627040837523616" lon="14.191011213547819"><ele>540.0</ele><time>2026-05-01T20:09:55Z</time></trkpt><trkpt lat="46.627083051631836" lon="14.190679362524616"><ele>538.0</ele><time>2026-05-01T20:09:56Z</time></trkpt><trkpt lat="46.627132320755074" lon="14.19034912180689"><ele>536.0</ele><time>2026-05-01T20:09:57Z</time></trkpt><trkpt lat="46.62718834764799" lon="14.190025376060792"><ele>532.5</ele><time>2026-05-01T20:09:58Z</time></trkpt><trkpt lat="46.627251886113086" lon="14.189702875652678"><ele>529.0</ele><time>2026-05-01T20:09:59Z</time></trkpt><trkpt lat="46.627322741528374" lon="14.189381618447145"><ele>529.0</ele><time>2026-05-01T20:10:00Z</time></trkpt><trkpt lat="46.62739829889186" lon="14.189060874665397"><ele>529.0</ele><time>2026-05-01T20:10:01Z</time></trkpt><trkpt lat="46.627478058581545" lon="14.188743718378145"><ele>524.5</ele><time>2026-05-01T20:10:02Z</time></trkpt><trkpt lat="46.627560714893185" lon="14.188428382638218"><ele>520.0</ele><time>2026-05-01T20:10:03Z</time></trkpt><trkpt lat="46.62765127742093" lon="14.188117698107597"><ele>518.5</ele><time>2026-05-01T20:10:04Z</time></trkpt><trkpt lat="46.62774524481773" lon="14.18780713683165"><ele>517.0</ele><time>2026-05-01T20:10:05Z</time></trkpt><trkpt lat="46.627841996584806" lon="14.187497909112613"><ele>526.0</ele><time>2026-05-01T20:10:06Z</time></trkpt><trkpt lat="46.627941734551925" lon="14.187195769949371"><ele>535.0</ele><time>2026-05-01T20:10:07Z</time></trkpt><trkpt lat="46.62804791182008" lon="14.186895948228846"><ele>535.0</ele><time>2026-05-01T20:10:08Z</time></trkpt><trkpt lat="46.6281569989409" lon="14.186602215768461"><ele>535.0</ele><time>2026-05-01T20:10:09Z</time></trkpt><trkpt lat="46.62826765870685" lon="14.18630994045989"><ele>530.0</ele><time>2026-05-01T20:10:10Z</time></trkpt><trkpt lat="46.628382496144475" lon="14.18601941418912"><ele>525.0</ele><time>2026-05-01T20:10:11Z</time></trkpt><trkpt lat="46.62850068843881" lon="14.185731414199717"><ele>521.0</ele><time>2026-05-01T20:10:12Z</time></trkpt><trkpt lat="46.62862102769374" lon="14.185446805825507"><ele>517.0</ele><time>2026-05-01T20:10:13Z</time></trkpt><trkpt lat="46.62874540111408" lon="14.185163846671763"><ele>519.5</ele><time>2026-05-01T20:10:14Z</time></trkpt><trkpt lat="46.628871752583755" lon="14.18487912288691"><ele>522.0</ele><time>2026-05-01T20:10:15Z</time></trkpt><trkpt lat="46.62899894333165" lon="14.184599011109544"><ele>522.0</ele><time>2026-05-01T20:10:16Z</time></trkpt><trkpt lat="46.62912472649097" lon="14.184325177764737"><ele>522.0</ele><time>2026-05-01T20:10:17Z</time></trkpt><trkpt lat="46.629255468899025" lon="14.184051982873427"><ele>519.6666666666666</ele><time>2026-05-01T20:10:18Z</time></trkpt><trkpt lat="46.62938398239614" lon="14.18378289467952"><ele>517.3333333333333</ele><time>2026-05-01T20:10:19Z</time></trkpt><trkpt lat="46.62950960371986" lon="14.18351800746534"><ele>515.0</ele><time>2026-05-01T20:10:20Z</time></trkpt><trkpt lat="46.62963259909864" lon="14.183265765812264"><ele>517.3333333333333</ele><time>2026-05-01T20:10:21Z</time></trkpt><trkpt lat="46.6297583215131" lon="14.183009194544692"><ele>519.6666666666666</ele><time>2026-05-01T20:10:22Z</time></trkpt><trkpt lat="46.62988593990612" lon="14.182748780260171"><ele>522.0</ele><time>2026-05-01T20:10:23Z</time></trkpt><trkpt lat="46.63001629986852" lon="14.182483909705047"><ele>518.0</ele><time>2026-05-01T20:10:24Z</time></trkpt><trkpt lat="46.63015025805553" lon="14.182220403328033"><ele>514.0</ele><time>2026-05-01T20:10:25Z</time></trkpt><trkpt lat="46.63028414800605" lon="14.181958186061213"><ele>518.5</ele><time>2026-05-01T20:10:26Z</time></trkpt><trkpt lat="46.63041772625076" lon="14.181694998461596"><ele>523.0</ele><time>2026-05-01T20:10:27Z</time></trkpt><trkpt lat="46.63055263169157" lon="14.181426622824507"><ele>523.0</ele><time>2026-05-01T20:10:28Z</time></trkpt><trkpt lat="46.63068861171643" lon="14.181158058324568"><ele>523.0</ele><time>2026-05-01T20:10:29Z</time></trkpt><trkpt lat="46.63082167177981" lon="14.180885714082871"><ele>521.5</ele><time>2026-05-01T20:10:30Z</time></trkpt><trkpt lat="46.63095629803741" lon="14.180613214550647"><ele>520.0</ele><time>2026-05-01T20:10:31Z</time></trkpt><trkpt lat="46.63109126548033" lon="14.180340073647999"><ele>521.0</ele><time>2026-05-01T20:10:32Z</time></trkpt><trkpt lat="46.63122785227446" lon="14.180064032778898"><ele>522.0</ele><time>2026-05-01T20:10:33Z</time></trkpt><trkpt lat="46.63136480215922" lon="14.179787448316787"><ele>522.0</ele><time>2026-05-01T20:10:34Z</time></trkpt><trkpt lat="46.631500611561094" lon="14.179513735732371"><ele>522.0</ele><time>2026-05-01T20:10:35Z</time></trkpt><trkpt lat="46.63163366775984" lon="14.179241516763117"><ele>516.5</ele><time>2026-05-01T20:10:36Z</time></trkpt><trkpt lat="46.63176715606352" lon="14.178968875277905"><ele>511.0</ele><time>2026-05-01T20:10:37Z</time></trkpt><trkpt lat="46.63190076414081" lon="14.178701922162892"><ele>514.0</ele><time>2026-05-01T20:10:38Z</time></trkpt><trkpt lat="46.63203252559948" lon="14.178433601545917"><ele>517.0</ele><time>2026-05-01T20:10:39Z</time></trkpt><trkpt lat="46.63216010277635" lon="14.178164240297408"><ele>513.0</ele><time>2026-05-01T20:10:40Z</time></trkpt><trkpt lat="46.632284263997626" lon="14.177892147598854"><ele>509.0</ele><time>2026-05-01T20:10:41Z</time></trkpt><trkpt lat="46.63240133367242" lon="14.177613764065066"><ele>505.0</ele><time>2026-05-01T20:10:42Z</time></trkpt><trkpt lat="46.632514316214944" lon="14.177332594639095"><ele>503.6666666666667</ele><time>2026-05-01T20:10:43Z</time></trkpt><trkpt lat="46.632620289654184" lon="14.177046041484239"><ele>502.33333333333337</ele><time>2026-05-01T20:10:44Z</time></trkpt><trkpt lat="46.632721098775114" lon="14.17675223933773"><ele>501.0</ele><time>2026-05-01T20:10:45Z</time></trkpt><trkpt lat="46.63281350843856" lon="14.176456277492612"><ele>504.66666666666663</ele><time>2026-05-01T20:10:46Z</time></trkpt><trkpt lat="46.63289995529132" lon="14.176157172555804"><ele>508.3333333333333</ele><time>2026-05-01T20:10:47Z</time></trkpt><trkpt lat="46.63298035400836" lon="14.175853701790869"><ele>512.0</ele><time>2026-05-01T20:10:48Z</time></trkpt><trkpt lat="46.63305454342807" lon="14.17554597180973"><ele>513.0</ele><time>2026-05-01T20:10:49Z</time></trkpt><trkpt lat="46.6331172834678" lon="14.175233128267172"><ele>514.0</ele><time>2026-05-01T20:10:50Z</time></trkpt><trkpt lat="46.633173281790484" lon="14.174919113606693"><ele>515.0</ele><time>2026-05-01T20:10:51Z</time></trkpt><trkpt lat="46.63322295022765" lon="14.174600383326815"><ele>516.5</ele><time>2026-05-01T20:10:52Z</time></trkpt><trkpt lat="46.63326298197814" lon="14.174278016600919"><ele>518.0</ele><time>2026-05-01T20:10:53Z</time></trkpt><trkpt lat="46.633296315205754" lon="14.173951194942711"><ele>519.5</ele><time>2026-05-01T20:10:54Z</time></trkpt><trkpt lat="46.63332615694507" lon="14.173622168290077"><ele>521.0</ele><time>2026-05-01T20:10:55Z</time></trkpt><trkpt lat="46.633352848827045" lon="14.173286115130093"><ele>521.5</ele><time>2026-05-01T20:10:56Z</time></trkpt><trkpt lat="46.633380837962086" lon="14.172953325681894"><ele>522.0</ele><time>2026-05-01T20:10:57Z</time></trkpt><trkpt lat="46.633403948063155" lon="14.172617482384798"><ele>521.5</ele><time>2026-05-01T20:10:58Z</time></trkpt><trkpt lat="46.63342366915195" lon="14.172277953529253"><ele>521.0</ele><time>2026-05-01T20:10:59Z</time></trkpt><trkpt lat="46.63344287111486" lon="14.171937559370152"><ele>521.0</ele><time>2026-05-01T20:11:00Z</time></trkpt><trkpt lat="46.63346763635959" lon="14.171592530193129"><ele>521.0</ele><time>2026-05-01T20:11:01Z</time></trkpt><trkpt lat="46.63349971486195" lon="14.171250299569069"><ele>518.0</ele><time>2026-05-01T20:11:02Z</time></trkpt><trkpt lat="46.63353263527751" lon="14.170906467263775"><ele>515.0</ele><time>2026-05-01T20:11:03Z</time></trkpt><trkpt lat="46.63357088658578" lon="14.170559791898974"><ele>514.0</ele><time>2026-05-01T20:11:04Z</time></trkpt><trkpt lat="46.633615120292724" lon="14.170220533272717"><ele>513.0</ele><time>2026-05-01T20:11:05Z</time></trkpt><trkpt lat="46.6336654195239" lon="14.169883059909985"><ele>521.5</ele><time>2026-05-01T20:11:06Z</time></trkpt><trkpt lat="46.63372367256436" lon="14.169543221033528"><ele>530.0</ele><time>2026-05-01T20:11:07Z</time></trkpt><trkpt lat="46.63379018776796" lon="14.169207989671234"><ele>524.5</ele><time>2026-05-01T20:11:08Z</time></trkpt><trkpt lat="46.63386272853081" lon="14.168874898658812"><ele>519.0</ele><time>2026-05-01T20:11:09Z</time></trkpt><trkpt lat="46.63394002361825" lon="14.168547127563745"><ele>519.0</ele><time>2026-05-01T20:11:10Z</time></trkpt><trkpt lat="46.634022747867476" lon="14.168219414857743"><ele>519.0</ele><time>2026-05-01T20:11:11Z</time></trkpt><trkpt lat="46.63410945864429" lon="14.167893749429997"><ele>514.0</ele><time>2026-05-01T20:11:12Z</time></trkpt><trkpt lat="46.634203228700784" lon="14.167569969088111"><ele>509.0</ele><time>2026-05-01T20:11:13Z</time></trkpt><trkpt lat="46.63430075173845" lon="14.167245332019737"><ele>512.0</ele><time>2026-05-01T20:11:14Z</time></trkpt><trkpt lat="46.63440114450642" lon="14.166926492833747"><ele>515.0</ele><time>2026-05-01T20:11:15Z</time></trkpt><trkpt lat="46.63450506351071" lon="14.166608873793047"><ele>512.0</ele><time>2026-05-01T20:11:16Z</time></trkpt><trkpt lat="46.634613793850654" lon="14.166289139347569"><ele>509.0</ele><time>2026-05-01T20:11:17Z</time></trkpt><trkpt lat="46.63472351828156" lon="14.165975047539714"><ele>504.5</ele><time>2026-05-01T20:11:18Z</time></trkpt><trkpt lat="46.63483494374381" lon="14.165668549045604"><ele>500.0</ele><time>2026-05-01T20:11:19Z</time></trkpt><trkpt lat="46.63494395573318" lon="14.165373294199396"><ele>500.0</ele><time>2026-05-01T20:11:20Z</time></trkpt><trkpt lat="46.63505061753068" lon="14.165086142884965"><ele>500.0</ele><time>2026-05-01T20:11:21Z</time></trkpt><trkpt lat="46.63516361725779" lon="14.164795138055666"><ele>495.5</ele><time>2026-05-01T20:11:22Z</time></trkpt><trkpt lat="46.63527842093234" lon="14.164498151001542"><ele>491.0</ele><time>2026-05-01T20:11:23Z</time></trkpt><trkpt lat="46.635396796546324" lon="14.164201361965478"><ele>497.5</ele><time>2026-05-01T20:11:24Z</time></trkpt><trkpt lat="46.63551461672009" lon="14.163900721511709"><ele>504.0</ele><time>2026-05-01T20:11:25Z</time></trkpt><trkpt lat="46.63563150629097" lon="14.163599668297373"><ele>504.0</ele><time>2026-05-01T20:11:26Z</time></trkpt><trkpt lat="46.63574655056846" lon="14.163292626463836"><ele>504.0</ele><time>2026-05-01T20:11:27Z</time></trkpt><trkpt lat="46.635858910996205" lon="14.162983397966345"><ele>496.5</ele><time>2026-05-01T20:11:28Z</time></trkpt><trkpt lat="46.63597067671154" lon="14.162675524756866"><ele>489.0</ele><time>2026-05-01T20:11:29Z</time></trkpt><trkpt lat="46.636088190019706" lon="14.16237374025061"><ele>491.5</ele><time>2026-05-01T20:11:30Z</time></trkpt><trkpt lat="46.63619917726837" lon="14.162069619106392"><ele>494.0</ele><time>2026-05-01T20:11:31Z</time></trkpt><trkpt lat="46.636312387803734" lon="14.161764128171896"><ele>489.5</ele><time>2026-05-01T20:11:32Z</time></trkpt><trkpt lat="46.636426530668984" lon="14.161454685135762"><ele>485.0</ele><time>2026-05-01T20:11:33Z</time></trkpt><trkpt lat="46.63654423863985" lon="14.161145872830248"><ele>485.0</ele><time>2026-05-01T20:11:34Z</time></trkpt><trkpt lat="46.636658762097525" lon="14.160837314747132"><ele>485.0</ele><time>2026-05-01T20:11:35Z</time></trkpt><trkpt lat="46.63677462488464" lon="14.160530549230023"><ele>485.5</ele><time>2026-05-01T20:11:36Z</time></trkpt><trkpt lat="46.636890936600196" lon="14.160219676483177"><ele>486.0</ele><time>2026-05-01T20:11:37Z</time></trkpt><trkpt lat="46.63700501620433" lon="14.159914426221714"><ele>485.0</ele><time>2026-05-01T20:11:38Z</time></trkpt><trkpt lat="46.63712269213181" lon="14.159603891391095"><ele>484.0</ele><time>2026-05-01T20:11:39Z</time></trkpt><trkpt lat="46.63724025089335" lon="14.159292675364878"><ele>483.0</ele><time>2026-05-01T20:11:40Z</time></trkpt><trkpt lat="46.63735824444269" lon="14.158987086657852"><ele>482.0</ele><time>2026-05-01T20:11:41Z</time></trkpt><trkpt lat="46.63747646938546" lon="14.158674720908675"><ele>482.0</ele><time>2026-05-01T20:11:42Z</time></trkpt><trkpt lat="46.637592324968985" lon="14.158362547374413"><ele>482.0</ele><time>2026-05-01T20:11:43Z</time></trkpt><trkpt lat="46.63770368125304" lon="14.158053200721419"><ele>481.5</ele><time>2026-05-01T20:11:44Z</time></trkpt><trkpt lat="46.63781983864463" lon="14.157742019271033"><ele>481.0</ele><time>2026-05-01T20:11:45Z</time></trkpt><trkpt lat="46.63793460007827" lon="14.157439109723427"><ele>480.5</ele><time>2026-05-01T20:11:46Z</time></trkpt><trkpt lat="46.63804815311695" lon="14.157136748816322"><ele>480.0</ele><time>2026-05-01T20:11:47Z</time></trkpt><trkpt lat="46.638160797313994" lon="14.156832743150671"><ele>480.0</ele><time>2026-05-01T20:11:48Z</time></trkpt><trkpt lat="46.63826791167131" lon="14.15653879183042"><ele>480.0</ele><time>2026-05-01T20:11:49Z</time></trkpt><trkpt lat="46.63837067437566" lon="14.15625847734402"><ele>480.0</ele><time>2026-05-01T20:11:50Z</time></trkpt><trkpt lat="46.6384725498655" lon="14.155974318516298"><ele>479.5</ele><time>2026-05-01T20:11:51Z</time></trkpt><trkpt lat="46.63857505677156" lon="14.1556857358949"><ele>479.0</ele><time>2026-05-01T20:11:52Z</time></trkpt><trkpt lat="46.638677108458424" lon="14.155388930016878"><ele>479.0</ele><time>2026-05-01T20:11:53Z</time></trkpt><trkpt lat="46.638777221672505" lon="14.155091310228704"><ele>479.0</ele><time>2026-05-01T20:11:54Z</time></trkpt><trkpt lat="46.63887483173501" lon="14.154789507783816"><ele>478.0</ele><time>2026-05-01T20:11:55Z</time></trkpt><trkpt lat="46.63897134806531" lon="14.154485140703644"><ele>477.0</ele><time>2026-05-01T20:11:56Z</time></trkpt><trkpt lat="46.63906887351971" lon="14.15417659802751"><ele>477.0</ele><time>2026-05-01T20:11:57Z</time></trkpt><trkpt lat="46.63916502957867" lon="14.153868337194101"><ele>477.0</ele><time>2026-05-01T20:11:58Z</time></trkpt><trkpt lat="46.639260392185" lon="14.153556157135892"><ele>477.0</ele><time>2026-05-01T20:11:59Z</time></trkpt><trkpt lat="46.63935381359957" lon="14.153240016587098"><ele>477.0</ele><time>2026-05-01T20:12:00Z</time></trkpt><trkpt lat="46.63944160495113" lon="14.152931185216165"><ele>481.5</ele><time>2026-05-01T20:12:01Z</time></trkpt><trkpt lat="46.639524448433406" lon="14.15261890934163"><ele>486.0</ele><time>2026-05-01T20:12:02Z</time></trkpt><trkpt lat="46.63960352082932" lon="14.15230698285198"><ele>486.0</ele><time>2026-05-01T20:12:03Z</time></trkpt><trkpt lat="46.63967903076011" lon="14.151995395760691"><ele>486.0</ele><time>2026-05-01T20:12:04Z</time></trkpt><trkpt lat="46.639750732779355" lon="14.151681157271012"><ele>484.5</ele><time>2026-05-01T20:12:05Z</time></trkpt><trkpt lat="46.63982136293923" lon="14.151369298806616"><ele>483.0</ele><time>2026-05-01T20:12:06Z</time></trkpt><trkpt lat="46.63989025894797" lon="14.151051215906348"><ele>483.0</ele><time>2026-05-01T20:12:07Z</time></trkpt><trkpt lat="46.639956761225314" lon="14.150736783696065"><ele>483.0</ele><time>2026-05-01T20:12:08Z</time></trkpt><trkpt lat="46.64001757954832" lon="14.150419413963363"><ele>483.0</ele><time>2026-05-01T20:12:09Z</time></trkpt><trkpt lat="46.64007374984373" lon="14.150097846804641"><ele>483.0</ele><time>2026-05-01T20:12:10Z</time></trkpt><trkpt lat="46.640125697516666" lon="14.149772430615162"><ele>483.0</ele><time>2026-05-01T20:12:11Z</time></trkpt><trkpt lat="46.64017360950515" lon="14.149442418347467"><ele>483.0</ele><time>2026-05-01T20:12:12Z</time></trkpt><trkpt lat="46.640217853754244" lon="14.14910971201326"><ele>482.0</ele><time>2026-05-01T20:12:13Z</time></trkpt><trkpt lat="46.64025740313227" lon="14.148771088207356"><ele>481.0</ele><time>2026-05-01T20:12:14Z</time></trkpt><trkpt lat="46.640292490361304" lon="14.14843293489723"><ele>502.5</ele><time>2026-05-01T20:12:15Z</time></trkpt><trkpt lat="46.640322622802955" lon="14.148095653637034"><ele>524.0</ele><time>2026-05-01T20:12:16Z</time></trkpt><trkpt lat="46.640346663189504" lon="14.147757514573938"><ele>524.0</ele><time>2026-05-01T20:12:17Z</time></trkpt><trkpt lat="46.640363494376665" lon="14.147419842990281"><ele>524.0</ele><time>2026-05-01T20:12:18Z</time></trkpt><trkpt lat="46.64037849090006" lon="14.147079653010632"><ele>520.5</ele><time>2026-05-01T20:12:19Z</time></trkpt><trkpt lat="46.64038693455534" lon="14.146747004270289"><ele>517.0</ele><time>2026-05-01T20:12:20Z</time></trkpt><trkpt lat="46.640391634554675" lon="14.146419200164855"><ele>516.0</ele><time>2026-05-01T20:12:21Z</time></trkpt><trkpt lat="46.64038985224398" lon="14.1460983851304"><ele>515.0</ele><time>2026-05-01T20:12:22Z</time></trkpt><trkpt lat="46.64038445165915" lon="14.145782184236175"><ele>514.0</ele><time>2026-05-01T20:12:23Z</time></trkpt><trkpt lat="46.640375052812516" lon="14.145460502184424"><ele>513.0</ele><time>2026-05-01T20:12:24Z</time></trkpt><trkpt lat="46.64036669077754" lon="14.145147479825377"><ele>512.0</ele><time>2026-05-01T20:12:25Z</time></trkpt><trkpt lat="46.640349612769405" lon="14.144825662499944"><ele>511.0</ele><time>2026-05-01T20:12:26Z</time></trkpt><trkpt lat="46.64033508780067" lon="14.144506140150376"><ele>510.6666666666667</ele><time>2026-05-01T20:12:27Z</time></trkpt><trkpt lat="46.640317080310254" lon="14.144184588565787"><ele>510.33333333333337</ele><time>2026-05-01T20:12:28Z</time></trkpt><trkpt lat="46.640301843819245" lon="14.143860730382242"><ele>510.0</ele><time>2026-05-01T20:12:29Z</time></trkpt><trkpt lat="46.64029189724756" lon="14.143538664845389"><ele>496.66666666666663</ele><time>2026-05-01T20:12:30Z</time></trkpt><trkpt lat="46.64028560031008" lon="14.14321519595682"><ele>483.3333333333333</ele><time>2026-05-01T20:12:31Z</time></trkpt><trkpt lat="46.640279886798815" lon="14.142897827925191"><ele>470.0</ele><time>2026-05-01T20:12:32Z</time></trkpt><trkpt lat="46.64027548131956" lon="14.142572559450295"><ele>471.3333333333333</ele><time>2026-05-01T20:12:33Z</time></trkpt><trkpt lat="46.640278019351086" lon="14.142252070519348"><ele>472.66666666666663</ele><time>2026-05-01T20:12:34Z</time></trkpt><trkpt lat="46.640282702071715" lon="14.14193156135061"><ele>474.0</ele><time>2026-05-01T20:12:35Z</time></trkpt><trkpt lat="46.64029361370293" lon="14.141608411243423"><ele>484.66666666666663</ele><time>2026-05-01T20:12:36Z</time></trkpt><trkpt lat="46.64031486653421" lon="14.141287356460154"><ele>495.3333333333333</ele><time>2026-05-01T20:12:37Z</time></trkpt><trkpt lat="46.64034375714721" lon="14.140969752835504"><ele>506.0</ele><time>2026-05-01T20:12:38Z</time></trkpt><trkpt lat="46.640375632562225" lon="14.140654416628042"><ele>506.0</ele><time>2026-05-01T20:12:39Z</time></trkpt><trkpt lat="46.640412872328575" lon="14.140341339933679"><ele>506.0</ele><time>2026-05-01T20:12:40Z</time></trkpt><trkpt lat="46.64045862136802" lon="14.140034834274031"><ele>506.0</ele><time>2026-05-01T20:12:41Z</time></trkpt><trkpt lat="46.640506625048104" lon="14.139733627962505"><ele>501.66666666666663</ele><time>2026-05-01T20:12:42Z</time></trkpt><trkpt lat="46.64056259769972" lon="14.139431141857042"><ele>497.33333333333337</ele><time>2026-05-01T20:12:43Z</time></trkpt><trkpt lat="46.64061607347373" lon="14.139135353074337"><ele>493.0</ele><time>2026-05-01T20:12:44Z</time></trkpt><trkpt lat="46.640671228197334" lon="14.138841781421878"><ele>486.6666666666667</ele><time>2026-05-01T20:12:45Z</time></trkpt><trkpt lat="46.64073278253259" lon="14.138548377454194"><ele>480.33333333333337</ele><time>2026-05-01T20:12:46Z</time></trkpt><trkpt lat="46.640788904542134" lon="14.138251120966771"><ele>474.0</ele><time>2026-05-01T20:12:47Z</time></trkpt><trkpt lat="46.64084376081275" lon="14.137959958795117"><ele>473.66666666666663</ele><time>2026-05-01T20:12:48Z</time></trkpt><trkpt lat="46.64090198928706" lon="14.137659333864125"><ele>473.3333333333333</ele><time>2026-05-01T20:12:49Z</time></trkpt><trkpt lat="46.640956213328394" lon="14.137358436913317"><ele>473.0</ele><time>2026-05-01T20:12:50Z</time></trkpt><trkpt lat="46.6410097233527" lon="14.137058470269816"><ele>474.3333333333333</ele><time>2026-05-01T20:12:51Z</time></trkpt><trkpt lat="46.641059840157894" lon="14.136752486990437"><ele>475.66666666666663</ele><time>2026-05-01T20:12:52Z</time></trkpt><trkpt lat="46.641096380028195" lon="14.136445430206992"><ele>477.0</ele><time>2026-05-01T20:12:53Z</time></trkpt><trkpt lat="46.64112978408137" lon="14.13613659020663"><ele>485.0</ele><time>2026-05-01T20:12:54Z</time></trkpt><trkpt lat="46.64116237041403" lon="14.135818424017058"><ele>493.0</ele><time>2026-05-01T20:12:55Z</time></trkpt><trkpt lat="46.64118906828083" lon="14.135501978593386"><ele>501.0</ele><time>2026-05-01T20:12:56Z</time></trkpt><trkpt lat="46.6412032735148" lon="14.135181666948665"><ele>499.66666666666663</ele><time>2026-05-01T20:12:57Z</time></trkpt><trkpt lat="46.64121136929526" lon="14.134858990510734"><ele>498.3333333333333</ele><time>2026-05-01T20:12:58Z</time></trkpt><trkpt lat="46.64121363725248" lon="14.134535701635961"><ele>497.0</ele><time>2026-05-01T20:12:59Z</time></trkpt><trkpt lat="46.641208159866984" lon="14.134218088888009"><ele>494.0</ele><time>2026-05-01T20:13:00.001Z</time></trkpt><trkpt lat="46.64119487335384" lon="14.133897885473662"><ele>491.0</ele><time>2026-05-01T20:13:01.001Z</time></trkpt><trkpt lat="46.64117547292489" lon="14.133558126752515"><ele>491.0</ele><time>2026-05-01T20:13:02.001Z</time></trkpt><trkpt lat="46.64115124590626" lon="14.133241732427194"><ele>491.0</ele><time>2026-05-01T20:13:03.001Z</time></trkpt><trkpt lat="46.64111966042824" lon="14.132929839637521"><ele>491.0</ele><time>2026-05-01T20:13:04.001Z</time></trkpt><trkpt lat="46.6410903332973" lon="14.132623871370095"><ele>490.3333333333333</ele><time>2026-05-01T20:13:05.001Z</time></trkpt><trkpt lat="46.641050658907524" lon="14.132308582658464"><ele>489.66666666666663</ele><time>2026-05-01T20:13:06.001Z</time></trkpt><trkpt lat="46.64101732370472" lon="14.132005619736919"><ele>489.0</ele><time>2026-05-01T20:13:07.001Z</time></trkpt><trkpt lat="46.64097351555408" lon="14.131702061525084"><ele>490.66666666666663</ele><time>2026-05-01T20:13:08.001Z</time></trkpt><trkpt lat="46.640905476913424" lon="14.131397281505492"><ele>492.3333333333333</ele><time>2026-05-01T20:13:09.001Z</time></trkpt><trkpt lat="46.64083671756622" lon="14.131103645517952"><ele>494.0</ele><time>2026-05-01T20:13:10.001Z</time></trkpt><trkpt lat="46.64075472858612" lon="14.130804922972503"><ele>495.0</ele><time>2026-05-01T20:13:11.001Z</time></trkpt><trkpt lat="46.640672460507545" lon="14.130508846721526"><ele>496.0</ele><time>2026-05-01T20:13:12.001Z</time></trkpt><trkpt lat="46.64058502618359" lon="14.130213772674152"><ele>497.0</ele><time>2026-05-01T20:13:13.001Z</time></trkpt><trkpt lat="46.64049354135834" lon="14.129919962975507"><ele>499.0</ele><time>2026-05-01T20:13:14.001Z</time></trkpt><trkpt lat="46.64039470687064" lon="14.129626730415618"><ele>501.0</ele><time>2026-05-01T20:13:15.001Z</time></trkpt><trkpt lat="46.64029962280727" lon="14.129336165805796"><ele>503.0</ele><time>2026-05-01T20:13:16.001Z</time></trkpt><trkpt lat="46.640199010979366" lon="14.129046425263661"><ele>503.66666666666663</ele><time>2026-05-01T20:13:17.001Z</time></trkpt><trkpt lat="46.640096142196526" lon="14.128754742791145"><ele>504.33333333333337</ele><time>2026-05-01T20:13:18.001Z</time></trkpt><trkpt lat="46.639991424410915" lon="14.128468997436105"><ele>505.0</ele><time>2026-05-01T20:13:19.001Z</time></trkpt><trkpt lat="46.63988643211494" lon="14.128178655955809"><ele>510.0</ele><time>2026-05-01T20:13:20.001Z</time></trkpt><trkpt lat="46.63977978513677" lon="14.127882473628237"><ele>515.0</ele><time>2026-05-01T20:13:21.001Z</time></trkpt><trkpt lat="46.639671306842445" lon="14.127592557932141"><ele>519.0</ele><time>2026-05-01T20:13:22.001Z</time></trkpt><trkpt lat="46.63955819010128" lon="14.127298433200377"><ele>523.0</ele><time>2026-05-01T20:13:23.001Z</time></trkpt><trkpt lat="46.63945180308982" lon="14.12700647316982"><ele>519.3333333333334</ele><time>2026-05-01T20:13:24.001Z</time></trkpt><trkpt lat="46.639349617213895" lon="14.126720409990048"><ele>515.6666666666666</ele><time>2026-05-01T20:13:25.001Z</time></trkpt><trkpt lat="46.63925109913804" lon="14.126447490443477"><ele>512.0</ele><time>2026-05-01T20:13:26.001Z</time></trkpt><trkpt lat="46.63915774218602" lon="14.126175853380433"><ele>512.0</ele><time>2026-05-01T20:13:27.001Z</time></trkpt><trkpt lat="46.63906149926213" lon="14.125881269147452"><ele>512.0</ele><time>2026-05-01T20:13:28.001Z</time></trkpt><trkpt lat="46.63896784225552" lon="14.125597897334602"><ele>512.0</ele><time>2026-05-01T20:13:29.001Z</time></trkpt><trkpt lat="46.6388776670978" lon="14.125301017020112"><ele>515.3333333333333</ele><time>2026-05-01T20:13:30.001Z</time></trkpt><trkpt lat="46.6387912173853" lon="14.12499962433671"><ele>518.6666666666666</ele><time>2026-05-01T20:13:31.001Z</time></trkpt><trkpt lat="46.638716375610095" lon="14.124699295736932"><ele>522.0</ele><time>2026-05-01T20:13:32.001Z</time></trkpt><trkpt lat="46.6386433289476" lon="14.124391816921042"><ele>520.0</ele><time>2026-05-01T20:13:33.001Z</time></trkpt><trkpt lat="46.63857084644529" lon="14.124078527218263"><ele>518.0</ele><time>2026-05-01T20:13:34.001Z</time></trkpt><trkpt lat="46.63850362510083" lon="14.123772015660737"><ele>516.0</ele><time>2026-05-01T20:13:35.001Z</time></trkpt><trkpt lat="46.63843958354391" lon="14.1234565866692"><ele>516.5</ele><time>2026-05-01T20:13:36.001Z</time></trkpt><trkpt lat="46.63838119626463" lon="14.123133510594199"><ele>517.0</ele><time>2026-05-01T20:13:37.001Z</time></trkpt><trkpt lat="46.63833260542791" lon="14.122810177121659"><ele>517.0</ele><time>2026-05-01T20:13:38.001Z</time></trkpt><trkpt lat="46.638288567622496" lon="14.122489955931789"><ele>517.0</ele><time>2026-05-01T20:13:39.001Z</time></trkpt><trkpt lat="46.63825296456885" lon="14.122156864392844"><ele>518.5</ele><time>2026-05-01T20:13:40.001Z</time></trkpt><trkpt lat="46.63822074786189" lon="14.121830283223785"><ele>520.0</ele><time>2026-05-01T20:13:41.001Z</time></trkpt><trkpt lat="46.638193903195265" lon="14.12149404929656"><ele>523.0</ele><time>2026-05-01T20:13:42.001Z</time></trkpt><trkpt lat="46.638166865716165" lon="14.121165063905657"><ele>526.0</ele><time>2026-05-01T20:13:43.001Z</time></trkpt><trkpt lat="46.63814339588993" lon="14.120826328916168"><ele>522.0</ele><time>2026-05-01T20:13:44.001Z</time></trkpt><trkpt lat="46.63811736302846" lon="14.120491860109174"><ele>518.0</ele><time>2026-05-01T20:13:45.001Z</time></trkpt><trkpt lat="46.638093420990245" lon="14.12014659845453"><ele>515.0</ele><time>2026-05-01T20:13:46.001Z</time></trkpt><trkpt lat="46.6380668467058" lon="14.11981125105305"><ele>512.0</ele><time>2026-05-01T20:13:47.001Z</time></trkpt><trkpt lat="46.638040513739206" lon="14.119462608801042"><ele>512.0</ele><time>2026-05-01T20:13:48.001Z</time></trkpt><trkpt lat="46.63801345048358" lon="14.119114717790776"><ele>512.0</ele><time>2026-05-01T20:13:49.001Z</time></trkpt><trkpt lat="46.637985665858686" lon="14.118775999887703"><ele>509.0</ele><time>2026-05-01T20:13:50.001Z</time></trkpt><trkpt lat="46.63795017902452" lon="14.118439473659059"><ele>506.0</ele><time>2026-05-01T20:13:51.001Z</time></trkpt><trkpt lat="46.637911001905074" lon="14.118098419434464"><ele>506.0</ele><time>2026-05-01T20:13:52.001Z</time></trkpt><trkpt lat="46.63786428209023" lon="14.117766985171155"><ele>506.0</ele><time>2026-05-01T20:13:53.001Z</time></trkpt><trkpt lat="46.63780823834234" lon="14.117430103852616"><ele>503.0</ele><time>2026-05-01T20:13:54.001Z</time></trkpt><trkpt lat="46.63774757694774" lon="14.117101292525598"><ele>500.0</ele><time>2026-05-01T20:13:55.001Z</time></trkpt><trkpt lat="46.63767941808736" lon="14.11678861481988"><ele>501.0</ele><time>2026-05-01T20:13:56.001Z</time></trkpt><trkpt lat="46.63760291753726" lon="14.116464617811742"><ele>502.0</ele><time>2026-05-01T20:13:57.001Z</time></trkpt><trkpt lat="46.6375177563186" lon="14.116151697774498"><ele>502.0</ele><time>2026-05-01T20:13:58.001Z</time></trkpt><trkpt lat="46.63742685638582" lon="14.115852209952957"><ele>502.0</ele><time>2026-05-01T20:13:59.001Z</time></trkpt><trkpt lat="46.637326110946375" lon="14.115543734048032"><ele>503.5</ele><time>2026-05-01T20:14:00.001Z</time></trkpt><trkpt lat="46.637219759845024" lon="14.115254218279967"><ele>505.0</ele><time>2026-05-01T20:14:01.001Z</time></trkpt><trkpt lat="46.63710795590725" lon="14.114964466586418"><ele>504.0</ele><time>2026-05-01T20:14:02.001Z</time></trkpt><trkpt lat="46.63698936485738" lon="14.114672353974393"><ele>503.0</ele><time>2026-05-01T20:14:03.001Z</time></trkpt><trkpt lat="46.63687025780583" lon="14.114393150832347"><ele>496.3333333333333</ele><time>2026-05-01T20:14:04.001Z</time></trkpt><trkpt lat="46.63675213603553" lon="14.114125148587153"><ele>489.66666666666663</ele><time>2026-05-01T20:14:05.001Z</time></trkpt><trkpt lat="46.63663035624078" lon="14.113849911802848"><ele>483.0</ele><time>2026-05-01T20:14:06.001Z</time></trkpt><trkpt lat="46.636508112858095" lon="14.113583860272946"><ele>483.0</ele><time>2026-05-01T20:14:07.001Z</time></trkpt><trkpt lat="46.636380783418154" lon="14.1133122933229"><ele>483.0</ele><time>2026-05-01T20:14:08.001Z</time></trkpt><trkpt lat="46.63625305263133" lon="14.113038795521321"><ele>475.5</ele><time>2026-05-01T20:14:09.001Z</time></trkpt><trkpt lat="46.636123059754766" lon="14.112761992653317"><ele>468.0</ele><time>2026-05-01T20:14:10.001Z</time></trkpt><trkpt lat="46.63599105114074" lon="14.112470041565956"><ele>468.5</ele><time>2026-05-01T20:14:11.001Z</time></trkpt><trkpt lat="46.635864262835604" lon="14.112174996293191"><ele>469.0</ele><time>2026-05-01T20:14:12.001Z</time></trkpt><trkpt lat="46.63573683085544" lon="14.111873813390634"><ele>469.0</ele><time>2026-05-01T20:14:13.001Z</time></trkpt><trkpt lat="46.63561198038266" lon="14.111574773529487"><ele>469.0</ele><time>2026-05-01T20:14:14.001Z</time></trkpt><trkpt lat="46.63548647526927" lon="14.11126022953198"><ele>469.0</ele><time>2026-05-01T20:14:15.001Z</time></trkpt><trkpt lat="46.63536480424011" lon="14.11094768850966"><ele>469.0</ele><time>2026-05-01T20:14:16.001Z</time></trkpt><trkpt lat="46.63524585260576" lon="14.110627162581284"><ele>464.0</ele><time>2026-05-01T20:14:17.001Z</time></trkpt><trkpt lat="46.63512758460151" lon="14.110310169602881"><ele>459.0</ele><time>2026-05-01T20:14:18.001Z</time></trkpt><trkpt lat="46.635012656098844" lon="14.109986899958452"><ele>461.5</ele><time>2026-05-01T20:14:19.001Z</time></trkpt><trkpt lat="46.63490283045501" lon="14.109658351129518"><ele>464.0</ele><time>2026-05-01T20:14:20.001Z</time></trkpt><trkpt lat="46.63479541018328" lon="14.10933634447645"><ele>464.0</ele><time>2026-05-01T20:14:21.001Z</time></trkpt><trkpt lat="46.63469027383226" lon="14.109010780894002"><ele>464.0</ele><time>2026-05-01T20:14:22.001Z</time></trkpt><trkpt lat="46.63458956144967" lon="14.108682117123225"><ele>464.0</ele><time>2026-05-01T20:14:23.001Z</time></trkpt><trkpt lat="46.6344930154332" lon="14.10835515674004"><ele>464.0</ele><time>2026-05-01T20:14:24.001Z</time></trkpt><trkpt lat="46.63439915297039" lon="14.108024819076567"><ele>466.5</ele><time>2026-05-01T20:14:25.001Z</time></trkpt><trkpt lat="46.63430913647875" lon="14.10769926994254"><ele>469.0</ele><time>2026-05-01T20:14:26.001Z</time></trkpt><trkpt lat="46.63422195314481" lon="14.10736903227845"><ele>471.0</ele><time>2026-05-01T20:14:27.001Z</time></trkpt><trkpt lat="46.63413863278671" lon="14.107041677400872"><ele>473.0</ele><time>2026-05-01T20:14:28.001Z</time></trkpt><trkpt lat="46.63406401011594" lon="14.106735233440947"><ele>475.0</ele><time>2026-05-01T20:14:29.001Z</time></trkpt><trkpt lat="46.63398876494498" lon="14.106411107110643"><ele>477.0</ele><time>2026-05-01T20:14:30.001Z</time></trkpt><trkpt lat="46.63391731533701" lon="14.106079428214453"><ele>484.5</ele><time>2026-05-01T20:14:31.001Z</time></trkpt><trkpt lat="46.633846621050665" lon="14.105742993478312"><ele>492.0</ele><time>2026-05-01T20:14:32.001Z</time></trkpt><trkpt lat="46.63377688388961" lon="14.105401670574294"><ele>492.0</ele><time>2026-05-01T20:14:33.001Z</time></trkpt><trkpt lat="46.63370709873258" lon="14.105056003726924"><ele>492.0</ele><time>2026-05-01T20:14:34.001Z</time></trkpt><trkpt lat="46.63363859710187" lon="14.104708008387867"><ele>492.5</ele><time>2026-05-01T20:14:35.001Z</time></trkpt><trkpt lat="46.63357363285014" lon="14.104366583574617"><ele>493.0</ele><time>2026-05-01T20:14:36.001Z</time></trkpt><trkpt lat="46.63350896318432" lon="14.104021632089845"><ele>493.0</ele><time>2026-05-01T20:14:37.001Z</time></trkpt><trkpt lat="46.6334446973376" lon="14.103680057848933"><ele>493.0</ele><time>2026-05-01T20:14:38.001Z</time></trkpt><trkpt lat="46.633380068400044" lon="14.103332657237802"><ele>497.5</ele><time>2026-05-01T20:14:39.001Z</time></trkpt><trkpt lat="46.63331436590076" lon="14.10298476209323"><ele>502.0</ele><time>2026-05-01T20:14:40.001Z</time></trkpt><trkpt lat="46.63325041447593" lon="14.102639524066312"><ele>506.0</ele><time>2026-05-01T20:14:41.001Z</time></trkpt><trkpt lat="46.633181316075735" lon="14.102290482661646"><ele>510.0</ele><time>2026-05-01T20:14:42.001Z</time></trkpt><trkpt lat="46.63311395054307" lon="14.101946752809974"><ele>510.0</ele><time>2026-05-01T20:14:43.001Z</time></trkpt><trkpt lat="46.63304715716151" lon="14.101606644813453"><ele>510.0</ele><time>2026-05-01T20:14:44.001Z</time></trkpt><trkpt lat="46.632981650191375" lon="14.101268776247528"><ele>513.0</ele><time>2026-05-01T20:14:45.001Z</time></trkpt><trkpt lat="46.6329201673523" lon="14.100943422302151"><ele>516.0</ele><time>2026-05-01T20:14:46.001Z</time></trkpt><trkpt lat="46.63285694510404" lon="14.100624619674287"><ele>505.5</ele><time>2026-05-01T20:14:47.001Z</time></trkpt><trkpt lat="46.63279312760198" lon="14.100308783052519"><ele>495.0</ele><time>2026-05-01T20:14:48.001Z</time></trkpt><trkpt lat="46.632728894946275" lon="14.099993749624357"><ele>496.0</ele><time>2026-05-01T20:14:49.001Z</time></trkpt><trkpt lat="46.632658929769924" lon="14.099678082825212"><ele>497.0</ele><time>2026-05-01T20:14:50.001Z</time></trkpt><trkpt lat="46.632585979661094" lon="14.099363535289896"><ele>497.5</ele><time>2026-05-01T20:14:51.001Z</time></trkpt><trkpt lat="46.632509457251345" lon="14.099042448093648"><ele>498.0</ele><time>2026-05-01T20:14:52.001Z</time></trkpt><trkpt lat="46.63243069294214" lon="14.098727503094837"><ele>498.0</ele><time>2026-05-01T20:14:53.001Z</time></trkpt><trkpt lat="46.63235119339319" lon="14.098413012309504"><ele>498.0</ele><time>2026-05-01T20:14:54.001Z</time></trkpt><trkpt lat="46.63226815875652" lon="14.098098439191023"><ele>499.0</ele><time>2026-05-01T20:14:55.001Z</time></trkpt><trkpt lat="46.632180631673954" lon="14.097783792092837"><ele>500.0</ele><time>2026-05-01T20:14:56.001Z</time></trkpt><trkpt lat="46.63208957738579" lon="14.097475286245293"><ele>498.5</ele><time>2026-05-01T20:14:57.001Z</time></trkpt><trkpt lat="46.6319936630461" lon="14.097164321079756"><ele>497.0</ele><time>2026-05-01T20:14:58.001Z</time></trkpt><trkpt lat="46.631897031474686" lon="14.096867618255365"><ele>501.5</ele><time>2026-05-01T20:14:59.001Z</time></trkpt><trkpt lat="46.631795048198306" lon="14.096555833005867"><ele>506.0</ele><time>2026-05-01T20:15:00.001Z</time></trkpt><trkpt lat="46.63169245206452" lon="14.09625635141404"><ele>506.0</ele><time>2026-05-01T20:15:01.001Z</time></trkpt><trkpt lat="46.631583789949495" lon="14.095948540364988"><ele>506.0</ele><time>2026-05-01T20:15:02.001Z</time></trkpt><trkpt lat="46.631476352775515" lon="14.095661422355061"><ele>508.0</ele><time>2026-05-01T20:15:03.001Z</time></trkpt><trkpt lat="46.63136023770944" lon="14.095359191510443"><ele>510.0</ele><time>2026-05-01T20:15:04.001Z</time></trkpt><trkpt lat="46.63125111135637" lon="14.095080067919552"><ele>510.5</ele><time>2026-05-01T20:15:05.001Z</time></trkpt><trkpt lat="46.63113098257215" lon="14.094772235254348"><ele>511.0</ele><time>2026-05-01T20:15:06.001Z</time></trkpt><trkpt lat="46.63101364559531" lon="14.094489844139614"><ele>511.0</ele><time>2026-05-01T20:15:07.001Z</time></trkpt><trkpt lat="46.63089546064196" lon="14.094207521192747"><ele>511.0</ele><time>2026-05-01T20:15:08.001Z</time></trkpt><trkpt lat="46.630773992175556" lon="14.09392308625375"><ele>514.0</ele><time>2026-05-01T20:15:09.001Z</time></trkpt><trkpt lat="46.63065307418287" lon="14.093637269428429"><ele>517.0</ele><time>2026-05-01T20:15:10.001Z</time></trkpt><trkpt lat="46.630524588422986" lon="14.093348065673757"><ele>520.0</ele><time>2026-05-01T20:15:11.001Z</time></trkpt><trkpt lat="46.63040312959116" lon="14.093072392598499"><ele>523.0</ele><time>2026-05-01T20:15:12.001Z</time></trkpt><trkpt lat="46.63027717399464" lon="14.092784875004629"><ele>514.5</ele><time>2026-05-01T20:15:13.001Z</time></trkpt><trkpt lat="46.6301558877215" lon="14.092506515866265"><ele>506.0</ele><time>2026-05-01T20:15:14.001Z</time></trkpt><trkpt lat="46.6300339000585" lon="14.092223840271119"><ele>505.0</ele><time>2026-05-01T20:15:15.001Z</time></trkpt><trkpt lat="46.62991060133941" lon="14.091936018652298"><ele>504.0</ele><time>2026-05-01T20:15:16.001Z</time></trkpt><trkpt lat="46.62979116018982" lon="14.091657721156547"><ele>503.0</ele><time>2026-05-01T20:15:17.001Z</time></trkpt><trkpt lat="46.629667204095696" lon="14.091375349386524"><ele>502.0</ele><time>2026-05-01T20:15:18.001Z</time></trkpt><trkpt lat="46.62954204690124" lon="14.09109255510655"><ele>501.0</ele><time>2026-05-01T20:15:19.001Z</time></trkpt><trkpt lat="46.62942088780485" lon="14.090816356183037"><ele>500.0</ele><time>2026-05-01T20:15:20.001Z</time></trkpt><trkpt lat="46.629295596928955" lon="14.090530103540035"><ele>500.0</ele><time>2026-05-01T20:15:21.001Z</time></trkpt><trkpt lat="46.629177392883115" lon="14.090251480981777"><ele>500.0</ele><time>2026-05-01T20:15:22.001Z</time></trkpt><trkpt lat="46.62904838172961" lon="14.089963064827241"><ele>501.5</ele><time>2026-05-01T20:15:23.001Z</time></trkpt><trkpt lat="46.62892774332821" lon="14.089675815059154"><ele>503.0</ele><time>2026-05-01T20:15:24.001Z</time></trkpt><trkpt lat="46.62880336550699" lon="14.089385885560414"><ele>503.0</ele><time>2026-05-01T20:15:25.001Z</time></trkpt><trkpt lat="46.628675735809736" lon="14.089095464023648"><ele>503.0</ele><time>2026-05-01T20:15:26.001Z</time></trkpt><trkpt lat="46.628551363167375" lon="14.088804126577925"><ele>503.5</ele><time>2026-05-01T20:15:27.001Z</time></trkpt><trkpt lat="46.628420418326364" lon="14.088507746804893"><ele>504.0</ele><time>2026-05-01T20:15:28.001Z</time></trkpt><trkpt lat="46.62829461937481" lon="14.088218119313334"><ele>511.5</ele><time>2026-05-01T20:15:29.001Z</time></trkpt><trkpt lat="46.62816382423896" lon="14.087923728487107"><ele>519.0</ele><time>2026-05-01T20:15:30.001Z</time></trkpt><trkpt lat="46.62803421269399" lon="14.0876273037002"><ele>524.0</ele><time>2026-05-01T20:15:31.001Z</time></trkpt><trkpt lat="46.62790400615581" lon="14.087330686879255"><ele>529.0</ele><time>2026-05-01T20:15:32.001Z</time></trkpt><trkpt lat="46.627772624617705" lon="14.087032554665093"><ele>519.0</ele><time>2026-05-01T20:15:33.001Z</time></trkpt><trkpt lat="46.627640689061856" lon="14.08673305230673"><ele>509.0</ele><time>2026-05-01T20:15:34.001Z</time></trkpt><trkpt lat="46.627512663058454" lon="14.086429611883618"><ele>509.0</ele><time>2026-05-01T20:15:35.001Z</time></trkpt><trkpt lat="46.62738502983491" lon="14.086128741484767"><ele>509.0</ele><time>2026-05-01T20:15:36.001Z</time></trkpt><trkpt lat="46.62725097718184" lon="14.085825628861237"><ele>513.5</ele><time>2026-05-01T20:15:37.001Z</time></trkpt><trkpt lat="46.62711936911995" lon="14.08552251415917"><ele>518.0</ele><time>2026-05-01T20:15:38.001Z</time></trkpt><trkpt lat="46.62698399038801" lon="14.085219789889102"><ele>510.5</ele><time>2026-05-01T20:15:39.001Z</time></trkpt><trkpt lat="46.62685028544968" lon="14.084917861181856"><ele>503.0</ele><time>2026-05-01T20:15:40.001Z</time></trkpt><trkpt lat="46.62671823028941" lon="14.084615958095434"><ele>503.0</ele><time>2026-05-01T20:15:41.001Z</time></trkpt><trkpt lat="46.62659047264886" lon="14.08431357007171"><ele>503.0</ele><time>2026-05-01T20:15:42.001Z</time></trkpt><trkpt lat="46.626462610782305" lon="14.084013120976499"><ele>512.5</ele><time>2026-05-01T20:15:43.001Z</time></trkpt><trkpt lat="46.62633185831849" lon="14.083712178383331"><ele>522.0</ele><time>2026-05-01T20:15:44.001Z</time></trkpt><trkpt lat="46.62620121133209" lon="14.083407124894368"><ele>507.5</ele><time>2026-05-01T20:15:45.001Z</time></trkpt><trkpt lat="46.626073230120475" lon="14.083098076300406"><ele>493.0</ele><time>2026-05-01T20:15:46.001Z</time></trkpt><trkpt lat="46.62594695788194" lon="14.082789050632595"><ele>493.0</ele><time>2026-05-01T20:15:47.001Z</time></trkpt><trkpt lat="46.625828547960005" lon="14.082484808843057"><ele>493.0</ele><time>2026-05-01T20:15:48.001Z</time></trkpt><trkpt lat="46.62571198604374" lon="14.082175461609378"><ele>502.0</ele><time>2026-05-01T20:15:49.001Z</time></trkpt><trkpt lat="46.625583886387304" lon="14.081880673482658"><ele>511.0</ele><time>2026-05-01T20:15:50.001Z</time></trkpt><trkpt lat="46.62547006775347" lon="14.081558737621414"><ele>518.5</ele><time>2026-05-01T20:15:51.001Z</time></trkpt><trkpt lat="46.62535610804504" lon="14.081231394508508"><ele>526.0</ele><time>2026-05-01T20:15:52.001Z</time></trkpt><trkpt lat="46.625243500066425" lon="14.080895453172335"><ele>509.0</ele><time>2026-05-01T20:15:53.001Z</time></trkpt><trkpt lat="46.625127364801415" lon="14.080557322142441"><ele>492.0</ele><time>2026-05-01T20:15:54.001Z</time></trkpt><trkpt lat="46.62501135438767" lon="14.080210019739225"><ele>498.5</ele><time>2026-05-01T20:15:55.001Z</time></trkpt><trkpt lat="46.624902713408005" lon="14.079863662965025"><ele>505.0</ele><time>2026-05-01T20:15:56.001Z</time></trkpt><trkpt lat="46.62480758485859" lon="14.079511789186634"><ele>505.0</ele><time>2026-05-01T20:15:57.001Z</time></trkpt><trkpt lat="46.62471697042821" lon="14.079143501876404"><ele>505.0</ele><time>2026-05-01T20:15:58.001Z</time></trkpt><trkpt lat="46.62462382319638" lon="14.078779500816282"><ele>511.0</ele><time>2026-05-01T20:15:59.001Z</time></trkpt><trkpt lat="46.62453727818269" lon="14.078419613697875"><ele>517.0</ele><time>2026-05-01T20:16:00.001Z</time></trkpt><trkpt lat="46.624454744394846" lon="14.078051499208895"><ele>498.5</ele><time>2026-05-01T20:16:01.001Z</time></trkpt><trkpt lat="46.62437501016795" lon="14.077690014587805"><ele>480.0</ele><time>2026-05-01T20:16:02.001Z</time></trkpt><trkpt lat="46.62430661443496" lon="14.077317164969717"><ele>480.0</ele><time>2026-05-01T20:16:03.001Z</time></trkpt><trkpt lat="46.62424183969644" lon="14.076954646608566"><ele>480.0</ele><time>2026-05-01T20:16:04.001Z</time></trkpt><trkpt lat="46.624178146750694" lon="14.076584724206292"><ele>486.5</ele><time>2026-05-01T20:16:05.001Z</time></trkpt><trkpt lat="46.62410827875293" lon="14.07621439618773"><ele>493.0</ele><time>2026-05-01T20:16:06.001Z</time></trkpt><trkpt lat="46.62404528866131" lon="14.07585026401665"><ele>498.0</ele><time>2026-05-01T20:16:07.001Z</time></trkpt><trkpt lat="46.62398753530338" lon="14.075490418368997"><ele>503.0</ele><time>2026-05-01T20:16:08.001Z</time></trkpt><trkpt lat="46.623930268874325" lon="14.075124306483978"><ele>505.5</ele><time>2026-05-01T20:16:09.001Z</time></trkpt><trkpt lat="46.62387816934903" lon="14.07476242279997"><ele>508.0</ele><time>2026-05-01T20:16:10.001Z</time></trkpt><trkpt lat="46.62383268443609" lon="14.07439287461956"><ele>510.0</ele><time>2026-05-01T20:16:11.001Z</time></trkpt><trkpt lat="46.62380519296063" lon="14.074031387724643"><ele>512.0</ele><time>2026-05-01T20:16:12.001Z</time></trkpt><trkpt lat="46.6237601308349" lon="14.073661188758024"><ele>512.0</ele><time>2026-05-01T20:16:13.001Z</time></trkpt><trkpt lat="46.6237200928825" lon="14.07329476478069"><ele>512.0</ele><time>2026-05-01T20:16:14.001Z</time></trkpt><trkpt lat="46.62367929087628" lon="14.072930897695812"><ele>492.5</ele><time>2026-05-01T20:16:15.001Z</time></trkpt><trkpt lat="46.623636973817916" lon="14.072564914109815"><ele>473.0</ele><time>2026-05-01T20:16:16.001Z</time></trkpt><trkpt lat="46.62359588482293" lon="14.072203575280314"><ele>473.0</ele><time>2026-05-01T20:16:17.001Z</time></trkpt><trkpt lat="46.623555820324775" lon="14.071836936058013"><ele>473.0</ele><time>2026-05-01T20:16:18.001Z</time></trkpt><trkpt lat="46.62351816759143" lon="14.071472464038168"><ele>477.0</ele><time>2026-05-01T20:16:19.001Z</time></trkpt><trkpt lat="46.62348426274033" lon="14.071108609931875"><ele>481.0</ele><time>2026-05-01T20:16:20.001Z</time></trkpt><trkpt lat="46.62345159089537" lon="14.070744355638272"><ele>482.5</ele><time>2026-05-01T20:16:21.001Z</time></trkpt><trkpt lat="46.62341715635542" lon="14.070381977128045"><ele>484.0</ele><time>2026-05-01T20:16:22.001Z</time></trkpt><trkpt lat="46.62338300648373" lon="14.07002467428341"><ele>486.0</ele><time>2026-05-01T20:16:23.001Z</time></trkpt><trkpt lat="46.62334993087869" lon="14.069665296545333"><ele>488.0</ele><time>2026-05-01T20:16:24.001Z</time></trkpt><trkpt lat="46.62331212605998" lon="14.06930121020268"><ele>487.5</ele><time>2026-05-01T20:16:25.001Z</time></trkpt><trkpt lat="46.62327535840454" lon="14.068940525054902"><ele>487.0</ele><time>2026-05-01T20:16:26.001Z</time></trkpt><trkpt lat="46.62324002173277" lon="14.068579651467715"><ele>487.5</ele><time>2026-05-01T20:16:27.001Z</time></trkpt><trkpt lat="46.623198882905946" lon="14.068218138681734"><ele>488.0</ele><time>2026-05-01T20:16:28.001Z</time></trkpt><trkpt lat="46.62315988927846" lon="14.067857242880619"><ele>488.0</ele><time>2026-05-01T20:16:29.001Z</time></trkpt><trkpt lat="46.623124440392" lon="14.06749449075696"><ele>488.0</ele><time>2026-05-01T20:16:30.001Z</time></trkpt><trkpt lat="46.623086789658686" lon="14.06713356681899"><ele>491.5</ele><time>2026-05-01T20:16:31.001Z</time></trkpt><trkpt lat="46.62305304140319" lon="14.066774773988687"><ele>495.0</ele><time>2026-05-01T20:16:32.001Z</time></trkpt><trkpt lat="46.62301772725725" lon="14.066411652326078"><ele>498.0</ele><time>2026-05-01T20:16:33.001Z</time></trkpt><trkpt lat="46.622986837242735" lon="14.066059547098588"><ele>501.0</ele><time>2026-05-01T20:16:34.001Z</time></trkpt><trkpt lat="46.62297391039599" lon="14.065726033802477"><ele>502.5</ele><time>2026-05-01T20:16:35.001Z</time></trkpt><trkpt lat="46.622955014832094" lon="14.065376687996807"><ele>504.0</ele><time>2026-05-01T20:16:36.001Z</time></trkpt><trkpt lat="46.622928149359126" lon="14.06502016603329"><ele>505.5</ele><time>2026-05-01T20:16:37.001Z</time></trkpt><trkpt lat="46.62292206236087" lon="14.064642746154394"><ele>507.0</ele><time>2026-05-01T20:16:38.001Z</time></trkpt><trkpt lat="46.622926656585705" lon="14.064276414516508"><ele>510.0</ele><time>2026-05-01T20:16:39.001Z</time></trkpt><trkpt lat="46.622940047080164" lon="14.063900115276523"><ele>513.0</ele><time>2026-05-01T20:16:40.001Z</time></trkpt><trkpt lat="46.62295720693579" lon="14.063529833502342"><ele>511.5</ele><time>2026-05-01T20:16:41.001Z</time></trkpt><trkpt lat="46.62298887315434" lon="14.063160544829087"><ele>510.0</ele><time>2026-05-01T20:16:42.001Z</time></trkpt><trkpt lat="46.623027844086785" lon="14.06278824586153"><ele>507.0</ele><time>2026-05-01T20:16:43.001Z</time></trkpt><trkpt lat="46.62307901013632" lon="14.062420841306954"><ele>504.0</ele><time>2026-05-01T20:16:44.001Z</time></trkpt><trkpt lat="46.623136246760566" lon="14.062065758571338"><ele>504.0</ele><time>2026-05-01T20:16:45.001Z</time></trkpt><trkpt lat="46.62319926112711" lon="14.061715722417166"><ele>504.0</ele><time>2026-05-01T20:16:46.001Z</time></trkpt><trkpt lat="46.62326829961365" lon="14.06137448057838"><ele>499.0</ele><time>2026-05-01T20:16:47.001Z</time></trkpt><trkpt lat="46.62334570349915" lon="14.061034296512705"><ele>494.0</ele><time>2026-05-01T20:16:48.001Z</time></trkpt><trkpt lat="46.623425902670405" lon="14.060703378399698"><ele>494.0</ele><time>2026-05-01T20:16:49.001Z</time></trkpt><trkpt lat="46.62350688767537" lon="14.06037039993828"><ele>494.0</ele><time>2026-05-01T20:16:50.001Z</time></trkpt><trkpt lat="46.62359059017106" lon="14.060042696466041"><ele>498.5</ele><time>2026-05-01T20:16:51.001Z</time></trkpt><trkpt lat="46.62367815080627" lon="14.059710350057442"><ele>503.0</ele><time>2026-05-01T20:16:52.001Z</time></trkpt><trkpt lat="46.623765222201456" lon="14.059379524486289"><ele>499.5</ele><time>2026-05-01T20:16:53.001Z</time></trkpt><trkpt lat="46.62385650684524" lon="14.059057281649025"><ele>496.0</ele><time>2026-05-01T20:16:54.001Z</time></trkpt><trkpt lat="46.62394719700909" lon="14.058726516610504"><ele>496.0</ele><time>2026-05-01T20:16:55.001Z</time></trkpt><trkpt lat="46.62403560025492" lon="14.058391921102983"><ele>496.0</ele><time>2026-05-01T20:16:56.001Z</time></trkpt><trkpt lat="46.62412284692037" lon="14.058060739027546"><ele>492.5</ele><time>2026-05-01T20:16:57.001Z</time></trkpt><trkpt lat="46.62420676789481" lon="14.05772380455354"><ele>489.0</ele><time>2026-05-01T20:16:58.001Z</time></trkpt><trkpt lat="46.62428710553346" lon="14.057388525300885"><ele>488.0</ele><time>2026-05-01T20:16:59.001Z</time></trkpt><trkpt lat="46.62436066706478" lon="14.05704537846757"><ele>487.0</ele><time>2026-05-01T20:17:00.001Z</time></trkpt><trkpt lat="46.62442693046416" lon="14.056700748723548"><ele>495.0</ele><time>2026-05-01T20:17:01.001Z</time></trkpt><trkpt lat="46.62448603675279" lon="14.056356683135288"><ele>503.0</ele><time>2026-05-01T20:17:02.001Z</time></trkpt><trkpt lat="46.62453419936279" lon="14.056002037543992"><ele>502.0</ele><time>2026-05-01T20:17:03.001Z</time></trkpt><trkpt lat="46.62457484551316" lon="14.055654432961362"><ele>501.0</ele><time>2026-05-01T20:17:04.001Z</time></trkpt><trkpt lat="46.624607277473295" lon="14.055303120814406"><ele>506.0</ele><time>2026-05-01T20:17:05.001Z</time></trkpt><trkpt lat="46.6246286182823" lon="14.05494596486204"><ele>511.0</ele><time>2026-05-01T20:17:06.001Z</time></trkpt><trkpt lat="46.62464339400872" lon="14.054593223497932"><ele>511.0</ele><time>2026-05-01T20:17:07.001Z</time></trkpt><trkpt lat="46.624649283813405" lon="14.054241069398344"><ele>511.0</ele><time>2026-05-01T20:17:08.001Z</time></trkpt><trkpt lat="46.62464327314366" lon="14.053883116072278"><ele>512.5</ele><time>2026-05-01T20:17:09.001Z</time></trkpt><trkpt lat="46.62462609024158" lon="14.053529689090768"><ele>514.0</ele><time>2026-05-01T20:17:10.001Z</time></trkpt><trkpt lat="46.624602615091156" lon="14.053180625017335"><ele>515.5</ele><time>2026-05-01T20:17:11.001Z</time></trkpt><trkpt lat="46.62456594592908" lon="14.052828307277228"><ele>517.0</ele><time>2026-05-01T20:17:12.001Z</time></trkpt><trkpt lat="46.62451885853903" lon="14.05247907426358"><ele>503.5</ele><time>2026-05-01T20:17:13.001Z</time></trkpt><trkpt lat="46.62446438011824" lon="14.052132987978444"><ele>490.0</ele><time>2026-05-01T20:17:14.001Z</time></trkpt><trkpt lat="46.62440634968684" lon="14.051790126492861"><ele>491.5</ele><time>2026-05-01T20:17:15.001Z</time></trkpt><trkpt lat="46.624334279569304" lon="14.051453391037452"><ele>493.0</ele><time>2026-05-01T20:17:16.001Z</time></trkpt><trkpt lat="46.62425276216276" lon="14.051115054332131"><ele>494.5</ele><time>2026-05-01T20:17:17.001Z</time></trkpt><trkpt lat="46.62416105598855" lon="14.050787887636053"><ele>496.0</ele><time>2026-05-01T20:17:18.001Z</time></trkpt><trkpt lat="46.62406325314101" lon="14.050462536354273"><ele>496.0</ele><time>2026-05-01T20:17:19.001Z</time></trkpt><trkpt lat="46.62395704147947" lon="14.050141272154645"><ele>496.0</ele><time>2026-05-01T20:17:20.001Z</time></trkpt><trkpt lat="46.62385020630223" lon="14.049827596307251"><ele>491.5</ele><time>2026-05-01T20:17:21.001Z</time></trkpt><trkpt lat="46.6237366005761" lon="14.049513631427612"><ele>487.0</ele><time>2026-05-01T20:17:22.001Z</time></trkpt><trkpt lat="46.6236167832634" lon="14.049203497684017"><ele>492.5</ele><time>2026-05-01T20:17:23.001Z</time></trkpt><trkpt lat="46.62349124223737" lon="14.04889608087046"><ele>498.0</ele><time>2026-05-01T20:17:24.001Z</time></trkpt><trkpt lat="46.62336639879824" lon="14.048588640050893"><ele>502.0</ele><time>2026-05-01T20:17:25.001Z</time></trkpt><trkpt lat="46.623243482230386" lon="14.048278199276858"><ele>506.0</ele><time>2026-05-01T20:17:26.001Z</time></trkpt><trkpt lat="46.623129596429756" lon="14.047965020770537"><ele>506.0</ele><time>2026-05-01T20:17:27.001Z</time></trkpt><trkpt lat="46.62302440241898" lon="14.047647556866067"><ele>506.0</ele><time>2026-05-01T20:17:28Z</time></trkpt><trkpt lat="46.62292615716097" lon="14.047320320565621"><ele>509.0</ele><time>2026-05-01T20:17:29Z</time></trkpt><trkpt lat="46.62283958340541" lon="14.046997318230298"><ele>512.0</ele><time>2026-05-01T20:17:30Z</time></trkpt><trkpt lat="46.62275963714824" lon="14.046665036709484"><ele>504.5</ele><time>2026-05-01T20:17:31.001Z</time></trkpt><trkpt lat="46.622688642009685" lon="14.046332722185765"><ele>497.0</ele><time>2026-05-01T20:17:32.001Z</time></trkpt><trkpt lat="46.62262231088967" lon="14.046000232514338"><ele>499.0</ele><time>2026-05-01T20:17:33.001Z</time></trkpt><trkpt lat="46.62256678785036" lon="14.045664912783414"><ele>501.0</ele><time>2026-05-01T20:17:34.001Z</time></trkpt><trkpt lat="46.6225215102011" lon="14.045325151205082"><ele>501.0</ele><time>2026-05-01T20:17:35.001Z</time></trkpt><trkpt lat="46.62248542828629" lon="14.044989651641014"><ele>501.0</ele><time>2026-05-01T20:17:36.001Z</time></trkpt><trkpt lat="46.62245618661787" lon="14.044650790553858"><ele>503.0</ele><time>2026-05-01T20:17:37.001Z</time></trkpt><trkpt lat="46.62243467755809" lon="14.044301912563794"><ele>505.0</ele><time>2026-05-01T20:17:38.001Z</time></trkpt><trkpt lat="46.622422433453394" lon="14.043964270698133"><ele>505.5</ele><time>2026-05-01T20:17:39.001Z</time></trkpt><trkpt lat="46.622422283899915" lon="14.043621216152635"><ele>506.0</ele><time>2026-05-01T20:17:40.001Z</time></trkpt><trkpt lat="46.622433190858075" lon="14.043282391653461"><ele>506.5</ele><time>2026-05-01T20:17:41.001Z</time></trkpt><trkpt lat="46.62244819289217" lon="14.0429382937728"><ele>507.0</ele><time>2026-05-01T20:17:42.001Z</time></trkpt><trkpt lat="46.622465105789416" lon="14.042590111331126"><ele>507.0</ele><time>2026-05-01T20:17:43.001Z</time></trkpt><trkpt lat="46.6224856404593" lon="14.042242302252665"><ele>507.0</ele><time>2026-05-01T20:17:44.001Z</time></trkpt><trkpt lat="46.62250950474675" lon="14.041899131296377"><ele>510.0</ele><time>2026-05-01T20:17:45.001Z</time></trkpt><trkpt lat="46.62253252436361" lon="14.041545807119995"><ele>513.0</ele><time>2026-05-01T20:17:46.001Z</time></trkpt><trkpt lat="46.62255551958362" lon="14.04119784067497"><ele>513.0</ele><time>2026-05-01T20:17:47.001Z</time></trkpt><trkpt lat="46.62257678397257" lon="14.040849633214979"><ele>513.0</ele><time>2026-05-01T20:17:48.001Z</time></trkpt><trkpt lat="46.62259558270668" lon="14.040495539000844"><ele>514.5</ele><time>2026-05-01T20:17:49.001Z</time></trkpt><trkpt lat="46.62261475758038" lon="14.040143311605524"><ele>516.0</ele><time>2026-05-01T20:17:50.001Z</time></trkpt><trkpt lat="46.62262140532849" lon="14.039792753297405"><ele>516.0</ele><time>2026-05-01T20:17:51.001Z</time></trkpt><trkpt lat="46.62262229813784" lon="14.03944229259195"><ele>516.0</ele><time>2026-05-01T20:17:52.001Z</time></trkpt><trkpt lat="46.622614280897984" lon="14.039085319289704"><ele>515.0</ele><time>2026-05-01T20:17:53.001Z</time></trkpt><trkpt lat="46.622596821352346" lon="14.03872949563586"><ele>514.0</ele><time>2026-05-01T20:17:54.001Z</time></trkpt><trkpt lat="46.62257545886077" lon="14.03838482933997"><ele>513.5</ele><time>2026-05-01T20:17:55.001Z</time></trkpt><trkpt lat="46.62254088223587" lon="14.038019291156731"><ele>513.0</ele><time>2026-05-01T20:17:56.001Z</time></trkpt><trkpt lat="46.622504256907014" lon="14.03766487202269"><ele>512.0</ele><time>2026-05-01T20:17:57.001Z</time></trkpt><trkpt lat="46.62246337784142" lon="14.03731109273627"><ele>511.0</ele><time>2026-05-01T20:17:58.001Z</time></trkpt><trkpt lat="46.622417295664" lon="14.03695321202149"><ele>509.0</ele><time>2026-05-01T20:17:59.001Z</time></trkpt><trkpt lat="46.622370081411205" lon="14.0365996737714"><ele>507.0</ele><time>2026-05-01T20:18:00.001Z</time></trkpt><trkpt lat="46.62231692953398" lon="14.036235824794886"><ele>507.0</ele><time>2026-05-01T20:18:01.001Z</time></trkpt><trkpt lat="46.6222654072117" lon="14.03587864699504"><ele>507.0</ele><time>2026-05-01T20:18:02.001Z</time></trkpt><trkpt lat="46.622215535074794" lon="14.0355196540803"><ele>507.5</ele><time>2026-05-01T20:18:03.001Z</time></trkpt><trkpt lat="46.62216982348326" lon="14.035165494386458"><ele>508.0</ele><time>2026-05-01T20:18:04.001Z</time></trkpt><trkpt lat="46.62212170544648" lon="14.034800184868697"><ele>509.0</ele><time>2026-05-01T20:18:05.001Z</time></trkpt><trkpt lat="46.6220754961301" lon="14.034434731103781"><ele>510.0</ele><time>2026-05-01T20:18:06.001Z</time></trkpt><trkpt lat="46.622032045923376" lon="14.034067542498638"><ele>512.5</ele><time>2026-05-01T20:18:07.001Z</time></trkpt><trkpt lat="46.622001725974805" lon="14.033708859080798"><ele>515.0</ele><time>2026-05-01T20:18:08.001Z</time></trkpt><trkpt lat="46.62197577092344" lon="14.033363742211092"><ele>507.0</ele><time>2026-05-01T20:18:09.001Z</time></trkpt><trkpt lat="46.62195173491201" lon="14.033006822934428"><ele>499.0</ele><time>2026-05-01T20:18:10.001Z</time></trkpt><trkpt lat="46.62193880482891" lon="14.032652639927427"><ele>498.5</ele><time>2026-05-01T20:18:11.001Z</time></trkpt><trkpt lat="46.62193368703798" lon="14.032284743416152"><ele>498.0</ele><time>2026-05-01T20:18:12.001Z</time></trkpt><trkpt lat="46.62193516058964" lon="14.031917740949227"><ele>498.0</ele><time>2026-05-01T20:18:13.001Z</time></trkpt><trkpt lat="46.62194118569262" lon="14.031542085583473"><ele>498.0</ele><time>2026-05-01T20:18:14.001Z</time></trkpt><trkpt lat="46.62194925861768" lon="14.031166067596462"><ele>497.5</ele><time>2026-05-01T20:18:15.001Z</time></trkpt><trkpt lat="46.62196096725644" lon="14.030794603268147"><ele>497.0</ele><time>2026-05-01T20:18:16.001Z</time></trkpt><trkpt lat="46.62197684511507" lon="14.03043085521911"><ele>503.5</ele><time>2026-05-01T20:18:17.001Z</time></trkpt><trkpt lat="46.62199104780998" lon="14.03006485772331"><ele>510.0</ele><time>2026-05-01T20:18:18.001Z</time></trkpt><trkpt lat="46.62200878441801" lon="14.029701438360147"><ele>510.0</ele><time>2026-05-01T20:18:19.001Z</time></trkpt><trkpt lat="46.622035096689935" lon="14.029331132430734"><ele>510.0</ele><time>2026-05-01T20:18:20.001Z</time></trkpt><trkpt lat="46.62204790007772" lon="14.02897437647881"><ele>508.5</ele><time>2026-05-01T20:18:21.001Z</time></trkpt><trkpt lat="46.62207442495615" lon="14.028627528923533"><ele>507.0</ele><time>2026-05-01T20:18:22.001Z</time></trkpt><trkpt lat="46.62209225167942" lon="14.0282639141402"><ele>505.5</ele><time>2026-05-01T20:18:23.001Z</time></trkpt><trkpt lat="46.62211028583693" lon="14.027897459871365"><ele>504.0</ele><time>2026-05-01T20:18:24.001Z</time></trkpt><trkpt lat="46.622124113681714" lon="14.027536294088636"><ele>502.0</ele><time>2026-05-01T20:18:25.001Z</time></trkpt><trkpt lat="46.62213532496615" lon="14.027167359023029"><ele>500.0</ele><time>2026-05-01T20:18:26.001Z</time></trkpt><trkpt lat="46.62213951379226" lon="14.026805169980722"><ele>499.0</ele><time>2026-05-01T20:18:27.001Z</time></trkpt><trkpt lat="46.62213701208541" lon="14.0264407230718"><ele>498.0</ele><time>2026-05-01T20:18:28.001Z</time></trkpt><trkpt lat="46.6221251877329" lon="14.026070841046462"><ele>498.0</ele><time>2026-05-01T20:18:29.001Z</time></trkpt><trkpt lat="46.622107253272304" lon="14.025701790400216"><ele>498.0</ele><time>2026-05-01T20:18:30.001Z</time></trkpt><trkpt lat="46.62208500439699" lon="14.02533325685012"><ele>498.5</ele><time>2026-05-01T20:18:31.001Z</time></trkpt><trkpt lat="46.6220572267335" lon="14.02496526223374"><ele>499.0</ele><time>2026-05-01T20:18:32.001Z</time></trkpt><trkpt lat="46.62202068800584" lon="14.024603222199655"><ele>499.0</ele><time>2026-05-01T20:18:33.001Z</time></trkpt><trkpt lat="46.621977400769055" lon="14.02423956461642"><ele>499.0</ele><time>2026-05-01T20:18:34.001Z</time></trkpt><trkpt lat="46.62193019419634" lon="14.023883368903553"><ele>502.0</ele><time>2026-05-01T20:18:35.001Z</time></trkpt><trkpt lat="46.621909831668745" lon="14.023508923962138"><ele>505.0</ele><time>2026-05-01T20:18:36.001Z</time></trkpt><trkpt lat="46.621860030802566" lon="14.02315278178914"><ele>507.5</ele><time>2026-05-01T20:18:37.001Z</time></trkpt><trkpt lat="46.62180777073592" lon="14.022797880674336"><ele>510.0</ele><time>2026-05-01T20:18:38.001Z</time></trkpt><trkpt lat="46.62175010415749" lon="14.022441220507663"><ele>511.0</ele><time>2026-05-01T20:18:39.001Z</time></trkpt><trkpt lat="46.62169434174148" lon="14.022089265411298"><ele>512.0</ele><time>2026-05-01T20:18:40.001Z</time></trkpt><trkpt lat="46.62164599542125" lon="14.021728151069182"><ele>513.5</ele><time>2026-05-01T20:18:41.001Z</time></trkpt><trkpt lat="46.62159692228536" lon="14.021364756626975"><ele>515.0</ele><time>2026-05-01T20:18:42.001Z</time></trkpt><trkpt lat="46.621550483193886" lon="14.021001703730345"><ele>513.5</ele><time>2026-05-01T20:18:43.001Z</time></trkpt><trkpt lat="46.621511648478666" lon="14.020644844472965"><ele>512.0</ele><time>2026-05-01T20:18:44.001Z</time></trkpt><trkpt lat="46.621480008860544" lon="14.020296135680775"><ele>510.0</ele><time>2026-05-01T20:18:45.001Z</time></trkpt><trkpt lat="46.62145666239125" lon="14.019950411541986"><ele>508.0</ele><time>2026-05-01T20:18:46.001Z</time></trkpt><trkpt lat="46.62144745870464" lon="14.01960102445743"><ele>508.0</ele><time>2026-05-01T20:18:47.001Z</time></trkpt><trkpt lat="46.62143248316876" lon="14.019240218827651"><ele>508.0</ele><time>2026-05-01T20:18:48.001Z</time></trkpt><trkpt lat="46.62142030979449" lon="14.018891580275978"><ele>507.5</ele><time>2026-05-01T20:18:49.001Z</time></trkpt><trkpt lat="46.62141265144731" lon="14.018547498386198"><ele>507.0</ele><time>2026-05-01T20:18:50.001Z</time></trkpt><trkpt lat="46.62141718355654" lon="14.018206953356287"><ele>508.0</ele><time>2026-05-01T20:18:51.001Z</time></trkpt><trkpt lat="46.62142446035496" lon="14.017861815813072"><ele>509.0</ele><time>2026-05-01T20:18:52.001Z</time></trkpt><trkpt lat="46.621419677044166" lon="14.017518651644915"><ele>509.3333333333333</ele><time>2026-05-01T20:18:53.001Z</time></trkpt><trkpt lat="46.621416841606596" lon="14.017189045046557"><ele>509.66666666666663</ele><time>2026-05-01T20:18:54.001Z</time></trkpt><trkpt lat="46.62142515273095" lon="14.016866795493751"><ele>510.0</ele><time>2026-05-01T20:18:55.001Z</time></trkpt><trkpt lat="46.621433579964275" lon="14.016559237136544"><ele>510.0</ele><time>2026-05-01T20:18:56.001Z</time></trkpt><trkpt lat="46.62144185481058" lon="14.016273654143797"><ele>510.0</ele><time>2026-05-01T20:18:57.001Z</time></trkpt><trkpt lat="46.621449659766974" lon="14.015986826551362"><ele>510.0</ele><time>2026-05-01T20:18:58.001Z</time></trkpt><trkpt lat="46.62148761817455" lon="14.01569731181944"><ele>509.66666666666663</ele><time>2026-05-01T20:18:59.001Z</time></trkpt><trkpt lat="46.62149199616625" lon="14.015410957238194"><ele>509.3333333333333</ele><time>2026-05-01T20:19:00.001Z</time></trkpt><trkpt lat="46.62149517793236" lon="14.015112549617546"><ele>509.0</ele><time>2026-05-01T20:19:01.001Z</time></trkpt><trkpt lat="46.62149217238741" lon="14.014819428893652"><ele>509.0</ele><time>2026-05-01T20:19:02.001Z</time></trkpt><trkpt lat="46.621485944821494" lon="14.014527480607052"><ele>509.0</ele><time>2026-05-01T20:19:03.001Z</time></trkpt><trkpt lat="46.621480639089505" lon="14.014226465286422"><ele>509.0</ele><time>2026-05-01T20:19:04.001Z</time></trkpt><trkpt lat="46.621470215284866" lon="14.013932792718107"><ele>509.3333333333333</ele><time>2026-05-01T20:19:05.001Z</time></trkpt><trkpt lat="46.62145624260948" lon="14.013639262839826"><ele>509.66666666666663</ele><time>2026-05-01T20:19:06.001Z</time></trkpt><trkpt lat="46.6214373581858" lon="14.013342829845566"><ele>510.0</ele><time>2026-05-01T20:19:07.001Z</time></trkpt><trkpt lat="46.62141142883813" lon="14.013045382815136"><ele>510.66666666666663</ele><time>2026-05-01T20:19:08.001Z</time></trkpt><trkpt lat="46.62138261259002" lon="14.012750937459801"><ele>511.3333333333333</ele><time>2026-05-01T20:19:09.001Z</time></trkpt><trkpt lat="46.62134751334509" lon="14.012461755599402"><ele>512.0</ele><time>2026-05-01T20:19:10.001Z</time></trkpt><trkpt lat="46.62131379728541" lon="14.012159119430958"><ele>512.3333333333333</ele><time>2026-05-01T20:19:11.001Z</time></trkpt><trkpt lat="46.62127652727335" lon="14.011866742968817"><ele>512.6666666666666</ele><time>2026-05-01T20:19:12.001Z</time></trkpt><trkpt lat="46.62123728416762" lon="14.011561613459737"><ele>513.0</ele><time>2026-05-01T20:19:13.001Z</time></trkpt><trkpt lat="46.621192565972514" lon="14.011263903710786"><ele>516.3333333333334</ele><time>2026-05-01T20:19:14.001Z</time></trkpt><trkpt lat="46.62114440204958" lon="14.01096841885337"><ele>519.6666666666667</ele><time>2026-05-01T20:19:15.001Z</time></trkpt><trkpt lat="46.6210928045485" lon="14.010674892257995"><ele>523.0</ele><time>2026-05-01T20:19:16.001Z</time></trkpt><trkpt lat="46.62104122439446" lon="14.010376332284666"><ele>523.0</ele><time>2026-05-01T20:19:17.001Z</time></trkpt><trkpt lat="46.62098452345551" lon="14.010081872940594"><ele>523.0</ele><time>2026-05-01T20:19:18.001Z</time></trkpt><trkpt lat="46.62092428883198" lon="14.009793460744863"><ele>523.0</ele><time>2026-05-01T20:19:19.001Z</time></trkpt><trkpt lat="46.6208606781758" lon="14.009494070180043"><ele>523.0</ele><time>2026-05-01T20:19:20.001Z</time></trkpt><trkpt lat="46.620796022073854" lon="14.009205078942355"><ele>523.0</ele><time>2026-05-01T20:19:21.001Z</time></trkpt><trkpt lat="46.62072974780956" lon="14.008917025021768"><ele>523.0</ele><time>2026-05-01T20:19:22Z</time></trkpt><trkpt lat="46.62066336088262" lon="14.008621368101672"><ele>523.3333333333334</ele><time>2026-05-01T20:19:23Z</time></trkpt><trkpt lat="46.62059382403317" lon="14.00831881269095"><ele>523.6666666666666</ele><time>2026-05-01T20:19:24Z</time></trkpt><trkpt lat="46.62052114147439" lon="14.008033330579428"><ele>524.0</ele><time>2026-05-01T20:19:25Z</time></trkpt><trkpt lat="46.62044760347318" lon="14.007735172169252"><ele>525.3333333333333</ele><time>2026-05-01T20:19:26Z</time></trkpt><trkpt lat="46.62036967197155" lon="14.0074377900444"><ele>526.6666666666666</ele><time>2026-05-01T20:19:27Z</time></trkpt><trkpt lat="46.62029218424153" lon="14.007142853743165"><ele>528.0</ele><time>2026-05-01T20:19:28Z</time></trkpt><trkpt lat="46.62021499716382" lon="14.00684110026065"><ele>528.3333333333334</ele><time>2026-05-01T20:19:29Z</time></trkpt><trkpt lat="46.620135839715694" lon="14.006536686271346"><ele>528.6666666666667</ele><time>2026-05-01T20:19:30Z</time></trkpt><trkpt lat="46.62005661830603" lon="14.006232908767075"><ele>529.0</ele><time>2026-05-01T20:19:31Z</time></trkpt><trkpt lat="46.619978799497254" lon="14.00593718795533"><ele>530.5</ele><time>2026-05-01T20:19:32Z</time></trkpt><trkpt lat="46.61989689827791" lon="14.005626735995632"><ele>532.0</ele><time>2026-05-01T20:19:33Z</time></trkpt><trkpt lat="46.619817553061544" lon="14.005320814019777"><ele>532.0</ele><time>2026-05-01T20:19:34Z</time></trkpt><trkpt lat="46.619739676633976" lon="14.005019785885061"><ele>532.0</ele><time>2026-05-01T20:19:35Z</time></trkpt><trkpt lat="46.6196620428874" lon="14.004716059493324"><ele>532.0</ele><time>2026-05-01T20:19:36Z</time></trkpt><trkpt lat="46.61957978452227" lon="14.004409935830214"><ele>532.3333333333334</ele><time>2026-05-01T20:19:37Z</time></trkpt><trkpt lat="46.61949654675023" lon="14.004105016950204"><ele>532.6666666666666</ele><time>2026-05-01T20:19:38Z</time></trkpt><trkpt lat="46.61941853340318" lon="14.003804123903887"><ele>533.0</ele><time>2026-05-01T20:19:39Z</time></trkpt><trkpt lat="46.61933974400703" lon="14.003497165918262"><ele>535.5</ele><time>2026-05-01T20:19:40Z</time></trkpt><trkpt lat="46.61926112103015" lon="14.003192125678417"><ele>538.0</ele><time>2026-05-01T20:19:41Z</time></trkpt><trkpt lat="46.61918266726023" lon="14.00288037880827"><ele>538.0</ele><time>2026-05-01T20:19:42Z</time></trkpt><trkpt lat="46.61910494132877" lon="14.002579610712017"><ele>538.0</ele><time>2026-05-01T20:19:43Z</time></trkpt><trkpt lat="46.61902247809145" lon="14.002270183982652"><ele>538.0</ele><time>2026-05-01T20:19:44Z</time></trkpt><trkpt lat="46.61894071966564" lon="14.001964474080516"><ele>537.0</ele><time>2026-05-01T20:19:45.001Z</time></trkpt><trkpt lat="46.61886009525547" lon="14.001651557288763"><ele>536.0</ele><time>2026-05-01T20:19:46.001Z</time></trkpt><trkpt lat="46.618785921850794" lon="14.001346016511004"><ele>536.0</ele><time>2026-05-01T20:19:47.001Z</time></trkpt><trkpt lat="46.61870981385386" lon="14.001026295730856"><ele>536.0</ele><time>2026-05-01T20:19:48.001Z</time></trkpt><trkpt lat="46.618639133781386" lon="14.000717147910638"><ele>538.0</ele><time>2026-05-01T20:19:49.001Z</time></trkpt><trkpt lat="46.61856463983225" lon="14.00039671381097"><ele>540.0</ele><time>2026-05-01T20:19:50.001Z</time></trkpt><trkpt lat="46.61848809098612" lon="14.000073112182521"><ele>540.0</ele><time>2026-05-01T20:19:51.001Z</time></trkpt><trkpt lat="46.61841838891166" lon="13.999757453947106"><ele>540.0</ele><time>2026-05-01T20:19:52.001Z</time></trkpt><trkpt lat="46.618349340281206" lon="13.999434337025752"><ele>540.0</ele><time>2026-05-01T20:19:53.001Z</time></trkpt><trkpt lat="46.61827981531411" lon="13.999107626924967"><ele>540.0</ele><time>2026-05-01T20:19:54.001Z</time></trkpt><trkpt lat="46.618213920023614" lon="13.9987803707696"><ele>540.0</ele><time>2026-05-01T20:19:55.001Z</time></trkpt><trkpt lat="46.61815157924826" lon="13.998456665145326"><ele>540.0</ele><time>2026-05-01T20:19:56.001Z</time></trkpt><trkpt lat="46.6180917225831" lon="13.998125505115166"><ele>542.0</ele><time>2026-05-01T20:19:57.001Z</time></trkpt><trkpt lat="46.6180353810353" lon="13.9977947016864"><ele>544.0</ele><time>2026-05-01T20:19:58.001Z</time></trkpt><trkpt lat="46.61798096424737" lon="13.997461031999402"><ele>545.0</ele><time>2026-05-01T20:19:59.001Z</time></trkpt><trkpt lat="46.61792953921469" lon="13.997134800231823"><ele>546.0</ele><time>2026-05-01T20:20:00.001Z</time></trkpt><trkpt lat="46.617882050031255" lon="13.99679992357626"><ele>549.0</ele><time>2026-05-01T20:20:01.001Z</time></trkpt><trkpt lat="46.61783683084274" lon="13.996475414229982"><ele>552.0</ele><time>2026-05-01T20:20:02.001Z</time></trkpt><trkpt lat="46.617797308621114" lon="13.996141547906204"><ele>554.5</ele><time>2026-05-01T20:20:03.001Z</time></trkpt><trkpt lat="46.61776034688808" lon="13.99580899362459"><ele>557.0</ele><time>2026-05-01T20:20:04.001Z</time></trkpt><trkpt lat="46.61772934402206" lon="13.99549131179928"><ele>557.0</ele><time>2026-05-01T20:20:05.001Z</time></trkpt><trkpt lat="46.617702627657984" lon="13.995156884093955"><ele>557.0</ele><time>2026-05-01T20:20:06.001Z</time></trkpt><trkpt lat="46.617679176143476" lon="13.99483371232218"><ele>557.0</ele><time>2026-05-01T20:20:07.001Z</time></trkpt><trkpt lat="46.617656838023116" lon="13.994515982407272"><ele>557.0</ele><time>2026-05-01T20:20:08.001Z</time></trkpt><trkpt lat="46.61763796963402" lon="13.994181849862658"><ele>558.3333333333333</ele><time>2026-05-01T20:20:09.001Z</time></trkpt><trkpt lat="46.61762482255156" lon="13.993865441554728"><ele>559.6666666666666</ele><time>2026-05-01T20:20:10.001Z</time></trkpt><trkpt lat="46.617613237118384" lon="13.993556202189644"><ele>561.0</ele><time>2026-05-01T20:20:11.001Z</time></trkpt><trkpt lat="46.61760962228289" lon="13.993255400009032"><ele>561.6666666666666</ele><time>2026-05-01T20:20:12.001Z</time></trkpt><trkpt lat="46.61761046479174" lon="13.992948299526068"><ele>562.3333333333333</ele><time>2026-05-01T20:20:13.001Z</time></trkpt><trkpt lat="46.61760858363841" lon="13.992634702395776"><ele>563.0</ele><time>2026-05-01T20:20:14.001Z</time></trkpt><trkpt lat="46.61761228014701" lon="13.992317415761324"><ele>563.6666666666666</ele><time>2026-05-01T20:20:15.001Z</time></trkpt><trkpt lat="46.617618441729846" lon="13.992003443758595"><ele>564.3333333333334</ele><time>2026-05-01T20:20:16.001Z</time></trkpt><trkpt lat="46.61763182976728" lon="13.991669411315794"><ele>565.0</ele><time>2026-05-01T20:20:17.001Z</time></trkpt><trkpt lat="46.617646714823344" lon="13.99134682296256"><ele>565.0</ele><time>2026-05-01T20:20:18.001Z</time></trkpt><trkpt lat="46.61766616027796" lon="13.991019242795048"><ele>565.0</ele><time>2026-05-01T20:20:19.001Z</time></trkpt><trkpt lat="46.617690516511914" lon="13.990685214542292"><ele>566.0</ele><time>2026-05-01T20:20:20.001Z</time></trkpt><trkpt lat="46.61771837422008" lon="13.990364652796922"><ele>567.0</ele><time>2026-05-01T20:20:21.001Z</time></trkpt><trkpt lat="46.617750947405334" lon="13.990032011453597"><ele>567.0</ele><time>2026-05-01T20:20:22.001Z</time></trkpt><trkpt lat="46.61778400810723" lon="13.989712614946468"><ele>567.0</ele><time>2026-05-01T20:20:23.001Z</time></trkpt><trkpt lat="46.61782008101827" lon="13.989388330751504"><ele>567.0</ele><time>2026-05-01T20:20:24.001Z</time></trkpt><trkpt lat="46.61786429608934" lon="13.989064707004"><ele>570.0</ele><time>2026-05-01T20:20:25.001Z</time></trkpt><trkpt lat="46.61790884585651" lon="13.988753236068394"><ele>573.0</ele><time>2026-05-01T20:20:26.001Z</time></trkpt><trkpt lat="46.61795894847123" lon="13.98844639915"><ele>576.0</ele><time>2026-05-01T20:20:27.001Z</time></trkpt><trkpt lat="46.61801197364864" lon="13.988135520052206"><ele>576.3333333333334</ele><time>2026-05-01T20:20:28.001Z</time></trkpt><trkpt lat="46.61806769581909" lon="13.987833268638658"><ele>576.6666666666667</ele><time>2026-05-01T20:20:29.001Z</time></trkpt><trkpt lat="46.61812724408731" lon="13.987520815209011"><ele>577.0</ele><time>2026-05-01T20:20:30.001Z</time></trkpt><trkpt lat="46.61818620916654" lon="13.987228727658824"><ele>577.0</ele><time>2026-05-01T20:20:31.001Z</time></trkpt><trkpt lat="46.618250220493394" lon="13.986925795970736"><ele>577.0</ele><time>2026-05-01T20:20:32.001Z</time></trkpt><trkpt lat="46.618318716994814" lon="13.986620252439069"><ele>577.0</ele><time>2026-05-01T20:20:33.001Z</time></trkpt><trkpt lat="46.61838780805596" lon="13.986325932256934"><ele>577.0</ele><time>2026-05-01T20:20:34.001Z</time></trkpt><trkpt lat="46.61846234021475" lon="13.98602553977132"><ele>577.0</ele><time>2026-05-01T20:20:35.001Z</time></trkpt><trkpt lat="46.61854217831615" lon="13.985722924183609"><ele>577.0</ele><time>2026-05-01T20:20:36.001Z</time></trkpt><trkpt lat="46.618625082302124" lon="13.985427647491157"><ele>580.5</ele><time>2026-05-01T20:20:37.001Z</time></trkpt><trkpt lat="46.61871119646579" lon="13.985136409379448"><ele>584.0</ele><time>2026-05-01T20:20:38.001Z</time></trkpt><trkpt lat="46.61880207558084" lon="13.984825224640007"><ele>584.0</ele><time>2026-05-01T20:20:39.001Z</time></trkpt><trkpt lat="46.61889658126133" lon="13.984531627922317"><ele>584.0</ele><time>2026-05-01T20:20:40.001Z</time></trkpt><trkpt lat="46.618995670530865" lon="13.984234414030707"><ele>584.5</ele><time>2026-05-01T20:20:41.001Z</time></trkpt><trkpt lat="46.61909643844499" lon="13.983933527372873"><ele>585.0</ele><time>2026-05-01T20:20:42.001Z</time></trkpt><trkpt lat="46.61920081331545" lon="13.983638412154328"><ele>585.0</ele><time>2026-05-01T20:20:43.001Z</time></trkpt><trkpt lat="46.619302711893596" lon="13.98333401489136"><ele>585.0</ele><time>2026-05-01T20:20:44.001Z</time></trkpt><trkpt lat="46.61941038389939" lon="13.983036912135253"><ele>585.0</ele><time>2026-05-01T20:20:45.001Z</time></trkpt><trkpt lat="46.61951868545678" lon="13.982737347101715"><ele>585.0</ele><time>2026-05-01T20:20:46.001Z</time></trkpt><trkpt lat="46.619628948419304" lon="13.98243790900751"><ele>585.5</ele><time>2026-05-01T20:20:47.001Z</time></trkpt><trkpt lat="46.61974098077616" lon="13.982134773976275"><ele>586.0</ele><time>2026-05-01T20:20:48.001Z</time></trkpt><trkpt lat="46.61985579366677" lon="13.981837458514526"><ele>586.5</ele><time>2026-05-01T20:20:49.001Z</time></trkpt><trkpt lat="46.61997006574387" lon="13.981531025529922"><ele>587.0</ele><time>2026-05-01T20:20:50.001Z</time></trkpt><trkpt lat="46.62008566629722" lon="13.981225972882694"><ele>587.0</ele><time>2026-05-01T20:20:51.001Z</time></trkpt><trkpt lat="46.62020803819704" lon="13.980930278299065"><ele>587.0</ele><time>2026-05-01T20:20:52.001Z</time></trkpt><trkpt lat="46.620327858195196" lon="13.980612736426455"><ele>587.0</ele><time>2026-05-01T20:20:53.001Z</time></trkpt><trkpt lat="46.62044979576118" lon="13.980308722757025"><ele>587.0</ele><time>2026-05-01T20:20:54.001Z</time></trkpt><trkpt lat="46.620567425141765" lon="13.979994203128895"><ele>588.0</ele><time>2026-05-01T20:20:55.001Z</time></trkpt><trkpt lat="46.62068703787374" lon="13.979672592377648"><ele>589.0</ele><time>2026-05-01T20:20:56.001Z</time></trkpt><trkpt lat="46.62080786351508" lon="13.979355740453949"><ele>589.5</ele><time>2026-05-01T20:20:57.001Z</time></trkpt><trkpt lat="46.6209299221246" lon="13.979046074152953"><ele>590.0</ele><time>2026-05-01T20:20:58.001Z</time></trkpt><trkpt lat="46.621053024890514" lon="13.978724254952212"><ele>589.5</ele><time>2026-05-01T20:20:59.001Z</time></trkpt><trkpt lat="46.621174364724105" lon="13.978406077457295"><ele>589.0</ele><time>2026-05-01T20:21:00.001Z</time></trkpt><trkpt lat="46.621295237866526" lon="13.978091794085724"><ele>589.0</ele><time>2026-05-01T20:21:01.001Z</time></trkpt><trkpt lat="46.62141427602072" lon="13.977765801377117"><ele>589.0</ele><time>2026-05-01T20:21:02.001Z</time></trkpt><trkpt lat="46.621531639826856" lon="13.97744841350032"><ele>589.0</ele><time>2026-05-01T20:21:03.001Z</time></trkpt><trkpt lat="46.62164660214634" lon="13.977117398407263"><ele>589.0</ele><time>2026-05-01T20:21:04.001Z</time></trkpt><trkpt lat="46.62176157544917" lon="13.976791767013403"><ele>588.5</ele><time>2026-05-01T20:21:05.001Z</time></trkpt><trkpt lat="46.62187428191905" lon="13.976462406842625"><ele>588.0</ele><time>2026-05-01T20:21:06.001Z</time></trkpt><trkpt lat="46.62198616819446" lon="13.976125474155582"><ele>591.0</ele><time>2026-05-01T20:21:07.001Z</time></trkpt><trkpt lat="46.62209554906679" lon="13.975801625926177"><ele>594.0</ele><time>2026-05-01T20:21:08.001Z</time></trkpt><trkpt lat="46.62220348140335" lon="13.975459920134096"><ele>594.0</ele><time>2026-05-01T20:21:09.001Z</time></trkpt><trkpt lat="46.62231116280152" lon="13.975130413951607"><ele>594.0</ele><time>2026-05-01T20:21:10.001Z</time></trkpt><trkpt lat="46.62241710177939" lon="13.974792302762072"><ele>592.0</ele><time>2026-05-01T20:21:11.001Z</time></trkpt><trkpt lat="46.62252036363345" lon="13.974458982036833"><ele>590.0</ele><time>2026-05-01T20:21:12.001Z</time></trkpt><trkpt lat="46.62261707157097" lon="13.974111318409996"><ele>588.0</ele><time>2026-05-01T20:21:13.001Z</time></trkpt><trkpt lat="46.622712182575775" lon="13.973773122188732"><ele>586.0</ele><time>2026-05-01T20:21:14.001Z</time></trkpt><trkpt lat="46.62280642629799" lon="13.973428861509767"><ele>584.0</ele><time>2026-05-01T20:21:15.001Z</time></trkpt><trkpt lat="46.62289804417015" lon="13.973083693643146"><ele>582.0</ele><time>2026-05-01T20:21:16.001Z</time></trkpt><trkpt lat="46.62298790367545" lon="13.972737526101897"><ele>583.0</ele><time>2026-05-01T20:21:17.001Z</time></trkpt><trkpt lat="46.62307694129726" lon="13.97238926756205"><ele>584.0</ele><time>2026-05-01T20:21:18.001Z</time></trkpt><trkpt lat="46.623160087228825" lon="13.97205858215016"><ele>584.0</ele><time>2026-05-01T20:21:19.001Z</time></trkpt><trkpt lat="46.62323914195996" lon="13.971720892201697"><ele>584.0</ele><time>2026-05-01T20:21:20.001Z</time></trkpt><trkpt lat="46.6233095504659" lon="13.971392102655292"><ele>583.5</ele><time>2026-05-01T20:21:21.001Z</time></trkpt><trkpt lat="46.6233753930526" lon="13.97105390664769"><ele>583.0</ele><time>2026-05-01T20:21:22.001Z</time></trkpt><trkpt lat="46.62344502962259" lon="13.970720473099972"><ele>581.5</ele><time>2026-05-01T20:21:23.001Z</time></trkpt><trkpt lat="46.62351111471147" lon="13.97038525955412"><ele>580.0</ele><time>2026-05-01T20:21:24.001Z</time></trkpt><trkpt lat="46.62357558681319" lon="13.970046925562245"><ele>579.0</ele><time>2026-05-01T20:21:25.001Z</time></trkpt><trkpt lat="46.62363913267047" lon="13.969711577498238"><ele>578.0</ele><time>2026-05-01T20:21:26.001Z</time></trkpt><trkpt lat="46.623694797054064" lon="13.969380485792046"><ele>584.5</ele><time>2026-05-01T20:21:27.001Z</time></trkpt><trkpt lat="46.623750944514185" lon="13.969036279345056"><ele>591.0</ele><time>2026-05-01T20:21:28Z</time></trkpt><trkpt lat="46.62380012818839" lon="13.96869762373905"><ele>588.5</ele><time>2026-05-01T20:21:29Z</time></trkpt><trkpt lat="46.62384612474559" lon="13.968358483632006"><ele>586.0</ele><time>2026-05-01T20:21:30Z</time></trkpt><trkpt lat="46.62389753235059" lon="13.96802100713548"><ele>586.0</ele><time>2026-05-01T20:21:31Z</time></trkpt><trkpt lat="46.623949638685744" lon="13.967683606920716"><ele>586.0</ele><time>2026-05-01T20:21:32Z</time></trkpt><trkpt lat="46.62399744434336" lon="13.96733912227933"><ele>586.0</ele><time>2026-05-01T20:21:33Z</time></trkpt><trkpt lat="46.624038731137624" lon="13.967003146753928"><ele>586.0</ele><time>2026-05-01T20:21:34Z</time></trkpt><trkpt lat="46.62407454881237" lon="13.966660021926943"><ele>584.0</ele><time>2026-05-01T20:21:35Z</time></trkpt><trkpt lat="46.62410977187464" lon="13.966316661455814"><ele>582.0</ele><time>2026-05-01T20:21:36Z</time></trkpt><trkpt lat="46.62414456887585" lon="13.96597315863972"><ele>581.0</ele><time>2026-05-01T20:21:37Z</time></trkpt><trkpt lat="46.62417551483065" lon="13.965632096268907"><ele>580.0</ele><time>2026-05-01T20:21:38Z</time></trkpt><trkpt lat="46.62420811236093" lon="13.96529243914712"><ele>579.5</ele><time>2026-05-01T20:21:39Z</time></trkpt><trkpt lat="46.62423417673327" lon="13.964944708063063"><ele>579.0</ele><time>2026-05-01T20:21:40Z</time></trkpt><trkpt lat="46.624246442951886" lon="13.964598318752273"><ele>579.0</ele><time>2026-05-01T20:21:41Z</time></trkpt><trkpt lat="46.62426287977197" lon="13.964244714513322"><ele>579.0</ele><time>2026-05-01T20:21:42Z</time></trkpt><trkpt lat="46.624279902041444" lon="13.963904028050731"><ele>579.3333333333334</ele><time>2026-05-01T20:21:43Z</time></trkpt><trkpt lat="46.62429773429663" lon="13.9635642498645"><ele>579.6666666666667</ele><time>2026-05-01T20:21:44Z</time></trkpt><trkpt lat="46.62432246478721" lon="13.963264882120704"><ele>580.0</ele><time>2026-05-01T20:21:45Z</time></trkpt><trkpt lat="46.62436930379911" lon="13.962942976353334"><ele>582.0</ele><time>2026-05-01T20:21:46Z</time></trkpt><trkpt lat="46.62437544271603" lon="13.962625776150754"><ele>584.0</ele><time>2026-05-01T20:21:47Z</time></trkpt><trkpt lat="46.624358480380735" lon="13.962209649951285"><ele>586.5</ele><time>2026-05-01T20:21:48Z</time></trkpt><trkpt lat="46.624357165727446" lon="13.961860405299165"><ele>589.0</ele><time>2026-05-01T20:21:49Z</time></trkpt><trkpt lat="46.624354557899196" lon="13.961506878786665"><ele>592.0</ele><time>2026-05-01T20:21:50Z</time></trkpt><trkpt lat="46.62435023384609" lon="13.961153034177567"><ele>595.0</ele><time>2026-05-01T20:21:51Z</time></trkpt><trkpt lat="46.62434498615174" lon="13.960798977535989"><ele>596.5</ele><time>2026-05-01T20:21:52Z</time></trkpt><trkpt lat="46.62433441355178" lon="13.96044397513266"><ele>598.0</ele><time>2026-05-01T20:21:53Z</time></trkpt><trkpt lat="46.62432713540592" lon="13.960086563292627"><ele>600.5</ele><time>2026-05-01T20:21:54Z</time></trkpt><trkpt lat="46.624312407995404" lon="13.959727582647487"><ele>603.0</ele><time>2026-05-01T20:21:55Z</time></trkpt><trkpt lat="46.62429574736951" lon="13.959376178877843"><ele>602.0</ele><time>2026-05-01T20:21:56Z</time></trkpt><trkpt lat="46.62427758893374" lon="13.959016394728408"><ele>601.0</ele><time>2026-05-01T20:21:57Z</time></trkpt><trkpt lat="46.62425345743208" lon="13.95865917410462"><ele>600.0</ele><time>2026-05-01T20:21:58Z</time></trkpt><trkpt lat="46.62422805626055" lon="13.958301750270842"><ele>599.0</ele><time>2026-05-01T20:21:59Z</time></trkpt><trkpt lat="46.62420927537876" lon="13.957952390021266"><ele>599.0</ele><time>2026-05-01T20:22:00.001Z</time></trkpt><trkpt lat="46.62418632516463" lon="13.957611243373169"><ele>599.0</ele><time>2026-05-01T20:22:01.001Z</time></trkpt><trkpt lat="46.624162292541484" lon="13.95726149054611"><ele>599.0</ele><time>2026-05-01T20:22:02.001Z</time></trkpt><trkpt lat="46.624137017413275" lon="13.956913618464728"><ele>599.0</ele><time>2026-05-01T20:22:03.001Z</time></trkpt><trkpt lat="46.624104135675715" lon="13.956561355027958"><ele>599.0</ele><time>2026-05-01T20:22:04.001Z</time></trkpt><trkpt lat="46.624066843948064" lon="13.956204633961223"><ele>599.0</ele><time>2026-05-01T20:22:05.001Z</time></trkpt><trkpt lat="46.62402456258624" lon="13.955844404657007"><ele>600.5</ele><time>2026-05-01T20:22:06.001Z</time></trkpt><trkpt lat="46.62398085601781" lon="13.955494210083266"><ele>602.0</ele><time>2026-05-01T20:22:07.001Z</time></trkpt><trkpt lat="46.62393746202923" lon="13.955151647243758"><ele>602.5</ele><time>2026-05-01T20:22:08.001Z</time></trkpt><trkpt lat="46.623881431452816" lon="13.954800547559115"><ele>603.0</ele><time>2026-05-01T20:22:09.001Z</time></trkpt><trkpt lat="46.623811777388916" lon="13.954444968050414"><ele>602.0</ele><time>2026-05-01T20:22:10.001Z</time></trkpt><trkpt lat="46.62375945524353" lon="13.954089488106357"><ele>601.0</ele><time>2026-05-01T20:22:11.001Z</time></trkpt><trkpt lat="46.6237034600244" lon="13.953736850385297"><ele>602.0</ele><time>2026-05-01T20:22:12.001Z</time></trkpt><trkpt lat="46.62364648403075" lon="13.95338636778875"><ele>603.0</ele><time>2026-05-01T20:22:13.001Z</time></trkpt><trkpt lat="46.623588191665746" lon="13.953029785944501"><ele>603.0</ele><time>2026-05-01T20:22:14.001Z</time></trkpt><trkpt lat="46.62353178505248" lon="13.952678832064953"><ele>603.0</ele><time>2026-05-01T20:22:15.001Z</time></trkpt><trkpt lat="46.623471763319" lon="13.95232302524552"><ele>603.0</ele><time>2026-05-01T20:22:16.001Z</time></trkpt><trkpt lat="46.62340674090203" lon="13.951973503549056"><ele>603.0</ele><time>2026-05-01T20:22:17.001Z</time></trkpt><trkpt lat="46.623339733106036" lon="13.951621047840614"><ele>603.0</ele><time>2026-05-01T20:22:18.001Z</time></trkpt><trkpt lat="46.623274168195834" lon="13.951266903818382"><ele>603.0</ele><time>2026-05-01T20:22:19.001Z</time></trkpt><trkpt lat="46.623210444575065" lon="13.950913618986966"><ele>603.5</ele><time>2026-05-01T20:22:20.001Z</time></trkpt><trkpt lat="46.623143962868305" lon="13.950557408592754"><ele>604.0</ele><time>2026-05-01T20:22:21.001Z</time></trkpt><trkpt lat="46.6230825124642" lon="13.950197240215614"><ele>604.5</ele><time>2026-05-01T20:22:22.001Z</time></trkpt><trkpt lat="46.62301042599499" lon="13.949849227028606"><ele>605.0</ele><time>2026-05-01T20:22:23.001Z</time></trkpt><trkpt lat="46.62294647982655" lon="13.949485992180218"><ele>603.5</ele><time>2026-05-01T20:22:24.001Z</time></trkpt><trkpt lat="46.62287649110235" lon="13.949125284967801"><ele>602.0</ele><time>2026-05-01T20:22:25.001Z</time></trkpt><trkpt lat="46.622799656664824" lon="13.948767999521024"><ele>599.5</ele><time>2026-05-01T20:22:26.001Z</time></trkpt><trkpt lat="46.6227292169637" lon="13.948405935602228"><ele>597.0</ele><time>2026-05-01T20:22:27.001Z</time></trkpt><trkpt lat="46.622653982277455" lon="13.948043062511651"><ele>595.5</ele><time>2026-05-01T20:22:28.001Z</time></trkpt><trkpt lat="46.62258386991356" lon="13.947677592938076"><ele>594.0</ele><time>2026-05-01T20:22:29.001Z</time></trkpt><trkpt lat="46.622517643326574" lon="13.947310314213674"><ele>594.0</ele><time>2026-05-01T20:22:30.001Z</time></trkpt><trkpt lat="46.62244868472133" lon="13.946942888358725"><ele>594.0</ele><time>2026-05-01T20:22:31.001Z</time></trkpt><trkpt lat="46.622382643523274" lon="13.946577251495698"><ele>593.0</ele><time>2026-05-01T20:22:32.001Z</time></trkpt><trkpt lat="46.62230920067204" lon="13.946209219006724"><ele>592.0</ele><time>2026-05-01T20:22:33.001Z</time></trkpt><trkpt lat="46.62224870657253" lon="13.945844277497576"><ele>592.0</ele><time>2026-05-01T20:22:34.001Z</time></trkpt><trkpt lat="46.62218168862187" lon="13.945476682440711"><ele>592.0</ele><time>2026-05-01T20:22:35.001Z</time></trkpt><trkpt lat="46.62211909269957" lon="13.945110140857258"><ele>590.5</ele><time>2026-05-01T20:22:36.001Z</time></trkpt><trkpt lat="46.622062535158385" lon="13.944744099013178"><ele>589.0</ele><time>2026-05-01T20:22:37.001Z</time></trkpt><trkpt lat="46.622008083984326" lon="13.944375624668291"><ele>584.0</ele><time>2026-05-01T20:22:38.001Z</time></trkpt><trkpt lat="46.62195942975642" lon="13.944009850158185"><ele>579.0</ele><time>2026-05-01T20:22:39.001Z</time></trkpt><trkpt lat="46.62190697921413" lon="13.943637379994188"><ele>577.5</ele><time>2026-05-01T20:22:40.001Z</time></trkpt><trkpt lat="46.62186827498671" lon="13.94326941878288"><ele>576.0</ele><time>2026-05-01T20:22:41.001Z</time></trkpt><trkpt lat="46.621828054890905" lon="13.942898336160969"><ele>576.0</ele><time>2026-05-01T20:22:42.001Z</time></trkpt><trkpt lat="46.621794274033036" lon="13.942527855400524"><ele>576.0</ele><time>2026-05-01T20:22:43.001Z</time></trkpt><trkpt lat="46.621763570230875" lon="13.942156101012866"><ele>576.0</ele><time>2026-05-01T20:22:44.001Z</time></trkpt><trkpt lat="46.621739134319306" lon="13.941784572546998"><ele>576.0</ele><time>2026-05-01T20:22:45.001Z</time></trkpt><trkpt lat="46.62172226765111" lon="13.94141304034458"><ele>576.0</ele><time>2026-05-01T20:22:46.001Z</time></trkpt><trkpt lat="46.62171315688606" lon="13.941041192287909"><ele>576.0</ele><time>2026-05-01T20:22:47.001Z</time></trkpt><trkpt lat="46.62171086364549" lon="13.940668797905698"><ele>575.5</ele><time>2026-05-01T20:22:48.001Z</time></trkpt><trkpt lat="46.62171256337436" lon="13.940297232989813"><ele>575.0</ele><time>2026-05-01T20:22:49.001Z</time></trkpt><trkpt lat="46.621719503037305" lon="13.939923868438859"><ele>575.0</ele><time>2026-05-01T20:22:50.001Z</time></trkpt><trkpt lat="46.62173319232799" lon="13.939555531750976"><ele>575.0</ele><time>2026-05-01T20:22:51.001Z</time></trkpt><trkpt lat="46.62175007503667" lon="13.93918259272024"><ele>574.5</ele><time>2026-05-01T20:22:52.001Z</time></trkpt><trkpt lat="46.621771661795215" lon="13.938809907888421"><ele>574.0</ele><time>2026-05-01T20:22:53.001Z</time></trkpt><trkpt lat="46.621804658688355" lon="13.938454947675632"><ele>573.5</ele><time>2026-05-01T20:22:54.001Z</time></trkpt><trkpt lat="46.62184003856401" lon="13.93808224387661"><ele>573.0</ele><time>2026-05-01T20:22:55.001Z</time></trkpt><trkpt lat="46.62188293688303" lon="13.937720660217453"><ele>573.5</ele><time>2026-05-01T20:22:56.001Z</time></trkpt><trkpt lat="46.62193175499217" lon="13.937362748878645"><ele>574.0</ele><time>2026-05-01T20:22:57.001Z</time></trkpt><trkpt lat="46.621987760293976" lon="13.937000870562088"><ele>572.5</ele><time>2026-05-01T20:22:58.001Z</time></trkpt><trkpt lat="46.622052026888255" lon="13.936653180369932"><ele>571.0</ele><time>2026-05-01T20:22:59.001Z</time></trkpt><trkpt lat="46.622120666084456" lon="13.93629348721869"><ele>571.0</ele><time>2026-05-01T20:23:00.001Z</time></trkpt><trkpt lat="46.62219027802395" lon="13.935948382603945"><ele>571.0</ele><time>2026-05-01T20:23:01.001Z</time></trkpt><trkpt lat="46.62226661472008" lon="13.935596906838228"><ele>570.0</ele><time>2026-05-01T20:23:02.001Z</time></trkpt><trkpt lat="46.62233986347424" lon="13.9352447150482"><ele>569.0</ele><time>2026-05-01T20:23:03.001Z</time></trkpt><trkpt lat="46.6224199117686" lon="13.93489762262559"><ele>567.5</ele><time>2026-05-01T20:23:04.001Z</time></trkpt><trkpt lat="46.6224981061935" lon="13.934548583446464"><ele>566.0</ele><time>2026-05-01T20:23:05.001Z</time></trkpt><trkpt lat="46.62258173400723" lon="13.934200577516421"><ele>563.5</ele><time>2026-05-01T20:23:06.001Z</time></trkpt><trkpt lat="46.62266390366285" lon="13.933858066259113"><ele>561.0</ele><time>2026-05-01T20:23:07.001Z</time></trkpt><trkpt lat="46.62275420950945" lon="13.93351404949164"><ele>562.5</ele><time>2026-05-01T20:23:08.001Z</time></trkpt><trkpt lat="46.6228440322496" lon="13.933165854862603"><ele>564.0</ele><time>2026-05-01T20:23:09.001Z</time></trkpt><trkpt lat="46.62293025624913" lon="13.932826707310113"><ele>562.5</ele><time>2026-05-01T20:23:10.001Z</time></trkpt><trkpt lat="46.62301636397227" lon="13.932478646800877"><ele>561.0</ele><time>2026-05-01T20:23:11.001Z</time></trkpt><trkpt lat="46.623099271210044" lon="13.932129008195881"><ele>561.0</ele><time>2026-05-01T20:23:12.001Z</time></trkpt><trkpt lat="46.623181293105425" lon="13.931780867512106"><ele>561.0</ele><time>2026-05-01T20:23:13.001Z</time></trkpt><trkpt lat="46.62326331847461" lon="13.931423269775358"><ele>560.5</ele><time>2026-05-01T20:23:14.001Z</time></trkpt><trkpt lat="46.62334037991434" lon="13.93107426079012"><ele>560.0</ele><time>2026-05-01T20:23:15.001Z</time></trkpt><trkpt lat="46.62341490691801" lon="13.930716401756033"><ele>559.5</ele><time>2026-05-01T20:23:16.001Z</time></trkpt><trkpt lat="46.623485714512775" lon="13.930359219900138"><ele>559.0</ele><time>2026-05-01T20:23:17.001Z</time></trkpt><trkpt lat="46.62355421428869" lon="13.930007003026342"><ele>559.0</ele><time>2026-05-01T20:23:18.001Z</time></trkpt><trkpt lat="46.62361773779538" lon="13.92964883961234"><ele>559.0</ele><time>2026-05-01T20:23:19.001Z</time></trkpt><trkpt lat="46.62367348520672" lon="13.929296363872776"><ele>557.5</ele><time>2026-05-01T20:23:20.001Z</time></trkpt><trkpt lat="46.62372669379355" lon="13.928930997762334"><ele>556.0</ele><time>2026-05-01T20:23:21.001Z</time></trkpt><trkpt lat="46.6237753777191" lon="13.928571864743148"><ele>555.5</ele><time>2026-05-01T20:23:22.001Z</time></trkpt><trkpt lat="46.62381849355051" lon="13.928208083280527"><ele>555.0</ele><time>2026-05-01T20:23:23.001Z</time></trkpt><trkpt lat="46.623857889438554" lon="13.927844299425816"><ele>552.5</ele><time>2026-05-01T20:23:24.001Z</time></trkpt><trkpt lat="46.62389366137518" lon="13.927476022056629"><ele>550.0</ele><time>2026-05-01T20:23:25.001Z</time></trkpt><trkpt lat="46.62392729141626" lon="13.92711193335593"><ele>550.0</ele><time>2026-05-01T20:23:26.001Z</time></trkpt><trkpt lat="46.623955577575806" lon="13.926750383306091"><ele>550.0</ele><time>2026-05-01T20:23:27.001Z</time></trkpt><trkpt lat="46.623980244155035" lon="13.926384059245892"><ele>547.0</ele><time>2026-05-01T20:23:28.001Z</time></trkpt><trkpt lat="46.624001121966636" lon="13.926011370367766"><ele>544.0</ele><time>2026-05-01T20:23:29.001Z</time></trkpt><trkpt lat="46.62401539108382" lon="13.925647680487712"><ele>543.5</ele><time>2026-05-01T20:23:30.001Z</time></trkpt><trkpt lat="46.62402857054999" lon="13.925276548146122"><ele>543.0</ele><time>2026-05-01T20:23:31.001Z</time></trkpt><trkpt lat="46.62403821608829" lon="13.924906611333876"><ele>543.0</ele><time>2026-05-01T20:23:32.001Z</time></trkpt><trkpt lat="46.624043534099854" lon="13.92454216080991"><ele>543.0</ele><time>2026-05-01T20:23:33.001Z</time></trkpt><trkpt lat="46.624043686775714" lon="13.924175417948277"><ele>541.5</ele><time>2026-05-01T20:23:34Z</time></trkpt><trkpt lat="46.624037514265936" lon="13.923802774708706"><ele>540.0</ele><time>2026-05-01T20:23:35Z</time></trkpt><trkpt lat="46.62402926461568" lon="13.923429003800793"><ele>539.5</ele><time>2026-05-01T20:23:36Z</time></trkpt><trkpt lat="46.6240163095719" lon="13.923060226014783"><ele>539.0</ele><time>2026-05-01T20:23:37Z</time></trkpt><trkpt lat="46.62399883308563" lon="13.922680184277107"><ele>538.0</ele><time>2026-05-01T20:23:38Z</time></trkpt><trkpt lat="46.623977157779656" lon="13.922316730501915"><ele>537.0</ele><time>2026-05-01T20:23:39Z</time></trkpt><trkpt lat="46.623950813750035" lon="13.92194421159077"><ele>536.0</ele><time>2026-05-01T20:23:40Z</time></trkpt><trkpt lat="46.623917551606006" lon="13.921563666839091"><ele>535.0</ele><time>2026-05-01T20:23:41Z</time></trkpt><trkpt lat="46.62388050762206" lon="13.921202075972698"><ele>534.0</ele><time>2026-05-01T20:23:42Z</time></trkpt><trkpt lat="46.623841456815576" lon="13.920830805311768"><ele>533.0</ele><time>2026-05-01T20:23:43Z</time></trkpt><trkpt lat="46.62380044343133" lon="13.920483783537797"><ele>533.0</ele><time>2026-05-01T20:23:44Z</time></trkpt><trkpt lat="46.62376143653619" lon="13.920136404129325"><ele>533.0</ele><time>2026-05-01T20:23:45Z</time></trkpt><trkpt lat="46.623711755314616" lon="13.919779497878935"><ele>531.5</ele><time>2026-05-01T20:23:46Z</time></trkpt><trkpt lat="46.62365661956459" lon="13.919429511059123"><ele>530.0</ele><time>2026-05-01T20:23:47Z</time></trkpt><trkpt lat="46.623599408750124" lon="13.919076423686807"><ele>528.0</ele><time>2026-05-01T20:23:48Z</time></trkpt><trkpt lat="46.62353740614585" lon="13.918713133101013"><ele>526.0</ele><time>2026-05-01T20:23:49Z</time></trkpt><trkpt lat="46.62347294463671" lon="13.918369346066587"><ele>525.0</ele><time>2026-05-01T20:23:50Z</time></trkpt><trkpt lat="46.62340037106883" lon="13.918012422710275"><ele>524.0</ele><time>2026-05-01T20:23:51Z</time></trkpt><trkpt lat="46.6233280861773" lon="13.917667242920757"><ele>522.5</ele><time>2026-05-01T20:23:52Z</time></trkpt><trkpt lat="46.623253663856694" lon="13.91733158621274"><ele>521.0</ele><time>2026-05-01T20:23:53Z</time></trkpt><trkpt lat="46.62317315901737" lon="13.91699257680223"><ele>519.5</ele><time>2026-05-01T20:23:54Z</time></trkpt><trkpt lat="46.62308875566271" lon="13.91665601157342"><ele>518.0</ele><time>2026-05-01T20:23:55Z</time></trkpt><trkpt lat="46.62300368187045" lon="13.916328792420826"><ele>518.0</ele><time>2026-05-01T20:23:56Z</time></trkpt><trkpt lat="46.622913387011366" lon="13.916028647197548"><ele>518.0</ele><time>2026-05-01T20:23:57Z</time></trkpt><trkpt lat="46.62281068262493" lon="13.915738674187423"><ele>518.0</ele><time>2026-05-01T20:23:58Z</time></trkpt><trkpt lat="46.62272386495962" lon="13.91542858056497"><ele>518.6666666666666</ele><time>2026-05-01T20:23:59Z</time></trkpt><trkpt lat="46.622624457563624" lon="13.915151943498369"><ele>519.3333333333334</ele><time>2026-05-01T20:24:00Z</time></trkpt><trkpt lat="46.62253574958351" lon="13.91487460603095"><ele>520.0</ele><time>2026-05-01T20:24:01Z</time></trkpt><trkpt lat="46.62244963621335" lon="13.914609969156633"><ele>518.6666666666667</ele><time>2026-05-01T20:24:02Z</time></trkpt><trkpt lat="46.622357656444024" lon="13.914335510309904"><ele>517.3333333333334</ele><time>2026-05-01T20:24:03Z</time></trkpt><trkpt lat="46.62226510741649" lon="13.91406618274452"><ele>516.0</ele><time>2026-05-01T20:24:04Z</time></trkpt><trkpt lat="46.62217242654626" lon="13.913798115801624"><ele>515.3333333333334</ele><time>2026-05-01T20:24:05Z</time></trkpt><trkpt lat="46.622078915755914" lon="13.913538819237843"><ele>514.6666666666667</ele><time>2026-05-01T20:24:06Z</time></trkpt><trkpt lat="46.621985907076336" lon="13.913279167901917"><ele>514.0</ele><time>2026-05-01T20:24:07Z</time></trkpt><trkpt lat="46.62189202282926" lon="13.913022610241667"><ele>513.3333333333334</ele><time>2026-05-01T20:24:08Z</time></trkpt><trkpt lat="46.621798838151484" lon="13.912760725537252"><ele>512.6666666666666</ele><time>2026-05-01T20:24:09.001Z</time></trkpt><trkpt lat="46.621707948570624" lon="13.912506703368528"><ele>512.0</ele><time>2026-05-01T20:24:10.001Z</time></trkpt><trkpt lat="46.62161617909886" lon="13.912249129212626"><ele>512.0</ele><time>2026-05-01T20:24:11.001Z</time></trkpt><trkpt lat="46.62152384105652" lon="13.911992703425499"><ele>512.0</ele><time>2026-05-01T20:24:12.001Z</time></trkpt><trkpt lat="46.62143006585846" lon="13.911736754066716"><ele>512.0</ele><time>2026-05-01T20:24:13.001Z</time></trkpt><trkpt lat="46.62133734919279" lon="13.911484926912157"><ele>510.66666666666663</ele><time>2026-05-01T20:24:14.001Z</time></trkpt><trkpt lat="46.62124116393885" lon="13.911229971564724"><ele>509.33333333333337</ele><time>2026-05-01T20:24:15.001Z</time></trkpt><trkpt lat="46.62114370475726" lon="13.910977905700502"><ele>508.0</ele><time>2026-05-01T20:24:16.001Z</time></trkpt><trkpt lat="46.621044579795104" lon="13.910724478413771"><ele>507.33333333333337</ele><time>2026-05-01T20:24:17.001Z</time></trkpt><trkpt lat="46.620942242130155" lon="13.910468284133406"><ele>506.66666666666663</ele><time>2026-05-01T20:24:18.001Z</time></trkpt><trkpt lat="46.620842722977194" lon="13.910214371687765"><ele>506.0</ele><time>2026-05-01T20:24:19.001Z</time></trkpt><trkpt lat="46.620739749536256" lon="13.909959814510144"><ele>506.0</ele><time>2026-05-01T20:24:20.001Z</time></trkpt><trkpt lat="46.620637978294546" lon="13.909704391322729"><ele>506.0</ele><time>2026-05-01T20:24:21.001Z</time></trkpt><trkpt lat="46.62053607496947" lon="13.909446008131672"><ele>506.0</ele><time>2026-05-01T20:24:22.001Z</time></trkpt><trkpt lat="46.620434950565325" lon="13.909182836108831"><ele>506.0</ele><time>2026-05-01T20:24:23.001Z</time></trkpt><trkpt lat="46.62033326940468" lon="13.908914829161214"><ele>506.0</ele><time>2026-05-01T20:24:24.001Z</time></trkpt><trkpt lat="46.62023279960866" lon="13.908641253841042"><ele>506.0</ele><time>2026-05-01T20:24:25.001Z</time></trkpt><trkpt lat="46.620128825287246" lon="13.90836328075929"><ele>506.0</ele><time>2026-05-01T20:24:26.001Z</time></trkpt><trkpt lat="46.620018630640324" lon="13.908082950887788"><ele>506.0</ele><time>2026-05-01T20:24:27.001Z</time></trkpt><trkpt lat="46.61990201540225" lon="13.907803531684952"><ele>506.0</ele><time>2026-05-01T20:24:28.001Z</time></trkpt><trkpt lat="46.61978229318167" lon="13.907525047528127"><ele>506.66666666666663</ele><time>2026-05-01T20:24:29.001Z</time></trkpt><trkpt lat="46.61966389067594" lon="13.90724995687349"><ele>507.33333333333337</ele><time>2026-05-01T20:24:30.001Z</time></trkpt><trkpt lat="46.61954690909361" lon="13.906975216086138"><ele>508.0</ele><time>2026-05-01T20:24:31.001Z</time></trkpt><trkpt lat="46.61942773295304" lon="13.906703535887218"><ele>506.6666666666667</ele><time>2026-05-01T20:24:32.001Z</time></trkpt><trkpt lat="46.619309172477735" lon="13.906435865388026"><ele>505.33333333333337</ele><time>2026-05-01T20:24:33.001Z</time></trkpt><trkpt lat="46.619188589805844" lon="13.906167360971281"><ele>504.0</ele><time>2026-05-01T20:24:34.001Z</time></trkpt><trkpt lat="46.61906661925783" lon="13.905897230739784"><ele>503.66666666666663</ele><time>2026-05-01T20:24:35.001Z</time></trkpt><trkpt lat="46.618943203386145" lon="13.905628535675943"><ele>503.3333333333333</ele><time>2026-05-01T20:24:36.001Z</time></trkpt><trkpt lat="46.618818266922574" lon="13.90535989500624"><ele>503.0</ele><time>2026-05-01T20:24:37.001Z</time></trkpt><trkpt lat="46.61869179685283" lon="13.905091141705622"><ele>503.3333333333333</ele><time>2026-05-01T20:24:38.001Z</time></trkpt><trkpt lat="46.61856400902631" lon="13.904822767847064"><ele>503.66666666666663</ele><time>2026-05-01T20:24:39.001Z</time></trkpt><trkpt lat="46.618434478736944" lon="13.9045568790263"><ele>504.0</ele><time>2026-05-01T20:24:40.001Z</time></trkpt><trkpt lat="46.6183028909434" lon="13.904290334753238"><ele>505.0</ele><time>2026-05-01T20:24:41.001Z</time></trkpt><trkpt lat="46.618172655132426" lon="13.90402773341584"><ele>506.0</ele><time>2026-05-01T20:24:42.001Z</time></trkpt><trkpt lat="46.61804094113272" lon="13.903761732065048"><ele>507.0</ele><time>2026-05-01T20:24:43.001Z</time></trkpt><trkpt lat="46.6179097582416" lon="13.90347191333231"><ele>505.0</ele><time>2026-05-01T20:24:44.001Z</time></trkpt><trkpt lat="46.61776848007959" lon="13.903213346772947"><ele>503.0</ele><time>2026-05-01T20:24:45.001Z</time></trkpt><trkpt lat="46.61762633314186" lon="13.902952636411287"><ele>503.0</ele><time>2026-05-01T20:24:46.001Z</time></trkpt><trkpt lat="46.6174852794804" lon="13.902693433845258"><ele>503.0</ele><time>2026-05-01T20:24:47.001Z</time></trkpt><trkpt lat="46.617341184878974" lon="13.902430898874112"><ele>501.5</ele><time>2026-05-01T20:24:48.001Z</time></trkpt><trkpt lat="46.617199230235535" lon="13.902171651728539"><ele>500.0</ele><time>2026-05-01T20:24:49.001Z</time></trkpt><trkpt lat="46.6170580119375" lon="13.901914994053785"><ele>500.5</ele><time>2026-05-01T20:24:50.001Z</time></trkpt><trkpt lat="46.61690973055959" lon="13.901661690597086"><ele>501.0</ele><time>2026-05-01T20:24:51.001Z</time></trkpt><trkpt lat="46.616766570835075" lon="13.901412564583367"><ele>501.0</ele><time>2026-05-01T20:24:52.001Z</time></trkpt><trkpt lat="46.616619993770826" lon="13.901166859473543"><ele>501.0</ele><time>2026-05-01T20:24:53.001Z</time></trkpt><trkpt lat="46.61647469631881" lon="13.900922079355817"><ele>501.0</ele><time>2026-05-01T20:24:54.001Z</time></trkpt><trkpt lat="46.6163210304471" lon="13.900674268610073"><ele>501.0</ele><time>2026-05-01T20:24:55.001Z</time></trkpt><trkpt lat="46.61617356046903" lon="13.90043182927899"><ele>501.0</ele><time>2026-05-01T20:24:56.001Z</time></trkpt><trkpt lat="46.6160196108631" lon="13.900198067275122"><ele>501.0</ele><time>2026-05-01T20:24:57.001Z</time></trkpt><trkpt lat="46.615866115166355" lon="13.899956893195293"><ele>502.66666666666663</ele><time>2026-05-01T20:24:58.001Z</time></trkpt><trkpt lat="46.615706162623724" lon="13.899719337846797"><ele>504.3333333333333</ele><time>2026-05-01T20:24:59.001Z</time></trkpt><trkpt lat="46.61555542570259" lon="13.89948931804916"><ele>506.0</ele><time>2026-05-01T20:25:00.001Z</time></trkpt><trkpt lat="46.615414348152825" lon="13.89927390513318"><ele>506.66666666666663</ele><time>2026-05-01T20:25:01.001Z</time></trkpt><trkpt lat="46.61526666124961" lon="13.899049863440645"><ele>507.33333333333337</ele><time>2026-05-01T20:25:02.001Z</time></trkpt><trkpt lat="46.615110778068" lon="13.898828473344926"><ele>508.0</ele><time>2026-05-01T20:25:03.001Z</time></trkpt><trkpt lat="46.61494741405827" lon="13.898607656913956"><ele>509.0</ele><time>2026-05-01T20:25:04.001Z</time></trkpt><trkpt lat="46.61477890177043" lon="13.898384962965089"><ele>510.0</ele><time>2026-05-01T20:25:05.001Z</time></trkpt><trkpt lat="46.614605496503046" lon="13.898165650232817"><ele>509.0</ele><time>2026-05-01T20:25:06.001Z</time></trkpt><trkpt lat="46.61443384601233" lon="13.89793830153952"><ele>508.0</ele><time>2026-05-01T20:25:07.001Z</time></trkpt><trkpt lat="46.614265767452856" lon="13.89772248778576"><ele>506.5</ele><time>2026-05-01T20:25:08.001Z</time></trkpt><trkpt lat="46.61409445170067" lon="13.897500806207585"><ele>505.0</ele><time>2026-05-01T20:25:09.001Z</time></trkpt><trkpt lat="46.61392433931953" lon="13.897290827597377"><ele>505.0</ele><time>2026-05-01T20:25:10.001Z</time></trkpt><trkpt lat="46.613751181193166" lon="13.897079759581445"><ele>505.0</ele><time>2026-05-01T20:25:11.001Z</time></trkpt><trkpt lat="46.61357630180305" lon="13.896870519308951"><ele>504.33333333333337</ele><time>2026-05-01T20:25:12.001Z</time></trkpt><trkpt lat="46.61339819230417" lon="13.896661623179176"><ele>503.66666666666663</ele><time>2026-05-01T20:25:13.001Z</time></trkpt><trkpt lat="46.61322520085894" lon="13.896463240043293"><ele>503.0</ele><time>2026-05-01T20:25:14.001Z</time></trkpt><trkpt lat="46.61305028960152" lon="13.896264659414168"><ele>503.0</ele><time>2026-05-01T20:25:15.001Z</time></trkpt><trkpt lat="46.612881529518205" lon="13.896073439205068"><ele>503.0</ele><time>2026-05-01T20:25:16.001Z</time></trkpt><trkpt lat="46.612706542671916" lon="13.895892124332809"><ele>503.0</ele><time>2026-05-01T20:25:17.001Z</time></trkpt><trkpt lat="46.612528009287516" lon="13.895702083699135"><ele>503.3333333333333</ele><time>2026-05-01T20:25:18.001Z</time></trkpt><trkpt lat="46.612352863658266" lon="13.895522217442764"><ele>503.66666666666663</ele><time>2026-05-01T20:25:19.001Z</time></trkpt><trkpt lat="46.612173268092796" lon="13.89534838961005"><ele>504.0</ele><time>2026-05-01T20:25:20.001Z</time></trkpt><trkpt lat="46.611996467621395" lon="13.895177908130961"><ele>505.0</ele><time>2026-05-01T20:25:21.001Z</time></trkpt><trkpt lat="46.61181316930888" lon="13.895001178637632"><ele>506.0</ele><time>2026-05-01T20:25:22.001Z</time></trkpt><trkpt lat="46.611635619616386" lon="13.894828836854144"><ele>507.0</ele><time>2026-05-01T20:25:23.001Z</time></trkpt><trkpt lat="46.61145283762886" lon="13.894655461410647"><ele>507.0</ele><time>2026-05-01T20:25:24.001Z</time></trkpt><trkpt lat="46.61126227621416" lon="13.894481116791985"><ele>507.0</ele><time>2026-05-01T20:25:25.001Z</time></trkpt><trkpt lat="46.61107722924589" lon="13.894295337836665"><ele>506.5</ele><time>2026-05-01T20:25:26.001Z</time></trkpt><trkpt lat="46.61088158828257" lon="13.894120110589654"><ele>506.0</ele><time>2026-05-01T20:25:27.001Z</time></trkpt><trkpt lat="46.61068522653373" lon="13.893939767413643"><ele>506.0</ele><time>2026-05-01T20:25:28.001Z</time></trkpt><trkpt lat="46.61048497586645" lon="13.893759014840043"><ele>506.0</ele><time>2026-05-01T20:25:29.001Z</time></trkpt><trkpt lat="46.61028088793262" lon="13.893580797621201"><ele>507.0</ele><time>2026-05-01T20:25:30.001Z</time></trkpt><trkpt lat="46.61007047858587" lon="13.893406275684493"><ele>508.0</ele><time>2026-05-01T20:25:31.001Z</time></trkpt><trkpt lat="46.60985770082659" lon="13.893231242845003"><ele>508.0</ele><time>2026-05-01T20:25:32.001Z</time></trkpt><trkpt lat="46.60964680689414" lon="13.893052696318916"><ele>508.0</ele><time>2026-05-01T20:25:33.001Z</time></trkpt><trkpt lat="46.609430230313855" lon="13.892878532446165"><ele>499.5</ele><time>2026-05-01T20:25:34.001Z</time></trkpt><trkpt lat="46.60921578924568" lon="13.89269825450945"><ele>491.0</ele><time>2026-05-01T20:25:35.001Z</time></trkpt><trkpt lat="46.60899328387117" lon="13.892522096787504"><ele>490.0</ele><time>2026-05-01T20:25:36.001Z</time></trkpt><trkpt lat="46.608772240569216" lon="13.892347297377919"><ele>489.0</ele><time>2026-05-01T20:25:37.001Z</time></trkpt><trkpt lat="46.608551973205486" lon="13.892171661205403"><ele>488.0</ele><time>2026-05-01T20:25:38.001Z</time></trkpt><trkpt lat="46.60832617447696" lon="13.891995268518006"><ele>487.0</ele><time>2026-05-01T20:25:39.001Z</time></trkpt><trkpt lat="46.608107779806495" lon="13.89181690445107"><ele>487.0</ele><time>2026-05-01T20:25:40Z</time></trkpt><trkpt lat="46.60788257746058" lon="13.891640604914011"><ele>487.0</ele><time>2026-05-01T20:25:41Z</time></trkpt><trkpt lat="46.607654398779765" lon="13.89146450932849"><ele>486.5</ele><time>2026-05-01T20:25:42Z</time></trkpt><trkpt lat="46.60743608886985" lon="13.891287197747598"><ele>486.0</ele><time>2026-05-01T20:25:43Z</time></trkpt><trkpt lat="46.607211969351255" lon="13.89111077579682"><ele>487.5</ele><time>2026-05-01T20:25:44Z</time></trkpt><trkpt lat="46.60698843173532" lon="13.890935239953027"><ele>489.0</ele><time>2026-05-01T20:25:45Z</time></trkpt><trkpt lat="46.60676235942566" lon="13.890759620879757"><ele>489.0</ele><time>2026-05-01T20:25:46Z</time></trkpt><trkpt lat="46.606540703002416" lon="13.890586896961883"><ele>489.0</ele><time>2026-05-01T20:25:47Z</time></trkpt><trkpt lat="46.60632704700828" lon="13.890414323909429"><ele>496.0</ele><time>2026-05-01T20:25:48Z</time></trkpt><trkpt lat="46.60610368575601" lon="13.890241190819452"><ele>503.0</ele><time>2026-05-01T20:25:49Z</time></trkpt><trkpt lat="46.60588906288172" lon="13.89006762480573"><ele>503.0</ele><time>2026-05-01T20:25:50Z</time></trkpt><trkpt lat="46.60567268573629" lon="13.889895149676525"><ele>503.0</ele><time>2026-05-01T20:25:51Z</time></trkpt><trkpt lat="46.605457833986584" lon="13.88972343829922"><ele>506.5</ele><time>2026-05-01T20:25:52Z</time></trkpt><trkpt lat="46.605248236546394" lon="13.889552675882081"><ele>510.0</ele><time>2026-05-01T20:25:53Z</time></trkpt><trkpt lat="46.605036419259314" lon="13.889383040771895"><ele>509.5</ele><time>2026-05-01T20:25:54Z</time></trkpt><trkpt lat="46.60483036706199" lon="13.889211402018923"><ele>509.0</ele><time>2026-05-01T20:25:55Z</time></trkpt><trkpt lat="46.60461403074239" lon="13.889045333459363"><ele>509.0</ele><time>2026-05-01T20:25:56Z</time></trkpt><trkpt lat="46.60440180314792" lon="13.888875200406979"><ele>509.0</ele><time>2026-05-01T20:25:57Z</time></trkpt><trkpt lat="46.60419191537113" lon="13.88869803857212"><ele>509.0</ele><time>2026-05-01T20:25:58Z</time></trkpt><trkpt lat="46.60398183027259" lon="13.888518678215782"><ele>509.0</ele><time>2026-05-01T20:25:59Z</time></trkpt><trkpt lat="46.603772547397945" lon="13.888341631282437"><ele>511.5</ele><time>2026-05-01T20:26:00Z</time></trkpt><trkpt lat="46.603556119027445" lon="13.88816335154101"><ele>514.0</ele><time>2026-05-01T20:26:01Z</time></trkpt><trkpt lat="46.60334214894442" lon="13.887985211517611"><ele>514.0</ele><time>2026-05-01T20:26:02Z</time></trkpt><trkpt lat="46.60312741895805" lon="13.88780587777481"><ele>514.0</ele><time>2026-05-01T20:26:03Z</time></trkpt><trkpt lat="46.6029190587477" lon="13.887625475947035"><ele>517.5</ele><time>2026-05-01T20:26:04Z</time></trkpt><trkpt lat="46.60270309934701" lon="13.887442346379771"><ele>521.0</ele><time>2026-05-01T20:26:05Z</time></trkpt><trkpt lat="46.602488612031436" lon="13.887253881625172"><ele>521.0</ele><time>2026-05-01T20:26:06Z</time></trkpt><trkpt lat="46.6022810157769" lon="13.887073946802005"><ele>521.0</ele><time>2026-05-01T20:26:07Z</time></trkpt><trkpt lat="46.60207167072733" lon="13.886887182086841"><ele>519.5</ele><time>2026-05-01T20:26:08Z</time></trkpt><trkpt lat="46.601865418330256" lon="13.886704061258044"><ele>518.0</ele><time>2026-05-01T20:26:09Z</time></trkpt><trkpt lat="46.6016606551077" lon="13.88651693128131"><ele>518.0</ele><time>2026-05-01T20:26:10Z</time></trkpt><trkpt lat="46.60145402412028" lon="13.886327582690512"><ele>518.0</ele><time>2026-05-01T20:26:11Z</time></trkpt><trkpt lat="46.60124509955544" lon="13.886136251705661"><ele>519.5</ele><time>2026-05-01T20:26:12Z</time></trkpt><trkpt lat="46.60104375700061" lon="13.885951259148484"><ele>521.0</ele><time>2026-05-01T20:26:13Z</time></trkpt><trkpt lat="46.60084432727525" lon="13.885762998321068"><ele>521.0</ele><time>2026-05-01T20:26:14Z</time></trkpt><trkpt lat="46.60064187385694" lon="13.885570374721377"><ele>521.0</ele><time>2026-05-01T20:26:15Z</time></trkpt><trkpt lat="46.60043807618406" lon="13.88537427327725"><ele>521.0</ele><time>2026-05-01T20:26:16Z</time></trkpt><trkpt lat="46.60024178110418" lon="13.88517866162768"><ele>521.0</ele><time>2026-05-01T20:26:17Z</time></trkpt><trkpt lat="46.600045442626026" lon="13.884982754644682"><ele>521.0</ele><time>2026-05-01T20:26:18.001Z</time></trkpt><trkpt lat="46.59984447436874" lon="13.884782440542235"><ele>521.0</ele><time>2026-05-01T20:26:19.001Z</time></trkpt><trkpt lat="46.59964272114336" lon="13.884582637424973"><ele>522.0</ele><time>2026-05-01T20:26:20.001Z</time></trkpt><trkpt lat="46.59944541521123" lon="13.884378967648987"><ele>523.0</ele><time>2026-05-01T20:26:21.001Z</time></trkpt><trkpt lat="46.59924726567302" lon="13.884173478372169"><ele>519.5</ele><time>2026-05-01T20:26:22.001Z</time></trkpt><trkpt lat="46.59905315383332" lon="13.883967435070206"><ele>516.0</ele><time>2026-05-01T20:26:23.001Z</time></trkpt><trkpt lat="46.598861974940654" lon="13.883764928374228"><ele>516.0</ele><time>2026-05-01T20:26:24.001Z</time></trkpt><trkpt lat="46.59868661714952" lon="13.88356966717462"><ele>516.0</ele><time>2026-05-01T20:26:25.001Z</time></trkpt><trkpt lat="46.598504271014505" lon="13.883363343009183"><ele>515.0</ele><time>2026-05-01T20:26:26.001Z</time></trkpt><trkpt lat="46.5983195941155" lon="13.883147383975752"><ele>514.0</ele><time>2026-05-01T20:26:27.001Z</time></trkpt><trkpt lat="46.59813236566648" lon="13.882926137471387"><ele>514.0</ele><time>2026-05-01T20:26:28.001Z</time></trkpt><trkpt lat="46.59794699115899" lon="13.88270713127935"><ele>514.0</ele><time>2026-05-01T20:26:29.001Z</time></trkpt><trkpt lat="46.597753407104705" lon="13.882479779754807"><ele>516.0</ele><time>2026-05-01T20:26:30.001Z</time></trkpt><trkpt lat="46.59756292841458" lon="13.882257569235586"><ele>518.0</ele><time>2026-05-01T20:26:31.001Z</time></trkpt><trkpt lat="46.59737616858702" lon="13.882033903979378"><ele>518.0</ele><time>2026-05-01T20:26:32.001Z</time></trkpt><trkpt lat="46.59718846743978" lon="13.8818046900745"><ele>518.0</ele><time>2026-05-01T20:26:33.001Z</time></trkpt><trkpt lat="46.59700311600524" lon="13.881566430418394"><ele>518.5</ele><time>2026-05-01T20:26:34.001Z</time></trkpt><trkpt lat="46.59682152463074" lon="13.881323302017885"><ele>519.0</ele><time>2026-05-01T20:26:35.001Z</time></trkpt><trkpt lat="46.596639508963534" lon="13.881078712882237"><ele>518.0</ele><time>2026-05-01T20:26:36.001Z</time></trkpt><trkpt lat="46.59645594292451" lon="13.880828903172526"><ele>517.0</ele><time>2026-05-01T20:26:37.001Z</time></trkpt><trkpt lat="46.596273450266885" lon="13.88058365231533"><ele>518.0</ele><time>2026-05-01T20:26:38.001Z</time></trkpt><trkpt lat="46.596094268676126" lon="13.880331974521562"><ele>519.0</ele><time>2026-05-01T20:26:39.001Z</time></trkpt><trkpt lat="46.59591515470703" lon="13.880080255504625"><ele>519.0</ele><time>2026-05-01T20:26:40.001Z</time></trkpt><trkpt lat="46.595738912761675" lon="13.879819396989742"><ele>519.0</ele><time>2026-05-01T20:26:41.001Z</time></trkpt><trkpt lat="46.59556296335037" lon="13.87955564213826"><ele>519.0</ele><time>2026-05-01T20:26:42.001Z</time></trkpt><trkpt lat="46.59538796623732" lon="13.879291016062067"><ele>519.0</ele><time>2026-05-01T20:26:43.001Z</time></trkpt><trkpt lat="46.59521404150695" lon="13.879027659587612"><ele>519.5</ele><time>2026-05-01T20:26:44.001Z</time></trkpt><trkpt lat="46.59504702984644" lon="13.878763254148755"><ele>520.0</ele><time>2026-05-01T20:26:45.001Z</time></trkpt><trkpt lat="46.594877484024764" lon="13.87849477613379"><ele>518.5</ele><time>2026-05-01T20:26:46.001Z</time></trkpt><trkpt lat="46.59471149153634" lon="13.878224609770024"><ele>517.0</ele><time>2026-05-01T20:26:47.001Z</time></trkpt><trkpt lat="46.59455035781282" lon="13.877958944825167"><ele>517.5</ele><time>2026-05-01T20:26:48.001Z</time></trkpt><trkpt lat="46.59439081272353" lon="13.877687231572487"><ele>518.0</ele><time>2026-05-01T20:26:49.001Z</time></trkpt><trkpt lat="46.59423156049451" lon="13.877414457195375"><ele>518.5</ele><time>2026-05-01T20:26:50.001Z</time></trkpt><trkpt lat="46.59407520307181" lon="13.877139491379102"><ele>519.0</ele><time>2026-05-01T20:26:51.001Z</time></trkpt><trkpt lat="46.59391811590214" lon="13.876861399354066"><ele>520.5</ele><time>2026-05-01T20:26:52.001Z</time></trkpt><trkpt lat="46.59376498987751" lon="13.876583376186916"><ele>522.0</ele><time>2026-05-01T20:26:53.001Z</time></trkpt><trkpt lat="46.59361253678361" lon="13.876300705207377"><ele>522.0</ele><time>2026-05-01T20:26:54.001Z</time></trkpt><trkpt lat="46.59346255951823" lon="13.876020415710501"><ele>522.0</ele><time>2026-05-01T20:26:55.001Z</time></trkpt><trkpt lat="46.593312895513286" lon="13.875736711327423"><ele>521.0</ele><time>2026-05-01T20:26:56.001Z</time></trkpt><trkpt lat="46.59316805877681" lon="13.875453271527126"><ele>520.0</ele><time>2026-05-01T20:26:57.001Z</time></trkpt><trkpt lat="46.59302409930226" lon="13.875165199287048"><ele>519.5</ele><time>2026-05-01T20:26:58.001Z</time></trkpt><trkpt lat="46.59288278951369" lon="13.874876590651409"><ele>519.0</ele><time>2026-05-01T20:26:59.001Z</time></trkpt><trkpt lat="46.5927449984995" lon="13.874587759276979"><ele>522.0</ele><time>2026-05-01T20:27:00.001Z</time></trkpt><trkpt lat="46.59260953918788" lon="13.874293732568583"><ele>525.0</ele><time>2026-05-01T20:27:01.001Z</time></trkpt><trkpt lat="46.59247348485017" lon="13.873995496930984"><ele>525.0</ele><time>2026-05-01T20:27:02.001Z</time></trkpt><trkpt lat="46.59233929486027" lon="13.87369824645446"><ele>525.0</ele><time>2026-05-01T20:27:03.001Z</time></trkpt><trkpt lat="46.592203274923484" lon="13.873396533265064"><ele>526.0</ele><time>2026-05-01T20:27:04.001Z</time></trkpt><trkpt lat="46.592069883246786" lon="13.873096615603615"><ele>527.0</ele><time>2026-05-01T20:27:05.001Z</time></trkpt><trkpt lat="46.59193484826327" lon="13.872792328396473"><ele>525.5</ele><time>2026-05-01T20:27:06.001Z</time></trkpt><trkpt lat="46.59179858999941" lon="13.87248610446247"><ele>524.0</ele><time>2026-05-01T20:27:07.001Z</time></trkpt><trkpt lat="46.59166972027906" lon="13.872174068665453"><ele>524.0</ele><time>2026-05-01T20:27:08.001Z</time></trkpt><trkpt lat="46.59153349932145" lon="13.871873218057308"><ele>524.0</ele><time>2026-05-01T20:27:09.001Z</time></trkpt><trkpt lat="46.591405169285046" lon="13.871563262683727"><ele>524.5</ele><time>2026-05-01T20:27:10.001Z</time></trkpt><trkpt lat="46.591279755771204" lon="13.87124935332971"><ele>525.0</ele><time>2026-05-01T20:27:11.001Z</time></trkpt><trkpt lat="46.591153683527416" lon="13.870933919496526"><ele>525.0</ele><time>2026-05-01T20:27:12.001Z</time></trkpt><trkpt lat="46.5910307311322" lon="13.870616597048885"><ele>525.0</ele><time>2026-05-01T20:27:13.001Z</time></trkpt><trkpt lat="46.59090958500415" lon="13.870301865430758"><ele>525.0</ele><time>2026-05-01T20:27:14.001Z</time></trkpt><trkpt lat="46.59078863955028" lon="13.869985178483327"><ele>525.0</ele><time>2026-05-01T20:27:15.001Z</time></trkpt><trkpt lat="46.59066340016456" lon="13.869664140435141"><ele>525.0</ele><time>2026-05-01T20:27:16.001Z</time></trkpt><trkpt lat="46.59054515869294" lon="13.869347540192983"><ele>525.0</ele><time>2026-05-01T20:27:17.001Z</time></trkpt><trkpt lat="46.590426384247735" lon="13.869027053946025"><ele>524.5</ele><time>2026-05-01T20:27:18.001Z</time></trkpt><trkpt lat="46.59030932237035" lon="13.868710233053726"><ele>524.0</ele><time>2026-05-01T20:27:19.001Z</time></trkpt><trkpt lat="46.59019359974664" lon="13.868390441211815"><ele>523.5</ele><time>2026-05-01T20:27:20.001Z</time></trkpt><trkpt lat="46.59008098811883" lon="13.86807639926836"><ele>523.0</ele><time>2026-05-01T20:27:21.001Z</time></trkpt><trkpt lat="46.589970992095594" lon="13.867774209818295"><ele>522.6666666666667</ele><time>2026-05-01T20:27:22.001Z</time></trkpt><trkpt lat="46.58987040588897" lon="13.867498623379925"><ele>522.3333333333334</ele><time>2026-05-01T20:27:23.001Z</time></trkpt><trkpt lat="46.58976952143231" lon="13.86721608003252"><ele>522.0</ele><time>2026-05-01T20:27:24.001Z</time></trkpt><trkpt lat="46.58967179466304" lon="13.866933720586532"><ele>521.3333333333334</ele><time>2026-05-01T20:27:25.001Z</time></trkpt><trkpt lat="46.589572612663225" lon="13.866645674631192"><ele>520.6666666666667</ele><time>2026-05-01T20:27:26.001Z</time></trkpt><trkpt lat="46.589473435157466" lon="13.866357538693796"><ele>520.0</ele><time>2026-05-01T20:27:27.001Z</time></trkpt><trkpt lat="46.589373966502585" lon="13.86606869863557"><ele>522.0</ele><time>2026-05-01T20:27:28.001Z</time></trkpt><trkpt lat="46.58927414739456" lon="13.865779838392497"><ele>524.0</ele><time>2026-05-01T20:27:29.001Z</time></trkpt><trkpt lat="46.58917370315282" lon="13.865488221271457"><ele>526.0</ele><time>2026-05-01T20:27:30.001Z</time></trkpt><trkpt lat="46.58907322275071" lon="13.865192834068246"><ele>526.0</ele><time>2026-05-01T20:27:31.001Z</time></trkpt><trkpt lat="46.58897336729854" lon="13.864899068381906"><ele>526.0</ele><time>2026-05-01T20:27:32.001Z</time></trkpt><trkpt lat="46.58887384002863" lon="13.864606357991653"><ele>526.0</ele><time>2026-05-01T20:27:33.001Z</time></trkpt><trkpt lat="46.58877465269405" lon="13.864307378907592"><ele>526.0</ele><time>2026-05-01T20:27:34.001Z</time></trkpt><trkpt lat="46.588677258659025" lon="13.864009964930469"><ele>525.5</ele><time>2026-05-01T20:27:35.001Z</time></trkpt><trkpt lat="46.588582492477386" lon="13.863709123583858"><ele>525.0</ele><time>2026-05-01T20:27:36.001Z</time></trkpt><trkpt lat="46.58848869770946" lon="13.863409532125683"><ele>524.0</ele><time>2026-05-01T20:27:37.001Z</time></trkpt><trkpt lat="46.588392209937304" lon="13.863112520216367"><ele>523.0</ele><time>2026-05-01T20:27:38.001Z</time></trkpt><trkpt lat="46.588295164917476" lon="13.86281179045033"><ele>522.5</ele><time>2026-05-01T20:27:39.001Z</time></trkpt><trkpt lat="46.58819688547808" lon="13.862514870061608"><ele>522.0</ele><time>2026-05-01T20:27:40.001Z</time></trkpt><trkpt lat="46.588098818425266" lon="13.862219098655164"><ele>522.0</ele><time>2026-05-01T20:27:41.001Z</time></trkpt><trkpt lat="46.58800055677225" lon="13.861923645178523"><ele>522.0</ele><time>2026-05-01T20:27:42.001Z</time></trkpt><trkpt lat="46.58790358712102" lon="13.861623698820603"><ele>523.0</ele><time>2026-05-01T20:27:43.001Z</time></trkpt><trkpt lat="46.58780746366967" lon="13.861328562518088"><ele>524.0</ele><time>2026-05-01T20:27:44.001Z</time></trkpt><trkpt lat="46.58771505646849" lon="13.861037581125188"><ele>525.0</ele><time>2026-05-01T20:27:45.001Z</time></trkpt><trkpt lat="46.58762262349976" lon="13.860749141895045"><ele>525.6666666666666</ele><time>2026-05-01T20:27:46Z</time></trkpt><trkpt lat="46.58753036072756" lon="13.860464161426862"><ele>526.3333333333333</ele><time>2026-05-01T20:27:47Z</time></trkpt><trkpt lat="46.587438113233375" lon="13.86017670212332"><ele>527.0</ele><time>2026-05-01T20:27:48Z</time></trkpt><trkpt lat="46.58734532736856" lon="13.85988872446702"><ele>527.0</ele><time>2026-05-01T20:27:49Z</time></trkpt><trkpt lat="46.58725236305007" lon="13.859601737913572"><ele>527.0</ele><time>2026-05-01T20:27:50Z</time></trkpt><trkpt lat="46.587160685539125" lon="13.859314093647212"><ele>527.0</ele><time>2026-05-01T20:27:51Z</time></trkpt><trkpt lat="46.58706820576596" lon="13.859026056582392"><ele>528.0</ele><time>2026-05-01T20:27:52Z</time></trkpt><trkpt lat="46.58697391197158" lon="13.858739170162284"><ele>529.0</ele><time>2026-05-01T20:27:53Z</time></trkpt><trkpt lat="46.58687850320935" lon="13.85845440106566"><ele>530.0</ele><time>2026-05-01T20:27:54Z</time></trkpt><trkpt lat="46.58678307773806" lon="13.858167522041496"><ele>530.0</ele><time>2026-05-01T20:27:55Z</time></trkpt><trkpt lat="46.58668764899256" lon="13.857880475426224"><ele>530.0</ele><time>2026-05-01T20:27:56Z</time></trkpt><trkpt lat="46.586594163796946" lon="13.857589142669504"><ele>530.0</ele><time>2026-05-01T20:27:57Z</time></trkpt><trkpt lat="46.58650198053465" lon="13.857299588814614"><ele>530.0</ele><time>2026-05-01T20:27:58Z</time></trkpt><trkpt lat="46.58640850259816" lon="13.85700489224249"><ele>530.0</ele><time>2026-05-01T20:27:59Z</time></trkpt><trkpt lat="46.586313758537386" lon="13.856708006810667"><ele>530.0</ele><time>2026-05-01T20:28:00Z</time></trkpt><trkpt lat="46.58621878601864" lon="13.856409491599289"><ele>533.5</ele><time>2026-05-01T20:28:01Z</time></trkpt><trkpt lat="46.58612523559585" lon="13.856109917986469"><ele>537.0</ele><time>2026-05-01T20:28:02Z</time></trkpt><trkpt lat="46.58602892823321" lon="13.855807742877507"><ele>537.0</ele><time>2026-05-01T20:28:03Z</time></trkpt><trkpt lat="46.58593006428288" lon="13.855507853415197"><ele>537.0</ele><time>2026-05-01T20:28:04Z</time></trkpt><trkpt lat="46.58582933341046" lon="13.855206484462885"><ele>534.5</ele><time>2026-05-01T20:28:05Z</time></trkpt><trkpt lat="46.585727974144504" lon="13.854903988612618"><ele>532.0</ele><time>2026-05-01T20:28:06Z</time></trkpt><trkpt lat="46.585626097585525" lon="13.85459877202089"><ele>532.0</ele><time>2026-05-01T20:28:07Z</time></trkpt><trkpt lat="46.58552245563507" lon="13.854288768721169"><ele>532.0</ele><time>2026-05-01T20:28:08Z</time></trkpt><trkpt lat="46.58541689796608" lon="13.853976029253031"><ele>533.5</ele><time>2026-05-01T20:28:09Z</time></trkpt><trkpt lat="46.58531202931161" lon="13.853662487071364"><ele>535.0</ele><time>2026-05-01T20:28:10Z</time></trkpt><trkpt lat="46.58520596522725" lon="13.853346920268931"><ele>535.0</ele><time>2026-05-01T20:28:11Z</time></trkpt><trkpt lat="46.58509564752662" lon="13.85302843669849"><ele>535.0</ele><time>2026-05-01T20:28:12Z</time></trkpt><trkpt lat="46.58498395224125" lon="13.852711684698292"><ele>532.0</ele><time>2026-05-01T20:28:13Z</time></trkpt><trkpt lat="46.58487124010136" lon="13.852393700193838"><ele>529.0</ele><time>2026-05-01T20:28:14Z</time></trkpt><trkpt lat="46.58475721053605" lon="13.852074661481577"><ele>528.0</ele><time>2026-05-01T20:28:15Z</time></trkpt><trkpt lat="46.58464100560693" lon="13.851757372962735"><ele>527.0</ele><time>2026-05-01T20:28:16Z</time></trkpt><trkpt lat="46.58452224867789" lon="13.8514412715255"><ele>530.0</ele><time>2026-05-01T20:28:17Z</time></trkpt><trkpt lat="46.584399823756726" lon="13.851120465522412"><ele>533.0</ele><time>2026-05-01T20:28:18Z</time></trkpt><trkpt lat="46.58427852400962" lon="13.850808177619601"><ele>533.0</ele><time>2026-05-01T20:28:19Z</time></trkpt><trkpt lat="46.58416306694556" lon="13.850509328698063"><ele>533.0</ele><time>2026-05-01T20:28:20Z</time></trkpt><trkpt lat="46.584039313609324" lon="13.850197163685266"><ele>532.5</ele><time>2026-05-01T20:28:21Z</time></trkpt><trkpt lat="46.58390738652953" lon="13.849875862442959"><ele>532.0</ele><time>2026-05-01T20:28:22Z</time></trkpt><trkpt lat="46.58377168031801" lon="13.849551846917878"><ele>536.5</ele><time>2026-05-01T20:28:23Z</time></trkpt><trkpt lat="46.58363438953724" lon="13.84923087864536"><ele>541.0</ele><time>2026-05-01T20:28:24Z</time></trkpt><trkpt lat="46.58349648241032" lon="13.848911683932487"><ele>541.0</ele><time>2026-05-01T20:28:25Z</time></trkpt><trkpt lat="46.58335223754363" lon="13.848593408706325"><ele>541.0</ele><time>2026-05-01T20:28:26Z</time></trkpt><trkpt lat="46.58320604518193" lon="13.848276818900636"><ele>538.5</ele><time>2026-05-01T20:28:27Z</time></trkpt><trkpt lat="46.58305711585761" lon="13.847964541161463"><ele>536.0</ele><time>2026-05-01T20:28:28Z</time></trkpt><trkpt lat="46.5829048596831" lon="13.847653929290512"><ele>540.0</ele><time>2026-05-01T20:28:29Z</time></trkpt><trkpt lat="46.582750657529296" lon="13.847346110238925"><ele>544.0</ele><time>2026-05-01T20:28:30Z</time></trkpt><trkpt lat="46.58259164457165" lon="13.847043578307328"><ele>537.0</ele><time>2026-05-01T20:28:31Z</time></trkpt><trkpt lat="46.58242937714455" lon="13.84674302401479"><ele>530.0</ele><time>2026-05-01T20:28:32.001Z</time></trkpt><trkpt lat="46.58226351614715" lon="13.84644667631398"><ele>530.0</ele><time>2026-05-01T20:28:33.001Z</time></trkpt><trkpt lat="46.58209416147139" lon="13.846153615005262"><ele>530.0</ele><time>2026-05-01T20:28:34.001Z</time></trkpt><trkpt lat="46.58192325166544" lon="13.845861897155384"><ele>536.0</ele><time>2026-05-01T20:28:35.001Z</time></trkpt><trkpt lat="46.581750277130865" lon="13.845572619316954"><ele>542.0</ele><time>2026-05-01T20:28:36.001Z</time></trkpt><trkpt lat="46.58157531826984" lon="13.845289065209947"><ele>539.0</ele><time>2026-05-01T20:28:37.001Z</time></trkpt><trkpt lat="46.58139828987865" lon="13.845010197515215"><ele>536.0</ele><time>2026-05-01T20:28:38.001Z</time></trkpt><trkpt lat="46.581218686483105" lon="13.844734096097076"><ele>538.0</ele><time>2026-05-01T20:28:39.001Z</time></trkpt><trkpt lat="46.58103604098014" lon="13.844460668751019"><ele>540.0</ele><time>2026-05-01T20:28:40.001Z</time></trkpt><trkpt lat="46.580851188057174" lon="13.844189393571126"><ele>540.0</ele><time>2026-05-01T20:28:41.001Z</time></trkpt><trkpt lat="46.580663958531844" lon="13.843923309592691"><ele>540.0</ele><time>2026-05-01T20:28:42.001Z</time></trkpt><trkpt lat="46.58047491916636" lon="13.84366303789882"><ele>541.0</ele><time>2026-05-01T20:28:43.001Z</time></trkpt><trkpt lat="46.58028272981186" lon="13.843406610576212"><ele>542.0</ele><time>2026-05-01T20:28:44.001Z</time></trkpt><trkpt lat="46.5800870555924" lon="13.843152744338157"><ele>542.0</ele><time>2026-05-01T20:28:45.001Z</time></trkpt><trkpt lat="46.57988959321593" lon="13.842905227563216"><ele>542.0</ele><time>2026-05-01T20:28:46.001Z</time></trkpt><trkpt lat="46.5796891754355" lon="13.842657845724274"><ele>542.0</ele><time>2026-05-01T20:28:47.001Z</time></trkpt><trkpt lat="46.57948712813882" lon="13.842408835750089"><ele>542.0</ele><time>2026-05-01T20:28:48.001Z</time></trkpt><trkpt lat="46.5792835930351" lon="13.842159520222411"><ele>542.0</ele><time>2026-05-01T20:28:49.001Z</time></trkpt><trkpt lat="46.579080873782246" lon="13.841914669139454"><ele>542.0</ele><time>2026-05-01T20:28:50.001Z</time></trkpt><trkpt lat="46.57887529681368" lon="13.841669901932178"><ele>537.5</ele><time>2026-05-01T20:28:51.001Z</time></trkpt><trkpt lat="46.578666746271516" lon="13.841424205833443"><ele>533.0</ele><time>2026-05-01T20:28:52.001Z</time></trkpt><trkpt lat="46.57845984253996" lon="13.841181385972066"><ele>528.5</ele><time>2026-05-01T20:28:53.001Z</time></trkpt><trkpt lat="46.57825295447206" lon="13.840938199265722"><ele>524.0</ele><time>2026-05-01T20:28:54.001Z</time></trkpt><trkpt lat="46.57804601299621" lon="13.840697704423368"><ele>515.5</ele><time>2026-05-01T20:28:55.001Z</time></trkpt><trkpt lat="46.577835249802796" lon="13.840455544098107"><ele>507.0</ele><time>2026-05-01T20:28:56.001Z</time></trkpt><trkpt lat="46.57762359052503" lon="13.840213596696547"><ele>504.5</ele><time>2026-05-01T20:28:57.001Z</time></trkpt><trkpt lat="46.577411813386256" lon="13.839968652411448"><ele>502.0</ele><time>2026-05-01T20:28:58.001Z</time></trkpt><trkpt lat="46.5772016004432" lon="13.83972310923906"><ele>502.5</ele><time>2026-05-01T20:28:59.001Z</time></trkpt><trkpt lat="46.57699256056677" lon="13.839478126463927"><ele>503.0</ele><time>2026-05-01T20:29:00.001Z</time></trkpt><trkpt lat="46.57678236169928" lon="13.839232760699836"><ele>506.5</ele><time>2026-05-01T20:29:01.001Z</time></trkpt><trkpt lat="46.57657121466642" lon="13.838989193125116"><ele>510.0</ele><time>2026-05-01T20:29:02.001Z</time></trkpt><trkpt lat="46.5763589536444" lon="13.838744694854157"><ele>511.5</ele><time>2026-05-01T20:29:03.001Z</time></trkpt><trkpt lat="46.576147321320036" lon="13.83849905077801"><ele>513.0</ele><time>2026-05-01T20:29:04.001Z</time></trkpt><trkpt lat="46.57593594919332" lon="13.838250272088588"><ele>513.0</ele><time>2026-05-01T20:29:05.001Z</time></trkpt><trkpt lat="46.57572527316596" lon="13.838000714103499"><ele>513.0</ele><time>2026-05-01T20:29:06.001Z</time></trkpt><trkpt lat="46.57551269182335" lon="13.8377529011663"><ele>509.5</ele><time>2026-05-01T20:29:07.001Z</time></trkpt><trkpt lat="46.57530069948041" lon="13.837505122937955"><ele>506.0</ele><time>2026-05-01T20:29:08.001Z</time></trkpt><trkpt lat="46.57508867235507" lon="13.837258940365754"><ele>506.0</ele><time>2026-05-01T20:29:09.001Z</time></trkpt><trkpt lat="46.57487468202876" lon="13.837016032950528"><ele>506.0</ele><time>2026-05-01T20:29:10.001Z</time></trkpt><trkpt lat="46.57466207128152" lon="13.836773584611203"><ele>516.0</ele><time>2026-05-01T20:29:11.001Z</time></trkpt><trkpt lat="46.574450164152005" lon="13.836525344455774"><ele>526.0</ele><time>2026-05-01T20:29:12.001Z</time></trkpt><trkpt lat="46.574242460166026" lon="13.836272051916996"><ele>526.0</ele><time>2026-05-01T20:29:13.001Z</time></trkpt><trkpt lat="46.57403981658791" lon="13.836016553860869"><ele>526.0</ele><time>2026-05-01T20:29:14.001Z</time></trkpt><trkpt lat="46.5738391459702" lon="13.835752347222844"><ele>528.5</ele><time>2026-05-01T20:29:15.001Z</time></trkpt><trkpt lat="46.573639448240634" lon="13.835481098553549"><ele>531.0</ele><time>2026-05-01T20:29:16.001Z</time></trkpt><trkpt lat="46.573445935866125" lon="13.835203832072823"><ele>529.0</ele><time>2026-05-01T20:29:17.001Z</time></trkpt><trkpt lat="46.5732582777493" lon="13.834924183353325"><ele>527.0</ele><time>2026-05-01T20:29:18.001Z</time></trkpt><trkpt lat="46.57307463106559" lon="13.834637302230828"><ele>527.0</ele><time>2026-05-01T20:29:19.001Z</time></trkpt><trkpt lat="46.572899412190246" lon="13.834338132520744"><ele>527.0</ele><time>2026-05-01T20:29:20.001Z</time></trkpt><trkpt lat="46.5727298972647" lon="13.83403409434479"><ele>528.0</ele><time>2026-05-01T20:29:21.001Z</time></trkpt><trkpt lat="46.5725718045796" lon="13.833721635782451"><ele>529.0</ele><time>2026-05-01T20:29:22.001Z</time></trkpt><trkpt lat="46.57242124372375" lon="13.833398758577943"><ele>527.0</ele><time>2026-05-01T20:29:23.001Z</time></trkpt><trkpt lat="46.57228000324624" lon="13.833067106104455"><ele>525.0</ele><time>2026-05-01T20:29:24.001Z</time></trkpt><trkpt lat="46.57214921872293" lon="13.83273106453844"><ele>528.5</ele><time>2026-05-01T20:29:25.001Z</time></trkpt><trkpt lat="46.57202444939724" lon="13.83238757541721"><ele>532.0</ele><time>2026-05-01T20:29:26.001Z</time></trkpt><trkpt lat="46.57190752230303" lon="13.832038549814822"><ele>525.0</ele><time>2026-05-01T20:29:27.001Z</time></trkpt><trkpt lat="46.57179864298363" lon="13.83168165282165"><ele>518.0</ele><time>2026-05-01T20:29:28.001Z</time></trkpt><trkpt lat="46.57170207280525" lon="13.83132010953981"><ele>519.5</ele><time>2026-05-01T20:29:29.001Z</time></trkpt><trkpt lat="46.57161652829373" lon="13.830952671470325"><ele>521.0</ele><time>2026-05-01T20:29:30.001Z</time></trkpt><trkpt lat="46.57154202563732" lon="13.830582398589282"><ele>521.0</ele><time>2026-05-01T20:29:31.001Z</time></trkpt><trkpt lat="46.57147366719717" lon="13.830208753732796"><ele>521.0</ele><time>2026-05-01T20:29:32.001Z</time></trkpt><trkpt lat="46.57141341857632" lon="13.829836757894933"><ele>521.0</ele><time>2026-05-01T20:29:33.001Z</time></trkpt><trkpt lat="46.57136128870599" lon="13.829457268788031"><ele>521.0</ele><time>2026-05-01T20:29:34.001Z</time></trkpt><trkpt lat="46.571321762376485" lon="13.82908274330207"><ele>522.5</ele><time>2026-05-01T20:29:35.001Z</time></trkpt><trkpt lat="46.57129010902927" lon="13.828707307083164"><ele>524.0</ele><time>2026-05-01T20:29:36.001Z</time></trkpt><trkpt lat="46.57126415316954" lon="13.82833149478559"><ele>524.0</ele><time>2026-05-01T20:29:37.001Z</time></trkpt><trkpt lat="46.57124118781066" lon="13.827950997712215"><ele>524.0</ele><time>2026-05-01T20:29:38.001Z</time></trkpt><trkpt lat="46.5712219197974" lon="13.82757620038479"><ele>524.0</ele><time>2026-05-01T20:29:39.001Z</time></trkpt><trkpt lat="46.57120511280111" lon="13.82719765708877"><ele>524.0</ele><time>2026-05-01T20:29:40.001Z</time></trkpt><trkpt lat="46.571191478892565" lon="13.82682356613438"><ele>523.5</ele><time>2026-05-01T20:29:41.001Z</time></trkpt><trkpt lat="46.57117992673747" lon="13.826453090488261"><ele>523.0</ele><time>2026-05-01T20:29:42.001Z</time></trkpt><trkpt lat="46.571169134889004" lon="13.82608262479604"><ele>522.0</ele><time>2026-05-01T20:29:43.001Z</time></trkpt><trkpt lat="46.57115904111266" lon="13.825712222230074"><ele>521.0</ele><time>2026-05-01T20:29:44.001Z</time></trkpt><trkpt lat="46.57115000476655" lon="13.82534594261984"><ele>520.5</ele><time>2026-05-01T20:29:45.001Z</time></trkpt><trkpt lat="46.571140958527785" lon="13.82498057389704"><ele>520.0</ele><time>2026-05-01T20:29:46.001Z</time></trkpt><trkpt lat="46.57113230431742" lon="13.82461413902475"><ele>520.0</ele><time>2026-05-01T20:29:47.001Z</time></trkpt><trkpt lat="46.57112140611388" lon="13.824248213128046"><ele>520.0</ele><time>2026-05-01T20:29:48.001Z</time></trkpt><trkpt lat="46.57110611858281" lon="13.82388197174818"><ele>520.0</ele><time>2026-05-01T20:29:49.001Z</time></trkpt><trkpt lat="46.57108796364566" lon="13.823520507980781"><ele>520.0</ele><time>2026-05-01T20:29:50.001Z</time></trkpt><trkpt lat="46.57106658970714" lon="13.82315426130136"><ele>520.0</ele><time>2026-05-01T20:29:51.001Z</time></trkpt><trkpt lat="46.57104065165586" lon="13.822786985998956"><ele>520.0</ele><time>2026-05-01T20:29:52Z</time></trkpt><trkpt lat="46.57100901480684" lon="13.822418788716975"><ele>520.0</ele><time>2026-05-01T20:29:53Z</time></trkpt><trkpt lat="46.57097363578906" lon="13.822054633240487"><ele>520.0</ele><time>2026-05-01T20:29:54Z</time></trkpt><trkpt lat="46.570937417597875" lon="13.821687391739054"><ele>519.0</ele><time>2026-05-01T20:29:55Z</time></trkpt><trkpt lat="46.57089935463133" lon="13.821332332524433"><ele>518.0</ele><time>2026-05-01T20:29:56Z</time></trkpt><trkpt lat="46.57085553366585" lon="13.820972506649706"><ele>517.0</ele><time>2026-05-01T20:29:57Z</time></trkpt><trkpt lat="46.570804584366655" lon="13.820615712627156"><ele>516.0</ele><time>2026-05-01T20:29:58Z</time></trkpt><trkpt lat="46.57074654111293" lon="13.82026400226688"><ele>515.5</ele><time>2026-05-01T20:29:59Z</time></trkpt><trkpt lat="46.57068473196208" lon="13.81991407208107"><ele>515.0</ele><time>2026-05-01T20:30:00Z</time></trkpt><trkpt lat="46.57062271180775" lon="13.819563597329052"><ele>514.5</ele><time>2026-05-01T20:30:01Z</time></trkpt><trkpt lat="46.570558678439546" lon="13.81920962505128"><ele>514.0</ele><time>2026-05-01T20:30:02Z</time></trkpt><trkpt lat="46.57049360899344" lon="13.818858249159947"><ele>514.0</ele><time>2026-05-01T20:30:03Z</time></trkpt><trkpt lat="46.570427731962624" lon="13.818507404106276"><ele>514.0</ele><time>2026-05-01T20:30:04Z</time></trkpt><trkpt lat="46.57036278402284" lon="13.818157176951592"><ele>513.5</ele><time>2026-05-01T20:30:05Z</time></trkpt><trkpt lat="46.570301036882945" lon="13.817805753827354"><ele>513.0</ele><time>2026-05-01T20:30:06Z</time></trkpt><trkpt lat="46.57024069940818" lon="13.817450751736605"><ele>512.5</ele><time>2026-05-01T20:30:07Z</time></trkpt><trkpt lat="46.57018468410256" lon="13.817094017510147"><ele>512.0</ele><time>2026-05-01T20:30:08Z</time></trkpt><trkpt lat="46.5701300313398" lon="13.816735222725434"><ele>510.5</ele><time>2026-05-01T20:30:09Z</time></trkpt><trkpt lat="46.57007820705235" lon="13.8163744859652"><ele>509.0</ele><time>2026-05-01T20:30:10Z</time></trkpt><trkpt lat="46.57002781463275" lon="13.816011226736713"><ele>509.0</ele><time>2026-05-01T20:30:11Z</time></trkpt><trkpt lat="46.56997893532353" lon="13.815645210808341"><ele>509.0</ele><time>2026-05-01T20:30:12Z</time></trkpt><trkpt lat="46.569940160250106" lon="13.815296552077152"><ele>508.0</ele><time>2026-05-01T20:30:13Z</time></trkpt><trkpt lat="46.5699043277246" lon="13.814946851177952"><ele>507.0</ele><time>2026-05-01T20:30:14Z</time></trkpt><trkpt lat="46.569870686053534" lon="13.814613915686603"><ele>507.0</ele><time>2026-05-01T20:30:15Z</time></trkpt><trkpt lat="46.569842147758465" lon="13.814266382387379"><ele>507.0</ele><time>2026-05-01T20:30:16Z</time></trkpt><trkpt lat="46.56981656984791" lon="13.813903270192123"><ele>507.0</ele><time>2026-05-01T20:30:17Z</time></trkpt><trkpt lat="46.56979692860826" lon="13.81353016477225"><ele>507.0</ele><time>2026-05-01T20:30:18Z</time></trkpt><trkpt lat="46.569780496983284" lon="13.813153656432961"><ele>509.5</ele><time>2026-05-01T20:30:19Z</time></trkpt><trkpt lat="46.56976546084746" lon="13.812773555042757"><ele>512.0</ele><time>2026-05-01T20:30:20Z</time></trkpt><trkpt lat="46.56975592898422" lon="13.812389501293264"><ele>512.0</ele><time>2026-05-01T20:30:21Z</time></trkpt><trkpt lat="46.569750199533146" lon="13.81200292580308"><ele>512.0</ele><time>2026-05-01T20:30:22Z</time></trkpt><trkpt lat="46.56974868719582" lon="13.811614608596278"><ele>512.0</ele><time>2026-05-01T20:30:23Z</time></trkpt><trkpt lat="46.56975080752161" lon="13.811219024458337"><ele>512.0</ele><time>2026-05-01T20:30:24Z</time></trkpt><trkpt lat="46.56976373960867" lon="13.810843220814382"><ele>512.0</ele><time>2026-05-01T20:30:25Z</time></trkpt><trkpt lat="46.56977644729795" lon="13.810454956453984"><ele>512.0</ele><time>2026-05-01T20:30:26Z</time></trkpt><trkpt lat="46.56979067648427" lon="13.810070175321162"><ele>512.0</ele><time>2026-05-01T20:30:27Z</time></trkpt><trkpt lat="46.569807823564304" lon="13.809682448451667"><ele>512.0</ele><time>2026-05-01T20:30:28Z</time></trkpt><trkpt lat="46.56983063493297" lon="13.809303332734503"><ele>512.5</ele><time>2026-05-01T20:30:29Z</time></trkpt><trkpt lat="46.56985619880461" lon="13.808924983812352"><ele>513.0</ele><time>2026-05-01T20:30:30Z</time></trkpt><trkpt lat="46.56988340786643" lon="13.808550730329829"><ele>512.0</ele><time>2026-05-01T20:30:31Z</time></trkpt><trkpt lat="46.569908936423026" lon="13.808174068577594"><ele>511.0</ele><time>2026-05-01T20:30:32Z</time></trkpt><trkpt lat="46.569921794957224" lon="13.807802710780635"><ele>510.0</ele><time>2026-05-01T20:30:33Z</time></trkpt><trkpt lat="46.56995263146412" lon="13.807436869018737"><ele>509.0</ele><time>2026-05-01T20:30:34Z</time></trkpt><trkpt lat="46.569972757745624" lon="13.807062219058196"><ele>508.5</ele><time>2026-05-01T20:30:35Z</time></trkpt><trkpt lat="46.56999757417585" lon="13.806687240445148"><ele>508.0</ele><time>2026-05-01T20:30:36Z</time></trkpt><trkpt lat="46.570019487485766" lon="13.806315863891026"><ele>508.0</ele><time>2026-05-01T20:30:37Z</time></trkpt><trkpt lat="46.570042261364954" lon="13.805944567893327"><ele>508.0</ele><time>2026-05-01T20:30:38Z</time></trkpt><trkpt lat="46.570056962118095" lon="13.805561500127588"><ele>508.0</ele><time>2026-05-01T20:30:39Z</time></trkpt><trkpt lat="46.570070477830804" lon="13.80518187326844"><ele>508.0</ele><time>2026-05-01T20:30:40Z</time></trkpt><trkpt lat="46.57008479990309" lon="13.804801560999886"><ele>509.5</ele><time>2026-05-01T20:30:41Z</time></trkpt><trkpt lat="46.57008880975388" lon="13.804419925102088"><ele>511.0</ele><time>2026-05-01T20:30:42Z</time></trkpt><trkpt lat="46.57008579885719" lon="13.804030864081753"><ele>512.0</ele><time>2026-05-01T20:30:43.001Z</time></trkpt><trkpt lat="46.57007429778458" lon="13.803637872953791"><ele>513.0</ele><time>2026-05-01T20:30:44.001Z</time></trkpt><trkpt lat="46.5700630837988" lon="13.80324980968173"><ele>510.5</ele><time>2026-05-01T20:30:45.001Z</time></trkpt><trkpt lat="46.57004583954009" lon="13.80285241616062"><ele>508.0</ele><time>2026-05-01T20:30:46.001Z</time></trkpt><trkpt lat="46.570028146949106" lon="13.802466925959527"><ele>508.0</ele><time>2026-05-01T20:30:47.001Z</time></trkpt><trkpt lat="46.57000321480685" lon="13.802073917146291"><ele>508.0</ele><time>2026-05-01T20:30:48.001Z</time></trkpt><trkpt lat="46.56997430294564" lon="13.801679674082008"><ele>507.0</ele><time>2026-05-01T20:30:49.001Z</time></trkpt><trkpt lat="46.5699434910793" lon="13.801283676956798"><ele>506.0</ele><time>2026-05-01T20:30:50.001Z</time></trkpt><trkpt lat="46.56990722813232" lon="13.800887721484418"><ele>506.0</ele><time>2026-05-01T20:30:51.001Z</time></trkpt><trkpt lat="46.5698687857802" lon="13.800484650091194"><ele>506.0</ele><time>2026-05-01T20:30:52.001Z</time></trkpt><trkpt lat="46.56982989389132" lon="13.800091504433887"><ele>505.5</ele><time>2026-05-01T20:30:53.001Z</time></trkpt><trkpt lat="46.569782212682185" lon="13.799704167759643"><ele>505.0</ele><time>2026-05-01T20:30:54.001Z</time></trkpt><trkpt lat="46.56972286558823" lon="13.799307650873239"><ele>504.5</ele><time>2026-05-01T20:30:55.001Z</time></trkpt><trkpt lat="46.56966739958236" lon="13.798917191084376"><ele>504.0</ele><time>2026-05-01T20:30:56.001Z</time></trkpt><trkpt lat="46.56960477296906" lon="13.798525163508096"><ele>504.0</ele><time>2026-05-01T20:30:57.001Z</time></trkpt><trkpt lat="46.5695496917727" lon="13.798135824426918"><ele>504.0</ele><time>2026-05-01T20:30:58.001Z</time></trkpt><trkpt lat="46.56949493490591" lon="13.797746699508451"><ele>505.0</ele><time>2026-05-01T20:30:59.001Z</time></trkpt><trkpt lat="46.56943449655057" lon="13.797356139341609"><ele>506.0</ele><time>2026-05-01T20:31:00.001Z</time></trkpt><trkpt lat="46.56937973242452" lon="13.796970248617347"><ele>506.0</ele><time>2026-05-01T20:31:01.001Z</time></trkpt><trkpt lat="46.569324618579834" lon="13.796583064095541"><ele>506.0</ele><time>2026-05-01T20:31:02.001Z</time></trkpt><trkpt lat="46.569262113027975" lon="13.796198269116365"><ele>505.5</ele><time>2026-05-01T20:31:03.001Z</time></trkpt><trkpt lat="46.56919926160367" lon="13.795818332322883"><ele>505.0</ele><time>2026-05-01T20:31:04.001Z</time></trkpt><trkpt lat="46.56914563349724" lon="13.795438507177122"><ele>507.5</ele><time>2026-05-01T20:31:05.001Z</time></trkpt><trkpt lat="46.56908939487984" lon="13.795053543719634"><ele>510.0</ele><time>2026-05-01T20:31:06.001Z</time></trkpt><trkpt lat="46.56903046014523" lon="13.794671003706974"><ele>511.5</ele><time>2026-05-01T20:31:07.001Z</time></trkpt><trkpt lat="46.56897572798196" lon="13.794292512802802"><ele>513.0</ele><time>2026-05-01T20:31:08.001Z</time></trkpt><trkpt lat="46.56892092499397" lon="13.793908283854412"><ele>513.0</ele><time>2026-05-01T20:31:09.001Z</time></trkpt><trkpt lat="46.56886672856454" lon="13.793544829787743"><ele>513.0</ele><time>2026-05-01T20:31:10.001Z</time></trkpt><trkpt lat="46.5688194305737" lon="13.793208306918979"><ele>513.0</ele><time>2026-05-01T20:31:11.001Z</time></trkpt><trkpt lat="46.56877470854169" lon="13.792893037148524"><ele>513.0</ele><time>2026-05-01T20:31:12.001Z</time></trkpt><trkpt lat="46.56873762771361" lon="13.792581037755008"><ele>513.0</ele><time>2026-05-01T20:31:13.001Z</time></trkpt><trkpt lat="46.568708840290796" lon="13.792289542212304"><ele>512.0</ele><time>2026-05-01T20:31:14.001Z</time></trkpt><trkpt lat="46.56865523197641" lon="13.791933026244854"><ele>511.0</ele><time>2026-05-01T20:31:15.001Z</time></trkpt><trkpt lat="46.56860939630623" lon="13.79165884045166"><ele>510.0</ele><time>2026-05-01T20:31:16.001Z</time></trkpt><trkpt lat="46.56857206347384" lon="13.791397318647595"><ele>510.0</ele><time>2026-05-01T20:31:17.001Z</time></trkpt><trkpt lat="46.56853515664375" lon="13.791143459349325"><ele>510.0</ele><time>2026-05-01T20:31:18.001Z</time></trkpt><trkpt lat="46.56849664101724" lon="13.790885316286142"><ele>510.0</ele><time>2026-05-01T20:31:19.001Z</time></trkpt><trkpt lat="46.568451699248484" lon="13.790624088661799"><ele>510.33333333333337</ele><time>2026-05-01T20:31:20.001Z</time></trkpt><trkpt lat="46.568411085173814" lon="13.790359392385705"><ele>510.6666666666667</ele><time>2026-05-01T20:31:21.001Z</time></trkpt><trkpt lat="46.56836952942721" lon="13.790100321281745"><ele>511.0</ele><time>2026-05-01T20:31:22.001Z</time></trkpt><trkpt lat="46.5683333289433" lon="13.78982906810189"><ele>511.0</ele><time>2026-05-01T20:31:23.001Z</time></trkpt><trkpt lat="46.56829635641024" lon="13.789561273331586"><ele>511.0</ele><time>2026-05-01T20:31:24.001Z</time></trkpt><trkpt lat="46.568255870242815" lon="13.789298565104545"><ele>511.0</ele><time>2026-05-01T20:31:25.001Z</time></trkpt><trkpt lat="46.568213366330724" lon="13.789033199001224"><ele>511.33333333333337</ele><time>2026-05-01T20:31:26.001Z</time></trkpt><trkpt lat="46.56817191239234" lon="13.788767435997114"><ele>511.66666666666663</ele><time>2026-05-01T20:31:27.001Z</time></trkpt><trkpt lat="46.56813177218304" lon="13.788500746235357"><ele>512.0</ele><time>2026-05-01T20:31:28.001Z</time></trkpt><trkpt lat="46.56808878139331" lon="13.788226247727874"><ele>510.66666666666663</ele><time>2026-05-01T20:31:29.001Z</time></trkpt><trkpt lat="46.56804697429132" lon="13.787955739729854"><ele>509.33333333333337</ele><time>2026-05-01T20:31:30.001Z</time></trkpt><trkpt lat="46.56800925683679" lon="13.787688319648204"><ele>508.0</ele><time>2026-05-01T20:31:31.001Z</time></trkpt><trkpt lat="46.567971212873765" lon="13.787420938582018"><ele>508.33333333333337</ele><time>2026-05-01T20:31:32.001Z</time></trkpt><trkpt lat="46.56793079605697" lon="13.787153742089941"><ele>508.66666666666663</ele><time>2026-05-01T20:31:33.001Z</time></trkpt><trkpt lat="46.56789188337527" lon="13.78688806986286"><ele>509.0</ele><time>2026-05-01T20:31:34.001Z</time></trkpt><trkpt lat="46.56785209015799" lon="13.78662524919249"><ele>509.0</ele><time>2026-05-01T20:31:35.001Z</time></trkpt><trkpt lat="46.56781362493261" lon="13.786358263629262"><ele>509.0</ele><time>2026-05-01T20:31:36.001Z</time></trkpt><trkpt lat="46.567775140133364" lon="13.786086048424368"><ele>509.0</ele><time>2026-05-01T20:31:37.001Z</time></trkpt><trkpt lat="46.56773481820157" lon="13.7858243754495"><ele>508.66666666666663</ele><time>2026-05-01T20:31:38.001Z</time></trkpt><trkpt lat="46.567693545281806" lon="13.78555311583359"><ele>508.33333333333337</ele><time>2026-05-01T20:31:39.001Z</time></trkpt><trkpt lat="46.56765191271409" lon="13.785285819084796"><ele>508.0</ele><time>2026-05-01T20:31:40.001Z</time></trkpt><trkpt lat="46.56761192739573" lon="13.785023602500557"><ele>508.0</ele><time>2026-05-01T20:31:41.001Z</time></trkpt><trkpt lat="46.56757203321472" lon="13.784755961550344"><ele>508.0</ele><time>2026-05-01T20:31:42.001Z</time></trkpt><trkpt lat="46.567532073795114" lon="13.7844904623575"><ele>508.0</ele><time>2026-05-01T20:31:43.001Z</time></trkpt><trkpt lat="46.56748954404271" lon="13.784226219146325"><ele>508.0</ele><time>2026-05-01T20:31:44.001Z</time></trkpt><trkpt lat="46.567449475402135" lon="13.783957652406313"><ele>508.0</ele><time>2026-05-01T20:31:45.001Z</time></trkpt><trkpt lat="46.567404509517225" lon="13.78369312216218"><ele>508.0</ele><time>2026-05-01T20:31:46.001Z</time></trkpt><trkpt lat="46.567360138163075" lon="13.783428885661149"><ele>508.0</ele><time>2026-05-01T20:31:47.001Z</time></trkpt><trkpt lat="46.56731481647565" lon="13.783162002543124"><ele>508.0</ele><time>2026-05-01T20:31:48.001Z</time></trkpt><trkpt lat="46.56727028349316" lon="13.782895205344197"><ele>508.0</ele><time>2026-05-01T20:31:49.001Z</time></trkpt><trkpt lat="46.56722460704614" lon="13.782629704844755"><ele>509.0</ele><time>2026-05-01T20:31:50.001Z</time></trkpt><trkpt lat="46.5671786276307" lon="13.782362929108814"><ele>510.0</ele><time>2026-05-01T20:31:51.001Z</time></trkpt><trkpt lat="46.567132104294856" lon="13.782098061052313"><ele>511.0</ele><time>2026-05-01T20:31:52.001Z</time></trkpt><trkpt lat="46.567083593166316" lon="13.781831205130874"><ele>512.6666666666667</ele><time>2026-05-01T20:31:53.001Z</time></trkpt><trkpt lat="46.56703210574191" lon="13.781567331155745"><ele>514.3333333333334</ele><time>2026-05-01T20:31:54.001Z</time></trkpt><trkpt lat="46.566980510956924" lon="13.781296492976946"><ele>516.0</ele><time>2026-05-01T20:31:55.001Z</time></trkpt><trkpt lat="46.56692598235719" lon="13.781030817077639"><ele>516.3333333333334</ele><time>2026-05-01T20:31:56.001Z</time></trkpt><trkpt lat="46.56687056267162" lon="13.78076907884728"><ele>516.6666666666667</ele><time>2026-05-01T20:31:57Z</time></trkpt><trkpt lat="46.566811922291016" lon="13.7804969259205"><ele>517.0</ele><time>2026-05-01T20:31:58Z</time></trkpt><trkpt lat="46.56675277236546" lon="13.780236066736059"><ele>516.6666666666667</ele><time>2026-05-01T20:31:59Z</time></trkpt><trkpt lat="46.566693303483156" lon="13.779974112063863"><ele>516.3333333333334</ele><time>2026-05-01T20:32:00Z</time></trkpt><trkpt lat="46.56663234460729" lon="13.779707571599465"><ele>516.0</ele><time>2026-05-01T20:32:01Z</time></trkpt><trkpt lat="46.566569839807435" lon="13.779446144447679"><ele>517.0</ele><time>2026-05-01T20:32:02Z</time></trkpt><trkpt lat="46.56650720830007" lon="13.779185491818472"><ele>518.0</ele><time>2026-05-01T20:32:03Z</time></trkpt><trkpt lat="46.56644276819136" lon="13.77892509087407"><ele>519.0</ele><time>2026-05-01T20:32:04Z</time></trkpt><trkpt lat="46.56637561493027" lon="13.77865947668499"><ele>519.3333333333334</ele><time>2026-05-01T20:32:05Z</time></trkpt><trkpt lat="46.56630802733171" lon="13.778398468016166"><ele>519.6666666666667</ele><time>2026-05-01T20:32:06Z</time></trkpt><trkpt lat="46.56623887500058" lon="13.778140444538755"><ele>520.0</ele><time>2026-05-01T20:32:07Z</time></trkpt><trkpt lat="46.56616741204173" lon="13.777876026571231"><ele>519.3333333333334</ele><time>2026-05-01T20:32:08Z</time></trkpt><trkpt lat="46.5660942403398" lon="13.777619375582294"><ele>518.6666666666666</ele><time>2026-05-01T20:32:09Z</time></trkpt><trkpt lat="46.56601764520803" lon="13.777357011140506"><ele>518.0</ele><time>2026-05-01T20:32:10Z</time></trkpt><trkpt lat="46.565938515477114" lon="13.777098648099873"><ele>518.0</ele><time>2026-05-01T20:32:11Z</time></trkpt><trkpt lat="46.56585654825956" lon="13.776841097467276"><ele>518.0</ele><time>2026-05-01T20:32:12Z</time></trkpt><trkpt lat="46.56577618687113" lon="13.77658680013727"><ele>518.0</ele><time>2026-05-01T20:32:13Z</time></trkpt><trkpt lat="46.56569535003383" lon="13.776329532888886"><ele>518.0</ele><time>2026-05-01T20:32:14Z</time></trkpt><trkpt lat="46.5656131825249" lon="13.77607638467359"><ele>518.0</ele><time>2026-05-01T20:32:15Z</time></trkpt><trkpt lat="46.565527631269305" lon="13.775822628522489"><ele>518.0</ele><time>2026-05-01T20:32:16Z</time></trkpt><trkpt lat="46.5654389612466" lon="13.775569513318969"><ele>518.6666666666666</ele><time>2026-05-01T20:32:17Z</time></trkpt><trkpt lat="46.565350560435455" lon="13.775317270626322"><ele>519.3333333333334</ele><time>2026-05-01T20:32:18Z</time></trkpt><trkpt lat="46.56526213976223" lon="13.77506617926666"><ele>520.0</ele><time>2026-05-01T20:32:19Z</time></trkpt><trkpt lat="46.565174681576096" lon="13.774820130312847"><ele>520.0</ele><time>2026-05-01T20:32:20Z</time></trkpt><trkpt lat="46.565086844645045" lon="13.774574735151305"><ele>520.0</ele><time>2026-05-01T20:32:21Z</time></trkpt><trkpt lat="46.564993375311175" lon="13.774337463075035"><ele>520.0</ele><time>2026-05-01T20:32:22Z</time></trkpt><trkpt lat="46.56489822716131" lon="13.77407999375272"><ele>520.3333333333334</ele><time>2026-05-01T20:32:23Z</time></trkpt><trkpt lat="46.56480398141554" lon="13.773839261738717"><ele>520.6666666666666</ele><time>2026-05-01T20:32:24Z</time></trkpt><trkpt lat="46.56470265278364" lon="13.773592817637521"><ele>521.0</ele><time>2026-05-01T20:32:25Z</time></trkpt><trkpt lat="46.564603205860024" lon="13.773348284629938"><ele>522.0</ele><time>2026-05-01T20:32:26Z</time></trkpt><trkpt lat="46.56450573844887" lon="13.77310879507957"><ele>523.0</ele><time>2026-05-01T20:32:27Z</time></trkpt><trkpt lat="46.564405653133086" lon="13.772870365286181"><ele>524.0</ele><time>2026-05-01T20:32:28Z</time></trkpt><trkpt lat="46.56430492329564" lon="13.77263857356007"><ele>524.0</ele><time>2026-05-01T20:32:29Z</time></trkpt><trkpt lat="46.564204860952756" lon="13.77241460391974"><ele>524.0</ele><time>2026-05-01T20:32:30Z</time></trkpt><trkpt lat="46.56410235343662" lon="13.772183846044173"><ele>524.0</ele><time>2026-05-01T20:32:31Z</time></trkpt><trkpt lat="46.56399649240534" lon="13.77195000499319"><ele>524.0</ele><time>2026-05-01T20:32:32Z</time></trkpt><trkpt lat="46.56388627028019" lon="13.771714308446484"><ele>524.0</ele><time>2026-05-01T20:32:33Z</time></trkpt><trkpt lat="46.56377346669127" lon="13.771475528487397"><ele>524.0</ele><time>2026-05-01T20:32:34Z</time></trkpt><trkpt lat="46.56366033036664" lon="13.771244183223718"><ele>523.0</ele><time>2026-05-01T20:32:35Z</time></trkpt><trkpt lat="46.56354408573964" lon="13.771007743111747"><ele>522.0</ele><time>2026-05-01T20:32:36Z</time></trkpt><trkpt lat="46.563426702004186" lon="13.770769144152492"><ele>521.0</ele><time>2026-05-01T20:32:37Z</time></trkpt><trkpt lat="46.56330909357931" lon="13.77052829340234"><ele>521.0</ele><time>2026-05-01T20:32:38Z</time></trkpt><trkpt lat="46.56319728323098" lon="13.77029834889219"><ele>521.0</ele><time>2026-05-01T20:32:39Z</time></trkpt><trkpt lat="46.56307420983799" lon="13.770051993637397"><ele>521.0</ele><time>2026-05-01T20:32:40Z</time></trkpt><trkpt lat="46.56295257807343" lon="13.769818514610309"><ele>521.3333333333333</ele><time>2026-05-01T20:32:41Z</time></trkpt><trkpt lat="46.56282745218775" lon="13.769586890950174"><ele>521.6666666666666</ele><time>2026-05-01T20:32:42Z</time></trkpt><trkpt lat="46.562701716210356" lon="13.769354268069101"><ele>522.0</ele><time>2026-05-01T20:32:43Z</time></trkpt><trkpt lat="46.56257935088306" lon="13.769122188257974"><ele>522.0</ele><time>2026-05-01T20:32:44Z</time></trkpt><trkpt lat="46.56245258016602" lon="13.768884148785716"><ele>522.0</ele><time>2026-05-01T20:32:45Z</time></trkpt><trkpt lat="46.56232455342085" lon="13.768647930911499"><ele>522.0</ele><time>2026-05-01T20:32:46Z</time></trkpt><trkpt lat="46.56219906648987" lon="13.768417269091136"><ele>522.0</ele><time>2026-05-01T20:32:47Z</time></trkpt><trkpt lat="46.56207204831424" lon="13.768180647727172"><ele>522.0</ele><time>2026-05-01T20:32:48Z</time></trkpt><trkpt lat="46.56194248065794" lon="13.76794539355069"><ele>522.0</ele><time>2026-05-01T20:32:49Z</time></trkpt><trkpt lat="46.561814745753715" lon="13.767712952745251"><ele>520.6666666666666</ele><time>2026-05-01T20:32:50.001Z</time></trkpt><trkpt lat="46.56168425961466" lon="13.767476459846261"><ele>519.3333333333333</ele><time>2026-05-01T20:32:51.001Z</time></trkpt><trkpt lat="46.56155696254046" lon="13.76724926698016"><ele>518.0</ele><time>2026-05-01T20:32:52.001Z</time></trkpt><trkpt lat="46.561428174324064" lon="13.767015205006475"><ele>519.0</ele><time>2026-05-01T20:32:53.001Z</time></trkpt><trkpt lat="46.56129498699761" lon="13.766776520513636"><ele>520.0</ele><time>2026-05-01T20:32:54.001Z</time></trkpt><trkpt lat="46.56116612679537" lon="13.766542666049848"><ele>521.0</ele><time>2026-05-01T20:32:55.001Z</time></trkpt><trkpt lat="46.56104115521237" lon="13.76631215106504"><ele>521.0</ele><time>2026-05-01T20:32:56.001Z</time></trkpt><trkpt lat="46.560912081541325" lon="13.766078685131008"><ele>521.0</ele><time>2026-05-01T20:32:57.001Z</time></trkpt><trkpt lat="46.56078235927935" lon="13.765843331360637"><ele>521.0</ele><time>2026-05-01T20:32:58.001Z</time></trkpt><trkpt lat="46.56065834136626" lon="13.76561163154983"><ele>520.6666666666666</ele><time>2026-05-01T20:32:59.001Z</time></trkpt><trkpt lat="46.56053177574234" lon="13.765378175092177"><ele>520.3333333333334</ele><time>2026-05-01T20:33:00.001Z</time></trkpt><trkpt lat="46.56040400966507" lon="13.765146318095612"><ele>520.0</ele><time>2026-05-01T20:33:01.001Z</time></trkpt><trkpt lat="46.56027430497787" lon="13.76491433039556"><ele>519.3333333333334</ele><time>2026-05-01T20:33:02.001Z</time></trkpt><trkpt lat="46.56015432311304" lon="13.764685476572609"><ele>518.6666666666666</ele><time>2026-05-01T20:33:03.001Z</time></trkpt><trkpt lat="46.560031208352136" lon="13.764451011896016"><ele>518.0</ele><time>2026-05-01T20:33:04.001Z</time></trkpt><trkpt lat="46.559909399676805" lon="13.764216869222384"><ele>518.0</ele><time>2026-05-01T20:33:05.001Z</time></trkpt><trkpt lat="46.559790948528445" lon="13.763978440973053"><ele>518.0</ele><time>2026-05-01T20:33:06.001Z</time></trkpt><trkpt lat="46.55968181432114" lon="13.763746245184118"><ele>518.0</ele><time>2026-05-01T20:33:07.001Z</time></trkpt><trkpt lat="46.55957218033333" lon="13.763512914884473"><ele>517.0</ele><time>2026-05-01T20:33:08.001Z</time></trkpt><trkpt lat="46.5594627418833" lon="13.763278625077758"><ele>516.0</ele><time>2026-05-01T20:33:09.001Z</time></trkpt><trkpt lat="46.55935159174501" lon="13.7630443871911"><ele>515.0</ele><time>2026-05-01T20:33:10.001Z</time></trkpt><trkpt lat="46.55925708924837" lon="13.762811179392589"><ele>516.0</ele><time>2026-05-01T20:33:11.001Z</time></trkpt><trkpt lat="46.559156739993846" lon="13.762573893261832"><ele>517.0</ele><time>2026-05-01T20:33:12.001Z</time></trkpt><trkpt lat="46.55905836234757" lon="13.762335681034376"><ele>518.0</ele><time>2026-05-01T20:33:13.001Z</time></trkpt><trkpt lat="46.55896932743442" lon="13.762095910376592"><ele>518.6666666666666</ele><time>2026-05-01T20:33:14.001Z</time></trkpt><trkpt lat="46.55887852103615" lon="13.761852464579361"><ele>519.3333333333334</ele><time>2026-05-01T20:33:15.001Z</time></trkpt><trkpt lat="46.558787360450246" lon="13.76160291143484"><ele>520.0</ele><time>2026-05-01T20:33:16.001Z</time></trkpt><trkpt lat="46.55870064677113" lon="13.7613509875625"><ele>520.0</ele><time>2026-05-01T20:33:17.001Z</time></trkpt><trkpt lat="46.55862093335483" lon="13.761096331907465"><ele>520.0</ele><time>2026-05-01T20:33:18.001Z</time></trkpt><trkpt lat="46.55854568906383" lon="13.760839603122696"><ele>520.0</ele><time>2026-05-01T20:33:19.001Z</time></trkpt><trkpt lat="46.55846678213472" lon="13.76057449150307"><ele>520.0</ele><time>2026-05-01T20:33:20.001Z</time></trkpt><trkpt lat="46.55839197057655" lon="13.7603106469009"><ele>520.0</ele><time>2026-05-01T20:33:21.001Z</time></trkpt><trkpt lat="46.55832191487352" lon="13.760048669417039"><ele>520.0</ele><time>2026-05-01T20:33:22.001Z</time></trkpt><trkpt lat="46.55825954487028" lon="13.759782265971833"><ele>521.0</ele><time>2026-05-01T20:33:23.001Z</time></trkpt><trkpt lat="46.558196640696856" lon="13.759513572392105"><ele>522.0</ele><time>2026-05-01T20:33:24.001Z</time></trkpt><trkpt lat="46.55814291934836" lon="13.759245769345577"><ele>523.0</ele><time>2026-05-01T20:33:25.001Z</time></trkpt><trkpt lat="46.55808544317369" lon="13.758972552862595"><ele>523.0</ele><time>2026-05-01T20:33:26.001Z</time></trkpt><trkpt lat="46.55803986655299" lon="13.758704530861449"><ele>523.0</ele><time>2026-05-01T20:33:27.001Z</time></trkpt><trkpt lat="46.55798763110117" lon="13.758428450820913"><ele>523.0</ele><time>2026-05-01T20:33:28.001Z</time></trkpt><trkpt lat="46.55794790235775" lon="13.758159217064593"><ele>522.3333333333334</ele><time>2026-05-01T20:33:29.001Z</time></trkpt><trkpt lat="46.55791064444874" lon="13.757885060449714"><ele>521.6666666666666</ele><time>2026-05-01T20:33:30.001Z</time></trkpt><trkpt lat="46.5578747891527" lon="13.757610344964132"><ele>521.0</ele><time>2026-05-01T20:33:31.001Z</time></trkpt><trkpt lat="46.55784787186535" lon="13.757335412147825"><ele>522.6666666666666</ele><time>2026-05-01T20:33:32.001Z</time></trkpt><trkpt lat="46.55782287600644" lon="13.757059574616898"><ele>524.3333333333334</ele><time>2026-05-01T20:33:33.001Z</time></trkpt><trkpt lat="46.55779937166464" lon="13.756783702201318"><ele>526.0</ele><time>2026-05-01T20:33:34.001Z</time></trkpt><trkpt lat="46.557780240114106" lon="13.756506448113651"><ele>526.3333333333334</ele><time>2026-05-01T20:33:35.001Z</time></trkpt><trkpt lat="46.557762632782634" lon="13.75623085115802"><ele>526.6666666666666</ele><time>2026-05-01T20:33:36.001Z</time></trkpt><trkpt lat="46.55775084516008" lon="13.755957697468263"><ele>527.0</ele><time>2026-05-01T20:33:37.001Z</time></trkpt><trkpt lat="46.55774083473876" lon="13.755678417789637"><ele>527.0</ele><time>2026-05-01T20:33:38.001Z</time></trkpt><trkpt lat="46.557736681144306" lon="13.755405560713763"><ele>527.0</ele><time>2026-05-01T20:33:39.001Z</time></trkpt><trkpt lat="46.55774117499849" lon="13.755135586341497"><ele>527.0</ele><time>2026-05-01T20:33:40.001Z</time></trkpt><trkpt lat="46.55774358057778" lon="13.754860152840136"><ele>527.0</ele><time>2026-05-01T20:33:41.001Z</time></trkpt><trkpt lat="46.557750124950736" lon="13.754583853470129"><ele>527.0</ele><time>2026-05-01T20:33:42.001Z</time></trkpt><trkpt lat="46.557758835227965" lon="13.754310122059806"><ele>527.0</ele><time>2026-05-01T20:33:43.001Z</time></trkpt><trkpt lat="46.5577719582352" lon="13.75403423624534"><ele>527.0</ele><time>2026-05-01T20:33:44.001Z</time></trkpt><trkpt lat="46.55778923820167" lon="13.753765926481863"><ele>527.0</ele><time>2026-05-01T20:33:45.001Z</time></trkpt><trkpt lat="46.55780610143612" lon="13.753491511461386"><ele>527.0</ele><time>2026-05-01T20:33:46.001Z</time></trkpt><trkpt lat="46.557827016717525" lon="13.753215240668375"><ele>527.0</ele><time>2026-05-01T20:33:47.001Z</time></trkpt><trkpt lat="46.55785607190273" lon="13.752948726156735"><ele>527.0</ele><time>2026-05-01T20:33:48.001Z</time></trkpt><trkpt lat="46.557888782654224" lon="13.752681965296885"><ele>527.0</ele><time>2026-05-01T20:33:49.001Z</time></trkpt><trkpt lat="46.55792587011842" lon="13.75241463764072"><ele>527.0</ele><time>2026-05-01T20:33:50.001Z</time></trkpt><trkpt lat="46.55796585276054" lon="13.752146349416114"><ele>527.0</ele><time>2026-05-01T20:33:51.001Z</time></trkpt><trkpt lat="46.55800992030717" lon="13.751886645575935"><ele>527.0</ele><time>2026-05-01T20:33:52.001Z</time></trkpt><trkpt lat="46.55805480353793" lon="13.751615731962143"><ele>527.0</ele><time>2026-05-01T20:33:53.001Z</time></trkpt><trkpt lat="46.55810341694669" lon="13.75134957987353"><ele>527.0</ele><time>2026-05-01T20:33:54.001Z</time></trkpt><trkpt lat="46.558155613444534" lon="13.751083446490869"><ele>527.0</ele><time>2026-05-01T20:33:55.001Z</time></trkpt><trkpt lat="46.55821235093746" lon="13.750817670662093"><ele>527.3333333333333</ele><time>2026-05-01T20:33:56.001Z</time></trkpt><trkpt lat="46.55827241800733" lon="13.750564190199198"><ele>527.6666666666666</ele><time>2026-05-01T20:33:57.001Z</time></trkpt><trkpt lat="46.55833879050532" lon="13.75030391028376"><ele>528.0</ele><time>2026-05-01T20:33:58.001Z</time></trkpt><trkpt lat="46.558403229755456" lon="13.750044578686483"><ele>528.3333333333334</ele><time>2026-05-01T20:33:59.001Z</time></trkpt><trkpt lat="46.55846819204292" lon="13.749793142837165"><ele>528.6666666666667</ele><time>2026-05-01T20:34:00.001Z</time></trkpt><trkpt lat="46.558532034135354" lon="13.74955069749648"><ele>529.0</ele><time>2026-05-01T20:34:01.001Z</time></trkpt><trkpt lat="46.55860958413468" lon="13.749283266977178"><ele>529.3333333333334</ele><time>2026-05-01T20:34:02.001Z</time></trkpt><trkpt lat="46.55869284212765" lon="13.749006205294013"><ele>529.6666666666666</ele><time>2026-05-01T20:34:03Z</time></trkpt><trkpt lat="46.55878444338483" lon="13.7487219376837"><ele>530.0</ele><time>2026-05-01T20:34:04Z</time></trkpt><trkpt lat="46.55888406364049" lon="13.748437577101983"><ele>531.5</ele><time>2026-05-01T20:34:05Z</time></trkpt><trkpt lat="46.55899774243008" lon="13.748147419836476"><ele>533.0</ele><time>2026-05-01T20:34:06Z</time></trkpt><trkpt lat="46.55911023869502" lon="13.747857217453145"><ele>533.0</ele><time>2026-05-01T20:34:07Z</time></trkpt><trkpt lat="46.55923576619506" lon="13.74756137705475"><ele>533.0</ele><time>2026-05-01T20:34:08Z</time></trkpt><trkpt lat="46.55936666995272" lon="13.747265273835497"><ele>533.0</ele><time>2026-05-01T20:34:09Z</time></trkpt><trkpt lat="46.559502564298306" lon="13.746979011105385"><ele>533.0</ele><time>2026-05-01T20:34:10Z</time></trkpt><trkpt lat="46.55965166460264" lon="13.746688153786685"><ele>533.5</ele><time>2026-05-01T20:34:11Z</time></trkpt><trkpt lat="46.55980040678145" lon="13.746404247975258"><ele>534.0</ele><time>2026-05-01T20:34:12Z</time></trkpt><trkpt lat="46.55995276503812" lon="13.746125268812131"><ele>533.0</ele><time>2026-05-01T20:34:13Z</time></trkpt><trkpt lat="46.56010751143834" lon="13.745841701642087"><ele>532.0</ele><time>2026-05-01T20:34:14Z</time></trkpt><trkpt lat="46.560262727693285" lon="13.745563179516912"><ele>532.5</ele><time>2026-05-01T20:34:15Z</time></trkpt><trkpt lat="46.56042039823269" lon="13.745288712434075"><ele>533.0</ele><time>2026-05-01T20:34:16Z</time></trkpt><trkpt lat="46.56057712427501" lon="13.745020340360997"><ele>533.0</ele><time>2026-05-01T20:34:17Z</time></trkpt><trkpt lat="46.56074257675097" lon="13.744749795459548"><ele>533.0</ele><time>2026-05-01T20:34:18Z</time></trkpt><trkpt lat="46.56090542247209" lon="13.744481156344609"><ele>533.0</ele><time>2026-05-01T20:34:19Z</time></trkpt><trkpt lat="46.56107406939016" lon="13.744216285014659"><ele>533.0</ele><time>2026-05-01T20:34:20Z</time></trkpt><trkpt lat="46.56124930247124" lon="13.743952125959463"><ele>534.5</ele><time>2026-05-01T20:34:21Z</time></trkpt><trkpt lat="46.561423079372005" lon="13.743687551479466"><ele>536.0</ele><time>2026-05-01T20:34:22Z</time></trkpt><trkpt lat="46.56159784739375" lon="13.743432594062496"><ele>536.0</ele><time>2026-05-01T20:34:23Z</time></trkpt><trkpt lat="46.56177402718457" lon="13.743172174709093"><ele>536.0</ele><time>2026-05-01T20:34:24Z</time></trkpt><trkpt lat="46.56194144486086" lon="13.742908874973628"><ele>535.5</ele><time>2026-05-01T20:34:25Z</time></trkpt><trkpt lat="46.56211054618035" lon="13.742645294255226"><ele>535.0</ele><time>2026-05-01T20:34:26Z</time></trkpt><trkpt lat="46.562280673762345" lon="13.742380219540655"><ele>535.0</ele><time>2026-05-01T20:34:27Z</time></trkpt><trkpt lat="46.56244586644324" lon="13.742114127687227"><ele>535.0</ele><time>2026-05-01T20:34:28Z</time></trkpt><trkpt lat="46.56261850215805" lon="13.741845197828262"><ele>534.5</ele><time>2026-05-01T20:34:29Z</time></trkpt><trkpt lat="46.56278465707702" lon="13.741583744919676"><ele>534.0</ele><time>2026-05-01T20:34:30Z</time></trkpt><trkpt lat="46.562960489679256" lon="13.74131295131614"><ele>534.5</ele><time>2026-05-01T20:34:31Z</time></trkpt><trkpt lat="46.56313029816122" lon="13.74104386928934"><ele>535.0</ele><time>2026-05-01T20:34:32Z</time></trkpt><trkpt lat="46.5632997442814" lon="13.740771828535935"><ele>535.0</ele><time>2026-05-01T20:34:33Z</time></trkpt><trkpt lat="46.5634629130189" lon="13.740501270144637"><ele>535.0</ele><time>2026-05-01T20:34:34Z</time></trkpt><trkpt lat="46.56362725475033" lon="13.740227911124125"><ele>535.0</ele><time>2026-05-01T20:34:35Z</time></trkpt><trkpt lat="46.56379612885329" lon="13.739952859643436"><ele>535.0</ele><time>2026-05-01T20:34:36Z</time></trkpt><trkpt lat="46.563960994697894" lon="13.739677482018656"><ele>535.0</ele><time>2026-05-01T20:34:37Z</time></trkpt><trkpt lat="46.56412655748486" lon="13.739401628976863"><ele>535.0</ele><time>2026-05-01T20:34:38Z</time></trkpt><trkpt lat="46.56428570250397" lon="13.739121747096464"><ele>535.0</ele><time>2026-05-01T20:34:39Z</time></trkpt><trkpt lat="46.56444155973311" lon="13.738842492019561"><ele>535.0</ele><time>2026-05-01T20:34:40Z</time></trkpt><trkpt lat="46.564597832161176" lon="13.738561077093678"><ele>534.5</ele><time>2026-05-01T20:34:41Z</time></trkpt><trkpt lat="46.56474806934735" lon="13.738279891458378"><ele>534.0</ele><time>2026-05-01T20:34:42Z</time></trkpt><trkpt lat="46.56489702695785" lon="13.737994943279794"><ele>535.0</ele><time>2026-05-01T20:34:43Z</time></trkpt><trkpt lat="46.56504384221698" lon="13.73770471309737"><ele>536.0</ele><time>2026-05-01T20:34:44Z</time></trkpt><trkpt lat="46.56518237904997" lon="13.737414375280656"><ele>536.0</ele><time>2026-05-01T20:34:45Z</time></trkpt><trkpt lat="46.56532316275697" lon="13.737121596936817"><ele>536.0</ele><time>2026-05-01T20:34:46Z</time></trkpt><trkpt lat="46.56546423318768" lon="13.736821965022125"><ele>539.5</ele><time>2026-05-01T20:34:47Z</time></trkpt><trkpt lat="46.56559433173155" lon="13.73652560673206"><ele>543.0</ele><time>2026-05-01T20:34:48Z</time></trkpt><trkpt lat="46.565725967354915" lon="13.73622502286227"><ele>543.0</ele><time>2026-05-01T20:34:49Z</time></trkpt><trkpt lat="46.56585813669258" lon="13.735919125351598"><ele>543.0</ele><time>2026-05-01T20:34:50Z</time></trkpt><trkpt lat="46.565978683124655" lon="13.735623076914608"><ele>543.0</ele><time>2026-05-01T20:34:51Z</time></trkpt><trkpt lat="46.5660997391646" lon="13.73531831067077"><ele>543.0</ele><time>2026-05-01T20:34:52Z</time></trkpt><trkpt lat="46.566213407945334" lon="13.735016594186552"><ele>546.0</ele><time>2026-05-01T20:34:53Z</time></trkpt><trkpt lat="46.566330151743976" lon="13.734710746578614"><ele>549.0</ele><time>2026-05-01T20:34:54Z</time></trkpt><trkpt lat="46.566445144657614" lon="13.734425366858705"><ele>547.0</ele><time>2026-05-01T20:34:55Z</time></trkpt><trkpt lat="46.566560317873304" lon="13.734072779273992"><ele>545.0</ele><time>2026-05-01T20:34:56Z</time></trkpt><trkpt lat="46.56666111079261" lon="13.733757825977188"><ele>545.5</ele><time>2026-05-01T20:34:57Z</time></trkpt><trkpt lat="46.56676656143393" lon="13.733442890548837"><ele>546.0</ele><time>2026-05-01T20:34:58Z</time></trkpt><trkpt lat="46.56686872617998" lon="13.733126011651773"><ele>546.0</ele><time>2026-05-01T20:34:59Z</time></trkpt><trkpt lat="46.56697068078969" lon="13.732809505492291"><ele>546.0</ele><time>2026-05-01T20:35:00Z</time></trkpt><trkpt lat="46.567069403755156" lon="13.73248338686818"><ele>545.5</ele><time>2026-05-01T20:35:01Z</time></trkpt><trkpt lat="46.56715644913867" lon="13.732162240079525"><ele>545.0</ele><time>2026-05-01T20:35:02Z</time></trkpt><trkpt lat="46.567241498295054" lon="13.731836991877778"><ele>545.0</ele><time>2026-05-01T20:35:03Z</time></trkpt><trkpt lat="46.567327299396595" lon="13.731508371359341"><ele>545.0</ele><time>2026-05-01T20:35:04.001Z</time></trkpt><trkpt lat="46.567413305243676" lon="13.731176445406149"><ele>542.5</ele><time>2026-05-01T20:35:05.001Z</time></trkpt><trkpt lat="46.567491500753384" lon="13.730845117942264"><ele>540.0</ele><time>2026-05-01T20:35:06.001Z</time></trkpt><trkpt lat="46.56756719725265" lon="13.730514160976616"><ele>540.5</ele><time>2026-05-01T20:35:07.001Z</time></trkpt><trkpt lat="46.56764228909932" lon="13.73017798481557"><ele>541.0</ele><time>2026-05-01T20:35:08.001Z</time></trkpt><trkpt lat="46.56771123828482" lon="13.729842422653599"><ele>541.0</ele><time>2026-05-01T20:35:09.001Z</time></trkpt><trkpt lat="46.56777934123137" lon="13.7295042076986"><ele>541.0</ele><time>2026-05-01T20:35:10.001Z</time></trkpt><trkpt lat="46.56784406928614" lon="13.72916809225468"><ele>541.0</ele><time>2026-05-01T20:35:11.001Z</time></trkpt><trkpt lat="46.56790197258456" lon="13.728829751299774"><ele>541.0</ele><time>2026-05-01T20:35:12.001Z</time></trkpt><trkpt lat="46.56795818521049" lon="13.728490044872903"><ele>541.5</ele><time>2026-05-01T20:35:13.001Z</time></trkpt><trkpt lat="46.56801528178542" lon="13.728146248810573"><ele>542.0</ele><time>2026-05-01T20:35:14.001Z</time></trkpt><trkpt lat="46.56806958158737" lon="13.727806370073294"><ele>542.0</ele><time>2026-05-01T20:35:15.001Z</time></trkpt><trkpt lat="46.56811898671149" lon="13.727469059597333"><ele>542.0</ele><time>2026-05-01T20:35:16.001Z</time></trkpt><trkpt lat="46.56816161377237" lon="13.727132721048214"><ele>541.0</ele><time>2026-05-01T20:35:17.001Z</time></trkpt><trkpt lat="46.56820561123803" lon="13.726792642296976"><ele>540.0</ele><time>2026-05-01T20:35:18.001Z</time></trkpt><trkpt lat="46.568245802317165" lon="13.726454401809344"><ele>540.0</ele><time>2026-05-01T20:35:19.001Z</time></trkpt><trkpt lat="46.568284968516345" lon="13.726113118481786"><ele>540.0</ele><time>2026-05-01T20:35:20.001Z</time></trkpt><trkpt lat="46.56831759358177" lon="13.725775548475301"><ele>540.5</ele><time>2026-05-01T20:35:21.001Z</time></trkpt><trkpt lat="46.568346143766234" lon="13.72543267970876"><ele>541.0</ele><time>2026-05-01T20:35:22.001Z</time></trkpt><trkpt lat="46.56837371613983" lon="13.725094724042822"><ele>541.5</ele><time>2026-05-01T20:35:23.001Z</time></trkpt><trkpt lat="46.568396150199895" lon="13.724756927513981"><ele>542.0</ele><time>2026-05-01T20:35:24.001Z</time></trkpt><trkpt lat="46.56841681877136" lon="13.7244156568119"><ele>542.5</ele><time>2026-05-01T20:35:25.001Z</time></trkpt><trkpt lat="46.568434692508426" lon="13.724075210261677"><ele>543.0</ele><time>2026-05-01T20:35:26.001Z</time></trkpt><trkpt lat="46.5684494325897" lon="13.72373687558424"><ele>544.5</ele><time>2026-05-01T20:35:27.001Z</time></trkpt><trkpt lat="46.568457398886466" lon="13.723403913119506"><ele>546.0</ele><time>2026-05-01T20:35:28.001Z</time></trkpt><trkpt lat="46.568469039142535" lon="13.72306348454219"><ele>545.0</ele><time>2026-05-01T20:35:29.001Z</time></trkpt><trkpt lat="46.5684807140731" lon="13.722722219228746"><ele>544.0</ele><time>2026-05-01T20:35:30.001Z</time></trkpt><trkpt lat="46.568487753778875" lon="13.722388353184925"><ele>544.0</ele><time>2026-05-01T20:35:31.001Z</time></trkpt><trkpt lat="46.56849402834483" lon="13.722050080670693"><ele>544.0</ele><time>2026-05-01T20:35:32.001Z</time></trkpt><trkpt lat="46.568494639921205" lon="13.721716345794286"><ele>543.5</ele><time>2026-05-01T20:35:33.001Z</time></trkpt><trkpt lat="46.56849541158746" lon="13.721381791717612"><ele>543.0</ele><time>2026-05-01T20:35:34.001Z</time></trkpt><trkpt lat="46.56850165833646" lon="13.721044282761614"><ele>543.0</ele><time>2026-05-01T20:35:35.001Z</time></trkpt><trkpt lat="46.56850508533473" lon="13.720705364450506"><ele>543.0</ele><time>2026-05-01T20:35:36.001Z</time></trkpt><trkpt lat="46.56850674795591" lon="13.7203727873519"><ele>543.0</ele><time>2026-05-01T20:35:37.001Z</time></trkpt><trkpt lat="46.5685052538037" lon="13.720038148869222"><ele>543.0</ele><time>2026-05-01T20:35:38.001Z</time></trkpt><trkpt lat="46.56850662611332" lon="13.719702030956618"><ele>543.0</ele><time>2026-05-01T20:35:39.001Z</time></trkpt><trkpt lat="46.56850998305579" lon="13.719362597577023"><ele>543.0</ele><time>2026-05-01T20:35:40.001Z</time></trkpt><trkpt lat="46.568511708101774" lon="13.719030780835164"><ele>543.0</ele><time>2026-05-01T20:35:41.001Z</time></trkpt><trkpt lat="46.56851531528934" lon="13.718693088438016"><ele>543.0</ele><time>2026-05-01T20:35:42.001Z</time></trkpt><trkpt lat="46.568515379050396" lon="13.71836711286069"><ele>543.0</ele><time>2026-05-01T20:35:43.001Z</time></trkpt><trkpt lat="46.56851950658521" lon="13.718029729132546"><ele>543.0</ele><time>2026-05-01T20:35:44.001Z</time></trkpt><trkpt lat="46.568522159798455" lon="13.71769871996859"><ele>545.0</ele><time>2026-05-01T20:35:45.001Z</time></trkpt><trkpt lat="46.56852207057292" lon="13.717375182757358"><ele>547.0</ele><time>2026-05-01T20:35:46.001Z</time></trkpt><trkpt lat="46.56852531429856" lon="13.717044277048439"><ele>549.5</ele><time>2026-05-01T20:35:47.001Z</time></trkpt><trkpt lat="46.56853148260878" lon="13.71671494769272"><ele>552.0</ele><time>2026-05-01T20:35:48.001Z</time></trkpt><trkpt lat="46.568539493814136" lon="13.716383725734104"><ele>553.0</ele><time>2026-05-01T20:35:49.001Z</time></trkpt><trkpt lat="46.56854633937257" lon="13.716058108151001"><ele>554.0</ele><time>2026-05-01T20:35:50.001Z</time></trkpt><trkpt lat="46.568556307329246" lon="13.715729436467361"><ele>554.0</ele><time>2026-05-01T20:35:51.001Z</time></trkpt><trkpt lat="46.56856867277141" lon="13.715396559198552"><ele>554.0</ele><time>2026-05-01T20:35:52.001Z</time></trkpt><trkpt lat="46.56857980436925" lon="13.715077509392543"><ele>554.0</ele><time>2026-05-01T20:35:53.001Z</time></trkpt><trkpt lat="46.56859397394941" lon="13.714776584611124"><ele>554.6666666666666</ele><time>2026-05-01T20:35:54.001Z</time></trkpt><trkpt lat="46.56861310691948" lon="13.714470900979231"><ele>555.3333333333334</ele><time>2026-05-01T20:35:55.001Z</time></trkpt><trkpt lat="46.568633384538195" lon="13.714152307268776"><ele>556.0</ele><time>2026-05-01T20:35:56.001Z</time></trkpt><trkpt lat="46.56865718789391" lon="13.713832268954603"><ele>555.6666666666667</ele><time>2026-05-01T20:35:57.001Z</time></trkpt><trkpt lat="46.56868423226203" lon="13.713506062343992"><ele>555.3333333333334</ele><time>2026-05-01T20:35:58.001Z</time></trkpt><trkpt lat="46.568714185709744" lon="13.71319191435881"><ele>555.0</ele><time>2026-05-01T20:35:59.001Z</time></trkpt><trkpt lat="46.56874539072505" lon="13.712869885537936"><ele>554.0</ele><time>2026-05-01T20:36:00.001Z</time></trkpt><trkpt lat="46.56877840734914" lon="13.712543205665815"><ele>553.0</ele><time>2026-05-01T20:36:01.001Z</time></trkpt><trkpt lat="46.568815674034866" lon="13.712228857310775"><ele>552.0</ele><time>2026-05-01T20:36:02.001Z</time></trkpt><trkpt lat="46.568853442069276" lon="13.711908864626722"><ele>551.0</ele><time>2026-05-01T20:36:03.001Z</time></trkpt><trkpt lat="46.56889456889469" lon="13.711595031463693"><ele>550.0</ele><time>2026-05-01T20:36:04.001Z</time></trkpt><trkpt lat="46.56893958035881" lon="13.711281820124443"><ele>549.0</ele><time>2026-05-01T20:36:05.001Z</time></trkpt><trkpt lat="46.568987761838784" lon="13.710971865709906"><ele>548.6666666666666</ele><time>2026-05-01T20:36:06.001Z</time></trkpt><trkpt lat="46.5690373641835" lon="13.710660228107418"><ele>548.3333333333333</ele><time>2026-05-01T20:36:07.001Z</time></trkpt><trkpt lat="46.569090558999356" lon="13.710352516652577"><ele>548.0</ele><time>2026-05-01T20:36:08.001Z</time></trkpt><trkpt lat="46.56914411336539" lon="13.710040721520775"><ele>548.0</ele><time>2026-05-01T20:36:09Z</time></trkpt><trkpt lat="46.56919813691718" lon="13.709740304122205"><ele>548.0</ele><time>2026-05-01T20:36:10Z</time></trkpt><trkpt lat="46.569253682904844" lon="13.70943183611484"><ele>548.0</ele><time>2026-05-01T20:36:11Z</time></trkpt><trkpt lat="46.5693097196059" lon="13.709129127958459"><ele>548.3333333333333</ele><time>2026-05-01T20:36:12Z</time></trkpt><trkpt lat="46.56936674493145" lon="13.708834351037256"><ele>548.6666666666666</ele><time>2026-05-01T20:36:13Z</time></trkpt><trkpt lat="46.56942277968871" lon="13.70854930731374"><ele>549.0</ele><time>2026-05-01T20:36:14Z</time></trkpt><trkpt lat="46.569478852535404" lon="13.708264190675193"><ele>551.3333333333334</ele><time>2026-05-01T20:36:15Z</time></trkpt><trkpt lat="46.56953389495571" lon="13.707980384492387"><ele>553.6666666666667</ele><time>2026-05-01T20:36:16Z</time></trkpt><trkpt lat="46.569588893350925" lon="13.707698466063615"><ele>556.0</ele><time>2026-05-01T20:36:17Z</time></trkpt><trkpt lat="46.56964364403684" lon="13.707422589765466"><ele>556.0</ele><time>2026-05-01T20:36:18Z</time></trkpt><trkpt lat="46.56969555122072" lon="13.707139199615163"><ele>556.0</ele><time>2026-05-01T20:36:19Z</time></trkpt><trkpt lat="46.56975039694424" lon="13.706854711135403"><ele>556.0</ele><time>2026-05-01T20:36:20Z</time></trkpt><trkpt lat="46.56980655431916" lon="13.706591326493445"><ele>555.6666666666667</ele><time>2026-05-01T20:36:21Z</time></trkpt><trkpt lat="46.56986480954248" lon="13.706318612547905"><ele>555.3333333333334</ele><time>2026-05-01T20:36:22Z</time></trkpt><trkpt lat="46.56992032112101" lon="13.706055060328863"><ele>555.0</ele><time>2026-05-01T20:36:23Z</time></trkpt><trkpt lat="46.5699736841254" lon="13.705794401600084"><ele>554.0</ele><time>2026-05-01T20:36:24Z</time></trkpt><trkpt lat="46.57002326346099" lon="13.705538491454513"><ele>553.0</ele><time>2026-05-01T20:36:25Z</time></trkpt><trkpt lat="46.57006996239233" lon="13.705284065705008"><ele>552.0</ele><time>2026-05-01T20:36:26Z</time></trkpt><trkpt lat="46.570112462178756" lon="13.70503343380988"><ele>550.6666666666666</ele><time>2026-05-01T20:36:27Z</time></trkpt><trkpt lat="46.57015086478302" lon="13.704799262556778"><ele>549.3333333333333</ele><time>2026-05-01T20:36:28Z</time></trkpt><trkpt lat="46.570184940401134" lon="13.704575570459204"><ele>548.0</ele><time>2026-05-01T20:36:29Z</time></trkpt><trkpt lat="46.570217721756116" lon="13.704360371103872"><ele>547.5</ele><time>2026-05-01T20:36:30Z</time></trkpt><trkpt lat="46.57024774845758" lon="13.704167036803462"><ele>547.0</ele><time>2026-05-01T20:36:31Z</time></trkpt><trkpt lat="46.570277405865475" lon="13.703973890300832"><ele>546.5</ele><time>2026-05-01T20:36:32Z</time></trkpt><trkpt lat="46.57031153897751" lon="13.703786957028097"><ele>546.0</ele><time>2026-05-01T20:36:33Z</time></trkpt><trkpt lat="46.570349351448606" lon="13.703616303653337"><ele>547.0</ele><time>2026-05-01T20:36:34Z</time></trkpt><trkpt lat="46.5703892562017" lon="13.703455606163967"><ele>548.0</ele><time>2026-05-01T20:36:35Z</time></trkpt><trkpt lat="46.570436295059174" lon="13.703304095187413"><ele>549.0</ele><time>2026-05-01T20:36:36Z</time></trkpt><trkpt lat="46.57049275814108" lon="13.70315511502379"><ele>550.0</ele><time>2026-05-01T20:36:37Z</time></trkpt><trkpt lat="46.57055459925023" lon="13.703014647628269"><ele>550.0</ele><time>2026-05-01T20:36:38Z</time></trkpt><trkpt lat="46.57062127432817" lon="13.702878669249898"><ele>550.0</ele><time>2026-05-01T20:36:39Z</time></trkpt><trkpt lat="46.57069394183403" lon="13.702747125504267"><ele>550.0</ele><time>2026-05-01T20:36:40Z</time></trkpt><trkpt lat="46.570773427998176" lon="13.702620376229854"><ele>550.0</ele><time>2026-05-01T20:36:41Z</time></trkpt><trkpt lat="46.570857141224664" lon="13.702502955752182"><ele>549.75</ele><time>2026-05-01T20:36:42Z</time></trkpt><trkpt lat="46.57094251980975" lon="13.702385336363113"><ele>549.5</ele><time>2026-05-01T20:36:43Z</time></trkpt><trkpt lat="46.5710335253664" lon="13.702272289408908"><ele>549.25</ele><time>2026-05-01T20:36:44Z</time></trkpt><trkpt lat="46.57111970959124" lon="13.70215655703794"><ele>549.0</ele><time>2026-05-01T20:36:45Z</time></trkpt><trkpt lat="46.57120305550229" lon="13.7020310141864"><ele>548.5</ele><time>2026-05-01T20:36:46Z</time></trkpt><trkpt lat="46.57127788031934" lon="13.701895490981542"><ele>548.0</ele><time>2026-05-01T20:36:47Z</time></trkpt><trkpt lat="46.57134590554157" lon="13.701750721489397"><ele>547.5</ele><time>2026-05-01T20:36:48Z</time></trkpt><trkpt lat="46.57140405802951" lon="13.701599044405455"><ele>547.0</ele><time>2026-05-01T20:36:49Z</time></trkpt><trkpt lat="46.571453999605694" lon="13.70144170842497"><ele>547.0</ele><time>2026-05-01T20:36:50Z</time></trkpt><trkpt lat="46.57149432344007" lon="13.701279193217443"><ele>547.0</ele><time>2026-05-01T20:36:51Z</time></trkpt><trkpt lat="46.57152340466199" lon="13.701111308993408"><ele>547.0</ele><time>2026-05-01T20:36:52Z</time></trkpt><trkpt lat="46.571541217351175" lon="13.700940187480901"><ele>547.0</ele><time>2026-05-01T20:36:53Z</time></trkpt><trkpt lat="46.571529920437705" lon="13.7007700194792"><ele>547.0</ele><time>2026-05-01T20:36:54Z</time></trkpt><trkpt lat="46.57152593116146" lon="13.70059955602154"><ele>547.0</ele><time>2026-05-01T20:36:55Z</time></trkpt><trkpt lat="46.57151527172096" lon="13.700431295976319"><ele>547.0</ele><time>2026-05-01T20:36:56Z</time></trkpt><trkpt lat="46.571495703913946" lon="13.700264833852566"><ele>547.0</ele><time>2026-05-01T20:36:57Z</time></trkpt><trkpt lat="46.571471622728176" lon="13.700096645524697"><ele>547.0</ele><time>2026-05-01T20:36:58Z</time></trkpt><trkpt lat="46.57144845885361" lon="13.699934727851655"><ele>547.0</ele><time>2026-05-01T20:36:59Z</time></trkpt><trkpt lat="46.571425484081395" lon="13.69978042097612"><ele>547.0</ele><time>2026-05-01T20:37:00Z</time></trkpt><trkpt lat="46.571399197784785" lon="13.699632675621665"><ele>547.0</ele><time>2026-05-01T20:37:01Z</time></trkpt><trkpt lat="46.57137192583867" lon="13.699491137729165"><ele>547.0</ele><time>2026-05-01T20:37:02Z</time></trkpt><trkpt lat="46.57134889401345" lon="13.69935742709643"><ele>548.0</ele><time>2026-05-01T20:37:03Z</time></trkpt><trkpt lat="46.571332657896406" lon="13.699236733939333"><ele>549.0</ele><time>2026-05-01T20:37:04Z</time></trkpt><trkpt lat="46.57132492724646" lon="13.699121748967508"><ele>550.0</ele><time>2026-05-01T20:37:05Z</time></trkpt><trkpt lat="46.57132819829696" lon="13.699012068463055"><ele>551.0</ele><time>2026-05-01T20:37:06Z</time></trkpt><trkpt lat="46.571312371879536" lon="13.69891838257787"><ele>552.0</ele><time>2026-05-01T20:37:07Z</time></trkpt><trkpt lat="46.57128128291045" lon="13.698760660200312"><ele>553.0</ele><time>2026-05-01T20:37:09Z</time></trkpt><trkpt lat="46.571240056993865" lon="13.698629361728385"><ele>553.0</ele><time>2026-05-01T20:37:11Z</time></trkpt><trkpt lat="46.5712103791783" lon="13.698524209850065"><ele>553.0</ele><time>2026-05-01T20:37:13Z</time></trkpt><trkpt lat="46.571188835058756" lon="13.698410372302193"><ele>553.0</ele><time>2026-05-01T20:37:15.001Z</time></trkpt><trkpt lat="46.571168040265924" lon="13.698302541980171"><ele>553.0</ele><time>2026-05-01T20:37:17.001Z</time></trkpt><trkpt lat="46.571153581048755" lon="13.69820312677822"><ele>553.0</ele><time>2026-05-01T20:37:20.001Z</time></trkpt><trkpt lat="46.57117838312555" lon="13.698108852994991"><ele>553.0</ele><time>2026-05-01T20:37:23.001Z</time></trkpt><trkpt lat="46.571119836645465" lon="13.698072911392051"><ele>553.0</ele><time>2026-05-01T20:37:34.001Z</time></trkpt><trkpt lat="46.57112341705521" lon="13.6981728893901"><ele>552.1666666666667</ele><time>2026-05-01T20:41:33Z</time></trkpt><trkpt lat="46.571154037918284" lon="13.698272585873077"><ele>551.3333333333334</ele><time>2026-05-01T20:41:38.001Z</time></trkpt><trkpt lat="46.57108982221894" lon="13.698283444640824"><ele>550.5</ele><time>2026-05-01T20:42:49Z</time></trkpt><trkpt lat="46.57102831559483" lon="13.698329738783173"><ele>549.6666666666666</ele><time>2026-05-01T20:43:18Z</time></trkpt><trkpt lat="46.57110858073804" lon="13.698358052123819"><ele>548.8333333333333</ele><time>2026-05-01T20:43:51.001Z</time></trkpt><trkpt lat="46.571101622974695" lon="13.698256157837776"><ele>548.0</ele><time>2026-05-01T20:44:00.001Z</time></trkpt><trkpt lat="46.57109900910667" lon="13.698077671261101"><ele>548.0</ele><time>2026-05-01T20:44:52Z</time></trkpt><trkpt lat="46.571015328455815" lon="13.697991002428747"><ele>548.0</ele><time>2026-05-01T20:45:44Z</time></trkpt><trkpt lat="46.57108086629387" lon="13.698077640236338"><ele>548.0</ele><time>2026-05-01T20:54:03Z</time></trkpt><trkpt lat="46.571163399730224" lon="13.698060164974487"><ele>548.0</ele><time>2026-05-01T20:55:19Z</time></trkpt><trkpt lat="46.57107122153991" lon="13.698093725128876"><ele>548.0</ele><time>2026-05-01T20:56:06Z</time></trkpt><trkpt lat="46.57109194138211" lon="13.697952933235992"><ele>548.0</ele><time>2026-05-01T20:58:45Z</time></trkpt><trkpt lat="46.571074053325134" lon="13.698072832557298"><ele>548.0</ele><time>2026-05-01T20:59:28Z</time></trkpt><trkpt lat="46.57100663018548" lon="13.698023331659515"><ele>548.0</ele><time>2026-05-01T21:04:45Z</time></trkpt><trkpt lat="46.570942038162876" lon="13.69808473945613"><ele>548.0</ele><time>2026-05-01T21:06:06Z</time></trkpt><trkpt lat="46.57095301944579" lon="13.69798756500224"><ele>548.0</ele><time>2026-05-01T21:06:37Z</time></trkpt><trkpt lat="46.570913659045246" lon="13.697913524985605"><ele>548.0</ele><time>2026-05-01T21:06:38Z</time></trkpt><trkpt lat="46.57085968997745" lon="13.697821638484394"><ele>548.0</ele><time>2026-05-01T21:06:40Z</time></trkpt><trkpt lat="46.570921021724665" lon="13.697966008563576"><ele>548.0</ele><time>2026-05-01T21:06:57Z</time></trkpt><trkpt lat="46.57108733991291" lon="13.697993774429033"><ele>548.0</ele><time>2026-05-01T21:07:14.373Z</time></trkpt><trkpt lat="46.571134673654335" lon="13.698074917669162"><ele>548.0</ele><time>2026-05-01T21:10:58.012Z</time></trkpt><trkpt lat="46.57108518410448" lon="13.698008213922977"><ele>548.0</ele><time>2026-05-01T21:11:07.002Z</time></trkpt><trkpt lat="46.5710363896559" lon="13.697873290522006"><ele>548.0</ele><time>2026-05-01T21:11:10Z</time></trkpt><trkpt lat="46.571080655815585" lon="13.69795640574663"><ele>548.0</ele><time>2026-05-01T21:11:30Z</time></trkpt><trkpt lat="46.5710448847819" lon="13.698044512019909"><ele>548.0</ele><time>2026-05-01T21:13:28Z</time></trkpt><trkpt lat="46.57106898816219" lon="13.697933474832784"><ele>548.0</ele><time>2026-05-01T21:16:29Z</time></trkpt><trkpt lat="46.57108512150949" lon="13.697765212852852"><ele>548.0</ele><time>2026-05-01T21:16:31Z</time></trkpt><trkpt lat="46.57109959713493" lon="13.697590219462372"><ele>547.8333333333333</ele><time>2026-05-01T21:16:33Z</time></trkpt><trkpt lat="46.57110272298116" lon="13.697495580400902"><ele>547.6666666666666</ele><time>2026-05-01T21:16:34Z</time></trkpt><trkpt lat="46.57109381231087" lon="13.697316066290849"><ele>547.5</ele><time>2026-05-01T21:16:36Z</time></trkpt><trkpt lat="46.57108540864647" lon="13.697222403122458"><ele>547.3333333333334</ele><time>2026-05-01T21:16:37Z</time></trkpt><trkpt lat="46.5710727812799" lon="13.697123804097135"><ele>547.1666666666667</ele><time>2026-05-01T21:16:38Z</time></trkpt><trkpt lat="46.57105647082162" lon="13.697020256864432"><ele>547.0</ele><time>2026-05-01T21:16:39Z</time></trkpt><trkpt lat="46.57103688724308" lon="13.69691994716541"><ele>547.0</ele><time>2026-05-01T21:16:40Z</time></trkpt><trkpt lat="46.57101554728396" lon="13.696814651401164"><ele>547.0</ele><time>2026-05-01T21:16:41Z</time></trkpt><trkpt lat="46.5709931513228" lon="13.696708003785377"><ele>547.0</ele><time>2026-05-01T21:16:42Z</time></trkpt><trkpt lat="46.57097148762367" lon="13.696593903671786"><ele>547.0</ele><time>2026-05-01T21:16:43Z</time></trkpt><trkpt lat="46.57095229640158" lon="13.69648194677768"><ele>547.0</ele><time>2026-05-01T21:16:44Z</time></trkpt><trkpt lat="46.57093459058375" lon="13.69636741291597"><ele>547.0</ele><time>2026-05-01T21:16:45Z</time></trkpt><trkpt lat="46.57091683154717" lon="13.696251390847236"><ele>547.0</ele><time>2026-05-01T21:16:46Z</time></trkpt><trkpt lat="46.57089637551464" lon="13.696138391176664"><ele>547.0</ele><time>2026-05-01T21:16:47Z</time></trkpt><trkpt lat="46.57087357055719" lon="13.696024806329083"><ele>547.0</ele><time>2026-05-01T21:16:48Z</time></trkpt><trkpt lat="46.57085124554318" lon="13.695915705503152"><ele>547.0</ele><time>2026-05-01T21:16:49Z</time></trkpt><trkpt lat="46.57083088506511" lon="13.695812809068991"><ele>547.0</ele><time>2026-05-01T21:16:50Z</time></trkpt><trkpt lat="46.57081393692529" lon="13.69571996420642"><ele>547.0</ele><time>2026-05-01T21:16:51Z</time></trkpt><trkpt lat="46.57078633834334" lon="13.695561168974548"><ele>547.0</ele><time>2026-05-01T21:16:53Z</time></trkpt><trkpt lat="46.570731985741396" lon="13.695426620204707"><ele>547.0</ele><time>2026-05-01T21:16:55Z</time></trkpt><trkpt lat="46.570635036126205" lon="13.6953308371636"><ele>547.0</ele><time>2026-05-01T21:16:57Z</time></trkpt><trkpt lat="46.570520268966376" lon="13.695303460568452"><ele>547.0</ele><time>2026-05-01T21:16:59Z</time></trkpt><trkpt lat="46.570405721345686" lon="13.695357501459764"><ele>547.2</ele><time>2026-05-01T21:17:01Z</time></trkpt><trkpt lat="46.570320862297855" lon="13.695483455178364"><ele>547.4000000000001</ele><time>2026-05-01T21:17:03Z</time></trkpt><trkpt lat="46.570290020297946" lon="13.695654802860403"><ele>547.5999999999999</ele><time>2026-05-01T21:17:05Z</time></trkpt><trkpt lat="46.57028927825339" lon="13.695750974397424"><ele>547.8</ele><time>2026-05-01T21:17:06Z</time></trkpt><trkpt lat="46.570295369188365" lon="13.695855555648325"><ele>548.0</ele><time>2026-05-01T21:17:07Z</time></trkpt><trkpt lat="46.57030715034054" lon="13.695968236437697"><ele>548.0</ele><time>2026-05-01T21:17:08Z</time></trkpt><trkpt lat="46.5703215948826" lon="13.69608169458071"><ele>548.0</ele><time>2026-05-01T21:17:09Z</time></trkpt><trkpt lat="46.57033708004984" lon="13.696201292404043"><ele>548.0</ele><time>2026-05-01T21:17:10Z</time></trkpt><trkpt lat="46.57035721440796" lon="13.696326345838054"><ele>548.0</ele><time>2026-05-01T21:17:11Z</time></trkpt><trkpt lat="46.570381039925266" lon="13.69645606704376"><ele>548.0</ele><time>2026-05-01T21:17:12Z</time></trkpt><trkpt lat="46.570406557220934" lon="13.696587132824826"><ele>548.0</ele><time>2026-05-01T21:17:13Z</time></trkpt><trkpt lat="46.570432866912775" lon="13.696721684754412"><ele>547.8</ele><time>2026-05-01T21:17:14Z</time></trkpt><trkpt lat="46.57046043444127" lon="13.696862160232639"><ele>547.5999999999999</ele><time>2026-05-01T21:17:15Z</time></trkpt><trkpt lat="46.570484870617506" lon="13.697005951962483"><ele>547.4000000000001</ele><time>2026-05-01T21:17:16Z</time></trkpt><trkpt lat="46.57050834602843" lon="13.697148512261915"><ele>547.2</ele><time>2026-05-01T21:17:17Z</time></trkpt><trkpt lat="46.570531020606786" lon="13.697293044051747"><ele>547.0</ele><time>2026-05-01T21:17:18Z</time></trkpt><trkpt lat="46.57055481263045" lon="13.697437948306838"><ele>547.0</ele><time>2026-05-01T21:17:19Z</time></trkpt><trkpt lat="46.570580269001766" lon="13.697584157372217"><ele>547.0</ele><time>2026-05-01T21:17:20Z</time></trkpt><trkpt lat="46.570606219995376" lon="13.697733703797178"><ele>547.0</ele><time>2026-05-01T21:17:21Z</time></trkpt><trkpt lat="46.57063135588949" lon="13.69788458587705"><ele>547.0</ele><time>2026-05-01T21:17:22Z</time></trkpt><trkpt lat="46.57065769309242" lon="13.698036669641235"><ele>547.0</ele><time>2026-05-01T21:17:23Z</time></trkpt><trkpt lat="46.57068406793809" lon="13.698190591762717"><ele>547.2</ele><time>2026-05-01T21:17:24Z</time></trkpt><trkpt lat="46.57071068494568" lon="13.69834374766712"><ele>547.4000000000001</ele><time>2026-05-01T21:17:25Z</time></trkpt><trkpt lat="46.570736610639294" lon="13.698498153656177"><ele>547.5999999999999</ele><time>2026-05-01T21:17:26Z</time></trkpt><trkpt lat="46.570763726539866" lon="13.698651852217244"><ele>547.8</ele><time>2026-05-01T21:17:27Z</time></trkpt><trkpt lat="46.57079116451023" lon="13.69880331173562"><ele>548.0</ele><time>2026-05-01T21:17:28Z</time></trkpt><trkpt lat="46.57081819989848" lon="13.698953663988567"><ele>548.1666666666666</ele><time>2026-05-01T21:17:29Z</time></trkpt><trkpt lat="46.5708455374346" lon="13.699098728263118"><ele>548.3333333333333</ele><time>2026-05-01T21:17:30Z</time></trkpt><trkpt lat="46.5708696761932" lon="13.699227148077265"><ele>548.5</ele><time>2026-05-01T21:17:31Z</time></trkpt><trkpt lat="46.57088551623819" lon="13.699341836389749"><ele>548.6666666666666</ele><time>2026-05-01T21:17:32Z</time></trkpt><trkpt lat="46.570877739388564" lon="13.699452872753756"><ele>548.8333333333334</ele><time>2026-05-01T21:17:33Z</time></trkpt><trkpt lat="46.57085295111902" lon="13.699552409698724"><ele>549.0</ele><time>2026-05-01T21:17:34Z</time></trkpt><trkpt lat="46.57080970347182" lon="13.699647517084493"><ele>549.0</ele><time>2026-05-01T21:17:35Z</time></trkpt><trkpt lat="46.57079362396693" lon="13.699762594030807"><ele>549.0</ele><time>2026-05-01T21:17:36Z</time></trkpt><trkpt lat="46.570811441981334" lon="13.699873504215823"><ele>549.0</ele><time>2026-05-01T21:17:37Z</time></trkpt><trkpt lat="46.5708750801157" lon="13.69995469745398"><ele>549.0</ele><time>2026-05-01T21:17:38Z</time></trkpt><trkpt lat="46.570929110453015" lon="13.70003353867094"><ele>549.0</ele><time>2026-05-01T21:17:39Z</time></trkpt><trkpt lat="46.57098971905695" lon="13.700112364228263"><ele>549.0</ele><time>2026-05-01T21:17:40Z</time></trkpt><trkpt lat="46.571057597515896" lon="13.700200491800008"><ele>548.8</ele><time>2026-05-01T21:17:41Z</time></trkpt><trkpt lat="46.5711194824252" lon="13.700303312515018"><ele>548.5999999999999</ele><time>2026-05-01T21:17:42Z</time></trkpt><trkpt lat="46.571159200538524" lon="13.70043064803271"><ele>548.4</ele><time>2026-05-01T21:17:43Z</time></trkpt><trkpt lat="46.57117461307759" lon="13.700565968938351"><ele>548.1999999999999</ele><time>2026-05-01T21:17:44Z</time></trkpt><trkpt lat="46.57116637390368" lon="13.700699396051313"><ele>548.0</ele><time>2026-05-01T21:17:45Z</time></trkpt><trkpt lat="46.57112251673234" lon="13.700820073962666"><ele>548.0</ele><time>2026-05-01T21:17:46Z</time></trkpt><trkpt lat="46.57105849272182" lon="13.70092253529608"><ele>548.0</ele><time>2026-05-01T21:17:47Z</time></trkpt><trkpt lat="46.5709727354758" lon="13.700995839145383"><ele>548.0</ele><time>2026-05-01T21:17:48Z</time></trkpt><trkpt lat="46.57087725774366" lon="13.701036524956304"><ele>548.0</ele><time>2026-05-01T21:17:49Z</time></trkpt><trkpt lat="46.57077606333339" lon="13.701036080026261"><ele>548.0</ele><time>2026-05-01T21:17:50Z</time></trkpt><trkpt lat="46.57068026932595" lon="13.700994536196882"><ele>548.0</ele><time>2026-05-01T21:17:51Z</time></trkpt><trkpt lat="46.57060030537285" lon="13.700908606724106"><ele>548.0</ele><time>2026-05-01T21:17:52Z</time></trkpt><trkpt lat="46.570539260051035" lon="13.700794871141506"><ele>548.0</ele><time>2026-05-01T21:17:53Z</time></trkpt><trkpt lat="46.57050358066268" lon="13.700657168698939"><ele>548.0</ele><time>2026-05-01T21:17:54Z</time></trkpt><trkpt lat="46.57049150101301" lon="13.700509749738746"><ele>548.0</ele><time>2026-05-01T21:17:55Z</time></trkpt><trkpt lat="46.57048870882204" lon="13.700352728393133"><ele>548.25</ele><time>2026-05-01T21:17:56Z</time></trkpt><trkpt lat="46.57048468728338" lon="13.700185026841737"><ele>548.5</ele><time>2026-05-01T21:17:57Z</time></trkpt><trkpt lat="46.57047716898261" lon="13.700001775462674"><ele>548.75</ele><time>2026-05-01T21:17:58Z</time></trkpt><trkpt lat="46.57046350645088" lon="13.699797201596505"><ele>549.0</ele><time>2026-05-01T21:17:59Z</time></trkpt><trkpt lat="46.57044893629025" lon="13.699573480268368"><ele>549.0</ele><time>2026-05-01T21:18:00Z</time></trkpt><trkpt lat="46.570436001676285" lon="13.699333344573285"><ele>549.0</ele><time>2026-05-01T21:18:01Z</time></trkpt><trkpt lat="46.57042134086727" lon="13.699096048666863"><ele>549.0</ele><time>2026-05-01T21:18:02Z</time></trkpt><trkpt lat="46.57040394279622" lon="13.698858146153844"><ele>549.0</ele><time>2026-05-01T21:18:03Z</time></trkpt><trkpt lat="46.57037836806402" lon="13.698600356720094"><ele>549.0</ele><time>2026-05-01T21:18:04Z</time></trkpt><trkpt lat="46.57034796188332" lon="13.698329307206611"><ele>549.0</ele><time>2026-05-01T21:18:05Z</time></trkpt><trkpt lat="46.5703136452062" lon="13.698057790682938"><ele>549.3333333333334</ele><time>2026-05-01T21:18:06Z</time></trkpt><trkpt lat="46.5702778884334" lon="13.697786435106444"><ele>549.6666666666667</ele><time>2026-05-01T21:18:07Z</time></trkpt><trkpt lat="46.570235446278076" lon="13.697499255459299"><ele>550.0</ele><time>2026-05-01T21:18:08Z</time></trkpt><trkpt lat="46.57018839835986" lon="13.697206330329534"><ele>550.0</ele><time>2026-05-01T21:18:09Z</time></trkpt><trkpt lat="46.570137641807754" lon="13.696910180952312"><ele>550.0</ele><time>2026-05-01T21:18:10Z</time></trkpt><trkpt lat="46.57008591939071" lon="13.696618551232044"><ele>550.0</ele><time>2026-05-01T21:18:11Z</time></trkpt><trkpt lat="46.57003298916702" lon="13.69633704817248"><ele>549.3333333333334</ele><time>2026-05-01T21:18:12Z</time></trkpt><trkpt lat="46.56996972520937" lon="13.696048927581133"><ele>548.6666666666666</ele><time>2026-05-01T21:18:13Z</time></trkpt><trkpt lat="46.569894597130705" lon="13.695763819987073"><ele>548.0</ele><time>2026-05-01T21:18:14Z</time></trkpt><trkpt lat="46.5698119168855" lon="13.695468624458622"><ele>548.0</ele><time>2026-05-01T21:18:15Z</time></trkpt><trkpt lat="46.56972845945069" lon="13.695173484213152"><ele>548.0</ele><time>2026-05-01T21:18:16Z</time></trkpt><trkpt lat="46.56964708100833" lon="13.694877070268713"><ele>548.0</ele><time>2026-05-01T21:18:17Z</time></trkpt><trkpt lat="46.569558757279026" lon="13.694573554352417"><ele>549.5</ele><time>2026-05-01T21:18:18Z</time></trkpt><trkpt lat="46.56946354827331" lon="13.694269737444879"><ele>551.0</ele><time>2026-05-01T21:18:19Z</time></trkpt><trkpt lat="46.569362282422816" lon="13.69396617232336"><ele>551.0</ele><time>2026-05-01T21:18:20Z</time></trkpt><trkpt lat="46.569255005377606" lon="13.693663759121575"><ele>551.0</ele><time>2026-05-01T21:18:21Z</time></trkpt><trkpt lat="46.5691486121618" lon="13.693380744757915"><ele>551.5</ele><time>2026-05-01T21:18:22Z</time></trkpt><trkpt lat="46.569037931444576" lon="13.693093771589261"><ele>552.0</ele><time>2026-05-01T21:18:23Z</time></trkpt><trkpt lat="46.56892434100177" lon="13.692804269939783"><ele>552.6666666666666</ele><time>2026-05-01T21:18:24Z</time></trkpt><trkpt lat="46.568807954000846" lon="13.692533639776798"><ele>553.3333333333333</ele><time>2026-05-01T21:18:25Z</time></trkpt><trkpt lat="46.56868771927008" lon="13.69224842187346"><ele>554.0</ele><time>2026-05-01T21:18:26Z</time></trkpt><trkpt lat="46.56856242514953" lon="13.691966833782185"><ele>555.5</ele><time>2026-05-01T21:18:27Z</time></trkpt><trkpt lat="46.568433957289464" lon="13.691690769165092"><ele>557.0</ele><time>2026-05-01T21:18:28Z</time></trkpt><trkpt lat="46.56829861428135" lon="13.691411175977917"><ele>557.0</ele><time>2026-05-01T21:18:29Z</time></trkpt><trkpt lat="46.568155331791154" lon="13.691135812919697"><ele>557.0</ele><time>2026-05-01T21:18:30Z</time></trkpt><trkpt lat="46.568001673465474" lon="13.690867723205676"><ele>556.5</ele><time>2026-05-01T21:18:31Z</time></trkpt><trkpt lat="46.567844231714496" lon="13.69060330327342"><ele>556.0</ele><time>2026-05-01T21:18:32Z</time></trkpt><trkpt lat="46.567684646275744" lon="13.69034977987343"><ele>556.0</ele><time>2026-05-01T21:18:33Z</time></trkpt><trkpt lat="46.56752843390278" lon="13.690095931317746"><ele>556.0</ele><time>2026-05-01T21:18:34Z</time></trkpt><trkpt lat="46.56735917589835" lon="13.689844762529063"><ele>556.0</ele><time>2026-05-01T21:18:35Z</time></trkpt><trkpt lat="46.56719360777391" lon="13.689593737838361"><ele>556.0</ele><time>2026-05-01T21:18:36Z</time></trkpt><trkpt lat="46.56701986116863" lon="13.68934544707755"><ele>553.0</ele><time>2026-05-01T21:18:37Z</time></trkpt><trkpt lat="46.56684033024839" lon="13.689113143994339"><ele>550.0</ele><time>2026-05-01T21:18:38Z</time></trkpt><trkpt lat="46.56665126277903" lon="13.688892045366877"><ele>550.0</ele><time>2026-05-01T21:18:39Z</time></trkpt><trkpt lat="46.566461500366145" lon="13.688659545694856"><ele>550.0</ele><time>2026-05-01T21:18:40Z</time></trkpt><trkpt lat="46.5662674906295" lon="13.688433859614511"><ele>552.0</ele><time>2026-05-01T21:18:41Z</time></trkpt><trkpt lat="46.56607026211408" lon="13.688219077840442"><ele>554.0</ele><time>2026-05-01T21:18:42Z</time></trkpt><trkpt lat="46.5658765356885" lon="13.688001939388295"><ele>554.0</ele><time>2026-05-01T21:18:43Z</time></trkpt><trkpt lat="46.56567548025035" lon="13.687791871418417"><ele>554.0</ele><time>2026-05-01T21:18:44Z</time></trkpt><trkpt lat="46.56547012161766" lon="13.687593965340023"><ele>555.5</ele><time>2026-05-01T21:18:45Z</time></trkpt><trkpt lat="46.5652608677799" lon="13.687396226770023"><ele>557.0</ele><time>2026-05-01T21:18:46Z</time></trkpt><trkpt lat="46.56504333870547" lon="13.687215136417498"><ele>557.0</ele><time>2026-05-01T21:18:47Z</time></trkpt><trkpt lat="46.5648362694507" lon="13.687026854640411"><ele>557.0</ele><time>2026-05-01T21:18:48Z</time></trkpt><trkpt lat="46.56461649110083" lon="13.686847470790285"><ele>558.5</ele><time>2026-05-01T21:18:49Z</time></trkpt><trkpt lat="46.564400298124305" lon="13.686682756920817"><ele>560.0</ele><time>2026-05-01T21:18:50Z</time></trkpt><trkpt lat="46.564169876670334" lon="13.68653684246766"><ele>560.0</ele><time>2026-05-01T21:18:51Z</time></trkpt><trkpt lat="46.56394597955003" lon="13.686390680973977"><ele>560.0</ele><time>2026-05-01T21:18:52Z</time></trkpt><trkpt lat="46.563716580674445" lon="13.68624685570693"><ele>559.5</ele><time>2026-05-01T21:18:53Z</time></trkpt><trkpt lat="46.56348855772096" lon="13.686109109120412"><ele>559.0</ele><time>2026-05-01T21:18:54Z</time></trkpt><trkpt lat="46.56325637015895" lon="13.685986912458572"><ele>560.0</ele><time>2026-05-01T21:18:55Z</time></trkpt><trkpt lat="46.56302815137767" lon="13.685861638129003"><ele>561.0</ele><time>2026-05-01T21:18:56Z</time></trkpt><trkpt lat="46.56279535991131" lon="13.685753853798586"><ele>562.5</ele><time>2026-05-01T21:18:57Z</time></trkpt><trkpt lat="46.56255734542529" lon="13.68565567737261"><ele>564.0</ele><time>2026-05-01T21:18:58Z</time></trkpt><trkpt lat="46.56231356594397" lon="13.685570612801662"><ele>564.0</ele><time>2026-05-01T21:18:59Z</time></trkpt><trkpt lat="46.56207758895629" lon="13.68549140867969"><ele>564.0</ele><time>2026-05-01T21:19:00Z</time></trkpt><trkpt lat="46.56183461168211" lon="13.685412471196605"><ele>564.5</ele><time>2026-05-01T21:19:01Z</time></trkpt><trkpt lat="46.561597164097506" lon="13.685332788548848"><ele>565.0</ele><time>2026-05-01T21:19:02Z</time></trkpt><trkpt lat="46.56135733073686" lon="13.68526761846116"><ele>570.5</ele><time>2026-05-01T21:19:03Z</time></trkpt><trkpt lat="46.56111197855264" lon="13.68521990838989"><ele>576.0</ele><time>2026-05-01T21:19:04Z</time></trkpt><trkpt lat="46.56086729570588" lon="13.685175096320345"><ele>576.0</ele><time>2026-05-01T21:19:05Z</time></trkpt><trkpt lat="46.56061632979398" lon="13.685141332295258"><ele>576.0</ele><time>2026-05-01T21:19:06Z</time></trkpt><trkpt lat="46.56037563955503" lon="13.685107812909452"><ele>580.0</ele><time>2026-05-01T21:19:07Z</time></trkpt><trkpt lat="46.56012765066297" lon="13.685079139330398"><ele>584.0</ele><time>2026-05-01T21:19:08Z</time></trkpt><trkpt lat="46.55988074240517" lon="13.685056382522195"><ele>584.0</ele><time>2026-05-01T21:19:09Z</time></trkpt><trkpt lat="46.55963122195234" lon="13.685041149775715"><ele>584.0</ele><time>2026-05-01T21:19:10Z</time></trkpt><trkpt lat="46.55937542227294" lon="13.685033169316275"><ele>589.0</ele><time>2026-05-01T21:19:11Z</time></trkpt><trkpt lat="46.5591252139097" lon="13.685023542152605"><ele>594.0</ele><time>2026-05-01T21:19:12Z</time></trkpt><trkpt lat="46.5588701964958" lon="13.68502134688361"><ele>598.0</ele><time>2026-05-01T21:19:13Z</time></trkpt><trkpt lat="46.55861393496797" lon="13.68502458877156"><ele>602.0</ele><time>2026-05-01T21:19:14Z</time></trkpt><trkpt lat="46.55836016489522" lon="13.685062411998604"><ele>602.0</ele><time>2026-05-01T21:19:15Z</time></trkpt><trkpt lat="46.5580992499007" lon="13.685102952765135"><ele>602.0</ele><time>2026-05-01T21:19:16Z</time></trkpt><trkpt lat="46.55784064066711" lon="13.685040016891444"><ele>600.5</ele><time>2026-05-01T21:19:17Z</time></trkpt><trkpt lat="46.55758335250029" lon="13.68503273568884"><ele>599.0</ele><time>2026-05-01T21:19:18Z</time></trkpt><trkpt lat="46.55732309360758" lon="13.685032535737736"><ele>599.0</ele><time>2026-05-01T21:19:19Z</time></trkpt><trkpt lat="46.55707037576554" lon="13.68503614509237"><ele>599.0</ele><time>2026-05-01T21:19:20Z</time></trkpt><trkpt lat="46.556814194393894" lon="13.68503181738162"><ele>601.5</ele><time>2026-05-01T21:19:21Z</time></trkpt><trkpt lat="46.5565593179325" lon="13.685006581278897"><ele>604.0</ele><time>2026-05-01T21:19:22Z</time></trkpt><trkpt lat="46.556308828812725" lon="13.68497772890336"><ele>605.0</ele><time>2026-05-01T21:19:23Z</time></trkpt><trkpt lat="46.55605536280476" lon="13.684945966909204"><ele>606.0</ele><time>2026-05-01T21:19:24Z</time></trkpt><trkpt lat="46.555804808729384" lon="13.684914373504139"><ele>606.0</ele><time>2026-05-01T21:19:25Z</time></trkpt><trkpt lat="46.55555432565209" lon="13.684873459096824"><ele>606.0</ele><time>2026-05-01T21:19:26Z</time></trkpt><trkpt lat="46.5553091285269" lon="13.684799977079251"><ele>608.0</ele><time>2026-05-01T21:19:27Z</time></trkpt><trkpt lat="46.555061464918666" lon="13.68471921882429"><ele>610.0</ele><time>2026-05-01T21:19:28Z</time></trkpt><trkpt lat="46.554815278895695" lon="13.684638522073675"><ele>610.0</ele><time>2026-05-01T21:19:29Z</time></trkpt><trkpt lat="46.554570278704226" lon="13.68455371208644"><ele>610.0</ele><time>2026-05-01T21:19:30Z</time></trkpt><trkpt lat="46.55433268739502" lon="13.684451603951803"><ele>611.5</ele><time>2026-05-01T21:19:31Z</time></trkpt><trkpt lat="46.55409093385651" lon="13.684339297501552"><ele>613.0</ele><time>2026-05-01T21:19:32Z</time></trkpt><trkpt lat="46.55386279449581" lon="13.684205101647203"><ele>612.5</ele><time>2026-05-01T21:19:33Z</time></trkpt><trkpt lat="46.553635702592004" lon="13.68406171254945"><ele>612.0</ele><time>2026-05-01T21:19:34Z</time></trkpt><trkpt lat="46.55340374377142" lon="13.683925577711062"><ele>612.0</ele><time>2026-05-01T21:19:35Z</time></trkpt><trkpt lat="46.55317631517559" lon="13.68377713709222"><ele>612.0</ele><time>2026-05-01T21:19:36Z</time></trkpt><trkpt lat="46.55295272617105" lon="13.68360862004836"><ele>611.0</ele><time>2026-05-01T21:19:37Z</time></trkpt><trkpt lat="46.552733569103815" lon="13.683434976392435"><ele>610.0</ele><time>2026-05-01T21:19:38Z</time></trkpt><trkpt lat="46.552514792085745" lon="13.683265920654554"><ele>610.0</ele><time>2026-05-01T21:19:39Z</time></trkpt><trkpt lat="46.55229183287743" lon="13.68310991750573"><ele>610.0</ele><time>2026-05-01T21:19:40Z</time></trkpt><trkpt lat="46.55207086501949" lon="13.682935703028537"><ele>610.0</ele><time>2026-05-01T21:19:41Z</time></trkpt><trkpt lat="46.551849613787724" lon="13.682734697154949"><ele>610.0</ele><time>2026-05-01T21:19:42Z</time></trkpt><trkpt lat="46.55163604475401" lon="13.682558580704855"><ele>610.0</ele><time>2026-05-01T21:19:43Z</time></trkpt><trkpt lat="46.55141535849409" lon="13.682394156059463"><ele>610.0</ele><time>2026-05-01T21:19:44Z</time></trkpt><trkpt lat="46.55119475746705" lon="13.682234277480458"><ele>609.0</ele><time>2026-05-01T21:19:45Z</time></trkpt><trkpt lat="46.55096186412337" lon="13.68209360665991"><ele>608.0</ele><time>2026-05-01T21:19:46Z</time></trkpt><trkpt lat="46.5507401169251" lon="13.681948262448458"><ele>608.0</ele><time>2026-05-01T21:19:47Z</time></trkpt><trkpt lat="46.55051816363951" lon="13.681807547161693"><ele>608.0</ele><time>2026-05-01T21:19:48Z</time></trkpt><trkpt lat="46.55029171454284" lon="13.681667627963023"><ele>603.5</ele><time>2026-05-01T21:19:49Z</time></trkpt><trkpt lat="46.55007618758385" lon="13.681520264751535"><ele>599.0</ele><time>2026-05-01T21:19:50Z</time></trkpt><trkpt lat="46.549860795360175" lon="13.681363780760922"><ele>599.0</ele><time>2026-05-01T21:19:51Z</time></trkpt><trkpt lat="46.54961783229456" lon="13.681266180221279"><ele>599.0</ele><time>2026-05-01T21:19:52Z</time></trkpt><trkpt lat="46.5493870735759" lon="13.681151609352119"><ele>602.0</ele><time>2026-05-01T21:19:53Z</time></trkpt><trkpt lat="46.549155523610224" lon="13.681043437328256"><ele>605.0</ele><time>2026-05-01T21:19:54Z</time></trkpt><trkpt lat="46.548926748479104" lon="13.680937630892252"><ele>604.5</ele><time>2026-05-01T21:19:55Z</time></trkpt><trkpt lat="46.54869319670377" lon="13.68083759502992"><ele>604.0</ele><time>2026-05-01T21:19:56Z</time></trkpt><trkpt lat="46.54846189920291" lon="13.680736159377814"><ele>604.0</ele><time>2026-05-01T21:19:57Z</time></trkpt><trkpt lat="46.5482270354114" lon="13.68064491819284"><ele>604.0</ele><time>2026-05-01T21:19:58Z</time></trkpt><trkpt lat="46.54798781653918" lon="13.680559862479633"><ele>594.5</ele><time>2026-05-01T21:19:59Z</time></trkpt><trkpt lat="46.54774545456717" lon="13.680486677243248"><ele>585.0</ele><time>2026-05-01T21:20:00Z</time></trkpt><trkpt lat="46.547506730115366" lon="13.680413339351"><ele>585.0</ele><time>2026-05-01T21:20:01Z</time></trkpt><trkpt lat="46.54726518174877" lon="13.680334461194118"><ele>585.0</ele><time>2026-05-01T21:20:02Z</time></trkpt><trkpt lat="46.54702804537676" lon="13.680249035513086"><ele>580.0</ele><time>2026-05-01T21:20:03Z</time></trkpt><trkpt lat="46.54678874430274" lon="13.680160428208108"><ele>575.0</ele><time>2026-05-01T21:20:04Z</time></trkpt><trkpt lat="46.54655320237927" lon="13.680067811316832"><ele>575.0</ele><time>2026-05-01T21:20:05Z</time></trkpt><trkpt lat="46.54631578507874" lon="13.679963689978068"><ele>575.0</ele><time>2026-05-01T21:20:06Z</time></trkpt><trkpt lat="46.546080359652834" lon="13.67985634677964"><ele>585.5</ele><time>2026-05-01T21:20:07Z</time></trkpt><trkpt lat="46.54585323911249" lon="13.679734244291417"><ele>596.0</ele><time>2026-05-01T21:20:08Z</time></trkpt><trkpt lat="46.54562139218836" lon="13.67961125042421"><ele>596.0</ele><time>2026-05-01T21:20:09Z</time></trkpt><trkpt lat="46.545392569246424" lon="13.679473905742492"><ele>596.0</ele><time>2026-05-01T21:20:10Z</time></trkpt><trkpt lat="46.545171188719266" lon="13.679325022061793"><ele>603.0</ele><time>2026-05-01T21:20:11Z</time></trkpt><trkpt lat="46.54495181432865" lon="13.67916647159735"><ele>610.0</ele><time>2026-05-01T21:20:12Z</time></trkpt><trkpt lat="46.54473902287441" lon="13.67898722968006"><ele>610.0</ele><time>2026-05-01T21:20:13Z</time></trkpt><trkpt lat="46.544528158427774" lon="13.67878882165916"><ele>610.0</ele><time>2026-05-01T21:20:14Z</time></trkpt><trkpt lat="46.5443198212587" lon="13.678593565666844"><ele>610.0</ele><time>2026-05-01T21:20:15Z</time></trkpt><trkpt lat="46.54411343282173" lon="13.678401273922471"><ele>610.0</ele><time>2026-05-01T21:20:16Z</time></trkpt><trkpt lat="46.54391369204298" lon="13.678188329892743"><ele>610.0</ele><time>2026-05-01T21:20:17Z</time></trkpt><trkpt lat="46.54371579970897" lon="13.677969488808566"><ele>610.0</ele><time>2026-05-01T21:20:18Z</time></trkpt><trkpt lat="46.54352342691197" lon="13.677749375582426"><ele>610.0</ele><time>2026-05-01T21:20:19Z</time></trkpt><trkpt lat="46.54333502209577" lon="13.677517307269824"><ele>610.0</ele><time>2026-05-01T21:20:20Z</time></trkpt><trkpt lat="46.54315144772613" lon="13.677266728079402"><ele>610.0</ele><time>2026-05-01T21:20:21Z</time></trkpt><trkpt lat="46.542984060591806" lon="13.677016578748944"><ele>610.0</ele><time>2026-05-01T21:20:22Z</time></trkpt><trkpt lat="46.54281717237703" lon="13.676758363607147"><ele>611.5</ele><time>2026-05-01T21:20:23Z</time></trkpt><trkpt lat="46.54265256172777" lon="13.67647817036973"><ele>613.0</ele><time>2026-05-01T21:20:24Z</time></trkpt><trkpt lat="46.542485301124756" lon="13.676217820845997"><ele>610.5</ele><time>2026-05-01T21:20:25Z</time></trkpt><trkpt lat="46.54232993287305" lon="13.675937954029319"><ele>608.0</ele><time>2026-05-01T21:20:26Z</time></trkpt><trkpt lat="46.54218581247505" lon="13.675659087965109"><ele>608.0</ele><time>2026-05-01T21:20:27Z</time></trkpt><trkpt lat="46.54205109850379" lon="13.675371531511386"><ele>608.0</ele><time>2026-05-01T21:20:28Z</time></trkpt><trkpt lat="46.54192029250403" lon="13.675065375741417"><ele>613.5</ele><time>2026-05-01T21:20:29Z</time></trkpt><trkpt lat="46.54178798518375" lon="13.674764186662339"><ele>619.0</ele><time>2026-05-01T21:20:30Z</time></trkpt><trkpt lat="46.541654355191646" lon="13.674465305869772"><ele>615.5</ele><time>2026-05-01T21:20:31Z</time></trkpt><trkpt lat="46.541526749480504" lon="13.67416511609982"><ele>612.0</ele><time>2026-05-01T21:20:32Z</time></trkpt><trkpt lat="46.541408775006694" lon="13.673856366284596"><ele>610.5</ele><time>2026-05-01T21:20:33Z</time></trkpt><trkpt lat="46.541281507446236" lon="13.673551623318701"><ele>609.0</ele><time>2026-05-01T21:20:34Z</time></trkpt><trkpt lat="46.54116315959246" lon="13.673240988096635"><ele>611.5</ele><time>2026-05-01T21:20:35Z</time></trkpt><trkpt lat="46.54104746538415" lon="13.672932514606543"><ele>614.0</ele><time>2026-05-01T21:20:36Z</time></trkpt><trkpt lat="46.54093134121655" lon="13.672618185143163"><ele>614.0</ele><time>2026-05-01T21:20:37Z</time></trkpt><trkpt lat="46.540819960526846" lon="13.672303165413663"><ele>614.0</ele><time>2026-05-01T21:20:38Z</time></trkpt><trkpt lat="46.540702551779106" lon="13.671987410450127"><ele>612.0</ele><time>2026-05-01T21:20:39Z</time></trkpt><trkpt lat="46.54059336090064" lon="13.671669683424977"><ele>610.0</ele><time>2026-05-01T21:20:40Z</time></trkpt><trkpt lat="46.5404858498501" lon="13.671351960530233"><ele>618.0</ele><time>2026-05-01T21:20:41Z</time></trkpt><trkpt lat="46.54037767247271" lon="13.671031042724952"><ele>626.0</ele><time>2026-05-01T21:20:42Z</time></trkpt><trkpt lat="46.540263259930335" lon="13.670708557098346"><ele>626.0</ele><time>2026-05-01T21:20:43Z</time></trkpt><trkpt lat="46.540157108063816" lon="13.670387315068673"><ele>626.0</ele><time>2026-05-01T21:20:44Z</time></trkpt><trkpt lat="46.54005983268405" lon="13.670067035325124"><ele>621.5</ele><time>2026-05-01T21:20:45Z</time></trkpt><trkpt lat="46.53995464901772" lon="13.669735641523769"><ele>617.0</ele><time>2026-05-01T21:20:46Z</time></trkpt><trkpt lat="46.53985248947044" lon="13.66940734816187"><ele>614.0</ele><time>2026-05-01T21:20:47Z</time></trkpt><trkpt lat="46.53975500833126" lon="13.66907957214171"><ele>611.0</ele><time>2026-05-01T21:20:48Z</time></trkpt><trkpt lat="46.53965336902547" lon="13.668750067832264"><ele>610.0</ele><time>2026-05-01T21:20:49Z</time></trkpt><trkpt lat="46.53955401551571" lon="13.668417508508199"><ele>609.0</ele><time>2026-05-01T21:20:50Z</time></trkpt><trkpt lat="46.539455819877" lon="13.668088238740202"><ele>612.0</ele><time>2026-05-01T21:20:51Z</time></trkpt><trkpt lat="46.53935883451038" lon="13.667753422417364"><ele>615.0</ele><time>2026-05-01T21:20:52Z</time></trkpt><trkpt lat="46.539264627421" lon="13.667421894954769"><ele>615.0</ele><time>2026-05-01T21:20:53Z</time></trkpt><trkpt lat="46.53917480370987" lon="13.667089348494436"><ele>615.0</ele><time>2026-05-01T21:20:54Z</time></trkpt><trkpt lat="46.539084336458565" lon="13.666752888427762"><ele>613.5</ele><time>2026-05-01T21:20:55Z</time></trkpt><trkpt lat="46.53899516928858" lon="13.66641726962035"><ele>612.0</ele><time>2026-05-01T21:20:56Z</time></trkpt><trkpt lat="46.538910042538014" lon="13.666081712185855"><ele>611.5</ele><time>2026-05-01T21:20:57Z</time></trkpt><trkpt lat="46.53882630340591" lon="13.665747458401107"><ele>611.0</ele><time>2026-05-01T21:20:58Z</time></trkpt><trkpt lat="46.53874972621609" lon="13.665429752177365"><ele>613.5</ele><time>2026-05-01T21:20:59Z</time></trkpt><trkpt lat="46.53867358133976" lon="13.665094255682808"><ele>616.0</ele><time>2026-05-01T21:21:00Z</time></trkpt><trkpt lat="46.538603614579785" lon="13.664759554207555"><ele>616.0</ele><time>2026-05-01T21:21:01Z</time></trkpt><trkpt lat="46.538536475813316" lon="13.664412564753798"><ele>616.0</ele><time>2026-05-01T21:21:02Z</time></trkpt><trkpt lat="46.538473609898716" lon="13.664070226119941"><ele>616.0</ele><time>2026-05-01T21:21:03Z</time></trkpt><trkpt lat="46.53841815774176" lon="13.663722482463632"><ele>616.0</ele><time>2026-05-01T21:21:04Z</time></trkpt><trkpt lat="46.53836839578382" lon="13.663372851854053"><ele>616.0</ele><time>2026-05-01T21:21:05Z</time></trkpt><trkpt lat="46.53832584368473" lon="13.663025978766477"><ele>616.0</ele><time>2026-05-01T21:21:06Z</time></trkpt><trkpt lat="46.538290063850006" lon="13.662686282107737"><ele>617.5</ele><time>2026-05-01T21:21:07Z</time></trkpt><trkpt lat="46.53826104597257" lon="13.66233499342283"><ele>619.0</ele><time>2026-05-01T21:21:08Z</time></trkpt><trkpt lat="46.538238246979475" lon="13.661998135467067"><ele>621.0</ele><time>2026-05-01T21:21:09Z</time></trkpt><trkpt lat="46.53822277700603" lon="13.661647918763752"><ele>623.0</ele><time>2026-05-01T21:21:10Z</time></trkpt><trkpt lat="46.53821191467725" lon="13.66130919819023"><ele>623.5</ele><time>2026-05-01T21:21:11Z</time></trkpt><trkpt lat="46.5382071674012" lon="13.660963305083614"><ele>624.0</ele><time>2026-05-01T21:21:12Z</time></trkpt><trkpt lat="46.53821158836355" lon="13.66061195309861"><ele>622.5</ele><time>2026-05-01T21:21:13Z</time></trkpt><trkpt lat="46.53821702477958" lon="13.660272529476703"><ele>621.0</ele><time>2026-05-01T21:21:14Z</time></trkpt><trkpt lat="46.53823043187504" lon="13.65992978194694"><ele>621.0</ele><time>2026-05-01T21:21:15Z</time></trkpt><trkpt lat="46.53824718586853" lon="13.659588424282912"><ele>621.0</ele><time>2026-05-01T21:21:16Z</time></trkpt><trkpt lat="46.53826728578505" lon="13.659251045033688"><ele>616.0</ele><time>2026-05-01T21:21:17Z</time></trkpt><trkpt lat="46.53829026413062" lon="13.658909682314924"><ele>611.0</ele><time>2026-05-01T21:21:18Z</time></trkpt><trkpt lat="46.53831142439227" lon="13.658567761969703"><ele>610.5</ele><time>2026-05-01T21:21:19Z</time></trkpt><trkpt lat="46.538335686688875" lon="13.658223593209737"><ele>610.0</ele><time>2026-05-01T21:21:20Z</time></trkpt><trkpt lat="46.53835814742387" lon="13.657881783042527"><ele>612.5</ele><time>2026-05-01T21:21:21Z</time></trkpt><trkpt lat="46.53838098516796" lon="13.657534601159012"><ele>615.0</ele><time>2026-05-01T21:21:22Z</time></trkpt><trkpt lat="46.53840478064604" lon="13.657188508559825"><ele>610.5</ele><time>2026-05-01T21:21:23Z</time></trkpt><trkpt lat="46.53842945740483" lon="13.656839432018764"><ele>606.0</ele><time>2026-05-01T21:21:24Z</time></trkpt><trkpt lat="46.53845399715137" lon="13.656495594223179"><ele>606.0</ele><time>2026-05-01T21:21:25Z</time></trkpt><trkpt lat="46.53847770510838" lon="13.656152786398529"><ele>606.0</ele><time>2026-05-01T21:21:26Z</time></trkpt><trkpt lat="46.53850387805192" lon="13.655804724298449"><ele>603.5</ele><time>2026-05-01T21:21:27Z</time></trkpt><trkpt lat="46.53852929968902" lon="13.655455293470785"><ele>601.0</ele><time>2026-05-01T21:21:28Z</time></trkpt><trkpt lat="46.53855213161801" lon="13.655120793251776"><ele>601.0</ele><time>2026-05-01T21:21:29Z</time></trkpt><trkpt lat="46.538575959008014" lon="13.654776522217574"><ele>601.0</ele><time>2026-05-01T21:21:30Z</time></trkpt><trkpt lat="46.5386016354405" lon="13.654433166828014"><ele>603.0</ele><time>2026-05-01T21:21:31Z</time></trkpt><trkpt lat="46.53862485617833" lon="13.65409335773332"><ele>605.0</ele><time>2026-05-01T21:21:32Z</time></trkpt><trkpt lat="46.53864948157358" lon="13.653745806328415"><ele>610.0</ele><time>2026-05-01T21:21:33Z</time></trkpt><trkpt lat="46.53867234341862" lon="13.653399653346131"><ele>615.0</ele><time>2026-05-01T21:21:34Z</time></trkpt><trkpt lat="46.53868921979814" lon="13.653056627543174"><ele>617.0</ele><time>2026-05-01T21:21:35Z</time></trkpt><trkpt lat="46.53870171985557" lon="13.652717933874047"><ele>619.0</ele><time>2026-05-01T21:21:36Z</time></trkpt><trkpt lat="46.538714165772014" lon="13.652374356817177"><ele>619.6666666666667</ele><time>2026-05-01T21:21:37Z</time></trkpt><trkpt lat="46.53871969642342" lon="13.652048444475712"><ele>620.3333333333334</ele><time>2026-05-01T21:21:38Z</time></trkpt><trkpt lat="46.53871598185416" lon="13.651731753879666"><ele>621.0</ele><time>2026-05-01T21:21:39Z</time></trkpt><trkpt lat="46.538711609889226" lon="13.651444487920394"><ele>621.0</ele><time>2026-05-01T21:21:40Z</time></trkpt><trkpt lat="46.5387045247482" lon="13.651166777287278"><ele>621.0</ele><time>2026-05-01T21:21:41Z</time></trkpt><trkpt lat="46.53869046849507" lon="13.650897367537056"><ele>621.0</ele><time>2026-05-01T21:21:42Z</time></trkpt><trkpt lat="46.538672742827025" lon="13.650624081506416"><ele>621.3333333333334</ele><time>2026-05-01T21:21:43Z</time></trkpt><trkpt lat="46.538652057916174" lon="13.650351543458756"><ele>621.6666666666667</ele><time>2026-05-01T21:21:44Z</time></trkpt><trkpt lat="46.53862847870745" lon="13.650057294003368"><ele>622.0</ele><time>2026-05-01T21:21:45Z</time></trkpt><trkpt lat="46.53860077477281" lon="13.64977356600965"><ele>623.3333333333334</ele><time>2026-05-01T21:21:46Z</time></trkpt><trkpt lat="46.53856463724773" lon="13.649483747433958"><ele>624.6666666666666</ele><time>2026-05-01T21:21:47Z</time></trkpt><trkpt lat="46.53852315133308" lon="13.649183984813213"><ele>626.0</ele><time>2026-05-01T21:21:48Z</time></trkpt><trkpt lat="46.53847751189643" lon="13.648880844768339"><ele>628.3333333333333</ele><time>2026-05-01T21:21:49Z</time></trkpt><trkpt lat="46.53842589690956" lon="13.648582718836305"><ele>630.6666666666666</ele><time>2026-05-01T21:21:50Z</time></trkpt><trkpt lat="46.53836942619812" lon="13.648285959181932"><ele>633.0</ele><time>2026-05-01T21:21:51Z</time></trkpt><trkpt lat="46.538306192458954" lon="13.647980967481079"><ele>634.0</ele><time>2026-05-01T21:21:52Z</time></trkpt><trkpt lat="46.53824253461765" lon="13.647689699188195"><ele>635.0</ele><time>2026-05-01T21:21:53Z</time></trkpt><trkpt lat="46.538170263573356" lon="13.647388633774808"><ele>636.0</ele><time>2026-05-01T21:21:54Z</time></trkpt><trkpt lat="46.53809292848577" lon="13.647096746949483"><ele>638.3333333333334</ele><time>2026-05-01T21:21:55Z</time></trkpt><trkpt lat="46.538012826814" lon="13.646809111389953"><ele>640.6666666666667</ele><time>2026-05-01T21:21:56Z</time></trkpt><trkpt lat="46.53792418885198" lon="13.646515915221011"><ele>643.0</ele><time>2026-05-01T21:21:57Z</time></trkpt><trkpt lat="46.5378366160308" lon="13.64622910302809"><ele>640.0</ele><time>2026-05-01T21:21:58Z</time></trkpt><trkpt lat="46.537750636807274" lon="13.645948825923693"><ele>637.0</ele><time>2026-05-01T21:21:59Z</time></trkpt><trkpt lat="46.53765931371243" lon="13.645670095827322"><ele>634.0</ele><time>2026-05-01T21:22:00Z</time></trkpt><trkpt lat="46.53756645712472" lon="13.645397269181414"><ele>636.6666666666667</ele><time>2026-05-01T21:22:01Z</time></trkpt><trkpt lat="46.53746784319454" lon="13.645131360668328"><ele>639.3333333333334</ele><time>2026-05-01T21:22:02Z</time></trkpt><trkpt lat="46.53736920602973" lon="13.64488159320895"><ele>642.0</ele><time>2026-05-01T21:22:03Z</time></trkpt><trkpt lat="46.53726893326145" lon="13.644652400248825"><ele>639.6666666666666</ele><time>2026-05-01T21:22:04Z</time></trkpt><trkpt lat="46.53716521512643" lon="13.644437499295007"><ele>637.3333333333333</ele><time>2026-05-01T21:22:05Z</time></trkpt><trkpt lat="46.53706469597019" lon="13.644238904189258"><ele>635.0</ele><time>2026-05-01T21:22:06Z</time></trkpt><trkpt lat="46.53696223876463" lon="13.64404737808705"><ele>635.0</ele><time>2026-05-01T21:22:07Z</time></trkpt><trkpt lat="46.53685879282164" lon="13.643864767100466"><ele>635.0</ele><time>2026-05-01T21:22:08Z</time></trkpt><trkpt lat="46.53674938888705" lon="13.643684509465578"><ele>635.0</ele><time>2026-05-01T21:22:09Z</time></trkpt><trkpt lat="46.53663504136274" lon="13.643513420609832"><ele>637.0</ele><time>2026-05-01T21:22:10Z</time></trkpt><trkpt lat="46.5365119445315" lon="13.643340641167734"><ele>639.0</ele><time>2026-05-01T21:22:11Z</time></trkpt><trkpt lat="46.53638579397052" lon="13.64317537018231"><ele>641.0</ele><time>2026-05-01T21:22:12Z</time></trkpt><trkpt lat="46.53625359089154" lon="13.643006232912182"><ele>641.3333333333333</ele><time>2026-05-01T21:22:13Z</time></trkpt><trkpt lat="46.53612311996466" lon="13.642845299288961"><ele>641.6666666666666</ele><time>2026-05-01T21:22:14Z</time></trkpt><trkpt lat="46.53598465011964" lon="13.642686505259007"><ele>642.0</ele><time>2026-05-01T21:22:15Z</time></trkpt><trkpt lat="46.5358405514817" lon="13.642532844978545"><ele>642.0</ele><time>2026-05-01T21:22:16Z</time></trkpt><trkpt lat="46.53569723514738" lon="13.642391992269891"><ele>642.0</ele><time>2026-05-01T21:22:17Z</time></trkpt><trkpt lat="46.535549032250124" lon="13.6422599692998"><ele>642.0</ele><time>2026-05-01T21:22:18Z</time></trkpt><trkpt lat="46.53539551726233" lon="13.642135930971959"><ele>641.3333333333334</ele><time>2026-05-01T21:22:19Z</time></trkpt><trkpt lat="46.53523769538301" lon="13.642013809399526"><ele>640.6666666666667</ele><time>2026-05-01T21:22:20Z</time></trkpt><trkpt lat="46.535084651168916" lon="13.641901208591507"><ele>640.0</ele><time>2026-05-01T21:22:21Z</time></trkpt><trkpt lat="46.534929051179574" lon="13.641790248911715"><ele>640.0</ele><time>2026-05-01T21:22:22Z</time></trkpt><trkpt lat="46.53477003148157" lon="13.641682089979076"><ele>640.0</ele><time>2026-05-01T21:22:23Z</time></trkpt><trkpt lat="46.53461179210749" lon="13.641590936342181"><ele>640.0</ele><time>2026-05-01T21:22:24Z</time></trkpt><trkpt lat="46.534451759240056" lon="13.641505474780663"><ele>640.6666666666667</ele><time>2026-05-01T21:22:25Z</time></trkpt><trkpt lat="46.53428803830258" lon="13.64142987225704"><ele>641.3333333333334</ele><time>2026-05-01T21:22:26Z</time></trkpt><trkpt lat="46.53412249816848" lon="13.641358154567175"><ele>642.0</ele><time>2026-05-01T21:22:27Z</time></trkpt><trkpt lat="46.53395621412284" lon="13.64128910907466"><ele>642.0</ele><time>2026-05-01T21:22:28Z</time></trkpt><trkpt lat="46.533783538267755" lon="13.641216277935651"><ele>642.0</ele><time>2026-05-01T21:22:29Z</time></trkpt><trkpt lat="46.53360836746608" lon="13.641141150584177"><ele>642.0</ele><time>2026-05-01T21:22:30Z</time></trkpt><trkpt lat="46.533428370576566" lon="13.641064051674425"><ele>643.0</ele><time>2026-05-01T21:22:31Z</time></trkpt><trkpt lat="46.53324550028656" lon="13.640987257202507"><ele>644.0</ele><time>2026-05-01T21:22:32Z</time></trkpt><trkpt lat="46.53306019622449" lon="13.640907146214476"><ele>645.0</ele><time>2026-05-01T21:22:33Z</time></trkpt><trkpt lat="46.53287104969252" lon="13.640825923083499"><ele>646.0</ele><time>2026-05-01T21:22:34Z</time></trkpt><trkpt lat="46.53267968133639" lon="13.640744873834652"><ele>647.0</ele><time>2026-05-01T21:22:35Z</time></trkpt><trkpt lat="46.532485464694254" lon="13.640663026720482"><ele>648.0</ele><time>2026-05-01T21:22:36Z</time></trkpt><trkpt lat="46.53228991005509" lon="13.640581317758631"><ele>648.0</ele><time>2026-05-01T21:22:37Z</time></trkpt><trkpt lat="46.532091557655214" lon="13.64049700111545"><ele>648.0</ele><time>2026-05-01T21:22:38Z</time></trkpt><trkpt lat="46.53189219759999" lon="13.640410298080427"><ele>648.0</ele><time>2026-05-01T21:22:39Z</time></trkpt><trkpt lat="46.53169237716613" lon="13.640321904308408"><ele>649.3333333333334</ele><time>2026-05-01T21:22:40Z</time></trkpt><trkpt lat="46.531487441083335" lon="13.640230096388233"><ele>650.6666666666667</ele><time>2026-05-01T21:22:41Z</time></trkpt><trkpt lat="46.53127584584077" lon="13.640129407988619"><ele>652.0</ele><time>2026-05-01T21:22:42Z</time></trkpt><trkpt lat="46.5310605179592" lon="13.640019861763339"><ele>652.0</ele><time>2026-05-01T21:22:43Z</time></trkpt><trkpt lat="46.53084383072854" lon="13.639902101555007"><ele>652.0</ele><time>2026-05-01T21:22:44Z</time></trkpt><trkpt lat="46.530640577061384" lon="13.639782290363906"><ele>652.0</ele><time>2026-05-01T21:22:45Z</time></trkpt><trkpt lat="46.53044333816453" lon="13.63964231849895"><ele>652.0</ele><time>2026-05-01T21:22:46Z</time></trkpt><trkpt lat="46.5302484583227" lon="13.639482150852272"><ele>652.0</ele><time>2026-05-01T21:22:47Z</time></trkpt><trkpt lat="46.530052495322174" lon="13.639301804621681"><ele>650.5</ele><time>2026-05-01T21:22:48Z</time></trkpt><trkpt lat="46.529858441832395" lon="13.63910816791206"><ele>649.0</ele><time>2026-05-01T21:22:49Z</time></trkpt><trkpt lat="46.52966265874044" lon="13.638902774409251"><ele>648.5</ele><time>2026-05-01T21:22:50Z</time></trkpt><trkpt lat="46.529466638824815" lon="13.638687094998865"><ele>648.0</ele><time>2026-05-01T21:22:51Z</time></trkpt><trkpt lat="46.529270758959115" lon="13.638465709146379"><ele>648.0</ele><time>2026-05-01T21:22:52Z</time></trkpt><trkpt lat="46.529073780189485" lon="13.638235218975053"><ele>648.0</ele><time>2026-05-01T21:22:53Z</time></trkpt><trkpt lat="46.528878047602305" lon="13.63799962807304"><ele>652.5</ele><time>2026-05-01T21:22:54Z</time></trkpt><trkpt lat="46.52868140690323" lon="13.637757468256035"><ele>657.0</ele><time>2026-05-01T21:22:55Z</time></trkpt><trkpt lat="46.5284862207025" lon="13.637509109678248"><ele>657.0</ele><time>2026-05-01T21:22:56Z</time></trkpt><trkpt lat="46.528293801177185" lon="13.637255566201867"><ele>657.0</ele><time>2026-05-01T21:22:57Z</time></trkpt><trkpt lat="46.52810690537293" lon="13.636995334422576"><ele>656.5</ele><time>2026-05-01T21:22:58Z</time></trkpt><trkpt lat="46.52792154814143" lon="13.636730948612113"><ele>656.0</ele><time>2026-05-01T21:22:59Z</time></trkpt><trkpt lat="46.52774232473332" lon="13.636460429887224"><ele>656.0</ele><time>2026-05-01T21:23:00Z</time></trkpt><trkpt lat="46.52755981678548" lon="13.636191923165745"><ele>656.0</ele><time>2026-05-01T21:23:01Z</time></trkpt><trkpt lat="46.52738023947492" lon="13.635916225117695"><ele>655.0</ele><time>2026-05-01T21:23:02Z</time></trkpt><trkpt lat="46.52720587976902" lon="13.635635693898825"><ele>654.0</ele><time>2026-05-01T21:23:03Z</time></trkpt><trkpt lat="46.52703416826127" lon="13.635353810564077"><ele>651.0</ele><time>2026-05-01T21:23:04Z</time></trkpt><trkpt lat="46.52686759869687" lon="13.63506467006828"><ele>648.0</ele><time>2026-05-01T21:23:05Z</time></trkpt><trkpt lat="46.526710953304146" lon="13.634766644516382"><ele>647.5</ele><time>2026-05-01T21:23:06Z</time></trkpt><trkpt lat="46.526569164242545" lon="13.634457137397868"><ele>647.0</ele><time>2026-05-01T21:23:07Z</time></trkpt><trkpt lat="46.52644293803779" lon="13.634135268507109"><ele>647.0</ele><time>2026-05-01T21:23:08Z</time></trkpt><trkpt lat="46.52632765717648" lon="13.63380275573866"><ele>647.0</ele><time>2026-05-01T21:23:09Z</time></trkpt><trkpt lat="46.52622405545952" lon="13.633461648548943"><ele>655.5</ele><time>2026-05-01T21:23:10Z</time></trkpt><trkpt lat="46.52613092381189" lon="13.633116673587132"><ele>664.0</ele><time>2026-05-01T21:23:11Z</time></trkpt><trkpt lat="46.52604741360178" lon="13.63276498061774"><ele>664.0</ele><time>2026-05-01T21:23:12Z</time></trkpt><trkpt lat="46.52597030249442" lon="13.632410497954634"><ele>664.0</ele><time>2026-05-01T21:23:13Z</time></trkpt><trkpt lat="46.52589789866275" lon="13.632056043565973"><ele>659.0</ele><time>2026-05-01T21:23:14Z</time></trkpt><trkpt lat="46.52582855432398" lon="13.631697169984845"><ele>654.0</ele><time>2026-05-01T21:23:15Z</time></trkpt><trkpt lat="46.52575891110206" lon="13.631335753610486"><ele>651.5</ele><time>2026-05-01T21:23:16Z</time></trkpt><trkpt lat="46.525689821053845" lon="13.630973517445053"><ele>649.0</ele><time>2026-05-01T21:23:17Z</time></trkpt><trkpt lat="46.52561963771698" lon="13.630611989627447"><ele>649.0</ele><time>2026-05-01T21:23:18Z</time></trkpt><trkpt lat="46.52555066883854" lon="13.630250889536923"><ele>649.0</ele><time>2026-05-01T21:23:19Z</time></trkpt><trkpt lat="46.52548334905063" lon="13.629887858685484"><ele>649.0</ele><time>2026-05-01T21:23:20Z</time></trkpt><trkpt lat="46.52541573430594" lon="13.629526540438999"><ele>649.0</ele><time>2026-05-01T21:23:21Z</time></trkpt><trkpt lat="46.52534666592585" lon="13.629162034065022"><ele>650.5</ele><time>2026-05-01T21:23:22Z</time></trkpt><trkpt lat="46.52527728796119" lon="13.62880261880559"><ele>652.0</ele><time>2026-05-01T21:23:23Z</time></trkpt><trkpt lat="46.52520757022348" lon="13.628441667604829"><ele>652.0</ele><time>2026-05-01T21:23:24Z</time></trkpt><trkpt lat="46.52513872276411" lon="13.628078502676686"><ele>652.0</ele><time>2026-05-01T21:23:25Z</time></trkpt><trkpt lat="46.52506858142254" lon="13.627719249966738"><ele>650.0</ele><time>2026-05-01T21:23:26Z</time></trkpt><trkpt lat="46.524999080202285" lon="13.62736017027477"><ele>648.0</ele><time>2026-05-01T21:23:27Z</time></trkpt><trkpt lat="46.52492914589964" lon="13.627001130341919"><ele>653.5</ele><time>2026-05-01T21:23:28Z</time></trkpt><trkpt lat="46.524859261785835" lon="13.626639592035087"><ele>659.0</ele><time>2026-05-01T21:23:29Z</time></trkpt><trkpt lat="46.52478824101904" lon="13.626282096091389"><ele>663.5</ele><time>2026-05-01T21:23:30Z</time></trkpt><trkpt lat="46.52471514672136" lon="13.625929436545148"><ele>668.0</ele><time>2026-05-01T21:23:31Z</time></trkpt><trkpt lat="46.52463471434643" lon="13.625581477381218"><ele>662.5</ele><time>2026-05-01T21:23:32Z</time></trkpt><trkpt lat="46.52454288538831" lon="13.625238147811038"><ele>657.0</ele><time>2026-05-01T21:23:33Z</time></trkpt><trkpt lat="46.524441359970915" lon="13.624903488392906"><ele>657.0</ele><time>2026-05-01T21:23:34Z</time></trkpt><trkpt lat="46.52433160805921" lon="13.624575531637744"><ele>657.0</ele><time>2026-05-01T21:23:35Z</time></trkpt><trkpt lat="46.52421483913421" lon="13.62425422913595"><ele>660.5</ele><time>2026-05-01T21:23:36Z</time></trkpt><trkpt lat="46.52408775364337" lon="13.623941583256087"><ele>664.0</ele><time>2026-05-01T21:23:37Z</time></trkpt><trkpt lat="46.52395035343668" lon="13.62364120577471"><ele>664.0</ele><time>2026-05-01T21:23:38Z</time></trkpt><trkpt lat="46.52379957623106" lon="13.623350008953604"><ele>664.0</ele><time>2026-05-01T21:23:39Z</time></trkpt><trkpt lat="46.52363910287757" lon="13.623072827617447"><ele>669.5</ele><time>2026-05-01T21:23:40Z</time></trkpt><trkpt lat="46.52346959735743" lon="13.622804604093101"><ele>675.0</ele><time>2026-05-01T21:23:41Z</time></trkpt><trkpt lat="46.52329214093664" lon="13.62254185225876"><ele>675.0</ele><time>2026-05-01T21:23:42Z</time></trkpt><trkpt lat="46.523108127410126" lon="13.622285588387102"><ele>675.0</ele><time>2026-05-01T21:23:43Z</time></trkpt><trkpt lat="46.52291607455188" lon="13.622044412294763"><ele>673.5</ele><time>2026-05-01T21:23:44Z</time></trkpt><trkpt lat="46.522714518505126" lon="13.621817936389458"><ele>672.0</ele><time>2026-05-01T21:23:45Z</time></trkpt><trkpt lat="46.522504184892384" lon="13.621606449332264"><ele>672.0</ele><time>2026-05-01T21:23:46Z</time></trkpt><trkpt lat="46.522287412978095" lon="13.621412455789047"><ele>672.0</ele><time>2026-05-01T21:23:47Z</time></trkpt><trkpt lat="46.522064508605716" lon="13.621233024782544"><ele>661.5</ele><time>2026-05-01T21:23:48Z</time></trkpt><trkpt lat="46.52183857155025" lon="13.62107460146811"><ele>651.0</ele><time>2026-05-01T21:23:49Z</time></trkpt><trkpt lat="46.5216153733748" lon="13.620936793799855"><ele>651.0</ele><time>2026-05-01T21:23:50Z</time></trkpt><trkpt lat="46.52139428812854" lon="13.62081313369374"><ele>651.0</ele><time>2026-05-01T21:23:51Z</time></trkpt><trkpt lat="46.521170518896" lon="13.620703386627282"><ele>671.0</ele><time>2026-05-01T21:23:52Z</time></trkpt><trkpt lat="46.520945561730905" lon="13.620611384235513"><ele>691.0</ele><time>2026-05-01T21:23:53Z</time></trkpt><trkpt lat="46.52072077116091" lon="13.620528728206688"><ele>691.0</ele><time>2026-05-01T21:23:54Z</time></trkpt><trkpt lat="46.520496346537996" lon="13.620447647026886"><ele>691.0</ele><time>2026-05-01T21:23:55Z</time></trkpt><trkpt lat="46.520272189170726" lon="13.620367267946328"><ele>705.5</ele><time>2026-05-01T21:23:56Z</time></trkpt><trkpt lat="46.52004803344197" lon="13.620288557742708"><ele>720.0</ele><time>2026-05-01T21:23:57Z</time></trkpt><trkpt lat="46.519824480696336" lon="13.620213909461"><ele>720.0</ele><time>2026-05-01T21:23:58Z</time></trkpt><trkpt lat="46.51960138416573" lon="13.620140882698076"><ele>720.0</ele><time>2026-05-01T21:23:59Z</time></trkpt><trkpt lat="46.51937895770114" lon="13.620065885304838"><ele>738.0</ele><time>2026-05-01T21:24:00Z</time></trkpt><trkpt lat="46.51915909709119" lon="13.61998881687458"><ele>756.0</ele><time>2026-05-01T21:24:01Z</time></trkpt><trkpt lat="46.51894105847951" lon="13.619912576301259"><ele>766.5</ele><time>2026-05-01T21:24:02Z</time></trkpt><trkpt lat="46.51862343201768" lon="13.61983807654671"><ele>777.0</ele><time>2026-05-01T21:24:03Z</time></trkpt><trkpt lat="46.51840146913719" lon="13.619767410931752"><ele>777.0</ele><time>2026-05-01T21:24:04Z</time></trkpt><trkpt lat="46.51816933192523" lon="13.619689489316386"><ele>777.0</ele><time>2026-05-01T21:24:05Z</time></trkpt><trkpt lat="46.51793643749047" lon="13.619611529504288"><ele>780.5</ele><time>2026-05-01T21:24:06Z</time></trkpt><trkpt lat="46.51769591168771" lon="13.619530060559597"><ele>784.0</ele><time>2026-05-01T21:24:07Z</time></trkpt><trkpt lat="46.51745158374427" lon="13.6194468972543"><ele>769.0</ele><time>2026-05-01T21:24:08Z</time></trkpt><trkpt lat="46.517210273082924" lon="13.619370957637745"><ele>754.0</ele><time>2026-05-01T21:24:09Z</time></trkpt><trkpt lat="46.51696986916121" lon="13.619290530499457"><ele>754.0</ele><time>2026-05-01T21:24:10Z</time></trkpt><trkpt lat="46.51673061217687" lon="13.619204494586732"><ele>754.0</ele><time>2026-05-01T21:24:11Z</time></trkpt><trkpt lat="46.51649274929428" lon="13.619113434673846"><ele>754.0</ele><time>2026-05-01T21:24:12Z</time></trkpt><trkpt lat="46.51625640380595" lon="13.619008641285077"><ele>754.0</ele><time>2026-05-01T21:24:13Z</time></trkpt><trkpt lat="46.51602433085366" lon="13.618891683559498"><ele>754.0</ele><time>2026-05-01T21:24:14Z</time></trkpt><trkpt lat="46.515792861598804" lon="13.618766418058957"><ele>754.0</ele><time>2026-05-01T21:24:15Z</time></trkpt><trkpt lat="46.515566449961995" lon="13.61863110555432"><ele>753.5</ele><time>2026-05-01T21:24:16Z</time></trkpt><trkpt lat="46.51533837857735" lon="13.618488024493619"><ele>753.0</ele><time>2026-05-01T21:24:17Z</time></trkpt><trkpt lat="46.51510962699381" lon="13.61833647303167"><ele>753.0</ele><time>2026-05-01T21:24:18Z</time></trkpt><trkpt lat="46.51488609894681" lon="13.618176133276828"><ele>753.0</ele><time>2026-05-01T21:24:19Z</time></trkpt><trkpt lat="46.514663063051856" lon="13.618007569072992"><ele>755.0</ele><time>2026-05-01T21:24:20Z</time></trkpt><trkpt lat="46.51444895151907" lon="13.617827192886416"><ele>757.0</ele><time>2026-05-01T21:24:21Z</time></trkpt><trkpt lat="46.51423421302623" lon="13.617636973325853"><ele>758.0</ele><time>2026-05-01T21:24:22Z</time></trkpt><trkpt lat="46.51402422371939" lon="13.61743784011484"><ele>759.0</ele><time>2026-05-01T21:24:23Z</time></trkpt><trkpt lat="46.51382058514386" lon="13.61723250807846"><ele>754.0</ele><time>2026-05-01T21:24:24Z</time></trkpt><trkpt lat="46.513621593875556" lon="13.617020119523325"><ele>749.0</ele><time>2026-05-01T21:24:25Z</time></trkpt><trkpt lat="46.51342904671161" lon="13.61679940664293"><ele>749.0</ele><time>2026-05-01T21:24:26Z</time></trkpt><trkpt lat="46.51324248657709" lon="13.616570628348192"><ele>749.0</ele><time>2026-05-01T21:24:27Z</time></trkpt><trkpt lat="46.513062859096564" lon="13.61633498856059"><ele>747.5</ele><time>2026-05-01T21:24:28Z</time></trkpt><trkpt lat="46.51288628786802" lon="13.616092168799431"><ele>746.0</ele><time>2026-05-01T21:24:29Z</time></trkpt><trkpt lat="46.51271425211446" lon="13.615843129653333"><ele>746.0</ele><time>2026-05-01T21:24:30Z</time></trkpt><trkpt lat="46.512555592800325" lon="13.61559245491917"><ele>746.0</ele><time>2026-05-01T21:24:31Z</time></trkpt><trkpt lat="46.51240367567943" lon="13.615337298534625"><ele>751.5</ele><time>2026-05-01T21:24:32Z</time></trkpt><trkpt lat="46.51225698062679" lon="13.615075777996012"><ele>757.0</ele><time>2026-05-01T21:24:33Z</time></trkpt><trkpt lat="46.51211802547965" lon="13.614812169185633"><ele>752.3333333333334</ele><time>2026-05-01T21:24:34Z</time></trkpt><trkpt lat="46.51198550902959" lon="13.614547014102241"><ele>747.6666666666666</ele><time>2026-05-01T21:24:35Z</time></trkpt><trkpt lat="46.51186140822661" lon="13.614282122884777"><ele>743.0</ele><time>2026-05-01T21:24:36Z</time></trkpt><trkpt lat="46.51173837349298" lon="13.61400795963057"><ele>737.0</ele><time>2026-05-01T21:24:37Z</time></trkpt><trkpt lat="46.51161145222693" lon="13.613719908677306"><ele>731.0</ele><time>2026-05-01T21:24:38Z</time></trkpt><trkpt lat="46.5115005663647" lon="13.61344175144339"><ele>696.0</ele><time>2026-05-01T21:24:39Z</time></trkpt><trkpt lat="46.51103692657747" lon="13.612515918985167"><ele>696.0</ele><time>2026-05-01T21:24:40Z</time></trkpt><trkpt lat="46.51093817484289" lon="13.612326035521892"><ele>696.0</ele><time>2026-05-01T21:24:41Z</time></trkpt><trkpt lat="46.51082821679655" lon="13.612127336508253"><ele>696.0</ele><time>2026-05-01T21:24:42Z</time></trkpt><trkpt lat="46.51072225264237" lon="13.6118215573526"><ele>701.5</ele><time>2026-05-01T21:24:43Z</time></trkpt><trkpt lat="46.510606069757536" lon="13.611526531810894"><ele>707.0</ele><time>2026-05-01T21:24:44Z</time></trkpt><trkpt lat="46.510358201947604" lon="13.61133508506119"><ele>721.0</ele><time>2026-05-01T21:24:45Z</time></trkpt><trkpt lat="46.51023684362427" lon="13.611030994695259"><ele>735.0</ele><time>2026-05-01T21:24:46Z</time></trkpt><trkpt lat="46.510117594869314" lon="13.610716722988347"><ele>735.0</ele><time>2026-05-01T21:24:47Z</time></trkpt><trkpt lat="46.5100076213558" lon="13.610409830409598"><ele>735.0</ele><time>2026-05-01T21:24:48Z</time></trkpt><trkpt lat="46.50989682546015" lon="13.610105111549295"><ele>734.5</ele><time>2026-05-01T21:24:49Z</time></trkpt><trkpt lat="46.50978269372828" lon="13.609818683773117"><ele>734.0</ele><time>2026-05-01T21:24:50Z</time></trkpt><trkpt lat="46.50965975787088" lon="13.609532266695556"><ele>734.5</ele><time>2026-05-01T21:24:51Z</time></trkpt><trkpt lat="46.50953320970621" lon="13.609252485806419"><ele>735.0</ele><time>2026-05-01T21:24:52Z</time></trkpt><trkpt lat="46.50940426607778" lon="13.608974822857279"><ele>723.5</ele><time>2026-05-01T21:24:53Z</time></trkpt><trkpt lat="46.509234126823245" lon="13.608620607210748"><ele>712.0</ele><time>2026-05-01T21:24:54Z</time></trkpt><trkpt lat="46.50907793097783" lon="13.6083400052005"><ele>712.0</ele><time>2026-05-01T21:24:55Z</time></trkpt><trkpt lat="46.508915104399016" lon="13.608062427152797"><ele>712.0</ele><time>2026-05-01T21:24:56Z</time></trkpt><trkpt lat="46.50874868700874" lon="13.607765575579627"><ele>709.0</ele><time>2026-05-01T21:24:57Z</time></trkpt><trkpt lat="46.5085651161208" lon="13.607470058006108"><ele>706.0</ele><time>2026-05-01T21:24:58Z</time></trkpt><trkpt lat="46.50838492686297" lon="13.60721418251567"><ele>701.5</ele><time>2026-05-01T21:24:59Z</time></trkpt><trkpt lat="46.50820419171126" lon="13.60696577667946"><ele>697.0</ele><time>2026-05-01T21:25:00Z</time></trkpt><trkpt lat="46.50801626885466" lon="13.606717764188607"><ele>712.0</ele><time>2026-05-01T21:25:01Z</time></trkpt><trkpt lat="46.50784494187636" lon="13.6064346626189"><ele>727.0</ele><time>2026-05-01T21:25:02Z</time></trkpt><trkpt lat="46.507663131756686" lon="13.606179106372249"><ele>733.0</ele><time>2026-05-01T21:25:03Z</time></trkpt><trkpt lat="46.507484522502196" lon="13.60591761950312"><ele>739.0</ele><time>2026-05-01T21:25:04Z</time></trkpt><trkpt lat="46.507310890826886" lon="13.605648847933265"><ele>739.0</ele><time>2026-05-01T21:25:05Z</time></trkpt><trkpt lat="46.50714334218587" lon="13.605369184633872"><ele>739.0</ele><time>2026-05-01T21:25:06Z</time></trkpt><trkpt lat="46.506982909476356" lon="13.60507958775168"><ele>744.0</ele><time>2026-05-01T21:25:07Z</time></trkpt><trkpt lat="46.50682804136951" lon="13.60478257967685"><ele>749.0</ele><time>2026-05-01T21:25:08Z</time></trkpt><trkpt lat="46.506678380292364" lon="13.604476684952296"><ele>752.0</ele><time>2026-05-01T21:25:09Z</time></trkpt><trkpt lat="46.5065327024793" lon="13.604164272157568"><ele>755.0</ele><time>2026-05-01T21:25:10Z</time></trkpt><trkpt lat="46.5064369646177" lon="13.603909477138421"><ele>754.5</ele><time>2026-05-01T21:25:11Z</time></trkpt><trkpt lat="46.5063232631665" lon="13.603588176482361"><ele>754.0</ele><time>2026-05-01T21:25:12Z</time></trkpt><trkpt lat="46.506220098361815" lon="13.603258943622638"><ele>751.0</ele><time>2026-05-01T21:25:13Z</time></trkpt><trkpt lat="46.50612709726323" lon="13.602925128522191"><ele>748.0</ele><time>2026-05-01T21:25:14Z</time></trkpt><trkpt lat="46.506044395509086" lon="13.602585121822347"><ele>745.0</ele><time>2026-05-01T21:25:15Z</time></trkpt><trkpt lat="46.505966782486446" lon="13.602240579464764"><ele>742.0</ele><time>2026-05-01T21:25:16Z</time></trkpt><trkpt lat="46.505894067931706" lon="13.601890994209118"><ele>734.0</ele><time>2026-05-01T21:25:17Z</time></trkpt><trkpt lat="46.50583258425102" lon="13.60153732509437"><ele>726.0</ele><time>2026-05-01T21:25:18Z</time></trkpt><trkpt lat="46.50578200714081" lon="13.601177776059894"><ele>721.6666666666666</ele><time>2026-05-01T21:25:19Z</time></trkpt><trkpt lat="46.50574529927073" lon="13.600823001540624"><ele>717.3333333333333</ele><time>2026-05-01T21:25:20Z</time></trkpt><trkpt lat="46.50573618157538" lon="13.600557607487756"><ele>713.0</ele><time>2026-05-01T21:25:21Z</time></trkpt><trkpt lat="46.50573004311718" lon="13.600220296749889"><ele>709.5</ele><time>2026-05-01T21:25:22Z</time></trkpt><trkpt lat="46.50572722035077" lon="13.599883383348441"><ele>706.0</ele><time>2026-05-01T21:25:23Z</time></trkpt><trkpt lat="46.50572424899911" lon="13.5995278895429"><ele>704.5</ele><time>2026-05-01T21:25:24Z</time></trkpt><trkpt lat="46.5057351847989" lon="13.59916861072817"><ele>703.0</ele><time>2026-05-01T21:25:25Z</time></trkpt><trkpt lat="46.50574354813963" lon="13.598797525503869"><ele>699.0</ele><time>2026-05-01T21:25:26Z</time></trkpt><trkpt lat="46.505774035255264" lon="13.5984415820097"><ele>695.0</ele><time>2026-05-01T21:25:27Z</time></trkpt><trkpt lat="46.50581773786983" lon="13.598085369273232"><ele>694.5</ele><time>2026-05-01T21:25:28Z</time></trkpt><trkpt lat="46.505872204362504" lon="13.597732682014223"><ele>694.0</ele><time>2026-05-01T21:25:29Z</time></trkpt><trkpt lat="46.50593446307876" lon="13.597381390948573"><ele>694.0</ele><time>2026-05-01T21:25:30Z</time></trkpt><trkpt lat="46.506006111106956" lon="13.597035300315852"><ele>694.0</ele><time>2026-05-01T21:25:31Z</time></trkpt><trkpt lat="46.50608767405778" lon="13.596692113997651"><ele>695.5</ele><time>2026-05-01T21:25:32Z</time></trkpt><trkpt lat="46.50617876335419" lon="13.596355776917623"><ele>697.0</ele><time>2026-05-01T21:25:33Z</time></trkpt><trkpt lat="46.506275946406475" lon="13.596025151273999"><ele>711.0</ele><time>2026-05-01T21:25:34Z</time></trkpt><trkpt lat="46.50638431820432" lon="13.595702523559233"><ele>725.0</ele><time>2026-05-01T21:25:35Z</time></trkpt><trkpt lat="46.50650093289422" lon="13.595382798599097"><ele>736.5</ele><time>2026-05-01T21:25:36Z</time></trkpt><trkpt lat="46.50662146565384" lon="13.595065938805192"><ele>748.0</ele><time>2026-05-01T21:25:37Z</time></trkpt><trkpt lat="46.50674843928501" lon="13.594749154177316"><ele>758.5</ele><time>2026-05-01T21:25:38Z</time></trkpt><trkpt lat="46.5068785377715" lon="13.594431521876038"><ele>769.0</ele><time>2026-05-01T21:25:39Z</time></trkpt><trkpt lat="46.507006908532624" lon="13.59412006170814"><ele>786.5</ele><time>2026-05-01T21:25:40Z</time></trkpt><trkpt lat="46.507134366041214" lon="13.593814671993487"><ele>804.0</ele><time>2026-05-01T21:25:41Z</time></trkpt><trkpt lat="46.50726560037985" lon="13.593499196907352"><ele>805.0</ele><time>2026-05-01T21:25:42Z</time></trkpt><trkpt lat="46.50739785019605" lon="13.593176195001433"><ele>806.0</ele><time>2026-05-01T21:25:43Z</time></trkpt><trkpt lat="46.507531861471264" lon="13.592848382368349"><ele>806.5</ele><time>2026-05-01T21:25:44Z</time></trkpt><trkpt lat="46.50766604144519" lon="13.592518099619985"><ele>807.0</ele><time>2026-05-01T21:25:45Z</time></trkpt><trkpt lat="46.507779390600845" lon="13.592238570600623"><ele>815.5</ele><time>2026-05-01T21:25:46Z</time></trkpt><trkpt lat="46.507903609774125" lon="13.591913844220706"><ele>824.0</ele><time>2026-05-01T21:25:47Z</time></trkpt><trkpt lat="46.508021512537745" lon="13.591585884437182"><ele>837.5</ele><time>2026-05-01T21:25:48Z</time></trkpt><trkpt lat="46.50813599991129" lon="13.591254012075701"><ele>851.0</ele><time>2026-05-01T21:25:49Z</time></trkpt><trkpt lat="46.508252898517675" lon="13.590919878739486"><ele>858.5</ele><time>2026-05-01T21:25:50Z</time></trkpt><trkpt lat="46.508369811267876" lon="13.590581545938683"><ele>866.0</ele><time>2026-05-01T21:25:51Z</time></trkpt><trkpt lat="46.50847876590912" lon="13.590239055896888"><ele>875.0</ele><time>2026-05-01T21:25:52Z</time></trkpt><trkpt lat="46.50858369480421" lon="13.589895634983138"><ele>884.0</ele><time>2026-05-01T21:25:53Z</time></trkpt><trkpt lat="46.50868502967408" lon="13.589551705435534"><ele>906.0</ele><time>2026-05-01T21:25:54Z</time></trkpt><trkpt lat="46.50877865690671" lon="13.58921075551131"><ele>928.0</ele><time>2026-05-01T21:25:55Z</time></trkpt><trkpt lat="46.50886519369663" lon="13.588867732156173"><ele>925.0</ele><time>2026-05-01T21:25:56Z</time></trkpt><trkpt lat="46.50895202466223" lon="13.588519926204686"><ele>922.0</ele><time>2026-05-01T21:25:57Z</time></trkpt><trkpt lat="46.50903692245012" lon="13.58816910484725"><ele>917.5</ele><time>2026-05-01T21:25:58Z</time></trkpt><trkpt lat="46.50911697109387" lon="13.587818149859197"><ele>913.0</ele><time>2026-05-01T21:25:59Z</time></trkpt><trkpt lat="46.50919441111236" lon="13.587465306133213"><ele>913.0</ele><time>2026-05-01T21:26:00Z</time></trkpt><trkpt lat="46.50926743088312" lon="13.587111865785776"><ele>913.0</ele><time>2026-05-01T21:26:01Z</time></trkpt><trkpt lat="46.509337843851" lon="13.586755179993048"><ele>907.5</ele><time>2026-05-01T21:26:02Z</time></trkpt><trkpt lat="46.50940515396513" lon="13.586394675679985"><ele>902.0</ele><time>2026-05-01T21:26:03Z</time></trkpt><trkpt lat="46.5094669428505" lon="13.586034199730104"><ele>895.5</ele><time>2026-05-01T21:26:04Z</time></trkpt><trkpt lat="46.50952594604786" lon="13.585671912459304"><ele>889.0</ele><time>2026-05-01T21:26:05Z</time></trkpt><trkpt lat="46.50958022565069" lon="13.58531080329866"><ele>910.0</ele><time>2026-05-01T21:26:06Z</time></trkpt><trkpt lat="46.509631513300945" lon="13.584947646725618"><ele>931.0</ele><time>2026-05-01T21:26:07Z</time></trkpt><trkpt lat="46.50967886949223" lon="13.5845823016393"><ele>947.5</ele><time>2026-05-01T21:26:08Z</time></trkpt><trkpt lat="46.50972143919595" lon="13.584219224137893"><ele>964.0</ele><time>2026-05-01T21:26:09Z</time></trkpt><trkpt lat="46.509760816164544" lon="13.583851277336004"><ele>969.5</ele><time>2026-05-01T21:26:10Z</time></trkpt><trkpt lat="46.509793691804234" lon="13.583488883332771"><ele>975.0</ele><time>2026-05-01T21:26:11Z</time></trkpt><trkpt lat="46.50982418176899" lon="13.583123024393096"><ele>970.0</ele><time>2026-05-01T21:26:12Z</time></trkpt><trkpt lat="46.50985029847772" lon="13.58275787384217"><ele>965.0</ele><time>2026-05-01T21:26:13Z</time></trkpt><trkpt lat="46.509873162818636" lon="13.582389669524982"><ele>965.0</ele><time>2026-05-01T21:26:14Z</time></trkpt><trkpt lat="46.50989225206422" lon="13.582016262728953"><ele>965.0</ele><time>2026-05-01T21:26:15.023Z</time></trkpt><trkpt lat="46.50740780879784" lon="13.56554009595667"><ele>871.0</ele><time>2026-05-01T21:27:01Z</time></trkpt><trkpt lat="46.50737184668137" lon="13.565187755127386"><ele>777.0</ele><time>2026-05-01T21:27:02Z</time></trkpt><trkpt lat="46.50737759484883" lon="13.564851828612683"><ele>774.5</ele><time>2026-05-01T21:27:03Z</time></trkpt><trkpt lat="46.50739355555526" lon="13.564495609969555"><ele>772.0</ele><time>2026-05-01T21:27:04Z</time></trkpt><trkpt lat="46.50742302204131" lon="13.564147310912496"><ele>772.0</ele><time>2026-05-01T21:27:05Z</time></trkpt><trkpt lat="46.50746020647623" lon="13.563810603258412"><ele>772.0</ele><time>2026-05-01T21:27:06Z</time></trkpt><trkpt lat="46.50750846380215" lon="13.563478470001913"><ele>769.0</ele><time>2026-05-01T21:27:07Z</time></trkpt><trkpt lat="46.50756558676211" lon="13.563147190152446"><ele>766.0</ele><time>2026-05-01T21:27:08Z</time></trkpt><trkpt lat="46.50762210506397" lon="13.562807211257761"><ele>766.0</ele><time>2026-05-01T21:27:09Z</time></trkpt><trkpt lat="46.5076765226539" lon="13.562462637726307"><ele>766.0</ele><time>2026-05-01T21:27:10Z</time></trkpt><trkpt lat="46.50775369278006" lon="13.56211453561023"><ele>768.0</ele><time>2026-05-01T21:27:11Z</time></trkpt><trkpt lat="46.507809472587" lon="13.561768930911356"><ele>770.0</ele><time>2026-05-01T21:27:12Z</time></trkpt><trkpt lat="46.50786675882943" lon="13.561420949640086"><ele>771.0</ele><time>2026-05-01T21:27:13Z</time></trkpt><trkpt lat="46.507926212567874" lon="13.561074582912134"><ele>772.0</ele><time>2026-05-01T21:27:14Z</time></trkpt><trkpt lat="46.50798590413142" lon="13.5607289278611"><ele>772.0</ele><time>2026-05-01T21:27:15Z</time></trkpt><trkpt lat="46.5080465837628" lon="13.560379922524643"><ele>772.0</ele><time>2026-05-01T21:27:16Z</time></trkpt><trkpt lat="46.50810934054865" lon="13.560032206498228"><ele>771.5</ele><time>2026-05-01T21:27:17Z</time></trkpt><trkpt lat="46.50816894872237" lon="13.5596847356506"><ele>771.0</ele><time>2026-05-01T21:27:18Z</time></trkpt><trkpt lat="46.50822952649361" lon="13.559335659968571"><ele>772.5</ele><time>2026-05-01T21:27:19Z</time></trkpt><trkpt lat="46.5082905005628" lon="13.558985868436343"><ele>774.0</ele><time>2026-05-01T21:27:20Z</time></trkpt><trkpt lat="46.508350689416226" lon="13.558637564554141"><ele>778.5</ele><time>2026-05-01T21:27:21Z</time></trkpt><trkpt lat="46.50841144278032" lon="13.55828713445255"><ele>783.0</ele><time>2026-05-01T21:27:22Z</time></trkpt><trkpt lat="46.50847151628708" lon="13.557935340869033"><ele>784.5</ele><time>2026-05-01T21:27:23Z</time></trkpt><trkpt lat="46.50853231452725" lon="13.557589014835216"><ele>786.0</ele><time>2026-05-01T21:27:24Z</time></trkpt><trkpt lat="46.50859346436888" lon="13.557240275239442"><ele>782.5</ele><time>2026-05-01T21:27:25Z</time></trkpt><trkpt lat="46.508655192565726" lon="13.556893715021841"><ele>779.0</ele><time>2026-05-01T21:27:26Z</time></trkpt><trkpt lat="46.508713800174995" lon="13.556561340713868"><ele>779.0</ele><time>2026-05-01T21:27:27Z</time></trkpt><trkpt lat="46.508770062226446" lon="13.556224916520296"><ele>779.0</ele><time>2026-05-01T21:27:28Z</time></trkpt><trkpt lat="46.50882534045763" lon="13.55588341767538"><ele>779.5</ele><time>2026-05-01T21:27:29Z</time></trkpt><trkpt lat="46.50888517633872" lon="13.555536106563444"><ele>780.0</ele><time>2026-05-01T21:27:30Z</time></trkpt><trkpt lat="46.50894398009141" lon="13.555187798851154"><ele>780.5</ele><time>2026-05-01T21:27:31Z</time></trkpt><trkpt lat="46.50900331496031" lon="13.554837190162392"><ele>781.0</ele><time>2026-05-01T21:27:32Z</time></trkpt><trkpt lat="46.50906176367112" lon="13.554487321055745"><ele>783.0</ele><time>2026-05-01T21:27:33Z</time></trkpt><trkpt lat="46.50912000173701" lon="13.554137482652658"><ele>785.0</ele><time>2026-05-01T21:27:34Z</time></trkpt><trkpt lat="46.50917950103975" lon="13.553788146973986"><ele>785.0</ele><time>2026-05-01T21:27:35Z</time></trkpt><trkpt lat="46.50923770296373" lon="13.5534427793643"><ele>785.0</ele><time>2026-05-01T21:27:36Z</time></trkpt><trkpt lat="46.509290103509706" lon="13.553094624888317"><ele>786.0</ele><time>2026-05-01T21:27:37Z</time></trkpt><trkpt lat="46.50933684562226" lon="13.552743215202167"><ele>787.0</ele><time>2026-05-01T21:27:38Z</time></trkpt><trkpt lat="46.509371787443435" lon="13.552389566299313"><ele>787.5</ele><time>2026-05-01T21:27:39Z</time></trkpt><trkpt lat="46.509401117944634" lon="13.55203476329078"><ele>788.0</ele><time>2026-05-01T21:27:40Z</time></trkpt><trkpt lat="46.50942525581891" lon="13.551674109987392"><ele>788.0</ele><time>2026-05-01T21:27:41Z</time></trkpt><trkpt lat="46.509443516305936" lon="13.551311518453833"><ele>788.0</ele><time>2026-05-01T21:27:42Z</time></trkpt><trkpt lat="46.50945749971256" lon="13.550951776898382"><ele>788.0</ele><time>2026-05-01T21:27:43Z</time></trkpt><trkpt lat="46.50946096297919" lon="13.550588708697882"><ele>788.0</ele><time>2026-05-01T21:27:44Z</time></trkpt><trkpt lat="46.50945471069564" lon="13.550224424311477"><ele>788.0</ele><time>2026-05-01T21:27:45Z</time></trkpt><trkpt lat="46.50943799357194" lon="13.549860437013782"><ele>788.0</ele><time>2026-05-01T21:27:46Z</time></trkpt><trkpt lat="46.50941267155792" lon="13.549494955364636"><ele>789.0</ele><time>2026-05-01T21:27:47Z</time></trkpt><trkpt lat="46.50938107162333" lon="13.549127768640263"><ele>790.0</ele><time>2026-05-01T21:27:48Z</time></trkpt><trkpt lat="46.509340872142985" lon="13.54875960772401"><ele>792.0</ele><time>2026-05-01T21:27:49Z</time></trkpt><trkpt lat="46.50929472819174" lon="13.548392971548338"><ele>794.0</ele><time>2026-05-01T21:27:50Z</time></trkpt><trkpt lat="46.509241462301446" lon="13.5480293713715"><ele>796.0</ele><time>2026-05-01T21:27:51Z</time></trkpt><trkpt lat="46.509178816732636" lon="13.547663721852363"><ele>798.0</ele><time>2026-05-01T21:27:52Z</time></trkpt><trkpt lat="46.50910708948629" lon="13.547308038540903"><ele>800.5</ele><time>2026-05-01T21:27:53Z</time></trkpt><trkpt lat="46.50902607630473" lon="13.546953893558591"><ele>803.0</ele><time>2026-05-01T21:27:54Z</time></trkpt><trkpt lat="46.50893652468879" lon="13.546604450336366"><ele>803.0</ele><time>2026-05-01T21:27:55Z</time></trkpt><trkpt lat="46.50883994246173" lon="13.546258937099312"><ele>803.0</ele><time>2026-05-01T21:27:56Z</time></trkpt><trkpt lat="46.508736109612386" lon="13.545913393161674"><ele>803.0</ele><time>2026-05-01T21:27:57Z</time></trkpt><trkpt lat="46.50862978752424" lon="13.545575009094115"><ele>803.0</ele><time>2026-05-01T21:27:58Z</time></trkpt><trkpt lat="46.50851769309328" lon="13.545247245895002"><ele>804.5</ele><time>2026-05-01T21:27:59Z</time></trkpt><trkpt lat="46.508394564951644" lon="13.544924168041666"><ele>806.0</ele><time>2026-05-01T21:28:00Z</time></trkpt><trkpt lat="46.50826276659621" lon="13.544608442977836"><ele>809.5</ele><time>2026-05-01T21:28:01Z</time></trkpt><trkpt lat="46.508125152325746" lon="13.544300966142782"><ele>813.0</ele><time>2026-05-01T21:28:02Z</time></trkpt><trkpt lat="46.507980819702574" lon="13.544001372675023"><ele>814.5</ele><time>2026-05-01T21:28:03Z</time></trkpt><trkpt lat="46.50782956969493" lon="13.543702931691142"><ele>816.0</ele><time>2026-05-01T21:28:04Z</time></trkpt><trkpt lat="46.50767619101536" lon="13.543406255751183"><ele>816.0</ele><time>2026-05-01T21:28:05Z</time></trkpt><trkpt lat="46.507519771139684" lon="13.543109599995619"><ele>816.0</ele><time>2026-05-01T21:28:06Z</time></trkpt><trkpt lat="46.507361786151066" lon="13.542810825657662"><ele>815.5</ele><time>2026-05-01T21:28:07Z</time></trkpt><trkpt lat="46.50720443012249" lon="13.542510547113531"><ele>815.0</ele><time>2026-05-01T21:28:08Z</time></trkpt><trkpt lat="46.507049293397635" lon="13.542205959644303"><ele>820.0</ele><time>2026-05-01T21:28:09Z</time></trkpt><trkpt lat="46.50689430766758" lon="13.541956377172074"><ele>825.0</ele><time>2026-05-01T21:28:10Z</time></trkpt><trkpt lat="46.50674063475266" lon="13.541664200293415"><ele>825.0</ele><time>2026-05-01T21:28:11Z</time></trkpt><trkpt lat="46.50658722817525" lon="13.541372549869699"><ele>825.0</ele><time>2026-05-01T21:28:12Z</time></trkpt><trkpt lat="46.50643271075059" lon="13.541083531442201"><ele>824.5</ele><time>2026-05-01T21:28:13Z</time></trkpt><trkpt lat="46.50627784176527" lon="13.540794594886151"><ele>824.0</ele><time>2026-05-01T21:28:14Z</time></trkpt><trkpt lat="46.50612191255376" lon="13.54050880611299"><ele>827.5</ele><time>2026-05-01T21:28:15Z</time></trkpt><trkpt lat="46.505970129325846" lon="13.540219457350227"><ele>831.0</ele><time>2026-05-01T21:28:16Z</time></trkpt><trkpt lat="46.50582011861371" lon="13.539930500443347"><ele>831.0</ele><time>2026-05-01T21:28:17Z</time></trkpt><trkpt lat="46.50567060310717" lon="13.539639968609954"><ele>831.0</ele><time>2026-05-01T21:28:18Z</time></trkpt><trkpt lat="46.50552063666201" lon="13.539352017370739"><ele>836.5</ele><time>2026-05-01T21:28:19Z</time></trkpt><trkpt lat="46.50537040647882" lon="13.539065567902844"><ele>842.0</ele><time>2026-05-01T21:28:20Z</time></trkpt><trkpt lat="46.50522006548596" lon="13.538780227104231"><ele>846.0</ele><time>2026-05-01T21:28:21Z</time></trkpt><trkpt lat="46.50507198953666" lon="13.538493822292194"><ele>850.0</ele><time>2026-05-01T21:28:22Z</time></trkpt><trkpt lat="46.50492821639122" lon="13.538202348142871"><ele>850.0</ele><time>2026-05-01T21:28:23Z</time></trkpt><trkpt lat="46.50479124947658" lon="13.537904998362041"><ele>850.0</ele><time>2026-05-01T21:28:24Z</time></trkpt><trkpt lat="46.50466482183471" lon="13.537602793789492"><ele>875.5</ele><time>2026-05-01T21:28:25Z</time></trkpt><trkpt lat="46.504542242492114" lon="13.53729229507064"><ele>901.0</ele><time>2026-05-01T21:28:26Z</time></trkpt><trkpt lat="46.50442427337552" lon="13.536973340172146"><ele>901.0</ele><time>2026-05-01T21:28:27Z</time></trkpt><trkpt lat="46.504314911798" lon="13.536649765690578"><ele>901.0</ele><time>2026-05-01T21:28:28Z</time></trkpt><trkpt lat="46.504205721844606" lon="13.536310157583795"><ele>902.0</ele><time>2026-05-01T21:28:29Z</time></trkpt><trkpt lat="46.504104687246794" lon="13.535963738508093"><ele>903.0</ele><time>2026-05-01T21:28:30Z</time></trkpt><trkpt lat="46.504010299222536" lon="13.535610789573138"><ele>904.0</ele><time>2026-05-01T21:28:31Z</time></trkpt><trkpt lat="46.503928683366446" lon="13.535261123233399"><ele>905.0</ele><time>2026-05-01T21:28:32Z</time></trkpt><trkpt lat="46.503860838911514" lon="13.534916925074478"><ele>905.0</ele><time>2026-05-01T21:28:33Z</time></trkpt><trkpt lat="46.50380136240567" lon="13.534573583288596"><ele>905.0</ele><time>2026-05-01T21:28:34Z</time></trkpt><trkpt lat="46.50374650743856" lon="13.534221963276115"><ele>920.0</ele><time>2026-05-01T21:28:35Z</time></trkpt><trkpt lat="46.50370309428941" lon="13.533874395793257"><ele>935.0</ele><time>2026-05-01T21:28:36Z</time></trkpt><trkpt lat="46.503666319932684" lon="13.533523280803953"><ele>937.0</ele><time>2026-05-01T21:28:37Z</time></trkpt><trkpt lat="46.503638869411525" lon="13.533174530412966"><ele>939.0</ele><time>2026-05-01T21:28:38Z</time></trkpt><trkpt lat="46.5036178548924" lon="13.53282121786203"><ele>947.5</ele><time>2026-05-01T21:28:39Z</time></trkpt><trkpt lat="46.50360619880108" lon="13.532470825880198"><ele>956.0</ele><time>2026-05-01T21:28:40Z</time></trkpt><trkpt lat="46.50360389513275" lon="13.532122765136844"><ele>962.0</ele><time>2026-05-01T21:28:41Z</time></trkpt><trkpt lat="46.50361053885259" lon="13.531774732375066"><ele>968.0</ele><time>2026-05-01T21:28:42Z</time></trkpt><trkpt lat="46.50362562851608" lon="13.531429968905226"><ele>970.5</ele><time>2026-05-01T21:28:43Z</time></trkpt><trkpt lat="46.50364826519625" lon="13.531086462389615"><ele>973.0</ele><time>2026-05-01T21:28:44Z</time></trkpt><trkpt lat="46.503677182588916" lon="13.530739900728618"><ele>973.0</ele><time>2026-05-01T21:28:45Z</time></trkpt><trkpt lat="46.503714479946375" lon="13.530394063153794"><ele>973.0</ele><time>2026-05-01T21:28:46Z</time></trkpt><trkpt lat="46.50376246932385" lon="13.53005704602266"><ele>949.5</ele><time>2026-05-01T21:28:47Z</time></trkpt><trkpt lat="46.50381596308613" lon="13.52972187447177"><ele>926.0</ele><time>2026-05-01T21:28:48Z</time></trkpt><trkpt lat="46.50387367812424" lon="13.529392908248132"><ele>923.0</ele><time>2026-05-01T21:28:49Z</time></trkpt><trkpt lat="46.503929106932" lon="13.529062279093464"><ele>920.0</ele><time>2026-05-01T21:28:50Z</time></trkpt><trkpt lat="46.503982182944725" lon="13.52871372290596"><ele>917.0</ele><time>2026-05-01T21:28:51Z</time></trkpt><trkpt lat="46.504036238834864" lon="13.52833247569281"><ele>914.0</ele><time>2026-05-01T21:28:52.023Z</time></trkpt><trkpt lat="46.50471209785904" lon="13.522907163588998"><ele>867.0</ele><time>2026-05-01T21:29:06Z</time></trkpt><trkpt lat="46.504757465764804" lon="13.52254918195591"><ele>820.0</ele><time>2026-05-01T21:29:07Z</time></trkpt><trkpt lat="46.504879749175984" lon="13.522279928438929"><ele>817.5</ele><time>2026-05-01T21:29:08.001Z</time></trkpt><trkpt lat="46.50493492168506" lon="13.521952318512065"><ele>815.0</ele><time>2026-05-01T21:29:09.001Z</time></trkpt><trkpt lat="46.50500441743087" lon="13.52159210000302"><ele>815.0</ele><time>2026-05-01T21:29:10.001Z</time></trkpt><trkpt lat="46.50506101171183" lon="13.521235843677546"><ele>815.0</ele><time>2026-05-01T21:29:11.001Z</time></trkpt><trkpt lat="46.505116666864716" lon="13.520880098090183"><ele>814.0</ele><time>2026-05-01T21:29:12.001Z</time></trkpt><trkpt lat="46.50519710146446" lon="13.520553168511716"><ele>813.0</ele><time>2026-05-01T21:29:13.001Z</time></trkpt><trkpt lat="46.505250147616486" lon="13.52020066459463"><ele>811.0</ele><time>2026-05-01T21:29:14.001Z</time></trkpt><trkpt lat="46.505294577802104" lon="13.519845825782275"><ele>809.0</ele><time>2026-05-01T21:29:15.001Z</time></trkpt><trkpt lat="46.50533155117586" lon="13.519487141618113"><ele>807.5</ele><time>2026-05-01T21:29:16.001Z</time></trkpt><trkpt lat="46.505367471909544" lon="13.519129386828583"><ele>806.0</ele><time>2026-05-01T21:29:17.001Z</time></trkpt><trkpt lat="46.50539882120722" lon="13.51877202977714"><ele>807.5</ele><time>2026-05-01T21:29:18.001Z</time></trkpt><trkpt lat="46.505425573322206" lon="13.518412211158191"><ele>809.0</ele><time>2026-05-01T21:29:19.001Z</time></trkpt><trkpt lat="46.50544890809723" lon="13.51805535090431"><ele>810.5</ele><time>2026-05-01T21:29:20.001Z</time></trkpt><trkpt lat="46.50546407251385" lon="13.517692368885031"><ele>812.0</ele><time>2026-05-01T21:29:21.001Z</time></trkpt><trkpt lat="46.50547431849529" lon="13.517330536481559"><ele>811.5</ele><time>2026-05-01T21:29:22.001Z</time></trkpt><trkpt lat="46.50548094970448" lon="13.516967474089418"><ele>811.0</ele><time>2026-05-01T21:29:23.001Z</time></trkpt><trkpt lat="46.505482031436465" lon="13.516603578438932"><ele>811.0</ele><time>2026-05-01T21:29:24.001Z</time></trkpt><trkpt lat="46.50547808039552" lon="13.516238834807048"><ele>811.0</ele><time>2026-05-01T21:29:25.001Z</time></trkpt><trkpt lat="46.5054677081457" lon="13.515876308446867"><ele>808.5</ele><time>2026-05-01T21:29:26.001Z</time></trkpt><trkpt lat="46.50544802940901" lon="13.515513604955737"><ele>806.0</ele><time>2026-05-01T21:29:27.001Z</time></trkpt><trkpt lat="46.50542530019941" lon="13.515149735472406"><ele>805.0</ele><time>2026-05-01T21:29:28.001Z</time></trkpt><trkpt lat="46.50539404953014" lon="13.514787913444835"><ele>804.0</ele><time>2026-05-01T21:29:29.001Z</time></trkpt><trkpt lat="46.5053579171336" lon="13.51442503853946"><ele>803.0</ele><time>2026-05-01T21:29:30.001Z</time></trkpt><trkpt lat="46.505317140746236" lon="13.514064226153888"><ele>802.0</ele><time>2026-05-01T21:29:31.001Z</time></trkpt><trkpt lat="46.50526826441264" lon="13.513703108806224"><ele>802.0</ele><time>2026-05-01T21:29:32.001Z</time></trkpt><trkpt lat="46.505213617206095" lon="13.51334441960438"><ele>802.0</ele><time>2026-05-01T21:29:33.001Z</time></trkpt><trkpt lat="46.505153138543825" lon="13.512984971536344"><ele>803.5</ele><time>2026-05-01T21:29:34.001Z</time></trkpt><trkpt lat="46.50508699188595" lon="13.512631082401366"><ele>805.0</ele><time>2026-05-01T21:29:35.001Z</time></trkpt><trkpt lat="46.505014803148754" lon="13.512277493736732"><ele>807.5</ele><time>2026-05-01T21:29:36.001Z</time></trkpt><trkpt lat="46.50493927411248" lon="13.511925832285035"><ele>810.0</ele><time>2026-05-01T21:29:37.001Z</time></trkpt><trkpt lat="46.50486005977718" lon="13.511576967598915"><ele>811.0</ele><time>2026-05-01T21:29:38.001Z</time></trkpt><trkpt lat="46.504780491775705" lon="13.51123122530846"><ele>812.0</ele><time>2026-05-01T21:29:39.001Z</time></trkpt><trkpt lat="46.50469940626303" lon="13.51088713037684"><ele>812.0</ele><time>2026-05-01T21:29:40.001Z</time></trkpt><trkpt lat="46.504614886947145" lon="13.51054261421798"><ele>812.0</ele><time>2026-05-01T21:29:41.001Z</time></trkpt><trkpt lat="46.50453680307331" lon="13.510194087139029"><ele>803.5</ele><time>2026-05-01T21:29:42.001Z</time></trkpt><trkpt lat="46.50445630521315" lon="13.509845992428147"><ele>795.0</ele><time>2026-05-01T21:29:43.001Z</time></trkpt><trkpt lat="46.504375563432895" lon="13.509499190852162"><ele>795.0</ele><time>2026-05-01T21:29:44.001Z</time></trkpt><trkpt lat="46.50429511622204" lon="13.509149417776351"><ele>795.0</ele><time>2026-05-01T21:29:45.001Z</time></trkpt><trkpt lat="46.5042147273097" lon="13.508806443018825"><ele>796.0</ele><time>2026-05-01T21:29:46.001Z</time></trkpt><trkpt lat="46.50413695530541" lon="13.508476920630766"><ele>797.0</ele><time>2026-05-01T21:29:47.001Z</time></trkpt><trkpt lat="46.50405753491092" lon="13.508143823401662"><ele>797.0</ele><time>2026-05-01T21:29:48.001Z</time></trkpt><trkpt lat="46.503979414424585" lon="13.507804780451702"><ele>797.0</ele><time>2026-05-01T21:29:49.001Z</time></trkpt><trkpt lat="46.503899565939506" lon="13.507459749232202"><ele>797.0</ele><time>2026-05-01T21:29:50.001Z</time></trkpt><trkpt lat="46.50382060483529" lon="13.507108218225838"><ele>797.0</ele><time>2026-05-01T21:29:51.001Z</time></trkpt><trkpt lat="46.503741380659875" lon="13.506754268688148"><ele>796.5</ele><time>2026-05-01T21:29:52.001Z</time></trkpt><trkpt lat="46.503661435371484" lon="13.506398922718764"><ele>796.0</ele><time>2026-05-01T21:29:53.001Z</time></trkpt><trkpt lat="46.50358050816863" lon="13.506043707690598"><ele>796.0</ele><time>2026-05-01T21:29:54.001Z</time></trkpt><trkpt lat="46.50349994235483" lon="13.505688328986018"><ele>796.0</ele><time>2026-05-01T21:29:55.001Z</time></trkpt><trkpt lat="46.5034197598695" lon="13.505333177205138"><ele>799.0</ele><time>2026-05-01T21:29:56.001Z</time></trkpt><trkpt lat="46.50334079663187" lon="13.504978348003624"><ele>802.0</ele><time>2026-05-01T21:29:57.001Z</time></trkpt><trkpt lat="46.50326250700398" lon="13.504625169422262"><ele>806.0</ele><time>2026-05-01T21:29:58.001Z</time></trkpt><trkpt lat="46.503184922969474" lon="13.504272230946093"><ele>810.0</ele><time>2026-05-01T21:29:59.001Z</time></trkpt><trkpt lat="46.50310966771061" lon="13.503917850970016"><ele>813.0</ele><time>2026-05-01T21:30:00.001Z</time></trkpt><trkpt lat="46.503039973188535" lon="13.503561222694154"><ele>816.0</ele><time>2026-05-01T21:30:01.001Z</time></trkpt><trkpt lat="46.502977790395065" lon="13.503202512159357"><ele>818.0</ele><time>2026-05-01T21:30:02.001Z</time></trkpt><trkpt lat="46.50292179048712" lon="13.502836576816172"><ele>820.0</ele><time>2026-05-01T21:30:03.001Z</time></trkpt><trkpt lat="46.502880711578825" lon="13.50246865364588"><ele>805.5</ele><time>2026-05-01T21:30:04.001Z</time></trkpt><trkpt lat="46.502845491645424" lon="13.50209519823632"><ele>791.0</ele><time>2026-05-01T21:30:05.001Z</time></trkpt><trkpt lat="46.50282307116883" lon="13.501720364857828"><ele>791.0</ele><time>2026-05-01T21:30:06.001Z</time></trkpt><trkpt lat="46.50281234224301" lon="13.501343465625236"><ele>791.0</ele><time>2026-05-01T21:30:07.001Z</time></trkpt><trkpt lat="46.502793037673605" lon="13.5009705848875"><ele>794.0</ele><time>2026-05-01T21:30:08.001Z</time></trkpt><trkpt lat="46.50282473224947" lon="13.500594782221384"><ele>797.0</ele><time>2026-05-01T21:30:09.001Z</time></trkpt><trkpt lat="46.50285048740544" lon="13.500224122855302"><ele>800.0</ele><time>2026-05-01T21:30:10.001Z</time></trkpt><trkpt lat="46.50288933240356" lon="13.499854953830857"><ele>803.0</ele><time>2026-05-01T21:30:11.001Z</time></trkpt><trkpt lat="46.502938220705325" lon="13.499487396897008"><ele>813.5</ele><time>2026-05-01T21:30:12.001Z</time></trkpt><trkpt lat="46.5029988498326" lon="13.499122123816019"><ele>824.0</ele><time>2026-05-01T21:30:13.001Z</time></trkpt><trkpt lat="46.50306959529543" lon="13.498762153720966"><ele>843.0</ele><time>2026-05-01T21:30:14.001Z</time></trkpt><trkpt lat="46.50315039422981" lon="13.498405119142518"><ele>862.0</ele><time>2026-05-01T21:30:15.001Z</time></trkpt><trkpt lat="46.50324164105995" lon="13.498053281665642"><ele>865.5</ele><time>2026-05-01T21:30:16.001Z</time></trkpt><trkpt lat="46.50334358741874" lon="13.49770632617655"><ele>869.0</ele><time>2026-05-01T21:30:17.001Z</time></trkpt><trkpt lat="46.503452472448025" lon="13.49736277794987"><ele>841.5</ele><time>2026-05-01T21:30:18.001Z</time></trkpt><trkpt lat="46.503588384734144" lon="13.49700183275674"><ele>814.0</ele><time>2026-05-01T21:30:19.001Z</time></trkpt><trkpt lat="46.503727931300425" lon="13.496674676231564"><ele>809.5</ele><time>2026-05-01T21:30:20.001Z</time></trkpt><trkpt lat="46.50387410302703" lon="13.49635615872469"><ele>805.0</ele><time>2026-05-01T21:30:21.001Z</time></trkpt><trkpt lat="46.50401612111532" lon="13.49606076743501"><ele>805.0</ele><time>2026-05-01T21:30:22.001Z</time></trkpt><trkpt lat="46.50415821451857" lon="13.495775763502738"><ele>805.0</ele><time>2026-05-01T21:30:23.001Z</time></trkpt><trkpt lat="46.50423877544853" lon="13.495541176841224"><ele>805.0</ele><time>2026-05-01T21:30:24.001Z</time></trkpt><trkpt lat="46.50438052203364" lon="13.495312572286103"><ele>801.0</ele><time>2026-05-01T21:30:25.001Z</time></trkpt><trkpt lat="46.50450849056985" lon="13.495057620568677"><ele>797.0</ele><time>2026-05-01T21:30:26.001Z</time></trkpt><trkpt lat="46.50463497760267" lon="13.494793872335265"><ele>793.0</ele><time>2026-05-01T21:30:27.001Z</time></trkpt><trkpt lat="46.50476421666494" lon="13.494538973513533"><ele>793.0</ele><time>2026-05-01T21:30:28.001Z</time></trkpt><trkpt lat="46.504890775327304" lon="13.494282594562984"><ele>793.0</ele><time>2026-05-01T21:30:29.001Z</time></trkpt><trkpt lat="46.50501955789258" lon="13.494025419004792"><ele>793.0</ele><time>2026-05-01T21:30:30.001Z</time></trkpt><trkpt lat="46.50514495060892" lon="13.493759081228944"><ele>794.0</ele><time>2026-05-01T21:30:31.001Z</time></trkpt><trkpt lat="46.505266505722155" lon="13.493488874770936"><ele>795.0</ele><time>2026-05-01T21:30:32.001Z</time></trkpt><trkpt lat="46.50538226275052" lon="13.49321798268935"><ele>796.0</ele><time>2026-05-01T21:30:33.001Z</time></trkpt><trkpt lat="46.505494083589426" lon="13.492940863805607"><ele>793.0</ele><time>2026-05-01T21:30:34.001Z</time></trkpt><trkpt lat="46.50560461289327" lon="13.492661056403616"><ele>790.0</ele><time>2026-05-01T21:30:35.001Z</time></trkpt><trkpt lat="46.505710871491054" lon="13.492381855544807"><ele>787.0</ele><time>2026-05-01T21:30:36.001Z</time></trkpt><trkpt lat="46.505812568779284" lon="13.49210425202341"><ele>786.3333333333333</ele><time>2026-05-01T21:30:37.001Z</time></trkpt><trkpt lat="46.50590805559793" lon="13.491835777326777"><ele>785.6666666666667</ele><time>2026-05-01T21:30:38.001Z</time></trkpt><trkpt lat="46.50599604579686" lon="13.491575217688583"><ele>785.0</ele><time>2026-05-01T21:30:39.001Z</time></trkpt><trkpt lat="46.5060792212451" lon="13.491311033858308"><ele>785.3333333333334</ele><time>2026-05-01T21:30:40.001Z</time></trkpt><trkpt lat="46.50615994558575" lon="13.491041617289566"><ele>785.6666666666667</ele><time>2026-05-01T21:30:41.001Z</time></trkpt><trkpt lat="46.506236591187594" lon="13.49077016937294"><ele>786.0</ele><time>2026-05-01T21:30:42.001Z</time></trkpt><trkpt lat="46.506308060442834" lon="13.490495054041391"><ele>785.3333333333333</ele><time>2026-05-01T21:30:43.001Z</time></trkpt><trkpt lat="46.50637671288989" lon="13.490216719359546"><ele>784.6666666666666</ele><time>2026-05-01T21:30:44.001Z</time></trkpt><trkpt lat="46.50644228195316" lon="13.489940344219873"><ele>784.0</ele><time>2026-05-01T21:30:45.001Z</time></trkpt><trkpt lat="46.50650471710914" lon="13.489663263200855"><ele>782.0</ele><time>2026-05-01T21:30:46.001Z</time></trkpt><trkpt lat="46.506563041640284" lon="13.489388238016508"><ele>780.0</ele><time>2026-05-01T21:30:47.001Z</time></trkpt><trkpt lat="46.506618046440515" lon="13.489112289666537"><ele>778.0</ele><time>2026-05-01T21:30:48.001Z</time></trkpt><trkpt lat="46.50666802484801" lon="13.488835221310447"><ele>778.0</ele><time>2026-05-01T21:30:49.001Z</time></trkpt><trkpt lat="46.50671449275125" lon="13.488557726421654"><ele>778.0</ele><time>2026-05-01T21:30:50.001Z</time></trkpt><trkpt lat="46.50675673427729" lon="13.488280205587458"><ele>778.0</ele><time>2026-05-01T21:30:51.001Z</time></trkpt><trkpt lat="46.506794923496514" lon="13.488006761381587"><ele>777.6666666666666</ele><time>2026-05-01T21:30:52.001Z</time></trkpt><trkpt lat="46.506831654554944" lon="13.487733553972824"><ele>777.3333333333333</ele><time>2026-05-01T21:30:53.001Z</time></trkpt><trkpt lat="46.5068641466659" lon="13.487459800680586"><ele>777.0</ele><time>2026-05-01T21:30:54.001Z</time></trkpt><trkpt lat="46.5068917754311" lon="13.4871839191"><ele>776.3333333333333</ele><time>2026-05-01T21:30:55.001Z</time></trkpt><trkpt lat="46.50691557238491" lon="13.486912507139454"><ele>775.6666666666666</ele><time>2026-05-01T21:30:56.001Z</time></trkpt><trkpt lat="46.50693387327706" lon="13.486644787805378"><ele>775.0</ele><time>2026-05-01T21:30:57.001Z</time></trkpt><trkpt lat="46.506948646208336" lon="13.486370325518692"><ele>774.3333333333333</ele><time>2026-05-01T21:30:58.001Z</time></trkpt><trkpt lat="46.50696291187023" lon="13.486099838773706"><ele>773.6666666666667</ele><time>2026-05-01T21:30:59.001Z</time></trkpt><trkpt lat="46.50697262934048" lon="13.485831291917737"><ele>773.0</ele><time>2026-05-01T21:31:00.001Z</time></trkpt><trkpt lat="46.50698120440544" lon="13.485564913458207"><ele>773.3333333333334</ele><time>2026-05-01T21:31:01.001Z</time></trkpt><trkpt lat="46.5069858159348" lon="13.485302042700248"><ele>773.6666666666667</ele><time>2026-05-01T21:31:02.001Z</time></trkpt><trkpt lat="46.506988191327906" lon="13.485042499315252"><ele>774.0</ele><time>2026-05-01T21:31:03.001Z</time></trkpt><trkpt lat="46.50698692860152" lon="13.484785142888086"><ele>773.3333333333333</ele><time>2026-05-01T21:31:04.001Z</time></trkpt><trkpt lat="46.506984491385005" lon="13.48453239111278"><ele>772.6666666666666</ele><time>2026-05-01T21:31:05.001Z</time></trkpt><trkpt lat="46.50698180971298" lon="13.484282652093494"><ele>772.0</ele><time>2026-05-01T21:31:06.001Z</time></trkpt><trkpt lat="46.506982133503065" lon="13.484040701062948"><ele>772.0</ele><time>2026-05-01T21:31:07.001Z</time></trkpt><trkpt lat="46.506980753704" lon="13.483809413770828"><ele>772.0</ele><time>2026-05-01T21:31:08.001Z</time></trkpt><trkpt lat="46.5069776157042" lon="13.483582482677328"><ele>772.0</ele><time>2026-05-01T21:31:09.001Z</time></trkpt><trkpt lat="46.5069759938964" lon="13.483369331770524"><ele>772.25</ele><time>2026-05-01T21:31:10.001Z</time></trkpt><trkpt lat="46.50697495587625" lon="13.483167763733105"><ele>772.5</ele><time>2026-05-01T21:31:11.001Z</time></trkpt><trkpt lat="46.50697307061203" lon="13.482975765061584"><ele>772.75</ele><time>2026-05-01T21:31:12.001Z</time></trkpt><trkpt lat="46.50697060964871" lon="13.482795415034321"><ele>773.0</ele><time>2026-05-01T21:31:13.001Z</time></trkpt><trkpt lat="46.50696744092457" lon="13.482620732630831"><ele>773.0</ele><time>2026-05-01T21:31:14.001Z</time></trkpt><trkpt lat="46.50696527907677" lon="13.482452812094719"><ele>773.0</ele><time>2026-05-01T21:31:15.001Z</time></trkpt><trkpt lat="46.50696303325712" lon="13.482290447973952"><ele>773.0</ele><time>2026-05-01T21:31:16.001Z</time></trkpt><trkpt lat="46.506961345610335" lon="13.482132309504355"><ele>773.0</ele><time>2026-05-01T21:31:17.001Z</time></trkpt><trkpt lat="46.50696078133545" lon="13.481991954188594"><ele>773.0</ele><time>2026-05-01T21:31:18.001Z</time></trkpt><trkpt lat="46.50695899897045" lon="13.481861896691822"><ele>773.5000000000001</ele><time>2026-05-01T21:31:19.001Z</time></trkpt><trkpt lat="46.50695593757111" lon="13.481735995973477"><ele>774.0</ele><time>2026-05-01T21:31:20.001Z</time></trkpt><trkpt lat="46.506953929775506" lon="13.48161528753029"><ele>774.5</ele><time>2026-05-01T21:31:21.001Z</time></trkpt><trkpt lat="46.506949767093936" lon="13.481499927210647"><ele>775.0</ele><time>2026-05-01T21:31:22.001Z</time></trkpt><trkpt lat="46.506947228219644" lon="13.481392251411192"><ele>775.5000000000001</ele><time>2026-05-01T21:31:23.001Z</time></trkpt><trkpt lat="46.50694623652445" lon="13.481292374644733"><ele>776.0</ele><time>2026-05-01T21:31:24.001Z</time></trkpt><trkpt lat="46.50694396886432" lon="13.481200832723479"><ele>776.3333333333334</ele><time>2026-05-01T21:31:25.001Z</time></trkpt><trkpt lat="46.50694057208326" lon="13.481048653059096"><ele>776.6666666666667</ele><time>2026-05-01T21:31:27.001Z</time></trkpt><trkpt lat="46.50693934515934" lon="13.480955724136242"><ele>777.0</ele><time>2026-05-01T21:31:29.001Z</time></trkpt><trkpt lat="46.50698670712712" lon="13.48089069292986"><ele>777.3333333333333</ele><time>2026-05-01T21:31:53.001Z</time></trkpt><trkpt lat="46.50697304566168" lon="13.480782159261954"><ele>777.6666666666666</ele><time>2026-05-01T21:32:10Z</time></trkpt><trkpt lat="46.506927108547316" lon="13.480645749371442"><ele>778.0</ele><time>2026-05-01T21:32:12Z</time></trkpt><trkpt lat="46.50692872427167" lon="13.480546468173724"><ele>777.0</ele><time>2026-05-01T21:32:16Z</time></trkpt><trkpt lat="46.506932975221886" lon="13.48036141085016"><ele>776.0</ele><time>2026-05-01T21:33:23.001Z</time></trkpt><trkpt lat="46.50693564361281" lon="13.4802377269236"><ele>775.0</ele><time>2026-05-01T21:33:24.001Z</time></trkpt><trkpt lat="46.50693843580031" lon="13.480088078435708"><ele>774.0</ele><time>2026-05-01T21:33:25.001Z</time></trkpt><trkpt lat="46.50693894673798" lon="13.479948917105883"><ele>773.0</ele><time>2026-05-01T21:33:26.001Z</time></trkpt><trkpt lat="46.50693575290521" lon="13.479796890945092"><ele>773.0</ele><time>2026-05-01T21:33:27.001Z</time></trkpt><trkpt lat="46.50693449125718" lon="13.479616147036257"><ele>773.0</ele><time>2026-05-01T21:33:28.001Z</time></trkpt><trkpt lat="46.50693407360182" lon="13.479422408549496"><ele>773.0</ele><time>2026-05-01T21:33:29.001Z</time></trkpt><trkpt lat="46.50693558603691" lon="13.47920941043307"><ele>773.0</ele><time>2026-05-01T21:33:30.001Z</time></trkpt><trkpt lat="46.50693294152348" lon="13.479000190024513"><ele>773.0</ele><time>2026-05-01T21:33:31.001Z</time></trkpt><trkpt lat="46.506927315142505" lon="13.478776170926578"><ele>773.0</ele><time>2026-05-01T21:33:32.001Z</time></trkpt><trkpt lat="46.506921335792285" lon="13.478534635746739"><ele>773.0</ele><time>2026-05-01T21:33:33.001Z</time></trkpt><trkpt lat="46.50691587628349" lon="13.478276930059087"><ele>773.0</ele><time>2026-05-01T21:33:34.001Z</time></trkpt><trkpt lat="46.50691260158429" lon="13.478002058484757"><ele>773.0</ele><time>2026-05-01T21:33:35.001Z</time></trkpt><trkpt lat="46.506909181188895" lon="13.47770789513734"><ele>773.0</ele><time>2026-05-01T21:33:36.001Z</time></trkpt><trkpt lat="46.506907658669384" lon="13.47740881920186"><ele>771.0</ele><time>2026-05-01T21:33:37.001Z</time></trkpt><trkpt lat="46.50690495951416" lon="13.477132697211147"><ele>769.0</ele><time>2026-05-01T21:33:38.001Z</time></trkpt><trkpt lat="46.50690292406976" lon="13.476834876358556"><ele>767.0</ele><time>2026-05-01T21:33:39.001Z</time></trkpt><trkpt lat="46.50690444644973" lon="13.47650862449867"><ele>766.5</ele><time>2026-05-01T21:33:40.001Z</time></trkpt><trkpt lat="46.50690898288104" lon="13.476168016484019"><ele>766.0</ele><time>2026-05-01T21:33:41.001Z</time></trkpt><trkpt lat="46.50690478932584" lon="13.475821505675732"><ele>766.0</ele><time>2026-05-01T21:33:42.001Z</time></trkpt><trkpt lat="46.5069189546922" lon="13.475487803037586"><ele>766.0</ele><time>2026-05-01T21:33:43.001Z</time></trkpt><trkpt lat="46.50694049864133" lon="13.475146235660064"><ele>767.0</ele><time>2026-05-01T21:33:44.001Z</time></trkpt><trkpt lat="46.50696824056773" lon="13.474800565699496"><ele>768.0</ele><time>2026-05-01T21:33:45.001Z</time></trkpt><trkpt lat="46.50700469624938" lon="13.474450503031912"><ele>768.0</ele><time>2026-05-01T21:33:46.001Z</time></trkpt><trkpt lat="46.50704469145251" lon="13.474109273294214"><ele>768.0</ele><time>2026-05-01T21:33:47.001Z</time></trkpt><trkpt lat="46.50709065720348" lon="13.47376818592206"><ele>768.0</ele><time>2026-05-01T21:33:48.001Z</time></trkpt><trkpt lat="46.507145473231944" lon="13.47343108468034"><ele>768.0</ele><time>2026-05-01T21:33:49.001Z</time></trkpt><trkpt lat="46.507203166584446" lon="13.473092855029735"><ele>767.0</ele><time>2026-05-01T21:33:50.001Z</time></trkpt><trkpt lat="46.5072653891391" lon="13.472771817559115"><ele>766.0</ele><time>2026-05-01T21:33:51.001Z</time></trkpt><trkpt lat="46.50733567180911" lon="13.472441945606255"><ele>766.0</ele><time>2026-05-01T21:33:52.001Z</time></trkpt><trkpt lat="46.507413907127926" lon="13.47210993289545"><ele>766.0</ele><time>2026-05-01T21:33:53.001Z</time></trkpt><trkpt lat="46.507497125530314" lon="13.471779699220553"><ele>765.5</ele><time>2026-05-01T21:33:54.001Z</time></trkpt><trkpt lat="46.5075880699803" lon="13.47145372122569"><ele>765.0</ele><time>2026-05-01T21:33:55.001Z</time></trkpt><trkpt lat="46.507687902338276" lon="13.471123305456139"><ele>765.0</ele><time>2026-05-01T21:33:56.001Z</time></trkpt><trkpt lat="46.50779221696286" lon="13.470803800345982"><ele>765.0</ele><time>2026-05-01T21:33:57.001Z</time></trkpt><trkpt lat="46.507902245525756" lon="13.470476080110505"><ele>765.5</ele><time>2026-05-01T21:33:58.001Z</time></trkpt><trkpt lat="46.50801444581796" lon="13.470147055778318"><ele>766.0</ele><time>2026-05-01T21:33:59.001Z</time></trkpt><trkpt lat="46.50812640575259" lon="13.46981211854553"><ele>765.0</ele><time>2026-05-01T21:34:00.001Z</time></trkpt><trkpt lat="46.50823451511113" lon="13.469476313712248"><ele>764.0</ele><time>2026-05-01T21:34:01.001Z</time></trkpt><trkpt lat="46.508336647270134" lon="13.469130850568886"><ele>765.0</ele><time>2026-05-01T21:34:02.001Z</time></trkpt><trkpt lat="46.50843275687586" lon="13.46877244996343"><ele>766.0</ele><time>2026-05-01T21:34:03.001Z</time></trkpt><trkpt lat="46.50851538319476" lon="13.4684130099787"><ele>766.0</ele><time>2026-05-01T21:34:04.001Z</time></trkpt><trkpt lat="46.508588248274634" lon="13.4680444458564"><ele>766.0</ele><time>2026-05-01T21:34:05.001Z</time></trkpt><trkpt lat="46.5086504921411" lon="13.46766693712889"><ele>765.5</ele><time>2026-05-01T21:34:06.001Z</time></trkpt><trkpt lat="46.50870055678862" lon="13.467286883270889"><ele>765.0</ele><time>2026-05-01T21:34:07.001Z</time></trkpt><trkpt lat="46.50873918306218" lon="13.466895526519725"><ele>764.0</ele><time>2026-05-01T21:34:08.001Z</time></trkpt><trkpt lat="46.50876234704375" lon="13.466504930416908"><ele>763.0</ele><time>2026-05-01T21:34:09.001Z</time></trkpt><trkpt lat="46.50877083814028" lon="13.466109487399144"><ele>763.0</ele><time>2026-05-01T21:34:10.001Z</time></trkpt><trkpt lat="46.50876758275295" lon="13.465707234715637"><ele>763.0</ele><time>2026-05-01T21:34:11.001Z</time></trkpt><trkpt lat="46.508747276007455" lon="13.46530816905717"><ele>767.0</ele><time>2026-05-01T21:34:12.001Z</time></trkpt><trkpt lat="46.50871539723271" lon="13.464906257868456"><ele>771.0</ele><time>2026-05-01T21:34:13.001Z</time></trkpt><trkpt lat="46.50866955945075" lon="13.464505599834352"><ele>771.0</ele><time>2026-05-01T21:34:14Z</time></trkpt><trkpt lat="46.50861077507378" lon="13.464106181140929"><ele>771.0</ele><time>2026-05-01T21:34:15Z</time></trkpt><trkpt lat="46.50853458890856" lon="13.463718466165007"><ele>767.5</ele><time>2026-05-01T21:34:16Z</time></trkpt><trkpt lat="46.50844585419911" lon="13.463338847647163"><ele>764.0</ele><time>2026-05-01T21:34:17Z</time></trkpt><trkpt lat="46.50834192773918" lon="13.462960925289202"><ele>762.0</ele><time>2026-05-01T21:34:18Z</time></trkpt><trkpt lat="46.50822684095344" lon="13.462595967368296"><ele>760.0</ele><time>2026-05-01T21:34:19Z</time></trkpt><trkpt lat="46.50809795504606" lon="13.462234881943427"><ele>759.5</ele><time>2026-05-01T21:34:20Z</time></trkpt><trkpt lat="46.50795688821423" lon="13.461885162357712"><ele>759.0</ele><time>2026-05-01T21:34:21Z</time></trkpt><trkpt lat="46.50780572853126" lon="13.46154804929111"><ele>761.0</ele><time>2026-05-01T21:34:22Z</time></trkpt><trkpt lat="46.507642833309674" lon="13.461221016263666"><ele>763.0</ele><time>2026-05-01T21:34:23Z</time></trkpt><trkpt lat="46.507468311105605" lon="13.460905044827383"><ele>763.0</ele><time>2026-05-01T21:34:24Z</time></trkpt><trkpt lat="46.507288069973384" lon="13.460595241272706"><ele>763.0</ele><time>2026-05-01T21:34:25Z</time></trkpt><trkpt lat="46.50710779933125" lon="13.460286422343982"><ele>769.0</ele><time>2026-05-01T21:34:26Z</time></trkpt><trkpt lat="46.506932415787176" lon="13.459972713053144"><ele>775.0</ele><time>2026-05-01T21:34:27Z</time></trkpt><trkpt lat="46.506759813573744" lon="13.459659850567926"><ele>773.0</ele><time>2026-05-01T21:34:28Z</time></trkpt><trkpt lat="46.50658981327183" lon="13.459350876882386"><ele>771.0</ele><time>2026-05-01T21:34:29Z</time></trkpt><trkpt lat="46.506418001993325" lon="13.4590384139426"><ele>769.0</ele><time>2026-05-01T21:34:30Z</time></trkpt><trkpt lat="46.50624974933736" lon="13.458724840791373"><ele>767.0</ele><time>2026-05-01T21:34:31Z</time></trkpt><trkpt lat="46.50608212461976" lon="13.458412253602352"><ele>771.5</ele><time>2026-05-01T21:34:32Z</time></trkpt><trkpt lat="46.505925912891904" lon="13.458091685262593"><ele>776.0</ele><time>2026-05-01T21:34:33Z</time></trkpt><trkpt lat="46.50577978260764" lon="13.457765681337891"><ele>776.0</ele><time>2026-05-01T21:34:34Z</time></trkpt><trkpt lat="46.50562601347701" lon="13.457450631696672"><ele>776.0</ele><time>2026-05-01T21:34:35Z</time></trkpt><trkpt lat="46.5055185558763" lon="13.457083752553148"><ele>782.5</ele><time>2026-05-01T21:34:36Z</time></trkpt><trkpt lat="46.505404069576" lon="13.456734200933626"><ele>789.0</ele><time>2026-05-01T21:34:37Z</time></trkpt><trkpt lat="46.50529807876635" lon="13.456376582941873"><ele>785.5</ele><time>2026-05-01T21:34:38Z</time></trkpt><trkpt lat="46.50519897670069" lon="13.45601124572086"><ele>782.0</ele><time>2026-05-01T21:34:39Z</time></trkpt><trkpt lat="46.50511504546645" lon="13.455640765036817"><ele>780.0</ele><time>2026-05-01T21:34:40Z</time></trkpt><trkpt lat="46.50504218241717" lon="13.455269018857281"><ele>778.0</ele><time>2026-05-01T21:34:41Z</time></trkpt><trkpt lat="46.504978141679494" lon="13.454888004212734"><ele>773.0</ele><time>2026-05-01T21:34:42Z</time></trkpt><trkpt lat="46.50492575700524" lon="13.454502250615143"><ele>768.0</ele><time>2026-05-01T21:34:43Z</time></trkpt><trkpt lat="46.50488595340254" lon="13.454121120512239"><ele>765.5</ele><time>2026-05-01T21:34:44Z</time></trkpt><trkpt lat="46.50485773261385" lon="13.45373303376974"><ele>763.0</ele><time>2026-05-01T21:34:45Z</time></trkpt><trkpt lat="46.504835355778674" lon="13.453337560169247"><ele>761.5</ele><time>2026-05-01T21:34:46.001Z</time></trkpt><trkpt lat="46.50481412381832" lon="13.452950106957877"><ele>760.0</ele><time>2026-05-01T21:34:47.001Z</time></trkpt><trkpt lat="46.504792442549856" lon="13.452558820374689"><ele>760.0</ele><time>2026-05-01T21:34:48.001Z</time></trkpt><trkpt lat="46.50477082368389" lon="13.452170607135056"><ele>760.0</ele><time>2026-05-01T21:34:49.001Z</time></trkpt><trkpt lat="46.50475105817853" lon="13.451776343061146"><ele>760.0</ele><time>2026-05-01T21:34:50.001Z</time></trkpt><trkpt lat="46.504729112531535" lon="13.451386647229404"><ele>760.0</ele><time>2026-05-01T21:34:51.001Z</time></trkpt><trkpt lat="46.504701081547246" lon="13.450994345943752"><ele>757.0</ele><time>2026-05-01T21:34:52.001Z</time></trkpt><trkpt lat="46.50466418602805" lon="13.450604388473163"><ele>754.0</ele><time>2026-05-01T21:34:53.001Z</time></trkpt><trkpt lat="46.5046178703776" lon="13.450213872478875"><ele>753.5</ele><time>2026-05-01T21:34:54.001Z</time></trkpt><trkpt lat="46.5045697346987" lon="13.449818435580516"><ele>753.0</ele><time>2026-05-01T21:34:55.001Z</time></trkpt><trkpt lat="46.504521648127245" lon="13.449423450570704"><ele>753.0</ele><time>2026-05-01T21:34:56.001Z</time></trkpt><trkpt lat="46.504472987561826" lon="13.449028077203318"><ele>753.0</ele><time>2026-05-01T21:34:57.001Z</time></trkpt><trkpt lat="46.5044206225197" lon="13.44863461951171"><ele>757.0</ele><time>2026-05-01T21:34:58.001Z</time></trkpt><trkpt lat="46.50436044218231" lon="13.448240469901911"><ele>761.0</ele><time>2026-05-01T21:34:59.001Z</time></trkpt><trkpt lat="46.50429406999886" lon="13.447854952817746"><ele>762.0</ele><time>2026-05-01T21:35:00.001Z</time></trkpt><trkpt lat="46.50422299004822" lon="13.447465743503836"><ele>763.0</ele><time>2026-05-01T21:35:01.001Z</time></trkpt><trkpt lat="46.504147784603184" lon="13.447077546784444"><ele>760.0</ele><time>2026-05-01T21:35:02.001Z</time></trkpt><trkpt lat="46.50406663002401" lon="13.44669325764722"><ele>757.0</ele><time>2026-05-01T21:35:03.001Z</time></trkpt><trkpt lat="46.50398260406166" lon="13.446310468536597"><ele>748.5</ele><time>2026-05-01T21:35:04.001Z</time></trkpt><trkpt lat="46.503893981263666" lon="13.445924354738368"><ele>740.0</ele><time>2026-05-01T21:35:05.001Z</time></trkpt><trkpt lat="46.50380237077425" lon="13.445539813245679"><ele>756.5</ele><time>2026-05-01T21:35:06.001Z</time></trkpt><trkpt lat="46.50371099646209" lon="13.445154759420605"><ele>773.0</ele><time>2026-05-01T21:35:07.001Z</time></trkpt><trkpt lat="46.50361962094881" lon="13.444766020039705"><ele>765.0</ele><time>2026-05-01T21:35:08.001Z</time></trkpt><trkpt lat="46.50352869344503" lon="13.444379735512907"><ele>757.0</ele><time>2026-05-01T21:35:09.001Z</time></trkpt><trkpt lat="46.50343718796391" lon="13.443991841932224"><ele>754.5</ele><time>2026-05-01T21:35:10.001Z</time></trkpt><trkpt lat="46.50334663293667" lon="13.443607265153512"><ele>752.0</ele><time>2026-05-01T21:35:11.001Z</time></trkpt><trkpt lat="46.50325628197351" lon="13.443217962049077"><ele>745.5</ele><time>2026-05-01T21:35:12.001Z</time></trkpt><trkpt lat="46.50316938177493" lon="13.442833038864572"><ele>739.0</ele><time>2026-05-01T21:35:13.001Z</time></trkpt><trkpt lat="46.503085336558996" lon="13.44244882218249"><ele>740.0</ele><time>2026-05-01T21:35:14.001Z</time></trkpt><trkpt lat="46.50300611299016" lon="13.442059045786005"><ele>741.0</ele><time>2026-05-01T21:35:15.001Z</time></trkpt><trkpt lat="46.502931423511335" lon="13.4416670050205"><ele>749.5</ele><time>2026-05-01T21:35:16.001Z</time></trkpt><trkpt lat="46.50285714858652" lon="13.441278362394904"><ele>758.0</ele><time>2026-05-01T21:35:17.001Z</time></trkpt><trkpt lat="46.50278462908941" lon="13.440887912652562"><ele>758.0</ele><time>2026-05-01T21:35:18.001Z</time></trkpt><trkpt lat="46.50271508423745" lon="13.44049654174319"><ele>758.0</ele><time>2026-05-01T21:35:19.001Z</time></trkpt><trkpt lat="46.502647995839325" lon="13.440107386995301"><ele>756.5</ele><time>2026-05-01T21:35:20.001Z</time></trkpt><trkpt lat="46.50258319411123" lon="13.439715355277729"><ele>755.0</ele><time>2026-05-01T21:35:21.001Z</time></trkpt><trkpt lat="46.50252301639875" lon="13.439318762511492"><ele>753.5</ele><time>2026-05-01T21:35:22.001Z</time></trkpt><trkpt lat="46.5024648815099" lon="13.4389311224088"><ele>752.0</ele><time>2026-05-01T21:35:23.001Z</time></trkpt><trkpt lat="46.50241091201845" lon="13.438535397516494"><ele>749.0</ele><time>2026-05-01T21:35:24.001Z</time></trkpt><trkpt lat="46.50235936505664" lon="13.438134952351994"><ele>746.0</ele><time>2026-05-01T21:35:25.001Z</time></trkpt><trkpt lat="46.50231157395167" lon="13.437743235272197"><ele>741.5</ele><time>2026-05-01T21:35:26.001Z</time></trkpt><trkpt lat="46.502266881300265" lon="13.437345656167057"><ele>737.0</ele><time>2026-05-01T21:35:27.001Z</time></trkpt><trkpt lat="46.50222337476993" lon="13.436944097092404"><ele>734.0</ele><time>2026-05-01T21:35:28.001Z</time></trkpt><trkpt lat="46.50218352805808" lon="13.436550806489128"><ele>731.0</ele><time>2026-05-01T21:35:29.001Z</time></trkpt><trkpt lat="46.502148892394466" lon="13.43617309016935"><ele>728.0</ele><time>2026-05-01T21:35:30.001Z</time></trkpt><trkpt lat="46.502117916185256" lon="13.435814390678024"><ele>725.0</ele><time>2026-05-01T21:35:31.001Z</time></trkpt><trkpt lat="46.50209050672118" lon="13.435457954948975"><ele>741.0</ele><time>2026-05-01T21:35:32.001Z</time></trkpt><trkpt lat="46.502065586663846" lon="13.435097765561144"><ele>757.0</ele><time>2026-05-01T21:35:33.001Z</time></trkpt><trkpt lat="46.5020392828539" lon="13.434731741979233"><ele>752.5</ele><time>2026-05-01T21:35:34.001Z</time></trkpt><trkpt lat="46.50201159093287" lon="13.434363521824345"><ele>748.0</ele><time>2026-05-01T21:35:35.001Z</time></trkpt><trkpt lat="46.50198278625671" lon="13.433995108184531"><ele>744.0</ele><time>2026-05-01T21:35:36.001Z</time></trkpt><trkpt lat="46.50195342736064" lon="13.433632565542524"><ele>740.0</ele><time>2026-05-01T21:35:37.001Z</time></trkpt><trkpt lat="46.5019243760907" lon="13.433268284808609"><ele>739.0</ele><time>2026-05-01T21:35:38.001Z</time></trkpt><trkpt lat="46.50189832191591" lon="13.432913394103718"><ele>738.0</ele><time>2026-05-01T21:35:39.001Z</time></trkpt><trkpt lat="46.501872773992496" lon="13.43256849705884"><ele>738.0</ele><time>2026-05-01T21:35:40.001Z</time></trkpt><trkpt lat="46.50184700310877" lon="13.43222584841662"><ele>738.0</ele><time>2026-05-01T21:35:41.001Z</time></trkpt><trkpt lat="46.501820902584356" lon="13.431891849938474"><ele>738.5</ele><time>2026-05-01T21:35:42.001Z</time></trkpt><trkpt lat="46.50179480746592" lon="13.431565138098208"><ele>739.0</ele><time>2026-05-01T21:35:43.001Z</time></trkpt><trkpt lat="46.50176553498337" lon="13.43124176611744"><ele>740.6666666666667</ele><time>2026-05-01T21:35:44.001Z</time></trkpt><trkpt lat="46.501731222795186" lon="13.430924822238161"><ele>742.3333333333334</ele><time>2026-05-01T21:35:45.001Z</time></trkpt><trkpt lat="46.50169226357316" lon="13.430612613299196"><ele>744.0</ele><time>2026-05-01T21:35:46.001Z</time></trkpt><trkpt lat="46.50164554843294" lon="13.430297603151876"><ele>749.6666666666666</ele><time>2026-05-01T21:35:47.001Z</time></trkpt><trkpt lat="46.501594496081395" lon="13.429993399830167"><ele>755.3333333333333</ele><time>2026-05-01T21:35:48.001Z</time></trkpt><trkpt lat="46.501545820724644" lon="13.429683774110604"><ele>761.0</ele><time>2026-05-01T21:35:49.001Z</time></trkpt><trkpt lat="46.50149593775909" lon="13.429405129224747"><ele>767.6666666666666</ele><time>2026-05-01T21:35:50.001Z</time></trkpt><trkpt lat="46.501445253429665" lon="13.42911307003939"><ele>774.3333333333333</ele><time>2026-05-01T21:35:51.001Z</time></trkpt><trkpt lat="46.50139451238921" lon="13.428827514221068"><ele>781.0</ele><time>2026-05-01T21:35:52.001Z</time></trkpt><trkpt lat="46.501344761156545" lon="13.42855479480577"><ele>784.3333333333333</ele><time>2026-05-01T21:35:53.001Z</time></trkpt><trkpt lat="46.50127133391608" lon="13.428283120438845"><ele>787.6666666666667</ele><time>2026-05-01T21:35:54.001Z</time></trkpt><trkpt lat="46.50120260160233" lon="13.428022488115987"><ele>791.0</ele><time>2026-05-01T21:35:55.001Z</time></trkpt><trkpt lat="46.50095982010539" lon="13.427400242983165"><ele>805.5</ele><time>2026-05-01T21:35:56.001Z</time></trkpt><trkpt lat="46.50085241777937" lon="13.427083483861859"><ele>820.0</ele><time>2026-05-01T21:35:57.001Z</time></trkpt><trkpt lat="46.50073951268442" lon="13.426766839155452"><ele>820.0</ele><time>2026-05-01T21:35:58.001Z</time></trkpt><trkpt lat="46.50062541777812" lon="13.426452243445592"><ele>820.0</ele><time>2026-05-01T21:35:59.001Z</time></trkpt><trkpt lat="46.50049930893283" lon="13.426147820247518"><ele>828.5</ele><time>2026-05-01T21:36:00.001Z</time></trkpt><trkpt lat="46.50036693809527" lon="13.42584753970163"><ele>837.0</ele><time>2026-05-01T21:36:01.001Z</time></trkpt><trkpt lat="46.50023226123111" lon="13.425547752091253"><ele>832.5</ele><time>2026-05-01T21:36:02.001Z</time></trkpt><trkpt lat="46.500096493882964" lon="13.425249408840862"><ele>828.0</ele><time>2026-05-01T21:36:03.001Z</time></trkpt><trkpt lat="46.49996502872351" lon="13.424946710402939"><ele>813.5</ele><time>2026-05-01T21:36:04.001Z</time></trkpt><trkpt lat="46.49983318281613" lon="13.424644540771029"><ele>799.0</ele><time>2026-05-01T21:36:05.001Z</time></trkpt><trkpt lat="46.499699566415494" lon="13.424343021679437"><ele>814.0</ele><time>2026-05-01T21:36:06.001Z</time></trkpt><trkpt lat="46.499563383757426" lon="13.424043270370701"><ele>829.0</ele><time>2026-05-01T21:36:07.001Z</time></trkpt><trkpt lat="46.49942947887833" lon="13.423740525101751"><ele>829.0</ele><time>2026-05-01T21:36:08.001Z</time></trkpt><trkpt lat="46.499294995295486" lon="13.423437162942495"><ele>829.0</ele><time>2026-05-01T21:36:09.001Z</time></trkpt><trkpt lat="46.49916286230059" lon="13.423134010452898"><ele>813.5</ele><time>2026-05-01T21:36:10.001Z</time></trkpt><trkpt lat="46.49902933007334" lon="13.422832056193341"><ele>798.0</ele><time>2026-05-01T21:36:11.001Z</time></trkpt><trkpt lat="46.49889824764134" lon="13.422529370686828"><ele>798.0</ele><time>2026-05-01T21:36:12.001Z</time></trkpt><trkpt lat="46.498772445273595" lon="13.422224460299136"><ele>798.0</ele><time>2026-05-01T21:36:13.001Z</time></trkpt><trkpt lat="46.49865390928526" lon="13.42192072398731"><ele>794.5</ele><time>2026-05-01T21:36:14.001Z</time></trkpt><trkpt lat="46.49853979912711" lon="13.421610899197612"><ele>791.0</ele><time>2026-05-01T21:36:15.001Z</time></trkpt><trkpt lat="46.498430777253276" lon="13.421292630913605"><ele>791.0</ele><time>2026-05-01T21:36:16.001Z</time></trkpt><trkpt lat="46.49832336955775" lon="13.420956937661098"><ele>791.0</ele><time>2026-05-01T21:36:17.001Z</time></trkpt><trkpt lat="46.49822736036441" lon="13.420619072024476"><ele>775.0</ele><time>2026-05-01T21:36:18.001Z</time></trkpt><trkpt lat="46.49813961351156" lon="13.420276798775385"><ele>759.0</ele><time>2026-05-01T21:36:19.001Z</time></trkpt><trkpt lat="46.498057216533724" lon="13.419928801047327"><ele>755.0</ele><time>2026-05-01T21:36:20Z</time></trkpt><trkpt lat="46.497977262090906" lon="13.419569546261586"><ele>751.0</ele><time>2026-05-01T21:36:21Z</time></trkpt><trkpt lat="46.497903002946146" lon="13.419203567006438"><ele>745.5</ele><time>2026-05-01T21:36:22Z</time></trkpt><trkpt lat="46.49782722818905" lon="13.418762478608256"><ele>740.0</ele><time>2026-05-01T21:36:23Z</time></trkpt><trkpt lat="46.49780333653921" lon="13.41842478029824"><ele>740.0</ele><time>2026-05-01T21:36:24Z</time></trkpt><trkpt lat="46.497769869778395" lon="13.41808289717828"><ele>740.0</ele><time>2026-05-01T21:36:25Z</time></trkpt><trkpt lat="46.49772911269606" lon="13.417741136782542"><ele>739.5</ele><time>2026-05-01T21:36:26Z</time></trkpt><trkpt lat="46.497712019655005" lon="13.41738281415734"><ele>739.0</ele><time>2026-05-01T21:36:27Z</time></trkpt><trkpt lat="46.497703399507124" lon="13.41703138752993"><ele>739.0</ele><time>2026-05-01T21:36:28Z</time></trkpt><trkpt lat="46.49769320762108" lon="13.416674473189332"><ele>739.0</ele><time>2026-05-01T21:36:29Z</time></trkpt><trkpt lat="46.49769025688813" lon="13.416323067362379"><ele>737.0</ele><time>2026-05-01T21:36:30Z</time></trkpt><trkpt lat="46.49769294475963" lon="13.415974749437162"><ele>735.0</ele><time>2026-05-01T21:36:31Z</time></trkpt><trkpt lat="46.49770018137913" lon="13.415624301107211"><ele>733.5</ele><time>2026-05-01T21:36:32Z</time></trkpt><trkpt lat="46.49771127896003" lon="13.415275497693408"><ele>732.0</ele><time>2026-05-01T21:36:33Z</time></trkpt><trkpt lat="46.49773042682111" lon="13.414932740467352"><ele>732.5</ele><time>2026-05-01T21:36:34Z</time></trkpt><trkpt lat="46.497757623335275" lon="13.414584451553852"><ele>733.0</ele><time>2026-05-01T21:36:35Z</time></trkpt><trkpt lat="46.49779932060365" lon="13.41423563575876"><ele>733.0</ele><time>2026-05-01T21:36:36Z</time></trkpt><trkpt lat="46.49784176526174" lon="13.413880681142599"><ele>733.0</ele><time>2026-05-01T21:36:37Z</time></trkpt><trkpt lat="46.49788215716593" lon="13.413532809269663"><ele>722.5</ele><time>2026-05-01T21:36:38Z</time></trkpt><trkpt lat="46.497926272399816" lon="13.413178754272566"><ele>712.0</ele><time>2026-05-01T21:36:39Z</time></trkpt><trkpt lat="46.49796394878901" lon="13.412820995729247"><ele>712.0</ele><time>2026-05-01T21:36:40Z</time></trkpt><trkpt lat="46.49801039623621" lon="13.412461641775973"><ele>712.0</ele><time>2026-05-01T21:36:41Z</time></trkpt><trkpt lat="46.49807503165098" lon="13.412114239596306"><ele>714.5</ele><time>2026-05-01T21:36:42Z</time></trkpt><trkpt lat="46.49811788342344" lon="13.411753129728691"><ele>717.0</ele><time>2026-05-01T21:36:43Z</time></trkpt><trkpt lat="46.498159002075035" lon="13.411394451042622"><ele>720.5</ele><time>2026-05-01T21:36:44Z</time></trkpt><trkpt lat="46.498200193221635" lon="13.411033052204104"><ele>724.0</ele><time>2026-05-01T21:36:45Z</time></trkpt><trkpt lat="46.49825126969003" lon="13.410668610603604"><ele>727.0</ele><time>2026-05-01T21:36:46Z</time></trkpt><trkpt lat="46.498288434741426" lon="13.410316220159169"><ele>730.0</ele><time>2026-05-01T21:36:47Z</time></trkpt><trkpt lat="46.49833650381657" lon="13.409956470475937"><ele>731.5</ele><time>2026-05-01T21:36:48Z</time></trkpt><trkpt lat="46.4983811950232" lon="13.409599265635883"><ele>733.0</ele><time>2026-05-01T21:36:49Z</time></trkpt><trkpt lat="46.49842727785987" lon="13.409243823817253"><ele>733.0</ele><time>2026-05-01T21:36:50Z</time></trkpt><trkpt lat="46.49847029805448" lon="13.408887776504097"><ele>733.0</ele><time>2026-05-01T21:36:51Z</time></trkpt><trkpt lat="46.49851710057904" lon="13.408528183657008"><ele>734.5</ele><time>2026-05-01T21:36:52Z</time></trkpt><trkpt lat="46.49855824251102" lon="13.408173561500815"><ele>736.0</ele><time>2026-05-01T21:36:53Z</time></trkpt><trkpt lat="46.498602616715736" lon="13.407816465505675"><ele>739.0</ele><time>2026-05-01T21:36:54Z</time></trkpt><trkpt lat="46.4986474150541" lon="13.407460392142594"><ele>742.0</ele><time>2026-05-01T21:36:55Z</time></trkpt><trkpt lat="46.49869069990279" lon="13.407103944397868"><ele>746.0</ele><time>2026-05-01T21:36:56Z</time></trkpt><trkpt lat="46.49871906659379" lon="13.406742234518946"><ele>750.0</ele><time>2026-05-01T21:36:57Z</time></trkpt><trkpt lat="46.49873672535551" lon="13.406371294624885"><ele>750.0</ele><time>2026-05-01T21:36:58Z</time></trkpt><trkpt lat="46.498747104158014" lon="13.406002067370522"><ele>750.0</ele><time>2026-05-01T21:36:59.001Z</time></trkpt><trkpt lat="46.49875918904849" lon="13.405635429806194"><ele>740.0</ele><time>2026-05-01T21:37:00.001Z</time></trkpt><trkpt lat="46.498764274527346" lon="13.405266411883733"><ele>730.0</ele><time>2026-05-01T21:37:01.001Z</time></trkpt><trkpt lat="46.49875989825447" lon="13.404890378735121"><ele>738.0</ele><time>2026-05-01T21:37:02.001Z</time></trkpt><trkpt lat="46.49874697325452" lon="13.404512784651736"><ele>746.0</ele><time>2026-05-01T21:37:03.001Z</time></trkpt><trkpt lat="46.49872465953383" lon="13.404137629009156"><ele>742.5</ele><time>2026-05-01T21:37:04.001Z</time></trkpt><trkpt lat="46.4986930343781" lon="13.403760325579617"><ele>739.0</ele><time>2026-05-01T21:37:05.001Z</time></trkpt><trkpt lat="46.49865021490562" lon="13.403384259571071"><ele>739.0</ele><time>2026-05-01T21:37:06.001Z</time></trkpt><trkpt lat="46.49860144394597" lon="13.403010071343227"><ele>739.0</ele><time>2026-05-01T21:37:07.001Z</time></trkpt><trkpt lat="46.498543260398456" lon="13.40263907071226"><ele>734.5</ele><time>2026-05-01T21:37:08.001Z</time></trkpt><trkpt lat="46.49847418040733" lon="13.402271505506251"><ele>730.0</ele><time>2026-05-01T21:37:09.001Z</time></trkpt><trkpt lat="46.49840024714934" lon="13.401903028407755"><ele>727.0</ele><time>2026-05-01T21:37:10.001Z</time></trkpt><trkpt lat="46.49833167376795" lon="13.401541142974422"><ele>724.0</ele><time>2026-05-01T21:37:11.001Z</time></trkpt><trkpt lat="46.49826357091589" lon="13.401179763018453"><ele>721.0</ele><time>2026-05-01T21:37:12.001Z</time></trkpt><trkpt lat="46.49819269130778" lon="13.400812201396882"><ele>718.0</ele><time>2026-05-01T21:37:13.001Z</time></trkpt><trkpt lat="46.49812332949936" lon="13.40044827157778"><ele>718.0</ele><time>2026-05-01T21:37:14.001Z</time></trkpt><trkpt lat="46.49805249921967" lon="13.400083656995085"><ele>718.0</ele><time>2026-05-01T21:37:15.001Z</time></trkpt><trkpt lat="46.497991369849714" lon="13.399720448164704"><ele>719.5</ele><time>2026-05-01T21:37:16.001Z</time></trkpt><trkpt lat="46.49793683137375" lon="13.399354166983388"><ele>721.0</ele><time>2026-05-01T21:37:17.001Z</time></trkpt><trkpt lat="46.49789695024145" lon="13.398987166752509"><ele>730.5</ele><time>2026-05-01T21:37:18.001Z</time></trkpt><trkpt lat="46.497864849666605" lon="13.398613145955897"><ele>740.0</ele><time>2026-05-01T21:37:19.001Z</time></trkpt><trkpt lat="46.497841643861925" lon="13.398237582007296"><ele>740.0</ele><time>2026-05-01T21:37:20.001Z</time></trkpt><trkpt lat="46.49782432647866" lon="13.397856442539652"><ele>740.0</ele><time>2026-05-01T21:37:21.001Z</time></trkpt><trkpt lat="46.49781306709853" lon="13.397479027484486"><ele>737.5</ele><time>2026-05-01T21:37:22.001Z</time></trkpt><trkpt lat="46.49780738724563" lon="13.39710432319098"><ele>735.0</ele><time>2026-05-01T21:37:23.001Z</time></trkpt><trkpt lat="46.497811597972" lon="13.396729747323263"><ele>735.0</ele><time>2026-05-01T21:37:24.001Z</time></trkpt><trkpt lat="46.4978236448169" lon="13.39635150250338"><ele>735.0</ele><time>2026-05-01T21:37:25.001Z</time></trkpt><trkpt lat="46.497845244795975" lon="13.395976833123699"><ele>735.0</ele><time>2026-05-01T21:37:26.001Z</time></trkpt><trkpt lat="46.497873654379184" lon="13.395604019506482"><ele>735.0</ele><time>2026-05-01T21:37:27.001Z</time></trkpt><trkpt lat="46.49790842120375" lon="13.395226849590358"><ele>727.0</ele><time>2026-05-01T21:37:28.001Z</time></trkpt><trkpt lat="46.497943922826266" lon="13.39485342947214"><ele>719.0</ele><time>2026-05-01T21:37:29.001Z</time></trkpt><trkpt lat="46.497981927515774" lon="13.394477896041982"><ele>713.0</ele><time>2026-05-01T21:37:30.001Z</time></trkpt><trkpt lat="46.49802346254553" lon="13.394103967481067"><ele>707.0</ele><time>2026-05-01T21:37:31.001Z</time></trkpt><trkpt lat="46.49806516279425" lon="13.393729271807581"><ele>702.5</ele><time>2026-05-01T21:37:32.001Z</time></trkpt><trkpt lat="46.49810445124166" lon="13.393358001063222"><ele>698.0</ele><time>2026-05-01T21:37:33.001Z</time></trkpt><trkpt lat="46.498145741946935" lon="13.392980579099714"><ele>697.5</ele><time>2026-05-01T21:37:34.001Z</time></trkpt><trkpt lat="46.49818516508362" lon="13.392609442203435"><ele>697.0</ele><time>2026-05-01T21:37:35.001Z</time></trkpt><trkpt lat="46.498224013407366" lon="13.392234561588205"><ele>698.0</ele><time>2026-05-01T21:37:36.001Z</time></trkpt><trkpt lat="46.498263079476274" lon="13.391863818036219"><ele>699.0</ele><time>2026-05-01T21:37:37.001Z</time></trkpt><trkpt lat="46.498301720220574" lon="13.39148934673534"><ele>699.5</ele><time>2026-05-01T21:37:38.001Z</time></trkpt><trkpt lat="46.498339714399826" lon="13.39112133463176"><ele>700.0</ele><time>2026-05-01T21:37:39.001Z</time></trkpt><trkpt lat="46.49837387266552" lon="13.39075552128278"><ele>701.0</ele><time>2026-05-01T21:37:40.001Z</time></trkpt><trkpt lat="46.49840554304074" lon="13.39038507970739"><ele>702.0</ele><time>2026-05-01T21:37:41.001Z</time></trkpt><trkpt lat="46.498430255783155" lon="13.390016815376027"><ele>702.5</ele><time>2026-05-01T21:37:42.001Z</time></trkpt><trkpt lat="46.49844746117653" lon="13.389647040344046"><ele>703.0</ele><time>2026-05-01T21:37:43.001Z</time></trkpt><trkpt lat="46.498460039762556" lon="13.389277374524813"><ele>703.0</ele><time>2026-05-01T21:37:44.001Z</time></trkpt><trkpt lat="46.49846401661088" lon="13.388912199738485"><ele>703.0</ele><time>2026-05-01T21:37:45.001Z</time></trkpt><trkpt lat="46.49846101602626" lon="13.388538500444449"><ele>702.0</ele><time>2026-05-01T21:37:46.001Z</time></trkpt><trkpt lat="46.49844947663981" lon="13.388166744187847"><ele>701.0</ele><time>2026-05-01T21:37:47.001Z</time></trkpt><trkpt lat="46.49843227510664" lon="13.387800381475945"><ele>699.0</ele><time>2026-05-01T21:37:48.001Z</time></trkpt><trkpt lat="46.49840689991824" lon="13.38743174738374"><ele>697.0</ele><time>2026-05-01T21:37:49.001Z</time></trkpt><trkpt lat="46.49837357362964" lon="13.387065046934271"><ele>695.0</ele><time>2026-05-01T21:37:50.001Z</time></trkpt><trkpt lat="46.4983353313821" lon="13.386698502414019"><ele>693.0</ele><time>2026-05-01T21:37:51.001Z</time></trkpt><trkpt lat="46.498292645947124" lon="13.386330819449755"><ele>691.0</ele><time>2026-05-01T21:37:52.001Z</time></trkpt><trkpt lat="46.4982493576979" lon="13.385963277946194"><ele>689.0</ele><time>2026-05-01T21:37:53.001Z</time></trkpt><trkpt lat="46.49820626010593" lon="13.385591598283387"><ele>686.0</ele><time>2026-05-01T21:37:54.001Z</time></trkpt><trkpt lat="46.49816904207813" lon="13.385218603705436"><ele>683.0</ele><time>2026-05-01T21:37:55.001Z</time></trkpt><trkpt lat="46.498130239406755" lon="13.384842862766792"><ele>681.5</ele><time>2026-05-01T21:37:56.001Z</time></trkpt><trkpt lat="46.49809888484501" lon="13.38446734126049"><ele>680.0</ele><time>2026-05-01T21:37:57.001Z</time></trkpt><trkpt lat="46.498073712372374" lon="13.384111096547233"><ele>678.0</ele><time>2026-05-01T21:37:58.001Z</time></trkpt><trkpt lat="46.498061670857986" lon="13.383744543325152"><ele>676.0</ele><time>2026-05-01T21:37:59.001Z</time></trkpt><trkpt lat="46.49806264651734" lon="13.383376869581241"><ele>675.5</ele><time>2026-05-01T21:38:00.001Z</time></trkpt><trkpt lat="46.49807783863453" lon="13.38300070665714"><ele>675.0</ele><time>2026-05-01T21:38:01.001Z</time></trkpt><trkpt lat="46.49810228968421" lon="13.382629848341933"><ele>675.0</ele><time>2026-05-01T21:38:02.001Z</time></trkpt><trkpt lat="46.498136963875936" lon="13.382250846182668"><ele>675.0</ele><time>2026-05-01T21:38:03.001Z</time></trkpt><trkpt lat="46.49818085237485" lon="13.381878943371904"><ele>676.0</ele><time>2026-05-01T21:38:04.001Z</time></trkpt><trkpt lat="46.498232309973275" lon="13.38150381402853"><ele>677.0</ele><time>2026-05-01T21:38:05.001Z</time></trkpt><trkpt lat="46.49829077039559" lon="13.381135076244131"><ele>677.5</ele><time>2026-05-01T21:38:06.001Z</time></trkpt><trkpt lat="46.498354057653884" lon="13.380772929963854"><ele>678.0</ele><time>2026-05-01T21:38:07.001Z</time></trkpt><trkpt lat="46.49842194756852" lon="13.380403715273838"><ele>678.5</ele><time>2026-05-01T21:38:08.001Z</time></trkpt><trkpt lat="46.49849092072174" lon="13.380041778482841"><ele>679.0</ele><time>2026-05-01T21:38:09.001Z</time></trkpt><trkpt lat="46.498559886915466" lon="13.379679934946951"><ele>679.0</ele><time>2026-05-01T21:38:10.001Z</time></trkpt><trkpt lat="46.498628923756215" lon="13.37931487601491"><ele>679.0</ele><time>2026-05-01T21:38:11.001Z</time></trkpt><trkpt lat="46.49869644933423" lon="13.378956890568539"><ele>675.5</ele><time>2026-05-01T21:38:12.001Z</time></trkpt><trkpt lat="46.49876563072011" lon="13.378590093007373"><ele>672.0</ele><time>2026-05-01T21:38:13.001Z</time></trkpt><trkpt lat="46.4988361796186" lon="13.378239187610898"><ele>672.0</ele><time>2026-05-01T21:38:14.001Z</time></trkpt><trkpt lat="46.498904981245516" lon="13.37789133100989"><ele>672.0</ele><time>2026-05-01T21:38:15.001Z</time></trkpt><trkpt lat="46.498973514160745" lon="13.377541415194923"><ele>672.0</ele><time>2026-05-01T21:38:16.001Z</time></trkpt><trkpt lat="46.49904023815519" lon="13.377200048103434"><ele>672.0</ele><time>2026-05-01T21:38:17.001Z</time></trkpt><trkpt lat="46.49910750489421" lon="13.376848791708818"><ele>670.5</ele><time>2026-05-01T21:38:18.001Z</time></trkpt><trkpt lat="46.49917472419781" lon="13.376501583138776"><ele>669.0</ele><time>2026-05-01T21:38:19.001Z</time></trkpt><trkpt lat="46.49924081989613" lon="13.376151252253612"><ele>669.0</ele><time>2026-05-01T21:38:20.001Z</time></trkpt><trkpt lat="46.49930530108975" lon="13.37580337901483"><ele>669.0</ele><time>2026-05-01T21:38:21.001Z</time></trkpt><trkpt lat="46.49936999356518" lon="13.375450074330061"><ele>668.0</ele><time>2026-05-01T21:38:22.001Z</time></trkpt><trkpt lat="46.49943489828582" lon="13.375098409550947"><ele>667.0</ele><time>2026-05-01T21:38:23.001Z</time></trkpt><trkpt lat="46.499501467287985" lon="13.37474426710199"><ele>665.0</ele><time>2026-05-01T21:38:24.001Z</time></trkpt><trkpt lat="46.499570783035594" lon="13.37438731314619"><ele>663.0</ele><time>2026-05-01T21:38:25Z</time></trkpt><trkpt lat="46.49964092899392" lon="13.374028764016776"><ele>658.5</ele><time>2026-05-01T21:38:26Z</time></trkpt><trkpt lat="46.49971171816999" lon="13.37366075937827"><ele>654.0</ele><time>2026-05-01T21:38:27Z</time></trkpt><trkpt lat="46.49978108503708" lon="13.373297561307886"><ele>655.5</ele><time>2026-05-01T21:38:28Z</time></trkpt><trkpt lat="46.499851770779344" lon="13.372925138293938"><ele>657.0</ele><time>2026-05-01T21:38:29Z</time></trkpt><trkpt lat="46.499920489851625" lon="13.372562792185777"><ele>657.0</ele><time>2026-05-01T21:38:30Z</time></trkpt><trkpt lat="46.499989071429134" lon="13.372195688073058"><ele>657.0</ele><time>2026-05-01T21:38:31Z</time></trkpt><trkpt lat="46.50005847697047" lon="13.371828100168264"><ele>660.5</ele><time>2026-05-01T21:38:32Z</time></trkpt><trkpt lat="46.50012929262501" lon="13.37146320833349"><ele>664.0</ele><time>2026-05-01T21:38:33Z</time></trkpt><trkpt lat="46.50020575393148" lon="13.371103108359646"><ele>666.5</ele><time>2026-05-01T21:38:34Z</time></trkpt><trkpt lat="46.50028930225204" lon="13.37074342179152"><ele>669.0</ele><time>2026-05-01T21:38:35Z</time></trkpt><trkpt lat="46.50038198721947" lon="13.37039096062021"><ele>660.5</ele><time>2026-05-01T21:38:36Z</time></trkpt><trkpt lat="46.50048625237643" lon="13.370044745316964"><ele>652.0</ele><time>2026-05-01T21:38:37Z</time></trkpt><trkpt lat="46.50060120623892" lon="13.369716653002758"><ele>653.5</ele><time>2026-05-01T21:38:38Z</time></trkpt><trkpt lat="46.500708885778465" lon="13.369382193309649"><ele>655.0</ele><time>2026-05-01T21:38:39Z</time></trkpt><trkpt lat="46.50087079802601" lon="13.36908048685792"><ele>658.5</ele><time>2026-05-01T21:38:40Z</time></trkpt><trkpt lat="46.50102603929499" lon="13.368783593456142"><ele>662.0</ele><time>2026-05-01T21:38:41Z</time></trkpt><trkpt lat="46.50119071163983" lon="13.3685121720739"><ele>661.5</ele><time>2026-05-01T21:38:42Z</time></trkpt><trkpt lat="46.501367863291776" lon="13.368246267424562"><ele>661.0</ele><time>2026-05-01T21:38:43Z</time></trkpt><trkpt lat="46.50155471771573" lon="13.367994467300552"><ele>661.0</ele><time>2026-05-01T21:38:44Z</time></trkpt><trkpt lat="46.501750462992796" lon="13.367760512237894"><ele>661.0</ele><time>2026-05-01T21:38:45Z</time></trkpt><trkpt lat="46.50195804660172" lon="13.367535381247311"><ele>660.0</ele><time>2026-05-01T21:38:46Z</time></trkpt><trkpt lat="46.50217199143057" lon="13.367329169399087"><ele>659.0</ele><time>2026-05-01T21:38:47Z</time></trkpt><trkpt lat="46.50239060609089" lon="13.367140285069485"><ele>659.0</ele><time>2026-05-01T21:38:48Z</time></trkpt><trkpt lat="46.502613583026736" lon="13.366956222294691"><ele>659.0</ele><time>2026-05-01T21:38:49Z</time></trkpt><trkpt lat="46.50283869421748" lon="13.366777908016882"><ele>654.5</ele><time>2026-05-01T21:38:50Z</time></trkpt><trkpt lat="46.50306867243166" lon="13.366598443652073"><ele>650.0</ele><time>2026-05-01T21:38:51Z</time></trkpt><trkpt lat="46.50329567907273" lon="13.366421274450596"><ele>653.5</ele><time>2026-05-01T21:38:52Z</time></trkpt><trkpt lat="46.50352014426287" lon="13.366239881514058"><ele>657.0</ele><time>2026-05-01T21:38:53Z</time></trkpt><trkpt lat="46.503741764410734" lon="13.366046680496005"><ele>651.5</ele><time>2026-05-01T21:38:54Z</time></trkpt><trkpt lat="46.503954672520365" lon="13.365840998775655"><ele>646.0</ele><time>2026-05-01T21:38:55Z</time></trkpt><trkpt lat="46.50415968373842" lon="13.36562473391904"><ele>651.0</ele><time>2026-05-01T21:38:56Z</time></trkpt><trkpt lat="46.50436047131003" lon="13.365394372704223"><ele>656.0</ele><time>2026-05-01T21:38:57Z</time></trkpt><trkpt lat="46.50455290217832" lon="13.365152588825813"><ele>650.0</ele><time>2026-05-01T21:38:58Z</time></trkpt><trkpt lat="46.50473663105679" lon="13.364895326243051"><ele>644.0</ele><time>2026-05-01T21:38:59Z</time></trkpt><trkpt lat="46.50491292033059" lon="13.36462605842625"><ele>644.0</ele><time>2026-05-01T21:39:00Z</time></trkpt><trkpt lat="46.5050805384789" lon="13.364346317771199"><ele>644.0</ele><time>2026-05-01T21:39:01Z</time></trkpt><trkpt lat="46.50523929496957" lon="13.364051278372745"><ele>646.5</ele><time>2026-05-01T21:39:02Z</time></trkpt><trkpt lat="46.50539030759961" lon="13.36374690739777"><ele>649.0</ele><time>2026-05-01T21:39:03Z</time></trkpt><trkpt lat="46.50553266015496" lon="13.363435503496444"><ele>648.0</ele><time>2026-05-01T21:39:04Z</time></trkpt><trkpt lat="46.50566349756263" lon="13.36311243044777"><ele>647.0</ele><time>2026-05-01T21:39:05Z</time></trkpt><trkpt lat="46.50578106723161" lon="13.362779042056655"><ele>647.0</ele><time>2026-05-01T21:39:06Z</time></trkpt><trkpt lat="46.505885954059515" lon="13.36243835437819"><ele>647.0</ele><time>2026-05-01T21:39:07Z</time></trkpt><trkpt lat="46.50598056015271" lon="13.362089362685564"><ele>648.0</ele><time>2026-05-01T21:39:08Z</time></trkpt><trkpt lat="46.50606284719437" lon="13.361741590249562"><ele>649.0</ele><time>2026-05-01T21:39:09Z</time></trkpt><trkpt lat="46.50613892756609" lon="13.36138388412825"><ele>648.0</ele><time>2026-05-01T21:39:10Z</time></trkpt><trkpt lat="46.50620860703147" lon="13.361022965288518"><ele>647.0</ele><time>2026-05-01T21:39:11Z</time></trkpt><trkpt lat="46.50627501122044" lon="13.360662220954302"><ele>642.0</ele><time>2026-05-01T21:39:12Z</time></trkpt><trkpt lat="46.506339858751645" lon="13.360299000609015"><ele>637.0</ele><time>2026-05-01T21:39:13.001Z</time></trkpt><trkpt lat="46.50640407596612" lon="13.359933929346628"><ele>637.0</ele><time>2026-05-01T21:39:14.001Z</time></trkpt><trkpt lat="46.50646807238467" lon="13.359567978752487"><ele>637.0</ele><time>2026-05-01T21:39:15.001Z</time></trkpt><trkpt lat="46.50653003626497" lon="13.359202292610519"><ele>636.5</ele><time>2026-05-01T21:39:16.001Z</time></trkpt><trkpt lat="46.50659401103612" lon="13.358833332403627"><ele>636.0</ele><time>2026-05-01T21:39:17.001Z</time></trkpt><trkpt lat="46.506655512400364" lon="13.35846668973401"><ele>636.0</ele><time>2026-05-01T21:39:18.001Z</time></trkpt><trkpt lat="46.5067167957529" lon="13.358098196385448"><ele>636.0</ele><time>2026-05-01T21:39:19.001Z</time></trkpt><trkpt lat="46.50677759885799" lon="13.35773009419617"><ele>636.0</ele><time>2026-05-01T21:39:20.001Z</time></trkpt><trkpt lat="46.5068416233857" lon="13.357361249458311"><ele>636.0</ele><time>2026-05-01T21:39:21.001Z</time></trkpt><trkpt lat="46.50690841821786" lon="13.356997753243686"><ele>635.5</ele><time>2026-05-01T21:39:22.001Z</time></trkpt><trkpt lat="46.506983987262174" lon="13.356635723150912"><ele>635.0</ele><time>2026-05-01T21:39:23.001Z</time></trkpt><trkpt lat="46.50706901267584" lon="13.356276525728287"><ele>632.0</ele><time>2026-05-01T21:39:24.001Z</time></trkpt><trkpt lat="46.507166215798314" lon="13.355926430926985"><ele>629.0</ele><time>2026-05-01T21:39:25.001Z</time></trkpt><trkpt lat="46.50727307331569" lon="13.355581495082363"><ele>628.5</ele><time>2026-05-01T21:39:26.001Z</time></trkpt><trkpt lat="46.50738925386897" lon="13.355244493759232"><ele>628.0</ele><time>2026-05-01T21:39:27.001Z</time></trkpt><trkpt lat="46.507516542280015" lon="13.354912012277294"><ele>628.5</ele><time>2026-05-01T21:39:28.001Z</time></trkpt><trkpt lat="46.50765550515617" lon="13.354590037865279"><ele>629.0</ele><time>2026-05-01T21:39:29.001Z</time></trkpt><trkpt lat="46.507807025904114" lon="13.35428074788157"><ele>626.0</ele><time>2026-05-01T21:39:30.001Z</time></trkpt><trkpt lat="46.507967303818766" lon="13.35398629938077"><ele>623.0</ele><time>2026-05-01T21:39:31.001Z</time></trkpt><trkpt lat="46.50813742266226" lon="13.353701994113178"><ele>623.0</ele><time>2026-05-01T21:39:32.001Z</time></trkpt><trkpt lat="46.50831663849713" lon="13.353431235880883"><ele>623.0</ele><time>2026-05-01T21:39:33.001Z</time></trkpt><trkpt lat="46.50850492362245" lon="13.353171047253028"><ele>621.5</ele><time>2026-05-01T21:39:34.001Z</time></trkpt><trkpt lat="46.508701622674884" lon="13.352919720418253"><ele>620.0</ele><time>2026-05-01T21:39:35.001Z</time></trkpt><trkpt lat="46.50890462717239" lon="13.35267371917756"><ele>615.0</ele><time>2026-05-01T21:39:36.001Z</time></trkpt><trkpt lat="46.509110196760496" lon="13.35243593393703"><ele>610.0</ele><time>2026-05-01T21:39:37.001Z</time></trkpt><trkpt lat="46.50931822663976" lon="13.352199389137859"><ele>609.0</ele><time>2026-05-01T21:39:38.001Z</time></trkpt><trkpt lat="46.509526028706965" lon="13.351960741187966"><ele>608.0</ele><time>2026-05-01T21:39:39.001Z</time></trkpt><trkpt lat="46.509730447555825" lon="13.351720036724181"><ele>605.5</ele><time>2026-05-01T21:39:40.001Z</time></trkpt><trkpt lat="46.50993278521776" lon="13.351471807233578"><ele>603.0</ele><time>2026-05-01T21:39:41.001Z</time></trkpt><trkpt lat="46.51012759602217" lon="13.351211367641426"><ele>603.0</ele><time>2026-05-01T21:39:42.001Z</time></trkpt><trkpt lat="46.510313737182" lon="13.35094036485868"><ele>603.0</ele><time>2026-05-01T21:39:43.001Z</time></trkpt><trkpt lat="46.51049290929326" lon="13.350658586112246"><ele>606.0</ele><time>2026-05-01T21:39:44.001Z</time></trkpt><trkpt lat="46.51066423910689" lon="13.350364743641157"><ele>609.0</ele><time>2026-05-01T21:39:45.001Z</time></trkpt><trkpt lat="46.51082705428413" lon="13.350059675099704"><ele>609.0</ele><time>2026-05-01T21:39:46.001Z</time></trkpt><trkpt lat="46.51098254591274" lon="13.349745920019526"><ele>609.0</ele><time>2026-05-01T21:39:47.001Z</time></trkpt><trkpt lat="46.511129262495714" lon="13.349422662409166"><ele>616.5</ele><time>2026-05-01T21:39:48.001Z</time></trkpt><trkpt lat="46.511266263304265" lon="13.349088648850584"><ele>624.0</ele><time>2026-05-01T21:39:49.001Z</time></trkpt><trkpt lat="46.511392699852195" lon="13.348746375233839"><ele>624.0</ele><time>2026-05-01T21:39:50.001Z</time></trkpt><trkpt lat="46.51150948804465" lon="13.34839717632429"><ele>624.0</ele><time>2026-05-01T21:39:51.001Z</time></trkpt><trkpt lat="46.511616159088234" lon="13.348042823323963"><ele>620.0</ele><time>2026-05-01T21:39:52.001Z</time></trkpt><trkpt lat="46.51171186272066" lon="13.347683117491902"><ele>616.0</ele><time>2026-05-01T21:39:53.001Z</time></trkpt><trkpt lat="46.51179584733979" lon="13.347324343703061"><ele>613.5</ele><time>2026-05-01T21:39:54.001Z</time></trkpt><trkpt lat="46.511869337369546" lon="13.346964444119608"><ele>611.0</ele><time>2026-05-01T21:39:55.001Z</time></trkpt><trkpt lat="46.511933177164885" lon="13.346601219750083"><ele>608.5</ele><time>2026-05-01T21:39:56.001Z</time></trkpt><trkpt lat="46.5119864605802" lon="13.346235764805673"><ele>606.0</ele><time>2026-05-01T21:39:57.001Z</time></trkpt><trkpt lat="46.51202884577218" lon="13.345867458473078"><ele>606.0</ele><time>2026-05-01T21:39:58.001Z</time></trkpt><trkpt lat="46.51206192214618" lon="13.345497040126027"><ele>606.0</ele><time>2026-05-01T21:39:59.001Z</time></trkpt><trkpt lat="46.512089732219025" lon="13.345123856374961"><ele>622.5</ele><time>2026-05-01T21:40:00.001Z</time></trkpt><trkpt lat="46.51211796699338" lon="13.344752151542012"><ele>639.0</ele><time>2026-05-01T21:40:01.001Z</time></trkpt><trkpt lat="46.512147136888466" lon="13.34437833960318"><ele>639.0</ele><time>2026-05-01T21:40:02.001Z</time></trkpt><trkpt lat="46.51217519527553" lon="13.344003352546856"><ele>639.0</ele><time>2026-05-01T21:40:03.001Z</time></trkpt><trkpt lat="46.512200642248736" lon="13.34363471129382"><ele>639.5</ele><time>2026-05-01T21:40:04.001Z</time></trkpt><trkpt lat="46.51222358914339" lon="13.343279451391227"><ele>640.0</ele><time>2026-05-01T21:40:05.001Z</time></trkpt><trkpt lat="46.512246908829574" lon="13.342917095021697"><ele>638.0</ele><time>2026-05-01T21:40:06.001Z</time></trkpt><trkpt lat="46.51226937397596" lon="13.342550846847958"><ele>636.0</ele><time>2026-05-01T21:40:07.001Z</time></trkpt><trkpt lat="46.51229452804591" lon="13.342177549711382"><ele>635.0</ele><time>2026-05-01T21:40:08.001Z</time></trkpt><trkpt lat="46.51232006664668" lon="13.341806770400575"><ele>634.0</ele><time>2026-05-01T21:40:09.001Z</time></trkpt><trkpt lat="46.51234517598491" lon="13.341437837196784"><ele>632.5</ele><time>2026-05-01T21:40:10.001Z</time></trkpt><trkpt lat="46.5123710712517" lon="13.341072461028881"><ele>631.0</ele><time>2026-05-01T21:40:11.001Z</time></trkpt><trkpt lat="46.512396063405426" lon="13.340703709708615"><ele>627.0</ele><time>2026-05-01T21:40:12.001Z</time></trkpt><trkpt lat="46.51242175540426" lon="13.340331213467945"><ele>623.0</ele><time>2026-05-01T21:40:13.001Z</time></trkpt><trkpt lat="46.51244627810091" lon="13.339956927583962"><ele>618.5</ele><time>2026-05-01T21:40:14.001Z</time></trkpt><trkpt lat="46.512469468278304" lon="13.339581627191366"><ele>614.0</ele><time>2026-05-01T21:40:15.001Z</time></trkpt><trkpt lat="46.51249458377147" lon="13.339201783091587"><ele>613.5</ele><time>2026-05-01T21:40:16.001Z</time></trkpt><trkpt lat="46.51252765479842" lon="13.338838136090795"><ele>613.0</ele><time>2026-05-01T21:40:17.001Z</time></trkpt><trkpt lat="46.51255440270084" lon="13.338483414746207"><ele>613.0</ele><time>2026-05-01T21:40:18.001Z</time></trkpt><trkpt lat="46.512578137346516" lon="13.338104007837769"><ele>613.0</ele><time>2026-05-01T21:40:19.001Z</time></trkpt><trkpt lat="46.51260614574326" lon="13.337727706893771"><ele>610.0</ele><time>2026-05-01T21:40:20.001Z</time></trkpt><trkpt lat="46.51263467643332" lon="13.337347155526343"><ele>607.0</ele><time>2026-05-01T21:40:21.001Z</time></trkpt><trkpt lat="46.51266446265499" lon="13.336967177429306"><ele>605.5</ele><time>2026-05-01T21:40:22.001Z</time></trkpt><trkpt lat="46.51269316982115" lon="13.336584378429338"><ele>604.0</ele><time>2026-05-01T21:40:23.001Z</time></trkpt><trkpt lat="46.51272138047047" lon="13.33620409640416"><ele>603.5</ele><time>2026-05-01T21:40:24.001Z</time></trkpt><trkpt lat="46.51274812719782" lon="13.3358188953387"><ele>603.0</ele><time>2026-05-01T21:40:25.001Z</time></trkpt><trkpt lat="46.51277375132111" lon="13.335440592298097"><ele>603.5</ele><time>2026-05-01T21:40:26.001Z</time></trkpt><trkpt lat="46.512798525533064" lon="13.335064607744961"><ele>604.0</ele><time>2026-05-01T21:40:27.001Z</time></trkpt><trkpt lat="46.512824409054915" lon="13.334685388600981"><ele>604.0</ele><time>2026-05-01T21:40:28.001Z</time></trkpt><trkpt lat="46.512851777203984" lon="13.334311166189128"><ele>604.0</ele><time>2026-05-01T21:40:29.001Z</time></trkpt><trkpt lat="46.51287978154" lon="13.333939573480743"><ele>602.0</ele><time>2026-05-01T21:40:30.001Z</time></trkpt><trkpt lat="46.51290444147387" lon="13.333568297853827"><ele>600.0</ele><time>2026-05-01T21:40:31Z</time></trkpt><trkpt lat="46.51292346542492" lon="13.333197886665008"><ele>618.0</ele><time>2026-05-01T21:40:32Z</time></trkpt><trkpt lat="46.51293276704281" lon="13.332827401845542"><ele>636.0</ele><time>2026-05-01T21:40:33Z</time></trkpt><trkpt lat="46.512928447826184" lon="13.33244874276805"><ele>630.0</ele><time>2026-05-01T21:40:34Z</time></trkpt><trkpt lat="46.51291590695864" lon="13.332073150301449"><ele>624.0</ele><time>2026-05-01T21:40:35Z</time></trkpt><trkpt lat="46.51289665761903" lon="13.331696436917555"><ele>609.5</ele><time>2026-05-01T21:40:36Z</time></trkpt><trkpt lat="46.51287018790008" lon="13.33132055728705"><ele>595.0</ele><time>2026-05-01T21:40:37Z</time></trkpt><trkpt lat="46.5128328315236" lon="13.330942887326234"><ele>595.0</ele><time>2026-05-01T21:40:38Z</time></trkpt><trkpt lat="46.51278505141393" lon="13.330566802380707"><ele>595.0</ele><time>2026-05-01T21:40:39Z</time></trkpt><trkpt lat="46.51272746074964" lon="13.330190941533736"><ele>594.5</ele><time>2026-05-01T21:40:40Z</time></trkpt><trkpt lat="46.51266246627304" lon="13.329817387050102"><ele>594.0</ele><time>2026-05-01T21:40:41Z</time></trkpt><trkpt lat="46.512590668303034" lon="13.32944915401573"><ele>593.0</ele><time>2026-05-01T21:40:42Z</time></trkpt><trkpt lat="46.5125106754049" lon="13.329082413793161"><ele>592.0</ele><time>2026-05-01T21:40:43Z</time></trkpt><trkpt lat="46.5124224549398" lon="13.328719884373475"><ele>595.0</ele><time>2026-05-01T21:40:44Z</time></trkpt><trkpt lat="46.51232490526494" lon="13.328363824118096"><ele>598.0</ele><time>2026-05-01T21:40:45Z</time></trkpt><trkpt lat="46.512216443497984" lon="13.32801416381608"><ele>600.0</ele><time>2026-05-01T21:40:46Z</time></trkpt><trkpt lat="46.512098335832675" lon="13.327672345408947"><ele>602.0</ele><time>2026-05-01T21:40:47Z</time></trkpt><trkpt lat="46.51197067232067" lon="13.32733390404511"><ele>598.0</ele><time>2026-05-01T21:40:48Z</time></trkpt><trkpt lat="46.511836210448365" lon="13.327005449769839"><ele>594.0</ele><time>2026-05-01T21:40:49Z</time></trkpt><trkpt lat="46.51169497143007" lon="13.326682070102194"><ele>595.0</ele><time>2026-05-01T21:40:50Z</time></trkpt><trkpt lat="46.51154527795475" lon="13.326365718316321"><ele>596.0</ele><time>2026-05-01T21:40:51Z</time></trkpt><trkpt lat="46.51138967302337" lon="13.326057069345564"><ele>594.0</ele><time>2026-05-01T21:40:52Z</time></trkpt><trkpt lat="46.51122637233953" lon="13.325751804661024"><ele>592.0</ele><time>2026-05-01T21:40:53Z</time></trkpt><trkpt lat="46.5110582609077" lon="13.325457020776545"><ele>592.0</ele><time>2026-05-01T21:40:54Z</time></trkpt><trkpt lat="46.510883971911625" lon="13.325170621638353"><ele>592.0</ele><time>2026-05-01T21:40:55Z</time></trkpt><trkpt lat="46.510701165068234" lon="13.32489463688453"><ele>592.0</ele><time>2026-05-01T21:40:56Z</time></trkpt><trkpt lat="46.51051172713002" lon="13.324625972081943"><ele>592.0</ele><time>2026-05-01T21:40:57Z</time></trkpt><trkpt lat="46.51031566552397" lon="13.32436676943407"><ele>588.5</ele><time>2026-05-01T21:40:58Z</time></trkpt><trkpt lat="46.510116272537125" lon="13.32411730928076"><ele>585.0</ele><time>2026-05-01T21:40:59Z</time></trkpt><trkpt lat="46.50991720138502" lon="13.323871996742788"><ele>583.5</ele><time>2026-05-01T21:41:00Z</time></trkpt><trkpt lat="46.50972024769548" lon="13.323627399076951"><ele>582.0</ele><time>2026-05-01T21:41:01Z</time></trkpt><trkpt lat="46.50953188094251" lon="13.323391228573529"><ele>582.0</ele><time>2026-05-01T21:41:02Z</time></trkpt><trkpt lat="46.50935223759858" lon="13.323164415117592"><ele>582.0</ele><time>2026-05-01T21:41:03Z</time></trkpt><trkpt lat="46.509174683098486" lon="13.322934976950327"><ele>579.5</ele><time>2026-05-01T21:41:04Z</time></trkpt><trkpt lat="46.50899734173527" lon="13.322709799292397"><ele>577.0</ele><time>2026-05-01T21:41:05Z</time></trkpt><trkpt lat="46.50881960735942" lon="13.322485550632004"><ele>576.5</ele><time>2026-05-01T21:41:06Z</time></trkpt><trkpt lat="46.508641202764174" lon="13.322262707920867"><ele>576.0</ele><time>2026-05-01T21:41:07Z</time></trkpt><trkpt lat="46.5084640273047" lon="13.322041249593163"><ele>576.0</ele><time>2026-05-01T21:41:08Z</time></trkpt><trkpt lat="46.50828527023882" lon="13.321820368401564"><ele>576.0</ele><time>2026-05-01T21:41:09Z</time></trkpt><trkpt lat="46.50810721158559" lon="13.32160246593989"><ele>575.0</ele><time>2026-05-01T21:41:10Z</time></trkpt><trkpt lat="46.507930728491324" lon="13.321386024486696"><ele>574.0</ele><time>2026-05-01T21:41:11Z</time></trkpt><trkpt lat="46.507754032252116" lon="13.321168912308352"><ele>584.5</ele><time>2026-05-01T21:41:12Z</time></trkpt><trkpt lat="46.50757787980583" lon="13.32094936752441"><ele>595.0</ele><time>2026-05-01T21:41:13Z</time></trkpt><trkpt lat="46.50740158809336" lon="13.320726142830281"><ele>593.0</ele><time>2026-05-01T21:41:14Z</time></trkpt><trkpt lat="46.50722355631537" lon="13.320500346360884"><ele>591.0</ele><time>2026-05-01T21:41:15Z</time></trkpt><trkpt lat="46.50704390915373" lon="13.320272293040334"><ele>611.5</ele><time>2026-05-01T21:41:16Z</time></trkpt><trkpt lat="46.50686099274106" lon="13.320044693690157"><ele>632.0</ele><time>2026-05-01T21:41:17Z</time></trkpt><trkpt lat="46.50667529622185" lon="13.319814799804867"><ele>631.0</ele><time>2026-05-01T21:41:18Z</time></trkpt><trkpt lat="46.50648714537998" lon="13.319581732234528"><ele>630.0</ele><time>2026-05-01T21:41:19Z</time></trkpt><trkpt lat="46.50629820818729" lon="13.31934542840457"><ele>657.0</ele><time>2026-05-01T21:41:20Z</time></trkpt><trkpt lat="46.5061099932825" lon="13.319109443787008"><ele>684.0</ele><time>2026-05-01T21:41:21Z</time></trkpt><trkpt lat="46.505921300951385" lon="13.318873572562339"><ele>684.0</ele><time>2026-05-01T21:41:22Z</time></trkpt><trkpt lat="46.50573294760599" lon="13.318648043815562"><ele>684.0</ele><time>2026-05-01T21:41:23Z</time></trkpt><trkpt lat="46.505548418184716" lon="13.318413605761242"><ele>721.5</ele><time>2026-05-01T21:41:24Z</time></trkpt><trkpt lat="46.50536454845729" lon="13.318179310352113"><ele>759.0</ele><time>2026-05-01T21:41:25Z</time></trkpt><trkpt lat="46.50518219965494" lon="13.317946609081517"><ele>771.5</ele><time>2026-05-01T21:41:26Z</time></trkpt><trkpt lat="46.50499924522842" lon="13.31771328474951"><ele>784.0</ele><time>2026-05-01T21:41:27Z</time></trkpt><trkpt lat="46.50481642913313" lon="13.31748308175635"><ele>784.0</ele><time>2026-05-01T21:41:28Z</time></trkpt><trkpt lat="46.504633460893544" lon="13.317255088882552"><ele>784.0</ele><time>2026-05-01T21:41:29Z</time></trkpt><trkpt lat="46.504451181027314" lon="13.31703078936102"><ele>801.5</ele><time>2026-05-01T21:41:30.001Z</time></trkpt><trkpt lat="46.504266713094815" lon="13.316807986403397"><ele>819.0</ele><time>2026-05-01T21:41:31.001Z</time></trkpt><trkpt lat="46.504083676940056" lon="13.316584268003222"><ele>819.5</ele><time>2026-05-01T21:41:32.001Z</time></trkpt><trkpt lat="46.50390134950549" lon="13.31635760579472"><ele>820.0</ele><time>2026-05-01T21:41:33.001Z</time></trkpt><trkpt lat="46.503719360518936" lon="13.316127823182223"><ele>820.0</ele><time>2026-05-01T21:41:34.001Z</time></trkpt><trkpt lat="46.503540933886576" lon="13.315897182430652"><ele>820.0</ele><time>2026-05-01T21:41:35.001Z</time></trkpt><trkpt lat="46.5033612257934" lon="13.315669266262994"><ele>820.5</ele><time>2026-05-01T21:41:36.001Z</time></trkpt><trkpt lat="46.50318071574656" lon="13.315442524263696"><ele>821.0</ele><time>2026-05-01T21:41:37.001Z</time></trkpt><trkpt lat="46.503000791937254" lon="13.315216742529918"><ele>849.5</ele><time>2026-05-01T21:41:38.001Z</time></trkpt><trkpt lat="46.5028208257321" lon="13.314990069007246"><ele>878.0</ele><time>2026-05-01T21:41:39.001Z</time></trkpt><trkpt lat="46.50264074692563" lon="13.314767602588544"><ele>872.0</ele><time>2026-05-01T21:41:40.001Z</time></trkpt><trkpt lat="46.502461021506335" lon="13.314543758976779"><ele>866.0</ele><time>2026-05-01T21:41:41.001Z</time></trkpt><trkpt lat="46.50228071449793" lon="13.314316096261612"><ele>866.0</ele><time>2026-05-01T21:41:42.001Z</time></trkpt><trkpt lat="46.50209954856832" lon="13.31408859283707"><ele>866.0</ele><time>2026-05-01T21:41:43.001Z</time></trkpt><trkpt lat="46.501919089287185" lon="13.313859887260811"><ele>865.5</ele><time>2026-05-01T21:41:44.001Z</time></trkpt><trkpt lat="46.501737906505696" lon="13.313634062804686"><ele>865.0</ele><time>2026-05-01T21:41:45.001Z</time></trkpt><trkpt lat="46.5015569379651" lon="13.313410707974244"><ele>865.0</ele><time>2026-05-01T21:41:46.001Z</time></trkpt><trkpt lat="46.50137552051533" lon="13.313186598386833"><ele>865.0</ele><time>2026-05-01T21:41:47.001Z</time></trkpt><trkpt lat="46.50119445961495" lon="13.312962970970458"><ele>855.0</ele><time>2026-05-01T21:41:48.001Z</time></trkpt><trkpt lat="46.50101319430229" lon="13.312738572753263"><ele>845.0</ele><time>2026-05-01T21:41:49.001Z</time></trkpt><trkpt lat="46.50083044372025" lon="13.312511563322506"><ele>540.0</ele><time>2026-05-01T21:41:50.021Z</time></trkpt><trkpt lat="46.49209503254684" lon="13.301540968711175"><ele>538.0</ele><time>2026-05-01T21:42:35.001Z</time></trkpt><trkpt lat="46.491915336788765" lon="13.30128643357102"><ele>536.0</ele><time>2026-05-01T21:42:36.001Z</time></trkpt><trkpt lat="46.49176720069066" lon="13.30107600483669"><ele>536.0</ele><time>2026-05-01T21:42:37.001Z</time></trkpt><trkpt lat="46.49157062812426" lon="13.30088872494029"><ele>536.0</ele><time>2026-05-01T21:42:38.001Z</time></trkpt><trkpt lat="46.49138780553296" lon="13.30067072389907"><ele>534.0</ele><time>2026-05-01T21:42:39.001Z</time></trkpt><trkpt lat="46.49122080100102" lon="13.300447708174186"><ele>532.0</ele><time>2026-05-01T21:42:40.001Z</time></trkpt><trkpt lat="46.49104949188773" lon="13.300230548066848"><ele>532.0</ele><time>2026-05-01T21:42:41Z</time></trkpt><trkpt lat="46.490874356510986" lon="13.30001079506088"><ele>532.0</ele><time>2026-05-01T21:42:42Z</time></trkpt><trkpt lat="46.49070219342078" lon="13.29979699202755"><ele>531.0</ele><time>2026-05-01T21:42:43Z</time></trkpt><trkpt lat="46.49052691746871" lon="13.299575173736704"><ele>530.0</ele><time>2026-05-01T21:42:44Z</time></trkpt><trkpt lat="46.49035286394585" lon="13.299356641794612"><ele>526.5</ele><time>2026-05-01T21:42:45Z</time></trkpt><trkpt lat="46.49018132703523" lon="13.299139231287239"><ele>523.0</ele><time>2026-05-01T21:42:46Z</time></trkpt><trkpt lat="46.49001024965651" lon="13.298919683782923"><ele>534.5</ele><time>2026-05-01T21:42:47Z</time></trkpt><trkpt lat="46.489838028310096" lon="13.298705376471784"><ele>546.0</ele><time>2026-05-01T21:42:48Z</time></trkpt><trkpt lat="46.48966485936704" lon="13.298486382546571"><ele>555.5</ele><time>2026-05-01T21:42:49Z</time></trkpt><trkpt lat="46.48949249277503" lon="13.298271715957265"><ele>565.0</ele><time>2026-05-01T21:42:50Z</time></trkpt><trkpt lat="46.48932011754461" lon="13.298057188894179"><ele>585.5</ele><time>2026-05-01T21:42:51Z</time></trkpt><trkpt lat="46.48914870694193" lon="13.297847579494293"><ele>606.0</ele><time>2026-05-01T21:42:52Z</time></trkpt><trkpt lat="46.48897517195156" lon="13.297630963865016"><ele>606.0</ele><time>2026-05-01T21:42:53Z</time></trkpt><trkpt lat="46.488800998249516" lon="13.297414599716593"><ele>606.0</ele><time>2026-05-01T21:42:54Z</time></trkpt><trkpt lat="46.488626417170096" lon="13.29719915107231"><ele>642.0</ele><time>2026-05-01T21:42:55Z</time></trkpt><trkpt lat="46.48845374497208" lon="13.296982877757271"><ele>678.0</ele><time>2026-05-01T21:42:56Z</time></trkpt><trkpt lat="46.48828119801309" lon="13.296764465387108"><ele>678.0</ele><time>2026-05-01T21:42:57Z</time></trkpt><trkpt lat="46.4881082344421" lon="13.296545289684179"><ele>678.0</ele><time>2026-05-01T21:42:58Z</time></trkpt><trkpt lat="46.48793577563525" lon="13.296324765815294"><ele>731.0</ele><time>2026-05-01T21:42:59Z</time></trkpt><trkpt lat="46.48776210713421" lon="13.296106384929498"><ele>784.0</ele><time>2026-05-01T21:43:00Z</time></trkpt><trkpt lat="46.48758542135521" lon="13.295893337180132"><ele>784.0</ele><time>2026-05-01T21:43:01Z</time></trkpt><trkpt lat="46.48740388341865" lon="13.295689967633225"><ele>784.0</ele><time>2026-05-01T21:43:02Z</time></trkpt><trkpt lat="46.487218605096366" lon="13.295491253491216"><ele>803.0</ele><time>2026-05-01T21:43:03Z</time></trkpt><trkpt lat="46.48703252011781" lon="13.29531549830309"><ele>822.0</ele><time>2026-05-01T21:43:04Z</time></trkpt><trkpt lat="46.48683733424327" lon="13.295134026246028"><ele>822.0</ele><time>2026-05-01T21:43:05Z</time></trkpt><trkpt lat="46.486638307546976" lon="13.294957211621504"><ele>822.0</ele><time>2026-05-01T21:43:06Z</time></trkpt><trkpt lat="46.486438049185736" lon="13.294786071012098"><ele>820.0</ele><time>2026-05-01T21:43:07Z</time></trkpt><trkpt lat="46.48623498138759" lon="13.294619769480475"><ele>818.0</ele><time>2026-05-01T21:43:08Z</time></trkpt><trkpt lat="46.486028718046725" lon="13.2944661117305"><ele>818.0</ele><time>2026-05-01T21:43:09Z</time></trkpt><trkpt lat="46.48582108742967" lon="13.294323373433658"><ele>818.0</ele><time>2026-05-01T21:43:10Z</time></trkpt><trkpt lat="46.485610983378095" lon="13.294192796730954"><ele>798.5</ele><time>2026-05-01T21:43:11Z</time></trkpt><trkpt lat="46.48539831753667" lon="13.294069347371236"><ele>779.0</ele><time>2026-05-01T21:43:12Z</time></trkpt><trkpt lat="46.485182124959735" lon="13.293951311371544"><ele>790.0</ele><time>2026-05-01T21:43:13Z</time></trkpt><trkpt lat="46.48496284080954" lon="13.29383968983374"><ele>801.0</ele><time>2026-05-01T21:43:14Z</time></trkpt><trkpt lat="46.48474056096676" lon="13.293736384242429"><ele>787.0</ele><time>2026-05-01T21:43:15Z</time></trkpt><trkpt lat="46.48451586980127" lon="13.293642325145093"><ele>773.0</ele><time>2026-05-01T21:43:16Z</time></trkpt><trkpt lat="46.48428795789047" lon="13.293558048359534"><ele>773.0</ele><time>2026-05-01T21:43:17Z</time></trkpt><trkpt lat="46.484056469932696" lon="13.293481016225284"><ele>773.0</ele><time>2026-05-01T21:43:18Z</time></trkpt><trkpt lat="46.483822561473794" lon="13.293411897821214"><ele>761.0</ele><time>2026-05-01T21:43:19Z</time></trkpt><trkpt lat="46.483585922962874" lon="13.29335134869645"><ele>749.0</ele><time>2026-05-01T21:43:20Z</time></trkpt><trkpt lat="46.48334885913812" lon="13.293301421213311"><ele>749.0</ele><time>2026-05-01T21:43:21Z</time></trkpt><trkpt lat="46.48310914596349" lon="13.29325913468702"><ele>749.0</ele><time>2026-05-01T21:43:22Z</time></trkpt><trkpt lat="46.48286770205249" lon="13.293226182859707"><ele>741.0</ele><time>2026-05-01T21:43:23Z</time></trkpt><trkpt lat="46.48262610883927" lon="13.293202194757901"><ele>733.0</ele><time>2026-05-01T21:43:24Z</time></trkpt><trkpt lat="46.48238133420241" lon="13.29318799478156"><ele>733.0</ele><time>2026-05-01T21:43:25Z</time></trkpt><trkpt lat="46.48213753855766" lon="13.293183682220233"><ele>733.0</ele><time>2026-05-01T21:43:26Z</time></trkpt><trkpt lat="46.481891212185694" lon="13.29318613983712"><ele>718.0</ele><time>2026-05-01T21:43:27Z</time></trkpt><trkpt lat="46.48164615513162" lon="13.293200003394007"><ele>703.0</ele><time>2026-05-01T21:43:28Z</time></trkpt><trkpt lat="46.48139907234574" lon="13.293224341317678"><ele>682.5</ele><time>2026-05-01T21:43:29Z</time></trkpt><trkpt lat="46.48115719051131" lon="13.293261734326807"><ele>662.0</ele><time>2026-05-01T21:43:30Z</time></trkpt><trkpt lat="46.48091779068465" lon="13.293307518320303"><ele>662.0</ele><time>2026-05-01T21:43:31Z</time></trkpt><trkpt lat="46.48067671312154" lon="13.293334708144327"><ele>662.0</ele><time>2026-05-01T21:43:32Z</time></trkpt><trkpt lat="46.480442435421395" lon="13.293390464645274"><ele>647.0</ele><time>2026-05-01T21:43:33Z</time></trkpt><trkpt lat="46.480207424248015" lon="13.293449977853099"><ele>632.0</ele><time>2026-05-01T21:43:34Z</time></trkpt><trkpt lat="46.4799781363601" lon="13.293517291746664"><ele>632.0</ele><time>2026-05-01T21:43:35Z</time></trkpt><trkpt lat="46.47974902023974" lon="13.29360060253584"><ele>632.0</ele><time>2026-05-01T21:43:36.018Z</time></trkpt><trkpt lat="46.47760406561771" lon="13.294629584197036"><ele>576.0</ele><time>2026-05-01T21:43:44Z</time></trkpt><trkpt lat="46.477368439248345" lon="13.294759678847749"><ele>520.0</ele><time>2026-05-01T21:43:45Z</time></trkpt><trkpt lat="46.47714796241036" lon="13.29493595556045"><ele>514.5</ele><time>2026-05-01T21:43:46Z</time></trkpt><trkpt lat="46.47692630185369" lon="13.295051664296597"><ele>509.0</ele><time>2026-05-01T21:43:47Z</time></trkpt><trkpt lat="46.4767306864152" lon="13.295194054248395"><ele>509.0</ele><time>2026-05-01T21:43:48Z</time></trkpt><trkpt lat="46.47651721516682" lon="13.295341806864247"><ele>509.0</ele><time>2026-05-01T21:43:49Z</time></trkpt><trkpt lat="46.47628657436784" lon="13.295478118636886"><ele>498.0</ele><time>2026-05-01T21:43:50Z</time></trkpt><trkpt lat="46.47606289865964" lon="13.295624653909162"><ele>487.0</ele><time>2026-05-01T21:43:51Z</time></trkpt><trkpt lat="46.47584490769422" lon="13.295786482179789"><ele>487.0</ele><time>2026-05-01T21:43:52.001Z</time></trkpt><trkpt lat="46.47562537511338" lon="13.295932127432065"><ele>487.0</ele><time>2026-05-01T21:43:53.001Z</time></trkpt><trkpt lat="46.47540639635446" lon="13.296075402309997"><ele>487.5</ele><time>2026-05-01T21:43:54.001Z</time></trkpt><trkpt lat="46.47518527638814" lon="13.296216444359377"><ele>488.0</ele><time>2026-05-01T21:43:55.001Z</time></trkpt><trkpt lat="46.47496391218987" lon="13.29635582131056"><ele>501.0</ele><time>2026-05-01T21:43:56.001Z</time></trkpt><trkpt lat="46.47474165851386" lon="13.2964987306762"><ele>514.0</ele><time>2026-05-01T21:43:57.001Z</time></trkpt><trkpt lat="46.47452023846058" lon="13.296642062140279"><ele>528.0</ele><time>2026-05-01T21:43:58.001Z</time></trkpt><trkpt lat="46.474298998839856" lon="13.296783332455092"><ele>542.0</ele><time>2026-05-01T21:43:59.001Z</time></trkpt><trkpt lat="46.474074763651856" lon="13.296925096307803"><ele>542.0</ele><time>2026-05-01T21:44:00.001Z</time></trkpt><trkpt lat="46.47384894379422" lon="13.297070951428672"><ele>542.0</ele><time>2026-05-01T21:44:01.001Z</time></trkpt><trkpt lat="46.47362264140929" lon="13.297216771796283"><ele>581.0</ele><time>2026-05-01T21:44:02.001Z</time></trkpt><trkpt lat="46.473395083869804" lon="13.297364092719622"><ele>620.0</ele><time>2026-05-01T21:44:03.001Z</time></trkpt><trkpt lat="46.47316653434999" lon="13.297511885435991"><ele>635.0</ele><time>2026-05-01T21:44:04.001Z</time></trkpt><trkpt lat="46.47293677101305" lon="13.297659039695972"><ele>650.0</ele><time>2026-05-01T21:44:05.001Z</time></trkpt><trkpt lat="46.47270519506543" lon="13.297803628261644"><ele>650.0</ele><time>2026-05-01T21:44:06.001Z</time></trkpt><trkpt lat="46.472472005801826" lon="13.297947300324012"><ele>650.0</ele><time>2026-05-01T21:44:07.001Z</time></trkpt><trkpt lat="46.47224401283222" lon="13.298103881227572"><ele>685.0</ele><time>2026-05-01T21:44:08.001Z</time></trkpt><trkpt lat="46.471994787335206" lon="13.298253525494099"><ele>720.0</ele><time>2026-05-01T21:44:09.001Z</time></trkpt><trkpt lat="46.471762044339236" lon="13.29840348846606"><ele>720.0</ele><time>2026-05-01T21:44:10.001Z</time></trkpt><trkpt lat="46.471529419657294" lon="13.298554049727684"><ele>720.0</ele><time>2026-05-01T21:44:11.001Z</time></trkpt><trkpt lat="46.471296536241816" lon="13.298704632095978"><ele>712.5</ele><time>2026-05-01T21:44:12.001Z</time></trkpt><trkpt lat="46.47106445447188" lon="13.29885711758544"><ele>705.0</ele><time>2026-05-01T21:44:13.001Z</time></trkpt><trkpt lat="46.470832882660815" lon="13.299009942727963"><ele>718.0</ele><time>2026-05-01T21:44:14.001Z</time></trkpt><trkpt lat="46.47060184790978" lon="13.299162196774818"><ele>731.0</ele><time>2026-05-01T21:44:15.001Z</time></trkpt><trkpt lat="46.470370359966225" lon="13.299312224220854"><ele>731.0</ele><time>2026-05-01T21:44:16.001Z</time></trkpt><trkpt lat="46.470139339243275" lon="13.299460813421568"><ele>731.0</ele><time>2026-05-01T21:44:17.001Z</time></trkpt><trkpt lat="46.46990849337672" lon="13.299609849087291"><ele>771.5</ele><time>2026-05-01T21:44:18.001Z</time></trkpt><trkpt lat="46.469682469801874" lon="13.299757053198396"><ele>812.0</ele><time>2026-05-01T21:44:19.001Z</time></trkpt><trkpt lat="46.46946373964235" lon="13.299901322245441"><ele>812.0</ele><time>2026-05-01T21:44:20.001Z</time></trkpt><trkpt lat="46.469251643913076" lon="13.30004159116297"><ele>812.0</ele><time>2026-05-01T21:44:21.001Z</time></trkpt><trkpt lat="46.46903423725196" lon="13.300184708843188"><ele>812.0</ele><time>2026-05-01T21:44:22.001Z</time></trkpt><trkpt lat="46.46881974605848" lon="13.300326602410117"><ele>812.0</ele><time>2026-05-01T21:44:23.001Z</time></trkpt><trkpt lat="46.468607772658274" lon="13.300469012369723"><ele>836.0</ele><time>2026-05-01T21:44:24.001Z</time></trkpt><trkpt lat="46.468396774729904" lon="13.300607499616616"><ele>860.0</ele><time>2026-05-01T21:44:25.001Z</time></trkpt><trkpt lat="46.4681840498877" lon="13.300747272068225"><ele>860.0</ele><time>2026-05-01T21:44:26.001Z</time></trkpt><trkpt lat="46.467975208128344" lon="13.300892839105524"><ele>860.0</ele><time>2026-05-01T21:44:27.001Z</time></trkpt><trkpt lat="46.467765410051854" lon="13.301034415700574"><ele>854.0</ele><time>2026-05-01T21:44:28.001Z</time></trkpt><trkpt lat="46.46755623617228" lon="13.301173440538916"><ele>848.0</ele><time>2026-05-01T21:44:29.001Z</time></trkpt><trkpt lat="46.4673458821641" lon="13.301310688021653"><ele>856.5</ele><time>2026-05-01T21:44:30.001Z</time></trkpt><trkpt lat="46.46713698437873" lon="13.301444768854354"><ele>865.0</ele><time>2026-05-01T21:44:31.001Z</time></trkpt><trkpt lat="46.466931062117226" lon="13.301569702894971"><ele>865.0</ele><time>2026-05-01T21:44:32.001Z</time></trkpt><trkpt lat="46.46672391926429" lon="13.301691502355665"><ele>865.0</ele><time>2026-05-01T21:44:33.001Z</time></trkpt><trkpt lat="46.466512625682455" lon="13.301812299293461"><ele>865.0</ele><time>2026-05-01T21:44:34.001Z</time></trkpt><trkpt lat="46.46629485502914" lon="13.30193373127332"><ele>865.0</ele><time>2026-05-01T21:44:35.001Z</time></trkpt><trkpt lat="46.466071024460916" lon="13.302052588951426"><ele>855.5</ele><time>2026-05-01T21:44:36.001Z</time></trkpt><trkpt lat="46.46583919895644" lon="13.302171898525678"><ele>846.0</ele><time>2026-05-01T21:44:37.019Z</time></trkpt><trkpt lat="46.45987871082701" lon="13.303663489621446"><ele>667.0</ele><time>2026-05-01T21:44:59.001Z</time></trkpt><trkpt lat="46.459629579841454" lon="13.30367680511248"><ele>488.0</ele><time>2026-05-01T21:45:00.001Z</time></trkpt><trkpt lat="46.459403450007784" lon="13.303743810618814"><ele>475.5</ele><time>2026-05-01T21:45:01.001Z</time></trkpt><trkpt lat="46.45915756314783" lon="13.30376999500247"><ele>463.0</ele><time>2026-05-01T21:45:02.001Z</time></trkpt><trkpt lat="46.45891905711248" lon="13.303789019575978"><ele>453.5</ele><time>2026-05-01T21:45:03.001Z</time></trkpt><trkpt lat="46.458671064485515" lon="13.303801488982305"><ele>444.0</ele><time>2026-05-01T21:45:04.001Z</time></trkpt><trkpt lat="46.45843120626661" lon="13.303818521538924"><ele>444.0</ele><time>2026-05-01T21:45:05Z</time></trkpt><trkpt lat="46.45818775859566" lon="13.303831161033235"><ele>444.0</ele><time>2026-05-01T21:45:06Z</time></trkpt><trkpt lat="46.4579392571567" lon="13.303839576191447"><ele>448.0</ele><time>2026-05-01T21:45:07Z</time></trkpt><trkpt lat="46.45769381246864" lon="13.303849498859597"><ele>452.0</ele><time>2026-05-01T21:45:08Z</time></trkpt><trkpt lat="46.45744916381137" lon="13.3038654971123"><ele>452.0</ele><time>2026-05-01T21:45:09Z</time></trkpt><trkpt lat="46.45722563819852" lon="13.303886886413943"><ele>452.0</ele><time>2026-05-01T21:45:10Z</time></trkpt><trkpt lat="46.45698037419138" lon="13.303898103943178"><ele>451.0</ele><time>2026-05-01T21:45:11Z</time></trkpt><trkpt lat="46.45673441281361" lon="13.303916329653024"><ele>450.0</ele><time>2026-05-01T21:45:12Z</time></trkpt><trkpt lat="46.45648566450795" lon="13.303939195604453"><ele>466.0</ele><time>2026-05-01T21:45:13Z</time></trkpt><trkpt lat="46.45623800984351" lon="13.303963286194294"><ele>482.0</ele><time>2026-05-01T21:45:14Z</time></trkpt><trkpt lat="46.45598775280936" lon="13.303989984851718"><ele>482.0</ele><time>2026-05-01T21:45:15Z</time></trkpt><trkpt lat="46.45573667350262" lon="13.304020516947594"><ele>482.0</ele><time>2026-05-01T21:45:16Z</time></trkpt><trkpt lat="46.45548251832857" lon="13.304051671917989"><ele>508.5</ele><time>2026-05-01T21:45:17Z</time></trkpt><trkpt lat="46.455224855054986" lon="13.30409332201791"><ele>535.0</ele><time>2026-05-01T21:45:18Z</time></trkpt><trkpt lat="46.454964322418576" lon="13.304140377327073"><ele>535.0</ele><time>2026-05-01T21:45:19Z</time></trkpt><trkpt lat="46.45470140714008" lon="13.30419299222348"><ele>535.0</ele><time>2026-05-01T21:45:20Z</time></trkpt><trkpt lat="46.45443621668284" lon="13.30425167467216"><ele>558.0</ele><time>2026-05-01T21:45:21Z</time></trkpt><trkpt lat="46.454168726623244" lon="13.304315011284015"><ele>581.0</ele><time>2026-05-01T21:45:22Z</time></trkpt><trkpt lat="46.45389844599334" lon="13.304368521578057"><ele>601.0</ele><time>2026-05-01T21:45:23Z</time></trkpt><trkpt lat="46.45368812327556" lon="13.304437087293412"><ele>621.0</ele><time>2026-05-01T21:45:24Z</time></trkpt><trkpt lat="46.453429220547775" lon="13.304507489100452"><ele>621.0</ele><time>2026-05-01T21:45:25Z</time></trkpt><trkpt lat="46.45317179946093" lon="13.304584360721087"><ele>621.0</ele><time>2026-05-01T21:45:26Z</time></trkpt><trkpt lat="46.45291589337752" lon="13.304667247597758"><ele>633.5</ele><time>2026-05-01T21:45:27Z</time></trkpt><trkpt lat="46.45266320769385" lon="13.30475003860597"><ele>646.0</ele><time>2026-05-01T21:45:28Z</time></trkpt><trkpt lat="46.45243068712415" lon="13.304833211528958"><ele>646.0</ele><time>2026-05-01T21:45:29Z</time></trkpt><trkpt lat="46.45218199291955" lon="13.304927166128872"><ele>646.0</ele><time>2026-05-01T21:45:30Z</time></trkpt><trkpt lat="46.45193283449619" lon="13.305022191253162"><ele>670.5</ele><time>2026-05-01T21:45:31Z</time></trkpt><trkpt lat="46.451678199850804" lon="13.305123483655462"><ele>695.0</ele><time>2026-05-01T21:45:32Z</time></trkpt><trkpt lat="46.45143303815488" lon="13.305227779475048"><ele>723.0</ele><time>2026-05-01T21:45:33Z</time></trkpt><trkpt lat="46.451189181807365" lon="13.305336200400507"><ele>751.0</ele><time>2026-05-01T21:45:34Z</time></trkpt><trkpt lat="46.45094781058031" lon="13.3054437725687"><ele>751.0</ele><time>2026-05-01T21:45:35Z</time></trkpt><trkpt lat="46.4507020527686" lon="13.30554563153426"><ele>751.0</ele><time>2026-05-01T21:45:36Z</time></trkpt><trkpt lat="46.45045404357584" lon="13.305646387569443"><ele>769.5</ele><time>2026-05-01T21:45:37Z</time></trkpt><trkpt lat="46.450207371059804" lon="13.305752992079533"><ele>788.0</ele><time>2026-05-01T21:45:38Z</time></trkpt><trkpt lat="46.4499615867515" lon="13.305860408780193"><ele>788.0</ele><time>2026-05-01T21:45:39Z</time></trkpt><trkpt lat="46.44971612529808" lon="13.30596913720326"><ele>788.0</ele><time>2026-05-01T21:45:40Z</time></trkpt><trkpt lat="46.449471829738094" lon="13.306075357099022"><ele>820.5</ele><time>2026-05-01T21:45:41Z</time></trkpt><trkpt lat="46.44922719779979" lon="13.306183224965249"><ele>853.0</ele><time>2026-05-01T21:45:42Z</time></trkpt><trkpt lat="46.44898327854042" lon="13.306290235325216"><ele>858.0</ele><time>2026-05-01T21:45:43Z</time></trkpt><trkpt lat="46.44873909894143" lon="13.306396071635564"><ele>863.0</ele><time>2026-05-01T21:45:44Z</time></trkpt><trkpt lat="46.448494597362135" lon="13.30650134274894"><ele>841.0</ele><time>2026-05-01T21:45:45Z</time></trkpt><trkpt lat="46.44825026592604" lon="13.306604032226401"><ele>819.0</ele><time>2026-05-01T21:45:46Z</time></trkpt><trkpt lat="46.448005853398804" lon="13.306707091411749"><ele>817.0</ele><time>2026-05-01T21:45:47Z</time></trkpt><trkpt lat="46.4477609442089" lon="13.306811666676337"><ele>815.0</ele><time>2026-05-01T21:45:48Z</time></trkpt><trkpt lat="46.44751600803983" lon="13.306917446556525"><ele>815.0</ele><time>2026-05-01T21:45:49Z</time></trkpt><trkpt lat="46.44727152446184" lon="13.307023953404656"><ele>815.0</ele><time>2026-05-01T21:45:50Z</time></trkpt><trkpt lat="46.44702922771327" lon="13.307132877207916"><ele>815.0</ele><time>2026-05-01T21:45:51Z</time></trkpt><trkpt lat="46.446785222837185" lon="13.307240777275709"><ele>815.0</ele><time>2026-05-01T21:45:52Z</time></trkpt><trkpt lat="46.446536706457124" lon="13.307350326628569"><ele>815.0</ele><time>2026-05-01T21:45:53.015Z</time></trkpt><trkpt lat="46.444120162422024" lon="13.308405718407032"><ele>630.0</ele><time>2026-05-01T21:46:05.388Z</time></trkpt><trkpt lat="46.44390981728384" lon="13.308498073695553"><ele>445.0</ele><time>2026-05-01T21:46:06.95Z</time></trkpt><trkpt lat="46.44093096984995" lon="13.309686416282467"><ele>433.0</ele><time>2026-05-01T21:46:17.001Z</time></trkpt><trkpt lat="46.440688611835334" lon="13.309783125693532"><ele>421.0</ele><time>2026-05-01T21:46:18.001Z</time></trkpt><trkpt lat="46.440437683394414" lon="13.309889777162528"><ele>416.0</ele><time>2026-05-01T21:46:19.001Z</time></trkpt><trkpt lat="46.44021500006256" lon="13.309986733423992"><ele>411.0</ele><time>2026-05-01T21:46:20.001Z</time></trkpt><trkpt lat="46.439985512304155" lon="13.310083015615318"><ele>411.0</ele><time>2026-05-01T21:46:21.001Z</time></trkpt><trkpt lat="46.439755248984554" lon="13.310190852897536"><ele>411.0</ele><time>2026-05-01T21:46:22.001Z</time></trkpt><trkpt lat="46.43952266581242" lon="13.310287407142482"><ele>410.5</ele><time>2026-05-01T21:46:23.001Z</time></trkpt><trkpt lat="46.43929318225746" lon="13.310393889336094"><ele>410.0</ele><time>2026-05-01T21:46:24.001Z</time></trkpt><trkpt lat="46.43906168443215" lon="13.310494235374486"><ele>411.0</ele><time>2026-05-01T21:46:25.001Z</time></trkpt><trkpt lat="46.43882884513657" lon="13.310601225031428"><ele>412.0</ele><time>2026-05-01T21:46:26.001Z</time></trkpt><trkpt lat="46.438596881782104" lon="13.310714240261348"><ele>412.0</ele><time>2026-05-01T21:46:27.001Z</time></trkpt><trkpt lat="46.43836698661603" lon="13.310831449309168"><ele>412.0</ele><time>2026-05-01T21:46:28.001Z</time></trkpt><trkpt lat="46.43813684280412" lon="13.310944850704981"><ele>411.0</ele><time>2026-05-01T21:46:29.001Z</time></trkpt><trkpt lat="46.437898061912975" lon="13.311068786513342"><ele>410.0</ele><time>2026-05-01T21:46:30.001Z</time></trkpt><trkpt lat="46.43766375717783" lon="13.31119264069772"><ele>410.0</ele><time>2026-05-01T21:46:31.001Z</time></trkpt><trkpt lat="46.43743099074916" lon="13.311320534842228"><ele>410.0</ele><time>2026-05-01T21:46:32.001Z</time></trkpt><trkpt lat="46.43719763524774" lon="13.311440972648045"><ele>411.0</ele><time>2026-05-01T21:46:33.001Z</time></trkpt><trkpt lat="46.436969358879615" lon="13.311575317970158"><ele>412.0</ele><time>2026-05-01T21:46:34.001Z</time></trkpt><trkpt lat="46.43673831084865" lon="13.31170942273828"><ele>412.0</ele><time>2026-05-01T21:46:35.001Z</time></trkpt><trkpt lat="46.436504327354385" lon="13.31184772083747"><ele>412.0</ele><time>2026-05-01T21:46:36.001Z</time></trkpt><trkpt lat="46.43627128338275" lon="13.311987551389024"><ele>410.0</ele><time>2026-05-01T21:46:37.001Z</time></trkpt><trkpt lat="46.43603586713858" lon="13.312135944378571"><ele>408.0</ele><time>2026-05-01T21:46:38.001Z</time></trkpt><trkpt lat="46.43579972763301" lon="13.312283931088036"><ele>408.5</ele><time>2026-05-01T21:46:39.001Z</time></trkpt><trkpt lat="46.43556469448692" lon="13.31242253953142"><ele>409.0</ele><time>2026-05-01T21:46:40.001Z</time></trkpt><trkpt lat="46.43533341088849" lon="13.312579636751387"><ele>409.0</ele><time>2026-05-01T21:46:41.001Z</time></trkpt><trkpt lat="46.43510391229655" lon="13.312736311009619"><ele>409.0</ele><time>2026-05-01T21:46:42.001Z</time></trkpt><trkpt lat="46.43487419643077" lon="13.312898489675211"><ele>409.0</ele><time>2026-05-01T21:46:43.001Z</time></trkpt><trkpt lat="46.43463833977053" lon="13.313054712712004"><ele>409.0</ele><time>2026-05-01T21:46:44.001Z</time></trkpt><trkpt lat="46.43440414873153" lon="13.313203241065018"><ele>412.0</ele><time>2026-05-01T21:46:45.001Z</time></trkpt><trkpt lat="46.43416387151691" lon="13.313348510585147"><ele>415.0</ele><time>2026-05-01T21:46:46.001Z</time></trkpt><trkpt lat="46.433929735827036" lon="13.31350770227873"><ele>409.0</ele><time>2026-05-01T21:46:47.001Z</time></trkpt><trkpt lat="46.43369547099592" lon="13.313667183316223"><ele>403.0</ele><time>2026-05-01T21:46:48.001Z</time></trkpt><trkpt lat="46.43346063395379" lon="13.313832381596736"><ele>413.0</ele><time>2026-05-01T21:46:49.001Z</time></trkpt><trkpt lat="46.43322617016009" lon="13.313993576519799"><ele>423.0</ele><time>2026-05-01T21:46:50.001Z</time></trkpt><trkpt lat="46.432987670177276" lon="13.314142982629582"><ele>415.5</ele><time>2026-05-01T21:46:51.001Z</time></trkpt><trkpt lat="46.43275249626187" lon="13.314296686036236"><ele>408.0</ele><time>2026-05-01T21:46:52.001Z</time></trkpt><trkpt lat="46.432511103212754" lon="13.314452914412133"><ele>408.0</ele><time>2026-05-01T21:46:53.001Z</time></trkpt><trkpt lat="46.43226861373333" lon="13.314593489842425"><ele>408.0</ele><time>2026-05-01T21:46:54.001Z</time></trkpt><trkpt lat="46.432026805487034" lon="13.314727681785518"><ele>410.0</ele><time>2026-05-01T21:46:55.001Z</time></trkpt><trkpt lat="46.4317796198285" lon="13.314855035033567"><ele>412.0</ele><time>2026-05-01T21:46:56.001Z</time></trkpt><trkpt lat="46.431528313965245" lon="13.314981029414646"><ele>409.5</ele><time>2026-05-01T21:46:57.001Z</time></trkpt><trkpt lat="46.43127565214182" lon="13.31509419182862"><ele>407.0</ele><time>2026-05-01T21:46:58.001Z</time></trkpt><trkpt lat="46.43102037138038" lon="13.315200365440981"><ele>407.0</ele><time>2026-05-01T21:46:59.001Z</time></trkpt><trkpt lat="46.43076132443275" lon="13.315301201354693"><ele>407.0</ele><time>2026-05-01T21:47:00.001Z</time></trkpt><trkpt lat="46.43049963899404" lon="13.315395243348018"><ele>410.5</ele><time>2026-05-01T21:47:01.001Z</time></trkpt><trkpt lat="46.430238055695106" lon="13.315485215720077"><ele>414.0</ele><time>2026-05-01T21:47:02.001Z</time></trkpt><trkpt lat="46.42997434467407" lon="13.315575013952346"><ele>414.0</ele><time>2026-05-01T21:47:03.001Z</time></trkpt><trkpt lat="46.42970719869203" lon="13.315661385503441"><ele>414.0</ele><time>2026-05-01T21:47:04.001Z</time></trkpt><trkpt lat="46.429438365522735" lon="13.31574763512939"><ele>411.5</ele><time>2026-05-01T21:47:05.001Z</time></trkpt><trkpt lat="46.42916901284983" lon="13.315847802625175"><ele>409.0</ele><time>2026-05-01T21:47:06.001Z</time></trkpt><trkpt lat="46.42890312206103" lon="13.315951135480104"><ele>407.0</ele><time>2026-05-01T21:47:07.001Z</time></trkpt><trkpt lat="46.428636684181015" lon="13.316059263930475"><ele>405.0</ele><time>2026-05-01T21:47:08.001Z</time></trkpt><trkpt lat="46.42837110879385" lon="13.316179252667025"><ele>405.0</ele><time>2026-05-01T21:47:09.001Z</time></trkpt><trkpt lat="46.42810809527716" lon="13.316314147107576"><ele>405.0</ele><time>2026-05-01T21:47:10Z</time></trkpt><trkpt lat="46.42785270787999" lon="13.3164667737773"><ele>400.0</ele><time>2026-05-01T21:47:11Z</time></trkpt><trkpt lat="46.427597895864665" lon="13.316621627504235"><ele>395.0</ele><time>2026-05-01T21:47:12Z</time></trkpt><trkpt lat="46.4273458571759" lon="13.316790485508127"><ele>395.5</ele><time>2026-05-01T21:47:13Z</time></trkpt><trkpt lat="46.427099554455495" lon="13.316973705936235"><ele>396.0</ele><time>2026-05-01T21:47:14Z</time></trkpt><trkpt lat="46.42685425803334" lon="13.317151785684974"><ele>397.5</ele><time>2026-05-01T21:47:15Z</time></trkpt><trkpt lat="46.42661059976122" lon="13.317326140599212"><ele>399.0</ele><time>2026-05-01T21:47:16Z</time></trkpt><trkpt lat="46.426364176332015" lon="13.317488434534607"><ele>396.0</ele><time>2026-05-01T21:47:17Z</time></trkpt><trkpt lat="46.42611470466059" lon="13.317652844741131"><ele>393.0</ele><time>2026-05-01T21:47:18Z</time></trkpt><trkpt lat="46.42587155433923" lon="13.317830529342"><ele>393.0</ele><time>2026-05-01T21:47:19Z</time></trkpt><trkpt lat="46.425630690842496" lon="13.318000949761728"><ele>393.0</ele><time>2026-05-01T21:47:20Z</time></trkpt><trkpt lat="46.42539232929325" lon="13.318173039744245"><ele>393.0</ele><time>2026-05-01T21:47:21Z</time></trkpt><trkpt lat="46.425150854393685" lon="13.318333569012616"><ele>393.0</ele><time>2026-05-01T21:47:22Z</time></trkpt><trkpt lat="46.42492333359237" lon="13.318484257290036"><ele>393.0</ele><time>2026-05-01T21:47:23Z</time></trkpt><trkpt lat="46.42469872526377" lon="13.318643638197155"><ele>393.0</ele><time>2026-05-01T21:47:24Z</time></trkpt><trkpt lat="46.42447833355558" lon="13.318805948372455"><ele>393.5</ele><time>2026-05-01T21:47:25Z</time></trkpt><trkpt lat="46.42420488899207" lon="13.318923708110875"><ele>394.0</ele><time>2026-05-01T21:47:26Z</time></trkpt><trkpt lat="46.4239488187205" lon="13.31904652796974"><ele>392.0</ele><time>2026-05-01T21:47:27Z</time></trkpt><trkpt lat="46.4236903492953" lon="13.319153949342544"><ele>390.0</ele><time>2026-05-01T21:47:28Z</time></trkpt><trkpt lat="46.42342238616409" lon="13.319242984443054"><ele>390.0</ele><time>2026-05-01T21:47:29Z</time></trkpt><trkpt lat="46.42316298607781" lon="13.319331239047152"><ele>390.0</ele><time>2026-05-01T21:47:30Z</time></trkpt><trkpt lat="46.42290080019715" lon="13.319420157456532"><ele>388.5</ele><time>2026-05-01T21:47:31Z</time></trkpt><trkpt lat="46.4226427981748" lon="13.319484863993814"><ele>387.0</ele><time>2026-05-01T21:47:32Z</time></trkpt><trkpt lat="46.42238121516623" lon="13.31953219396522"><ele>387.5</ele><time>2026-05-01T21:47:33Z</time></trkpt><trkpt lat="46.42211842829367" lon="13.319580756325891"><ele>388.0</ele><time>2026-05-01T21:47:34Z</time></trkpt><trkpt lat="46.42185488860658" lon="13.319606964299236"><ele>388.0</ele><time>2026-05-01T21:47:35Z</time></trkpt><trkpt lat="46.42159155107669" lon="13.319615040238817"><ele>388.0</ele><time>2026-05-01T21:47:36Z</time></trkpt><trkpt lat="46.42132729808452" lon="13.319623673128056"><ele>389.0</ele><time>2026-05-01T21:47:37Z</time></trkpt><trkpt lat="46.4210644998926" lon="13.319632743836616"><ele>390.0</ele><time>2026-05-01T21:47:38Z</time></trkpt><trkpt lat="46.420802270659024" lon="13.319633109940728"><ele>390.0</ele><time>2026-05-01T21:47:39Z</time></trkpt><trkpt lat="46.42054769547785" lon="13.319623911052052"><ele>390.0</ele><time>2026-05-01T21:47:40Z</time></trkpt><trkpt lat="46.420312040918034" lon="13.319618014010786"><ele>389.5</ele><time>2026-05-01T21:47:41Z</time></trkpt><trkpt lat="46.420085732870554" lon="13.31960948458889"><ele>389.0</ele><time>2026-05-01T21:47:42Z</time></trkpt><trkpt lat="46.41985613851535" lon="13.31961290303647"><ele>401.0</ele><time>2026-05-01T21:47:43Z</time></trkpt><trkpt lat="46.41962141495429" lon="13.319605499698252"><ele>413.0</ele><time>2026-05-01T21:47:44Z</time></trkpt><trkpt lat="46.41937705771446" lon="13.319606659428048"><ele>413.0</ele><time>2026-05-01T21:47:45Z</time></trkpt><trkpt lat="46.41912865962809" lon="13.319617583194072"><ele>413.0</ele><time>2026-05-01T21:47:46Z</time></trkpt><trkpt lat="46.41888605385395" lon="13.319625628353261"><ele>420.0</ele><time>2026-05-01T21:47:47Z</time></trkpt><trkpt lat="46.41861636904943" lon="13.319591039535108"><ele>427.0</ele><time>2026-05-01T21:47:48Z</time></trkpt><trkpt lat="46.41837160505745" lon="13.319585232703865"><ele>427.0</ele><time>2026-05-01T21:47:49Z</time></trkpt><trkpt lat="46.418114773941845" lon="13.319589168584168"><ele>427.0</ele><time>2026-05-01T21:47:50Z</time></trkpt><trkpt lat="46.4178756022562" lon="13.319580935204517"><ele>451.0</ele><time>2026-05-01T21:47:51Z</time></trkpt><trkpt lat="46.41763110726682" lon="13.319578135553334"><ele>475.0</ele><time>2026-05-01T21:47:52Z</time></trkpt><trkpt lat="46.41738637802918" lon="13.319576953466514"><ele>496.5</ele><time>2026-05-01T21:47:53Z</time></trkpt><trkpt lat="46.41713973645793" lon="13.319575328760584"><ele>518.0</ele><time>2026-05-01T21:47:54Z</time></trkpt><trkpt lat="46.416857525321056" lon="13.319617644398809"><ele>518.0</ele><time>2026-05-01T21:47:55Z</time></trkpt><trkpt lat="46.4166012214355" lon="13.319621231373837"><ele>518.0</ele><time>2026-05-01T21:47:56Z</time></trkpt><trkpt lat="46.416343828607225" lon="13.31962811385636"><ele>536.5</ele><time>2026-05-01T21:47:57Z</time></trkpt><trkpt lat="46.41608619066589" lon="13.31963396258867"><ele>555.0</ele><time>2026-05-01T21:47:58Z</time></trkpt><trkpt lat="46.41582924647651" lon="13.319637877596588"><ele>555.0</ele><time>2026-05-01T21:47:59Z</time></trkpt><trkpt lat="46.415573473222096" lon="13.31964230436323"><ele>555.0</ele><time>2026-05-01T21:48:00Z</time></trkpt><trkpt lat="46.41532232350312" lon="13.319647362811246"><ele>561.0</ele><time>2026-05-01T21:48:01Z</time></trkpt><trkpt lat="46.415068943759906" lon="13.319650656110998"><ele>567.0</ele><time>2026-05-01T21:48:02Z</time></trkpt><trkpt lat="46.41481741423992" lon="13.319656219427925"><ele>578.0</ele><time>2026-05-01T21:48:03Z</time></trkpt><trkpt lat="46.41456680582277" lon="13.31966264528998"><ele>589.0</ele><time>2026-05-01T21:48:04Z</time></trkpt><trkpt lat="46.4143169866752" lon="13.319670001016842"><ele>589.0</ele><time>2026-05-01T21:48:05Z</time></trkpt><trkpt lat="46.414066686332525" lon="13.31967944519253"><ele>589.0</ele><time>2026-05-01T21:48:06Z</time></trkpt><trkpt lat="46.41381744367178" lon="13.319690799539854"><ele>603.0</ele><time>2026-05-01T21:48:07Z</time></trkpt><trkpt lat="46.41356832307043" lon="13.319700528393124"><ele>617.0</ele><time>2026-05-01T21:48:08Z</time></trkpt><trkpt lat="46.41331879283097" lon="13.319708158220113"><ele>617.0</ele><time>2026-05-01T21:48:09Z</time></trkpt><trkpt lat="46.41306933185445" lon="13.319715568501381"><ele>617.0</ele><time>2026-05-01T21:48:10Z</time></trkpt><trkpt lat="46.41281953402106" lon="13.319719459580421"><ele>614.5</ele><time>2026-05-01T21:48:11Z</time></trkpt><trkpt lat="46.41256587129851" lon="13.31972199544645"><ele>612.0</ele><time>2026-05-01T21:48:12Z</time></trkpt><trkpt lat="46.41231062827615" lon="13.319717599596006"><ele>616.5</ele><time>2026-05-01T21:48:13Z</time></trkpt><trkpt lat="46.4120620948138" lon="13.31970263017798"><ele>621.0</ele><time>2026-05-01T21:48:14Z</time></trkpt><trkpt lat="46.4118207374388" lon="13.31967604643126"><ele>621.0</ele><time>2026-05-01T21:48:15Z</time></trkpt><trkpt lat="46.41158755945858" lon="13.319637063133298"><ele>621.0</ele><time>2026-05-01T21:48:16Z</time></trkpt><trkpt lat="46.4113588726441" lon="13.319585536675168"><ele>623.5</ele><time>2026-05-01T21:48:17Z</time></trkpt><trkpt lat="46.411133920264945" lon="13.319519094855824"><ele>626.0</ele><time>2026-05-01T21:48:18Z</time></trkpt><trkpt lat="46.4109125592105" lon="13.31943854044846"><ele>626.0</ele><time>2026-05-01T21:48:19Z</time></trkpt><trkpt lat="46.41068444954394" lon="13.319344841682705"><ele>626.0</ele><time>2026-05-01T21:48:20Z</time></trkpt><trkpt lat="46.4104447077506" lon="13.319237222160895"><ele>616.0</ele><time>2026-05-01T21:48:21Z</time></trkpt><trkpt lat="46.41019929696555" lon="13.319117297014094"><ele>606.0</ele><time>2026-05-01T21:48:22Z</time></trkpt><trkpt lat="46.40995461237529" lon="13.31898772819315"><ele>580.0</ele><time>2026-05-01T21:48:23Z</time></trkpt><trkpt lat="46.40971586685562" lon="13.318844893800124"><ele>554.0</ele><time>2026-05-01T21:48:24Z</time></trkpt><trkpt lat="46.40948181682254" lon="13.318690183985359"><ele>554.0</ele><time>2026-05-01T21:48:25Z</time></trkpt><trkpt lat="46.409250306668746" lon="13.318526802549558"><ele>554.0</ele><time>2026-05-01T21:48:26Z</time></trkpt><trkpt lat="46.40902955503828" lon="13.318348612202179"><ele>549.5</ele><time>2026-05-01T21:48:27Z</time></trkpt><trkpt lat="46.408807615289504" lon="13.318156777847145"><ele>545.0</ele><time>2026-05-01T21:48:28.001Z</time></trkpt><trkpt lat="46.408595693577034" lon="13.3179515301201"><ele>521.0</ele><time>2026-05-01T21:48:29.001Z</time></trkpt><trkpt lat="46.40838978629649" lon="13.3177339999894"><ele>497.0</ele><time>2026-05-01T21:48:30.001Z</time></trkpt><trkpt lat="46.4081971306726" lon="13.317508018089008"><ele>497.0</ele><time>2026-05-01T21:48:31.001Z</time></trkpt><trkpt lat="46.408000163451334" lon="13.317271964856275"><ele>497.0</ele><time>2026-05-01T21:48:32.001Z</time></trkpt><trkpt lat="46.407805705171434" lon="13.31702611852277"><ele>460.5</ele><time>2026-05-01T21:48:33.001Z</time></trkpt><trkpt lat="46.40761479647963" lon="13.316770613166998"><ele>424.0</ele><time>2026-05-01T21:48:34.001Z</time></trkpt><trkpt lat="46.40743603435038" lon="13.316507500321169"><ele>407.5</ele><time>2026-05-01T21:48:35.001Z</time></trkpt><trkpt lat="46.40726891986098" lon="13.316236930877494"><ele>391.0</ele><time>2026-05-01T21:48:36.001Z</time></trkpt><trkpt lat="46.40711081481636" lon="13.31596037340965"><ele>383.5</ele><time>2026-05-01T21:48:37.001Z</time></trkpt><trkpt lat="46.4068745328658" lon="13.315479146494942"><ele>376.0</ele><time>2026-05-01T21:48:38.001Z</time></trkpt><trkpt lat="46.40679979292392" lon="13.315483456670703"><ele>376.0</ele><time>2026-05-01T21:48:39.001Z</time></trkpt><trkpt lat="46.40670378565139" lon="13.315174509623871"><ele>376.0</ele><time>2026-05-01T21:48:40.001Z</time></trkpt><trkpt lat="46.40658657074509" lon="13.314775748125403"><ele>377.5</ele><time>2026-05-01T21:48:41.001Z</time></trkpt><trkpt lat="46.406460715174184" lon="13.314378738284852"><ele>379.0</ele><time>2026-05-01T21:48:42.001Z</time></trkpt><trkpt lat="46.4063764595875" lon="13.314019815146327"><ele>376.0</ele><time>2026-05-01T21:48:43.001Z</time></trkpt><trkpt lat="46.40627818060858" lon="13.313681157675914"><ele>373.0</ele><time>2026-05-01T21:48:44.001Z</time></trkpt><trkpt lat="46.40617996519591" lon="13.313350524357936"><ele>373.0</ele><time>2026-05-01T21:48:45.001Z</time></trkpt><trkpt lat="46.406088530130475" lon="13.313015593734836"><ele>373.0</ele><time>2026-05-01T21:48:46.001Z</time></trkpt><trkpt lat="46.40600982578292" lon="13.31266794117279"><ele>373.0</ele><time>2026-05-01T21:48:47.001Z</time></trkpt><trkpt lat="46.40593496196518" lon="13.312329862613412"><ele>373.0</ele><time>2026-05-01T21:48:48.001Z</time></trkpt><trkpt lat="46.40586616273925" lon="13.31197784928219"><ele>372.5</ele><time>2026-05-01T21:48:49.001Z</time></trkpt><trkpt lat="46.40579770181698" lon="13.311636726314555"><ele>372.0</ele><time>2026-05-01T21:48:50.001Z</time></trkpt><trkpt lat="46.40572563918954" lon="13.311294123295195"><ele>370.0</ele><time>2026-05-01T21:48:51.001Z</time></trkpt><trkpt lat="46.40565987218668" lon="13.310954720261094"><ele>368.0</ele><time>2026-05-01T21:48:52.001Z</time></trkpt><trkpt lat="46.405590596384776" lon="13.310609366956426"><ele>368.0</ele><time>2026-05-01T21:48:53.001Z</time></trkpt><trkpt lat="46.40552238565632" lon="13.310265581103552"><ele>368.0</ele><time>2026-05-01T21:48:54.001Z</time></trkpt><trkpt lat="46.40545136811634" lon="13.309912301905163"><ele>368.0</ele><time>2026-05-01T21:48:55.001Z</time></trkpt><trkpt lat="46.40537912167245" lon="13.309564975669705"><ele>368.0</ele><time>2026-05-01T21:48:56.001Z</time></trkpt><trkpt lat="46.40530246683281" lon="13.309213362328112"><ele>368.0</ele><time>2026-05-01T21:48:57.001Z</time></trkpt><trkpt lat="46.405226051002366" lon="13.308863693586561"><ele>368.0</ele><time>2026-05-01T21:48:58.001Z</time></trkpt><trkpt lat="46.4051483382391" lon="13.308508300389548"><ele>368.0</ele><time>2026-05-01T21:48:59.001Z</time></trkpt><trkpt lat="46.40507156427348" lon="13.308153903082596"><ele>368.0</ele><time>2026-05-01T21:49:00.001Z</time></trkpt><trkpt lat="46.40499976318884" lon="13.307801483690694"><ele>368.5</ele><time>2026-05-01T21:49:01.001Z</time></trkpt><trkpt lat="46.40493050909217" lon="13.307445214755761"><ele>369.0</ele><time>2026-05-01T21:49:02.001Z</time></trkpt><trkpt lat="46.40486322475921" lon="13.307098612028092"><ele>369.5</ele><time>2026-05-01T21:49:03.001Z</time></trkpt><trkpt lat="46.404797258977986" lon="13.306747239576145"><ele>370.0</ele><time>2026-05-01T21:49:04.001Z</time></trkpt><trkpt lat="46.40473477707361" lon="13.306392275810047"><ele>370.0</ele><time>2026-05-01T21:49:05.001Z</time></trkpt><trkpt lat="46.40467380691663" lon="13.306038096743446"><ele>370.0</ele><time>2026-05-01T21:49:06.001Z</time></trkpt><trkpt lat="46.40461352165536" lon="13.305678962528333"><ele>367.5</ele><time>2026-05-01T21:49:07.001Z</time></trkpt><trkpt lat="46.40454673806317" lon="13.305330751229945"><ele>365.0</ele><time>2026-05-01T21:49:08.001Z</time></trkpt><trkpt lat="46.40447595161089" lon="13.30497349377563"><ele>366.5</ele><time>2026-05-01T21:49:09.001Z</time></trkpt><trkpt lat="46.4044053174735" lon="13.304620476532047"><ele>368.0</ele><time>2026-05-01T21:49:10.001Z</time></trkpt><trkpt lat="46.40433597384555" lon="13.304270842652324"><ele>368.0</ele><time>2026-05-01T21:49:11.001Z</time></trkpt><trkpt lat="46.40426768038773" lon="13.303918935667928"><ele>368.0</ele><time>2026-05-01T21:49:12.001Z</time></trkpt><trkpt lat="46.40419757801674" lon="13.303567618565824"><ele>368.5</ele><time>2026-05-01T21:49:13.001Z</time></trkpt><trkpt lat="46.40412915025631" lon="13.303220581086117"><ele>369.0</ele><time>2026-05-01T21:49:14.001Z</time></trkpt><trkpt lat="46.40405840071325" lon="13.302870772439725"><ele>369.0</ele><time>2026-05-01T21:49:15.001Z</time></trkpt><trkpt lat="46.40398995718517" lon="13.30252273132881"><ele>369.0</ele><time>2026-05-01T21:49:16Z</time></trkpt><trkpt lat="46.40392219278236" lon="13.302177127324303"><ele>368.0</ele><time>2026-05-01T21:49:17Z</time></trkpt><trkpt lat="46.40385543244307" lon="13.301828763100465"><ele>367.0</ele><time>2026-05-01T21:49:18Z</time></trkpt><trkpt lat="46.40378784591605" lon="13.301480931757883"><ele>364.0</ele><time>2026-05-01T21:49:19Z</time></trkpt><trkpt lat="46.403721799882106" lon="13.301131994742654"><ele>361.0</ele><time>2026-05-01T21:49:20Z</time></trkpt><trkpt lat="46.4036548433472" lon="13.30078513482633"><ele>361.0</ele><time>2026-05-01T21:49:21Z</time></trkpt><trkpt lat="46.40358660221505" lon="13.300442137071157"><ele>361.0</ele><time>2026-05-01T21:49:22Z</time></trkpt><trkpt lat="46.4035170777704" lon="13.300094118841905"><ele>361.0</ele><time>2026-05-01T21:49:23Z</time></trkpt><trkpt lat="46.40344787901222" lon="13.299745620155411"><ele>361.0</ele><time>2026-05-01T21:49:24Z</time></trkpt><trkpt lat="46.403377104847" lon="13.299399134605451"><ele>361.0</ele><time>2026-05-01T21:49:25Z</time></trkpt><trkpt lat="46.40330675936211" lon="13.299053037390388"><ele>361.0</ele><time>2026-05-01T21:49:26Z</time></trkpt><trkpt lat="46.40323663700661" lon="13.298703419127458"><ele>361.0</ele><time>2026-05-01T21:49:27Z</time></trkpt><trkpt lat="46.40316983933847" lon="13.2983552397775"><ele>361.0</ele><time>2026-05-01T21:49:28Z</time></trkpt><trkpt lat="46.40310254762569" lon="13.298011265391553"><ele>361.0</ele><time>2026-05-01T21:49:29Z</time></trkpt><trkpt lat="46.4030346988433" lon="13.297662868024435"><ele>361.0</ele><time>2026-05-01T21:49:30Z</time></trkpt><trkpt lat="46.402967469101156" lon="13.297318783402217"><ele>360.5</ele><time>2026-05-01T21:49:31Z</time></trkpt><trkpt lat="46.40289853995066" lon="13.296972905041844"><ele>360.0</ele><time>2026-05-01T21:49:32Z</time></trkpt><trkpt lat="46.40282930598575" lon="13.296627935732236"><ele>361.0</ele><time>2026-05-01T21:49:33Z</time></trkpt><trkpt lat="46.40276147096355" lon="13.296289057744403"><ele>362.0</ele><time>2026-05-01T21:49:34Z</time></trkpt><trkpt lat="46.402693424673025" lon="13.295940750136909"><ele>362.0</ele><time>2026-05-01T21:49:35Z</time></trkpt><trkpt lat="46.40262785500648" lon="13.295614321976139"><ele>362.0</ele><time>2026-05-01T21:49:36Z</time></trkpt><trkpt lat="46.40256146703212" lon="13.295281639056116"><ele>362.0</ele><time>2026-05-01T21:49:37Z</time></trkpt><trkpt lat="46.40249347102723" lon="13.294931376332094"><ele>362.0</ele><time>2026-05-01T21:49:38Z</time></trkpt><trkpt lat="46.40242331615595" lon="13.294575441861243"><ele>361.5</ele><time>2026-05-01T21:49:39Z</time></trkpt><trkpt lat="46.4023521285733" lon="13.294219744147199"><ele>361.0</ele><time>2026-05-01T21:49:40Z</time></trkpt><trkpt lat="46.40228062448229" lon="13.293864096600414"><ele>361.0</ele><time>2026-05-01T21:49:41Z</time></trkpt><trkpt lat="46.40221170787837" lon="13.293507702775548"><ele>361.0</ele><time>2026-05-01T21:49:42Z</time></trkpt><trkpt lat="46.40213955193792" lon="13.293146552024812"><ele>359.5</ele><time>2026-05-01T21:49:43Z</time></trkpt><trkpt lat="46.402069832609506" lon="13.292792074853914"><ele>358.0</ele><time>2026-05-01T21:49:44Z</time></trkpt><trkpt lat="46.402001206646084" lon="13.292433149384287"><ele>358.5</ele><time>2026-05-01T21:49:45Z</time></trkpt><trkpt lat="46.40193543937543" lon="13.292072933131388"><ele>359.0</ele><time>2026-05-01T21:49:46Z</time></trkpt><trkpt lat="46.40187111893217" lon="13.29171166508556"><ele>357.0</ele><time>2026-05-01T21:49:47Z</time></trkpt><trkpt lat="46.40180995895329" lon="13.291348400571907"><ele>355.0</ele><time>2026-05-01T21:49:48Z</time></trkpt><trkpt lat="46.40175266053846" lon="13.290984079296994"><ele>355.0</ele><time>2026-05-01T21:49:49Z</time></trkpt><trkpt lat="46.40170065620358" lon="13.290618130417398"><ele>355.0</ele><time>2026-05-01T21:49:50Z</time></trkpt><trkpt lat="46.40165175780826" lon="13.290252763003984"><ele>357.5</ele><time>2026-05-01T21:49:51Z</time></trkpt><trkpt lat="46.401608584703624" lon="13.289889713546309"><ele>360.0</ele><time>2026-05-01T21:49:52Z</time></trkpt><trkpt lat="46.40156926449554" lon="13.289523596765427"><ele>360.5</ele><time>2026-05-01T21:49:53Z</time></trkpt><trkpt lat="46.4015342747974" lon="13.289159927523752"><ele>361.0</ele><time>2026-05-01T21:49:54Z</time></trkpt><trkpt lat="46.40150190928847" lon="13.288793680566972"><ele>361.5</ele><time>2026-05-01T21:49:55Z</time></trkpt><trkpt lat="46.401473162484095" lon="13.288427740379422"><ele>362.0</ele><time>2026-05-01T21:49:56Z</time></trkpt><trkpt lat="46.401449369366" lon="13.288065922243698"><ele>364.0</ele><time>2026-05-01T21:49:57Z</time></trkpt><trkpt lat="46.40142916865239" lon="13.28770121904243"><ele>366.0</ele><time>2026-05-01T21:49:58Z</time></trkpt><trkpt lat="46.40141217670127" lon="13.287337793141544"><ele>373.0</ele><time>2026-05-01T21:49:59Z</time></trkpt><trkpt lat="46.40139845418124" lon="13.286974401780192"><ele>380.0</ele><time>2026-05-01T21:50:00Z</time></trkpt><trkpt lat="46.40139008876541" lon="13.286610365912487"><ele>385.5</ele><time>2026-05-01T21:50:01Z</time></trkpt><trkpt lat="46.401385371188965" lon="13.286250642047065"><ele>391.0</ele><time>2026-05-01T21:50:02Z</time></trkpt><trkpt lat="46.40138393761599" lon="13.285896722452843"><ele>398.0</ele><time>2026-05-01T21:50:03Z</time></trkpt><trkpt lat="46.40138303247738" lon="13.285543466692896"><ele>405.0</ele><time>2026-05-01T21:50:04Z</time></trkpt><trkpt lat="46.40138218514066" lon="13.28519392390798"><ele>405.0</ele><time>2026-05-01T21:50:05Z</time></trkpt><trkpt lat="46.40138224880413" lon="13.28483194578328"><ele>405.0</ele><time>2026-05-01T21:50:06Z</time></trkpt><trkpt lat="46.40138014382696" lon="13.284469163094407"><ele>415.0</ele><time>2026-05-01T21:50:07Z</time></trkpt><trkpt lat="46.40137656274086" lon="13.284100720713965"><ele>425.0</ele><time>2026-05-01T21:50:08Z</time></trkpt><trkpt lat="46.401371633918394" lon="13.283730576273904"><ele>443.0</ele><time>2026-05-01T21:50:09Z</time></trkpt><trkpt lat="46.40136582286881" lon="13.283354633032875"><ele>461.0</ele><time>2026-05-01T21:50:10Z</time></trkpt><trkpt lat="46.401358112923475" lon="13.282971551933963"><ele>474.5</ele><time>2026-05-01T21:50:11Z</time></trkpt><trkpt lat="46.40134312809939" lon="13.28258866688688"><ele>488.0</ele><time>2026-05-01T21:50:12Z</time></trkpt><trkpt lat="46.40132193650248" lon="13.282206992234459"><ele>488.0</ele><time>2026-05-01T21:50:13Z</time></trkpt><trkpt lat="46.40129453468703" lon="13.281817450837034"><ele>488.0</ele><time>2026-05-01T21:50:14Z</time></trkpt><trkpt lat="46.40126324376143" lon="13.28142498216744"><ele>488.0</ele><time>2026-05-01T21:50:15Z</time></trkpt><trkpt lat="46.40118156152572" lon="13.281269601629857"><ele>488.0</ele><time>2026-05-01T21:50:16Z</time></trkpt><trkpt lat="46.40112660011291" lon="13.280913685496737"><ele>488.0</ele><time>2026-05-01T21:50:17Z</time></trkpt><trkpt lat="46.401064205637496" lon="13.280561527712925"><ele>488.0</ele><time>2026-05-01T21:50:18Z</time></trkpt><trkpt lat="46.400998136362084" lon="13.280211517048151"><ele>488.0</ele><time>2026-05-01T21:50:19Z</time></trkpt><trkpt lat="46.40092419405907" lon="13.27986893155777"><ele>488.0</ele><time>2026-05-01T21:50:20Z</time></trkpt><trkpt lat="46.4008445717739" lon="13.27953248634516"><ele>488.0</ele><time>2026-05-01T21:50:21Z</time></trkpt><trkpt lat="46.400759629159865" lon="13.27919473727931"><ele>620.5</ele><time>2026-05-01T21:50:22Z</time></trkpt><trkpt lat="46.40066823978535" lon="13.278863745297423"><ele>753.0</ele><time>2026-05-01T21:50:23Z</time></trkpt><trkpt lat="46.40057793024335" lon="13.278529793678828"><ele>753.0</ele><time>2026-05-01T21:50:24Z</time></trkpt><trkpt lat="46.400491410818915" lon="13.278192997317666"><ele>753.0</ele><time>2026-05-01T21:50:25Z</time></trkpt><trkpt lat="46.40040363007006" lon="13.27785618265638"><ele>745.5</ele><time>2026-05-01T21:50:26Z</time></trkpt><trkpt lat="46.40031553891971" lon="13.277520744433218"><ele>738.0</ele><time>2026-05-01T21:50:27Z</time></trkpt><trkpt lat="46.40022815845602" lon="13.277185726814777"><ele>738.0</ele><time>2026-05-01T21:50:28Z</time></trkpt><trkpt lat="46.40013813600087" lon="13.276852923296504"><ele>738.0</ele><time>2026-05-01T21:50:29Z</time></trkpt><trkpt lat="46.400045728320514" lon="13.276519170317602"><ele>733.0</ele><time>2026-05-01T21:50:30Z</time></trkpt><trkpt lat="46.399951861801846" lon="13.276185388638465"><ele>728.0</ele><time>2026-05-01T21:50:31Z</time></trkpt><trkpt lat="46.399859827672245" lon="13.275843730609846"><ele>720.5</ele><time>2026-05-01T21:50:32Z</time></trkpt><trkpt lat="46.39976984939772" lon="13.275498861101369"><ele>713.0</ele><time>2026-05-01T21:50:33Z</time></trkpt><trkpt lat="46.39967817366044" lon="13.275154123200046"><ele>722.0</ele><time>2026-05-01T21:50:34Z</time></trkpt><trkpt lat="46.399586044189455" lon="13.274812438427785"><ele>731.0</ele><time>2026-05-01T21:50:35Z</time></trkpt><trkpt lat="46.399492406341025" lon="13.27447264382466"><ele>731.0</ele><time>2026-05-01T21:50:36Z</time></trkpt><trkpt lat="46.3993994978511" lon="13.27413986651176"><ele>731.0</ele><time>2026-05-01T21:50:37Z</time></trkpt><trkpt lat="46.399305907294405" lon="13.273804736304449"><ele>731.0</ele><time>2026-05-01T21:50:38Z</time></trkpt><trkpt lat="46.39921355568655" lon="13.27346868669566"><ele>731.0</ele><time>2026-05-01T21:50:39Z</time></trkpt><trkpt lat="46.399121744812994" lon="13.273128945865029"><ele>731.0</ele><time>2026-05-01T21:50:40Z</time></trkpt><trkpt lat="46.39904198456752" lon="13.272814173353693"><ele>731.0</ele><time>2026-05-01T21:50:41Z</time></trkpt><trkpt lat="46.39895432344089" lon="13.272480812364051"><ele>344.0</ele><time>2026-05-01T21:50:42.009Z</time></trkpt><trkpt lat="46.39715301673132" lon="13.266289722169686"><ele>344.0</ele><time>2026-05-01T21:51:00.001Z</time></trkpt><trkpt lat="46.39703660321949" lon="13.265975051141929"><ele>344.0</ele><time>2026-05-01T21:51:01.001Z</time></trkpt><trkpt lat="46.39691983694741" lon="13.265667870106498"><ele>342.0</ele><time>2026-05-01T21:51:02.001Z</time></trkpt><trkpt lat="46.39680354825748" lon="13.265362413812031"><ele>340.0</ele><time>2026-05-01T21:51:03.001Z</time></trkpt><trkpt lat="46.39667941649855" lon="13.265044531477459"><ele>340.0</ele><time>2026-05-01T21:51:04.001Z</time></trkpt><trkpt lat="46.39655250970669" lon="13.264724464803551"><ele>340.0</ele><time>2026-05-01T21:51:05.001Z</time></trkpt><trkpt lat="46.39643245731154" lon="13.264403628886807"><ele>345.0</ele><time>2026-05-01T21:51:06.001Z</time></trkpt><trkpt lat="46.39631086116971" lon="13.264083339796317"><ele>350.0</ele><time>2026-05-01T21:51:07.001Z</time></trkpt><trkpt lat="46.39618639045908" lon="13.263764577047334"><ele>350.0</ele><time>2026-05-01T21:51:08.001Z</time></trkpt><trkpt lat="46.396064219751615" lon="13.263448270494866"><ele>350.0</ele><time>2026-05-01T21:51:09.001Z</time></trkpt><trkpt lat="46.3959424781623" lon="13.26313570525964"><ele>347.0</ele><time>2026-05-01T21:51:10.001Z</time></trkpt><trkpt lat="46.395819592451545" lon="13.262825458448376"><ele>344.0</ele><time>2026-05-01T21:51:11.001Z</time></trkpt><trkpt lat="46.39569600704024" lon="13.262517552449259"><ele>341.5</ele><time>2026-05-01T21:51:12.001Z</time></trkpt><trkpt lat="46.39557404134202" lon="13.262209340394163"><ele>339.0</ele><time>2026-05-01T21:51:13.001Z</time></trkpt><trkpt lat="46.39545420714588" lon="13.261903670776308"><ele>340.5</ele><time>2026-05-01T21:51:14.001Z</time></trkpt><trkpt lat="46.395333230292096" lon="13.261595816061531"><ele>342.0</ele><time>2026-05-01T21:51:15.001Z</time></trkpt><trkpt lat="46.39521229406092" lon="13.261285998545327"><ele>342.0</ele><time>2026-05-01T21:51:16.001Z</time></trkpt><trkpt lat="46.39508984198494" lon="13.260973825574593"><ele>342.0</ele><time>2026-05-01T21:51:17.001Z</time></trkpt><trkpt lat="46.394965119985805" lon="13.260664451213591"><ele>338.0</ele><time>2026-05-01T21:51:18.001Z</time></trkpt><trkpt lat="46.39484067761461" lon="13.260352727839269"><ele>334.0</ele><time>2026-05-01T21:51:19.001Z</time></trkpt><trkpt lat="46.39471707276738" lon="13.260038856520547"><ele>337.5</ele><time>2026-05-01T21:51:20.001Z</time></trkpt><trkpt lat="46.39460107138549" lon="13.259719438885295"><ele>341.0</ele><time>2026-05-01T21:51:21.001Z</time></trkpt><trkpt lat="46.394495700601546" lon="13.259387469358284"><ele>341.0</ele><time>2026-05-01T21:51:22Z</time></trkpt><trkpt lat="46.3944021391077" lon="13.259049523525963"><ele>341.0</ele><time>2026-05-01T21:51:23Z</time></trkpt><trkpt lat="46.39432497617662" lon="13.258706731558929"><ele>341.5</ele><time>2026-05-01T21:51:24Z</time></trkpt><trkpt lat="46.39426121548348" lon="13.258356040839052"><ele>342.0</ele><time>2026-05-01T21:51:25Z</time></trkpt><trkpt lat="46.39421460815213" lon="13.257999971079405"><ele>342.0</ele><time>2026-05-01T21:51:26Z</time></trkpt><trkpt lat="46.3941806164894" lon="13.257637338484637"><ele>342.0</ele><time>2026-05-01T21:51:27Z</time></trkpt><trkpt lat="46.39416171984369" lon="13.25727358072986"><ele>339.0</ele><time>2026-05-01T21:51:28Z</time></trkpt><trkpt lat="46.394160866365425" lon="13.25690975990186"><ele>336.0</ele><time>2026-05-01T21:51:29Z</time></trkpt><trkpt lat="46.39417634974588" lon="13.256545557390094"><ele>336.0</ele><time>2026-05-01T21:51:30Z</time></trkpt><trkpt lat="46.394209351671655" lon="13.256183280457428"><ele>336.0</ele><time>2026-05-01T21:51:31Z</time></trkpt><trkpt lat="46.39425710288444" lon="13.25582125120016"><ele>338.0</ele><time>2026-05-01T21:51:32Z</time></trkpt><trkpt lat="46.394314189503525" lon="13.255460344210778"><ele>340.0</ele><time>2026-05-01T21:51:33Z</time></trkpt><trkpt lat="46.39437972807186" lon="13.255099703925701"><ele>345.5</ele><time>2026-05-01T21:51:34Z</time></trkpt><trkpt lat="46.394446773300295" lon="13.254744994798344"><ele>351.0</ele><time>2026-05-01T21:51:35Z</time></trkpt><trkpt lat="46.39451446972531" lon="13.254390000499113"><ele>351.0</ele><time>2026-05-01T21:51:36Z</time></trkpt><trkpt lat="46.39457971384795" lon="13.254036648361405"><ele>351.0</ele><time>2026-05-01T21:51:37Z</time></trkpt><trkpt lat="46.394639483463955" lon="13.253685506499911"><ele>343.5</ele><time>2026-05-01T21:51:38Z</time></trkpt><trkpt lat="46.39469056645661" lon="13.253332110903939"><ele>336.0</ele><time>2026-05-01T21:51:39Z</time></trkpt><trkpt lat="46.39473350208214" lon="13.252976957544261"><ele>334.0</ele><time>2026-05-01T21:51:40Z</time></trkpt><trkpt lat="46.394768071507855" lon="13.252620611135919"><ele>332.0</ele><time>2026-05-01T21:51:41Z</time></trkpt><trkpt lat="46.39479241817706" lon="13.252260705269904"><ele>332.0</ele><time>2026-05-01T21:51:42Z</time></trkpt><trkpt lat="46.394810804690465" lon="13.251898514769133"><ele>332.0</ele><time>2026-05-01T21:51:43Z</time></trkpt><trkpt lat="46.39481918170106" lon="13.251529808472315"><ele>333.0</ele><time>2026-05-01T21:51:44Z</time></trkpt><trkpt lat="46.39482158590459" lon="13.251164008094984"><ele>334.0</ele><time>2026-05-01T21:51:45Z</time></trkpt><trkpt lat="46.3948221452739" lon="13.250797206086313"><ele>333.5</ele><time>2026-05-01T21:51:46Z</time></trkpt><trkpt lat="46.394825063530014" lon="13.250425634150446"><ele>333.0</ele><time>2026-05-01T21:51:47Z</time></trkpt><trkpt lat="46.394828300967575" lon="13.250056359044518"><ele>333.0</ele><time>2026-05-01T21:51:48Z</time></trkpt><trkpt lat="46.39483095870774" lon="13.249685236356234"><ele>333.0</ele><time>2026-05-01T21:51:49Z</time></trkpt><trkpt lat="46.394832056536245" lon="13.249309660971191"><ele>332.5</ele><time>2026-05-01T21:51:50Z</time></trkpt><trkpt lat="46.39483174331699" lon="13.248938265620538"><ele>332.0</ele><time>2026-05-01T21:51:51Z</time></trkpt><trkpt lat="46.39483092755951" lon="13.248564810132029"><ele>332.0</ele><time>2026-05-01T21:51:52Z</time></trkpt><trkpt lat="46.39483177027825" lon="13.248196888346254"><ele>332.0</ele><time>2026-05-01T21:51:53Z</time></trkpt><trkpt lat="46.39483340365822" lon="13.24783884049456"><ele>331.5</ele><time>2026-05-01T21:51:54Z</time></trkpt><trkpt lat="46.39483448657128" lon="13.247488938464171"><ele>331.0</ele><time>2026-05-01T21:51:55Z</time></trkpt><trkpt lat="46.3948331357752" lon="13.247130770942363"><ele>331.0</ele><time>2026-05-01T21:51:56Z</time></trkpt><trkpt lat="46.394826203347016" lon="13.246765756451824"><ele>331.0</ele><time>2026-05-01T21:51:57Z</time></trkpt><trkpt lat="46.39480975957233" lon="13.2463977832865"><ele>329.5</ele><time>2026-05-01T21:51:58Z</time></trkpt><trkpt lat="46.39478128503425" lon="13.246024768543649"><ele>328.0</ele><time>2026-05-01T21:51:59Z</time></trkpt><trkpt lat="46.3947430986138" lon="13.24565469794798"><ele>328.0</ele><time>2026-05-01T21:52:00Z</time></trkpt><trkpt lat="46.394695149015" lon="13.24528338045841"><ele>328.0</ele><time>2026-05-01T21:52:01Z</time></trkpt><trkpt lat="46.394639588992334" lon="13.244911474931811"><ele>332.0</ele><time>2026-05-01T21:52:02Z</time></trkpt><trkpt lat="46.394572416925364" lon="13.244541459294275"><ele>336.0</ele><time>2026-05-01T21:52:03Z</time></trkpt><trkpt lat="46.39449658529216" lon="13.244173652499047"><ele>334.0</ele><time>2026-05-01T21:52:04Z</time></trkpt><trkpt lat="46.3944093431259" lon="13.243811936304837"><ele>332.0</ele><time>2026-05-01T21:52:05Z</time></trkpt><trkpt lat="46.39430990775438" lon="13.243454900536753"><ele>331.0</ele><time>2026-05-01T21:52:06Z</time></trkpt><trkpt lat="46.39420099157287" lon="13.24310604113486"><ele>330.0</ele><time>2026-05-01T21:52:07Z</time></trkpt><trkpt lat="46.394088562316654" lon="13.242759122025793"><ele>330.0</ele><time>2026-05-01T21:52:08Z</time></trkpt><trkpt lat="46.393975848818194" lon="13.242409793291147"><ele>330.0</ele><time>2026-05-01T21:52:09Z</time></trkpt><trkpt lat="46.393863489556296" lon="13.242064538631068"><ele>330.5</ele><time>2026-05-01T21:52:10Z</time></trkpt><trkpt lat="46.39375206672071" lon="13.241717676405798"><ele>331.0</ele><time>2026-05-01T21:52:11Z</time></trkpt><trkpt lat="46.39364388598791" lon="13.24137364473443"><ele>329.0</ele><time>2026-05-01T21:52:12Z</time></trkpt><trkpt lat="46.3935371453385" lon="13.241024011789447"><ele>327.0</ele><time>2026-05-01T21:52:13Z</time></trkpt><trkpt lat="46.39343459423426" lon="13.240675721491918"><ele>326.0</ele><time>2026-05-01T21:52:14Z</time></trkpt><trkpt lat="46.39333886129544" lon="13.240319794760596"><ele>325.0</ele><time>2026-05-01T21:52:15Z</time></trkpt><trkpt lat="46.39325439241935" lon="13.239959233990978"><ele>325.0</ele><time>2026-05-01T21:52:16Z</time></trkpt><trkpt lat="46.39318437031097" lon="13.23959211843813"><ele>325.0</ele><time>2026-05-01T21:52:17Z</time></trkpt><trkpt lat="46.39312888522241" lon="13.239218261819532"><ele>323.0</ele><time>2026-05-01T21:52:18Z</time></trkpt><trkpt lat="46.393086303265775" lon="13.23884342916291"><ele>321.0</ele><time>2026-05-01T21:52:19Z</time></trkpt><trkpt lat="46.39305585950683" lon="13.238462053189373"><ele>320.0</ele><time>2026-05-01T21:52:20Z</time></trkpt><trkpt lat="46.39303743886234" lon="13.238080403051518"><ele>319.0</ele><time>2026-05-01T21:52:21Z</time></trkpt><trkpt lat="46.393032787389075" lon="13.237699236951297"><ele>319.0</ele><time>2026-05-01T21:52:22Z</time></trkpt><trkpt lat="46.393040515457486" lon="13.237318129165693"><ele>319.0</ele><time>2026-05-01T21:52:23Z</time></trkpt><trkpt lat="46.39306218320881" lon="13.236936475662816"><ele>319.0</ele><time>2026-05-01T21:52:24Z</time></trkpt><trkpt lat="46.39309300480269" lon="13.23655857264199"><ele>319.0</ele><time>2026-05-01T21:52:25Z</time></trkpt><trkpt lat="46.39313339486944" lon="13.236176790641922"><ele>319.0</ele><time>2026-05-01T21:52:26Z</time></trkpt><trkpt lat="46.393175926257676" lon="13.235795444551215"><ele>319.0</ele><time>2026-05-01T21:52:27Z</time></trkpt><trkpt lat="46.39321977797146" lon="13.235417246801994"><ele>320.0</ele><time>2026-05-01T21:52:28Z</time></trkpt><trkpt lat="46.393263496421234" lon="13.235041304065183"><ele>321.0</ele><time>2026-05-01T21:52:29Z</time></trkpt><trkpt lat="46.39330918340102" lon="13.234671446704073"><ele>323.5</ele><time>2026-05-01T21:52:30Z</time></trkpt><trkpt lat="46.39335676730306" lon="13.234302993666292"><ele>326.0</ele><time>2026-05-01T21:52:31Z</time></trkpt><trkpt lat="46.39340375244121" lon="13.233939731678088"><ele>326.0</ele><time>2026-05-01T21:52:32Z</time></trkpt><trkpt lat="46.39344874674338" lon="13.233577443765153"><ele>326.0</ele><time>2026-05-01T21:52:33Z</time></trkpt><trkpt lat="46.39349179193441" lon="13.233213949606617"><ele>326.0</ele><time>2026-05-01T21:52:34Z</time></trkpt><trkpt lat="46.39353567048601" lon="13.232851036034265"><ele>326.0</ele><time>2026-05-01T21:52:35Z</time></trkpt><trkpt lat="46.393575659627835" lon="13.232490000647145"><ele>324.5</ele><time>2026-05-01T21:52:36Z</time></trkpt><trkpt lat="46.393615491461745" lon="13.232129522033244"><ele>323.0</ele><time>2026-05-01T21:52:37Z</time></trkpt><trkpt lat="46.39365647389548" lon="13.23176948788984"><ele>322.0</ele><time>2026-05-01T21:52:38Z</time></trkpt><trkpt lat="46.39369830771251" lon="13.231408957245948"><ele>321.0</ele><time>2026-05-01T21:52:39Z</time></trkpt><trkpt lat="46.39374230340062" lon="13.231048274757057"><ele>321.0</ele><time>2026-05-01T21:52:40Z</time></trkpt><trkpt lat="46.39378748310052" lon="13.230688144141766"><ele>321.0</ele><time>2026-05-01T21:52:41Z</time></trkpt><trkpt lat="46.39383264512061" lon="13.230325943238439"><ele>319.5</ele><time>2026-05-01T21:52:42Z</time></trkpt><trkpt lat="46.39387638947268" lon="13.229962460609528"><ele>318.0</ele><time>2026-05-01T21:52:43Z</time></trkpt><trkpt lat="46.39392124043014" lon="13.229597349288994"><ele>318.0</ele><time>2026-05-01T21:52:44Z</time></trkpt><trkpt lat="46.3939657320594" lon="13.229230167406644"><ele>318.0</ele><time>2026-05-01T21:52:45Z</time></trkpt><trkpt lat="46.39401072067617" lon="13.228863601146664"><ele>317.5</ele><time>2026-05-01T21:52:46Z</time></trkpt><trkpt lat="46.39405451712937" lon="13.228494875430735"><ele>317.0</ele><time>2026-05-01T21:52:47Z</time></trkpt><trkpt lat="46.394097357343234" lon="13.228127542169924"><ele>317.0</ele><time>2026-05-01T21:52:48Z</time></trkpt><trkpt lat="46.394142091936466" lon="13.227758491886794"><ele>317.0</ele><time>2026-05-01T21:52:49Z</time></trkpt><trkpt lat="46.39418782015982" lon="13.227387582621096"><ele>316.0</ele><time>2026-05-01T21:52:50Z</time></trkpt><trkpt lat="46.39423494874223" lon="13.227016924338631"><ele>315.0</ele><time>2026-05-01T21:52:51Z</time></trkpt><trkpt lat="46.39428235684988" lon="13.226647822771577"><ele>315.5</ele><time>2026-05-01T21:52:52Z</time></trkpt><trkpt lat="46.39432781981527" lon="13.226277153067645"><ele>316.0</ele><time>2026-05-01T21:52:53Z</time></trkpt><trkpt lat="46.39437202613471" lon="13.225905048076578"><ele>315.0</ele><time>2026-05-01T21:52:54Z</time></trkpt><trkpt lat="46.39441599427472" lon="13.225531365358444"><ele>314.0</ele><time>2026-05-01T21:52:55Z</time></trkpt><trkpt lat="46.394459024500165" lon="13.225163000489504"><ele>315.5</ele><time>2026-05-01T21:52:56Z</time></trkpt><trkpt lat="46.39450366115016" lon="13.224791886572545"><ele>317.0</ele><time>2026-05-01T21:52:57.001Z</time></trkpt><trkpt lat="46.394551089785615" lon="13.224421918292412"><ele>317.0</ele><time>2026-05-01T21:52:58.001Z</time></trkpt><trkpt lat="46.39460292535926" lon="13.22405438032564"><ele>317.0</ele><time>2026-05-01T21:52:59.001Z</time></trkpt><trkpt lat="46.394660835957964" lon="13.22368912948545"><ele>315.5</ele><time>2026-05-01T21:53:00.001Z</time></trkpt><trkpt lat="46.39472426325322" lon="13.223326235702757"><ele>314.0</ele><time>2026-05-01T21:53:01.001Z</time></trkpt><trkpt lat="46.394793711106225" lon="13.222963843658032"><ele>314.0</ele><time>2026-05-01T21:53:02.001Z</time></trkpt><trkpt lat="46.39486445941924" lon="13.222601618985115"><ele>314.0</ele><time>2026-05-01T21:53:03.001Z</time></trkpt><trkpt lat="46.39493929379636" lon="13.222243130688977"><ele>316.0</ele><time>2026-05-01T21:53:04.001Z</time></trkpt><trkpt lat="46.39501902972312" lon="13.221885693651927"><ele>318.0</ele><time>2026-05-01T21:53:05.001Z</time></trkpt><trkpt lat="46.395103994240394" lon="13.221530377947886"><ele>318.0</ele><time>2026-05-01T21:53:06.001Z</time></trkpt><trkpt lat="46.39519287310985" lon="13.221178756270309"><ele>318.0</ele><time>2026-05-01T21:53:07.001Z</time></trkpt><trkpt lat="46.395286258810465" lon="13.220828510322299"><ele>317.0</ele><time>2026-05-01T21:53:08.001Z</time></trkpt><trkpt lat="46.39538189515639" lon="13.220480729230138"><ele>316.0</ele><time>2026-05-01T21:53:09.001Z</time></trkpt><trkpt lat="46.39547981612263" lon="13.220132330575526"><ele>313.0</ele><time>2026-05-01T21:53:10.001Z</time></trkpt><trkpt lat="46.39557905636107" lon="13.21978665003829"><ele>310.0</ele><time>2026-05-01T21:53:11.001Z</time></trkpt><trkpt lat="46.39567815036694" lon="13.219439211583484"><ele>310.0</ele><time>2026-05-01T21:53:12.001Z</time></trkpt><trkpt lat="46.395775331577234" lon="13.21909235540627"><ele>310.0</ele><time>2026-05-01T21:53:13.001Z</time></trkpt><trkpt lat="46.3958722907657" lon="13.218745804137013"><ele>309.0</ele><time>2026-05-01T21:53:14.001Z</time></trkpt><trkpt lat="46.39597050249082" lon="13.218399483840301"><ele>308.0</ele><time>2026-05-01T21:53:15.001Z</time></trkpt><trkpt lat="46.39607061621563" lon="13.218051998465851"><ele>310.0</ele><time>2026-05-01T21:53:16.001Z</time></trkpt><trkpt lat="46.39617000016789" lon="13.217704706618767"><ele>312.0</ele><time>2026-05-01T21:53:17.001Z</time></trkpt><trkpt lat="46.396266692537" lon="13.217359759147401"><ele>311.5</ele><time>2026-05-01T21:53:18.001Z</time></trkpt><trkpt lat="46.39636207562548" lon="13.217013257537058"><ele>311.0</ele><time>2026-05-01T21:53:19.001Z</time></trkpt><trkpt lat="46.3964566308276" lon="13.21666455827213"><ele>313.5</ele><time>2026-05-01T21:53:20.001Z</time></trkpt><trkpt lat="46.39654726754467" lon="13.216315884825818"><ele>316.0</ele><time>2026-05-01T21:53:21.001Z</time></trkpt><trkpt lat="46.39663330143732" lon="13.215961851818317"><ele>315.0</ele><time>2026-05-01T21:53:22.001Z</time></trkpt><trkpt lat="46.39671322351991" lon="13.215603131873054"><ele>314.0</ele><time>2026-05-01T21:53:23.001Z</time></trkpt><trkpt lat="46.396787386745004" lon="13.215238577942715"><ele>314.0</ele><time>2026-05-01T21:53:24.001Z</time></trkpt><trkpt lat="46.39685929409644" lon="13.21487235025012"><ele>314.0</ele><time>2026-05-01T21:53:25.001Z</time></trkpt><trkpt lat="46.396930075889024" lon="13.214501549526142"><ele>312.5</ele><time>2026-05-01T21:53:26.001Z</time></trkpt><trkpt lat="46.39699836632383" lon="13.21413007492338"><ele>311.0</ele><time>2026-05-01T21:53:27.001Z</time></trkpt><trkpt lat="46.39706286754377" lon="13.213756075950544"><ele>310.0</ele><time>2026-05-01T21:53:28Z</time></trkpt><trkpt lat="46.39712195997566" lon="13.213375643193563"><ele>309.0</ele><time>2026-05-01T21:53:29Z</time></trkpt><trkpt lat="46.397172746541344" lon="13.212996672559486"><ele>308.5</ele><time>2026-05-01T21:53:30Z</time></trkpt><trkpt lat="46.39721680376304" lon="13.212619807574953"><ele>308.0</ele><time>2026-05-01T21:53:31Z</time></trkpt><trkpt lat="46.397256589394125" lon="13.212237776875773"><ele>308.0</ele><time>2026-05-01T21:53:32Z</time></trkpt><trkpt lat="46.39729259031274" lon="13.211856370187077"><ele>308.0</ele><time>2026-05-01T21:53:33Z</time></trkpt><trkpt lat="46.397322748806474" lon="13.21147828806631"><ele>307.0</ele><time>2026-05-01T21:53:34Z</time></trkpt><trkpt lat="46.39734838370904" lon="13.211101003763655"><ele>306.0</ele><time>2026-05-01T21:53:35Z</time></trkpt><trkpt lat="46.39736900555274" lon="13.210729553463835"><ele>305.5</ele><time>2026-05-01T21:53:36Z</time></trkpt><trkpt lat="46.39738582197462" lon="13.210355775048964"><ele>305.0</ele><time>2026-05-01T21:53:37Z</time></trkpt><trkpt lat="46.39739792261984" lon="13.209983573288348"><ele>305.5</ele><time>2026-05-01T21:53:38Z</time></trkpt><trkpt lat="46.39740591746423" lon="13.209610592953418"><ele>306.0</ele><time>2026-05-01T21:53:39Z</time></trkpt><trkpt lat="46.397409398735796" lon="13.209239003646976"><ele>305.0</ele><time>2026-05-01T21:53:40Z</time></trkpt><trkpt lat="46.397408404371305" lon="13.208867521609564"><ele>304.0</ele><time>2026-05-01T21:53:41Z</time></trkpt><trkpt lat="46.39740248714569" lon="13.208498760089025"><ele>304.0</ele><time>2026-05-01T21:53:42Z</time></trkpt><trkpt lat="46.39739147971703" lon="13.208129570185072"><ele>304.0</ele><time>2026-05-01T21:53:43Z</time></trkpt><trkpt lat="46.397376253670075" lon="13.207762688063394"><ele>304.0</ele><time>2026-05-01T21:53:44Z</time></trkpt><trkpt lat="46.39735577502458" lon="13.207395088078927"><ele>304.0</ele><time>2026-05-01T21:53:45Z</time></trkpt><trkpt lat="46.397329726756496" lon="13.207029799008046"><ele>304.5</ele><time>2026-05-01T21:53:46Z</time></trkpt><trkpt lat="46.39729846018156" lon="13.206666039761188"><ele>305.0</ele><time>2026-05-01T21:53:47Z</time></trkpt><trkpt lat="46.39726300628416" lon="13.20630320339851"><ele>306.0</ele><time>2026-05-01T21:53:48Z</time></trkpt><trkpt lat="46.397225224255244" lon="13.205940835230868"><ele>307.0</ele><time>2026-05-01T21:53:49Z</time></trkpt><trkpt lat="46.397183853097495" lon="13.2055764824103"><ele>308.0</ele><time>2026-05-01T21:53:50Z</time></trkpt><trkpt lat="46.397140606599365" lon="13.205214107243211"><ele>309.0</ele><time>2026-05-01T21:53:51Z</time></trkpt><trkpt lat="46.39709217165087" lon="13.204852839335022"><ele>310.0</ele><time>2026-05-01T21:53:52Z</time></trkpt><trkpt lat="46.39703660462933" lon="13.20449382436287"><ele>311.0</ele><time>2026-05-01T21:53:53Z</time></trkpt><trkpt lat="46.396975467394824" lon="13.204136302186004"><ele>312.0</ele><time>2026-05-01T21:53:54Z</time></trkpt><trkpt lat="46.39691032265105" lon="13.203776733235559"><ele>313.0</ele><time>2026-05-01T21:53:55Z</time></trkpt><trkpt lat="46.39684218074044" lon="13.203419618245011"><ele>314.5</ele><time>2026-05-01T21:53:56Z</time></trkpt><trkpt lat="46.3967749032254" lon="13.203061044313973"><ele>316.0</ele><time>2026-05-01T21:53:57Z</time></trkpt><trkpt lat="46.39671183131799" lon="13.202705911996684"><ele>316.0</ele><time>2026-05-01T21:53:58Z</time></trkpt><trkpt lat="46.396654943822796" lon="13.202368928196986"><ele>316.0</ele><time>2026-05-01T21:53:59Z</time></trkpt><trkpt lat="46.396594846348094" lon="13.202039991894155"><ele>314.0</ele><time>2026-05-01T21:54:00Z</time></trkpt><trkpt lat="46.396533391212174" lon="13.201706012115363"><ele>312.0</ele><time>2026-05-01T21:54:01Z</time></trkpt><trkpt lat="46.39647084862715" lon="13.201366031606277"><ele>312.0</ele><time>2026-05-01T21:54:02Z</time></trkpt><trkpt lat="46.39640481738402" lon="13.201025087340295"><ele>312.0</ele><time>2026-05-01T21:54:03Z</time></trkpt><trkpt lat="46.39634132691448" lon="13.20068631818362"><ele>343.5</ele><time>2026-05-01T21:54:04Z</time></trkpt><trkpt lat="46.39627664938175" lon="13.200344165062301"><ele>375.0</ele><time>2026-05-01T21:54:05Z</time></trkpt><trkpt lat="46.396211635084995" lon="13.200003273026955"><ele>380.0</ele><time>2026-05-01T21:54:06Z</time></trkpt><trkpt lat="46.396148381357854" lon="13.199661187881272"><ele>385.0</ele><time>2026-05-01T21:54:07Z</time></trkpt><trkpt lat="46.39608591174467" lon="13.19931868822729"><ele>385.5</ele><time>2026-05-01T21:54:08Z</time></trkpt><trkpt lat="46.396024854692854" lon="13.198974961408323"><ele>386.0</ele><time>2026-05-01T21:54:09Z</time></trkpt><trkpt lat="46.395963821041384" lon="13.198630476635367"><ele>386.0</ele><time>2026-05-01T21:54:10Z</time></trkpt><trkpt lat="46.39590219209717" lon="13.198286289159203"><ele>386.0</ele><time>2026-05-01T21:54:11Z</time></trkpt><trkpt lat="46.39584053787377" lon="13.197942896974391"><ele>382.5</ele><time>2026-05-01T21:54:12Z</time></trkpt><trkpt lat="46.39577881957584" lon="13.197599960452596"><ele>379.0</ele><time>2026-05-01T21:54:13Z</time></trkpt><trkpt lat="46.39571820829954" lon="13.197259717986341"><ele>379.0</ele><time>2026-05-01T21:54:14Z</time></trkpt><trkpt lat="46.39564018121716" lon="13.196837867496267"><ele>379.0</ele><time>2026-05-01T21:54:15Z</time></trkpt><trkpt lat="46.39557463862552" lon="13.196488061915892"><ele>382.0</ele><time>2026-05-01T21:54:16Z</time></trkpt><trkpt lat="46.39550801131157" lon="13.196135535223252"><ele>385.0</ele><time>2026-05-01T21:54:17Z</time></trkpt><trkpt lat="46.395441711776705" lon="13.19578334913516"><ele>403.0</ele><time>2026-05-01T21:54:18Z</time></trkpt><trkpt lat="46.395375159677826" lon="13.195430629744473"><ele>421.0</ele><time>2026-05-01T21:54:19Z</time></trkpt><trkpt lat="46.39530917004617" lon="13.195074273129306"><ele>411.5</ele><time>2026-05-01T21:54:20Z</time></trkpt><trkpt lat="46.39524356140423" lon="13.194715917597847"><ele>402.0</ele><time>2026-05-01T21:54:21Z</time></trkpt><trkpt lat="46.395177913420575" lon="13.194357580102333"><ele>403.0</ele><time>2026-05-01T21:54:22Z</time></trkpt><trkpt lat="46.39511177379782" lon="13.193995737775701"><ele>404.0</ele><time>2026-05-01T21:54:23Z</time></trkpt><trkpt lat="46.39504593792143" lon="13.193634939347213"><ele>404.0</ele><time>2026-05-01T21:54:24Z</time></trkpt><trkpt lat="46.39497972029265" lon="13.193275717665035"><ele>404.0</ele><time>2026-05-01T21:54:25Z</time></trkpt><trkpt lat="46.3949153643921" lon="13.192919614226385"><ele>413.0</ele><time>2026-05-01T21:54:26Z</time></trkpt><trkpt lat="46.39485480641543" lon="13.192561806629504"><ele>422.0</ele><time>2026-05-01T21:54:27Z</time></trkpt><trkpt lat="46.39480096281591" lon="13.192200053922532"><ele>433.5</ele><time>2026-05-01T21:54:28Z</time></trkpt><trkpt lat="46.394756365297816" lon="13.191840006707427"><ele>445.0</ele><time>2026-05-01T21:54:29Z</time></trkpt><trkpt lat="46.39471926628154" lon="13.191483451155134"><ele>452.0</ele><time>2026-05-01T21:54:30Z</time></trkpt><trkpt lat="46.394687546274646" lon="13.19112286887039"><ele>459.0</ele><time>2026-05-01T21:54:31Z</time></trkpt><trkpt lat="46.3946629723828" lon="13.190769078738144"><ele>472.5</ele><time>2026-05-01T21:54:32Z</time></trkpt><trkpt lat="46.3946465675004" lon="13.190414658711004"><ele>486.0</ele><time>2026-05-01T21:54:33Z</time></trkpt><trkpt lat="46.394635409264744" lon="13.190057344726572"><ele>499.0</ele><time>2026-05-01T21:54:34Z</time></trkpt><trkpt lat="46.39463438742436" lon="13.189700941142954"><ele>512.0</ele><time>2026-05-01T21:54:35Z</time></trkpt><trkpt lat="46.394639999818295" lon="13.189346840849069"><ele>518.5</ele><time>2026-05-01T21:54:36Z</time></trkpt><trkpt lat="46.39465181837281" lon="13.188989898766943"><ele>525.0</ele><time>2026-05-01T21:54:37Z</time></trkpt><trkpt lat="46.39466925147309" lon="13.188637315382877"><ele>524.0</ele><time>2026-05-01T21:54:38Z</time></trkpt><trkpt lat="46.39469404559815" lon="13.188292374945084"><ele>523.0</ele><time>2026-05-01T21:54:39Z</time></trkpt><trkpt lat="46.39472717972996" lon="13.187957140143826"><ele>523.0</ele><time>2026-05-01T21:54:40Z</time></trkpt><trkpt lat="46.39476567302118" lon="13.187619323494273"><ele>523.0</ele><time>2026-05-01T21:54:41Z</time></trkpt><trkpt lat="46.39480914309546" lon="13.187288617914195"><ele>522.3333333333334</ele><time>2026-05-01T21:54:42Z</time></trkpt><trkpt lat="46.394860022663664" lon="13.186974122532465"><ele>521.6666666666666</ele><time>2026-05-01T21:54:43Z</time></trkpt><trkpt lat="46.39491597283837" lon="13.186662381992981"><ele>521.0</ele><time>2026-05-01T21:54:44Z</time></trkpt><trkpt lat="46.39497879872768" lon="13.186354006534833"><ele>519.0</ele><time>2026-05-01T21:54:45Z</time></trkpt><trkpt lat="46.3950477813532" lon="13.186053578303987"><ele>517.0</ele><time>2026-05-01T21:54:46Z</time></trkpt><trkpt lat="46.39512205601063" lon="13.185757237603715"><ele>515.0</ele><time>2026-05-01T21:54:47Z</time></trkpt><trkpt lat="46.395200089379905" lon="13.185463209777108"><ele>510.3333333333333</ele><time>2026-05-01T21:54:48Z</time></trkpt><trkpt lat="46.39528568557407" lon="13.185170085373697"><ele>505.66666666666663</ele><time>2026-05-01T21:54:49Z</time></trkpt><trkpt lat="46.39537743317912" lon="13.184885107853162"><ele>501.0</ele><time>2026-05-01T21:54:50Z</time></trkpt><trkpt lat="46.39547459472649" lon="13.184589059093748"><ele>478.0</ele><time>2026-05-01T21:54:51Z</time></trkpt><trkpt lat="46.39557902995156" lon="13.184295880098933"><ele>455.0</ele><time>2026-05-01T21:54:52.017Z</time></trkpt><trkpt lat="46.397001873136304" lon="13.18033960722482"><ele>375.0</ele><time>2026-05-01T21:55:02Z</time></trkpt><trkpt lat="46.39724202830522" lon="13.180016173078494"><ele>295.0</ele><time>2026-05-01T21:55:03Z</time></trkpt><trkpt lat="46.397310559106124" lon="13.179734584290175"><ele>295.0</ele><time>2026-05-01T21:55:04Z</time></trkpt><trkpt lat="46.39745025820605" lon="13.179441507832843"><ele>295.0</ele><time>2026-05-01T21:55:05Z</time></trkpt><trkpt lat="46.39758283734158" lon="13.179136173479584"><ele>297.5</ele><time>2026-05-01T21:55:06Z</time></trkpt><trkpt lat="46.397712304768746" lon="13.17882265285302"><ele>300.0</ele><time>2026-05-01T21:55:07Z</time></trkpt><trkpt lat="46.397829823870175" lon="13.178496459935124"><ele>300.0</ele><time>2026-05-01T21:55:08Z</time></trkpt><trkpt lat="46.397949092275155" lon="13.178166125324177"><ele>300.0</ele><time>2026-05-01T21:55:09Z</time></trkpt><trkpt lat="46.39806399237989" lon="13.177827000900376"><ele>294.0</ele><time>2026-05-01T21:55:10Z</time></trkpt><trkpt lat="46.39817426636449" lon="13.177480814775576"><ele>288.0</ele><time>2026-05-01T21:55:11Z</time></trkpt><trkpt lat="46.398278718128495" lon="13.177127347596581"><ele>287.5</ele><time>2026-05-01T21:55:12Z</time></trkpt><trkpt lat="46.398372858126486" lon="13.176770665732576"><ele>287.0</ele><time>2026-05-01T21:55:13Z</time></trkpt><trkpt lat="46.398461372268976" lon="13.176407496636113"><ele>285.5</ele><time>2026-05-01T21:55:14Z</time></trkpt><trkpt lat="46.398535285816905" lon="13.17603994411859"><ele>284.0</ele><time>2026-05-01T21:55:15Z</time></trkpt><trkpt lat="46.39860663002136" lon="13.17566450799647"><ele>284.0</ele><time>2026-05-01T21:55:16Z</time></trkpt><trkpt lat="46.39867216620036" lon="13.175286696728636"><ele>284.0</ele><time>2026-05-01T21:55:17Z</time></trkpt><trkpt lat="46.39873280266755" lon="13.174907307146356"><ele>284.5</ele><time>2026-05-01T21:55:18Z</time></trkpt><trkpt lat="46.39878168687623" lon="13.174526892838877"><ele>285.0</ele><time>2026-05-01T21:55:19.001Z</time></trkpt><trkpt lat="46.398817325692924" lon="13.174144839902755"><ele>286.0</ele><time>2026-05-01T21:55:20.001Z</time></trkpt><trkpt lat="46.3988370924212" lon="13.173766250706318"><ele>287.0</ele><time>2026-05-01T21:55:21.001Z</time></trkpt><trkpt lat="46.39885645286854" lon="13.173381366207343"><ele>289.5</ele><time>2026-05-01T21:55:22.001Z</time></trkpt><trkpt lat="46.39886781382486" lon="13.17299656355192"><ele>292.0</ele><time>2026-05-01T21:55:23.001Z</time></trkpt><trkpt lat="46.3988731748684" lon="13.17261304364591"><ele>293.0</ele><time>2026-05-01T21:55:24.001Z</time></trkpt><trkpt lat="46.398869148884366" lon="13.172228644900118"><ele>294.0</ele><time>2026-05-01T21:55:25.001Z</time></trkpt><trkpt lat="46.398856883230046" lon="13.171847303448496"><ele>291.5</ele><time>2026-05-01T21:55:26.001Z</time></trkpt><trkpt lat="46.398836399354124" lon="13.171464473458027"><ele>289.0</ele><time>2026-05-01T21:55:27.001Z</time></trkpt><trkpt lat="46.39880287252636" lon="13.171087909865683"><ele>288.5</ele><time>2026-05-01T21:55:28.001Z</time></trkpt><trkpt lat="46.39876328864875" lon="13.170715100067332"><ele>288.0</ele><time>2026-05-01T21:55:29.001Z</time></trkpt><trkpt lat="46.39871873335164" lon="13.170344386284714"><ele>288.0</ele><time>2026-05-01T21:55:30.001Z</time></trkpt><trkpt lat="46.39866963124818" lon="13.169976058978696"><ele>288.0</ele><time>2026-05-01T21:55:31.001Z</time></trkpt><trkpt lat="46.3986149604928" lon="13.169612547225755"><ele>289.5</ele><time>2026-05-01T21:55:32.001Z</time></trkpt><trkpt lat="46.39854834556185" lon="13.169251530398741"><ele>291.0</ele><time>2026-05-01T21:55:33.001Z</time></trkpt><trkpt lat="46.39847305386564" lon="13.168895667936631"><ele>291.5</ele><time>2026-05-01T21:55:34Z</time></trkpt><trkpt lat="46.39838774018331" lon="13.168546958753488"><ele>292.0</ele><time>2026-05-01T21:55:35Z</time></trkpt><trkpt lat="46.39829478332208" lon="13.16820452441845"><ele>292.0</ele><time>2026-05-01T21:55:36Z</time></trkpt><trkpt lat="46.39819791757282" lon="13.167863732881907"><ele>292.0</ele><time>2026-05-01T21:55:37Z</time></trkpt><trkpt lat="46.39809462637748" lon="13.167523982366271"><ele>290.0</ele><time>2026-05-01T21:55:38Z</time></trkpt><trkpt lat="46.397983841045416" lon="13.167190155867676"><ele>288.0</ele><time>2026-05-01T21:55:39Z</time></trkpt><trkpt lat="46.397866428449696" lon="13.166858717663732"><ele>288.0</ele><time>2026-05-01T21:55:40Z</time></trkpt><trkpt lat="46.39774209703389" lon="13.166537187972585"><ele>288.0</ele><time>2026-05-01T21:55:41Z</time></trkpt><trkpt lat="46.397610892491414" lon="13.166217891974798"><ele>288.5</ele><time>2026-05-01T21:55:42Z</time></trkpt><trkpt lat="46.39747246737465" lon="13.165905547699545"><ele>289.0</ele><time>2026-05-01T21:55:43Z</time></trkpt><trkpt lat="46.39733340875202" lon="13.165595179070596"><ele>291.0</ele><time>2026-05-01T21:55:44Z</time></trkpt><trkpt lat="46.397197857871355" lon="13.165282922908125"><ele>293.0</ele><time>2026-05-01T21:55:45Z</time></trkpt><trkpt lat="46.397060990958344" lon="13.164971013888586"><ele>287.0</ele><time>2026-05-01T21:55:46Z</time></trkpt><trkpt lat="46.39692242248472" lon="13.164659392215295"><ele>281.0</ele><time>2026-05-01T21:55:47Z</time></trkpt><trkpt lat="46.396781366083545" lon="13.164349088389052"><ele>281.0</ele><time>2026-05-01T21:55:48Z</time></trkpt><trkpt lat="46.39664305558822" lon="13.16404565758984"><ele>281.0</ele><time>2026-05-01T21:55:49Z</time></trkpt><trkpt lat="46.39650735730782" lon="13.163746581961208"><ele>282.0</ele><time>2026-05-01T21:55:50Z</time></trkpt><trkpt lat="46.3963695092365" lon="13.163442640418893"><ele>283.0</ele><time>2026-05-01T21:55:51Z</time></trkpt><trkpt lat="46.396233905658804" lon="13.163143817977234"><ele>286.0</ele><time>2026-05-01T21:55:52Z</time></trkpt><trkpt lat="46.39609957980149" lon="13.162841310227126"><ele>289.0</ele><time>2026-05-01T21:55:53Z</time></trkpt><trkpt lat="46.39596666925771" lon="13.162540023894937"><ele>298.0</ele><time>2026-05-01T21:55:54Z</time></trkpt><trkpt lat="46.39583329943089" lon="13.16223672302517"><ele>307.0</ele><time>2026-05-01T21:55:55Z</time></trkpt><trkpt lat="46.39570411185267" lon="13.161940822741185"><ele>307.0</ele><time>2026-05-01T21:55:56Z</time></trkpt><trkpt lat="46.395575261414905" lon="13.161648028774108"><ele>307.0</ele><time>2026-05-01T21:55:57Z</time></trkpt><trkpt lat="46.395447935422894" lon="13.161361391656351"><ele>318.0</ele><time>2026-05-01T21:55:58Z</time></trkpt><trkpt lat="46.39531963691478" lon="13.16107504726526"><ele>329.0</ele><time>2026-05-01T21:55:59Z</time></trkpt><trkpt lat="46.39519071603947" lon="13.160789144880281"><ele>349.0</ele><time>2026-05-01T21:56:00Z</time></trkpt><trkpt lat="46.39506069334551" lon="13.160501871476859"><ele>369.0</ele><time>2026-05-01T21:56:01Z</time></trkpt><trkpt lat="46.39492953234114" lon="13.160214835875246"><ele>369.0</ele><time>2026-05-01T21:56:02Z</time></trkpt><trkpt lat="46.39479780468261" lon="13.159928223713104"><ele>369.0</ele><time>2026-05-01T21:56:03Z</time></trkpt><trkpt lat="46.39466548705271" lon="13.159640443373748"><ele>369.0</ele><time>2026-05-01T21:56:04Z</time></trkpt><trkpt lat="46.39449844332309" lon="13.159268947723705"><ele>369.0</ele><time>2026-05-01T21:56:05Z</time></trkpt><trkpt lat="46.39435875034273" lon="13.158956813077832"><ele>369.0</ele><time>2026-05-01T21:56:06Z</time></trkpt><trkpt lat="46.39421902005462" lon="13.158645406453994"><ele>369.0</ele><time>2026-05-01T21:56:07Z</time></trkpt><trkpt lat="46.394076063936076" lon="13.158331423297788"><ele>417.5</ele><time>2026-05-01T21:56:08Z</time></trkpt><trkpt lat="46.39393303825861" lon="13.158014896129819"><ele>466.0</ele><time>2026-05-01T21:56:09Z</time></trkpt><trkpt lat="46.39379125570144" lon="13.157698078111713"><ele>466.0</ele><time>2026-05-01T21:56:10Z</time></trkpt><trkpt lat="46.39364813654284" lon="13.157382769849155"><ele>466.0</ele><time>2026-05-01T21:56:11Z</time></trkpt><trkpt lat="46.39350432479077" lon="13.157067912461446"><ele>463.5</ele><time>2026-05-01T21:56:12Z</time></trkpt><trkpt lat="46.3933590186574" lon="13.156756609235968"><ele>461.0</ele><time>2026-05-01T21:56:13Z</time></trkpt><trkpt lat="46.39321506082806" lon="13.156445623312523"><ele>461.0</ele><time>2026-05-01T21:56:14Z</time></trkpt><trkpt lat="46.39308004053328" lon="13.156145289618452"><ele>461.0</ele><time>2026-05-01T21:56:15Z</time></trkpt><trkpt lat="46.39294229882069" lon="13.155837625640526"><ele>420.0</ele><time>2026-05-01T21:56:16Z</time></trkpt><trkpt lat="46.392796097054315" lon="13.15551656123061"><ele>379.0</ele><time>2026-05-01T21:56:17Z</time></trkpt><trkpt lat="46.392651939473325" lon="13.155191483825652"><ele>380.0</ele><time>2026-05-01T21:56:18Z</time></trkpt><trkpt lat="46.39250977983038" lon="13.15486830302129"><ele>381.0</ele><time>2026-05-01T21:56:19Z</time></trkpt><trkpt lat="46.39237101027104" lon="13.154541811994221"><ele>381.0</ele><time>2026-05-01T21:56:20Z</time></trkpt><trkpt lat="46.392242260355864" lon="13.154214214227823"><ele>381.0</ele><time>2026-05-01T21:56:21Z</time></trkpt><trkpt lat="46.39212546942136" lon="13.153887610253907"><ele>338.5</ele><time>2026-05-01T21:56:22Z</time></trkpt><trkpt lat="46.39202555899091" lon="13.153568527335764"><ele>296.0</ele><time>2026-05-01T21:56:23Z</time></trkpt><trkpt lat="46.39193218020712" lon="13.153241305819673"><ele>295.5</ele><time>2026-05-01T21:56:24Z</time></trkpt><trkpt lat="46.3918475857728" lon="13.152908555625752"><ele>295.0</ele><time>2026-05-01T21:56:25Z</time></trkpt><trkpt lat="46.39176953080693" lon="13.152567789849599"><ele>292.0</ele><time>2026-05-01T21:56:26Z</time></trkpt><trkpt lat="46.39169805983642" lon="13.152222018252424"><ele>289.0</ele><time>2026-05-01T21:56:27Z</time></trkpt><trkpt lat="46.39163769454514" lon="13.151876126921035"><ele>291.0</ele><time>2026-05-01T21:56:28Z</time></trkpt><trkpt lat="46.39157222007434" lon="13.15135775443284"><ele>293.0</ele><time>2026-05-01T21:56:29Z</time></trkpt><trkpt lat="46.39155063519842" lon="13.150996177958518"><ele>294.0</ele><time>2026-05-01T21:56:30Z</time></trkpt><trkpt lat="46.391512987275355" lon="13.150635351786278"><ele>295.0</ele><time>2026-05-01T21:56:31Z</time></trkpt><trkpt lat="46.39148425464569" lon="13.150276044638966"><ele>295.0</ele><time>2026-05-01T21:56:32Z</time></trkpt><trkpt lat="46.391470290173935" lon="13.14990124586904"><ele>295.0</ele><time>2026-05-01T21:56:33Z</time></trkpt><trkpt lat="46.391461299129936" lon="13.14952933916849"><ele>295.0</ele><time>2026-05-01T21:56:34Z</time></trkpt><trkpt lat="46.391459836380605" lon="13.149158294201738"><ele>295.0</ele><time>2026-05-01T21:56:35Z</time></trkpt><trkpt lat="46.39146523954696" lon="13.148790254743659"><ele>294.5</ele><time>2026-05-01T21:56:36Z</time></trkpt><trkpt lat="46.39146843072473" lon="13.148425224422237"><ele>294.0</ele><time>2026-05-01T21:56:37Z</time></trkpt><trkpt lat="46.3914695463853" lon="13.148060153412999"><ele>290.5</ele><time>2026-05-01T21:56:38Z</time></trkpt><trkpt lat="46.39146824713759" lon="13.147699172553626"><ele>287.0</ele><time>2026-05-01T21:56:39Z</time></trkpt><trkpt lat="46.39146372860245" lon="13.147341299500699"><ele>284.5</ele><time>2026-05-01T21:56:40Z</time></trkpt><trkpt lat="46.391467703286686" lon="13.146977097620857"><ele>282.0</ele><time>2026-05-01T21:56:41Z</time></trkpt><trkpt lat="46.391463154499995" lon="13.146618543111572"><ele>279.5</ele><time>2026-05-01T21:56:42Z</time></trkpt><trkpt lat="46.39146068419369" lon="13.146260622170695"><ele>277.0</ele><time>2026-05-01T21:56:43Z</time></trkpt><trkpt lat="46.39145776075588" lon="13.145901133041239"><ele>277.5</ele><time>2026-05-01T21:56:44Z</time></trkpt><trkpt lat="46.391452911034214" lon="13.145542522122778"><ele>278.0</ele><time>2026-05-01T21:56:45Z</time></trkpt><trkpt lat="46.39144506713397" lon="13.145182756682082"><ele>278.0</ele><time>2026-05-01T21:56:46Z</time></trkpt><trkpt lat="46.39143568080279" lon="13.144821639222506"><ele>278.0</ele><time>2026-05-01T21:56:47Z</time></trkpt><trkpt lat="46.391422880385086" lon="13.144460396248018"><ele>278.0</ele><time>2026-05-01T21:56:48Z</time></trkpt><trkpt lat="46.39140657020326" lon="13.144101185230944"><ele>278.0</ele><time>2026-05-01T21:56:49Z</time></trkpt><trkpt lat="46.39138994525814" lon="13.143740368532079"><ele>280.0</ele><time>2026-05-01T21:56:50Z</time></trkpt><trkpt lat="46.391372113184026" lon="13.143376572894756"><ele>282.0</ele><time>2026-05-01T21:56:51Z</time></trkpt><trkpt lat="46.3913543127709" lon="13.14301300734434"><ele>277.0</ele><time>2026-05-01T21:56:52Z</time></trkpt><trkpt lat="46.39133202026424" lon="13.142643809385275"><ele>272.0</ele><time>2026-05-01T21:56:53Z</time></trkpt><trkpt lat="46.3913087122697" lon="13.142274841833057"><ele>272.0</ele><time>2026-05-01T21:56:54Z</time></trkpt><trkpt lat="46.39128266399839" lon="13.141904011683318"><ele>272.0</ele><time>2026-05-01T21:56:55Z</time></trkpt><trkpt lat="46.39125608079566" lon="13.141534407493667"><ele>271.5</ele><time>2026-05-01T21:56:56Z</time></trkpt><trkpt lat="46.39122829278264" lon="13.141161737563458"><ele>271.0</ele><time>2026-05-01T21:56:57Z</time></trkpt><trkpt lat="46.391202527361614" lon="13.140786841112535"><ele>270.5</ele><time>2026-05-01T21:56:58Z</time></trkpt><trkpt lat="46.39118361593473" lon="13.140411325700923"><ele>270.0</ele><time>2026-05-01T21:56:59Z</time></trkpt><trkpt lat="46.39116433830248" lon="13.140036520936754"><ele>271.0</ele><time>2026-05-01T21:57:00Z</time></trkpt><trkpt lat="46.39114102076304" lon="13.139659750638113"><ele>272.0</ele><time>2026-05-01T21:57:01Z</time></trkpt><trkpt lat="46.39111491856303" lon="13.139284462238438"><ele>272.0</ele><time>2026-05-01T21:57:02Z</time></trkpt><trkpt lat="46.39109048014118" lon="13.138905457712257"><ele>272.0</ele><time>2026-05-01T21:57:03Z</time></trkpt><trkpt lat="46.391063947110204" lon="13.138531159840236"><ele>271.5</ele><time>2026-05-01T21:57:04Z</time></trkpt><trkpt lat="46.39103825185638" lon="13.13815299676693"><ele>271.0</ele><time>2026-05-01T21:57:05Z</time></trkpt><trkpt lat="46.39101351255195" lon="13.137777492391045"><ele>271.0</ele><time>2026-05-01T21:57:06Z</time></trkpt><trkpt lat="46.39098915742491" lon="13.137401150048643"><ele>271.0</ele><time>2026-05-01T21:57:07Z</time></trkpt><trkpt lat="46.390965562470335" lon="13.13702765385967"><ele>272.5</ele><time>2026-05-01T21:57:08Z</time></trkpt><trkpt lat="46.39094145413485" lon="13.136652727536765"><ele>274.0</ele><time>2026-05-01T21:57:09Z</time></trkpt><trkpt lat="46.39091850959889" lon="13.136278399947848"><ele>274.5</ele><time>2026-05-01T21:57:10Z</time></trkpt><trkpt lat="46.390895976468016" lon="13.13590366465816"><ele>275.0</ele><time>2026-05-01T21:57:11Z</time></trkpt><trkpt lat="46.39087198055647" lon="13.135529089569587"><ele>273.5</ele><time>2026-05-01T21:57:12Z</time></trkpt><trkpt lat="46.39084642492253" lon="13.135153188292403"><ele>272.0</ele><time>2026-05-01T21:57:13Z</time></trkpt><trkpt lat="46.39081792309477" lon="13.134778345296276"><ele>272.0</ele><time>2026-05-01T21:57:14Z</time></trkpt><trkpt lat="46.39078092648345" lon="13.134405992553743"><ele>272.0</ele><time>2026-05-01T21:57:15Z</time></trkpt><trkpt lat="46.39073109139386" lon="13.134035060473451"><ele>274.5</ele><time>2026-05-01T21:57:16Z</time></trkpt><trkpt lat="46.39066410949626" lon="13.133668415633942"><ele>277.0</ele><time>2026-05-01T21:57:17Z</time></trkpt><trkpt lat="46.39058067343944" lon="13.133309860452922"><ele>272.5</ele><time>2026-05-01T21:57:18Z</time></trkpt><trkpt lat="46.39048455198284" lon="13.132951178517464"><ele>268.0</ele><time>2026-05-01T21:57:19Z</time></trkpt><trkpt lat="46.390373276826935" lon="13.132602358184089"><ele>271.5</ele><time>2026-05-01T21:57:20Z</time></trkpt><trkpt lat="46.390249838655194" lon="13.132261642593186"><ele>275.0</ele><time>2026-05-01T21:57:21Z</time></trkpt><trkpt lat="46.3901111425538" lon="13.131933453266928"><ele>275.0</ele><time>2026-05-01T21:57:22Z</time></trkpt><trkpt lat="46.389958175523155" lon="13.131617475893364"><ele>275.0</ele><time>2026-05-01T21:57:23Z</time></trkpt><trkpt lat="46.38979354475458" lon="13.131312807134227"><ele>273.0</ele><time>2026-05-01T21:57:24Z</time></trkpt><trkpt lat="46.38962017312194" lon="13.13101890727002"><ele>271.0</ele><time>2026-05-01T21:57:25Z</time></trkpt><trkpt lat="46.389436240878794" lon="13.130736576760123"><ele>275.0</ele><time>2026-05-01T21:57:26Z</time></trkpt><trkpt lat="46.389240331533045" lon="13.130466431027736"><ele>279.0</ele><time>2026-05-01T21:57:27Z</time></trkpt><trkpt lat="46.389038551499745" lon="13.130203408173049"><ele>276.5</ele><time>2026-05-01T21:57:28Z</time></trkpt><trkpt lat="46.38883246023133" lon="13.1299411245428"><ele>274.0</ele><time>2026-05-01T21:57:29Z</time></trkpt><trkpt lat="46.388626205545464" lon="13.129674722322104"><ele>274.0</ele><time>2026-05-01T21:57:30Z</time></trkpt><trkpt lat="46.38842671477497" lon="13.129402813079329"><ele>274.0</ele><time>2026-05-01T21:57:31Z</time></trkpt><trkpt lat="46.38823346393254" lon="13.12912082962243"><ele>272.5</ele><time>2026-05-01T21:57:32.001Z</time></trkpt><trkpt lat="46.388040797246695" lon="13.128832140479993"><ele>271.0</ele><time>2026-05-01T21:57:33.001Z</time></trkpt><trkpt lat="46.38785047367958" lon="13.128534060052255"><ele>271.0</ele><time>2026-05-01T21:57:34.001Z</time></trkpt><trkpt lat="46.387666800827326" lon="13.12822838042234"><ele>271.0</ele><time>2026-05-01T21:57:35.001Z</time></trkpt><trkpt lat="46.38748938803724" lon="13.127923603287616"><ele>270.5</ele><time>2026-05-01T21:57:36.001Z</time></trkpt><trkpt lat="46.38732371877547" lon="13.127620602959048"><ele>270.0</ele><time>2026-05-01T21:57:37.001Z</time></trkpt><trkpt lat="46.387159283695986" lon="13.127306605084271"><ele>270.0</ele><time>2026-05-01T21:57:38.001Z</time></trkpt><trkpt lat="46.387000276096366" lon="13.126986887022742"><ele>270.0</ele><time>2026-05-01T21:57:39.001Z</time></trkpt><trkpt lat="46.38684398541211" lon="13.126657936404492"><ele>276.0</ele><time>2026-05-01T21:57:40Z</time></trkpt><trkpt lat="46.38669161514053" lon="13.126325938311554"><ele>282.0</ele><time>2026-05-01T21:57:41Z</time></trkpt><trkpt lat="46.38653892942674" lon="13.12599520919293"><ele>284.0</ele><time>2026-05-01T21:57:42Z</time></trkpt><trkpt lat="46.38638812073353" lon="13.125662775544834"><ele>286.0</ele><time>2026-05-01T21:57:43Z</time></trkpt><trkpt lat="46.38623531761513" lon="13.125332831145624"><ele>283.0</ele><time>2026-05-01T21:57:44Z</time></trkpt><trkpt lat="46.38608247998184" lon="13.125003533463254"><ele>280.0</ele><time>2026-05-01T21:57:45Z</time></trkpt><trkpt lat="46.38593100948327" lon="13.124672270987823"><ele>280.0</ele><time>2026-05-01T21:57:46Z</time></trkpt><trkpt lat="46.3857824592886" lon="13.124339592183475"><ele>280.0</ele><time>2026-05-01T21:57:47Z</time></trkpt><trkpt lat="46.3856339410264" lon="13.124006264657886"><ele>273.5</ele><time>2026-05-01T21:57:48Z</time></trkpt><trkpt lat="46.38548206431107" lon="13.123676358885966"><ele>267.0</ele><time>2026-05-01T21:57:49Z</time></trkpt><trkpt lat="46.385323792013246" lon="13.123351787878416"><ele>271.0</ele><time>2026-05-01T21:57:50Z</time></trkpt><trkpt lat="46.385158042782734" lon="13.12303643357751"><ele>275.0</ele><time>2026-05-01T21:57:51Z</time></trkpt><trkpt lat="46.38498724142168" lon="13.122728766367954"><ele>275.0</ele><time>2026-05-01T21:57:52Z</time></trkpt><trkpt lat="46.38480937395673" lon="13.122427919640709"><ele>275.0</ele><time>2026-05-01T21:57:53Z</time></trkpt><trkpt lat="46.3846252626199" lon="13.122131642215567"><ele>275.0</ele><time>2026-05-01T21:57:54Z</time></trkpt><trkpt lat="46.38443571047161" lon="13.121840713560552"><ele>275.0</ele><time>2026-05-01T21:57:55Z</time></trkpt><trkpt lat="46.384240530165805" lon="13.12155538333399"><ele>275.0</ele><time>2026-05-01T21:57:56Z</time></trkpt><trkpt lat="46.38403950534948" lon="13.1212810360492"><ele>275.0</ele><time>2026-05-01T21:57:57Z</time></trkpt><trkpt lat="46.38383406017697" lon="13.121016960513703"><ele>272.0</ele><time>2026-05-01T21:57:58Z</time></trkpt><trkpt lat="46.38362535725831" lon="13.120759950714008"><ele>269.0</ele><time>2026-05-01T21:57:59Z</time></trkpt><trkpt lat="46.38341414294104" lon="13.12050535192965"><ele>269.0</ele><time>2026-05-01T21:58:00Z</time></trkpt><trkpt lat="46.38320165810096" lon="13.1202568197421"><ele>269.0</ele><time>2026-05-01T21:58:01Z</time></trkpt><trkpt lat="46.3829815586501" lon="13.120020373818246"><ele>275.0</ele><time>2026-05-01T21:58:02Z</time></trkpt><trkpt lat="46.382759639343085" lon="13.119793830740514"><ele>281.0</ele><time>2026-05-01T21:58:03Z</time></trkpt><trkpt lat="46.382534465855635" lon="13.119574536061908"><ele>281.0</ele><time>2026-05-01T21:58:04Z</time></trkpt><trkpt lat="46.38230599370484" lon="13.119365088863951"><ele>281.0</ele><time>2026-05-01T21:58:05Z</time></trkpt><trkpt lat="46.3820741146851" lon="13.119161334007638"><ele>272.5</ele><time>2026-05-01T21:58:06Z</time></trkpt><trkpt lat="46.38184165243" lon="13.118962978875539"><ele>264.0</ele><time>2026-05-01T21:58:07Z</time></trkpt><trkpt lat="46.38160632650381" lon="13.118764709074293"><ele>264.0</ele><time>2026-05-01T21:58:08Z</time></trkpt><trkpt lat="46.38137148784723" lon="13.118563379987584"><ele>264.0</ele><time>2026-05-01T21:58:09Z</time></trkpt><trkpt lat="46.38113993410751" lon="13.118359314279784"><ele>263.5</ele><time>2026-05-01T21:58:10Z</time></trkpt><trkpt lat="46.380904164389015" lon="13.118157529699657"><ele>263.0</ele><time>2026-05-01T21:58:11Z</time></trkpt><trkpt lat="46.38067181633531" lon="13.117950537268014"><ele>263.0</ele><time>2026-05-01T21:58:12Z</time></trkpt><trkpt lat="46.38044495709792" lon="13.11773910039905"><ele>263.0</ele><time>2026-05-01T21:58:13Z</time></trkpt><trkpt lat="46.38022375838301" lon="13.117519722763616"><ele>261.5</ele><time>2026-05-01T21:58:14Z</time></trkpt><trkpt lat="46.38000337685947" lon="13.117293527130029"><ele>260.0</ele><time>2026-05-01T21:58:15Z</time></trkpt><trkpt lat="46.37978635670814" lon="13.117056962871395"><ele>260.5</ele><time>2026-05-01T21:58:16Z</time></trkpt><trkpt lat="46.37957510578541" lon="13.116808980919052"><ele>261.0</ele><time>2026-05-01T21:58:17Z</time></trkpt><trkpt lat="46.37936904362833" lon="13.116551797825936"><ele>260.0</ele><time>2026-05-01T21:58:18Z</time></trkpt><trkpt lat="46.37916812167596" lon="13.116286145927818"><ele>259.0</ele><time>2026-05-01T21:58:19Z</time></trkpt><trkpt lat="46.378972707079775" lon="13.116017612278233"><ele>259.0</ele><time>2026-05-01T21:58:20Z</time></trkpt><trkpt lat="46.37878316544466" lon="13.115740294556286"><ele>259.0</ele><time>2026-05-01T21:58:21Z</time></trkpt><trkpt lat="46.37860058637867" lon="13.115456772768418"><ele>258.5</ele><time>2026-05-01T21:58:22Z</time></trkpt><trkpt lat="46.378426787161544" lon="13.115164749097229"><ele>258.0</ele><time>2026-05-01T21:58:23Z</time></trkpt><trkpt lat="46.378260721506464" lon="13.114865811182515"><ele>258.5</ele><time>2026-05-01T21:58:24Z</time></trkpt><trkpt lat="46.3781033049886" lon="13.114563301815737"><ele>259.0</ele><time>2026-05-01T21:58:25Z</time></trkpt><trkpt lat="46.37795230124994" lon="13.114257334498456"><ele>258.5</ele><time>2026-05-01T21:58:26Z</time></trkpt><trkpt lat="46.377807273052476" lon="13.113944347988074"><ele>258.0</ele><time>2026-05-01T21:58:27Z</time></trkpt><trkpt lat="46.3776694339615" lon="13.113625300003624"><ele>258.0</ele><time>2026-05-01T21:58:28Z</time></trkpt><trkpt lat="46.37753715032663" lon="13.113298113256747"><ele>258.0</ele><time>2026-05-01T21:58:29Z</time></trkpt><trkpt lat="46.37741196086061" lon="13.112968201314917"><ele>258.0</ele><time>2026-05-01T21:58:30Z</time></trkpt><trkpt lat="46.37729164457425" lon="13.11263747673781"><ele>258.0</ele><time>2026-05-01T21:58:31Z</time></trkpt><trkpt lat="46.37717489916785" lon="13.11230540572486"><ele>258.0</ele><time>2026-05-01T21:58:32Z</time></trkpt><trkpt lat="46.37706420393569" lon="13.111964943610896"><ele>258.0</ele><time>2026-05-01T21:58:33Z</time></trkpt><trkpt lat="46.37695363543158" lon="13.111628600214894"><ele>258.5</ele><time>2026-05-01T21:58:34Z</time></trkpt><trkpt lat="46.376848414111095" lon="13.111289133846377"><ele>259.0</ele><time>2026-05-01T21:58:35Z</time></trkpt><trkpt lat="46.37674415608867" lon="13.110952977606866"><ele>259.0</ele><time>2026-05-01T21:58:36Z</time></trkpt><trkpt lat="46.376642335666865" lon="13.110612633243464"><ele>259.0</ele><time>2026-05-01T21:58:37Z</time></trkpt><trkpt lat="46.37654052035795" lon="13.11027553147941"><ele>259.0</ele><time>2026-05-01T21:58:38Z</time></trkpt><trkpt lat="46.376440222930704" lon="13.109937556960505"><ele>259.0</ele><time>2026-05-01T21:58:39Z</time></trkpt><trkpt lat="46.37633855839758" lon="13.109602782704036"><ele>258.5</ele><time>2026-05-01T21:58:40Z</time></trkpt><trkpt lat="46.37623249968375" lon="13.109270764525721"><ele>258.0</ele><time>2026-05-01T21:58:41Z</time></trkpt><trkpt lat="46.37611969154414" lon="13.108944206093803"><ele>258.0</ele><time>2026-05-01T21:58:42Z</time></trkpt><trkpt lat="46.375997460901836" lon="13.108630918392967"><ele>258.0</ele><time>2026-05-01T21:58:43Z</time></trkpt><trkpt lat="46.37587295029138" lon="13.108318927757045"><ele>259.0</ele><time>2026-05-01T21:58:44Z</time></trkpt><trkpt lat="46.37574424504069" lon="13.108013535052685"><ele>260.0</ele><time>2026-05-01T21:58:45Z</time></trkpt><trkpt lat="46.37561376216126" lon="13.107712131856319"><ele>258.0</ele><time>2026-05-01T21:58:46Z</time></trkpt><trkpt lat="46.37547648904428" lon="13.107414764873248"><ele>256.0</ele><time>2026-05-01T21:58:47Z</time></trkpt><trkpt lat="46.37533590967842" lon="13.107121174725684"><ele>256.0</ele><time>2026-05-01T21:58:48Z</time></trkpt><trkpt lat="46.375193614654236" lon="13.106831417676593"><ele>256.0</ele><time>2026-05-01T21:58:49Z</time></trkpt><trkpt lat="46.3750441643205" lon="13.106550132949298"><ele>257.0</ele><time>2026-05-01T21:58:50Z</time></trkpt><trkpt lat="46.37488877306849" lon="13.106276347736728"><ele>258.0</ele><time>2026-05-01T21:58:51Z</time></trkpt><trkpt lat="46.37472871264892" lon="13.105999733568405"><ele>257.0</ele><time>2026-05-01T21:58:52Z</time></trkpt><trkpt lat="46.37456514453094" lon="13.105724870959637"><ele>256.0</ele><time>2026-05-01T21:58:53Z</time></trkpt><trkpt lat="46.37440678959272" lon="13.105446003731664"><ele>256.0</ele><time>2026-05-01T21:58:54Z</time></trkpt><trkpt lat="46.37424165844522" lon="13.105170788756574"><ele>256.0</ele><time>2026-05-01T21:58:55Z</time></trkpt><trkpt lat="46.37407563669171" lon="13.104895020071634"><ele>255.5</ele><time>2026-05-01T21:58:56Z</time></trkpt><trkpt lat="46.37390897433572" lon="13.104618088191147"><ele>255.0</ele><time>2026-05-01T21:58:57Z</time></trkpt><trkpt lat="46.373743262199085" lon="13.104339781967717"><ele>257.0</ele><time>2026-05-01T21:58:58Z</time></trkpt><trkpt lat="46.37357864317206" lon="13.104059157428702"><ele>259.0</ele><time>2026-05-01T21:58:59Z</time></trkpt><trkpt lat="46.37341628326983" lon="13.103776994634082"><ele>259.0</ele><time>2026-05-01T21:59:00Z</time></trkpt><trkpt lat="46.373258219604345" lon="13.103489700909995"><ele>259.0</ele><time>2026-05-01T21:59:01Z</time></trkpt><trkpt lat="46.37310499242485" lon="13.103197451031955"><ele>260.0</ele><time>2026-05-01T21:59:02Z</time></trkpt><trkpt lat="46.37295999093325" lon="13.102897767762434"><ele>261.0</ele><time>2026-05-01T21:59:03Z</time></trkpt><trkpt lat="46.372815797146494" lon="13.102594407686802"><ele>265.5</ele><time>2026-05-01T21:59:04Z</time></trkpt><trkpt lat="46.372678936974076" lon="13.102286478039117"><ele>270.0</ele><time>2026-05-01T21:59:05Z</time></trkpt><trkpt lat="46.37254916495357" lon="13.101974839216963"><ele>270.0</ele><time>2026-05-01T21:59:06Z</time></trkpt><trkpt lat="46.37242640694574" lon="13.10165464792007"><ele>270.0</ele><time>2026-05-01T21:59:07Z</time></trkpt><trkpt lat="46.3723123786752" lon="13.101329564307372"><ele>271.5</ele><time>2026-05-01T21:59:08Z</time></trkpt><trkpt lat="46.37220452204229" lon="13.101001045168443"><ele>273.0</ele><time>2026-05-01T21:59:09Z</time></trkpt><trkpt lat="46.37210261258854" lon="13.10066929083112"><ele>266.0</ele><time>2026-05-01T21:59:10Z</time></trkpt><trkpt lat="46.37200461691841" lon="13.100333978993229"><ele>259.0</ele><time>2026-05-01T21:59:11Z</time></trkpt><trkpt lat="46.37191241162846" lon="13.099996532928346"><ele>259.5</ele><time>2026-05-01T21:59:12Z</time></trkpt><trkpt lat="46.37182723865927" lon="13.09965388467921"><ele>260.0</ele><time>2026-05-01T21:59:13Z</time></trkpt><trkpt lat="46.37174647188258" lon="13.099308968107481"><ele>262.0</ele><time>2026-05-01T21:59:14Z</time></trkpt><trkpt lat="46.371671177273655" lon="13.09896158807801"><ele>264.0</ele><time>2026-05-01T21:59:15Z</time></trkpt><trkpt lat="46.37160037365274" lon="13.098608928406424"><ele>264.0</ele><time>2026-05-01T21:59:16Z</time></trkpt><trkpt lat="46.371534708346736" lon="13.09825654985385"><ele>264.0</ele><time>2026-05-01T21:59:17Z</time></trkpt><trkpt lat="46.37147154389285" lon="13.097900342570375"><ele>264.5</ele><time>2026-05-01T21:59:18Z</time></trkpt><trkpt lat="46.371410314824104" lon="13.097546395557456"><ele>265.0</ele><time>2026-05-01T21:59:19Z</time></trkpt><trkpt lat="46.37135289762644" lon="13.097210012499305"><ele>263.5</ele><time>2026-05-01T21:59:20Z</time></trkpt><trkpt lat="46.371296822431695" lon="13.096870529272747"><ele>262.0</ele><time>2026-05-01T21:59:21Z</time></trkpt><trkpt lat="46.37123907307787" lon="13.096522658097992"><ele>262.0</ele><time>2026-05-01T21:59:22Z</time></trkpt><trkpt lat="46.37118248367691" lon="13.096169367801735"><ele>262.0</ele><time>2026-05-01T21:59:23Z</time></trkpt><trkpt lat="46.37112351240179" lon="13.095816009472601"><ele>263.5</ele><time>2026-05-01T21:59:24Z</time></trkpt><trkpt lat="46.371060672745074" lon="13.095458117291296"><ele>265.0</ele><time>2026-05-01T21:59:25Z</time></trkpt><trkpt lat="46.370996287572325" lon="13.095100452949675"><ele>267.5</ele><time>2026-05-01T21:59:26Z</time></trkpt><trkpt lat="46.37093086077382" lon="13.094741603669174"><ele>270.0</ele><time>2026-05-01T21:59:27Z</time></trkpt><trkpt lat="46.370865297453776" lon="13.09437969408052"><ele>272.0</ele><time>2026-05-01T21:59:28Z</time></trkpt><trkpt lat="46.37079820129258" lon="13.094016714460505"><ele>274.0</ele><time>2026-05-01T21:59:29Z</time></trkpt><trkpt lat="46.37073176344659" lon="13.093655296726691"><ele>274.0</ele><time>2026-05-01T21:59:30Z</time></trkpt><trkpt lat="46.370666320711834" lon="13.093292643136861"><ele>274.0</ele><time>2026-05-01T21:59:31Z</time></trkpt><trkpt lat="46.370600135980276" lon="13.092928529990962"><ele>275.0</ele><time>2026-05-01T21:59:32Z</time></trkpt><trkpt lat="46.37053614477046" lon="13.09256407511514"><ele>276.0</ele><time>2026-05-01T21:59:33Z</time></trkpt><trkpt lat="46.37047228831643" lon="13.092200205522781"><ele>274.5</ele><time>2026-05-01T21:59:34Z</time></trkpt><trkpt lat="46.37040750480266" lon="13.091839509240028"><ele>273.0</ele><time>2026-05-01T21:59:35Z</time></trkpt><trkpt lat="46.37033987317569" lon="13.091479177930431"><ele>273.0</ele><time>2026-05-01T21:59:36Z</time></trkpt><trkpt lat="46.37026995069958" lon="13.091118162093004"><ele>273.0</ele><time>2026-05-01T21:59:37Z</time></trkpt><trkpt lat="46.37019647216162" lon="13.090757112421048"><ele>272.5</ele><time>2026-05-01T21:59:38Z</time></trkpt><trkpt lat="46.37011757492491" lon="13.09039795631004"><ele>272.0</ele><time>2026-05-01T21:59:39Z</time></trkpt><trkpt lat="46.37003530069412" lon="13.090039236202538"><ele>273.0</ele><time>2026-05-01T21:59:40Z</time></trkpt><trkpt lat="46.369947422639235" lon="13.089680202333192"><ele>274.0</ele><time>2026-05-01T21:59:41Z</time></trkpt><trkpt lat="46.36985586606883" lon="13.089324480669568"><ele>274.5</ele><time>2026-05-01T21:59:42Z</time></trkpt><trkpt lat="46.36976088816116" lon="13.088969906287366"><ele>275.0</ele><time>2026-05-01T21:59:43Z</time></trkpt><trkpt lat="46.36966315391982" lon="13.088615854505756"><ele>272.5</ele><time>2026-05-01T21:59:44.001Z</time></trkpt><trkpt lat="46.36956417087692" lon="13.088264543587199"><ele>270.0</ele><time>2026-05-01T21:59:45.001Z</time></trkpt><trkpt lat="46.36946392988567" lon="13.087913909813865"><ele>270.0</ele><time>2026-05-01T21:59:46Z</time></trkpt><trkpt lat="46.36935712932992" lon="13.087563344764382"><ele>270.0</ele><time>2026-05-01T21:59:47Z</time></trkpt><trkpt lat="46.36924792899893" lon="13.087215478715517"><ele>270.0</ele><time>2026-05-01T21:59:48Z</time></trkpt><trkpt lat="46.369134858474204" lon="13.08686905973427"><ele>270.0</ele><time>2026-05-01T21:59:49Z</time></trkpt><trkpt lat="46.36901667040916" lon="13.08652665856355"><ele>270.5</ele><time>2026-05-01T21:59:50Z</time></trkpt><trkpt lat="46.36889660941398" lon="13.086184775958664"><ele>271.0</ele><time>2026-05-01T21:59:51Z</time></trkpt><trkpt lat="46.36877431135569" lon="13.085845316345631"><ele>269.5</ele><time>2026-05-01T21:59:52Z</time></trkpt><trkpt lat="46.36864932560286" lon="13.085504888995535"><ele>268.0</ele><time>2026-05-01T21:59:53Z</time></trkpt><trkpt lat="46.36852608193754" lon="13.085163843760384"><ele>270.5</ele><time>2026-05-01T21:59:54Z</time></trkpt><trkpt lat="46.36840389841535" lon="13.08482387875907"><ele>273.0</ele><time>2026-05-01T21:59:55Z</time></trkpt><trkpt lat="46.36828047761311" lon="13.084481193723512"><ele>273.0</ele><time>2026-05-01T21:59:56Z</time></trkpt><trkpt lat="46.36816011175484" lon="13.084139280865255"><ele>273.0</ele><time>2026-05-01T21:59:57Z</time></trkpt><trkpt lat="46.36803885319909" lon="13.083799302038722"><ele>269.0</ele><time>2026-05-01T21:59:58Z</time></trkpt><trkpt lat="46.36791580120877" lon="13.083460908030771"><ele>265.0</ele><time>2026-05-01T21:59:59Z</time></trkpt><trkpt lat="46.367793296904175" lon="13.083125480073988"><ele>265.0</ele><time>2026-05-01T22:00:00Z</time></trkpt><trkpt lat="46.367671265898046" lon="13.082788743882007"><ele>265.0</ele><time>2026-05-01T22:00:01Z</time></trkpt><trkpt lat="46.36754932523518" lon="13.082455270484918"><ele>264.0</ele><time>2026-05-01T22:00:02Z</time></trkpt><trkpt lat="46.36742595681225" lon="13.082121874845152"><ele>263.0</ele><time>2026-05-01T22:00:03Z</time></trkpt><trkpt lat="46.36730103675205" lon="13.081790865587905"><ele>263.0</ele><time>2026-05-01T22:00:04Z</time></trkpt><trkpt lat="46.36717361433665" lon="13.081464573717442"><ele>263.0</ele><time>2026-05-01T22:00:05Z</time></trkpt><trkpt lat="46.36704433706984" lon="13.081140203958464"><ele>263.0</ele><time>2026-05-01T22:00:06Z</time></trkpt><trkpt lat="46.36691018620705" lon="13.080824679052762"><ele>263.0</ele><time>2026-05-01T22:00:07Z</time></trkpt><trkpt lat="46.36677502308191" lon="13.080512164256614"><ele>263.0</ele><time>2026-05-01T22:00:08Z</time></trkpt><trkpt lat="46.366637816615366" lon="13.080203261802206"><ele>263.0</ele><time>2026-05-01T22:00:09Z</time></trkpt><trkpt lat="46.36649800124694" lon="13.079898341440149"><ele>264.5</ele><time>2026-05-01T22:00:10Z</time></trkpt><trkpt lat="46.36635523682391" lon="13.079598884128677"><ele>266.0</ele><time>2026-05-01T22:00:11Z</time></trkpt><trkpt lat="46.366210662174545" lon="13.079299721470328"><ele>266.0</ele><time>2026-05-01T22:00:12Z</time></trkpt><trkpt lat="46.36606242041443" lon="13.079003859342777"><ele>266.0</ele><time>2026-05-01T22:00:13Z</time></trkpt><trkpt lat="46.36591079055138" lon="13.078711901719249"><ele>266.0</ele><time>2026-05-01T22:00:14Z</time></trkpt><trkpt lat="46.365755856630734" lon="13.078425269979373"><ele>266.0</ele><time>2026-05-01T22:00:15Z</time></trkpt><trkpt lat="46.365595992582165" lon="13.078141258780802"><ele>265.5</ele><time>2026-05-01T22:00:16Z</time></trkpt><trkpt lat="46.36543291481478" lon="13.077860648994973"><ele>265.0</ele><time>2026-05-01T22:00:17Z</time></trkpt><trkpt lat="46.36526898200964" lon="13.077582030483901"><ele>265.5</ele><time>2026-05-01T22:00:18Z</time></trkpt><trkpt lat="46.36510193178871" lon="13.077303631286991"><ele>266.0</ele><time>2026-05-01T22:00:19Z</time></trkpt><trkpt lat="46.364937349568976" lon="13.077026993131174"><ele>266.0</ele><time>2026-05-01T22:00:20Z</time></trkpt><trkpt lat="46.3647669108358" lon="13.076753966047582"><ele>266.0</ele><time>2026-05-01T22:00:21Z</time></trkpt><trkpt lat="46.364593158841" lon="13.076483300177097"><ele>266.0</ele><time>2026-05-01T22:00:22Z</time></trkpt><trkpt lat="46.36441713792576" lon="13.076216210980723"><ele>266.0</ele><time>2026-05-01T22:00:23Z</time></trkpt><trkpt lat="46.36423748858311" lon="13.075956468460054"><ele>266.0</ele><time>2026-05-01T22:00:24Z</time></trkpt><trkpt lat="46.36405371208634" lon="13.075701784253134"><ele>266.0</ele><time>2026-05-01T22:00:25Z</time></trkpt><trkpt lat="46.363867025849274" lon="13.075450553197658"><ele>266.0</ele><time>2026-05-01T22:00:26Z</time></trkpt><trkpt lat="46.363677456044925" lon="13.075204357192442"><ele>266.0</ele><time>2026-05-01T22:00:27Z</time></trkpt><trkpt lat="46.3634875379164" lon="13.074962239198967"><ele>265.5</ele><time>2026-05-01T22:00:28Z</time></trkpt><trkpt lat="46.36329265447438" lon="13.074726025132742"><ele>265.0</ele><time>2026-05-01T22:00:29Z</time></trkpt><trkpt lat="46.363097564337764" lon="13.074488401801823"><ele>263.0</ele><time>2026-05-01T22:00:30Z</time></trkpt><trkpt lat="46.362901600449604" lon="13.074258450993625"><ele>261.0</ele><time>2026-05-01T22:00:31Z</time></trkpt><trkpt lat="46.362703791611004" lon="13.074025627235288"><ele>260.5</ele><time>2026-05-01T22:00:32Z</time></trkpt><trkpt lat="46.362501824670325" lon="13.07380048936813"><ele>260.0</ele><time>2026-05-01T22:00:33Z</time></trkpt><trkpt lat="46.36229774601104" lon="13.073575915320745"><ele>259.5</ele><time>2026-05-01T22:00:34Z</time></trkpt><trkpt lat="46.36209007561143" lon="13.073353585946153"><ele>259.0</ele><time>2026-05-01T22:00:35Z</time></trkpt><trkpt lat="46.3618817992691" lon="13.073133404089642"><ele>258.5</ele><time>2026-05-01T22:00:36Z</time></trkpt><trkpt lat="46.36167226420404" lon="13.07291515167704"><ele>258.0</ele><time>2026-05-01T22:00:37Z</time></trkpt><trkpt lat="46.36146195873765" lon="13.07269778192209"><ele>259.0</ele><time>2026-05-01T22:00:38Z</time></trkpt><trkpt lat="46.36125065143385" lon="13.07248481192651"><ele>260.0</ele><time>2026-05-01T22:00:39Z</time></trkpt><trkpt lat="46.3610380961006" lon="13.072275855102832"><ele>260.0</ele><time>2026-05-01T22:00:40Z</time></trkpt><trkpt lat="46.36082172729106" lon="13.072067894051951"><ele>260.0</ele><time>2026-05-01T22:00:41Z</time></trkpt><trkpt lat="46.36060614554637" lon="13.071868469619861"><ele>260.0</ele><time>2026-05-01T22:00:42Z</time></trkpt><trkpt lat="46.36038917220694" lon="13.071670879315034"><ele>260.0</ele><time>2026-05-01T22:00:43Z</time></trkpt><trkpt lat="46.360173233180866" lon="13.071476957390615"><ele>260.0</ele><time>2026-05-01T22:00:44Z</time></trkpt><trkpt lat="46.359955766595576" lon="13.071284110398409"><ele>260.0</ele><time>2026-05-01T22:00:45Z</time></trkpt><trkpt lat="46.35973958796217" lon="13.071093202172564"><ele>261.0</ele><time>2026-05-01T22:00:46Z</time></trkpt><trkpt lat="46.35952054119309" lon="13.07091075456378"><ele>262.0</ele><time>2026-05-01T22:00:47Z</time></trkpt><trkpt lat="46.35930227619197" lon="13.070724241400903"><ele>262.5</ele><time>2026-05-01T22:00:48Z</time></trkpt><trkpt lat="46.359082919464484" lon="13.070545971993045"><ele>263.0</ele><time>2026-05-01T22:00:49Z</time></trkpt><trkpt lat="46.35886159406641" lon="13.070368943963695"><ele>261.5</ele><time>2026-05-01T22:00:50Z</time></trkpt><trkpt lat="46.35864214167686" lon="13.070195425571539"><ele>260.0</ele><time>2026-05-01T22:00:51Z</time></trkpt><trkpt lat="46.35842112184313" lon="13.07002523118978"><ele>259.5</ele><time>2026-05-01T22:00:52Z</time></trkpt><trkpt lat="46.35819796195015" lon="13.06986042379053"><ele>259.0</ele><time>2026-05-01T22:00:53Z</time></trkpt><trkpt lat="46.35797423313177" lon="13.0696982901639"><ele>270.5</ele><time>2026-05-01T22:00:54Z</time></trkpt><trkpt lat="46.357751864899505" lon="13.069541205313396"><ele>282.0</ele><time>2026-05-01T22:00:55Z</time></trkpt><trkpt lat="46.35753065687642" lon="13.069386367007215"><ele>282.0</ele><time>2026-05-01T22:00:56Z</time></trkpt><trkpt lat="46.35731037856669" lon="13.06923533557772"><ele>282.0</ele><time>2026-05-01T22:00:57Z</time></trkpt><trkpt lat="46.35712100260024" lon="13.06910049849394"><ele>311.5</ele><time>2026-05-01T22:00:58Z</time></trkpt><trkpt lat="46.35693338099272" lon="13.068930786380742"><ele>341.0</ele><time>2026-05-01T22:00:59Z</time></trkpt><trkpt lat="46.356730329195074" lon="13.068757686801153"><ele>341.0</ele><time>2026-05-01T22:01:00Z</time></trkpt><trkpt lat="46.356533773634446" lon="13.068597431045843"><ele>341.0</ele><time>2026-05-01T22:01:01Z</time></trkpt><trkpt lat="46.35633352620743" lon="13.068433279092707"><ele>329.0</ele><time>2026-05-01T22:01:02Z</time></trkpt><trkpt lat="46.35613321408849" lon="13.068268139252467"><ele>317.0</ele><time>2026-05-01T22:01:03Z</time></trkpt><trkpt lat="46.35593340593192" lon="13.068103015041407"><ele>317.0</ele><time>2026-05-01T22:01:04Z</time></trkpt><trkpt lat="46.35573345077975" lon="13.067937890611164"><ele>317.0</ele><time>2026-05-01T22:01:05Z</time></trkpt><trkpt lat="46.35553433268494" lon="13.067772774145046"><ele>297.0</ele><time>2026-05-01T22:01:06Z</time></trkpt><trkpt lat="46.3553346672489" lon="13.067607654976154"><ele>277.0</ele><time>2026-05-01T22:01:07Z</time></trkpt><trkpt lat="46.354719371798744" lon="13.0681236551207"><ele>268.5</ele><time>2026-05-01T22:01:08Z</time></trkpt><trkpt lat="46.35445751909625" lon="13.068071904139506"><ele>260.0</ele><time>2026-05-01T22:01:09Z</time></trkpt><trkpt lat="46.354242739508045" lon="13.068022904637559"><ele>260.0</ele><time>2026-05-01T22:01:10Z</time></trkpt><trkpt lat="46.35397881842021" lon="13.067969944439943"><ele>260.0</ele><time>2026-05-01T22:01:11Z</time></trkpt><trkpt lat="46.353733779497595" lon="13.067935716959173"><ele>258.0</ele><time>2026-05-01T22:01:12Z</time></trkpt><trkpt lat="46.35348588402274" lon="13.067921833619865"><ele>256.0</ele><time>2026-05-01T22:01:13Z</time></trkpt><trkpt lat="46.3532416393541" lon="13.067905713241013"><ele>259.0</ele><time>2026-05-01T22:01:14Z</time></trkpt><trkpt lat="46.352999479642726" lon="13.067891464589671"><ele>262.0</ele><time>2026-05-01T22:01:15Z</time></trkpt><trkpt lat="46.35275033666812" lon="13.067893020880478"><ele>262.0</ele><time>2026-05-01T22:01:16Z</time></trkpt><trkpt lat="46.35249687787592" lon="13.067897874750301"><ele>262.0</ele><time>2026-05-01T22:01:17Z</time></trkpt><trkpt lat="46.35224338044214" lon="13.067918323929211"><ele>263.0</ele><time>2026-05-01T22:01:18Z</time></trkpt><trkpt lat="46.351988657358966" lon="13.067947876316692"><ele>264.0</ele><time>2026-05-01T22:01:19Z</time></trkpt><trkpt lat="46.351741276308175" lon="13.067983530955706"><ele>264.0</ele><time>2026-05-01T22:01:20Z</time></trkpt><trkpt lat="46.351518540101225" lon="13.068053305912105"><ele>264.0</ele><time>2026-05-01T22:01:21Z</time></trkpt><trkpt lat="46.35127195536778" lon="13.068070885695"><ele>264.0</ele><time>2026-05-01T22:01:22Z</time></trkpt><trkpt lat="46.35103468807335" lon="13.068115169726775"><ele>264.0</ele><time>2026-05-01T22:01:23Z</time></trkpt><trkpt lat="46.35079775299958" lon="13.068169310460691"><ele>264.0</ele><time>2026-05-01T22:01:24Z</time></trkpt><trkpt lat="46.350553691011854" lon="13.068237950524015"><ele>264.0</ele><time>2026-05-01T22:01:25Z</time></trkpt><trkpt lat="46.3503101553877" lon="13.06831392584937"><ele>256.5</ele><time>2026-05-01T22:01:26Z</time></trkpt><trkpt lat="46.35007333401993" lon="13.068415062981849"><ele>249.0</ele><time>2026-05-01T22:01:27Z</time></trkpt><trkpt lat="46.349830030369944" lon="13.06852236075979"><ele>242.0</ele><time>2026-05-01T22:01:28Z</time></trkpt><trkpt lat="46.34958305640783" lon="13.068626509956806"><ele>235.0</ele><time>2026-05-01T22:01:29Z</time></trkpt><trkpt lat="46.34933692198485" lon="13.068742072499875"><ele>235.0</ele><time>2026-05-01T22:01:30Z</time></trkpt><trkpt lat="46.34909217052539" lon="13.068848243633258"><ele>235.0</ele><time>2026-05-01T22:01:31Z</time></trkpt><trkpt lat="46.34884561630949" lon="13.0689641122217"><ele>235.0</ele><time>2026-05-01T22:01:32Z</time></trkpt><trkpt lat="46.348594758487096" lon="13.069078612368703"><ele>235.0</ele><time>2026-05-01T22:01:33Z</time></trkpt><trkpt lat="46.34834687555793" lon="13.069202539885323"><ele>235.0</ele><time>2026-05-01T22:01:34Z</time></trkpt><trkpt lat="46.34810131431676" lon="13.06931482146355"><ele>235.0</ele><time>2026-05-01T22:01:35Z</time></trkpt><trkpt lat="46.34785834629736" lon="13.069426195061833"><ele>225.5</ele><time>2026-05-01T22:01:36Z</time></trkpt><trkpt lat="46.347614596734005" lon="13.069536456229812"><ele>216.0</ele><time>2026-05-01T22:01:37Z</time></trkpt><trkpt lat="46.347377225280525" lon="13.069647802151588"><ele>210.5</ele><time>2026-05-01T22:01:38Z</time></trkpt><trkpt lat="46.34713796231307" lon="13.06976501424692"><ele>205.0</ele><time>2026-05-01T22:01:39Z</time></trkpt><trkpt lat="46.34690009777014" lon="13.069871433143266"><ele>210.5</ele><time>2026-05-01T22:01:40Z</time></trkpt><trkpt lat="46.34666155519266" lon="13.069979493316668"><ele>216.0</ele><time>2026-05-01T22:01:41Z</time></trkpt><trkpt lat="46.34641984293986" lon="13.070087320191735"><ele>209.0</ele><time>2026-05-01T22:01:42Z</time></trkpt><trkpt lat="46.34617867749977" lon="13.070192115801323"><ele>202.0</ele><time>2026-05-01T22:01:43Z</time></trkpt><trkpt lat="46.345933169964795" lon="13.070301961474422"><ele>202.0</ele><time>2026-05-01T22:01:44Z</time></trkpt><trkpt lat="46.3456932667881" lon="13.070422982704633"><ele>202.0</ele><time>2026-05-01T22:01:45Z</time></trkpt><trkpt lat="46.34545049780264" lon="13.070532459647662"><ele>198.5</ele><time>2026-05-01T22:01:46Z</time></trkpt><trkpt lat="46.345205293920245" lon="13.07064742507639"><ele>195.0</ele><time>2026-05-01T22:01:47Z</time></trkpt><trkpt lat="46.34495755205233" lon="13.070766279258093"><ele>197.0</ele><time>2026-05-01T22:01:48Z</time></trkpt><trkpt lat="46.344707585089076" lon="13.070877405086534"><ele>199.0</ele><time>2026-05-01T22:01:49Z</time></trkpt><trkpt lat="46.34446108341713" lon="13.07099173968893"><ele>199.0</ele><time>2026-05-01T22:01:50Z</time></trkpt><trkpt lat="46.34421286014108" lon="13.071110085110279"><ele>199.0</ele><time>2026-05-01T22:01:51Z</time></trkpt><trkpt lat="46.343963030979765" lon="13.07121330595272"><ele>198.0</ele><time>2026-05-01T22:01:52Z</time></trkpt><trkpt lat="46.343711616458606" lon="13.071306728064256"><ele>197.0</ele><time>2026-05-01T22:01:53Z</time></trkpt><trkpt lat="46.343453063863585" lon="13.071407526049377"><ele>197.0</ele><time>2026-05-01T22:01:54Z</time></trkpt><trkpt lat="46.34320124662389" lon="13.071481338428947"><ele>197.0</ele><time>2026-05-01T22:01:55Z</time></trkpt><trkpt lat="46.34294587225733" lon="13.07155522502335"><ele>199.0</ele><time>2026-05-01T22:01:56Z</time></trkpt><trkpt lat="46.3426891227342" lon="13.07161975874033"><ele>201.0</ele><time>2026-05-01T22:01:57Z</time></trkpt><trkpt lat="46.34243232251344" lon="13.071673240794834"><ele>200.5</ele><time>2026-05-01T22:01:58Z</time></trkpt><trkpt lat="46.342176005332746" lon="13.07171726046263"><ele>200.0</ele><time>2026-05-01T22:01:59Z</time></trkpt><trkpt lat="46.34192108833726" lon="13.071758381361152"><ele>200.0</ele><time>2026-05-01T22:02:00Z</time></trkpt><trkpt lat="46.3416651335236" lon="13.071784607655793"><ele>200.0</ele><time>2026-05-01T22:02:01Z</time></trkpt><trkpt lat="46.34141009354928" lon="13.071798821402755"><ele>197.5</ele><time>2026-05-01T22:02:02Z</time></trkpt><trkpt lat="46.34115836571543" lon="13.071803466861132"><ele>195.0</ele><time>2026-05-01T22:02:03Z</time></trkpt><trkpt lat="46.34090854619296" lon="13.071809289064559"><ele>195.0</ele><time>2026-05-01T22:02:04Z</time></trkpt><trkpt lat="46.34067091120813" lon="13.071807267949819"><ele>195.0</ele><time>2026-05-01T22:02:05Z</time></trkpt><trkpt lat="46.340454208376975" lon="13.071790072011625"><ele>193.33333333333334</ele><time>2026-05-01T22:02:06Z</time></trkpt><trkpt lat="46.340251897799554" lon="13.071792056288293"><ele>191.66666666666669</ele><time>2026-05-01T22:02:07Z</time></trkpt><trkpt lat="46.34005806014443" lon="13.07177127978346"><ele>190.0</ele><time>2026-05-01T22:02:08Z</time></trkpt><trkpt lat="46.33975448272693" lon="13.071733510584917"><ele>192.5</ele><time>2026-05-01T22:02:09Z</time></trkpt><trkpt lat="46.33951767377061" lon="13.071694616247143"><ele>195.0</ele><time>2026-05-01T22:02:10Z</time></trkpt><trkpt lat="46.33929090860644" lon="13.071640275786022"><ele>197.5</ele><time>2026-05-01T22:02:11Z</time></trkpt><trkpt lat="46.33906506550645" lon="13.071589791438258"><ele>200.0</ele><time>2026-05-01T22:02:12Z</time></trkpt><trkpt lat="46.3388410832113" lon="13.071534343310512"><ele>202.0</ele><time>2026-05-01T22:02:13Z</time></trkpt><trkpt lat="46.33860940774195" lon="13.071462587580701"><ele>204.0</ele><time>2026-05-01T22:02:14Z</time></trkpt><trkpt lat="46.33837848944498" lon="13.071380420575487"><ele>204.0</ele><time>2026-05-01T22:02:15Z</time></trkpt><trkpt lat="46.338147505760105" lon="13.071291016677637"><ele>204.0</ele><time>2026-05-01T22:02:16Z</time></trkpt><trkpt lat="46.337923002569624" lon="13.071201209093218"><ele>213.33333333333331</ele><time>2026-05-01T22:02:17Z</time></trkpt><trkpt lat="46.3377139966732" lon="13.071119676031557"><ele>222.66666666666666</ele><time>2026-05-01T22:02:18Z</time></trkpt><trkpt lat="46.33751354479973" lon="13.071040152142016"><ele>232.0</ele><time>2026-05-01T22:02:19Z</time></trkpt><trkpt lat="46.33732227233502" lon="13.070950884800673"><ele>251.33333333333331</ele><time>2026-05-01T22:02:20Z</time></trkpt><trkpt lat="46.33712066995192" lon="13.070871461555118"><ele>270.6666666666667</ele><time>2026-05-01T22:02:21Z</time></trkpt><trkpt lat="46.336918645880914" lon="13.070786346316462"><ele>290.0</ele><time>2026-05-01T22:02:22Z</time></trkpt><trkpt lat="46.33671958618657" lon="13.070710742120989"><ele>303.0</ele><time>2026-05-01T22:02:23Z</time></trkpt><trkpt lat="46.336518116031904" lon="13.070628769155306"><ele>316.0</ele><time>2026-05-01T22:02:24Z</time></trkpt><trkpt lat="46.33632277476635" lon="13.070547381357786"><ele>329.0</ele><time>2026-05-01T22:02:25Z</time></trkpt><trkpt lat="46.33613049663834" lon="13.070470858947006"><ele>329.33333333333337</ele><time>2026-05-01T22:02:26Z</time></trkpt><trkpt lat="46.33593228514017" lon="13.070389062169225"><ele>329.6666666666667</ele><time>2026-05-01T22:02:27Z</time></trkpt><trkpt lat="46.335735590883004" lon="13.070307637643355"><ele>330.0</ele><time>2026-05-01T22:02:28Z</time></trkpt><trkpt lat="46.33553798713051" lon="13.070225965229127"><ele>330.5</ele><time>2026-05-01T22:02:29Z</time></trkpt><trkpt lat="46.33534038250345" lon="13.070144277877748"><ele>331.0</ele><time>2026-05-01T22:02:30Z</time></trkpt><trkpt lat="46.335381270886025" lon="13.069583389226628"><ele>331.0</ele><time>2026-05-01T22:02:31Z</time></trkpt><trkpt lat="46.335214699530624" lon="13.069433946042667"><ele>331.0</ele><time>2026-05-01T22:02:32Z</time></trkpt><trkpt lat="46.33505047944621" lon="13.069281097325796"><ele>331.0</ele><time>2026-05-01T22:02:33Z</time></trkpt><trkpt lat="46.33488212567243" lon="13.069122367642695"><ele>338.3333333333333</ele><time>2026-05-01T22:02:34Z</time></trkpt><trkpt lat="46.33471257481756" lon="13.068955278464149"><ele>345.6666666666667</ele><time>2026-05-01T22:02:35Z</time></trkpt><trkpt lat="46.33454917143083" lon="13.068789480447773"><ele>353.0</ele><time>2026-05-01T22:02:36Z</time></trkpt><trkpt lat="46.334397508559775" lon="13.068634849907017"><ele>353.0</ele><time>2026-05-01T22:02:37Z</time></trkpt><trkpt lat="46.3342513073781" lon="13.068486570041186"><ele>353.0</ele><time>2026-05-01T22:02:38Z</time></trkpt><trkpt lat="46.334094186206514" lon="13.068332137505713"><ele>353.0</ele><time>2026-05-01T22:02:39Z</time></trkpt><trkpt lat="46.33393631515915" lon="13.068180147902769"><ele>363.0</ele><time>2026-05-01T22:02:40Z</time></trkpt><trkpt lat="46.33377972168817" lon="13.068028337331338"><ele>373.0</ele><time>2026-05-01T22:02:41Z</time></trkpt><trkpt lat="46.3336244797891" lon="13.067876768904432"><ele>383.0</ele><time>2026-05-01T22:02:42Z</time></trkpt><trkpt lat="46.33348367013989" lon="13.067737942583175"><ele>383.0</ele><time>2026-05-01T22:02:43Z</time></trkpt><trkpt lat="46.33334191378142" lon="13.067599746049451"><ele>383.0</ele><time>2026-05-01T22:02:44Z</time></trkpt><trkpt lat="46.33321638129892" lon="13.06747471077093"><ele>383.0</ele><time>2026-05-01T22:02:45Z</time></trkpt><trkpt lat="46.33309539921162" lon="13.067353422090173"><ele>388.75</ele><time>2026-05-01T22:02:46Z</time></trkpt><trkpt lat="46.33298873177454" lon="13.067247091730449"><ele>394.5</ele><time>2026-05-01T22:02:47Z</time></trkpt><trkpt lat="46.3328727827921" lon="13.067132804414245"><ele>400.25</ele><time>2026-05-01T22:02:48Z</time></trkpt><trkpt lat="46.33275684271796" lon="13.067020404490922"><ele>406.0</ele><time>2026-05-01T22:02:49Z</time></trkpt><trkpt lat="46.33264018740815" lon="13.06691157051521"><ele>406.0</ele><time>2026-05-01T22:02:50Z</time></trkpt><trkpt lat="46.33252391113482" lon="13.066798309780596"><ele>406.0</ele><time>2026-05-01T22:02:51Z</time></trkpt><trkpt lat="46.332409781025106" lon="13.066683753427666"><ele>406.0</ele><time>2026-05-01T22:02:52Z</time></trkpt><trkpt lat="46.33229581945916" lon="13.066569485435604"><ele>406.0</ele><time>2026-05-01T22:02:53Z</time></trkpt><trkpt lat="46.332183112748204" lon="13.06645570787353"><ele>410.0</ele><time>2026-05-01T22:02:54Z</time></trkpt><trkpt lat="46.33207401602448" lon="13.066343641276738"><ele>414.0</ele><time>2026-05-01T22:02:55Z</time></trkpt><trkpt lat="46.331957263714514" lon="13.06623042444849"><ele>418.0</ele><time>2026-05-01T22:02:56Z</time></trkpt><trkpt lat="46.33183336966795" lon="13.066111698546889"><ele>422.0</ele><time>2026-05-01T22:02:57.015Z</time></trkpt><trkpt lat="46.325033591332534" lon="13.061272516472382"><ele>352.3333333333333</ele><time>2026-05-01T22:03:41Z</time></trkpt><trkpt lat="46.32487884851648" lon="13.061234836509495"><ele>282.66666666666663</ele><time>2026-05-01T22:03:42Z</time></trkpt><trkpt lat="46.324720261055404" lon="13.061188671746061"><ele>213.0</ele><time>2026-05-01T22:03:43Z</time></trkpt><trkpt lat="46.32456913949634" lon="13.061156299657362"><ele>210.66666666666669</ele><time>2026-05-01T22:03:44Z</time></trkpt><trkpt lat="46.32440875937852" lon="13.061122827368553"><ele>208.33333333333334</ele><time>2026-05-01T22:03:45Z</time></trkpt><trkpt lat="46.32425084301181" lon="13.061090909486529"><ele>206.0</ele><time>2026-05-01T22:03:46Z</time></trkpt><trkpt lat="46.32408786976969" lon="13.061061541461871"><ele>206.0</ele><time>2026-05-01T22:03:47Z</time></trkpt><trkpt lat="46.32392315937685" lon="13.061034307212658"><ele>206.0</ele><time>2026-05-01T22:03:48Z</time></trkpt><trkpt lat="46.323757519298375" lon="13.061009904693186"><ele>206.0</ele><time>2026-05-01T22:03:49Z</time></trkpt><trkpt lat="46.3235901522171" lon="13.060992942576547"><ele>205.66666666666669</ele><time>2026-05-01T22:03:50Z</time></trkpt><trkpt lat="46.32341600700645" lon="13.060974246028517"><ele>205.33333333333331</ele><time>2026-05-01T22:03:51Z</time></trkpt><trkpt lat="46.32324473978586" lon="13.060955479069293"><ele>205.0</ele><time>2026-05-01T22:03:52Z</time></trkpt><trkpt lat="46.323070070021785" lon="13.060943068301455"><ele>204.66666666666666</ele><time>2026-05-01T22:03:53Z</time></trkpt><trkpt lat="46.32287214957202" lon="13.060926904054426"><ele>204.33333333333331</ele><time>2026-05-01T22:03:54Z</time></trkpt><trkpt lat="46.322665877097144" lon="13.06089759104739"><ele>204.0</ele><time>2026-05-01T22:03:55Z</time></trkpt><trkpt lat="46.32245418536725" lon="13.06087026058214"><ele>204.0</ele><time>2026-05-01T22:03:56Z</time></trkpt><trkpt lat="46.3222340669328" lon="13.060847766250316"><ele>204.0</ele><time>2026-05-01T22:03:57Z</time></trkpt><trkpt lat="46.32201271357108" lon="13.060824796440187"><ele>204.0</ele><time>2026-05-01T22:03:58Z</time></trkpt><trkpt lat="46.32177484048317" lon="13.060805443441842"><ele>203.0</ele><time>2026-05-01T22:03:59Z</time></trkpt><trkpt lat="46.32153326429941" lon="13.06077997071549"><ele>202.0</ele><time>2026-05-01T22:04:00Z</time></trkpt><trkpt lat="46.32128459969473" lon="13.060749977416352"><ele>201.5</ele><time>2026-05-01T22:04:01Z</time></trkpt><trkpt lat="46.32103017348034" lon="13.060708627044074"><ele>201.0</ele><time>2026-05-01T22:04:02Z</time></trkpt><trkpt lat="46.320789232583735" lon="13.060677580306981"><ele>200.0</ele><time>2026-05-01T22:04:03Z</time></trkpt><trkpt lat="46.320546874868306" lon="13.060645070934951"><ele>199.0</ele><time>2026-05-01T22:04:04Z</time></trkpt><trkpt lat="46.32031110464999" lon="13.060617708717771"><ele>199.0</ele><time>2026-05-01T22:04:05Z</time></trkpt><trkpt lat="46.32002268079261" lon="13.060564783977204"><ele>199.0</ele><time>2026-05-01T22:04:06Z</time></trkpt><trkpt lat="46.31975140654794" lon="13.060514433565073"><ele>198.0</ele><time>2026-05-01T22:04:07Z</time></trkpt><trkpt lat="46.31948515815862" lon="13.060477465978803"><ele>197.0</ele><time>2026-05-01T22:04:08Z</time></trkpt><trkpt lat="46.31921724626381" lon="13.060430290792858"><ele>197.0</ele><time>2026-05-01T22:04:09Z</time></trkpt><trkpt lat="46.31894425491018" lon="13.060390039302444"><ele>197.0</ele><time>2026-05-01T22:04:10Z</time></trkpt><trkpt lat="46.31866819346137" lon="13.060357541830314"><ele>197.0</ele><time>2026-05-01T22:04:11Z</time></trkpt><trkpt lat="46.31839392893205" lon="13.0603229249572"><ele>197.0</ele><time>2026-05-01T22:04:12Z</time></trkpt><trkpt lat="46.318120417152485" lon="13.060287586069649"><ele>197.5</ele><time>2026-05-01T22:04:13Z</time></trkpt><trkpt lat="46.31784383027299" lon="13.060249860693153"><ele>198.0</ele><time>2026-05-01T22:04:14Z</time></trkpt><trkpt lat="46.31756616209474" lon="13.060206054382586"><ele>198.0</ele><time>2026-05-01T22:04:15Z</time></trkpt><trkpt lat="46.317288324591416" lon="13.060165652641457"><ele>198.0</ele><time>2026-05-01T22:04:16Z</time></trkpt><trkpt lat="46.31701009315817" lon="13.060126211044551"><ele>197.5</ele><time>2026-05-01T22:04:17Z</time></trkpt><trkpt lat="46.3167306306274" lon="13.060090902996492"><ele>197.0</ele><time>2026-05-01T22:04:18Z</time></trkpt><trkpt lat="46.31644363485312" lon="13.06005390322901"><ele>198.5</ele><time>2026-05-01T22:04:19Z</time></trkpt><trkpt lat="46.316161132030025" lon="13.060013821861112"><ele>200.0</ele><time>2026-05-01T22:04:20Z</time></trkpt><trkpt lat="46.315881130695814" lon="13.059980157505455"><ele>200.0</ele><time>2026-05-01T22:04:21Z</time></trkpt><trkpt lat="46.31559841944331" lon="13.059938978455412"><ele>200.0</ele><time>2026-05-01T22:04:22Z</time></trkpt><trkpt lat="46.31531588045354" lon="13.059904385234395"><ele>200.0</ele><time>2026-05-01T22:04:23Z</time></trkpt><trkpt lat="46.315028948737805" lon="13.05986365784417"><ele>200.0</ele><time>2026-05-01T22:04:24Z</time></trkpt><trkpt lat="46.31474109491025" lon="13.059825096208973"><ele>200.0</ele><time>2026-05-01T22:04:25Z</time></trkpt><trkpt lat="46.314453525913" lon="13.059788389097632"><ele>200.0</ele><time>2026-05-01T22:04:26Z</time></trkpt><trkpt lat="46.31416458228476" lon="13.059745817847194"><ele>199.5</ele><time>2026-05-01T22:04:27Z</time></trkpt><trkpt lat="46.31386626152921" lon="13.059697486241026"><ele>199.0</ele><time>2026-05-01T22:04:28Z</time></trkpt><trkpt lat="46.313577647694984" lon="13.059653904402184"><ele>199.0</ele><time>2026-05-01T22:04:29Z</time></trkpt><trkpt lat="46.31328875778981" lon="13.059612825862025"><ele>199.0</ele><time>2026-05-01T22:04:30Z</time></trkpt><trkpt lat="46.312995136582124" lon="13.059577236823761"><ele>199.0</ele><time>2026-05-01T22:04:31Z</time></trkpt><trkpt lat="46.31270585954121" lon="13.059550958667472"><ele>199.0</ele><time>2026-05-01T22:04:32Z</time></trkpt><trkpt lat="46.312418169377096" lon="13.059523515741107"><ele>200.0</ele><time>2026-05-01T22:04:33Z</time></trkpt><trkpt lat="46.3121297347114" lon="13.059511239251522"><ele>201.0</ele><time>2026-05-01T22:04:34Z</time></trkpt><trkpt lat="46.31183756943636" lon="13.059504819740626"><ele>201.0</ele><time>2026-05-01T22:04:35Z</time></trkpt><trkpt lat="46.31155209255856" lon="13.059504012391962"><ele>201.0</ele><time>2026-05-01T22:04:36Z</time></trkpt><trkpt lat="46.31126315943892" lon="13.059501004664218"><ele>203.0</ele><time>2026-05-01T22:04:37Z</time></trkpt><trkpt lat="46.310977993771566" lon="13.059507070393849"><ele>205.0</ele><time>2026-05-01T22:04:38Z</time></trkpt><trkpt lat="46.310689536361906" lon="13.059518716610565"><ele>205.0</ele><time>2026-05-01T22:04:39Z</time></trkpt><trkpt lat="46.31040368505191" lon="13.059539326240149"><ele>205.0</ele><time>2026-05-01T22:04:40Z</time></trkpt><trkpt lat="46.3101171986578" lon="13.059558924677027"><ele>205.0</ele><time>2026-05-01T22:04:41Z</time></trkpt><trkpt lat="46.309829710146126" lon="13.059590828206545"><ele>205.0</ele><time>2026-05-01T22:04:42Z</time></trkpt><trkpt lat="46.30954198986279" lon="13.05962772995263"><ele>205.0</ele><time>2026-05-01T22:04:43Z</time></trkpt><trkpt lat="46.30925579202594" lon="13.059668033682462"><ele>205.0</ele><time>2026-05-01T22:04:44Z</time></trkpt><trkpt lat="46.308969634177195" lon="13.059711124884291"><ele>203.5</ele><time>2026-05-01T22:04:45Z</time></trkpt><trkpt lat="46.30868190264464" lon="13.0597597952296"><ele>202.0</ele><time>2026-05-01T22:04:46Z</time></trkpt><trkpt lat="46.308393532384244" lon="13.059818317384593"><ele>202.0</ele><time>2026-05-01T22:04:47Z</time></trkpt><trkpt lat="46.30810765045486" lon="13.059879385752032"><ele>202.0</ele><time>2026-05-01T22:04:48Z</time></trkpt><trkpt lat="46.3078215228284" lon="13.059952318694902"><ele>203.5</ele><time>2026-05-01T22:04:49Z</time></trkpt><trkpt lat="46.30753484899144" lon="13.060026312601599"><ele>205.0</ele><time>2026-05-01T22:04:50Z</time></trkpt><trkpt lat="46.30724995911682" lon="13.060105396738887"><ele>202.5</ele><time>2026-05-01T22:04:51Z</time></trkpt><trkpt lat="46.30696411651512" lon="13.060191623264908"><ele>200.0</ele><time>2026-05-01T22:04:52Z</time></trkpt><trkpt lat="46.30668092790602" lon="13.06027703276199"><ele>198.5</ele><time>2026-05-01T22:04:53Z</time></trkpt><trkpt lat="46.30639691782158" lon="13.060359466740131"><ele>197.0</ele><time>2026-05-01T22:04:54Z</time></trkpt><trkpt lat="46.30611261014174" lon="13.06044622709651"><ele>197.0</ele><time>2026-05-01T22:04:55Z</time></trkpt><trkpt lat="46.30582552182824" lon="13.060528721337743"><ele>197.0</ele><time>2026-05-01T22:04:56Z</time></trkpt><trkpt lat="46.305541702327425" lon="13.06060973761144"><ele>197.0</ele><time>2026-05-01T22:04:57Z</time></trkpt><trkpt lat="46.30525725952057" lon="13.060697877833007"><ele>197.0</ele><time>2026-05-01T22:04:58Z</time></trkpt><trkpt lat="46.30497264028656" lon="13.060783692129506"><ele>197.0</ele><time>2026-05-01T22:04:59Z</time></trkpt><trkpt lat="46.304689596147725" lon="13.060866611969079"><ele>197.0</ele><time>2026-05-01T22:05:00Z</time></trkpt><trkpt lat="46.304405355031236" lon="13.06095758102834"><ele>197.0</ele><time>2026-05-01T22:05:01Z</time></trkpt><trkpt lat="46.30411918573975" lon="13.061043221210952"><ele>197.0</ele><time>2026-05-01T22:05:02Z</time></trkpt><trkpt lat="46.303837683264305" lon="13.06113260076572"><ele>197.0</ele><time>2026-05-01T22:05:03Z</time></trkpt><trkpt lat="46.30355559116548" lon="13.061217229908417"><ele>197.0</ele><time>2026-05-01T22:05:04Z</time></trkpt><trkpt lat="46.30327588704192" lon="13.061307833319233"><ele>194.5</ele><time>2026-05-01T22:05:05Z</time></trkpt><trkpt lat="46.30299567552524" lon="13.061390764789609"><ele>192.0</ele><time>2026-05-01T22:05:06Z</time></trkpt><trkpt lat="46.3027162913021" lon="13.061468724235281"><ele>192.0</ele><time>2026-05-01T22:05:07Z</time></trkpt><trkpt lat="46.30243842848825" lon="13.061556930537742"><ele>192.0</ele><time>2026-05-01T22:05:08Z</time></trkpt><trkpt lat="46.30215811348696" lon="13.061633082023777"><ele>193.0</ele><time>2026-05-01T22:05:09Z</time></trkpt><trkpt lat="46.30188165372348" lon="13.0617091841066"><ele>194.0</ele><time>2026-05-01T22:05:10Z</time></trkpt><trkpt lat="46.301604948493114" lon="13.06179814379576"><ele>194.5</ele><time>2026-05-01T22:05:11Z</time></trkpt><trkpt lat="46.30132570726451" lon="13.061882158117882"><ele>195.0</ele><time>2026-05-01T22:05:12Z</time></trkpt><trkpt lat="46.301051662212075" lon="13.06196559352091"><ele>195.0</ele><time>2026-05-01T22:05:13Z</time></trkpt><trkpt lat="46.30077715737034" lon="13.062053026551114"><ele>195.0</ele><time>2026-05-01T22:05:14Z</time></trkpt><trkpt lat="46.30050266319165" lon="13.062137205235162"><ele>194.5</ele><time>2026-05-01T22:05:15Z</time></trkpt><trkpt lat="46.30022754897327" lon="13.062224635982215"><ele>194.0</ele><time>2026-05-01T22:05:16Z</time></trkpt><trkpt lat="46.299954993732634" lon="13.062313178506331"><ele>193.5</ele><time>2026-05-01T22:05:17Z</time></trkpt><trkpt lat="46.29968011835316" lon="13.062394859699124"><ele>193.0</ele><time>2026-05-01T22:05:18Z</time></trkpt><trkpt lat="46.29940775593495" lon="13.062478825687876"><ele>193.0</ele><time>2026-05-01T22:05:19Z</time></trkpt><trkpt lat="46.29913628836273" lon="13.062553421110676"><ele>193.0</ele><time>2026-05-01T22:05:20Z</time></trkpt><trkpt lat="46.29886445763516" lon="13.062635763105469"><ele>192.0</ele><time>2026-05-01T22:05:21Z</time></trkpt><trkpt lat="46.29859442471998" lon="13.0627138454617"><ele>191.0</ele><time>2026-05-01T22:05:22Z</time></trkpt><trkpt lat="46.298327202179635" lon="13.062790335499349"><ele>191.5</ele><time>2026-05-01T22:05:23Z</time></trkpt><trkpt lat="46.29805740720579" lon="13.062869518207089"><ele>192.0</ele><time>2026-05-01T22:05:24Z</time></trkpt><trkpt lat="46.29778942606624" lon="13.062944974315968"><ele>192.0</ele><time>2026-05-01T22:05:25Z</time></trkpt><trkpt lat="46.2975229075186" lon="13.063025673284672"><ele>192.0</ele><time>2026-05-01T22:05:26Z</time></trkpt><trkpt lat="46.2972586441799" lon="13.063105685570786"><ele>192.5</ele><time>2026-05-01T22:05:27Z</time></trkpt><trkpt lat="46.29699365412243" lon="13.063187578985964"><ele>193.0</ele><time>2026-05-01T22:05:28Z</time></trkpt><trkpt lat="46.296730475181626" lon="13.063268764951387"><ele>194.0</ele><time>2026-05-01T22:05:29Z</time></trkpt><trkpt lat="46.296465803224784" lon="13.063352176582146"><ele>195.0</ele><time>2026-05-01T22:05:30Z</time></trkpt><trkpt lat="46.29620272900575" lon="13.063431150785274"><ele>195.0</ele><time>2026-05-01T22:05:31Z</time></trkpt><trkpt lat="46.29593813044518" lon="13.063509561935941"><ele>195.0</ele><time>2026-05-01T22:05:32Z</time></trkpt><trkpt lat="46.29567490289816" lon="13.063588438765446"><ele>193.5</ele><time>2026-05-01T22:05:33Z</time></trkpt><trkpt lat="46.29541138602376" lon="13.063664797484241"><ele>192.0</ele><time>2026-05-01T22:05:34Z</time></trkpt><trkpt lat="46.2951469082995" lon="13.063741562388964"><ele>192.0</ele><time>2026-05-01T22:05:35Z</time></trkpt><trkpt lat="46.29488176055871" lon="13.063822892962461"><ele>192.0</ele><time>2026-05-01T22:05:36Z</time></trkpt><trkpt lat="46.29461670992859" lon="13.063908662050212"><ele>193.0</ele><time>2026-05-01T22:05:37Z</time></trkpt><trkpt lat="46.294351669674484" lon="13.063991006515687"><ele>194.0</ele><time>2026-05-01T22:05:38Z</time></trkpt><trkpt lat="46.294086471913836" lon="13.064072796892171"><ele>196.0</ele><time>2026-05-01T22:05:39Z</time></trkpt><trkpt lat="46.293822091926074" lon="13.064150688835058"><ele>198.0</ele><time>2026-05-01T22:05:40Z</time></trkpt><trkpt lat="46.293558560860085" lon="13.064229400768781"><ele>198.0</ele><time>2026-05-01T22:05:41Z</time></trkpt><trkpt lat="46.29330992444697" lon="13.064301594320627"><ele>198.0</ele><time>2026-05-01T22:05:42Z</time></trkpt><trkpt lat="46.29305625632451" lon="13.064389358909464"><ele>194.5</ele><time>2026-05-01T22:05:43Z</time></trkpt><trkpt lat="46.29278682983955" lon="13.06445655177171"><ele>191.0</ele><time>2026-05-01T22:05:44Z</time></trkpt><trkpt lat="46.29251990116492" lon="13.06453451825531"><ele>189.5</ele><time>2026-05-01T22:05:45Z</time></trkpt><trkpt lat="46.292250480549825" lon="13.064619281809867"><ele>188.0</ele><time>2026-05-01T22:05:46Z</time></trkpt><trkpt lat="46.29198150345321" lon="13.064701914872154"><ele>188.0</ele><time>2026-05-01T22:05:47Z</time></trkpt><trkpt lat="46.29171284006805" lon="13.064785618361094"><ele>188.0</ele><time>2026-05-01T22:05:48Z</time></trkpt><trkpt lat="46.29144490368028" lon="13.064868075721764"><ele>191.5</ele><time>2026-05-01T22:05:49Z</time></trkpt><trkpt lat="46.29117821722081" lon="13.064949166826707"><ele>195.0</ele><time>2026-05-01T22:05:50Z</time></trkpt><trkpt lat="46.29091259115651" lon="13.065029679864164"><ele>195.0</ele><time>2026-05-01T22:05:51Z</time></trkpt><trkpt lat="46.290647674370064" lon="13.06511175867992"><ele>195.0</ele><time>2026-05-01T22:05:52Z</time></trkpt><trkpt lat="46.29038140751705" lon="13.065192385723028"><ele>194.0</ele><time>2026-05-01T22:05:53Z</time></trkpt><trkpt lat="46.29011708452363" lon="13.06527175187807"><ele>193.0</ele><time>2026-05-01T22:05:54Z</time></trkpt><trkpt lat="46.28985271877063" lon="13.065347201729862"><ele>192.0</ele><time>2026-05-01T22:05:55Z</time></trkpt><trkpt lat="46.289584555554995" lon="13.065414333014406"><ele>191.0</ele><time>2026-05-01T22:05:56Z</time></trkpt><trkpt lat="46.28931793496748" lon="13.065470661499274"><ele>191.0</ele><time>2026-05-01T22:05:57Z</time></trkpt><trkpt lat="46.28904949995205" lon="13.0655127897212"><ele>191.0</ele><time>2026-05-01T22:05:58Z</time></trkpt><trkpt lat="46.28877573614821" lon="13.065532433894003"><ele>189.5</ele><time>2026-05-01T22:05:59Z</time></trkpt><trkpt lat="46.28850889707147" lon="13.065541220594199"><ele>188.0</ele><time>2026-05-01T22:06:00Z</time></trkpt><trkpt lat="46.28823638738158" lon="13.065532424476705"><ele>188.0</ele><time>2026-05-01T22:06:01Z</time></trkpt><trkpt lat="46.28796445699379" lon="13.065511348717205"><ele>188.0</ele><time>2026-05-01T22:06:02Z</time></trkpt><trkpt lat="46.28769697158905" lon="13.065480704504017"><ele>191.0</ele><time>2026-05-01T22:06:03Z</time></trkpt><trkpt lat="46.28715608502083" lon="13.065405575675403"><ele>191.0</ele><time>2026-05-01T22:06:05Z</time></trkpt><trkpt lat="46.286887649078565" lon="13.065364663553725"><ele>191.0</ele><time>2026-05-01T22:06:06Z</time></trkpt><trkpt lat="46.286620068489526" lon="13.065322035426457"><ele>192.0</ele><time>2026-05-01T22:06:07Z</time></trkpt><trkpt lat="46.286348247158465" lon="13.06527936071742"><ele>193.0</ele><time>2026-05-01T22:06:08Z</time></trkpt><trkpt lat="46.28607519425387" lon="13.065239593336825"><ele>193.0</ele><time>2026-05-01T22:06:09Z</time></trkpt><trkpt lat="46.28579757385263" lon="13.065205296939679"><ele>193.0</ele><time>2026-05-01T22:06:10Z</time></trkpt><trkpt lat="46.28551847945774" lon="13.065179450006164"><ele>194.5</ele><time>2026-05-01T22:06:11Z</time></trkpt><trkpt lat="46.28523405533552" lon="13.065162725724091"><ele>196.0</ele><time>2026-05-01T22:06:12Z</time></trkpt><trkpt lat="46.28494532682837" lon="13.065159058823673"><ele>194.0</ele><time>2026-05-01T22:06:13Z</time></trkpt><trkpt lat="46.284657920491924" lon="13.06517025089761"><ele>192.0</ele><time>2026-05-01T22:06:14Z</time></trkpt><trkpt lat="46.28436497116566" lon="13.065193190558507"><ele>192.0</ele><time>2026-05-01T22:06:15Z</time></trkpt><trkpt lat="46.28406847972002" lon="13.065231371272294"><ele>192.0</ele><time>2026-05-01T22:06:16Z</time></trkpt><trkpt lat="46.28377701725183" lon="13.065285569375671"><ele>190.0</ele><time>2026-05-01T22:06:17Z</time></trkpt><trkpt lat="46.28348740800635" lon="13.06535250964575"><ele>188.0</ele><time>2026-05-01T22:06:18Z</time></trkpt><trkpt lat="46.2832008114642" lon="13.06543158220928"><ele>186.5</ele><time>2026-05-01T22:06:19Z</time></trkpt><trkpt lat="46.28291585390761" lon="13.065524019705931"><ele>185.0</ele><time>2026-05-01T22:06:20Z</time></trkpt><trkpt lat="46.28263471392807" lon="13.065631400379907"><ele>185.0</ele><time>2026-05-01T22:06:21Z</time></trkpt><trkpt lat="46.28235816863707" lon="13.065754825829545"><ele>185.0</ele><time>2026-05-01T22:06:22Z</time></trkpt><trkpt lat="46.28208385212957" lon="13.065889482393018"><ele>186.0</ele><time>2026-05-01T22:06:23Z</time></trkpt><trkpt lat="46.28181120300366" lon="13.066036440265227"><ele>187.0</ele><time>2026-05-01T22:06:24Z</time></trkpt><trkpt lat="46.28154509969485" lon="13.066191827813832"><ele>187.0</ele><time>2026-05-01T22:06:25Z</time></trkpt><trkpt lat="46.281282164760626" lon="13.066358526717966"><ele>187.0</ele><time>2026-05-01T22:06:26Z</time></trkpt><trkpt lat="46.28102464113287" lon="13.066538012003997"><ele>188.0</ele><time>2026-05-01T22:06:27Z</time></trkpt><trkpt lat="46.280769833627325" lon="13.066726580644465"><ele>189.0</ele><time>2026-05-01T22:06:28Z</time></trkpt><trkpt lat="46.28051979232215" lon="13.06692592936434"><ele>187.0</ele><time>2026-05-01T22:06:29Z</time></trkpt><trkpt lat="46.280278754009466" lon="13.067134773870151"><ele>185.0</ele><time>2026-05-01T22:06:30Z</time></trkpt><trkpt lat="46.280037674216146" lon="13.067356601996122"><ele>185.5</ele><time>2026-05-01T22:06:31Z</time></trkpt><trkpt lat="46.279803113406594" lon="13.067588104911554"><ele>186.0</ele><time>2026-05-01T22:06:32Z</time></trkpt><trkpt lat="46.27957207130019" lon="13.06783407994868"><ele>186.0</ele><time>2026-05-01T22:06:33Z</time></trkpt><trkpt lat="46.27935165674892" lon="13.068084044196949"><ele>186.0</ele><time>2026-05-01T22:06:34Z</time></trkpt><trkpt lat="46.2791316121043" lon="13.068347638002605"><ele>185.5</ele><time>2026-05-01T22:06:35Z</time></trkpt><trkpt lat="46.278920097392486" lon="13.068620519311684"><ele>185.0</ele><time>2026-05-01T22:06:36Z</time></trkpt><trkpt lat="46.27871791421119" lon="13.06889992715325"><ele>186.0</ele><time>2026-05-01T22:06:37Z</time></trkpt><trkpt lat="46.27851965755128" lon="13.069192860062783"><ele>187.0</ele><time>2026-05-01T22:06:38Z</time></trkpt><trkpt lat="46.27832912143009" lon="13.06949341489989"><ele>187.0</ele><time>2026-05-01T22:06:39Z</time></trkpt><trkpt lat="46.2781411947968" lon="13.069799637235814"><ele>187.0</ele><time>2026-05-01T22:06:40Z</time></trkpt><trkpt lat="46.277961198749125" lon="13.070113783551271"><ele>187.5</ele><time>2026-05-01T22:06:41Z</time></trkpt><trkpt lat="46.277783668134894" lon="13.070433080959582"><ele>188.0</ele><time>2026-05-01T22:06:42Z</time></trkpt><trkpt lat="46.27760469306005" lon="13.070757947585703"><ele>187.5</ele><time>2026-05-01T22:06:43Z</time></trkpt><trkpt lat="46.27742638285368" lon="13.071088072996794"><ele>187.0</ele><time>2026-05-01T22:06:44Z</time></trkpt><trkpt lat="46.2772494184737" lon="13.071414368380397"><ele>188.5</ele><time>2026-05-01T22:06:45Z</time></trkpt><trkpt lat="46.277069954713234" lon="13.071745240494831"><ele>190.0</ele><time>2026-05-01T22:06:46Z</time></trkpt><trkpt lat="46.27689058948267" lon="13.072070101315513"><ele>190.0</ele><time>2026-05-01T22:06:47Z</time></trkpt><trkpt lat="46.2767086222335" lon="13.072396647783755"><ele>190.0</ele><time>2026-05-01T22:06:48Z</time></trkpt><trkpt lat="46.27653050308794" lon="13.07271531823958"><ele>190.0</ele><time>2026-05-01T22:06:49Z</time></trkpt><trkpt lat="46.276351639039056" lon="13.073041883685834"><ele>190.0</ele><time>2026-05-01T22:06:50Z</time></trkpt><trkpt lat="46.276175274681954" lon="13.073369128194186"><ele>189.5</ele><time>2026-05-01T22:06:51Z</time></trkpt><trkpt lat="46.27599820829842" lon="13.073698817417156"><ele>189.0</ele><time>2026-05-01T22:06:52Z</time></trkpt><trkpt lat="46.27582491188869" lon="13.074022498321513"><ele>189.0</ele><time>2026-05-01T22:06:53Z</time></trkpt><trkpt lat="46.27565095135901" lon="13.0743463512621"><ele>189.0</ele><time>2026-05-01T22:06:54Z</time></trkpt><trkpt lat="46.275474540490876" lon="13.074668589864446"><ele>189.5</ele><time>2026-05-01T22:06:55Z</time></trkpt><trkpt lat="46.27529567271711" lon="13.07499097212428"><ele>190.0</ele><time>2026-05-01T22:06:56Z</time></trkpt><trkpt lat="46.27511859374274" lon="13.07531569087794"><ele>190.0</ele><time>2026-05-01T22:06:57Z</time></trkpt><trkpt lat="46.2749396467668" lon="13.075641998832205"><ele>190.0</ele><time>2026-05-01T22:06:58Z</time></trkpt><trkpt lat="46.274761413339895" lon="13.07596795565247"><ele>190.5</ele><time>2026-05-01T22:06:59Z</time></trkpt><trkpt lat="46.274584671720355" lon="13.076292510954039"><ele>191.0</ele><time>2026-05-01T22:07:00Z</time></trkpt><trkpt lat="46.27440716457975" lon="13.076618105176193"><ele>191.0</ele><time>2026-05-01T22:07:01Z</time></trkpt><trkpt lat="46.27423040851704" lon="13.076942130460274"><ele>191.0</ele><time>2026-05-01T22:07:02Z</time></trkpt><trkpt lat="46.274054523285145" lon="13.077265192450769"><ele>189.0</ele><time>2026-05-01T22:07:03Z</time></trkpt><trkpt lat="46.27388018757155" lon="13.077584989779954"><ele>187.0</ele><time>2026-05-01T22:07:04Z</time></trkpt><trkpt lat="46.273705180358945" lon="13.077904430556014"><ele>187.0</ele><time>2026-05-01T22:07:05Z</time></trkpt><trkpt lat="46.27353149272766" lon="13.07822182246416"><ele>187.0</ele><time>2026-05-01T22:07:06Z</time></trkpt><trkpt lat="46.27335654237663" lon="13.078539354100274"><ele>187.5</ele><time>2026-05-01T22:07:07Z</time></trkpt><trkpt lat="46.27318376329541" lon="13.078856963964128"><ele>188.0</ele><time>2026-05-01T22:07:08Z</time></trkpt><trkpt lat="46.27301054051835" lon="13.079174933262726"><ele>188.0</ele><time>2026-05-01T22:07:09Z</time></trkpt><trkpt lat="46.272835386244346" lon="13.079494863173242"><ele>188.0</ele><time>2026-05-01T22:07:10Z</time></trkpt><trkpt lat="46.27266051687407" lon="13.079814034331033"><ele>188.5</ele><time>2026-05-01T22:07:11Z</time></trkpt><trkpt lat="46.27248455484281" lon="13.080133785770283"><ele>189.0</ele><time>2026-05-01T22:07:12Z</time></trkpt><trkpt lat="46.27231155313743" lon="13.08045231350987"><ele>189.0</ele><time>2026-05-01T22:07:13Z</time></trkpt><trkpt lat="46.272138004269344" lon="13.080770345071821"><ele>189.0</ele><time>2026-05-01T22:07:14Z</time></trkpt><trkpt lat="46.27196426543536" lon="13.081088605158047"><ele>189.0</ele><time>2026-05-01T22:07:15Z</time></trkpt><trkpt lat="46.27179155766586" lon="13.081406814467009"><ele>189.0</ele><time>2026-05-01T22:07:16Z</time></trkpt><trkpt lat="46.27162076653172" lon="13.081723728063965"><ele>189.5</ele><time>2026-05-01T22:07:17Z</time></trkpt><trkpt lat="46.271449204787054" lon="13.08204068790651"><ele>190.0</ele><time>2026-05-01T22:07:18Z</time></trkpt><trkpt lat="46.27127710913396" lon="13.08235331617501"><ele>189.5</ele><time>2026-05-01T22:07:19Z</time></trkpt><trkpt lat="46.2711046681826" lon="13.082665146607116"><ele>189.0</ele><time>2026-05-01T22:07:20Z</time></trkpt><trkpt lat="46.27093105400629" lon="13.08297532976869"><ele>190.5</ele><time>2026-05-01T22:07:21Z</time></trkpt><trkpt lat="46.27076303867272" lon="13.083284489152057"><ele>192.0</ele><time>2026-05-01T22:07:22Z</time></trkpt><trkpt lat="46.27059614546912" lon="13.083594091433639"><ele>192.5</ele><time>2026-05-01T22:07:23Z</time></trkpt><trkpt lat="46.2704307079465" lon="13.083903468741111"><ele>193.0</ele><time>2026-05-01T22:07:24Z</time></trkpt><trkpt lat="46.270266075032275" lon="13.084210123370076"><ele>194.0</ele><time>2026-05-01T22:07:25Z</time></trkpt><trkpt lat="46.270101023606045" lon="13.084516749172149"><ele>195.0</ele><time>2026-05-01T22:07:26Z</time></trkpt><trkpt lat="46.269933418076455" lon="13.084822741168486"><ele>193.5</ele><time>2026-05-01T22:07:27Z</time></trkpt><trkpt lat="46.26976637895024" lon="13.085130332178414"><ele>192.0</ele><time>2026-05-01T22:07:28Z</time></trkpt><trkpt lat="46.269599729980904" lon="13.08543671149985"><ele>192.0</ele><time>2026-05-01T22:07:29Z</time></trkpt><trkpt lat="46.26942952005942" lon="13.085742790513676"><ele>192.0</ele><time>2026-05-01T22:07:30Z</time></trkpt><trkpt lat="46.26925997816828" lon="13.086048207882138"><ele>192.0</ele><time>2026-05-01T22:07:31Z</time></trkpt><trkpt lat="46.26909006595946" lon="13.086353917760322"><ele>192.0</ele><time>2026-05-01T22:07:32Z</time></trkpt><trkpt lat="46.26891767542168" lon="13.086660491330909"><ele>191.5</ele><time>2026-05-01T22:07:33Z</time></trkpt><trkpt lat="46.268746687362245" lon="13.086973966143246"><ele>191.0</ele><time>2026-05-01T22:07:34Z</time></trkpt><trkpt lat="46.26857743755326" lon="13.087289670672414"><ele>192.5</ele><time>2026-05-01T22:07:35Z</time></trkpt><trkpt lat="46.26840806558591" lon="13.08760610435079"><ele>194.0</ele><time>2026-05-01T22:07:36Z</time></trkpt><trkpt lat="46.26823735124595" lon="13.087921178994941"><ele>192.5</ele><time>2026-05-01T22:07:37Z</time></trkpt><trkpt lat="46.268065289890835" lon="13.088237840283664"><ele>191.0</ele><time>2026-05-01T22:07:38Z</time></trkpt><trkpt lat="46.26789429472612" lon="13.088552784350444"><ele>191.0</ele><time>2026-05-01T22:07:39Z</time></trkpt><trkpt lat="46.267722435819984" lon="13.088866895571488"><ele>191.0</ele><time>2026-05-01T22:07:40Z</time></trkpt><trkpt lat="46.267551645851924" lon="13.089177608607818"><ele>190.5</ele><time>2026-05-01T22:07:41Z</time></trkpt><trkpt lat="46.26738259581472" lon="13.089486585451956"><ele>190.0</ele><time>2026-05-01T22:07:42Z</time></trkpt><trkpt lat="46.26721134792618" lon="13.089794889768967"><ele>190.0</ele><time>2026-05-01T22:07:43Z</time></trkpt><trkpt lat="46.26703906983122" lon="13.090106360160277"><ele>190.0</ele><time>2026-05-01T22:07:44Z</time></trkpt><trkpt lat="46.26687132555545" lon="13.090411990786333"><ele>190.0</ele><time>2026-05-01T22:07:45Z</time></trkpt><trkpt lat="46.26670307851067" lon="13.09072276314032"><ele>190.0</ele><time>2026-05-01T22:07:46Z</time></trkpt><trkpt lat="46.266535834426094" lon="13.091031414292386"><ele>187.5</ele><time>2026-05-01T22:07:47Z</time></trkpt><trkpt lat="46.26636916930311" lon="13.091342554426165"><ele>185.0</ele><time>2026-05-01T22:07:48Z</time></trkpt><trkpt lat="46.26620378375572" lon="13.091654153275396"><ele>185.0</ele><time>2026-05-01T22:07:49Z</time></trkpt><trkpt lat="46.266036266925106" lon="13.0919635910191"><ele>185.0</ele><time>2026-05-01T22:07:50Z</time></trkpt><trkpt lat="46.265868301072686" lon="13.092274101473892"><ele>185.0</ele><time>2026-05-01T22:07:51Z</time></trkpt><trkpt lat="46.265699806818596" lon="13.092582780205541"><ele>185.0</ele><time>2026-05-01T22:07:52Z</time></trkpt><trkpt lat="46.26553489724614" lon="13.092881212691461"><ele>185.0</ele><time>2026-05-01T22:07:53Z</time></trkpt><trkpt lat="46.26537637297448" lon="13.093170558595958"><ele>185.0</ele><time>2026-05-01T22:07:54Z</time></trkpt><trkpt lat="46.26521184313762" lon="13.093471643598425"><ele>185.5</ele><time>2026-05-01T22:07:55Z</time></trkpt><trkpt lat="46.26504265925151" lon="13.09377741704097"><ele>186.0</ele><time>2026-05-01T22:07:56Z</time></trkpt><trkpt lat="46.264872402906555" lon="13.094083998344093"><ele>186.5</ele><time>2026-05-01T22:07:57Z</time></trkpt><trkpt lat="46.264703430984596" lon="13.094391739276395"><ele>187.0</ele><time>2026-05-01T22:07:58Z</time></trkpt><trkpt lat="46.264531382691146" lon="13.094702173164414"><ele>187.0</ele><time>2026-05-01T22:07:59Z</time></trkpt><trkpt lat="46.2643606962877" lon="13.095012273832424"><ele>187.0</ele><time>2026-05-01T22:08:00Z</time></trkpt><trkpt lat="46.26419163627269" lon="13.095317803222791"><ele>187.0</ele><time>2026-05-01T22:08:01Z</time></trkpt><trkpt lat="46.264020655432525" lon="13.095624393928182"><ele>187.0</ele><time>2026-05-01T22:08:02Z</time></trkpt><trkpt lat="46.26384845799396" lon="13.095928991629611"><ele>185.5</ele><time>2026-05-01T22:08:03Z</time></trkpt><trkpt lat="46.26367458595132" lon="13.096229839404812"><ele>184.0</ele><time>2026-05-01T22:08:04Z</time></trkpt><trkpt lat="46.263497165817874" lon="13.09652506125954"><ele>185.5</ele><time>2026-05-01T22:08:05Z</time></trkpt><trkpt lat="46.26331180492676" lon="13.09681880374425"><ele>187.0</ele><time>2026-05-01T22:08:06Z</time></trkpt><trkpt lat="46.26312119526258" lon="13.09710231196985"><ele>186.5</ele><time>2026-05-01T22:08:07Z</time></trkpt><trkpt lat="46.26292245554788" lon="13.097378105777555"><ele>186.0</ele><time>2026-05-01T22:08:08Z</time></trkpt><trkpt lat="46.26271792007365" lon="13.097644784664766"><ele>186.0</ele><time>2026-05-01T22:08:09Z</time></trkpt><trkpt lat="46.26250925454545" lon="13.09790639154033"><ele>186.0</ele><time>2026-05-01T22:08:10Z</time></trkpt><trkpt lat="46.26229720517263" lon="13.098162750959949"><ele>186.0</ele><time>2026-05-01T22:08:11Z</time></trkpt><trkpt lat="46.262080163841645" lon="13.098415158730164"><ele>186.0</ele><time>2026-05-01T22:08:12Z</time></trkpt><trkpt lat="46.26185849333368" lon="13.098656629189316"><ele>186.0</ele><time>2026-05-01T22:08:13Z</time></trkpt><trkpt lat="46.26163130949716" lon="13.098890389868092"><ele>186.0</ele><time>2026-05-01T22:08:14Z</time></trkpt><trkpt lat="46.26140170578301" lon="13.099114576338915"><ele>185.5</ele><time>2026-05-01T22:08:15Z</time></trkpt><trkpt lat="46.26116932425669" lon="13.0993258968085"><ele>185.0</ele><time>2026-05-01T22:08:16Z</time></trkpt><trkpt lat="46.260930154805415" lon="13.099530853279916"><ele>185.0</ele><time>2026-05-01T22:08:17Z</time></trkpt><trkpt lat="46.260689559170466" lon="13.099724188390693"><ele>185.0</ele><time>2026-05-01T22:08:18Z</time></trkpt><trkpt lat="46.26044605413692" lon="13.099909916774207"><ele>186.0</ele><time>2026-05-01T22:08:19Z</time></trkpt><trkpt lat="46.260195723913" lon="13.100088833205762"><ele>187.0</ele><time>2026-05-01T22:08:20Z</time></trkpt><trkpt lat="46.25994526706198" lon="13.100257687241994"><ele>186.5</ele><time>2026-05-01T22:08:21Z</time></trkpt><trkpt lat="46.25969187802038" lon="13.100418005341476"><ele>186.0</ele><time>2026-05-01T22:08:22Z</time></trkpt><trkpt lat="46.25943817813863" lon="13.100568325556818"><ele>186.0</ele><time>2026-05-01T22:08:23Z</time></trkpt><trkpt lat="46.25917960971781" lon="13.10070743354275"><ele>186.0</ele><time>2026-05-01T22:08:24Z</time></trkpt><trkpt lat="46.258917620531" lon="13.10083829589681"><ele>187.0</ele><time>2026-05-01T22:08:25Z</time></trkpt><trkpt lat="46.25865610799568" lon="13.100958484184961"><ele>188.0</ele><time>2026-05-01T22:08:26Z</time></trkpt><trkpt lat="46.25839078680026" lon="13.101068626785173"><ele>188.0</ele><time>2026-05-01T22:08:27Z</time></trkpt><trkpt lat="46.25812550297458" lon="13.101168675032303"><ele>188.0</ele><time>2026-05-01T22:08:28Z</time></trkpt><trkpt lat="46.257858299974" lon="13.101260251309377"><ele>188.0</ele><time>2026-05-01T22:08:29Z</time></trkpt><trkpt lat="46.25758891086101" lon="13.101341710563943"><ele>188.0</ele><time>2026-05-01T22:08:30Z</time></trkpt><trkpt lat="46.257320212083336" lon="13.101413032647244"><ele>185.0</ele><time>2026-05-01T22:08:31Z</time></trkpt><trkpt lat="46.25704848981974" lon="13.101474135482599"><ele>182.0</ele><time>2026-05-01T22:08:32Z</time></trkpt><trkpt lat="46.256775575064474" lon="13.101525747022157"><ele>182.0</ele><time>2026-05-01T22:08:33Z</time></trkpt><trkpt lat="46.2565016112958" lon="13.101565230156707"><ele>182.0</ele><time>2026-05-01T22:08:34Z</time></trkpt><trkpt lat="46.256226471296735" lon="13.10159314663442"><ele>184.0</ele><time>2026-05-01T22:08:35Z</time></trkpt><trkpt lat="46.25594967286242" lon="13.10161145930001"><ele>186.0</ele><time>2026-05-01T22:08:36Z</time></trkpt><trkpt lat="46.255673633610755" lon="13.101622794829737"><ele>185.0</ele><time>2026-05-01T22:08:37Z</time></trkpt><trkpt lat="46.25539909148969" lon="13.101626106792423"><ele>184.0</ele><time>2026-05-01T22:08:38Z</time></trkpt><trkpt lat="46.25512604057275" lon="13.101619500180142"><ele>184.0</ele><time>2026-05-01T22:08:39Z</time></trkpt><trkpt lat="46.2548497076992" lon="13.101600568399714"><ele>184.0</ele><time>2026-05-01T22:08:40Z</time></trkpt><trkpt lat="46.254573837461194" lon="13.10156878978635"><ele>184.5</ele><time>2026-05-01T22:08:41Z</time></trkpt><trkpt lat="46.254300420728114" lon="13.101525795198132"><ele>185.0</ele><time>2026-05-01T22:08:42Z</time></trkpt><trkpt lat="46.25402862934031" lon="13.101473397018783"><ele>184.0</ele><time>2026-05-01T22:08:43Z</time></trkpt><trkpt lat="46.2537591139686" lon="13.101413002595407"><ele>183.0</ele><time>2026-05-01T22:08:44Z</time></trkpt><trkpt lat="46.253492333424774" lon="13.101345136681035"><ele>183.0</ele><time>2026-05-01T22:08:45Z</time></trkpt><trkpt lat="46.25322289838584" lon="13.101272149063412"><ele>183.0</ele><time>2026-05-01T22:08:46Z</time></trkpt><trkpt lat="46.25295412328627" lon="13.101201974079473"><ele>182.5</ele><time>2026-05-01T22:08:47Z</time></trkpt><trkpt lat="46.25268316945914" lon="13.101134023662045"><ele>182.0</ele><time>2026-05-01T22:08:48Z</time></trkpt><trkpt lat="46.25241115105858" lon="13.101066616016654"><ele>182.0</ele><time>2026-05-01T22:08:49Z</time></trkpt><trkpt lat="46.25213723611145" lon="13.100997987953612"><ele>182.0</ele><time>2026-05-01T22:08:50Z</time></trkpt><trkpt lat="46.25186471218678" lon="13.100927988010032"><ele>182.0</ele><time>2026-05-01T22:08:51Z</time></trkpt><trkpt lat="46.251591054986925" lon="13.100854569111224"><ele>182.0</ele><time>2026-05-01T22:08:52Z</time></trkpt><trkpt lat="46.2513166782727" lon="13.100779961398995"><ele>181.5</ele><time>2026-05-01T22:08:53Z</time></trkpt><trkpt lat="46.2510415271739" lon="13.100705028972529"><ele>181.0</ele><time>2026-05-01T22:08:54Z</time></trkpt><trkpt lat="46.25076519436223" lon="13.100628919880439"><ele>182.0</ele><time>2026-05-01T22:08:55Z</time></trkpt><trkpt lat="46.250489902485924" lon="13.10055343709805"><ele>183.0</ele><time>2026-05-01T22:08:56Z</time></trkpt><trkpt lat="46.25021347838313" lon="13.100479124540021"><ele>183.0</ele><time>2026-05-01T22:08:57Z</time></trkpt><trkpt lat="46.2499381664789" lon="13.10040627087353"><ele>183.0</ele><time>2026-05-01T22:08:58Z</time></trkpt><trkpt lat="46.2496641586747" lon="13.100335590524377"><ele>182.0</ele><time>2026-05-01T22:08:59Z</time></trkpt><trkpt lat="46.24938985261513" lon="13.100264985160626"><ele>181.0</ele><time>2026-05-01T22:09:00Z</time></trkpt><trkpt lat="46.24911514041979" lon="13.100195535643044"><ele>179.5</ele><time>2026-05-01T22:09:01Z</time></trkpt><trkpt lat="46.248844419576045" lon="13.100128049046676"><ele>178.0</ele><time>2026-05-01T22:09:02Z</time></trkpt><trkpt lat="46.24857167921915" lon="13.100060655779354"><ele>178.0</ele><time>2026-05-01T22:09:03Z</time></trkpt><trkpt lat="46.24829881598456" lon="13.099989800691638"><ele>178.0</ele><time>2026-05-01T22:09:04Z</time></trkpt><trkpt lat="46.248026972136714" lon="13.099916679730429"><ele>176.5</ele><time>2026-05-01T22:09:05Z</time></trkpt><trkpt lat="46.24775437576253" lon="13.0998434823757"><ele>175.0</ele><time>2026-05-01T22:09:06Z</time></trkpt><trkpt lat="46.24748344824436" lon="13.099771598788406"><ele>176.0</ele><time>2026-05-01T22:09:07Z</time></trkpt><trkpt lat="46.2472118921165" lon="13.099699115498014"><ele>177.0</ele><time>2026-05-01T22:09:08Z</time></trkpt><trkpt lat="46.246940423612834" lon="13.099626488113614"><ele>177.0</ele><time>2026-05-01T22:09:09Z</time></trkpt><trkpt lat="46.246668323364176" lon="13.099553483774589"><ele>177.0</ele><time>2026-05-01T22:09:10Z</time></trkpt><trkpt lat="46.24639353786595" lon="13.099480151562128"><ele>178.5</ele><time>2026-05-01T22:09:11Z</time></trkpt><trkpt lat="46.246118014770204" lon="13.099404989958739"><ele>180.0</ele><time>2026-05-01T22:09:12Z</time></trkpt><trkpt lat="46.24584041470341" lon="13.099330359976454"><ele>180.0</ele><time>2026-05-01T22:09:13Z</time></trkpt><trkpt lat="46.24556089600513" lon="13.099258509568157"><ele>180.0</ele><time>2026-05-01T22:09:14Z</time></trkpt><trkpt lat="46.2452804127778" lon="13.09918695967089"><ele>180.0</ele><time>2026-05-01T22:09:15Z</time></trkpt><trkpt lat="46.24499775077515" lon="13.099114491279991"><ele>180.0</ele><time>2026-05-01T22:09:16Z</time></trkpt><trkpt lat="46.24471556333892" lon="13.099041730460861"><ele>180.5</ele><time>2026-05-01T22:09:17Z</time></trkpt><trkpt lat="46.244432446372564" lon="13.098966633691466"><ele>181.0</ele><time>2026-05-01T22:09:18Z</time></trkpt><trkpt lat="46.244148290767846" lon="13.09888913071251"><ele>180.0</ele><time>2026-05-01T22:09:19Z</time></trkpt><trkpt lat="46.24386573893247" lon="13.098812068423564"><ele>179.0</ele><time>2026-05-01T22:09:20Z</time></trkpt><trkpt lat="46.243586244879495" lon="13.098737256028416"><ele>179.0</ele><time>2026-05-01T22:09:21Z</time></trkpt><trkpt lat="46.24330574526512" lon="13.09866341801532"><ele>179.0</ele><time>2026-05-01T22:09:22Z</time></trkpt><trkpt lat="46.243027341854464" lon="13.098590416722688"><ele>178.0</ele><time>2026-05-01T22:09:23Z</time></trkpt><trkpt lat="46.24274918133063" lon="13.098517389740895"><ele>177.0</ele><time>2026-05-01T22:09:24Z</time></trkpt><trkpt lat="46.242471417884204" lon="13.098444723517678"><ele>176.5</ele><time>2026-05-01T22:09:25Z</time></trkpt><trkpt lat="46.24219466155365" lon="13.098373697241026"><ele>176.0</ele><time>2026-05-01T22:09:26Z</time></trkpt><trkpt lat="46.24191855102445" lon="13.098301439623354"><ele>175.5</ele><time>2026-05-01T22:09:27Z</time></trkpt><trkpt lat="46.241641983248144" lon="13.098228164998316"><ele>175.0</ele><time>2026-05-01T22:09:28Z</time></trkpt><trkpt lat="46.241366125829785" lon="13.09815385136475"><ele>174.5</ele><time>2026-05-01T22:09:29Z</time></trkpt><trkpt lat="46.2410886419293" lon="13.098077515441904"><ele>174.0</ele><time>2026-05-01T22:09:30Z</time></trkpt><trkpt lat="46.24081087654537" lon="13.098001328476183"><ele>173.0</ele><time>2026-05-01T22:09:31Z</time></trkpt><trkpt lat="46.24052965690676" lon="13.097927997742582"><ele>172.0</ele><time>2026-05-01T22:09:32Z</time></trkpt><trkpt lat="46.2402473289147" lon="13.097857058013583"><ele>172.0</ele><time>2026-05-01T22:09:33Z</time></trkpt><trkpt lat="46.23996645726947" lon="13.097789650402035"><ele>172.0</ele><time>2026-05-01T22:09:34Z</time></trkpt><trkpt lat="46.23968399437818" lon="13.097720377807336"><ele>172.5</ele><time>2026-05-01T22:09:35Z</time></trkpt><trkpt lat="46.23940227042457" lon="13.097648652423324"><ele>173.0</ele><time>2026-05-01T22:09:36Z</time></trkpt><trkpt lat="46.23912043195901" lon="13.097571684335788"><ele>173.0</ele><time>2026-05-01T22:09:37Z</time></trkpt><trkpt lat="46.238837956654805" lon="13.09749391283716"><ele>173.0</ele><time>2026-05-01T22:09:38Z</time></trkpt><trkpt lat="46.238556252649346" lon="13.097416636425958"><ele>173.0</ele><time>2026-05-01T22:09:39Z</time></trkpt><trkpt lat="46.23827408276954" lon="13.09733572538177"><ele>173.0</ele><time>2026-05-01T22:09:40Z</time></trkpt><trkpt lat="46.23799218140471" lon="13.097256042401504"><ele>174.0</ele><time>2026-05-01T22:09:41Z</time></trkpt><trkpt lat="46.237710779366886" lon="13.097178714241915"><ele>175.0</ele><time>2026-05-01T22:09:42Z</time></trkpt><trkpt lat="46.2374408092648" lon="13.097108170346933"><ele>173.5</ele><time>2026-05-01T22:09:43Z</time></trkpt><trkpt lat="46.237168018412284" lon="13.097037576247411"><ele>172.0</ele><time>2026-05-01T22:09:44Z</time></trkpt><trkpt lat="46.23688833873252" lon="13.096966414480878"><ele>172.0</ele><time>2026-05-01T22:09:45Z</time></trkpt><trkpt lat="46.23660687639983" lon="13.096897724050002"><ele>172.0</ele><time>2026-05-01T22:09:46Z</time></trkpt><trkpt lat="46.23632187182329" lon="13.09682324495621"><ele>171.5</ele><time>2026-05-01T22:09:47Z</time></trkpt><trkpt lat="46.236036577736144" lon="13.096745120295159"><ele>171.0</ele><time>2026-05-01T22:09:48Z</time></trkpt><trkpt lat="46.235750175828436" lon="13.09666671809894"><ele>170.0</ele><time>2026-05-01T22:09:49Z</time></trkpt><trkpt lat="46.23546277787934" lon="13.096590699755083"><ele>169.0</ele><time>2026-05-01T22:09:50Z</time></trkpt><trkpt lat="46.235176625642694" lon="13.09651549001603"><ele>169.0</ele><time>2026-05-01T22:09:51Z</time></trkpt><trkpt lat="46.23489025018915" lon="13.096439431616696"><ele>169.0</ele><time>2026-05-01T22:09:52Z</time></trkpt><trkpt lat="46.23460638907081" lon="13.096362981349605"><ele>170.0</ele><time>2026-05-01T22:09:53Z</time></trkpt><trkpt lat="46.23432316262689" lon="13.096287435667067"><ele>171.0</ele><time>2026-05-01T22:09:54Z</time></trkpt><trkpt lat="46.234039985351934" lon="13.09621219906299"><ele>170.5</ele><time>2026-05-01T22:09:55Z</time></trkpt><trkpt lat="46.2337584286348" lon="13.096137154464246"><ele>170.0</ele><time>2026-05-01T22:09:56Z</time></trkpt><trkpt lat="46.23347856234045" lon="13.096061401186553"><ele>170.0</ele><time>2026-05-01T22:09:57Z</time></trkpt><trkpt lat="46.23319812830735" lon="13.095988003626955"><ele>170.0</ele><time>2026-05-01T22:09:58Z</time></trkpt><trkpt lat="46.23291455713855" lon="13.095915962147053"><ele>169.5</ele><time>2026-05-01T22:09:59Z</time></trkpt><trkpt lat="46.232628958438234" lon="13.095843750286567"><ele>169.0</ele><time>2026-05-01T22:10:00Z</time></trkpt><trkpt lat="46.23234414443266" lon="13.095770987503174"><ele>169.0</ele><time>2026-05-01T22:10:01Z</time></trkpt><trkpt lat="46.23205985836959" lon="13.095696919832644"><ele>169.0</ele><time>2026-05-01T22:10:02Z</time></trkpt><trkpt lat="46.23177653134877" lon="13.095622351308924"><ele>169.0</ele><time>2026-05-01T22:10:03Z</time></trkpt><trkpt lat="46.231494882405656" lon="13.095546924907579"><ele>169.0</ele><time>2026-05-01T22:10:04Z</time></trkpt><trkpt lat="46.23121624092068" lon="13.09547345193097"><ele>169.5</ele><time>2026-05-01T22:10:05Z</time></trkpt><trkpt lat="46.23093830649759" lon="13.095400390966343"><ele>170.0</ele><time>2026-05-01T22:10:06Z</time></trkpt><trkpt lat="46.23065925956387" lon="13.095326693444306"><ele>170.0</ele><time>2026-05-01T22:10:07Z</time></trkpt><trkpt lat="46.2303760047893" lon="13.095249164422391"><ele>170.0</ele><time>2026-05-01T22:10:08Z</time></trkpt><trkpt lat="46.230095226516724" lon="13.09517511627645"><ele>170.0</ele><time>2026-05-01T22:10:09Z</time></trkpt><trkpt lat="46.229814143348214" lon="13.095100977291334"><ele>170.0</ele><time>2026-05-01T22:10:10Z</time></trkpt><trkpt lat="46.22952994552449" lon="13.095027067467806"><ele>169.5</ele><time>2026-05-01T22:10:11Z</time></trkpt><trkpt lat="46.22924806002344" lon="13.094954765732663"><ele>169.0</ele><time>2026-05-01T22:10:12Z</time></trkpt><trkpt lat="46.22896439498956" lon="13.094882562843814"><ele>167.0</ele><time>2026-05-01T22:10:13Z</time></trkpt><trkpt lat="46.22868154149566" lon="13.094809667719316"><ele>165.0</ele><time>2026-05-01T22:10:14Z</time></trkpt><trkpt lat="46.228398843085" lon="13.0947341051028"><ele>166.5</ele><time>2026-05-01T22:10:15Z</time></trkpt><trkpt lat="46.228115762360126" lon="13.094657146237976"><ele>168.0</ele><time>2026-05-01T22:10:16Z</time></trkpt><trkpt lat="46.227834061625195" lon="13.09458121445961"><ele>168.0</ele><time>2026-05-01T22:10:17Z</time></trkpt><trkpt lat="46.22755109371571" lon="13.094503444904833"><ele>168.0</ele><time>2026-05-01T22:10:18Z</time></trkpt><trkpt lat="46.22726809574393" lon="13.094426015621709"><ele>166.5</ele><time>2026-05-01T22:10:19Z</time></trkpt><trkpt lat="46.22698734689443" lon="13.094351369538545"><ele>165.0</ele><time>2026-05-01T22:10:20Z</time></trkpt><trkpt lat="46.22670493407678" lon="13.094276394122202"><ele>165.5</ele><time>2026-05-01T22:10:21Z</time></trkpt><trkpt lat="46.22642214589513" lon="13.094202694105443"><ele>166.0</ele><time>2026-05-01T22:10:22Z</time></trkpt><trkpt lat="46.22614109628905" lon="13.094129225354633"><ele>166.5</ele><time>2026-05-01T22:10:23Z</time></trkpt><trkpt lat="46.22586067914004" lon="13.094053830999544"><ele>167.0</ele><time>2026-05-01T22:10:24Z</time></trkpt><trkpt lat="46.22558175199175" lon="13.093980007845042"><ele>167.0</ele><time>2026-05-01T22:10:25Z</time></trkpt><trkpt lat="46.2253019645996" lon="13.093907478787704"><ele>167.0</ele><time>2026-05-01T22:10:26Z</time></trkpt><trkpt lat="46.22502321162811" lon="13.093837058064828"><ele>167.5</ele><time>2026-05-01T22:10:27Z</time></trkpt><trkpt lat="46.22474581499277" lon="13.093768152768869"><ele>168.0</ele><time>2026-05-01T22:10:28Z</time></trkpt><trkpt lat="46.224468031762335" lon="13.09369721250721"><ele>168.0</ele><time>2026-05-01T22:10:29Z</time></trkpt><trkpt lat="46.22419121525437" lon="13.09362552428436"><ele>168.0</ele><time>2026-05-01T22:10:30Z</time></trkpt><trkpt lat="46.22391327471555" lon="13.093552921942416"><ele>167.0</ele><time>2026-05-01T22:10:31Z</time></trkpt><trkpt lat="46.223636520118944" lon="13.093483881722184"><ele>166.0</ele><time>2026-05-01T22:10:32Z</time></trkpt><trkpt lat="46.22335916701616" lon="13.093416758414078"><ele>166.0</ele><time>2026-05-01T22:10:33Z</time></trkpt><trkpt lat="46.22308138255946" lon="13.093353023433544"><ele>166.0</ele><time>2026-05-01T22:10:34Z</time></trkpt><trkpt lat="46.222804378880305" lon="13.093292319985142"><ele>166.0</ele><time>2026-05-01T22:10:35Z</time></trkpt><trkpt lat="46.222525992339804" lon="13.093236033271728"><ele>166.0</ele><time>2026-05-01T22:10:36Z</time></trkpt><trkpt lat="46.22224797201212" lon="13.09318463311742"><ele>166.0</ele><time>2026-05-01T22:10:37Z</time></trkpt><trkpt lat="46.22196913350687" lon="13.093136900460994"><ele>166.0</ele><time>2026-05-01T22:10:38Z</time></trkpt><trkpt lat="46.22169161722485" lon="13.09308996641599"><ele>167.5</ele><time>2026-05-01T22:10:39Z</time></trkpt><trkpt lat="46.22141271300013" lon="13.09304315145216"><ele>169.0</ele><time>2026-05-01T22:10:40Z</time></trkpt><trkpt lat="46.22113621539766" lon="13.09299937833521"><ele>169.0</ele><time>2026-05-01T22:10:41Z</time></trkpt><trkpt lat="46.220859264380785" lon="13.09295904756965"><ele>169.0</ele><time>2026-05-01T22:10:42Z</time></trkpt><trkpt lat="46.220581562493685" lon="13.092922020961094"><ele>169.5</ele><time>2026-05-01T22:10:43Z</time></trkpt><trkpt lat="46.220305088110834" lon="13.092887624687423"><ele>170.0</ele><time>2026-05-01T22:10:44Z</time></trkpt><trkpt lat="46.22002858455313" lon="13.092854951952509"><ele>168.5</ele><time>2026-05-01T22:10:45Z</time></trkpt><trkpt lat="46.21975379168112" lon="13.09282518163084"><ele>167.0</ele><time>2026-05-01T22:10:46Z</time></trkpt><trkpt lat="46.21947643059833" lon="13.09279785169016"><ele>167.0</ele><time>2026-05-01T22:10:47Z</time></trkpt><trkpt lat="46.21920158111611" lon="13.092773896898741"><ele>167.0</ele><time>2026-05-01T22:10:48Z</time></trkpt><trkpt lat="46.21892547696551" lon="13.092750295410065"><ele>166.0</ele><time>2026-05-01T22:10:49Z</time></trkpt><trkpt lat="46.21865128533759" lon="13.092728153655965"><ele>165.0</ele><time>2026-05-01T22:10:50Z</time></trkpt><trkpt lat="46.21837566374386" lon="13.092707586680028"><ele>165.0</ele><time>2026-05-01T22:10:51Z</time></trkpt><trkpt lat="46.2180984501171" lon="13.092687318802895"><ele>165.0</ele><time>2026-05-01T22:10:52Z</time></trkpt><trkpt lat="46.21782229887791" lon="13.092670532377904"><ele>165.0</ele><time>2026-05-01T22:10:53Z</time></trkpt><trkpt lat="46.2175449389715" lon="13.092657554322061"><ele>165.0</ele><time>2026-05-01T22:10:54Z</time></trkpt><trkpt lat="46.217266577008814" lon="13.092648289778907"><ele>165.0</ele><time>2026-05-01T22:10:55Z</time></trkpt><trkpt lat="46.21698784918143" lon="13.092642759030072"><ele>165.0</ele><time>2026-05-01T22:10:56Z</time></trkpt><trkpt lat="46.21670844089515" lon="13.092637471450644"><ele>166.0</ele><time>2026-05-01T22:10:57Z</time></trkpt><trkpt lat="46.21642893380455" lon="13.092632194922327"><ele>167.0</ele><time>2026-05-01T22:10:58Z</time></trkpt><trkpt lat="46.21614869266894" lon="13.092624725706282"><ele>167.0</ele><time>2026-05-01T22:10:59Z</time></trkpt><trkpt lat="46.21586860017675" lon="13.092616685970894"><ele>167.0</ele><time>2026-05-01T22:11:00Z</time></trkpt><trkpt lat="46.215587232182735" lon="13.092608394934869"><ele>167.0</ele><time>2026-05-01T22:11:01Z</time></trkpt><trkpt lat="46.21530867557127" lon="13.092601072238189"><ele>167.0</ele><time>2026-05-01T22:11:02Z</time></trkpt><trkpt lat="46.215030557674794" lon="13.092593186943736"><ele>167.5</ele><time>2026-05-01T22:11:03Z</time></trkpt><trkpt lat="46.214748367240844" lon="13.092584743603249"><ele>168.0</ele><time>2026-05-01T22:11:04Z</time></trkpt><trkpt lat="46.21446914608416" lon="13.09257511723151"><ele>168.0</ele><time>2026-05-01T22:11:05Z</time></trkpt><trkpt lat="46.21418923036228" lon="13.09256547391953"><ele>168.0</ele><time>2026-05-01T22:11:06Z</time></trkpt><trkpt lat="46.21390964607539" lon="13.092557283948791"><ele>165.5</ele><time>2026-05-01T22:11:07Z</time></trkpt><trkpt lat="46.21362989654345" lon="13.09255132072989"><ele>163.0</ele><time>2026-05-01T22:11:08Z</time></trkpt><trkpt lat="46.21334840239694" lon="13.092545577426677"><ele>162.5</ele><time>2026-05-01T22:11:09Z</time></trkpt><trkpt lat="46.213066439336885" lon="13.092539972674196"><ele>162.0</ele><time>2026-05-01T22:11:10Z</time></trkpt><trkpt lat="46.21278658930004" lon="13.092533536296095"><ele>162.0</ele><time>2026-05-01T22:11:11Z</time></trkpt><trkpt lat="46.21250740494257" lon="13.092525719734324"><ele>162.0</ele><time>2026-05-01T22:11:12Z</time></trkpt><trkpt lat="46.21223138448511" lon="13.092519455272777"><ele>162.5</ele><time>2026-05-01T22:11:13Z</time></trkpt><trkpt lat="46.21196674700909" lon="13.092516293589481"><ele>163.0</ele><time>2026-05-01T22:11:14Z</time></trkpt><trkpt lat="46.211693590356816" lon="13.092517619752519"><ele>163.5</ele><time>2026-05-01T22:11:15Z</time></trkpt><trkpt lat="46.21141458200583" lon="13.092524416750342"><ele>164.0</ele><time>2026-05-01T22:11:16Z</time></trkpt><trkpt lat="46.21113402590574" lon="13.092539436843195"><ele>164.0</ele><time>2026-05-01T22:11:17Z</time></trkpt><trkpt lat="46.2108520541701" lon="13.09256333703924"><ele>164.0</ele><time>2026-05-01T22:11:18Z</time></trkpt><trkpt lat="46.21056849619178" lon="13.092595555950707"><ele>164.0</ele><time>2026-05-01T22:11:19Z</time></trkpt><trkpt lat="46.21028428404039" lon="13.09263629107789"><ele>164.0</ele><time>2026-05-01T22:11:20Z</time></trkpt><trkpt lat="46.2099993177587" lon="13.0926871375208"><ele>164.0</ele><time>2026-05-01T22:11:21Z</time></trkpt><trkpt lat="46.20971348897711" lon="13.09274605823771"><ele>164.0</ele><time>2026-05-01T22:11:22Z</time></trkpt><trkpt lat="46.20942725661818" lon="13.092814473665541"><ele>164.0</ele><time>2026-05-01T22:11:23Z</time></trkpt><trkpt lat="46.209143791895116" lon="13.092891200046216"><ele>164.0</ele><time>2026-05-01T22:11:24Z</time></trkpt><trkpt lat="46.20886225605279" lon="13.09297699609026"><ele>164.0</ele><time>2026-05-01T22:11:25Z</time></trkpt><trkpt lat="46.20858055779886" lon="13.093071289834452"><ele>164.0</ele><time>2026-05-01T22:11:26Z</time></trkpt><trkpt lat="46.20829873422215" lon="13.093175699043366"><ele>163.0</ele><time>2026-05-01T22:11:27Z</time></trkpt><trkpt lat="46.20802026073703" lon="13.093288160678188"><ele>162.0</ele><time>2026-05-01T22:11:28Z</time></trkpt><trkpt lat="46.20774246646876" lon="13.093407208690042"><ele>162.0</ele><time>2026-05-01T22:11:29Z</time></trkpt><trkpt lat="46.20746649236259" lon="13.093535416465395"><ele>162.0</ele><time>2026-05-01T22:11:30Z</time></trkpt><trkpt lat="46.20719441101195" lon="13.093670949105208"><ele>161.5</ele><time>2026-05-01T22:11:31Z</time></trkpt><trkpt lat="46.20692128067257" lon="13.093817044834186"><ele>161.0</ele><time>2026-05-01T22:11:32Z</time></trkpt><trkpt lat="46.206654051935914" lon="13.093969309599352"><ele>161.5</ele><time>2026-05-01T22:11:33Z</time></trkpt><trkpt lat="46.206391275609754" lon="13.094129202115823"><ele>162.0</ele><time>2026-05-01T22:11:34Z</time></trkpt><trkpt lat="46.2061294931252" lon="13.094296663581389"><ele>162.0</ele><time>2026-05-01T22:11:35Z</time></trkpt><trkpt lat="46.20587295024803" lon="13.09447296261411"><ele>162.0</ele><time>2026-05-01T22:11:36Z</time></trkpt><trkpt lat="46.20562042313419" lon="13.094657455591479"><ele>162.0</ele><time>2026-05-01T22:11:37Z</time></trkpt><trkpt lat="46.20537147257865" lon="13.094846868658522"><ele>162.0</ele><time>2026-05-01T22:11:38Z</time></trkpt><trkpt lat="46.20512597737238" lon="13.095040384540582"><ele>163.0</ele><time>2026-05-01T22:11:39Z</time></trkpt><trkpt lat="46.204883702614566" lon="13.095240723765054"><ele>164.0</ele><time>2026-05-01T22:11:40Z</time></trkpt><trkpt lat="46.20464233175507" lon="13.095444837213906"><ele>163.5</ele><time>2026-05-01T22:11:41Z</time></trkpt><trkpt lat="46.20440044083915" lon="13.095652098633082"><ele>163.0</ele><time>2026-05-01T22:11:42Z</time></trkpt><trkpt lat="46.20416001738037" lon="13.095858730995705"><ele>162.0</ele><time>2026-05-01T22:11:43Z</time></trkpt><trkpt lat="46.20392010037021" lon="13.09606844453792"><ele>161.0</ele><time>2026-05-01T22:11:44Z</time></trkpt><trkpt lat="46.20368090358293" lon="13.096279998940762"><ele>161.0</ele><time>2026-05-01T22:11:45Z</time></trkpt><trkpt lat="46.2034429277209" lon="13.096490365538063"><ele>161.0</ele><time>2026-05-01T22:11:46Z</time></trkpt><trkpt lat="46.20320409749932" lon="13.096701128098074"><ele>161.5</ele><time>2026-05-01T22:11:47Z</time></trkpt><trkpt lat="46.20296483801908" lon="13.096915808104919"><ele>162.0</ele><time>2026-05-01T22:11:48Z</time></trkpt><trkpt lat="46.20272624545728" lon="13.097130355880891"><ele>162.0</ele><time>2026-05-01T22:11:49Z</time></trkpt><trkpt lat="46.20248770511461" lon="13.097346619202455"><ele>162.0</ele><time>2026-05-01T22:11:50Z</time></trkpt><trkpt lat="46.202248848362295" lon="13.097562040968217"><ele>163.0</ele><time>2026-05-01T22:11:51Z</time></trkpt><trkpt lat="46.202007828627174" lon="13.097778235999684"><ele>164.0</ele><time>2026-05-01T22:11:52Z</time></trkpt><trkpt lat="46.201764998204624" lon="13.09799348222376"><ele>164.0</ele><time>2026-05-01T22:11:53Z</time></trkpt><trkpt lat="46.20152219165218" lon="13.09820867818716"><ele>164.0</ele><time>2026-05-01T22:11:54Z</time></trkpt><trkpt lat="46.20127696755343" lon="13.098425762200856"><ele>163.5</ele><time>2026-05-01T22:11:55Z</time></trkpt><trkpt lat="46.20103206765583" lon="13.09864140012864"><ele>163.0</ele><time>2026-05-01T22:11:56Z</time></trkpt><trkpt lat="46.200787966364835" lon="13.098858043851287"><ele>165.0</ele><time>2026-05-01T22:11:57Z</time></trkpt><trkpt lat="46.20054231049862" lon="13.099071892343447"><ele>167.0</ele><time>2026-05-01T22:11:58Z</time></trkpt><trkpt lat="46.200294602350255" lon="13.09928690688787"><ele>167.0</ele><time>2026-05-01T22:11:59Z</time></trkpt><trkpt lat="46.200047535787455" lon="13.099503120272546"><ele>167.0</ele><time>2026-05-01T22:12:00Z</time></trkpt><trkpt lat="46.19979938481354" lon="13.09972037035564"><ele>167.0</ele><time>2026-05-01T22:12:01Z</time></trkpt><trkpt lat="46.19955121287299" lon="13.099938394606353"><ele>167.0</ele><time>2026-05-01T22:12:02Z</time></trkpt><trkpt lat="46.19930624637048" lon="13.100157031839137"><ele>167.0</ele><time>2026-05-01T22:12:03Z</time></trkpt><trkpt lat="46.19905873854157" lon="13.10037571189216"><ele>167.0</ele><time>2026-05-01T22:12:04Z</time></trkpt><trkpt lat="46.19881355009729" lon="13.10059299722654"><ele>166.5</ele><time>2026-05-01T22:12:05Z</time></trkpt><trkpt lat="46.19856744929009" lon="13.10080874325794"><ele>166.0</ele><time>2026-05-01T22:12:06Z</time></trkpt><trkpt lat="46.19832133454811" lon="13.101024273460332"><ele>166.0</ele><time>2026-05-01T22:12:07Z</time></trkpt><trkpt lat="46.19807573555834" lon="13.101241068889937"><ele>166.0</ele><time>2026-05-01T22:12:08Z</time></trkpt><trkpt lat="46.197831741673404" lon="13.101457714428472"><ele>166.5</ele><time>2026-05-01T22:12:09Z</time></trkpt><trkpt lat="46.19758689614644" lon="13.101675265648293"><ele>167.0</ele><time>2026-05-01T22:12:10Z</time></trkpt><trkpt lat="46.19734273526167" lon="13.101895127297553"><ele>167.5</ele><time>2026-05-01T22:12:11Z</time></trkpt><trkpt lat="46.19709989543841" lon="13.102114808456845"><ele>168.0</ele><time>2026-05-01T22:12:12Z</time></trkpt><trkpt lat="46.196854732151394" lon="13.10232895279503"><ele>167.5</ele><time>2026-05-01T22:12:13Z</time></trkpt><trkpt lat="46.19660661293521" lon="13.102537118819534"><ele>167.0</ele><time>2026-05-01T22:12:14Z</time></trkpt><trkpt lat="46.19636056141281" lon="13.10275647871975"><ele>166.0</ele><time>2026-05-01T22:12:15Z</time></trkpt><trkpt lat="46.19611608202356" lon="13.10297272733998"><ele>165.0</ele><time>2026-05-01T22:12:16Z</time></trkpt><trkpt lat="46.19587033543226" lon="13.103189024191524"><ele>167.0</ele><time>2026-05-01T22:12:17Z</time></trkpt><trkpt lat="46.195627766019705" lon="13.103411722351787"><ele>169.0</ele><time>2026-05-01T22:12:18Z</time></trkpt><trkpt lat="46.195387545682856" lon="13.103637835523053"><ele>169.0</ele><time>2026-05-01T22:12:19Z</time></trkpt><trkpt lat="46.195146185942235" lon="13.103869393396687"><ele>169.0</ele><time>2026-05-01T22:12:20Z</time></trkpt><trkpt lat="46.194908835306464" lon="13.104103743082915"><ele>171.0</ele><time>2026-05-01T22:12:21Z</time></trkpt><trkpt lat="46.19467260460242" lon="13.104345002528722"><ele>173.0</ele><time>2026-05-01T22:12:22Z</time></trkpt><trkpt lat="46.19444029274075" lon="13.104591441024056"><ele>173.0</ele><time>2026-05-01T22:12:23Z</time></trkpt><trkpt lat="46.19420929568464" lon="13.104843357121126"><ele>173.0</ele><time>2026-05-01T22:12:24Z</time></trkpt><trkpt lat="46.193980416830456" lon="13.10509833130512"><ele>173.5</ele><time>2026-05-01T22:12:25Z</time></trkpt><trkpt lat="46.19375283345695" lon="13.105360280281188"><ele>174.0</ele><time>2026-05-01T22:12:26Z</time></trkpt><trkpt lat="46.19352688817323" lon="13.105628401615386"><ele>175.0</ele><time>2026-05-01T22:12:27Z</time></trkpt><trkpt lat="46.1933015353825" lon="13.105902721417905"><ele>176.0</ele><time>2026-05-01T22:12:28Z</time></trkpt><trkpt lat="46.19307804777441" lon="13.106177003397105"><ele>176.0</ele><time>2026-05-01T22:12:29Z</time></trkpt><trkpt lat="46.19285835617306" lon="13.1064629310335"><ele>176.0</ele><time>2026-05-01T22:12:30Z</time></trkpt><trkpt lat="46.19263839471474" lon="13.106753667064282"><ele>175.0</ele><time>2026-05-01T22:12:31Z</time></trkpt><trkpt lat="46.1924232334215" lon="13.107046536878775"><ele>174.0</ele><time>2026-05-01T22:12:32Z</time></trkpt><trkpt lat="46.19221168057011" lon="13.107343086590438"><ele>170.5</ele><time>2026-05-01T22:12:33Z</time></trkpt><trkpt lat="46.19200837252454" lon="13.107640730524453"><ele>167.0</ele><time>2026-05-01T22:12:34Z</time></trkpt><trkpt lat="46.191808822740526" lon="13.107940957270861"><ele>167.0</ele><time>2026-05-01T22:12:35Z</time></trkpt><trkpt lat="46.19161293718417" lon="13.108243655997304"><ele>167.0</ele><time>2026-05-01T22:12:36Z</time></trkpt><trkpt lat="46.19142015428722" lon="13.108549158750005"><ele>165.5</ele><time>2026-05-01T22:12:37Z</time></trkpt><trkpt lat="46.191228792541374" lon="13.10885537950785"><ele>164.0</ele><time>2026-05-01T22:12:38Z</time></trkpt><trkpt lat="46.19103910082561" lon="13.109159282295572"><ele>163.5</ele><time>2026-05-01T22:12:39Z</time></trkpt><trkpt lat="46.19085463578155" lon="13.109467873547702"><ele>163.0</ele><time>2026-05-01T22:12:40Z</time></trkpt><trkpt lat="46.190675127578054" lon="13.109776350451998"><ele>161.5</ele><time>2026-05-01T22:12:41Z</time></trkpt><trkpt lat="46.190497495635334" lon="13.110090621037893"><ele>160.0</ele><time>2026-05-01T22:12:42Z</time></trkpt><trkpt lat="46.19032586759726" lon="13.110405125751338"><ele>160.0</ele><time>2026-05-01T22:12:43Z</time></trkpt><trkpt lat="46.19016087258731" lon="13.11071869688391"><ele>160.0</ele><time>2026-05-01T22:12:44Z</time></trkpt><trkpt lat="46.189997046400244" lon="13.111034066848921"><ele>159.5</ele><time>2026-05-01T22:12:45Z</time></trkpt><trkpt lat="46.18983644634519" lon="13.111349755679003"><ele>159.0</ele><time>2026-05-01T22:12:46Z</time></trkpt><trkpt lat="46.189677958778546" lon="13.111671015011352"><ele>159.0</ele><time>2026-05-01T22:12:47Z</time></trkpt><trkpt lat="46.189520003279966" lon="13.111988967340046"><ele>159.0</ele><time>2026-05-01T22:12:48Z</time></trkpt><trkpt lat="46.189366186441525" lon="13.112312787731366"><ele>161.0</ele><time>2026-05-01T22:12:49Z</time></trkpt><trkpt lat="46.189220840530204" lon="13.11263634018151"><ele>163.0</ele><time>2026-05-01T22:12:50Z</time></trkpt><trkpt lat="46.18907492048696" lon="13.112963726705777"><ele>163.0</ele><time>2026-05-01T22:12:51Z</time></trkpt><trkpt lat="46.18893455177983" lon="13.113293316494175"><ele>163.0</ele><time>2026-05-01T22:12:52Z</time></trkpt><trkpt lat="46.188792319028515" lon="13.113622113917796"><ele>163.0</ele><time>2026-05-01T22:12:53Z</time></trkpt><trkpt lat="46.18864978995227" lon="13.11394745630857"><ele>163.0</ele><time>2026-05-01T22:12:54Z</time></trkpt><trkpt lat="46.18850946152168" lon="13.114278383487004"><ele>163.0</ele><time>2026-05-01T22:12:55Z</time></trkpt><trkpt lat="46.188367624860845" lon="13.11460792960172"><ele>163.0</ele><time>2026-05-01T22:12:56Z</time></trkpt><trkpt lat="46.18822609651586" lon="13.114940699322291"><ele>163.0</ele><time>2026-05-01T22:12:57Z</time></trkpt><trkpt lat="46.18808569418407" lon="13.115273684563498"><ele>163.0</ele><time>2026-05-01T22:12:58Z</time></trkpt><trkpt lat="46.18794191139311" lon="13.115608332030774"><ele>164.0</ele><time>2026-05-01T22:12:59Z</time></trkpt><trkpt lat="46.18779986820941" lon="13.115943853503461"><ele>165.0</ele><time>2026-05-01T22:13:00Z</time></trkpt><trkpt lat="46.187654707825196" lon="13.116278685869531"><ele>167.0</ele><time>2026-05-01T22:13:01Z</time></trkpt><trkpt lat="46.18750028212618" lon="13.11660858193624"><ele>169.0</ele><time>2026-05-01T22:13:02Z</time></trkpt><trkpt lat="46.18737091399817" lon="13.116971589021244"><ele>169.5</ele><time>2026-05-01T22:13:03Z</time></trkpt><trkpt lat="46.18722093736841" lon="13.11730763523332"><ele>170.0</ele><time>2026-05-01T22:13:04Z</time></trkpt><trkpt lat="46.18707538358224" lon="13.117646206987242"><ele>170.0</ele><time>2026-05-01T22:13:05Z</time></trkpt><trkpt lat="46.186930528815644" lon="13.11797816010263"><ele>170.0</ele><time>2026-05-01T22:13:06Z</time></trkpt><trkpt lat="46.18677900594115" lon="13.118317064262522"><ele>171.0</ele><time>2026-05-01T22:13:07Z</time></trkpt><trkpt lat="46.18663388260975" lon="13.118660205521165"><ele>172.0</ele><time>2026-05-01T22:13:08Z</time></trkpt><trkpt lat="46.1864836717034" lon="13.11900777894023"><ele>171.0</ele><time>2026-05-01T22:13:09Z</time></trkpt><trkpt lat="46.1863393329106" lon="13.119346212819902"><ele>170.0</ele><time>2026-05-01T22:13:10Z</time></trkpt><trkpt lat="46.18618852154164" lon="13.119677152711272"><ele>170.5</ele><time>2026-05-01T22:13:11Z</time></trkpt><trkpt lat="46.18604127064874" lon="13.120013993883232"><ele>171.0</ele><time>2026-05-01T22:13:12Z</time></trkpt><trkpt lat="46.18589814257672" lon="13.120349994849285"><ele>171.0</ele><time>2026-05-01T22:13:13Z</time></trkpt><trkpt lat="46.18575390598983" lon="13.12068958994181"><ele>171.0</ele><time>2026-05-01T22:13:14Z</time></trkpt><trkpt lat="46.18561777283236" lon="13.121025988163042"><ele>169.5</ele><time>2026-05-01T22:13:15Z</time></trkpt><trkpt lat="46.18547541081866" lon="13.121354799017046"><ele>168.0</ele><time>2026-05-01T22:13:16Z</time></trkpt><trkpt lat="46.185324219299495" lon="13.121687352480722"><ele>167.5</ele><time>2026-05-01T22:13:17Z</time></trkpt><trkpt lat="46.185178270081266" lon="13.122023411091375"><ele>167.0</ele><time>2026-05-01T22:13:18Z</time></trkpt><trkpt lat="46.185033369372114" lon="13.122352334897968"><ele>170.0</ele><time>2026-05-01T22:13:19Z</time></trkpt><trkpt lat="46.18488925149613" lon="13.122684647713973"><ele>173.0</ele><time>2026-05-01T22:13:20Z</time></trkpt><trkpt lat="46.18474264251375" lon="13.123019920975258"><ele>175.5</ele><time>2026-05-01T22:13:21Z</time></trkpt><trkpt lat="46.18460088758077" lon="13.12334922199968"><ele>178.0</ele><time>2026-05-01T22:13:22Z</time></trkpt><trkpt lat="46.184453298023485" lon="13.123685695551574"><ele>178.0</ele><time>2026-05-01T22:13:23Z</time></trkpt><trkpt lat="46.184306952007134" lon="13.124027681129046"><ele>178.0</ele><time>2026-05-01T22:13:24Z</time></trkpt><trkpt lat="46.184174225020186" lon="13.124367963234926"><ele>177.0</ele><time>2026-05-01T22:13:25Z</time></trkpt><trkpt lat="46.184025307287705" lon="13.124705299711426"><ele>176.0</ele><time>2026-05-01T22:13:26Z</time></trkpt><trkpt lat="46.18387425915679" lon="13.125044153470377"><ele>176.0</ele><time>2026-05-01T22:13:27Z</time></trkpt><trkpt lat="46.18372884912312" lon="13.125382670089294"><ele>176.0</ele><time>2026-05-01T22:13:28Z</time></trkpt><trkpt lat="46.183581941256875" lon="13.125722875623378"><ele>175.5</ele><time>2026-05-01T22:13:29Z</time></trkpt><trkpt lat="46.183433001441436" lon="13.126067452153517"><ele>175.0</ele><time>2026-05-01T22:13:30Z</time></trkpt><trkpt lat="46.183286399836206" lon="13.126407871364538"><ele>178.0</ele><time>2026-05-01T22:13:31Z</time></trkpt><trkpt lat="46.18313519089178" lon="13.12675505346508"><ele>181.0</ele><time>2026-05-01T22:13:32Z</time></trkpt><trkpt lat="46.18298974276799" lon="13.127100450759022"><ele>179.5</ele><time>2026-05-01T22:13:33Z</time></trkpt><trkpt lat="46.18284171588828" lon="13.127448540771075"><ele>178.0</ele><time>2026-05-01T22:13:34Z</time></trkpt><trkpt lat="46.182695348426655" lon="13.127798681832376"><ele>178.0</ele><time>2026-05-01T22:13:35Z</time></trkpt><trkpt lat="46.18254200244851" lon="13.128144264100655"><ele>178.0</ele><time>2026-05-01T22:13:36Z</time></trkpt><trkpt lat="46.182394641566084" lon="13.128493508031358"><ele>177.5</ele><time>2026-05-01T22:13:37Z</time></trkpt><trkpt lat="46.182245856305926" lon="13.128835497939933"><ele>177.0</ele><time>2026-05-01T22:13:38Z</time></trkpt><trkpt lat="46.18209024249303" lon="13.12918308617245"><ele>176.0</ele><time>2026-05-01T22:13:39Z</time></trkpt><trkpt lat="46.181934675459374" lon="13.129528582892636"><ele>175.0</ele><time>2026-05-01T22:13:40Z</time></trkpt><trkpt lat="46.18178569649256" lon="13.129873753425377"><ele>174.0</ele><time>2026-05-01T22:13:41Z</time></trkpt><trkpt lat="46.18163744705975" lon="13.130223077502412"><ele>173.0</ele><time>2026-05-01T22:13:42Z</time></trkpt><trkpt lat="46.18148830735127" lon="13.130575425055882"><ele>173.5</ele><time>2026-05-01T22:13:43Z</time></trkpt><trkpt lat="46.181339416870806" lon="13.130920894950853"><ele>174.0</ele><time>2026-05-01T22:13:44Z</time></trkpt><trkpt lat="46.18118708059282" lon="13.131260589734334"><ele>174.5</ele><time>2026-05-01T22:13:45Z</time></trkpt><trkpt lat="46.181027812371894" lon="13.131598241725422"><ele>175.0</ele><time>2026-05-01T22:13:46Z</time></trkpt><trkpt lat="46.18087108019384" lon="13.13193410003311"><ele>175.0</ele><time>2026-05-01T22:13:47Z</time></trkpt><trkpt lat="46.18071564738137" lon="13.132274368563879"><ele>175.0</ele><time>2026-05-01T22:13:48Z</time></trkpt><trkpt lat="46.18056163120413" lon="13.132606431405888"><ele>175.0</ele><time>2026-05-01T22:13:49Z</time></trkpt><trkpt lat="46.18039614483462" lon="13.13293986792709"><ele>175.0</ele><time>2026-05-01T22:13:50Z</time></trkpt><trkpt lat="46.18023695310563" lon="13.133264641243471"><ele>175.0</ele><time>2026-05-01T22:13:51Z</time></trkpt><trkpt lat="46.180074077949726" lon="13.133596168745397"><ele>175.0</ele><time>2026-05-01T22:13:52Z</time></trkpt><trkpt lat="46.17990685999791" lon="13.1339210967148"><ele>176.0</ele><time>2026-05-01T22:13:53Z</time></trkpt><trkpt lat="46.179735336151154" lon="13.134241449113611"><ele>177.0</ele><time>2026-05-01T22:13:54Z</time></trkpt><trkpt lat="46.17957082485299" lon="13.134566555546153"><ele>176.0</ele><time>2026-05-01T22:13:55Z</time></trkpt><trkpt lat="46.17940627660362" lon="13.134892353905329"><ele>175.0</ele><time>2026-05-01T22:13:56Z</time></trkpt><trkpt lat="46.17923545390966" lon="13.13521774257085"><ele>175.0</ele><time>2026-05-01T22:13:57Z</time></trkpt><trkpt lat="46.17906390626917" lon="13.135530581267155"><ele>175.0</ele><time>2026-05-01T22:13:58Z</time></trkpt><trkpt lat="46.17889156420462" lon="13.135840209735946"><ele>176.0</ele><time>2026-05-01T22:13:59Z</time></trkpt><trkpt lat="46.178730246187264" lon="13.136135640459514"><ele>177.0</ele><time>2026-05-01T22:14:00Z</time></trkpt><trkpt lat="46.17858400580425" lon="13.136423592050868"><ele>176.0</ele><time>2026-05-01T22:14:01Z</time></trkpt><trkpt lat="46.17839122723658" lon="13.136757972897867"><ele>175.0</ele><time>2026-05-01T22:14:02Z</time></trkpt><trkpt lat="46.178215066166324" lon="13.137070498542869"><ele>173.0</ele><time>2026-05-01T22:14:03Z</time></trkpt><trkpt lat="46.17803663592704" lon="13.137386274856306"><ele>171.0</ele><time>2026-05-01T22:14:04Z</time></trkpt><trkpt lat="46.17785616964918" lon="13.137699179014003"><ele>171.0</ele><time>2026-05-01T22:14:05Z</time></trkpt><trkpt lat="46.17767355515879" lon="13.138006653606288"><ele>171.0</ele><time>2026-05-01T22:14:06Z</time></trkpt><trkpt lat="46.177490241181424" lon="13.138313749447653"><ele>170.5</ele><time>2026-05-01T22:14:07Z</time></trkpt><trkpt lat="46.17730337886302" lon="13.138615319075432"><ele>170.0</ele><time>2026-05-01T22:14:08Z</time></trkpt><trkpt lat="46.17711306340533" lon="13.138915085281731"><ele>170.0</ele><time>2026-05-01T22:14:09Z</time></trkpt><trkpt lat="46.17692505086754" lon="13.139219258805952"><ele>170.0</ele><time>2026-05-01T22:14:10Z</time></trkpt><trkpt lat="46.17674126123861" lon="13.139515449410029"><ele>170.0</ele><time>2026-05-01T22:14:11Z</time></trkpt><trkpt lat="46.17656179723713" lon="13.139813162861765"><ele>170.0</ele><time>2026-05-01T22:14:12Z</time></trkpt><trkpt lat="46.17638266959367" lon="13.140108777578433"><ele>171.5</ele><time>2026-05-01T22:14:13Z</time></trkpt><trkpt lat="46.17620480899533" lon="13.14040558172659"><ele>173.0</ele><time>2026-05-01T22:14:14Z</time></trkpt><trkpt lat="46.17602818270252" lon="13.140705060897037"><ele>173.0</ele><time>2026-05-01T22:14:15Z</time></trkpt><trkpt lat="46.17584962551467" lon="13.141005093772835"><ele>173.0</ele><time>2026-05-01T22:14:16Z</time></trkpt><trkpt lat="46.17566900142453" lon="13.14130930652523"><ele>174.5</ele><time>2026-05-01T22:14:17Z</time></trkpt><trkpt lat="46.175486623864344" lon="13.141608125997038"><ele>176.0</ele><time>2026-05-01T22:14:18Z</time></trkpt><trkpt lat="46.175306819302506" lon="13.141901668631512"><ele>176.0</ele><time>2026-05-01T22:14:19Z</time></trkpt><trkpt lat="46.17512391964611" lon="13.142198634418744"><ele>176.0</ele><time>2026-05-01T22:14:20Z</time></trkpt><trkpt lat="46.174940161997014" lon="13.142491299957657"><ele>178.0</ele><time>2026-05-01T22:14:21Z</time></trkpt><trkpt lat="46.17475730748415" lon="13.142784058148296"><ele>180.0</ele><time>2026-05-01T22:14:22Z</time></trkpt><trkpt lat="46.174571049934514" lon="13.143084023763071"><ele>177.5</ele><time>2026-05-01T22:14:23Z</time></trkpt><trkpt lat="46.17438790947906" lon="13.143383084112731"><ele>175.0</ele><time>2026-05-01T22:14:24Z</time></trkpt><trkpt lat="46.17421593297697" lon="13.143689848222861"><ele>175.0</ele><time>2026-05-01T22:14:25Z</time></trkpt><trkpt lat="46.17403345127783" lon="13.143984693647386"><ele>175.0</ele><time>2026-05-01T22:14:26Z</time></trkpt><trkpt lat="46.17385161871168" lon="13.14428606068846"><ele>174.5</ele><time>2026-05-01T22:14:27Z</time></trkpt><trkpt lat="46.173670599596" lon="13.144582973607116"><ele>174.0</ele><time>2026-05-01T22:14:28Z</time></trkpt><trkpt lat="46.173485141165266" lon="13.144885246484757"><ele>173.5</ele><time>2026-05-01T22:14:29Z</time></trkpt><trkpt lat="46.17330125029891" lon="13.14518632774224"><ele>173.0</ele><time>2026-05-01T22:14:30Z</time></trkpt><trkpt lat="46.17311936447082" lon="13.145487653150969"><ele>169.5</ele><time>2026-05-01T22:14:31Z</time></trkpt><trkpt lat="46.17293346033796" lon="13.145799104718055"><ele>166.0</ele><time>2026-05-01T22:14:32Z</time></trkpt><trkpt lat="46.172745704662866" lon="13.146104532865973"><ele>166.0</ele><time>2026-05-01T22:14:33Z</time></trkpt><trkpt lat="46.172562385017414" lon="13.146403945203122"><ele>166.0</ele><time>2026-05-01T22:14:34Z</time></trkpt><trkpt lat="46.172374599331754" lon="13.146712283293645"><ele>167.5</ele><time>2026-05-01T22:14:35Z</time></trkpt><trkpt lat="46.17219010402125" lon="13.147021879912971"><ele>169.0</ele><time>2026-05-01T22:14:36Z</time></trkpt><trkpt lat="46.172006702432405" lon="13.14733284115912"><ele>168.5</ele><time>2026-05-01T22:14:37Z</time></trkpt><trkpt lat="46.17182212746266" lon="13.147639655732176"><ele>168.0</ele><time>2026-05-01T22:14:38Z</time></trkpt><trkpt lat="46.1716381803666" lon="13.147941736161247"><ele>169.0</ele><time>2026-05-01T22:14:39Z</time></trkpt><trkpt lat="46.1714511166851" lon="13.148250960363967"><ele>170.0</ele><time>2026-05-01T22:14:40Z</time></trkpt><trkpt lat="46.171269205440254" lon="13.14855239919767"><ele>170.0</ele><time>2026-05-01T22:14:41Z</time></trkpt><trkpt lat="46.171081977503675" lon="13.148856488027233"><ele>170.0</ele><time>2026-05-01T22:14:42Z</time></trkpt><trkpt lat="46.17089870652799" lon="13.149154186171453"><ele>170.5</ele><time>2026-05-01T22:14:43Z</time></trkpt><trkpt lat="46.17071734261028" lon="13.149459340800481"><ele>171.0</ele><time>2026-05-01T22:14:44Z</time></trkpt><trkpt lat="46.17053731913815" lon="13.14976254711303"><ele>172.5</ele><time>2026-05-01T22:14:45Z</time></trkpt><trkpt lat="46.17035290021868" lon="13.15006294349174"><ele>174.0</ele><time>2026-05-01T22:14:46Z</time></trkpt><trkpt lat="46.17016928995672" lon="13.150361029092432"><ele>174.0</ele><time>2026-05-01T22:14:47Z</time></trkpt><trkpt lat="46.16998445965348" lon="13.15065891314878"><ele>174.0</ele><time>2026-05-01T22:14:48Z</time></trkpt><trkpt lat="46.16980258523265" lon="13.150956306796276"><ele>171.0</ele><time>2026-05-01T22:14:49Z</time></trkpt><trkpt lat="46.16961870922028" lon="13.151253980717321"><ele>168.0</ele><time>2026-05-01T22:14:50Z</time></trkpt><trkpt lat="46.169438381328504" lon="13.151551539780664"><ele>168.0</ele><time>2026-05-01T22:14:51Z</time></trkpt><trkpt lat="46.16925565303082" lon="13.151857816768318"><ele>168.0</ele><time>2026-05-01T22:14:52Z</time></trkpt><trkpt lat="46.169075653379466" lon="13.152160645759604"><ele>168.5</ele><time>2026-05-01T22:14:53Z</time></trkpt><trkpt lat="46.168895243852575" lon="13.152459261426722"><ele>169.0</ele><time>2026-05-01T22:14:54Z</time></trkpt><trkpt lat="46.168713673209496" lon="13.152755403215087"><ele>169.0</ele><time>2026-05-01T22:14:55Z</time></trkpt><trkpt lat="46.168528371018326" lon="13.153056749908691"><ele>169.0</ele><time>2026-05-01T22:14:56Z</time></trkpt><trkpt lat="46.16834887827612" lon="13.153359511849644"><ele>168.0</ele><time>2026-05-01T22:14:57Z</time></trkpt><trkpt lat="46.16817001122474" lon="13.153661053929715"><ele>167.0</ele><time>2026-05-01T22:14:58Z</time></trkpt><trkpt lat="46.16798526361574" lon="13.153959768601542"><ele>168.5</ele><time>2026-05-01T22:14:59Z</time></trkpt><trkpt lat="46.16779771578531" lon="13.154261317249627"><ele>170.0</ele><time>2026-05-01T22:15:00Z</time></trkpt><trkpt lat="46.16761627120803" lon="13.15456603010016"><ele>170.0</ele><time>2026-05-01T22:15:01Z</time></trkpt><trkpt lat="46.1674316390685" lon="13.154871802405067"><ele>170.0</ele><time>2026-05-01T22:15:02Z</time></trkpt><trkpt lat="46.16724694903837" lon="13.155171979592094"><ele>169.0</ele><time>2026-05-01T22:15:03Z</time></trkpt><trkpt lat="46.16705729293514" lon="13.15547266404254"><ele>168.0</ele><time>2026-05-01T22:15:04Z</time></trkpt><trkpt lat="46.16686987171027" lon="13.15577181200775"><ele>168.0</ele><time>2026-05-01T22:15:05Z</time></trkpt><trkpt lat="46.16668031969454" lon="13.156076591275054"><ele>168.0</ele><time>2026-05-01T22:15:06Z</time></trkpt><trkpt lat="46.16648444752595" lon="13.156364367633401"><ele>163.0</ele><time>2026-05-01T22:15:07Z</time></trkpt><trkpt lat="46.16628702489659" lon="13.156655384969998"><ele>158.0</ele><time>2026-05-01T22:15:08Z</time></trkpt><trkpt lat="46.166089051985914" lon="13.156950597876662"><ele>158.0</ele><time>2026-05-01T22:15:09Z</time></trkpt><trkpt lat="46.16589198422171" lon="13.157235789591763"><ele>158.0</ele><time>2026-05-01T22:15:10Z</time></trkpt><trkpt lat="46.165690630852566" lon="13.157518000602044"><ele>156.0</ele><time>2026-05-01T22:15:11Z</time></trkpt><trkpt lat="46.16548866700509" lon="13.157804388063973"><ele>154.0</ele><time>2026-05-01T22:15:12Z</time></trkpt><trkpt lat="46.16528805923949" lon="13.158080092552566"><ele>154.0</ele><time>2026-05-01T22:15:13Z</time></trkpt><trkpt lat="46.16508333696274" lon="13.158356643323005"><ele>154.0</ele><time>2026-05-01T22:15:14Z</time></trkpt><trkpt lat="46.164879466756744" lon="13.158628081578007"><ele>153.0</ele><time>2026-05-01T22:15:15Z</time></trkpt><trkpt lat="46.1646701897761" lon="13.158898443706253"><ele>152.0</ele><time>2026-05-01T22:15:16Z</time></trkpt><trkpt lat="46.16446220001265" lon="13.159172466074123"><ele>152.0</ele><time>2026-05-01T22:15:17Z</time></trkpt><trkpt lat="46.16425569067139" lon="13.15944001849849"><ele>152.0</ele><time>2026-05-01T22:15:18Z</time></trkpt><trkpt lat="46.16404539872711" lon="13.159698848327023"><ele>153.0</ele><time>2026-05-01T22:15:19Z</time></trkpt><trkpt lat="46.163830805103224" lon="13.159962141401584"><ele>154.0</ele><time>2026-05-01T22:15:20Z</time></trkpt><trkpt lat="46.16361869401642" lon="13.160217183401606"><ele>154.0</ele><time>2026-05-01T22:15:21Z</time></trkpt><trkpt lat="46.163406610275615" lon="13.160477464128236"><ele>154.0</ele><time>2026-05-01T22:15:22Z</time></trkpt><trkpt lat="46.16319090176718" lon="13.160732437580062"><ele>153.0</ele><time>2026-05-01T22:15:23Z</time></trkpt><trkpt lat="46.1629746075078" lon="13.16097989414234"><ele>152.0</ele><time>2026-05-01T22:15:24Z</time></trkpt><trkpt lat="46.16275227464394" lon="13.161224294281356"><ele>152.0</ele><time>2026-05-01T22:15:25Z</time></trkpt><trkpt lat="46.16253413963875" lon="13.161461134878415"><ele>152.0</ele><time>2026-05-01T22:15:26Z</time></trkpt><trkpt lat="46.16231322113187" lon="13.161702637045545"><ele>154.5</ele><time>2026-05-01T22:15:27Z</time></trkpt><trkpt lat="46.16209342469869" lon="13.161941271787894"><ele>157.0</ele><time>2026-05-01T22:15:28Z</time></trkpt><trkpt lat="46.16187325593495" lon="13.162178860080186"><ele>157.0</ele><time>2026-05-01T22:15:29Z</time></trkpt><trkpt lat="46.16165309104987" lon="13.16240665457182"><ele>157.0</ele><time>2026-05-01T22:15:30Z</time></trkpt><trkpt lat="46.161426808033056" lon="13.162630109608388"><ele>157.5</ele><time>2026-05-01T22:15:31Z</time></trkpt><trkpt lat="46.16120645788846" lon="13.162850700089269"><ele>158.0</ele><time>2026-05-01T22:15:32Z</time></trkpt><trkpt lat="46.16099339422686" lon="13.163064936762048"><ele>158.0</ele><time>2026-05-01T22:15:33Z</time></trkpt><trkpt lat="46.16079278570676" lon="13.163253945069536"><ele>158.0</ele><time>2026-05-01T22:15:34Z</time></trkpt><trkpt lat="46.16054871581611" lon="13.163507556480015"><ele>158.5</ele><time>2026-05-01T22:15:35Z</time></trkpt><trkpt lat="46.16031704969696" lon="13.163724855567965"><ele>159.0</ele><time>2026-05-01T22:15:36Z</time></trkpt><trkpt lat="46.160078181832034" lon="13.163947607897681"><ele>159.0</ele><time>2026-05-01T22:15:37Z</time></trkpt><trkpt lat="46.15983870161358" lon="13.164158497528334"><ele>159.0</ele><time>2026-05-01T22:15:38Z</time></trkpt><trkpt lat="46.15960366359321" lon="13.164365954095565"><ele>159.0</ele><time>2026-05-01T22:15:39Z</time></trkpt><trkpt lat="46.15936774849452" lon="13.164575529322159"><ele>159.0</ele><time>2026-05-01T22:15:40Z</time></trkpt><trkpt lat="46.15913206486938" lon="13.164780546215283"><ele>159.0</ele><time>2026-05-01T22:15:41Z</time></trkpt><trkpt lat="46.15889361295724" lon="13.164995316007616"><ele>159.0</ele><time>2026-05-01T22:15:42Z</time></trkpt><trkpt lat="46.158652966372344" lon="13.165190724997439"><ele>159.0</ele><time>2026-05-01T22:15:43Z</time></trkpt><trkpt lat="46.158411853957205" lon="13.165381357811745"><ele>159.0</ele><time>2026-05-01T22:15:44Z</time></trkpt><trkpt lat="46.15817367419596" lon="13.165565175844705"><ele>158.5</ele><time>2026-05-01T22:15:45Z</time></trkpt><trkpt lat="46.15793757461874" lon="13.165743425331367"><ele>158.0</ele><time>2026-05-01T22:15:46Z</time></trkpt><trkpt lat="46.15770079635485" lon="13.165919892483013"><ele>158.0</ele><time>2026-05-01T22:15:47Z</time></trkpt><trkpt lat="46.15745896450692" lon="13.166109091442877"><ele>158.0</ele><time>2026-05-01T22:15:48Z</time></trkpt><trkpt lat="46.15721794244626" lon="13.166285670840523"><ele>157.5</ele><time>2026-05-01T22:15:49Z</time></trkpt><trkpt lat="46.15698108296127" lon="13.166460717679016"><ele>157.0</ele><time>2026-05-01T22:15:50Z</time></trkpt><trkpt lat="46.15674312073753" lon="13.166633371738305"><ele>155.0</ele><time>2026-05-01T22:15:51Z</time></trkpt><trkpt lat="46.15650436409346" lon="13.16680249476347"><ele>153.0</ele><time>2026-05-01T22:15:52Z</time></trkpt><trkpt lat="46.15626807009847" lon="13.166961235611385"><ele>153.0</ele><time>2026-05-01T22:15:53Z</time></trkpt><trkpt lat="46.15602701000629" lon="13.167124257685352"><ele>153.0</ele><time>2026-05-01T22:15:54Z</time></trkpt><trkpt lat="46.15578591514427" lon="13.167275189828782"><ele>152.0</ele><time>2026-05-01T22:15:55Z</time></trkpt><trkpt lat="46.15554415780951" lon="13.167429086062768"><ele>151.0</ele><time>2026-05-01T22:15:56Z</time></trkpt><trkpt lat="46.155298595213694" lon="13.167586655561735"><ele>151.0</ele><time>2026-05-01T22:15:57Z</time></trkpt><trkpt lat="46.15504572188345" lon="13.167744295315899"><ele>151.0</ele><time>2026-05-01T22:15:58Z</time></trkpt><trkpt lat="46.15479681804805" lon="13.167895923110711"><ele>151.0</ele><time>2026-05-01T22:15:59Z</time></trkpt><trkpt lat="46.15454882034307" lon="13.16804242077867"><ele>151.0</ele><time>2026-05-01T22:16:00Z</time></trkpt><trkpt lat="46.1543046243617" lon="13.168186084372968"><ele>150.5</ele><time>2026-05-01T22:16:01Z</time></trkpt><trkpt lat="46.154055369482826" lon="13.168328003147236"><ele>150.0</ele><time>2026-05-01T22:16:02Z</time></trkpt><trkpt lat="46.15379843174886" lon="13.168463327338106"><ele>157.0</ele><time>2026-05-01T22:16:03Z</time></trkpt><trkpt lat="46.153546000570365" lon="13.168598372142414"><ele>164.0</ele><time>2026-05-01T22:16:04Z</time></trkpt><trkpt lat="46.153292190612554" lon="13.16872894134439"><ele>169.0</ele><time>2026-05-01T22:16:05Z</time></trkpt><trkpt lat="46.15303329121133" lon="13.168851417306604"><ele>174.0</ele><time>2026-05-01T22:16:06Z</time></trkpt><trkpt lat="46.15278003285031" lon="13.168978597829353"><ele>174.5</ele><time>2026-05-01T22:16:07Z</time></trkpt><trkpt lat="46.15252657866917" lon="13.16911040770013"><ele>175.0</ele><time>2026-05-01T22:16:08Z</time></trkpt><trkpt lat="46.15226785847741" lon="13.169245741624922"><ele>175.0</ele><time>2026-05-01T22:16:09Z</time></trkpt><trkpt lat="46.152010111111416" lon="13.169373078859127"><ele>175.0</ele><time>2026-05-01T22:16:10Z</time></trkpt><trkpt lat="46.15175203403668" lon="13.169497406494607"><ele>176.5</ele><time>2026-05-01T22:16:11Z</time></trkpt><trkpt lat="46.15149928548003" lon="13.169620071898986"><ele>178.0</ele><time>2026-05-01T22:16:12Z</time></trkpt><trkpt lat="46.1512410643239" lon="13.16974719205798"><ele>176.5</ele><time>2026-05-01T22:16:13Z</time></trkpt><trkpt lat="46.15098266316759" lon="13.169877421081628"><ele>175.0</ele><time>2026-05-01T22:16:14Z</time></trkpt><trkpt lat="46.15072940987568" lon="13.17000577203378"><ele>177.5</ele><time>2026-05-01T22:16:15Z</time></trkpt><trkpt lat="46.15046890876568" lon="13.170136808015368"><ele>180.0</ele><time>2026-05-01T22:16:16Z</time></trkpt><trkpt lat="46.15020901860892" lon="13.170264304484027"><ele>180.0</ele><time>2026-05-01T22:16:17Z</time></trkpt><trkpt lat="46.149948576739845" lon="13.17038515192847"><ele>180.0</ele><time>2026-05-01T22:16:18Z</time></trkpt><trkpt lat="46.14968675838725" lon="13.170511596530892"><ele>181.0</ele><time>2026-05-01T22:16:19Z</time></trkpt><trkpt lat="46.14942632053407" lon="13.17064546078266"><ele>182.0</ele><time>2026-05-01T22:16:20Z</time></trkpt><trkpt lat="46.14916589216994" lon="13.170775947368506"><ele>181.5</ele><time>2026-05-01T22:16:21Z</time></trkpt><trkpt lat="46.14890206924259" lon="13.17090571777737"><ele>181.0</ele><time>2026-05-01T22:16:22Z</time></trkpt><trkpt lat="46.14864345921799" lon="13.171040932747754"><ele>181.0</ele><time>2026-05-01T22:16:23Z</time></trkpt><trkpt lat="46.148382643602055" lon="13.171172080342192"><ele>181.0</ele><time>2026-05-01T22:16:24Z</time></trkpt><trkpt lat="46.14812307946861" lon="13.17130147253421"><ele>181.0</ele><time>2026-05-01T22:16:25Z</time></trkpt><trkpt lat="46.14786104905464" lon="13.17142875290777"><ele>181.0</ele><time>2026-05-01T22:16:26Z</time></trkpt><trkpt lat="46.147600217480445" lon="13.171558848496856"><ele>181.0</ele><time>2026-05-01T22:16:27Z</time></trkpt><trkpt lat="46.14734104149947" lon="13.171687363192502"><ele>181.0</ele><time>2026-05-01T22:16:28Z</time></trkpt><trkpt lat="46.14708081709649" lon="13.171823225591815"><ele>181.0</ele><time>2026-05-01T22:16:29Z</time></trkpt><trkpt lat="46.14682045172695" lon="13.171954200765768"><ele>181.0</ele><time>2026-05-01T22:16:30Z</time></trkpt><trkpt lat="46.1465629314208" lon="13.172084256556673"><ele>182.5</ele><time>2026-05-01T22:16:31Z</time></trkpt><trkpt lat="46.146304336003055" lon="13.172219061687006"><ele>184.0</ele><time>2026-05-01T22:16:32Z</time></trkpt><trkpt lat="46.14604594387738" lon="13.172354211063736"><ele>184.0</ele><time>2026-05-01T22:16:33Z</time></trkpt><trkpt lat="46.1457890723294" lon="13.172480675231661"><ele>184.0</ele><time>2026-05-01T22:16:34Z</time></trkpt><trkpt lat="46.14552903286037" lon="13.172608679735994"><ele>185.0</ele><time>2026-05-01T22:16:35Z</time></trkpt><trkpt lat="46.14527256197069" lon="13.17273610935676"><ele>186.0</ele><time>2026-05-01T22:16:36Z</time></trkpt><trkpt lat="46.14501647068376" lon="13.172857157800825"><ele>186.0</ele><time>2026-05-01T22:16:37Z</time></trkpt><trkpt lat="46.14475982355318" lon="13.172987574880754"><ele>186.0</ele><time>2026-05-01T22:16:38Z</time></trkpt><trkpt lat="46.14450140090181" lon="13.173115648004018"><ele>186.0</ele><time>2026-05-01T22:16:39Z</time></trkpt><trkpt lat="46.144246163755255" lon="13.173242115785268"><ele>186.0</ele><time>2026-05-01T22:16:40Z</time></trkpt><trkpt lat="46.14399108496888" lon="13.17336975275018"><ele>186.5</ele><time>2026-05-01T22:16:41Z</time></trkpt><trkpt lat="46.14373405586191" lon="13.173494987108135"><ele>187.0</ele><time>2026-05-01T22:16:42Z</time></trkpt><trkpt lat="46.143478210664036" lon="13.173616913843695"><ele>187.0</ele><time>2026-05-01T22:16:43Z</time></trkpt><trkpt lat="46.14322282585421" lon="13.173743255898192"><ele>187.0</ele><time>2026-05-01T22:16:44Z</time></trkpt><trkpt lat="46.14297142834342" lon="13.173877220468826"><ele>188.0</ele><time>2026-05-01T22:16:45Z</time></trkpt><trkpt lat="46.142719535414244" lon="13.174021955113012"><ele>189.0</ele><time>2026-05-01T22:16:46Z</time></trkpt><trkpt lat="46.1424689263635" lon="13.174174891730791"><ele>189.5</ele><time>2026-05-01T22:16:47Z</time></trkpt><trkpt lat="46.14221640753117" lon="13.174330607042226"><ele>190.0</ele><time>2026-05-01T22:16:48Z</time></trkpt><trkpt lat="46.14196830325114" lon="13.174493013083294"><ele>190.0</ele><time>2026-05-01T22:16:49Z</time></trkpt><trkpt lat="46.14171696686287" lon="13.174660958223477"><ele>190.0</ele><time>2026-05-01T22:16:50Z</time></trkpt><trkpt lat="46.14146919074738" lon="13.17483327903806"><ele>190.5</ele><time>2026-05-01T22:16:51Z</time></trkpt><trkpt lat="46.14122243553281" lon="13.175020953253666"><ele>191.0</ele><time>2026-05-01T22:16:52Z</time></trkpt><trkpt lat="46.14097859497414" lon="13.175221805237411"><ele>191.0</ele><time>2026-05-01T22:16:53Z</time></trkpt><trkpt lat="46.140734666721" lon="13.175429419861064"><ele>191.0</ele><time>2026-05-01T22:16:54Z</time></trkpt><trkpt lat="46.14049186501288" lon="13.17563084402214"><ele>193.5</ele><time>2026-05-01T22:16:55Z</time></trkpt><trkpt lat="46.14024872244194" lon="13.175840561794933"><ele>196.0</ele><time>2026-05-01T22:16:56Z</time></trkpt><trkpt lat="46.14001168014111" lon="13.176065399522587"><ele>196.0</ele><time>2026-05-01T22:16:57Z</time></trkpt><trkpt lat="46.1397736865124" lon="13.176290720028195"><ele>196.0</ele><time>2026-05-01T22:16:58Z</time></trkpt><trkpt lat="46.13954440348236" lon="13.176540464265692"><ele>195.5</ele><time>2026-05-01T22:16:59Z</time></trkpt><trkpt lat="46.13932056283553" lon="13.176791576771993"><ele>195.0</ele><time>2026-05-01T22:17:00Z</time></trkpt><trkpt lat="46.13909410125985" lon="13.177040764106428"><ele>194.5</ele><time>2026-05-01T22:17:01Z</time></trkpt><trkpt lat="46.1388742220563" lon="13.177301040420966"><ele>194.0</ele><time>2026-05-01T22:17:02Z</time></trkpt><trkpt lat="46.138656519667805" lon="13.17756608860039"><ele>195.0</ele><time>2026-05-01T22:17:03Z</time></trkpt><trkpt lat="46.138443477141706" lon="13.177833604332266"><ele>196.0</ele><time>2026-05-01T22:17:04Z</time></trkpt><trkpt lat="46.13823576101408" lon="13.178107566261923"><ele>199.0</ele><time>2026-05-01T22:17:05Z</time></trkpt><trkpt lat="46.138030083719904" lon="13.178381188252546"><ele>202.0</ele><time>2026-05-01T22:17:06Z</time></trkpt><trkpt lat="46.13782742650282" lon="13.178661172394433"><ele>202.0</ele><time>2026-05-01T22:17:07Z</time></trkpt><trkpt lat="46.137629396815356" lon="13.17894468874049"><ele>202.0</ele><time>2026-05-01T22:17:08Z</time></trkpt><trkpt lat="46.137438426940086" lon="13.179246371972019"><ele>202.5</ele><time>2026-05-01T22:17:09Z</time></trkpt><trkpt lat="46.13725326033624" lon="13.179550832118847"><ele>203.0</ele><time>2026-05-01T22:17:10Z</time></trkpt><trkpt lat="46.13707181140679" lon="13.179860667010185"><ele>201.0</ele><time>2026-05-01T22:17:11Z</time></trkpt><trkpt lat="46.13689246082754" lon="13.180169069673559"><ele>199.0</ele><time>2026-05-01T22:17:12Z</time></trkpt><trkpt lat="46.136715135448696" lon="13.180487049425949"><ele>196.0</ele><time>2026-05-01T22:17:13Z</time></trkpt><trkpt lat="46.13653855468676" lon="13.180802910503925"><ele>193.0</ele><time>2026-05-01T22:17:14Z</time></trkpt><trkpt lat="46.136368936647074" lon="13.181130540862537"><ele>193.0</ele><time>2026-05-01T22:17:15Z</time></trkpt><trkpt lat="46.13620433539921" lon="13.181467897979903"><ele>193.0</ele><time>2026-05-01T22:17:16Z</time></trkpt><trkpt lat="46.13604286568192" lon="13.181808727326567"><ele>192.5</ele><time>2026-05-01T22:17:17Z</time></trkpt><trkpt lat="46.13588458221195" lon="13.182156662094762"><ele>192.0</ele><time>2026-05-01T22:17:18Z</time></trkpt><trkpt lat="46.13572786346246" lon="13.182505210656451"><ele>191.0</ele><time>2026-05-01T22:17:19Z</time></trkpt><trkpt lat="46.1355744590093" lon="13.182858700827353"><ele>190.0</ele><time>2026-05-01T22:17:20Z</time></trkpt><trkpt lat="46.13541942852179" lon="13.183207909465093"><ele>190.0</ele><time>2026-05-01T22:17:21Z</time></trkpt><trkpt lat="46.13526771101343" lon="13.183559451893888"><ele>190.0</ele><time>2026-05-01T22:17:22Z</time></trkpt><trkpt lat="46.13511394601238" lon="13.18391661263961"><ele>189.5</ele><time>2026-05-01T22:17:23Z</time></trkpt><trkpt lat="46.1349620052718" lon="13.184277341069702"><ele>189.0</ele><time>2026-05-01T22:17:24Z</time></trkpt><trkpt lat="46.134809400685135" lon="13.184633849683031"><ele>188.0</ele><time>2026-05-01T22:17:25Z</time></trkpt><trkpt lat="46.134656072069596" lon="13.184989157137695"><ele>187.0</ele><time>2026-05-01T22:17:26Z</time></trkpt><trkpt lat="46.13450316847387" lon="13.185349578529387"><ele>186.0</ele><time>2026-05-01T22:17:27Z</time></trkpt><trkpt lat="46.13434712706938" lon="13.185710835763537"><ele>185.0</ele><time>2026-05-01T22:17:28Z</time></trkpt><trkpt lat="46.13419238107022" lon="13.18606282597385"><ele>185.0</ele><time>2026-05-01T22:17:29Z</time></trkpt><trkpt lat="46.13403525825014" lon="13.186414621035693"><ele>185.0</ele><time>2026-05-01T22:17:30Z</time></trkpt><trkpt lat="46.13387780208846" lon="13.186769943876525"><ele>185.0</ele><time>2026-05-01T22:17:31Z</time></trkpt><trkpt lat="46.133722323020486" lon="13.187118404525215"><ele>185.0</ele><time>2026-05-01T22:17:32Z</time></trkpt><trkpt lat="46.13356688848642" lon="13.187472594319566"><ele>185.0</ele><time>2026-05-01T22:17:33Z</time></trkpt><trkpt lat="46.13341144650342" lon="13.18782273923249"><ele>185.0</ele><time>2026-05-01T22:17:34Z</time></trkpt><trkpt lat="46.133253658633485" lon="13.188176486729903"><ele>183.0</ele><time>2026-05-01T22:17:35Z</time></trkpt><trkpt lat="46.13309382811442" lon="13.188529720512516"><ele>181.0</ele><time>2026-05-01T22:17:36Z</time></trkpt><trkpt lat="46.13293016983991" lon="13.188878432551245"><ele>180.5</ele><time>2026-05-01T22:17:37Z</time></trkpt><trkpt lat="46.13276228410869" lon="13.189225519556045"><ele>180.0</ele><time>2026-05-01T22:17:38Z</time></trkpt><trkpt lat="46.132594459846366" lon="13.189577712797131"><ele>179.5</ele><time>2026-05-01T22:17:39Z</time></trkpt><trkpt lat="46.132433501593866" lon="13.189931294642028"><ele>179.0</ele><time>2026-05-01T22:17:40Z</time></trkpt><trkpt lat="46.13227888515347" lon="13.19028813610982"><ele>178.5</ele><time>2026-05-01T22:17:41Z</time></trkpt><trkpt lat="46.13211995945075" lon="13.1906511983836"><ele>178.0</ele><time>2026-05-01T22:17:42Z</time></trkpt><trkpt lat="46.131961885322724" lon="13.191006917372148"><ele>176.0</ele><time>2026-05-01T22:17:43Z</time></trkpt><trkpt lat="46.13180158529889" lon="13.191362854299728"><ele>174.0</ele><time>2026-05-01T22:17:44Z</time></trkpt><trkpt lat="46.13164477402037" lon="13.191722340236995"><ele>172.0</ele><time>2026-05-01T22:17:45Z</time></trkpt><trkpt lat="46.131484912722144" lon="13.192082801406656"><ele>170.0</ele><time>2026-05-01T22:17:46Z</time></trkpt><trkpt lat="46.13133063198644" lon="13.192436852191896"><ele>170.0</ele><time>2026-05-01T22:17:47Z</time></trkpt><trkpt lat="46.13117473277858" lon="13.192793859505853"><ele>170.0</ele><time>2026-05-01T22:17:48Z</time></trkpt><trkpt lat="46.13101696104644" lon="13.193153755066243"><ele>170.5</ele><time>2026-05-01T22:17:49Z</time></trkpt><trkpt lat="46.13085821487574" lon="13.193507627209167"><ele>171.0</ele><time>2026-05-01T22:17:50Z</time></trkpt><trkpt lat="46.13070135426939" lon="13.193858813312207"><ele>171.0</ele><time>2026-05-01T22:17:51Z</time></trkpt><trkpt lat="46.13054361720565" lon="13.194211728016173"><ele>171.0</ele><time>2026-05-01T22:17:52Z</time></trkpt><trkpt lat="46.13038562923579" lon="13.194566039270887"><ele>167.5</ele><time>2026-05-01T22:17:53Z</time></trkpt><trkpt lat="46.13023039087953" lon="13.19491724631958"><ele>164.0</ele><time>2026-05-01T22:17:54Z</time></trkpt><trkpt lat="46.1300746477425" lon="13.19527078270494"><ele>164.0</ele><time>2026-05-01T22:17:55Z</time></trkpt><trkpt lat="46.129920557218796" lon="13.195618042235566"><ele>164.0</ele><time>2026-05-01T22:17:56Z</time></trkpt><trkpt lat="46.129764202225175" lon="13.19596584288384"><ele>159.5</ele><time>2026-05-01T22:17:57Z</time></trkpt><trkpt lat="46.12960996377588" lon="13.196311686816884"><ele>155.0</ele><time>2026-05-01T22:17:58Z</time></trkpt><trkpt lat="46.12945625309075" lon="13.196656504198238"><ele>154.0</ele><time>2026-05-01T22:17:59Z</time></trkpt><trkpt lat="46.12930420425208" lon="13.197000880972038"><ele>153.0</ele><time>2026-05-01T22:18:00Z</time></trkpt><trkpt lat="46.12915312430143" lon="13.197342422453682"><ele>150.0</ele><time>2026-05-01T22:18:01Z</time></trkpt><trkpt lat="46.12900411528254" lon="13.197683556508107"><ele>147.0</ele><time>2026-05-01T22:18:02Z</time></trkpt><trkpt lat="46.12885363575901" lon="13.198025903479744"><ele>147.5</ele><time>2026-05-01T22:18:03Z</time></trkpt><trkpt lat="46.12870239508198" lon="13.198363835796771"><ele>148.0</ele><time>2026-05-01T22:18:04Z</time></trkpt><trkpt lat="46.128549977006834" lon="13.198698817848795"><ele>146.5</ele><time>2026-05-01T22:18:05Z</time></trkpt><trkpt lat="46.12839398490799" lon="13.199030320647742"><ele>145.0</ele><time>2026-05-01T22:18:06Z</time></trkpt><trkpt lat="46.12823061299265" lon="13.199363600946889"><ele>144.5</ele><time>2026-05-01T22:18:07Z</time></trkpt><trkpt lat="46.128062403277546" lon="13.199689400773439"><ele>144.0</ele><time>2026-05-01T22:18:08Z</time></trkpt><trkpt lat="46.12788436075473" lon="13.20000997470714"><ele>144.0</ele><time>2026-05-01T22:18:09Z</time></trkpt><trkpt lat="46.12769620347432" lon="13.200321214451874"><ele>144.0</ele><time>2026-05-01T22:18:10Z</time></trkpt><trkpt lat="46.1275014232289" lon="13.200624994269086"><ele>143.0</ele><time>2026-05-01T22:18:11Z</time></trkpt><trkpt lat="46.12730037023734" lon="13.20092146289833"><ele>142.0</ele><time>2026-05-01T22:18:12Z</time></trkpt><trkpt lat="46.127093726694135" lon="13.201209847215152"><ele>142.0</ele><time>2026-05-01T22:18:13Z</time></trkpt><trkpt lat="46.126881936491365" lon="13.201486392883064"><ele>142.0</ele><time>2026-05-01T22:18:14Z</time></trkpt><trkpt lat="46.12666600744998" lon="13.201750397913697"><ele>142.0</ele><time>2026-05-01T22:18:15Z</time></trkpt><trkpt lat="46.12644379406497" lon="13.202006556043301"><ele>142.0</ele><time>2026-05-01T22:18:16Z</time></trkpt><trkpt lat="46.12621608262348" lon="13.202250801099217"><ele>141.5</ele><time>2026-05-01T22:18:17Z</time></trkpt><trkpt lat="46.1259840856614" lon="13.202479906135983"><ele>141.0</ele><time>2026-05-01T22:18:18Z</time></trkpt><trkpt lat="46.1257485399797" lon="13.202698344279707"><ele>140.5</ele><time>2026-05-01T22:18:19Z</time></trkpt><trkpt lat="46.125507818878575" lon="13.202906801597297"><ele>140.0</ele><time>2026-05-01T22:18:20Z</time></trkpt><trkpt lat="46.12526356946888" lon="13.203104209857239"><ele>139.0</ele><time>2026-05-01T22:18:21Z</time></trkpt><trkpt lat="46.12502832871612" lon="13.203290310707265"><ele>138.0</ele><time>2026-05-01T22:18:22Z</time></trkpt><trkpt lat="46.12479237159821" lon="13.203450492944215"><ele>137.0</ele><time>2026-05-01T22:18:23Z</time></trkpt><trkpt lat="46.12454230628399" lon="13.203610122618509"><ele>136.0</ele><time>2026-05-01T22:18:24Z</time></trkpt><trkpt lat="46.124287784250555" lon="13.203758518694588"><ele>136.0</ele><time>2026-05-01T22:18:25Z</time></trkpt><trkpt lat="46.12402908554421" lon="13.2039003944811"><ele>136.0</ele><time>2026-05-01T22:18:26Z</time></trkpt><trkpt lat="46.1237665256143" lon="13.204036885458638"><ele>135.5</ele><time>2026-05-01T22:18:27Z</time></trkpt><trkpt lat="46.12349948527377" lon="13.20415924320068"><ele>135.0</ele><time>2026-05-01T22:18:28Z</time></trkpt><trkpt lat="46.12322976961299" lon="13.204266506867876"><ele>135.0</ele><time>2026-05-01T22:18:29Z</time></trkpt><trkpt lat="46.122956433799835" lon="13.204360928041718"><ele>135.0</ele><time>2026-05-01T22:18:30Z</time></trkpt><trkpt lat="46.12268116656388" lon="13.204441500813164"><ele>135.0</ele><time>2026-05-01T22:18:31Z</time></trkpt><trkpt lat="46.122403908798994" lon="13.204510069236282"><ele>135.0</ele><time>2026-05-01T22:18:32Z</time></trkpt><trkpt lat="46.122125948063854" lon="13.204567395659057"><ele>134.5</ele><time>2026-05-01T22:18:33Z</time></trkpt><trkpt lat="46.12184507100465" lon="13.204616484009941"><ele>134.0</ele><time>2026-05-01T22:18:34Z</time></trkpt><trkpt lat="46.12156315992813" lon="13.20466230591334"><ele>134.0</ele><time>2026-05-01T22:18:35Z</time></trkpt><trkpt lat="46.121284084334874" lon="13.204710562406511"><ele>134.0</ele><time>2026-05-01T22:18:36Z</time></trkpt><trkpt lat="46.12100521900058" lon="13.204758373369753"><ele>133.0</ele><time>2026-05-01T22:18:37Z</time></trkpt><trkpt lat="46.12072686640817" lon="13.20480497376839"><ele>132.0</ele><time>2026-05-01T22:18:38Z</time></trkpt><trkpt lat="46.12044708223014" lon="13.204849688162877"><ele>131.5</ele><time>2026-05-01T22:18:39Z</time></trkpt><trkpt lat="46.12016982830095" lon="13.204892936124946"><ele>131.0</ele><time>2026-05-01T22:18:40Z</time></trkpt><trkpt lat="46.11989285258889" lon="13.20493323676662"><ele>131.0</ele><time>2026-05-01T22:18:41Z</time></trkpt><trkpt lat="46.11961695596548" lon="13.204972900830965"><ele>131.0</ele><time>2026-05-01T22:18:42Z</time></trkpt><trkpt lat="46.11933956023171" lon="13.205014117119848"><ele>131.0</ele><time>2026-05-01T22:18:43Z</time></trkpt><trkpt lat="46.11906788658932" lon="13.205059125762437"><ele>131.0</ele><time>2026-05-01T22:18:44Z</time></trkpt><trkpt lat="46.11880732878134" lon="13.205101887448453"><ele>130.5</ele><time>2026-05-01T22:18:45Z</time></trkpt><trkpt lat="46.118549776168294" lon="13.2051419567547"><ele>130.0</ele><time>2026-05-01T22:18:46Z</time></trkpt><trkpt lat="46.118294210341105" lon="13.205176261226933"><ele>128.5</ele><time>2026-05-01T22:18:47Z</time></trkpt><trkpt lat="46.118036540287285" lon="13.205204332610371"><ele>127.0</ele><time>2026-05-01T22:18:48Z</time></trkpt><trkpt lat="46.11777677821319" lon="13.205225624882976"><ele>127.0</ele><time>2026-05-01T22:18:49Z</time></trkpt><trkpt lat="46.11751218952496" lon="13.205244223350098"><ele>127.0</ele><time>2026-05-01T22:18:50Z</time></trkpt><trkpt lat="46.11724518834644" lon="13.205259440717505"><ele>128.0</ele><time>2026-05-01T22:18:51Z</time></trkpt><trkpt lat="46.11697955189611" lon="13.205270899325377"><ele>129.0</ele><time>2026-05-01T22:18:52Z</time></trkpt><trkpt lat="46.116714124042375" lon="13.205276972231822"><ele>131.5</ele><time>2026-05-01T22:18:53Z</time></trkpt><trkpt lat="46.11644877270133" lon="13.205274184768676"><ele>134.0</ele><time>2026-05-01T22:18:54Z</time></trkpt><trkpt lat="46.116182842369675" lon="13.205261360472528"><ele>134.0</ele><time>2026-05-01T22:18:55Z</time></trkpt><trkpt lat="46.11591733553272" lon="13.205245196841165"><ele>134.0</ele><time>2026-05-01T22:18:56Z</time></trkpt><trkpt lat="46.11565461925434" lon="13.205221166727286"><ele>134.5</ele><time>2026-05-01T22:18:57Z</time></trkpt><trkpt lat="46.11539257882905" lon="13.205191095657868"><ele>135.0</ele><time>2026-05-01T22:18:58Z</time></trkpt><trkpt lat="46.11513143897898" lon="13.205154262878354"><ele>135.0</ele><time>2026-05-01T22:18:59Z</time></trkpt><trkpt lat="46.11486955979487" lon="13.205116402078819"><ele>135.0</ele><time>2026-05-01T22:19:00Z</time></trkpt><trkpt lat="46.11460901312154" lon="13.205072340533125"><ele>135.0</ele><time>2026-05-01T22:19:01Z</time></trkpt><trkpt lat="46.1143508530198" lon="13.205021477872746"><ele>135.0</ele><time>2026-05-01T22:19:02Z</time></trkpt><trkpt lat="46.114093196666076" lon="13.204965861995003"><ele>134.0</ele><time>2026-05-01T22:19:03Z</time></trkpt><trkpt lat="46.11383599464687" lon="13.204906529963814"><ele>133.0</ele><time>2026-05-01T22:19:04Z</time></trkpt><trkpt lat="46.11357947262101" lon="13.204843499214508"><ele>133.0</ele><time>2026-05-01T22:19:05Z</time></trkpt><trkpt lat="46.11332470904138" lon="13.204768705898609"><ele>133.0</ele><time>2026-05-01T22:19:06Z</time></trkpt><trkpt lat="46.11307043726566" lon="13.204687476322931"><ele>133.0</ele><time>2026-05-01T22:19:07Z</time></trkpt><trkpt lat="46.11281585988354" lon="13.204604513624297"><ele>133.0</ele><time>2026-05-01T22:19:08Z</time></trkpt><trkpt lat="46.11255965490158" lon="13.204520045169676"><ele>132.0</ele><time>2026-05-01T22:19:09Z</time></trkpt><trkpt lat="46.11230174059178" lon="13.204433041415811"><ele>131.0</ele><time>2026-05-01T22:19:10Z</time></trkpt><trkpt lat="46.112043831495896" lon="13.204342633030695"><ele>131.0</ele><time>2026-05-01T22:19:11Z</time></trkpt><trkpt lat="46.111783714800616" lon="13.204249824096314"><ele>131.0</ele><time>2026-05-01T22:19:12Z</time></trkpt><trkpt lat="46.11152365566286" lon="13.204154374474445"><ele>130.5</ele><time>2026-05-01T22:19:13Z</time></trkpt><trkpt lat="46.1112625076636" lon="13.204059871315351"><ele>130.0</ele><time>2026-05-01T22:19:14Z</time></trkpt><trkpt lat="46.11100293090781" lon="13.203967010333107"><ele>130.0</ele><time>2026-05-01T22:19:15Z</time></trkpt><trkpt lat="46.11074292003999" lon="13.203872586874908"><ele>130.0</ele><time>2026-05-01T22:19:16Z</time></trkpt><trkpt lat="46.11048197065064" lon="13.203777594410234"><ele>130.5</ele><time>2026-05-01T22:19:17Z</time></trkpt><trkpt lat="46.1102207582624" lon="13.203681448166234"><ele>131.0</ele><time>2026-05-01T22:19:18Z</time></trkpt><trkpt lat="46.109960250669324" lon="13.203587275755837"><ele>130.0</ele><time>2026-05-01T22:19:19Z</time></trkpt><trkpt lat="46.10969874676725" lon="13.203493583383406"><ele>129.0</ele><time>2026-05-01T22:19:20Z</time></trkpt><trkpt lat="46.10943690496965" lon="13.203403499354042"><ele>129.0</ele><time>2026-05-01T22:19:21Z</time></trkpt><trkpt lat="46.10917699911804" lon="13.203314511760171"><ele>129.0</ele><time>2026-05-01T22:19:22Z</time></trkpt><trkpt lat="46.108916121024826" lon="13.20322492339567"><ele>129.5</ele><time>2026-05-01T22:19:23Z</time></trkpt><trkpt lat="46.1086552262602" lon="13.203131988654837"><ele>130.0</ele><time>2026-05-01T22:19:24Z</time></trkpt><trkpt lat="46.10839578348976" lon="13.203039300499968"><ele>130.0</ele><time>2026-05-01T22:19:25Z</time></trkpt><trkpt lat="46.10813592032011" lon="13.202946778508588"><ele>130.0</ele><time>2026-05-01T22:19:26Z</time></trkpt><trkpt lat="46.10787985261851" lon="13.202854462906604"><ele>130.0</ele><time>2026-05-01T22:19:27Z</time></trkpt><trkpt lat="46.107623632691876" lon="13.202762501916856"><ele>130.0</ele><time>2026-05-01T22:19:28Z</time></trkpt><trkpt lat="46.10736668283882" lon="13.202668706044765"><ele>128.5</ele><time>2026-05-01T22:19:29Z</time></trkpt><trkpt lat="46.10711160031609" lon="13.202575671045794"><ele>127.0</ele><time>2026-05-01T22:19:30Z</time></trkpt><trkpt lat="46.106857010419" lon="13.202480391906558"><ele>127.0</ele><time>2026-05-01T22:19:31Z</time></trkpt><trkpt lat="46.106602608906876" lon="13.202382815232696"><ele>127.0</ele><time>2026-05-01T22:19:32Z</time></trkpt><trkpt lat="46.10634586999274" lon="13.202280085199732"><ele>127.0</ele><time>2026-05-01T22:19:33Z</time></trkpt><trkpt lat="46.10608735231042" lon="13.20217181684345"><ele>127.0</ele><time>2026-05-01T22:19:34Z</time></trkpt><trkpt lat="46.10582778219911" lon="13.202062803594858"><ele>127.5</ele><time>2026-05-01T22:19:35Z</time></trkpt><trkpt lat="46.10556624169454" lon="13.20195570288831"><ele>128.0</ele><time>2026-05-01T22:19:36Z</time></trkpt><trkpt lat="46.10530421817629" lon="13.201847124926271"><ele>128.0</ele><time>2026-05-01T22:19:37Z</time></trkpt><trkpt lat="46.10503845889121" lon="13.20173521146036"><ele>128.0</ele><time>2026-05-01T22:19:38Z</time></trkpt><trkpt lat="46.10476900573979" lon="13.201614502243105"><ele>127.5</ele><time>2026-05-01T22:19:39Z</time></trkpt><trkpt lat="46.104496346290766" lon="13.201485978698965"><ele>127.0</ele><time>2026-05-01T22:19:40Z</time></trkpt><trkpt lat="46.104221049126544" lon="13.201353090179342"><ele>126.5</ele><time>2026-05-01T22:19:41Z</time></trkpt><trkpt lat="46.103944310287325" lon="13.201216019445411"><ele>126.0</ele><time>2026-05-01T22:19:42Z</time></trkpt><trkpt lat="46.103668887297" lon="13.201078300676567"><ele>126.0</ele><time>2026-05-01T22:19:43Z</time></trkpt><trkpt lat="46.103389322745436" lon="13.200942262900146"><ele>126.0</ele><time>2026-05-01T22:19:44Z</time></trkpt><trkpt lat="46.103112121760375" lon="13.200809420741468"><ele>125.0</ele><time>2026-05-01T22:19:45Z</time></trkpt><trkpt lat="46.10283590153162" lon="13.200678098760694"><ele>124.0</ele><time>2026-05-01T22:19:46Z</time></trkpt><trkpt lat="46.102560335664535" lon="13.200548168392094"><ele>123.5</ele><time>2026-05-01T22:19:47Z</time></trkpt><trkpt lat="46.10228501144649" lon="13.200418446639729"><ele>123.0</ele><time>2026-05-01T22:19:48Z</time></trkpt><trkpt lat="46.10201065588672" lon="13.200287292030021"><ele>123.0</ele><time>2026-05-01T22:19:49Z</time></trkpt><trkpt lat="46.10173749220261" lon="13.200155587689009"><ele>123.0</ele><time>2026-05-01T22:19:50Z</time></trkpt><trkpt lat="46.101463297829206" lon="13.200024749247426"><ele>124.0</ele><time>2026-05-01T22:19:51Z</time></trkpt><trkpt lat="46.10118648066068" lon="13.199894135976802"><ele>125.0</ele><time>2026-05-01T22:19:52Z</time></trkpt><trkpt lat="46.10091258292998" lon="13.199764282746576"><ele>124.0</ele><time>2026-05-01T22:19:53Z</time></trkpt><trkpt lat="46.10063984709068" lon="13.199633300403855"><ele>123.0</ele><time>2026-05-01T22:19:54Z</time></trkpt><trkpt lat="46.10036455734242" lon="13.199503508133564"><ele>123.0</ele><time>2026-05-01T22:19:55Z</time></trkpt><trkpt lat="46.100089934468606" lon="13.199374598516766"><ele>123.0</ele><time>2026-05-01T22:19:56Z</time></trkpt><trkpt lat="46.09981846744567" lon="13.19924546120034"><ele>122.5</ele><time>2026-05-01T22:19:57Z</time></trkpt><trkpt lat="46.0995451875128" lon="13.199114664231486"><ele>122.0</ele><time>2026-05-01T22:19:58Z</time></trkpt><trkpt lat="46.09927285343433" lon="13.198984334070488"><ele>122.5</ele><time>2026-05-01T22:19:59Z</time></trkpt><trkpt lat="46.09900011717959" lon="13.198852879402567"><ele>123.0</ele><time>2026-05-01T22:20:00Z</time></trkpt><trkpt lat="46.09872827625088" lon="13.198721243423877"><ele>123.0</ele><time>2026-05-01T22:20:01Z</time></trkpt><trkpt lat="46.09845321763004" lon="13.198589069737"><ele>123.0</ele><time>2026-05-01T22:20:02Z</time></trkpt><trkpt lat="46.098179411253845" lon="13.198456061995905"><ele>123.5</ele><time>2026-05-01T22:20:03Z</time></trkpt><trkpt lat="46.097906377832246" lon="13.19832538451469"><ele>124.0</ele><time>2026-05-01T22:20:04Z</time></trkpt><trkpt lat="46.09763069912246" lon="13.198194582772897"><ele>122.0</ele><time>2026-05-01T22:20:05Z</time></trkpt><trkpt lat="46.09735423673561" lon="13.198065615474686"><ele>120.0</ele><time>2026-05-01T22:20:06Z</time></trkpt><trkpt lat="46.0970787006485" lon="13.197934940019808"><ele>120.0</ele><time>2026-05-01T22:20:07Z</time></trkpt><trkpt lat="46.096801075614344" lon="13.197800619407204"><ele>120.0</ele><time>2026-05-01T22:20:08Z</time></trkpt><trkpt lat="46.096521544684215" lon="13.197663610625202"><ele>121.0</ele><time>2026-05-01T22:20:09Z</time></trkpt><trkpt lat="46.096239634831626" lon="13.197526068016789"><ele>122.0</ele><time>2026-05-01T22:20:10Z</time></trkpt><trkpt lat="46.09595846571124" lon="13.19739085740879"><ele>121.5</ele><time>2026-05-01T22:20:11Z</time></trkpt><trkpt lat="46.095674776946375" lon="13.197255222754528"><ele>121.0</ele><time>2026-05-01T22:20:12Z</time></trkpt><trkpt lat="46.0953894268523" lon="13.197118419801171"><ele>121.0</ele><time>2026-05-01T22:20:13Z</time></trkpt><trkpt lat="46.09510324664649" lon="13.19697960484049"><ele>121.0</ele><time>2026-05-01T22:20:14Z</time></trkpt><trkpt lat="46.09481682423722" lon="13.196841176920135"><ele>121.0</ele><time>2026-05-01T22:20:15Z</time></trkpt><trkpt lat="46.094529694420096" lon="13.196703045926716"><ele>121.0</ele><time>2026-05-01T22:20:16Z</time></trkpt><trkpt lat="46.094242383269965" lon="13.196565098957146"><ele>120.0</ele><time>2026-05-01T22:20:17Z</time></trkpt><trkpt lat="46.093954465545934" lon="13.196427601816989"><ele>119.0</ele><time>2026-05-01T22:20:18Z</time></trkpt><trkpt lat="46.09366618824135" lon="13.196292544990241"><ele>119.0</ele><time>2026-05-01T22:20:19Z</time></trkpt><trkpt lat="46.09337717581829" lon="13.196156123996474"><ele>119.0</ele><time>2026-05-01T22:20:20Z</time></trkpt><trkpt lat="46.09308646458228" lon="13.19601759388311"><ele>120.0</ele><time>2026-05-01T22:20:21Z</time></trkpt><trkpt lat="46.092798696164785" lon="13.195878596475758"><ele>121.0</ele><time>2026-05-01T22:20:22Z</time></trkpt><trkpt lat="46.092509151100586" lon="13.195739887121267"><ele>120.0</ele><time>2026-05-01T22:20:23Z</time></trkpt><trkpt lat="46.0922192516254" lon="13.195601361020405"><ele>119.0</ele><time>2026-05-01T22:20:24Z</time></trkpt><trkpt lat="46.091930468503925" lon="13.195462627934434"><ele>119.0</ele><time>2026-05-01T22:20:25Z</time></trkpt><trkpt lat="46.091640718751904" lon="13.19532273294194"><ele>119.0</ele><time>2026-05-01T22:20:26Z</time></trkpt><trkpt lat="46.09135118424852" lon="13.195183382850301"><ele>119.0</ele><time>2026-05-01T22:20:27Z</time></trkpt><trkpt lat="46.091062640980326" lon="13.195044682472565"><ele>119.0</ele><time>2026-05-01T22:20:28Z</time></trkpt><trkpt lat="46.09077265709002" lon="13.194905240476336"><ele>119.5</ele><time>2026-05-01T22:20:29Z</time></trkpt><trkpt lat="46.090486213018444" lon="13.19476926048805"><ele>120.0</ele><time>2026-05-01T22:20:30Z</time></trkpt><trkpt lat="46.090202783233565" lon="13.194634505744167"><ele>119.5</ele><time>2026-05-01T22:20:31Z</time></trkpt><trkpt lat="46.08992354327191" lon="13.194504114899106"><ele>119.0</ele><time>2026-05-01T22:20:32Z</time></trkpt><trkpt lat="46.08964692852004" lon="13.194374225054416"><ele>119.0</ele><time>2026-05-01T22:20:33Z</time></trkpt><trkpt lat="46.08936953624931" lon="13.194242856133878"><ele>119.0</ele><time>2026-05-01T22:20:34Z</time></trkpt><trkpt lat="46.089093217709106" lon="13.194110692658722"><ele>118.5</ele><time>2026-05-01T22:20:35Z</time></trkpt><trkpt lat="46.08881669098436" lon="13.193978068291779"><ele>118.0</ele><time>2026-05-01T22:20:36Z</time></trkpt><trkpt lat="46.08854068046177" lon="13.19384580164003"><ele>118.0</ele><time>2026-05-01T22:20:37Z</time></trkpt><trkpt lat="46.08826280666495" lon="13.193711881258961"><ele>118.0</ele><time>2026-05-01T22:20:38Z</time></trkpt><trkpt lat="46.08798567493411" lon="13.193578074020909"><ele>118.0</ele><time>2026-05-01T22:20:39Z</time></trkpt><trkpt lat="46.08770612325621" lon="13.19344144675594"><ele>118.0</ele><time>2026-05-01T22:20:40Z</time></trkpt><trkpt lat="46.08742604001673" lon="13.193305706495897"><ele>117.0</ele><time>2026-05-01T22:20:41Z</time></trkpt><trkpt lat="46.08714298123115" lon="13.193170152838544"><ele>116.0</ele><time>2026-05-01T22:20:42Z</time></trkpt><trkpt lat="46.08686005176855" lon="13.19303668574352"><ele>114.5</ele><time>2026-05-01T22:20:43Z</time></trkpt><trkpt lat="46.086576178999294" lon="13.19290342787815"><ele>113.0</ele><time>2026-05-01T22:20:44Z</time></trkpt><trkpt lat="46.08629412410958" lon="13.1927696113773"><ele>113.0</ele><time>2026-05-01T22:20:45Z</time></trkpt><trkpt lat="46.08601158847269" lon="13.19263633855489"><ele>113.0</ele><time>2026-05-01T22:20:46Z</time></trkpt><trkpt lat="46.08573056730181" lon="13.192501942740794"><ele>113.5</ele><time>2026-05-01T22:20:47Z</time></trkpt><trkpt lat="46.08544850209201" lon="13.192367305570453"><ele>114.0</ele><time>2026-05-01T22:20:48Z</time></trkpt><trkpt lat="46.08516875837015" lon="13.192233877844867"><ele>115.5</ele><time>2026-05-01T22:20:49Z</time></trkpt><trkpt lat="46.08488919639912" lon="13.192095844457823"><ele>117.0</ele><time>2026-05-01T22:20:50Z</time></trkpt><trkpt lat="46.08461078328065" lon="13.191956273825628"><ele>117.0</ele><time>2026-05-01T22:20:51Z</time></trkpt><trkpt lat="46.08433406653903" lon="13.191819768952314"><ele>117.0</ele><time>2026-05-01T22:20:52Z</time></trkpt><trkpt lat="46.08405784973619" lon="13.191689252736582"><ele>117.0</ele><time>2026-05-01T22:20:53Z</time></trkpt><trkpt lat="46.08377768816629" lon="13.191568850255942"><ele>117.0</ele><time>2026-05-01T22:20:54Z</time></trkpt><trkpt lat="46.083499826491476" lon="13.191466120140971"><ele>116.5</ele><time>2026-05-01T22:20:55Z</time></trkpt><trkpt lat="46.08321788435513" lon="13.19137885718558"><ele>116.0</ele><time>2026-05-01T22:20:56Z</time></trkpt><trkpt lat="46.082933536209936" lon="13.191307883628397"><ele>116.0</ele><time>2026-05-01T22:20:57Z</time></trkpt><trkpt lat="46.082648320760306" lon="13.191260601323812"><ele>116.0</ele><time>2026-05-01T22:20:58Z</time></trkpt><trkpt lat="46.08235928319297" lon="13.191229923321998"><ele>115.0</ele><time>2026-05-01T22:20:59Z</time></trkpt><trkpt lat="46.08206649394515" lon="13.191212857159057"><ele>114.0</ele><time>2026-05-01T22:21:00Z</time></trkpt><trkpt lat="46.08177397516431" lon="13.191206732326657"><ele>112.5</ele><time>2026-05-01T22:21:01Z</time></trkpt><trkpt lat="46.081480933195515" lon="13.191216850418208"><ele>111.0</ele><time>2026-05-01T22:21:02Z</time></trkpt><trkpt lat="46.081187005208776" lon="13.191242018452169"><ele>111.0</ele><time>2026-05-01T22:21:03Z</time></trkpt><trkpt lat="46.08089866867032" lon="13.191289038429778"><ele>111.0</ele><time>2026-05-01T22:21:04Z</time></trkpt><trkpt lat="46.08061186219346" lon="13.191360065789976"><ele>109.0</ele><time>2026-05-01T22:21:05Z</time></trkpt><trkpt lat="46.08033242658689" lon="13.191454342668386"><ele>107.0</ele><time>2026-05-01T22:21:06Z</time></trkpt><trkpt lat="46.08005664287045" lon="13.191573372397675"><ele>106.5</ele><time>2026-05-01T22:21:07Z</time></trkpt><trkpt lat="46.07978299366425" lon="13.191703981739833"><ele>106.0</ele><time>2026-05-01T22:21:08Z</time></trkpt><trkpt lat="46.079513052089595" lon="13.191855752401333"><ele>106.0</ele><time>2026-05-01T22:21:09Z</time></trkpt><trkpt lat="46.07924078062796" lon="13.192013022246185"><ele>106.0</ele><time>2026-05-01T22:21:10Z</time></trkpt><trkpt lat="46.078970821370156" lon="13.19218067313813"><ele>107.5</ele><time>2026-05-01T22:21:11Z</time></trkpt><trkpt lat="46.078705232626646" lon="13.192364631700585"><ele>109.0</ele><time>2026-05-01T22:21:12Z</time></trkpt><trkpt lat="46.078450171089095" lon="13.192568270216997"><ele>109.0</ele><time>2026-05-01T22:21:13Z</time></trkpt><trkpt lat="46.078206441224005" lon="13.192786112518592"><ele>109.0</ele><time>2026-05-01T22:21:14Z</time></trkpt><trkpt lat="46.077963430088495" lon="13.193012845040938"><ele>108.5</ele><time>2026-05-01T22:21:15Z</time></trkpt><trkpt lat="46.077720052348155" lon="13.193242847657872"><ele>108.0</ele><time>2026-05-01T22:21:16Z</time></trkpt><trkpt lat="46.0774760132315" lon="13.193472198780297"><ele>109.5</ele><time>2026-05-01T22:21:17Z</time></trkpt><trkpt lat="46.07723112051075" lon="13.19369910359493"><ele>111.0</ele><time>2026-05-01T22:21:18Z</time></trkpt><trkpt lat="46.0769870193282" lon="13.193927669566358"><ele>110.5</ele><time>2026-05-01T22:21:19Z</time></trkpt><trkpt lat="46.07674311100377" lon="13.194159452604223"><ele>110.0</ele><time>2026-05-01T22:21:20Z</time></trkpt><trkpt lat="46.076501876262725" lon="13.194393488558344"><ele>111.0</ele><time>2026-05-01T22:21:21Z</time></trkpt><trkpt lat="46.0762608338024" lon="13.194629957070845"><ele>112.0</ele><time>2026-05-01T22:21:22Z</time></trkpt><trkpt lat="46.07601942967169" lon="13.194866516622184"><ele>112.0</ele><time>2026-05-01T22:21:23Z</time></trkpt><trkpt lat="46.075775304114416" lon="13.195100150542496"><ele>112.0</ele><time>2026-05-01T22:21:24Z</time></trkpt><trkpt lat="46.075527689073226" lon="13.195325072811576"><ele>112.0</ele><time>2026-05-01T22:21:25Z</time></trkpt><trkpt lat="46.07527430854437" lon="13.195534832659137"><ele>112.0</ele><time>2026-05-01T22:21:26Z</time></trkpt><trkpt lat="46.0750129087893" lon="13.195725209349588"><ele>111.0</ele><time>2026-05-01T22:21:27Z</time></trkpt><trkpt lat="46.07474510397842" lon="13.195898667163439"><ele>110.0</ele><time>2026-05-01T22:21:28Z</time></trkpt><trkpt lat="46.07447567279445" lon="13.196056488734197"><ele>110.0</ele><time>2026-05-01T22:21:29Z</time></trkpt><trkpt lat="46.07420233826526" lon="13.196203066458322"><ele>110.0</ele><time>2026-05-01T22:21:30Z</time></trkpt><trkpt lat="46.07392550511724" lon="13.196336945987134"><ele>110.5</ele><time>2026-05-01T22:21:31Z</time></trkpt><trkpt lat="46.07364428763089" lon="13.196455504135562"><ele>111.0</ele><time>2026-05-01T22:21:32Z</time></trkpt><trkpt lat="46.07336039417776" lon="13.19655700877777"><ele>111.5</ele><time>2026-05-01T22:21:33Z</time></trkpt><trkpt lat="46.073074530565" lon="13.196634719559377"><ele>112.0</ele><time>2026-05-01T22:21:34Z</time></trkpt><trkpt lat="46.0727866875526" lon="13.19669784635799"><ele>112.0</ele><time>2026-05-01T22:21:35Z</time></trkpt><trkpt lat="46.07249805829851" lon="13.19674434358174"><ele>112.0</ele><time>2026-05-01T22:21:36Z</time></trkpt><trkpt lat="46.07221003320591" lon="13.196784253394314"><ele>110.5</ele><time>2026-05-01T22:21:37Z</time></trkpt><trkpt lat="46.07192124184487" lon="13.196821355234219"><ele>109.0</ele><time>2026-05-01T22:21:38Z</time></trkpt><trkpt lat="46.0716356809642" lon="13.196860312308699"><ele>108.0</ele><time>2026-05-01T22:21:39Z</time></trkpt><trkpt lat="46.071351762794" lon="13.196901357582815"><ele>107.0</ele><time>2026-05-01T22:21:40Z</time></trkpt><trkpt lat="46.07106735975146" lon="13.196940423744152"><ele>107.0</ele><time>2026-05-01T22:21:41Z</time></trkpt><trkpt lat="46.07078526442598" lon="13.196978902518682"><ele>107.0</ele><time>2026-05-01T22:21:42Z</time></trkpt><trkpt lat="46.070511530783435" lon="13.197015728833602"><ele>107.0</ele><time>2026-05-01T22:21:43Z</time></trkpt><trkpt lat="46.07024565738324" lon="13.197050120396021"><ele>107.0</ele><time>2026-05-01T22:21:44Z</time></trkpt><trkpt lat="46.06996730139762" lon="13.197084762232933"><ele>108.0</ele><time>2026-05-01T22:21:45Z</time></trkpt><trkpt lat="46.06968403557868" lon="13.197120998239843"><ele>109.0</ele><time>2026-05-01T22:21:46Z</time></trkpt><trkpt lat="46.06939826938973" lon="13.197157813070259"><ele>109.0</ele><time>2026-05-01T22:21:47Z</time></trkpt><trkpt lat="46.069109676026514" lon="13.197195665120613"><ele>109.0</ele><time>2026-05-01T22:21:48Z</time></trkpt><trkpt lat="46.0688185074249" lon="13.197234102971235"><ele>108.5</ele><time>2026-05-01T22:21:49Z</time></trkpt><trkpt lat="46.06852614948443" lon="13.197273642908572"><ele>108.0</ele><time>2026-05-01T22:21:50Z</time></trkpt><trkpt lat="46.0682327451883" lon="13.197314362073772"><ele>108.5</ele><time>2026-05-01T22:21:51Z</time></trkpt><trkpt lat="46.067939517146435" lon="13.197356252440857"><ele>109.0</ele><time>2026-05-01T22:21:52Z</time></trkpt><trkpt lat="46.067646212058875" lon="13.197396337182628"><ele>108.0</ele><time>2026-05-01T22:21:53Z</time></trkpt><trkpt lat="46.06735282987838" lon="13.197434305653985"><ele>107.0</ele><time>2026-05-01T22:21:54Z</time></trkpt><trkpt lat="46.06705967180067" lon="13.197469132772412"><ele>107.0</ele><time>2026-05-01T22:21:55Z</time></trkpt><trkpt lat="46.06676801961505" lon="13.197502171460144"><ele>107.0</ele><time>2026-05-01T22:21:56Z</time></trkpt><trkpt lat="46.06647679036535" lon="13.1975358438735"><ele>106.0</ele><time>2026-05-01T22:21:57Z</time></trkpt><trkpt lat="46.06618840439109" lon="13.19757064346235"><ele>105.0</ele><time>2026-05-01T22:21:58Z</time></trkpt><trkpt lat="46.06590068762791" lon="13.197607909246038"><ele>105.5</ele><time>2026-05-01T22:21:59Z</time></trkpt><trkpt lat="46.0656142863896" lon="13.197646643220882"><ele>106.0</ele><time>2026-05-01T22:22:00Z</time></trkpt><trkpt lat="46.06532897367474" lon="13.197684338357915"><ele>106.0</ele><time>2026-05-01T22:22:01Z</time></trkpt><trkpt lat="46.06504597905512" lon="13.197720266391192"><ele>106.0</ele><time>2026-05-01T22:22:02Z</time></trkpt><trkpt lat="46.06476349560059" lon="13.197755876031168"><ele>105.0</ele><time>2026-05-01T22:22:03Z</time></trkpt><trkpt lat="46.06448439732561" lon="13.197793150566119"><ele>104.0</ele><time>2026-05-01T22:22:04Z</time></trkpt><trkpt lat="46.06420593831385" lon="13.197830580168926"><ele>104.5</ele><time>2026-05-01T22:22:05Z</time></trkpt><trkpt lat="46.06392994414256" lon="13.19786894864739"><ele>105.0</ele><time>2026-05-01T22:22:06Z</time></trkpt><trkpt lat="46.06365411047962" lon="13.197908931328044"><ele>105.0</ele><time>2026-05-01T22:22:07Z</time></trkpt><trkpt lat="46.06337451507971" lon="13.197947477351446"><ele>105.0</ele><time>2026-05-01T22:22:08Z</time></trkpt><trkpt lat="46.063094631065724" lon="13.197985752457852"><ele>104.0</ele><time>2026-05-01T22:22:09Z</time></trkpt><trkpt lat="46.06281407634472" lon="13.198025844419751"><ele>103.0</ele><time>2026-05-01T22:22:10Z</time></trkpt><trkpt lat="46.06253081682158" lon="13.198066514904486"><ele>101.0</ele><time>2026-05-01T22:22:11Z</time></trkpt><trkpt lat="46.06224811462307" lon="13.198108282535033"><ele>99.0</ele><time>2026-05-01T22:22:12Z</time></trkpt><trkpt lat="46.061963777938736" lon="13.198147563375102"><ele>99.5</ele><time>2026-05-01T22:22:13Z</time></trkpt><trkpt lat="46.061679595438264" lon="13.198184192226973"><ele>100.0</ele><time>2026-05-01T22:22:14Z</time></trkpt><trkpt lat="46.061398358791585" lon="13.198219327496911"><ele>101.0</ele><time>2026-05-01T22:22:15Z</time></trkpt><trkpt lat="46.06111640935006" lon="13.19825687583167"><ele>102.0</ele><time>2026-05-01T22:22:16Z</time></trkpt><trkpt lat="46.06083793720871" lon="13.198298040930213"><ele>104.0</ele><time>2026-05-01T22:22:17Z</time></trkpt><trkpt lat="46.06055759079597" lon="13.19834699289027"><ele>106.0</ele><time>2026-05-01T22:22:18Z</time></trkpt><trkpt lat="46.060278987686104" lon="13.198401552850333"><ele>106.0</ele><time>2026-05-01T22:22:19Z</time></trkpt><trkpt lat="46.059999700331936" lon="13.198459869098636"><ele>106.0</ele><time>2026-05-01T22:22:20Z</time></trkpt><trkpt lat="46.05972084347106" lon="13.198526835540477"><ele>106.0</ele><time>2026-05-01T22:22:21Z</time></trkpt><trkpt lat="46.059441948382265" lon="13.19860259403732"><ele>106.0</ele><time>2026-05-01T22:22:22Z</time></trkpt><trkpt lat="46.05916359399066" lon="13.198692124275894"><ele>105.0</ele><time>2026-05-01T22:22:23Z</time></trkpt><trkpt lat="46.05888851233364" lon="13.1987943803329"><ele>104.0</ele><time>2026-05-01T22:22:24Z</time></trkpt><trkpt lat="46.05861338338714" lon="13.198905100596239"><ele>104.0</ele><time>2026-05-01T22:22:25Z</time></trkpt><trkpt lat="46.0583400310666" lon="13.199024257095266"><ele>104.0</ele><time>2026-05-01T22:22:26Z</time></trkpt><trkpt lat="46.05806708701756" lon="13.199149887739784"><ele>104.0</ele><time>2026-05-01T22:22:27Z</time></trkpt><trkpt lat="46.05779554428209" lon="13.19928099046026"><ele>104.0</ele><time>2026-05-01T22:22:28Z</time></trkpt><trkpt lat="46.05752699069098" lon="13.19942201495149"><ele>103.5</ele><time>2026-05-01T22:22:29Z</time></trkpt><trkpt lat="46.05725945193586" lon="13.19957340940234"><ele>103.0</ele><time>2026-05-01T22:22:30Z</time></trkpt><trkpt lat="46.05699534583473" lon="13.199740668420679"><ele>103.5</ele><time>2026-05-01T22:22:31Z</time></trkpt><trkpt lat="46.056732238282386" lon="13.199918391943527"><ele>104.0</ele><time>2026-05-01T22:22:32Z</time></trkpt><trkpt lat="46.05647025628717" lon="13.200104000932365"><ele>104.5</ele><time>2026-05-01T22:22:33Z</time></trkpt><trkpt lat="46.056208021388635" lon="13.200294163420804"><ele>105.0</ele><time>2026-05-01T22:22:34Z</time></trkpt><trkpt lat="46.055946231289084" lon="13.20048462481081"><ele>102.5</ele><time>2026-05-01T22:22:35Z</time></trkpt><trkpt lat="46.05568350605679" lon="13.20067802278921"><ele>100.0</ele><time>2026-05-01T22:22:36Z</time></trkpt><trkpt lat="46.05542190503195" lon="13.200872975048245"><ele>100.0</ele><time>2026-05-01T22:22:37Z</time></trkpt><trkpt lat="46.055158003522266" lon="13.201067305519514"><ele>100.0</ele><time>2026-05-01T22:22:38Z</time></trkpt><trkpt lat="46.05489977290867" lon="13.201255105282945"><ele>100.0</ele><time>2026-05-01T22:22:39Z</time></trkpt><trkpt lat="46.0546455960723" lon="13.201438263090575"><ele>100.0</ele><time>2026-05-01T22:22:40Z</time></trkpt><trkpt lat="46.05439283298254" lon="13.201621729477333"><ele>100.0</ele><time>2026-05-01T22:22:41Z</time></trkpt><trkpt lat="46.05414224345911" lon="13.20180558600544"><ele>100.0</ele><time>2026-05-01T22:22:42Z</time></trkpt><trkpt lat="46.05389219515022" lon="13.201989322370212"><ele>99.5</ele><time>2026-05-01T22:22:43Z</time></trkpt><trkpt lat="46.053642498951554" lon="13.202172479752116"><ele>99.0</ele><time>2026-05-01T22:22:44Z</time></trkpt><trkpt lat="46.053392437421635" lon="13.202355598401493"><ele>99.5</ele><time>2026-05-01T22:22:45Z</time></trkpt><trkpt lat="46.05314421615518" lon="13.20253919172179"><ele>100.0</ele><time>2026-05-01T22:22:46Z</time></trkpt><trkpt lat="46.052895427976715" lon="13.202723580946595"><ele>100.0</ele><time>2026-05-01T22:22:47Z</time></trkpt><trkpt lat="46.0526452802553" lon="13.202915613197973"><ele>100.0</ele><time>2026-05-01T22:22:48Z</time></trkpt><trkpt lat="46.05239645852213" lon="13.203108336576983"><ele>98.0</ele><time>2026-05-01T22:22:49Z</time></trkpt><trkpt lat="46.05214822014144" lon="13.20330041085299"><ele>96.0</ele><time>2026-05-01T22:22:50Z</time></trkpt><trkpt lat="46.0518978970066" lon="13.203489533124486"><ele>96.0</ele><time>2026-05-01T22:22:51Z</time></trkpt><trkpt lat="46.05164600866274" lon="13.20367397059514"><ele>96.0</ele><time>2026-05-01T22:22:52Z</time></trkpt><trkpt lat="46.05139648729114" lon="13.203858008555871"><ele>95.0</ele><time>2026-05-01T22:22:53Z</time></trkpt><trkpt lat="46.05114578340896" lon="13.204042068663574"><ele>94.0</ele><time>2026-05-01T22:22:54Z</time></trkpt><trkpt lat="46.050896175053005" lon="13.204223537587183"><ele>94.5</ele><time>2026-05-01T22:22:55Z</time></trkpt><trkpt lat="46.05064647386662" lon="13.204405740660269"><ele>95.0</ele><time>2026-05-01T22:22:56Z</time></trkpt><trkpt lat="46.050395658774804" lon="13.204589986718902"><ele>95.0</ele><time>2026-05-01T22:22:57Z</time></trkpt><trkpt lat="46.05014360023217" lon="13.204776073128576"><ele>95.0</ele><time>2026-05-01T22:22:58Z</time></trkpt><trkpt lat="46.049890139763235" lon="13.204963885163394"><ele>93.5</ele><time>2026-05-01T22:22:59Z</time></trkpt><trkpt lat="46.049639613426805" lon="13.205156365820104"><ele>92.0</ele><time>2026-05-01T22:23:00Z</time></trkpt><trkpt lat="46.04939384351139" lon="13.205355294262684"><ele>92.0</ele><time>2026-05-01T22:23:01Z</time></trkpt><trkpt lat="46.04915132993053" lon="13.205563192081192"><ele>92.0</ele><time>2026-05-01T22:23:02Z</time></trkpt><trkpt lat="46.048912330609326" lon="13.205781458170653"><ele>91.0</ele><time>2026-05-01T22:23:03Z</time></trkpt><trkpt lat="46.048683426675765" lon="13.206017537202893"><ele>90.0</ele><time>2026-05-01T22:23:04Z</time></trkpt><trkpt lat="46.048461725687034" lon="13.20627261999347"><ele>91.0</ele><time>2026-05-01T22:23:05Z</time></trkpt><trkpt lat="46.048241676881666" lon="13.206533578828184"><ele>92.0</ele><time>2026-05-01T22:23:06Z</time></trkpt><trkpt lat="46.04802502443166" lon="13.206812448119669"><ele>92.0</ele><time>2026-05-01T22:23:07Z</time></trkpt><trkpt lat="46.04780675828955" lon="13.20709115155318"><ele>92.0</ele><time>2026-05-01T22:23:08Z</time></trkpt><trkpt lat="46.047587389463615" lon="13.207368393924222"><ele>93.5</ele><time>2026-05-01T22:23:09Z</time></trkpt><trkpt lat="46.04736351905822" lon="13.207646542942927"><ele>95.0</ele><time>2026-05-01T22:23:10Z</time></trkpt><trkpt lat="46.04713839435364" lon="13.207922219699087"><ele>94.5</ele><time>2026-05-01T22:23:11Z</time></trkpt><trkpt lat="46.04691280828033" lon="13.208190473703347"><ele>94.0</ele><time>2026-05-01T22:23:12Z</time></trkpt><trkpt lat="46.04668502176988" lon="13.208449071887996"><ele>95.0</ele><time>2026-05-01T22:23:13Z</time></trkpt><trkpt lat="46.04645551908751" lon="13.208691786396582"><ele>96.0</ele><time>2026-05-01T22:23:14Z</time></trkpt><trkpt lat="46.04622086079523" lon="13.208927049586967"><ele>96.5</ele><time>2026-05-01T22:23:15Z</time></trkpt><trkpt lat="46.045983472127034" lon="13.209155329851566"><ele>97.0</ele><time>2026-05-01T22:23:16Z</time></trkpt><trkpt lat="46.0457417672384" lon="13.209378587318001"><ele>97.0</ele><time>2026-05-01T22:23:17Z</time></trkpt><trkpt lat="46.04549953537781" lon="13.209591768324856"><ele>97.0</ele><time>2026-05-01T22:23:18Z</time></trkpt><trkpt lat="46.04525183851792" lon="13.209795573887451"><ele>96.5</ele><time>2026-05-01T22:23:19Z</time></trkpt><trkpt lat="46.04499955884079" lon="13.209988453738378"><ele>96.0</ele><time>2026-05-01T22:23:20Z</time></trkpt><trkpt lat="46.04474533134609" lon="13.210172513247251"><ele>94.5</ele><time>2026-05-01T22:23:21Z</time></trkpt><trkpt lat="46.044491253844015" lon="13.21034806235726"><ele>93.0</ele><time>2026-05-01T22:23:22Z</time></trkpt><trkpt lat="46.044237765144175" lon="13.210511665569934"><ele>90.5</ele><time>2026-05-01T22:23:23Z</time></trkpt><trkpt lat="46.04397930603273" lon="13.21066763887894"><ele>88.0</ele><time>2026-05-01T22:23:24Z</time></trkpt><trkpt lat="46.04371663205096" lon="13.21081552003529"><ele>88.0</ele><time>2026-05-01T22:23:25Z</time></trkpt><trkpt lat="46.04345246853376" lon="13.210951731423023"><ele>88.0</ele><time>2026-05-01T22:23:26Z</time></trkpt><trkpt lat="46.04318654598487" lon="13.211079435778263"><ele>89.0</ele><time>2026-05-01T22:23:27Z</time></trkpt><trkpt lat="46.042919649860345" lon="13.211202688631472"><ele>90.0</ele><time>2026-05-01T22:23:28Z</time></trkpt><trkpt lat="46.04265061276233" lon="13.211320253596215"><ele>90.0</ele><time>2026-05-01T22:23:29Z</time></trkpt><trkpt lat="46.04237972909616" lon="13.211428046821062"><ele>90.0</ele><time>2026-05-01T22:23:30Z</time></trkpt><trkpt lat="46.04210943875955" lon="13.211525512929638"><ele>90.0</ele><time>2026-05-01T22:23:31Z</time></trkpt><trkpt lat="46.04183711333781" lon="13.211611054053478"><ele>90.0</ele><time>2026-05-01T22:23:32Z</time></trkpt><trkpt lat="46.04156378321919" lon="13.211683637109033"><ele>89.5</ele><time>2026-05-01T22:23:33Z</time></trkpt><trkpt lat="46.04128946210072" lon="13.211745607561785"><ele>89.0</ele><time>2026-05-01T22:23:34Z</time></trkpt><trkpt lat="46.041012838726864" lon="13.211798187174033"><ele>89.0</ele><time>2026-05-01T22:23:35Z</time></trkpt><trkpt lat="46.04073653279713" lon="13.211842260039052"><ele>89.0</ele><time>2026-05-01T22:23:36Z</time></trkpt><trkpt lat="46.04045967895582" lon="13.211883161128457"><ele>89.0</ele><time>2026-05-01T22:23:37Z</time></trkpt><trkpt lat="46.040183373135186" lon="13.211918195558198"><ele>89.0</ele><time>2026-05-01T22:23:38Z</time></trkpt><trkpt lat="46.03990352414448" lon="13.211944956782112"><ele>89.0</ele><time>2026-05-01T22:23:39Z</time></trkpt><trkpt lat="46.039621949994405" lon="13.211964733709996"><ele>89.0</ele><time>2026-05-01T22:23:40Z</time></trkpt><trkpt lat="46.03934222999603" lon="13.211981265352442"><ele>87.5</ele><time>2026-05-01T22:23:41Z</time></trkpt><trkpt lat="46.039060812978086" lon="13.21199800302597"><ele>86.0</ele><time>2026-05-01T22:23:42Z</time></trkpt><trkpt lat="46.0387779922788" lon="13.212013730824058"><ele>86.0</ele><time>2026-05-01T22:23:43Z</time></trkpt><trkpt lat="46.03849742244417" lon="13.212031212317255"><ele>86.0</ele><time>2026-05-01T22:23:44Z</time></trkpt><trkpt lat="46.03822443292003" lon="13.212049036436275"><ele>84.5</ele><time>2026-05-01T22:23:45Z</time></trkpt><trkpt lat="46.03795504765589" lon="13.21206547715389"><ele>83.0</ele><time>2026-05-01T22:23:46Z</time></trkpt><trkpt lat="46.037679567379946" lon="13.212083033971394"><ele>82.5</ele><time>2026-05-01T22:23:47Z</time></trkpt><trkpt lat="46.03739615233614" lon="13.212101221046817"><ele>82.0</ele><time>2026-05-01T22:23:48Z</time></trkpt><trkpt lat="46.037110328600406" lon="13.212118377347089"><ele>82.0</ele><time>2026-05-01T22:23:49Z</time></trkpt><trkpt lat="46.03682257402174" lon="13.212137906291236"><ele>82.0</ele><time>2026-05-01T22:23:50Z</time></trkpt><trkpt lat="46.03653384205343" lon="13.212157958372176"><ele>82.5</ele><time>2026-05-01T22:23:51Z</time></trkpt><trkpt lat="46.03624617564397" lon="13.21217655304283"><ele>83.0</ele><time>2026-05-01T22:23:52Z</time></trkpt><trkpt lat="46.035956692838546" lon="13.212193228941954"><ele>81.5</ele><time>2026-05-01T22:23:53Z</time></trkpt><trkpt lat="46.03566913458014" lon="13.212209418806273"><ele>80.0</ele><time>2026-05-01T22:23:54Z</time></trkpt><trkpt lat="46.035383284582764" lon="13.212226660039454"><ele>80.0</ele><time>2026-05-01T22:23:55Z</time></trkpt><trkpt lat="46.03509721522755" lon="13.21224465445027"><ele>80.0</ele><time>2026-05-01T22:23:56Z</time></trkpt><trkpt lat="46.03481459743171" lon="13.21226394554015"><ele>80.5</ele><time>2026-05-01T22:23:57Z</time></trkpt><trkpt lat="46.03453202852491" lon="13.21228302031072"><ele>81.0</ele><time>2026-05-01T22:23:58Z</time></trkpt><trkpt lat="46.03425100737917" lon="13.21230099126342"><ele>82.0</ele><time>2026-05-01T22:23:59Z</time></trkpt><trkpt lat="46.033970562713" lon="13.212319255280583"><ele>83.0</ele><time>2026-05-01T22:24:00Z</time></trkpt><trkpt lat="46.03368905604409" lon="13.21233830717374"><ele>84.5</ele><time>2026-05-01T22:24:01Z</time></trkpt><trkpt lat="46.033407860103836" lon="13.212356581181702"><ele>86.0</ele><time>2026-05-01T22:24:02Z</time></trkpt><trkpt lat="46.03312685194235" lon="13.212374638295787"><ele>86.0</ele><time>2026-05-01T22:24:03Z</time></trkpt><trkpt lat="46.03284691157807" lon="13.21239261530627"><ele>86.0</ele><time>2026-05-01T22:24:04Z</time></trkpt><trkpt lat="46.03256633997541" lon="13.21240942378442"><ele>86.0</ele><time>2026-05-01T22:24:05Z</time></trkpt><trkpt lat="46.032288231738455" lon="13.212427287411796"><ele>86.0</ele><time>2026-05-01T22:24:06Z</time></trkpt><trkpt lat="46.03200703539754" lon="13.212446561829108"><ele>86.0</ele><time>2026-05-01T22:24:07Z</time></trkpt><trkpt lat="46.031728343144586" lon="13.212466152582508"><ele>86.0</ele><time>2026-05-01T22:24:08Z</time></trkpt><trkpt lat="46.031448827744164" lon="13.21248485927062"><ele>85.5</ele><time>2026-05-01T22:24:09Z</time></trkpt><trkpt lat="46.03116698059644" lon="13.212503487228977"><ele>85.0</ele><time>2026-05-01T22:24:10Z</time></trkpt><trkpt lat="46.03088434181144" lon="13.21252327142262"><ele>84.5</ele><time>2026-05-01T22:24:11Z</time></trkpt><trkpt lat="46.03060378939011" lon="13.212542427182457"><ele>84.0</ele><time>2026-05-01T22:24:12Z</time></trkpt><trkpt lat="46.03032146902171" lon="13.212562435607524"><ele>84.0</ele><time>2026-05-01T22:24:13Z</time></trkpt><trkpt lat="46.03003995647545" lon="13.212580516304543"><ele>84.0</ele><time>2026-05-01T22:24:14Z</time></trkpt><trkpt lat="46.029759151889294" lon="13.21259739508603"><ele>82.5</ele><time>2026-05-01T22:24:15Z</time></trkpt><trkpt lat="46.02947827989828" lon="13.212610883440089"><ele>81.0</ele><time>2026-05-01T22:24:16Z</time></trkpt><trkpt lat="46.02919855040148" lon="13.212621263452467"><ele>82.0</ele><time>2026-05-01T22:24:17Z</time></trkpt><trkpt lat="46.02892158042539" lon="13.212623206693923"><ele>83.0</ele><time>2026-05-01T22:24:18Z</time></trkpt><trkpt lat="46.02864791538444" lon="13.2126151806082"><ele>83.0</ele><time>2026-05-01T22:24:19Z</time></trkpt><trkpt lat="46.02837544709193" lon="13.212593545569092"><ele>83.0</ele><time>2026-05-01T22:24:20Z</time></trkpt><trkpt lat="46.02810052323976" lon="13.21255386697294"><ele>81.5</ele><time>2026-05-01T22:24:21Z</time></trkpt><trkpt lat="46.027823934258166" lon="13.212508241655923"><ele>80.0</ele><time>2026-05-01T22:24:22Z</time></trkpt><trkpt lat="46.027544952992805" lon="13.212450277552861"><ele>78.5</ele><time>2026-05-01T22:24:23Z</time></trkpt><trkpt lat="46.027266922987216" lon="13.21238869715563"><ele>77.0</ele><time>2026-05-01T22:24:24Z</time></trkpt><trkpt lat="46.026990788117665" lon="13.212325903869294"><ele>79.0</ele><time>2026-05-01T22:24:25Z</time></trkpt><trkpt lat="46.02671438044911" lon="13.212262153077134"><ele>81.0</ele><time>2026-05-01T22:24:26Z</time></trkpt><trkpt lat="46.026437029376105" lon="13.212201315617772"><ele>81.0</ele><time>2026-05-01T22:24:27Z</time></trkpt><trkpt lat="46.026159287871124" lon="13.212147036306636"><ele>81.0</ele><time>2026-05-01T22:24:28Z</time></trkpt><trkpt lat="46.02587946509272" lon="13.212100144388272"><ele>80.5</ele><time>2026-05-01T22:24:29Z</time></trkpt><trkpt lat="46.02560036078975" lon="13.212066847709226"><ele>80.0</ele><time>2026-05-01T22:24:30Z</time></trkpt><trkpt lat="46.02532086336669" lon="13.212047973257526"><ele>80.0</ele><time>2026-05-01T22:24:31Z</time></trkpt><trkpt lat="46.025039616618564" lon="13.212047593353805"><ele>80.0</ele><time>2026-05-01T22:24:32Z</time></trkpt><trkpt lat="46.02475940663508" lon="13.212066764135011"><ele>80.5</ele><time>2026-05-01T22:24:33Z</time></trkpt><trkpt lat="46.024479258746425" lon="13.212106097002952"><ele>81.0</ele><time>2026-05-01T22:24:34Z</time></trkpt><trkpt lat="46.024200482076786" lon="13.21216243911824"><ele>81.0</ele><time>2026-05-01T22:24:35Z</time></trkpt><trkpt lat="46.02392331026191" lon="13.212237024070907"><ele>81.0</ele><time>2026-05-01T22:24:36Z</time></trkpt><trkpt lat="46.02365109507521" lon="13.212333017983772"><ele>80.5</ele><time>2026-05-01T22:24:37Z</time></trkpt><trkpt lat="46.02338246814948" lon="13.212451012901589"><ele>80.0</ele><time>2026-05-01T22:24:38Z</time></trkpt><trkpt lat="46.023117960271115" lon="13.21258519067042"><ele>80.0</ele><time>2026-05-01T22:24:39Z</time></trkpt><trkpt lat="46.02285582787759" lon="13.212733404543393"><ele>80.0</ele><time>2026-05-01T22:24:40Z</time></trkpt><trkpt lat="46.022596502222115" lon="13.212896301838791"><ele>80.0</ele><time>2026-05-01T22:24:41Z</time></trkpt><trkpt lat="46.022344261705584" lon="13.21307737588127"><ele>80.0</ele><time>2026-05-01T22:24:42Z</time></trkpt><trkpt lat="46.022098969807956" lon="13.213272746164986"><ele>80.5</ele><time>2026-05-01T22:24:43Z</time></trkpt><trkpt lat="46.021858435568724" lon="13.213473936105247"><ele>81.0</ele><time>2026-05-01T22:24:44Z</time></trkpt><trkpt lat="46.021616442223305" lon="13.213678355033595"><ele>81.0</ele><time>2026-05-01T22:24:45Z</time></trkpt><trkpt lat="46.02137736108755" lon="13.213881962643617"><ele>81.0</ele><time>2026-05-01T22:24:46Z</time></trkpt><trkpt lat="46.0211179237019" lon="13.214125439448857"><ele>80.5</ele><time>2026-05-01T22:24:47Z</time></trkpt><trkpt lat="46.02088089504146" lon="13.214324007968475"><ele>80.0</ele><time>2026-05-01T22:24:48Z</time></trkpt><trkpt lat="46.02064776933718" lon="13.214520161472551"><ele>80.0</ele><time>2026-05-01T22:24:49Z</time></trkpt><trkpt lat="46.02041324022666" lon="13.214721790346726"><ele>80.0</ele><time>2026-05-01T22:24:50Z</time></trkpt><trkpt lat="46.0201798313076" lon="13.214918898385328"><ele>80.5</ele><time>2026-05-01T22:24:51Z</time></trkpt><trkpt lat="46.01994882330781" lon="13.215111842325916"><ele>81.0</ele><time>2026-05-01T22:24:52Z</time></trkpt><trkpt lat="46.019720985303294" lon="13.215308486119719"><ele>81.0</ele><time>2026-05-01T22:24:53Z</time></trkpt><trkpt lat="46.01949312707468" lon="13.215496657415839"><ele>81.0</ele><time>2026-05-01T22:24:54Z</time></trkpt><trkpt lat="46.019260807693726" lon="13.215687256464587"><ele>81.0</ele><time>2026-05-01T22:24:55Z</time></trkpt><trkpt lat="46.01903058705223" lon="13.21586989099695"><ele>81.0</ele><time>2026-05-01T22:24:56Z</time></trkpt><trkpt lat="46.01879933306034" lon="13.216048749419635"><ele>81.0</ele><time>2026-05-01T22:24:57Z</time></trkpt><trkpt lat="46.018566683244934" lon="13.216227116929868"><ele>81.0</ele><time>2026-05-01T22:24:58Z</time></trkpt><trkpt lat="46.01833592981495" lon="13.2164024694038"><ele>79.5</ele><time>2026-05-01T22:24:59Z</time></trkpt><trkpt lat="46.01810248122013" lon="13.216580097663707"><ele>78.0</ele><time>2026-05-01T22:25:00Z</time></trkpt><trkpt lat="46.01786812190476" lon="13.216753116418738"><ele>78.0</ele><time>2026-05-01T22:25:01Z</time></trkpt><trkpt lat="46.01762742806816" lon="13.216926353847441"><ele>78.0</ele><time>2026-05-01T22:25:02Z</time></trkpt><trkpt lat="46.017386191677176" lon="13.217097972774784"><ele>78.5</ele><time>2026-05-01T22:25:03Z</time></trkpt><trkpt lat="46.01714166686986" lon="13.217270396913571"><ele>79.0</ele><time>2026-05-01T22:25:04Z</time></trkpt><trkpt lat="46.0168946468216" lon="13.217442911766476"><ele>79.0</ele><time>2026-05-01T22:25:05Z</time></trkpt><trkpt lat="46.016664044346435" lon="13.217613263533547"><ele>79.0</ele><time>2026-05-01T22:25:06Z</time></trkpt><trkpt lat="46.01641582031116" lon="13.217791736539505"><ele>78.5</ele><time>2026-05-01T22:25:07Z</time></trkpt><trkpt lat="46.01617657693329" lon="13.217967694592724"><ele>78.0</ele><time>2026-05-01T22:25:08Z</time></trkpt><trkpt lat="46.01593338186754" lon="13.218131268758306"><ele>78.0</ele><time>2026-05-01T22:25:09Z</time></trkpt><trkpt lat="46.01569190894337" lon="13.218309469324828"><ele>78.0</ele><time>2026-05-01T22:25:10Z</time></trkpt><trkpt lat="46.01545078739495" lon="13.21848428241929"><ele>78.0</ele><time>2026-05-01T22:25:11Z</time></trkpt><trkpt lat="46.01521174940917" lon="13.218664804278395"><ele>78.0</ele><time>2026-05-01T22:25:12Z</time></trkpt><trkpt lat="46.01496928157505" lon="13.218840530103247"><ele>78.0</ele><time>2026-05-01T22:25:13Z</time></trkpt><trkpt lat="46.01472882860382" lon="13.219012843226992"><ele>78.0</ele><time>2026-05-01T22:25:14Z</time></trkpt><trkpt lat="46.0144868213183" lon="13.219185855736038"><ele>78.0</ele><time>2026-05-01T22:25:15Z</time></trkpt><trkpt lat="46.01424582204552" lon="13.21936138154968"><ele>78.0</ele><time>2026-05-01T22:25:16Z</time></trkpt><trkpt lat="46.01400382438449" lon="13.219532047302756"><ele>78.0</ele><time>2026-05-01T22:25:17Z</time></trkpt><trkpt lat="46.01376215019387" lon="13.219704555127214"><ele>78.0</ele><time>2026-05-01T22:25:18Z</time></trkpt><trkpt lat="46.01352041700893" lon="13.21987995599972"><ele>78.5</ele><time>2026-05-01T22:25:19Z</time></trkpt><trkpt lat="46.013278256431065" lon="13.220057083758514"><ele>79.0</ele><time>2026-05-01T22:25:20Z</time></trkpt><trkpt lat="46.013039569425715" lon="13.220235867815191"><ele>79.0</ele><time>2026-05-01T22:25:21Z</time></trkpt><trkpt lat="46.01279381229761" lon="13.220413174061273"><ele>79.0</ele><time>2026-05-01T22:25:22Z</time></trkpt><trkpt lat="46.01254971984977" lon="13.220600393217106"><ele>78.0</ele><time>2026-05-01T22:25:23Z</time></trkpt><trkpt lat="46.012297372454576" lon="13.220782143210913"><ele>77.0</ele><time>2026-05-01T22:25:24Z</time></trkpt><trkpt lat="46.01204600688017" lon="13.22096647208023"><ele>77.0</ele><time>2026-05-01T22:25:25Z</time></trkpt><trkpt lat="46.01179133638019" lon="13.221148137251433"><ele>77.0</ele><time>2026-05-01T22:25:26Z</time></trkpt><trkpt lat="46.011541015393824" lon="13.221331954341888"><ele>76.0</ele><time>2026-05-01T22:25:27Z</time></trkpt><trkpt lat="46.01129135411135" lon="13.221513439479262"><ele>75.0</ele><time>2026-05-01T22:25:28Z</time></trkpt><trkpt lat="46.01104283593042" lon="13.221701528558103"><ele>74.0</ele><time>2026-05-01T22:25:29Z</time></trkpt><trkpt lat="46.010794614905876" lon="13.221888213618747"><ele>73.0</ele><time>2026-05-01T22:25:30Z</time></trkpt><trkpt lat="46.010544747656915" lon="13.222083167575029"><ele>73.0</ele><time>2026-05-01T22:25:31Z</time></trkpt><trkpt lat="46.01029442974205" lon="13.222277649659938"><ele>73.0</ele><time>2026-05-01T22:25:32Z</time></trkpt><trkpt lat="46.01004151228904" lon="13.222463147400529"><ele>74.5</ele><time>2026-05-01T22:25:33Z</time></trkpt><trkpt lat="46.00978931799403" lon="13.222654999302728"><ele>76.0</ele><time>2026-05-01T22:25:34Z</time></trkpt><trkpt lat="46.0095328078864" lon="13.222838175543703"><ele>76.0</ele><time>2026-05-01T22:25:35Z</time></trkpt><trkpt lat="46.00927464509382" lon="13.223024762767395"><ele>76.0</ele><time>2026-05-01T22:25:36Z</time></trkpt><trkpt lat="46.00902281478418" lon="13.223209497166893"><ele>76.5</ele><time>2026-05-01T22:25:37Z</time></trkpt><trkpt lat="46.008756000862626" lon="13.223394855324159"><ele>77.0</ele><time>2026-05-01T22:25:38Z</time></trkpt><trkpt lat="46.008496907708476" lon="13.223570335057978"><ele>75.5</ele><time>2026-05-01T22:25:39Z</time></trkpt><trkpt lat="46.00823510812663" lon="13.223746205976093"><ele>74.0</ele><time>2026-05-01T22:25:40Z</time></trkpt><trkpt lat="46.00797486174739" lon="13.223924903417043"><ele>75.0</ele><time>2026-05-01T22:25:41Z</time></trkpt><trkpt lat="46.00771738352486" lon="13.224107699383678"><ele>76.0</ele><time>2026-05-01T22:25:42Z</time></trkpt><trkpt lat="46.007458939928455" lon="13.224285174804335"><ele>76.0</ele><time>2026-05-01T22:25:43Z</time></trkpt><trkpt lat="46.00720196968249" lon="13.224468198190465"><ele>76.0</ele><time>2026-05-01T22:25:44Z</time></trkpt><trkpt lat="46.006947667789284" lon="13.224653951995332"><ele>76.0</ele><time>2026-05-01T22:25:45Z</time></trkpt><trkpt lat="46.00669092785339" lon="13.224838548241154"><ele>76.0</ele><time>2026-05-01T22:25:46Z</time></trkpt><trkpt lat="46.00643478668075" lon="13.225032162977993"><ele>76.0</ele><time>2026-05-01T22:25:47Z</time></trkpt><trkpt lat="46.00617907897239" lon="13.225220554694541"><ele>76.0</ele><time>2026-05-01T22:25:48Z</time></trkpt><trkpt lat="46.0059234756836" lon="13.225409763883855"><ele>76.5</ele><time>2026-05-01T22:25:49Z</time></trkpt><trkpt lat="46.005665884040575" lon="13.225594825265794"><ele>77.0</ele><time>2026-05-01T22:25:50Z</time></trkpt><trkpt lat="46.00540864720419" lon="13.22578672254252"><ele>76.0</ele><time>2026-05-01T22:25:51Z</time></trkpt><trkpt lat="46.0051512111508" lon="13.225977493508264"><ele>75.0</ele><time>2026-05-01T22:25:52Z</time></trkpt><trkpt lat="46.00489400818846" lon="13.226167736410432"><ele>74.0</ele><time>2026-05-01T22:25:53Z</time></trkpt><trkpt lat="46.00463999443209" lon="13.226349308484465"><ele>73.0</ele><time>2026-05-01T22:25:54Z</time></trkpt><trkpt lat="46.00438231770536" lon="13.226539875988443"><ele>73.0</ele><time>2026-05-01T22:25:55Z</time></trkpt><trkpt lat="46.00412564211477" lon="13.226719497851853"><ele>73.0</ele><time>2026-05-01T22:25:56Z</time></trkpt><trkpt lat="46.00386920686133" lon="13.226901019589874"><ele>73.0</ele><time>2026-05-01T22:25:57Z</time></trkpt><trkpt lat="46.00361470415151" lon="13.227082169181614"><ele>73.0</ele><time>2026-05-01T22:25:58Z</time></trkpt><trkpt lat="46.0033608245288" lon="13.227265174148295"><ele>72.5</ele><time>2026-05-01T22:25:59Z</time></trkpt><trkpt lat="46.00310623001969" lon="13.227450758737238"><ele>72.0</ele><time>2026-05-01T22:26:00Z</time></trkpt><trkpt lat="46.00285614053092" lon="13.227635949590615"><ele>72.0</ele><time>2026-05-01T22:26:01Z</time></trkpt><trkpt lat="46.0026051633757" lon="13.227820265923489"><ele>72.0</ele><time>2026-05-01T22:26:02Z</time></trkpt><trkpt lat="46.00235528563734" lon="13.228007453611312"><ele>71.5</ele><time>2026-05-01T22:26:03Z</time></trkpt><trkpt lat="46.002101933967595" lon="13.228196695889212"><ele>71.0</ele><time>2026-05-01T22:26:04Z</time></trkpt><trkpt lat="46.00184970302023" lon="13.228375930120224"><ele>70.5</ele><time>2026-05-01T22:26:05Z</time></trkpt><trkpt lat="46.00159693992441" lon="13.228554446630849"><ele>70.0</ele><time>2026-05-01T22:26:06Z</time></trkpt><trkpt lat="46.00134005780556" lon="13.228739648424144"><ele>70.0</ele><time>2026-05-01T22:26:07Z</time></trkpt><trkpt lat="46.00108178564821" lon="13.228926903077323"><ele>70.0</ele><time>2026-05-01T22:26:08Z</time></trkpt><trkpt lat="46.00082948132979" lon="13.229105400307667"><ele>71.0</ele><time>2026-05-01T22:26:09Z</time></trkpt><trkpt lat="46.00057076358766" lon="13.229290697966444"><ele>72.0</ele><time>2026-05-01T22:26:10Z</time></trkpt><trkpt lat="46.00031470840537" lon="13.229472167687314"><ele>72.0</ele><time>2026-05-01T22:26:11Z</time></trkpt><trkpt lat="46.00005772510563" lon="13.22965827679789"><ele>72.0</ele><time>2026-05-01T22:26:12Z</time></trkpt><trkpt lat="45.999803821005656" lon="13.229844745161753"><ele>72.0</ele><time>2026-05-01T22:26:13Z</time></trkpt><trkpt lat="45.99955203759677" lon="13.2300308771297"><ele>72.0</ele><time>2026-05-01T22:26:14Z</time></trkpt><trkpt lat="45.999299901787005" lon="13.23021957624572"><ele>71.0</ele><time>2026-05-01T22:26:15Z</time></trkpt><trkpt lat="45.99905149601779" lon="13.230401152689488"><ele>70.0</ele><time>2026-05-01T22:26:16Z</time></trkpt><trkpt lat="45.99881456389712" lon="13.230575841915202"><ele>70.0</ele><time>2026-05-01T22:26:17Z</time></trkpt><trkpt lat="45.998565214796145" lon="13.230752413504378"><ele>70.0</ele><time>2026-05-01T22:26:18Z</time></trkpt><trkpt lat="45.998310569219576" lon="13.230935059210921"><ele>70.0</ele><time>2026-05-01T22:26:19Z</time></trkpt><trkpt lat="45.99805324465776" lon="13.231124255636196"><ele>70.0</ele><time>2026-05-01T22:26:20Z</time></trkpt><trkpt lat="45.9977965618698" lon="13.231311979320486"><ele>70.0</ele><time>2026-05-01T22:26:21Z</time></trkpt><trkpt lat="45.99753819596776" lon="13.231500044566541"><ele>70.0</ele><time>2026-05-01T22:26:22Z</time></trkpt><trkpt lat="45.99727984227189" lon="13.231685525709281"><ele>70.0</ele><time>2026-05-01T22:26:23Z</time></trkpt><trkpt lat="45.99702519107728" lon="13.231867792944987"><ele>70.0</ele><time>2026-05-01T22:26:24Z</time></trkpt><trkpt lat="45.99676607498231" lon="13.232053664752504"><ele>69.0</ele><time>2026-05-01T22:26:25Z</time></trkpt><trkpt lat="45.996504977826326" lon="13.23223697541499"><ele>68.0</ele><time>2026-05-01T22:26:26Z</time></trkpt><trkpt lat="45.99625224252819" lon="13.232418566042588"><ele>68.0</ele><time>2026-05-01T22:26:27Z</time></trkpt><trkpt lat="45.995994328451324" lon="13.232601651848597"><ele>68.0</ele><time>2026-05-01T22:26:28Z</time></trkpt><trkpt lat="45.995737025840306" lon="13.232785115579903"><ele>68.5</ele><time>2026-05-01T22:26:29Z</time></trkpt><trkpt lat="45.995487371663195" lon="13.232968886953463"><ele>69.0</ele><time>2026-05-01T22:26:30Z</time></trkpt><trkpt lat="45.995234738181196" lon="13.233152514150914"><ele>68.5</ele><time>2026-05-01T22:26:31Z</time></trkpt><trkpt lat="45.99498533920136" lon="13.233336190978893"><ele>68.0</ele><time>2026-05-01T22:26:32Z</time></trkpt><trkpt lat="45.99473368350379" lon="13.233513444588501"><ele>68.0</ele><time>2026-05-01T22:26:33Z</time></trkpt><trkpt lat="45.994481888123396" lon="13.233692675348742"><ele>68.0</ele><time>2026-05-01T22:26:34Z</time></trkpt><trkpt lat="45.99423036807289" lon="13.233873341415855"><ele>66.5</ele><time>2026-05-01T22:26:35Z</time></trkpt><trkpt lat="45.99397579332612" lon="13.234056250273612"><ele>65.0</ele><time>2026-05-01T22:26:36Z</time></trkpt><trkpt lat="45.993721714536605" lon="13.234238108270256"><ele>65.0</ele><time>2026-05-01T22:26:37Z</time></trkpt><trkpt lat="45.993466947517895" lon="13.234420044790193"><ele>65.0</ele><time>2026-05-01T22:26:38Z</time></trkpt><trkpt lat="45.99320933227226" lon="13.234602282322875"><ele>66.5</ele><time>2026-05-01T22:26:39Z</time></trkpt><trkpt lat="45.992951708914056" lon="13.23478836942917"><ele>68.0</ele><time>2026-05-01T22:26:40Z</time></trkpt><trkpt lat="45.992696315648786" lon="13.234970309954235"><ele>66.5</ele><time>2026-05-01T22:26:41Z</time></trkpt><trkpt lat="45.99243872811209" lon="13.235152087888162"><ele>65.0</ele><time>2026-05-01T22:26:42Z</time></trkpt><trkpt lat="45.99218978227853" lon="13.235325945001913"><ele>65.0</ele><time>2026-05-01T22:26:43Z</time></trkpt><trkpt lat="45.99194468310168" lon="13.235493960133986"><ele>65.0</ele><time>2026-05-01T22:26:44Z</time></trkpt><trkpt lat="45.991704068399955" lon="13.235665478112788"><ele>66.0</ele><time>2026-05-01T22:26:45Z</time></trkpt><trkpt lat="45.99146841167549" lon="13.235835198029609"><ele>67.0</ele><time>2026-05-01T22:26:46Z</time></trkpt><trkpt lat="45.991232999563366" lon="13.23600437182221"><ele>67.0</ele><time>2026-05-01T22:26:47Z</time></trkpt><trkpt lat="45.9909961885349" lon="13.236179339933159"><ele>67.0</ele><time>2026-05-01T22:26:48Z</time></trkpt><trkpt lat="45.99076089821016" lon="13.236363145322798"><ele>66.5</ele><time>2026-05-01T22:26:49Z</time></trkpt><trkpt lat="45.990517222589425" lon="13.236553532239517"><ele>66.0</ele><time>2026-05-01T22:26:50Z</time></trkpt><trkpt lat="45.990263440335426" lon="13.236749030578455"><ele>65.0</ele><time>2026-05-01T22:26:51Z</time></trkpt><trkpt lat="45.99000485733874" lon="13.236940078072692"><ele>64.0</ele><time>2026-05-01T22:26:52Z</time></trkpt><trkpt lat="45.98974729285615" lon="13.237129320911414"><ele>65.0</ele><time>2026-05-01T22:26:53Z</time></trkpt><trkpt lat="45.98948239322517" lon="13.23731697799118"><ele>66.0</ele><time>2026-05-01T22:26:54Z</time></trkpt><trkpt lat="45.98922215740988" lon="13.23749809477489"><ele>66.5</ele><time>2026-05-01T22:26:55Z</time></trkpt><trkpt lat="45.98895552655062" lon="13.237672000762224"><ele>67.0</ele><time>2026-05-01T22:26:56Z</time></trkpt><trkpt lat="45.98868782295163" lon="13.237849772389183"><ele>67.0</ele><time>2026-05-01T22:26:57Z</time></trkpt><trkpt lat="45.98842194676729" lon="13.238029841390786"><ele>67.0</ele><time>2026-05-01T22:26:58Z</time></trkpt><trkpt lat="45.98815915896973" lon="13.23821448475749"><ele>65.0</ele><time>2026-05-01T22:26:59Z</time></trkpt><trkpt lat="45.987892341553604" lon="13.238406338678265"><ele>63.0</ele><time>2026-05-01T22:27:00Z</time></trkpt><trkpt lat="45.987627164713736" lon="13.238597100052393"><ele>64.0</ele><time>2026-05-01T22:27:01Z</time></trkpt><trkpt lat="45.98736096639122" lon="13.238785560058846"><ele>65.0</ele><time>2026-05-01T22:27:02Z</time></trkpt><trkpt lat="45.98709153284448" lon="13.238974467448884"><ele>65.0</ele><time>2026-05-01T22:27:03Z</time></trkpt><trkpt lat="45.98682881756011" lon="13.239164164630825"><ele>65.0</ele><time>2026-05-01T22:27:04Z</time></trkpt><trkpt lat="45.986563575475074" lon="13.239348235608789"><ele>64.5</ele><time>2026-05-01T22:27:05Z</time></trkpt><trkpt lat="45.98629954794338" lon="13.239539246163268"><ele>64.0</ele><time>2026-05-01T22:27:06Z</time></trkpt><trkpt lat="45.98603722451735" lon="13.239730683259078"><ele>64.5</ele><time>2026-05-01T22:27:07Z</time></trkpt><trkpt lat="45.98576894054674" lon="13.239926626535919"><ele>65.0</ele><time>2026-05-01T22:27:08Z</time></trkpt><trkpt lat="45.985507952416576" lon="13.240115760124974"><ele>65.0</ele><time>2026-05-01T22:27:09Z</time></trkpt><trkpt lat="45.985240942479855" lon="13.240307450810281"><ele>65.0</ele><time>2026-05-01T22:27:10Z</time></trkpt><trkpt lat="45.98497582097066" lon="13.240497712562325"><ele>63.5</ele><time>2026-05-01T22:27:11Z</time></trkpt><trkpt lat="45.98470875605165" lon="13.240689656313071"><ele>62.0</ele><time>2026-05-01T22:27:12Z</time></trkpt><trkpt lat="45.98444531862765" lon="13.24087599359188"><ele>62.0</ele><time>2026-05-01T22:27:13Z</time></trkpt><trkpt lat="45.98418168659298" lon="13.241063042727845"><ele>62.0</ele><time>2026-05-01T22:27:14Z</time></trkpt><trkpt lat="45.98391792526055" lon="13.241252163137174"><ele>62.0</ele><time>2026-05-01T22:27:15Z</time></trkpt><trkpt lat="45.983657813371195" lon="13.241435270336336"><ele>62.0</ele><time>2026-05-01T22:27:16Z</time></trkpt><trkpt lat="45.98339730310796" lon="13.241614913369983"><ele>61.5</ele><time>2026-05-01T22:27:17Z</time></trkpt><trkpt lat="45.98313064917417" lon="13.241794515400294"><ele>61.0</ele><time>2026-05-01T22:27:18Z</time></trkpt><trkpt lat="45.98286835308672" lon="13.241966074922471"><ele>61.0</ele><time>2026-05-01T22:27:19Z</time></trkpt><trkpt lat="45.98260300549722" lon="13.242139167734607"><ele>61.0</ele><time>2026-05-01T22:27:20Z</time></trkpt><trkpt lat="45.982337116682245" lon="13.242309928402312"><ele>61.0</ele><time>2026-05-01T22:27:21Z</time></trkpt><trkpt lat="45.98206936030762" lon="13.242480434563916"><ele>61.0</ele><time>2026-05-01T22:27:22Z</time></trkpt><trkpt lat="45.981799628779214" lon="13.242649830169505"><ele>60.5</ele><time>2026-05-01T22:27:23Z</time></trkpt><trkpt lat="45.98152897138377" lon="13.242817557043454"><ele>60.0</ele><time>2026-05-01T22:27:24Z</time></trkpt><trkpt lat="45.98125785822379" lon="13.242985911165132"><ele>60.0</ele><time>2026-05-01T22:27:25Z</time></trkpt><trkpt lat="45.98098583309799" lon="13.243153073005661"><ele>60.0</ele><time>2026-05-01T22:27:26Z</time></trkpt><trkpt lat="45.98071250478529" lon="13.243314156505557"><ele>59.0</ele><time>2026-05-01T22:27:27Z</time></trkpt><trkpt lat="45.980437502697264" lon="13.243469772473809"><ele>58.0</ele><time>2026-05-01T22:27:28Z</time></trkpt><trkpt lat="45.980162404596946" lon="13.243620754049584"><ele>58.0</ele><time>2026-05-01T22:27:29Z</time></trkpt><trkpt lat="45.97988288784936" lon="13.243768334077695"><ele>58.0</ele><time>2026-05-01T22:27:30Z</time></trkpt><trkpt lat="45.97960353387066" lon="13.243915969978698"><ele>58.0</ele><time>2026-05-01T22:27:31Z</time></trkpt><trkpt lat="45.9793255546905" lon="13.244060105561188"><ele>58.0</ele><time>2026-05-01T22:27:32Z</time></trkpt><trkpt lat="45.97904727441221" lon="13.244200067048347"><ele>59.0</ele><time>2026-05-01T22:27:33Z</time></trkpt><trkpt lat="45.97876838033079" lon="13.244341666553623"><ele>60.0</ele><time>2026-05-01T22:27:34Z</time></trkpt><trkpt lat="45.97849050306537" lon="13.24447982919164"><ele>60.0</ele><time>2026-05-01T22:27:35Z</time></trkpt><trkpt lat="45.978211990519284" lon="13.244616056395905"><ele>60.0</ele><time>2026-05-01T22:27:36Z</time></trkpt><trkpt lat="45.977934935482715" lon="13.244749345705202"><ele>59.5</ele><time>2026-05-01T22:27:37Z</time></trkpt><trkpt lat="45.9776569249416" lon="13.2448791470502"><ele>59.0</ele><time>2026-05-01T22:27:38Z</time></trkpt><trkpt lat="45.97737846308198" lon="13.245004108656815"><ele>57.5</ele><time>2026-05-01T22:27:39Z</time></trkpt><trkpt lat="45.97710278879005" lon="13.245122942147256"><ele>56.0</ele><time>2026-05-01T22:27:40Z</time></trkpt><trkpt lat="45.976825895819594" lon="13.245241186724554"><ele>54.5</ele><time>2026-05-01T22:27:41Z</time></trkpt><trkpt lat="45.976545747403435" lon="13.245359980835133"><ele>53.0</ele><time>2026-05-01T22:27:42Z</time></trkpt><trkpt lat="45.976267638792606" lon="13.245474323997712"><ele>53.0</ele><time>2026-05-01T22:27:43Z</time></trkpt><trkpt lat="45.975990112012035" lon="13.245587129088127"><ele>53.0</ele><time>2026-05-01T22:27:44Z</time></trkpt><trkpt lat="45.97571500504265" lon="13.245695201420057"><ele>54.5</ele><time>2026-05-01T22:27:45Z</time></trkpt><trkpt lat="45.97544007494908" lon="13.245801647157924"><ele>56.0</ele><time>2026-05-01T22:27:46Z</time></trkpt><trkpt lat="45.97516469182941" lon="13.245905465328807"><ele>55.5</ele><time>2026-05-01T22:27:47Z</time></trkpt><trkpt lat="45.974886897065865" lon="13.246006968992328"><ele>55.0</ele><time>2026-05-01T22:27:48Z</time></trkpt><trkpt lat="45.974611801041114" lon="13.246105304711685"><ele>55.0</ele><time>2026-05-01T22:27:49Z</time></trkpt><trkpt lat="45.97433839407186" lon="13.246202264957658"><ele>55.0</ele><time>2026-05-01T22:27:50Z</time></trkpt><trkpt lat="45.97406248419436" lon="13.246301064375778"><ele>54.5</ele><time>2026-05-01T22:27:51Z</time></trkpt><trkpt lat="45.97378505916746" lon="13.246399340386176"><ele>54.0</ele><time>2026-05-01T22:27:52Z</time></trkpt><trkpt lat="45.9735083838951" lon="13.246498847854737"><ele>55.5</ele><time>2026-05-01T22:27:53Z</time></trkpt><trkpt lat="45.97323264785932" lon="13.246600639181704"><ele>57.0</ele><time>2026-05-01T22:27:54Z</time></trkpt><trkpt lat="45.97295648160818" lon="13.246703276103858"><ele>57.0</ele><time>2026-05-01T22:27:55Z</time></trkpt><trkpt lat="45.972679461166436" lon="13.246803196155845"><ele>57.0</ele><time>2026-05-01T22:27:56Z</time></trkpt><trkpt lat="45.97240063574903" lon="13.246901752314626"><ele>55.5</ele><time>2026-05-01T22:27:57Z</time></trkpt><trkpt lat="45.97212074819411" lon="13.247001815930762"><ele>54.0</ele><time>2026-05-01T22:27:58Z</time></trkpt><trkpt lat="45.97184119341684" lon="13.247102248781063"><ele>54.0</ele><time>2026-05-01T22:27:59Z</time></trkpt><trkpt lat="45.971561153694715" lon="13.247203099600977"><ele>54.0</ele><time>2026-05-01T22:28:00Z</time></trkpt><trkpt lat="45.971280137753816" lon="13.247305324150355"><ele>54.0</ele><time>2026-05-01T22:28:01Z</time></trkpt><trkpt lat="45.97100012232961" lon="13.24740585237191"><ele>54.0</ele><time>2026-05-01T22:28:02Z</time></trkpt><trkpt lat="45.97071970329876" lon="13.247504578455388"><ele>55.0</ele><time>2026-05-01T22:28:03Z</time></trkpt><trkpt lat="45.97043923070041" lon="13.247605542712074"><ele>56.0</ele><time>2026-05-01T22:28:04Z</time></trkpt><trkpt lat="45.970159809602286" lon="13.24770232181349"><ele>55.5</ele><time>2026-05-01T22:28:05Z</time></trkpt><trkpt lat="45.969882557110786" lon="13.247803536929805"><ele>55.0</ele><time>2026-05-01T22:28:06Z</time></trkpt><trkpt lat="45.969604668342924" lon="13.247907115564034"><ele>55.0</ele><time>2026-05-01T22:28:07Z</time></trkpt><trkpt lat="45.969331113285506" lon="13.248006126409141"><ele>55.0</ele><time>2026-05-01T22:28:08Z</time></trkpt><trkpt lat="45.969068156031646" lon="13.248099400137107"><ele>54.0</ele><time>2026-05-01T22:28:09Z</time></trkpt><trkpt lat="45.968799751926746" lon="13.248201937666922"><ele>53.0</ele><time>2026-05-01T22:28:10Z</time></trkpt><trkpt lat="45.96852471726179" lon="13.24830134017391"><ele>52.0</ele><time>2026-05-01T22:28:11Z</time></trkpt><trkpt lat="45.96824190519448" lon="13.248399678871232"><ele>51.0</ele><time>2026-05-01T22:28:12Z</time></trkpt><trkpt lat="45.96795719905441" lon="13.248500993381926"><ele>51.0</ele><time>2026-05-01T22:28:13Z</time></trkpt><trkpt lat="45.96766904365914" lon="13.248604631798223"><ele>51.0</ele><time>2026-05-01T22:28:14Z</time></trkpt><trkpt lat="45.96737975563406" lon="13.248709844720425"><ele>51.5</ele><time>2026-05-01T22:28:15Z</time></trkpt><trkpt lat="45.967089408220986" lon="13.248815018723931"><ele>52.0</ele><time>2026-05-01T22:28:16Z</time></trkpt><trkpt lat="45.966794601975806" lon="13.248922183905975"><ele>51.0</ele><time>2026-05-01T22:28:17Z</time></trkpt><trkpt lat="45.966501552432504" lon="13.249029370962596"><ele>50.0</ele><time>2026-05-01T22:28:18Z</time></trkpt><trkpt lat="45.966209326665926" lon="13.24913791061413"><ele>50.0</ele><time>2026-05-01T22:28:19Z</time></trkpt><trkpt lat="45.965916067351436" lon="13.249242994575564"><ele>50.0</ele><time>2026-05-01T22:28:20Z</time></trkpt><trkpt lat="45.96562186479405" lon="13.249346387562715"><ele>50.0</ele><time>2026-05-01T22:28:21Z</time></trkpt><trkpt lat="45.96532817992371" lon="13.24944942608692"><ele>50.0</ele><time>2026-05-01T22:28:22Z</time></trkpt><trkpt lat="45.96503711329972" lon="13.249552509095324"><ele>50.0</ele><time>2026-05-01T22:28:23Z</time></trkpt><trkpt lat="45.96474624917289" lon="13.24965584338875"><ele>50.0</ele><time>2026-05-01T22:28:24Z</time></trkpt><trkpt lat="45.964458170327845" lon="13.249759783272928"><ele>49.0</ele><time>2026-05-01T22:28:25Z</time></trkpt><trkpt lat="45.96416975389065" lon="13.249864186816673"><ele>48.0</ele><time>2026-05-01T22:28:26Z</time></trkpt><trkpt lat="45.96388245116443" lon="13.249968464182738"><ele>48.0</ele><time>2026-05-01T22:28:27Z</time></trkpt><trkpt lat="45.96359773286528" lon="13.250071445529818"><ele>48.0</ele><time>2026-05-01T22:28:28Z</time></trkpt><trkpt lat="45.96331381875459" lon="13.25017499791317"><ele>48.5</ele><time>2026-05-01T22:28:29Z</time></trkpt><trkpt lat="45.96302976396172" lon="13.250284203457861"><ele>49.0</ele><time>2026-05-01T22:28:30Z</time></trkpt><trkpt lat="45.96274360837786" lon="13.250398724705098"><ele>49.0</ele><time>2026-05-01T22:28:31Z</time></trkpt><trkpt lat="45.96245749325852" lon="13.250517315616511"><ele>49.0</ele><time>2026-05-01T22:28:32Z</time></trkpt><trkpt lat="45.96217192971992" lon="13.250639650063805"><ele>49.0</ele><time>2026-05-01T22:28:33Z</time></trkpt><trkpt lat="45.96188817148084" lon="13.25076628611978"><ele>49.0</ele><time>2026-05-01T22:28:34Z</time></trkpt><trkpt lat="45.96160512930962" lon="13.250896083188573"><ele>48.5</ele><time>2026-05-01T22:28:35Z</time></trkpt><trkpt lat="45.961319939131634" lon="13.251028833193322"><ele>48.0</ele><time>2026-05-01T22:28:36Z</time></trkpt><trkpt lat="45.96103841868243" lon="13.251161002373154"><ele>48.5</ele><time>2026-05-01T22:28:37Z</time></trkpt><trkpt lat="45.960755829884555" lon="13.2512954955739"><ele>49.0</ele><time>2026-05-01T22:28:38Z</time></trkpt><trkpt lat="45.960475741399556" lon="13.251431767196216"><ele>49.0</ele><time>2026-05-01T22:28:39Z</time></trkpt><trkpt lat="45.96019540557581" lon="13.25157294674377"><ele>49.0</ele><time>2026-05-01T22:28:40Z</time></trkpt><trkpt lat="45.95991586783456" lon="13.251716752717883"><ele>48.5</ele><time>2026-05-01T22:28:41Z</time></trkpt><trkpt lat="45.95963642096108" lon="13.251861889635233"><ele>48.0</ele><time>2026-05-01T22:28:42Z</time></trkpt><trkpt lat="45.959359390579756" lon="13.252008037877108"><ele>48.0</ele><time>2026-05-01T22:28:43Z</time></trkpt><trkpt lat="45.95908093296384" lon="13.252155737909966"><ele>48.0</ele><time>2026-05-01T22:28:44Z</time></trkpt><trkpt lat="45.95880258454772" lon="13.252306582506998"><ele>48.0</ele><time>2026-05-01T22:28:45Z</time></trkpt><trkpt lat="45.958530062976244" lon="13.252459632601651"><ele>48.0</ele><time>2026-05-01T22:28:46Z</time></trkpt><trkpt lat="45.958255724991176" lon="13.252617059119567"><ele>47.0</ele><time>2026-05-01T22:28:47Z</time></trkpt><trkpt lat="45.957978790092824" lon="13.252777021981888"><ele>46.0</ele><time>2026-05-01T22:28:48Z</time></trkpt><trkpt lat="45.95770499720768" lon="13.25294141785162"><ele>46.0</ele><time>2026-05-01T22:28:49Z</time></trkpt><trkpt lat="45.957431959307876" lon="13.253108909517152"><ele>46.0</ele><time>2026-05-01T22:28:50Z</time></trkpt><trkpt lat="45.95715925472885" lon="13.253279473490796"><ele>46.0</ele><time>2026-05-01T22:28:51Z</time></trkpt><trkpt lat="45.95688569883238" lon="13.253451595557532"><ele>46.0</ele><time>2026-05-01T22:28:52Z</time></trkpt><trkpt lat="45.95661506288077" lon="13.253626499426918"><ele>45.5</ele><time>2026-05-01T22:28:53Z</time></trkpt><trkpt lat="45.95634261376374" lon="13.253803100983708"><ele>45.0</ele><time>2026-05-01T22:28:54Z</time></trkpt><trkpt lat="45.95607375155818" lon="13.253978542317363"><ele>44.5</ele><time>2026-05-01T22:28:55Z</time></trkpt><trkpt lat="45.95580156442869" lon="13.254151349558564"><ele>44.0</ele><time>2026-05-01T22:28:56Z</time></trkpt><trkpt lat="45.95553093491494" lon="13.254324485291756"><ele>44.0</ele><time>2026-05-01T22:28:57Z</time></trkpt><trkpt lat="45.95526111942519" lon="13.254497289188405"><ele>44.0</ele><time>2026-05-01T22:28:58Z</time></trkpt><trkpt lat="45.95499118040404" lon="13.254673088436883"><ele>43.0</ele><time>2026-05-01T22:28:59Z</time></trkpt><trkpt lat="45.95472243558162" lon="13.254848695370407"><ele>42.0</ele><time>2026-05-01T22:29:00Z</time></trkpt><trkpt lat="45.95445445139137" lon="13.255023747352991"><ele>43.0</ele><time>2026-05-01T22:29:01Z</time></trkpt><trkpt lat="45.954185620258166" lon="13.255198937598294"><ele>44.0</ele><time>2026-05-01T22:29:02Z</time></trkpt><trkpt lat="45.953919079564706" lon="13.255369639442272"><ele>44.0</ele><time>2026-05-01T22:29:03Z</time></trkpt><trkpt lat="45.953649170359455" lon="13.255540371955558"><ele>44.0</ele><time>2026-05-01T22:29:04Z</time></trkpt><trkpt lat="45.95338141056922" lon="13.255709115841698"><ele>44.0</ele><time>2026-05-01T22:29:05Z</time></trkpt><trkpt lat="45.95311298871322" lon="13.255880296796922"><ele>44.0</ele><time>2026-05-01T22:29:06Z</time></trkpt><trkpt lat="45.952844642631106" lon="13.25605085491771"><ele>44.0</ele><time>2026-05-01T22:29:07Z</time></trkpt><trkpt lat="45.95257818625376" lon="13.256221405321224"><ele>44.0</ele><time>2026-05-01T22:29:08Z</time></trkpt><trkpt lat="45.95231061244547" lon="13.256393641075816"><ele>44.5</ele><time>2026-05-01T22:29:09Z</time></trkpt><trkpt lat="45.95204666584583" lon="13.25656573893012"><ele>45.0</ele><time>2026-05-01T22:29:10Z</time></trkpt><trkpt lat="45.95178265401166" lon="13.256737472865693"><ele>44.0</ele><time>2026-05-01T22:29:11Z</time></trkpt><trkpt lat="45.95151678879841" lon="13.256907007516022"><ele>43.0</ele><time>2026-05-01T22:29:12Z</time></trkpt><trkpt lat="45.95125204626108" lon="13.25707614947036"><ele>43.0</ele><time>2026-05-01T22:29:13Z</time></trkpt><trkpt lat="45.95099036528765" lon="13.257244984442325"><ele>43.0</ele><time>2026-05-01T22:29:14Z</time></trkpt><trkpt lat="45.95072750725637" lon="13.257414403711541"><ele>42.5</ele><time>2026-05-01T22:29:15Z</time></trkpt><trkpt lat="45.950464542018544" lon="13.257583372758187"><ele>42.0</ele><time>2026-05-01T22:29:16Z</time></trkpt><trkpt lat="45.950202283943256" lon="13.257751582268483"><ele>41.5</ele><time>2026-05-01T22:29:17Z</time></trkpt><trkpt lat="45.94994033823683" lon="13.257920522794262"><ele>41.0</ele><time>2026-05-01T22:29:18Z</time></trkpt><trkpt lat="45.949679572366406" lon="13.258087817546553"><ele>42.0</ele><time>2026-05-01T22:29:19Z</time></trkpt><trkpt lat="45.94941988213117" lon="13.258253316585005"><ele>43.0</ele><time>2026-05-01T22:29:20Z</time></trkpt><trkpt lat="45.94916145311223" lon="13.258418607538161"><ele>43.0</ele><time>2026-05-01T22:29:21Z</time></trkpt><trkpt lat="45.948905403367725" lon="13.258583373128255"><ele>43.0</ele><time>2026-05-01T22:29:22Z</time></trkpt><trkpt lat="45.948648242356" lon="13.258748835791"><ele>43.0</ele><time>2026-05-01T22:29:23Z</time></trkpt><trkpt lat="45.94839286152972" lon="13.258913875107158"><ele>43.0</ele><time>2026-05-01T22:29:24Z</time></trkpt><trkpt lat="45.94813797624387" lon="13.259078713702518"><ele>42.0</ele><time>2026-05-01T22:29:25Z</time></trkpt><trkpt lat="45.94788447524587" lon="13.259241078703027"><ele>41.0</ele><time>2026-05-01T22:29:26Z</time></trkpt><trkpt lat="45.947634009225276" lon="13.259402585066931"><ele>40.5</ele><time>2026-05-01T22:29:27Z</time></trkpt><trkpt lat="45.94737965966524" lon="13.259564949169631"><ele>40.0</ele><time>2026-05-01T22:29:28Z</time></trkpt><trkpt lat="45.94712670755918" lon="13.259726884116866"><ele>40.0</ele><time>2026-05-01T22:29:29Z</time></trkpt><trkpt lat="45.9468732293579" lon="13.259889308153712"><ele>40.0</ele><time>2026-05-01T22:29:30Z</time></trkpt><trkpt lat="45.94661793503" lon="13.260055418229694"><ele>39.5</ele><time>2026-05-01T22:29:31Z</time></trkpt><trkpt lat="45.946363122265126" lon="13.260222485436266"><ele>39.0</ele><time>2026-05-01T22:29:32Z</time></trkpt><trkpt lat="45.94610603313741" lon="13.26038816912916"><ele>39.5</ele><time>2026-05-01T22:29:33Z</time></trkpt><trkpt lat="45.94584921720784" lon="13.260550579399997"><ele>40.0</ele><time>2026-05-01T22:29:34Z</time></trkpt><trkpt lat="45.94559182028564" lon="13.260713522082686"><ele>40.5</ele><time>2026-05-01T22:29:35Z</time></trkpt><trkpt lat="45.945336049367036" lon="13.260876805047495"><ele>41.0</ele><time>2026-05-01T22:29:36Z</time></trkpt><trkpt lat="45.94507938208727" lon="13.261044382079824"><ele>41.0</ele><time>2026-05-01T22:29:37Z</time></trkpt><trkpt lat="45.94481967407739" lon="13.26121420323834"><ele>41.0</ele><time>2026-05-01T22:29:38Z</time></trkpt><trkpt lat="45.944559379667005" lon="13.261380949406512"><ele>40.5</ele><time>2026-05-01T22:29:39Z</time></trkpt><trkpt lat="45.94429910453779" lon="13.261548762218723"><ele>40.0</ele><time>2026-05-01T22:29:40Z</time></trkpt><trkpt lat="45.94403701382326" lon="13.261715179134498"><ele>39.5</ele><time>2026-05-01T22:29:41Z</time></trkpt><trkpt lat="45.94377466265019" lon="13.26188284603503"><ele>39.0</ele><time>2026-05-01T22:29:42Z</time></trkpt><trkpt lat="45.943512790947125" lon="13.262051404676694"><ele>39.0</ele><time>2026-05-01T22:29:43Z</time></trkpt><trkpt lat="45.943250619659075" lon="13.262220956117597"><ele>39.0</ele><time>2026-05-01T22:29:44Z</time></trkpt><trkpt lat="45.94298910900348" lon="13.262391136165352"><ele>39.0</ele><time>2026-05-01T22:29:45Z</time></trkpt><trkpt lat="45.942725079145106" lon="13.262559927386485"><ele>39.0</ele><time>2026-05-01T22:29:46Z</time></trkpt><trkpt lat="45.94246040390403" lon="13.26272915287856"><ele>39.0</ele><time>2026-05-01T22:29:47Z</time></trkpt><trkpt lat="45.94219489644752" lon="13.262899892203913"><ele>39.0</ele><time>2026-05-01T22:29:48Z</time></trkpt><trkpt lat="45.94192963097234" lon="13.263071324088978"><ele>39.0</ele><time>2026-05-01T22:29:49Z</time></trkpt><trkpt lat="45.94166464873376" lon="13.263240891001436"><ele>39.0</ele><time>2026-05-01T22:29:50Z</time></trkpt><trkpt lat="45.941399187078815" lon="13.263408914147153"><ele>39.0</ele><time>2026-05-01T22:29:51Z</time></trkpt><trkpt lat="45.94113395384214" lon="13.2635788985586"><ele>39.0</ele><time>2026-05-01T22:29:52Z</time></trkpt><trkpt lat="45.940868324065896" lon="13.263748928496469"><ele>39.5</ele><time>2026-05-01T22:29:53Z</time></trkpt><trkpt lat="45.94060455122368" lon="13.263916965317154"><ele>40.0</ele><time>2026-05-01T22:29:54Z</time></trkpt><trkpt lat="45.94033860487554" lon="13.264086539567252"><ele>39.5</ele><time>2026-05-01T22:29:55Z</time></trkpt><trkpt lat="45.940074310254396" lon="13.264256734754328"><ele>39.0</ele><time>2026-05-01T22:29:56Z</time></trkpt><trkpt lat="45.93980773895745" lon="13.264426685926566"><ele>39.0</ele><time>2026-05-01T22:29:57Z</time></trkpt><trkpt lat="45.939541268020854" lon="13.26459611449372"><ele>39.0</ele><time>2026-05-01T22:29:58Z</time></trkpt><trkpt lat="45.93927856140635" lon="13.264765333257204"><ele>39.0</ele><time>2026-05-01T22:29:59Z</time></trkpt><trkpt lat="45.939014769010285" lon="13.264935581095918"><ele>39.0</ele><time>2026-05-01T22:30:00Z</time></trkpt><trkpt lat="45.938761006331376" lon="13.265104804382869"><ele>39.0</ele><time>2026-05-01T22:30:01Z</time></trkpt><trkpt lat="45.938523924453364" lon="13.265260487777734"><ele>39.0</ele><time>2026-05-01T22:30:02Z</time></trkpt><trkpt lat="45.938288260142045" lon="13.265411990544806"><ele>39.0</ele><time>2026-05-01T22:30:03Z</time></trkpt><trkpt lat="45.938052417363004" lon="13.265564051421187"><ele>39.0</ele><time>2026-05-01T22:30:04Z</time></trkpt><trkpt lat="45.937815575600226" lon="13.265716215832475"><ele>39.0</ele><time>2026-05-01T22:30:05Z</time></trkpt><trkpt lat="45.93757174076297" lon="13.265869224091963"><ele>39.0</ele><time>2026-05-01T22:30:06Z</time></trkpt><trkpt lat="45.9373216206639" lon="13.266024998959315"><ele>38.5</ele><time>2026-05-01T22:30:07Z</time></trkpt><trkpt lat="45.93706649768877" lon="13.266184993736077"><ele>38.0</ele><time>2026-05-01T22:30:08Z</time></trkpt><trkpt lat="45.936808097253994" lon="13.266352091096838"><ele>37.0</ele><time>2026-05-01T22:30:09Z</time></trkpt><trkpt lat="45.93654858439717" lon="13.266519499190329"><ele>36.0</ele><time>2026-05-01T22:30:10Z</time></trkpt><trkpt lat="45.93628626187126" lon="13.266687666601117"><ele>36.0</ele><time>2026-05-01T22:30:11Z</time></trkpt><trkpt lat="45.93602231313453" lon="13.26685689117103"><ele>36.0</ele><time>2026-05-01T22:30:12Z</time></trkpt><trkpt lat="45.935755613555536" lon="13.267028254967627"><ele>36.0</ele><time>2026-05-01T22:30:13Z</time></trkpt><trkpt lat="45.93549030019524" lon="13.267199487679749"><ele>36.0</ele><time>2026-05-01T22:30:14Z</time></trkpt><trkpt lat="45.935223542259905" lon="13.26737135225515"><ele>35.5</ele><time>2026-05-01T22:30:15Z</time></trkpt><trkpt lat="45.93495599087319" lon="13.26754391198742"><ele>35.0</ele><time>2026-05-01T22:30:16Z</time></trkpt><trkpt lat="45.93468788189527" lon="13.26771698630202"><ele>35.0</ele><time>2026-05-01T22:30:17Z</time></trkpt><trkpt lat="45.934418026715264" lon="13.267889731878798"><ele>35.0</ele><time>2026-05-01T22:30:18Z</time></trkpt><trkpt lat="45.934148560977484" lon="13.268061918228625"><ele>35.5</ele><time>2026-05-01T22:30:19Z</time></trkpt><trkpt lat="45.93387818224567" lon="13.26823504369133"><ele>36.0</ele><time>2026-05-01T22:30:20Z</time></trkpt><trkpt lat="45.93360854587645" lon="13.268408464668669"><ele>36.0</ele><time>2026-05-01T22:30:21Z</time></trkpt><trkpt lat="45.93334090837324" lon="13.26857804038862"><ele>36.0</ele><time>2026-05-01T22:30:22Z</time></trkpt><trkpt lat="45.93307035359297" lon="13.268749483745015"><ele>36.0</ele><time>2026-05-01T22:30:23Z</time></trkpt><trkpt lat="45.93280201126284" lon="13.268921601283525"><ele>36.0</ele><time>2026-05-01T22:30:24Z</time></trkpt><trkpt lat="45.932534308539545" lon="13.269094676525556"><ele>35.0</ele><time>2026-05-01T22:30:25Z</time></trkpt><trkpt lat="45.932266916446224" lon="13.26926709802355"><ele>34.0</ele><time>2026-05-01T22:30:26Z</time></trkpt><trkpt lat="45.93199916603789" lon="13.269437304211019"><ele>34.0</ele><time>2026-05-01T22:30:27Z</time></trkpt><trkpt lat="45.93173225357939" lon="13.269606499628841"><ele>34.0</ele><time>2026-05-01T22:30:28Z</time></trkpt><trkpt lat="45.93146459233565" lon="13.269775785396726"><ele>33.5</ele><time>2026-05-01T22:30:29Z</time></trkpt><trkpt lat="45.93119988085325" lon="13.269945349838514"><ele>33.0</ele><time>2026-05-01T22:30:30Z</time></trkpt><trkpt lat="45.930932523676056" lon="13.270118471642265"><ele>34.5</ele><time>2026-05-01T22:30:31Z</time></trkpt><trkpt lat="45.93066487368133" lon="13.270292765027582"><ele>36.0</ele><time>2026-05-01T22:30:32Z</time></trkpt><trkpt lat="45.93039693922191" lon="13.270467913437633"><ele>35.0</ele><time>2026-05-01T22:30:33Z</time></trkpt><trkpt lat="45.93012986407995" lon="13.270645113519874"><ele>34.0</ele><time>2026-05-01T22:30:34Z</time></trkpt><trkpt lat="45.929860993314875" lon="13.270819816920522"><ele>34.0</ele><time>2026-05-01T22:30:35Z</time></trkpt><trkpt lat="45.92959082442927" lon="13.270991286123111"><ele>34.0</ele><time>2026-05-01T22:30:36Z</time></trkpt><trkpt lat="45.92932202947257" lon="13.271164185066075"><ele>33.5</ele><time>2026-05-01T22:30:37Z</time></trkpt><trkpt lat="45.92905092867526" lon="13.271337317838094"><ele>33.0</ele><time>2026-05-01T22:30:38Z</time></trkpt><trkpt lat="45.928781594270774" lon="13.271512383624223"><ele>33.0</ele><time>2026-05-01T22:30:39Z</time></trkpt><trkpt lat="45.928513070627986" lon="13.271687023073321"><ele>33.0</ele><time>2026-05-01T22:30:40Z</time></trkpt><trkpt lat="45.92824428220647" lon="13.271865065619357"><ele>33.5</ele><time>2026-05-01T22:30:41Z</time></trkpt><trkpt lat="45.92797652022081" lon="13.272046237369436"><ele>34.0</ele><time>2026-05-01T22:30:42Z</time></trkpt><trkpt lat="45.92770705888861" lon="13.272227656961979"><ele>34.5</ele><time>2026-05-01T22:30:43Z</time></trkpt><trkpt lat="45.92743756484984" lon="13.27240745786142"><ele>35.0</ele><time>2026-05-01T22:30:44Z</time></trkpt><trkpt lat="45.92716777482292" lon="13.272584085238085"><ele>35.0</ele><time>2026-05-01T22:30:45Z</time></trkpt><trkpt lat="45.92689731076768" lon="13.272759295890989"><ele>35.0</ele><time>2026-05-01T22:30:46Z</time></trkpt><trkpt lat="45.92662778301294" lon="13.27293225369228"><ele>34.0</ele><time>2026-05-01T22:30:47Z</time></trkpt><trkpt lat="45.92635761130499" lon="13.273104659567112"><ele>33.0</ele><time>2026-05-01T22:30:48Z</time></trkpt><trkpt lat="45.92608869878576" lon="13.273277595875511"><ele>32.5</ele><time>2026-05-01T22:30:49Z</time></trkpt><trkpt lat="45.92582245227991" lon="13.273451220989624"><ele>32.0</ele><time>2026-05-01T22:30:50Z</time></trkpt><trkpt lat="45.9255569315622" lon="13.2736236130918"><ele>32.0</ele><time>2026-05-01T22:30:51Z</time></trkpt><trkpt lat="45.92529051111951" lon="13.273796626719198"><ele>32.0</ele><time>2026-05-01T22:30:52Z</time></trkpt><trkpt lat="45.925026488068696" lon="13.273968030449314"><ele>32.0</ele><time>2026-05-01T22:30:53Z</time></trkpt><trkpt lat="45.92476450006885" lon="13.27413771941841"><ele>32.0</ele><time>2026-05-01T22:30:54Z</time></trkpt><trkpt lat="45.92450037834759" lon="13.274308390487162"><ele>32.0</ele><time>2026-05-01T22:30:55Z</time></trkpt><trkpt lat="45.92423765689792" lon="13.2744729571335"><ele>32.0</ele><time>2026-05-01T22:30:56Z</time></trkpt><trkpt lat="45.923970437524524" lon="13.274635275954504"><ele>31.5</ele><time>2026-05-01T22:30:57Z</time></trkpt><trkpt lat="45.923701940554146" lon="13.27479216143359"><ele>31.0</ele><time>2026-05-01T22:30:58Z</time></trkpt><trkpt lat="45.923437014118335" lon="13.274947688954677"><ele>31.0</ele><time>2026-05-01T22:30:59Z</time></trkpt><trkpt lat="45.92317085127179" lon="13.27510627976565"><ele>31.0</ele><time>2026-05-01T22:31:00Z</time></trkpt><trkpt lat="45.92290647331238" lon="13.27526878650148"><ele>31.0</ele><time>2026-05-01T22:31:01Z</time></trkpt><trkpt lat="45.92264290810397" lon="13.275433159398549"><ele>31.0</ele><time>2026-05-01T22:31:02Z</time></trkpt><trkpt lat="45.92237993606304" lon="13.275593329233374"><ele>30.5</ele><time>2026-05-01T22:31:03Z</time></trkpt><trkpt lat="45.92211679202178" lon="13.275747607731605"><ele>30.0</ele><time>2026-05-01T22:31:04Z</time></trkpt><trkpt lat="45.921852175497385" lon="13.275899783955488"><ele>30.0</ele><time>2026-05-01T22:31:05Z</time></trkpt><trkpt lat="45.92158610003896" lon="13.276051074471274"><ele>30.0</ele><time>2026-05-01T22:31:06Z</time></trkpt><trkpt lat="45.92132031013014" lon="13.276201058550221"><ele>30.0</ele><time>2026-05-01T22:31:07Z</time></trkpt><trkpt lat="45.921054264690675" lon="13.276344218863853"><ele>30.0</ele><time>2026-05-01T22:31:08Z</time></trkpt><trkpt lat="45.92078809495524" lon="13.276484711538533"><ele>30.0</ele><time>2026-05-01T22:31:09Z</time></trkpt><trkpt lat="45.920521683027964" lon="13.276622377519276"><ele>30.0</ele><time>2026-05-01T22:31:10Z</time></trkpt><trkpt lat="45.92025757760282" lon="13.276762835264666"><ele>30.0</ele><time>2026-05-01T22:31:11Z</time></trkpt><trkpt lat="45.91999243782223" lon="13.276899927494219"><ele>30.0</ele><time>2026-05-01T22:31:12Z</time></trkpt><trkpt lat="45.91972869445913" lon="13.27703228693469"><ele>30.0</ele><time>2026-05-01T22:31:13Z</time></trkpt><trkpt lat="45.91946512680847" lon="13.2771628133746"><ele>30.0</ele><time>2026-05-01T22:31:14Z</time></trkpt><trkpt lat="45.91920208251537" lon="13.27728916223527"><ele>30.5</ele><time>2026-05-01T22:31:15Z</time></trkpt><trkpt lat="45.91893665142036" lon="13.277414974725954"><ele>31.0</ele><time>2026-05-01T22:31:16Z</time></trkpt><trkpt lat="45.918672411082284" lon="13.277535961166057"><ele>31.0</ele><time>2026-05-01T22:31:17Z</time></trkpt><trkpt lat="45.91840824268605" lon="13.277656229438282"><ele>31.0</ele><time>2026-05-01T22:31:18Z</time></trkpt><trkpt lat="45.91814462877212" lon="13.277773819973135"><ele>32.0</ele><time>2026-05-01T22:31:19Z</time></trkpt><trkpt lat="45.91788314735582" lon="13.27789217566326"><ele>33.0</ele><time>2026-05-01T22:31:20Z</time></trkpt><trkpt lat="45.91762236422384" lon="13.278010181850602"><ele>31.0</ele><time>2026-05-01T22:31:21Z</time></trkpt><trkpt lat="45.91736219234409" lon="13.278127241191632"><ele>29.0</ele><time>2026-05-01T22:31:22Z</time></trkpt><trkpt lat="45.91710247105262" lon="13.278242688101644"><ele>29.0</ele><time>2026-05-01T22:31:23Z</time></trkpt><trkpt lat="45.916845424868974" lon="13.27835705618679"><ele>29.0</ele><time>2026-05-01T22:31:24Z</time></trkpt><trkpt lat="45.91658716723473" lon="13.278475257967028"><ele>29.0</ele><time>2026-05-01T22:31:25Z</time></trkpt><trkpt lat="45.91632866660867" lon="13.278592391237366"><ele>29.0</ele><time>2026-05-01T22:31:26Z</time></trkpt><trkpt lat="45.91607090118512" lon="13.278713022748239"><ele>29.0</ele><time>2026-05-01T22:31:27Z</time></trkpt><trkpt lat="45.915814436711585" lon="13.278833135220363"><ele>29.0</ele><time>2026-05-01T22:31:28Z</time></trkpt><trkpt lat="45.91555977429171" lon="13.278950445940222"><ele>28.5</ele><time>2026-05-01T22:31:29Z</time></trkpt><trkpt lat="45.915302529875106" lon="13.279073378661083"><ele>28.0</ele><time>2026-05-01T22:31:30Z</time></trkpt><trkpt lat="45.91504464141831" lon="13.279191745159284"><ele>28.0</ele><time>2026-05-01T22:31:31Z</time></trkpt><trkpt lat="45.91478587921645" lon="13.279309115951767"><ele>28.0</ele><time>2026-05-01T22:31:32Z</time></trkpt><trkpt lat="45.914527348099384" lon="13.279424580570398"><ele>28.0</ele><time>2026-05-01T22:31:33Z</time></trkpt><trkpt lat="45.9142676668659" lon="13.279543354302918"><ele>28.0</ele><time>2026-05-01T22:31:34Z</time></trkpt><trkpt lat="45.9140086988213" lon="13.279661897995172"><ele>27.5</ele><time>2026-05-01T22:31:35Z</time></trkpt><trkpt lat="45.91374944390985" lon="13.279780796659539"><ele>27.0</ele><time>2026-05-01T22:31:36Z</time></trkpt><trkpt lat="45.913493199691864" lon="13.279897445829238"><ele>27.0</ele><time>2026-05-01T22:31:37Z</time></trkpt><trkpt lat="45.913248086153565" lon="13.280007865731147"><ele>27.0</ele><time>2026-05-01T22:31:38Z</time></trkpt><trkpt lat="45.91296881390508" lon="13.279923162548368"><ele>27.0</ele><time>2026-05-01T22:31:39Z</time></trkpt><trkpt lat="45.912722508157955" lon="13.280027513061066"><ele>27.0</ele><time>2026-05-01T22:31:40Z</time></trkpt><trkpt lat="45.91247303564944" lon="13.280133204783162"><ele>28.0</ele><time>2026-05-01T22:31:41Z</time></trkpt><trkpt lat="45.91226511409339" lon="13.28044978837295"><ele>29.0</ele><time>2026-05-01T22:31:42Z</time></trkpt><trkpt lat="45.91201375620566" lon="13.280562931339473"><ele>28.5</ele><time>2026-05-01T22:31:43Z</time></trkpt><trkpt lat="45.91176026469513" lon="13.280677740725555"><ele>28.0</ele><time>2026-05-01T22:31:44Z</time></trkpt><trkpt lat="45.911506031734646" lon="13.28079439461379"><ele>28.0</ele><time>2026-05-01T22:31:45Z</time></trkpt><trkpt lat="45.911253467152676" lon="13.280910289452846"><ele>28.0</ele><time>2026-05-01T22:31:46Z</time></trkpt><trkpt lat="45.91100085098371" lon="13.281025899110979"><ele>26.5</ele><time>2026-05-01T22:31:47Z</time></trkpt><trkpt lat="45.91074864198273" lon="13.28114161633103"><ele>25.0</ele><time>2026-05-01T22:31:48Z</time></trkpt><trkpt lat="45.910498845806416" lon="13.281255890571392"><ele>25.0</ele><time>2026-05-01T22:31:49Z</time></trkpt><trkpt lat="45.9102550946486" lon="13.281370488532477"><ele>25.0</ele><time>2026-05-01T22:31:50Z</time></trkpt><trkpt lat="45.910017334492615" lon="13.281480329406582"><ele>26.5</ele><time>2026-05-01T22:31:51Z</time></trkpt><trkpt lat="45.909792482608296" lon="13.281582316939325"><ele>28.0</ele><time>2026-05-01T22:31:52Z</time></trkpt><trkpt lat="45.909580451808694" lon="13.281681630364846"><ele>28.0</ele><time>2026-05-01T22:31:53Z</time></trkpt><trkpt lat="45.90936610235141" lon="13.281779136136784"><ele>28.0</ele><time>2026-05-01T22:31:54Z</time></trkpt><trkpt lat="45.90914760420252" lon="13.281873988991087"><ele>27.5</ele><time>2026-05-01T22:31:55Z</time></trkpt><trkpt lat="45.908926553925966" lon="13.281971081405127"><ele>27.0</ele><time>2026-05-01T22:31:56Z</time></trkpt><trkpt lat="45.908704567706486" lon="13.282069501111149"><ele>27.0</ele><time>2026-05-01T22:31:57Z</time></trkpt><trkpt lat="45.90848026803271" lon="13.282172483001915"><ele>27.0</ele><time>2026-05-01T22:31:58Z</time></trkpt><trkpt lat="45.90825830149784" lon="13.282275257749792"><ele>26.5</ele><time>2026-05-01T22:31:59Z</time></trkpt><trkpt lat="45.90803436661372" lon="13.282379455072943"><ele>26.0</ele><time>2026-05-01T22:32:00Z</time></trkpt><trkpt lat="45.90781166527358" lon="13.282482979224877"><ele>26.0</ele><time>2026-05-01T22:32:01Z</time></trkpt><trkpt lat="45.9075877519929" lon="13.282586669623951"><ele>26.0</ele><time>2026-05-01T22:32:02Z</time></trkpt><trkpt lat="45.90736474941743" lon="13.282689905498536"><ele>25.5</ele><time>2026-05-01T22:32:03Z</time></trkpt><trkpt lat="45.907142552626055" lon="13.282792804314136"><ele>25.0</ele><time>2026-05-01T22:32:04Z</time></trkpt><trkpt lat="45.90691692886969" lon="13.28289718757265"><ele>24.5</ele><time>2026-05-01T22:32:05Z</time></trkpt><trkpt lat="45.9066933763039" lon="13.283000138182457"><ele>24.0</ele><time>2026-05-01T22:32:06Z</time></trkpt><trkpt lat="45.90647142481574" lon="13.28310133228294"><ele>24.0</ele><time>2026-05-01T22:32:07Z</time></trkpt><trkpt lat="45.90624954494649" lon="13.2832033996206"><ele>24.0</ele><time>2026-05-01T22:32:08Z</time></trkpt><trkpt lat="45.90603205725647" lon="13.283304722061798"><ele>24.0</ele><time>2026-05-01T22:32:09Z</time></trkpt><trkpt lat="45.9058141794357" lon="13.283405824810467"><ele>24.0</ele><time>2026-05-01T22:32:10Z</time></trkpt><trkpt lat="45.90559722777397" lon="13.283506822655104"><ele>24.0</ele><time>2026-05-01T22:32:11Z</time></trkpt><trkpt lat="45.905379205817965" lon="13.283605698087126"><ele>24.0</ele><time>2026-05-01T22:32:12Z</time></trkpt><trkpt lat="45.905162607532716" lon="13.283700738030392"><ele>24.5</ele><time>2026-05-01T22:32:13Z</time></trkpt><trkpt lat="45.90494415824607" lon="13.283793457565492"><ele>25.0</ele><time>2026-05-01T22:32:14Z</time></trkpt><trkpt lat="45.90472621664906" lon="13.28387792264402"><ele>24.5</ele><time>2026-05-01T22:32:15Z</time></trkpt><trkpt lat="45.90450637045715" lon="13.283958184894878"><ele>24.0</ele><time>2026-05-01T22:32:16Z</time></trkpt><trkpt lat="45.904287103101225" lon="13.284030250379816"><ele>23.5</ele><time>2026-05-01T22:32:17Z</time></trkpt><trkpt lat="45.90406554628388" lon="13.284097796746664"><ele>23.0</ele><time>2026-05-01T22:32:18Z</time></trkpt><trkpt lat="45.903843790975294" lon="13.284160313794835"><ele>23.0</ele><time>2026-05-01T22:32:19Z</time></trkpt><trkpt lat="45.90361658077675" lon="13.284216179878198"><ele>23.0</ele><time>2026-05-01T22:32:20Z</time></trkpt><trkpt lat="45.90338794439053" lon="13.284266318770273"><ele>24.0</ele><time>2026-05-01T22:32:21Z</time></trkpt><trkpt lat="45.90315798809384" lon="13.284309730328822"><ele>25.0</ele><time>2026-05-01T22:32:22Z</time></trkpt><trkpt lat="45.90292967934188" lon="13.284351275052876"><ele>25.0</ele><time>2026-05-01T22:32:23Z</time></trkpt><trkpt lat="45.902696436019305" lon="13.284385459490915"><ele>25.0</ele><time>2026-05-01T22:32:24Z</time></trkpt><trkpt lat="45.902461806785865" lon="13.284412920135363"><ele>24.5</ele><time>2026-05-01T22:32:25Z</time></trkpt><trkpt lat="45.90222673099983" lon="13.284433677206467"><ele>24.0</ele><time>2026-05-01T22:32:26Z</time></trkpt><trkpt lat="45.90199045628306" lon="13.284447781978704"><ele>24.0</ele><time>2026-05-01T22:32:27Z</time></trkpt><trkpt lat="45.901752407412374" lon="13.284456627957933"><ele>24.0</ele><time>2026-05-01T22:32:28Z</time></trkpt><trkpt lat="45.901513814061616" lon="13.284458978790758"><ele>24.5</ele><time>2026-05-01T22:32:29Z</time></trkpt><trkpt lat="45.90127918640731" lon="13.28445523429548"><ele>25.0</ele><time>2026-05-01T22:32:30Z</time></trkpt><trkpt lat="45.90104582371861" lon="13.284443917781573"><ele>24.5</ele><time>2026-05-01T22:32:31Z</time></trkpt><trkpt lat="45.90081450763872" lon="13.28442446818401"><ele>24.0</ele><time>2026-05-01T22:32:32Z</time></trkpt><trkpt lat="45.90058881040057" lon="13.284397413678207"><ele>24.0</ele><time>2026-05-01T22:32:33Z</time></trkpt><trkpt lat="45.90036296712751" lon="13.284365307532841"><ele>24.0</ele><time>2026-05-01T22:32:34Z</time></trkpt><trkpt lat="45.90014088156545" lon="13.284330819051133"><ele>23.666666666666668</ele><time>2026-05-01T22:32:35Z</time></trkpt><trkpt lat="45.899929183022294" lon="13.284294247837114"><ele>23.333333333333336</ele><time>2026-05-01T22:32:36Z</time></trkpt><trkpt lat="45.899730324860116" lon="13.284252400781593"><ele>23.0</ele><time>2026-05-01T22:32:37Z</time></trkpt><trkpt lat="45.89954320535509" lon="13.284210006886157"><ele>23.0</ele><time>2026-05-01T22:32:38Z</time></trkpt><trkpt lat="45.89936057600387" lon="13.284164454659798"><ele>23.0</ele><time>2026-05-01T22:32:39Z</time></trkpt><trkpt lat="45.89918002772206" lon="13.284114532016464"><ele>23.0</ele><time>2026-05-01T22:32:40Z</time></trkpt><trkpt lat="45.89899513052091" lon="13.284062273402117"><ele>24.0</ele><time>2026-05-01T22:32:41Z</time></trkpt><trkpt lat="45.8988075507181" lon="13.284005858493849"><ele>25.0</ele><time>2026-05-01T22:32:42Z</time></trkpt><trkpt lat="45.89862252039113" lon="13.283945600544833"><ele>26.0</ele><time>2026-05-01T22:32:43Z</time></trkpt><trkpt lat="45.898434066186006" lon="13.283878200561151"><ele>25.333333333333332</ele><time>2026-05-01T22:32:44Z</time></trkpt><trkpt lat="45.898247420666834" lon="13.283803493100757"><ele>24.666666666666664</ele><time>2026-05-01T22:32:45Z</time></trkpt><trkpt lat="45.89806152460088" lon="13.283724088391908"><ele>24.0</ele><time>2026-05-01T22:32:46Z</time></trkpt><trkpt lat="45.89787633918895" lon="13.283640600518769"><ele>24.0</ele><time>2026-05-01T22:32:47Z</time></trkpt><trkpt lat="45.8976931438656" lon="13.283552847072162"><ele>24.0</ele><time>2026-05-01T22:32:48Z</time></trkpt><trkpt lat="45.89751197686735" lon="13.283462569451654"><ele>24.0</ele><time>2026-05-01T22:32:49Z</time></trkpt><trkpt lat="45.89733180818029" lon="13.283369841653379"><ele>24.0</ele><time>2026-05-01T22:32:50Z</time></trkpt><trkpt lat="45.89715233595886" lon="13.28327449749043"><ele>24.0</ele><time>2026-05-01T22:32:51Z</time></trkpt><trkpt lat="45.896972840627186" lon="13.28317545182126"><ele>24.0</ele><time>2026-05-01T22:32:52Z</time></trkpt><trkpt lat="45.89679395072608" lon="13.283074110066558"><ele>23.0</ele><time>2026-05-01T22:32:53Z</time></trkpt><trkpt lat="45.89661713789438" lon="13.282968016870496"><ele>22.0</ele><time>2026-05-01T22:32:54Z</time></trkpt><trkpt lat="45.896441236113525" lon="13.282856245318593"><ele>21.0</ele><time>2026-05-01T22:32:55Z</time></trkpt><trkpt lat="45.896264957174566" lon="13.282741115855005"><ele>21.0</ele><time>2026-05-01T22:32:56Z</time></trkpt><trkpt lat="45.896091256396176" lon="13.282622707296078"><ele>21.0</ele><time>2026-05-01T22:32:57Z</time></trkpt><trkpt lat="45.89591662661046" lon="13.282496918489443"><ele>21.0</ele><time>2026-05-01T22:32:58Z</time></trkpt><trkpt lat="45.89574381723905" lon="13.28236392220177"><ele>21.333333333333332</ele><time>2026-05-01T22:32:59Z</time></trkpt><trkpt lat="45.895569186305394" lon="13.282225299582883"><ele>21.666666666666664</ele><time>2026-05-01T22:33:00Z</time></trkpt><trkpt lat="45.895396362973564" lon="13.28208194313929"><ele>22.0</ele><time>2026-05-01T22:33:01Z</time></trkpt><trkpt lat="45.89522319249531" lon="13.281933782988007"><ele>22.333333333333332</ele><time>2026-05-01T22:33:02Z</time></trkpt><trkpt lat="45.895049107109124" lon="13.281783115040945"><ele>22.666666666666668</ele><time>2026-05-01T22:33:03Z</time></trkpt><trkpt lat="45.89487735586835" lon="13.281627241103791"><ele>23.0</ele><time>2026-05-01T22:33:04Z</time></trkpt><trkpt lat="45.89470422851876" lon="13.281464093094025"><ele>23.0</ele><time>2026-05-01T22:33:05Z</time></trkpt><trkpt lat="45.89453378912987" lon="13.281295749669264"><ele>23.0</ele><time>2026-05-01T22:33:06Z</time></trkpt><trkpt lat="45.89436495595599" lon="13.281120929011838"><ele>23.0</ele><time>2026-05-01T22:33:07Z</time></trkpt><trkpt lat="45.89419774653734" lon="13.280941075381032"><ele>22.666666666666668</ele><time>2026-05-01T22:33:08Z</time></trkpt><trkpt lat="45.89403200029465" lon="13.280755964153323"><ele>22.333333333333332</ele><time>2026-05-01T22:33:09Z</time></trkpt><trkpt lat="45.89386773248867" lon="13.280565467218642"><ele>22.0</ele><time>2026-05-01T22:33:10Z</time></trkpt><trkpt lat="45.89370593210835" lon="13.280371140842732"><ele>21.666666666666664</ele><time>2026-05-01T22:33:11Z</time></trkpt><trkpt lat="45.893545368465375" lon="13.280171186242475"><ele>21.333333333333332</ele><time>2026-05-01T22:33:12Z</time></trkpt><trkpt lat="45.8933863956145" lon="13.279965187308495"><ele>21.0</ele><time>2026-05-01T22:33:13Z</time></trkpt><trkpt lat="45.89322807243106" lon="13.279754085230012"><ele>20.666666666666668</ele><time>2026-05-01T22:33:14Z</time></trkpt><trkpt lat="45.89307025630336" lon="13.279536443160072"><ele>20.333333333333336</ele><time>2026-05-01T22:33:15Z</time></trkpt><trkpt lat="45.89290978584366" lon="13.279305275259587"><ele>20.0</ele><time>2026-05-01T22:33:16Z</time></trkpt><trkpt lat="45.89274827013747" lon="13.279062566702853"><ele>19.0</ele><time>2026-05-01T22:33:17Z</time></trkpt><trkpt lat="45.89258530945216" lon="13.278806737298337"><ele>18.0</ele><time>2026-05-01T22:33:18Z</time></trkpt><trkpt lat="45.89241954361327" lon="13.278538933825596"><ele>18.0</ele><time>2026-05-01T22:33:19Z</time></trkpt><trkpt lat="45.89225239018784" lon="13.278260227013611"><ele>18.0</ele><time>2026-05-01T22:33:20Z</time></trkpt><trkpt lat="45.89208289480457" lon="13.277974142137577"><ele>18.0</ele><time>2026-05-01T22:33:21Z</time></trkpt><trkpt lat="45.89192119829952" lon="13.277697657405566"><ele>18.0</ele><time>2026-05-01T22:33:22Z</time></trkpt><trkpt lat="45.89170390590132" lon="13.277472726428604"><ele>18.0</ele><time>2026-05-01T22:33:23Z</time></trkpt><trkpt lat="45.89154907074881" lon="13.277175410190873"><ele>18.0</ele><time>2026-05-01T22:33:24Z</time></trkpt><trkpt lat="45.891392072428765" lon="13.276873940754271"><ele>18.0</ele><time>2026-05-01T22:33:25Z</time></trkpt><trkpt lat="45.89123455586059" lon="13.27657147618569"><ele>18.0</ele><time>2026-05-01T22:33:26Z</time></trkpt><trkpt lat="45.891075862939935" lon="13.276266752735538"><ele>17.5</ele><time>2026-05-01T22:33:27Z</time></trkpt><trkpt lat="45.89091622659608" lon="13.275960217740902"><ele>17.0</ele><time>2026-05-01T22:33:28Z</time></trkpt><trkpt lat="45.890763977773055" lon="13.275646367589871"><ele>17.5</ele><time>2026-05-01T22:33:29Z</time></trkpt><trkpt lat="45.890597164779365" lon="13.27534604405189"><ele>18.0</ele><time>2026-05-01T22:33:30Z</time></trkpt><trkpt lat="45.8904316799576" lon="13.27504026734581"><ele>19.0</ele><time>2026-05-01T22:33:31Z</time></trkpt><trkpt lat="45.890265223830966" lon="13.274731732122412"><ele>20.0</ele><time>2026-05-01T22:33:32Z</time></trkpt><trkpt lat="45.89009866446562" lon="13.274421175720267"><ele>19.0</ele><time>2026-05-01T22:33:33Z</time></trkpt><trkpt lat="45.88992858666903" lon="13.274108196692568"><ele>18.0</ele><time>2026-05-01T22:33:34Z</time></trkpt><trkpt lat="45.889759476529335" lon="13.27379097834384"><ele>18.0</ele><time>2026-05-01T22:33:35Z</time></trkpt><trkpt lat="45.889589820358275" lon="13.27347075741676"><ele>18.0</ele><time>2026-05-01T22:33:36Z</time></trkpt><trkpt lat="45.88942107518645" lon="13.273151309025694"><ele>18.0</ele><time>2026-05-01T22:33:37Z</time></trkpt><trkpt lat="45.88924842844061" lon="13.272828697237701"><ele>18.0</ele><time>2026-05-01T22:33:38Z</time></trkpt><trkpt lat="45.889075136728266" lon="13.272502227023855"><ele>17.5</ele><time>2026-05-01T22:33:39Z</time></trkpt><trkpt lat="45.88890083933524" lon="13.272177295897386"><ele>17.0</ele><time>2026-05-01T22:33:40Z</time></trkpt><trkpt lat="45.88872499530804" lon="13.271846976592025"><ele>17.0</ele><time>2026-05-01T22:33:41Z</time></trkpt><trkpt lat="45.888550360810115" lon="13.271521985411844"><ele>17.0</ele><time>2026-05-01T22:33:42Z</time></trkpt><trkpt lat="45.888374498418365" lon="13.27119497029872"><ele>17.0</ele><time>2026-05-01T22:33:43Z</time></trkpt><trkpt lat="45.88819826374832" lon="13.270868011610608"><ele>17.0</ele><time>2026-05-01T22:33:44Z</time></trkpt><trkpt lat="45.88802326789152" lon="13.270543110032412"><ele>17.0</ele><time>2026-05-01T22:33:45Z</time></trkpt><trkpt lat="45.887849105500166" lon="13.27021553373301"><ele>17.0</ele><time>2026-05-01T22:33:46Z</time></trkpt><trkpt lat="45.887672893919714" lon="13.269895109807818"><ele>17.0</ele><time>2026-05-01T22:33:47Z</time></trkpt><trkpt lat="45.88749730136076" lon="13.269571220870436"><ele>17.0</ele><time>2026-05-01T22:33:48Z</time></trkpt><trkpt lat="45.88732503961894" lon="13.26924787462331"><ele>17.5</ele><time>2026-05-01T22:33:49Z</time></trkpt><trkpt lat="45.88715121142389" lon="13.268927644551347"><ele>18.0</ele><time>2026-05-01T22:33:50Z</time></trkpt><trkpt lat="45.88697407713807" lon="13.268606865941296"><ele>18.0</ele><time>2026-05-01T22:33:51Z</time></trkpt><trkpt lat="45.88680237871101" lon="13.268282395511195"><ele>18.0</ele><time>2026-05-01T22:33:52Z</time></trkpt><trkpt lat="45.88662786125203" lon="13.267961896161088"><ele>18.0</ele><time>2026-05-01T22:33:53Z</time></trkpt><trkpt lat="45.886454471627815" lon="13.26763883255133"><ele>18.0</ele><time>2026-05-01T22:33:54Z</time></trkpt><trkpt lat="45.886281272125665" lon="13.267311242961261"><ele>18.0</ele><time>2026-05-01T22:33:55Z</time></trkpt><trkpt lat="45.886105342617476" lon="13.266984053434975"><ele>18.0</ele><time>2026-05-01T22:33:56Z</time></trkpt><trkpt lat="45.88592877269468" lon="13.266660450634246"><ele>16.5</ele><time>2026-05-01T22:33:57Z</time></trkpt><trkpt lat="45.88575234726028" lon="13.266334916922188"><ele>15.0</ele><time>2026-05-01T22:33:58Z</time></trkpt><trkpt lat="45.88557529241327" lon="13.266004270729512"><ele>15.0</ele><time>2026-05-01T22:33:59Z</time></trkpt><trkpt lat="45.88539706936326" lon="13.265673926786262"><ele>15.0</ele><time>2026-05-01T22:34:00Z</time></trkpt><trkpt lat="45.8852191606127" lon="13.265341899352867"><ele>15.5</ele><time>2026-05-01T22:34:01Z</time></trkpt><trkpt lat="45.88504057253487" lon="13.265011597862882"><ele>16.0</ele><time>2026-05-01T22:34:02Z</time></trkpt><trkpt lat="45.88486221223602" lon="13.26468031188419"><ele>16.0</ele><time>2026-05-01T22:34:03Z</time></trkpt><trkpt lat="45.8846844190657" lon="13.264348073472954"><ele>16.0</ele><time>2026-05-01T22:34:04Z</time></trkpt><trkpt lat="45.884506932080015" lon="13.26401265218807"><ele>16.5</ele><time>2026-05-01T22:34:05Z</time></trkpt><trkpt lat="45.88433046635434" lon="13.263676382756145"><ele>17.0</ele><time>2026-05-01T22:34:06Z</time></trkpt><trkpt lat="45.88415651362102" lon="13.263336988404571"><ele>16.5</ele><time>2026-05-01T22:34:07Z</time></trkpt><trkpt lat="45.88398300465472" lon="13.262998369293404"><ele>16.0</ele><time>2026-05-01T22:34:08Z</time></trkpt><trkpt lat="45.88381124077994" lon="13.262659907692749"><ele>16.0</ele><time>2026-05-01T22:34:09Z</time></trkpt><trkpt lat="45.883644031464804" lon="13.262318029045208"><ele>16.0</ele><time>2026-05-01T22:34:10Z</time></trkpt><trkpt lat="45.88347988455013" lon="13.261975621552363"><ele>16.5</ele><time>2026-05-01T22:34:11Z</time></trkpt><trkpt lat="45.88331256875693" lon="13.261627698076722"><ele>17.0</ele><time>2026-05-01T22:34:12Z</time></trkpt><trkpt lat="45.88314816061505" lon="13.261278876786871"><ele>16.5</ele><time>2026-05-01T22:34:13Z</time></trkpt><trkpt lat="45.88298468677554" lon="13.260928077854913"><ele>16.0</ele><time>2026-05-01T22:34:14Z</time></trkpt><trkpt lat="45.88282284141452" lon="13.260574669398542"><ele>16.0</ele><time>2026-05-01T22:34:15Z</time></trkpt><trkpt lat="45.88266022570726" lon="13.260214082526247"><ele>16.0</ele><time>2026-05-01T22:34:16Z</time></trkpt><trkpt lat="45.882500477057036" lon="13.259851454763716"><ele>15.5</ele><time>2026-05-01T22:34:17Z</time></trkpt><trkpt lat="45.88234051624279" lon="13.259487394453918"><ele>15.0</ele><time>2026-05-01T22:34:18Z</time></trkpt><trkpt lat="45.88218107104309" lon="13.259117793440632"><ele>15.5</ele><time>2026-05-01T22:34:19Z</time></trkpt><trkpt lat="45.882022589391" lon="13.258747514890155"><ele>16.0</ele><time>2026-05-01T22:34:20Z</time></trkpt><trkpt lat="45.881866538521834" lon="13.25837727224844"><ele>15.5</ele><time>2026-05-01T22:34:21Z</time></trkpt><trkpt lat="45.88171534773848" lon="13.258003345394275"><ele>15.0</ele><time>2026-05-01T22:34:22Z</time></trkpt><trkpt lat="45.88156584665114" lon="13.257631188117571"><ele>14.5</ele><time>2026-05-01T22:34:23Z</time></trkpt><trkpt lat="45.881419136615314" lon="13.257262496709432"><ele>14.0</ele><time>2026-05-01T22:34:24Z</time></trkpt><trkpt lat="45.88127324575433" lon="13.256896335400857"><ele>14.0</ele><time>2026-05-01T22:34:25Z</time></trkpt><trkpt lat="45.88113204477653" lon="13.256534779418136"><ele>14.0</ele><time>2026-05-01T22:34:26Z</time></trkpt><trkpt lat="45.88099566172748" lon="13.256191211996656"><ele>13.5</ele><time>2026-05-01T22:34:27Z</time></trkpt><trkpt lat="45.88085756642632" lon="13.255828653694183"><ele>13.0</ele><time>2026-05-01T22:34:28Z</time></trkpt><trkpt lat="45.88071291318045" lon="13.255461592435067"><ele>13.0</ele><time>2026-05-01T22:34:29Z</time></trkpt><trkpt lat="45.88057280360382" lon="13.255088407524815"><ele>13.0</ele><time>2026-05-01T22:34:30Z</time></trkpt><trkpt lat="45.88043576567088" lon="13.254708721648536"><ele>14.0</ele><time>2026-05-01T22:34:31Z</time></trkpt><trkpt lat="45.88029913097735" lon="13.254328429783241"><ele>15.0</ele><time>2026-05-01T22:34:32Z</time></trkpt><trkpt lat="45.88016197375798" lon="13.253945210271551"><ele>14.5</ele><time>2026-05-01T22:34:33Z</time></trkpt><trkpt lat="45.88002415422733" lon="13.253564090241545"><ele>14.0</ele><time>2026-05-01T22:34:34Z</time></trkpt><trkpt lat="45.87988544927041" lon="13.253185986492483"><ele>13.0</ele><time>2026-05-01T22:34:35Z</time></trkpt><trkpt lat="45.87974805794849" lon="13.252809647373097"><ele>12.0</ele><time>2026-05-01T22:34:36Z</time></trkpt><trkpt lat="45.87960946524853" lon="13.25243159453366"><ele>13.0</ele><time>2026-05-01T22:34:37Z</time></trkpt><trkpt lat="45.87947117843587" lon="13.252054592358547"><ele>14.0</ele><time>2026-05-01T22:34:38Z</time></trkpt><trkpt lat="45.87933190200983" lon="13.251680867055551"><ele>14.0</ele><time>2026-05-01T22:34:39Z</time></trkpt><trkpt lat="45.87919531007358" lon="13.251304535813746"><ele>14.0</ele><time>2026-05-01T22:34:40Z</time></trkpt><trkpt lat="45.87906008443533" lon="13.25093158854587"><ele>13.5</ele><time>2026-05-01T22:34:41Z</time></trkpt><trkpt lat="45.87892402715547" lon="13.25055794191378"><ele>13.0</ele><time>2026-05-01T22:34:42Z</time></trkpt><trkpt lat="45.87878862912688" lon="13.25019024605684"><ele>13.0</ele><time>2026-05-01T22:34:43Z</time></trkpt><trkpt lat="45.87865332211118" lon="13.249820531916304"><ele>13.0</ele><time>2026-05-01T22:34:44Z</time></trkpt><trkpt lat="45.87851531944851" lon="13.249448215257544"><ele>12.5</ele><time>2026-05-01T22:34:45Z</time></trkpt><trkpt lat="45.87837649689439" lon="13.249074206081586"><ele>12.0</ele><time>2026-05-01T22:34:46Z</time></trkpt><trkpt lat="45.87823708338456" lon="13.248695126618328"><ele>12.0</ele><time>2026-05-01T22:34:47Z</time></trkpt><trkpt lat="45.87809537896121" lon="13.248310373740223"><ele>12.0</ele><time>2026-05-01T22:34:48Z</time></trkpt><trkpt lat="45.87795460627978" lon="13.247925962645365"><ele>12.0</ele><time>2026-05-01T22:34:49Z</time></trkpt><trkpt lat="45.877814047939104" lon="13.247541228971219"><ele>12.0</ele><time>2026-05-01T22:34:50Z</time></trkpt><trkpt lat="45.877673943696784" lon="13.247152520026132"><ele>12.5</ele><time>2026-05-01T22:34:51Z</time></trkpt><trkpt lat="45.877534629774146" lon="13.246769150010037"><ele>13.0</ele><time>2026-05-01T22:34:52Z</time></trkpt><trkpt lat="45.877394685782576" lon="13.246388791583975"><ele>13.0</ele><time>2026-05-01T22:34:53Z</time></trkpt><trkpt lat="45.87725657415514" lon="13.246007773086049"><ele>13.0</ele><time>2026-05-01T22:34:54Z</time></trkpt><trkpt lat="45.8771187025804" lon="13.245627424719855"><ele>13.5</ele><time>2026-05-01T22:34:55Z</time></trkpt><trkpt lat="45.87698075988964" lon="13.245253931694142"><ele>14.0</ele><time>2026-05-01T22:34:56Z</time></trkpt><trkpt lat="45.87684422907201" lon="13.244883096212309"><ele>14.0</ele><time>2026-05-01T22:34:57Z</time></trkpt><trkpt lat="45.876706992592474" lon="13.244512466270345"><ele>14.0</ele><time>2026-05-01T22:34:58Z</time></trkpt><trkpt lat="45.8765711026862" lon="13.244141116076907"><ele>14.0</ele><time>2026-05-01T22:34:59Z</time></trkpt><trkpt lat="45.876434070854536" lon="13.243766806249983"><ele>14.0</ele><time>2026-05-01T22:35:00Z</time></trkpt><trkpt lat="45.87629688746077" lon="13.243394880380395"><ele>15.0</ele><time>2026-05-01T22:35:01Z</time></trkpt><trkpt lat="45.87615694957228" lon="13.243019954061033"><ele>16.0</ele><time>2026-05-01T22:35:02Z</time></trkpt><trkpt lat="45.87601758269027" lon="13.242641666131435"><ele>16.0</ele><time>2026-05-01T22:35:03Z</time></trkpt><trkpt lat="45.875878397782586" lon="13.242265132494007"><ele>16.0</ele><time>2026-05-01T22:35:04Z</time></trkpt><trkpt lat="45.87573798018598" lon="13.241889348995525"><ele>16.0</ele><time>2026-05-01T22:35:05Z</time></trkpt><trkpt lat="45.8755980618038" lon="13.241511996614667"><ele>16.0</ele><time>2026-05-01T22:35:06Z</time></trkpt><trkpt lat="45.87546078968364" lon="13.241133033599183"><ele>14.5</ele><time>2026-05-01T22:35:07Z</time></trkpt><trkpt lat="45.875323644081874" lon="13.240753894561884"><ele>13.0</ele><time>2026-05-01T22:35:08Z</time></trkpt><trkpt lat="45.87518733680064" lon="13.240373466056665"><ele>12.0</ele><time>2026-05-01T22:35:09Z</time></trkpt><trkpt lat="45.875050825570426" lon="13.239992961797787"><ele>11.0</ele><time>2026-05-01T22:35:10Z</time></trkpt><trkpt lat="45.87491234657896" lon="13.23961609114892"><ele>11.0</ele><time>2026-05-01T22:35:11Z</time></trkpt><trkpt lat="45.87477432093221" lon="13.239238671089888"><ele>11.0</ele><time>2026-05-01T22:35:12Z</time></trkpt><trkpt lat="45.87463673301335" lon="13.23886330025502"><ele>11.0</ele><time>2026-05-01T22:35:13Z</time></trkpt><trkpt lat="45.87449721996142" lon="13.238484206071643"><ele>11.0</ele><time>2026-05-01T22:35:14Z</time></trkpt><trkpt lat="45.87435975743143" lon="13.238107006472704"><ele>10.5</ele><time>2026-05-01T22:35:15Z</time></trkpt><trkpt lat="45.8742222694851" lon="13.237732854373867"><ele>10.0</ele><time>2026-05-01T22:35:16Z</time></trkpt><trkpt lat="45.87408477071737" lon="13.237358105996968"><ele>11.0</ele><time>2026-05-01T22:35:17Z</time></trkpt><trkpt lat="45.873949316411206" lon="13.236981769281547"><ele>12.0</ele><time>2026-05-01T22:35:18Z</time></trkpt><trkpt lat="45.873812838744385" lon="13.236607940169996"><ele>13.0</ele><time>2026-05-01T22:35:19Z</time></trkpt><trkpt lat="45.873678666203716" lon="13.236233905422798"><ele>14.0</ele><time>2026-05-01T22:35:20Z</time></trkpt><trkpt lat="45.873542369530476" lon="13.23586210682518"><ele>13.0</ele><time>2026-05-01T22:35:21Z</time></trkpt><trkpt lat="45.8734044371146" lon="13.235493724020175"><ele>12.0</ele><time>2026-05-01T22:35:22Z</time></trkpt><trkpt lat="45.87326771934735" lon="13.235126194928442"><ele>12.0</ele><time>2026-05-01T22:35:23Z</time></trkpt><trkpt lat="45.873130708330194" lon="13.234757062782794"><ele>12.0</ele><time>2026-05-01T22:35:24Z</time></trkpt><trkpt lat="45.8729937496072" lon="13.234388344323017"><ele>12.0</ele><time>2026-05-01T22:35:25Z</time></trkpt><trkpt lat="45.87286035741242" lon="13.234021952079283"><ele>12.0</ele><time>2026-05-01T22:35:26Z</time></trkpt><trkpt lat="45.872725221354145" lon="13.233652487306262"><ele>11.5</ele><time>2026-05-01T22:35:26.999Z</time></trkpt><trkpt lat="45.872590765741435" lon="13.233282179391463"><ele>11.0</ele><time>2026-05-01T22:35:27.999Z</time></trkpt><trkpt lat="45.87245693907122" lon="13.232915638943451"><ele>11.0</ele><time>2026-05-01T22:35:28.999Z</time></trkpt><trkpt lat="45.87232057245357" lon="13.23254700694252"><ele>11.0</ele><time>2026-05-01T22:35:29.999Z</time></trkpt><trkpt lat="45.87218395755828" lon="13.232178029437524"><ele>11.0</ele><time>2026-05-01T22:35:30.999Z</time></trkpt><trkpt lat="45.87204612635086" lon="13.23180628116909"><ele>11.0</ele><time>2026-05-01T22:35:31.999Z</time></trkpt><trkpt lat="45.87190725383182" lon="13.231434111996316"><ele>10.5</ele><time>2026-05-01T22:35:32.999Z</time></trkpt><trkpt lat="45.8717693188188" lon="13.231062404899973"><ele>10.0</ele><time>2026-05-01T22:35:33.999Z</time></trkpt><trkpt lat="45.87163230918066" lon="13.23068914114561"><ele>11.0</ele><time>2026-05-01T22:35:34.999Z</time></trkpt><trkpt lat="45.87149614964516" lon="13.230316532277676"><ele>12.0</ele><time>2026-05-01T22:35:35.999Z</time></trkpt><trkpt lat="45.87135821504801" lon="13.229941963044455"><ele>11.5</ele><time>2026-05-01T22:35:36.999Z</time></trkpt><trkpt lat="45.87122071796008" lon="13.229567033225845"><ele>11.0</ele><time>2026-05-01T22:35:38Z</time></trkpt><trkpt lat="45.871083963220315" lon="13.229193297381473"><ele>10.5</ele><time>2026-05-01T22:35:38.999Z</time></trkpt><trkpt lat="45.87094811442982" lon="13.228818743662966"><ele>10.0</ele><time>2026-05-01T22:35:39.999Z</time></trkpt><trkpt lat="45.87081145328963" lon="13.228442860921204"><ele>10.0</ele><time>2026-05-01T22:35:41Z</time></trkpt><trkpt lat="45.870674343215015" lon="13.228069060507861"><ele>10.0</ele><time>2026-05-01T22:35:42Z</time></trkpt><trkpt lat="45.87053676778281" lon="13.227696223511424"><ele>10.0</ele><time>2026-05-01T22:35:43Z</time></trkpt><trkpt lat="45.87039916866613" lon="13.227323001837599"><ele>10.0</ele><time>2026-05-01T22:35:44Z</time></trkpt><trkpt lat="45.87026068354676" lon="13.22695059921967"><ele>10.0</ele><time>2026-05-01T22:35:45Z</time></trkpt><trkpt lat="45.870123371618035" lon="13.226579707661573"><ele>10.0</ele><time>2026-05-01T22:35:46Z</time></trkpt><trkpt lat="45.86998852548517" lon="13.226207295803675"><ele>10.0</ele><time>2026-05-01T22:35:47Z</time></trkpt><trkpt lat="45.869853392742" lon="13.225834002647902"><ele>10.0</ele><time>2026-05-01T22:35:48Z</time></trkpt><trkpt lat="45.869719494901545" lon="13.225461219233464"><ele>10.0</ele><time>2026-05-01T22:35:49Z</time></trkpt><trkpt lat="45.86958605074256" lon="13.225088832474059"><ele>10.0</ele><time>2026-05-01T22:35:50Z</time></trkpt><trkpt lat="45.86945174447652" lon="13.22472044503361"><ele>10.0</ele><time>2026-05-01T22:35:51Z</time></trkpt><trkpt lat="45.86931696068879" lon="13.224351378331049"><ele>10.0</ele><time>2026-05-01T22:35:52Z</time></trkpt><trkpt lat="45.8691819557392" lon="13.22397845153807"><ele>9.5</ele><time>2026-05-01T22:35:53Z</time></trkpt><trkpt lat="45.86904534044577" lon="13.223610052143473"><ele>9.0</ele><time>2026-05-01T22:35:54Z</time></trkpt><trkpt lat="45.868907752842546" lon="13.2232382839595"><ele>9.0</ele><time>2026-05-01T22:35:55Z</time></trkpt><trkpt lat="45.8687725406038" lon="13.222868150971706"><ele>9.0</ele><time>2026-05-01T22:35:56Z</time></trkpt><trkpt lat="45.86863986695346" lon="13.222498364369585"><ele>8.5</ele><time>2026-05-01T22:35:57Z</time></trkpt><trkpt lat="45.86850680432798" lon="13.222125029136215"><ele>8.0</ele><time>2026-05-01T22:35:58Z</time></trkpt><trkpt lat="45.86837288952843" lon="13.221755026870653"><ele>7.5</ele><time>2026-05-01T22:35:59Z</time></trkpt><trkpt lat="45.868237855075016" lon="13.221386394666421"><ele>7.0</ele><time>2026-05-01T22:36:00Z</time></trkpt><trkpt lat="45.86810377788201" lon="13.221013027694125"><ele>8.0</ele><time>2026-05-01T22:36:01Z</time></trkpt><trkpt lat="45.86796683807971" lon="13.220642673000382"><ele>9.0</ele><time>2026-05-01T22:36:02Z</time></trkpt><trkpt lat="45.86782819428769" lon="13.22027610274968"><ele>9.0</ele><time>2026-05-01T22:36:03Z</time></trkpt><trkpt lat="45.867690687511775" lon="13.219907205034572"><ele>9.0</ele><time>2026-05-01T22:36:04Z</time></trkpt><trkpt lat="45.86755299933548" lon="13.21953952806024"><ele>9.5</ele><time>2026-05-01T22:36:05Z</time></trkpt><trkpt lat="45.86741807881128" lon="13.219170720877012"><ele>10.0</ele><time>2026-05-01T22:36:06Z</time></trkpt><trkpt lat="45.86728327188602" lon="13.218800630448197"><ele>10.0</ele><time>2026-05-01T22:36:07Z</time></trkpt><trkpt lat="45.86714798225477" lon="13.218430604651143"><ele>10.0</ele><time>2026-05-01T22:36:08Z</time></trkpt><trkpt lat="45.86701303446053" lon="13.218061930810663"><ele>9.5</ele><time>2026-05-01T22:36:09Z</time></trkpt><trkpt lat="45.866876421219196" lon="13.217693607352837"><ele>9.0</ele><time>2026-05-01T22:36:10Z</time></trkpt><trkpt lat="45.86674246717931" lon="13.217327540265073"><ele>8.5</ele><time>2026-05-01T22:36:11Z</time></trkpt><trkpt lat="45.86661442124411" lon="13.216973522101346"><ele>8.0</ele><time>2026-05-01T22:36:12Z</time></trkpt><trkpt lat="45.86649182429609" lon="13.2166286667469"><ele>8.5</ele><time>2026-05-01T22:36:13Z</time></trkpt><trkpt lat="45.8663630007364" lon="13.216266080168353"><ele>9.0</ele><time>2026-05-01T22:36:14Z</time></trkpt><trkpt lat="45.866231648275246" lon="13.21589949875844"><ele>9.5</ele><time>2026-05-01T22:36:15Z</time></trkpt><trkpt lat="45.86610208595719" lon="13.21552324152739"><ele>10.0</ele><time>2026-05-01T22:36:16Z</time></trkpt><trkpt lat="45.86597414231862" lon="13.215139979644238"><ele>9.5</ele><time>2026-05-01T22:36:17Z</time></trkpt><trkpt lat="45.86584616811809" lon="13.214753731812834"><ele>9.0</ele><time>2026-05-01T22:36:18Z</time></trkpt><trkpt lat="45.86572113106094" lon="13.214368034200332"><ele>9.0</ele><time>2026-05-01T22:36:19Z</time></trkpt><trkpt lat="45.865596774587665" lon="13.213980570081677"><ele>9.0</ele><time>2026-05-01T22:36:20Z</time></trkpt><trkpt lat="45.865472465853145" lon="13.2135891174682"><ele>9.0</ele><time>2026-05-01T22:36:21Z</time></trkpt><trkpt lat="45.865350410057545" lon="13.213198128315542"><ele>9.0</ele><time>2026-05-01T22:36:22Z</time></trkpt><trkpt lat="45.86522896517278" lon="13.212804058293315"><ele>9.0</ele><time>2026-05-01T22:36:23Z</time></trkpt><trkpt lat="45.865107579448704" lon="13.2124131716455"><ele>9.0</ele><time>2026-05-01T22:36:24Z</time></trkpt><trkpt lat="45.86498892156136" lon="13.212019149975053"><ele>9.0</ele><time>2026-05-01T22:36:25Z</time></trkpt><trkpt lat="45.864872175379936" lon="13.211626935814712"><ele>9.0</ele><time>2026-05-01T22:36:26Z</time></trkpt><trkpt lat="45.86475634231746" lon="13.21123359220147"><ele>9.0</ele><time>2026-05-01T22:36:27Z</time></trkpt><trkpt lat="45.86464074240848" lon="13.210844854395985"><ele>9.0</ele><time>2026-05-01T22:36:28Z</time></trkpt><trkpt lat="45.864523750577995" lon="13.21045592662342"><ele>9.0</ele><time>2026-05-01T22:36:29Z</time></trkpt><trkpt lat="45.864406176366465" lon="13.210068490400285"><ele>9.0</ele><time>2026-05-01T22:36:30Z</time></trkpt><trkpt lat="45.8642889344336" lon="13.209678125959517"><ele>9.0</ele><time>2026-05-01T22:36:31Z</time></trkpt><trkpt lat="45.86417261856859" lon="13.209285869310047"><ele>9.0</ele><time>2026-05-01T22:36:32Z</time></trkpt><trkpt lat="45.86405591376934" lon="13.208899740596978"><ele>8.5</ele><time>2026-05-01T22:36:33Z</time></trkpt><trkpt lat="45.863940819631715" lon="13.208515588635393"><ele>8.0</ele><time>2026-05-01T22:36:34Z</time></trkpt><trkpt lat="45.863825071382095" lon="13.208130276589706"><ele>8.0</ele><time>2026-05-01T22:36:35Z</time></trkpt><trkpt lat="45.86370915108043" lon="13.207744012130899"><ele>8.0</ele><time>2026-05-01T22:36:36Z</time></trkpt><trkpt lat="45.863593852308874" lon="13.207357415191161"><ele>8.0</ele><time>2026-05-01T22:36:37Z</time></trkpt><trkpt lat="45.8634786507024" lon="13.20697196596355"><ele>8.0</ele><time>2026-05-01T22:36:38Z</time></trkpt><trkpt lat="45.863365101213354" lon="13.20658587335763"><ele>9.0</ele><time>2026-05-01T22:36:39Z</time></trkpt><trkpt lat="45.86325111050751" lon="13.206199286349152"><ele>10.0</ele><time>2026-05-01T22:36:40Z</time></trkpt><trkpt lat="45.86313803799127" lon="13.205814947439666"><ele>11.0</ele><time>2026-05-01T22:36:41Z</time></trkpt><trkpt lat="45.86302304127157" lon="13.205430058118774"><ele>12.0</ele><time>2026-05-01T22:36:42Z</time></trkpt><trkpt lat="45.86290627664174" lon="13.205047044176135"><ele>11.0</ele><time>2026-05-01T22:36:43Z</time></trkpt><trkpt lat="45.86279015732724" lon="13.20466326654191"><ele>10.0</ele><time>2026-05-01T22:36:44Z</time></trkpt><trkpt lat="45.86267474843464" lon="13.2042814840744"><ele>9.5</ele><time>2026-05-01T22:36:45Z</time></trkpt><trkpt lat="45.86255887884242" lon="13.203900055178101"><ele>9.0</ele><time>2026-05-01T22:36:46Z</time></trkpt><trkpt lat="45.86244212621604" lon="13.203516694147531"><ele>8.5</ele><time>2026-05-01T22:36:47Z</time></trkpt><trkpt lat="45.862326298538825" lon="13.203135429306876"><ele>8.0</ele><time>2026-05-01T22:36:48Z</time></trkpt><trkpt lat="45.86220893272883" lon="13.202750695745342"><ele>8.0</ele><time>2026-05-01T22:36:49Z</time></trkpt><trkpt lat="45.86209260365213" lon="13.20236927298234"><ele>8.0</ele><time>2026-05-01T22:36:50Z</time></trkpt><trkpt lat="45.86197590388239" lon="13.201986651228657"><ele>8.5</ele><time>2026-05-01T22:36:51Z</time></trkpt><trkpt lat="45.86185937463759" lon="13.20160175580014"><ele>9.0</ele><time>2026-05-01T22:36:52Z</time></trkpt><trkpt lat="45.861743463055355" lon="13.201216368713105"><ele>9.0</ele><time>2026-05-01T22:36:53Z</time></trkpt><trkpt lat="45.86162682309644" lon="13.200829110476617"><ele>9.0</ele><time>2026-05-01T22:36:54Z</time></trkpt><trkpt lat="45.86151102507217" lon="13.200442544006052"><ele>9.0</ele><time>2026-05-01T22:36:55Z</time></trkpt><trkpt lat="45.861393668727054" lon="13.200053326945635"><ele>9.0</ele><time>2026-05-01T22:36:56Z</time></trkpt><trkpt lat="45.861276645397986" lon="13.199665396801961"><ele>9.0</ele><time>2026-05-01T22:36:57Z</time></trkpt><trkpt lat="45.86115822998663" lon="13.19927659618046"><ele>9.0</ele><time>2026-05-01T22:36:58Z</time></trkpt><trkpt lat="45.8610397173343" lon="13.198887530215002"><ele>8.5</ele><time>2026-05-01T22:36:59Z</time></trkpt><trkpt lat="45.860922835884736" lon="13.198493987411249"><ele>8.0</ele><time>2026-05-01T22:37:00Z</time></trkpt><trkpt lat="45.8608071871334" lon="13.198101251835626"><ele>8.0</ele><time>2026-05-01T22:37:01Z</time></trkpt><trkpt lat="45.86069017945206" lon="13.197707493674994"><ele>8.0</ele><time>2026-05-01T22:37:02Z</time></trkpt><trkpt lat="45.860574007466525" lon="13.197313405257045"><ele>8.0</ele><time>2026-05-01T22:37:03Z</time></trkpt><trkpt lat="45.860455557232115" lon="13.196920934068505"><ele>8.0</ele><time>2026-05-01T22:37:04Z</time></trkpt><trkpt lat="45.86033620529551" lon="13.196527883393715"><ele>8.0</ele><time>2026-05-01T22:37:05Z</time></trkpt><trkpt lat="45.86021719756647" lon="13.196134377270027"><ele>8.0</ele><time>2026-05-01T22:37:06Z</time></trkpt><trkpt lat="45.86009786591132" lon="13.195738960826022"><ele>8.0</ele><time>2026-05-01T22:37:07Z</time></trkpt><trkpt lat="45.85997908907009" lon="13.195344710732636"><ele>8.0</ele><time>2026-05-01T22:37:08Z</time></trkpt><trkpt lat="45.859859970639725" lon="13.194951482763177"><ele>8.0</ele><time>2026-05-01T22:37:09Z</time></trkpt><trkpt lat="45.859737929451896" lon="13.194558804618499"><ele>8.0</ele><time>2026-05-01T22:37:10Z</time></trkpt><trkpt lat="45.859612340337094" lon="13.194170690945159"><ele>8.0</ele><time>2026-05-01T22:37:11Z</time></trkpt><trkpt lat="45.85948637988456" lon="13.193781415521581"><ele>8.0</ele><time>2026-05-01T22:37:12Z</time></trkpt><trkpt lat="45.859360205535005" lon="13.193388152750405"><ele>8.0</ele><time>2026-05-01T22:37:13Z</time></trkpt><trkpt lat="45.85923770176171" lon="13.192995309036002"><ele>8.0</ele><time>2026-05-01T22:37:14Z</time></trkpt><trkpt lat="45.859118289239895" lon="13.192601888465015"><ele>8.5</ele><time>2026-05-01T22:37:15Z</time></trkpt><trkpt lat="45.858997968916036" lon="13.192210012015515"><ele>9.0</ele><time>2026-05-01T22:37:16Z</time></trkpt><trkpt lat="45.858877259515154" lon="13.191819234436636"><ele>8.5</ele><time>2026-05-01T22:37:17Z</time></trkpt><trkpt lat="45.85876010827887" lon="13.191426471662504"><ele>8.0</ele><time>2026-05-01T22:37:18Z</time></trkpt><trkpt lat="45.85864243244776" lon="13.191035100237134"><ele>8.0</ele><time>2026-05-01T22:37:19Z</time></trkpt><trkpt lat="45.858526479027205" lon="13.190643591544326"><ele>8.0</ele><time>2026-05-01T22:37:20Z</time></trkpt><trkpt lat="45.858411842815435" lon="13.19025425633607"><ele>8.0</ele><time>2026-05-01T22:37:21Z</time></trkpt><trkpt lat="45.858295865081416" lon="13.18986762509163"><ele>8.0</ele><time>2026-05-01T22:37:22Z</time></trkpt><trkpt lat="45.858180525018255" lon="13.189486129371819"><ele>8.5</ele><time>2026-05-01T22:37:23Z</time></trkpt><trkpt lat="45.85806478326627" lon="13.189104176560551"><ele>9.0</ele><time>2026-05-01T22:37:24Z</time></trkpt><trkpt lat="45.85794911759279" lon="13.188724701308947"><ele>9.0</ele><time>2026-05-01T22:37:25Z</time></trkpt><trkpt lat="45.857834066169524" lon="13.1883467096324"><ele>9.0</ele><time>2026-05-01T22:37:26Z</time></trkpt><trkpt lat="45.85772075140046" lon="13.187968206024854"><ele>8.5</ele><time>2026-05-01T22:37:27Z</time></trkpt><trkpt lat="45.85760650923692" lon="13.187590338424863"><ele>8.0</ele><time>2026-05-01T22:37:28.001Z</time></trkpt><trkpt lat="45.857492808761236" lon="13.18721277296454"><ele>8.0</ele><time>2026-05-01T22:37:29.001Z</time></trkpt><trkpt lat="45.85738073217048" lon="13.186832146921963"><ele>8.0</ele><time>2026-05-01T22:37:30.001Z</time></trkpt><trkpt lat="45.857272007864864" lon="13.186446481263642"><ele>8.0</ele><time>2026-05-01T22:37:31.001Z</time></trkpt><trkpt lat="45.857162064796626" lon="13.186058805364878"><ele>8.0</ele><time>2026-05-01T22:37:32.001Z</time></trkpt><trkpt lat="45.85705063847146" lon="13.185672321892525"><ele>7.0</ele><time>2026-05-01T22:37:33Z</time></trkpt><trkpt lat="45.85694279627545" lon="13.185282806462316"><ele>6.0</ele><time>2026-05-01T22:37:34Z</time></trkpt><trkpt lat="45.85682955390177" lon="13.184894547266573"><ele>7.0</ele><time>2026-05-01T22:37:35Z</time></trkpt><trkpt lat="45.856713346884575" lon="13.18450493468585"><ele>8.0</ele><time>2026-05-01T22:37:36Z</time></trkpt><trkpt lat="45.85659917157424" lon="13.184114868796707"><ele>8.5</ele><time>2026-05-01T22:37:37Z</time></trkpt><trkpt lat="45.856485903375436" lon="13.183721008282205"><ele>9.0</ele><time>2026-05-01T22:37:38Z</time></trkpt><trkpt lat="45.85637134536968" lon="13.183329471440626"><ele>9.0</ele><time>2026-05-01T22:37:39Z</time></trkpt><trkpt lat="45.85625817632984" lon="13.182938722247512"><ele>9.0</ele><time>2026-05-01T22:37:40Z</time></trkpt><trkpt lat="45.856143374922226" lon="13.182549979099562"><ele>9.0</ele><time>2026-05-01T22:37:41Z</time></trkpt><trkpt lat="45.85602561341697" lon="13.182163544370304"><ele>9.0</ele><time>2026-05-01T22:37:42Z</time></trkpt><trkpt lat="45.85590675089409" lon="13.18177579882587"><ele>7.5</ele><time>2026-05-01T22:37:43Z</time></trkpt><trkpt lat="45.855787575103896" lon="13.18138652479914"><ele>6.0</ele><time>2026-05-01T22:37:44Z</time></trkpt><trkpt lat="45.85566663516147" lon="13.18099155659419"><ele>6.0</ele><time>2026-05-01T22:37:45Z</time></trkpt><trkpt lat="45.85555172173709" lon="13.180605285862704"><ele>6.0</ele><time>2026-05-01T22:37:46Z</time></trkpt><trkpt lat="45.855437660295685" lon="13.18022347957632"><ele>6.0</ele><time>2026-05-01T22:37:47Z</time></trkpt><trkpt lat="45.855328839898476" lon="13.179855269643014"><ele>6.0</ele><time>2026-05-01T22:37:48Z</time></trkpt><trkpt lat="45.85521511306953" lon="13.179476052342347"><ele>7.0</ele><time>2026-05-01T22:37:49Z</time></trkpt><trkpt lat="45.85510194250145" lon="13.179086269694615"><ele>8.0</ele><time>2026-05-01T22:37:50Z</time></trkpt><trkpt lat="45.8549859982945" lon="13.178696528651004"><ele>8.5</ele><time>2026-05-01T22:37:51Z</time></trkpt><trkpt lat="45.85486721604072" lon="13.1783008514229"><ele>9.0</ele><time>2026-05-01T22:37:52.001Z</time></trkpt><trkpt lat="45.85474813801741" lon="13.177903042072394"><ele>9.0</ele><time>2026-05-01T22:37:53.001Z</time></trkpt><trkpt lat="45.85462518850884" lon="13.177500525985312"><ele>9.0</ele><time>2026-05-01T22:37:54.001Z</time></trkpt><trkpt lat="45.85450639439907" lon="13.177100520111608"><ele>9.0</ele><time>2026-05-01T22:37:55.001Z</time></trkpt><trkpt lat="45.8543836669169" lon="13.176698244140214"><ele>9.0</ele><time>2026-05-01T22:37:56.001Z</time></trkpt><trkpt lat="45.854261835412" lon="13.176297014966364"><ele>8.0</ele><time>2026-05-01T22:37:57.001Z</time></trkpt><trkpt lat="45.85414002801061" lon="13.175896403477571"><ele>7.0</ele><time>2026-05-01T22:37:58.001Z</time></trkpt><trkpt lat="45.85401830771757" lon="13.175498872792963"><ele>6.5</ele><time>2026-05-01T22:37:59.001Z</time></trkpt><trkpt lat="45.85389680419991" lon="13.175099799284105"><ele>6.0</ele><time>2026-05-01T22:38:00.001Z</time></trkpt><trkpt lat="45.85377439796519" lon="13.174702453965743"><ele>5.5</ele><time>2026-05-01T22:38:01.001Z</time></trkpt><trkpt lat="45.853651421081054" lon="13.17430604310765"><ele>5.0</ele><time>2026-05-01T22:38:02.001Z</time></trkpt><trkpt lat="45.853527174135245" lon="13.173911624387397"><ele>6.5</ele><time>2026-05-01T22:38:03.001Z</time></trkpt><trkpt lat="45.853401076264824" lon="13.173519805701751"><ele>8.0</ele><time>2026-05-01T22:38:04.001Z</time></trkpt><trkpt lat="45.85327515055893" lon="13.173130174470469"><ele>8.5</ele><time>2026-05-01T22:38:05.001Z</time></trkpt><trkpt lat="45.853148600878605" lon="13.17273877719885"><ele>9.0</ele><time>2026-05-01T22:38:06.001Z</time></trkpt><trkpt lat="45.85302585141536" lon="13.17235236341422"><ele>9.5</ele><time>2026-05-01T22:38:07.001Z</time></trkpt><trkpt lat="45.852900334802115" lon="13.171966503520181"><ele>10.0</ele><time>2026-05-01T22:38:08.001Z</time></trkpt><trkpt lat="45.852772560411644" lon="13.171581372318043"><ele>9.5</ele><time>2026-05-01T22:38:09.001Z</time></trkpt><trkpt lat="45.852645701999485" lon="13.171198062399249"><ele>9.0</ele><time>2026-05-01T22:38:10.001Z</time></trkpt><trkpt lat="45.85251858085828" lon="13.170813834804513"><ele>9.5</ele><time>2026-05-01T22:38:11.001Z</time></trkpt><trkpt lat="45.85239283023615" lon="13.17043041288857"><ele>10.0</ele><time>2026-05-01T22:38:12.001Z</time></trkpt><trkpt lat="45.852268680251" lon="13.170045700919866"><ele>11.0</ele><time>2026-05-01T22:38:13.001Z</time></trkpt><trkpt lat="45.85214303894659" lon="13.169662617923702"><ele>12.0</ele><time>2026-05-01T22:38:14.001Z</time></trkpt><trkpt lat="45.852018965867764" lon="13.16927774704532"><ele>12.0</ele><time>2026-05-01T22:38:15.001Z</time></trkpt><trkpt lat="45.85189558408197" lon="13.168898024775325"><ele>12.0</ele><time>2026-05-01T22:38:16.001Z</time></trkpt><trkpt lat="45.85177009567818" lon="13.168510694110626"><ele>9.5</ele><time>2026-05-01T22:38:17.001Z</time></trkpt><trkpt lat="45.85164438759844" lon="13.16812233114421"><ele>7.0</ele><time>2026-05-01T22:38:18.001Z</time></trkpt><trkpt lat="45.851517977850456" lon="13.167734720397961"><ele>7.5</ele><time>2026-05-01T22:38:19.001Z</time></trkpt><trkpt lat="45.85139261288188" lon="13.167344968997748"><ele>8.0</ele><time>2026-05-01T22:38:20.001Z</time></trkpt><trkpt lat="45.85126813314478" lon="13.166954281453496"><ele>8.0</ele><time>2026-05-01T22:38:21.001Z</time></trkpt><trkpt lat="45.851141873736246" lon="13.16656189550923"><ele>8.0</ele><time>2026-05-01T22:38:22.001Z</time></trkpt><trkpt lat="45.85101410669839" lon="13.166169692528097"><ele>9.0</ele><time>2026-05-01T22:38:23.001Z</time></trkpt><trkpt lat="45.8508869980593" lon="13.16578083881067"><ele>10.0</ele><time>2026-05-01T22:38:24.001Z</time></trkpt><trkpt lat="45.85076017641812" lon="13.165388732178402"><ele>10.0</ele><time>2026-05-01T22:38:25.001Z</time></trkpt><trkpt lat="45.85063183520909" lon="13.165001007671949"><ele>10.0</ele><time>2026-05-01T22:38:26.001Z</time></trkpt><trkpt lat="45.85050215287349" lon="13.164614841278476"><ele>10.0</ele><time>2026-05-01T22:38:27.001Z</time></trkpt><trkpt lat="45.85037223480359" lon="13.164230156375945"><ele>10.0</ele><time>2026-05-01T22:38:28.001Z</time></trkpt><trkpt lat="45.85024508193335" lon="13.163842239991398"><ele>9.5</ele><time>2026-05-01T22:38:29.001Z</time></trkpt><trkpt lat="45.850117403727836" lon="13.163457772920792"><ele>9.0</ele><time>2026-05-01T22:38:30.001Z</time></trkpt><trkpt lat="45.84998998474589" lon="13.163072839738456"><ele>9.0</ele><time>2026-05-01T22:38:31.001Z</time></trkpt><trkpt lat="45.84986324421024" lon="13.16268659724225"><ele>9.0</ele><time>2026-05-01T22:38:32.001Z</time></trkpt><trkpt lat="45.84973863413726" lon="13.16229893314254"><ele>9.0</ele><time>2026-05-01T22:38:33.001Z</time></trkpt><trkpt lat="45.84961383719993" lon="13.16191198449231"><ele>9.0</ele><time>2026-05-01T22:38:34.001Z</time></trkpt><trkpt lat="45.84948940789132" lon="13.161524629992638"><ele>9.0</ele><time>2026-05-01T22:38:35.001Z</time></trkpt><trkpt lat="45.84936388825844" lon="13.16114034960196"><ele>9.0</ele><time>2026-05-01T22:38:36.001Z</time></trkpt><trkpt lat="45.84923698999347" lon="13.160756262880604"><ele>8.5</ele><time>2026-05-01T22:38:37.001Z</time></trkpt><trkpt lat="45.849109515482226" lon="13.160372937014051"><ele>8.0</ele><time>2026-05-01T22:38:38.001Z</time></trkpt><trkpt lat="45.84898200959637" lon="13.159989257122982"><ele>7.0</ele><time>2026-05-01T22:38:39.001Z</time></trkpt><trkpt lat="45.84885509341807" lon="13.159605913268365"><ele>6.0</ele><time>2026-05-01T22:38:40.001Z</time></trkpt><trkpt lat="45.84873067730302" lon="13.159223059754956"><ele>6.0</ele><time>2026-05-01T22:38:41.001Z</time></trkpt><trkpt lat="45.848605863444746" lon="13.15883986619734"><ele>6.0</ele><time>2026-05-01T22:38:42.001Z</time></trkpt><trkpt lat="45.84848248178806" lon="13.158458965723067"><ele>5.5</ele><time>2026-05-01T22:38:43.001Z</time></trkpt><trkpt lat="45.84835921549685" lon="13.158076461202567"><ele>5.0</ele><time>2026-05-01T22:38:44.001Z</time></trkpt><trkpt lat="45.84823629813242" lon="13.157695997847227"><ele>5.5</ele><time>2026-05-01T22:38:45.001Z</time></trkpt><trkpt lat="45.848113971845535" lon="13.157318440185737"><ele>6.0</ele><time>2026-05-01T22:38:46.001Z</time></trkpt><trkpt lat="45.84799176003666" lon="13.156940489394197"><ele>6.0</ele><time>2026-05-01T22:38:47.001Z</time></trkpt><trkpt lat="45.847868367090975" lon="13.156567906435455"><ele>6.0</ele><time>2026-05-01T22:38:48.001Z</time></trkpt><trkpt lat="45.84774669013156" lon="13.156195778206202"><ele>6.5</ele><time>2026-05-01T22:38:49.001Z</time></trkpt><trkpt lat="45.84762421704028" lon="13.15582340236333"><ele>7.0</ele><time>2026-05-01T22:38:50.001Z</time></trkpt><trkpt lat="45.84750220554027" lon="13.155451934830577"><ele>7.0</ele><time>2026-05-01T22:38:51.001Z</time></trkpt><trkpt lat="45.84738050634081" lon="13.155078301234532"><ele>7.0</ele><time>2026-05-01T22:38:52.001Z</time></trkpt><trkpt lat="45.847259108311555" lon="13.15470393437212"><ele>7.0</ele><time>2026-05-01T22:38:53.001Z</time></trkpt><trkpt lat="45.84713574013273" lon="13.154326048761666"><ele>7.0</ele><time>2026-05-01T22:38:54.001Z</time></trkpt><trkpt lat="45.84701393417025" lon="13.153951021331467"><ele>6.5</ele><time>2026-05-01T22:38:55.001Z</time></trkpt><trkpt lat="45.846890307724294" lon="13.153571873057025"><ele>6.0</ele><time>2026-05-01T22:38:56.001Z</time></trkpt><trkpt lat="45.84676505207562" lon="13.153196824576714"><ele>6.0</ele><time>2026-05-01T22:38:57.001Z</time></trkpt><trkpt lat="45.84664034205881" lon="13.152821370141487"><ele>6.0</ele><time>2026-05-01T22:38:58.001Z</time></trkpt><trkpt lat="45.84651706936578" lon="13.152444374043265"><ele>6.5</ele><time>2026-05-01T22:38:59.001Z</time></trkpt><trkpt lat="45.84639514673122" lon="13.152064863027324"><ele>7.0</ele><time>2026-05-01T22:39:00.001Z</time></trkpt><trkpt lat="45.84627590278298" lon="13.15168362421814"><ele>6.5</ele><time>2026-05-01T22:39:01.001Z</time></trkpt><trkpt lat="45.846153295264216" lon="13.151302643234578"><ele>6.0</ele><time>2026-05-01T22:39:02.001Z</time></trkpt><trkpt lat="45.84602885784002" lon="13.15092255892874"><ele>6.5</ele><time>2026-05-01T22:39:03.001Z</time></trkpt><trkpt lat="45.84590269276732" lon="13.150545889390479"><ele>7.0</ele><time>2026-05-01T22:39:04.001Z</time></trkpt><trkpt lat="45.845776365391046" lon="13.150165698130245"><ele>7.0</ele><time>2026-05-01T22:39:05.001Z</time></trkpt><trkpt lat="45.84565048697021" lon="13.149783590916188"><ele>7.0</ele><time>2026-05-01T22:39:06.001Z</time></trkpt><trkpt lat="45.84552585671878" lon="13.14939997690551"><ele>6.5</ele><time>2026-05-01T22:39:07.001Z</time></trkpt><trkpt lat="45.845399634175955" lon="13.149015644836267"><ele>6.0</ele><time>2026-05-01T22:39:08.001Z</time></trkpt><trkpt lat="45.8452714890878" lon="13.148629495891479"><ele>6.0</ele><time>2026-05-01T22:39:09.001Z</time></trkpt><trkpt lat="45.845143678884604" lon="13.148242538256895"><ele>6.0</ele><time>2026-05-01T22:39:10.001Z</time></trkpt><trkpt lat="45.84501558631092" lon="13.147854601131039"><ele>6.5</ele><time>2026-05-01T22:39:11.001Z</time></trkpt><trkpt lat="45.84488736977469" lon="13.147467034373339"><ele>7.0</ele><time>2026-05-01T22:39:12.001Z</time></trkpt><trkpt lat="45.84476016321079" lon="13.147079345268097"><ele>7.5</ele><time>2026-05-01T22:39:13.001Z</time></trkpt><trkpt lat="45.844633369200174" lon="13.146696212407706"><ele>8.0</ele><time>2026-05-01T22:39:14.001Z</time></trkpt><trkpt lat="45.84451390356543" lon="13.146332440437405"><ele>8.0</ele><time>2026-05-01T22:39:15.001Z</time></trkpt><trkpt lat="45.84439817977606" lon="13.1459629238557"><ele>8.0</ele><time>2026-05-01T22:39:16.001Z</time></trkpt><trkpt lat="45.84427914357823" lon="13.145588636376386"><ele>7.5</ele><time>2026-05-01T22:39:17.001Z</time></trkpt><trkpt lat="45.844159635410804" lon="13.145209647524663"><ele>7.0</ele><time>2026-05-01T22:39:18.001Z</time></trkpt><trkpt lat="45.844034857639514" lon="13.144826452069088"><ele>7.0</ele><time>2026-05-01T22:39:19.001Z</time></trkpt><trkpt lat="45.84390615109319" lon="13.144440423800837"><ele>7.0</ele><time>2026-05-01T22:39:20.001Z</time></trkpt><trkpt lat="45.84377787906578" lon="13.144053650494401"><ele>6.0</ele><time>2026-05-01T22:39:21.001Z</time></trkpt><trkpt lat="45.84364989811203" lon="13.143661756674604"><ele>5.0</ele><time>2026-05-01T22:39:22.001Z</time></trkpt><trkpt lat="45.84352260866084" lon="13.143270391086975"><ele>6.0</ele><time>2026-05-01T22:39:23.001Z</time></trkpt><trkpt lat="45.84339418188762" lon="13.142879276912463"><ele>7.0</ele><time>2026-05-01T22:39:24.001Z</time></trkpt><trkpt lat="45.8432651197748" lon="13.142486433076195"><ele>7.0</ele><time>2026-05-01T22:39:25.001Z</time></trkpt><trkpt lat="45.84313590643004" lon="13.142095571447927"><ele>7.0</ele><time>2026-05-01T22:39:26.001Z</time></trkpt><trkpt lat="45.843006399718995" lon="13.141704141327686"><ele>7.0</ele><time>2026-05-01T22:39:27.001Z</time></trkpt><trkpt lat="45.84287606042476" lon="13.141311766176633"><ele>7.0</ele><time>2026-05-01T22:39:28.001Z</time></trkpt><trkpt lat="45.8427468751214" lon="13.140923707276027"><ele>6.5</ele><time>2026-05-01T22:39:29.001Z</time></trkpt><trkpt lat="45.84261817340288" lon="13.14053470256251"><ele>6.0</ele><time>2026-05-01T22:39:30.001Z</time></trkpt><trkpt lat="45.84248969813714" lon="13.140144775408356"><ele>7.0</ele><time>2026-05-01T22:39:31.001Z</time></trkpt><trkpt lat="45.84236096818459" lon="13.13975415485719"><ele>8.0</ele><time>2026-05-01T22:39:32.001Z</time></trkpt><trkpt lat="45.84223344998361" lon="13.13936545969764"><ele>9.0</ele><time>2026-05-01T22:39:33.001Z</time></trkpt><trkpt lat="45.842106638281926" lon="13.138974548123183"><ele>10.0</ele><time>2026-05-01T22:39:34.001Z</time></trkpt><trkpt lat="45.8419811698482" lon="13.138587731405792"><ele>10.0</ele><time>2026-05-01T22:39:35.001Z</time></trkpt><trkpt lat="45.84185661157338" lon="13.138201703045219"><ele>10.0</ele><time>2026-05-01T22:39:36.001Z</time></trkpt><trkpt lat="45.84173271450362" lon="13.137818289262668"><ele>9.0</ele><time>2026-05-01T22:39:37.001Z</time></trkpt><trkpt lat="45.84160713274535" lon="13.137435197930083"><ele>8.0</ele><time>2026-05-01T22:39:38.001Z</time></trkpt><trkpt lat="45.841483266287526" lon="13.13705442823139"><ele>7.5</ele><time>2026-05-01T22:39:39Z</time></trkpt><trkpt lat="45.84135910991967" lon="13.136672548007054"><ele>7.0</ele><time>2026-05-01T22:39:40Z</time></trkpt><trkpt lat="45.84123475304414" lon="13.136291289050757"><ele>8.0</ele><time>2026-05-01T22:39:41Z</time></trkpt><trkpt lat="45.84110972281482" lon="13.1359092145623"><ele>9.0</ele><time>2026-05-01T22:39:42Z</time></trkpt><trkpt lat="45.84098335734505" lon="13.135527563373365"><ele>9.5</ele><time>2026-05-01T22:39:43Z</time></trkpt><trkpt lat="45.840856553441874" lon="13.135149075939477"><ele>10.0</ele><time>2026-05-01T22:39:44Z</time></trkpt><trkpt lat="45.84072945988948" lon="13.13476804291261"><ele>10.0</ele><time>2026-05-01T22:39:45Z</time></trkpt><trkpt lat="45.840603477593255" lon="13.134389181986933"><ele>10.0</ele><time>2026-05-01T22:39:46Z</time></trkpt><trkpt lat="45.840480039338914" lon="13.134010511490885"><ele>11.0</ele><time>2026-05-01T22:39:47Z</time></trkpt><trkpt lat="45.840353659782224" lon="13.13362967176619"><ele>12.0</ele><time>2026-05-01T22:39:48Z</time></trkpt><trkpt lat="45.84022724054805" lon="13.13324763562126"><ele>10.0</ele><time>2026-05-01T22:39:49Z</time></trkpt><trkpt lat="45.84010280271113" lon="13.132865173792348"><ele>8.0</ele><time>2026-05-01T22:39:50Z</time></trkpt><trkpt lat="45.839978575054374" lon="13.132481454473"><ele>8.0</ele><time>2026-05-01T22:39:51Z</time></trkpt><trkpt lat="45.83985464902859" lon="13.132097686110315"><ele>8.0</ele><time>2026-05-01T22:39:52Z</time></trkpt><trkpt lat="45.83972970062159" lon="13.131716515048444"><ele>8.0</ele><time>2026-05-01T22:39:53Z</time></trkpt><trkpt lat="45.83960393127277" lon="13.131334028590864"><ele>8.0</ele><time>2026-05-01T22:39:54Z</time></trkpt><trkpt lat="45.83947808886046" lon="13.130951877389627"><ele>8.5</ele><time>2026-05-01T22:39:55Z</time></trkpt><trkpt lat="45.83935349370326" lon="13.130569328486063"><ele>9.0</ele><time>2026-05-01T22:39:56Z</time></trkpt><trkpt lat="45.83923077810158" lon="13.13018813325696"><ele>9.0</ele><time>2026-05-01T22:39:57Z</time></trkpt><trkpt lat="45.839107293237475" lon="13.129807236354624"><ele>9.0</ele><time>2026-05-01T22:39:58Z</time></trkpt><trkpt lat="45.838982326299146" lon="13.129425619488341"><ele>9.5</ele><time>2026-05-01T22:39:59Z</time></trkpt><trkpt lat="45.83885786653254" lon="13.129045998679192"><ele>10.0</ele><time>2026-05-01T22:40:00Z</time></trkpt><trkpt lat="45.838733353050344" lon="13.128664864770103"><ele>10.0</ele><time>2026-05-01T22:40:01.001Z</time></trkpt><trkpt lat="45.83860878477316" lon="13.128284907783362"><ele>10.0</ele><time>2026-05-01T22:40:02.001Z</time></trkpt><trkpt lat="45.838483276554335" lon="13.127903546532282"><ele>9.5</ele><time>2026-05-01T22:40:03.001Z</time></trkpt><trkpt lat="45.83835734533179" lon="13.127524681605998"><ele>9.0</ele><time>2026-05-01T22:40:04.001Z</time></trkpt><trkpt lat="45.83823100013859" lon="13.127145127372003"><ele>9.0</ele><time>2026-05-01T22:40:05.001Z</time></trkpt><trkpt lat="45.83810583992048" lon="13.126763433207637"><ele>9.0</ele><time>2026-05-01T22:40:06.001Z</time></trkpt><trkpt lat="45.83798085777528" lon="13.126380375881824"><ele>8.5</ele><time>2026-05-01T22:40:07.001Z</time></trkpt><trkpt lat="45.83785594659122" lon="13.125995608304814"><ele>8.0</ele><time>2026-05-01T22:40:08.001Z</time></trkpt><trkpt lat="45.83773161947371" lon="13.125610420272043"><ele>8.0</ele><time>2026-05-01T22:40:09.001Z</time></trkpt><trkpt lat="45.837607432029195" lon="13.125224116164636"><ele>8.0</ele><time>2026-05-01T22:40:10.001Z</time></trkpt><trkpt lat="45.837481503523975" lon="13.124839011195032"><ele>8.0</ele><time>2026-05-01T22:40:11.001Z</time></trkpt><trkpt lat="45.83735396430586" lon="13.124451943269523"><ele>8.0</ele><time>2026-05-01T22:40:12.001Z</time></trkpt><trkpt lat="45.83722639934689" lon="13.124066680457025"><ele>7.5</ele><time>2026-05-01T22:40:13.001Z</time></trkpt><trkpt lat="45.837098149221134" lon="13.123679928281637"><ele>7.0</ele><time>2026-05-01T22:40:14.001Z</time></trkpt><trkpt lat="45.83697113393481" lon="13.123291246442879"><ele>7.0</ele><time>2026-05-01T22:40:15.001Z</time></trkpt><trkpt lat="45.83684739220889" lon="13.122905120501152"><ele>7.0</ele><time>2026-05-01T22:40:16.001Z</time></trkpt><trkpt lat="45.83673065315071" lon="13.122536972164193"><ele>7.0</ele><time>2026-05-01T22:40:17.001Z</time></trkpt><trkpt lat="45.83661748645339" lon="13.122168380564146"><ele>7.0</ele><time>2026-05-01T22:40:18.001Z</time></trkpt><trkpt lat="45.8364961731761" lon="13.121790775868847"><ele>6.5</ele><time>2026-05-01T22:40:19.001Z</time></trkpt><trkpt lat="45.836369236660154" lon="13.121411530688066"><ele>6.0</ele><time>2026-05-01T22:40:20.001Z</time></trkpt><trkpt lat="45.83623835459088" lon="13.12102812219412"><ele>5.5</ele><time>2026-05-01T22:40:21.001Z</time></trkpt><trkpt lat="45.836108209144214" lon="13.120639182609303"><ele>5.0</ele><time>2026-05-01T22:40:22.001Z</time></trkpt><trkpt lat="45.83597949939489" lon="13.120245412745756"><ele>5.5</ele><time>2026-05-01T22:40:23.001Z</time></trkpt><trkpt lat="45.8358539329302" lon="13.119849263715512"><ele>6.0</ele><time>2026-05-01T22:40:24.001Z</time></trkpt><trkpt lat="45.83572740678302" lon="13.119452360320635"><ele>6.0</ele><time>2026-05-01T22:40:25.001Z</time></trkpt><trkpt lat="45.83560221397469" lon="13.119057935205207"><ele>6.0</ele><time>2026-05-01T22:40:26.001Z</time></trkpt><trkpt lat="45.835473170606306" lon="13.118664693676596"><ele>6.0</ele><time>2026-05-01T22:40:27.001Z</time></trkpt><trkpt lat="45.835344446074224" lon="13.11827554436692"><ele>6.0</ele><time>2026-05-01T22:40:28.001Z</time></trkpt><trkpt lat="45.835215466852404" lon="13.117887825755274"><ele>7.0</ele><time>2026-05-01T22:40:29.001Z</time></trkpt><trkpt lat="45.83508720151456" lon="13.117500139830167"><ele>8.0</ele><time>2026-05-01T22:40:30.001Z</time></trkpt><trkpt lat="45.834959625139916" lon="13.11711071683235"><ele>8.0</ele><time>2026-05-01T22:40:31.001Z</time></trkpt><trkpt lat="45.83483405731289" lon="13.116724045092235"><ele>8.0</ele><time>2026-05-01T22:40:32.001Z</time></trkpt><trkpt lat="45.8347120693644" lon="13.116336290170391"><ele>7.0</ele><time>2026-05-01T22:40:33.001Z</time></trkpt><trkpt lat="45.83459285125989" lon="13.115948737973472"><ele>6.0</ele><time>2026-05-01T22:40:34.001Z</time></trkpt><trkpt lat="45.83447602798639" lon="13.115559326965032"><ele>5.5</ele><time>2026-05-01T22:40:35.001Z</time></trkpt><trkpt lat="45.834361492106524" lon="13.115168530393088"><ele>5.0</ele><time>2026-05-01T22:40:36.001Z</time></trkpt><trkpt lat="45.834249566850794" lon="13.11477888347948"><ele>5.0</ele><time>2026-05-01T22:40:37.001Z</time></trkpt><trkpt lat="45.834139409354925" lon="13.114386731691514"><ele>5.0</ele><time>2026-05-01T22:40:38.001Z</time></trkpt><trkpt lat="45.83402922196508" lon="13.113994555976594"><ele>5.0</ele><time>2026-05-01T22:40:39.001Z</time></trkpt><trkpt lat="45.83392044618419" lon="13.113598743407296"><ele>5.0</ele><time>2026-05-01T22:40:40.001Z</time></trkpt><trkpt lat="45.83381157495993" lon="13.113198387622875"><ele>5.0</ele><time>2026-05-01T22:40:41.001Z</time></trkpt><trkpt lat="45.83370406588496" lon="13.112795424082595"><ele>5.0</ele><time>2026-05-01T22:40:42.001Z</time></trkpt><trkpt lat="45.8335987736961" lon="13.112389999115608"><ele>5.0</ele><time>2026-05-01T22:40:43.001Z</time></trkpt><trkpt lat="45.833494847511396" lon="13.11198169275412"><ele>5.0</ele><time>2026-05-01T22:40:44.001Z</time></trkpt><trkpt lat="45.833392162703376" lon="13.11157299194173"><ele>5.0</ele><time>2026-05-01T22:40:45.001Z</time></trkpt><trkpt lat="45.83329381559926" lon="13.111171472547268"><ele>5.0</ele><time>2026-05-01T22:40:46.001Z</time></trkpt><trkpt lat="45.83319778623667" lon="13.11077600638835"><ele>5.0</ele><time>2026-05-01T22:40:47.001Z</time></trkpt><trkpt lat="45.8331037072767" lon="13.1103819453765"><ele>5.0</ele><time>2026-05-01T22:40:48.001Z</time></trkpt><trkpt lat="45.83301258311439" lon="13.109983934899962"><ele>5.0</ele><time>2026-05-01T22:40:49.001Z</time></trkpt><trkpt lat="45.8329232287615" lon="13.109580788367687"><ele>5.0</ele><time>2026-05-01T22:40:50.001Z</time></trkpt><trkpt lat="45.83283648694379" lon="13.109179210556249"><ele>5.0</ele><time>2026-05-01T22:40:51.001Z</time></trkpt><trkpt lat="45.83275060395498" lon="13.10877229820035"><ele>5.0</ele><time>2026-05-01T22:40:52.001Z</time></trkpt><trkpt lat="45.83266579366431" lon="13.108363636891513"><ele>5.0</ele><time>2026-05-01T22:40:53.001Z</time></trkpt><trkpt lat="45.83258184173512" lon="13.107952560175905"><ele>5.0</ele><time>2026-05-01T22:40:54.001Z</time></trkpt><trkpt lat="45.83249922778957" lon="13.107537203600671"><ele>6.0</ele><time>2026-05-01T22:40:55.001Z</time></trkpt><trkpt lat="45.8324164409773" lon="13.107122710702658"><ele>7.0</ele><time>2026-05-01T22:40:56.001Z</time></trkpt><trkpt lat="45.83233609947071" lon="13.106706082503537"><ele>6.5</ele><time>2026-05-01T22:40:57.001Z</time></trkpt><trkpt lat="45.832257464550295" lon="13.106287143037555"><ele>6.0</ele><time>2026-05-01T22:40:58.001Z</time></trkpt><trkpt lat="45.832181689259876" lon="13.105870221464086"><ele>5.0</ele><time>2026-05-01T22:40:59.001Z</time></trkpt><trkpt lat="45.83210674132916" lon="13.105450790231748"><ele>4.0</ele><time>2026-05-01T22:41:00.001Z</time></trkpt><trkpt lat="45.83203386139159" lon="13.105029962519012"><ele>4.0</ele><time>2026-05-01T22:41:01.001Z</time></trkpt><trkpt lat="45.831962448153284" lon="13.104609766661877"><ele>4.0</ele><time>2026-05-01T22:41:02.001Z</time></trkpt><trkpt lat="45.83189439149035" lon="13.104190414286805"><ele>4.0</ele><time>2026-05-01T22:41:03.001Z</time></trkpt><trkpt lat="45.83183289463594" lon="13.103771931798791"><ele>4.0</ele><time>2026-05-01T22:41:04.001Z</time></trkpt><trkpt lat="45.83176863269018" lon="13.1033495323228"><ele>5.0</ele><time>2026-05-01T22:41:05.001Z</time></trkpt><trkpt lat="45.831709205254235" lon="13.10292624938554"><ele>6.0</ele><time>2026-05-01T22:41:06.001Z</time></trkpt><trkpt lat="45.83164886187988" lon="13.102504411166336"><ele>6.0</ele><time>2026-05-01T22:41:07.001Z</time></trkpt><trkpt lat="45.831583797477364" lon="13.102084047040725"><ele>6.0</ele><time>2026-05-01T22:41:08.001Z</time></trkpt><trkpt lat="45.83152323804422" lon="13.101659198855526"><ele>6.0</ele><time>2026-05-01T22:41:09.001Z</time></trkpt><trkpt lat="45.8314617693253" lon="13.101235526647317"><ele>6.0</ele><time>2026-05-01T22:41:10.001Z</time></trkpt><trkpt lat="45.831400244229535" lon="13.100812180167944"><ele>6.0</ele><time>2026-05-01T22:41:11.001Z</time></trkpt><trkpt lat="45.831337412774694" lon="13.100386994853782"><ele>6.0</ele><time>2026-05-01T22:41:12.001Z</time></trkpt><trkpt lat="45.83127469610767" lon="13.099962548539311"><ele>6.5</ele><time>2026-05-01T22:41:13.001Z</time></trkpt><trkpt lat="45.831212746717405" lon="13.099537621523417"><ele>7.0</ele><time>2026-05-01T22:41:14.001Z</time></trkpt><trkpt lat="45.8311458415139" lon="13.099113053303348"><ele>7.0</ele><time>2026-05-01T22:41:15.001Z</time></trkpt><trkpt lat="45.83108329219593" lon="13.09868990636266"><ele>7.0</ele><time>2026-05-01T22:41:16.001Z</time></trkpt><trkpt lat="45.83102113903322" lon="13.098268517008199"><ele>6.0</ele><time>2026-05-01T22:41:17.001Z</time></trkpt><trkpt lat="45.830960366923925" lon="13.097845149323962"><ele>5.0</ele><time>2026-05-01T22:41:18.001Z</time></trkpt><trkpt lat="45.83090025523884" lon="13.097423476341621"><ele>4.0</ele><time>2026-05-01T22:41:19.001Z</time></trkpt><trkpt lat="45.830839326445336" lon="13.097000636049883"><ele>3.0</ele><time>2026-05-01T22:41:20.001Z</time></trkpt><trkpt lat="45.83077920063005" lon="13.096580096873325"><ele>3.0</ele><time>2026-05-01T22:41:21.001Z</time></trkpt><trkpt lat="45.8307187292702" lon="13.09615832382737"><ele>3.0</ele><time>2026-05-01T22:41:22.001Z</time></trkpt><trkpt lat="45.83065692586284" lon="13.095736399702943"><ele>3.0</ele><time>2026-05-01T22:41:23.001Z</time></trkpt><trkpt lat="45.83059315530668" lon="13.095314373874446"><ele>3.0</ele><time>2026-05-01T22:41:24.001Z</time></trkpt><trkpt lat="45.83052974760825" lon="13.094890592856377"><ele>3.0</ele><time>2026-05-01T22:41:25.001Z</time></trkpt><trkpt lat="45.83046729360487" lon="13.094466662586319"><ele>3.0</ele><time>2026-05-01T22:41:26.001Z</time></trkpt><trkpt lat="45.8304058896426" lon="13.094040521863107"><ele>3.0</ele><time>2026-05-01T22:41:27.001Z</time></trkpt><trkpt lat="45.83034549827642" lon="13.093613316113384"><ele>3.0</ele><time>2026-05-01T22:41:28.001Z</time></trkpt><trkpt lat="45.830284402204825" lon="13.09318636953315"><ele>2.5</ele><time>2026-05-01T22:41:29.001Z</time></trkpt><trkpt lat="45.830223794291044" lon="13.092764584427867"><ele>2.0</ele><time>2026-05-01T22:41:30.001Z</time></trkpt><trkpt lat="45.83016591759688" lon="13.09235820570911"><ele>2.0</ele><time>2026-05-01T22:41:31.001Z</time></trkpt><trkpt lat="45.83011061824148" lon="13.091968480822942"><ele>2.0</ele><time>2026-05-01T22:41:32.001Z</time></trkpt><trkpt lat="45.830052436355224" lon="13.091564984801316"><ele>2.0</ele><time>2026-05-01T22:41:33.001Z</time></trkpt><trkpt lat="45.82999258563845" lon="13.091154054694696"><ele>2.0</ele><time>2026-05-01T22:41:34.001Z</time></trkpt><trkpt lat="45.8299319511088" lon="13.09073923733682"><ele>2.0</ele><time>2026-05-01T22:41:35.001Z</time></trkpt><trkpt lat="45.829872981091725" lon="13.090317637859354"><ele>2.0</ele><time>2026-05-01T22:41:36.001Z</time></trkpt><trkpt lat="45.8298156313269" lon="13.08989246133128"><ele>2.0</ele><time>2026-05-01T22:41:37.001Z</time></trkpt><trkpt lat="45.82975671344891" lon="13.089463997816065"><ele>2.0</ele><time>2026-05-01T22:41:38.001Z</time></trkpt><trkpt lat="45.82969760427019" lon="13.089036269199148"><ele>2.0</ele><time>2026-05-01T22:41:39.001Z</time></trkpt><trkpt lat="45.829637226635775" lon="13.088610855782681"><ele>2.0</ele><time>2026-05-01T22:41:40.001Z</time></trkpt><trkpt lat="45.829576229417015" lon="13.088186398189606"><ele>1.5</ele><time>2026-05-01T22:41:41.001Z</time></trkpt><trkpt lat="45.82951495483899" lon="13.087761666464184"><ele>1.0</ele><time>2026-05-01T22:41:42.001Z</time></trkpt><trkpt lat="45.8294535097898" lon="13.087339448699232"><ele>1.0</ele><time>2026-05-01T22:41:43.001Z</time></trkpt><trkpt lat="45.82939117900218" lon="13.086916024951263"><ele>1.0</ele><time>2026-05-01T22:41:44.001Z</time></trkpt><trkpt lat="45.829328644477755" lon="13.086493186256606"><ele>1.5</ele><time>2026-05-01T22:41:45Z</time></trkpt><trkpt lat="45.82926738259067" lon="13.08607033217422"><ele>2.0</ele><time>2026-05-01T22:41:46Z</time></trkpt><trkpt lat="45.82920643725268" lon="13.085648706967596"><ele>2.0</ele><time>2026-05-01T22:41:47Z</time></trkpt><trkpt lat="45.82914436517599" lon="13.085225479106555"><ele>2.0</ele><time>2026-05-01T22:41:48Z</time></trkpt><trkpt lat="45.82908245130143" lon="13.08480331293497"><ele>2.0</ele><time>2026-05-01T22:41:49Z</time></trkpt><trkpt lat="45.82902019375296" lon="13.084381255462665"><ele>2.0</ele><time>2026-05-01T22:41:50Z</time></trkpt><trkpt lat="45.82895855427601" lon="13.08395937942325"><ele>2.0</ele><time>2026-05-01T22:41:51Z</time></trkpt><trkpt lat="45.82889669120499" lon="13.083536300069547"><ele>2.0</ele><time>2026-05-01T22:41:52Z</time></trkpt><trkpt lat="45.8288379262443" lon="13.083113561614379"><ele>1.5</ele><time>2026-05-01T22:41:53Z</time></trkpt><trkpt lat="45.82877793542917" lon="13.082688303984241"><ele>1.0</ele><time>2026-05-01T22:41:54Z</time></trkpt><trkpt lat="45.828717520499275" lon="13.082265108778321"><ele>1.5</ele><time>2026-05-01T22:41:55Z</time></trkpt><trkpt lat="45.828657112661965" lon="13.081839359403128"><ele>2.0</ele><time>2026-05-01T22:41:56Z</time></trkpt><trkpt lat="45.82859581316486" lon="13.081412300530358"><ele>2.0</ele><time>2026-05-01T22:41:57Z</time></trkpt><trkpt lat="45.82853357927893" lon="13.080986610531946"><ele>2.0</ele><time>2026-05-01T22:41:58Z</time></trkpt><trkpt lat="45.8284700778996" lon="13.080557102669164"><ele>2.0</ele><time>2026-05-01T22:41:59Z</time></trkpt><trkpt lat="45.82840480651065" lon="13.080130164564665"><ele>2.0</ele><time>2026-05-01T22:42:00Z</time></trkpt><trkpt lat="45.82834129673801" lon="13.079703392781797"><ele>1.0</ele><time>2026-05-01T22:42:01Z</time></trkpt><trkpt lat="45.828277995714785" lon="13.079276513806823"><ele>0.0</ele><time>2026-05-01T22:42:02Z</time></trkpt><trkpt lat="45.82821423075112" lon="13.078850093138886"><ele>0.0</ele><time>2026-05-01T22:42:03Z</time></trkpt><trkpt lat="45.82815051148584" lon="13.078421332415177"><ele>0.0</ele><time>2026-05-01T22:42:04Z</time></trkpt><trkpt lat="45.82808872458746" lon="13.07799438798805"><ele>0.5</ele><time>2026-05-01T22:42:05Z</time></trkpt><trkpt lat="45.82802608983134" lon="13.077568132251324"><ele>1.0</ele><time>2026-05-01T22:42:06Z</time></trkpt><trkpt lat="45.82796405490805" lon="13.077143144077855"><ele>2.0</ele><time>2026-05-01T22:42:07Z</time></trkpt><trkpt lat="45.827901983092595" lon="13.076717406319016"><ele>3.0</ele><time>2026-05-01T22:42:08Z</time></trkpt><trkpt lat="45.82783959130132" lon="13.076295427588947"><ele>3.0</ele><time>2026-05-01T22:42:09Z</time></trkpt><trkpt lat="45.827777836726696" lon="13.075872579887458"><ele>3.0</ele><time>2026-05-01T22:42:10Z</time></trkpt><trkpt lat="45.82771534508226" lon="13.075450776465097"><ele>3.0</ele><time>2026-05-01T22:42:11Z</time></trkpt><trkpt lat="45.82765466502409" lon="13.07502777025155"><ele>3.0</ele><time>2026-05-01T22:42:12Z</time></trkpt><trkpt lat="45.827595684789046" lon="13.074600959837012"><ele>3.5</ele><time>2026-05-01T22:42:13.001Z</time></trkpt><trkpt lat="45.82753414183414" lon="13.074175395150304"><ele>4.0</ele><time>2026-05-01T22:42:14.001Z</time></trkpt><trkpt lat="45.82747552526345" lon="13.073746011259628"><ele>4.0</ele><time>2026-05-01T22:42:15.001Z</time></trkpt><trkpt lat="45.82741874693019" lon="13.07331318776955"><ele>4.0</ele><time>2026-05-01T22:42:16.001Z</time></trkpt><trkpt lat="45.82735682478226" lon="13.072883300829577"><ele>4.0</ele><time>2026-05-01T22:42:17.001Z</time></trkpt><trkpt lat="45.82729648105121" lon="13.072453531851721"><ele>4.0</ele><time>2026-05-01T22:42:18.001Z</time></trkpt><trkpt lat="45.82723256992144" lon="13.07202820039628"><ele>4.0</ele><time>2026-05-01T22:42:19.001Z</time></trkpt><trkpt lat="45.82716597630453" lon="13.071606940145786"><ele>4.0</ele><time>2026-05-01T22:42:20.001Z</time></trkpt><trkpt lat="45.827104571148844" lon="13.071182202335947"><ele>4.0</ele><time>2026-05-01T22:42:21.001Z</time></trkpt><trkpt lat="45.82704354274175" lon="13.070760900472479"><ele>4.0</ele><time>2026-05-01T22:42:22.001Z</time></trkpt><trkpt lat="45.82698258135048" lon="13.07033687242471"><ele>4.5</ele><time>2026-05-01T22:42:23.001Z</time></trkpt><trkpt lat="45.82692078281759" lon="13.069912563275702"><ele>5.0</ele><time>2026-05-01T22:42:24.001Z</time></trkpt><trkpt lat="45.82685478137444" lon="13.069485402148569"><ele>5.5</ele><time>2026-05-01T22:42:25.001Z</time></trkpt><trkpt lat="45.82679736867082" lon="13.069060896605396"><ele>6.0</ele><time>2026-05-01T22:42:26.001Z</time></trkpt><trkpt lat="45.826734220169136" lon="13.068638949143734"><ele>6.0</ele><time>2026-05-01T22:42:27.001Z</time></trkpt><trkpt lat="45.82667420453062" lon="13.068213451285805"><ele>6.0</ele><time>2026-05-01T22:42:28.001Z</time></trkpt><trkpt lat="45.826613223092274" lon="13.067789965422483"><ele>5.0</ele><time>2026-05-01T22:42:29.001Z</time></trkpt><trkpt lat="45.826550896517546" lon="13.067364335310078"><ele>4.0</ele><time>2026-05-01T22:42:30.001Z</time></trkpt><trkpt lat="45.82648862014676" lon="13.066939285023592"><ele>4.5</ele><time>2026-05-01T22:42:31.001Z</time></trkpt><trkpt lat="45.82642633867706" lon="13.066514854262705"><ele>5.0</ele><time>2026-05-01T22:42:32.001Z</time></trkpt><trkpt lat="45.82636380062198" lon="13.066089606603972"><ele>4.5</ele><time>2026-05-01T22:42:33.001Z</time></trkpt><trkpt lat="45.826301137483334" lon="13.065661957286338"><ele>4.0</ele><time>2026-05-01T22:42:34.001Z</time></trkpt><trkpt lat="45.826238643806306" lon="13.065235566514682"><ele>3.5</ele><time>2026-05-01T22:42:35.001Z</time></trkpt><trkpt lat="45.82617497671873" lon="13.064807715914425"><ele>3.0</ele><time>2026-05-01T22:42:36.001Z</time></trkpt><trkpt lat="45.82611115911481" lon="13.064378797180078"><ele>3.0</ele><time>2026-05-01T22:42:37.001Z</time></trkpt><trkpt lat="45.82604932391673" lon="13.063947902191742"><ele>3.0</ele><time>2026-05-01T22:42:38.001Z</time></trkpt><trkpt lat="45.82598790411119" lon="13.063520318543459"><ele>4.5</ele><time>2026-05-01T22:42:39.001Z</time></trkpt><trkpt lat="45.82592807163652" lon="13.063094008790747"><ele>6.0</ele><time>2026-05-01T22:42:40.001Z</time></trkpt><trkpt lat="45.82586959393408" lon="13.062667957441938"><ele>5.5</ele><time>2026-05-01T22:42:41.001Z</time></trkpt><trkpt lat="45.82581118047032" lon="13.062242231006758"><ele>5.0</ele><time>2026-05-01T22:42:42.001Z</time></trkpt><trkpt lat="45.82575166164552" lon="13.06181710246369"><ele>5.0</ele><time>2026-05-01T22:42:43.001Z</time></trkpt><trkpt lat="45.825690720791904" lon="13.061394473379764"><ele>5.0</ele><time>2026-05-01T22:42:44.001Z</time></trkpt><trkpt lat="45.8256325944436" lon="13.060966846481893"><ele>4.0</ele><time>2026-05-01T22:42:45.001Z</time></trkpt><trkpt lat="45.825571950930765" lon="13.060541838973013"><ele>3.0</ele><time>2026-05-01T22:42:46.001Z</time></trkpt><trkpt lat="45.82551026148375" lon="13.060114287001063"><ele>3.5</ele><time>2026-05-01T22:42:47.001Z</time></trkpt><trkpt lat="45.825449429451055" lon="13.059687539648403"><ele>4.0</ele><time>2026-05-01T22:42:48.001Z</time></trkpt><trkpt lat="45.825390477656256" lon="13.059261363837955"><ele>4.0</ele><time>2026-05-01T22:42:49.001Z</time></trkpt><trkpt lat="45.82532774786812" lon="13.058833791567267"><ele>4.0</ele><time>2026-05-01T22:42:50.001Z</time></trkpt><trkpt lat="45.8252620342164" lon="13.05840643698309"><ele>4.5</ele><time>2026-05-01T22:42:51.001Z</time></trkpt><trkpt lat="45.825200768191486" lon="13.057984009277542"><ele>5.0</ele><time>2026-05-01T22:42:52.001Z</time></trkpt><trkpt lat="45.82513820332855" lon="13.057569181170276"><ele>4.5</ele><time>2026-05-01T22:42:53.001Z</time></trkpt><trkpt lat="45.825081418011166" lon="13.057156945599543"><ele>4.0</ele><time>2026-05-01T22:42:54.001Z</time></trkpt><trkpt lat="45.82502259198177" lon="13.056739847886169"><ele>3.5</ele><time>2026-05-01T22:42:55.001Z</time></trkpt><trkpt lat="45.82496145581573" lon="13.05632242630495"><ele>3.0</ele><time>2026-05-01T22:42:56.001Z</time></trkpt><trkpt lat="45.8248951261988" lon="13.05590833988691"><ele>3.0</ele><time>2026-05-01T22:42:57.001Z</time></trkpt><trkpt lat="45.8248288234977" lon="13.055492185126555"><ele>3.0</ele><time>2026-05-01T22:42:58.001Z</time></trkpt><trkpt lat="45.82476269491243" lon="13.055077781898873"><ele>3.0</ele><time>2026-05-01T22:42:59.001Z</time></trkpt><trkpt lat="45.82469777627669" lon="13.054660624949197"><ele>3.0</ele><time>2026-05-01T22:43:00.001Z</time></trkpt><trkpt lat="45.82463831010876" lon="13.054246578009423"><ele>3.0</ele><time>2026-05-01T22:43:01.001Z</time></trkpt><trkpt lat="45.82457363684397" lon="13.053834265007831"><ele>3.0</ele><time>2026-05-01T22:43:02.001Z</time></trkpt><trkpt lat="45.8245068658749" lon="13.053425020934169"><ele>4.0</ele><time>2026-05-01T22:43:03.001Z</time></trkpt><trkpt lat="45.824440181644206" lon="13.053012639696096"><ele>5.0</ele><time>2026-05-01T22:43:04.001Z</time></trkpt><trkpt lat="45.82436578277482" lon="13.052607748609683"><ele>4.5</ele><time>2026-05-01T22:43:05.001Z</time></trkpt><trkpt lat="45.824282918491136" lon="13.052205314618533"><ele>4.0</ele><time>2026-05-01T22:43:06.001Z</time></trkpt><trkpt lat="45.82419495653724" lon="13.051803435386729"><ele>3.5</ele><time>2026-05-01T22:43:07.001Z</time></trkpt><trkpt lat="45.824108701079794" lon="13.051397806404351"><ele>3.0</ele><time>2026-05-01T22:43:08.001Z</time></trkpt><trkpt lat="45.824020247050505" lon="13.050987028216259"><ele>4.0</ele><time>2026-05-01T22:43:09.001Z</time></trkpt><trkpt lat="45.82392868631317" lon="13.050573841898421"><ele>5.0</ele><time>2026-05-01T22:43:10.001Z</time></trkpt><trkpt lat="45.823837797177376" lon="13.05016132418502"><ele>4.5</ele><time>2026-05-01T22:43:11.001Z</time></trkpt><trkpt lat="45.82374763229785" lon="13.049748426452616"><ele>4.0</ele><time>2026-05-01T22:43:12.001Z</time></trkpt><trkpt lat="45.823657870565626" lon="13.049340259328613"><ele>4.0</ele><time>2026-05-01T22:43:13.001Z</time></trkpt><trkpt lat="45.82356499969727" lon="13.048932950020133"><ele>4.0</ele><time>2026-05-01T22:43:14.001Z</time></trkpt><trkpt lat="45.823469063433556" lon="13.048530035027293"><ele>4.0</ele><time>2026-05-01T22:43:15.001Z</time></trkpt><trkpt lat="45.823370336780236" lon="13.048133524288628"><ele>4.0</ele><time>2026-05-01T22:43:16.001Z</time></trkpt><trkpt lat="45.823273059828566" lon="13.047736168937494"><ele>4.0</ele><time>2026-05-01T22:43:17.001Z</time></trkpt><trkpt lat="45.82317871258203" lon="13.047343218340123"><ele>4.0</ele><time>2026-05-01T22:43:18.001Z</time></trkpt><trkpt lat="45.823088302743855" lon="13.046948121344178"><ele>4.5</ele><time>2026-05-01T22:43:19.001Z</time></trkpt><trkpt lat="45.822999815066076" lon="13.046553867407065"><ele>5.0</ele><time>2026-05-01T22:43:20.001Z</time></trkpt><trkpt lat="45.82290839255828" lon="13.046158191987182"><ele>6.0</ele><time>2026-05-01T22:43:21.001Z</time></trkpt><trkpt lat="45.82281504555062" lon="13.045764078699236"><ele>7.0</ele><time>2026-05-01T22:43:22.001Z</time></trkpt><trkpt lat="45.822715140062" lon="13.045373720474387"><ele>6.5</ele><time>2026-05-01T22:43:23.001Z</time></trkpt><trkpt lat="45.822610611139936" lon="13.044985824973873"><ele>6.0</ele><time>2026-05-01T22:43:24.001Z</time></trkpt><trkpt lat="45.82249931082826" lon="13.04459718793859"><ele>5.5</ele><time>2026-05-01T22:43:25.001Z</time></trkpt><trkpt lat="45.82239232129803" lon="13.044200301872428"><ele>5.0</ele><time>2026-05-01T22:43:26.001Z</time></trkpt><trkpt lat="45.822281209684654" lon="13.043804838970622"><ele>4.5</ele><time>2026-05-01T22:43:27.001Z</time></trkpt><trkpt lat="45.82216942901951" lon="13.043408516655782"><ele>4.0</ele><time>2026-05-01T22:43:28.001Z</time></trkpt><trkpt lat="45.82205771525999" lon="13.043010239991395"><ele>3.5</ele><time>2026-05-01T22:43:29.001Z</time></trkpt><trkpt lat="45.82194534990764" lon="13.042612793130758"><ele>3.0</ele><time>2026-05-01T22:43:30.001Z</time></trkpt><trkpt lat="45.82183378521563" lon="13.042218814072065"><ele>3.0</ele><time>2026-05-01T22:43:31.001Z</time></trkpt><trkpt lat="45.82172119812622" lon="13.041826299744173"><ele>3.0</ele><time>2026-05-01T22:43:32.001Z</time></trkpt><trkpt lat="45.821615582534335" lon="13.041451823111261"><ele>3.0</ele><time>2026-05-01T22:43:33.001Z</time></trkpt><trkpt lat="45.82150829045892" lon="13.04107494473269"><ele>3.0</ele><time>2026-05-01T22:43:34.001Z</time></trkpt><trkpt lat="45.8213985149666" lon="13.04069026988"><ele>4.0</ele><time>2026-05-01T22:43:35.001Z</time></trkpt><trkpt lat="45.82128531549937" lon="13.040304851342569"><ele>5.0</ele><time>2026-05-01T22:43:36.001Z</time></trkpt><trkpt lat="45.82117074766434" lon="13.039913972785168"><ele>5.0</ele><time>2026-05-01T22:43:37.001Z</time></trkpt><trkpt lat="45.821055685840186" lon="13.039519570726203"><ele>5.0</ele><time>2026-05-01T22:43:38.001Z</time></trkpt><trkpt lat="45.82094079654086" lon="13.03912238498208"><ele>4.5</ele><time>2026-05-01T22:43:39.001Z</time></trkpt><trkpt lat="45.820824121536994" lon="13.038725584849786"><ele>4.0</ele><time>2026-05-01T22:43:40.001Z</time></trkpt><trkpt lat="45.820707992973524" lon="13.038324926436548"><ele>5.0</ele><time>2026-05-01T22:43:41.001Z</time></trkpt><trkpt lat="45.82059258074511" lon="13.037926005448918"><ele>6.0</ele><time>2026-05-01T22:43:42.001Z</time></trkpt><trkpt lat="45.82047785161299" lon="13.037526289899601"><ele>5.5</ele><time>2026-05-01T22:43:43.001Z</time></trkpt><trkpt lat="45.82036417278011" lon="13.037125736479114"><ele>5.0</ele><time>2026-05-01T22:43:44.001Z</time></trkpt><trkpt lat="45.820251635118" lon="13.036728515880142"><ele>6.0</ele><time>2026-05-01T22:43:45.001Z</time></trkpt><trkpt lat="45.82013908624178" lon="13.036330636019137"><ele>7.0</ele><time>2026-05-01T22:43:46.001Z</time></trkpt><trkpt lat="45.820027322141" lon="13.03593163334422"><ele>6.5</ele><time>2026-05-01T22:43:47.001Z</time></trkpt><trkpt lat="45.81991508601727" lon="13.035532289849353"><ele>6.0</ele><time>2026-05-01T22:43:48.001Z</time></trkpt><trkpt lat="45.819804067103156" lon="13.035131484960196"><ele>6.0</ele><time>2026-05-01T22:43:49.001Z</time></trkpt><trkpt lat="45.81969780142847" lon="13.034728270167209"><ele>6.0</ele><time>2026-05-01T22:43:50.001Z</time></trkpt><trkpt lat="45.81959686600834" lon="13.034323438778317"><ele>5.5</ele><time>2026-05-01T22:43:51Z</time></trkpt><trkpt lat="45.819500639728034" lon="13.033915058404533"><ele>5.0</ele><time>2026-05-01T22:43:52Z</time></trkpt><trkpt lat="45.81940925271437" lon="13.03350469487297"><ele>5.0</ele><time>2026-05-01T22:43:53Z</time></trkpt><trkpt lat="45.81932126004126" lon="13.03309253887409"><ele>5.0</ele><time>2026-05-01T22:43:54Z</time></trkpt><trkpt lat="45.81923693103473" lon="13.032680774433045"><ele>4.5</ele><time>2026-05-01T22:43:55Z</time></trkpt><trkpt lat="45.81915709144609" lon="13.03226598091026"><ele>4.0</ele><time>2026-05-01T22:43:56Z</time></trkpt><trkpt lat="45.81908309103344" lon="13.031849474636699"><ele>3.5</ele><time>2026-05-01T22:43:57Z</time></trkpt><trkpt lat="45.819014841011345" lon="13.031433367800622"><ele>3.0</ele><time>2026-05-01T22:43:58Z</time></trkpt><trkpt lat="45.81895150383277" lon="13.031011633692051"><ele>4.5</ele><time>2026-05-01T22:43:59Z</time></trkpt><trkpt lat="45.81889613042922" lon="13.030591896810275"><ele>6.0</ele><time>2026-05-01T22:44:00Z</time></trkpt><trkpt lat="45.81884408515598" lon="13.030172106935867"><ele>5.5</ele><time>2026-05-01T22:44:01Z</time></trkpt><trkpt lat="45.81879517194861" lon="13.029749550864313"><ele>5.0</ele><time>2026-05-01T22:44:02Z</time></trkpt><trkpt lat="45.81874810481183" lon="13.029326821911157"><ele>5.0</ele><time>2026-05-01T22:44:03Z</time></trkpt><trkpt lat="45.81870133295043" lon="13.028906938924251"><ele>5.0</ele><time>2026-05-01T22:44:04Z</time></trkpt><trkpt lat="45.818659365751095" lon="13.028483344401971"><ele>6.0</ele><time>2026-05-01T22:44:05Z</time></trkpt><trkpt lat="45.818619801491714" lon="13.028061373851283"><ele>7.0</ele><time>2026-05-01T22:44:06Z</time></trkpt><trkpt lat="45.81858272469619" lon="13.02764079687051"><ele>6.5</ele><time>2026-05-01T22:44:07Z</time></trkpt><trkpt lat="45.81854677118948" lon="13.027219074440708"><ele>6.0</ele><time>2026-05-01T22:44:08Z</time></trkpt><trkpt lat="45.81851313255789" lon="13.02679425152568"><ele>5.5</ele><time>2026-05-01T22:44:09Z</time></trkpt><trkpt lat="45.81847960131077" lon="13.02636876933967"><ele>5.0</ele><time>2026-05-01T22:44:10Z</time></trkpt><trkpt lat="45.818442718006864" lon="13.025947453760406"><ele>5.0</ele><time>2026-05-01T22:44:11Z</time></trkpt><trkpt lat="45.81840683661114" lon="13.025524662518338"><ele>5.0</ele><time>2026-05-01T22:44:12Z</time></trkpt><trkpt lat="45.81837224230067" lon="13.025098001578673"><ele>5.0</ele><time>2026-05-01T22:44:13Z</time></trkpt><trkpt lat="45.818337926650784" lon="13.024670771384192"><ele>5.0</ele><time>2026-05-01T22:44:14Z</time></trkpt><trkpt lat="45.81830321405758" lon="13.024242589927114"><ele>5.0</ele><time>2026-05-01T22:44:15Z</time></trkpt><trkpt lat="45.818266966530565" lon="13.023810904758669"><ele>5.0</ele><time>2026-05-01T22:44:16Z</time></trkpt><trkpt lat="45.81823074322875" lon="13.02338227153103"><ele>4.0</ele><time>2026-05-01T22:44:17Z</time></trkpt><trkpt lat="45.81819407274407" lon="13.02295519536031"><ele>3.0</ele><time>2026-05-01T22:44:18Z</time></trkpt><trkpt lat="45.81815845902883" lon="13.02252503350648"><ele>3.0</ele><time>2026-05-01T22:44:19Z</time></trkpt><trkpt lat="45.818123627203676" lon="13.022093940727341"><ele>3.0</ele><time>2026-05-01T22:44:20Z</time></trkpt><trkpt lat="45.818089671463646" lon="13.021666402722499"><ele>4.0</ele><time>2026-05-01T22:44:21Z</time></trkpt><trkpt lat="45.81805381924446" lon="13.021239853716857"><ele>5.0</ele><time>2026-05-01T22:44:22Z</time></trkpt><trkpt lat="45.81801698566517" lon="13.020815233868138"><ele>5.0</ele><time>2026-05-01T22:44:23Z</time></trkpt><trkpt lat="45.817981436583636" lon="13.020391436464049"><ele>5.0</ele><time>2026-05-01T22:44:24Z</time></trkpt><trkpt lat="45.81794527190166" lon="13.0199690497943"><ele>5.0</ele><time>2026-05-01T22:44:25Z</time></trkpt><trkpt lat="45.81790912155892" lon="13.01954667631591"><ele>5.0</ele><time>2026-05-01T22:44:26Z</time></trkpt><trkpt lat="45.817871987951634" lon="13.019125045209247"><ele>5.0</ele><time>2026-05-01T22:44:27.001Z</time></trkpt><trkpt lat="45.817831252307236" lon="13.018708756733949"><ele>5.0</ele><time>2026-05-01T22:44:28.001Z</time></trkpt><trkpt lat="45.817784880789965" lon="13.018293342228997"><ele>5.5</ele><time>2026-05-01T22:44:29.001Z</time></trkpt><trkpt lat="45.817739360099374" lon="13.01787634285028"><ele>6.0</ele><time>2026-05-01T22:44:30.001Z</time></trkpt><trkpt lat="45.81769659283805" lon="13.017458263335891"><ele>6.5</ele><time>2026-05-01T22:44:31.001Z</time></trkpt><trkpt lat="45.817654968959346" lon="13.017039430979077"><ele>7.0</ele><time>2026-05-01T22:44:32.001Z</time></trkpt><trkpt lat="45.817615842481544" lon="13.016617997168188"><ele>6.5</ele><time>2026-05-01T22:44:33.001Z</time></trkpt><trkpt lat="45.81758160095459" lon="13.016192857038677"><ele>6.0</ele><time>2026-05-01T22:44:34.001Z</time></trkpt><trkpt lat="45.817546400511226" lon="13.015768390693172"><ele>6.0</ele><time>2026-05-01T22:44:35.001Z</time></trkpt><trkpt lat="45.81751529543824" lon="13.015340146408226"><ele>6.0</ele><time>2026-05-01T22:44:36.001Z</time></trkpt><trkpt lat="45.81748083465601" lon="13.014910674111508"><ele>6.5</ele><time>2026-05-01T22:44:37.001Z</time></trkpt><trkpt lat="45.817445613402846" lon="13.014479432827063"><ele>7.0</ele><time>2026-05-01T22:44:38.001Z</time></trkpt><trkpt lat="45.81740960220095" lon="13.014048226840263"><ele>7.0</ele><time>2026-05-01T22:44:39.001Z</time></trkpt><trkpt lat="45.817374337260645" lon="13.013619067450628"><ele>7.0</ele><time>2026-05-01T22:44:40.001Z</time></trkpt><trkpt lat="45.81733835531439" lon="13.013191152136194"><ele>7.0</ele><time>2026-05-01T22:44:41.001Z</time></trkpt><trkpt lat="45.81730200354004" lon="13.012767265482953"><ele>7.0</ele><time>2026-05-01T22:44:42.001Z</time></trkpt><trkpt lat="45.81726641361489" lon="13.012352969770914"><ele>6.5</ele><time>2026-05-01T22:44:43.001Z</time></trkpt><trkpt lat="45.81723301195165" lon="13.0119392529737"><ele>6.0</ele><time>2026-05-01T22:44:44.001Z</time></trkpt><trkpt lat="45.81719567789104" lon="13.011515620412093"><ele>5.5</ele><time>2026-05-01T22:44:45.001Z</time></trkpt><trkpt lat="45.817161822654164" lon="13.011085732185137"><ele>5.0</ele><time>2026-05-01T22:44:46.001Z</time></trkpt><trkpt lat="45.817126202286865" lon="13.010652709489175"><ele>5.0</ele><time>2026-05-01T22:44:47.001Z</time></trkpt><trkpt lat="45.81708864272414" lon="13.010215622669756"><ele>5.0</ele><time>2026-05-01T22:44:48.001Z</time></trkpt><trkpt lat="45.81705100404179" lon="13.009779012949217"><ele>5.0</ele><time>2026-05-01T22:44:49.001Z</time></trkpt><trkpt lat="45.81701023791433" lon="13.009340469137069"><ele>5.0</ele><time>2026-05-01T22:44:50.001Z</time></trkpt><trkpt lat="45.81697284170111" lon="13.008906217648665"><ele>5.0</ele><time>2026-05-01T22:44:51.001Z</time></trkpt><trkpt lat="45.8169342655463" lon="13.008475518045556"><ele>5.0</ele><time>2026-05-01T22:44:52.001Z</time></trkpt><trkpt lat="45.816892243880844" lon="13.008042583416925"><ele>5.0</ele><time>2026-05-01T22:44:53.001Z</time></trkpt><trkpt lat="45.81684916814227" lon="13.007608708504664"><ele>5.0</ele><time>2026-05-01T22:44:54.001Z</time></trkpt><trkpt lat="45.81680118662896" lon="13.007176355257732"><ele>4.5</ele><time>2026-05-01T22:44:55.001Z</time></trkpt><trkpt lat="45.81674942872563" lon="13.00674355860334"><ele>4.0</ele><time>2026-05-01T22:44:56.001Z</time></trkpt><trkpt lat="45.81669432605213" lon="13.006313204051729"><ele>5.0</ele><time>2026-05-01T22:44:57.001Z</time></trkpt><trkpt lat="45.81663637972884" lon="13.00587983030865"><ele>6.0</ele><time>2026-05-01T22:44:58.001Z</time></trkpt><trkpt lat="45.8165757992196" lon="13.005445066298817"><ele>6.0</ele><time>2026-05-01T22:44:59.001Z</time></trkpt><trkpt lat="45.8165114418719" lon="13.005010812313722"><ele>6.0</ele><time>2026-05-01T22:45:00.001Z</time></trkpt><trkpt lat="45.81644470814412" lon="13.00457916452187"><ele>6.0</ele><time>2026-05-01T22:45:01.001Z</time></trkpt><trkpt lat="45.81637471229675" lon="13.004151680348448"><ele>6.0</ele><time>2026-05-01T22:45:02.001Z</time></trkpt><trkpt lat="45.816302462977106" lon="13.00372659488482"><ele>7.0</ele><time>2026-05-01T22:45:03.001Z</time></trkpt><trkpt lat="45.816230619702985" lon="13.00330485903513"><ele>8.0</ele><time>2026-05-01T22:45:04.001Z</time></trkpt><trkpt lat="45.816155993915956" lon="13.002883945245834"><ele>9.0</ele><time>2026-05-01T22:45:05.001Z</time></trkpt><trkpt lat="45.816085424044026" lon="13.002465018044544"><ele>10.0</ele><time>2026-05-01T22:45:06.001Z</time></trkpt><trkpt lat="45.81601432994249" lon="13.002044256596163"><ele>9.5</ele><time>2026-05-01T22:45:07.001Z</time></trkpt><trkpt lat="45.815948846931356" lon="13.001615859110583"><ele>9.0</ele><time>2026-05-01T22:45:08.001Z</time></trkpt><trkpt lat="45.815886012363805" lon="13.001189595580215"><ele>8.5</ele><time>2026-05-01T22:45:09.001Z</time></trkpt><trkpt lat="45.81582855422553" lon="13.000759588870322"><ele>8.0</ele><time>2026-05-01T22:45:10.001Z</time></trkpt><trkpt lat="45.81577244307851" lon="13.000332450955066"><ele>8.0</ele><time>2026-05-01T22:45:11.001Z</time></trkpt><trkpt lat="45.81571878668651" lon="12.999900443269555"><ele>8.0</ele><time>2026-05-01T22:45:12.001Z</time></trkpt><trkpt lat="45.815664516842205" lon="12.999466847984243"><ele>8.0</ele><time>2026-05-01T22:45:13.001Z</time></trkpt><trkpt lat="45.815608681880235" lon="12.999036310016516"><ele>8.0</ele><time>2026-05-01T22:45:14.001Z</time></trkpt><trkpt lat="45.8155544888141" lon="12.998603682286399"><ele>9.0</ele><time>2026-05-01T22:45:15.001Z</time></trkpt><trkpt lat="45.81549819340062" lon="12.998174695613201"><ele>10.0</ele><time>2026-05-01T22:45:16.001Z</time></trkpt><trkpt lat="45.815440976324375" lon="12.997746538084261"><ele>9.5</ele><time>2026-05-01T22:45:17.001Z</time></trkpt><trkpt lat="45.81538387330701" lon="12.997318070657405"><ele>9.0</ele><time>2026-05-01T22:45:18.001Z</time></trkpt><trkpt lat="45.81532642473377" lon="12.996890884679209"><ele>10.0</ele><time>2026-05-01T22:45:19.001Z</time></trkpt><trkpt lat="45.815267855751316" lon="12.996462668426075"><ele>11.0</ele><time>2026-05-01T22:45:20.001Z</time></trkpt><trkpt lat="45.81520732379535" lon="12.99603613833216"><ele>9.5</ele><time>2026-05-01T22:45:21.001Z</time></trkpt><trkpt lat="45.81514275743165" lon="12.995609765352485"><ele>8.0</ele><time>2026-05-01T22:45:22.001Z</time></trkpt><trkpt lat="45.81507297405562" lon="12.995185816723255"><ele>8.5</ele><time>2026-05-01T22:45:23.001Z</time></trkpt><trkpt lat="45.81500014152258" lon="12.994764668000002"><ele>9.0</ele><time>2026-05-01T22:45:24.001Z</time></trkpt><trkpt lat="45.81492523124593" lon="12.994342279269745"><ele>10.0</ele><time>2026-05-01T22:45:25.001Z</time></trkpt><trkpt lat="45.81485354901046" lon="12.993917271817677"><ele>11.0</ele><time>2026-05-01T22:45:26.001Z</time></trkpt><trkpt lat="45.81477553946794" lon="12.993494565458256"><ele>10.0</ele><time>2026-05-01T22:45:27.001Z</time></trkpt><trkpt lat="45.814701110292845" lon="12.993068850486448"><ele>9.0</ele><time>2026-05-01T22:45:28.001Z</time></trkpt><trkpt lat="45.81462411044764" lon="12.992644055475989"><ele>8.5</ele><time>2026-05-01T22:45:29.001Z</time></trkpt><trkpt lat="45.81454541883044" lon="12.992220209800005"><ele>8.0</ele><time>2026-05-01T22:45:30.001Z</time></trkpt><trkpt lat="45.81446611902727" lon="12.991796068331523"><ele>8.0</ele><time>2026-05-01T22:45:31.001Z</time></trkpt><trkpt lat="45.81438847083216" lon="12.99137129150961"><ele>8.0</ele><time>2026-05-01T22:45:32.001Z</time></trkpt><trkpt lat="45.81431350805739" lon="12.990945777070214"><ele>8.0</ele><time>2026-05-01T22:45:33.001Z</time></trkpt><trkpt lat="45.81424005726064" lon="12.990519839477288"><ele>8.0</ele><time>2026-05-01T22:45:34.001Z</time></trkpt><trkpt lat="45.81416546274094" lon="12.990094804531289"><ele>9.5</ele><time>2026-05-01T22:45:35.001Z</time></trkpt><trkpt lat="45.81409027450192" lon="12.989666587283736"><ele>11.0</ele><time>2026-05-01T22:45:36.001Z</time></trkpt><trkpt lat="45.81401391350175" lon="12.989239626406684"><ele>10.5</ele><time>2026-05-01T22:45:37.001Z</time></trkpt><trkpt lat="45.813936945150616" lon="12.988815116266908"><ele>10.0</ele><time>2026-05-01T22:45:38.001Z</time></trkpt><trkpt lat="45.813859793930284" lon="12.988390860142793"><ele>8.0</ele><time>2026-05-01T22:45:39.001Z</time></trkpt><trkpt lat="45.81378189614433" lon="12.987967695580434"><ele>6.0</ele><time>2026-05-01T22:45:40.001Z</time></trkpt><trkpt lat="45.813705079551156" lon="12.987546819560484"><ele>6.0</ele><time>2026-05-01T22:45:41.001Z</time></trkpt><trkpt lat="45.813627315113095" lon="12.987125908750677"><ele>6.0</ele><time>2026-05-01T22:45:42.001Z</time></trkpt><trkpt lat="45.8135534317078" lon="12.986705398202158"><ele>6.5</ele><time>2026-05-01T22:45:43.001Z</time></trkpt><trkpt lat="45.81347827935464" lon="12.986284986144181"><ele>7.0</ele><time>2026-05-01T22:45:44.001Z</time></trkpt><trkpt lat="45.81340525276619" lon="12.985861179377231"><ele>7.0</ele><time>2026-05-01T22:45:45.001Z</time></trkpt><trkpt lat="45.81333100020986" lon="12.98543630043442"><ele>7.0</ele><time>2026-05-01T22:45:46.001Z</time></trkpt><trkpt lat="45.81325569453871" lon="12.985011863700088"><ele>6.5</ele><time>2026-05-01T22:45:47.001Z</time></trkpt><trkpt lat="45.81317826116471" lon="12.984586399187915"><ele>6.0</ele><time>2026-05-01T22:45:48.001Z</time></trkpt><trkpt lat="45.813099267874165" lon="12.984160445634366"><ele>6.0</ele><time>2026-05-01T22:45:49.001Z</time></trkpt><trkpt lat="45.81301910478446" lon="12.983735546409527"><ele>6.0</ele><time>2026-05-01T22:45:50.001Z</time></trkpt><trkpt lat="45.81293783489341" lon="12.983307904308209"><ele>6.0</ele><time>2026-05-01T22:45:51.001Z</time></trkpt><trkpt lat="45.81286028412216" lon="12.982881470154528"><ele>6.0</ele><time>2026-05-01T22:45:52.001Z</time></trkpt><trkpt lat="45.8127829411496" lon="12.982454158820357"><ele>6.0</ele><time>2026-05-01T22:45:53.001Z</time></trkpt><trkpt lat="45.81270774303166" lon="12.98202545882011"><ele>6.0</ele><time>2026-05-01T22:45:54.001Z</time></trkpt><trkpt lat="45.81263614132295" lon="12.981603810852572"><ele>6.0</ele><time>2026-05-01T22:45:55.001Z</time></trkpt><trkpt lat="45.812563055041714" lon="12.981182903512416"><ele>6.0</ele><time>2026-05-01T22:45:56.001Z</time></trkpt><trkpt lat="45.812490168522935" lon="12.980760366858581"><ele>4.0</ele><time>2026-05-01T22:45:57Z</time></trkpt><trkpt lat="45.81241702567216" lon="12.980339394941373"><ele>2.0</ele><time>2026-05-01T22:45:58Z</time></trkpt><trkpt lat="45.81234223466347" lon="12.979918066229573"><ele>2.0</ele><time>2026-05-01T22:45:59Z</time></trkpt><trkpt lat="45.81226538521361" lon="12.979497477779635"><ele>2.0</ele><time>2026-05-01T22:46:00Z</time></trkpt><trkpt lat="45.81218943994951" lon="12.979074041838581"><ele>6.5</ele><time>2026-05-01T22:46:01Z</time></trkpt><trkpt lat="45.81211287404216" lon="12.978650789958857"><ele>11.0</ele><time>2026-05-01T22:46:02Z</time></trkpt><trkpt lat="45.81203752269994" lon="12.97822913223408"><ele>11.5</ele><time>2026-05-01T22:46:03Z</time></trkpt><trkpt lat="45.81195970442041" lon="12.977806984077146"><ele>12.0</ele><time>2026-05-01T22:46:04Z</time></trkpt><trkpt lat="45.81188020103751" lon="12.977387049729998"><ele>11.0</ele><time>2026-05-01T22:46:05Z</time></trkpt><trkpt lat="45.811803515950736" lon="12.976962858273511"><ele>10.0</ele><time>2026-05-01T22:46:06Z</time></trkpt><trkpt lat="45.81172735287468" lon="12.97654125136702"><ele>9.5</ele><time>2026-05-01T22:46:07Z</time></trkpt><trkpt lat="45.81165050187999" lon="12.976116282722751"><ele>9.0</ele><time>2026-05-01T22:46:08Z</time></trkpt><trkpt lat="45.811578185936355" lon="12.975693697422532"><ele>8.5</ele><time>2026-05-01T22:46:09Z</time></trkpt><trkpt lat="45.811503014053905" lon="12.975271501567486"><ele>8.0</ele><time>2026-05-01T22:46:10Z</time></trkpt><trkpt lat="45.81142682210965" lon="12.974852631289464"><ele>7.5</ele><time>2026-05-01T22:46:11Z</time></trkpt><trkpt lat="45.8113528792665" lon="12.9744298417558"><ele>7.0</ele><time>2026-05-01T22:46:12Z</time></trkpt><trkpt lat="45.81127184817201" lon="12.974009463028832"><ele>7.0</ele><time>2026-05-01T22:46:13Z</time></trkpt><trkpt lat="45.81118620135559" lon="12.97359198822777"><ele>7.0</ele><time>2026-05-01T22:46:14Z</time></trkpt><trkpt lat="45.811099668620784" lon="12.973172433767717"><ele>7.0</ele><time>2026-05-01T22:46:15Z</time></trkpt><trkpt lat="45.811012445487364" lon="12.97275263997646"><ele>7.0</ele><time>2026-05-01T22:46:16Z</time></trkpt><trkpt lat="45.810923970582685" lon="12.972332678908282"><ele>7.0</ele><time>2026-05-01T22:46:17Z</time></trkpt><trkpt lat="45.81083620835747" lon="12.971910910076211"><ele>7.0</ele><time>2026-05-01T22:46:18Z</time></trkpt><trkpt lat="45.81075221982803" lon="12.971489560997425"><ele>7.0</ele><time>2026-05-01T22:46:19Z</time></trkpt><trkpt lat="45.81066663454967" lon="12.971071727081991"><ele>7.0</ele><time>2026-05-01T22:46:20Z</time></trkpt><trkpt lat="45.810584321502226" lon="12.9706732744849"><ele>7.0</ele><time>2026-05-01T22:46:21Z</time></trkpt><trkpt lat="45.81050560052014" lon="12.970261674259193"><ele>7.0</ele><time>2026-05-01T22:46:22Z</time></trkpt><trkpt lat="45.81042128020832" lon="12.969841786410216"><ele>7.0</ele><time>2026-05-01T22:46:23Z</time></trkpt><trkpt lat="45.810341843826436" lon="12.969418138338332"><ele>7.0</ele><time>2026-05-01T22:46:24Z</time></trkpt><trkpt lat="45.81025820478818" lon="12.968990864648637"><ele>7.5</ele><time>2026-05-01T22:46:25Z</time></trkpt><trkpt lat="45.810171964250706" lon="12.96856307595381"><ele>8.0</ele><time>2026-05-01T22:46:26Z</time></trkpt><trkpt lat="45.81008197263016" lon="12.968135070964692"><ele>8.0</ele><time>2026-05-01T22:46:27Z</time></trkpt><trkpt lat="45.80998991976795" lon="12.967706672964855"><ele>8.0</ele><time>2026-05-01T22:46:28Z</time></trkpt><trkpt lat="45.80989515745984" lon="12.967284391387617"><ele>7.5</ele><time>2026-05-01T22:46:29Z</time></trkpt><trkpt lat="45.80981233350439" lon="12.966851276743624"><ele>7.0</ele><time>2026-05-01T22:46:30Z</time></trkpt><trkpt lat="45.80974198309685" lon="12.966419184027819"><ele>7.0</ele><time>2026-05-01T22:46:31Z</time></trkpt><trkpt lat="45.809676637369705" lon="12.9659844251815"><ele>7.0</ele><time>2026-05-01T22:46:32Z</time></trkpt><trkpt lat="45.80961371512908" lon="12.965552582001871"><ele>6.5</ele><time>2026-05-01T22:46:33Z</time></trkpt><trkpt lat="45.80955443982716" lon="12.965130084829033"><ele>6.0</ele><time>2026-05-01T22:46:34Z</time></trkpt><trkpt lat="45.80950088587125" lon="12.964710134950382"><ele>6.0</ele><time>2026-05-01T22:46:35Z</time></trkpt><trkpt lat="45.809456717294616" lon="12.96429155298257"><ele>6.0</ele><time>2026-05-01T22:46:36Z</time></trkpt><trkpt lat="45.80942211411434" lon="12.963870436894728"><ele>6.0</ele><time>2026-05-01T22:46:37Z</time></trkpt><trkpt lat="45.809389184722214" lon="12.963446178436582"><ele>6.0</ele><time>2026-05-01T22:46:38Z</time></trkpt><trkpt lat="45.80935580071525" lon="12.96302243156993"><ele>5.5</ele><time>2026-05-01T22:46:39Z</time></trkpt><trkpt lat="45.80931879962362" lon="12.962598461664312"><ele>5.0</ele><time>2026-05-01T22:46:40.001Z</time></trkpt><trkpt lat="45.809281543595745" lon="12.962172725498474"><ele>5.0</ele><time>2026-05-01T22:46:41.001Z</time></trkpt><trkpt lat="45.80924345390637" lon="12.961743798700834"><ele>5.0</ele><time>2026-05-01T22:46:42.001Z</time></trkpt><trkpt lat="45.8092051036017" lon="12.961309731887214"><ele>5.5</ele><time>2026-05-01T22:46:43.001Z</time></trkpt><trkpt lat="45.809169588902634" lon="12.960874673628574"><ele>6.0</ele><time>2026-05-01T22:46:44.001Z</time></trkpt><trkpt lat="45.80913623675934" lon="12.96043783575021"><ele>5.5</ele><time>2026-05-01T22:46:45.001Z</time></trkpt><trkpt lat="45.80910194330249" lon="12.960004403805767"><ele>5.0</ele><time>2026-05-01T22:46:46.001Z</time></trkpt><trkpt lat="45.8090673308897" lon="12.959570731809054"><ele>4.5</ele><time>2026-05-01T22:46:47.001Z</time></trkpt><trkpt lat="45.809033758522446" lon="12.959135746813665"><ele>4.0</ele><time>2026-05-01T22:46:48.001Z</time></trkpt><trkpt lat="45.8089996587649" lon="12.958704329546267"><ele>4.0</ele><time>2026-05-01T22:46:49.001Z</time></trkpt><trkpt lat="45.80896620897185" lon="12.958277102068413"><ele>4.0</ele><time>2026-05-01T22:46:50.001Z</time></trkpt><trkpt lat="45.8089316949216" lon="12.957852567565453"><ele>4.5</ele><time>2026-05-01T22:46:51.001Z</time></trkpt><trkpt lat="45.808896680164516" lon="12.957428175776172"><ele>5.0</ele><time>2026-05-01T22:46:52.001Z</time></trkpt><trkpt lat="45.80886219231311" lon="12.957003730981109"><ele>5.0</ele><time>2026-05-01T22:46:53.001Z</time></trkpt><trkpt lat="45.80882785333986" lon="12.956577606015625"><ele>5.0</ele><time>2026-05-01T22:46:54.001Z</time></trkpt><trkpt lat="45.80879441684699" lon="12.956155291635122"><ele>4.5</ele><time>2026-05-01T22:46:55.001Z</time></trkpt><trkpt lat="45.808761252602416" lon="12.955731840347527"><ele>4.0</ele><time>2026-05-01T22:46:56.001Z</time></trkpt><trkpt lat="45.80872860585524" lon="12.955310670107817"><ele>3.5</ele><time>2026-05-01T22:46:57.001Z</time></trkpt><trkpt lat="45.808696722297704" lon="12.95488886638765"><ele>3.0</ele><time>2026-05-01T22:46:58.001Z</time></trkpt><trkpt lat="45.80866468282301" lon="12.954467777691365"><ele>2.0</ele><time>2026-05-01T22:46:59.001Z</time></trkpt><trkpt lat="45.80863095756296" lon="12.954050688148877"><ele>1.0</ele><time>2026-05-01T22:47:00.001Z</time></trkpt><trkpt lat="45.80859957153894" lon="12.953630502937907"><ele>1.5</ele><time>2026-05-01T22:47:01.001Z</time></trkpt><trkpt lat="45.80856752676275" lon="12.95321178637835"><ele>2.0</ele><time>2026-05-01T22:47:02.001Z</time></trkpt><trkpt lat="45.80853611761203" lon="12.95279146986847"><ele>2.5</ele><time>2026-05-01T22:47:03.001Z</time></trkpt><trkpt lat="45.808505950294474" lon="12.952374935607267"><ele>3.0</ele><time>2026-05-01T22:47:04.001Z</time></trkpt><trkpt lat="45.80847292119436" lon="12.951956891461018"><ele>3.5</ele><time>2026-05-01T22:47:05.001Z</time></trkpt><trkpt lat="45.80844026020809" lon="12.951541060671401"><ele>4.0</ele><time>2026-05-01T22:47:06.001Z</time></trkpt><trkpt lat="45.80840976623978" lon="12.95112525046783"><ele>4.5</ele><time>2026-05-01T22:47:07.001Z</time></trkpt><trkpt lat="45.80837393415585" lon="12.950711954897672"><ele>5.0</ele><time>2026-05-01T22:47:08.001Z</time></trkpt><trkpt lat="45.8083394973725" lon="12.950299631266805"><ele>4.5</ele><time>2026-05-01T22:47:09.001Z</time></trkpt><trkpt lat="45.80830595691075" lon="12.949886926378282"><ele>4.0</ele><time>2026-05-01T22:47:10.001Z</time></trkpt><trkpt lat="45.80827033966106" lon="12.949474414129588"><ele>3.5</ele><time>2026-05-01T22:47:11.001Z</time></trkpt><trkpt lat="45.80823829985148" lon="12.949062478786514"><ele>3.0</ele><time>2026-05-01T22:47:12.001Z</time></trkpt><trkpt lat="45.808203512744946" lon="12.948647619044705"><ele>3.5</ele><time>2026-05-01T22:47:13.001Z</time></trkpt><trkpt lat="45.808172496454084" lon="12.94823328637837"><ele>4.0</ele><time>2026-05-01T22:47:14.001Z</time></trkpt><trkpt lat="45.808141648329475" lon="12.947818094188886"><ele>4.5</ele><time>2026-05-01T22:47:15.001Z</time></trkpt><trkpt lat="45.80811085650672" lon="12.947400776155504"><ele>5.0</ele><time>2026-05-01T22:47:16.001Z</time></trkpt><trkpt lat="45.80807810644962" lon="12.94698567424947"><ele>4.5</ele><time>2026-05-01T22:47:17.001Z</time></trkpt><trkpt lat="45.808050885655746" lon="12.946562447236243"><ele>4.0</ele><time>2026-05-01T22:47:18.001Z</time></trkpt><trkpt lat="45.808020375359696" lon="12.946139077187153"><ele>4.0</ele><time>2026-05-01T22:47:19.001Z</time></trkpt><trkpt lat="45.807988801104194" lon="12.945710339033587"><ele>4.0</ele><time>2026-05-01T22:47:20.001Z</time></trkpt><trkpt lat="45.80795664381561" lon="12.945278710622876"><ele>3.5</ele><time>2026-05-01T22:47:21.001Z</time></trkpt><trkpt lat="45.80792135981343" lon="12.944850749593146"><ele>3.0</ele><time>2026-05-01T22:47:22.001Z</time></trkpt><trkpt lat="45.80788088489723" lon="12.944425853154438"><ele>3.0</ele><time>2026-05-01T22:47:23.001Z</time></trkpt><trkpt lat="45.807840680557625" lon="12.944019008665787"><ele>3.0</ele><time>2026-05-01T22:47:24.001Z</time></trkpt><trkpt lat="45.80780145526132" lon="12.943605817066992"><ele>3.0</ele><time>2026-05-01T22:47:25.001Z</time></trkpt><trkpt lat="45.80776751903273" lon="12.943183828110453"><ele>3.0</ele><time>2026-05-01T22:47:26.001Z</time></trkpt><trkpt lat="45.80773437687965" lon="12.942751595710218"><ele>3.5</ele><time>2026-05-01T22:47:27.001Z</time></trkpt><trkpt lat="45.807703227042396" lon="12.94231257736735"><ele>4.0</ele><time>2026-05-01T22:47:28.001Z</time></trkpt><trkpt lat="45.80766742484857" lon="12.941871048544282"><ele>3.5</ele><time>2026-05-01T22:47:29.001Z</time></trkpt><trkpt lat="45.807632852372" lon="12.941425114678944"><ele>3.0</ele><time>2026-05-01T22:47:30.001Z</time></trkpt><trkpt lat="45.80759695025229" lon="12.940982969172556"><ele>2.5</ele><time>2026-05-01T22:47:31.001Z</time></trkpt><trkpt lat="45.80756067066781" lon="12.940545270029213"><ele>2.0</ele><time>2026-05-01T22:47:32.001Z</time></trkpt><trkpt lat="45.80752629587423" lon="12.940113175320763"><ele>2.0</ele><time>2026-05-01T22:47:33.001Z</time></trkpt><trkpt lat="45.80749180721906" lon="12.939684761523885"><ele>2.0</ele><time>2026-05-01T22:47:34.001Z</time></trkpt><trkpt lat="45.8074582225452" lon="12.93926035312334"><ele>3.5</ele><time>2026-05-01T22:47:35.001Z</time></trkpt><trkpt lat="45.80742459367002" lon="12.938839648797085"><ele>5.0</ele><time>2026-05-01T22:47:36.001Z</time></trkpt><trkpt lat="45.80739104058789" lon="12.938419486746705"><ele>4.5</ele><time>2026-05-01T22:47:37.001Z</time></trkpt><trkpt lat="45.80735814607566" lon="12.93799879621579"><ele>4.0</ele><time>2026-05-01T22:47:38.001Z</time></trkpt><trkpt lat="45.80732448395868" lon="12.937583410224255"><ele>3.5</ele><time>2026-05-01T22:47:39.001Z</time></trkpt><trkpt lat="45.80729036089894" lon="12.937166295601086"><ele>3.0</ele><time>2026-05-01T22:47:40.001Z</time></trkpt><trkpt lat="45.80725642213475" lon="12.936750846019393"><ele>2.5</ele><time>2026-05-01T22:47:41.001Z</time></trkpt><trkpt lat="45.80722246396814" lon="12.936339618507008"><ele>2.0</ele><time>2026-05-01T22:47:42.001Z</time></trkpt><trkpt lat="45.807187610816214" lon="12.935924960967808"><ele>2.5</ele><time>2026-05-01T22:47:43.001Z</time></trkpt><trkpt lat="45.8071536438075" lon="12.935510200793004"><ele>3.0</ele><time>2026-05-01T22:47:44.001Z</time></trkpt><trkpt lat="45.80712173361765" lon="12.935098462676725"><ele>3.5</ele><time>2026-05-01T22:47:45.001Z</time></trkpt><trkpt lat="45.80709124130763" lon="12.934687389409241"><ele>4.0</ele><time>2026-05-01T22:47:46.001Z</time></trkpt><trkpt lat="45.807062184420246" lon="12.934276381852609"><ele>4.0</ele><time>2026-05-01T22:47:47.001Z</time></trkpt><trkpt lat="45.807031988356705" lon="12.93386429971718"><ele>4.0</ele><time>2026-05-01T22:47:48.001Z</time></trkpt><trkpt lat="45.807001242928955" lon="12.93344810458408"><ele>4.0</ele><time>2026-05-01T22:47:49.001Z</time></trkpt><trkpt lat="45.80697129207848" lon="12.9330328238297"><ele>4.0</ele><time>2026-05-01T22:47:50.001Z</time></trkpt><trkpt lat="45.80694024723155" lon="12.932614630076216"><ele>3.0</ele><time>2026-05-01T22:47:51.001Z</time></trkpt><trkpt lat="45.80690672516409" lon="12.93219554880803"><ele>2.0</ele><time>2026-05-01T22:47:52.001Z</time></trkpt><trkpt lat="45.806869610630784" lon="12.931780409524816"><ele>2.5</ele><time>2026-05-01T22:47:53.001Z</time></trkpt><trkpt lat="45.80683356025053" lon="12.931363723136695"><ele>3.0</ele><time>2026-05-01T22:47:54.001Z</time></trkpt><trkpt lat="45.80679990806073" lon="12.93094474983686"><ele>3.5</ele><time>2026-05-01T22:47:55.001Z</time></trkpt><trkpt lat="45.80676852434141" lon="12.930526753885674"><ele>4.0</ele><time>2026-05-01T22:47:56.001Z</time></trkpt><trkpt lat="45.80673885342014" lon="12.93010812176474"><ele>4.0</ele><time>2026-05-01T22:47:57.001Z</time></trkpt><trkpt lat="45.80670836796272" lon="12.929688483287027"><ele>4.0</ele><time>2026-05-01T22:47:58.001Z</time></trkpt><trkpt lat="45.806679961479034" lon="12.929268158226334"><ele>4.0</ele><time>2026-05-01T22:47:59.001Z</time></trkpt><trkpt lat="45.80664901095761" lon="12.928847565983025"><ele>4.0</ele><time>2026-05-01T22:48:00.001Z</time></trkpt><trkpt lat="45.80661851418152" lon="12.928427416926663"><ele>4.5</ele><time>2026-05-01T22:48:01.001Z</time></trkpt><trkpt lat="45.80658828388014" lon="12.92800298774988"><ele>5.0</ele><time>2026-05-01T22:48:02.001Z</time></trkpt><trkpt lat="45.80655994648468" lon="12.927580128471556"><ele>4.5</ele><time>2026-05-01T22:48:03Z</time></trkpt><trkpt lat="45.806531940229675" lon="12.927155538449018"><ele>4.0</ele><time>2026-05-01T22:48:04Z</time></trkpt><trkpt lat="45.806505056630655" lon="12.92673258162554"><ele>3.5</ele><time>2026-05-01T22:48:05Z</time></trkpt><trkpt lat="45.806478583185445" lon="12.926308307953562"><ele>3.0</ele><time>2026-05-01T22:48:06Z</time></trkpt><trkpt lat="45.80645272206148" lon="12.925884152249331"><ele>3.0</ele><time>2026-05-01T22:48:07Z</time></trkpt><trkpt lat="45.80642566708424" lon="12.925462152573104"><ele>3.0</ele><time>2026-05-01T22:48:08Z</time></trkpt><trkpt lat="45.80639708134577" lon="12.925039735039723"><ele>3.0</ele><time>2026-05-01T22:48:09Z</time></trkpt><trkpt lat="45.806366644755684" lon="12.924618352819547"><ele>3.0</ele><time>2026-05-01T22:48:10Z</time></trkpt><trkpt lat="45.8063341140784" lon="12.924199145936411"><ele>3.5</ele><time>2026-05-01T22:48:11Z</time></trkpt><trkpt lat="45.806301484274435" lon="12.923781083056442"><ele>4.0</ele><time>2026-05-01T22:48:12Z</time></trkpt><trkpt lat="45.80626852184172" lon="12.923362482892733"><ele>4.0</ele><time>2026-05-01T22:48:13Z</time></trkpt><trkpt lat="45.80623507494426" lon="12.922946149201767"><ele>4.0</ele><time>2026-05-01T22:48:14Z</time></trkpt><trkpt lat="45.80620139637232" lon="12.92252681574943"><ele>3.5</ele><time>2026-05-01T22:48:15Z</time></trkpt><trkpt lat="45.806168796434356" lon="12.92211251246943"><ele>3.0</ele><time>2026-05-01T22:48:16Z</time></trkpt><trkpt lat="45.80613352208496" lon="12.92169609699251"><ele>3.0</ele><time>2026-05-01T22:48:17Z</time></trkpt><trkpt lat="45.80609981041005" lon="12.921279016624792"><ele>3.0</ele><time>2026-05-01T22:48:18Z</time></trkpt><trkpt lat="45.80606659858953" lon="12.920860748039077"><ele>2.5</ele><time>2026-05-01T22:48:19Z</time></trkpt><trkpt lat="45.80603465628786" lon="12.920443977334171"><ele>2.0</ele><time>2026-05-01T22:48:20Z</time></trkpt><trkpt lat="45.80600022710091" lon="12.920029140792261"><ele>4.0</ele><time>2026-05-01T22:48:21Z</time></trkpt><trkpt lat="45.80596515562732" lon="12.919616290343027"><ele>6.0</ele><time>2026-05-01T22:48:22Z</time></trkpt><trkpt lat="45.80592804690625" lon="12.919199857030602"><ele>6.0</ele><time>2026-05-01T22:48:23Z</time></trkpt><trkpt lat="45.805889268788796" lon="12.918784685924107"><ele>6.0</ele><time>2026-05-01T22:48:24Z</time></trkpt><trkpt lat="45.8058483820438" lon="12.918373374431782"><ele>5.5</ele><time>2026-05-01T22:48:25Z</time></trkpt><trkpt lat="45.805807346687395" lon="12.917958338343382"><ele>5.0</ele><time>2026-05-01T22:48:26Z</time></trkpt><trkpt lat="45.80576348220479" lon="12.917542552538606"><ele>5.0</ele><time>2026-05-01T22:48:27Z</time></trkpt><trkpt lat="45.80571829566503" lon="12.917125785836816"><ele>5.0</ele><time>2026-05-01T22:48:28Z</time></trkpt><trkpt lat="45.805674316829524" lon="12.916709011219277"><ele>5.5</ele><time>2026-05-01T22:48:29Z</time></trkpt><trkpt lat="45.805627812524634" lon="12.916289022346641"><ele>6.0</ele><time>2026-05-01T22:48:30Z</time></trkpt><trkpt lat="45.805581156011726" lon="12.915868452328775"><ele>6.0</ele><time>2026-05-01T22:48:31Z</time></trkpt><trkpt lat="45.80553551702992" lon="12.915443584466976"><ele>6.0</ele><time>2026-05-01T22:48:32Z</time></trkpt><trkpt lat="45.8054947796854" lon="12.915019880561497"><ele>6.0</ele><time>2026-05-01T22:48:33Z</time></trkpt><trkpt lat="45.80545387013144" lon="12.914591649725716"><ele>6.0</ele><time>2026-05-01T22:48:34Z</time></trkpt><trkpt lat="45.80541914582541" lon="12.914163415210348"><ele>5.5</ele><time>2026-05-01T22:48:35Z</time></trkpt><trkpt lat="45.80538611495917" lon="12.913731895732568"><ele>5.0</ele><time>2026-05-01T22:48:36Z</time></trkpt><trkpt lat="45.805349517164245" lon="12.913303301784053"><ele>5.0</ele><time>2026-05-01T22:48:37Z</time></trkpt><trkpt lat="45.80530726480486" lon="12.912876690392373"><ele>5.0</ele><time>2026-05-01T22:48:38Z</time></trkpt><trkpt lat="45.805267363779734" lon="12.912450172243032"><ele>5.0</ele><time>2026-05-01T22:48:39Z</time></trkpt><trkpt lat="45.80523164146712" lon="12.91202120930959"><ele>5.0</ele><time>2026-05-01T22:48:40Z</time></trkpt><trkpt lat="45.80520046369563" lon="12.911590434632814"><ele>5.0</ele><time>2026-05-01T22:48:41Z</time></trkpt><trkpt lat="45.80517330259138" lon="12.91116004798309"><ele>5.0</ele><time>2026-05-01T22:48:42Z</time></trkpt><trkpt lat="45.80515189001636" lon="12.910730739248566"><ele>5.0</ele><time>2026-05-01T22:48:43Z</time></trkpt><trkpt lat="45.805131489986216" lon="12.910300144681479"><ele>5.0</ele><time>2026-05-01T22:48:44.001Z</time></trkpt><trkpt lat="45.805112255296734" lon="12.909870111169596"><ele>5.0</ele><time>2026-05-01T22:48:45.001Z</time></trkpt><trkpt lat="45.80509170574351" lon="12.909442892515749"><ele>5.0</ele><time>2026-05-01T22:48:46.001Z</time></trkpt><trkpt lat="45.80506814305343" lon="12.909020554969805"><ele>5.0</ele><time>2026-05-01T22:48:47.001Z</time></trkpt><trkpt lat="45.80505235964254" lon="12.90859200007208"><ele>5.0</ele><time>2026-05-01T22:48:48.001Z</time></trkpt><trkpt lat="45.80503696470179" lon="12.90816446305421"><ele>5.0</ele><time>2026-05-01T22:48:49.001Z</time></trkpt><trkpt lat="45.805023185531624" lon="12.90773820602081"><ele>5.0</ele><time>2026-05-01T22:48:50.001Z</time></trkpt><trkpt lat="45.80501095829132" lon="12.90731329340065"><ele>5.5</ele><time>2026-05-01T22:48:51.001Z</time></trkpt><trkpt lat="45.80500583339658" lon="12.906889195484132"><ele>6.0</ele><time>2026-05-01T22:48:52.001Z</time></trkpt><trkpt lat="45.80499713374483" lon="12.906464714953925"><ele>5.0</ele><time>2026-05-01T22:48:53.001Z</time></trkpt><trkpt lat="45.804992560292376" lon="12.906040509406886"><ele>4.0</ele><time>2026-05-01T22:48:54.001Z</time></trkpt><trkpt lat="45.8049881625313" lon="12.905615018534037"><ele>4.0</ele><time>2026-05-01T22:48:55.001Z</time></trkpt><trkpt lat="45.804982036596904" lon="12.90518914680064"><ele>4.0</ele><time>2026-05-01T22:48:56.001Z</time></trkpt><trkpt lat="45.80498251149405" lon="12.904763796733357"><ele>4.5</ele><time>2026-05-01T22:48:57.001Z</time></trkpt><trkpt lat="45.80498340721069" lon="12.904338258786387"><ele>5.0</ele><time>2026-05-01T22:48:58.001Z</time></trkpt><trkpt lat="45.80498633515779" lon="12.90391065967424"><ele>5.0</ele><time>2026-05-01T22:48:59.001Z</time></trkpt><trkpt lat="45.804991358698395" lon="12.903486201760483"><ele>5.0</ele><time>2026-05-01T22:49:00.001Z</time></trkpt><trkpt lat="45.80499622890668" lon="12.9030624130122"><ele>4.5</ele><time>2026-05-01T22:49:01.001Z</time></trkpt><trkpt lat="45.80500399783856" lon="12.902635006225868"><ele>4.0</ele><time>2026-05-01T22:49:02.001Z</time></trkpt><trkpt lat="45.80501308037408" lon="12.902206210631205"><ele>4.0</ele><time>2026-05-01T22:49:03.001Z</time></trkpt><trkpt lat="45.80501994134591" lon="12.901776997775539"><ele>4.0</ele><time>2026-05-01T22:49:04.001Z</time></trkpt><trkpt lat="45.80502713350876" lon="12.901351041392415"><ele>4.5</ele><time>2026-05-01T22:49:05.001Z</time></trkpt><trkpt lat="45.80503798032515" lon="12.900933371074007"><ele>5.0</ele><time>2026-05-01T22:49:06.001Z</time></trkpt><trkpt lat="45.805053777196186" lon="12.900539108513216"><ele>5.0</ele><time>2026-05-01T22:49:07.001Z</time></trkpt><trkpt lat="45.80507116128885" lon="12.900133890525183"><ele>5.0</ele><time>2026-05-01T22:49:08.001Z</time></trkpt><trkpt lat="45.80509189535457" lon="12.899721953117607"><ele>5.5</ele><time>2026-05-01T22:49:09.001Z</time></trkpt><trkpt lat="45.80511412539123" lon="12.899300333088902"><ele>6.0</ele><time>2026-05-01T22:49:10.001Z</time></trkpt><trkpt lat="45.805135251741554" lon="12.898878780675776"><ele>6.0</ele><time>2026-05-01T22:49:11.001Z</time></trkpt><trkpt lat="45.805155670966435" lon="12.898454384912132"><ele>6.0</ele><time>2026-05-01T22:49:12.001Z</time></trkpt><trkpt lat="45.80517529903929" lon="12.898028078035598"><ele>5.0</ele><time>2026-05-01T22:49:13.001Z</time></trkpt><trkpt lat="45.80519173568706" lon="12.897598573202059"><ele>4.0</ele><time>2026-05-01T22:49:14.001Z</time></trkpt><trkpt lat="45.8052039636961" lon="12.897169557086704"><ele>4.0</ele><time>2026-05-01T22:49:15.001Z</time></trkpt><trkpt lat="45.805215016241185" lon="12.896740225421452"><ele>4.0</ele><time>2026-05-01T22:49:16.001Z</time></trkpt><trkpt lat="45.805224842199486" lon="12.89631074872934"><ele>4.5</ele><time>2026-05-01T22:49:17.001Z</time></trkpt><trkpt lat="45.80523224994122" lon="12.895881671331434"><ele>5.0</ele><time>2026-05-01T22:49:18.001Z</time></trkpt><trkpt lat="45.80523859848997" lon="12.895451983420832"><ele>5.0</ele><time>2026-05-01T22:49:19.001Z</time></trkpt><trkpt lat="45.80524353568663" lon="12.895027215732068"><ele>5.0</ele><time>2026-05-01T22:49:20.001Z</time></trkpt><trkpt lat="45.80524516771066" lon="12.894604760860918"><ele>5.0</ele><time>2026-05-01T22:49:21.001Z</time></trkpt><trkpt lat="45.80524492366007" lon="12.894180405461048"><ele>5.0</ele><time>2026-05-01T22:49:22.001Z</time></trkpt><trkpt lat="45.80524296821755" lon="12.893756639562511"><ele>5.0</ele><time>2026-05-01T22:49:23.001Z</time></trkpt><trkpt lat="45.805239964746136" lon="12.893333321589363"><ele>5.0</ele><time>2026-05-01T22:49:24.001Z</time></trkpt><trkpt lat="45.80523578623417" lon="12.892909037379999"><ele>6.0</ele><time>2026-05-01T22:49:25.001Z</time></trkpt><trkpt lat="45.805229080376876" lon="12.892482759563608"><ele>7.0</ele><time>2026-05-01T22:49:26.001Z</time></trkpt><trkpt lat="45.80522108384844" lon="12.89205507493419"><ele>8.0</ele><time>2026-05-01T22:49:27.001Z</time></trkpt><trkpt lat="45.80521041866806" lon="12.89163083881379"><ele>9.0</ele><time>2026-05-01T22:49:28.001Z</time></trkpt><trkpt lat="45.805197803646486" lon="12.891209459585426"><ele>8.0</ele><time>2026-05-01T22:49:29.001Z</time></trkpt><trkpt lat="45.805181816479454" lon="12.890789454424835"><ele>7.0</ele><time>2026-05-01T22:49:30.001Z</time></trkpt><trkpt lat="45.80516520582668" lon="12.89037197638358"><ele>5.5</ele><time>2026-05-01T22:49:31.001Z</time></trkpt><trkpt lat="45.80514670457811" lon="12.889953540285413"><ele>4.0</ele><time>2026-05-01T22:49:32.001Z</time></trkpt><trkpt lat="45.8051270357514" lon="12.889537859447227"><ele>5.5</ele><time>2026-05-01T22:49:33.001Z</time></trkpt><trkpt lat="45.80510430827313" lon="12.8891234569927"><ele>7.0</ele><time>2026-05-01T22:49:34.001Z</time></trkpt><trkpt lat="45.80508105292071" lon="12.888704203808997"><ele>6.5</ele><time>2026-05-01T22:49:35.001Z</time></trkpt><trkpt lat="45.805054429949486" lon="12.888283321964398"><ele>6.0</ele><time>2026-05-01T22:49:36.001Z</time></trkpt><trkpt lat="45.80502473120319" lon="12.887860976396924"><ele>6.5</ele><time>2026-05-01T22:49:37.001Z</time></trkpt><trkpt lat="45.804992090797526" lon="12.887438145696324"><ele>7.0</ele><time>2026-05-01T22:49:38.001Z</time></trkpt><trkpt lat="45.80495663901415" lon="12.887014970464037"><ele>7.5</ele><time>2026-05-01T22:49:39.001Z</time></trkpt><trkpt lat="45.80492252839864" lon="12.88659563786568"><ele>8.0</ele><time>2026-05-01T22:49:40.001Z</time></trkpt><trkpt lat="45.80488283114465" lon="12.886169397173038"><ele>7.0</ele><time>2026-05-01T22:49:41.001Z</time></trkpt><trkpt lat="45.804842017220444" lon="12.885744488923526"><ele>6.0</ele><time>2026-05-01T22:49:42.001Z</time></trkpt><trkpt lat="45.804799490410694" lon="12.885316691314019"><ele>6.0</ele><time>2026-05-01T22:49:43.001Z</time></trkpt><trkpt lat="45.804756794883055" lon="12.884892345428062"><ele>6.0</ele><time>2026-05-01T22:49:44.001Z</time></trkpt><trkpt lat="45.804713595578065" lon="12.884465757759582"><ele>7.5</ele><time>2026-05-01T22:49:45.001Z</time></trkpt><trkpt lat="45.804671671510334" lon="12.884040688371512"><ele>9.0</ele><time>2026-05-01T22:49:46.001Z</time></trkpt><trkpt lat="45.80462833269382" lon="12.883618344845154"><ele>9.0</ele><time>2026-05-01T22:49:47.001Z</time></trkpt><trkpt lat="45.80458000674381" lon="12.883196921588107"><ele>9.0</ele><time>2026-05-01T22:49:48.001Z</time></trkpt><trkpt lat="45.80452908172106" lon="12.882774858284291"><ele>9.0</ele><time>2026-05-01T22:49:49.001Z</time></trkpt><trkpt lat="45.80447395997725" lon="12.882354599767222"><ele>9.0</ele><time>2026-05-01T22:49:50.001Z</time></trkpt><trkpt lat="45.80441798787866" lon="12.881929812780124"><ele>8.5</ele><time>2026-05-01T22:49:51.001Z</time></trkpt><trkpt lat="45.80435818456313" lon="12.88150589685106"><ele>8.0</ele><time>2026-05-01T22:49:52.001Z</time></trkpt><trkpt lat="45.80429561706763" lon="12.881082224800766"><ele>7.0</ele><time>2026-05-01T22:49:53.001Z</time></trkpt><trkpt lat="45.804231459645365" lon="12.880659414297753"><ele>6.0</ele><time>2026-05-01T22:49:54.001Z</time></trkpt><trkpt lat="45.804163392663554" lon="12.880235853358238"><ele>6.0</ele><time>2026-05-01T22:49:55.001Z</time></trkpt><trkpt lat="45.80409674332788" lon="12.879809357059813"><ele>6.0</ele><time>2026-05-01T22:49:56.001Z</time></trkpt><trkpt lat="45.8040277035056" lon="12.879384300170091"><ele>5.5</ele><time>2026-05-01T22:49:57.001Z</time></trkpt><trkpt lat="45.80395930277992" lon="12.878960252169803"><ele>5.0</ele><time>2026-05-01T22:49:58.001Z</time></trkpt><trkpt lat="45.80388854079657" lon="12.878536928576558"><ele>5.5</ele><time>2026-05-01T22:49:59.001Z</time></trkpt><trkpt lat="45.8038148297822" lon="12.878113937274724"><ele>6.0</ele><time>2026-05-01T22:50:00.001Z</time></trkpt><trkpt lat="45.80373997684355" lon="12.87769657030382"><ele>6.5</ele><time>2026-05-01T22:50:01.001Z</time></trkpt><trkpt lat="45.80366432396089" lon="12.87728107979097"><ele>7.0</ele><time>2026-05-01T22:50:02.001Z</time></trkpt><trkpt lat="45.80358572085141" lon="12.876865075126823"><ele>6.5</ele><time>2026-05-01T22:50:03.001Z</time></trkpt><trkpt lat="45.80350900123557" lon="12.876449750472954"><ele>6.0</ele><time>2026-05-01T22:50:04.001Z</time></trkpt><trkpt lat="45.80343200461519" lon="12.87603355190235"><ele>5.5</ele><time>2026-05-01T22:50:05.001Z</time></trkpt><trkpt lat="45.803352025381294" lon="12.875615190897538"><ele>5.0</ele><time>2026-05-01T22:50:06.001Z</time></trkpt><trkpt lat="45.80327807368093" lon="12.875197752269282"><ele>5.0</ele><time>2026-05-01T22:50:07.001Z</time></trkpt><trkpt lat="45.80319952055393" lon="12.87478057964172"><ele>5.0</ele><time>2026-05-01T22:50:08.001Z</time></trkpt><trkpt lat="45.80311868831233" lon="12.874364688264208"><ele>6.0</ele><time>2026-05-01T22:50:09Z</time></trkpt><trkpt lat="45.80303451245929" lon="12.873950078352845"><ele>7.0</ele><time>2026-05-01T22:50:10Z</time></trkpt><trkpt lat="45.80295340913224" lon="12.873533052790386"><ele>7.5</ele><time>2026-05-01T22:50:11Z</time></trkpt><trkpt lat="45.80286885184793" lon="12.873114045920547"><ele>8.0</ele><time>2026-05-01T22:50:12Z</time></trkpt><trkpt lat="45.802786249335966" lon="12.872694631214632"><ele>7.5</ele><time>2026-05-01T22:50:13Z</time></trkpt><trkpt lat="45.80270888888406" lon="12.872276710390747"><ele>7.0</ele><time>2026-05-01T22:50:14Z</time></trkpt><trkpt lat="45.80263193000916" lon="12.871859431965062"><ele>7.0</ele><time>2026-05-01T22:50:15Z</time></trkpt><trkpt lat="45.80255332464153" lon="12.871442452753202"><ele>7.0</ele><time>2026-05-01T22:50:16Z</time></trkpt><trkpt lat="45.80247720559716" lon="12.871022498201109"><ele>6.5</ele><time>2026-05-01T22:50:17Z</time></trkpt><trkpt lat="45.8024020608739" lon="12.870605673601272"><ele>6.0</ele><time>2026-05-01T22:50:18Z</time></trkpt><trkpt lat="45.802323404756685" lon="12.87019008251445"><ele>6.5</ele><time>2026-05-01T22:50:19Z</time></trkpt><trkpt lat="45.8022465060745" lon="12.86977526928897"><ele>7.0</ele><time>2026-05-01T22:50:20Z</time></trkpt><trkpt lat="45.80217091346394" lon="12.869361574863767"><ele>7.5</ele><time>2026-05-01T22:50:21Z</time></trkpt><trkpt lat="45.8021028873819" lon="12.868946354928896"><ele>8.0</ele><time>2026-05-01T22:50:22Z</time></trkpt><trkpt lat="45.80203765256266" lon="12.868530782514421"><ele>8.0</ele><time>2026-05-01T22:50:23Z</time></trkpt><trkpt lat="45.80197118688735" lon="12.868116403515566"><ele>8.0</ele><time>2026-05-01T22:50:24Z</time></trkpt><trkpt lat="45.80190128157245" lon="12.86770482388414"><ele>7.0</ele><time>2026-05-01T22:50:25Z</time></trkpt><trkpt lat="45.80182827414458" lon="12.86729380746529"><ele>6.0</ele><time>2026-05-01T22:50:26Z</time></trkpt><trkpt lat="45.801754290098195" lon="12.866884014915884"><ele>5.5</ele><time>2026-05-01T22:50:27Z</time></trkpt><trkpt lat="45.80167851339736" lon="12.866477857736315"><ele>5.0</ele><time>2026-05-01T22:50:28Z</time></trkpt><trkpt lat="45.80160400343819" lon="12.866071248473421"><ele>5.0</ele><time>2026-05-01T22:50:29Z</time></trkpt><trkpt lat="45.80152935595101" lon="12.865665315351482"><ele>5.0</ele><time>2026-05-01T22:50:30Z</time></trkpt><trkpt lat="45.80145429054896" lon="12.86526089036443"><ele>6.0</ele><time>2026-05-01T22:50:31Z</time></trkpt><trkpt lat="45.80137831426051" lon="12.864858314493025"><ele>7.0</ele><time>2026-05-01T22:50:32Z</time></trkpt><trkpt lat="45.8013006723417" lon="12.864459382702995"><ele>6.5</ele><time>2026-05-01T22:50:33Z</time></trkpt><trkpt lat="45.801224425764524" lon="12.864057486182597"><ele>6.0</ele><time>2026-05-01T22:50:34Z</time></trkpt><trkpt lat="45.801149398950955" lon="12.863657160063008"><ele>6.5</ele><time>2026-05-01T22:50:35Z</time></trkpt><trkpt lat="45.80107512880286" lon="12.86325387754076"><ele>7.0</ele><time>2026-05-01T22:50:36Z</time></trkpt><trkpt lat="45.801001654035346" lon="12.862849484753637"><ele>5.5</ele><time>2026-05-01T22:50:37Z</time></trkpt><trkpt lat="45.800928760296905" lon="12.862444950347774"><ele>4.0</ele><time>2026-05-01T22:50:38Z</time></trkpt><trkpt lat="45.80085371054404" lon="12.862043684411667"><ele>4.5</ele><time>2026-05-01T22:50:39Z</time></trkpt><trkpt lat="45.800774984075666" lon="12.861643547714028"><ele>5.0</ele><time>2026-05-01T22:50:40Z</time></trkpt><trkpt lat="45.80069845240386" lon="12.861240927304463"><ele>5.0</ele><time>2026-05-01T22:50:41Z</time></trkpt><trkpt lat="45.800624051619074" lon="12.860835024380174"><ele>5.0</ele><time>2026-05-01T22:50:42Z</time></trkpt><trkpt lat="45.800551560191956" lon="12.860425926386114"><ele>5.0</ele><time>2026-05-01T22:50:43Z</time></trkpt><trkpt lat="45.80047949324938" lon="12.86001720681864"><ele>5.0</ele><time>2026-05-01T22:50:44Z</time></trkpt><trkpt lat="45.80040617806808" lon="12.859606858759319"><ele>5.5</ele><time>2026-05-01T22:50:45Z</time></trkpt><trkpt lat="45.80033235862595" lon="12.859194996902556"><ele>6.0</ele><time>2026-05-01T22:50:46Z</time></trkpt><trkpt lat="45.800257047976075" lon="12.858783229142785"><ele>6.0</ele><time>2026-05-01T22:50:47Z</time></trkpt><trkpt lat="45.80018253402432" lon="12.858366772619199"><ele>6.0</ele><time>2026-05-01T22:50:48Z</time></trkpt><trkpt lat="45.800104693762215" lon="12.857955590301595"><ele>5.5</ele><time>2026-05-01T22:50:49Z</time></trkpt><trkpt lat="45.8000254926027" lon="12.857543776937474"><ele>5.0</ele><time>2026-05-01T22:50:50Z</time></trkpt><trkpt lat="45.79994807765893" lon="12.857135384701698"><ele>5.0</ele><time>2026-05-01T22:50:51Z</time></trkpt><trkpt lat="45.799873932106735" lon="12.856733429123219"><ele>5.0</ele><time>2026-05-01T22:50:52Z</time></trkpt><trkpt lat="45.799804548219925" lon="12.85634547757166"><ele>5.0</ele><time>2026-05-01T22:50:53Z</time></trkpt><trkpt lat="45.79973203357324" lon="12.855945420145277"><ele>5.0</ele><time>2026-05-01T22:50:54Z</time></trkpt><trkpt lat="45.7996575597232" lon="12.855541189473797"><ele>5.0</ele><time>2026-05-01T22:50:55Z</time></trkpt><trkpt lat="45.79958086974854" lon="12.855134010836203"><ele>5.0</ele><time>2026-05-01T22:50:56Z</time></trkpt><trkpt lat="45.79950449715004" lon="12.854724880345605"><ele>5.0</ele><time>2026-05-01T22:50:57Z</time></trkpt><trkpt lat="45.799429293739124" lon="12.854316995203813"><ele>5.0</ele><time>2026-05-01T22:50:58Z</time></trkpt><trkpt lat="45.799354584967304" lon="12.853908394968345"><ele>5.5</ele><time>2026-05-01T22:50:59Z</time></trkpt><trkpt lat="45.79928171169893" lon="12.853500872617623"><ele>6.0</ele><time>2026-05-01T22:51:00.001Z</time></trkpt><trkpt lat="45.799210116622106" lon="12.853094375900543"><ele>6.5</ele><time>2026-05-01T22:51:01.001Z</time></trkpt><trkpt lat="45.799135506389476" lon="12.852685108801198"><ele>7.0</ele><time>2026-05-01T22:51:02.001Z</time></trkpt><trkpt lat="45.79905951754218" lon="12.852278504664428"><ele>7.5</ele><time>2026-05-01T22:51:03.001Z</time></trkpt><trkpt lat="45.798984805914856" lon="12.851870330967314"><ele>8.0</ele><time>2026-05-01T22:51:04.001Z</time></trkpt><trkpt lat="45.79891050937283" lon="12.851462213880342"><ele>7.0</ele><time>2026-05-01T22:51:05.001Z</time></trkpt><trkpt lat="45.79883617479646" lon="12.85105567353447"><ele>6.0</ele><time>2026-05-01T22:51:06.001Z</time></trkpt><trkpt lat="45.7987634690165" lon="12.850654381616888"><ele>6.0</ele><time>2026-05-01T22:51:07.001Z</time></trkpt><trkpt lat="45.79868898517056" lon="12.850250838364198"><ele>6.0</ele><time>2026-05-01T22:51:08.001Z</time></trkpt><trkpt lat="45.7986129603975" lon="12.849848529532364"><ele>6.0</ele><time>2026-05-01T22:51:09.001Z</time></trkpt><trkpt lat="45.7985387418499" lon="12.849443099396906"><ele>6.0</ele><time>2026-05-01T22:51:10.001Z</time></trkpt><trkpt lat="45.79846281288426" lon="12.84903766000439"><ele>6.0</ele><time>2026-05-01T22:51:11.001Z</time></trkpt><trkpt lat="45.79838687538417" lon="12.848631526238059"><ele>6.0</ele><time>2026-05-01T22:51:12.001Z</time></trkpt><trkpt lat="45.79831282386122" lon="12.848230460955307"><ele>6.0</ele><time>2026-05-01T22:51:13.001Z</time></trkpt><trkpt lat="45.79823742946137" lon="12.847829512703179"><ele>6.0</ele><time>2026-05-01T22:51:14.001Z</time></trkpt><trkpt lat="45.79816368725616" lon="12.847426998628105"><ele>5.5</ele><time>2026-05-01T22:51:15.001Z</time></trkpt><trkpt lat="45.79809075887738" lon="12.847026266458572"><ele>5.0</ele><time>2026-05-01T22:51:16.001Z</time></trkpt><trkpt lat="45.79801892701024" lon="12.846629984872786"><ele>4.5</ele><time>2026-05-01T22:51:17.001Z</time></trkpt><trkpt lat="45.79794770292435" lon="12.846234444657886"><ele>4.0</ele><time>2026-05-01T22:51:18.001Z</time></trkpt><trkpt lat="45.79787617828843" lon="12.845841031950298"><ele>3.5</ele><time>2026-05-01T22:51:19.001Z</time></trkpt><trkpt lat="45.797804533844676" lon="12.845446043377942"><ele>3.0</ele><time>2026-05-01T22:51:20.001Z</time></trkpt><trkpt lat="45.79773410304931" lon="12.845052356607262"><ele>3.0</ele><time>2026-05-01T22:51:21.001Z</time></trkpt><trkpt lat="45.79766048624665" lon="12.844656903534798"><ele>3.0</ele><time>2026-05-01T22:51:22.001Z</time></trkpt><trkpt lat="45.79758521615755" lon="12.844260318130553"><ele>3.5</ele><time>2026-05-01T22:51:23.001Z</time></trkpt><trkpt lat="45.79750852795005" lon="12.8438657480394"><ele>4.0</ele><time>2026-05-01T22:51:24.001Z</time></trkpt><trkpt lat="45.7974314908883" lon="12.843469720464888"><ele>4.0</ele><time>2026-05-01T22:51:25.001Z</time></trkpt><trkpt lat="45.79735334861732" lon="12.843075728667218"><ele>4.0</ele><time>2026-05-01T22:51:26.001Z</time></trkpt><trkpt lat="45.79727535110604" lon="12.842683325805496"><ele>3.0</ele><time>2026-05-01T22:51:27.001Z</time></trkpt><trkpt lat="45.79719551722529" lon="12.842293776577884"><ele>2.0</ele><time>2026-05-01T22:51:28.001Z</time></trkpt><trkpt lat="45.797118161886196" lon="12.841905114816042"><ele>3.0</ele><time>2026-05-01T22:51:29.001Z</time></trkpt><trkpt lat="45.797035354100046" lon="12.841517007669797"><ele>4.0</ele><time>2026-05-01T22:51:30.001Z</time></trkpt><trkpt lat="45.79694983527044" lon="12.841127255637145"><ele>4.0</ele><time>2026-05-01T22:51:31.001Z</time></trkpt><trkpt lat="45.79686414721156" lon="12.840738864910898"><ele>4.0</ele><time>2026-05-01T22:51:32.001Z</time></trkpt><trkpt lat="45.7967740935343" lon="12.840350250367296"><ele>4.0</ele><time>2026-05-01T22:51:33.001Z</time></trkpt><trkpt lat="45.796683212711514" lon="12.839960737568486"><ele>4.0</ele><time>2026-05-01T22:51:34.001Z</time></trkpt><trkpt lat="45.79659074890444" lon="12.83957147619726"><ele>3.5</ele><time>2026-05-01T22:51:35.001Z</time></trkpt><trkpt lat="45.79649669608602" lon="12.83918192235135"><ele>3.0</ele><time>2026-05-01T22:51:36.001Z</time></trkpt><trkpt lat="45.79640119094431" lon="12.838795053052323"><ele>2.5</ele><time>2026-05-01T22:51:37.001Z</time></trkpt><trkpt lat="45.796301137141704" lon="12.83841225453816"><ele>2.0</ele><time>2026-05-01T22:51:38.001Z</time></trkpt><trkpt lat="45.79619749589945" lon="12.838031492869852"><ele>2.0</ele><time>2026-05-01T22:51:39.001Z</time></trkpt><trkpt lat="45.796090922364655" lon="12.837650435305665"><ele>2.0</ele><time>2026-05-01T22:51:40.001Z</time></trkpt><trkpt lat="45.79598340131677" lon="12.83727439003111"><ele>2.0</ele><time>2026-05-01T22:51:41.001Z</time></trkpt><trkpt lat="45.79587588583069" lon="12.836893909140434"><ele>2.0</ele><time>2026-05-01T22:51:42.001Z</time></trkpt><trkpt lat="45.795768064890424" lon="12.836514263876587"><ele>2.0</ele><time>2026-05-01T22:51:43.001Z</time></trkpt><trkpt lat="45.79566032869732" lon="12.83613528861444"><ele>2.0</ele><time>2026-05-01T22:51:44.001Z</time></trkpt><trkpt lat="45.79555252992324" lon="12.835754803818862"><ele>1.5</ele><time>2026-05-01T22:51:45.001Z</time></trkpt><trkpt lat="45.795442196396195" lon="12.835374185096766"><ele>1.0</ele><time>2026-05-01T22:51:46.001Z</time></trkpt><trkpt lat="45.79533131594289" lon="12.83499308800645"><ele>0.5</ele><time>2026-05-01T22:51:47.001Z</time></trkpt><trkpt lat="45.79521611606679" lon="12.834617041522186"><ele>0.0</ele><time>2026-05-01T22:51:48.001Z</time></trkpt><trkpt lat="45.7950969897829" lon="12.834245183813714"><ele>0.0</ele><time>2026-05-01T22:51:49.001Z</time></trkpt><trkpt lat="45.79497772889993" lon="12.833869381013338"><ele>0.0</ele><time>2026-05-01T22:51:50.001Z</time></trkpt><trkpt lat="45.79485777241807" lon="12.833493387358915"><ele>1.0</ele><time>2026-05-01T22:51:51.001Z</time></trkpt><trkpt lat="45.794736221620724" lon="12.833117931485981"><ele>2.0</ele><time>2026-05-01T22:51:52.001Z</time></trkpt><trkpt lat="45.79461736244341" lon="12.832741272193056"><ele>3.5</ele><time>2026-05-01T22:51:53.001Z</time></trkpt><trkpt lat="45.79450047220343" lon="12.832364080054386"><ele>5.0</ele><time>2026-05-01T22:51:54.001Z</time></trkpt><trkpt lat="45.79438522064042" lon="12.8319872291577"><ele>4.5</ele><time>2026-05-01T22:51:55.001Z</time></trkpt><trkpt lat="45.79426640740754" lon="12.831613000104984"><ele>4.0</ele><time>2026-05-01T22:51:56.001Z</time></trkpt><trkpt lat="45.794147326012045" lon="12.831239700839044"><ele>4.0</ele><time>2026-05-01T22:51:57.001Z</time></trkpt><trkpt lat="45.7940277390276" lon="12.830868458051455"><ele>4.0</ele><time>2026-05-01T22:51:58.001Z</time></trkpt><trkpt lat="45.79390742321649" lon="12.830495237442193"><ele>4.5</ele><time>2026-05-01T22:51:59.001Z</time></trkpt><trkpt lat="45.793786424586706" lon="12.830123199338162"><ele>5.0</ele><time>2026-05-01T22:52:00.001Z</time></trkpt><trkpt lat="45.79366458946714" lon="12.829748551733434"><ele>5.0</ele><time>2026-05-01T22:52:01.001Z</time></trkpt><trkpt lat="45.79354360889743" lon="12.829373371964184"><ele>5.0</ele><time>2026-05-01T22:52:02.001Z</time></trkpt><trkpt lat="45.79342514557262" lon="12.829001227225167"><ele>5.5</ele><time>2026-05-01T22:52:03.001Z</time></trkpt><trkpt lat="45.79330796933225" lon="12.828631874438296"><ele>6.0</ele><time>2026-05-01T22:52:04.001Z</time></trkpt><trkpt lat="45.79319365067629" lon="12.82826817769063"><ele>6.5</ele><time>2026-05-01T22:52:05.001Z</time></trkpt><trkpt lat="45.793079847977054" lon="12.827915376476518"><ele>7.0</ele><time>2026-05-01T22:52:06.001Z</time></trkpt><trkpt lat="45.79297126467958" lon="12.827576197518612"><ele>7.0</ele><time>2026-05-01T22:52:07.001Z</time></trkpt><trkpt lat="45.79286258060936" lon="12.827233549082456"><ele>7.0</ele><time>2026-05-01T22:52:08.001Z</time></trkpt><trkpt lat="45.79275123406921" lon="12.826890189880977"><ele>6.0</ele><time>2026-05-01T22:52:09.001Z</time></trkpt><trkpt lat="45.79263733201896" lon="12.826537418878592"><ele>5.0</ele><time>2026-05-01T22:52:10.001Z</time></trkpt><trkpt lat="45.79252547178888" lon="12.82618401259907"><ele>4.5</ele><time>2026-05-01T22:52:11.001Z</time></trkpt><trkpt lat="45.79241271531113" lon="12.82582849412101"><ele>4.0</ele><time>2026-05-01T22:52:12.001Z</time></trkpt><trkpt lat="45.79229853701584" lon="12.825469097623767"><ele>4.5</ele><time>2026-05-01T22:52:13.001Z</time></trkpt><trkpt lat="45.79218491707872" lon="12.825105709295865"><ele>5.0</ele><time>2026-05-01T22:52:14.001Z</time></trkpt><trkpt lat="45.79207299418669" lon="12.824743718611666"><ele>5.0</ele><time>2026-05-01T22:52:15Z</time></trkpt><trkpt lat="45.79196219700023" lon="12.824379203471066"><ele>5.0</ele><time>2026-05-01T22:52:16Z</time></trkpt><trkpt lat="45.791853408813346" lon="12.82400376449936"><ele>6.0</ele><time>2026-05-01T22:52:17Z</time></trkpt><trkpt lat="45.79174992990591" lon="12.82363001341818"><ele>7.0</ele><time>2026-05-01T22:52:18Z</time></trkpt><trkpt lat="45.791646830528556" lon="12.823255755363922"><ele>7.0</ele><time>2026-05-01T22:52:19Z</time></trkpt><trkpt lat="45.791543919744875" lon="12.8228787603852"><ele>7.0</ele><time>2026-05-01T22:52:20Z</time></trkpt><trkpt lat="45.79144257564488" lon="12.822499369123236"><ele>8.0</ele><time>2026-05-01T22:52:21Z</time></trkpt><trkpt lat="45.79133917157965" lon="12.822121988733494"><ele>9.0</ele><time>2026-05-01T22:52:22Z</time></trkpt><trkpt lat="45.791233397512286" lon="12.821748888084631"><ele>10.5</ele><time>2026-05-01T22:52:23Z</time></trkpt><trkpt lat="45.79112579193467" lon="12.82137044769017"><ele>12.0</ele><time>2026-05-01T22:52:24Z</time></trkpt><trkpt lat="45.791016541931334" lon="12.820988531096086"><ele>10.0</ele><time>2026-05-01T22:52:25Z</time></trkpt><trkpt lat="45.79091148744445" lon="12.82059880453433"><ele>8.0</ele><time>2026-05-01T22:52:26Z</time></trkpt><trkpt lat="45.79080674181338" lon="12.820202684266821"><ele>6.5</ele><time>2026-05-01T22:52:27Z</time></trkpt><trkpt lat="45.79070892607199" lon="12.819801133092264"><ele>5.0</ele><time>2026-05-01T22:52:28Z</time></trkpt><trkpt lat="45.790617756962035" lon="12.819394748397576"><ele>4.5</ele><time>2026-05-01T22:52:29Z</time></trkpt><trkpt lat="45.79052819668499" lon="12.81898743191196"><ele>4.0</ele><time>2026-05-01T22:52:30Z</time></trkpt><trkpt lat="45.79043942049865" lon="12.818577091698321"><ele>6.5</ele><time>2026-05-01T22:52:31Z</time></trkpt><trkpt lat="45.79035151037405" lon="12.81816210912444"><ele>9.0</ele><time>2026-05-01T22:52:32Z</time></trkpt><trkpt lat="45.7902650574208" lon="12.81774335710055"><ele>9.5</ele><time>2026-05-01T22:52:33Z</time></trkpt><trkpt lat="45.79018256946368" lon="12.817322103025742"><ele>10.0</ele><time>2026-05-01T22:52:34Z</time></trkpt><trkpt lat="45.79010650599083" lon="12.816900459051476"><ele>8.0</ele><time>2026-05-01T22:52:35Z</time></trkpt><trkpt lat="45.79003089364842" lon="12.816474369567773"><ele>6.0</ele><time>2026-05-01T22:52:36Z</time></trkpt><trkpt lat="45.78995562049809" lon="12.816046471091635"><ele>6.0</ele><time>2026-05-01T22:52:37Z</time></trkpt><trkpt lat="45.78987518016608" lon="12.815621799960798"><ele>6.0</ele><time>2026-05-01T22:52:38Z</time></trkpt><trkpt lat="45.78979641985399" lon="12.815199230336907"><ele>5.5</ele><time>2026-05-01T22:52:39Z</time></trkpt><trkpt lat="45.789722423659214" lon="12.81477555092785"><ele>5.0</ele><time>2026-05-01T22:52:40Z</time></trkpt><trkpt lat="45.78965312944402" lon="12.814352408203428"><ele>5.0</ele><time>2026-05-01T22:52:41Z</time></trkpt><trkpt lat="45.78958586718605" lon="12.813929180324482"><ele>5.0</ele><time>2026-05-01T22:52:42Z</time></trkpt><trkpt lat="45.78951784927928" lon="12.813507912420866"><ele>5.0</ele><time>2026-05-01T22:52:43Z</time></trkpt><trkpt lat="45.789452633653696" lon="12.813082178729388"><ele>5.0</ele><time>2026-05-01T22:52:44Z</time></trkpt><trkpt lat="45.78938740869958" lon="12.81266150842798"><ele>4.5</ele><time>2026-05-01T22:52:45Z</time></trkpt><trkpt lat="45.78932468683916" lon="12.812239975973815"><ele>4.0</ele><time>2026-05-01T22:52:46Z</time></trkpt><trkpt lat="45.789263924309886" lon="12.811814718660578"><ele>2.5</ele><time>2026-05-01T22:52:47Z</time></trkpt><trkpt lat="45.789207183957906" lon="12.811391050624163"><ele>1.0</ele><time>2026-05-01T22:52:48Z</time></trkpt><trkpt lat="45.789153135843115" lon="12.8109664084893"><ele>0.0</ele><time>2026-05-01T22:52:49Z</time></trkpt><trkpt lat="45.78910037752311" lon="12.81054048927629"><ele>-1.0</ele><time>2026-05-01T22:52:50Z</time></trkpt><trkpt lat="45.78904892405886" lon="12.810116957542686"><ele>-1.0</ele><time>2026-05-01T22:52:51Z</time></trkpt><trkpt lat="45.78899477534573" lon="12.809695002182771"><ele>-1.0</ele><time>2026-05-01T22:52:52Z</time></trkpt><trkpt lat="45.788942017522245" lon="12.809269050209078"><ele>-0.5</ele><time>2026-05-01T22:52:53Z</time></trkpt><trkpt lat="45.78888810673288" lon="12.808840519564917"><ele>0.0</ele><time>2026-05-01T22:52:54Z</time></trkpt><trkpt lat="45.788833352266536" lon="12.80841375216475"><ele>-1.0</ele><time>2026-05-01T22:52:55Z</time></trkpt><trkpt lat="45.788777621818284" lon="12.807985063998096"><ele>-2.0</ele><time>2026-05-01T22:52:56Z</time></trkpt><trkpt lat="45.788724338786544" lon="12.807557741439572"><ele>-2.0</ele><time>2026-05-01T22:52:57Z</time></trkpt><trkpt lat="45.788669155628895" lon="12.807129724746096"><ele>-2.0</ele><time>2026-05-01T22:52:58Z</time></trkpt><trkpt lat="45.788613239264215" lon="12.806699649831927"><ele>-1.0</ele><time>2026-05-01T22:52:59Z</time></trkpt><trkpt lat="45.78855705711945" lon="12.80626881577992"><ele>0.0</ele><time>2026-05-01T22:53:00Z</time></trkpt><trkpt lat="45.78850030184143" lon="12.805837759099223"><ele>0.5</ele><time>2026-05-01T22:53:01Z</time></trkpt><trkpt lat="45.78844465487968" lon="12.805410423728558"><ele>1.0</ele><time>2026-05-01T22:53:02Z</time></trkpt><trkpt lat="45.78838934221999" lon="12.804982898182892"><ele>1.0</ele><time>2026-05-01T22:53:03Z</time></trkpt><trkpt lat="45.78833247904553" lon="12.804555760796356"><ele>1.0</ele><time>2026-05-01T22:53:04Z</time></trkpt><trkpt lat="45.78827524386382" lon="12.804130119647342"><ele>0.0</ele><time>2026-05-01T22:53:05Z</time></trkpt><trkpt lat="45.788215170110725" lon="12.803712286869063"><ele>-1.0</ele><time>2026-05-01T22:53:06Z</time></trkpt><trkpt lat="45.78815314527789" lon="12.803294505313792"><ele>-1.0</ele><time>2026-05-01T22:53:07Z</time></trkpt><trkpt lat="45.78809075866246" lon="12.802879668566279"><ele>-1.0</ele><time>2026-05-01T22:53:08Z</time></trkpt><trkpt lat="45.788024928815695" lon="12.802467650289657"><ele>0.0</ele><time>2026-05-01T22:53:09Z</time></trkpt><trkpt lat="45.78795884541306" lon="12.802056389646923"><ele>1.0</ele><time>2026-05-01T22:53:10Z</time></trkpt><trkpt lat="45.787893106754645" lon="12.801645967317732"><ele>1.5</ele><time>2026-05-01T22:53:11Z</time></trkpt><trkpt lat="45.787826544934056" lon="12.801238347994268"><ele>2.0</ele><time>2026-05-01T22:53:12Z</time></trkpt><trkpt lat="45.78775916960021" lon="12.800833027476418"><ele>2.0</ele><time>2026-05-01T22:53:13Z</time></trkpt><trkpt lat="45.787689381229995" lon="12.800428813341174"><ele>2.0</ele><time>2026-05-01T22:53:14Z</time></trkpt><trkpt lat="45.78761817865191" lon="12.800024685663294"><ele>2.5</ele><time>2026-05-01T22:53:15Z</time></trkpt><trkpt lat="45.787543553003076" lon="12.799621769744334"><ele>3.0</ele><time>2026-05-01T22:53:16Z</time></trkpt><trkpt lat="45.78746538903515" lon="12.799220367660851"><ele>3.0</ele><time>2026-05-01T22:53:17Z</time></trkpt><trkpt lat="45.78738743907407" lon="12.798817914132696"><ele>3.0</ele><time>2026-05-01T22:53:18Z</time></trkpt><trkpt lat="45.78730784660234" lon="12.79841859246434"><ele>2.5</ele><time>2026-05-01T22:53:19Z</time></trkpt><trkpt lat="45.787230572067756" lon="12.798019411880992"><ele>2.0</ele><time>2026-05-01T22:53:20Z</time></trkpt><trkpt lat="45.78714983562794" lon="12.797621618564067"><ele>2.0</ele><time>2026-05-01T22:53:21.001Z</time></trkpt><trkpt lat="45.787066460085256" lon="12.797220072993676"><ele>2.0</ele><time>2026-05-01T22:53:22.001Z</time></trkpt><trkpt lat="45.786981911725576" lon="12.796816475686285"><ele>2.5</ele><time>2026-05-01T22:53:23.001Z</time></trkpt><trkpt lat="45.78689604751598" lon="12.796415857458136"><ele>3.0</ele><time>2026-05-01T22:53:24.001Z</time></trkpt><trkpt lat="45.786809067830006" lon="12.79601476217019"><ele>4.0</ele><time>2026-05-01T22:53:25.001Z</time></trkpt><trkpt lat="45.78672040552486" lon="12.79561367298647"><ele>5.0</ele><time>2026-05-01T22:53:26.001Z</time></trkpt><trkpt lat="45.7866288563138" lon="12.795211509211539"><ele>5.0</ele><time>2026-05-01T22:53:27.001Z</time></trkpt><trkpt lat="45.78653489056981" lon="12.79480775139031"><ele>5.0</ele><time>2026-05-01T22:53:28.001Z</time></trkpt><trkpt lat="45.78643765129583" lon="12.794404049507804"><ele>5.5</ele><time>2026-05-01T22:53:29.001Z</time></trkpt><trkpt lat="45.786340055854225" lon="12.794002699734705"><ele>6.0</ele><time>2026-05-01T22:53:30.001Z</time></trkpt><trkpt lat="45.78623868791914" lon="12.793600841623029"><ele>5.5</ele><time>2026-05-01T22:53:31.001Z</time></trkpt><trkpt lat="45.78613890027202" lon="12.793195146100318"><ele>5.0</ele><time>2026-05-01T22:53:32.001Z</time></trkpt><trkpt lat="45.786036711500664" lon="12.792795206876344"><ele>5.5</ele><time>2026-05-01T22:53:33.001Z</time></trkpt><trkpt lat="45.78593331237314" lon="12.792395197084758"><ele>6.0</ele><time>2026-05-01T22:53:34.001Z</time></trkpt><trkpt lat="45.78582985573335" lon="12.791996158054898"><ele>5.0</ele><time>2026-05-01T22:53:35.001Z</time></trkpt><trkpt lat="45.78572479651622" lon="12.791597796418893"><ele>4.0</ele><time>2026-05-01T22:53:36.001Z</time></trkpt><trkpt lat="45.785619016528415" lon="12.791200344270154"><ele>4.5</ele><time>2026-05-01T22:53:37.001Z</time></trkpt><trkpt lat="45.78550862553777" lon="12.790802015650366"><ele>5.0</ele><time>2026-05-01T22:53:38.001Z</time></trkpt><trkpt lat="45.78539566993488" lon="12.79040423526215"><ele>5.0</ele><time>2026-05-01T22:53:39.001Z</time></trkpt><trkpt lat="45.785279735736886" lon="12.790008677578196"><ele>5.0</ele><time>2026-05-01T22:53:40.001Z</time></trkpt><trkpt lat="45.785163432098926" lon="12.789614764788533"><ele>5.0</ele><time>2026-05-01T22:53:41.001Z</time></trkpt><trkpt lat="45.78504752854758" lon="12.789220767718433"><ele>5.0</ele><time>2026-05-01T22:53:42.001Z</time></trkpt><trkpt lat="45.78493060750671" lon="12.788827740268323"><ele>4.5</ele><time>2026-05-01T22:53:43.001Z</time></trkpt><trkpt lat="45.78481002655625" lon="12.78843463734143"><ele>4.0</ele><time>2026-05-01T22:53:44.001Z</time></trkpt><trkpt lat="45.7846880658846" lon="12.788040924528984"><ele>3.0</ele><time>2026-05-01T22:53:45.001Z</time></trkpt><trkpt lat="45.78456480101413" lon="12.787649482219477"><ele>2.0</ele><time>2026-05-01T22:53:46.001Z</time></trkpt><trkpt lat="45.78443921444593" lon="12.787261385023712"><ele>2.5</ele><time>2026-05-01T22:53:47.001Z</time></trkpt><trkpt lat="45.78431735193323" lon="12.78687137313059"><ele>3.0</ele><time>2026-05-01T22:53:48.001Z</time></trkpt><trkpt lat="45.78419072868364" lon="12.786485535206449"><ele>4.0</ele><time>2026-05-01T22:53:49.001Z</time></trkpt><trkpt lat="45.78406139198215" lon="12.786097828332418"><ele>5.0</ele><time>2026-05-01T22:53:50.001Z</time></trkpt><trkpt lat="45.78393079106116" lon="12.78571110127091"><ele>5.0</ele><time>2026-05-01T22:53:51.001Z</time></trkpt><trkpt lat="45.78379916283956" lon="12.785326740285035"><ele>5.0</ele><time>2026-05-01T22:53:52.001Z</time></trkpt><trkpt lat="45.78366974984131" lon="12.784940239869975"><ele>5.0</ele><time>2026-05-01T22:53:53.001Z</time></trkpt><trkpt lat="45.78353854371003" lon="12.784553262745739"><ele>5.0</ele><time>2026-05-01T22:53:54.001Z</time></trkpt><trkpt lat="45.78340571332793" lon="12.784165939497445"><ele>5.0</ele><time>2026-05-01T22:53:55.001Z</time></trkpt><trkpt lat="45.78327059956714" lon="12.783783521667619"><ele>5.0</ele><time>2026-05-01T22:53:56.001Z</time></trkpt><trkpt lat="45.78313223705105" lon="12.78340192378052"><ele>5.0</ele><time>2026-05-01T22:53:57.001Z</time></trkpt><trkpt lat="45.7829917152241" lon="12.78301932880087"><ele>5.0</ele><time>2026-05-01T22:53:58.001Z</time></trkpt><trkpt lat="45.78284724677771" lon="12.782641250196521"><ele>4.5</ele><time>2026-05-01T22:53:59.001Z</time></trkpt><trkpt lat="45.782701866465224" lon="12.782262037924989"><ele>4.0</ele><time>2026-05-01T22:54:00.001Z</time></trkpt><trkpt lat="45.78255474944105" lon="12.781880765419404"><ele>4.0</ele><time>2026-05-01T22:54:01.001Z</time></trkpt><trkpt lat="45.78240502997768" lon="12.781501253259787"><ele>4.0</ele><time>2026-05-01T22:54:02.001Z</time></trkpt><trkpt lat="45.78225682801241" lon="12.78112283450634"><ele>4.0</ele><time>2026-05-01T22:54:03.001Z</time></trkpt><trkpt lat="45.78210467989756" lon="12.780742286589488"><ele>4.0</ele><time>2026-05-01T22:54:04.001Z</time></trkpt><trkpt lat="45.781952607821424" lon="12.780365061671572"><ele>4.5</ele><time>2026-05-01T22:54:05.001Z</time></trkpt><trkpt lat="45.781799791114665" lon="12.779989246109373"><ele>5.0</ele><time>2026-05-01T22:54:06.001Z</time></trkpt><trkpt lat="45.781642834929066" lon="12.779617096209856"><ele>6.0</ele><time>2026-05-01T22:54:07.001Z</time></trkpt><trkpt lat="45.781484005658015" lon="12.779246792567772"><ele>7.0</ele><time>2026-05-01T22:54:08.001Z</time></trkpt><trkpt lat="45.781325405132435" lon="12.77887951781833"><ele>8.0</ele><time>2026-05-01T22:54:09.001Z</time></trkpt><trkpt lat="45.78116505667388" lon="12.778510935000437"><ele>9.0</ele><time>2026-05-01T22:54:10.001Z</time></trkpt><trkpt lat="45.78100994858516" lon="12.778151938671913"><ele>6.5</ele><time>2026-05-01T22:54:11.001Z</time></trkpt><trkpt lat="45.78086323133713" lon="12.777801977260772"><ele>4.0</ele><time>2026-05-01T22:54:12.001Z</time></trkpt><trkpt lat="45.780703232697135" lon="12.777445734750398"><ele>4.0</ele><time>2026-05-01T22:54:13.001Z</time></trkpt><trkpt lat="45.7805422580733" lon="12.777078980978278"><ele>4.0</ele><time>2026-05-01T22:54:14.001Z</time></trkpt><trkpt lat="45.78037231357242" lon="12.77671325464347"><ele>3.5</ele><time>2026-05-01T22:54:15.001Z</time></trkpt><trkpt lat="45.78019789667798" lon="12.776343321179906"><ele>3.0</ele><time>2026-05-01T22:54:16.001Z</time></trkpt><trkpt lat="45.78002151637016" lon="12.77597644706341"><ele>2.0</ele><time>2026-05-01T22:54:17.001Z</time></trkpt><trkpt lat="45.77984466540247" lon="12.775608262128126"><ele>1.0</ele><time>2026-05-01T22:54:18.001Z</time></trkpt><trkpt lat="45.77966922204315" lon="12.775238170129915"><ele>1.5</ele><time>2026-05-01T22:54:19.001Z</time></trkpt><trkpt lat="45.77949397427847" lon="12.774868999174862"><ele>2.0</ele><time>2026-05-01T22:54:20.001Z</time></trkpt><trkpt lat="45.77931732051041" lon="12.77450227571943"><ele>2.5</ele><time>2026-05-01T22:54:21Z</time></trkpt><trkpt lat="45.77913380676306" lon="12.774140028863922"><ele>3.0</ele><time>2026-05-01T22:54:22Z</time></trkpt><trkpt lat="45.77895074190019" lon="12.773779307573468"><ele>2.5</ele><time>2026-05-01T22:54:23Z</time></trkpt><trkpt lat="45.77876785484394" lon="12.77342421616438"><ele>2.0</ele><time>2026-05-01T22:54:24Z</time></trkpt><trkpt lat="45.7785842699263" lon="12.77306895085865"><ele>1.5</ele><time>2026-05-01T22:54:25Z</time></trkpt><trkpt lat="45.778397426160915" lon="12.772717566454018"><ele>1.0</ele><time>2026-05-01T22:54:26Z</time></trkpt><trkpt lat="45.77820870686447" lon="12.772368287184786"><ele>1.0</ele><time>2026-05-01T22:54:27Z</time></trkpt><trkpt lat="45.77802101870552" lon="12.77202470813854"><ele>1.0</ele><time>2026-05-01T22:54:28Z</time></trkpt><trkpt lat="45.77783327496815" lon="12.771679172799027"><ele>0.5</ele><time>2026-05-01T22:54:29Z</time></trkpt><trkpt lat="45.77765134878355" lon="12.771333480539939"><ele>0.0</ele><time>2026-05-01T22:54:30Z</time></trkpt><trkpt lat="45.77746802519504" lon="12.770988657323239"><ele>0.0</ele><time>2026-05-01T22:54:31Z</time></trkpt><trkpt lat="45.77728302145226" lon="12.770647228178412"><ele>0.0</ele><time>2026-05-01T22:54:32Z</time></trkpt><trkpt lat="45.77709751148224" lon="12.77031056490771"><ele>1.0</ele><time>2026-05-01T22:54:33Z</time></trkpt><trkpt lat="45.7769111231831" lon="12.769971025486909"><ele>2.0</ele><time>2026-05-01T22:54:34Z</time></trkpt><trkpt lat="45.776725618171" lon="12.769633981423947"><ele>1.5</ele><time>2026-05-01T22:54:35Z</time></trkpt><trkpt lat="45.77653883698958" lon="12.769296268558152"><ele>1.0</ele><time>2026-05-01T22:54:36Z</time></trkpt><trkpt lat="45.77635148375033" lon="12.768959598055952"><ele>1.0</ele><time>2026-05-01T22:54:37Z</time></trkpt><trkpt lat="45.77616459961761" lon="12.768624235515201"><ele>1.0</ele><time>2026-05-01T22:54:38Z</time></trkpt><trkpt lat="45.77597735549486" lon="12.76828869948072"><ele>1.0</ele><time>2026-05-01T22:54:39Z</time></trkpt><trkpt lat="45.77579114389126" lon="12.767953038657577"><ele>1.0</ele><time>2026-05-01T22:54:40Z</time></trkpt><trkpt lat="45.77560712776587" lon="12.767618529088594"><ele>1.0</ele><time>2026-05-01T22:54:41Z</time></trkpt><trkpt lat="45.775423424683666" lon="12.767282726378792"><ele>1.0</ele><time>2026-05-01T22:54:42Z</time></trkpt><trkpt lat="45.775238239696705" lon="12.766944915542899"><ele>2.0</ele><time>2026-05-01T22:54:43Z</time></trkpt><trkpt lat="45.77505339685148" lon="12.766604141936176"><ele>3.0</ele><time>2026-05-01T22:54:44Z</time></trkpt><trkpt lat="45.7748698566601" lon="12.766261910289515"><ele>2.0</ele><time>2026-05-01T22:54:45Z</time></trkpt><trkpt lat="45.774682805011324" lon="12.765923389597075"><ele>1.0</ele><time>2026-05-01T22:54:46Z</time></trkpt><trkpt lat="45.77449697890831" lon="12.7655813234241"><ele>2.5</ele><time>2026-05-01T22:54:47Z</time></trkpt><trkpt lat="45.774310134214936" lon="12.765240089973723"><ele>4.0</ele><time>2026-05-01T22:54:48Z</time></trkpt><trkpt lat="45.77412438454756" lon="12.764896519851277"><ele>4.0</ele><time>2026-05-01T22:54:49Z</time></trkpt><trkpt lat="45.77393962200092" lon="12.764554063575813"><ele>4.0</ele><time>2026-05-01T22:54:50Z</time></trkpt><trkpt lat="45.77375108424121" lon="12.764214493424712"><ele>4.0</ele><time>2026-05-01T22:54:51Z</time></trkpt><trkpt lat="45.77356297283055" lon="12.763876005888275"><ele>4.0</ele><time>2026-05-01T22:54:52Z</time></trkpt><trkpt lat="45.77337572467559" lon="12.763535105673807"><ele>4.0</ele><time>2026-05-01T22:54:53Z</time></trkpt><trkpt lat="45.77318770051931" lon="12.763190372746653"><ele>4.0</ele><time>2026-05-01T22:54:54Z</time></trkpt><trkpt lat="45.77300008751752" lon="12.762848303413536"><ele>3.5</ele><time>2026-05-01T22:54:55Z</time></trkpt><trkpt lat="45.77281435054185" lon="12.762505524579312"><ele>3.0</ele><time>2026-05-01T22:54:56Z</time></trkpt><trkpt lat="45.77262719802276" lon="12.7621615336023"><ele>2.5</ele><time>2026-05-01T22:54:57Z</time></trkpt><trkpt lat="45.77244251454184" lon="12.76182117764961"><ele>2.0</ele><time>2026-05-01T22:54:58Z</time></trkpt><trkpt lat="45.77225652284149" lon="12.761479941722987"><ele>2.0</ele><time>2026-05-01T22:54:59Z</time></trkpt><trkpt lat="45.77207155773626" lon="12.76114132130673"><ele>2.0</ele><time>2026-05-01T22:55:00Z</time></trkpt><trkpt lat="45.771885213491416" lon="12.760799647835205"><ele>1.5</ele><time>2026-05-01T22:55:01Z</time></trkpt><trkpt lat="45.77169847206563" lon="12.760459311579938"><ele>1.0</ele><time>2026-05-01T22:55:02Z</time></trkpt><trkpt lat="45.77151184541045" lon="12.760121187263234"><ele>0.5</ele><time>2026-05-01T22:55:03Z</time></trkpt><trkpt lat="45.77132517445222" lon="12.75977994171715"><ele>0.0</ele><time>2026-05-01T22:55:04Z</time></trkpt><trkpt lat="45.771140017816016" lon="12.759441305002412"><ele>0.5</ele><time>2026-05-01T22:55:05Z</time></trkpt><trkpt lat="45.77095372979391" lon="12.759102808467645"><ele>1.0</ele><time>2026-05-01T22:55:06Z</time></trkpt><trkpt lat="45.77076885979064" lon="12.758764551570927"><ele>0.5</ele><time>2026-05-01T22:55:07Z</time></trkpt><trkpt lat="45.770582804983" lon="12.7584274378964"><ele>0.0</ele><time>2026-05-01T22:55:08Z</time></trkpt><trkpt lat="45.77039864877332" lon="12.758090703689357"><ele>0.0</ele><time>2026-05-01T22:55:09Z</time></trkpt><trkpt lat="45.770217364104916" lon="12.757755121624564"><ele>0.0</ele><time>2026-05-01T22:55:10Z</time></trkpt><trkpt lat="45.77003351978414" lon="12.757419195941548"><ele>0.0</ele><time>2026-05-01T22:55:11Z</time></trkpt><trkpt lat="45.76985151328199" lon="12.757085866786548"><ele>0.0</ele><time>2026-05-01T22:55:12Z</time></trkpt><trkpt lat="45.769669510512585" lon="12.756746469523236"><ele>0.5</ele><time>2026-05-01T22:55:13Z</time></trkpt><trkpt lat="45.7694849858161" lon="12.756413231951313"><ele>1.0</ele><time>2026-05-01T22:55:14Z</time></trkpt><trkpt lat="45.769299817282274" lon="12.756074829609979"><ele>0.5</ele><time>2026-05-01T22:55:15Z</time></trkpt><trkpt lat="45.769114799160825" lon="12.755739353161228"><ele>0.0</ele><time>2026-05-01T22:55:16Z</time></trkpt><trkpt lat="45.768928675657314" lon="12.755406909138719"><ele>0.5</ele><time>2026-05-01T22:55:17Z</time></trkpt><trkpt lat="45.768741535812076" lon="12.75507882801661"><ele>1.0</ele><time>2026-05-01T22:55:18Z</time></trkpt><trkpt lat="45.76855945647121" lon="12.754741723789774"><ele>0.5</ele><time>2026-05-01T22:55:19Z</time></trkpt><trkpt lat="45.76837273903644" lon="12.754404604166421"><ele>0.0</ele><time>2026-05-01T22:55:20Z</time></trkpt><trkpt lat="45.768187179906676" lon="12.754066271791668"><ele>0.0</ele><time>2026-05-01T22:55:21Z</time></trkpt><trkpt lat="45.768003438426305" lon="12.753725500255703"><ele>0.0</ele><time>2026-05-01T22:55:22Z</time></trkpt><trkpt lat="45.76781852290497" lon="12.753382737617278"><ele>1.0</ele><time>2026-05-01T22:55:23Z</time></trkpt><trkpt lat="45.767634799633484" lon="12.753047405732326"><ele>2.0</ele><time>2026-05-01T22:55:24Z</time></trkpt><trkpt lat="45.7674530139939" lon="12.75270239158036"><ele>2.0</ele><time>2026-05-01T22:55:25Z</time></trkpt><trkpt lat="45.76726831896123" lon="12.752360060024717"><ele>2.0</ele><time>2026-05-01T22:55:26.001Z</time></trkpt><trkpt lat="45.76708237128307" lon="12.752018200769479"><ele>2.0</ele><time>2026-05-01T22:55:27.001Z</time></trkpt><trkpt lat="45.76689353720905" lon="12.751680611753603"><ele>2.0</ele><time>2026-05-01T22:55:28.001Z</time></trkpt><trkpt lat="45.766704487985265" lon="12.751343718605021"><ele>1.5</ele><time>2026-05-01T22:55:29.001Z</time></trkpt><trkpt lat="45.76651723684446" lon="12.751002530514919"><ele>1.0</ele><time>2026-05-01T22:55:30.001Z</time></trkpt><trkpt lat="45.766328680233336" lon="12.750665633597885"><ele>1.0</ele><time>2026-05-01T22:55:31.001Z</time></trkpt><trkpt lat="45.7661418360899" lon="12.750327360080357"><ele>1.0</ele><time>2026-05-01T22:55:32.001Z</time></trkpt><trkpt lat="45.76595063003998" lon="12.749990819724463"><ele>1.0</ele><time>2026-05-01T22:55:33.001Z</time></trkpt><trkpt lat="45.7657605482227" lon="12.749653382704906"><ele>1.0</ele><time>2026-05-01T22:55:34.001Z</time></trkpt><trkpt lat="45.76556870273839" lon="12.749321240785363"><ele>1.0</ele><time>2026-05-01T22:55:35.001Z</time></trkpt><trkpt lat="45.765374537316575" lon="12.748992485934826"><ele>1.0</ele><time>2026-05-01T22:55:36.001Z</time></trkpt><trkpt lat="45.76518008081089" lon="12.748661577820208"><ele>1.5</ele><time>2026-05-01T22:55:37.001Z</time></trkpt><trkpt lat="45.76498364604141" lon="12.748327857491745"><ele>2.0</ele><time>2026-05-01T22:55:38.001Z</time></trkpt><trkpt lat="45.76478866108843" lon="12.748000109162813"><ele>1.5</ele><time>2026-05-01T22:55:39.001Z</time></trkpt><trkpt lat="45.764588893038834" lon="12.747671811627429"><ele>1.0</ele><time>2026-05-01T22:55:40.001Z</time></trkpt><trkpt lat="45.764388606640615" lon="12.747344235871388"><ele>1.5</ele><time>2026-05-01T22:55:41.001Z</time></trkpt><trkpt lat="45.7641890597095" lon="12.74702175844598"><ele>2.0</ele><time>2026-05-01T22:55:42.001Z</time></trkpt><trkpt lat="45.76398674536757" lon="12.746696042120995"><ele>2.0</ele><time>2026-05-01T22:55:43.001Z</time></trkpt><trkpt lat="45.76378304499721" lon="12.746372915281313"><ele>2.0</ele><time>2026-05-01T22:55:44.001Z</time></trkpt><trkpt lat="45.76357655061426" lon="12.746048691704043"><ele>1.5</ele><time>2026-05-01T22:55:45.001Z</time></trkpt><trkpt lat="45.76336907368796" lon="12.745725807673798"><ele>1.0</ele><time>2026-05-01T22:55:46.001Z</time></trkpt><trkpt lat="45.76315980456121" lon="12.74540588229397"><ele>0.5</ele><time>2026-05-01T22:55:47.001Z</time></trkpt><trkpt lat="45.762949377821805" lon="12.745083127896166"><ele>0.0</ele><time>2026-05-01T22:55:48.001Z</time></trkpt><trkpt lat="45.76274222756064" lon="12.744761521922007"><ele>0.5</ele><time>2026-05-01T22:55:49.001Z</time></trkpt><trkpt lat="45.762538016615096" lon="12.74443985743896"><ele>1.0</ele><time>2026-05-01T22:55:50.001Z</time></trkpt><trkpt lat="45.76233351980826" lon="12.744120478759232"><ele>1.0</ele><time>2026-05-01T22:55:51.001Z</time></trkpt><trkpt lat="45.762127799923576" lon="12.74380340486017"><ele>1.0</ele><time>2026-05-01T22:55:52.001Z</time></trkpt><trkpt lat="45.76192132509131" lon="12.743485786782466"><ele>1.0</ele><time>2026-05-01T22:55:53.001Z</time></trkpt><trkpt lat="45.76171487108624" lon="12.743170466884695"><ele>1.0</ele><time>2026-05-01T22:55:54.001Z</time></trkpt><trkpt lat="45.76150981593371" lon="12.7428543375115"><ele>0.0</ele><time>2026-05-01T22:55:55.001Z</time></trkpt><trkpt lat="45.7613051035907" lon="12.742540445043046"><ele>-1.0</ele><time>2026-05-01T22:55:56.001Z</time></trkpt><trkpt lat="45.761098915534774" lon="12.742227834333207"><ele>0.5</ele><time>2026-05-01T22:55:57.001Z</time></trkpt><trkpt lat="45.76089318647516" lon="12.74191637554304"><ele>2.0</ele><time>2026-05-01T22:55:58.001Z</time></trkpt><trkpt lat="45.7606896537646" lon="12.741604000649746"><ele>2.0</ele><time>2026-05-01T22:55:59.001Z</time></trkpt><trkpt lat="45.760484305557554" lon="12.741293364736075"><ele>2.0</ele><time>2026-05-01T22:56:00.001Z</time></trkpt><trkpt lat="45.760280043479334" lon="12.740982658832468"><ele>2.5</ele><time>2026-05-01T22:56:01.001Z</time></trkpt><trkpt lat="45.76007541893738" lon="12.740672056572448"><ele>3.0</ele><time>2026-05-01T22:56:02.001Z</time></trkpt><trkpt lat="45.75987305518205" lon="12.740361619434694"><ele>3.0</ele><time>2026-05-01T22:56:03.001Z</time></trkpt><trkpt lat="45.759671149493784" lon="12.740051663230565"><ele>3.0</ele><time>2026-05-01T22:56:04.001Z</time></trkpt><trkpt lat="45.75947045426294" lon="12.739742011849685"><ele>3.0</ele><time>2026-05-01T22:56:05.001Z</time></trkpt><trkpt lat="45.759268960039485" lon="12.73942994449026"><ele>3.0</ele><time>2026-05-01T22:56:06.001Z</time></trkpt><trkpt lat="45.75906845834721" lon="12.739119691745236"><ele>2.5</ele><time>2026-05-01T22:56:07.001Z</time></trkpt><trkpt lat="45.758867024217885" lon="12.738810154809062"><ele>2.0</ele><time>2026-05-01T22:56:08.001Z</time></trkpt><trkpt lat="45.758666284644356" lon="12.738496241395278"><ele>2.0</ele><time>2026-05-01T22:56:09.001Z</time></trkpt><trkpt lat="45.75846494321329" lon="12.738182251461609"><ele>2.0</ele><time>2026-05-01T22:56:10.001Z</time></trkpt><trkpt lat="45.75826296007189" lon="12.737868503462407"><ele>2.0</ele><time>2026-05-01T22:56:11.001Z</time></trkpt><trkpt lat="45.758058774995405" lon="12.73755707318259"><ele>2.0</ele><time>2026-05-01T22:56:12.001Z</time></trkpt><trkpt lat="45.75785361907982" lon="12.737234462498176"><ele>1.5</ele><time>2026-05-01T22:56:13.001Z</time></trkpt><trkpt lat="45.75764451135691" lon="12.736921819207314"><ele>1.0</ele><time>2026-05-01T22:56:14.001Z</time></trkpt><trkpt lat="45.757435776209235" lon="12.736605466303322"><ele>1.0</ele><time>2026-05-01T22:56:15.001Z</time></trkpt><trkpt lat="45.7572290505101" lon="12.736289383064715"><ele>1.0</ele><time>2026-05-01T22:56:16.001Z</time></trkpt><trkpt lat="45.75702380385053" lon="12.73597406535115"><ele>1.0</ele><time>2026-05-01T22:56:17.001Z</time></trkpt><trkpt lat="45.75682518897743" lon="12.735663901754492"><ele>1.0</ele><time>2026-05-01T22:56:18.001Z</time></trkpt><trkpt lat="45.75663677001579" lon="12.735348119637623"><ele>1.0</ele><time>2026-05-01T22:56:19.001Z</time></trkpt><trkpt lat="45.75644290891707" lon="12.735020542272258"><ele>1.0</ele><time>2026-05-01T22:56:20.001Z</time></trkpt><trkpt lat="45.756245029602994" lon="12.734684791874592"><ele>1.0</ele><time>2026-05-01T22:56:21.001Z</time></trkpt><trkpt lat="45.75604692817159" lon="12.73434481256845"><ele>1.0</ele><time>2026-05-01T22:56:22.001Z</time></trkpt><trkpt lat="45.75584896601012" lon="12.734007583877728"><ele>1.0</ele><time>2026-05-01T22:56:23.001Z</time></trkpt><trkpt lat="45.75565278382585" lon="12.733668895404227"><ele>1.0</ele><time>2026-05-01T22:56:24.001Z</time></trkpt><trkpt lat="45.755457974407754" lon="12.733326401818461"><ele>1.0</ele><time>2026-05-01T22:56:25.001Z</time></trkpt><trkpt lat="45.75526543828541" lon="12.732985050431695"><ele>1.0</ele><time>2026-05-01T22:56:26Z</time></trkpt><trkpt lat="45.755076396993424" lon="12.732643090767095"><ele>-0.5</ele><time>2026-05-01T22:56:27Z</time></trkpt><trkpt lat="45.75488828633601" lon="12.732301076622157"><ele>-2.0</ele><time>2026-05-01T22:56:28Z</time></trkpt><trkpt lat="45.754702092890355" lon="12.731956933045836"><ele>-2.0</ele><time>2026-05-01T22:56:29Z</time></trkpt><trkpt lat="45.75451703092527" lon="12.731612786714027"><ele>-2.0</ele><time>2026-05-01T22:56:30Z</time></trkpt><trkpt lat="45.75433481303636" lon="12.731270677868926"><ele>-1.5</ele><time>2026-05-01T22:56:31Z</time></trkpt><trkpt lat="45.75415777166826" lon="12.730929993957611"><ele>-1.0</ele><time>2026-05-01T22:56:32Z</time></trkpt><trkpt lat="45.75398521938924" lon="12.730589023594751"><ele>-1.0</ele><time>2026-05-01T22:56:33Z</time></trkpt><trkpt lat="45.75381562906763" lon="12.730247155328266"><ele>-1.0</ele><time>2026-05-01T22:56:34Z</time></trkpt><trkpt lat="45.75364899073134" lon="12.72990279586448"><ele>-1.0</ele><time>2026-05-01T22:56:35Z</time></trkpt><trkpt lat="45.7534852324395" lon="12.729557534277262"><ele>-1.0</ele><time>2026-05-01T22:56:36Z</time></trkpt><trkpt lat="45.75332230080587" lon="12.729212895399282"><ele>-1.0</ele><time>2026-05-01T22:56:37Z</time></trkpt><trkpt lat="45.753159459572224" lon="12.728863104038407"><ele>-1.0</ele><time>2026-05-01T22:56:38Z</time></trkpt><trkpt lat="45.75299325606895" lon="12.728517045877494"><ele>-1.0</ele><time>2026-05-01T22:56:39Z</time></trkpt><trkpt lat="45.75282571477046" lon="12.728167966375375"><ele>-1.0</ele><time>2026-05-01T22:56:40Z</time></trkpt><trkpt lat="45.75265511083695" lon="12.72782152723006"><ele>-0.5</ele><time>2026-05-01T22:56:41Z</time></trkpt><trkpt lat="45.75249021862952" lon="12.727473117290026"><ele>0.0</ele><time>2026-05-01T22:56:42Z</time></trkpt><trkpt lat="45.75232626407248" lon="12.72712102575108"><ele>0.5</ele><time>2026-05-01T22:56:43Z</time></trkpt><trkpt lat="45.75216755942396" lon="12.726772741958717"><ele>1.0</ele><time>2026-05-01T22:56:44Z</time></trkpt><trkpt lat="45.75202063651726" lon="12.726437631447746"><ele>1.0</ele><time>2026-05-01T22:56:45Z</time></trkpt><trkpt lat="45.75188292774822" lon="12.726117864278013"><ele>1.0</ele><time>2026-05-01T22:56:46Z</time></trkpt><trkpt lat="45.75175003398778" lon="12.725796573380833"><ele>0.5</ele><time>2026-05-01T22:56:47Z</time></trkpt><trkpt lat="45.751619717358636" lon="12.725480538099154"><ele>0.0</ele><time>2026-05-01T22:56:48Z</time></trkpt><trkpt lat="45.751491431835746" lon="12.725163424189141"><ele>-0.5</ele><time>2026-05-01T22:56:49Z</time></trkpt><trkpt lat="45.75136262281591" lon="12.724845705698153"><ele>-1.0</ele><time>2026-05-01T22:56:50Z</time></trkpt><trkpt lat="45.75123409692815" lon="12.72452705512968"><ele>-1.0</ele><time>2026-05-01T22:56:51Z</time></trkpt><trkpt lat="45.75110701131722" lon="12.724209731433978"><ele>-1.0</ele><time>2026-05-01T22:56:52Z</time></trkpt><trkpt lat="45.75098224637592" lon="12.723889205498649"><ele>-1.0</ele><time>2026-05-01T22:56:53Z</time></trkpt><trkpt lat="45.75086026776764" lon="12.723568823253112"><ele>-1.0</ele><time>2026-05-01T22:56:54Z</time></trkpt><trkpt lat="45.75073882885651" lon="12.723248077749906"><ele>-1.5</ele><time>2026-05-01T22:56:55Z</time></trkpt><trkpt lat="45.75061825338991" lon="12.72292424538074"><ele>-2.0</ele><time>2026-05-01T22:56:56Z</time></trkpt><trkpt lat="45.75049931275128" lon="12.72260263860368"><ele>-1.0</ele><time>2026-05-01T22:56:57Z</time></trkpt><trkpt lat="45.750382803789755" lon="12.72227865931455"><ele>0.0</ele><time>2026-05-01T22:56:58Z</time></trkpt><trkpt lat="45.75026638534528" lon="12.721954285046433"><ele>-1.5</ele><time>2026-05-01T22:56:59Z</time></trkpt><trkpt lat="45.75015144832035" lon="12.721628440580222"><ele>-3.0</ele><time>2026-05-01T22:57:00Z</time></trkpt><trkpt lat="45.75003934825441" lon="12.721301012736228"><ele>-2.5</ele><time>2026-05-01T22:57:01Z</time></trkpt><trkpt lat="45.74992863350283" lon="12.720975972158383"><ele>-2.0</ele><time>2026-05-01T22:57:02Z</time></trkpt><trkpt lat="45.7498220551048" lon="12.720655227455188"><ele>-2.0</ele><time>2026-05-01T22:57:03Z</time></trkpt><trkpt lat="45.749718712286" lon="12.720340508097003"><ele>-2.0</ele><time>2026-05-01T22:57:04Z</time></trkpt><trkpt lat="45.7496174797742" lon="12.720028298210838"><ele>-1.0</ele><time>2026-05-01T22:57:05Z</time></trkpt><trkpt lat="45.74952006502372" lon="12.719721890816755"><ele>0.0</ele><time>2026-05-01T22:57:06Z</time></trkpt><trkpt lat="45.74942394917682" lon="12.719416345412766"><ele>1.0</ele><time>2026-05-01T22:57:07Z</time></trkpt><trkpt lat="45.749328205145744" lon="12.719118723826337"><ele>2.0</ele><time>2026-05-01T22:57:08Z</time></trkpt><trkpt lat="45.74923336407074" lon="12.718821676882689"><ele>1.5</ele><time>2026-05-01T22:57:09Z</time></trkpt><trkpt lat="45.749137881892906" lon="12.718526428883665"><ele>1.0</ele><time>2026-05-01T22:57:10Z</time></trkpt><trkpt lat="45.74903825174274" lon="12.718227470485862"><ele>1.0</ele><time>2026-05-01T22:57:11Z</time></trkpt><trkpt lat="45.74893121101394" lon="12.717909760265357"><ele>1.0</ele><time>2026-05-01T22:57:12Z</time></trkpt><trkpt lat="45.748823354483314" lon="12.717568117715231"><ele>0.5</ele><time>2026-05-01T22:57:13Z</time></trkpt><trkpt lat="45.74870891062416" lon="12.717209320676577"><ele>0.0</ele><time>2026-05-01T22:57:14Z</time></trkpt><trkpt lat="45.74858853121572" lon="12.716835301446244"><ele>0.5</ele><time>2026-05-01T22:57:15Z</time></trkpt><trkpt lat="45.74846633165501" lon="12.71645299867408"><ele>1.0</ele><time>2026-05-01T22:57:16Z</time></trkpt><trkpt lat="45.74834404859772" lon="12.716065417915704"><ele>1.0</ele><time>2026-05-01T22:57:17Z</time></trkpt><trkpt lat="45.74822203572802" lon="12.715671541363397"><ele>1.0</ele><time>2026-05-01T22:57:18Z</time></trkpt><trkpt lat="45.74809875974639" lon="12.71527491277562"><ele>0.5</ele><time>2026-05-01T22:57:19Z</time></trkpt><trkpt lat="45.74797477217495" lon="12.714877976292486"><ele>0.0</ele><time>2026-05-01T22:57:20Z</time></trkpt><trkpt lat="45.7478488422915" lon="12.714481430142234"><ele>0.5</ele><time>2026-05-01T22:57:21Z</time></trkpt><trkpt lat="45.74772380552227" lon="12.714088415278807"><ele>1.0</ele><time>2026-05-01T22:57:22Z</time></trkpt><trkpt lat="45.747600547449494" lon="12.713697731371173"><ele>1.5</ele><time>2026-05-01T22:57:23Z</time></trkpt><trkpt lat="45.74747868507913" lon="12.713310256867917"><ele>2.0</ele><time>2026-05-01T22:57:24Z</time></trkpt><trkpt lat="45.74736252228873" lon="12.712919365999214"><ele>1.5</ele><time>2026-05-01T22:57:25Z</time></trkpt><trkpt lat="45.7472491202805" lon="12.712529751838414"><ele>1.0</ele><time>2026-05-01T22:57:26Z</time></trkpt><trkpt lat="45.74713830874196" lon="12.712142433469957"><ele>-0.5</ele><time>2026-05-01T22:57:27Z</time></trkpt><trkpt lat="45.7470251743873" lon="12.711760799185477"><ele>-2.0</ele><time>2026-05-01T22:57:28Z</time></trkpt><trkpt lat="45.74690872407323" lon="12.711377380806164"><ele>-1.0</ele><time>2026-05-01T22:57:29Z</time></trkpt><trkpt lat="45.74678908948352" lon="12.71100064397377"><ele>0.0</ele><time>2026-05-01T22:57:30Z</time></trkpt><trkpt lat="45.74666849879181" lon="12.710625376104211"><ele>0.0</ele><time>2026-05-01T22:57:31Z</time></trkpt><trkpt lat="45.746547149669865" lon="12.710249674883196"><ele>0.0</ele><time>2026-05-01T22:57:32Z</time></trkpt><trkpt lat="45.746426508094416" lon="12.709875591212178"><ele>0.0</ele><time>2026-05-01T22:57:33Z</time></trkpt><trkpt lat="45.746306805598856" lon="12.709502575307802"><ele>0.0</ele><time>2026-05-01T22:57:34Z</time></trkpt><trkpt lat="45.74618739617483" lon="12.709127942061475"><ele>0.0</ele><time>2026-05-01T22:57:35Z</time></trkpt><trkpt lat="45.74607011906246" lon="12.708754942040612"><ele>0.0</ele><time>2026-05-01T22:57:36Z</time></trkpt><trkpt lat="45.74595520310393" lon="12.708385269914249"><ele>0.0</ele><time>2026-05-01T22:57:37Z</time></trkpt><trkpt lat="45.74584188708229" lon="12.708015787376466"><ele>0.0</ele><time>2026-05-01T22:57:38Z</time></trkpt><trkpt lat="45.74572752552657" lon="12.70765647545314"><ele>-0.5</ele><time>2026-05-01T22:57:39Z</time></trkpt><trkpt lat="45.74561296754392" lon="12.707297274595012"><ele>-1.0</ele><time>2026-05-01T22:57:40Z</time></trkpt><trkpt lat="45.745498818451914" lon="12.706940427798036"><ele>-1.0</ele><time>2026-05-01T22:57:41.001Z</time></trkpt><trkpt lat="45.74538423849004" lon="12.706582873917739"><ele>-1.0</ele><time>2026-05-01T22:57:42.001Z</time></trkpt><trkpt lat="45.74526804219269" lon="12.706222778103536"><ele>-1.0</ele><time>2026-05-01T22:57:43.001Z</time></trkpt><trkpt lat="45.74515067396444" lon="12.70586287129036"><ele>-1.0</ele><time>2026-05-01T22:57:44.001Z</time></trkpt><trkpt lat="45.74503269162211" lon="12.705501904450605"><ele>-1.0</ele><time>2026-05-01T22:57:45.001Z</time></trkpt><trkpt lat="45.7449149220256" lon="12.70513870210055"><ele>-1.0</ele><time>2026-05-01T22:57:46.001Z</time></trkpt><trkpt lat="45.74479915204079" lon="12.704772324209285"><ele>0.0</ele><time>2026-05-01T22:57:47.001Z</time></trkpt><trkpt lat="45.74468221457707" lon="12.704400693871142"><ele>1.0</ele><time>2026-05-01T22:57:48.001Z</time></trkpt><trkpt lat="45.744566479491134" lon="12.704032032240171"><ele>1.0</ele><time>2026-05-01T22:57:49.001Z</time></trkpt><trkpt lat="45.74445088571249" lon="12.703659861194982"><ele>1.0</ele><time>2026-05-01T22:57:50.001Z</time></trkpt><trkpt lat="45.74433372161707" lon="12.70328259120606"><ele>0.0</ele><time>2026-05-01T22:57:51.001Z</time></trkpt><trkpt lat="45.744217687507685" lon="12.702904809923394"><ele>-1.0</ele><time>2026-05-01T22:57:52.001Z</time></trkpt><trkpt lat="45.744099959924114" lon="12.702525172312253"><ele>-1.0</ele><time>2026-05-01T22:57:53.001Z</time></trkpt><trkpt lat="45.74398151766768" lon="12.702149855034518"><ele>-1.0</ele><time>2026-05-01T22:57:54.001Z</time></trkpt><trkpt lat="45.743859641738105" lon="12.701774783910416"><ele>-1.0</ele><time>2026-05-01T22:57:55.001Z</time></trkpt><trkpt lat="45.74373712740301" lon="12.70139985501021"><ele>-1.0</ele><time>2026-05-01T22:57:56.001Z</time></trkpt><trkpt lat="45.743615692222725" lon="12.701027872604351"><ele>-0.5</ele><time>2026-05-01T22:57:57.001Z</time></trkpt><trkpt lat="45.74349898378315" lon="12.7006589266463"><ele>0.0</ele><time>2026-05-01T22:57:58.001Z</time></trkpt><trkpt lat="45.74337944974793" lon="12.700291077891697"><ele>0.0</ele><time>2026-05-01T22:57:59.001Z</time></trkpt><trkpt lat="45.74325996095374" lon="12.699923769943181"><ele>0.0</ele><time>2026-05-01T22:58:00.001Z</time></trkpt><trkpt lat="45.743141793851784" lon="12.699554089669983"><ele>-0.5</ele><time>2026-05-01T22:58:01.001Z</time></trkpt><trkpt lat="45.743025778227846" lon="12.699187587960603"><ele>-1.0</ele><time>2026-05-01T22:58:02.001Z</time></trkpt><trkpt lat="45.74290811226619" lon="12.698817394696126"><ele>0.0</ele><time>2026-05-01T22:58:03.001Z</time></trkpt><trkpt lat="45.74279148813703" lon="12.69844491513918"><ele>1.0</ele><time>2026-05-01T22:58:04.001Z</time></trkpt><trkpt lat="45.74267391039091" lon="12.698067912368138"><ele>0.5</ele><time>2026-05-01T22:58:05.001Z</time></trkpt><trkpt lat="45.742553423739004" lon="12.697691362594329"><ele>0.0</ele><time>2026-05-01T22:58:06.001Z</time></trkpt><trkpt lat="45.74243182391307" lon="12.697315092936318"><ele>0.0</ele><time>2026-05-01T22:58:07.001Z</time></trkpt><trkpt lat="45.74231160365286" lon="12.696937585318102"><ele>0.0</ele><time>2026-05-01T22:58:08.001Z</time></trkpt><trkpt lat="45.74218898854172" lon="12.696557591215381"><ele>0.0</ele><time>2026-05-01T22:58:09.001Z</time></trkpt><trkpt lat="45.742067663051046" lon="12.696178764909453"><ele>0.0</ele><time>2026-05-01T22:58:10.001Z</time></trkpt><trkpt lat="45.741946323038405" lon="12.695800151763137"><ele>-1.0</ele><time>2026-05-01T22:58:11.001Z</time></trkpt><trkpt lat="45.74182645209099" lon="12.695422175022387"><ele>-2.0</ele><time>2026-05-01T22:58:12.001Z</time></trkpt><trkpt lat="45.74170605656789" lon="12.695044950222313"><ele>-2.0</ele><time>2026-05-01T22:58:13.001Z</time></trkpt><trkpt lat="45.74158706613886" lon="12.694667357892943"><ele>-2.0</ele><time>2026-05-01T22:58:14.001Z</time></trkpt><trkpt lat="45.74146887142507" lon="12.694294760018764"><ele>-2.0</ele><time>2026-05-01T22:58:15.001Z</time></trkpt><trkpt lat="45.741349736127226" lon="12.693920866104321"><ele>-2.0</ele><time>2026-05-01T22:58:16.001Z</time></trkpt><trkpt lat="45.74123099658373" lon="12.693548348583013"><ele>-2.0</ele><time>2026-05-01T22:58:17.001Z</time></trkpt><trkpt lat="45.74111164136907" lon="12.693176941979042"><ele>-2.0</ele><time>2026-05-01T22:58:18.001Z</time></trkpt><trkpt lat="45.74099247994234" lon="12.692806851282196"><ele>-1.5</ele><time>2026-05-01T22:58:19.001Z</time></trkpt><trkpt lat="45.74087240300906" lon="12.692433299387295"><ele>-1.0</ele><time>2026-05-01T22:58:20.001Z</time></trkpt><trkpt lat="45.740757589022444" lon="12.692063974729319"><ele>-1.0</ele><time>2026-05-01T22:58:21.001Z</time></trkpt><trkpt lat="45.74064288591132" lon="12.691694686251061"><ele>-1.0</ele><time>2026-05-01T22:58:22.001Z</time></trkpt><trkpt lat="45.74052796526685" lon="12.691327848651005"><ele>-0.5</ele><time>2026-05-01T22:58:23.001Z</time></trkpt><trkpt lat="45.740411904874506" lon="12.690965537748804"><ele>0.0</ele><time>2026-05-01T22:58:24.001Z</time></trkpt><trkpt lat="45.740296555419896" lon="12.690609424832074"><ele>0.0</ele><time>2026-05-01T22:58:25.001Z</time></trkpt><trkpt lat="45.740186090205" lon="12.690270358914391"><ele>0.0</ele><time>2026-05-01T22:58:26.001Z</time></trkpt><trkpt lat="45.74007855206691" lon="12.68994581143559"><ele>-1.0</ele><time>2026-05-01T22:58:27.001Z</time></trkpt><trkpt lat="45.73997426653643" lon="12.689625858391395"><ele>-2.0</ele><time>2026-05-01T22:58:28.001Z</time></trkpt><trkpt lat="45.7398713418738" lon="12.689304789812871"><ele>-3.0</ele><time>2026-05-01T22:58:29.001Z</time></trkpt><trkpt lat="45.73976563114011" lon="12.68897953587379"><ele>-4.0</ele><time>2026-05-01T22:58:30.001Z</time></trkpt><trkpt lat="45.73966151858927" lon="12.68865960503642"><ele>-4.0</ele><time>2026-05-01T22:58:31.001Z</time></trkpt><trkpt lat="45.73955854078488" lon="12.688335413199596"><ele>-4.0</ele><time>2026-05-01T22:58:32Z</time></trkpt><trkpt lat="45.7394582315524" lon="12.688015602413593"><ele>-2.5</ele><time>2026-05-01T22:58:33Z</time></trkpt><trkpt lat="45.739356582153555" lon="12.687696405984319"><ele>-1.0</ele><time>2026-05-01T22:58:34Z</time></trkpt><trkpt lat="45.73925397388222" lon="12.68737298439619"><ele>-1.0</ele><time>2026-05-01T22:58:35Z</time></trkpt><trkpt lat="45.739152294289745" lon="12.687054655906989"><ele>-1.0</ele><time>2026-05-01T22:58:36Z</time></trkpt><trkpt lat="45.739051759215855" lon="12.686734894164047"><ele>-0.5</ele><time>2026-05-01T22:58:37Z</time></trkpt><trkpt lat="45.73895056069664" lon="12.686416350004265"><ele>0.0</ele><time>2026-05-01T22:58:38Z</time></trkpt><trkpt lat="45.73885005271663" lon="12.686098403160736"><ele>-0.5</ele><time>2026-05-01T22:58:39Z</time></trkpt><trkpt lat="45.73875092166874" lon="12.685782663318811"><ele>-1.0</ele><time>2026-05-01T22:58:40Z</time></trkpt><trkpt lat="45.73865298971354" lon="12.685475232233507"><ele>1.5</ele><time>2026-05-01T22:58:41Z</time></trkpt><trkpt lat="45.73855393983465" lon="12.685168775002333"><ele>4.0</ele><time>2026-05-01T22:58:42Z</time></trkpt><trkpt lat="45.73845641783664" lon="12.684865816218053"><ele>4.5</ele><time>2026-05-01T22:58:43Z</time></trkpt><trkpt lat="45.738357047628476" lon="12.68455974768416"><ele>5.0</ele><time>2026-05-01T22:58:44Z</time></trkpt><trkpt lat="45.73826099077869" lon="12.68425758284909"><ele>5.0</ele><time>2026-05-01T22:58:45Z</time></trkpt><trkpt lat="45.73816455348786" lon="12.683957020866801"><ele>5.0</ele><time>2026-05-01T22:58:46Z</time></trkpt><trkpt lat="45.738065068428305" lon="12.683653276316425"><ele>5.0</ele><time>2026-05-01T22:58:47Z</time></trkpt><trkpt lat="45.73796800247779" lon="12.68334688276178"><ele>5.0</ele><time>2026-05-01T22:58:48Z</time></trkpt><trkpt lat="45.73786941570753" lon="12.683037591853033"><ele>4.5</ele><time>2026-05-01T22:58:49Z</time></trkpt><trkpt lat="45.737772203912655" lon="12.682731864986922"><ele>4.0</ele><time>2026-05-01T22:58:50Z</time></trkpt><trkpt lat="45.737675323261456" lon="12.682424995645025"><ele>4.0</ele><time>2026-05-01T22:58:51Z</time></trkpt><trkpt lat="45.73757829192026" lon="12.682117273133022"><ele>4.0</ele><time>2026-05-01T22:58:52Z</time></trkpt><trkpt lat="45.7374798940344" lon="12.681811425450379"><ele>4.0</ele><time>2026-05-01T22:58:53Z</time></trkpt><trkpt lat="45.73738143924349" lon="12.681506805279149"><ele>4.0</ele><time>2026-05-01T22:58:54Z</time></trkpt><trkpt lat="45.7372837216303" lon="12.681204472236837"><ele>3.0</ele><time>2026-05-01T22:58:55Z</time></trkpt><trkpt lat="45.73718994417552" lon="12.680902669361377"><ele>2.0</ele><time>2026-05-01T22:58:56Z</time></trkpt><trkpt lat="45.737095069599334" lon="12.680600157765603"><ele>2.0</ele><time>2026-05-01T22:58:57Z</time></trkpt><trkpt lat="45.73699901927367" lon="12.680301669463699"><ele>2.0</ele><time>2026-05-01T22:58:58Z</time></trkpt><trkpt lat="45.73690004908997" lon="12.68001000677777"><ele>2.0</ele><time>2026-05-01T22:58:59Z</time></trkpt><trkpt lat="45.73680493935385" lon="12.679715574485673"><ele>2.0</ele><time>2026-05-01T22:59:00Z</time></trkpt><trkpt lat="45.7367139948954" lon="12.679417668886066"><ele>2.0</ele><time>2026-05-01T22:59:01Z</time></trkpt><trkpt lat="45.73661421883446" lon="12.679127191675555"><ele>2.0</ele><time>2026-05-01T22:59:02Z</time></trkpt><trkpt lat="45.73652039517575" lon="12.678832043238451"><ele>2.0</ele><time>2026-05-01T22:59:03Z</time></trkpt><trkpt lat="45.73643060730591" lon="12.678546747017926"><ele>2.0</ele><time>2026-05-01T22:59:04Z</time></trkpt><trkpt lat="45.73633606474704" lon="12.678258625636232"><ele>2.0</ele><time>2026-05-01T22:59:05Z</time></trkpt><trkpt lat="45.73624678235576" lon="12.67797300585721"><ele>1.6666666666666665</ele><time>2026-05-01T22:59:06Z</time></trkpt><trkpt lat="45.73615489344332" lon="12.677679052058801"><ele>1.3333333333333333</ele><time>2026-05-01T22:59:07Z</time></trkpt><trkpt lat="45.73606344369118" lon="12.677388274892417"><ele>1.0</ele><time>2026-05-01T22:59:08Z</time></trkpt><trkpt lat="45.73596790431098" lon="12.677096840874329"><ele>2.0</ele><time>2026-05-01T22:59:09Z</time></trkpt><trkpt lat="45.73587439109952" lon="12.676797097846903"><ele>3.0</ele><time>2026-05-01T22:59:10Z</time></trkpt><trkpt lat="45.73577912941836" lon="12.676509470629604"><ele>3.0</ele><time>2026-05-01T22:59:11Z</time></trkpt><trkpt lat="45.73568787009241" lon="12.676218999284924"><ele>3.0</ele><time>2026-05-01T22:59:12Z</time></trkpt><trkpt lat="45.73559633205468" lon="12.675922627787513"><ele>3.0</ele><time>2026-05-01T22:59:13Z</time></trkpt><trkpt lat="45.73550273722891" lon="12.675631532366067"><ele>3.5</ele><time>2026-05-01T22:59:14Z</time></trkpt><trkpt lat="45.73540986555601" lon="12.675335656795964"><ele>4.0</ele><time>2026-05-01T22:59:15Z</time></trkpt><trkpt lat="45.735317987769875" lon="12.675043536443631"><ele>4.0</ele><time>2026-05-01T22:59:16Z</time></trkpt><trkpt lat="45.73522346265802" lon="12.67474585170476"><ele>4.0</ele><time>2026-05-01T22:59:17Z</time></trkpt><trkpt lat="45.73512783893742" lon="12.674449718091758"><ele>2.0</ele><time>2026-05-01T22:59:18Z</time></trkpt><trkpt lat="45.73503440921039" lon="12.674148856944234"><ele>0.0</ele><time>2026-05-01T22:59:19Z</time></trkpt><trkpt lat="45.734941329940675" lon="12.673850069365143"><ele>0.5</ele><time>2026-05-01T22:59:20Z</time></trkpt><trkpt lat="45.734844070883256" lon="12.673553496727234"><ele>1.0</ele><time>2026-05-01T22:59:21Z</time></trkpt><trkpt lat="45.73474898525316" lon="12.673253395550791"><ele>1.0</ele><time>2026-05-01T22:59:22Z</time></trkpt><trkpt lat="45.734657533412026" lon="12.672959857386061"><ele>1.0</ele><time>2026-05-01T22:59:23Z</time></trkpt><trkpt lat="45.73456003245228" lon="12.672655320288047"><ele>1.5</ele><time>2026-05-01T22:59:24Z</time></trkpt><trkpt lat="45.73446366776237" lon="12.67235468171031"><ele>2.0</ele><time>2026-05-01T22:59:25Z</time></trkpt><trkpt lat="45.73436523252883" lon="12.67206024352941"><ele>2.0</ele><time>2026-05-01T22:59:26Z</time></trkpt><trkpt lat="45.734277281164744" lon="12.671755287989646"><ele>2.0</ele><time>2026-05-01T22:59:27Z</time></trkpt><trkpt lat="45.73418159062503" lon="12.671445074913347"><ele>2.0</ele><time>2026-05-01T22:59:28Z</time></trkpt><trkpt lat="45.7340824416626" lon="12.67113783306821"><ele>2.0</ele><time>2026-05-01T22:59:29Z</time></trkpt><trkpt lat="45.73398450755613" lon="12.670827277935727"><ele>1.0</ele><time>2026-05-01T22:59:30Z</time></trkpt><trkpt lat="45.73388218648645" lon="12.670518829349621"><ele>0.0</ele><time>2026-05-01T22:59:31Z</time></trkpt><trkpt lat="45.73380180160377" lon="12.670233294128233"><ele>0.0</ele><time>2026-05-01T22:59:32Z</time></trkpt><trkpt lat="45.73374235129947" lon="12.669934479808607"><ele>0.0</ele><time>2026-05-01T22:59:33Z</time></trkpt><trkpt lat="45.73364631642935" lon="12.669663933509915"><ele>0.0</ele><time>2026-05-01T22:59:34Z</time></trkpt><trkpt lat="45.733464514639756" lon="12.669231002825258"><ele>-0.5</ele><time>2026-05-01T22:59:35Z</time></trkpt><trkpt lat="45.733341638501855" lon="12.668877208231207"><ele>-1.0</ele><time>2026-05-01T22:59:36Z</time></trkpt><trkpt lat="45.73321280631666" lon="12.66850934875128"><ele>0.0</ele><time>2026-05-01T22:59:37Z</time></trkpt><trkpt lat="45.73308866119471" lon="12.668134603558196"><ele>1.0</ele><time>2026-05-01T22:59:38Z</time></trkpt><trkpt lat="45.73296975205384" lon="12.667749111652665"><ele>1.0</ele><time>2026-05-01T22:59:39Z</time></trkpt><trkpt lat="45.732850880562445" lon="12.667363048298963"><ele>1.0</ele><time>2026-05-01T22:59:40Z</time></trkpt><trkpt lat="45.73272852257745" lon="12.666974703745222"><ele>0.0</ele><time>2026-05-01T22:59:41Z</time></trkpt><trkpt lat="45.73260278655183" lon="12.66659593452884"><ele>-1.0</ele><time>2026-05-01T22:59:42Z</time></trkpt><trkpt lat="45.732484898142495" lon="12.666219556085045"><ele>0.0</ele><time>2026-05-01T22:59:43Z</time></trkpt><trkpt lat="45.73237004185136" lon="12.665846285668831"><ele>1.0</ele><time>2026-05-01T22:59:44Z</time></trkpt><trkpt lat="45.73225320170182" lon="12.665482048535505"><ele>1.5</ele><time>2026-05-01T22:59:45Z</time></trkpt><trkpt lat="45.73213263680093" lon="12.665117421611809"><ele>2.0</ele><time>2026-05-01T22:59:46Z</time></trkpt><trkpt lat="45.732014134576325" lon="12.664751552478592"><ele>1.5</ele><time>2026-05-01T22:59:47Z</time></trkpt><trkpt lat="45.73189704080886" lon="12.664386835952516"><ele>1.0</ele><time>2026-05-01T22:59:48Z</time></trkpt><trkpt lat="45.73178006009141" lon="12.664014291854516"><ele>0.5</ele><time>2026-05-01T22:59:49Z</time></trkpt><trkpt lat="45.73166105127999" lon="12.663641872198381"><ele>0.0</ele><time>2026-05-01T22:59:50Z</time></trkpt><trkpt lat="45.731541175011046" lon="12.663275392004968"><ele>0.0</ele><time>2026-05-01T22:59:51Z</time></trkpt><trkpt lat="45.7314190742568" lon="12.662898652521683"><ele>0.0</ele><time>2026-05-01T22:59:52Z</time></trkpt><trkpt lat="45.731297223820434" lon="12.66252678810879"><ele>0.0</ele><time>2026-05-01T22:59:53.001Z</time></trkpt><trkpt lat="45.73117591396592" lon="12.662156389260035"><ele>0.0</ele><time>2026-05-01T22:59:54.001Z</time></trkpt><trkpt lat="45.73105845482482" lon="12.661785626460574"><ele>0.5</ele><time>2026-05-01T22:59:55.001Z</time></trkpt><trkpt lat="45.730941168485565" lon="12.661416726228076"><ele>1.0</ele><time>2026-05-01T22:59:56.001Z</time></trkpt><trkpt lat="45.73082096747602" lon="12.66104822872518"><ele>1.0</ele><time>2026-05-01T22:59:57.001Z</time></trkpt><trkpt lat="45.73070719672259" lon="12.66067767041027"><ele>1.0</ele><time>2026-05-01T22:59:58.001Z</time></trkpt><trkpt lat="45.730590047574275" lon="12.66031860603799"><ele>-0.5</ele><time>2026-05-01T22:59:59.001Z</time></trkpt><trkpt lat="45.73047463065214" lon="12.659951400247833"><ele>-2.0</ele><time>2026-05-01T23:00:00.001Z</time></trkpt><trkpt lat="45.73035535618132" lon="12.659588946092198"><ele>-1.0</ele><time>2026-05-01T23:00:01.001Z</time></trkpt><trkpt lat="45.730236624088" lon="12.659227474151457"><ele>0.0</ele><time>2026-05-01T23:00:02.001Z</time></trkpt><trkpt lat="45.73012230682041" lon="12.658858255141801"><ele>0.0</ele><time>2026-05-01T23:00:03.001Z</time></trkpt><trkpt lat="45.7300096698198" lon="12.658489303888086"><ele>0.0</ele><time>2026-05-01T23:00:04.001Z</time></trkpt><trkpt lat="45.72988935237395" lon="12.658123959038289"><ele>-0.5</ele><time>2026-05-01T23:00:05.001Z</time></trkpt><trkpt lat="45.729765373707075" lon="12.657757337838788"><ele>-1.0</ele><time>2026-05-01T23:00:06.001Z</time></trkpt><trkpt lat="45.72965082808436" lon="12.65738915608267"><ele>-1.0</ele><time>2026-05-01T23:00:07.001Z</time></trkpt><trkpt lat="45.72953484822136" lon="12.657013906436395"><ele>-1.0</ele><time>2026-05-01T23:00:08.001Z</time></trkpt><trkpt lat="45.72941998507451" lon="12.656645062103566"><ele>-1.0</ele><time>2026-05-01T23:00:09.001Z</time></trkpt><trkpt lat="45.7292996255611" lon="12.656271574985427"><ele>-1.0</ele><time>2026-05-01T23:00:10.001Z</time></trkpt><trkpt lat="45.729178570555206" lon="12.655900389414663"><ele>-1.0</ele><time>2026-05-01T23:00:11.001Z</time></trkpt><trkpt lat="45.72906094981505" lon="12.655530164089685"><ele>-1.0</ele><time>2026-05-01T23:00:12.001Z</time></trkpt><trkpt lat="45.728940876931446" lon="12.65515854740871"><ele>-1.5</ele><time>2026-05-01T23:00:13.001Z</time></trkpt><trkpt lat="45.728828434884264" lon="12.65478245394571"><ele>-2.0</ele><time>2026-05-01T23:00:14.001Z</time></trkpt><trkpt lat="45.728711741901726" lon="12.654407318671812"><ele>-2.0</ele><time>2026-05-01T23:00:15.001Z</time></trkpt><trkpt lat="45.728589972618884" lon="12.65404288886291"><ele>-2.0</ele><time>2026-05-01T23:00:16.001Z</time></trkpt><trkpt lat="45.728465298068755" lon="12.653670973661413"><ele>-2.5</ele><time>2026-05-01T23:00:17.001Z</time></trkpt><trkpt lat="45.728338699719515" lon="12.653292773501628"><ele>-3.0</ele><time>2026-05-01T23:00:18.001Z</time></trkpt><trkpt lat="45.72821556187914" lon="12.652917720672116"><ele>-3.0</ele><time>2026-05-01T23:00:19.001Z</time></trkpt><trkpt lat="45.72808727572243" lon="12.652547626252472"><ele>-3.0</ele><time>2026-05-01T23:00:20.001Z</time></trkpt><trkpt lat="45.7279583561644" lon="12.652168352134474"><ele>-2.0</ele><time>2026-05-01T23:00:21.001Z</time></trkpt><trkpt lat="45.7278288404779" lon="12.651789065048103"><ele>-1.0</ele><time>2026-05-01T23:00:22.001Z</time></trkpt><trkpt lat="45.727695428809874" lon="12.651414145736986"><ele>-0.5</ele><time>2026-05-01T23:00:23.001Z</time></trkpt><trkpt lat="45.7275578861284" lon="12.651036882673774"><ele>0.0</ele><time>2026-05-01T23:00:24.001Z</time></trkpt><trkpt lat="45.72741941638847" lon="12.650663171146675"><ele>0.0</ele><time>2026-05-01T23:00:25.001Z</time></trkpt><trkpt lat="45.72727676067649" lon="12.650284773056256"><ele>0.0</ele><time>2026-05-01T23:00:26.001Z</time></trkpt><trkpt lat="45.727135115141074" lon="12.649904486034103"><ele>0.0</ele><time>2026-05-01T23:00:27.001Z</time></trkpt><trkpt lat="45.726993880618615" lon="12.649528332323483"><ele>0.0</ele><time>2026-05-01T23:00:28.001Z</time></trkpt><trkpt lat="45.72684898625484" lon="12.649155723268322"><ele>0.0</ele><time>2026-05-01T23:00:29.001Z</time></trkpt><trkpt lat="45.726706697042715" lon="12.648785464538163"><ele>0.0</ele><time>2026-05-01T23:00:30.001Z</time></trkpt><trkpt lat="45.72656284161096" lon="12.64841793783612"><ele>0.5</ele><time>2026-05-01T23:00:31.001Z</time></trkpt><trkpt lat="45.72642224579605" lon="12.64804386604316"><ele>1.0</ele><time>2026-05-01T23:00:32.001Z</time></trkpt><trkpt lat="45.72628130500899" lon="12.647667680955216"><ele>0.0</ele><time>2026-05-01T23:00:33.001Z</time></trkpt><trkpt lat="45.72614251015684" lon="12.647293483540738"><ele>-1.0</ele><time>2026-05-01T23:00:34.001Z</time></trkpt><trkpt lat="45.72599848812502" lon="12.646931637253816"><ele>-1.0</ele><time>2026-05-01T23:00:35.001Z</time></trkpt><trkpt lat="45.72584953948677" lon="12.646567781156419"><ele>-1.0</ele><time>2026-05-01T23:00:36.001Z</time></trkpt><trkpt lat="45.725696427650576" lon="12.646210534949175"><ele>0.5</ele><time>2026-05-01T23:00:37.001Z</time></trkpt><trkpt lat="45.72554023412168" lon="12.64584871308674"><ele>2.0</ele><time>2026-05-01T23:00:38Z</time></trkpt><trkpt lat="45.72538304914857" lon="12.645491975406296"><ele>-0.5</ele><time>2026-05-01T23:00:39Z</time></trkpt><trkpt lat="45.725223323348516" lon="12.645130975359754"><ele>-3.0</ele><time>2026-05-01T23:00:40Z</time></trkpt><trkpt lat="45.72506183283255" lon="12.644775960680503"><ele>-3.0</ele><time>2026-05-01T23:00:41Z</time></trkpt><trkpt lat="45.72489836036547" lon="12.644418737915608"><ele>-3.0</ele><time>2026-05-01T23:00:42Z</time></trkpt><trkpt lat="45.724735657523745" lon="12.64406628120078"><ele>-3.0</ele><time>2026-05-01T23:00:43Z</time></trkpt><trkpt lat="45.72456857479577" lon="12.6437086722521"><ele>-3.0</ele><time>2026-05-01T23:00:44Z</time></trkpt><trkpt lat="45.72440129710102" lon="12.643360781998107"><ele>-3.0</ele><time>2026-05-01T23:00:45Z</time></trkpt><trkpt lat="45.72423221311259" lon="12.643008230390478"><ele>-3.0</ele><time>2026-05-01T23:00:46Z</time></trkpt><trkpt lat="45.72406413421428" lon="12.64266428793491"><ele>-2.5</ele><time>2026-05-01T23:00:47Z</time></trkpt><trkpt lat="45.7238961228347" lon="12.642319017145118"><ele>-2.0</ele><time>2026-05-01T23:00:48Z</time></trkpt><trkpt lat="45.72373613153746" lon="12.64199247270829"><ele>-1.5</ele><time>2026-05-01T23:00:49Z</time></trkpt><trkpt lat="45.72357621743574" lon="12.641662287079145"><ele>-1.0</ele><time>2026-05-01T23:00:50Z</time></trkpt><trkpt lat="45.72340935824903" lon="12.641326802995513"><ele>-0.5</ele><time>2026-05-01T23:00:51Z</time></trkpt><trkpt lat="45.72323930055395" lon="12.640994990563163"><ele>0.0</ele><time>2026-05-01T23:00:52Z</time></trkpt><trkpt lat="45.723065654634894" lon="12.640650583754217"><ele>0.0</ele><time>2026-05-01T23:00:53Z</time></trkpt><trkpt lat="45.722888807072884" lon="12.640314599029416"><ele>0.0</ele><time>2026-05-01T23:00:54Z</time></trkpt><trkpt lat="45.722708408837995" lon="12.639973984544243"><ele>0.0</ele><time>2026-05-01T23:00:55Z</time></trkpt><trkpt lat="45.722524709433266" lon="12.639633235815529"><ele>0.0</ele><time>2026-05-01T23:00:56Z</time></trkpt><trkpt lat="45.7223427239002" lon="12.639293646874748"><ele>0.0</ele><time>2026-05-01T23:00:57Z</time></trkpt><trkpt lat="45.722159576142424" lon="12.638955277038303"><ele>0.0</ele><time>2026-05-01T23:00:58Z</time></trkpt><trkpt lat="45.72197746970762" lon="12.638618280972201"><ele>-1.0</ele><time>2026-05-01T23:00:59Z</time></trkpt><trkpt lat="45.72179054711507" lon="12.638279172846481"><ele>-2.0</ele><time>2026-05-01T23:01:00Z</time></trkpt><trkpt lat="45.72160369325685" lon="12.637947514723397"><ele>-3.0</ele><time>2026-05-01T23:01:01Z</time></trkpt><trkpt lat="45.721414929377026" lon="12.637618318666357"><ele>-4.0</ele><time>2026-05-01T23:01:02Z</time></trkpt><trkpt lat="45.721225187795554" lon="12.637290673747586"><ele>-1.5</ele><time>2026-05-01T23:01:03Z</time></trkpt><trkpt lat="45.7210348132929" lon="12.63696497564213"><ele>1.0</ele><time>2026-05-01T23:01:04Z</time></trkpt><trkpt lat="45.72084658255748" lon="12.63664353268487"><ele>1.0</ele><time>2026-05-01T23:01:05Z</time></trkpt><trkpt lat="45.72065517590037" lon="12.636318949088292"><ele>1.0</ele><time>2026-05-01T23:01:06Z</time></trkpt><trkpt lat="45.7204661019152" lon="12.635999084724386"><ele>0.5</ele><time>2026-05-01T23:01:07Z</time></trkpt><trkpt lat="45.720278522591975" lon="12.635677979670405"><ele>0.0</ele><time>2026-05-01T23:01:08Z</time></trkpt><trkpt lat="45.720091134747136" lon="12.63535689355845"><ele>-1.0</ele><time>2026-05-01T23:01:09Z</time></trkpt><trkpt lat="45.719905662458416" lon="12.635036979327847"><ele>-2.0</ele><time>2026-05-01T23:01:10Z</time></trkpt><trkpt lat="45.71972240222278" lon="12.63471539599612"><ele>-2.0</ele><time>2026-05-01T23:01:11Z</time></trkpt><trkpt lat="45.71953768447904" lon="12.634395125298209"><ele>-2.0</ele><time>2026-05-01T23:01:12Z</time></trkpt><trkpt lat="45.71935648641968" lon="12.634077129267528"><ele>-1.0</ele><time>2026-05-01T23:01:13Z</time></trkpt><trkpt lat="45.71917409366448" lon="12.633755916791758"><ele>0.0</ele><time>2026-05-01T23:01:14Z</time></trkpt><trkpt lat="45.71899202131355" lon="12.63343972263074"><ele>0.0</ele><time>2026-05-01T23:01:15Z</time></trkpt><trkpt lat="45.71880908583992" lon="12.63312550634293"><ele>0.0</ele><time>2026-05-01T23:01:16Z</time></trkpt><trkpt lat="45.71862847749309" lon="12.632818723245755"><ele>-1.0</ele><time>2026-05-01T23:01:17Z</time></trkpt><trkpt lat="45.71844756522616" lon="12.63250378863165"><ele>-2.0</ele><time>2026-05-01T23:01:18Z</time></trkpt><trkpt lat="45.71826766664045" lon="12.632191623216325"><ele>-2.0</ele><time>2026-05-01T23:01:19Z</time></trkpt><trkpt lat="45.718087527008606" lon="12.631876946452497"><ele>-2.0</ele><time>2026-05-01T23:01:20Z</time></trkpt><trkpt lat="45.71790772125886" lon="12.631564306289281"><ele>-1.0</ele><time>2026-05-01T23:01:21Z</time></trkpt><trkpt lat="45.71772609697272" lon="12.631252370200196"><ele>0.0</ele><time>2026-05-01T23:01:22Z</time></trkpt><trkpt lat="45.717540817384965" lon="12.63093948778735"><ele>0.0</ele><time>2026-05-01T23:01:23Z</time></trkpt><trkpt lat="45.71735430548056" lon="12.630626556816356"><ele>0.0</ele><time>2026-05-01T23:01:24Z</time></trkpt><trkpt lat="45.71716462603146" lon="12.63030510290301"><ele>0.0</ele><time>2026-05-01T23:01:25Z</time></trkpt><trkpt lat="45.716974624313394" lon="12.629984248496262"><ele>0.0</ele><time>2026-05-01T23:01:26Z</time></trkpt><trkpt lat="45.71678751756724" lon="12.629667007596506"><ele>0.0</ele><time>2026-05-01T23:01:27Z</time></trkpt><trkpt lat="45.71659937680878" lon="12.629342209777345"><ele>0.0</ele><time>2026-05-01T23:01:28Z</time></trkpt><trkpt lat="45.71640962205712" lon="12.629015425095133"><ele>0.0</ele><time>2026-05-01T23:01:29Z</time></trkpt><trkpt lat="45.71622153320045" lon="12.628689753488086"><ele>0.0</ele><time>2026-05-01T23:01:30Z</time></trkpt><trkpt lat="45.716034510395545" lon="12.628364050180773"><ele>0.5</ele><time>2026-05-01T23:01:31Z</time></trkpt><trkpt lat="45.715847576460334" lon="12.62804056173309"><ele>1.0</ele><time>2026-05-01T23:01:32Z</time></trkpt><trkpt lat="45.71565629563706" lon="12.627716419267317"><ele>1.0</ele><time>2026-05-01T23:01:33Z</time></trkpt><trkpt lat="45.71546661099445" lon="12.627393261091582"><ele>1.0</ele><time>2026-05-01T23:01:34Z</time></trkpt><trkpt lat="45.71527836231877" lon="12.627069881802573"><ele>0.5</ele><time>2026-05-01T23:01:35Z</time></trkpt><trkpt lat="45.71508944366319" lon="12.62674565167655"><ele>0.0</ele><time>2026-05-01T23:01:36Z</time></trkpt><trkpt lat="45.71490292202824" lon="12.626421351980992"><ele>0.5</ele><time>2026-05-01T23:01:37Z</time></trkpt><trkpt lat="45.71471591032986" lon="12.626095173652732"><ele>1.0</ele><time>2026-05-01T23:01:38Z</time></trkpt><trkpt lat="45.71452772446636" lon="12.6257686857796"><ele>1.5</ele><time>2026-05-01T23:01:39Z</time></trkpt><trkpt lat="45.71433849946694" lon="12.62544235461963"><ele>2.0</ele><time>2026-05-01T23:01:40Z</time></trkpt><trkpt lat="45.71415340049175" lon="12.625118706034215"><ele>2.0</ele><time>2026-05-01T23:01:41Z</time></trkpt><trkpt lat="45.71396385666654" lon="12.624790938863857"><ele>2.0</ele><time>2026-05-01T23:01:42Z</time></trkpt><trkpt lat="45.71377569831587" lon="12.624467519688402"><ele>1.0</ele><time>2026-05-01T23:01:43Z</time></trkpt><trkpt lat="45.713586345530146" lon="12.624142891281672"><ele>0.0</ele><time>2026-05-01T23:01:44Z</time></trkpt><trkpt lat="45.71339766281411" lon="12.623820677462229"><ele>-0.5</ele><time>2026-05-01T23:01:45Z</time></trkpt><trkpt lat="45.7132076589798" lon="12.623493001115998"><ele>-1.0</ele><time>2026-05-01T23:01:46Z</time></trkpt><trkpt lat="45.713021045528066" lon="12.623175050431733"><ele>-1.0</ele><time>2026-05-01T23:01:47Z</time></trkpt><trkpt lat="45.71283151234495" lon="12.622852269288915"><ele>-1.0</ele><time>2026-05-01T23:01:48Z</time></trkpt><trkpt lat="45.71264396110416" lon="12.622532083316152"><ele>0.0</ele><time>2026-05-01T23:01:49Z</time></trkpt><trkpt lat="45.712457414755505" lon="12.622213615021188"><ele>1.0</ele><time>2026-05-01T23:01:50Z</time></trkpt><trkpt lat="45.712270492006276" lon="12.621893326220038"><ele>1.5</ele><time>2026-05-01T23:01:51Z</time></trkpt><trkpt lat="45.71208945670029" lon="12.62157777529157"><ele>2.0</ele><time>2026-05-01T23:01:52Z</time></trkpt><trkpt lat="45.71191969167848" lon="12.621279351253074"><ele>2.0</ele><time>2026-05-01T23:01:53Z</time></trkpt><trkpt lat="45.71175697220758" lon="12.621001649400103"><ele>2.0</ele><time>2026-05-01T23:01:54Z</time></trkpt><trkpt lat="45.71160211258547" lon="12.620714948182682"><ele>2.0</ele><time>2026-05-01T23:01:55Z</time></trkpt><trkpt lat="45.71143895788776" lon="12.620437761244022"><ele>2.0</ele><time>2026-05-01T23:01:56Z</time></trkpt><trkpt lat="45.71127426221467" lon="12.620149730177367"><ele>1.5</ele><time>2026-05-01T23:01:57Z</time></trkpt><trkpt lat="45.711109049304945" lon="12.619863023450446"><ele>1.0</ele><time>2026-05-01T23:01:58Z</time></trkpt><trkpt lat="45.710945528468535" lon="12.61957684270992"><ele>2.0</ele><time>2026-05-01T23:01:59Z</time></trkpt><trkpt lat="45.710783509244" lon="12.619289148084892"><ele>3.0</ele><time>2026-05-01T23:02:00.001Z</time></trkpt><trkpt lat="45.71062224396571" lon="12.619000870319178"><ele>3.0</ele><time>2026-05-01T23:02:01.001Z</time></trkpt><trkpt lat="45.71046070430412" lon="12.618707161489285"><ele>3.0</ele><time>2026-05-01T23:02:02.001Z</time></trkpt><trkpt lat="45.71030402990713" lon="12.618421641937475"><ele>2.5</ele><time>2026-05-01T23:02:03.001Z</time></trkpt><trkpt lat="45.710147957582976" lon="12.618130479208139"><ele>2.0</ele><time>2026-05-01T23:02:04.001Z</time></trkpt><trkpt lat="45.70999313786032" lon="12.617843701334891"><ele>2.0</ele><time>2026-05-01T23:02:05.001Z</time></trkpt><trkpt lat="45.70983792147079" lon="12.617552842207411"><ele>2.0</ele><time>2026-05-01T23:02:06.001Z</time></trkpt><trkpt lat="45.70968736461554" lon="12.617260673049653"><ele>2.0</ele><time>2026-05-01T23:02:07.001Z</time></trkpt><trkpt lat="45.70953651952498" lon="12.616965617705826"><ele>2.0</ele><time>2026-05-01T23:02:08.001Z</time></trkpt><trkpt lat="45.70938654211457" lon="12.616670296729756"><ele>2.0</ele><time>2026-05-01T23:02:09.001Z</time></trkpt><trkpt lat="45.70923889032135" lon="12.616376700788123"><ele>2.0</ele><time>2026-05-01T23:02:10.001Z</time></trkpt><trkpt lat="45.7090902703295" lon="12.61607853749643"><ele>1.0</ele><time>2026-05-01T23:02:11.001Z</time></trkpt><trkpt lat="45.708943248678295" lon="12.615785535203527"><ele>0.0</ele><time>2026-05-01T23:02:12.001Z</time></trkpt><trkpt lat="45.708797215387804" lon="12.615489145361101"><ele>0.5</ele><time>2026-05-01T23:02:13.001Z</time></trkpt><trkpt lat="45.70865015701395" lon="12.615186607418728"><ele>1.0</ele><time>2026-05-01T23:02:14.001Z</time></trkpt><trkpt lat="45.70850645915742" lon="12.614888237499603"><ele>1.5</ele><time>2026-05-01T23:02:15.001Z</time></trkpt><trkpt lat="45.708362417586685" lon="12.614583137002384"><ele>2.0</ele><time>2026-05-01T23:02:16.001Z</time></trkpt><trkpt lat="45.708223061834346" lon="12.61427730361557"><ele>2.0</ele><time>2026-05-01T23:02:17.001Z</time></trkpt><trkpt lat="45.70808354495066" lon="12.613967348016972"><ele>2.0</ele><time>2026-05-01T23:02:18.001Z</time></trkpt><trkpt lat="45.70794399707094" lon="12.613656018846676"><ele>1.5</ele><time>2026-05-01T23:02:19.001Z</time></trkpt><trkpt lat="45.70780479394923" lon="12.613345911188734"><ele>1.0</ele><time>2026-05-01T23:02:20.001Z</time></trkpt><trkpt lat="45.70766492223739" lon="12.613032613313631"><ele>1.5</ele><time>2026-05-01T23:02:21.001Z</time></trkpt><trkpt lat="45.707526523542775" lon="12.612720254719214"><ele>2.0</ele><time>2026-05-01T23:02:22.001Z</time></trkpt><trkpt lat="45.70739148118586" lon="12.61241170536913"><ele>2.0</ele><time>2026-05-01T23:02:23.001Z</time></trkpt><trkpt lat="45.70725759302255" lon="12.612107490574997"><ele>2.0</ele><time>2026-05-01T23:02:24.001Z</time></trkpt><trkpt lat="45.70712287558368" lon="12.611800694350208"><ele>2.0</ele><time>2026-05-01T23:02:25.001Z</time></trkpt><trkpt lat="45.70698855102483" lon="12.611494798650385"><ele>2.0</ele><time>2026-05-01T23:02:26.001Z</time></trkpt><trkpt lat="45.70685665301408" lon="12.611189536408029"><ele>1.5</ele><time>2026-05-01T23:02:27.001Z</time></trkpt><trkpt lat="45.70672670310338" lon="12.610885423632897"><ele>1.0</ele><time>2026-05-01T23:02:28.001Z</time></trkpt><trkpt lat="45.70660034109034" lon="12.610581041041552"><ele>1.0</ele><time>2026-05-01T23:02:29.001Z</time></trkpt><trkpt lat="45.706474497565715" lon="12.610276584829332"><ele>1.0</ele><time>2026-05-01T23:02:30.001Z</time></trkpt><trkpt lat="45.70635153796082" lon="12.609974302466576"><ele>1.0</ele><time>2026-05-01T23:02:31.001Z</time></trkpt><trkpt lat="45.70622919325495" lon="12.609671225597893"><ele>1.0</ele><time>2026-05-01T23:02:32.001Z</time></trkpt><trkpt lat="45.70610871143546" lon="12.60936902212259"><ele>0.5</ele><time>2026-05-01T23:02:33.001Z</time></trkpt><trkpt lat="45.70598997786773" lon="12.609066745456687"><ele>0.0</ele><time>2026-05-01T23:02:34.001Z</time></trkpt><trkpt lat="45.70587402334411" lon="12.608767911227266"><ele>0.5</ele><time>2026-05-01T23:02:35.001Z</time></trkpt><trkpt lat="45.7057593061189" lon="12.608470123130592"><ele>1.0</ele><time>2026-05-01T23:02:36.001Z</time></trkpt><trkpt lat="45.70564451845618" lon="12.608171762642828"><ele>1.0</ele><time>2026-05-01T23:02:37.001Z</time></trkpt><trkpt lat="45.705530373233096" lon="12.60787423275243"><ele>1.0</ele><time>2026-05-01T23:02:38.001Z</time></trkpt><trkpt lat="45.70541918136284" lon="12.607579120343319"><ele>1.0</ele><time>2026-05-01T23:02:39.001Z</time></trkpt><trkpt lat="45.70531012729138" lon="12.607285960122608"><ele>1.0</ele><time>2026-05-01T23:02:40.001Z</time></trkpt><trkpt lat="45.705205172240206" lon="12.60698822129415"><ele>1.0</ele><time>2026-05-01T23:02:41.001Z</time></trkpt><trkpt lat="45.705097847371285" lon="12.606686815054955"><ele>1.0</ele><time>2026-05-01T23:02:42.001Z</time></trkpt><trkpt lat="45.704990978727544" lon="12.606387660849913"><ele>1.5</ele><time>2026-05-01T23:02:43.001Z</time></trkpt><trkpt lat="45.704883474462406" lon="12.606086170054777"><ele>2.0</ele><time>2026-05-01T23:02:44Z</time></trkpt><trkpt lat="45.70477403655207" lon="12.605782700170709"><ele>2.0</ele><time>2026-05-01T23:02:45Z</time></trkpt><trkpt lat="45.704663332760916" lon="12.605476917278875"><ele>2.0</ele><time>2026-05-01T23:02:46Z</time></trkpt><trkpt lat="45.70455079510092" lon="12.60516848274146"><ele>1.5</ele><time>2026-05-01T23:02:47Z</time></trkpt><trkpt lat="45.70443746649563" lon="12.604858938841124"><ele>1.0</ele><time>2026-05-01T23:02:48Z</time></trkpt><trkpt lat="45.70432506440465" lon="12.604548431314695"><ele>1.5</ele><time>2026-05-01T23:02:49Z</time></trkpt><trkpt lat="45.70421150150497" lon="12.604238423449452"><ele>2.0</ele><time>2026-05-01T23:02:50Z</time></trkpt><trkpt lat="45.70410173941371" lon="12.603936091049148"><ele>2.5</ele><time>2026-05-01T23:02:51Z</time></trkpt><trkpt lat="45.703998326579296" lon="12.603641660785668"><ele>3.0</ele><time>2026-05-01T23:02:52Z</time></trkpt><trkpt lat="45.70389184699633" lon="12.603335735726425"><ele>3.0</ele><time>2026-05-01T23:02:53Z</time></trkpt><trkpt lat="45.70378178022736" lon="12.603020662545427"><ele>3.0</ele><time>2026-05-01T23:02:54Z</time></trkpt><trkpt lat="45.70366978204777" lon="12.602698397529904"><ele>2.0</ele><time>2026-05-01T23:02:55Z</time></trkpt><trkpt lat="45.70355409754361" lon="12.602371198693431"><ele>1.0</ele><time>2026-05-01T23:02:56Z</time></trkpt><trkpt lat="45.70343583841565" lon="12.602041945550548"><ele>1.0</ele><time>2026-05-01T23:02:57Z</time></trkpt><trkpt lat="45.70331503858473" lon="12.601709121560662"><ele>1.0</ele><time>2026-05-01T23:02:58Z</time></trkpt><trkpt lat="45.70319371206849" lon="12.60137610933007"><ele>1.5</ele><time>2026-05-01T23:02:59Z</time></trkpt><trkpt lat="45.7030725789745" lon="12.60104157287394"><ele>2.0</ele><time>2026-05-01T23:03:00Z</time></trkpt><trkpt lat="45.7029514452099" lon="12.60070687636978"><ele>2.0</ele><time>2026-05-01T23:03:01Z</time></trkpt><trkpt lat="45.70283176868694" lon="12.600374930811828"><ele>2.0</ele><time>2026-05-01T23:03:02Z</time></trkpt><trkpt lat="45.70271453227997" lon="12.600052723668169"><ele>2.0</ele><time>2026-05-01T23:03:03Z</time></trkpt><trkpt lat="45.70260524268196" lon="12.599750010506677"><ele>2.0</ele><time>2026-05-01T23:03:04Z</time></trkpt><trkpt lat="45.702498268010736" lon="12.599447715647205"><ele>2.5</ele><time>2026-05-01T23:03:05Z</time></trkpt><trkpt lat="45.70238928356673" lon="12.599141138464013"><ele>3.0</ele><time>2026-05-01T23:03:06Z</time></trkpt><trkpt lat="45.702276961113284" lon="12.598829827157147"><ele>2.5</ele><time>2026-05-01T23:03:07Z</time></trkpt><trkpt lat="45.70215794921408" lon="12.59852009132545"><ele>2.0</ele><time>2026-05-01T23:03:08Z</time></trkpt><trkpt lat="45.702037273604944" lon="12.598210111201121"><ele>2.0</ele><time>2026-05-01T23:03:09Z</time></trkpt><trkpt lat="45.70191567670043" lon="12.597897436803759"><ele>2.0</ele><time>2026-05-01T23:03:10Z</time></trkpt><trkpt lat="45.70179467721757" lon="12.597579640207703"><ele>2.0</ele><time>2026-05-01T23:03:11Z</time></trkpt><trkpt lat="45.70167806086167" lon="12.597257246153003"><ele>2.0</ele><time>2026-05-01T23:03:12Z</time></trkpt><trkpt lat="45.7015620438101" lon="12.596932989746525"><ele>2.0</ele><time>2026-05-01T23:03:13Z</time></trkpt><trkpt lat="45.701445352316554" lon="12.596607281829048"><ele>2.0</ele><time>2026-05-01T23:03:14Z</time></trkpt><trkpt lat="45.7013289270209" lon="12.596281450153226"><ele>2.0</ele><time>2026-05-01T23:03:15Z</time></trkpt><trkpt lat="45.70121115447656" lon="12.595951465237478"><ele>2.0</ele><time>2026-05-01T23:03:16Z</time></trkpt><trkpt lat="45.70109246772828" lon="12.595621916882575"><ele>0.5</ele><time>2026-05-01T23:03:17Z</time></trkpt><trkpt lat="45.70097278247362" lon="12.595291302120202"><ele>-1.0</ele><time>2026-05-01T23:03:18Z</time></trkpt><trkpt lat="45.70085321891041" lon="12.594960466217143"><ele>-1.0</ele><time>2026-05-01T23:03:19Z</time></trkpt><trkpt lat="45.70073627551278" lon="12.594626416838462"><ele>-1.0</ele><time>2026-05-01T23:03:20Z</time></trkpt><trkpt lat="45.700621279627526" lon="12.594287963482959"><ele>-0.5</ele><time>2026-05-01T23:03:21Z</time></trkpt><trkpt lat="45.700508191746515" lon="12.593946668065477"><ele>0.0</ele><time>2026-05-01T23:03:22Z</time></trkpt><trkpt lat="45.7003943880814" lon="12.593605904410804"><ele>0.0</ele><time>2026-05-01T23:03:23Z</time></trkpt><trkpt lat="45.70027827952986" lon="12.59326366554776"><ele>0.0</ele><time>2026-05-01T23:03:24Z</time></trkpt><trkpt lat="45.700161988993855" lon="12.592928027570549"><ele>1.5</ele><time>2026-05-01T23:03:25Z</time></trkpt><trkpt lat="45.70004339718954" lon="12.592590932875563"><ele>3.0</ele><time>2026-05-01T23:03:26Z</time></trkpt><trkpt lat="45.69992336205552" lon="12.592254582939468"><ele>2.5</ele><time>2026-05-01T23:03:27Z</time></trkpt><trkpt lat="45.699802830405" lon="12.591918504529179"><ele>2.0</ele><time>2026-05-01T23:03:28Z</time></trkpt><trkpt lat="45.699682311934566" lon="12.59158373569689"><ele>2.0</ele><time>2026-05-01T23:03:29Z</time></trkpt><trkpt lat="45.699559936098744" lon="12.591250602008223"><ele>2.0</ele><time>2026-05-01T23:03:30Z</time></trkpt><trkpt lat="45.69943478761317" lon="12.590917831936993"><ele>1.0</ele><time>2026-05-01T23:03:31Z</time></trkpt><trkpt lat="45.69930861090718" lon="12.590585594017579"><ele>0.0</ele><time>2026-05-01T23:03:32Z</time></trkpt><trkpt lat="45.6991813825874" lon="12.590252025348287"><ele>0.0</ele><time>2026-05-01T23:03:33Z</time></trkpt><trkpt lat="45.69905493888353" lon="12.589919723610809"><ele>0.0</ele><time>2026-05-01T23:03:34Z</time></trkpt><trkpt lat="45.69892784082811" lon="12.589586437406703"><ele>-0.5</ele><time>2026-05-01T23:03:35Z</time></trkpt><trkpt lat="45.69879954476208" lon="12.589250922055514"><ele>-1.0</ele><time>2026-05-01T23:03:36Z</time></trkpt><trkpt lat="45.698669668875944" lon="12.588916859952832"><ele>-0.5</ele><time>2026-05-01T23:03:37Z</time></trkpt><trkpt lat="45.698538303937056" lon="12.58858077089264"><ele>0.0</ele><time>2026-05-01T23:03:38Z</time></trkpt><trkpt lat="45.6984063788767" lon="12.588247155968045"><ele>0.0</ele><time>2026-05-01T23:03:39Z</time></trkpt><trkpt lat="45.69827190428004" lon="12.587914524799329"><ele>0.0</ele><time>2026-05-01T23:03:40Z</time></trkpt><trkpt lat="45.698134195905666" lon="12.587582354741343"><ele>0.0</ele><time>2026-05-01T23:03:41Z</time></trkpt><trkpt lat="45.697995386219716" lon="12.587254407786011"><ele>0.0</ele><time>2026-05-01T23:03:42Z</time></trkpt><trkpt lat="45.697853884747396" lon="12.586927110261518"><ele>0.5</ele><time>2026-05-01T23:03:43Z</time></trkpt><trkpt lat="45.69771082713568" lon="12.586601696198814"><ele>1.0</ele><time>2026-05-01T23:03:44Z</time></trkpt><trkpt lat="45.697568688353805" lon="12.586275144669905"><ele>0.5</ele><time>2026-05-01T23:03:45Z</time></trkpt><trkpt lat="45.697428041210536" lon="12.58594835980457"><ele>0.0</ele><time>2026-05-01T23:03:46Z</time></trkpt><trkpt lat="45.69728643447455" lon="12.585620024599478"><ele>0.5</ele><time>2026-05-01T23:03:47Z</time></trkpt><trkpt lat="45.6971439387743" lon="12.585292788780167"><ele>1.0</ele><time>2026-05-01T23:03:48Z</time></trkpt><trkpt lat="45.69700135455776" lon="12.58496348378311"><ele>1.0</ele><time>2026-05-01T23:03:49Z</time></trkpt><trkpt lat="45.69685864114517" lon="12.584635633985709"><ele>1.0</ele><time>2026-05-01T23:03:50Z</time></trkpt><trkpt lat="45.69671461741045" lon="12.584312218621125"><ele>0.5</ele><time>2026-05-01T23:03:51Z</time></trkpt><trkpt lat="45.696566964666665" lon="12.583988089156994"><ele>0.0</ele><time>2026-05-01T23:03:52Z</time></trkpt><trkpt lat="45.69641801624546" lon="12.583664629245776"><ele>-0.5</ele><time>2026-05-01T23:03:53Z</time></trkpt><trkpt lat="45.69626678153058" lon="12.583339951996592"><ele>-1.0</ele><time>2026-05-01T23:03:54Z</time></trkpt><trkpt lat="45.69611337982891" lon="12.58301443582251"><ele>0.5</ele><time>2026-05-01T23:03:55Z</time></trkpt><trkpt lat="45.69596088060252" lon="12.582690247153868"><ele>2.0</ele><time>2026-05-01T23:03:56Z</time></trkpt><trkpt lat="45.695805773888" lon="12.582364394920768"><ele>2.0</ele><time>2026-05-01T23:03:57Z</time></trkpt><trkpt lat="45.69564867850521" lon="12.58203718607829"><ele>2.0</ele><time>2026-05-01T23:03:58Z</time></trkpt><trkpt lat="45.69549064397814" lon="12.581711872989462"><ele>2.0</ele><time>2026-05-01T23:03:59Z</time></trkpt><trkpt lat="45.69533275874029" lon="12.581386237071893"><ele>2.0</ele><time>2026-05-01T23:04:00Z</time></trkpt><trkpt lat="45.69517550328645" lon="12.581060028654345"><ele>1.0</ele><time>2026-05-01T23:04:01Z</time></trkpt><trkpt lat="45.69502076978215" lon="12.580734026102727"><ele>0.0</ele><time>2026-05-01T23:04:02Z</time></trkpt><trkpt lat="45.6948661028508" lon="12.580406266636205"><ele>0.0</ele><time>2026-05-01T23:04:03Z</time></trkpt><trkpt lat="45.69471206966296" lon="12.5800792771346"><ele>0.0</ele><time>2026-05-01T23:04:04Z</time></trkpt><trkpt lat="45.694557988471075" lon="12.57975403161108"><ele>0.0</ele><time>2026-05-01T23:04:05Z</time></trkpt><trkpt lat="45.69440517444313" lon="12.579430820526024"><ele>0.0</ele><time>2026-05-01T23:04:06Z</time></trkpt><trkpt lat="45.69425267434349" lon="12.579107621142047"><ele>0.0</ele><time>2026-05-01T23:04:07Z</time></trkpt><trkpt lat="45.694100730641175" lon="12.578786441189786"><ele>0.0</ele><time>2026-05-01T23:04:08Z</time></trkpt><trkpt lat="45.693949968973136" lon="12.578467812464766"><ele>0.5</ele><time>2026-05-01T23:04:09Z</time></trkpt><trkpt lat="45.6938019860149" lon="12.578155208283924"><ele>1.0</ele><time>2026-05-01T23:04:10Z</time></trkpt><trkpt lat="45.693659535428914" lon="12.57785409490352"><ele>0.0</ele><time>2026-05-01T23:04:11.001Z</time></trkpt><trkpt lat="45.69351606678509" lon="12.577555640666443"><ele>-1.0</ele><time>2026-05-01T23:04:12.001Z</time></trkpt><trkpt lat="45.6933698450302" lon="12.577248194404598"><ele>-1.0</ele><time>2026-05-01T23:04:13.001Z</time></trkpt><trkpt lat="45.693221368875214" lon="12.576933433613652"><ele>-1.0</ele><time>2026-05-01T23:04:14.001Z</time></trkpt><trkpt lat="45.69306955814795" lon="12.576617796526351"><ele>-1.0</ele><time>2026-05-01T23:04:15.001Z</time></trkpt><trkpt lat="45.69291708279648" lon="12.576301342215647"><ele>-1.0</ele><time>2026-05-01T23:04:16.001Z</time></trkpt><trkpt lat="45.69276350961027" lon="12.575986669029378"><ele>-1.5</ele><time>2026-05-01T23:04:17.001Z</time></trkpt><trkpt lat="45.69260944175719" lon="12.575667644046268"><ele>-2.0</ele><time>2026-05-01T23:04:18.001Z</time></trkpt><trkpt lat="45.69245543476406" lon="12.575347761665116"><ele>-2.5</ele><time>2026-05-01T23:04:19.001Z</time></trkpt><trkpt lat="45.69230333380741" lon="12.575029908672173"><ele>-3.0</ele><time>2026-05-01T23:04:20.001Z</time></trkpt><trkpt lat="45.692152958774344" lon="12.574711782759678"><ele>-2.5</ele><time>2026-05-01T23:04:21.001Z</time></trkpt><trkpt lat="45.69200261241519" lon="12.574390543305292"><ele>-2.0</ele><time>2026-05-01T23:04:22.001Z</time></trkpt><trkpt lat="45.69185427282801" lon="12.574073376955718"><ele>-1.5</ele><time>2026-05-01T23:04:23.001Z</time></trkpt><trkpt lat="45.69170289359455" lon="12.573755302419194"><ele>-1.0</ele><time>2026-05-01T23:04:24.001Z</time></trkpt><trkpt lat="45.69155134243211" lon="12.573440902238834"><ele>0.0</ele><time>2026-05-01T23:04:25.001Z</time></trkpt><trkpt lat="45.69139873804867" lon="12.573126521935267"><ele>1.0</ele><time>2026-05-01T23:04:26.001Z</time></trkpt><trkpt lat="45.691245591188576" lon="12.572811795549981"><ele>1.0</ele><time>2026-05-01T23:04:27.001Z</time></trkpt><trkpt lat="45.69109316522571" lon="12.572494826436476"><ele>1.0</ele><time>2026-05-01T23:04:28.001Z</time></trkpt><trkpt lat="45.690941233644146" lon="12.572177357868872"><ele>0.0</ele><time>2026-05-01T23:04:29.001Z</time></trkpt><trkpt lat="45.69078898002116" lon="12.571858274050905"><ele>-1.0</ele><time>2026-05-01T23:04:30.001Z</time></trkpt><trkpt lat="45.69063596846506" lon="12.571538040693738"><ele>-1.0</ele><time>2026-05-01T23:04:31.001Z</time></trkpt><trkpt lat="45.69048397635667" lon="12.57121890383274"><ele>-1.0</ele><time>2026-05-01T23:04:32.001Z</time></trkpt><trkpt lat="45.6903310418266" lon="12.570900966220218"><ele>-0.5</ele><time>2026-05-01T23:04:33.001Z</time></trkpt><trkpt lat="45.69017840096041" lon="12.570581385556537"><ele>0.0</ele><time>2026-05-01T23:04:34.001Z</time></trkpt><trkpt lat="45.690027454464364" lon="12.570260817435368"><ele>0.5</ele><time>2026-05-01T23:04:35.001Z</time></trkpt><trkpt lat="45.689877728482976" lon="12.569940056965665"><ele>1.0</ele><time>2026-05-01T23:04:36.001Z</time></trkpt><trkpt lat="45.68972697527507" lon="12.569619724993103"><ele>1.0</ele><time>2026-05-01T23:04:37.001Z</time></trkpt><trkpt lat="45.68957582899776" lon="12.569300730183649"><ele>1.0</ele><time>2026-05-01T23:04:38.001Z</time></trkpt><trkpt lat="45.68942594035499" lon="12.568984757247765"><ele>0.0</ele><time>2026-05-01T23:04:39.001Z</time></trkpt><trkpt lat="45.68927409385719" lon="12.568670125803868"><ele>-1.0</ele><time>2026-05-01T23:04:40.001Z</time></trkpt><trkpt lat="45.68912422879168" lon="12.568354976972419"><ele>-1.0</ele><time>2026-05-01T23:04:41.001Z</time></trkpt><trkpt lat="45.68897366837077" lon="12.568040283422505"><ele>-1.0</ele><time>2026-05-01T23:04:42.001Z</time></trkpt><trkpt lat="45.688823866014715" lon="12.567729799788939"><ele>-0.5</ele><time>2026-05-01T23:04:43.001Z</time></trkpt><trkpt lat="45.68867190781976" lon="12.567418400109558"><ele>0.0</ele><time>2026-05-01T23:04:44.001Z</time></trkpt><trkpt lat="45.68852062695983" lon="12.56710624616934"><ele>0.5</ele><time>2026-05-01T23:04:45.001Z</time></trkpt><trkpt lat="45.68837055934586" lon="12.566790998751754"><ele>1.0</ele><time>2026-05-01T23:04:46.001Z</time></trkpt><trkpt lat="45.68822258702111" lon="12.566480410259295"><ele>1.0</ele><time>2026-05-01T23:04:47.001Z</time></trkpt><trkpt lat="45.688073651726015" lon="12.56616574465287"><ele>1.0</ele><time>2026-05-01T23:04:48.001Z</time></trkpt><trkpt lat="45.68792303290712" lon="12.565847121946875"><ele>1.0</ele><time>2026-05-01T23:04:49.001Z</time></trkpt><trkpt lat="45.687772911809304" lon="12.56552916850927"><ele>1.0</ele><time>2026-05-01T23:04:50Z</time></trkpt><trkpt lat="45.687622515137484" lon="12.565209889973096"><ele>1.0</ele><time>2026-05-01T23:04:51Z</time></trkpt><trkpt lat="45.687473447836034" lon="12.564892244316274"><ele>1.0</ele><time>2026-05-01T23:04:52Z</time></trkpt><trkpt lat="45.68732436324193" lon="12.56457572781958"><ele>1.5</ele><time>2026-05-01T23:04:53Z</time></trkpt><trkpt lat="45.68717462262268" lon="12.564260462050449"><ele>2.0</ele><time>2026-05-01T23:04:54Z</time></trkpt><trkpt lat="45.68702465941939" lon="12.563945808603927"><ele>2.0</ele><time>2026-05-01T23:04:55Z</time></trkpt><trkpt lat="45.68687477051931" lon="12.563635138458112"><ele>2.0</ele><time>2026-05-01T23:04:56Z</time></trkpt><trkpt lat="45.68672469933967" lon="12.56332494202319"><ele>2.0</ele><time>2026-05-01T23:04:57Z</time></trkpt><trkpt lat="45.686573808577485" lon="12.563014402330763"><ele>2.0</ele><time>2026-05-01T23:04:58Z</time></trkpt><trkpt lat="45.68642315282476" lon="12.562704142015804"><ele>1.5</ele><time>2026-05-01T23:04:59Z</time></trkpt><trkpt lat="45.68627104730611" lon="12.562391724460433"><ele>1.0</ele><time>2026-05-01T23:05:00Z</time></trkpt><trkpt lat="45.6861218517421" lon="12.56207742673199"><ele>0.0</ele><time>2026-05-01T23:05:01Z</time></trkpt><trkpt lat="45.685972128024666" lon="12.561763672764808"><ele>-1.0</ele><time>2026-05-01T23:05:02Z</time></trkpt><trkpt lat="45.685822641748246" lon="12.561448001673694"><ele>-2.0</ele><time>2026-05-01T23:05:03Z</time></trkpt><trkpt lat="45.68567224928217" lon="12.561131403449533"><ele>-3.0</ele><time>2026-05-01T23:05:04Z</time></trkpt><trkpt lat="45.68552120102548" lon="12.560813521032445"><ele>-3.0</ele><time>2026-05-01T23:05:05Z</time></trkpt><trkpt lat="45.685369642889164" lon="12.560496270774788"><ele>-3.0</ele><time>2026-05-01T23:05:06Z</time></trkpt><trkpt lat="45.68521709228074" lon="12.560178416270992"><ele>-1.0</ele><time>2026-05-01T23:05:07Z</time></trkpt><trkpt lat="45.68506590190027" lon="12.559859819240609"><ele>1.0</ele><time>2026-05-01T23:05:08Z</time></trkpt><trkpt lat="45.68491497520989" lon="12.55954136459495"><ele>1.5</ele><time>2026-05-01T23:05:09Z</time></trkpt><trkpt lat="45.68476479968418" lon="12.559220378668938"><ele>2.0</ele><time>2026-05-01T23:05:10Z</time></trkpt><trkpt lat="45.68461262790305" lon="12.558901027795512"><ele>1.0</ele><time>2026-05-01T23:05:11Z</time></trkpt><trkpt lat="45.684460451294186" lon="12.558582999706509"><ele>0.0</ele><time>2026-05-01T23:05:12Z</time></trkpt><trkpt lat="45.68430795631818" lon="12.558266190459442"><ele>0.0</ele><time>2026-05-01T23:05:13Z</time></trkpt><trkpt lat="45.68415568984351" lon="12.557949010636934"><ele>0.0</ele><time>2026-05-01T23:05:14Z</time></trkpt><trkpt lat="45.684003984742915" lon="12.557632786798695"><ele>0.5</ele><time>2026-05-01T23:05:15Z</time></trkpt><trkpt lat="45.68385314608072" lon="12.557313146974142"><ele>1.0</ele><time>2026-05-01T23:05:16Z</time></trkpt><trkpt lat="45.683702865012386" lon="12.556999008910914"><ele>1.0</ele><time>2026-05-01T23:05:17Z</time></trkpt><trkpt lat="45.68355390972911" lon="12.5566871562592"><ele>1.0</ele><time>2026-05-01T23:05:18Z</time></trkpt><trkpt lat="45.683405661324926" lon="12.55637390156678"><ele>1.0</ele><time>2026-05-01T23:05:19Z</time></trkpt><trkpt lat="45.68325755756084" lon="12.556058606699711"><ele>1.0</ele><time>2026-05-01T23:05:20Z</time></trkpt><trkpt lat="45.683110126174924" lon="12.555744850561549"><ele>1.0</ele><time>2026-05-01T23:05:21Z</time></trkpt><trkpt lat="45.68296561486438" lon="12.55543774640656"><ele>1.0</ele><time>2026-05-01T23:05:22Z</time></trkpt><trkpt lat="45.68282574968846" lon="12.555142000288011"><ele>2.0</ele><time>2026-05-01T23:05:23Z</time></trkpt><trkpt lat="45.68268542806343" lon="12.554851315720676"><ele>3.0</ele><time>2026-05-01T23:05:24Z</time></trkpt><trkpt lat="45.68254154824568" lon="12.554552912728862"><ele>2.5</ele><time>2026-05-01T23:05:25Z</time></trkpt><trkpt lat="45.68239684081698" lon="12.554251247524512"><ele>2.0</ele><time>2026-05-01T23:05:26Z</time></trkpt><trkpt lat="45.682250823664845" lon="12.553948273990938"><ele>0.5</ele><time>2026-05-01T23:05:27Z</time></trkpt><trkpt lat="45.68210489043647" lon="12.553643751558115"><ele>-1.0</ele><time>2026-05-01T23:05:28Z</time></trkpt><trkpt lat="45.68195759829808" lon="12.55333752248664"><ele>-1.5</ele><time>2026-05-01T23:05:29Z</time></trkpt><trkpt lat="45.681809363981465" lon="12.553026421788038"><ele>-2.0</ele><time>2026-05-01T23:05:30Z</time></trkpt><trkpt lat="45.68166108998585" lon="12.55271220739244"><ele>-2.0</ele><time>2026-05-01T23:05:31Z</time></trkpt><trkpt lat="45.681514018745865" lon="12.552398479761584"><ele>-2.0</ele><time>2026-05-01T23:05:32Z</time></trkpt><trkpt lat="45.681364205197376" lon="12.552084562433144"><ele>-1.0</ele><time>2026-05-01T23:05:33Z</time></trkpt><trkpt lat="45.681213987726565" lon="12.55176808185326"><ele>0.0</ele><time>2026-05-01T23:05:34Z</time></trkpt><trkpt lat="45.68106455553519" lon="12.551452678073387"><ele>0.0</ele><time>2026-05-01T23:05:35Z</time></trkpt><trkpt lat="45.680914890860585" lon="12.55113691633325"><ele>0.0</ele><time>2026-05-01T23:05:36Z</time></trkpt><trkpt lat="45.68076436643901" lon="12.550820537621465"><ele>0.0</ele><time>2026-05-01T23:05:37Z</time></trkpt><trkpt lat="45.68061209786948" lon="12.550506960912937"><ele>0.0</ele><time>2026-05-01T23:05:38Z</time></trkpt><trkpt lat="45.680459507673305" lon="12.55019258499392"><ele>0.0</ele><time>2026-05-01T23:05:39Z</time></trkpt><trkpt lat="45.68030885376282" lon="12.549877732475188"><ele>0.0</ele><time>2026-05-01T23:05:40Z</time></trkpt><trkpt lat="45.6801604501321" lon="12.549563017974274"><ele>0.0</ele><time>2026-05-01T23:05:41Z</time></trkpt><trkpt lat="45.68001174338349" lon="12.549245987379981"><ele>0.0</ele><time>2026-05-01T23:05:42Z</time></trkpt><trkpt lat="45.679861761023695" lon="12.548929343259324"><ele>0.0</ele><time>2026-05-01T23:05:43Z</time></trkpt><trkpt lat="45.67971193481177" lon="12.548613189397658"><ele>0.0</ele><time>2026-05-01T23:05:44Z</time></trkpt><trkpt lat="45.67956140714166" lon="12.548298164013612"><ele>0.5</ele><time>2026-05-01T23:05:45Z</time></trkpt><trkpt lat="45.6794106355619" lon="12.54798554418119"><ele>1.0</ele><time>2026-05-01T23:05:46Z</time></trkpt><trkpt lat="45.67925820742416" lon="12.547670544334785"><ele>1.5</ele><time>2026-05-01T23:05:47Z</time></trkpt><trkpt lat="45.6791055974771" lon="12.547355232044515"><ele>2.0</ele><time>2026-05-01T23:05:48Z</time></trkpt><trkpt lat="45.67895651014609" lon="12.547039851997916"><ele>2.0</ele><time>2026-05-01T23:05:49Z</time></trkpt><trkpt lat="45.678807384240486" lon="12.546722984494986"><ele>2.0</ele><time>2026-05-01T23:05:50Z</time></trkpt><trkpt lat="45.678658589286464" lon="12.546407838958677"><ele>2.0</ele><time>2026-05-01T23:05:51Z</time></trkpt><trkpt lat="45.67850809100745" lon="12.546091470606903"><ele>2.0</ele><time>2026-05-01T23:05:52Z</time></trkpt><trkpt lat="45.678357726957124" lon="12.545777024013706"><ele>2.0</ele><time>2026-05-01T23:05:53Z</time></trkpt><trkpt lat="45.67820798370148" lon="12.545464943252718"><ele>2.0</ele><time>2026-05-01T23:05:54Z</time></trkpt><trkpt lat="45.67805778601662" lon="12.545153515251783"><ele>2.0</ele><time>2026-05-01T23:05:55Z</time></trkpt><trkpt lat="45.67790764970205" lon="12.544840664792037"><ele>2.0</ele><time>2026-05-01T23:05:56Z</time></trkpt><trkpt lat="45.67775780255025" lon="12.544526673168065"><ele>1.5</ele><time>2026-05-01T23:05:57Z</time></trkpt><trkpt lat="45.677609788792935" lon="12.544213897319175"><ele>1.0</ele><time>2026-05-01T23:05:58Z</time></trkpt><trkpt lat="45.67746179726791" lon="12.543902013053952"><ele>0.5</ele><time>2026-05-01T23:05:59Z</time></trkpt><trkpt lat="45.67731184364078" lon="12.54358681972067"><ele>0.0</ele><time>2026-05-01T23:06:00Z</time></trkpt><trkpt lat="45.67716280718034" lon="12.543276045028493"><ele>0.0</ele><time>2026-05-01T23:06:01Z</time></trkpt><trkpt lat="45.67701590609373" lon="12.542962972961977"><ele>0.0</ele><time>2026-05-01T23:06:02Z</time></trkpt><trkpt lat="45.67687177007882" lon="12.542650297914571"><ele>0.0</ele><time>2026-05-01T23:06:03Z</time></trkpt><trkpt lat="45.67672482977639" lon="12.542336080204306"><ele>0.0</ele><time>2026-05-01T23:06:04Z</time></trkpt><trkpt lat="45.67657971050325" lon="12.542015460638794"><ele>0.0</ele><time>2026-05-01T23:06:05Z</time></trkpt><trkpt lat="45.67643275301209" lon="12.541705477590634"><ele>0.0</ele><time>2026-05-01T23:06:06Z</time></trkpt><trkpt lat="45.67628597219675" lon="12.541393905354687"><ele>0.5</ele><time>2026-05-01T23:06:07Z</time></trkpt><trkpt lat="45.6761363579977" lon="12.54108468464938"><ele>1.0</ele><time>2026-05-01T23:06:08Z</time></trkpt><trkpt lat="45.67598633333065" lon="12.540771246179991"><ele>1.5</ele><time>2026-05-01T23:06:09Z</time></trkpt><trkpt lat="45.675832355243735" lon="12.540456317895677"><ele>2.0</ele><time>2026-05-01T23:06:10Z</time></trkpt><trkpt lat="45.67567844677802" lon="12.54014021704065"><ele>1.5</ele><time>2026-05-01T23:06:11Z</time></trkpt><trkpt lat="45.67552341522691" lon="12.539819566789687"><ele>1.0</ele><time>2026-05-01T23:06:12Z</time></trkpt><trkpt lat="45.67537112688697" lon="12.539496652901379"><ele>1.0</ele><time>2026-05-01T23:06:13Z</time></trkpt><trkpt lat="45.67521863896661" lon="12.539170850965323"><ele>1.0</ele><time>2026-05-01T23:06:14Z</time></trkpt><trkpt lat="45.67506809047507" lon="12.538845447818858"><ele>1.5</ele><time>2026-05-01T23:06:15Z</time></trkpt><trkpt lat="45.6749163754535" lon="12.538521579109881"><ele>2.0</ele><time>2026-05-01T23:06:16Z</time></trkpt><trkpt lat="45.6747711860585" lon="12.538212810515034"><ele>2.0</ele><time>2026-05-01T23:06:17Z</time></trkpt><trkpt lat="45.67461863429133" lon="12.537891999585625"><ele>2.0</ele><time>2026-05-01T23:06:18Z</time></trkpt><trkpt lat="45.67446492054392" lon="12.537566629810048"><ele>2.5</ele><time>2026-05-01T23:06:19Z</time></trkpt><trkpt lat="45.67430827517269" lon="12.537239429095003"><ele>3.0</ele><time>2026-05-01T23:06:20Z</time></trkpt><trkpt lat="45.67415005082449" lon="12.536910211522695"><ele>3.5</ele><time>2026-05-01T23:06:21Z</time></trkpt><trkpt lat="45.67399008236851" lon="12.536578115263312"><ele>4.0</ele><time>2026-05-01T23:06:22.001Z</time></trkpt><trkpt lat="45.67382870308334" lon="12.536247612222974"><ele>4.5</ele><time>2026-05-01T23:06:23.001Z</time></trkpt><trkpt lat="45.67366725662262" lon="12.535914399981383"><ele>5.0</ele><time>2026-05-01T23:06:24.001Z</time></trkpt><trkpt lat="45.673506484069065" lon="12.535582384530993"><ele>3.0</ele><time>2026-05-01T23:06:25.001Z</time></trkpt><trkpt lat="45.67334478724419" lon="12.53524992744705"><ele>1.0</ele><time>2026-05-01T23:06:26.001Z</time></trkpt><trkpt lat="45.67318285712545" lon="12.534916461268914"><ele>1.0</ele><time>2026-05-01T23:06:27.001Z</time></trkpt><trkpt lat="45.67302043329798" lon="12.534583450799495"><ele>1.0</ele><time>2026-05-01T23:06:28.001Z</time></trkpt><trkpt lat="45.67285995954599" lon="12.534246191880698"><ele>0.5</ele><time>2026-05-01T23:06:29.001Z</time></trkpt><trkpt lat="45.672697270040544" lon="12.533908888444536"><ele>0.0</ele><time>2026-05-01T23:06:30.001Z</time></trkpt><trkpt lat="45.67253539838498" lon="12.533570177351162"><ele>0.0</ele><time>2026-05-01T23:06:31.001Z</time></trkpt><trkpt lat="45.67237281330502" lon="12.533228130888164"><ele>0.0</ele><time>2026-05-01T23:06:32.001Z</time></trkpt><trkpt lat="45.67221145776866" lon="12.532885867140585"><ele>0.5</ele><time>2026-05-01T23:06:33.001Z</time></trkpt><trkpt lat="45.672049648877106" lon="12.532541356969949"><ele>1.0</ele><time>2026-05-01T23:06:34.001Z</time></trkpt><trkpt lat="45.67188683504622" lon="12.532194580364754"><ele>1.0</ele><time>2026-05-01T23:06:35.001Z</time></trkpt><trkpt lat="45.671721232775724" lon="12.531850353992358"><ele>1.0</ele><time>2026-05-01T23:06:36.001Z</time></trkpt><trkpt lat="45.67155705415442" lon="12.531500858849606"><ele>1.5</ele><time>2026-05-01T23:06:37.001Z</time></trkpt><trkpt lat="45.67139147393934" lon="12.53115202677338"><ele>2.0</ele><time>2026-05-01T23:06:38.001Z</time></trkpt><trkpt lat="45.67122396098533" lon="12.53079854309954"><ele>2.0</ele><time>2026-05-01T23:06:39.001Z</time></trkpt><trkpt lat="45.671055258140534" lon="12.530443057225831"><ele>2.0</ele><time>2026-05-01T23:06:40.001Z</time></trkpt><trkpt lat="45.670888637379285" lon="12.530090422982768"><ele>2.0</ele><time>2026-05-01T23:06:41.001Z</time></trkpt><trkpt lat="45.670722410742606" lon="12.529738218726413"><ele>2.0</ele><time>2026-05-01T23:06:42.001Z</time></trkpt><trkpt lat="45.67055499028174" lon="12.529381046431912"><ele>2.5</ele><time>2026-05-01T23:06:43.001Z</time></trkpt><trkpt lat="45.67038842735688" lon="12.529021922414007"><ele>3.0</ele><time>2026-05-01T23:06:44.001Z</time></trkpt><trkpt lat="45.67022417463292" lon="12.528664719212335"><ele>3.0</ele><time>2026-05-01T23:06:45.001Z</time></trkpt><trkpt lat="45.67006005497716" lon="12.52830729863339"><ele>3.0</ele><time>2026-05-01T23:06:46.001Z</time></trkpt><trkpt lat="45.669901151136145" lon="12.527949915924284"><ele>2.0</ele><time>2026-05-01T23:06:47.001Z</time></trkpt><trkpt lat="45.669738020635265" lon="12.52759305434275"><ele>1.0</ele><time>2026-05-01T23:06:48.001Z</time></trkpt><trkpt lat="45.6695812247373" lon="12.527232911414929"><ele>1.5</ele><time>2026-05-01T23:06:49.001Z</time></trkpt><trkpt lat="45.66942030494337" lon="12.526877650660882"><ele>2.0</ele><time>2026-05-01T23:06:50.001Z</time></trkpt><trkpt lat="45.669263643643966" lon="12.526517444607158"><ele>1.5</ele><time>2026-05-01T23:06:51.001Z</time></trkpt><trkpt lat="45.669111422396796" lon="12.526152368454493"><ele>1.0</ele><time>2026-05-01T23:06:52.001Z</time></trkpt><trkpt lat="45.66895470412383" lon="12.525794124470414"><ele>1.0</ele><time>2026-05-01T23:06:53.001Z</time></trkpt><trkpt lat="45.66880017278604" lon="12.525432315596754"><ele>1.0</ele><time>2026-05-01T23:06:54.001Z</time></trkpt><trkpt lat="45.66864464521707" lon="12.525071157479944"><ele>1.5</ele><time>2026-05-01T23:06:55.001Z</time></trkpt><trkpt lat="45.66848897823726" lon="12.524712297199507"><ele>2.0</ele><time>2026-05-01T23:06:56Z</time></trkpt><trkpt lat="45.668335224670955" lon="12.524351272922244"><ele>2.0</ele><time>2026-05-01T23:06:57Z</time></trkpt><trkpt lat="45.66817974305723" lon="12.523989058663542"><ele>2.0</ele><time>2026-05-01T23:06:58Z</time></trkpt><trkpt lat="45.66802608841661" lon="12.523628771556238"><ele>2.5</ele><time>2026-05-01T23:06:59Z</time></trkpt><trkpt lat="45.667873858816996" lon="12.523266720300128"><ele>3.0</ele><time>2026-05-01T23:07:00Z</time></trkpt><trkpt lat="45.667725018398905" lon="12.522904738105025"><ele>4.0</ele><time>2026-05-01T23:07:01Z</time></trkpt><trkpt lat="45.66757884773449" lon="12.52254100297479"><ele>5.0</ele><time>2026-05-01T23:07:02Z</time></trkpt><trkpt lat="45.66743171512514" lon="12.522176424492397"><ele>5.0</ele><time>2026-05-01T23:07:03Z</time></trkpt><trkpt lat="45.66728699919312" lon="12.521810633431793"><ele>5.0</ele><time>2026-05-01T23:07:04Z</time></trkpt><trkpt lat="45.66714301833455" lon="12.521451520514203"><ele>5.0</ele><time>2026-05-01T23:07:05Z</time></trkpt><trkpt lat="45.666999375554774" lon="12.521086248142264"><ele>5.0</ele><time>2026-05-01T23:07:06Z</time></trkpt><trkpt lat="45.66685186114345" lon="12.520733873878893"><ele>6.0</ele><time>2026-05-01T23:07:07Z</time></trkpt><trkpt lat="45.666705973934256" lon="12.520380788138544"><ele>7.0</ele><time>2026-05-01T23:07:08Z</time></trkpt><trkpt lat="45.666562226557716" lon="12.520026325021277"><ele>7.0</ele><time>2026-05-01T23:07:09Z</time></trkpt><trkpt lat="45.66641856578591" lon="12.519670491814203"><ele>7.0</ele><time>2026-05-01T23:07:10Z</time></trkpt><trkpt lat="45.66627315856576" lon="12.51931805715568"><ele>6.5</ele><time>2026-05-01T23:07:11Z</time></trkpt><trkpt lat="45.66612896617789" lon="12.51896421856969"><ele>6.0</ele><time>2026-05-01T23:07:12Z</time></trkpt><trkpt lat="45.665984013449545" lon="12.518609835228505"><ele>5.5</ele><time>2026-05-01T23:07:13Z</time></trkpt><trkpt lat="45.66584109761571" lon="12.51825387384134"><ele>5.0</ele><time>2026-05-01T23:07:14Z</time></trkpt><trkpt lat="45.66570182032728" lon="12.517896319681206"><ele>5.0</ele><time>2026-05-01T23:07:15Z</time></trkpt><trkpt lat="45.66555889994295" lon="12.517534725820179"><ele>5.0</ele><time>2026-05-01T23:07:16Z</time></trkpt><trkpt lat="45.66542510846283" lon="12.51717046924949"><ele>4.5</ele><time>2026-05-01T23:07:17Z</time></trkpt><trkpt lat="45.66528613127981" lon="12.51680445720465"><ele>4.0</ele><time>2026-05-01T23:07:18Z</time></trkpt><trkpt lat="45.665136724171475" lon="12.516447183947912"><ele>4.5</ele><time>2026-05-01T23:07:19Z</time></trkpt><trkpt lat="45.66498574815113" lon="12.516087356046596"><ele>5.0</ele><time>2026-05-01T23:07:20Z</time></trkpt><trkpt lat="45.664833842798515" lon="12.51572454865802"><ele>5.0</ele><time>2026-05-01T23:07:21Z</time></trkpt><trkpt lat="45.664688821664484" lon="12.515357368613104"><ele>5.0</ele><time>2026-05-01T23:07:22Z</time></trkpt><trkpt lat="45.66454569797965" lon="12.514986651214011"><ele>5.0</ele><time>2026-05-01T23:07:23Z</time></trkpt><trkpt lat="45.66439761700956" lon="12.514618638359948"><ele>5.0</ele><time>2026-05-01T23:07:24Z</time></trkpt><trkpt lat="45.66424790709801" lon="12.51425333050478"><ele>5.0</ele><time>2026-05-01T23:07:25Z</time></trkpt><trkpt lat="45.66409850176633" lon="12.513882140979685"><ele>5.0</ele><time>2026-05-01T23:07:26Z</time></trkpt><trkpt lat="45.66394345729256" lon="12.513518580899241"><ele>5.0</ele><time>2026-05-01T23:07:27Z</time></trkpt><trkpt lat="45.66378863567234" lon="12.513151510649916"><ele>5.0</ele><time>2026-05-01T23:07:28Z</time></trkpt><trkpt lat="45.66363104934672" lon="12.51278481036303"><ele>4.5</ele><time>2026-05-01T23:07:29Z</time></trkpt><trkpt lat="45.66347362669409" lon="12.51241812731237"><ele>4.0</ele><time>2026-05-01T23:07:30Z</time></trkpt><trkpt lat="45.66331793023018" lon="12.512051154297007"><ele>4.0</ele><time>2026-05-01T23:07:31Z</time></trkpt><trkpt lat="45.66315759510949" lon="12.511686323784366"><ele>4.0</ele><time>2026-05-01T23:07:32Z</time></trkpt><trkpt lat="45.662995554480396" lon="12.511324435397432"><ele>4.5</ele><time>2026-05-01T23:07:33Z</time></trkpt><trkpt lat="45.66282917196651" lon="12.510961267924493"><ele>5.0</ele><time>2026-05-01T23:07:34Z</time></trkpt><trkpt lat="45.66268189461394" lon="12.5106038842492"><ele>6.0</ele><time>2026-05-01T23:07:35Z</time></trkpt><trkpt lat="45.66251951814663" lon="12.51024716823247"><ele>7.0</ele><time>2026-05-01T23:07:36Z</time></trkpt><trkpt lat="45.662358556976514" lon="12.509891769275614"><ele>6.0</ele><time>2026-05-01T23:07:37Z</time></trkpt><trkpt lat="45.66219816598829" lon="12.50954224440756"><ele>5.0</ele><time>2026-05-01T23:07:38Z</time></trkpt><trkpt lat="45.66203883635137" lon="12.509196832178132"><ele>4.5</ele><time>2026-05-01T23:07:39Z</time></trkpt><trkpt lat="45.66187488752275" lon="12.508849135964573"><ele>4.0</ele><time>2026-05-01T23:07:40Z</time></trkpt><trkpt lat="45.66171045692408" lon="12.508502657743234"><ele>4.0</ele><time>2026-05-01T23:07:41Z</time></trkpt><trkpt lat="45.661544456894944" lon="12.508146215734065"><ele>4.0</ele><time>2026-05-01T23:07:42Z</time></trkpt><trkpt lat="45.66138056753362" lon="12.507795113036842"><ele>4.0</ele><time>2026-05-01T23:07:43Z</time></trkpt><trkpt lat="45.661214139178384" lon="12.507439328988394"><ele>4.0</ele><time>2026-05-01T23:07:44Z</time></trkpt><trkpt lat="45.66105351506671" lon="12.507088333678311"><ele>4.5</ele><time>2026-05-01T23:07:45Z</time></trkpt><trkpt lat="45.660892822534464" lon="12.506741278793216"><ele>5.0</ele><time>2026-05-01T23:07:46Z</time></trkpt><trkpt lat="45.66073445992672" lon="12.506381852549447"><ele>4.5</ele><time>2026-05-01T23:07:47Z</time></trkpt><trkpt lat="45.66057322495029" lon="12.506028831251134"><ele>4.0</ele><time>2026-05-01T23:07:48Z</time></trkpt><trkpt lat="45.66040588492741" lon="12.5056741446408"><ele>4.5</ele><time>2026-05-01T23:07:49Z</time></trkpt><trkpt lat="45.66023668922587" lon="12.50532352730178"><ele>5.0</ele><time>2026-05-01T23:07:50Z</time></trkpt><trkpt lat="45.660067768218084" lon="12.504974241939973"><ele>5.0</ele><time>2026-05-01T23:07:51Z</time></trkpt><trkpt lat="45.65989431022432" lon="12.504619675963845"><ele>5.0</ele><time>2026-05-01T23:07:52Z</time></trkpt><trkpt lat="45.65973627500015" lon="12.50426080979313"><ele>4.5</ele><time>2026-05-01T23:07:53Z</time></trkpt><trkpt lat="45.65957798463154" lon="12.503895881713701"><ele>4.0</ele><time>2026-05-01T23:07:54Z</time></trkpt><trkpt lat="45.65941533892946" lon="12.503531141695195"><ele>3.5</ele><time>2026-05-01T23:07:55Z</time></trkpt><trkpt lat="45.659259163226416" lon="12.503168233448859"><ele>3.0</ele><time>2026-05-01T23:07:56Z</time></trkpt><trkpt lat="45.65910597453734" lon="12.50279947163347"><ele>3.0</ele><time>2026-05-01T23:07:57Z</time></trkpt><trkpt lat="45.6589482336127" lon="12.50244261083128"><ele>3.0</ele><time>2026-05-01T23:07:58Z</time></trkpt><trkpt lat="45.658796867864964" lon="12.502085770809087"><ele>2.5</ele><time>2026-05-01T23:07:59Z</time></trkpt><trkpt lat="45.65864245743993" lon="12.501726917596232"><ele>2.0</ele><time>2026-05-01T23:08:00Z</time></trkpt><trkpt lat="45.65849165108712" lon="12.501370310525347"><ele>2.0</ele><time>2026-05-01T23:08:01Z</time></trkpt><trkpt lat="45.65834315896632" lon="12.50101143191228"><ele>2.0</ele><time>2026-05-01T23:08:02Z</time></trkpt><trkpt lat="45.658192572707534" lon="12.500646553641797"><ele>3.0</ele><time>2026-05-01T23:08:03Z</time></trkpt><trkpt lat="45.658040116107806" lon="12.500287058605771"><ele>4.0</ele><time>2026-05-01T23:08:04Z</time></trkpt><trkpt lat="45.657887309594415" lon="12.49992973785507"><ele>2.5</ele><time>2026-05-01T23:08:05Z</time></trkpt><trkpt lat="45.657733833596474" lon="12.499571215320618"><ele>1.0</ele><time>2026-05-01T23:08:06Z</time></trkpt><trkpt lat="45.65757932153146" lon="12.49921398212274"><ele>1.0</ele><time>2026-05-01T23:08:07Z</time></trkpt><trkpt lat="45.65742262477503" lon="12.498852349716229"><ele>1.0</ele><time>2026-05-01T23:08:08Z</time></trkpt><trkpt lat="45.657271795783984" lon="12.498494854169829"><ele>2.0</ele><time>2026-05-01T23:08:09Z</time></trkpt><trkpt lat="45.657115597155666" lon="12.498135201895483"><ele>3.0</ele><time>2026-05-01T23:08:10Z</time></trkpt><trkpt lat="45.65697097516217" lon="12.49779175501232"><ele>2.5</ele><time>2026-05-01T23:08:11Z</time></trkpt><trkpt lat="45.6568242145158" lon="12.497453542952506"><ele>2.0</ele><time>2026-05-01T23:08:12Z</time></trkpt><trkpt lat="45.6566779153254" lon="12.497102896069995"><ele>3.0</ele><time>2026-05-01T23:08:13Z</time></trkpt><trkpt lat="45.65653046899753" lon="12.496752279239859"><ele>4.0</ele><time>2026-05-01T23:08:14Z</time></trkpt><trkpt lat="45.65637848727571" lon="12.496392190342888"><ele>3.5</ele><time>2026-05-01T23:08:15Z</time></trkpt><trkpt lat="45.65622566054099" lon="12.496034142360662"><ele>3.0</ele><time>2026-05-01T23:08:16Z</time></trkpt><trkpt lat="45.65607272708224" lon="12.495672525641355"><ele>2.5</ele><time>2026-05-01T23:08:17Z</time></trkpt><trkpt lat="45.65591737697017" lon="12.495303422172297"><ele>2.0</ele><time>2026-05-01T23:08:18Z</time></trkpt><trkpt lat="45.6557617963054" lon="12.494933673500874"><ele>2.5</ele><time>2026-05-01T23:08:19Z</time></trkpt><trkpt lat="45.65560451744917" lon="12.49455862654382"><ele>3.0</ele><time>2026-05-01T23:08:20Z</time></trkpt><trkpt lat="45.65545110611982" lon="12.494189777399281"><ele>3.0</ele><time>2026-05-01T23:08:21Z</time></trkpt><trkpt lat="45.655293379337756" lon="12.493810548349362"><ele>3.0</ele><time>2026-05-01T23:08:22Z</time></trkpt><trkpt lat="45.65513564058939" lon="12.493437040072244"><ele>3.0</ele><time>2026-05-01T23:08:23Z</time></trkpt><trkpt lat="45.65497469174838" lon="12.49306504922343"><ele>3.0</ele><time>2026-05-01T23:08:24Z</time></trkpt><trkpt lat="45.654814717019455" lon="12.492697896838518"><ele>3.0</ele><time>2026-05-01T23:08:25Z</time></trkpt><trkpt lat="45.65465717015182" lon="12.492330225612829"><ele>3.0</ele><time>2026-05-01T23:08:26Z</time></trkpt><trkpt lat="45.65449941024354" lon="12.491954770326391"><ele>2.5</ele><time>2026-05-01T23:08:27Z</time></trkpt><trkpt lat="45.65434430686253" lon="12.491587462348107"><ele>2.0</ele><time>2026-05-01T23:08:28Z</time></trkpt><trkpt lat="45.65418942794242" lon="12.491220731779062"><ele>2.0</ele><time>2026-05-01T23:08:29Z</time></trkpt><trkpt lat="45.654034878058354" lon="12.490852455296007"><ele>2.0</ele><time>2026-05-01T23:08:30Z</time></trkpt><trkpt lat="45.65388035210809" lon="12.490487389704311"><ele>2.0</ele><time>2026-05-01T23:08:31Z</time></trkpt><trkpt lat="45.65372590916471" lon="12.4901212745542"><ele>2.0</ele><time>2026-05-01T23:08:32Z</time></trkpt><trkpt lat="45.65357112853113" lon="12.489753109535531"><ele>2.0</ele><time>2026-05-01T23:08:33Z</time></trkpt><trkpt lat="45.65341617229116" lon="12.489390480636633"><ele>2.0</ele><time>2026-05-01T23:08:34Z</time></trkpt><trkpt lat="45.65326367075668" lon="12.489032906455552"><ele>2.0</ele><time>2026-05-01T23:08:35Z</time></trkpt><trkpt lat="45.653107364808974" lon="12.48865942564286"><ele>2.0</ele><time>2026-05-01T23:08:36Z</time></trkpt><trkpt lat="45.65295522521378" lon="12.488303560576954"><ele>2.0</ele><time>2026-05-01T23:08:37Z</time></trkpt><trkpt lat="45.65280320740928" lon="12.487940542769897"><ele>2.0</ele><time>2026-05-01T23:08:38Z</time></trkpt><trkpt lat="45.652651525010064" lon="12.48758635861197"><ele>2.0</ele><time>2026-05-01T23:08:39Z</time></trkpt><trkpt lat="45.652499020567944" lon="12.487225075330434"><ele>2.0</ele><time>2026-05-01T23:08:40.001Z</time></trkpt><trkpt lat="45.65234760375514" lon="12.486868792962195"><ele>2.0</ele><time>2026-05-01T23:08:41.001Z</time></trkpt><trkpt lat="45.65219283156171" lon="12.48650528658656"><ele>2.0</ele><time>2026-05-01T23:08:42.001Z</time></trkpt><trkpt lat="45.6520398661013" lon="12.486146271030485"><ele>2.0</ele><time>2026-05-01T23:08:43.001Z</time></trkpt><trkpt lat="45.6518862085211" lon="12.485785950230092"><ele>2.0</ele><time>2026-05-01T23:08:44.001Z</time></trkpt><trkpt lat="45.65173317887685" lon="12.485423369838166"><ele>2.5</ele><time>2026-05-01T23:08:45.001Z</time></trkpt><trkpt lat="45.65157945806241" lon="12.485058933013498"><ele>3.0</ele><time>2026-05-01T23:08:46.001Z</time></trkpt><trkpt lat="45.651425608353605" lon="12.484697593033228"><ele>1.5</ele><time>2026-05-01T23:08:47.001Z</time></trkpt><trkpt lat="45.651269881260625" lon="12.484332100578309"><ele>0.0</ele><time>2026-05-01T23:08:48.001Z</time></trkpt><trkpt lat="45.65111570330445" lon="12.483967758013028"><ele>0.5</ele><time>2026-05-01T23:08:49.001Z</time></trkpt><trkpt lat="45.650961155280356" lon="12.483607395213468"><ele>1.0</ele><time>2026-05-01T23:08:50.001Z</time></trkpt><trkpt lat="45.65080936965113" lon="12.483244427497882"><ele>2.0</ele><time>2026-05-01T23:08:51.001Z</time></trkpt><trkpt lat="45.65065634358322" lon="12.482883333828765"><ele>3.0</ele><time>2026-05-01T23:08:52.001Z</time></trkpt><trkpt lat="45.65050371704187" lon="12.482522644926014"><ele>3.0</ele><time>2026-05-01T23:08:53.001Z</time></trkpt><trkpt lat="45.65035178064893" lon="12.482166191064714"><ele>3.0</ele><time>2026-05-01T23:08:54.001Z</time></trkpt><trkpt lat="45.6501968063355" lon="12.481810128460125"><ele>2.5</ele><time>2026-05-01T23:08:55.001Z</time></trkpt><trkpt lat="45.65004048274004" lon="12.481455617976302"><ele>2.0</ele><time>2026-05-01T23:08:56.001Z</time></trkpt><trkpt lat="45.64988243675269" lon="12.48110201805587"><ele>2.0</ele><time>2026-05-01T23:08:57.001Z</time></trkpt><trkpt lat="45.64972372711069" lon="12.480747273751232"><ele>2.0</ele><time>2026-05-01T23:08:58.001Z</time></trkpt><trkpt lat="45.649565122570735" lon="12.480392544473638"><ele>3.0</ele><time>2026-05-01T23:08:59.001Z</time></trkpt><trkpt lat="45.64940472445092" lon="12.480040265689677"><ele>4.0</ele><time>2026-05-01T23:09:00.001Z</time></trkpt><trkpt lat="45.64924206234574" lon="12.479687889958399"><ele>3.5</ele><time>2026-05-01T23:09:01.001Z</time></trkpt><trkpt lat="45.64907724778898" lon="12.479336936659974"><ele>3.0</ele><time>2026-05-01T23:09:02Z</time></trkpt><trkpt lat="45.64891101228654" lon="12.478991712495233"><ele>3.0</ele><time>2026-05-01T23:09:03Z</time></trkpt><trkpt lat="45.64874351276753" lon="12.478645761220857"><ele>3.0</ele><time>2026-05-01T23:09:04Z</time></trkpt><trkpt lat="45.64857420836817" lon="12.47830256637717"><ele>3.5</ele><time>2026-05-01T23:09:05Z</time></trkpt><trkpt lat="45.648402140923515" lon="12.47796090088559"><ele>4.0</ele><time>2026-05-01T23:09:06Z</time></trkpt><trkpt lat="45.64823087271798" lon="12.477621448327332"><ele>3.0</ele><time>2026-05-01T23:09:07Z</time></trkpt><trkpt lat="45.648058120316804" lon="12.477286187197715"><ele>2.0</ele><time>2026-05-01T23:09:08Z</time></trkpt><trkpt lat="45.64788266119318" lon="12.47695320456298"><ele>2.5</ele><time>2026-05-01T23:09:09Z</time></trkpt><trkpt lat="45.64770528865448" lon="12.47662200946153"><ele>3.0</ele><time>2026-05-01T23:09:10Z</time></trkpt><trkpt lat="45.6475265307861" lon="12.476294655408577"><ele>3.0</ele><time>2026-05-01T23:09:11Z</time></trkpt><trkpt lat="45.64734841135499" lon="12.475969162336378"><ele>3.0</ele><time>2026-05-01T23:09:12Z</time></trkpt><trkpt lat="45.64716992762371" lon="12.475641433721758"><ele>2.5</ele><time>2026-05-01T23:09:13Z</time></trkpt><trkpt lat="45.646989774560005" lon="12.475317372335516"><ele>2.0</ele><time>2026-05-01T23:09:14Z</time></trkpt><trkpt lat="45.64680942216034" lon="12.474991599715837"><ele>2.5</ele><time>2026-05-01T23:09:15Z</time></trkpt><trkpt lat="45.64662876897565" lon="12.474664808569404"><ele>3.0</ele><time>2026-05-01T23:09:16Z</time></trkpt><trkpt lat="45.64644780352326" lon="12.474338228818915"><ele>3.0</ele><time>2026-05-01T23:09:17Z</time></trkpt><trkpt lat="45.64626995938639" lon="12.47401962534803"><ele>3.0</ele><time>2026-05-01T23:09:18Z</time></trkpt><trkpt lat="45.64608686330424" lon="12.473684969887376"><ele>1.5</ele><time>2026-05-01T23:09:19Z</time></trkpt><trkpt lat="45.645905925915976" lon="12.47336263639489"><ele>0.0</ele><time>2026-05-01T23:09:20Z</time></trkpt><trkpt lat="45.64572515818367" lon="12.473037393891836"><ele>0.5</ele><time>2026-05-01T23:09:21Z</time></trkpt><trkpt lat="45.64554321070392" lon="12.47270824407785"><ele>1.0</ele><time>2026-05-01T23:09:22Z</time></trkpt><trkpt lat="45.6453616291461" lon="12.47238585396761"><ele>0.5</ele><time>2026-05-01T23:09:23Z</time></trkpt><trkpt lat="45.6451802199133" lon="12.47206148256037"><ele>0.0</ele><time>2026-05-01T23:09:24Z</time></trkpt><trkpt lat="45.64499887040636" lon="12.471732885228677"><ele>0.0</ele><time>2026-05-01T23:09:25Z</time></trkpt><trkpt lat="45.64481824850121" lon="12.471400499727608"><ele>0.0</ele><time>2026-05-01T23:09:26Z</time></trkpt><trkpt lat="45.64463458114122" lon="12.471067570975773"><ele>0.0</ele><time>2026-05-01T23:09:27Z</time></trkpt><trkpt lat="45.64445314333563" lon="12.470739582620043"><ele>0.0</ele><time>2026-05-01T23:09:28Z</time></trkpt><trkpt lat="45.64426900780433" lon="12.470407174913912"><ele>-0.5</ele><time>2026-05-01T23:09:29Z</time></trkpt><trkpt lat="45.644083530139575" lon="12.470073591978021"><ele>-1.0</ele><time>2026-05-01T23:09:30Z</time></trkpt><trkpt lat="45.64389968232214" lon="12.469744813969776"><ele>-0.5</ele><time>2026-05-01T23:09:31Z</time></trkpt><trkpt lat="45.6437133935777" lon="12.469408169170249"><ele>0.0</ele><time>2026-05-01T23:09:32Z</time></trkpt><trkpt lat="45.64352755154316" lon="12.469074459908128"><ele>1.0</ele><time>2026-05-01T23:09:33Z</time></trkpt><trkpt lat="45.643345558886786" lon="12.468746588807246"><ele>2.0</ele><time>2026-05-01T23:09:34Z</time></trkpt><trkpt lat="45.64316680938789" lon="12.468420639926462"><ele>2.0</ele><time>2026-05-01T23:09:35Z</time></trkpt><trkpt lat="45.64299220721769" lon="12.468111345013373"><ele>2.0</ele><time>2026-05-01T23:09:36Z</time></trkpt><trkpt lat="45.64281525855885" lon="12.467791581761146"><ele>2.5</ele><time>2026-05-01T23:09:37Z</time></trkpt><trkpt lat="45.64263499155546" lon="12.467461211391281"><ele>3.0</ele><time>2026-05-01T23:09:38Z</time></trkpt><trkpt lat="45.64245180210135" lon="12.467131098493079"><ele>2.5</ele><time>2026-05-01T23:09:39Z</time></trkpt><trkpt lat="45.64226698242646" lon="12.466798779787254"><ele>2.0</ele><time>2026-05-01T23:09:40Z</time></trkpt><trkpt lat="45.64208049861024" lon="12.46646766586585"><ele>1.5</ele><time>2026-05-01T23:09:41Z</time></trkpt><trkpt lat="45.64189003947447" lon="12.466133348796477"><ele>1.0</ele><time>2026-05-01T23:09:42Z</time></trkpt><trkpt lat="45.64169972153429" lon="12.465797654849345"><ele>1.0</ele><time>2026-05-01T23:09:43Z</time></trkpt><trkpt lat="45.641508317913505" lon="12.465462996852786"><ele>1.0</ele><time>2026-05-01T23:09:44Z</time></trkpt><trkpt lat="45.641315688880816" lon="12.465125386151684"><ele>1.0</ele><time>2026-05-01T23:09:45Z</time></trkpt><trkpt lat="45.64112372994976" lon="12.464787227662447"><ele>1.0</ele><time>2026-05-01T23:09:46Z</time></trkpt><trkpt lat="45.64093072545158" lon="12.464446145958497"><ele>1.5</ele><time>2026-05-01T23:09:47Z</time></trkpt><trkpt lat="45.640740944240356" lon="12.46410641127692"><ele>2.0</ele><time>2026-05-01T23:09:48Z</time></trkpt><trkpt lat="45.640552364023726" lon="12.46376593223922"><ele>2.0</ele><time>2026-05-01T23:09:49Z</time></trkpt><trkpt lat="45.640361705752454" lon="12.463425459664952"><ele>2.0</ele><time>2026-05-01T23:09:50Z</time></trkpt><trkpt lat="45.64017116120812" lon="12.463087513152095"><ele>1.5</ele><time>2026-05-01T23:09:51Z</time></trkpt><trkpt lat="45.63998067152244" lon="12.462751829958634"><ele>1.0</ele><time>2026-05-01T23:09:52Z</time></trkpt><trkpt lat="45.639791171641626" lon="12.462416342743001"><ele>1.5</ele><time>2026-05-01T23:09:53Z</time></trkpt><trkpt lat="45.639603142466235" lon="12.462083213297074"><ele>2.0</ele><time>2026-05-01T23:09:54Z</time></trkpt><trkpt lat="45.639415258311864" lon="12.461743115384536"><ele>2.0</ele><time>2026-05-01T23:09:55Z</time></trkpt><trkpt lat="45.63922936223289" lon="12.461413986043903"><ele>2.0</ele><time>2026-05-01T23:09:56Z</time></trkpt><trkpt lat="45.639044877413596" lon="12.461082584390548"><ele>2.0</ele><time>2026-05-01T23:09:57Z</time></trkpt><trkpt lat="45.63886614577733" lon="12.460746065804233"><ele>2.0</ele><time>2026-05-01T23:09:58Z</time></trkpt><trkpt lat="45.63869115449501" lon="12.460403531178173"><ele>1.0</ele><time>2026-05-01T23:09:59Z</time></trkpt><trkpt lat="45.63851648955057" lon="12.4600615151324"><ele>0.0</ele><time>2026-05-01T23:10:00Z</time></trkpt><trkpt lat="45.638338967948165" lon="12.459724519712383"><ele>0.0</ele><time>2026-05-01T23:10:01Z</time></trkpt><trkpt lat="45.63815740033655" lon="12.459390489320684"><ele>0.0</ele><time>2026-05-01T23:10:02Z</time></trkpt><trkpt lat="45.63797503656133" lon="12.459064907341345"><ele>0.0</ele><time>2026-05-01T23:10:03Z</time></trkpt><trkpt lat="45.63779643480572" lon="12.4587477874068"><ele>0.0</ele><time>2026-05-01T23:10:04Z</time></trkpt><trkpt lat="45.637624679411495" lon="12.458443765914017"><ele>0.0</ele><time>2026-05-01T23:10:05Z</time></trkpt><trkpt lat="45.637459267975515" lon="12.45814518990659"><ele>0.0</ele><time>2026-05-01T23:10:06Z</time></trkpt><trkpt lat="45.637292105862144" lon="12.457838636775444"><ele>0.0</ele><time>2026-05-01T23:10:07Z</time></trkpt><trkpt lat="45.6371262658979" lon="12.457541716070322"><ele>0.0</ele><time>2026-05-01T23:10:08Z</time></trkpt><trkpt lat="45.636958949754494" lon="12.457237684702445"><ele>0.5</ele><time>2026-05-01T23:10:09Z</time></trkpt><trkpt lat="45.63679044545559" lon="12.456934320852428"><ele>1.0</ele><time>2026-05-01T23:10:10Z</time></trkpt><trkpt lat="45.636616528049835" lon="12.456623404900053"><ele>1.0</ele><time>2026-05-01T23:10:11Z</time></trkpt><trkpt lat="45.636449021472245" lon="12.456322676927108"><ele>1.0</ele><time>2026-05-01T23:10:12Z</time></trkpt><trkpt lat="45.63627329330134" lon="12.45600271542781"><ele>1.0</ele><time>2026-05-01T23:10:13Z</time></trkpt><trkpt lat="45.636091720137536" lon="12.455680388699141"><ele>1.0</ele><time>2026-05-01T23:10:14Z</time></trkpt><trkpt lat="45.63590827019793" lon="12.455358901138679"><ele>1.0</ele><time>2026-05-01T23:10:15Z</time></trkpt><trkpt lat="45.63572371244631" lon="12.455026109422532"><ele>1.0</ele><time>2026-05-01T23:10:16Z</time></trkpt><trkpt lat="45.63553900996415" lon="12.454690842422217"><ele>1.0</ele><time>2026-05-01T23:10:17Z</time></trkpt><trkpt lat="45.635358263827904" lon="12.454353415402325"><ele>1.0</ele><time>2026-05-01T23:10:18Z</time></trkpt><trkpt lat="45.63517604926604" lon="12.454020510264849"><ele>1.0</ele><time>2026-05-01T23:10:19Z</time></trkpt><trkpt lat="45.63498460316385" lon="12.453688399466243"><ele>1.0</ele><time>2026-05-01T23:10:20Z</time></trkpt><trkpt lat="45.63479951376281" lon="12.453355188556463"><ele>1.0</ele><time>2026-05-01T23:10:21Z</time></trkpt><trkpt lat="45.634616891491945" lon="12.453022201109883"><ele>1.0</ele><time>2026-05-01T23:10:22Z</time></trkpt><trkpt lat="45.63442820204991" lon="12.45268811191128"><ele>2.0</ele><time>2026-05-01T23:10:23Z</time></trkpt><trkpt lat="45.63424654391336" lon="12.45235267369321"><ele>3.0</ele><time>2026-05-01T23:10:24Z</time></trkpt><trkpt lat="45.63406255972913" lon="12.45201649328825"><ele>3.0</ele><time>2026-05-01T23:10:25Z</time></trkpt><trkpt lat="45.63387986219545" lon="12.451685863436351"><ele>3.0</ele><time>2026-05-01T23:10:26Z</time></trkpt><trkpt lat="45.63369765441219" lon="12.451360683526316"><ele>3.0</ele><time>2026-05-01T23:10:27Z</time></trkpt><trkpt lat="45.633514112997304" lon="12.45104014631909"><ele>3.0</ele><time>2026-05-01T23:10:28Z</time></trkpt><trkpt lat="45.633338030227165" lon="12.450715990414091"><ele>4.5</ele><time>2026-05-01T23:10:29Z</time></trkpt><trkpt lat="45.633153529296784" lon="12.45039473962204"><ele>6.0</ele><time>2026-05-01T23:10:30Z</time></trkpt><trkpt lat="45.63297453958045" lon="12.450068214683188"><ele>5.0</ele><time>2026-05-01T23:10:31Z</time></trkpt><trkpt lat="45.63279607358235" lon="12.449738042110345"><ele>4.0</ele><time>2026-05-01T23:10:32Z</time></trkpt><trkpt lat="45.632615773783215" lon="12.449415404351036"><ele>4.0</ele><time>2026-05-01T23:10:33Z</time></trkpt><trkpt lat="45.632433682692515" lon="12.449090893770144"><ele>4.0</ele><time>2026-05-01T23:10:34Z</time></trkpt><trkpt lat="45.6322738684026" lon="12.448728757118687"><ele>4.5</ele><time>2026-05-01T23:10:35Z</time></trkpt><trkpt lat="45.63209721781235" lon="12.448386836332773"><ele>5.0</ele><time>2026-05-01T23:10:36Z</time></trkpt><trkpt lat="45.63192243945015" lon="12.448050643591154"><ele>4.5</ele><time>2026-05-01T23:10:37Z</time></trkpt><trkpt lat="45.631754857845046" lon="12.447709741741301"><ele>4.0</ele><time>2026-05-01T23:10:38Z</time></trkpt><trkpt lat="45.63158734837926" lon="12.447364450184299"><ele>4.0</ele><time>2026-05-01T23:10:39Z</time></trkpt><trkpt lat="45.631419383906355" lon="12.447017659414437"><ele>4.0</ele><time>2026-05-01T23:10:40Z</time></trkpt><trkpt lat="45.63125305481775" lon="12.446671707711358"><ele>3.5</ele><time>2026-05-01T23:10:41Z</time></trkpt><trkpt lat="45.63108860748678" lon="12.446333701831673"><ele>3.0</ele><time>2026-05-01T23:10:42Z</time></trkpt><trkpt lat="45.63092525873214" lon="12.4459903043148"><ele>3.0</ele><time>2026-05-01T23:10:43Z</time></trkpt><trkpt lat="45.63077312642444" lon="12.445651909554996"><ele>3.0</ele><time>2026-05-01T23:10:44Z</time></trkpt><trkpt lat="45.63061514594757" lon="12.44530451356131"><ele>3.0</ele><time>2026-05-01T23:10:45Z</time></trkpt><trkpt lat="45.63045803052336" lon="12.444966584526581"><ele>3.0</ele><time>2026-05-01T23:10:46Z</time></trkpt><trkpt lat="45.6303008455479" lon="12.444630227712407"><ele>2.0</ele><time>2026-05-01T23:10:47Z</time></trkpt><trkpt lat="45.6301421159243" lon="12.444292545886016"><ele>1.0</ele><time>2026-05-01T23:10:48Z</time></trkpt><trkpt lat="45.62998595309655" lon="12.443957851155197"><ele>1.0</ele><time>2026-05-01T23:10:49Z</time></trkpt><trkpt lat="45.629833726853185" lon="12.443623717734843"><ele>1.0</ele><time>2026-05-01T23:10:50Z</time></trkpt><trkpt lat="45.62968136128103" lon="12.443278062372295"><ele>1.0</ele><time>2026-05-01T23:10:51Z</time></trkpt><trkpt lat="45.62952826455836" lon="12.442936375474648"><ele>1.0</ele><time>2026-05-01T23:10:52.001Z</time></trkpt><trkpt lat="45.629371443801766" lon="12.442596358864664"><ele>1.0</ele><time>2026-05-01T23:10:53.001Z</time></trkpt><trkpt lat="45.62921788578794" lon="12.442260931573635"><ele>1.0</ele><time>2026-05-01T23:10:54.001Z</time></trkpt><trkpt lat="45.629062251827165" lon="12.44192189225538"><ele>0.5</ele><time>2026-05-01T23:10:55.001Z</time></trkpt><trkpt lat="45.628905957146124" lon="12.441583263443256"><ele>0.0</ele><time>2026-05-01T23:10:56.001Z</time></trkpt><trkpt lat="45.62875051699636" lon="12.441240156318507"><ele>0.5</ele><time>2026-05-01T23:10:57.001Z</time></trkpt><trkpt lat="45.62859863703316" lon="12.440905963511259"><ele>1.0</ele><time>2026-05-01T23:10:58.001Z</time></trkpt><trkpt lat="45.628443760074" lon="12.440566342754577"><ele>0.5</ele><time>2026-05-01T23:10:59.001Z</time></trkpt><trkpt lat="45.628287904700485" lon="12.440233543722803"><ele>0.0</ele><time>2026-05-01T23:11:00.001Z</time></trkpt><trkpt lat="45.628136297631336" lon="12.439892180761271"><ele>-0.5</ele><time>2026-05-01T23:11:01.001Z</time></trkpt><trkpt lat="45.62798303758474" lon="12.43954451529272"><ele>-1.0</ele><time>2026-05-01T23:11:02.001Z</time></trkpt><trkpt lat="45.62783693450132" lon="12.439223769848242"><ele>0.0</ele><time>2026-05-01T23:11:03.001Z</time></trkpt><trkpt lat="45.62769092293568" lon="12.438952073207654"><ele>1.0</ele><time>2026-05-01T23:11:04.001Z</time></trkpt><trkpt lat="45.6275345316136" lon="12.43858720523568"><ele>1.0</ele><time>2026-05-01T23:11:05.001Z</time></trkpt><trkpt lat="45.627390166216465" lon="12.438251646668412"><ele>1.0</ele><time>2026-05-01T23:11:06.001Z</time></trkpt><trkpt lat="45.627241463412595" lon="12.437924460184618"><ele>1.5</ele><time>2026-05-01T23:11:07.001Z</time></trkpt><trkpt lat="45.62708709072642" lon="12.437586622939268"><ele>2.0</ele><time>2026-05-01T23:11:08Z</time></trkpt><trkpt lat="45.62693060473919" lon="12.43724182688237"><ele>2.5</ele><time>2026-05-01T23:11:09Z</time></trkpt><trkpt lat="45.626775078397266" lon="12.43689655535836"><ele>3.0</ele><time>2026-05-01T23:11:10Z</time></trkpt><trkpt lat="45.62661733490446" lon="12.436547723939599"><ele>2.5</ele><time>2026-05-01T23:11:11Z</time></trkpt><trkpt lat="45.6264549460822" lon="12.43620064266732"><ele>2.0</ele><time>2026-05-01T23:11:12Z</time></trkpt><trkpt lat="45.626292685020644" lon="12.435851659410845"><ele>2.5</ele><time>2026-05-01T23:11:13Z</time></trkpt><trkpt lat="45.62612534996078" lon="12.435490950264093"><ele>3.0</ele><time>2026-05-01T23:11:14Z</time></trkpt><trkpt lat="45.62595983824837" lon="12.435142794236405"><ele>2.5</ele><time>2026-05-01T23:11:15Z</time></trkpt><trkpt lat="45.62579517063557" lon="12.43479442810412"><ele>2.0</ele><time>2026-05-01T23:11:16Z</time></trkpt><trkpt lat="45.625633282952734" lon="12.43444325183917"><ele>2.0</ele><time>2026-05-01T23:11:17Z</time></trkpt><trkpt lat="45.625478351226256" lon="12.434093670521747"><ele>2.0</ele><time>2026-05-01T23:11:18Z</time></trkpt><trkpt lat="45.62531693318854" lon="12.433747771743485"><ele>3.5</ele><time>2026-05-01T23:11:19Z</time></trkpt><trkpt lat="45.625161433246504" lon="12.433412176775976"><ele>5.0</ele><time>2026-05-01T23:11:20Z</time></trkpt><trkpt lat="45.62500846771864" lon="12.433070365860658"><ele>5.0</ele><time>2026-05-01T23:11:21Z</time></trkpt><trkpt lat="45.62485390473144" lon="12.432729435557516"><ele>5.0</ele><time>2026-05-01T23:11:22Z</time></trkpt><trkpt lat="45.62470091623293" lon="12.43239000735804"><ele>4.5</ele><time>2026-05-01T23:11:23Z</time></trkpt><trkpt lat="45.62455162727959" lon="12.43205450933812"><ele>4.0</ele><time>2026-05-01T23:11:24Z</time></trkpt><trkpt lat="45.62439726784944" lon="12.43171984083258"><ele>3.5</ele><time>2026-05-01T23:11:25Z</time></trkpt><trkpt lat="45.624244586028986" lon="12.431392253642157"><ele>3.0</ele><time>2026-05-01T23:11:26Z</time></trkpt><trkpt lat="45.62409142250035" lon="12.431060634825709"><ele>2.0</ele><time>2026-05-01T23:11:27Z</time></trkpt><trkpt lat="45.62394923542694" lon="12.430726825278146"><ele>1.0</ele><time>2026-05-01T23:11:28Z</time></trkpt><trkpt lat="45.62379192726725" lon="12.430395723512268"><ele>1.0</ele><time>2026-05-01T23:11:29Z</time></trkpt><trkpt lat="45.62364644297906" lon="12.430068147465013"><ele>1.0</ele><time>2026-05-01T23:11:30Z</time></trkpt><trkpt lat="45.62348795852426" lon="12.429738306980282"><ele>2.0</ele><time>2026-05-01T23:11:31Z</time></trkpt><trkpt lat="45.62333153202265" lon="12.429406178515423"><ele>3.0</ele><time>2026-05-01T23:11:32Z</time></trkpt><trkpt lat="45.62317612361257" lon="12.42907985384693"><ele>2.5</ele><time>2026-05-01T23:11:33Z</time></trkpt><trkpt lat="45.62302678122052" lon="12.428746572516452"><ele>2.0</ele><time>2026-05-01T23:11:34Z</time></trkpt><trkpt lat="45.62287781573665" lon="12.428412420368446"><ele>2.0</ele><time>2026-05-01T23:11:35Z</time></trkpt><trkpt lat="45.622725924242694" lon="12.428082107786077"><ele>2.0</ele><time>2026-05-01T23:11:36Z</time></trkpt><trkpt lat="45.62257427509953" lon="12.427749273958874"><ele>2.0</ele><time>2026-05-01T23:11:37Z</time></trkpt><trkpt lat="45.6224234223442" lon="12.427419361531083"><ele>2.0</ele><time>2026-05-01T23:11:38Z</time></trkpt><trkpt lat="45.62226973690205" lon="12.427088516478705"><ele>2.5</ele><time>2026-05-01T23:11:39Z</time></trkpt><trkpt lat="45.62212004353497" lon="12.426755158846522"><ele>3.0</ele><time>2026-05-01T23:11:40Z</time></trkpt><trkpt lat="45.621972939980715" lon="12.42641988853911"><ele>2.5</ele><time>2026-05-01T23:11:41Z</time></trkpt><trkpt lat="45.62181751897473" lon="12.426095719176391"><ele>2.0</ele><time>2026-05-01T23:11:42Z</time></trkpt><trkpt lat="45.621666827776295" lon="12.425765861175334"><ele>2.0</ele><time>2026-05-01T23:11:43Z</time></trkpt><trkpt lat="45.62151352276972" lon="12.42542897188904"><ele>2.0</ele><time>2026-05-01T23:11:44Z</time></trkpt><trkpt lat="45.621363153082015" lon="12.425097999091996"><ele>2.0</ele><time>2026-05-01T23:11:45Z</time></trkpt><trkpt lat="45.62121160560833" lon="12.424763476975874"><ele>2.0</ele><time>2026-05-01T23:11:46Z</time></trkpt><trkpt lat="45.62106108556134" lon="12.424431293499522"><ele>2.5</ele><time>2026-05-01T23:11:47Z</time></trkpt><trkpt lat="45.62090656752998" lon="12.42410410368543"><ele>3.0</ele><time>2026-05-01T23:11:48Z</time></trkpt><trkpt lat="45.62075600140007" lon="12.423775881628695"><ele>3.5</ele><time>2026-05-01T23:11:49Z</time></trkpt><trkpt lat="45.6206056443262" lon="12.423443077950528"><ele>4.0</ele><time>2026-05-01T23:11:50Z</time></trkpt><trkpt lat="45.62045370124648" lon="12.423114757006573"><ele>4.0</ele><time>2026-05-01T23:11:51Z</time></trkpt><trkpt lat="45.62030341338425" lon="12.42278523144808"><ele>4.0</ele><time>2026-05-01T23:11:52Z</time></trkpt><trkpt lat="45.620154226296094" lon="12.422457428308414"><ele>4.0</ele><time>2026-05-01T23:11:53Z</time></trkpt><trkpt lat="45.62000348812015" lon="12.422129490801225"><ele>4.0</ele><time>2026-05-01T23:11:54Z</time></trkpt><trkpt lat="45.61985205108254" lon="12.421799438589515"><ele>4.0</ele><time>2026-05-01T23:11:55Z</time></trkpt><trkpt lat="45.61970171606714" lon="12.421470173015456"><ele>4.0</ele><time>2026-05-01T23:11:56Z</time></trkpt><trkpt lat="45.61954837497273" lon="12.421149432019979"><ele>4.5</ele><time>2026-05-01T23:11:57Z</time></trkpt><trkpt lat="45.619398147551294" lon="12.420815166168337"><ele>5.0</ele><time>2026-05-01T23:11:58Z</time></trkpt><trkpt lat="45.619247556926055" lon="12.420483308937232"><ele>5.5</ele><time>2026-05-01T23:11:59Z</time></trkpt><trkpt lat="45.61909646255838" lon="12.420155892420864"><ele>6.0</ele><time>2026-05-01T23:12:00Z</time></trkpt><trkpt lat="45.61894569381573" lon="12.419830441674389"><ele>5.0</ele><time>2026-05-01T23:12:01Z</time></trkpt><trkpt lat="45.61879271197599" lon="12.419496422969868"><ele>4.0</ele><time>2026-05-01T23:12:02Z</time></trkpt><trkpt lat="45.61864296181112" lon="12.419163330544157"><ele>4.0</ele><time>2026-05-01T23:12:03Z</time></trkpt><trkpt lat="45.61849082775763" lon="12.418829875529887"><ele>4.0</ele><time>2026-05-01T23:12:04Z</time></trkpt><trkpt lat="45.61833831221005" lon="12.418500378224618"><ele>4.0</ele><time>2026-05-01T23:12:05Z</time></trkpt><trkpt lat="45.618184866410616" lon="12.418165447295216"><ele>4.0</ele><time>2026-05-01T23:12:06Z</time></trkpt><trkpt lat="45.618031887221555" lon="12.417832878026596"><ele>4.5</ele><time>2026-05-01T23:12:07Z</time></trkpt><trkpt lat="45.61787994237919" lon="12.417506548966708"><ele>5.0</ele><time>2026-05-01T23:12:08Z</time></trkpt><trkpt lat="45.617737380048034" lon="12.417185178875807"><ele>4.0</ele><time>2026-05-01T23:12:09Z</time></trkpt><trkpt lat="45.61758466182178" lon="12.416855558833687"><ele>3.0</ele><time>2026-05-01T23:12:10Z</time></trkpt><trkpt lat="45.61742805845515" lon="12.416522618032008"><ele>3.0</ele><time>2026-05-01T23:12:11Z</time></trkpt><trkpt lat="45.6172699589273" lon="12.416184432910534"><ele>3.0</ele><time>2026-05-01T23:12:12Z</time></trkpt><trkpt lat="45.61710832960421" lon="12.415847617005086"><ele>3.0</ele><time>2026-05-01T23:12:13Z</time></trkpt><trkpt lat="45.6169454176789" lon="12.415507857531505"><ele>3.0</ele><time>2026-05-01T23:12:14Z</time></trkpt><trkpt lat="45.61677964412885" lon="12.415171967079427"><ele>3.0</ele><time>2026-05-01T23:12:15Z</time></trkpt><trkpt lat="45.61660929616479" lon="12.414828275773294"><ele>3.0</ele><time>2026-05-01T23:12:16Z</time></trkpt><trkpt lat="45.61644242169383" lon="12.414493901282142"><ele>3.0</ele><time>2026-05-01T23:12:17Z</time></trkpt><trkpt lat="45.616272046927335" lon="12.414153121959679"><ele>3.0</ele><time>2026-05-01T23:12:18Z</time></trkpt><trkpt lat="45.61610107846322" lon="12.413816311589866"><ele>3.0</ele><time>2026-05-01T23:12:19Z</time></trkpt><trkpt lat="45.6159251914147" lon="12.413476504809402"><ele>3.0</ele><time>2026-05-01T23:12:20Z</time></trkpt><trkpt lat="45.61575044745941" lon="12.413140966221523"><ele>2.5</ele><time>2026-05-01T23:12:21Z</time></trkpt><trkpt lat="45.61557564748581" lon="12.412807726017679"><ele>2.0</ele><time>2026-05-01T23:12:22Z</time></trkpt><trkpt lat="45.61539866909614" lon="12.412475274924056"><ele>1.5</ele><time>2026-05-01T23:12:23Z</time></trkpt><trkpt lat="45.615218440718444" lon="12.412149837033972"><ele>1.0</ele><time>2026-05-01T23:12:24Z</time></trkpt><trkpt lat="45.61503955501506" lon="12.411825531250534"><ele>1.0</ele><time>2026-05-01T23:12:25Z</time></trkpt><trkpt lat="45.61486128423925" lon="12.411500254564633"><ele>1.0</ele><time>2026-05-01T23:12:26Z</time></trkpt><trkpt lat="45.614683339512695" lon="12.41117166550081"><ele>0.5</ele><time>2026-05-01T23:12:27Z</time></trkpt><trkpt lat="45.614503796417104" lon="12.41084129489643"><ele>0.0</ele><time>2026-05-01T23:12:28Z</time></trkpt><trkpt lat="45.61433125296292" lon="12.410521120777368"><ele>0.5</ele><time>2026-05-01T23:12:29Z</time></trkpt><trkpt lat="45.61415064734183" lon="12.410193208795334"><ele>1.0</ele><time>2026-05-01T23:12:30Z</time></trkpt><trkpt lat="45.61396839904997" lon="12.409862587116788"><ele>1.5</ele><time>2026-05-01T23:12:31Z</time></trkpt><trkpt lat="45.613787770211445" lon="12.409540131150585"><ele>2.0</ele><time>2026-05-01T23:12:32Z</time></trkpt><trkpt lat="45.61360294097585" lon="12.4092089729579"><ele>2.0</ele><time>2026-05-01T23:12:33Z</time></trkpt><trkpt lat="45.61342332350697" lon="12.408884826494257"><ele>2.0</ele><time>2026-05-01T23:12:34Z</time></trkpt><trkpt lat="45.61324115112265" lon="12.408554460283932"><ele>2.0</ele><time>2026-05-01T23:12:35Z</time></trkpt><trkpt lat="45.6130606626923" lon="12.408226965715118"><ele>2.0</ele><time>2026-05-01T23:12:36Z</time></trkpt><trkpt lat="45.61288019489096" lon="12.407901763194095"><ele>2.0</ele><time>2026-05-01T23:12:37Z</time></trkpt><trkpt lat="45.612699606530306" lon="12.407577461101896"><ele>2.0</ele><time>2026-05-01T23:12:38Z</time></trkpt><trkpt lat="45.61252213160641" lon="12.4072551305803"><ele>2.5</ele><time>2026-05-01T23:12:39Z</time></trkpt><trkpt lat="45.61234635528243" lon="12.406932534293741"><ele>3.0</ele><time>2026-05-01T23:12:40Z</time></trkpt><trkpt lat="45.612169208543484" lon="12.40661211762877"><ele>2.5</ele><time>2026-05-01T23:12:41Z</time></trkpt><trkpt lat="45.611994480021444" lon="12.406291450600133"><ele>2.0</ele><time>2026-05-01T23:12:42Z</time></trkpt><trkpt lat="45.61181818478715" lon="12.405968524011673"><ele>2.5</ele><time>2026-05-01T23:12:43Z</time></trkpt><trkpt lat="45.61164241033987" lon="12.405646519414773"><ele>3.0</ele><time>2026-05-01T23:12:44Z</time></trkpt><trkpt lat="45.61146498021913" lon="12.405323282634729"><ele>3.0</ele><time>2026-05-01T23:12:45Z</time></trkpt><trkpt lat="45.61128545745771" lon="12.404999578794948"><ele>3.0</ele><time>2026-05-01T23:12:46Z</time></trkpt><trkpt lat="45.611103518446996" lon="12.404670858287757"><ele>3.5</ele><time>2026-05-01T23:12:47Z</time></trkpt><trkpt lat="45.610923309340414" lon="12.404347408806666"><ele>4.0</ele><time>2026-05-01T23:12:48Z</time></trkpt><trkpt lat="45.61074044339402" lon="12.404021536890061"><ele>3.5</ele><time>2026-05-01T23:12:49Z</time></trkpt><trkpt lat="45.61055698604297" lon="12.403690595184447"><ele>3.0</ele><time>2026-05-01T23:12:50Z</time></trkpt><trkpt lat="45.61037345375124" lon="12.403361625746875"><ele>3.0</ele><time>2026-05-01T23:12:51Z</time></trkpt><trkpt lat="45.61018936573252" lon="12.403029783734533"><ele>3.0</ele><time>2026-05-01T23:12:52Z</time></trkpt><trkpt lat="45.6100078503768" lon="12.402697568965158"><ele>3.0</ele><time>2026-05-01T23:12:53Z</time></trkpt><trkpt lat="45.60982703460611" lon="12.402366837404966"><ele>3.0</ele><time>2026-05-01T23:12:54Z</time></trkpt><trkpt lat="45.60964499409989" lon="12.402035803991485"><ele>3.0</ele><time>2026-05-01T23:12:55Z</time></trkpt><trkpt lat="45.60946338080103" lon="12.401710034639471"><ele>3.0</ele><time>2026-05-01T23:12:56Z</time></trkpt><trkpt lat="45.60928131408798" lon="12.4013812792106"><ele>2.5</ele><time>2026-05-01T23:12:57.001Z</time></trkpt><trkpt lat="45.60909777755438" lon="12.401048760464455"><ele>2.0</ele><time>2026-05-01T23:12:58.001Z</time></trkpt><trkpt lat="45.60891648818865" lon="12.400716153058093"><ele>2.5</ele><time>2026-05-01T23:12:59.001Z</time></trkpt><trkpt lat="45.60873232264612" lon="12.400379244178787"><ele>3.0</ele><time>2026-05-01T23:13:00.001Z</time></trkpt><trkpt lat="45.60854972933524" lon="12.400049059150268"><ele>3.0</ele><time>2026-05-01T23:13:01.001Z</time></trkpt><trkpt lat="45.60836661292193" lon="12.399722860400171"><ele>3.0</ele><time>2026-05-01T23:13:02.001Z</time></trkpt><trkpt lat="45.608177815920314" lon="12.399380503301675"><ele>3.0</ele><time>2026-05-01T23:13:03.001Z</time></trkpt><trkpt lat="45.60799340788456" lon="12.399048905676374"><ele>3.0</ele><time>2026-05-01T23:13:04.001Z</time></trkpt><trkpt lat="45.60780986327874" lon="12.398714323646251"><ele>2.5</ele><time>2026-05-01T23:13:05.001Z</time></trkpt><trkpt lat="45.60762465220919" lon="12.398380704162713"><ele>2.0</ele><time>2026-05-01T23:13:06.001Z</time></trkpt><trkpt lat="45.60743715037711" lon="12.398042068436144"><ele>1.5</ele><time>2026-05-01T23:13:07.001Z</time></trkpt><trkpt lat="45.607251166154306" lon="12.397705911041665"><ele>1.0</ele><time>2026-05-01T23:13:08.001Z</time></trkpt><trkpt lat="45.60706464348793" lon="12.397374528289692"><ele>1.5</ele><time>2026-05-01T23:13:09.001Z</time></trkpt><trkpt lat="45.606874722663214" lon="12.39703369508636"><ele>2.0</ele><time>2026-05-01T23:13:10.001Z</time></trkpt><trkpt lat="45.60668627772253" lon="12.396703189621245"><ele>2.0</ele><time>2026-05-01T23:13:11.001Z</time></trkpt><trkpt lat="45.6065004118938" lon="12.396371394053855"><ele>2.0</ele><time>2026-05-01T23:13:12.001Z</time></trkpt><trkpt lat="45.60631039267748" lon="12.39603571192947"><ele>2.0</ele><time>2026-05-01T23:13:13.001Z</time></trkpt><trkpt lat="45.60612362380804" lon="12.395702802468323"><ele>2.0</ele><time>2026-05-01T23:13:14Z</time></trkpt><trkpt lat="45.60593684055763" lon="12.395371272988044"><ele>1.5</ele><time>2026-05-01T23:13:15Z</time></trkpt><trkpt lat="45.6057514140058" lon="12.395039103924178"><ele>1.0</ele><time>2026-05-01T23:13:16Z</time></trkpt><trkpt lat="45.60557030130389" lon="12.39470765162823"><ele>1.5</ele><time>2026-05-01T23:13:17Z</time></trkpt><trkpt lat="45.60539007526193" lon="12.394376520973971"><ele>2.0</ele><time>2026-05-01T23:13:18Z</time></trkpt><trkpt lat="45.60520888959454" lon="12.394047812071921"><ele>2.5</ele><time>2026-05-01T23:13:19Z</time></trkpt><trkpt lat="45.60502911824653" lon="12.393725518929267"><ele>3.0</ele><time>2026-05-01T23:13:20Z</time></trkpt><trkpt lat="45.60485073888628" lon="12.393404868460033"><ele>3.0</ele><time>2026-05-01T23:13:21Z</time></trkpt><trkpt lat="45.60467371255722" lon="12.39308159056353"><ele>3.0</ele><time>2026-05-01T23:13:22Z</time></trkpt><trkpt lat="45.604500840006125" lon="12.39275935678227"><ele>2.5</ele><time>2026-05-01T23:13:23Z</time></trkpt><trkpt lat="45.60433059559398" lon="12.392432440856885"><ele>2.0</ele><time>2026-05-01T23:13:24Z</time></trkpt><trkpt lat="45.60416255331154" lon="12.392103683516146"><ele>2.0</ele><time>2026-05-01T23:13:25Z</time></trkpt><trkpt lat="45.6039912459536" lon="12.391776600205874"><ele>2.0</ele><time>2026-05-01T23:13:26Z</time></trkpt><trkpt lat="45.603817542548896" lon="12.391455161547027"><ele>2.0</ele><time>2026-05-01T23:13:27Z</time></trkpt><trkpt lat="45.60364255543652" lon="12.391131557630287"><ele>2.0</ele><time>2026-05-01T23:13:28Z</time></trkpt><trkpt lat="45.60346184905526" lon="12.390805528860666"><ele>2.5</ele><time>2026-05-01T23:13:29Z</time></trkpt><trkpt lat="45.60328217501261" lon="12.390482113391714"><ele>3.0</ele><time>2026-05-01T23:13:30Z</time></trkpt><trkpt lat="45.603102624699936" lon="12.390155647914307"><ele>3.0</ele><time>2026-05-01T23:13:31Z</time></trkpt><trkpt lat="45.60292666481749" lon="12.389836798907954"><ele>3.0</ele><time>2026-05-01T23:13:32Z</time></trkpt><trkpt lat="45.60275970791325" lon="12.389538456846825"><ele>3.0</ele><time>2026-05-01T23:13:33Z</time></trkpt><trkpt lat="45.60258823685472" lon="12.389218116772698"><ele>3.0</ele><time>2026-05-01T23:13:34Z</time></trkpt><trkpt lat="45.6024074367041" lon="12.38890032445214"><ele>2.5</ele><time>2026-05-01T23:13:35Z</time></trkpt><trkpt lat="45.6022268188856" lon="12.38857428092205"><ele>2.0</ele><time>2026-05-01T23:13:36Z</time></trkpt><trkpt lat="45.602043316582005" lon="12.388242479107525"><ele>3.0</ele><time>2026-05-01T23:13:37Z</time></trkpt><trkpt lat="45.60186017716475" lon="12.387908501514802"><ele>4.0</ele><time>2026-05-01T23:13:38Z</time></trkpt><trkpt lat="45.60167434246104" lon="12.387575536025468"><ele>4.0</ele><time>2026-05-01T23:13:39Z</time></trkpt><trkpt lat="45.601494641060455" lon="12.387249475673238"><ele>4.0</ele><time>2026-05-01T23:13:40Z</time></trkpt><trkpt lat="45.60130238265977" lon="12.386911848835288"><ele>4.0</ele><time>2026-05-01T23:13:41Z</time></trkpt><trkpt lat="45.601116935271094" lon="12.3865917228488"><ele>4.0</ele><time>2026-05-01T23:13:42Z</time></trkpt><trkpt lat="45.60092875002795" lon="12.386266667752889"><ele>4.0</ele><time>2026-05-01T23:13:43Z</time></trkpt><trkpt lat="45.600740843552046" lon="12.385948051864446"><ele>4.0</ele><time>2026-05-01T23:13:44Z</time></trkpt><trkpt lat="45.600552051590576" lon="12.385627143351407"><ele>3.5</ele><time>2026-05-01T23:13:45Z</time></trkpt><trkpt lat="45.60036598303489" lon="12.385308240341903"><ele>3.0</ele><time>2026-05-01T23:13:46Z</time></trkpt><trkpt lat="45.60018494652572" lon="12.384991330580432"><ele>3.0</ele><time>2026-05-01T23:13:47Z</time></trkpt><trkpt lat="45.60000019465753" lon="12.38467518016263"><ele>3.0</ele><time>2026-05-01T23:13:48Z</time></trkpt><trkpt lat="45.59981953739649" lon="12.384360063819276"><ele>3.0</ele><time>2026-05-01T23:13:49Z</time></trkpt><trkpt lat="45.59964100320113" lon="12.384043314033033"><ele>3.0</ele><time>2026-05-01T23:13:50Z</time></trkpt><trkpt lat="45.59946091210643" lon="12.383722955075019"><ele>3.0</ele><time>2026-05-01T23:13:51Z</time></trkpt><trkpt lat="45.5992786987226" lon="12.383398692760451"><ele>3.0</ele><time>2026-05-01T23:13:52Z</time></trkpt><trkpt lat="45.59909285850436" lon="12.383078804130138"><ele>2.5</ele><time>2026-05-01T23:13:53Z</time></trkpt><trkpt lat="45.598904452620026" lon="12.3827636034994"><ele>2.0</ele><time>2026-05-01T23:13:54Z</time></trkpt><trkpt lat="45.59871229543157" lon="12.382448416583598"><ele>2.0</ele><time>2026-05-01T23:13:55Z</time></trkpt><trkpt lat="45.59851526757072" lon="12.382136497347133"><ele>2.0</ele><time>2026-05-01T23:13:56Z</time></trkpt><trkpt lat="45.598316877340885" lon="12.381825416696238"><ele>2.0</ele><time>2026-05-01T23:13:57Z</time></trkpt><trkpt lat="45.59811671444162" lon="12.381517555281727"><ele>2.0</ele><time>2026-05-01T23:13:58Z</time></trkpt><trkpt lat="45.597913540560555" lon="12.381209459855915"><ele>2.5</ele><time>2026-05-01T23:13:59Z</time></trkpt><trkpt lat="45.597710124709764" lon="12.380906495496191"><ele>3.0</ele><time>2026-05-01T23:14:00Z</time></trkpt><trkpt lat="45.597503401909265" lon="12.38060195178753"><ele>2.5</ele><time>2026-05-01T23:14:01Z</time></trkpt><trkpt lat="45.597301050342566" lon="12.380300459177455"><ele>2.0</ele><time>2026-05-01T23:14:02Z</time></trkpt><trkpt lat="45.59711698144837" lon="12.379997914496064"><ele>2.5</ele><time>2026-05-01T23:14:03Z</time></trkpt><trkpt lat="45.5969154949966" lon="12.37969422968569"><ele>3.0</ele><time>2026-05-01T23:14:04Z</time></trkpt><trkpt lat="45.59670963145013" lon="12.379390972551608"><ele>3.0</ele><time>2026-05-01T23:14:05Z</time></trkpt><trkpt lat="45.59649543627987" lon="12.379093850974357"><ele>3.0</ele><time>2026-05-01T23:14:06Z</time></trkpt><trkpt lat="45.59628048931067" lon="12.37879313320246"><ele>2.5</ele><time>2026-05-01T23:14:07Z</time></trkpt><trkpt lat="45.596069785105506" lon="12.378492182621788"><ele>2.0</ele><time>2026-05-01T23:14:08Z</time></trkpt><trkpt lat="45.59586610282824" lon="12.378186645887833"><ele>2.0</ele><time>2026-05-01T23:14:09Z</time></trkpt><trkpt lat="45.59565366750244" lon="12.377884421076697"><ele>2.0</ele><time>2026-05-01T23:14:10Z</time></trkpt><trkpt lat="45.595442813698774" lon="12.37758135188526"><ele>2.5</ele><time>2026-05-01T23:14:11Z</time></trkpt><trkpt lat="45.595239199106196" lon="12.377287271712479"><ele>3.0</ele><time>2026-05-01T23:14:12Z</time></trkpt><trkpt lat="45.59503401060287" lon="12.376995025243344"><ele>3.0</ele><time>2026-05-01T23:14:13Z</time></trkpt><trkpt lat="45.59482956600982" lon="12.376690111036158"><ele>3.0</ele><time>2026-05-01T23:14:14Z</time></trkpt><trkpt lat="45.594624448045415" lon="12.376381498323834"><ele>3.0</ele><time>2026-05-01T23:14:15Z</time></trkpt><trkpt lat="45.594419201638736" lon="12.376081572632659"><ele>3.0</ele><time>2026-05-01T23:14:16Z</time></trkpt><trkpt lat="45.5942129710372" lon="12.375782789799555"><ele>2.5</ele><time>2026-05-01T23:14:17Z</time></trkpt><trkpt lat="45.59400167821532" lon="12.375490280561102"><ele>2.0</ele><time>2026-05-01T23:14:18Z</time></trkpt><trkpt lat="45.59379766485905" lon="12.375195539690349"><ele>2.0</ele><time>2026-05-01T23:14:19Z</time></trkpt><trkpt lat="45.593587702801734" lon="12.374900066531229"><ele>2.0</ele><time>2026-05-01T23:14:20Z</time></trkpt><trkpt lat="45.59337998646212" lon="12.37459870675092"><ele>2.0</ele><time>2026-05-01T23:14:21Z</time></trkpt><trkpt lat="45.593170953877575" lon="12.374298987428014"><ele>2.0</ele><time>2026-05-01T23:14:22Z</time></trkpt><trkpt lat="45.5929636571136" lon="12.373993960681828"><ele>2.0</ele><time>2026-05-01T23:14:23Z</time></trkpt><trkpt lat="45.59275652310715" lon="12.373687962612182"><ele>2.0</ele><time>2026-05-01T23:14:24Z</time></trkpt><trkpt lat="45.5925526538232" lon="12.37338699615214"><ele>2.0</ele><time>2026-05-01T23:14:25Z</time></trkpt><trkpt lat="45.59234317325897" lon="12.373088511522777"><ele>2.0</ele><time>2026-05-01T23:14:26Z</time></trkpt><trkpt lat="45.59213608617911" lon="12.372774254630684"><ele>2.0</ele><time>2026-05-01T23:14:27Z</time></trkpt><trkpt lat="45.59192646375208" lon="12.372468372656027"><ele>2.0</ele><time>2026-05-01T23:14:28Z</time></trkpt><trkpt lat="45.59171633981725" lon="12.372160417938204"><ele>1.0</ele><time>2026-05-01T23:14:29Z</time></trkpt><trkpt lat="45.59150734914985" lon="12.371849769700852"><ele>0.0</ele><time>2026-05-01T23:14:30Z</time></trkpt><trkpt lat="45.591293344664926" lon="12.371545695360245"><ele>0.0</ele><time>2026-05-01T23:14:31Z</time></trkpt><trkpt lat="45.59107660912037" lon="12.371242426804248"><ele>0.0</ele><time>2026-05-01T23:14:32Z</time></trkpt><trkpt lat="45.590861537750534" lon="12.370941189866668"><ele>0.0</ele><time>2026-05-01T23:14:33Z</time></trkpt><trkpt lat="45.59064648470252" lon="12.370635138136953"><ele>0.0</ele><time>2026-05-01T23:14:34Z</time></trkpt><trkpt lat="45.59043438535312" lon="12.370335528390935"><ele>0.5</ele><time>2026-05-01T23:14:35Z</time></trkpt><trkpt lat="45.59023256503231" lon="12.370026758171477"><ele>1.0</ele><time>2026-05-01T23:14:36Z</time></trkpt><trkpt lat="45.59003051161249" lon="12.369721529303115"><ele>0.5</ele><time>2026-05-01T23:14:37Z</time></trkpt><trkpt lat="45.58981911589613" lon="12.369417443711846"><ele>0.0</ele><time>2026-05-01T23:14:38Z</time></trkpt><trkpt lat="45.5896083871431" lon="12.369105701793375"><ele>1.0</ele><time>2026-05-01T23:14:39Z</time></trkpt><trkpt lat="45.589394165757824" lon="12.368804613954511"><ele>2.0</ele><time>2026-05-01T23:14:40Z</time></trkpt><trkpt lat="45.58918588205889" lon="12.368502832975002"><ele>2.0</ele><time>2026-05-01T23:14:41Z</time></trkpt><trkpt lat="45.58897293909703" lon="12.368192723607892"><ele>2.0</ele><time>2026-05-01T23:14:42Z</time></trkpt><trkpt lat="45.58876102949997" lon="12.36788045681141"><ele>2.0</ele><time>2026-05-01T23:14:43Z</time></trkpt><trkpt lat="45.58854811703066" lon="12.367576559207304"><ele>2.0</ele><time>2026-05-01T23:14:44Z</time></trkpt><trkpt lat="45.58833556368801" lon="12.367268562998293"><ele>0.5</ele><time>2026-05-01T23:14:45Z</time></trkpt><trkpt lat="45.58812370844541" lon="12.366958418083966"><ele>-1.0</ele><time>2026-05-01T23:14:46Z</time></trkpt><trkpt lat="45.58791128008139" lon="12.366651582677575"><ele>1.0</ele><time>2026-05-01T23:14:47Z</time></trkpt><trkpt lat="45.587699135761994" lon="12.366347003030647"><ele>3.0</ele><time>2026-05-01T23:14:48Z</time></trkpt><trkpt lat="45.58748259372118" lon="12.366047953636594"><ele>3.0</ele><time>2026-05-01T23:14:49Z</time></trkpt><trkpt lat="45.58727374286212" lon="12.365744929681908"><ele>3.0</ele><time>2026-05-01T23:14:50Z</time></trkpt><trkpt lat="45.58707778195412" lon="12.36545650771572"><ele>4.0</ele><time>2026-05-01T23:14:51Z</time></trkpt><trkpt lat="45.586875202692205" lon="12.365206468359785"><ele>5.0</ele><time>2026-05-01T23:14:52Z</time></trkpt><trkpt lat="45.58666375739433" lon="12.36495847005113"><ele>3.5</ele><time>2026-05-01T23:14:53Z</time></trkpt><trkpt lat="45.586468045366594" lon="12.36459961743668"><ele>2.0</ele><time>2026-05-01T23:14:54Z</time></trkpt><trkpt lat="45.58626215246487" lon="12.364292048881826"><ele>3.0</ele><time>2026-05-01T23:14:55Z</time></trkpt><trkpt lat="45.58605466759156" lon="12.363989341082256"><ele>4.0</ele><time>2026-05-01T23:14:56Z</time></trkpt><trkpt lat="45.585847533652284" lon="12.363690030436235"><ele>4.0</ele><time>2026-05-01T23:14:57Z</time></trkpt><trkpt lat="45.58564003915996" lon="12.36339142893646"><ele>4.0</ele><time>2026-05-01T23:14:58Z</time></trkpt><trkpt lat="45.58542796926677" lon="12.363091042518885"><ele>5.5</ele><time>2026-05-01T23:14:59Z</time></trkpt><trkpt lat="45.5852203351783" lon="12.36279258412676"><ele>7.0</ele><time>2026-05-01T23:15:00Z</time></trkpt><trkpt lat="45.58501122880177" lon="12.362493949558713"><ele>4.5</ele><time>2026-05-01T23:15:01Z</time></trkpt><trkpt lat="45.584802037301316" lon="12.362194847075134"><ele>2.0</ele><time>2026-05-01T23:15:02Z</time></trkpt><trkpt lat="45.584598173817085" lon="12.361888506985625"><ele>2.5</ele><time>2026-05-01T23:15:03Z</time></trkpt><trkpt lat="45.58439355115136" lon="12.361591526760142"><ele>3.0</ele><time>2026-05-01T23:15:04Z</time></trkpt><trkpt lat="45.58418437122794" lon="12.361299089978456"><ele>3.0</ele><time>2026-05-01T23:15:05Z</time></trkpt><trkpt lat="45.58397426539724" lon="12.361006541934609"><ele>3.0</ele><time>2026-05-01T23:15:06Z</time></trkpt><trkpt lat="45.58377067906413" lon="12.360705841048667"><ele>3.5</ele><time>2026-05-01T23:15:07Z</time></trkpt><trkpt lat="45.583559457512884" lon="12.360408292354238"><ele>4.0</ele><time>2026-05-01T23:15:08Z</time></trkpt><trkpt lat="45.58335013838002" lon="12.360108779401651"><ele>4.0</ele><time>2026-05-01T23:15:09Z</time></trkpt><trkpt lat="45.58313981242275" lon="12.359806776491423"><ele>4.0</ele><time>2026-05-01T23:15:10Z</time></trkpt><trkpt lat="45.58293019740069" lon="12.359508795151285"><ele>6.0</ele><time>2026-05-01T23:15:11Z</time></trkpt><trkpt lat="45.58271932917782" lon="12.359206507517053"><ele>8.0</ele><time>2026-05-01T23:15:12Z</time></trkpt><trkpt lat="45.58251368692275" lon="12.358905810054903"><ele>6.0</ele><time>2026-05-01T23:15:13Z</time></trkpt><trkpt lat="45.58230570972359" lon="12.358603875666404"><ele>4.0</ele><time>2026-05-01T23:15:14Z</time></trkpt><trkpt lat="45.58210214820251" lon="12.35830033383852"><ele>2.5</ele><time>2026-05-01T23:15:15Z</time></trkpt><trkpt lat="45.58189819195663" lon="12.357994432698003"><ele>1.0</ele><time>2026-05-01T23:15:16.001Z</time></trkpt><trkpt lat="45.581688652500496" lon="12.357693120443791"><ele>1.0</ele><time>2026-05-01T23:15:17.001Z</time></trkpt><trkpt lat="45.58148262607491" lon="12.357389867900809"><ele>1.0</ele><time>2026-05-01T23:15:18.001Z</time></trkpt><trkpt lat="45.58127051085916" lon="12.357090306873653"><ele>1.5</ele><time>2026-05-01T23:15:19.001Z</time></trkpt><trkpt lat="45.58106602267759" lon="12.356783160230739"><ele>2.0</ele><time>2026-05-01T23:15:20Z</time></trkpt><trkpt lat="45.58086161308327" lon="12.356475917791055"><ele>2.0</ele><time>2026-05-01T23:15:21Z</time></trkpt><trkpt lat="45.58065587315678" lon="12.3561657247784"><ele>2.0</ele><time>2026-05-01T23:15:22Z</time></trkpt><trkpt lat="45.580446646430026" lon="12.355852151281157"><ele>1.5</ele><time>2026-05-01T23:15:23Z</time></trkpt><trkpt lat="45.580245312715" lon="12.355533947908008"><ele>1.0</ele><time>2026-05-01T23:15:24Z</time></trkpt><trkpt lat="45.58004853824394" lon="12.355214199140088"><ele>1.0</ele><time>2026-05-01T23:15:25Z</time></trkpt><trkpt lat="45.57984605788724" lon="12.35489932537074"><ele>1.0</ele><time>2026-05-01T23:15:26Z</time></trkpt><trkpt lat="45.57964327912658" lon="12.354585508294624"><ele>0.5</ele><time>2026-05-01T23:15:27Z</time></trkpt><trkpt lat="45.57944561850631" lon="12.3542621949781"><ele>0.0</ele><time>2026-05-01T23:15:28Z</time></trkpt><trkpt lat="45.579249004839646" lon="12.35393765959072"><ele>0.5</ele><time>2026-05-01T23:15:29Z</time></trkpt><trkpt lat="45.579052760559506" lon="12.353615034487847"><ele>1.0</ele><time>2026-05-01T23:15:30Z</time></trkpt><trkpt lat="45.578856441282966" lon="12.353294294506833"><ele>0.0</ele><time>2026-05-01T23:15:31Z</time></trkpt><trkpt lat="45.578666368941896" lon="12.352961673638111"><ele>-1.0</ele><time>2026-05-01T23:15:32Z</time></trkpt><trkpt lat="45.57847304348493" lon="12.352636984134383"><ele>-1.0</ele><time>2026-05-01T23:15:33Z</time></trkpt><trkpt lat="45.57828715539001" lon="12.35230041111277"><ele>-1.0</ele><time>2026-05-01T23:15:34Z</time></trkpt><trkpt lat="45.57809935887777" lon="12.351979402543655"><ele>0.5</ele><time>2026-05-01T23:15:35Z</time></trkpt><trkpt lat="45.577913509386114" lon="12.351646399416794"><ele>2.0</ele><time>2026-05-01T23:15:36Z</time></trkpt><trkpt lat="45.57772589828058" lon="12.351319080784553"><ele>2.0</ele><time>2026-05-01T23:15:37Z</time></trkpt><trkpt lat="45.577535001731476" lon="12.350993215890284"><ele>2.0</ele><time>2026-05-01T23:15:38Z</time></trkpt><trkpt lat="45.577345625598525" lon="12.350665149181568"><ele>2.0</ele><time>2026-05-01T23:15:39Z</time></trkpt><trkpt lat="45.57715367173112" lon="12.350338413337287"><ele>2.0</ele><time>2026-05-01T23:15:40Z</time></trkpt><trkpt lat="45.57696348981811" lon="12.35000924099727"><ele>2.0</ele><time>2026-05-01T23:15:41Z</time></trkpt><trkpt lat="45.57677303555434" lon="12.349682414215621"><ele>2.0</ele><time>2026-05-01T23:15:42Z</time></trkpt><trkpt lat="45.576583230604335" lon="12.349355871435021"><ele>2.0</ele><time>2026-05-01T23:15:43Z</time></trkpt><trkpt lat="45.57639980389825" lon="12.34902150844919"><ele>2.0</ele><time>2026-05-01T23:15:44Z</time></trkpt><trkpt lat="45.57621529640112" lon="12.348687948162432"><ele>2.5</ele><time>2026-05-01T23:15:45Z</time></trkpt><trkpt lat="45.57603437741951" lon="12.348353459652055"><ele>3.0</ele><time>2026-05-01T23:15:46Z</time></trkpt><trkpt lat="45.575858303072906" lon="12.348012758308327"><ele>3.0</ele><time>2026-05-01T23:15:47Z</time></trkpt><trkpt lat="45.5756852705866" lon="12.347674561610447"><ele>3.0</ele><time>2026-05-01T23:15:48Z</time></trkpt><trkpt lat="45.57551831720807" lon="12.347328217435127"><ele>3.5</ele><time>2026-05-01T23:15:49Z</time></trkpt><trkpt lat="45.57535880974843" lon="12.346975570532447"><ele>4.0</ele><time>2026-05-01T23:15:50Z</time></trkpt><trkpt lat="45.57520343696378" lon="12.346622906322564"><ele>3.0</ele><time>2026-05-01T23:15:51Z</time></trkpt><trkpt lat="45.575054481676446" lon="12.346263150688642"><ele>2.0</ele><time>2026-05-01T23:15:52Z</time></trkpt><trkpt lat="45.57491450049229" lon="12.345903022174426"><ele>2.0</ele><time>2026-05-01T23:15:53Z</time></trkpt><trkpt lat="45.574775074729345" lon="12.34553805488012"><ele>2.0</ele><time>2026-05-01T23:15:54Z</time></trkpt><trkpt lat="45.5746453090167" lon="12.345164045525944"><ele>2.0</ele><time>2026-05-01T23:15:55Z</time></trkpt><trkpt lat="45.574517817237194" lon="12.344791529437913"><ele>2.0</ele><time>2026-05-01T23:15:56Z</time></trkpt><trkpt lat="45.574399429394155" lon="12.34441891753721"><ele>2.0</ele><time>2026-05-01T23:15:57Z</time></trkpt><trkpt lat="45.57428699624175" lon="12.344036694860465"><ele>2.0</ele><time>2026-05-01T23:15:58Z</time></trkpt><trkpt lat="45.574177685959775" lon="12.343671223796326"><ele>2.0</ele><time>2026-05-01T23:15:59Z</time></trkpt><trkpt lat="45.57409184240123" lon="12.343301722232809"><ele>2.0</ele><time>2026-05-01T23:16:00Z</time></trkpt><trkpt lat="45.57400156696157" lon="12.342924631550991"><ele>2.0</ele><time>2026-05-01T23:16:01Z</time></trkpt><trkpt lat="45.57391566122513" lon="12.3425303917213"><ele>2.0</ele><time>2026-05-01T23:16:02Z</time></trkpt><trkpt lat="45.57384067888916" lon="12.342136916397317"><ele>1.0</ele><time>2026-05-01T23:16:03Z</time></trkpt><trkpt lat="45.57376396265253" lon="12.341732265058988"><ele>0.0</ele><time>2026-05-01T23:16:04Z</time></trkpt><trkpt lat="45.57369620456263" lon="12.341320438788184"><ele>-0.5</ele><time>2026-05-01T23:16:05Z</time></trkpt><trkpt lat="45.573633499466965" lon="12.340911743142227"><ele>-1.0</ele><time>2026-05-01T23:16:06Z</time></trkpt><trkpt lat="45.573581330588716" lon="12.340500998610448"><ele>0.0</ele><time>2026-05-01T23:16:07Z</time></trkpt><trkpt lat="45.573533095183976" lon="12.34007392346731"><ele>1.0</ele><time>2026-05-01T23:16:08Z</time></trkpt><trkpt lat="45.573491953891825" lon="12.339649191350217"><ele>1.5</ele><time>2026-05-01T23:16:09Z</time></trkpt><trkpt lat="45.57346118057692" lon="12.339231409996707"><ele>2.0</ele><time>2026-05-01T23:16:10Z</time></trkpt><trkpt lat="45.57343034266923" lon="12.33880447405517"><ele>1.5</ele><time>2026-05-01T23:16:11Z</time></trkpt><trkpt lat="45.57341303255849" lon="12.338382731275798"><ele>1.0</ele><time>2026-05-01T23:16:12Z</time></trkpt><trkpt lat="45.57340595858882" lon="12.337953691948446"><ele>1.0</ele><time>2026-05-01T23:16:13Z</time></trkpt><trkpt lat="45.5734024935746" lon="12.337526471034924"><ele>1.0</ele><time>2026-05-01T23:16:14Z</time></trkpt><trkpt lat="45.57340799567989" lon="12.337098986806222"><ele>1.0</ele><time>2026-05-01T23:16:15Z</time></trkpt><trkpt lat="45.573420734488565" lon="12.336674181176102"><ele>1.0</ele><time>2026-05-01T23:16:16Z</time></trkpt><trkpt lat="45.57344057845824" lon="12.336245048429388"><ele>0.5</ele><time>2026-05-01T23:16:17Z</time></trkpt><trkpt lat="45.573461292512086" lon="12.335822184526874"><ele>0.0</ele><time>2026-05-01T23:16:18Z</time></trkpt><trkpt lat="45.573500053074" lon="12.335396188809598"><ele>0.0</ele><time>2026-05-01T23:16:19Z</time></trkpt><trkpt lat="45.57353974410255" lon="12.334976739809829"><ele>0.0</ele><time>2026-05-01T23:16:20Z</time></trkpt><trkpt lat="45.57358956463126" lon="12.334559396703014"><ele>-0.5</ele><time>2026-05-01T23:16:21Z</time></trkpt><trkpt lat="45.57364791119424" lon="12.334138380862983"><ele>-1.0</ele><time>2026-05-01T23:16:22Z</time></trkpt><trkpt lat="45.57370918608202" lon="12.33372412602237"><ele>0.5</ele><time>2026-05-01T23:16:23Z</time></trkpt><trkpt lat="45.57378198080917" lon="12.33331040010145"><ele>2.0</ele><time>2026-05-01T23:16:24Z</time></trkpt><trkpt lat="45.57385873413664" lon="12.332898172661658"><ele>2.5</ele><time>2026-05-01T23:16:25Z</time></trkpt><trkpt lat="45.573940476573895" lon="12.332489737670507"><ele>3.0</ele><time>2026-05-01T23:16:26Z</time></trkpt><trkpt lat="45.57402256930302" lon="12.33208191131444"><ele>2.5</ele><time>2026-05-01T23:16:27Z</time></trkpt><trkpt lat="45.574107131474385" lon="12.331676616573201"><ele>2.0</ele><time>2026-05-01T23:16:28Z</time></trkpt><trkpt lat="45.574194844526666" lon="12.331273567589339"><ele>2.0</ele><time>2026-05-01T23:16:29Z</time></trkpt><trkpt lat="45.57428801274526" lon="12.33086727731656"><ele>2.0</ele><time>2026-05-01T23:16:30Z</time></trkpt><trkpt lat="45.57438099181029" lon="12.330463749619867"><ele>2.0</ele><time>2026-05-01T23:16:31Z</time></trkpt><trkpt lat="45.57447365476789" lon="12.330062361510528"><ele>2.0</ele><time>2026-05-01T23:16:32Z</time></trkpt><trkpt lat="45.57457214954187" lon="12.329661603470628"><ele>1.5</ele><time>2026-05-01T23:16:33Z</time></trkpt><trkpt lat="45.574671631375395" lon="12.329260331238128"><ele>1.0</ele><time>2026-05-01T23:16:34Z</time></trkpt><trkpt lat="45.57476926097585" lon="12.328858053634937"><ele>0.5</ele><time>2026-05-01T23:16:35Z</time></trkpt><trkpt lat="45.574868870704734" lon="12.328450868092935"><ele>0.0</ele><time>2026-05-01T23:16:36Z</time></trkpt><trkpt lat="45.57496156171467" lon="12.328047182993688"><ele>0.0</ele><time>2026-05-01T23:16:37Z</time></trkpt><trkpt lat="45.57505607288242" lon="12.327641779870119"><ele>0.0</ele><time>2026-05-01T23:16:38Z</time></trkpt><trkpt lat="45.57515391790338" lon="12.327235630102862"><ele>0.5</ele><time>2026-05-01T23:16:39Z</time></trkpt><trkpt lat="45.57525328950814" lon="12.326829481352117"><ele>1.0</ele><time>2026-05-01T23:16:40Z</time></trkpt><trkpt lat="45.575348124045476" lon="12.32642557732619"><ele>1.5</ele><time>2026-05-01T23:16:41Z</time></trkpt><trkpt lat="45.57544244006785" lon="12.32601991281387"><ele>2.0</ele><time>2026-05-01T23:16:42Z</time></trkpt><trkpt lat="45.575539424602866" lon="12.325611962792651"><ele>0.5</ele><time>2026-05-01T23:16:43Z</time></trkpt><trkpt lat="45.57563379960097" lon="12.325205952050586"><ele>-1.0</ele><time>2026-05-01T23:16:44Z</time></trkpt><trkpt lat="45.575729700303356" lon="12.324799827720962"><ele>-0.5</ele><time>2026-05-01T23:16:45Z</time></trkpt><trkpt lat="45.575825231918074" lon="12.32439399320984"><ele>0.0</ele><time>2026-05-01T23:16:46Z</time></trkpt><trkpt lat="45.57592759825969" lon="12.32398656883186"><ele>0.0</ele><time>2026-05-01T23:16:47Z</time></trkpt><trkpt lat="45.57602418847287" lon="12.323585003786553"><ele>0.0</ele><time>2026-05-01T23:16:48Z</time></trkpt><trkpt lat="45.57612361786358" lon="12.32318234408419"><ele>0.5</ele><time>2026-05-01T23:16:49Z</time></trkpt><trkpt lat="45.576223151674576" lon="12.322779001326712"><ele>1.0</ele><time>2026-05-01T23:16:50Z</time></trkpt><trkpt lat="45.57631953220444" lon="12.322375784267695"><ele>1.5</ele><time>2026-05-01T23:16:51Z</time></trkpt><trkpt lat="45.57641700900333" lon="12.32197038199109"><ele>2.0</ele><time>2026-05-01T23:16:52Z</time></trkpt><trkpt lat="45.57650964155407" lon="12.321564963606718"><ele>2.0</ele><time>2026-05-01T23:16:53Z</time></trkpt><trkpt lat="45.576605042036945" lon="12.321156175079022"><ele>2.0</ele><time>2026-05-01T23:16:54Z</time></trkpt><trkpt lat="45.57670418233105" lon="12.320744952867457"><ele>1.5</ele><time>2026-05-01T23:16:55Z</time></trkpt><trkpt lat="45.57680022221125" lon="12.320333651199617"><ele>1.0</ele><time>2026-05-01T23:16:56Z</time></trkpt><trkpt lat="45.57689391233495" lon="12.319926038304768"><ele>1.0</ele><time>2026-05-01T23:16:57Z</time></trkpt><trkpt lat="45.57698497140699" lon="12.319513111362994"><ele>1.0</ele><time>2026-05-01T23:16:58Z</time></trkpt><trkpt lat="45.577081498488376" lon="12.319092210027415"><ele>0.0</ele><time>2026-05-01T23:16:59Z</time></trkpt><trkpt lat="45.57717663981791" lon="12.318678901731168"><ele>-1.0</ele><time>2026-05-01T23:17:00Z</time></trkpt><trkpt lat="45.577268886922795" lon="12.318264652961043"><ele>-1.0</ele><time>2026-05-01T23:17:01Z</time></trkpt><trkpt lat="45.577361621332194" lon="12.317852654527332"><ele>-1.0</ele><time>2026-05-01T23:17:02Z</time></trkpt><trkpt lat="45.57745105964524" lon="12.31745179027977"><ele>-0.5</ele><time>2026-05-01T23:17:03Z</time></trkpt><trkpt lat="45.57754337692285" lon="12.317051750353757"><ele>0.0</ele><time>2026-05-01T23:17:04Z</time></trkpt><trkpt lat="45.5776402421742" lon="12.316647702641937"><ele>0.0</ele><time>2026-05-01T23:17:05Z</time></trkpt><trkpt lat="45.57773638335063" lon="12.316250644660064"><ele>0.0</ele><time>2026-05-01T23:17:06Z</time></trkpt><trkpt lat="45.57783340046539" lon="12.315857147476756"><ele>0.5</ele><time>2026-05-01T23:17:07Z</time></trkpt><trkpt lat="45.577936206671" lon="12.315462648697105"><ele>1.0</ele><time>2026-05-01T23:17:08Z</time></trkpt><trkpt lat="45.57804379610589" lon="12.31506254162106"><ele>1.5</ele><time>2026-05-01T23:17:09Z</time></trkpt><trkpt lat="45.57814735785469" lon="12.314667801503756"><ele>2.0</ele><time>2026-05-01T23:17:10Z</time></trkpt><trkpt lat="45.57824691909358" lon="12.31426887725405"><ele>2.0</ele><time>2026-05-01T23:17:11Z</time></trkpt><trkpt lat="45.57834364019417" lon="12.313866400516744"><ele>2.0</ele><time>2026-05-01T23:17:12Z</time></trkpt><trkpt lat="45.57844076342971" lon="12.313456369578798"><ele>1.0</ele><time>2026-05-01T23:17:13Z</time></trkpt><trkpt lat="45.578538071809476" lon="12.313053457854299"><ele>0.0</ele><time>2026-05-01T23:17:14Z</time></trkpt><trkpt lat="45.57863488192701" lon="12.312648609119908"><ele>1.0</ele><time>2026-05-01T23:17:15Z</time></trkpt><trkpt lat="45.57872933920139" lon="12.312246100662556"><ele>2.0</ele><time>2026-05-01T23:17:16Z</time></trkpt><trkpt lat="45.57882566520853" lon="12.311841246569424"><ele>2.0</ele><time>2026-05-01T23:17:17Z</time></trkpt><trkpt lat="45.57892246155925" lon="12.31143639195967"><ele>2.0</ele><time>2026-05-01T23:17:18Z</time></trkpt><trkpt lat="45.579017504348144" lon="12.311041245671621"><ele>1.5</ele><time>2026-05-01T23:17:19Z</time></trkpt><trkpt lat="45.57910561094077" lon="12.310669316700833"><ele>1.0</ele><time>2026-05-01T23:17:20Z</time></trkpt><trkpt lat="45.579194845256204" lon="12.310284341224747"><ele>0.5</ele><time>2026-05-01T23:17:21Z</time></trkpt><trkpt lat="45.57929083530657" lon="12.309898273169443"><ele>0.0</ele><time>2026-05-01T23:17:22Z</time></trkpt><trkpt lat="45.579390605581715" lon="12.309496213654144"><ele>0.0</ele><time>2026-05-01T23:17:23Z</time></trkpt><trkpt lat="45.57949214433701" lon="12.309103569062678"><ele>0.0</ele><time>2026-05-01T23:17:24Z</time></trkpt><trkpt lat="45.57959876179878" lon="12.308708897893748"><ele>0.0</ele><time>2026-05-01T23:17:25Z</time></trkpt><trkpt lat="45.579708605652904" lon="12.308310617471014"><ele>0.0</ele><time>2026-05-01T23:17:26Z</time></trkpt><trkpt lat="45.57982051147028" lon="12.307913554561939"><ele>1.0</ele><time>2026-05-01T23:17:27Z</time></trkpt><trkpt lat="45.57993582516663" lon="12.307517052694875"><ele>2.0</ele><time>2026-05-01T23:17:28Z</time></trkpt><trkpt lat="45.58005532129773" lon="12.307126404174353"><ele>2.0</ele><time>2026-05-01T23:17:29Z</time></trkpt><trkpt lat="45.58018368610525" lon="12.306738203195266"><ele>2.0</ele><time>2026-05-01T23:17:30Z</time></trkpt><trkpt lat="45.580314573608646" lon="12.306352363385813"><ele>1.5</ele><time>2026-05-01T23:17:31Z</time></trkpt><trkpt lat="45.58044885745069" lon="12.305969766606198"><ele>1.0</ele><time>2026-05-01T23:17:32Z</time></trkpt><trkpt lat="45.580584139773876" lon="12.305590131323816"><ele>1.5</ele><time>2026-05-01T23:17:33Z</time></trkpt><trkpt lat="45.580725669733944" lon="12.305217939236316"><ele>2.0</ele><time>2026-05-01T23:17:34Z</time></trkpt><trkpt lat="45.58087121255102" lon="12.304849553609598"><ele>2.0</ele><time>2026-05-01T23:17:35Z</time></trkpt><trkpt lat="45.58101902974853" lon="12.3044919192768"><ele>2.0</ele><time>2026-05-01T23:17:36Z</time></trkpt><trkpt lat="45.58116802477036" lon="12.304135608927776"><ele>2.5</ele><time>2026-05-01T23:17:37Z</time></trkpt><trkpt lat="45.581321233226454" lon="12.303785111664867"><ele>3.0</ele><time>2026-05-01T23:17:38Z</time></trkpt><trkpt lat="45.58147584996302" lon="12.303443446902643"><ele>3.0</ele><time>2026-05-01T23:17:39Z</time></trkpt><trkpt lat="45.58163218074368" lon="12.303100268602352"><ele>3.0</ele><time>2026-05-01T23:17:40Z</time></trkpt><trkpt lat="45.58179065255892" lon="12.30275781042089"><ele>3.0</ele><time>2026-05-01T23:17:41Z</time></trkpt><trkpt lat="45.58194884088508" lon="12.30241534501823"><ele>3.0</ele><time>2026-05-01T23:17:42Z</time></trkpt><trkpt lat="45.58211204173504" lon="12.302072364544825"><ele>3.0</ele><time>2026-05-01T23:17:43Z</time></trkpt><trkpt lat="45.58228024280565" lon="12.301735071109555"><ele>3.0</ele><time>2026-05-01T23:17:44Z</time></trkpt><trkpt lat="45.58245741983346" lon="12.301398079581084"><ele>2.5</ele><time>2026-05-01T23:17:45Z</time></trkpt><trkpt lat="45.58263602908908" lon="12.301063501874523"><ele>2.0</ele><time>2026-05-01T23:17:46Z</time></trkpt><trkpt lat="45.58281061918196" lon="12.300733052038254"><ele>2.5</ele><time>2026-05-01T23:17:47Z</time></trkpt><trkpt lat="45.582988038136975" lon="12.300401516672524"><ele>3.0</ele><time>2026-05-01T23:17:48Z</time></trkpt><trkpt lat="45.5831703196409" lon="12.300069475463433"><ele>2.5</ele><time>2026-05-01T23:17:49Z</time></trkpt><trkpt lat="45.5833476063675" lon="12.2997439687622"><ele>2.0</ele><time>2026-05-01T23:17:50Z</time></trkpt><trkpt lat="45.583528073308926" lon="12.299415117935583"><ele>2.0</ele><time>2026-05-01T23:17:51Z</time></trkpt><trkpt lat="45.58370800561196" lon="12.299089380484027"><ele>2.0</ele><time>2026-05-01T23:17:52Z</time></trkpt><trkpt lat="45.58388625941158" lon="12.298767304506926"><ele>2.0</ele><time>2026-05-01T23:17:53Z</time></trkpt><trkpt lat="45.58406140041725" lon="12.2984480519425"><ele>2.0</ele><time>2026-05-01T23:17:54Z</time></trkpt><trkpt lat="45.584235461134554" lon="12.298128096090354"><ele>2.0</ele><time>2026-05-01T23:17:55Z</time></trkpt><trkpt lat="45.584411106526645" lon="12.297807505301675"><ele>2.0</ele><time>2026-05-01T23:17:56Z</time></trkpt><trkpt lat="45.58458396737241" lon="12.297487058627386"><ele>3.0</ele><time>2026-05-01T23:17:57Z</time></trkpt><trkpt lat="45.584759835385334" lon="12.297165126151318"><ele>4.0</ele><time>2026-05-01T23:17:58Z</time></trkpt><trkpt lat="45.58493622306396" lon="12.296841417490194"><ele>4.0</ele><time>2026-05-01T23:17:59Z</time></trkpt><trkpt lat="45.58511397510075" lon="12.296514720379454"><ele>4.0</ele><time>2026-05-01T23:18:00Z</time></trkpt><trkpt lat="45.58529140705704" lon="12.29618774895063"><ele>4.0</ele><time>2026-05-01T23:18:01Z</time></trkpt><trkpt lat="45.585468368894986" lon="12.295862496619668"><ele>4.0</ele><time>2026-05-01T23:18:02Z</time></trkpt><trkpt lat="45.58564314615251" lon="12.295533305465403"><ele>4.0</ele><time>2026-05-01T23:18:03Z</time></trkpt><trkpt lat="45.5858144603316" lon="12.29520549824884"><ele>4.0</ele><time>2026-05-01T23:18:04Z</time></trkpt><trkpt lat="45.58599122034261" lon="12.294873560574349"><ele>4.0</ele><time>2026-05-01T23:18:05Z</time></trkpt><trkpt lat="45.586164007582205" lon="12.29454307728498"><ele>4.0</ele><time>2026-05-01T23:18:06Z</time></trkpt><trkpt lat="45.58633760979324" lon="12.29420999231586"><ele>3.0</ele><time>2026-05-01T23:18:07Z</time></trkpt><trkpt lat="45.58651048347358" lon="12.293878379994558"><ele>2.0</ele><time>2026-05-01T23:18:08Z</time></trkpt><trkpt lat="45.586685080183756" lon="12.293542656555829"><ele>2.0</ele><time>2026-05-01T23:18:09Z</time></trkpt><trkpt lat="45.58684952071581" lon="12.293207449459587"><ele>2.0</ele><time>2026-05-01T23:18:10Z</time></trkpt><trkpt lat="45.58701057983031" lon="12.292869358375277"><ele>2.0</ele><time>2026-05-01T23:18:11Z</time></trkpt><trkpt lat="45.58716810795899" lon="12.292528380298293"><ele>2.0</ele><time>2026-05-01T23:18:12Z</time></trkpt><trkpt lat="45.58732126171779" lon="12.292181289587843"><ele>2.5</ele><time>2026-05-01T23:18:13Z</time></trkpt><trkpt lat="45.587468403457784" lon="12.291828061819412"><ele>3.0</ele><time>2026-05-01T23:18:14Z</time></trkpt><trkpt lat="45.58761039428924" lon="12.291471225893734"><ele>3.0</ele><time>2026-05-01T23:18:15Z</time></trkpt><trkpt lat="45.587751525107876" lon="12.291108831592627"><ele>3.0</ele><time>2026-05-01T23:18:16Z</time></trkpt><trkpt lat="45.58789210705583" lon="12.290743383665147"><ele>2.5</ele><time>2026-05-01T23:18:17Z</time></trkpt><trkpt lat="45.58801085469669" lon="12.290368535805742"><ele>2.0</ele><time>2026-05-01T23:18:18Z</time></trkpt><trkpt lat="45.58813600682909" lon="12.289999294972462"><ele>3.0</ele><time>2026-05-01T23:18:19Z</time></trkpt><trkpt lat="45.58825684270362" lon="12.289627661400711"><ele>4.0</ele><time>2026-05-01T23:18:20Z</time></trkpt><trkpt lat="45.58837463815318" lon="12.289248536418167"><ele>3.5</ele><time>2026-05-01T23:18:21Z</time></trkpt><trkpt lat="45.58849002900813" lon="12.288871767782403"><ele>3.0</ele><time>2026-05-01T23:18:22Z</time></trkpt><trkpt lat="45.588603388398475" lon="12.288493646829997"><ele>3.0</ele><time>2026-05-01T23:18:23Z</time></trkpt><trkpt lat="45.58870775893675" lon="12.288109418789086"><ele>3.0</ele><time>2026-05-01T23:18:24Z</time></trkpt><trkpt lat="45.5888118461168" lon="12.287722036714424"><ele>4.0</ele><time>2026-05-01T23:18:25Z</time></trkpt><trkpt lat="45.588916348011416" lon="12.287335319171625"><ele>5.0</ele><time>2026-05-01T23:18:26Z</time></trkpt><trkpt lat="45.58903165328707" lon="12.28695440740154"><ele>5.0</ele><time>2026-05-01T23:18:27Z</time></trkpt><trkpt lat="45.589106812178535" lon="12.286555205960052"><ele>5.0</ele><time>2026-05-01T23:18:28Z</time></trkpt><trkpt lat="45.589189471310426" lon="12.286161537828592"><ele>5.0</ele><time>2026-05-01T23:18:29Z</time></trkpt><trkpt lat="45.58927603436175" lon="12.285765068860082"><ele>5.0</ele><time>2026-05-01T23:18:30Z</time></trkpt><trkpt lat="45.589359946984125" lon="12.285371767971576"><ele>5.5</ele><time>2026-05-01T23:18:31Z</time></trkpt><trkpt lat="45.589442217385745" lon="12.2849798650204"><ele>6.0</ele><time>2026-05-01T23:18:32Z</time></trkpt><trkpt lat="45.58952591052704" lon="12.284581061182664"><ele>5.0</ele><time>2026-05-01T23:18:33Z</time></trkpt><trkpt lat="45.58961169768645" lon="12.284181885350723"><ele>4.0</ele><time>2026-05-01T23:18:34Z</time></trkpt><trkpt lat="45.58969720071802" lon="12.283784031585116"><ele>3.5</ele><time>2026-05-01T23:18:35Z</time></trkpt><trkpt lat="45.589779742612556" lon="12.283383210116668"><ele>3.0</ele><time>2026-05-01T23:18:36Z</time></trkpt><trkpt lat="45.589861219374164" lon="12.282979637792879"><ele>3.0</ele><time>2026-05-01T23:18:37Z</time></trkpt><trkpt lat="45.58994365811661" lon="12.282579327742981"><ele>3.0</ele><time>2026-05-01T23:18:38Z</time></trkpt><trkpt lat="45.59002659406302" lon="12.282181625408985"><ele>3.0</ele><time>2026-05-01T23:18:39Z</time></trkpt><trkpt lat="45.590107673033096" lon="12.281791534470033"><ele>3.0</ele><time>2026-05-01T23:18:40Z</time></trkpt><trkpt lat="45.59018379167714" lon="12.281420873061881"><ele>4.0</ele><time>2026-05-01T23:18:41Z</time></trkpt><trkpt lat="45.59026319112426" lon="12.281034235711621"><ele>5.0</ele><time>2026-05-01T23:18:42Z</time></trkpt><trkpt lat="45.59034460306975" lon="12.280644609519632"><ele>6.5</ele><time>2026-05-01T23:18:43Z</time></trkpt><trkpt lat="45.59042731021845" lon="12.280250329441579"><ele>8.0</ele><time>2026-05-01T23:18:44Z</time></trkpt><trkpt lat="45.59050990563551" lon="12.279854733369826"><ele>7.5</ele><time>2026-05-01T23:18:45Z</time></trkpt><trkpt lat="45.59059262920858" lon="12.279458202680416"><ele>7.0</ele><time>2026-05-01T23:18:46Z</time></trkpt><trkpt lat="45.590674654124115" lon="12.279065020967556"><ele>6.0</ele><time>2026-05-01T23:18:47Z</time></trkpt><trkpt lat="45.59075670396457" lon="12.278673414134516"><ele>5.0</ele><time>2026-05-01T23:18:48Z</time></trkpt><trkpt lat="45.59084033716756" lon="12.278284812626337"><ele>4.5</ele><time>2026-05-01T23:18:49Z</time></trkpt><trkpt lat="45.590937855808534" lon="12.27790741780389"><ele>4.0</ele><time>2026-05-01T23:18:50Z</time></trkpt><trkpt lat="45.59101565928384" lon="12.277517511973947"><ele>4.0</ele><time>2026-05-01T23:18:51Z</time></trkpt><trkpt lat="45.59109629939872" lon="12.277125188722666"><ele>4.0</ele><time>2026-05-01T23:18:52Z</time></trkpt><trkpt lat="45.59117776069434" lon="12.27672881240352"><ele>3.5</ele><time>2026-05-01T23:18:53Z</time></trkpt><trkpt lat="45.59126143400048" lon="12.276335062784517"><ele>3.0</ele><time>2026-05-01T23:18:54Z</time></trkpt><trkpt lat="45.591345063771506" lon="12.275938423848295"><ele>3.0</ele><time>2026-05-01T23:18:55Z</time></trkpt><trkpt lat="45.59142797530279" lon="12.275540266856911"><ele>3.0</ele><time>2026-05-01T23:18:56Z</time></trkpt><trkpt lat="45.59151064546477" lon="12.27513641833134"><ele>3.5</ele><time>2026-05-01T23:18:57Z</time></trkpt><trkpt lat="45.5915943320156" lon="12.274733105960276"><ele>4.0</ele><time>2026-05-01T23:18:58Z</time></trkpt><trkpt lat="45.59168083373055" lon="12.274330831511511"><ele>3.5</ele><time>2026-05-01T23:18:59Z</time></trkpt><trkpt lat="45.59176730211736" lon="12.273925885123454"><ele>3.0</ele><time>2026-05-01T23:19:00Z</time></trkpt><trkpt lat="45.59185231892572" lon="12.273526402690942"><ele>3.0</ele><time>2026-05-01T23:19:01Z</time></trkpt><trkpt lat="45.59193723560276" lon="12.273124385918052"><ele>3.0</ele><time>2026-05-01T23:19:02Z</time></trkpt><trkpt lat="45.592020481705596" lon="12.272724419986409"><ele>3.5</ele><time>2026-05-01T23:19:03Z</time></trkpt><trkpt lat="45.59210347728651" lon="12.27232118915779"><ele>4.0</ele><time>2026-05-01T23:19:04Z</time></trkpt><trkpt lat="45.59216173840583" lon="12.271907227813173"><ele>4.0</ele><time>2026-05-01T23:19:05Z</time></trkpt><trkpt lat="45.59224650557147" lon="12.271505136474959"><ele>4.0</ele><time>2026-05-01T23:19:06Z</time></trkpt><trkpt lat="45.59233038554858" lon="12.27110725345824"><ele>4.0</ele><time>2026-05-01T23:19:07Z</time></trkpt><trkpt lat="45.592425700533816" lon="12.270708276154755"><ele>4.0</ele><time>2026-05-01T23:19:08Z</time></trkpt><trkpt lat="45.592500523450674" lon="12.270301691768145"><ele>4.0</ele><time>2026-05-01T23:19:09Z</time></trkpt><trkpt lat="45.59257144227371" lon="12.269891113193607"><ele>4.0</ele><time>2026-05-01T23:19:10Z</time></trkpt><trkpt lat="45.59263714436371" lon="12.269477283995174"><ele>4.0</ele><time>2026-05-01T23:19:11Z</time></trkpt><trkpt lat="45.592699372272584" lon="12.269060414328992"><ele>4.0</ele><time>2026-05-01T23:19:12Z</time></trkpt><trkpt lat="45.5927587699583" lon="12.268641839575437"><ele>3.5</ele><time>2026-05-01T23:19:13Z</time></trkpt><trkpt lat="45.592814794595284" lon="12.268220630086452"><ele>3.0</ele><time>2026-05-01T23:19:14Z</time></trkpt><trkpt lat="45.59286562500067" lon="12.267797126598033"><ele>3.0</ele><time>2026-05-01T23:19:15Z</time></trkpt><trkpt lat="45.59290848163223" lon="12.267369449083954"><ele>3.0</ele><time>2026-05-01T23:19:16Z</time></trkpt><trkpt lat="45.592944761614774" lon="12.266935522117958"><ele>3.5</ele><time>2026-05-01T23:19:17Z</time></trkpt><trkpt lat="45.59297653206923" lon="12.266502724470254"><ele>4.0</ele><time>2026-05-01T23:19:18Z</time></trkpt><trkpt lat="45.59300171582758" lon="12.266069163119713"><ele>3.5</ele><time>2026-05-01T23:19:19Z</time></trkpt><trkpt lat="45.59302223515947" lon="12.26564125738245"><ele>3.0</ele><time>2026-05-01T23:19:20Z</time></trkpt><trkpt lat="45.59303729755514" lon="12.265211878321102"><ele>3.0</ele><time>2026-05-01T23:19:21Z</time></trkpt><trkpt lat="45.59304884249648" lon="12.26478339277404"><ele>3.0</ele><time>2026-05-01T23:19:22Z</time></trkpt><trkpt lat="45.59305601959909" lon="12.264352726673243"><ele>4.0</ele><time>2026-05-01T23:19:23Z</time></trkpt><trkpt lat="45.593058089887464" lon="12.263924699414222"><ele>5.0</ele><time>2026-05-01T23:19:24Z</time></trkpt><trkpt lat="45.593055758273934" lon="12.26349771888211"><ele>4.5</ele><time>2026-05-01T23:19:25Z</time></trkpt><trkpt lat="45.59304751936855" lon="12.263069765697436"><ele>4.0</ele><time>2026-05-01T23:19:26Z</time></trkpt><trkpt lat="45.59303193261297" lon="12.262643168956004"><ele>3.5</ele><time>2026-05-01T23:19:27Z</time></trkpt><trkpt lat="45.59301022303846" lon="12.262212167453153"><ele>3.0</ele><time>2026-05-01T23:19:28Z</time></trkpt><trkpt lat="45.59298447950795" lon="12.261781732636925"><ele>3.0</ele><time>2026-05-01T23:19:29Z</time></trkpt><trkpt lat="45.59295600795563" lon="12.26135756715216"><ele>3.0</ele><time>2026-05-01T23:19:30Z</time></trkpt><trkpt lat="45.59292242318516" lon="12.26093291758294"><ele>4.0</ele><time>2026-05-01T23:19:31Z</time></trkpt><trkpt lat="45.5928845536594" lon="12.260508517406219"><ele>5.0</ele><time>2026-05-01T23:19:32Z</time></trkpt><trkpt lat="45.592841382020175" lon="12.26008976517003"><ele>5.0</ele><time>2026-05-01T23:19:33Z</time></trkpt><trkpt lat="45.592793075954326" lon="12.259666423022953"><ele>5.0</ele><time>2026-05-01T23:19:34Z</time></trkpt><trkpt lat="45.59274005912616" lon="12.25924284866094"><ele>4.5</ele><time>2026-05-01T23:19:35Z</time></trkpt><trkpt lat="45.592683791596706" lon="12.25882484302986"><ele>4.0</ele><time>2026-05-01T23:19:36Z</time></trkpt><trkpt lat="45.592622438526654" lon="12.258407743964053"><ele>4.5</ele><time>2026-05-01T23:19:37Z</time></trkpt><trkpt lat="45.59255725937556" lon="12.25799945775855"><ele>5.0</ele><time>2026-05-01T23:19:38Z</time></trkpt><trkpt lat="45.59248385970357" lon="12.257581465626084"><ele>4.5</ele><time>2026-05-01T23:19:39Z</time></trkpt><trkpt lat="45.592404302203384" lon="12.257163095329972"><ele>4.0</ele><time>2026-05-01T23:19:40Z</time></trkpt><trkpt lat="45.592321938979666" lon="12.25675064930604"><ele>3.5</ele><time>2026-05-01T23:19:41Z</time></trkpt><trkpt lat="45.59223595921255" lon="12.256342686177922"><ele>3.0</ele><time>2026-05-01T23:19:42Z</time></trkpt><trkpt lat="45.59214597649576" lon="12.255935614143242"><ele>3.0</ele><time>2026-05-01T23:19:43Z</time></trkpt><trkpt lat="45.592049716846525" lon="12.255528980553587"><ele>3.0</ele><time>2026-05-01T23:19:44Z</time></trkpt><trkpt lat="45.591947638361404" lon="12.255124041761132"><ele>3.5</ele><time>2026-05-01T23:19:45Z</time></trkpt><trkpt lat="45.59183986213891" lon="12.254721107040725"><ele>4.0</ele><time>2026-05-01T23:19:46Z</time></trkpt><trkpt lat="45.59172596356814" lon="12.254320375656468"><ele>4.0</ele><time>2026-05-01T23:19:47Z</time></trkpt><trkpt lat="45.591607071540125" lon="12.253921583053708"><ele>4.0</ele><time>2026-05-01T23:19:48Z</time></trkpt><trkpt lat="45.591485494667644" lon="12.253523418897304"><ele>4.0</ele><time>2026-05-01T23:19:49Z</time></trkpt><trkpt lat="45.59136233061063" lon="12.253128211835802"><ele>4.0</ele><time>2026-05-01T23:19:50Z</time></trkpt><trkpt lat="45.591235658431835" lon="12.252740091606901"><ele>4.0</ele><time>2026-05-01T23:19:51Z</time></trkpt><trkpt lat="45.59110313875554" lon="12.252350731066713"><ele>4.0</ele><time>2026-05-01T23:19:52Z</time></trkpt><trkpt lat="45.59096662805809" lon="12.251971613392385"><ele>4.0</ele><time>2026-05-01T23:19:53Z</time></trkpt><trkpt lat="45.59082372804342" lon="12.251589625162136"><ele>4.0</ele><time>2026-05-01T23:19:54Z</time></trkpt><trkpt lat="45.59068112834525" lon="12.251211060166712"><ele>4.0</ele><time>2026-05-01T23:19:55Z</time></trkpt><trkpt lat="45.59054000042636" lon="12.250834646958776"><ele>4.0</ele><time>2026-05-01T23:19:56Z</time></trkpt><trkpt lat="45.59039944192994" lon="12.250455255745107"><ele>4.5</ele><time>2026-05-01T23:19:57Z</time></trkpt><trkpt lat="45.590264963576715" lon="12.250081336549233"><ele>5.0</ele><time>2026-05-01T23:19:58Z</time></trkpt><trkpt lat="45.59013050726254" lon="12.249706326911511"><ele>5.0</ele><time>2026-05-01T23:19:59Z</time></trkpt><trkpt lat="45.58999697562423" lon="12.24933099797224"><ele>5.0</ele><time>2026-05-01T23:20:00Z</time></trkpt><trkpt lat="45.589865885600624" lon="12.248952324880488"><ele>5.5</ele><time>2026-05-01T23:20:01Z</time></trkpt><trkpt lat="45.58973877610172" lon="12.248572066505425"><ele>6.0</ele><time>2026-05-01T23:20:02Z</time></trkpt><trkpt lat="45.589615777166266" lon="12.248194161294432"><ele>6.0</ele><time>2026-05-01T23:20:03Z</time></trkpt><trkpt lat="45.58948865816067" lon="12.247815270820306"><ele>6.0</ele><time>2026-05-01T23:20:04Z</time></trkpt><trkpt lat="45.58935907447975" lon="12.2474341155654"><ele>5.5</ele><time>2026-05-01T23:20:05Z</time></trkpt><trkpt lat="45.58922879014253" lon="12.247055988312296"><ele>5.0</ele><time>2026-05-01T23:20:06Z</time></trkpt><trkpt lat="45.58909890953385" lon="12.24667435096328"><ele>6.0</ele><time>2026-05-01T23:20:07Z</time></trkpt><trkpt lat="45.588972657526426" lon="12.246293748558333"><ele>7.0</ele><time>2026-05-01T23:20:08Z</time></trkpt><trkpt lat="45.58885019775883" lon="12.245910040626875"><ele>7.0</ele><time>2026-05-01T23:20:09Z</time></trkpt><trkpt lat="45.58872866752457" lon="12.245521397703191"><ele>7.0</ele><time>2026-05-01T23:20:10Z</time></trkpt><trkpt lat="45.58861021250056" lon="12.24513184276421"><ele>6.5</ele><time>2026-05-01T23:20:11Z</time></trkpt><trkpt lat="45.58849394292422" lon="12.244737911177152"><ele>6.0</ele><time>2026-05-01T23:20:12Z</time></trkpt><trkpt lat="45.588380663414696" lon="12.24434245138209"><ele>5.5</ele><time>2026-05-01T23:20:13Z</time></trkpt><trkpt lat="45.58827201782786" lon="12.2439484568929"><ele>5.0</ele><time>2026-05-01T23:20:14Z</time></trkpt><trkpt lat="45.58816682193578" lon="12.243551543713414"><ele>5.0</ele><time>2026-05-01T23:20:15Z</time></trkpt><trkpt lat="45.588068313541584" lon="12.243151233340743"><ele>5.0</ele><time>2026-05-01T23:20:16Z</time></trkpt><trkpt lat="45.58797696050811" lon="12.242746280634625"><ele>5.0</ele><time>2026-05-01T23:20:17Z</time></trkpt><trkpt lat="45.587891209589" lon="12.242339618064932"><ele>5.0</ele><time>2026-05-01T23:20:18Z</time></trkpt><trkpt lat="45.58780937407509" lon="12.241929966651673"><ele>5.5</ele><time>2026-05-01T23:20:19Z</time></trkpt><trkpt lat="45.58772990275124" lon="12.241518893888777"><ele>6.0</ele><time>2026-05-01T23:20:20Z</time></trkpt><trkpt lat="45.58765537628524" lon="12.241106582570765"><ele>6.0</ele><time>2026-05-01T23:20:21Z</time></trkpt><trkpt lat="45.58758476537935" lon="12.240692022404318"><ele>6.0</ele><time>2026-05-01T23:20:22Z</time></trkpt><trkpt lat="45.587517721754786" lon="12.240281610336893"><ele>6.5</ele><time>2026-05-01T23:20:23Z</time></trkpt><trkpt lat="45.58746073820867" lon="12.239889435186628"><ele>7.0</ele><time>2026-05-01T23:20:24Z</time></trkpt><trkpt lat="45.58740510395008" lon="12.239482338044814"><ele>7.0</ele><time>2026-05-01T23:20:25Z</time></trkpt><trkpt lat="45.587352584820806" lon="12.239068589452673"><ele>7.0</ele><time>2026-05-01T23:20:26Z</time></trkpt><trkpt lat="45.58728976025065" lon="12.238675279432279"><ele>6.5</ele><time>2026-05-01T23:20:27Z</time></trkpt><trkpt lat="45.58725089918252" lon="12.238256358379147"><ele>6.0</ele><time>2026-05-01T23:20:28Z</time></trkpt><trkpt lat="45.58721274366533" lon="12.237828315575937"><ele>6.0</ele><time>2026-05-01T23:20:29Z</time></trkpt><trkpt lat="45.58718754790456" lon="12.237396103733717"><ele>6.0</ele><time>2026-05-01T23:20:30Z</time></trkpt><trkpt lat="45.58716614647049" lon="12.236968361025223"><ele>6.0</ele><time>2026-05-01T23:20:31Z</time></trkpt><trkpt lat="45.587148004677104" lon="12.23653884485121"><ele>6.0</ele><time>2026-05-01T23:20:32Z</time></trkpt><trkpt lat="45.587135202786236" lon="12.23611811741088"><ele>6.5</ele><time>2026-05-01T23:20:33Z</time></trkpt><trkpt lat="45.58713528999185" lon="12.23569777770887"><ele>7.0</ele><time>2026-05-01T23:20:34Z</time></trkpt><trkpt lat="45.58712164389283" lon="12.235276226747049"><ele>7.0</ele><time>2026-05-01T23:20:35Z</time></trkpt><trkpt lat="45.58713609615333" lon="12.234846093980744"><ele>7.0</ele><time>2026-05-01T23:20:36Z</time></trkpt><trkpt lat="45.587139191366035" lon="12.234415175344095"><ele>7.0</ele><time>2026-05-01T23:20:37Z</time></trkpt><trkpt lat="45.5871389799742" lon="12.233978470551005"><ele>7.0</ele><time>2026-05-01T23:20:38Z</time></trkpt><trkpt lat="45.58716893045311" lon="12.23354708083768"><ele>6.5</ele><time>2026-05-01T23:20:39Z</time></trkpt><trkpt lat="45.58717420414253" lon="12.233112425753134"><ele>6.0</ele><time>2026-05-01T23:20:40Z</time></trkpt><trkpt lat="45.58718154695947" lon="12.232678080737175"><ele>7.0</ele><time>2026-05-01T23:20:41Z</time></trkpt><trkpt lat="45.58718771121928" lon="12.232220737845651"><ele>8.0</ele><time>2026-05-01T23:20:42Z</time></trkpt><trkpt lat="45.58726996144259" lon="12.231812348339627"><ele>8.0</ele><time>2026-05-01T23:20:43Z</time></trkpt><trkpt lat="45.58731266106357" lon="12.2313888696499"><ele>8.0</ele><time>2026-05-01T23:20:44Z</time></trkpt><trkpt lat="45.58735752847219" lon="12.23096468043352"><ele>7.0</ele><time>2026-05-01T23:20:45Z</time></trkpt><trkpt lat="45.58740506553385" lon="12.230544108294932"><ele>6.0</ele><time>2026-05-01T23:20:46Z</time></trkpt><trkpt lat="45.58745415988085" lon="12.230121369674002"><ele>6.5</ele><time>2026-05-01T23:20:47Z</time></trkpt><trkpt lat="45.58751046658497" lon="12.229697330820558"><ele>7.0</ele><time>2026-05-01T23:20:48Z</time></trkpt><trkpt lat="45.58756776546163" lon="12.229274891155901"><ele>7.0</ele><time>2026-05-01T23:20:49Z</time></trkpt><trkpt lat="45.587623371476624" lon="12.228851962089534"><ele>7.0</ele><time>2026-05-01T23:20:50Z</time></trkpt><trkpt lat="45.58767120745243" lon="12.22842830996163"><ele>7.0</ele><time>2026-05-01T23:20:51Z</time></trkpt><trkpt lat="45.58771316843522" lon="12.228026110214948"><ele>7.0</ele><time>2026-05-01T23:20:52Z</time></trkpt><trkpt lat="45.58777256108026" lon="12.227624043078706"><ele>7.0</ele><time>2026-05-01T23:20:53Z</time></trkpt><trkpt lat="45.587827882293176" lon="12.22721470579527"><ele>7.0</ele><time>2026-05-01T23:20:54Z</time></trkpt><trkpt lat="45.587882048080445" lon="12.226810707677814"><ele>6.5</ele><time>2026-05-01T23:20:55Z</time></trkpt><trkpt lat="45.58793839708865" lon="12.226402445209967"><ele>6.0</ele><time>2026-05-01T23:20:56Z</time></trkpt><trkpt lat="45.587990963815464" lon="12.225990500202427"><ele>6.5</ele><time>2026-05-01T23:20:57Z</time></trkpt><trkpt lat="45.588045795746545" lon="12.225579211182362"><ele>7.0</ele><time>2026-05-01T23:20:58Z</time></trkpt><trkpt lat="45.588101248925945" lon="12.225169763546731"><ele>7.0</ele><time>2026-05-01T23:20:59Z</time></trkpt><trkpt lat="45.588158241329076" lon="12.224756164003768"><ele>7.0</ele><time>2026-05-01T23:21:00Z</time></trkpt><trkpt lat="45.58821492629015" lon="12.224342779113561"><ele>6.5</ele><time>2026-05-01T23:21:01Z</time></trkpt><trkpt lat="45.588281903448326" lon="12.22393898837588"><ele>6.0</ele><time>2026-05-01T23:21:02Z</time></trkpt><trkpt lat="45.588342888521666" lon="12.223529890833733"><ele>6.5</ele><time>2026-05-01T23:21:03Z</time></trkpt><trkpt lat="45.588396944524675" lon="12.223117290082056"><ele>7.0</ele><time>2026-05-01T23:21:04Z</time></trkpt><trkpt lat="45.58844957252681" lon="12.222703584377829"><ele>7.5</ele><time>2026-05-01T23:21:05Z</time></trkpt><trkpt lat="45.58851377371691" lon="12.222286455109044"><ele>8.0</ele><time>2026-05-01T23:21:06Z</time></trkpt><trkpt lat="45.58857030260077" lon="12.221870068804787"><ele>8.0</ele><time>2026-05-01T23:21:07Z</time></trkpt><trkpt lat="45.588622151442195" lon="12.22145711787364"><ele>8.0</ele><time>2026-05-01T23:21:08Z</time></trkpt><trkpt lat="45.58867992224142" lon="12.22104003162702"><ele>7.5</ele><time>2026-05-01T23:21:09Z</time></trkpt><trkpt lat="45.588737279248505" lon="12.220622317027747"><ele>7.0</ele><time>2026-05-01T23:21:10Z</time></trkpt><trkpt lat="45.588791553391154" lon="12.220207442347025"><ele>7.0</ele><time>2026-05-01T23:21:11Z</time></trkpt><trkpt lat="45.588851021164935" lon="12.219787529121236"><ele>7.0</ele><time>2026-05-01T23:21:12Z</time></trkpt><trkpt lat="45.58890503617641" lon="12.219372007723605"><ele>7.0</ele><time>2026-05-01T23:21:13Z</time></trkpt><trkpt lat="45.588952326078015" lon="12.218955562568176"><ele>7.0</ele><time>2026-05-01T23:21:14Z</time></trkpt><trkpt lat="45.5890143583464" lon="12.218540578255162"><ele>7.5</ele><time>2026-05-01T23:21:15Z</time></trkpt><trkpt lat="45.58906832111496" lon="12.21812807639172"><ele>8.0</ele><time>2026-05-01T23:21:16Z</time></trkpt><trkpt lat="45.58912723571602" lon="12.217712765774134"><ele>8.0</ele><time>2026-05-01T23:21:17Z</time></trkpt><trkpt lat="45.589184204161725" lon="12.217302679845288"><ele>8.0</ele><time>2026-05-01T23:21:18Z</time></trkpt><trkpt lat="45.58924010172022" lon="12.216891987297972"><ele>8.0</ele><time>2026-05-01T23:21:19Z</time></trkpt><trkpt lat="45.58929560540066" lon="12.216490522558894"><ele>8.0</ele><time>2026-05-01T23:21:20Z</time></trkpt><trkpt lat="45.58935237950618" lon="12.216078599885886"><ele>8.0</ele><time>2026-05-01T23:21:21Z</time></trkpt><trkpt lat="45.58940569470003" lon="12.215669176913128"><ele>8.0</ele><time>2026-05-01T23:21:22Z</time></trkpt><trkpt lat="45.589453636956605" lon="12.215274109902278"><ele>8.0</ele><time>2026-05-01T23:21:23Z</time></trkpt><trkpt lat="45.58950748785324" lon="12.214864902616991"><ele>8.0</ele><time>2026-05-01T23:21:24Z</time></trkpt><trkpt lat="45.589550616826976" lon="12.214460836762704"><ele>8.0</ele><time>2026-05-01T23:21:25Z</time></trkpt><trkpt lat="45.58959985544369" lon="12.214048523634078"><ele>8.0</ele><time>2026-05-01T23:21:26Z</time></trkpt><trkpt lat="45.58963795432196" lon="12.21364216390909"><ele>8.0</ele><time>2026-05-01T23:21:27Z</time></trkpt><trkpt lat="45.58967060996307" lon="12.21323411117879"><ele>8.0</ele><time>2026-05-01T23:21:28Z</time></trkpt><trkpt lat="45.58969891511564" lon="12.212827194462887"><ele>8.0</ele><time>2026-05-01T23:21:29Z</time></trkpt><trkpt lat="45.589723926703556" lon="12.212418725700369"><ele>8.0</ele><time>2026-05-01T23:21:30Z</time></trkpt><trkpt lat="45.589750054361524" lon="12.212002892404746"><ele>7.5</ele><time>2026-05-01T23:21:31Z</time></trkpt><trkpt lat="45.58976953358255" lon="12.211595774453958"><ele>7.0</ele><time>2026-05-01T23:21:32Z</time></trkpt><trkpt lat="45.58978168136498" lon="12.211187726377851"><ele>7.0</ele><time>2026-05-01T23:21:33Z</time></trkpt><trkpt lat="45.58978791675727" lon="12.210779095171706"><ele>7.0</ele><time>2026-05-01T23:21:34Z</time></trkpt><trkpt lat="45.5897908314453" lon="12.210368927043382"><ele>7.0</ele><time>2026-05-01T23:21:35Z</time></trkpt><trkpt lat="45.58978875322852" lon="12.209959780763517"><ele>7.0</ele><time>2026-05-01T23:21:36Z</time></trkpt><trkpt lat="45.58977781905847" lon="12.209552507331637"><ele>7.0</ele><time>2026-05-01T23:21:37Z</time></trkpt><trkpt lat="45.58976472415112" lon="12.209140970013529"><ele>7.0</ele><time>2026-05-01T23:21:38Z</time></trkpt><trkpt lat="45.58974597629818" lon="12.208734764969918"><ele>7.0</ele><time>2026-05-01T23:21:39Z</time></trkpt><trkpt lat="45.58972581450234" lon="12.208325572156856"><ele>7.0</ele><time>2026-05-01T23:21:40Z</time></trkpt><trkpt lat="45.5897010406391" lon="12.207911829610701"><ele>7.0</ele><time>2026-05-01T23:21:41Z</time></trkpt><trkpt lat="45.5896728457474" lon="12.207502821476991"><ele>7.0</ele><time>2026-05-01T23:21:42Z</time></trkpt><trkpt lat="45.58964023812693" lon="12.20709450331493"><ele>7.5</ele><time>2026-05-01T23:21:43Z</time></trkpt><trkpt lat="45.58960135634656" lon="12.206680561523958"><ele>8.0</ele><time>2026-05-01T23:21:44Z</time></trkpt><trkpt lat="45.58955597773996" lon="12.206274983962615"><ele>8.5</ele><time>2026-05-01T23:21:45Z</time></trkpt><trkpt lat="45.58950698468428" lon="12.205866449978805"><ele>9.0</ele><time>2026-05-01T23:21:46Z</time></trkpt><trkpt lat="45.589453118784064" lon="12.20545828475606"><ele>9.0</ele><time>2026-05-01T23:21:47Z</time></trkpt><trkpt lat="45.58939422836414" lon="12.205051468972641"><ele>9.0</ele><time>2026-05-01T23:21:48Z</time></trkpt><trkpt lat="45.58932991252531" lon="12.204651715231416"><ele>8.5</ele><time>2026-05-01T23:21:49Z</time></trkpt><trkpt lat="45.58926202645836" lon="12.204241918951977"><ele>8.0</ele><time>2026-05-01T23:21:50Z</time></trkpt><trkpt lat="45.58919103060852" lon="12.2038418835414"><ele>7.5</ele><time>2026-05-01T23:21:51Z</time></trkpt><trkpt lat="45.58911756965467" lon="12.203437541557635"><ele>7.0</ele><time>2026-05-01T23:21:52Z</time></trkpt><trkpt lat="45.58904041522493" lon="12.203041457327805"><ele>7.0</ele><time>2026-05-01T23:21:53Z</time></trkpt><trkpt lat="45.588957793304765" lon="12.20263997519821"><ele>7.0</ele><time>2026-05-01T23:21:54Z</time></trkpt><trkpt lat="45.58886990460417" lon="12.202242262733115"><ele>7.0</ele><time>2026-05-01T23:21:55Z</time></trkpt><trkpt lat="45.58877345979947" lon="12.201850799468149"><ele>7.0</ele><time>2026-05-01T23:21:56Z</time></trkpt><trkpt lat="45.58867062447987" lon="12.201460459308356"><ele>7.5</ele><time>2026-05-01T23:21:57Z</time></trkpt><trkpt lat="45.5885652799658" lon="12.201069136279338"><ele>8.0</ele><time>2026-05-01T23:21:58Z</time></trkpt><trkpt lat="45.58845473038874" lon="12.200683384830693"><ele>8.0</ele><time>2026-05-01T23:21:59Z</time></trkpt><trkpt lat="45.58834032910721" lon="12.200297450450822"><ele>8.0</ele><time>2026-05-01T23:22:00Z</time></trkpt><trkpt lat="45.58822547958944" lon="12.199926713931731"><ele>8.5</ele><time>2026-05-01T23:22:01Z</time></trkpt><trkpt lat="45.58811013422672" lon="12.199562929545896"><ele>9.0</ele><time>2026-05-01T23:22:02Z</time></trkpt><trkpt lat="45.58800369641843" lon="12.199225457204628"><ele>9.0</ele><time>2026-05-01T23:22:03Z</time></trkpt><trkpt lat="45.58788931386167" lon="12.198879256831178"><ele>9.0</ele><time>2026-05-01T23:22:04Z</time></trkpt><trkpt lat="45.58776906659868" lon="12.198536944225287"><ele>9.0</ele><time>2026-05-01T23:22:05Z</time></trkpt><trkpt lat="45.587642547185624" lon="12.198183439513073"><ele>9.0</ele><time>2026-05-01T23:22:06Z</time></trkpt><trkpt lat="45.58751208251839" lon="12.197831424950015"><ele>8.5</ele><time>2026-05-01T23:22:07Z</time></trkpt><trkpt lat="45.587380316010375" lon="12.197479298269915"><ele>8.0</ele><time>2026-05-01T23:22:08Z</time></trkpt><trkpt lat="45.58724585179177" lon="12.197117596465603"><ele>8.0</ele><time>2026-05-01T23:22:09Z</time></trkpt><trkpt lat="45.587116836263924" lon="12.196762295137543"><ele>8.0</ele><time>2026-05-01T23:22:10Z</time></trkpt><trkpt lat="45.58698364694769" lon="12.196397378820597"><ele>7.5</ele><time>2026-05-01T23:22:11Z</time></trkpt><trkpt lat="45.58684847827672" lon="12.196028061160172"><ele>7.0</ele><time>2026-05-01T23:22:12Z</time></trkpt><trkpt lat="45.5867137530051" lon="12.195662914511935"><ele>7.0</ele><time>2026-05-01T23:22:13Z</time></trkpt><trkpt lat="45.58657589753473" lon="12.195287631570192"><ele>7.0</ele><time>2026-05-01T23:22:14Z</time></trkpt><trkpt lat="45.586436342188385" lon="12.1949198166461"><ele>7.5</ele><time>2026-05-01T23:22:15Z</time></trkpt><trkpt lat="45.586293838674905" lon="12.194543541330226"><ele>8.0</ele><time>2026-05-01T23:22:16Z</time></trkpt><trkpt lat="45.58615148565743" lon="12.19416362480285"><ele>8.5</ele><time>2026-05-01T23:22:17Z</time></trkpt><trkpt lat="45.586012455738214" lon="12.193793021848306"><ele>9.0</ele><time>2026-05-01T23:22:18Z</time></trkpt><trkpt lat="45.58587208077167" lon="12.193410458486062"><ele>9.0</ele><time>2026-05-01T23:22:19Z</time></trkpt><trkpt lat="45.585731053495635" lon="12.193024873255238"><ele>9.0</ele><time>2026-05-01T23:22:20Z</time></trkpt><trkpt lat="45.58559101797157" lon="12.192647317340935"><ele>8.0</ele><time>2026-05-01T23:22:21Z</time></trkpt><trkpt lat="45.58545055553563" lon="12.192268716855073"><ele>7.0</ele><time>2026-05-01T23:22:22Z</time></trkpt><trkpt lat="45.585308199193996" lon="12.191888488053989"><ele>7.0</ele><time>2026-05-01T23:22:23Z</time></trkpt><trkpt lat="45.585167437837335" lon="12.191510424964832"><ele>7.0</ele><time>2026-05-01T23:22:24Z</time></trkpt><trkpt lat="45.585026372446066" lon="12.191130383796807"><ele>7.0</ele><time>2026-05-01T23:22:25Z</time></trkpt><trkpt lat="45.58488444114407" lon="12.190754192011173"><ele>7.0</ele><time>2026-05-01T23:22:26Z</time></trkpt><trkpt lat="45.58474397719156" lon="12.190380530142098"><ele>7.0</ele><time>2026-05-01T23:22:27Z</time></trkpt><trkpt lat="45.584602826293555" lon="12.190004183517612"><ele>7.0</ele><time>2026-05-01T23:22:28Z</time></trkpt><trkpt lat="45.58446292638367" lon="12.189626307625298"><ele>7.0</ele><time>2026-05-01T23:22:29Z</time></trkpt><trkpt lat="45.58432423579733" lon="12.189260519527242"><ele>7.0</ele><time>2026-05-01T23:22:30Z</time></trkpt><trkpt lat="45.5841826518032" lon="12.18887627196172"><ele>7.0</ele><time>2026-05-01T23:22:31Z</time></trkpt><trkpt lat="45.58404570454293" lon="12.188510339851458"><ele>7.0</ele><time>2026-05-01T23:22:32Z</time></trkpt><trkpt lat="45.58390739917191" lon="12.18813404980378"><ele>7.0</ele><time>2026-05-01T23:22:33Z</time></trkpt><trkpt lat="45.583768248449815" lon="12.187759824054957"><ele>7.0</ele><time>2026-05-01T23:22:34Z</time></trkpt><trkpt lat="45.58362887651111" lon="12.18737907289733"><ele>7.5</ele><time>2026-05-01T23:22:35Z</time></trkpt><trkpt lat="45.5834907558607" lon="12.187006673038626"><ele>8.0</ele><time>2026-05-01T23:22:36Z</time></trkpt><trkpt lat="45.58335038848652" lon="12.186623864553761"><ele>8.5</ele><time>2026-05-01T23:22:37Z</time></trkpt><trkpt lat="45.58321021441795" lon="12.186246923915661"><ele>9.0</ele><time>2026-05-01T23:22:38Z</time></trkpt><trkpt lat="45.583066890718435" lon="12.185865649957327"><ele>9.0</ele><time>2026-05-01T23:22:39Z</time></trkpt><trkpt lat="45.58292540929762" lon="12.185489529126922"><ele>9.0</ele><time>2026-05-01T23:22:40Z</time></trkpt><trkpt lat="45.58278232363875" lon="12.185108136959057"><ele>8.5</ele><time>2026-05-01T23:22:41Z</time></trkpt><trkpt lat="45.58264148355894" lon="12.184734505252255"><ele>8.0</ele><time>2026-05-01T23:22:42Z</time></trkpt><trkpt lat="45.58250254071325" lon="12.18435366542966"><ele>8.0</ele><time>2026-05-01T23:22:43Z</time></trkpt><trkpt lat="45.58236054972535" lon="12.183969729729592"><ele>8.0</ele><time>2026-05-01T23:22:44Z</time></trkpt><trkpt lat="45.58221990637595" lon="12.183587965862504"><ele>8.0</ele><time>2026-05-01T23:22:45Z</time></trkpt><trkpt lat="45.58207888980825" lon="12.18320767551289"><ele>8.0</ele><time>2026-05-01T23:22:46Z</time></trkpt><trkpt lat="45.58193611064536" lon="12.182824980424234"><ele>8.0</ele><time>2026-05-01T23:22:47Z</time></trkpt><trkpt lat="45.581794370152785" lon="12.182448230323315"><ele>8.0</ele><time>2026-05-01T23:22:48Z</time></trkpt><trkpt lat="45.58165055389163" lon="12.182067616806801"><ele>8.0</ele><time>2026-05-01T23:22:49Z</time></trkpt><trkpt lat="45.58150846644151" lon="12.181692133163725"><ele>8.0</ele><time>2026-05-01T23:22:50Z</time></trkpt><trkpt lat="45.581364426948205" lon="12.18131229176986"><ele>8.0</ele><time>2026-05-01T23:22:51Z</time></trkpt><trkpt lat="45.58122258257906" lon="12.180939920566285"><ele>8.0</ele><time>2026-05-01T23:22:52Z</time></trkpt><trkpt lat="45.5810797671184" lon="12.180557888658976"><ele>8.5</ele><time>2026-05-01T23:22:53Z</time></trkpt><trkpt lat="45.58094088131808" lon="12.18018519380573"><ele>9.0</ele><time>2026-05-01T23:22:54Z</time></trkpt><trkpt lat="45.58080124192932" lon="12.179807971460319"><ele>9.0</ele><time>2026-05-01T23:22:55Z</time></trkpt><trkpt lat="45.58066087141569" lon="12.179430071407175"><ele>9.0</ele><time>2026-05-01T23:22:56Z</time></trkpt><trkpt lat="45.580520963015445" lon="12.179051481103551"><ele>9.0</ele><time>2026-05-01T23:22:57Z</time></trkpt><trkpt lat="45.58038279394472" lon="12.178679748685747"><ele>9.0</ele><time>2026-05-01T23:22:58Z</time></trkpt><trkpt lat="45.580243688763446" lon="12.17830394627486"><ele>9.0</ele><time>2026-05-01T23:22:59Z</time></trkpt><trkpt lat="45.5801020497337" lon="12.177926118082"><ele>9.0</ele><time>2026-05-01T23:23:00Z</time></trkpt><trkpt lat="45.57996236060806" lon="12.177554198818378"><ele>9.0</ele><time>2026-05-01T23:23:01Z</time></trkpt><trkpt lat="45.57982209200035" lon="12.177176556657768"><ele>9.0</ele><time>2026-05-01T23:23:02Z</time></trkpt><trkpt lat="45.579680752460156" lon="12.176797380742483"><ele>9.0</ele><time>2026-05-01T23:23:03Z</time></trkpt><trkpt lat="45.579542234315056" lon="12.176421349669118"><ele>9.0</ele><time>2026-05-01T23:23:04Z</time></trkpt><trkpt lat="45.579403235183435" lon="12.176045290939594"><ele>10.0</ele><time>2026-05-01T23:23:05Z</time></trkpt><trkpt lat="45.57926258140913" lon="12.175667274896911"><ele>11.0</ele><time>2026-05-01T23:23:06Z</time></trkpt><trkpt lat="45.57912210996211" lon="12.17528826275096"><ele>11.0</ele><time>2026-05-01T23:23:07Z</time></trkpt><trkpt lat="45.57898208714483" lon="12.17490825418352"><ele>11.0</ele><time>2026-05-01T23:23:08Z</time></trkpt><trkpt lat="45.57884212086702" lon="12.174528368596956"><ele>10.5</ele><time>2026-05-01T23:23:09Z</time></trkpt><trkpt lat="45.5787029725508" lon="12.17414982307213"><ele>10.0</ele><time>2026-05-01T23:23:10Z</time></trkpt><trkpt lat="45.57856189882741" lon="12.17377191998097"><ele>10.0</ele><time>2026-05-01T23:23:11Z</time></trkpt><trkpt lat="45.57842053242938" lon="12.173397504087054"><ele>10.0</ele><time>2026-05-01T23:23:12Z</time></trkpt><trkpt lat="45.578278040426184" lon="12.173022641612732"><ele>9.0</ele><time>2026-05-01T23:23:13Z</time></trkpt><trkpt lat="45.57813563341565" lon="12.172647053957544"><ele>8.0</ele><time>2026-05-01T23:23:14Z</time></trkpt><trkpt lat="45.57799655005725" lon="12.172271070069531"><ele>8.0</ele><time>2026-05-01T23:23:15Z</time></trkpt><trkpt lat="45.577859858265334" lon="12.171897642472084"><ele>8.0</ele><time>2026-05-01T23:23:16Z</time></trkpt><trkpt lat="45.57772133763329" lon="12.171521710439562"><ele>8.0</ele><time>2026-05-01T23:23:17Z</time></trkpt><trkpt lat="45.57758385462394" lon="12.171148461772301"><ele>8.0</ele><time>2026-05-01T23:23:18Z</time></trkpt><trkpt lat="45.577446991843196" lon="12.170777360578079"><ele>8.5</ele><time>2026-05-01T23:23:19Z</time></trkpt><trkpt lat="45.577309923603394" lon="12.170405720150969"><ele>9.0</ele><time>2026-05-01T23:23:20Z</time></trkpt><trkpt lat="45.57717192591259" lon="12.17003515804295"><ele>9.0</ele><time>2026-05-01T23:23:21Z</time></trkpt><trkpt lat="45.577033382492374" lon="12.169665501601164"><ele>9.0</ele><time>2026-05-01T23:23:22Z</time></trkpt><trkpt lat="45.57689753476865" lon="12.16929897163524"><ele>9.0</ele><time>2026-05-01T23:23:23Z</time></trkpt><trkpt lat="45.576759299096196" lon="12.16893151731691"><ele>9.0</ele><time>2026-05-01T23:23:24Z</time></trkpt><trkpt lat="45.576620971177995" lon="12.168566380444405"><ele>9.0</ele><time>2026-05-01T23:23:25Z</time></trkpt><trkpt lat="45.57648273465395" lon="12.16819984187961"><ele>9.0</ele><time>2026-05-01T23:23:26Z</time></trkpt><trkpt lat="45.57634618971765" lon="12.167834627929032"><ele>9.0</ele><time>2026-05-01T23:23:27Z</time></trkpt><trkpt lat="45.57620871877086" lon="12.167468851596112"><ele>9.0</ele><time>2026-05-01T23:23:28Z</time></trkpt><trkpt lat="45.57607493472504" lon="12.167106609434224"><ele>9.0</ele><time>2026-05-01T23:23:29Z</time></trkpt><trkpt lat="45.57593653332587" lon="12.166743466870688"><ele>9.0</ele><time>2026-05-01T23:23:30Z</time></trkpt><trkpt lat="45.57579583097091" lon="12.166381837014889"><ele>9.0</ele><time>2026-05-01T23:23:31Z</time></trkpt><trkpt lat="45.57565371061267" lon="12.16602226769727"><ele>9.0</ele><time>2026-05-01T23:23:32Z</time></trkpt><trkpt lat="45.575511118437944" lon="12.165662432311784"><ele>9.0</ele><time>2026-05-01T23:23:33Z</time></trkpt><trkpt lat="45.57536844557843" lon="12.16530072649097"><ele>9.0</ele><time>2026-05-01T23:23:34Z</time></trkpt><trkpt lat="45.57522404168836" lon="12.164940506349364"><ele>9.0</ele><time>2026-05-01T23:23:35Z</time></trkpt><trkpt lat="45.575078554627474" lon="12.164584210523438"><ele>9.0</ele><time>2026-05-01T23:23:36Z</time></trkpt><trkpt lat="45.57492806605876" lon="12.164227807756848"><ele>9.5</ele><time>2026-05-01T23:23:37Z</time></trkpt><trkpt lat="45.57477238221914" lon="12.163869294065515"><ele>10.0</ele><time>2026-05-01T23:23:38Z</time></trkpt><trkpt lat="45.57461379696627" lon="12.163514882283978"><ele>9.5</ele><time>2026-05-01T23:23:39Z</time></trkpt><trkpt lat="45.57445195131942" lon="12.163161618034813"><ele>9.0</ele><time>2026-05-01T23:23:40Z</time></trkpt><trkpt lat="45.57428758519832" lon="12.16281055749276"><ele>9.0</ele><time>2026-05-01T23:23:41Z</time></trkpt><trkpt lat="45.57412059168272" lon="12.162464201424939"><ele>9.0</ele><time>2026-05-01T23:23:42Z</time></trkpt><trkpt lat="45.573948469314786" lon="12.162119994904076"><ele>8.5</ele><time>2026-05-01T23:23:43Z</time></trkpt><trkpt lat="45.57377672038592" lon="12.16178183584431"><ele>8.0</ele><time>2026-05-01T23:23:44Z</time></trkpt><trkpt lat="45.57360029062292" lon="12.161443312725208"><ele>9.0</ele><time>2026-05-01T23:23:45Z</time></trkpt><trkpt lat="45.573420579530634" lon="12.161109090830776"><ele>10.0</ele><time>2026-05-01T23:23:46Z</time></trkpt><trkpt lat="45.573240706583555" lon="12.160779427052208"><ele>10.0</ele><time>2026-05-01T23:23:47Z</time></trkpt><trkpt lat="45.573059198177134" lon="12.160451981689308"><ele>10.0</ele><time>2026-05-01T23:23:48Z</time></trkpt><trkpt lat="45.57287790593348" lon="12.160130222089812"><ele>10.0</ele><time>2026-05-01T23:23:49Z</time></trkpt><trkpt lat="45.572710756710336" lon="12.159825722930952"><ele>10.0</ele><time>2026-05-01T23:23:50Z</time></trkpt><trkpt lat="45.57252694322728" lon="12.159527158981096"><ele>10.0</ele><time>2026-05-01T23:23:51Z</time></trkpt><trkpt lat="45.57234862751724" lon="12.159227574749975"><ele>10.0</ele><time>2026-05-01T23:23:52Z</time></trkpt><trkpt lat="45.57216144496989" lon="12.158918148820158"><ele>9.0</ele><time>2026-05-01T23:23:53Z</time></trkpt><trkpt lat="45.571969613690335" lon="12.158609484121044"><ele>8.0</ele><time>2026-05-01T23:23:54Z</time></trkpt><trkpt lat="45.57177683608614" lon="12.158304268693312"><ele>8.5</ele><time>2026-05-01T23:23:55Z</time></trkpt><trkpt lat="45.57158043678976" lon="12.158002027422526"><ele>9.0</ele><time>2026-05-01T23:23:56Z</time></trkpt><trkpt lat="45.57138171216496" lon="12.157703516726425"><ele>9.0</ele><time>2026-05-01T23:23:57Z</time></trkpt><trkpt lat="45.57117821022549" lon="12.157406174220773"><ele>9.0</ele><time>2026-05-01T23:23:58Z</time></trkpt><trkpt lat="45.57097575860976" lon="12.157117613920757"><ele>8.5</ele><time>2026-05-01T23:23:59Z</time></trkpt><trkpt lat="45.57076994264719" lon="12.156830263998055"><ele>8.0</ele><time>2026-05-01T23:24:00Z</time></trkpt><trkpt lat="45.570563593978605" lon="12.15654591290143"><ele>8.5</ele><time>2026-05-01T23:24:01Z</time></trkpt><trkpt lat="45.57035179436012" lon="12.156263365449155"><ele>9.0</ele><time>2026-05-01T23:24:02Z</time></trkpt><trkpt lat="45.570139681901836" lon="12.155983062102576"><ele>9.0</ele><time>2026-05-01T23:24:03Z</time></trkpt><trkpt lat="45.56992501620919" lon="12.155711423122336"><ele>9.0</ele><time>2026-05-01T23:24:04Z</time></trkpt><trkpt lat="45.56970641927406" lon="12.15544138868769"><ele>8.5</ele><time>2026-05-01T23:24:05Z</time></trkpt><trkpt lat="45.569482697806215" lon="12.15518030873111"><ele>8.0</ele><time>2026-05-01T23:24:06Z</time></trkpt><trkpt lat="45.56925566067372" lon="12.154919638246191"><ele>8.0</ele><time>2026-05-01T23:24:07Z</time></trkpt><trkpt lat="45.569030218453165" lon="12.154666951246075"><ele>8.0</ele><time>2026-05-01T23:24:08Z</time></trkpt><trkpt lat="45.56879942023168" lon="12.15441407179365"><ele>8.0</ele><time>2026-05-01T23:24:09Z</time></trkpt><trkpt lat="45.56856373014701" lon="12.154158584754644"><ele>8.0</ele><time>2026-05-01T23:24:10Z</time></trkpt><trkpt lat="45.5683351485847" lon="12.153907639358362"><ele>8.5</ele><time>2026-05-01T23:24:11Z</time></trkpt><trkpt lat="45.5681019679906" lon="12.153654938762488"><ele>9.0</ele><time>2026-05-01T23:24:12Z</time></trkpt><trkpt lat="45.567869042578714" lon="12.153403223095204"><ele>10.0</ele><time>2026-05-01T23:24:13Z</time></trkpt><trkpt lat="45.56761541799439" lon="12.153200218182645"><ele>11.0</ele><time>2026-05-01T23:24:14Z</time></trkpt><trkpt lat="45.56736707939687" lon="12.152984264131883"><ele>11.0</ele><time>2026-05-01T23:24:15Z</time></trkpt><trkpt lat="45.56704379778218" lon="12.152737418596793"><ele>11.0</ele><time>2026-05-01T23:24:16Z</time></trkpt><trkpt lat="45.56677483707875" lon="12.15251612992003"><ele>9.5</ele><time>2026-05-01T23:24:17Z</time></trkpt><trkpt lat="45.56649872687258" lon="12.152326142218957"><ele>8.0</ele><time>2026-05-01T23:24:18Z</time></trkpt><trkpt lat="45.56623247660414" lon="12.152138399221018"><ele>8.0</ele><time>2026-05-01T23:24:19Z</time></trkpt><trkpt lat="45.56596802220461" lon="12.151963171927965"><ele>8.0</ele><time>2026-05-01T23:24:20Z</time></trkpt><trkpt lat="45.565703243465975" lon="12.151792108114739"><ele>8.0</ele><time>2026-05-01T23:24:21Z</time></trkpt><trkpt lat="45.565452513927575" lon="12.151668867900684"><ele>8.0</ele><time>2026-05-01T23:24:22Z</time></trkpt><trkpt lat="45.56518516381787" lon="12.151508724727512"><ele>8.0</ele><time>2026-05-01T23:24:23Z</time></trkpt><trkpt lat="45.564915882362044" lon="12.151357571878398"><ele>8.0</ele><time>2026-05-01T23:24:24Z</time></trkpt><trkpt lat="45.564647486480396" lon="12.151215899303676"><ele>7.5</ele><time>2026-05-01T23:24:25Z</time></trkpt><trkpt lat="45.56437069446112" lon="12.151084049684417"><ele>7.0</ele><time>2026-05-01T23:24:26Z</time></trkpt><trkpt lat="45.564097127239954" lon="12.15095663519016"><ele>7.0</ele><time>2026-05-01T23:24:27Z</time></trkpt><trkpt lat="45.56382207344935" lon="12.150840744455552"><ele>7.0</ele><time>2026-05-01T23:24:28Z</time></trkpt><trkpt lat="45.56354740410341" lon="12.150729836143343"><ele>7.0</ele><time>2026-05-01T23:24:29Z</time></trkpt><trkpt lat="45.563266970642715" lon="12.150621809847369"><ele>7.0</ele><time>2026-05-01T23:24:30Z</time></trkpt><trkpt lat="45.5629876261657" lon="12.15052130014746"><ele>8.5</ele><time>2026-05-01T23:24:31Z</time></trkpt><trkpt lat="45.56271126069144" lon="12.150422568980916"><ele>10.0</ele><time>2026-05-01T23:24:32Z</time></trkpt><trkpt lat="45.56243114569988" lon="12.150337305871357"><ele>10.0</ele><time>2026-05-01T23:24:33Z</time></trkpt><trkpt lat="45.56214700121963" lon="12.150257031260786"><ele>10.0</ele><time>2026-05-01T23:24:34Z</time></trkpt><trkpt lat="45.56186159079579" lon="12.150182010799629"><ele>8.0</ele><time>2026-05-01T23:24:35Z</time></trkpt><trkpt lat="45.561574099165696" lon="12.150112976706843"><ele>6.0</ele><time>2026-05-01T23:24:36Z</time></trkpt><trkpt lat="45.56128577436555" lon="12.150050633535642"><ele>6.5</ele><time>2026-05-01T23:24:37Z</time></trkpt><trkpt lat="45.56099725696366" lon="12.14999542278326"><ele>7.0</ele><time>2026-05-01T23:24:38Z</time></trkpt><trkpt lat="45.560704929399286" lon="12.14995071267399"><ele>7.0</ele><time>2026-05-01T23:24:39Z</time></trkpt><trkpt lat="45.560412157827635" lon="12.149910380053232"><ele>7.0</ele><time>2026-05-01T23:24:40Z</time></trkpt><trkpt lat="45.560118216755235" lon="12.149875265485939"><ele>7.0</ele><time>2026-05-01T23:24:41Z</time></trkpt><trkpt lat="45.559820371503974" lon="12.14984390667807"><ele>7.0</ele><time>2026-05-01T23:24:42Z</time></trkpt><trkpt lat="45.5595312087216" lon="12.149807659363885"><ele>7.0</ele><time>2026-05-01T23:24:43Z</time></trkpt><trkpt lat="45.55923883723182" lon="12.14977929374941"><ele>7.0</ele><time>2026-05-01T23:24:44Z</time></trkpt><trkpt lat="45.55894692758543" lon="12.149751339043071"><ele>6.5</ele><time>2026-05-01T23:24:45Z</time></trkpt><trkpt lat="45.558653921090574" lon="12.149720568488858"><ele>6.0</ele><time>2026-05-01T23:24:46Z</time></trkpt><trkpt lat="45.55836793882475" lon="12.149693470338264"><ele>6.0</ele><time>2026-05-01T23:24:47Z</time></trkpt><trkpt lat="45.55807956367429" lon="12.149664654307768"><ele>6.0</ele><time>2026-05-01T23:24:48Z</time></trkpt><trkpt lat="45.55779130499959" lon="12.149635471549034"><ele>7.0</ele><time>2026-05-01T23:24:49Z</time></trkpt><trkpt lat="45.55750052754728" lon="12.149603681028351"><ele>8.0</ele><time>2026-05-01T23:24:50Z</time></trkpt><trkpt lat="45.55721004898944" lon="12.149575248802453"><ele>7.0</ele><time>2026-05-01T23:24:51Z</time></trkpt><trkpt lat="45.556918150054464" lon="12.14954671968065"><ele>6.0</ele><time>2026-05-01T23:24:52Z</time></trkpt><trkpt lat="45.5566270486356" lon="12.149514721671277"><ele>6.0</ele><time>2026-05-01T23:24:53Z</time></trkpt><trkpt lat="45.55633649445461" lon="12.149476681609775"><ele>6.0</ele><time>2026-05-01T23:24:54Z</time></trkpt><trkpt lat="45.55604294300852" lon="12.14942985554324"><ele>6.0</ele><time>2026-05-01T23:24:55Z</time></trkpt><trkpt lat="45.55574771506937" lon="12.14937381652071"><ele>6.0</ele><time>2026-05-01T23:24:56Z</time></trkpt><trkpt lat="45.5554500714631" lon="12.149312269685144"><ele>6.5</ele><time>2026-05-01T23:24:57Z</time></trkpt><trkpt lat="45.555157263643856" lon="12.149246506239617"><ele>7.0</ele><time>2026-05-01T23:24:58Z</time></trkpt><trkpt lat="45.55486006137422" lon="12.149171832287307"><ele>7.0</ele><time>2026-05-01T23:24:59Z</time></trkpt><trkpt lat="45.554568408345034" lon="12.149091495586354"><ele>7.0</ele><time>2026-05-01T23:25:00Z</time></trkpt><trkpt lat="45.554275841352045" lon="12.148995286713232"><ele>8.0</ele><time>2026-05-01T23:25:01Z</time></trkpt><trkpt lat="45.55398692595476" lon="12.148886154495859"><ele>9.0</ele><time>2026-05-01T23:25:02Z</time></trkpt><trkpt lat="45.55369801150837" lon="12.148767165288803"><ele>9.0</ele><time>2026-05-01T23:25:03Z</time></trkpt><trkpt lat="45.55340905165042" lon="12.148639960084708"><ele>9.0</ele><time>2026-05-01T23:25:04Z</time></trkpt><trkpt lat="45.553123191822365" lon="12.148505324619943"><ele>9.5</ele><time>2026-05-01T23:25:05Z</time></trkpt><trkpt lat="45.55283917940755" lon="12.148363851356264"><ele>10.0</ele><time>2026-05-01T23:25:06Z</time></trkpt><trkpt lat="45.55255644120484" lon="12.148213913150311"><ele>9.0</ele><time>2026-05-01T23:25:07Z</time></trkpt><trkpt lat="45.55227897625164" lon="12.148060305669706"><ele>8.0</ele><time>2026-05-01T23:25:08Z</time></trkpt><trkpt lat="45.5520040575816" lon="12.147901675874463"><ele>7.5</ele><time>2026-05-01T23:25:09Z</time></trkpt><trkpt lat="45.5517299732146" lon="12.147739200991403"><ele>7.0</ele><time>2026-05-01T23:25:10Z</time></trkpt><trkpt lat="45.55145689057917" lon="12.147577509921474"><ele>7.0</ele><time>2026-05-01T23:25:11Z</time></trkpt><trkpt lat="45.551184782284274" lon="12.147415045573451"><ele>7.0</ele><time>2026-05-01T23:25:12Z</time></trkpt><trkpt lat="45.55091274859175" lon="12.147250747739095"><ele>8.0</ele><time>2026-05-01T23:25:13Z</time></trkpt><trkpt lat="45.550641077830164" lon="12.147083780684934"><ele>9.0</ele><time>2026-05-01T23:25:14Z</time></trkpt><trkpt lat="45.55037008510531" lon="12.146916004986348"><ele>9.0</ele><time>2026-05-01T23:25:15Z</time></trkpt><trkpt lat="45.55010045647328" lon="12.146747469899923"><ele>9.0</ele><time>2026-05-01T23:25:16Z</time></trkpt><trkpt lat="45.549833440384845" lon="12.146577921573359"><ele>9.0</ele><time>2026-05-01T23:25:17Z</time></trkpt><trkpt lat="45.549568909934756" lon="12.146407290778575"><ele>9.0</ele><time>2026-05-01T23:25:18Z</time></trkpt><trkpt lat="45.54930736818968" lon="12.1462366225843"><ele>9.0</ele><time>2026-05-01T23:25:19Z</time></trkpt><trkpt lat="45.54904847820347" lon="12.146067527880072"><ele>9.0</ele><time>2026-05-01T23:25:20Z</time></trkpt><trkpt lat="45.54880128085959" lon="12.145902212505687"><ele>8.0</ele><time>2026-05-01T23:25:21Z</time></trkpt><trkpt lat="45.548504516479916" lon="12.145763190552865"><ele>7.0</ele><time>2026-05-01T23:25:22Z</time></trkpt><trkpt lat="45.54817538290108" lon="12.145628009649217"><ele>7.0</ele><time>2026-05-01T23:25:23Z</time></trkpt><trkpt lat="45.547900073753915" lon="12.145455415149463"><ele>7.0</ele><time>2026-05-01T23:25:24Z</time></trkpt><trkpt lat="45.54763621424376" lon="12.14529006937211"><ele>7.0</ele><time>2026-05-01T23:25:25Z</time></trkpt><trkpt lat="45.547367850135814" lon="12.145124674916602"><ele>7.0</ele><time>2026-05-01T23:25:26Z</time></trkpt><trkpt lat="45.54709440205961" lon="12.144961167277378"><ele>7.5</ele><time>2026-05-01T23:25:27Z</time></trkpt><trkpt lat="45.54682198980743" lon="12.144799244491232"><ele>8.0</ele><time>2026-05-01T23:25:28Z</time></trkpt><trkpt lat="45.54654948605394" lon="12.144637014801836"><ele>8.0</ele><time>2026-05-01T23:25:29Z</time></trkpt><trkpt lat="45.54627762647467" lon="12.144475188812498"><ele>8.0</ele><time>2026-05-01T23:25:30Z</time></trkpt><trkpt lat="45.546004874149055" lon="12.144313361773627"><ele>8.5</ele><time>2026-05-01T23:25:31Z</time></trkpt><trkpt lat="45.5457323078421" lon="12.144151358239316"><ele>9.0</ele><time>2026-05-01T23:25:32Z</time></trkpt><trkpt lat="45.545459633806104" lon="12.143987928451438"><ele>8.5</ele><time>2026-05-01T23:25:33Z</time></trkpt><trkpt lat="45.54518781707504" lon="12.143824302219139"><ele>8.0</ele><time>2026-05-01T23:25:34Z</time></trkpt><trkpt lat="45.54491767937665" lon="12.143659073977387"><ele>8.0</ele><time>2026-05-01T23:25:35Z</time></trkpt><trkpt lat="45.54464539732977" lon="12.143493472256395"><ele>8.0</ele><time>2026-05-01T23:25:36Z</time></trkpt><trkpt lat="45.544372789580976" lon="12.143328764347764"><ele>7.5</ele><time>2026-05-01T23:25:37Z</time></trkpt><trkpt lat="45.54409858585562" lon="12.14316687001294"><ele>7.0</ele><time>2026-05-01T23:25:38Z</time></trkpt><trkpt lat="45.543824839351174" lon="12.143009548237428"><ele>7.0</ele><time>2026-05-01T23:25:39Z</time></trkpt><trkpt lat="45.543547053128755" lon="12.142855274971435"><ele>7.0</ele><time>2026-05-01T23:25:40Z</time></trkpt><trkpt lat="45.543271185841085" lon="12.142708430190963"><ele>7.0</ele><time>2026-05-01T23:25:41Z</time></trkpt><trkpt lat="45.54299037605544" lon="12.142565343030604"><ele>7.0</ele><time>2026-05-01T23:25:42Z</time></trkpt><trkpt lat="45.54270177679772" lon="12.142429341027578"><ele>7.0</ele><time>2026-05-01T23:25:43Z</time></trkpt><trkpt lat="45.5424192597102" lon="12.142300625270549"><ele>7.0</ele><time>2026-05-01T23:25:44Z</time></trkpt><trkpt lat="45.54213550251543" lon="12.142181565647498"><ele>8.0</ele><time>2026-05-01T23:25:45Z</time></trkpt><trkpt lat="45.54184918754505" lon="12.142076431500627"><ele>9.0</ele><time>2026-05-01T23:25:46Z</time></trkpt><trkpt lat="45.54155965020146" lon="12.141979683126921"><ele>9.0</ele><time>2026-05-01T23:25:47Z</time></trkpt><trkpt lat="45.54127143970961" lon="12.141893422931076"><ele>9.0</ele><time>2026-05-01T23:25:48Z</time></trkpt><trkpt lat="45.54098118084781" lon="12.141811366228236"><ele>8.5</ele><time>2026-05-01T23:25:49Z</time></trkpt><trkpt lat="45.540689952996615" lon="12.141730320891046"><ele>8.0</ele><time>2026-05-01T23:25:50Z</time></trkpt><trkpt lat="45.540397120793536" lon="12.141652190980336"><ele>8.0</ele><time>2026-05-01T23:25:51Z</time></trkpt><trkpt lat="45.54010581776361" lon="12.141576062207218"><ele>8.0</ele><time>2026-05-01T23:25:52Z</time></trkpt><trkpt lat="45.539813492241535" lon="12.141503982824155"><ele>7.5</ele><time>2026-05-01T23:25:53Z</time></trkpt><trkpt lat="45.53952003904688" lon="12.141438323637235"><ele>7.0</ele><time>2026-05-01T23:25:54Z</time></trkpt><trkpt lat="45.53922343676165" lon="12.141380102498664"><ele>7.0</ele><time>2026-05-01T23:25:55Z</time></trkpt><trkpt lat="45.53892853598511" lon="12.141328246118823"><ele>7.0</ele><time>2026-05-01T23:25:56Z</time></trkpt><trkpt lat="45.538630620645364" lon="12.14128395424499"><ele>6.5</ele><time>2026-05-01T23:25:57Z</time></trkpt><trkpt lat="45.53833037956663" lon="12.141246408407603"><ele>6.0</ele><time>2026-05-01T23:25:58Z</time></trkpt><trkpt lat="45.53802972120395" lon="12.141215508421531"><ele>7.0</ele><time>2026-05-01T23:25:59Z</time></trkpt><trkpt lat="45.537732318544705" lon="12.141190216673495"><ele>8.0</ele><time>2026-05-01T23:26:00Z</time></trkpt><trkpt lat="45.537431868646706" lon="12.141172196829512"><ele>8.0</ele><time>2026-05-01T23:26:01Z</time></trkpt><trkpt lat="45.53712972754198" lon="12.141161496921354"><ele>8.0</ele><time>2026-05-01T23:26:02Z</time></trkpt><trkpt lat="45.536829181277035" lon="12.141158426237176"><ele>8.0</ele><time>2026-05-01T23:26:03Z</time></trkpt><trkpt lat="45.53652924684095" lon="12.141163225267839"><ele>8.0</ele><time>2026-05-01T23:26:04Z</time></trkpt><trkpt lat="45.53622810273148" lon="12.141176757511541"><ele>7.5</ele><time>2026-05-01T23:26:05Z</time></trkpt><trkpt lat="45.535926565963315" lon="12.141195599779559"><ele>7.0</ele><time>2026-05-01T23:26:06Z</time></trkpt><trkpt lat="45.53562929360727" lon="12.141222131280033"><ele>7.0</ele><time>2026-05-01T23:26:07Z</time></trkpt><trkpt lat="45.53533290870648" lon="12.141255868417195"><ele>7.0</ele><time>2026-05-01T23:26:08Z</time></trkpt><trkpt lat="45.535033262949845" lon="12.141289723453013"><ele>7.0</ele><time>2026-05-01T23:26:09Z</time></trkpt><trkpt lat="45.53473535550915" lon="12.14132606912411"><ele>7.0</ele><time>2026-05-01T23:26:10Z</time></trkpt><trkpt lat="45.534437816749445" lon="12.14136327040476"><ele>7.5</ele><time>2026-05-01T23:26:11Z</time></trkpt><trkpt lat="45.53413881374093" lon="12.141398734948744"><ele>8.0</ele><time>2026-05-01T23:26:12Z</time></trkpt><trkpt lat="45.53383976135556" lon="12.141432449916383"><ele>7.5</ele><time>2026-05-01T23:26:13Z</time></trkpt><trkpt lat="45.53354046320637" lon="12.141464925161564"><ele>7.0</ele><time>2026-05-01T23:26:14Z</time></trkpt><trkpt lat="45.53324363968589" lon="12.141493411649742"><ele>7.0</ele><time>2026-05-01T23:26:15Z</time></trkpt><trkpt lat="45.53294554706167" lon="12.141513729910203"><ele>7.0</ele><time>2026-05-01T23:26:16Z</time></trkpt><trkpt lat="45.53264823067284" lon="12.141525379581191"><ele>7.0</ele><time>2026-05-01T23:26:17Z</time></trkpt><trkpt lat="45.53234790661579" lon="12.141525487362342"><ele>7.0</ele><time>2026-05-01T23:26:18Z</time></trkpt><trkpt lat="45.532047548911166" lon="12.141514211805614"><ele>8.0</ele><time>2026-05-01T23:26:19Z</time></trkpt><trkpt lat="45.53174733732687" lon="12.1414938659537"><ele>9.0</ele><time>2026-05-01T23:26:20Z</time></trkpt><trkpt lat="45.531449623426305" lon="12.141467324409522"><ele>8.0</ele><time>2026-05-01T23:26:21Z</time></trkpt><trkpt lat="45.53114987735915" lon="12.141431132792459"><ele>7.0</ele><time>2026-05-01T23:26:22Z</time></trkpt><trkpt lat="45.530850836641285" lon="12.141383996918842"><ele>7.0</ele><time>2026-05-01T23:26:23Z</time></trkpt><trkpt lat="45.53055365317116" lon="12.141323797535568"><ele>7.0</ele><time>2026-05-01T23:26:24Z</time></trkpt><trkpt lat="45.530257222821355" lon="12.14125290119454"><ele>7.5</ele><time>2026-05-01T23:26:25Z</time></trkpt><trkpt lat="45.529960296597736" lon="12.141171930486662"><ele>8.0</ele><time>2026-05-01T23:26:26Z</time></trkpt><trkpt lat="45.529666158356974" lon="12.141084998792596"><ele>7.0</ele><time>2026-05-01T23:26:27Z</time></trkpt><trkpt lat="45.529373399285475" lon="12.140992248730937"><ele>6.0</ele><time>2026-05-01T23:26:28Z</time></trkpt><trkpt lat="45.529081840033385" lon="12.140893442882005"><ele>6.0</ele><time>2026-05-01T23:26:29Z</time></trkpt><trkpt lat="45.52878993346725" lon="12.140787045447874"><ele>6.0</ele><time>2026-05-01T23:26:30Z</time></trkpt><trkpt lat="45.528500636826436" lon="12.140677155027664"><ele>6.5</ele><time>2026-05-01T23:26:31Z</time></trkpt><trkpt lat="45.52821499634562" lon="12.14056365772593"><ele>7.0</ele><time>2026-05-01T23:26:32Z</time></trkpt><trkpt lat="45.52793228329959" lon="12.14044995146293"><ele>7.0</ele><time>2026-05-01T23:26:33Z</time></trkpt><trkpt lat="45.527650155726626" lon="12.140340075772276"><ele>7.0</ele><time>2026-05-01T23:26:34Z</time></trkpt><trkpt lat="45.527365867718984" lon="12.140233877580673"><ele>7.0</ele><time>2026-05-01T23:26:35Z</time></trkpt><trkpt lat="45.52707808129223" lon="12.140134204781454"><ele>7.0</ele><time>2026-05-01T23:26:36Z</time></trkpt><trkpt lat="45.52678823460754" lon="12.140039731230488"><ele>7.0</ele><time>2026-05-01T23:26:37Z</time></trkpt><trkpt lat="45.52649490693981" lon="12.139954702188936"><ele>7.0</ele><time>2026-05-01T23:26:38Z</time></trkpt><trkpt lat="45.526200823196355" lon="12.139878222134298"><ele>6.0</ele><time>2026-05-01T23:26:39Z</time></trkpt><trkpt lat="45.52590575093825" lon="12.139808429008585"><ele>5.0</ele><time>2026-05-01T23:26:40Z</time></trkpt><trkpt lat="45.52561015848681" lon="12.139749210292718"><ele>5.0</ele><time>2026-05-01T23:26:41Z</time></trkpt><trkpt lat="45.525314776694586" lon="12.139696360698883"><ele>5.0</ele><time>2026-05-01T23:26:42Z</time></trkpt><trkpt lat="45.52502066755663" lon="12.139653635825892"><ele>5.0</ele><time>2026-05-01T23:26:43Z</time></trkpt><trkpt lat="45.52472380654673" lon="12.139617068044199"><ele>5.0</ele><time>2026-05-01T23:26:44Z</time></trkpt><trkpt lat="45.524426099874994" lon="12.139588679473363"><ele>5.0</ele><time>2026-05-01T23:26:45Z</time></trkpt><trkpt lat="45.524128921209375" lon="12.139569351981473"><ele>5.0</ele><time>2026-05-01T23:26:46Z</time></trkpt><trkpt lat="45.52383215371042" lon="12.139563789739121"><ele>6.0</ele><time>2026-05-01T23:26:47Z</time></trkpt><trkpt lat="45.52353479421782" lon="12.13957117492321"><ele>7.0</ele><time>2026-05-01T23:26:48Z</time></trkpt><trkpt lat="45.52323520440793" lon="12.139587998694434"><ele>7.0</ele><time>2026-05-01T23:26:49Z</time></trkpt><trkpt lat="45.52293667416817" lon="12.13961498091741"><ele>7.0</ele><time>2026-05-01T23:26:50Z</time></trkpt><trkpt lat="45.522640053998366" lon="12.139652112814343"><ele>7.0</ele><time>2026-05-01T23:26:51Z</time></trkpt><trkpt lat="45.522343103955144" lon="12.139697187937669"><ele>7.0</ele><time>2026-05-01T23:26:52Z</time></trkpt><trkpt lat="45.52204559354391" lon="12.139748225940744"><ele>7.0</ele><time>2026-05-01T23:26:53Z</time></trkpt><trkpt lat="45.521745542741066" lon="12.139803178458227"><ele>7.0</ele><time>2026-05-01T23:26:54Z</time></trkpt><trkpt lat="45.521446650897204" lon="12.13985917061553"><ele>6.0</ele><time>2026-05-01T23:26:55Z</time></trkpt><trkpt lat="45.52114685013886" lon="12.139915684767665"><ele>5.0</ele><time>2026-05-01T23:26:56Z</time></trkpt><trkpt lat="45.520846741956525" lon="12.139973021516779"><ele>5.0</ele><time>2026-05-01T23:26:57Z</time></trkpt><trkpt lat="45.520545471541354" lon="12.140030168555084"><ele>5.0</ele><time>2026-05-01T23:26:58Z</time></trkpt><trkpt lat="45.52024341356024" lon="12.140082094265539"><ele>5.0</ele><time>2026-05-01T23:26:59Z</time></trkpt><trkpt lat="45.51994118776322" lon="12.14012971924473"><ele>5.0</ele><time>2026-05-01T23:27:00Z</time></trkpt><trkpt lat="45.51963784576596" lon="12.140170239845979"><ele>5.0</ele><time>2026-05-01T23:27:01Z</time></trkpt><trkpt lat="45.519335658156436" lon="12.140206101733904"><ele>5.0</ele><time>2026-05-01T23:27:02Z</time></trkpt><trkpt lat="45.5190332583091" lon="12.140235162674411"><ele>5.5</ele><time>2026-05-01T23:27:03Z</time></trkpt><trkpt lat="45.5187286919431" lon="12.140258335466271"><ele>6.0</ele><time>2026-05-01T23:27:04Z</time></trkpt><trkpt lat="45.518423629668504" lon="12.140267977584493"><ele>6.0</ele><time>2026-05-01T23:27:05Z</time></trkpt><trkpt lat="45.518119913289354" lon="12.140270132787178"><ele>6.0</ele><time>2026-05-01T23:27:06Z</time></trkpt><trkpt lat="45.51781410596793" lon="12.14026544661502"><ele>5.0</ele><time>2026-05-01T23:27:07Z</time></trkpt><trkpt lat="45.51751112262471" lon="12.140258178700961"><ele>4.0</ele><time>2026-05-01T23:27:08Z</time></trkpt><trkpt lat="45.51720563571251" lon="12.140243439621498"><ele>5.0</ele><time>2026-05-01T23:27:09Z</time></trkpt><trkpt lat="45.516901720775635" lon="12.140216862023337"><ele>6.0</ele><time>2026-05-01T23:27:10Z</time></trkpt><trkpt lat="45.51659690586246" lon="12.1401800358524"><ele>6.0</ele><time>2026-05-01T23:27:11Z</time></trkpt><trkpt lat="45.51629267136799" lon="12.140134710811145"><ele>6.0</ele><time>2026-05-01T23:27:12Z</time></trkpt><trkpt lat="45.51599151167698" lon="12.140084438454576"><ele>5.5</ele><time>2026-05-01T23:27:13Z</time></trkpt><trkpt lat="45.51569497791552" lon="12.14003302035242"><ele>5.0</ele><time>2026-05-01T23:27:14Z</time></trkpt><trkpt lat="45.51541258465572" lon="12.139982479178036"><ele>5.0</ele><time>2026-05-01T23:27:15Z</time></trkpt><trkpt lat="45.515128325976704" lon="12.139931519187597"><ele>5.0</ele><time>2026-05-01T23:27:16Z</time></trkpt><trkpt lat="45.51483602544067" lon="12.139877727425443"><ele>5.0</ele><time>2026-05-01T23:27:17Z</time></trkpt><trkpt lat="45.51454068880293" lon="12.139821038660008"><ele>5.0</ele><time>2026-05-01T23:27:18Z</time></trkpt><trkpt lat="45.514242461143034" lon="12.139764999775709"><ele>5.0</ele><time>2026-05-01T23:27:19Z</time></trkpt><trkpt lat="45.51394298656836" lon="12.139710951868793"><ele>5.0</ele><time>2026-05-01T23:27:20Z</time></trkpt><trkpt lat="45.51364518353026" lon="12.139659141162273"><ele>5.0</ele><time>2026-05-01T23:27:21Z</time></trkpt><trkpt lat="45.5133452245573" lon="12.139612654561239"><ele>5.0</ele><time>2026-05-01T23:27:22Z</time></trkpt><trkpt lat="45.513046159965825" lon="12.139570181892953"><ele>5.0</ele><time>2026-05-01T23:27:23Z</time></trkpt><trkpt lat="45.51274719332376" lon="12.139532411183067"><ele>5.0</ele><time>2026-05-01T23:27:24Z</time></trkpt><trkpt lat="45.51244527458579" lon="12.139502988743564"><ele>5.0</ele><time>2026-05-01T23:27:25Z</time></trkpt><trkpt lat="45.51214052319423" lon="12.139480932818943"><ele>5.0</ele><time>2026-05-01T23:27:26Z</time></trkpt><trkpt lat="45.511834061147134" lon="12.13946961055841"><ele>5.0</ele><time>2026-05-01T23:27:27Z</time></trkpt><trkpt lat="45.51152596541575" lon="12.139462105578486"><ele>5.0</ele><time>2026-05-01T23:27:28Z</time></trkpt><trkpt lat="45.511218832207035" lon="12.13945893670899"><ele>5.0</ele><time>2026-05-01T23:27:29Z</time></trkpt><trkpt lat="45.510914139918114" lon="12.139460695311078"><ele>5.0</ele><time>2026-05-01T23:27:30Z</time></trkpt><trkpt lat="45.51061229996959" lon="12.139468643863013"><ele>5.0</ele><time>2026-05-01T23:27:31Z</time></trkpt><trkpt lat="45.51030736043881" lon="12.139479511073098"><ele>5.0</ele><time>2026-05-01T23:27:32Z</time></trkpt><trkpt lat="45.51000148992398" lon="12.139494081118846"><ele>5.0</ele><time>2026-05-01T23:27:33Z</time></trkpt><trkpt lat="45.509692632996554" lon="12.13951044613205"><ele>5.0</ele><time>2026-05-01T23:27:34Z</time></trkpt><trkpt lat="45.50938688081945" lon="12.139524952880768"><ele>4.5</ele><time>2026-05-01T23:27:35Z</time></trkpt><trkpt lat="45.50907927738702" lon="12.139540219324829"><ele>4.0</ele><time>2026-05-01T23:27:36Z</time></trkpt><trkpt lat="45.50877163726632" lon="12.13955650823618"><ele>3.0</ele><time>2026-05-01T23:27:37Z</time></trkpt><trkpt lat="45.50846755209988" lon="12.13957187351399"><ele>2.0</ele><time>2026-05-01T23:27:38Z</time></trkpt><trkpt lat="45.50816333335801" lon="12.13958698199705"><ele>2.5</ele><time>2026-05-01T23:27:39Z</time></trkpt><trkpt lat="45.50785957878676" lon="12.139597382107114"><ele>3.0</ele><time>2026-05-01T23:27:40Z</time></trkpt><trkpt lat="45.507555425499085" lon="12.1396001343475"><ele>3.0</ele><time>2026-05-01T23:27:41Z</time></trkpt><trkpt lat="45.507254372518084" lon="12.139593748009235"><ele>3.0</ele><time>2026-05-01T23:27:42Z</time></trkpt><trkpt lat="45.50695427996548" lon="12.139580480929002"><ele>2.5</ele><time>2026-05-01T23:27:43Z</time></trkpt><trkpt lat="45.506654597796036" lon="12.139561907356711"><ele>2.0</ele><time>2026-05-01T23:27:44Z</time></trkpt><trkpt lat="45.506354064851365" lon="12.139537478051965"><ele>1.0</ele><time>2026-05-01T23:27:45Z</time></trkpt><trkpt lat="45.50605441200573" lon="12.139509716051744"><ele>0.0</ele><time>2026-05-01T23:27:46Z</time></trkpt><trkpt lat="45.5057561913681" lon="12.13947491187818"><ele>0.0</ele><time>2026-05-01T23:27:47Z</time></trkpt><trkpt lat="45.50545818371762" lon="12.139431731337524"><ele>0.0</ele><time>2026-05-01T23:27:48Z</time></trkpt><trkpt lat="45.505163328340096" lon="12.139379599012656"><ele>1.0</ele><time>2026-05-01T23:27:49Z</time></trkpt><trkpt lat="45.50486776931797" lon="12.13931842057955"><ele>2.0</ele><time>2026-05-01T23:27:50Z</time></trkpt><trkpt lat="45.50457381318918" lon="12.13925642741677"><ele>2.0</ele><time>2026-05-01T23:27:51Z</time></trkpt><trkpt lat="45.50428712549108" lon="12.139197601523874"><ele>2.0</ele><time>2026-05-01T23:27:52Z</time></trkpt><trkpt lat="45.50401767484368" lon="12.1391415495957"><ele>2.0</ele><time>2026-05-01T23:27:53Z</time></trkpt><trkpt lat="45.5037565367204" lon="12.139091398072212"><ele>2.0</ele><time>2026-05-01T23:27:54Z</time></trkpt><trkpt lat="45.5034877134429" lon="12.139035512571278"><ele>3.0</ele><time>2026-05-01T23:27:55Z</time></trkpt><trkpt lat="45.503214579936106" lon="12.138974288075206"><ele>4.0</ele><time>2026-05-01T23:27:56Z</time></trkpt><trkpt lat="45.50293588404047" lon="12.138915533833673"><ele>4.5</ele><time>2026-05-01T23:27:57Z</time></trkpt><trkpt lat="45.50265484377737" lon="12.1388594764447"><ele>5.0</ele><time>2026-05-01T23:27:58Z</time></trkpt><trkpt lat="45.502368825568084" lon="12.138807002771644"><ele>3.5</ele><time>2026-05-01T23:27:59Z</time></trkpt><trkpt lat="45.50208095800838" lon="12.13876392547807"><ele>2.0</ele><time>2026-05-01T23:28:00Z</time></trkpt><trkpt lat="45.50179143059595" lon="12.13873136293562"><ele>2.0</ele><time>2026-05-01T23:28:01Z</time></trkpt><trkpt lat="45.501496744203415" lon="12.138703722888057"><ele>2.0</ele><time>2026-05-01T23:28:02Z</time></trkpt><trkpt lat="45.50120031947892" lon="12.138687434219644"><ele>3.5</ele><time>2026-05-01T23:28:03Z</time></trkpt><trkpt lat="45.500899579414266" lon="12.13868019549682"><ele>5.0</ele><time>2026-05-01T23:28:04Z</time></trkpt><trkpt lat="45.50059690027665" lon="12.138685595699693"><ele>5.5</ele><time>2026-05-01T23:28:05Z</time></trkpt><trkpt lat="45.50029330686995" lon="12.138699488924829"><ele>6.0</ele><time>2026-05-01T23:28:06Z</time></trkpt><trkpt lat="45.49998559438267" lon="12.138720030783661"><ele>6.0</ele><time>2026-05-01T23:28:07Z</time></trkpt><trkpt lat="45.499680729971644" lon="12.13874206440264"><ele>6.0</ele><time>2026-05-01T23:28:08Z</time></trkpt><trkpt lat="45.499373077576664" lon="12.138770800256859"><ele>4.5</ele><time>2026-05-01T23:28:09Z</time></trkpt><trkpt lat="45.49906910745561" lon="12.138794150472204"><ele>3.0</ele><time>2026-05-01T23:28:10Z</time></trkpt><trkpt lat="45.49876776003282" lon="12.138818946656224"><ele>3.5</ele><time>2026-05-01T23:28:11Z</time></trkpt><trkpt lat="45.498468042646934" lon="12.138850301560591"><ele>4.0</ele><time>2026-05-01T23:28:12Z</time></trkpt><trkpt lat="45.49816907252466" lon="12.138880748103986"><ele>5.0</ele><time>2026-05-01T23:28:13Z</time></trkpt><trkpt lat="45.49786986346371" lon="12.138912618004388"><ele>6.0</ele><time>2026-05-01T23:28:14Z</time></trkpt><trkpt lat="45.49756934704564" lon="12.13893921201055"><ele>6.0</ele><time>2026-05-01T23:28:15Z</time></trkpt><trkpt lat="45.4972691531506" lon="12.13895806418365"><ele>6.0</ele><time>2026-05-01T23:28:16Z</time></trkpt><trkpt lat="45.49696903081889" lon="12.138970960171111"><ele>5.5</ele><time>2026-05-01T23:28:17Z</time></trkpt><trkpt lat="45.496669621428126" lon="12.138978887429673"><ele>5.0</ele><time>2026-05-01T23:28:18Z</time></trkpt><trkpt lat="45.49637096779101" lon="12.13897893303521"><ele>4.5</ele><time>2026-05-01T23:28:19Z</time></trkpt><trkpt lat="45.49607259720951" lon="12.138972362470442"><ele>4.0</ele><time>2026-05-01T23:28:20Z</time></trkpt><trkpt lat="45.49577241624475" lon="12.138960183012367"><ele>4.0</ele><time>2026-05-01T23:28:21Z</time></trkpt><trkpt lat="45.495475578795464" lon="12.13894141343346"><ele>4.0</ele><time>2026-05-01T23:28:22Z</time></trkpt><trkpt lat="45.49517896433229" lon="12.138914178095254"><ele>3.0</ele><time>2026-05-01T23:28:23Z</time></trkpt><trkpt lat="45.49488270709955" lon="12.138882949259969"><ele>2.0</ele><time>2026-05-01T23:28:24Z</time></trkpt><trkpt lat="45.49458682916304" lon="12.138846115224158"><ele>1.5</ele><time>2026-05-01T23:28:25Z</time></trkpt><trkpt lat="45.49429248996244" lon="12.13880553699111"><ele>1.0</ele><time>2026-05-01T23:28:26Z</time></trkpt><trkpt lat="45.49400045803549" lon="12.138756555313996"><ele>1.5</ele><time>2026-05-01T23:28:27Z</time></trkpt><trkpt lat="45.4937100948231" lon="12.138699274123297"><ele>2.0</ele><time>2026-05-01T23:28:28Z</time></trkpt><trkpt lat="45.49342201474045" lon="12.138634799639393"><ele>2.0</ele><time>2026-05-01T23:28:29Z</time></trkpt><trkpt lat="45.4931325870897" lon="12.138572938338978"><ele>2.0</ele><time>2026-05-01T23:28:30Z</time></trkpt><trkpt lat="45.49282257695037" lon="12.138496475198242"><ele>3.0</ele><time>2026-05-01T23:28:31Z</time></trkpt><trkpt lat="45.492536498741245" lon="12.138403282308365"><ele>4.0</ele><time>2026-05-01T23:28:32Z</time></trkpt><trkpt lat="45.492249180481124" lon="12.138316730432624"><ele>3.5</ele><time>2026-05-01T23:28:33Z</time></trkpt><trkpt lat="45.49196433614839" lon="12.138219251064928"><ele>3.0</ele><time>2026-05-01T23:28:34Z</time></trkpt><trkpt lat="45.49168084167371" lon="12.138115215034754"><ele>2.0</ele><time>2026-05-01T23:28:35Z</time></trkpt><trkpt lat="45.491397347263685" lon="12.138004707506154"><ele>1.0</ele><time>2026-05-01T23:28:36Z</time></trkpt><trkpt lat="45.49111462192447" lon="12.137892020055613"><ele>1.0</ele><time>2026-05-01T23:28:37Z</time></trkpt><trkpt lat="45.49083503809499" lon="12.137774808769613"><ele>1.0</ele><time>2026-05-01T23:28:38Z</time></trkpt><trkpt lat="45.49056047365055" lon="12.137649341995415"><ele>1.0</ele><time>2026-05-01T23:28:39Z</time></trkpt><trkpt lat="45.49028888397808" lon="12.13751545083045"><ele>1.0</ele><time>2026-05-01T23:28:40Z</time></trkpt><trkpt lat="45.49002203756058" lon="12.137382320487582"><ele>1.5</ele><time>2026-05-01T23:28:41Z</time></trkpt><trkpt lat="45.48975771604866" lon="12.137243315140504"><ele>2.0</ele><time>2026-05-01T23:28:42Z</time></trkpt><trkpt lat="45.489493219059575" lon="12.137096938277818"><ele>3.0</ele><time>2026-05-01T23:28:43Z</time></trkpt><trkpt lat="45.489226759240154" lon="12.13694627811721"><ele>4.0</ele><time>2026-05-01T23:28:44Z</time></trkpt><trkpt lat="45.488964167125225" lon="12.13679280928957"><ele>3.0</ele><time>2026-05-01T23:28:45Z</time></trkpt><trkpt lat="45.4887053743967" lon="12.136646028988356"><ele>2.0</ele><time>2026-05-01T23:28:46Z</time></trkpt><trkpt lat="45.488459865430606" lon="12.136509259313447"><ele>2.0</ele><time>2026-05-01T23:28:47Z</time></trkpt><trkpt lat="45.48821533671509" lon="12.136366553941068"><ele>2.0</ele><time>2026-05-01T23:28:48Z</time></trkpt><trkpt lat="45.487965861478585" lon="12.13621162424101"><ele>1.5</ele><time>2026-05-01T23:28:49Z</time></trkpt><trkpt lat="45.48771561166542" lon="12.136053631961556"><ele>1.0</ele><time>2026-05-01T23:28:50Z</time></trkpt><trkpt lat="45.48746466353275" lon="12.135896029757284"><ele>1.0</ele><time>2026-05-01T23:28:51Z</time></trkpt><trkpt lat="45.487210245369596" lon="12.135735639640355"><ele>1.0</ele><time>2026-05-01T23:28:52Z</time></trkpt><trkpt lat="45.48694711682223" lon="12.135566284950206"><ele>1.5</ele><time>2026-05-01T23:28:53Z</time></trkpt><trkpt lat="45.48668833560191" lon="12.13540363507678"><ele>2.0</ele><time>2026-05-01T23:28:54Z</time></trkpt><trkpt lat="45.4864344941742" lon="12.1352370883425"><ele>1.5</ele><time>2026-05-01T23:28:55Z</time></trkpt><trkpt lat="45.486177770011885" lon="12.135072894979585"><ele>1.0</ele><time>2026-05-01T23:28:56Z</time></trkpt><trkpt lat="45.485923785960665" lon="12.134904861269943"><ele>1.0</ele><time>2026-05-01T23:28:57Z</time></trkpt><trkpt lat="45.485666696271664" lon="12.134743541138791"><ele>1.0</ele><time>2026-05-01T23:28:58Z</time></trkpt><trkpt lat="45.485406935149975" lon="12.13458089409272"><ele>1.0</ele><time>2026-05-01T23:28:59Z</time></trkpt><trkpt lat="45.48514680367748" lon="12.134414513354647"><ele>1.0</ele><time>2026-05-01T23:29:00Z</time></trkpt><trkpt lat="45.484884221162915" lon="12.134251152015283"><ele>1.0</ele><time>2026-05-01T23:29:01Z</time></trkpt><trkpt lat="45.484624807561666" lon="12.13409072573317"><ele>1.0</ele><time>2026-05-01T23:29:02Z</time></trkpt><trkpt lat="45.48436576073441" lon="12.133931245215702"><ele>1.0</ele><time>2026-05-01T23:29:03Z</time></trkpt><trkpt lat="45.48410858041222" lon="12.133765386713737"><ele>1.0</ele><time>2026-05-01T23:29:04Z</time></trkpt><trkpt lat="45.483849112489686" lon="12.133596394539865"><ele>0.5</ele><time>2026-05-01T23:29:05Z</time></trkpt><trkpt lat="45.48358753184448" lon="12.133430354519112"><ele>0.0</ele><time>2026-05-01T23:29:06Z</time></trkpt><trkpt lat="45.483330005271505" lon="12.13326567015808"><ele>0.5</ele><time>2026-05-01T23:29:07Z</time></trkpt><trkpt lat="45.48306678353254" lon="12.13310025417107"><ele>1.0</ele><time>2026-05-01T23:29:08Z</time></trkpt><trkpt lat="45.482804312894494" lon="12.132932190579703"><ele>2.0</ele><time>2026-05-01T23:29:09Z</time></trkpt><trkpt lat="45.48253683625183" lon="12.132770498820777"><ele>3.0</ele><time>2026-05-01T23:29:10Z</time></trkpt><trkpt lat="45.482272425549844" lon="12.132605705195669"><ele>2.5</ele><time>2026-05-01T23:29:11Z</time></trkpt><trkpt lat="45.48200692630198" lon="12.132434057005275"><ele>2.0</ele><time>2026-05-01T23:29:12Z</time></trkpt><trkpt lat="45.48174393224896" lon="12.132261171664927"><ele>2.0</ele><time>2026-05-01T23:29:13Z</time></trkpt><trkpt lat="45.4814783957692" lon="12.13208082736642"><ele>2.0</ele><time>2026-05-01T23:29:14Z</time></trkpt><trkpt lat="45.48122166981576" lon="12.13187354435666"><ele>2.0</ele><time>2026-05-01T23:29:15Z</time></trkpt><trkpt lat="45.48096715114348" lon="12.131640093734694"><ele>2.0</ele><time>2026-05-01T23:29:16Z</time></trkpt><trkpt lat="45.48071035894016" lon="12.131404783304584"><ele>1.0</ele><time>2026-05-01T23:29:17Z</time></trkpt><trkpt lat="45.48045682927729" lon="12.13117031197514"><ele>0.0</ele><time>2026-05-01T23:29:18Z</time></trkpt><trkpt lat="45.480206699096605" lon="12.130922278986043"><ele>1.0</ele><time>2026-05-01T23:29:19Z</time></trkpt><trkpt lat="45.479962342793065" lon="12.130660630017754"><ele>2.0</ele><time>2026-05-01T23:29:20Z</time></trkpt><trkpt lat="45.47972275233375" lon="12.130392190747935"><ele>2.0</ele><time>2026-05-01T23:29:21Z</time></trkpt><trkpt lat="45.4794931803738" lon="12.130104174291503"><ele>2.0</ele><time>2026-05-01T23:29:22Z</time></trkpt><trkpt lat="45.47927128141919" lon="12.12980737731926"><ele>2.0</ele><time>2026-05-01T23:29:23Z</time></trkpt><trkpt lat="45.47904745289161" lon="12.129502532189973"><ele>2.0</ele><time>2026-05-01T23:29:24Z</time></trkpt><trkpt lat="45.47881824064916" lon="12.12919304094912"><ele>1.5</ele><time>2026-05-01T23:29:25Z</time></trkpt><trkpt lat="45.478597144556936" lon="12.12888162463839"><ele>1.0</ele><time>2026-05-01T23:29:26Z</time></trkpt><trkpt lat="45.47838741898059" lon="12.128563851001896"><ele>1.0</ele><time>2026-05-01T23:29:27Z</time></trkpt><trkpt lat="45.47817919732947" lon="12.128243557407702"><ele>1.0</ele><time>2026-05-01T23:29:28Z</time></trkpt><trkpt lat="45.47797901223786" lon="12.127914528320844"><ele>1.0</ele><time>2026-05-01T23:29:29Z</time></trkpt><trkpt lat="45.47779205998395" lon="12.127581700053371"><ele>1.0</ele><time>2026-05-01T23:29:30Z</time></trkpt><trkpt lat="45.477611060224724" lon="12.127241782713034"><ele>1.0</ele><time>2026-05-01T23:29:31Z</time></trkpt><trkpt lat="45.47743628608614" lon="12.1268938266183"><ele>1.0</ele><time>2026-05-01T23:29:32Z</time></trkpt><trkpt lat="45.47726850654323" lon="12.126546203514177"><ele>1.0</ele><time>2026-05-01T23:29:33Z</time></trkpt><trkpt lat="45.47710516659291" lon="12.126198909009148"><ele>1.0</ele><time>2026-05-01T23:29:34Z</time></trkpt><trkpt lat="45.47694882719976" lon="12.12584910038348"><ele>0.0</ele><time>2026-05-01T23:29:35Z</time></trkpt><trkpt lat="45.47679167242458" lon="12.125500060676119"><ele>-1.0</ele><time>2026-05-01T23:29:36Z</time></trkpt><trkpt lat="45.476641411264296" lon="12.125149923880343"><ele>-1.0</ele><time>2026-05-01T23:29:37Z</time></trkpt><trkpt lat="45.47650036065149" lon="12.124791231366707"><ele>-1.0</ele><time>2026-05-01T23:29:38Z</time></trkpt><trkpt lat="45.47636935999525" lon="12.124431266843192"><ele>-1.0</ele><time>2026-05-01T23:29:39Z</time></trkpt><trkpt lat="45.47624375109849" lon="12.124058487445032"><ele>-1.0</ele><time>2026-05-01T23:29:40Z</time></trkpt><trkpt lat="45.47612892774724" lon="12.123681589275334"><ele>-1.0</ele><time>2026-05-01T23:29:41Z</time></trkpt><trkpt lat="45.47602579331916" lon="12.123299669618657"><ele>-1.0</ele><time>2026-05-01T23:29:42Z</time></trkpt><trkpt lat="45.47592527390823" lon="12.122905308567955"><ele>-0.5</ele><time>2026-05-01T23:29:43Z</time></trkpt><trkpt lat="45.47582642572039" lon="12.122514794664694"><ele>0.0</ele><time>2026-05-01T23:29:44Z</time></trkpt><trkpt lat="45.475727707742806" lon="12.122127523719659"><ele>0.0</ele><time>2026-05-01T23:29:45Z</time></trkpt><trkpt lat="45.47562971416558" lon="12.121735340306648"><ele>0.0</ele><time>2026-05-01T23:29:46Z</time></trkpt><trkpt lat="45.475533281613906" lon="12.121341321559056"><ele>0.0</ele><time>2026-05-01T23:29:47Z</time></trkpt><trkpt lat="45.475438742227816" lon="12.120939045868713"><ele>0.0</ele><time>2026-05-01T23:29:48Z</time></trkpt><trkpt lat="45.4753441573148" lon="12.120536994679526"><ele>0.0</ele><time>2026-05-01T23:29:49Z</time></trkpt><trkpt lat="45.47525494087075" lon="12.12014843093157"><ele>0.0</ele><time>2026-05-01T23:29:50Z</time></trkpt><trkpt lat="45.475163864032254" lon="12.119752453214776"><ele>-0.5</ele><time>2026-05-01T23:29:51Z</time></trkpt><trkpt lat="45.475075844302616" lon="12.11938334722964"><ele>-1.0</ele><time>2026-05-01T23:29:52Z</time></trkpt><trkpt lat="45.474986910762645" lon="12.118999084432769"><ele>-1.0</ele><time>2026-05-01T23:29:53Z</time></trkpt><trkpt lat="45.47489700156457" lon="12.118612302882763"><ele>-1.0</ele><time>2026-05-01T23:29:54Z</time></trkpt><trkpt lat="45.47480737476366" lon="12.118220296898123"><ele>0.0</ele><time>2026-05-01T23:29:55Z</time></trkpt><trkpt lat="45.474718476356465" lon="12.11783168683151"><ele>1.0</ele><time>2026-05-01T23:29:56Z</time></trkpt><trkpt lat="45.4746273604804" lon="12.117437066347202"><ele>0.5</ele><time>2026-05-01T23:29:57Z</time></trkpt><trkpt lat="45.4745326374714" lon="12.117043420812013"><ele>0.0</ele><time>2026-05-01T23:29:58Z</time></trkpt><trkpt lat="45.47444035256221" lon="12.116644377806589"><ele>-0.5</ele><time>2026-05-01T23:29:59Z</time></trkpt><trkpt lat="45.4743491235534" lon="12.116248924217512"><ele>-1.0</ele><time>2026-05-01T23:30:00Z</time></trkpt><trkpt lat="45.47425649459718" lon="12.115848378177681"><ele>-1.0</ele><time>2026-05-01T23:30:01Z</time></trkpt><trkpt lat="45.47416464190861" lon="12.115447764135418"><ele>-1.0</ele><time>2026-05-01T23:30:02Z</time></trkpt><trkpt lat="45.47407140612532" lon="12.115049585508565"><ele>-1.0</ele><time>2026-05-01T23:30:03Z</time></trkpt><trkpt lat="45.47397858573724" lon="12.114643321501985"><ele>-1.0</ele><time>2026-05-01T23:30:04Z</time></trkpt><trkpt lat="45.47388467681037" lon="12.114240107284454"><ele>-1.0</ele><time>2026-05-01T23:30:05Z</time></trkpt><trkpt lat="45.47378967553146" lon="12.11384001529354"><ele>-1.0</ele><time>2026-05-01T23:30:06Z</time></trkpt><trkpt lat="45.47369325992167" lon="12.113432365414267"><ele>0.0</ele><time>2026-05-01T23:30:07Z</time></trkpt><trkpt lat="45.47359819836857" lon="12.113042147953973"><ele>1.0</ele><time>2026-05-01T23:30:08Z</time></trkpt><trkpt lat="45.47349984845975" lon="12.112639875046757"><ele>0.5</ele><time>2026-05-01T23:30:09Z</time></trkpt><trkpt lat="45.47339970547551" lon="12.112245204044207"><ele>0.0</ele><time>2026-05-01T23:30:10Z</time></trkpt><trkpt lat="45.473297627001195" lon="12.111854968689737"><ele>0.0</ele><time>2026-05-01T23:30:11Z</time></trkpt><trkpt lat="45.4731880958353" lon="12.111464041775031"><ele>0.0</ele><time>2026-05-01T23:30:12Z</time></trkpt><trkpt lat="45.47307661343879" lon="12.11107508260983"><ele>1.0</ele><time>2026-05-01T23:30:13Z</time></trkpt><trkpt lat="45.47296262111523" lon="12.110693064091265"><ele>2.0</ele><time>2026-05-01T23:30:14Z</time></trkpt><trkpt lat="45.472841261841005" lon="12.110310477791547"><ele>2.5</ele><time>2026-05-01T23:30:15Z</time></trkpt><trkpt lat="45.47271299143798" lon="12.109928383588164"><ele>3.0</ele><time>2026-05-01T23:30:16Z</time></trkpt><trkpt lat="45.47257827976345" lon="12.10955803801101"><ele>3.5</ele><time>2026-05-01T23:30:17Z</time></trkpt><trkpt lat="45.472433725329985" lon="12.109183601917858"><ele>4.0</ele><time>2026-05-01T23:30:18Z</time></trkpt><trkpt lat="45.472291070957986" lon="12.108812754352812"><ele>4.0</ele><time>2026-05-01T23:30:19Z</time></trkpt><trkpt lat="45.472130350612616" lon="12.108455246054575"><ele>4.0</ele><time>2026-05-01T23:30:20Z</time></trkpt><trkpt lat="45.471968150785784" lon="12.108096200889547"><ele>3.5</ele><time>2026-05-01T23:30:21Z</time></trkpt><trkpt lat="45.47179928642581" lon="12.107749550316267"><ele>3.0</ele><time>2026-05-01T23:30:22Z</time></trkpt><trkpt lat="45.47162470399243" lon="12.107400658014177"><ele>3.0</ele><time>2026-05-01T23:30:23Z</time></trkpt><trkpt lat="45.47144350673735" lon="12.107061529862602"><ele>3.0</ele><time>2026-05-01T23:30:24Z</time></trkpt><trkpt lat="45.47125729273791" lon="12.106726053433587"><ele>2.5</ele><time>2026-05-01T23:30:25Z</time></trkpt><trkpt lat="45.47106778359789" lon="12.10639569395239"><ele>2.0</ele><time>2026-05-01T23:30:26Z</time></trkpt><trkpt lat="45.470870758114046" lon="12.106070909643382"><ele>2.0</ele><time>2026-05-01T23:30:27Z</time></trkpt><trkpt lat="45.47066905948321" lon="12.10576046483718"><ele>2.0</ele><time>2026-05-01T23:30:28Z</time></trkpt><trkpt lat="45.47046219141977" lon="12.10544872588467"><ele>2.0</ele><time>2026-05-01T23:30:29Z</time></trkpt><trkpt lat="45.47025174601082" lon="12.105145061307931"><ele>2.0</ele><time>2026-05-01T23:30:30Z</time></trkpt><trkpt lat="45.47003378392548" lon="12.1048584454475"><ele>2.0</ele><time>2026-05-01T23:30:31Z</time></trkpt><trkpt lat="45.46981048320874" lon="12.104571073409023"><ele>2.0</ele><time>2026-05-01T23:30:32Z</time></trkpt><trkpt lat="45.469584077097934" lon="12.104299472797152"><ele>2.0</ele><time>2026-05-01T23:30:33Z</time></trkpt><trkpt lat="45.46935062178155" lon="12.104033720093385"><ele>2.0</ele><time>2026-05-01T23:30:34Z</time></trkpt><trkpt lat="45.46912227022818" lon="12.103767216887649"><ele>2.0</ele><time>2026-05-01T23:30:35Z</time></trkpt><trkpt lat="45.468894008727986" lon="12.103507023800622"><ele>2.0</ele><time>2026-05-01T23:30:36Z</time></trkpt><trkpt lat="45.468667045398306" lon="12.103242551024424"><ele>1.5</ele><time>2026-05-01T23:30:37Z</time></trkpt><trkpt lat="45.468439333956056" lon="12.102978342209438"><ele>1.0</ele><time>2026-05-01T23:30:38Z</time></trkpt><trkpt lat="45.468204489992395" lon="12.102704691099554"><ele>1.0</ele><time>2026-05-01T23:30:39Z</time></trkpt><trkpt lat="45.4678982759977" lon="12.102606571204939"><ele>1.0</ele><time>2026-05-01T23:30:40Z</time></trkpt><trkpt lat="45.46762128453182" lon="12.10237874183595"><ele>1.0</ele><time>2026-05-01T23:30:41Z</time></trkpt><trkpt lat="45.46736489865536" lon="12.102180865192727"><ele>1.0</ele><time>2026-05-01T23:30:42Z</time></trkpt><trkpt lat="45.46710617802856" lon="12.101969935878074"><ele>1.0</ele><time>2026-05-01T23:30:43Z</time></trkpt><trkpt lat="45.46684257218614" lon="12.101766219572792"><ele>1.0</ele><time>2026-05-01T23:30:44Z</time></trkpt><trkpt lat="45.46657936103617" lon="12.101579743471493"><ele>1.0</ele><time>2026-05-01T23:30:45Z</time></trkpt><trkpt lat="45.46631807074353" lon="12.101380732222747"><ele>1.0</ele><time>2026-05-01T23:30:46Z</time></trkpt><trkpt lat="45.466057200913724" lon="12.101183493483509"><ele>1.0</ele><time>2026-05-01T23:30:47Z</time></trkpt><trkpt lat="45.46579764176791" lon="12.100985882212637"><ele>1.0</ele><time>2026-05-01T23:30:48Z</time></trkpt><trkpt lat="45.46553981202588" lon="12.100792322155637"><ele>1.5</ele><time>2026-05-01T23:30:49Z</time></trkpt><trkpt lat="45.465278436366454" lon="12.100597172537293"><ele>2.0</ele><time>2026-05-01T23:30:50Z</time></trkpt><trkpt lat="45.465015073797446" lon="12.100408651628655"><ele>2.0</ele><time>2026-05-01T23:30:51Z</time></trkpt><trkpt lat="45.464758214481066" lon="12.100223777813815"><ele>2.0</ele><time>2026-05-01T23:30:52Z</time></trkpt><trkpt lat="45.46449611491794" lon="12.100026737511062"><ele>1.5</ele><time>2026-05-01T23:30:53Z</time></trkpt><trkpt lat="45.46423855798461" lon="12.099838635948885"><ele>1.0</ele><time>2026-05-01T23:30:54Z</time></trkpt><trkpt lat="45.463981400210564" lon="12.099647954609189"><ele>0.5</ele><time>2026-05-01T23:30:55Z</time></trkpt><trkpt lat="45.46372561517792" lon="12.099456585639723"><ele>0.0</ele><time>2026-05-01T23:30:56Z</time></trkpt><trkpt lat="45.46347103365377" lon="12.099268093856297"><ele>0.0</ele><time>2026-05-01T23:30:57Z</time></trkpt><trkpt lat="45.463214540998486" lon="12.099082154858765"><ele>0.0</ele><time>2026-05-01T23:30:58Z</time></trkpt><trkpt lat="45.4629619434241" lon="12.098902208076687"><ele>0.0</ele><time>2026-05-01T23:30:59Z</time></trkpt><trkpt lat="45.46270688493763" lon="12.098715255875755"><ele>0.0</ele><time>2026-05-01T23:31:00Z</time></trkpt><trkpt lat="45.46245608503672" lon="12.0985303052983"><ele>0.0</ele><time>2026-05-01T23:31:01Z</time></trkpt><trkpt lat="45.46220471245018" lon="12.0983437737823"><ele>0.0</ele><time>2026-05-01T23:31:02Z</time></trkpt><trkpt lat="45.46195390992596" lon="12.098156006091035"><ele>0.0</ele><time>2026-05-01T23:31:03Z</time></trkpt><trkpt lat="45.461706182306045" lon="12.097970346645749"><ele>0.0</ele><time>2026-05-01T23:31:04Z</time></trkpt><trkpt lat="45.46145294475047" lon="12.097784466064718"><ele>0.0</ele><time>2026-05-01T23:31:05Z</time></trkpt><trkpt lat="45.461202539762624" lon="12.09760341018616"><ele>0.0</ele><time>2026-05-01T23:31:06Z</time></trkpt><trkpt lat="45.460954777485824" lon="12.097423325996079"><ele>0.5</ele><time>2026-05-01T23:31:07Z</time></trkpt><trkpt lat="45.460702215741314" lon="12.097238144296455"><ele>1.0</ele><time>2026-05-01T23:31:08Z</time></trkpt><trkpt lat="45.460449087891575" lon="12.097053005385893"><ele>1.5</ele><time>2026-05-01T23:31:09Z</time></trkpt><trkpt lat="45.46019777488336" lon="12.096868434832038"><ele>2.0</ele><time>2026-05-01T23:31:10Z</time></trkpt><trkpt lat="45.45994601716696" lon="12.096682338040532"><ele>2.0</ele><time>2026-05-01T23:31:11Z</time></trkpt><trkpt lat="45.459694634917156" lon="12.096494995313423"><ele>2.0</ele><time>2026-05-01T23:31:12Z</time></trkpt><trkpt lat="45.459440088358726" lon="12.096308232449745"><ele>2.0</ele><time>2026-05-01T23:31:13Z</time></trkpt><trkpt lat="45.45918454666333" lon="12.096117100091583"><ele>2.0</ele><time>2026-05-01T23:31:14Z</time></trkpt><trkpt lat="45.4589305325454" lon="12.095932074284477"><ele>2.0</ele><time>2026-05-01T23:31:15Z</time></trkpt><trkpt lat="45.45868005081796" lon="12.095748053903046"><ele>2.0</ele><time>2026-05-01T23:31:16Z</time></trkpt><trkpt lat="45.45842223409725" lon="12.095559896014526"><ele>2.0</ele><time>2026-05-01T23:31:17Z</time></trkpt><trkpt lat="45.45816174737903" lon="12.09536293517676"><ele>2.0</ele><time>2026-05-01T23:31:18Z</time></trkpt><trkpt lat="45.457900358008715" lon="12.09516204484116"><ele>2.0</ele><time>2026-05-01T23:31:19Z</time></trkpt><trkpt lat="45.45764024915433" lon="12.094960344428877"><ele>2.0</ele><time>2026-05-01T23:31:20Z</time></trkpt><trkpt lat="45.45737711979726" lon="12.094757865812205"><ele>2.0</ele><time>2026-05-01T23:31:21Z</time></trkpt><trkpt lat="45.457115716306774" lon="12.094557853652342"><ele>2.0</ele><time>2026-05-01T23:31:22Z</time></trkpt><trkpt lat="45.45685177199108" lon="12.094358814581668"><ele>2.0</ele><time>2026-05-01T23:31:23Z</time></trkpt><trkpt lat="45.4565914252651" lon="12.094255059460558"><ele>2.0</ele><time>2026-05-01T23:31:24Z</time></trkpt><trkpt lat="45.45635267719065" lon="12.094075943717801"><ele>1.5</ele><time>2026-05-01T23:31:25Z</time></trkpt><trkpt lat="45.45612340897401" lon="12.09389779658966"><ele>1.0</ele><time>2026-05-01T23:31:26Z</time></trkpt><trkpt lat="45.45588736399351" lon="12.093721969031275"><ele>1.0</ele><time>2026-05-01T23:31:27Z</time></trkpt><trkpt lat="45.45564096685068" lon="12.093538051159413"><ele>1.0</ele><time>2026-05-01T23:31:28Z</time></trkpt><trkpt lat="45.4553992363223" lon="12.093353885236409"><ele>1.0</ele><time>2026-05-01T23:31:29Z</time></trkpt><trkpt lat="45.45515167696409" lon="12.093162495660994"><ele>1.0</ele><time>2026-05-01T23:31:30Z</time></trkpt><trkpt lat="45.454899480271365" lon="12.092968168629838"><ele>1.0</ele><time>2026-05-01T23:31:31Z</time></trkpt><trkpt lat="45.45464801465226" lon="12.092769028894406"><ele>1.0</ele><time>2026-05-01T23:31:32Z</time></trkpt><trkpt lat="45.454395385535825" lon="12.092560504469276"><ele>0.5</ele><time>2026-05-01T23:31:33Z</time></trkpt><trkpt lat="45.45414403127212" lon="12.092339460301087"><ele>0.0</ele><time>2026-05-01T23:31:34Z</time></trkpt><trkpt lat="45.45389169770147" lon="12.092111978740999"><ele>0.5</ele><time>2026-05-01T23:31:35Z</time></trkpt><trkpt lat="45.453641560669055" lon="12.091880331803187"><ele>1.0</ele><time>2026-05-01T23:31:36Z</time></trkpt><trkpt lat="45.45339438821137" lon="12.091641019249275"><ele>0.5</ele><time>2026-05-01T23:31:37Z</time></trkpt><trkpt lat="45.45314963026074" lon="12.091390842374347"><ele>0.0</ele><time>2026-05-01T23:31:38Z</time></trkpt><trkpt lat="45.45290762255144" lon="12.091133118788091"><ele>-0.5</ele><time>2026-05-01T23:31:39Z</time></trkpt><trkpt lat="45.45267347052862" lon="12.090865232318968"><ele>-1.0</ele><time>2026-05-01T23:31:40Z</time></trkpt><trkpt lat="45.45244450440024" lon="12.090591921522684"><ele>0.0</ele><time>2026-05-01T23:31:41Z</time></trkpt><trkpt lat="45.452220195281974" lon="12.090314502295659"><ele>1.0</ele><time>2026-05-01T23:31:42Z</time></trkpt><trkpt lat="45.45199748529081" lon="12.09003491401435"><ele>2.0</ele><time>2026-05-01T23:31:43Z</time></trkpt><trkpt lat="45.45177766901014" lon="12.089747084451455"><ele>3.0</ele><time>2026-05-01T23:31:44Z</time></trkpt><trkpt lat="45.451562575153396" lon="12.089458695633462"><ele>3.0</ele><time>2026-05-01T23:31:45Z</time></trkpt><trkpt lat="45.451351745586244" lon="12.089162549382028"><ele>3.0</ele><time>2026-05-01T23:31:46Z</time></trkpt><trkpt lat="45.45114815236398" lon="12.088863839653815"><ele>4.0</ele><time>2026-05-01T23:31:47Z</time></trkpt><trkpt lat="45.45094924855489" lon="12.088560496635685"><ele>5.0</ele><time>2026-05-01T23:31:48Z</time></trkpt><trkpt lat="45.4507602778052" lon="12.088257131541317"><ele>5.0</ele><time>2026-05-01T23:31:49Z</time></trkpt><trkpt lat="45.45058260563197" lon="12.087960447425182"><ele>5.0</ele><time>2026-05-01T23:31:50Z</time></trkpt><trkpt lat="45.45041807057438" lon="12.087676631938827"><ele>4.0</ele><time>2026-05-01T23:31:51Z</time></trkpt><trkpt lat="45.45025708161086" lon="12.087393532015144"><ele>3.0</ele><time>2026-05-01T23:31:52Z</time></trkpt><trkpt lat="45.45010093794362" lon="12.087106460974466"><ele>3.0</ele><time>2026-05-01T23:31:53Z</time></trkpt><trkpt lat="45.44994715024487" lon="12.086816334531242"><ele>3.0</ele><time>2026-05-01T23:31:54Z</time></trkpt><trkpt lat="45.44979565142739" lon="12.08652044933065"><ele>2.5</ele><time>2026-05-01T23:31:55Z</time></trkpt><trkpt lat="45.44965096861974" lon="12.086222371968077"><ele>2.0</ele><time>2026-05-01T23:31:56Z</time></trkpt><trkpt lat="45.449510688032866" lon="12.0859189046288"><ele>2.0</ele><time>2026-05-01T23:31:57Z</time></trkpt><trkpt lat="45.449371987534235" lon="12.085610300420585"><ele>2.0</ele><time>2026-05-01T23:31:58Z</time></trkpt><trkpt lat="45.44923588221371" lon="12.085300883665793"><ele>2.0</ele><time>2026-05-01T23:31:59Z</time></trkpt><trkpt lat="45.449102414186164" lon="12.08499036998202"><ele>2.0</ele><time>2026-05-01T23:32:00Z</time></trkpt><trkpt lat="45.44897197469011" lon="12.084677420199073"><ele>2.5</ele><time>2026-05-01T23:32:01Z</time></trkpt><trkpt lat="45.448847953089" lon="12.084364647996965"><ele>3.0</ele><time>2026-05-01T23:32:02Z</time></trkpt><trkpt lat="45.44873299161102" lon="12.084059149091788"><ele>3.0</ele><time>2026-05-01T23:32:03Z</time></trkpt><trkpt lat="45.448625107613246" lon="12.08376303465796"><ele>3.0</ele><time>2026-05-01T23:32:04Z</time></trkpt><trkpt lat="45.44852496048951" lon="12.083479889809634"><ele>2.6666666666666665</ele><time>2026-05-01T23:32:05Z</time></trkpt><trkpt lat="45.44843087080452" lon="12.083194104823333"><ele>2.333333333333333</ele><time>2026-05-01T23:32:06Z</time></trkpt><trkpt lat="45.44834005994115" lon="12.08290211220555"><ele>2.0</ele><time>2026-05-01T23:32:07Z</time></trkpt><trkpt lat="45.44825103078064" lon="12.082609156288116"><ele>2.5</ele><time>2026-05-01T23:32:08Z</time></trkpt><trkpt lat="45.44815696723541" lon="12.082254876364312"><ele>3.0</ele><time>2026-05-01T23:32:09Z</time></trkpt><trkpt lat="45.448068880938585" lon="12.081951559319704"><ele>3.0</ele><time>2026-05-01T23:32:10Z</time></trkpt><trkpt lat="45.44798784376017" lon="12.08164526515986"><ele>3.0</ele><time>2026-05-01T23:32:11Z</time></trkpt><trkpt lat="45.447903056258596" lon="12.081337029696156"><ele>3.0</ele><time>2026-05-01T23:32:12Z</time></trkpt><trkpt lat="45.44781131213621" lon="12.081028789356143"><ele>3.0</ele><time>2026-05-01T23:32:13Z</time></trkpt><trkpt lat="45.447732547006666" lon="12.080712391553783"><ele>3.0</ele><time>2026-05-01T23:32:14Z</time></trkpt><trkpt lat="45.44765571304722" lon="12.080390061077386"><ele>3.0</ele><time>2026-05-01T23:32:15Z</time></trkpt><trkpt lat="45.447580591529636" lon="12.080065576585772"><ele>2.5</ele><time>2026-05-01T23:32:16Z</time></trkpt><trkpt lat="45.447508688728774" lon="12.079738534550728"><ele>2.0</ele><time>2026-05-01T23:32:17Z</time></trkpt><trkpt lat="45.44743589883452" lon="12.07940562044642"><ele>2.0</ele><time>2026-05-01T23:32:18Z</time></trkpt><trkpt lat="45.44738173034046" lon="12.079071551390342"><ele>2.0</ele><time>2026-05-01T23:32:19Z</time></trkpt><trkpt lat="45.4473148349977" lon="12.078744803483142"><ele>2.0</ele><time>2026-05-01T23:32:20Z</time></trkpt><trkpt lat="45.447247031515545" lon="12.078413262793791"><ele>2.0</ele><time>2026-05-01T23:32:21Z</time></trkpt><trkpt lat="45.44717466174544" lon="12.078083609247352"><ele>2.5</ele><time>2026-05-01T23:32:22Z</time></trkpt><trkpt lat="45.44710021946888" lon="12.077752378665803"><ele>3.0</ele><time>2026-05-01T23:32:23Z</time></trkpt><trkpt lat="45.44703017225351" lon="12.07741850975286"><ele>3.5</ele><time>2026-05-01T23:32:24Z</time></trkpt><trkpt lat="45.4469583977666" lon="12.077088608675545"><ele>4.0</ele><time>2026-05-01T23:32:25Z</time></trkpt><trkpt lat="45.44688517205195" lon="12.0767519361768"><ele>4.0</ele><time>2026-05-01T23:32:26Z</time></trkpt><trkpt lat="45.44681558490333" lon="12.076418073063655"><ele>4.0</ele><time>2026-05-01T23:32:27Z</time></trkpt><trkpt lat="45.446743219902984" lon="12.076085373849223"><ele>4.5</ele><time>2026-05-01T23:32:28Z</time></trkpt><trkpt lat="45.446671130603974" lon="12.075738295769177"><ele>5.0</ele><time>2026-05-01T23:32:29Z</time></trkpt><trkpt lat="45.44660512715784" lon="12.075398270428922"><ele>5.0</ele><time>2026-05-01T23:32:30Z</time></trkpt><trkpt lat="45.44653684924326" lon="12.075053195393627"><ele>5.0</ele><time>2026-05-01T23:32:31Z</time></trkpt><trkpt lat="45.446475160914325" lon="12.074707977610387"><ele>5.0</ele><time>2026-05-01T23:32:32Z</time></trkpt><trkpt lat="45.44640261382574" lon="12.074360739290652"><ele>5.0</ele><time>2026-05-01T23:32:33Z</time></trkpt><trkpt lat="45.44633036687367" lon="12.074014849188213"><ele>5.5</ele><time>2026-05-01T23:32:34Z</time></trkpt><trkpt lat="45.44625806583693" lon="12.07366584690422"><ele>6.0</ele><time>2026-05-01T23:32:35Z</time></trkpt><trkpt lat="45.446185331645005" lon="12.073315978058073"><ele>5.5</ele><time>2026-05-01T23:32:36Z</time></trkpt><trkpt lat="45.446111197177224" lon="12.072966131002424"><ele>5.0</ele><time>2026-05-01T23:32:37Z</time></trkpt><trkpt lat="45.44604301290909" lon="12.072624345299396"><ele>4.5</ele><time>2026-05-01T23:32:38Z</time></trkpt><trkpt lat="45.445964397701026" lon="12.072268440300904"><ele>4.0</ele><time>2026-05-01T23:32:39Z</time></trkpt><trkpt lat="45.44589410292666" lon="12.071918731736703"><ele>4.5</ele><time>2026-05-01T23:32:40Z</time></trkpt><trkpt lat="45.4458223551415" lon="12.07156259954091"><ele>5.0</ele><time>2026-05-01T23:32:41Z</time></trkpt><trkpt lat="45.44574904008478" lon="12.071211523980875"><ele>5.0</ele><time>2026-05-01T23:32:42Z</time></trkpt><trkpt lat="45.445675582718174" lon="12.070854562522957"><ele>5.0</ele><time>2026-05-01T23:32:43Z</time></trkpt><trkpt lat="45.445600843009544" lon="12.07049739677023"><ele>4.0</ele><time>2026-05-01T23:32:44Z</time></trkpt><trkpt lat="45.44552456379948" lon="12.070136694170127"><ele>3.0</ele><time>2026-05-01T23:32:45Z</time></trkpt><trkpt lat="45.44544965492958" lon="12.069776797769679"><ele>3.0</ele><time>2026-05-01T23:32:46Z</time></trkpt><trkpt lat="45.44537600170759" lon="12.069413429850055"><ele>3.0</ele><time>2026-05-01T23:32:47Z</time></trkpt><trkpt lat="45.4453031468168" lon="12.069047898061084"><ele>3.0</ele><time>2026-05-01T23:32:48Z</time></trkpt><trkpt lat="45.44522916807765" lon="12.068684364678138"><ele>3.0</ele><time>2026-05-01T23:32:49Z</time></trkpt><trkpt lat="45.44515654003759" lon="12.068310932308691"><ele>3.0</ele><time>2026-05-01T23:32:50Z</time></trkpt><trkpt lat="45.445082458369775" lon="12.06794824724349"><ele>3.0</ele><time>2026-05-01T23:32:51Z</time></trkpt><trkpt lat="45.44500796925826" lon="12.06757916703766"><ele>2.5</ele><time>2026-05-01T23:32:52Z</time></trkpt><trkpt lat="45.44493110957166" lon="12.067212313269454"><ele>2.0</ele><time>2026-05-01T23:32:53Z</time></trkpt><trkpt lat="45.44485379996631" lon="12.066845802819445"><ele>2.0</ele><time>2026-05-01T23:32:54Z</time></trkpt><trkpt lat="45.44477728333703" lon="12.066479780351852"><ele>2.0</ele><time>2026-05-01T23:32:55Z</time></trkpt><trkpt lat="45.444700783345226" lon="12.066109079583473"><ele>2.0</ele><time>2026-05-01T23:32:56Z</time></trkpt><trkpt lat="45.444624976081265" lon="12.065743892118945"><ele>2.0</ele><time>2026-05-01T23:32:57Z</time></trkpt><trkpt lat="45.44454921463605" lon="12.065375648747763"><ele>2.0</ele><time>2026-05-01T23:32:58Z</time></trkpt><trkpt lat="45.44447293867577" lon="12.065007120452076"><ele>2.0</ele><time>2026-05-01T23:32:59Z</time></trkpt><trkpt lat="45.44439728322061" lon="12.064641305941638"><ele>2.5</ele><time>2026-05-01T23:33:00Z</time></trkpt><trkpt lat="45.444321775593075" lon="12.064272859378912"><ele>3.0</ele><time>2026-05-01T23:33:01Z</time></trkpt><trkpt lat="45.44424617562211" lon="12.06390427094723"><ele>3.0</ele><time>2026-05-01T23:33:02Z</time></trkpt><trkpt lat="45.44417119983275" lon="12.063540280243318"><ele>3.0</ele><time>2026-05-01T23:33:03Z</time></trkpt><trkpt lat="45.444095687852" lon="12.063173261091285"><ele>2.5</ele><time>2026-05-01T23:33:04Z</time></trkpt><trkpt lat="45.44401919468842" lon="12.062805827127711"><ele>2.0</ele><time>2026-05-01T23:33:05Z</time></trkpt><trkpt lat="45.44394306631197" lon="12.06244024945372"><ele>2.0</ele><time>2026-05-01T23:33:06Z</time></trkpt><trkpt lat="45.44386732207935" lon="12.062074403618762"><ele>2.0</ele><time>2026-05-01T23:33:07Z</time></trkpt><trkpt lat="45.44379225138281" lon="12.061726105638447"><ele>2.0</ele><time>2026-05-01T23:33:08Z</time></trkpt><trkpt lat="45.44372759898162" lon="12.061379901910566"><ele>2.0</ele><time>2026-05-01T23:33:09Z</time></trkpt><trkpt lat="45.443655340841" lon="12.061032288066096"><ele>2.0</ele><time>2026-05-01T23:33:10Z</time></trkpt><trkpt lat="45.44358309711042" lon="12.060683918976064"><ele>2.0</ele><time>2026-05-01T23:33:11Z</time></trkpt><trkpt lat="45.443511767253455" lon="12.060337272089871"><ele>2.0</ele><time>2026-05-01T23:33:12Z</time></trkpt><trkpt lat="45.44344029710966" lon="12.05998886525014"><ele>2.0</ele><time>2026-05-01T23:33:13Z</time></trkpt><trkpt lat="45.443371101210595" lon="12.059642792287136"><ele>2.0</ele><time>2026-05-01T23:33:14Z</time></trkpt><trkpt lat="45.443300377207834" lon="12.059297131495274"><ele>2.0</ele><time>2026-05-01T23:33:15Z</time></trkpt><trkpt lat="45.44323008723994" lon="12.058953970623415"><ele>3.0</ele><time>2026-05-01T23:33:16Z</time></trkpt><trkpt lat="45.44316288480384" lon="12.058619261291387"><ele>4.0</ele><time>2026-05-01T23:33:17Z</time></trkpt><trkpt lat="45.44309886125153" lon="12.058291522716024"><ele>3.6666666666666665</ele><time>2026-05-01T23:33:18Z</time></trkpt><trkpt lat="45.44304603452548" lon="12.057986962348524"><ele>3.333333333333333</ele><time>2026-05-01T23:33:19Z</time></trkpt><trkpt lat="45.442994359503984" lon="12.057698148796003"><ele>3.0</ele><time>2026-05-01T23:33:20Z</time></trkpt><trkpt lat="45.44294258260672" lon="12.057422551920574"><ele>2.6666666666666665</ele><time>2026-05-01T23:33:21Z</time></trkpt><trkpt lat="45.44289423044945" lon="12.057170410005135"><ele>2.333333333333333</ele><time>2026-05-01T23:33:22Z</time></trkpt><trkpt lat="45.44284369335369" lon="12.056924583513005"><ele>2.0</ele><time>2026-05-01T23:33:23Z</time></trkpt><trkpt lat="45.44279680346816" lon="12.056697374430174"><ele>2.5</ele><time>2026-05-01T23:33:24Z</time></trkpt><trkpt lat="45.4427537468425" lon="12.056481268577832"><ele>3.0</ele><time>2026-05-01T23:33:25Z</time></trkpt><trkpt lat="45.44271450471812" lon="12.056281839472641"><ele>3.5</ele><time>2026-05-01T23:33:26Z</time></trkpt><trkpt lat="45.44268703512199" lon="12.056100327647295"><ele>4.0</ele><time>2026-05-01T23:33:27Z</time></trkpt><trkpt lat="45.44267077271863" lon="12.055936603084291"><ele>4.2</ele><time>2026-05-01T23:33:28Z</time></trkpt><trkpt lat="45.44266740753883" lon="12.055777662595005"><ele>4.4</ele><time>2026-05-01T23:33:29Z</time></trkpt><trkpt lat="45.442629315868714" lon="12.05563184612368"><ele>4.6</ele><time>2026-05-01T23:33:30Z</time></trkpt><trkpt lat="45.44263143359342" lon="12.055492856365829"><ele>4.8</ele><time>2026-05-01T23:33:31Z</time></trkpt><trkpt lat="45.442617168268185" lon="12.055358567620987"><ele>5.0</ele><time>2026-05-01T23:33:32Z</time></trkpt><trkpt lat="45.442592942694525" lon="12.055216639386922"><ele>5.0</ele><time>2026-05-01T23:33:33Z</time></trkpt><trkpt lat="45.44256076110845" lon="12.05507711193385"><ele>5.0</ele><time>2026-05-01T23:33:34Z</time></trkpt><trkpt lat="45.442524814808465" lon="12.054932576431854"><ele>5.0</ele><time>2026-05-01T23:33:35Z</time></trkpt><trkpt lat="45.44248978696559" lon="12.054778278080628"><ele>5.0</ele><time>2026-05-01T23:33:36Z</time></trkpt><trkpt lat="45.442455923301225" lon="12.054625905018993"><ele>5.0</ele><time>2026-05-01T23:33:37Z</time></trkpt><trkpt lat="45.442422486818394" lon="12.05447545410446"><ele>4.6</ele><time>2026-05-01T23:33:38Z</time></trkpt><trkpt lat="45.4423902246537" lon="12.054329656780972"><ele>4.2</ele><time>2026-05-01T23:33:39Z</time></trkpt><trkpt lat="45.44236005855744" lon="12.05418232984187"><ele>3.8</ele><time>2026-05-01T23:33:40Z</time></trkpt><trkpt lat="45.442329058528536" lon="12.054030930105199"><ele>3.4</ele><time>2026-05-01T23:33:41Z</time></trkpt><trkpt lat="45.44229827702204" lon="12.053879539259835"><ele>3.0</ele><time>2026-05-01T23:33:42Z</time></trkpt><trkpt lat="45.44226763318708" lon="12.053729121662244"><ele>3.0</ele><time>2026-05-01T23:33:43Z</time></trkpt><trkpt lat="45.44226527399312" lon="12.053562976956014"><ele>3.0</ele><time>2026-05-01T23:33:44Z</time></trkpt><trkpt lat="45.4422337057096" lon="12.053412835106592"><ele>3.0</ele><time>2026-05-01T23:33:45Z</time></trkpt><trkpt lat="45.44220217326439" lon="12.053259983446988"><ele>3.0</ele><time>2026-05-01T23:33:46Z</time></trkpt><trkpt lat="45.44217070842152" lon="12.05311103339302"><ele>3.0</ele><time>2026-05-01T23:33:47Z</time></trkpt><trkpt lat="45.44214054096843" lon="12.052970056294104"><ele>3.0</ele><time>2026-05-01T23:33:48Z</time></trkpt><trkpt lat="45.4421123221563" lon="12.052836396134623"><ele>3.0</ele><time>2026-05-01T23:33:49Z</time></trkpt><trkpt lat="45.44208732114555" lon="12.052710472667705"><ele>3.0</ele><time>2026-05-01T23:33:50Z</time></trkpt><trkpt lat="45.442062699182614" lon="12.052586958461644"><ele>3.0</ele><time>2026-05-01T23:33:51Z</time></trkpt><trkpt lat="45.44203914977196" lon="12.052460943936632"><ele>3.0</ele><time>2026-05-01T23:33:52Z</time></trkpt><trkpt lat="45.44201735704776" lon="12.05234364386101"><ele>3.0</ele><time>2026-05-01T23:33:53Z</time></trkpt><trkpt lat="45.44199693039072" lon="12.052242204653597"><ele>3.0</ele><time>2026-05-01T23:33:54Z</time></trkpt><trkpt lat="45.44198240988011" lon="12.052153035993197"><ele>3.0</ele><time>2026-05-01T23:33:55Z</time></trkpt><trkpt lat="45.44197235530042" lon="12.052060389485888"><ele>3.0</ele><time>2026-05-01T23:33:56Z</time></trkpt><trkpt lat="45.44198587238102" lon="12.051883990287328"><ele>3.0</ele><time>2026-05-01T23:33:58Z</time></trkpt><trkpt lat="45.44202959237165" lon="12.05171712269968"><ele>3.0</ele><time>2026-05-01T23:34:00Z</time></trkpt><trkpt lat="45.44200116606652" lon="12.051573029723517"><ele>3.0</ele><time>2026-05-01T23:34:02Z</time></trkpt><trkpt lat="45.4419725634575" lon="12.051419153009713"><ele>3.0</ele><time>2026-05-01T23:34:04Z</time></trkpt><trkpt lat="45.44195407221496" lon="12.051319673566239"><ele>3.0</ele><time>2026-05-01T23:34:06Z</time></trkpt><trkpt lat="45.44193720731764" lon="12.05122851448536"><ele>3.0</ele><time>2026-05-01T23:38:43Z</time></trkpt><trkpt lat="45.44221743042139" lon="12.051139063672473"><ele>3.0</ele><time>2026-05-01T23:38:45Z</time></trkpt><trkpt lat="45.442134994908514" lon="12.05097358106299"><ele>3.0</ele><time>2026-05-01T23:39:31.026Z</time></trkpt><trkpt lat="45.44219750166936" lon="12.051078437532052"><ele>3.0</ele><time>2026-05-01T23:39:40.028Z</time></trkpt><trkpt lat="45.44217848905042" lon="12.051176636701797"><ele>3.0</ele><time>2026-05-01T23:39:59.023Z</time></trkpt><trkpt lat="45.44212003692684" lon="12.051222824437763"><ele>3.0</ele><time>2026-05-01T23:40:09Z</time></trkpt><trkpt lat="45.442015016345415" lon="12.051147259646754"><ele>3.1666666666666665</ele><time>2026-05-01T23:58:41.001Z</time></trkpt><trkpt lat="45.44197868270582" lon="12.051055072505397"><ele>3.333333333333333</ele><time>2026-05-01T23:58:58.001Z</time></trkpt><trkpt lat="45.441917738372744" lon="12.051000716413645"><ele>3.5</ele><time>2026-05-01T23:59:00.001Z</time></trkpt><trkpt lat="45.441838171047785" lon="12.050945069082433"><ele>3.6666666666666665</ele><time>2026-05-01T23:59:03.001Z</time></trkpt><trkpt lat="45.441763756533334" lon="12.050887069124188"><ele>3.833333333333333</ele><time>2026-05-01T23:59:06.001Z</time></trkpt><trkpt lat="45.441708015415614" lon="12.050790614894794"><ele>4.0</ele><time>2026-05-01T23:59:08.001Z</time></trkpt><trkpt lat="45.44165506183194" lon="12.050640849137645"><ele>3.9999999999999996</ele><time>2026-05-01T23:59:10.001Z</time></trkpt><trkpt lat="45.441632759155176" lon="12.050549542920978"><ele>4.0</ele><time>2026-05-01T23:59:11.001Z</time></trkpt><trkpt lat="45.44161078513045" lon="12.050461920081249"><ele>4.0</ele><time>2026-05-01T23:59:12.001Z</time></trkpt><trkpt lat="45.441576632823875" lon="12.050375541797091"><ele>4.0</ele><time>2026-05-01T23:59:13.001Z</time></trkpt><trkpt lat="45.44152968935476" lon="12.050284317077425"><ele>3.9999999999999996</ele><time>2026-05-01T23:59:14.001Z</time></trkpt><trkpt lat="45.44147355542545" lon="12.050189506576139"><ele>4.0</ele><time>2026-05-01T23:59:15.001Z</time></trkpt><trkpt lat="45.441414508277404" lon="12.050076217849265"><ele>3.5</ele><time>2026-05-01T23:59:16.001Z</time></trkpt><trkpt lat="45.44136408592918" lon="12.049943844703163"><ele>3.0</ele><time>2026-05-01T23:59:17.001Z</time></trkpt><trkpt lat="45.441323529925846" lon="12.049792894199586"><ele>2.5</ele><time>2026-05-01T23:59:18.001Z</time></trkpt><trkpt lat="45.441287299807094" lon="12.049620662941326"><ele>2.0</ele><time>2026-05-01T23:59:19.001Z</time></trkpt><trkpt lat="45.4412472526682" lon="12.04942635471649"><ele>2.0</ele><time>2026-05-01T23:59:20.001Z</time></trkpt><trkpt lat="45.441203595858255" lon="12.049211782735075"><ele>2.0</ele><time>2026-05-01T23:59:21.001Z</time></trkpt><trkpt lat="45.441160138339335" lon="12.048991972508505"><ele>2.0</ele><time>2026-05-01T23:59:22.001Z</time></trkpt><trkpt lat="45.4411158784348" lon="12.048779705765366"><ele>1.6666666666666665</ele><time>2026-05-01T23:59:23.001Z</time></trkpt><trkpt lat="45.44106953463107" lon="12.04856389569486"><ele>1.3333333333333333</ele><time>2026-05-01T23:59:24Z</time></trkpt><trkpt lat="45.441023442896956" lon="12.048345400487845"><ele>1.0</ele><time>2026-05-01T23:59:25Z</time></trkpt><trkpt lat="45.44097822150149" lon="12.048125716138758"><ele>1.6666666666666665</ele><time>2026-05-01T23:59:26Z</time></trkpt><trkpt lat="45.44093368738625" lon="12.047906543028635"><ele>2.3333333333333335</ele><time>2026-05-01T23:59:27Z</time></trkpt><trkpt lat="45.44088687286449" lon="12.047681174685797"><ele>3.0</ele><time>2026-05-01T23:59:28Z</time></trkpt><trkpt lat="45.440833536096086" lon="12.04744137128907"><ele>3.666666666666667</ele><time>2026-05-01T23:59:29Z</time></trkpt><trkpt lat="45.4407741891043" lon="12.047186600507548"><ele>4.333333333333334</ele><time>2026-05-01T23:59:30Z</time></trkpt><trkpt lat="45.4407108187038" lon="12.046916466802434"><ele>5.0</ele><time>2026-05-01T23:59:31Z</time></trkpt><trkpt lat="45.44064617508739" lon="12.046630292734271"><ele>5.0</ele><time>2026-05-01T23:59:32Z</time></trkpt><trkpt lat="45.44058083544845" lon="12.046333853831399"><ele>5.0</ele><time>2026-05-01T23:59:33Z</time></trkpt><trkpt lat="45.44051976598649" lon="12.04604132102196"><ele>5.0</ele><time>2026-05-01T23:59:34Z</time></trkpt><trkpt lat="45.44045696683642" lon="12.045735308752274"><ele>5.5</ele><time>2026-05-01T23:59:35Z</time></trkpt><trkpt lat="45.440391838347246" lon="12.045415945011142"><ele>6.0</ele><time>2026-05-01T23:59:36Z</time></trkpt><trkpt lat="45.4403230860876" lon="12.04508901345451"><ele>5.5</ele><time>2026-05-01T23:59:37Z</time></trkpt><trkpt lat="45.44024929435933" lon="12.044751566045791"><ele>5.0</ele><time>2026-05-01T23:59:38Z</time></trkpt><trkpt lat="45.44017638855372" lon="12.04440920315872"><ele>5.0</ele><time>2026-05-01T23:59:39Z</time></trkpt><trkpt lat="45.440108457324165" lon="12.044075757461508"><ele>5.0</ele><time>2026-05-01T23:59:40Z</time></trkpt><trkpt lat="45.440037819065765" lon="12.043731847398695"><ele>5.0</ele><time>2026-05-01T23:59:41Z</time></trkpt><trkpt lat="45.43996591861951" lon="12.043381723987228"><ele>5.0</ele><time>2026-05-01T23:59:42Z</time></trkpt><trkpt lat="45.439894023357525" lon="12.043022879568818"><ele>5.0</ele><time>2026-05-01T23:59:43Z</time></trkpt><trkpt lat="45.43982046688121" lon="12.042662608800445"><ele>5.0</ele><time>2026-05-01T23:59:44Z</time></trkpt><trkpt lat="45.43975116103192" lon="12.042318910070628"><ele>5.0</ele><time>2026-05-01T23:59:45Z</time></trkpt><trkpt lat="45.43968124987217" lon="12.04196802819738"><ele>5.0</ele><time>2026-05-01T23:59:46Z</time></trkpt><trkpt lat="45.43960920485233" lon="12.041613697381491"><ele>4.5</ele><time>2026-05-01T23:59:47Z</time></trkpt><trkpt lat="45.439537014532206" lon="12.041259852203517"><ele>4.0</ele><time>2026-05-01T23:59:48Z</time></trkpt><trkpt lat="45.439462650412814" lon="12.040905160441314"><ele>4.0</ele><time>2026-05-01T23:59:49Z</time></trkpt><trkpt lat="45.43938757352798" lon="12.040549125385114"><ele>4.0</ele><time>2026-05-01T23:59:50.001Z</time></trkpt><trkpt lat="45.43931355567156" lon="12.040194945452447"><ele>4.0</ele><time>2026-05-01T23:59:51.001Z</time></trkpt><trkpt lat="45.43923989276053" lon="12.039839257361745"><ele>4.0</ele><time>2026-05-01T23:59:52.001Z</time></trkpt><trkpt lat="45.439165271962665" lon="12.039482636061681"><ele>4.0</ele><time>2026-05-01T23:59:53.001Z</time></trkpt><trkpt lat="45.43909051529663" lon="12.039125542895468"><ele>4.0</ele><time>2026-05-01T23:59:54.001Z</time></trkpt><trkpt lat="45.4390163055441" lon="12.038772184904007"><ele>4.0</ele><time>2026-05-01T23:59:55.001Z</time></trkpt><trkpt lat="45.43894174857947" lon="12.03841251545841"><ele>4.0</ele><time>2026-05-01T23:59:56.001Z</time></trkpt><trkpt lat="45.4388684891705" lon="12.038059956751736"><ele>4.5</ele><time>2026-05-01T23:59:57.001Z</time></trkpt><trkpt lat="45.438795162819936" lon="12.037702010376682"><ele>5.0</ele><time>2026-05-01T23:59:58.001Z</time></trkpt><trkpt lat="45.438722457432355" lon="12.03734338616385"><ele>4.5</ele><time>2026-05-01T23:59:59.001Z</time></trkpt><trkpt lat="45.43865097674261" lon="12.0369864549425"><ele>4.0</ele><time>2026-05-02T00:00:00.001Z</time></trkpt><trkpt lat="45.438577547507585" lon="12.036627750238944"><ele>4.0</ele><time>2026-05-02T00:00:01.001Z</time></trkpt><trkpt lat="45.43850318126491" lon="12.036270273275674"><ele>4.0</ele><time>2026-05-02T00:00:02.001Z</time></trkpt><trkpt lat="45.438428939000225" lon="12.035908852421587"><ele>4.5</ele><time>2026-05-02T00:00:03.001Z</time></trkpt><trkpt lat="45.43835506766926" lon="12.035547371641199"><ele>5.0</ele><time>2026-05-02T00:00:04.001Z</time></trkpt><trkpt lat="45.438281442091316" lon="12.035187799475931"><ele>5.0</ele><time>2026-05-02T00:00:05.001Z</time></trkpt><trkpt lat="45.4382086534312" lon="12.034829464443167"><ele>5.0</ele><time>2026-05-02T00:00:06.001Z</time></trkpt><trkpt lat="45.438135503492624" lon="12.034474035553519"><ele>5.0</ele><time>2026-05-02T00:00:07.001Z</time></trkpt><trkpt lat="45.438062131297926" lon="12.034118732838998"><ele>5.0</ele><time>2026-05-02T00:00:08.001Z</time></trkpt><trkpt lat="45.437987431211134" lon="12.03376291096865"><ele>4.5</ele><time>2026-05-02T00:00:09.001Z</time></trkpt><trkpt lat="45.43791174912465" lon="12.033410376480324"><ele>4.0</ele><time>2026-05-02T00:00:10.001Z</time></trkpt><trkpt lat="45.437835508816946" lon="12.033055360819525"><ele>4.0</ele><time>2026-05-02T00:00:11.001Z</time></trkpt><trkpt lat="45.43775829444425" lon="12.032701200082995"><ele>4.0</ele><time>2026-05-02T00:00:12.001Z</time></trkpt><trkpt lat="45.43768297022288" lon="12.032344631669066"><ele>4.0</ele><time>2026-05-02T00:00:13.001Z</time></trkpt><trkpt lat="45.437609548647416" lon="12.031986802168065"><ele>4.0</ele><time>2026-05-02T00:00:14.001Z</time></trkpt><trkpt lat="45.43753725565933" lon="12.031632816554037"><ele>4.0</ele><time>2026-05-02T00:00:15.001Z</time></trkpt><trkpt lat="45.43746313618187" lon="12.031276671949625"><ele>4.0</ele><time>2026-05-02T00:00:16.001Z</time></trkpt><trkpt lat="45.437389503343645" lon="12.030924101422732"><ele>3.5</ele><time>2026-05-02T00:00:17.001Z</time></trkpt><trkpt lat="45.43731685911232" lon="12.030571216024782"><ele>3.0</ele><time>2026-05-02T00:00:18.001Z</time></trkpt><trkpt lat="45.43724603956523" lon="12.030218642724416"><ele>3.0</ele><time>2026-05-02T00:00:19.001Z</time></trkpt><trkpt lat="45.43717547961307" lon="12.029865509052252"><ele>3.0</ele><time>2026-05-02T00:00:20.001Z</time></trkpt><trkpt lat="45.43710343513925" lon="12.029510190099806"><ele>3.0</ele><time>2026-05-02T00:00:21.001Z</time></trkpt><trkpt lat="45.437030334886295" lon="12.029157455730967"><ele>3.0</ele><time>2026-05-02T00:00:22.001Z</time></trkpt><trkpt lat="45.436957775062865" lon="12.028806086782774"><ele>3.0</ele><time>2026-05-02T00:00:23.001Z</time></trkpt><trkpt lat="45.43688488255243" lon="12.028453671270105"><ele>3.0</ele><time>2026-05-02T00:00:24.001Z</time></trkpt><trkpt lat="45.43681294715308" lon="12.028104526533271"><ele>3.5</ele><time>2026-05-02T00:00:25.001Z</time></trkpt><trkpt lat="45.436740427162924" lon="12.027754356768614"><ele>4.0</ele><time>2026-05-02T00:00:26.001Z</time></trkpt><trkpt lat="45.436668839693986" lon="12.027404248821348"><ele>4.5</ele><time>2026-05-02T00:00:27.001Z</time></trkpt><trkpt lat="45.43659927676671" lon="12.027058615216092"><ele>5.0</ele><time>2026-05-02T00:00:28.001Z</time></trkpt><trkpt lat="45.436527075711744" lon="12.026707035114361"><ele>4.5</ele><time>2026-05-02T00:00:29.001Z</time></trkpt><trkpt lat="45.436454060106136" lon="12.026357326050839"><ele>4.0</ele><time>2026-05-02T00:00:30.001Z</time></trkpt><trkpt lat="45.43638023642929" lon="12.026009995853478"><ele>4.5</ele><time>2026-05-02T00:00:31.001Z</time></trkpt><trkpt lat="45.43630923952828" lon="12.025661536539607"><ele>5.0</ele><time>2026-05-02T00:00:32.001Z</time></trkpt><trkpt lat="45.43623963235991" lon="12.025312758694199"><ele>4.5</ele><time>2026-05-02T00:00:33.001Z</time></trkpt><trkpt lat="45.436169093322604" lon="12.024967743375417"><ele>4.0</ele><time>2026-05-02T00:00:34.001Z</time></trkpt><trkpt lat="45.43609896636218" lon="12.024624987049144"><ele>4.0</ele><time>2026-05-02T00:00:35.001Z</time></trkpt><trkpt lat="45.43602849814475" lon="12.024280438825416"><ele>4.0</ele><time>2026-05-02T00:00:36.001Z</time></trkpt><trkpt lat="45.43595665950883" lon="12.023936051595548"><ele>4.0</ele><time>2026-05-02T00:00:37.001Z</time></trkpt><trkpt lat="45.43588525686582" lon="12.023589926489864"><ele>4.0</ele><time>2026-05-02T00:00:38.001Z</time></trkpt><trkpt lat="45.435815482872286" lon="12.02325070639141"><ele>4.0</ele><time>2026-05-02T00:00:39.001Z</time></trkpt><trkpt lat="45.43574639585253" lon="12.022907195241396"><ele>4.0</ele><time>2026-05-02T00:00:40.001Z</time></trkpt><trkpt lat="45.4356773208347" lon="12.022565040134433"><ele>3.0</ele><time>2026-05-02T00:00:41.001Z</time></trkpt><trkpt lat="45.435608916572306" lon="12.022225969288563"><ele>2.0</ele><time>2026-05-02T00:00:42.001Z</time></trkpt><trkpt lat="45.4355383762098" lon="12.021889117821022"><ele>2.5</ele><time>2026-05-02T00:00:43.001Z</time></trkpt><trkpt lat="45.43546664812176" lon="12.021550524692156"><ele>3.0</ele><time>2026-05-02T00:00:44.001Z</time></trkpt><trkpt lat="45.43539516730273" lon="12.02121362688106"><ele>3.0</ele><time>2026-05-02T00:00:45.001Z</time></trkpt><trkpt lat="45.43532506619968" lon="12.020876664570359"><ele>3.0</ele><time>2026-05-02T00:00:46.001Z</time></trkpt><trkpt lat="45.435255816486105" lon="12.020539989325114"><ele>3.5</ele><time>2026-05-02T00:00:47.001Z</time></trkpt><trkpt lat="45.435190254711614" lon="12.020216207299233"><ele>4.0</ele><time>2026-05-02T00:00:48.001Z</time></trkpt><trkpt lat="45.43512419256448" lon="12.019894611074056"><ele>4.0</ele><time>2026-05-02T00:00:49.001Z</time></trkpt><trkpt lat="45.43505727489259" lon="12.01956591736785"><ele>4.0</ele><time>2026-05-02T00:00:50.001Z</time></trkpt><trkpt lat="45.43498766406406" lon="12.019232815018956"><ele>4.0</ele><time>2026-05-02T00:00:51.001Z</time></trkpt><trkpt lat="45.43491671457923" lon="12.018893705633642"><ele>4.0</ele><time>2026-05-02T00:00:52.001Z</time></trkpt><trkpt lat="45.43484637877747" lon="12.018554676822719"><ele>4.0</ele><time>2026-05-02T00:00:53.001Z</time></trkpt><trkpt lat="45.434775456561084" lon="12.018212460862452"><ele>4.0</ele><time>2026-05-02T00:00:54.001Z</time></trkpt><trkpt lat="45.434703731856544" lon="12.017869755510697"><ele>4.0</ele><time>2026-05-02T00:00:55.001Z</time></trkpt><trkpt lat="45.43463257696586" lon="12.017525219278653"><ele>4.0</ele><time>2026-05-02T00:00:56.001Z</time></trkpt><trkpt lat="45.43456124323531" lon="12.017180011814991"><ele>4.0</ele><time>2026-05-02T00:00:57.001Z</time></trkpt><trkpt lat="45.43449066132667" lon="12.016838954658397"><ele>4.0</ele><time>2026-05-02T00:00:58.001Z</time></trkpt><trkpt lat="45.434419086457176" lon="12.016492075206113"><ele>5.0</ele><time>2026-05-02T00:00:59.001Z</time></trkpt><trkpt lat="45.43434823819716" lon="12.01615121061609"><ele>6.0</ele><time>2026-05-02T00:01:00.001Z</time></trkpt><trkpt lat="45.43427787894619" lon="12.015809804678936"><ele>6.0</ele><time>2026-05-02T00:01:01.001Z</time></trkpt><trkpt lat="45.43420791715411" lon="12.015469532193007"><ele>6.0</ele><time>2026-05-02T00:01:02.001Z</time></trkpt><trkpt lat="45.43413873638932" lon="12.0151305156632"><ele>5.0</ele><time>2026-05-02T00:01:03.001Z</time></trkpt><trkpt lat="45.43406965132951" lon="12.01479036218249"><ele>4.0</ele><time>2026-05-02T00:01:04.001Z</time></trkpt><trkpt lat="45.43400048747249" lon="12.014451618547039"><ele>4.0</ele><time>2026-05-02T00:01:05.001Z</time></trkpt><trkpt lat="45.43393115574525" lon="12.014113399371832"><ele>4.0</ele><time>2026-05-02T00:01:06.001Z</time></trkpt><trkpt lat="45.43386227198898" lon="12.013775621711812"><ele>4.0</ele><time>2026-05-02T00:01:07.001Z</time></trkpt><trkpt lat="45.43379289105696" lon="12.013435308020377"><ele>4.0</ele><time>2026-05-02T00:01:08.001Z</time></trkpt><trkpt lat="45.43372396145966" lon="12.01309469291132"><ele>3.5</ele><time>2026-05-02T00:01:09.001Z</time></trkpt><trkpt lat="45.43365496687652" lon="12.01275455650785"><ele>3.0</ele><time>2026-05-02T00:01:10.001Z</time></trkpt><trkpt lat="45.43358641042019" lon="12.012413413818527"><ele>3.0</ele><time>2026-05-02T00:01:11.001Z</time></trkpt><trkpt lat="45.433517173437046" lon="12.012073916581793"><ele>3.0</ele><time>2026-05-02T00:01:12.001Z</time></trkpt><trkpt lat="45.433446951711204" lon="12.011733263895255"><ele>3.0</ele><time>2026-05-02T00:01:13.001Z</time></trkpt><trkpt lat="45.433375975445095" lon="12.011390909286481"><ele>3.0</ele><time>2026-05-02T00:01:14.001Z</time></trkpt><trkpt lat="45.43330615423954" lon="12.011052925741783"><ele>2.5</ele><time>2026-05-02T00:01:15.001Z</time></trkpt><trkpt lat="45.433236061917874" lon="12.010712781134004"><ele>2.0</ele><time>2026-05-02T00:01:16.001Z</time></trkpt><trkpt lat="45.43316563341401" lon="12.01037596810697"><ele>2.0</ele><time>2026-05-02T00:01:17.001Z</time></trkpt><trkpt lat="45.43309589961984" lon="12.01003924114937"><ele>2.0</ele><time>2026-05-02T00:01:18.001Z</time></trkpt><trkpt lat="45.433026189413425" lon="12.009700919935732"><ele>2.5</ele><time>2026-05-02T00:01:19.001Z</time></trkpt><trkpt lat="45.43295669903169" lon="12.009366381605986"><ele>3.0</ele><time>2026-05-02T00:01:20.001Z</time></trkpt><trkpt lat="45.4328867771974" lon="12.009030942248419"><ele>3.0</ele><time>2026-05-02T00:01:21.001Z</time></trkpt><trkpt lat="45.43281741364904" lon="12.008696467659268"><ele>3.0</ele><time>2026-05-02T00:01:22.001Z</time></trkpt><trkpt lat="45.43274946119114" lon="12.008360448928368"><ele>3.5</ele><time>2026-05-02T00:01:23.001Z</time></trkpt><trkpt lat="45.43268116674366" lon="12.008023842941713"><ele>4.0</ele><time>2026-05-02T00:01:24.001Z</time></trkpt><trkpt lat="45.43261164469576" lon="12.007683981039076"><ele>4.0</ele><time>2026-05-02T00:01:25.001Z</time></trkpt><trkpt lat="45.43254233149588" lon="12.007350240530506"><ele>4.0</ele><time>2026-05-02T00:01:26.001Z</time></trkpt><trkpt lat="45.43247375810863" lon="12.007017766019018"><ele>4.0</ele><time>2026-05-02T00:01:27.001Z</time></trkpt><trkpt lat="45.432405940639676" lon="12.006683939708948"><ele>4.0</ele><time>2026-05-02T00:01:28.001Z</time></trkpt><trkpt lat="45.432337825492674" lon="12.006354697689407"><ele>4.0</ele><time>2026-05-02T00:01:29.001Z</time></trkpt><trkpt lat="45.43226876387402" lon="12.00602334825235"><ele>4.0</ele><time>2026-05-02T00:01:30Z</time></trkpt><trkpt lat="45.43219951559111" lon="12.00569169088426"><ele>4.5</ele><time>2026-05-02T00:01:31Z</time></trkpt><trkpt lat="45.43213126770346" lon="12.005368000994944"><ele>5.0</ele><time>2026-05-02T00:01:32Z</time></trkpt><trkpt lat="45.432063204219304" lon="12.00504018115347"><ele>4.0</ele><time>2026-05-02T00:01:33Z</time></trkpt><trkpt lat="45.43199606138145" lon="12.004705669757332"><ele>3.0</ele><time>2026-05-02T00:01:34Z</time></trkpt><trkpt lat="45.43192928780948" lon="12.004377422195766"><ele>3.5</ele><time>2026-05-02T00:01:35Z</time></trkpt><trkpt lat="45.43186240181588" lon="12.004049865084367"><ele>4.0</ele><time>2026-05-02T00:01:36Z</time></trkpt><trkpt lat="45.4317959805107" lon="12.00372524626321"><ele>4.0</ele><time>2026-05-02T00:01:37Z</time></trkpt><trkpt lat="45.431729187690195" lon="12.003397796264059"><ele>4.0</ele><time>2026-05-02T00:01:38Z</time></trkpt><trkpt lat="45.431661646029085" lon="12.003068164840238"><ele>4.5</ele><time>2026-05-02T00:01:39Z</time></trkpt><trkpt lat="45.43159490031552" lon="12.002741578656124"><ele>5.0</ele><time>2026-05-02T00:01:40Z</time></trkpt><trkpt lat="45.431526539316785" lon="12.002407459413554"><ele>5.5</ele><time>2026-05-02T00:01:41Z</time></trkpt><trkpt lat="45.431457746350645" lon="12.002078497915546"><ele>6.0</ele><time>2026-05-02T00:01:42Z</time></trkpt><trkpt lat="45.431388302602095" lon="12.001744287006362"><ele>5.5</ele><time>2026-05-02T00:01:43Z</time></trkpt><trkpt lat="45.43131829658143" lon="12.001406212449865"><ele>5.0</ele><time>2026-05-02T00:01:44Z</time></trkpt><trkpt lat="45.43124883337212" lon="12.001069159773309"><ele>5.0</ele><time>2026-05-02T00:01:45Z</time></trkpt><trkpt lat="45.431178774611155" lon="12.000731903551547"><ele>5.0</ele><time>2026-05-02T00:01:46Z</time></trkpt><trkpt lat="45.43110718652912" lon="12.000386743805315"><ele>5.0</ele><time>2026-05-02T00:01:47Z</time></trkpt><trkpt lat="45.431036730306914" lon="12.000043841403278"><ele>5.0</ele><time>2026-05-02T00:01:48Z</time></trkpt><trkpt lat="45.430965960463176" lon="11.999698504043627"><ele>5.0</ele><time>2026-05-02T00:01:49Z</time></trkpt><trkpt lat="45.43089428248458" lon="11.999349271328168"><ele>5.0</ele><time>2026-05-02T00:01:50Z</time></trkpt><trkpt lat="45.430821841598636" lon="11.998999885034856"><ele>5.5</ele><time>2026-05-02T00:01:51Z</time></trkpt><trkpt lat="45.43074883041801" lon="11.998651363404322"><ele>6.0</ele><time>2026-05-02T00:01:52Z</time></trkpt><trkpt lat="45.43067487764681" lon="11.998299888140059"><ele>6.5</ele><time>2026-05-02T00:01:53Z</time></trkpt><trkpt lat="45.43060208619088" lon="11.997948262450414"><ele>7.0</ele><time>2026-05-02T00:01:54Z</time></trkpt><trkpt lat="45.43053018706148" lon="11.997603519941393"><ele>6.0</ele><time>2026-05-02T00:01:55Z</time></trkpt><trkpt lat="45.43045765280475" lon="11.99725216220645"><ele>5.0</ele><time>2026-05-02T00:01:56Z</time></trkpt><trkpt lat="45.43038646709146" lon="11.996907111700029"><ele>5.5</ele><time>2026-05-02T00:01:57Z</time></trkpt><trkpt lat="45.43031498432855" lon="11.996559523061311"><ele>6.0</ele><time>2026-05-02T00:01:58Z</time></trkpt><trkpt lat="45.43024454474815" lon="11.99621413825238"><ele>6.0</ele><time>2026-05-02T00:01:59Z</time></trkpt><trkpt lat="45.43017341587491" lon="11.995867372374125"><ele>6.0</ele><time>2026-05-02T00:02:00.001Z</time></trkpt><trkpt lat="45.430100310808314" lon="11.995515673144572"><ele>5.5</ele><time>2026-05-02T00:02:01.001Z</time></trkpt><trkpt lat="45.430028848255496" lon="11.995168598697006"><ele>5.0</ele><time>2026-05-02T00:02:02.001Z</time></trkpt><trkpt lat="45.42995644527248" lon="11.99482358395714"><ele>5.0</ele><time>2026-05-02T00:02:03.001Z</time></trkpt><trkpt lat="45.429884908285175" lon="11.994473264851024"><ele>5.0</ele><time>2026-05-02T00:02:04.001Z</time></trkpt><trkpt lat="45.42981458761956" lon="11.994129262115761"><ele>4.5</ele><time>2026-05-02T00:02:05.001Z</time></trkpt><trkpt lat="45.42974498137038" lon="11.993783660635442"><ele>4.0</ele><time>2026-05-02T00:02:06.001Z</time></trkpt><trkpt lat="45.42967465912611" lon="11.993437941685018"><ele>4.0</ele><time>2026-05-02T00:02:07.001Z</time></trkpt><trkpt lat="45.42960307488303" lon="11.993093426646903"><ele>4.0</ele><time>2026-05-02T00:02:08.001Z</time></trkpt><trkpt lat="45.429531581397605" lon="11.99275072187098"><ele>5.0</ele><time>2026-05-02T00:02:09.001Z</time></trkpt><trkpt lat="45.42946039159587" lon="11.992406897469742"><ele>6.0</ele><time>2026-05-02T00:02:10.001Z</time></trkpt><trkpt lat="45.429389466113754" lon="11.99206221746057"><ele>6.0</ele><time>2026-05-02T00:02:11.001Z</time></trkpt><trkpt lat="45.42931876882412" lon="11.991719895971013"><ele>6.0</ele><time>2026-05-02T00:02:12.001Z</time></trkpt><trkpt lat="45.429247389509285" lon="11.991377239695666"><ele>6.5</ele><time>2026-05-02T00:02:13.001Z</time></trkpt><trkpt lat="45.42917630829938" lon="11.991035762717381"><ele>7.0</ele><time>2026-05-02T00:02:14.001Z</time></trkpt><trkpt lat="45.42910521539952" lon="11.990696563187361"><ele>5.5</ele><time>2026-05-02T00:02:15.001Z</time></trkpt><trkpt lat="45.42903398317606" lon="11.990355419385587"><ele>4.0</ele><time>2026-05-02T00:02:16.001Z</time></trkpt><trkpt lat="45.42896294813356" lon="11.99001436359834"><ele>3.5</ele><time>2026-05-02T00:02:17.001Z</time></trkpt><trkpt lat="45.428898700056855" lon="11.989676016643779"><ele>3.0</ele><time>2026-05-02T00:02:18.001Z</time></trkpt><trkpt lat="45.42883064455231" lon="11.989332769618924"><ele>4.5</ele><time>2026-05-02T00:02:19.001Z</time></trkpt><trkpt lat="45.42876541370856" lon="11.988987560867608"><ele>6.0</ele><time>2026-05-02T00:02:20.001Z</time></trkpt><trkpt lat="45.42869906155671" lon="11.988638075058784"><ele>5.5</ele><time>2026-05-02T00:02:21.001Z</time></trkpt><trkpt lat="45.428629100296305" lon="11.988285738855637"><ele>5.0</ele><time>2026-05-02T00:02:22.001Z</time></trkpt><trkpt lat="45.42855165933394" lon="11.98793191643551"><ele>5.0</ele><time>2026-05-02T00:02:23.001Z</time></trkpt><trkpt lat="45.428476147299634" lon="11.987567246020477"><ele>5.0</ele><time>2026-05-02T00:02:24.001Z</time></trkpt><trkpt lat="45.428400618327906" lon="11.987209468691654"><ele>5.0</ele><time>2026-05-02T00:02:25.001Z</time></trkpt><trkpt lat="45.42832350817304" lon="11.986861025117832"><ele>5.0</ele><time>2026-05-02T00:02:26.001Z</time></trkpt><trkpt lat="45.42824875045741" lon="11.986499778298226"><ele>5.0</ele><time>2026-05-02T00:02:27.001Z</time></trkpt><trkpt lat="45.42817106667166" lon="11.986128964775464"><ele>5.0</ele><time>2026-05-02T00:02:28.001Z</time></trkpt><trkpt lat="45.42809188589538" lon="11.985749367325374"><ele>5.5</ele><time>2026-05-02T00:02:29.001Z</time></trkpt><trkpt lat="45.428012525591484" lon="11.985361832730472"><ele>6.0</ele><time>2026-05-02T00:02:30.001Z</time></trkpt><trkpt lat="45.427931436732166" lon="11.984967537694965"><ele>5.5</ele><time>2026-05-02T00:02:31.001Z</time></trkpt><trkpt lat="45.42784986026793" lon="11.984571362083958"><ele>5.0</ele><time>2026-05-02T00:02:32.001Z</time></trkpt><trkpt lat="45.42776908356819" lon="11.984167590162816"><ele>5.0</ele><time>2026-05-02T00:02:33.001Z</time></trkpt><trkpt lat="45.4276867912942" lon="11.983767635583883"><ele>5.0</ele><time>2026-05-02T00:02:34.001Z</time></trkpt><trkpt lat="45.427601908249066" lon="11.983365950771946"><ele>5.5</ele><time>2026-05-02T00:02:35.001Z</time></trkpt><trkpt lat="45.42751565551288" lon="11.982960862230954"><ele>6.0</ele><time>2026-05-02T00:02:36.001Z</time></trkpt><trkpt lat="45.42743040082823" lon="11.982556275232918"><ele>5.5</ele><time>2026-05-02T00:02:37.001Z</time></trkpt><trkpt lat="45.42734656922731" lon="11.982149222919363"><ele>5.0</ele><time>2026-05-02T00:02:38.001Z</time></trkpt><trkpt lat="45.42726587106458" lon="11.981746286500627"><ele>5.0</ele><time>2026-05-02T00:02:39.001Z</time></trkpt><trkpt lat="45.427183002446725" lon="11.981340082874524"><ele>5.0</ele><time>2026-05-02T00:02:40.001Z</time></trkpt><trkpt lat="45.427102091738846" lon="11.980935057619353"><ele>6.0</ele><time>2026-05-02T00:02:41.001Z</time></trkpt><trkpt lat="45.42702258807284" lon="11.980539668195341"><ele>7.0</ele><time>2026-05-02T00:02:42.001Z</time></trkpt><trkpt lat="45.42694201055304" lon="11.980143199346474"><ele>7.0</ele><time>2026-05-02T00:02:43.001Z</time></trkpt><trkpt lat="45.426861170159114" lon="11.979749665310152"><ele>7.0</ele><time>2026-05-02T00:02:44.001Z</time></trkpt><trkpt lat="45.426780970543305" lon="11.979358926045997"><ele>6.5</ele><time>2026-05-02T00:02:45.001Z</time></trkpt><trkpt lat="45.42670021753569" lon="11.978965587103929"><ele>6.0</ele><time>2026-05-02T00:02:46.001Z</time></trkpt><trkpt lat="45.42661941638351" lon="11.978578451034473"><ele>6.5</ele><time>2026-05-02T00:02:47.001Z</time></trkpt><trkpt lat="45.42653731771674" lon="11.978193642223307"><ele>7.0</ele><time>2026-05-02T00:02:48.001Z</time></trkpt><trkpt lat="45.42645729710129" lon="11.977810556489809"><ele>7.0</ele><time>2026-05-02T00:02:49.001Z</time></trkpt><trkpt lat="45.42637722114863" lon="11.977430365984395"><ele>7.0</ele><time>2026-05-02T00:02:50.001Z</time></trkpt><trkpt lat="45.42629923922067" lon="11.977051562231075"><ele>8.0</ele><time>2026-05-02T00:02:51.001Z</time></trkpt><trkpt lat="45.42622320431777" lon="11.976674498168336"><ele>9.0</ele><time>2026-05-02T00:02:52.001Z</time></trkpt><trkpt lat="45.426144022407904" lon="11.976297990074354"><ele>9.0</ele><time>2026-05-02T00:02:53.001Z</time></trkpt><trkpt lat="45.426065391703695" lon="11.975923180528609"><ele>9.0</ele><time>2026-05-02T00:02:54.001Z</time></trkpt><trkpt lat="45.42598762948362" lon="11.975545559690547"><ele>9.0</ele><time>2026-05-02T00:02:55.001Z</time></trkpt><trkpt lat="45.42590852787524" lon="11.975168604267342"><ele>9.0</ele><time>2026-05-02T00:02:56.001Z</time></trkpt><trkpt lat="45.42582944640773" lon="11.974791787650677"><ele>9.0</ele><time>2026-05-02T00:02:57.001Z</time></trkpt><trkpt lat="45.4257514237739" lon="11.974413890194707"><ele>9.0</ele><time>2026-05-02T00:02:58.001Z</time></trkpt><trkpt lat="45.42567516723392" lon="11.974034809209268"><ele>8.5</ele><time>2026-05-02T00:02:59.001Z</time></trkpt><trkpt lat="45.42559895513742" lon="11.973655561695463"><ele>8.0</ele><time>2026-05-02T00:03:00.001Z</time></trkpt><trkpt lat="45.425522978577334" lon="11.973278776375453"><ele>8.0</ele><time>2026-05-02T00:03:01.001Z</time></trkpt><trkpt lat="45.42544489029101" lon="11.972903947803662"><ele>8.0</ele><time>2026-05-02T00:03:02.001Z</time></trkpt><trkpt lat="45.42536895970138" lon="11.97252788153581"><ele>8.0</ele><time>2026-05-02T00:03:03.001Z</time></trkpt><trkpt lat="45.425289613652666" lon="11.972156350685138"><ele>8.0</ele><time>2026-05-02T00:03:04.001Z</time></trkpt><trkpt lat="45.42521264928025" lon="11.971785492577693"><ele>8.0</ele><time>2026-05-02T00:03:05.001Z</time></trkpt><trkpt lat="45.42513682811871" lon="11.971415127697973"><ele>8.0</ele><time>2026-05-02T00:03:06.001Z</time></trkpt><trkpt lat="45.425059749697624" lon="11.971043361808379"><ele>9.0</ele><time>2026-05-02T00:03:07.001Z</time></trkpt><trkpt lat="45.424983838808835" lon="11.970672650209426"><ele>10.0</ele><time>2026-05-02T00:03:08.001Z</time></trkpt><trkpt lat="45.42490726583139" lon="11.970306259173334"><ele>10.0</ele><time>2026-05-02T00:03:09.001Z</time></trkpt><trkpt lat="45.42483281731925" lon="11.969937958849492"><ele>10.0</ele><time>2026-05-02T00:03:10.001Z</time></trkpt><trkpt lat="45.42475710096558" lon="11.969569789028245"><ele>10.0</ele><time>2026-05-02T00:03:11.001Z</time></trkpt><trkpt lat="45.424682546942066" lon="11.969202542976587"><ele>10.0</ele><time>2026-05-02T00:03:12.001Z</time></trkpt><trkpt lat="45.42460681658013" lon="11.96883346509104"><ele>9.5</ele><time>2026-05-02T00:03:13.001Z</time></trkpt><trkpt lat="45.42453324555696" lon="11.96846383905035"><ele>9.0</ele><time>2026-05-02T00:03:14.001Z</time></trkpt><trkpt lat="45.42446259953407" lon="11.968096721536167"><ele>9.0</ele><time>2026-05-02T00:03:15.001Z</time></trkpt><trkpt lat="45.42439080458676" lon="11.96773087274985"><ele>9.0</ele><time>2026-05-02T00:03:16.001Z</time></trkpt><trkpt lat="45.424317860157544" lon="11.967365079097672"><ele>10.0</ele><time>2026-05-02T00:03:17.001Z</time></trkpt><trkpt lat="45.42424425295379" lon="11.967000659875886"><ele>11.0</ele><time>2026-05-02T00:03:18.001Z</time></trkpt><trkpt lat="45.42416995774679" lon="11.96663515303523"><ele>11.5</ele><time>2026-05-02T00:03:19.001Z</time></trkpt><trkpt lat="45.42409556892235" lon="11.966273410558678"><ele>12.0</ele><time>2026-05-02T00:03:20.001Z</time></trkpt><trkpt lat="45.42402115189853" lon="11.96591347029439"><ele>12.0</ele><time>2026-05-02T00:03:21.001Z</time></trkpt><trkpt lat="45.42394811801146" lon="11.96555573958218"><ele>12.0</ele><time>2026-05-02T00:03:22.001Z</time></trkpt><trkpt lat="45.423876512921" lon="11.965198373300968"><ele>10.5</ele><time>2026-05-02T00:03:23.001Z</time></trkpt><trkpt lat="45.423801879185426" lon="11.964844284357891"><ele>9.0</ele><time>2026-05-02T00:03:24.001Z</time></trkpt><trkpt lat="45.42372842575874" lon="11.964487682958222"><ele>8.5</ele><time>2026-05-02T00:03:25.001Z</time></trkpt><trkpt lat="45.423653737574405" lon="11.964133618499435"><ele>8.0</ele><time>2026-05-02T00:03:26.001Z</time></trkpt><trkpt lat="45.42358120795384" lon="11.963777213470248"><ele>8.0</ele><time>2026-05-02T00:03:27.001Z</time></trkpt><trkpt lat="45.423508239413785" lon="11.963423808501146"><ele>8.0</ele><time>2026-05-02T00:03:28.001Z</time></trkpt><trkpt lat="45.42343479572328" lon="11.963070086000718"><ele>5.5</ele><time>2026-05-02T00:03:29.001Z</time></trkpt><trkpt lat="45.423361208754045" lon="11.96271669912091"><ele>3.0</ele><time>2026-05-02T00:03:30.001Z</time></trkpt><trkpt lat="45.42328657895027" lon="11.962363496947109"><ele>3.0</ele><time>2026-05-02T00:03:31.001Z</time></trkpt><trkpt lat="45.42321187057234" lon="11.96200981155893"><ele>3.0</ele><time>2026-05-02T00:03:32.001Z</time></trkpt><trkpt lat="45.42313860959423" lon="11.961655048366477"><ele>5.5</ele><time>2026-05-02T00:03:33.001Z</time></trkpt><trkpt lat="45.42306417094515" lon="11.96130002662465"><ele>8.0</ele><time>2026-05-02T00:03:34.001Z</time></trkpt><trkpt lat="45.42298979747406" lon="11.960944211131512"><ele>9.0</ele><time>2026-05-02T00:03:35.001Z</time></trkpt><trkpt lat="45.42291601502823" lon="11.960585525919669"><ele>10.0</ele><time>2026-05-02T00:03:36Z</time></trkpt><trkpt lat="45.42284105724436" lon="11.960228633941195"><ele>10.0</ele><time>2026-05-02T00:03:37Z</time></trkpt><trkpt lat="45.42276533874139" lon="11.959869001093821"><ele>10.0</ele><time>2026-05-02T00:03:38Z</time></trkpt><trkpt lat="45.42269109602314" lon="11.959511605602252"><ele>10.0</ele><time>2026-05-02T00:03:39Z</time></trkpt><trkpt lat="45.422615413970995" lon="11.959148824124046"><ele>10.0</ele><time>2026-05-02T00:03:40Z</time></trkpt><trkpt lat="45.42253932192504" lon="11.958792589293855"><ele>10.0</ele><time>2026-05-02T00:03:41Z</time></trkpt><trkpt lat="45.422462252254135" lon="11.958436568047665"><ele>10.0</ele><time>2026-05-02T00:03:42Z</time></trkpt><trkpt lat="45.42238570414548" lon="11.95807928181421"><ele>9.5</ele><time>2026-05-02T00:03:43Z</time></trkpt><trkpt lat="45.42231079808282" lon="11.9577189294949"><ele>9.0</ele><time>2026-05-02T00:03:44Z</time></trkpt><trkpt lat="45.42223511324227" lon="11.957364314360992"><ele>8.5</ele><time>2026-05-02T00:03:45Z</time></trkpt><trkpt lat="45.422159036050495" lon="11.957005062767895"><ele>8.0</ele><time>2026-05-02T00:03:46Z</time></trkpt><trkpt lat="45.42208086720802" lon="11.956646245060945"><ele>8.0</ele><time>2026-05-02T00:03:47Z</time></trkpt><trkpt lat="45.422004961095766" lon="11.956287662615381"><ele>8.0</ele><time>2026-05-02T00:03:48Z</time></trkpt><trkpt lat="45.42192931745606" lon="11.955934382769485"><ele>9.5</ele><time>2026-05-02T00:03:49Z</time></trkpt><trkpt lat="45.42185425569752" lon="11.955584039950761"><ele>11.0</ele><time>2026-05-02T00:03:50Z</time></trkpt><trkpt lat="45.42178017771354" lon="11.955233913056109"><ele>11.0</ele><time>2026-05-02T00:03:51Z</time></trkpt><trkpt lat="45.42170995845055" lon="11.954888495599693"><ele>11.0</ele><time>2026-05-02T00:03:52Z</time></trkpt><trkpt lat="45.42164079911364" lon="11.954544936478385"><ele>10.5</ele><time>2026-05-02T00:03:53Z</time></trkpt><trkpt lat="45.42157101803561" lon="11.95420231093548"><ele>10.0</ele><time>2026-05-02T00:03:54Z</time></trkpt><trkpt lat="45.421501448522505" lon="11.953857350715454"><ele>10.0</ele><time>2026-05-02T00:03:55Z</time></trkpt><trkpt lat="45.42143176098903" lon="11.953510125579829"><ele>10.0</ele><time>2026-05-02T00:03:56Z</time></trkpt><trkpt lat="45.42136219721886" lon="11.953160726871186"><ele>11.0</ele><time>2026-05-02T00:03:57Z</time></trkpt><trkpt lat="45.42128854712736" lon="11.952812866316817"><ele>12.0</ele><time>2026-05-02T00:03:58Z</time></trkpt><trkpt lat="45.42121949415999" lon="11.952463454160597"><ele>12.0</ele><time>2026-05-02T00:03:59Z</time></trkpt><trkpt lat="45.42114754608178" lon="11.952114988841764"><ele>12.0</ele><time>2026-05-02T00:04:00Z</time></trkpt><trkpt lat="45.42107780712252" lon="11.951764937672346"><ele>12.5</ele><time>2026-05-02T00:04:01Z</time></trkpt><trkpt lat="45.42100556403002" lon="11.95141414535877"><ele>13.0</ele><time>2026-05-02T00:04:02Z</time></trkpt><trkpt lat="45.42093454441007" lon="11.951064371829304"><ele>12.5</ele><time>2026-05-02T00:04:03Z</time></trkpt><trkpt lat="45.420864075143534" lon="11.950714713626066"><ele>12.0</ele><time>2026-05-02T00:04:04Z</time></trkpt><trkpt lat="45.42079434160554" lon="11.95036778667854"><ele>11.5</ele><time>2026-05-02T00:04:05Z</time></trkpt><trkpt lat="45.420721310853665" lon="11.950020236766044"><ele>11.0</ele><time>2026-05-02T00:04:06Z</time></trkpt><trkpt lat="45.4206495060772" lon="11.949668587883009"><ele>11.0</ele><time>2026-05-02T00:04:07Z</time></trkpt><trkpt lat="45.42057725491616" lon="11.949321681330265"><ele>11.0</ele><time>2026-05-02T00:04:08Z</time></trkpt><trkpt lat="45.42050442977782" lon="11.9489730024378"><ele>11.5</ele><time>2026-05-02T00:04:09Z</time></trkpt><trkpt lat="45.42043073458716" lon="11.94862672103722"><ele>12.0</ele><time>2026-05-02T00:04:10Z</time></trkpt><trkpt lat="45.42035545825937" lon="11.948274968280083"><ele>12.5</ele><time>2026-05-02T00:04:11Z</time></trkpt><trkpt lat="45.42027814883544" lon="11.947922627212868"><ele>13.0</ele><time>2026-05-02T00:04:12Z</time></trkpt><trkpt lat="45.420196299779654" lon="11.94756869795558"><ele>12.0</ele><time>2026-05-02T00:04:13Z</time></trkpt><trkpt lat="45.420114422635606" lon="11.947211466631034"><ele>11.0</ele><time>2026-05-02T00:04:14Z</time></trkpt><trkpt lat="45.42003358312717" lon="11.946851428013593"><ele>10.5</ele><time>2026-05-02T00:04:15.001Z</time></trkpt><trkpt lat="45.419958061453336" lon="11.94649368246655"><ele>10.0</ele><time>2026-05-02T00:04:16.001Z</time></trkpt><trkpt lat="45.41987649159385" lon="11.946129711002362"><ele>10.5</ele><time>2026-05-02T00:04:17.001Z</time></trkpt><trkpt lat="45.419799804637115" lon="11.945760722892683"><ele>11.0</ele><time>2026-05-02T00:04:18.001Z</time></trkpt><trkpt lat="45.419724642544445" lon="11.945387414435839"><ele>10.5</ele><time>2026-05-02T00:04:19.001Z</time></trkpt><trkpt lat="45.41964889528214" lon="11.94501447664476"><ele>10.0</ele><time>2026-05-02T00:04:20.001Z</time></trkpt><trkpt lat="45.4195741119228" lon="11.944644080195188"><ele>10.0</ele><time>2026-05-02T00:04:21.001Z</time></trkpt><trkpt lat="45.41950502650669" lon="11.944269178075755"><ele>10.0</ele><time>2026-05-02T00:04:22.001Z</time></trkpt><trkpt lat="45.41943884160181" lon="11.943896515601486"><ele>9.5</ele><time>2026-05-02T00:04:23.001Z</time></trkpt><trkpt lat="45.41938022204428" lon="11.94353477021459"><ele>9.0</ele><time>2026-05-02T00:04:24.001Z</time></trkpt><trkpt lat="45.419331656321745" lon="11.943179492600004"><ele>8.5</ele><time>2026-05-02T00:04:25.001Z</time></trkpt><trkpt lat="45.41929244562131" lon="11.942813008228619"><ele>8.0</ele><time>2026-05-02T00:04:26.001Z</time></trkpt><trkpt lat="45.41926444955001" lon="11.942443687441964"><ele>8.0</ele><time>2026-05-02T00:04:27.001Z</time></trkpt><trkpt lat="45.41924616143271" lon="11.942069656976267"><ele>8.0</ele><time>2026-05-02T00:04:28.001Z</time></trkpt><trkpt lat="45.419238383629136" lon="11.941693561485712"><ele>7.5</ele><time>2026-05-02T00:04:29.001Z</time></trkpt><trkpt lat="45.41924081743838" lon="11.941313367932851"><ele>7.0</ele><time>2026-05-02T00:04:30.001Z</time></trkpt><trkpt lat="45.41924890735192" lon="11.940933524352186"><ele>6.5</ele><time>2026-05-02T00:04:31.001Z</time></trkpt><trkpt lat="45.41926334600436" lon="11.940556149689462"><ele>6.0</ele><time>2026-05-02T00:04:32.001Z</time></trkpt><trkpt lat="45.41928985776696" lon="11.940180093392112"><ele>6.5</ele><time>2026-05-02T00:04:33.001Z</time></trkpt><trkpt lat="45.41933051705768" lon="11.939806625464225"><ele>7.0</ele><time>2026-05-02T00:04:34.001Z</time></trkpt><trkpt lat="45.4193780870772" lon="11.93942847607581"><ele>7.5</ele><time>2026-05-02T00:04:35.001Z</time></trkpt><trkpt lat="45.41943619966742" lon="11.939056506755003"><ele>8.0</ele><time>2026-05-02T00:04:36.001Z</time></trkpt><trkpt lat="45.41950680568162" lon="11.938684233705018"><ele>9.0</ele><time>2026-05-02T00:04:37.001Z</time></trkpt><trkpt lat="45.41958688773343" lon="11.938316122748716"><ele>10.0</ele><time>2026-05-02T00:04:38.001Z</time></trkpt><trkpt lat="45.41967406007118" lon="11.937951946232458"><ele>10.5</ele><time>2026-05-02T00:04:39.001Z</time></trkpt><trkpt lat="45.41976980340379" lon="11.937602334585227"><ele>11.0</ele><time>2026-05-02T00:04:40.001Z</time></trkpt><trkpt lat="45.419876266826506" lon="11.937252106039963"><ele>9.0</ele><time>2026-05-02T00:04:41.001Z</time></trkpt><trkpt lat="45.419992583037306" lon="11.936907478332524"><ele>7.0</ele><time>2026-05-02T00:04:42.001Z</time></trkpt><trkpt lat="45.42011800961657" lon="11.93656908045429"><ele>7.0</ele><time>2026-05-02T00:04:43.001Z</time></trkpt><trkpt lat="45.420253927662564" lon="11.936235189297175"><ele>7.0</ele><time>2026-05-02T00:04:44.001Z</time></trkpt><trkpt lat="45.42039849731535" lon="11.935905190529503"><ele>10.0</ele><time>2026-05-02T00:04:45.001Z</time></trkpt><trkpt lat="45.4205499554469" lon="11.93558256029786"><ele>13.0</ele><time>2026-05-02T00:04:46.001Z</time></trkpt><trkpt lat="45.42070749238261" lon="11.935268719251438"><ele>12.5</ele><time>2026-05-02T00:04:47.001Z</time></trkpt><trkpt lat="45.42087258469018" lon="11.93496288495892"><ele>12.0</ele><time>2026-05-02T00:04:48.001Z</time></trkpt><trkpt lat="45.42104467799227" lon="11.934661371024838"><ele>12.0</ele><time>2026-05-02T00:04:49.001Z</time></trkpt><trkpt lat="45.42121899099998" lon="11.934360339452475"><ele>12.0</ele><time>2026-05-02T00:04:50.001Z</time></trkpt><trkpt lat="45.421387119113454" lon="11.934053305159624"><ele>10.5</ele><time>2026-05-02T00:04:51.001Z</time></trkpt><trkpt lat="45.421555747806686" lon="11.933744176156557"><ele>9.0</ele><time>2026-05-02T00:04:52.001Z</time></trkpt><trkpt lat="45.421716857365844" lon="11.933430745366293"><ele>8.5</ele><time>2026-05-02T00:04:53.001Z</time></trkpt><trkpt lat="45.421886392243984" lon="11.933119954974615"><ele>8.0</ele><time>2026-05-02T00:04:54.001Z</time></trkpt><trkpt lat="45.422053727295186" lon="11.93280560331869"><ele>8.0</ele><time>2026-05-02T00:04:55.001Z</time></trkpt><trkpt lat="45.42222079114689" lon="11.932491568158865"><ele>8.0</ele><time>2026-05-02T00:04:56.001Z</time></trkpt><trkpt lat="45.42238725740426" lon="11.932172646717904"><ele>8.0</ele><time>2026-05-02T00:04:57.001Z</time></trkpt><trkpt lat="45.42255944082432" lon="11.931855155772084"><ele>8.0</ele><time>2026-05-02T00:04:58.001Z</time></trkpt><trkpt lat="45.42272808424403" lon="11.93153912605778"><ele>9.0</ele><time>2026-05-02T00:04:59.001Z</time></trkpt><trkpt lat="45.42289809473593" lon="11.931217282452986"><ele>10.0</ele><time>2026-05-02T00:05:00.001Z</time></trkpt><trkpt lat="45.42307019681798" lon="11.930897061375621"><ele>10.0</ele><time>2026-05-02T00:05:01.001Z</time></trkpt><trkpt lat="45.423243038200496" lon="11.930574468403483"><ele>10.0</ele><time>2026-05-02T00:05:02.001Z</time></trkpt><trkpt lat="45.42341685786198" lon="11.930249841578595"><ele>10.0</ele><time>2026-05-02T00:05:03.001Z</time></trkpt><trkpt lat="45.42359068600771" lon="11.92992525185323"><ele>10.0</ele><time>2026-05-02T00:05:04.001Z</time></trkpt><trkpt lat="45.42376458720127" lon="11.929598734990025"><ele>9.5</ele><time>2026-05-02T00:05:05.001Z</time></trkpt><trkpt lat="45.42393833762079" lon="11.929272249621583"><ele>9.0</ele><time>2026-05-02T00:05:06.001Z</time></trkpt><trkpt lat="45.424108537506335" lon="11.928945912002487"><ele>9.0</ele><time>2026-05-02T00:05:07.001Z</time></trkpt><trkpt lat="45.424279400461145" lon="11.9286219196796"><ele>9.0</ele><time>2026-05-02T00:05:08.001Z</time></trkpt><trkpt lat="45.424452033974674" lon="11.928295675465789"><ele>8.5</ele><time>2026-05-02T00:05:09.001Z</time></trkpt><trkpt lat="45.424623977068975" lon="11.927975379332112"><ele>8.0</ele><time>2026-05-02T00:05:10.001Z</time></trkpt><trkpt lat="45.42479829509442" lon="11.92765148764435"><ele>10.0</ele><time>2026-05-02T00:05:11.001Z</time></trkpt><trkpt lat="45.42497247368645" lon="11.927327188709404"><ele>12.0</ele><time>2026-05-02T00:05:12.001Z</time></trkpt><trkpt lat="45.42514477252473" lon="11.927004468542654"><ele>12.0</ele><time>2026-05-02T00:05:13.001Z</time></trkpt><trkpt lat="45.42531737592085" lon="11.92668475877346"><ele>12.0</ele><time>2026-05-02T00:05:14.001Z</time></trkpt><trkpt lat="45.42549140211768" lon="11.926361956496416"><ele>12.0</ele><time>2026-05-02T00:05:15.001Z</time></trkpt><trkpt lat="45.42566472487776" lon="11.92603721026779"><ele>12.0</ele><time>2026-05-02T00:05:16.001Z</time></trkpt><trkpt lat="45.42584004305508" lon="11.925714435362456"><ele>12.0</ele><time>2026-05-02T00:05:17.001Z</time></trkpt><trkpt lat="45.42601256258399" lon="11.925392502769155"><ele>12.0</ele><time>2026-05-02T00:05:18.001Z</time></trkpt><trkpt lat="45.426186508037496" lon="11.925071599600964"><ele>10.5</ele><time>2026-05-02T00:05:19.001Z</time></trkpt><trkpt lat="45.42636114287697" lon="11.924743902893841"><ele>9.0</ele><time>2026-05-02T00:05:20.001Z</time></trkpt><trkpt lat="45.426535311203786" lon="11.924417008938025"><ele>11.0</ele><time>2026-05-02T00:05:21.001Z</time></trkpt><trkpt lat="45.42670725860539" lon="11.9240894575832"><ele>13.0</ele><time>2026-05-02T00:05:22.001Z</time></trkpt><trkpt lat="45.42687972954825" lon="11.923759225834004"><ele>13.0</ele><time>2026-05-02T00:05:23.001Z</time></trkpt><trkpt lat="45.427051647126866" lon="11.923429537451808"><ele>13.0</ele><time>2026-05-02T00:05:24.001Z</time></trkpt><trkpt lat="45.42722346204573" lon="11.923104768151736"><ele>11.0</ele><time>2026-05-02T00:05:25.001Z</time></trkpt><trkpt lat="45.42739644202035" lon="11.922779313947968"><ele>9.0</ele><time>2026-05-02T00:05:26.001Z</time></trkpt><trkpt lat="45.427568457660364" lon="11.922457223065836"><ele>9.0</ele><time>2026-05-02T00:05:27.001Z</time></trkpt><trkpt lat="45.42774133244632" lon="11.92213092014788"><ele>9.0</ele><time>2026-05-02T00:05:28.001Z</time></trkpt><trkpt lat="45.42791160593631" lon="11.921799477088925"><ele>9.0</ele><time>2026-05-02T00:05:29.001Z</time></trkpt><trkpt lat="45.428083092395575" lon="11.921479279472058"><ele>9.0</ele><time>2026-05-02T00:05:30.001Z</time></trkpt><trkpt lat="45.42824875891665" lon="11.921173852122035"><ele>9.5</ele><time>2026-05-02T00:05:31.001Z</time></trkpt><trkpt lat="45.42841628060053" lon="11.920864241089024"><ele>10.0</ele><time>2026-05-02T00:05:32.001Z</time></trkpt><trkpt lat="45.42858443452084" lon="11.92054261588636"><ele>10.0</ele><time>2026-05-02T00:05:33.001Z</time></trkpt><trkpt lat="45.4287585253949" lon="11.920222882325048"><ele>10.0</ele><time>2026-05-02T00:05:34.001Z</time></trkpt><trkpt lat="45.428934408510464" lon="11.91989659525549"><ele>9.5</ele><time>2026-05-02T00:05:35.001Z</time></trkpt><trkpt lat="45.429110094075575" lon="11.919567842878825"><ele>9.0</ele><time>2026-05-02T00:05:36.001Z</time></trkpt><trkpt lat="45.42928530796705" lon="11.919235588615615"><ele>8.5</ele><time>2026-05-02T00:05:37.001Z</time></trkpt><trkpt lat="45.42945726184699" lon="11.918900476407524"><ele>8.0</ele><time>2026-05-02T00:05:38.001Z</time></trkpt><trkpt lat="45.429624554142165" lon="11.918561436258098"><ele>8.0</ele><time>2026-05-02T00:05:39.001Z</time></trkpt><trkpt lat="45.42978796991437" lon="11.918216656179535"><ele>8.0</ele><time>2026-05-02T00:05:40.001Z</time></trkpt><trkpt lat="45.42994499997824" lon="11.917868263232581"><ele>8.5</ele><time>2026-05-02T00:05:41.001Z</time></trkpt><trkpt lat="45.430100392159765" lon="11.917514770489253"><ele>9.0</ele><time>2026-05-02T00:05:42Z</time></trkpt><trkpt lat="45.43025341780382" lon="11.917153848538735"><ele>9.0</ele><time>2026-05-02T00:05:43Z</time></trkpt><trkpt lat="45.43040062346206" lon="11.91679034834414"><ele>9.0</ele><time>2026-05-02T00:05:44Z</time></trkpt><trkpt lat="45.430546776023526" lon="11.916433257714266"><ele>9.0</ele><time>2026-05-02T00:05:45Z</time></trkpt><trkpt lat="45.43068911409694" lon="11.916064888070345"><ele>9.0</ele><time>2026-05-02T00:05:46Z</time></trkpt><trkpt lat="45.43083547840984" lon="11.915708196344976"><ele>9.5</ele><time>2026-05-02T00:05:47Z</time></trkpt><trkpt lat="45.43098040005525" lon="11.915346376950778"><ele>10.0</ele><time>2026-05-02T00:05:48Z</time></trkpt><trkpt lat="45.43112685417848" lon="11.914986572131253"><ele>10.5</ele><time>2026-05-02T00:05:49Z</time></trkpt><trkpt lat="45.431272082876916" lon="11.91462596780865"><ele>11.0</ele><time>2026-05-02T00:05:50Z</time></trkpt><trkpt lat="45.43141740537173" lon="11.914263891596102"><ele>10.5</ele><time>2026-05-02T00:05:51Z</time></trkpt><trkpt lat="45.431559691244736" lon="11.913898912176753"><ele>10.0</ele><time>2026-05-02T00:05:52Z</time></trkpt><trkpt lat="45.43170238546742" lon="11.91353004592686"><ele>9.5</ele><time>2026-05-02T00:05:53Z</time></trkpt><trkpt lat="45.43184562214067" lon="11.913161628096773"><ele>9.0</ele><time>2026-05-02T00:05:54Z</time></trkpt><trkpt lat="45.431989988123135" lon="11.912794402293192"><ele>9.5</ele><time>2026-05-02T00:05:55Z</time></trkpt><trkpt lat="45.43213519011826" lon="11.91242837849429"><ele>10.0</ele><time>2026-05-02T00:05:56Z</time></trkpt><trkpt lat="45.43228062584284" lon="11.91206263446099"><ele>9.0</ele><time>2026-05-02T00:05:57Z</time></trkpt><trkpt lat="45.432425785216644" lon="11.9116982403395"><ele>8.0</ele><time>2026-05-02T00:05:58Z</time></trkpt><trkpt lat="45.432573759659306" lon="11.911333228101455"><ele>8.0</ele><time>2026-05-02T00:05:59Z</time></trkpt><trkpt lat="45.432719122729516" lon="11.910965953198524"><ele>8.0</ele><time>2026-05-02T00:06:00Z</time></trkpt><trkpt lat="45.432863664458054" lon="11.91059960703698"><ele>8.5</ele><time>2026-05-02T00:06:01Z</time></trkpt><trkpt lat="45.43300915494326" lon="11.910233903071374"><ele>9.0</ele><time>2026-05-02T00:06:02Z</time></trkpt><trkpt lat="45.43315252906282" lon="11.90986882938613"><ele>9.0</ele><time>2026-05-02T00:06:03Z</time></trkpt><trkpt lat="45.433295088475305" lon="11.909502969497439"><ele>9.0</ele><time>2026-05-02T00:06:04Z</time></trkpt><trkpt lat="45.43343717029623" lon="11.909134420051076"><ele>9.0</ele><time>2026-05-02T00:06:05Z</time></trkpt><trkpt lat="45.43358138909073" lon="11.908769469217408"><ele>9.0</ele><time>2026-05-02T00:06:06Z</time></trkpt><trkpt lat="45.433726269222326" lon="11.908407557589559"><ele>10.5</ele><time>2026-05-02T00:06:07Z</time></trkpt><trkpt lat="45.43386898463952" lon="11.90804722875625"><ele>12.0</ele><time>2026-05-02T00:06:08Z</time></trkpt><trkpt lat="45.434012821970924" lon="11.90768741275616"><ele>12.0</ele><time>2026-05-02T00:06:09Z</time></trkpt><trkpt lat="45.434154467526106" lon="11.907329190253327"><ele>12.0</ele><time>2026-05-02T00:06:10Z</time></trkpt><trkpt lat="45.43429452935677" lon="11.906970912312655"><ele>11.0</ele><time>2026-05-02T00:06:11Z</time></trkpt><trkpt lat="45.434434736390514" lon="11.906614679523665"><ele>10.0</ele><time>2026-05-02T00:06:12Z</time></trkpt><trkpt lat="45.43457379785089" lon="11.906261359012003"><ele>10.0</ele><time>2026-05-02T00:06:13Z</time></trkpt><trkpt lat="45.43471332753034" lon="11.905908256653445"><ele>10.0</ele><time>2026-05-02T00:06:14Z</time></trkpt><trkpt lat="45.43485340678421" lon="11.905555504700217"><ele>10.0</ele><time>2026-05-02T00:06:15Z</time></trkpt><trkpt lat="45.43499314482027" lon="11.90520711780296"><ele>10.0</ele><time>2026-05-02T00:06:16Z</time></trkpt><trkpt lat="45.435132304164156" lon="11.904860333951849"><ele>10.0</ele><time>2026-05-02T00:06:17Z</time></trkpt><trkpt lat="45.43527564931332" lon="11.904512421052479"><ele>10.0</ele><time>2026-05-02T00:06:18Z</time></trkpt><trkpt lat="45.43541738612492" lon="11.904162182262903"><ele>9.0</ele><time>2026-05-02T00:06:19Z</time></trkpt><trkpt lat="45.43555659422985" lon="11.903810744764394"><ele>8.0</ele><time>2026-05-02T00:06:20Z</time></trkpt><trkpt lat="45.43569514528745" lon="11.903461405601316"><ele>10.0</ele><time>2026-05-02T00:06:21Z</time></trkpt><trkpt lat="45.43583355477638" lon="11.903108825966907"><ele>12.0</ele><time>2026-05-02T00:06:22Z</time></trkpt><trkpt lat="45.43597139216909" lon="11.902751644010271"><ele>13.0</ele><time>2026-05-02T00:06:23Z</time></trkpt><trkpt lat="45.436107272039195" lon="11.902391081482737"><ele>14.0</ele><time>2026-05-02T00:06:24Z</time></trkpt><trkpt lat="45.4362388876191" lon="11.90202357686878"><ele>12.5</ele><time>2026-05-02T00:06:25Z</time></trkpt><trkpt lat="45.43636405063384" lon="11.901652580282496"><ele>11.0</ele><time>2026-05-02T00:06:26.001Z</time></trkpt><trkpt lat="45.436489910506594" lon="11.90128109419735"><ele>11.0</ele><time>2026-05-02T00:06:27.001Z</time></trkpt><trkpt lat="45.43661438255774" lon="11.9009059959612"><ele>11.0</ele><time>2026-05-02T00:06:28.001Z</time></trkpt><trkpt lat="45.436741789022214" lon="11.900534083292003"><ele>11.0</ele><time>2026-05-02T00:06:29.001Z</time></trkpt><trkpt lat="45.436869330789285" lon="11.900162759008458"><ele>11.0</ele><time>2026-05-02T00:06:30.001Z</time></trkpt><trkpt lat="45.43699766703613" lon="11.899791192249785"><ele>11.0</ele><time>2026-05-02T00:06:31.001Z</time></trkpt><trkpt lat="45.43712543732104" lon="11.89941932631491"><ele>11.0</ele><time>2026-05-02T00:06:32.001Z</time></trkpt><trkpt lat="45.43724764405803" lon="11.899058018112349"><ele>11.0</ele><time>2026-05-02T00:06:33.001Z</time></trkpt><trkpt lat="45.437374513363324" lon="11.898686636820733"><ele>11.0</ele><time>2026-05-02T00:06:34.001Z</time></trkpt><trkpt lat="45.43750102300657" lon="11.898317708195842"><ele>12.0</ele><time>2026-05-02T00:06:35.001Z</time></trkpt><trkpt lat="45.437625222122655" lon="11.897950586404745"><ele>13.0</ele><time>2026-05-02T00:06:36.001Z</time></trkpt><trkpt lat="45.43775207137714" lon="11.897585807085589"><ele>12.5</ele><time>2026-05-02T00:06:37.001Z</time></trkpt><trkpt lat="45.4378789087693" lon="11.897221886913693"><ele>12.0</ele><time>2026-05-02T00:06:38.001Z</time></trkpt><trkpt lat="45.438006662714535" lon="11.896854995104082"><ele>12.5</ele><time>2026-05-02T00:06:39.001Z</time></trkpt><trkpt lat="45.43813305894081" lon="11.896489240268158"><ele>13.0</ele><time>2026-05-02T00:06:40.001Z</time></trkpt><trkpt lat="45.43825485982436" lon="11.896122594051036"><ele>13.5</ele><time>2026-05-02T00:06:41.001Z</time></trkpt><trkpt lat="45.43838288781305" lon="11.89575427339548"><ele>14.0</ele><time>2026-05-02T00:06:42.001Z</time></trkpt><trkpt lat="45.4385102388498" lon="11.895385069959623"><ele>14.0</ele><time>2026-05-02T00:06:43.001Z</time></trkpt><trkpt lat="45.43863653885908" lon="11.895014119035805"><ele>14.0</ele><time>2026-05-02T00:06:44.001Z</time></trkpt><trkpt lat="45.43876260513511" lon="11.894644989788071"><ele>14.5</ele><time>2026-05-02T00:06:45.001Z</time></trkpt><trkpt lat="45.4388893327731" lon="11.894276680234983"><ele>15.0</ele><time>2026-05-02T00:06:46.001Z</time></trkpt><trkpt lat="45.43901849985961" lon="11.893905207972265"><ele>15.0</ele><time>2026-05-02T00:06:47.001Z</time></trkpt><trkpt lat="45.439145477109" lon="11.893538608332603"><ele>15.0</ele><time>2026-05-02T00:06:48.001Z</time></trkpt><trkpt lat="45.439272590923785" lon="11.893169119159225"><ele>15.0</ele><time>2026-05-02T00:06:49.001Z</time></trkpt><trkpt lat="45.43940073508422" lon="11.892798907760945"><ele>15.0</ele><time>2026-05-02T00:06:50.001Z</time></trkpt><trkpt lat="45.4395260078977" lon="11.892431159438436"><ele>14.0</ele><time>2026-05-02T00:06:51.001Z</time></trkpt><trkpt lat="45.43965008696651" lon="11.892064982612101"><ele>13.0</ele><time>2026-05-02T00:06:52.001Z</time></trkpt><trkpt lat="45.43977489518737" lon="11.891698226272318"><ele>12.5</ele><time>2026-05-02T00:06:53.001Z</time></trkpt><trkpt lat="45.43990054975618" lon="11.891335437336986"><ele>12.0</ele><time>2026-05-02T00:06:54.001Z</time></trkpt><trkpt lat="45.44002444759183" lon="11.890967809192425"><ele>12.5</ele><time>2026-05-02T00:06:55.001Z</time></trkpt><trkpt lat="45.44015026433899" lon="11.890603823357035"><ele>13.0</ele><time>2026-05-02T00:06:56.001Z</time></trkpt><trkpt lat="45.440270872617354" lon="11.890237225026357"><ele>13.5</ele><time>2026-05-02T00:06:57.001Z</time></trkpt><trkpt lat="45.44039047062426" lon="11.889868077008618"><ele>14.0</ele><time>2026-05-02T00:06:58.001Z</time></trkpt><trkpt lat="45.440505624434" lon="11.889490254364377"><ele>13.0</ele><time>2026-05-02T00:06:59.001Z</time></trkpt><trkpt lat="45.44061580534616" lon="11.889107407334594"><ele>12.0</ele><time>2026-05-02T00:07:00.001Z</time></trkpt><trkpt lat="45.44071857394807" lon="11.888723038294382"><ele>12.0</ele><time>2026-05-02T00:07:01.001Z</time></trkpt><trkpt lat="45.44082493637277" lon="11.888334112975942"><ele>12.0</ele><time>2026-05-02T00:07:02.001Z</time></trkpt><trkpt lat="45.440924756676196" lon="11.887940729364567"><ele>12.5</ele><time>2026-05-02T00:07:03.001Z</time></trkpt><trkpt lat="45.44101787476056" lon="11.887540304938092"><ele>13.0</ele><time>2026-05-02T00:07:04.001Z</time></trkpt><trkpt lat="45.44110631250094" lon="11.887138094574317"><ele>12.5</ele><time>2026-05-02T00:07:05.001Z</time></trkpt><trkpt lat="45.441193900028466" lon="11.886729663646308"><ele>12.0</ele><time>2026-05-02T00:07:06.001Z</time></trkpt><trkpt lat="45.44127667520843" lon="11.886319976551885"><ele>9.5</ele><time>2026-05-02T00:07:07.001Z</time></trkpt><trkpt lat="45.44135714545969" lon="11.885906271832539"><ele>7.0</ele><time>2026-05-02T00:07:08.001Z</time></trkpt><trkpt lat="45.441434543508" lon="11.885492910271322"><ele>8.0</ele><time>2026-05-02T00:07:09.001Z</time></trkpt><trkpt lat="45.44150857074207" lon="11.885072799783902"><ele>9.0</ele><time>2026-05-02T00:07:10.001Z</time></trkpt><trkpt lat="45.4415817614984" lon="11.884650328901198"><ele>12.5</ele><time>2026-05-02T00:07:11.001Z</time></trkpt><trkpt lat="45.441658822884456" lon="11.884231325303812"><ele>16.0</ele><time>2026-05-02T00:07:12.001Z</time></trkpt><trkpt lat="45.441740983110854" lon="11.883816493705007"><ele>14.5</ele><time>2026-05-02T00:07:13.001Z</time></trkpt><trkpt lat="45.441822070587165" lon="11.883401667796695"><ele>13.0</ele><time>2026-05-02T00:07:14.001Z</time></trkpt><trkpt lat="45.44189602682967" lon="11.882991634926402"><ele>13.0</ele><time>2026-05-02T00:07:15.001Z</time></trkpt><trkpt lat="45.44196445160767" lon="11.882577512989208"><ele>13.0</ele><time>2026-05-02T00:07:16.001Z</time></trkpt><trkpt lat="45.44202755039668" lon="11.882163566522683"><ele>12.5</ele><time>2026-05-02T00:07:17.001Z</time></trkpt><trkpt lat="45.44209628238863" lon="11.88174997708547"><ele>12.0</ele><time>2026-05-02T00:07:18.001Z</time></trkpt><trkpt lat="45.442167546268706" lon="11.881337356007968"><ele>11.5</ele><time>2026-05-02T00:07:19.001Z</time></trkpt><trkpt lat="45.442239280867604" lon="11.880926727208232"><ele>11.0</ele><time>2026-05-02T00:07:20.001Z</time></trkpt><trkpt lat="45.4423141371806" lon="11.880520651710748"><ele>11.0</ele><time>2026-05-02T00:07:21.001Z</time></trkpt><trkpt lat="45.44238899750458" lon="11.880121143852252"><ele>11.0</ele><time>2026-05-02T00:07:22.001Z</time></trkpt><trkpt lat="45.4424664929431" lon="11.879720420492003"><ele>11.0</ele><time>2026-05-02T00:07:23.001Z</time></trkpt><trkpt lat="45.44253945142074" lon="11.879323646599037"><ele>11.0</ele><time>2026-05-02T00:07:24.001Z</time></trkpt><trkpt lat="45.44261374949331" lon="11.878928794554707"><ele>11.0</ele><time>2026-05-02T00:07:25.001Z</time></trkpt><trkpt lat="45.44268374471889" lon="11.87853533200346"><ele>11.0</ele><time>2026-05-02T00:07:26.001Z</time></trkpt><trkpt lat="45.44275818435339" lon="11.878147834986159"><ele>11.0</ele><time>2026-05-02T00:07:27.001Z</time></trkpt><trkpt lat="45.44283272454792" lon="11.87776227213084"><ele>11.0</ele><time>2026-05-02T00:07:28.001Z</time></trkpt><trkpt lat="45.442917660850014" lon="11.877376803132565"><ele>11.5</ele><time>2026-05-02T00:07:29.001Z</time></trkpt><trkpt lat="45.4430036277388" lon="11.87699187959079"><ele>12.0</ele><time>2026-05-02T00:07:30.001Z</time></trkpt><trkpt lat="45.44308831027406" lon="11.876604611312532"><ele>12.0</ele><time>2026-05-02T00:07:31.001Z</time></trkpt><trkpt lat="45.44316892649142" lon="11.876215489862258"><ele>12.0</ele><time>2026-05-02T00:07:32.001Z</time></trkpt><trkpt lat="45.44324397409932" lon="11.87582455505938"><ele>12.0</ele><time>2026-05-02T00:07:33.001Z</time></trkpt><trkpt lat="45.44331394249108" lon="11.875432316208496"><ele>12.0</ele><time>2026-05-02T00:07:34.001Z</time></trkpt><trkpt lat="45.44338681286412" lon="11.875034908103101"><ele>12.0</ele><time>2026-05-02T00:07:35.001Z</time></trkpt><trkpt lat="45.443458415446194" lon="11.874633670709843"><ele>12.0</ele><time>2026-05-02T00:07:36.001Z</time></trkpt><trkpt lat="45.44353370664179" lon="11.874233654457328"><ele>12.5</ele><time>2026-05-02T00:07:37.001Z</time></trkpt><trkpt lat="45.44361265393452" lon="11.873838246582599"><ele>13.0</ele><time>2026-05-02T00:07:38.001Z</time></trkpt><trkpt lat="45.44368974424764" lon="11.873435692604614"><ele>13.0</ele><time>2026-05-02T00:07:39.001Z</time></trkpt><trkpt lat="45.44376530119122" lon="11.87303365461955"><ele>13.0</ele><time>2026-05-02T00:07:40.001Z</time></trkpt><trkpt lat="45.4438410405573" lon="11.872632802519478"><ele>13.0</ele><time>2026-05-02T00:07:41.001Z</time></trkpt><trkpt lat="45.44391787888087" lon="11.872223297240225"><ele>13.0</ele><time>2026-05-02T00:07:42.001Z</time></trkpt><trkpt lat="45.443993601520134" lon="11.871816992549638"><ele>14.5</ele><time>2026-05-02T00:07:43.001Z</time></trkpt><trkpt lat="45.44406950595819" lon="11.87141529554534"><ele>16.0</ele><time>2026-05-02T00:07:44.001Z</time></trkpt><trkpt lat="45.444147682113396" lon="11.87101034752532"><ele>15.5</ele><time>2026-05-02T00:07:45.001Z</time></trkpt><trkpt lat="45.444224594207085" lon="11.870606121327544"><ele>15.0</ele><time>2026-05-02T00:07:46.001Z</time></trkpt><trkpt lat="45.44430018533577" lon="11.870204987743731"><ele>13.0</ele><time>2026-05-02T00:07:47.001Z</time></trkpt><trkpt lat="45.444374678118685" lon="11.869805037412522"><ele>11.0</ele><time>2026-05-02T00:07:48Z</time></trkpt><trkpt lat="45.4444494363323" lon="11.869408785482197"><ele>11.5</ele><time>2026-05-02T00:07:49Z</time></trkpt><trkpt lat="45.44452415065479" lon="11.869014485427925"><ele>12.0</ele><time>2026-05-02T00:07:50Z</time></trkpt><trkpt lat="45.44459895946536" lon="11.868618013241882"><ele>13.0</ele><time>2026-05-02T00:07:51Z</time></trkpt><trkpt lat="45.44467598514728" lon="11.868220825324634"><ele>14.0</ele><time>2026-05-02T00:07:52Z</time></trkpt><trkpt lat="45.44475300425267" lon="11.867823408735335"><ele>13.5</ele><time>2026-05-02T00:07:53Z</time></trkpt><trkpt lat="45.444825039182525" lon="11.867447700481383"><ele>13.0</ele><time>2026-05-02T00:07:54Z</time></trkpt><trkpt lat="45.444896296617095" lon="11.867068113545928"><ele>12.5</ele><time>2026-05-02T00:07:55Z</time></trkpt><trkpt lat="45.444970719553176" lon="11.866676369519212"><ele>12.0</ele><time>2026-05-02T00:07:56Z</time></trkpt><trkpt lat="45.44504411328424" lon="11.866280232187062"><ele>13.0</ele><time>2026-05-02T00:07:57Z</time></trkpt><trkpt lat="45.445115952619716" lon="11.865879927688498"><ele>14.0</ele><time>2026-05-02T00:07:58Z</time></trkpt><trkpt lat="45.44518712017428" lon="11.865475457446534"><ele>14.5</ele><time>2026-05-02T00:07:59Z</time></trkpt><trkpt lat="45.44526058291861" lon="11.865062126217634"><ele>15.0</ele><time>2026-05-02T00:08:00Z</time></trkpt><trkpt lat="45.44533125001086" lon="11.864647967648965"><ele>15.5</ele><time>2026-05-02T00:08:01Z</time></trkpt><trkpt lat="45.44540352646864" lon="11.864232817551137"><ele>16.0</ele><time>2026-05-02T00:08:02Z</time></trkpt><trkpt lat="45.44547810620172" lon="11.863816762753643"><ele>15.5</ele><time>2026-05-02T00:08:03Z</time></trkpt><trkpt lat="45.445554213565586" lon="11.863402293018185"><ele>15.0</ele><time>2026-05-02T00:08:04Z</time></trkpt><trkpt lat="45.44563136260272" lon="11.862985542177585"><ele>14.0</ele><time>2026-05-02T00:08:05Z</time></trkpt><trkpt lat="45.44570779700854" lon="11.86257143793286"><ele>13.0</ele><time>2026-05-02T00:08:06Z</time></trkpt><trkpt lat="45.44578251972962" lon="11.862162843592682"><ele>13.5</ele><time>2026-05-02T00:08:07Z</time></trkpt><trkpt lat="45.44585918534852" lon="11.861756869639308"><ele>14.0</ele><time>2026-05-02T00:08:08Z</time></trkpt><trkpt lat="45.44593931605847" lon="11.861351160832001"><ele>14.5</ele><time>2026-05-02T00:08:09Z</time></trkpt><trkpt lat="45.446024114732985" lon="11.8609469917202"><ele>15.0</ele><time>2026-05-02T00:08:10Z</time></trkpt><trkpt lat="45.446112042007115" lon="11.860544113790588"><ele>15.0</ele><time>2026-05-02T00:08:11Z</time></trkpt><trkpt lat="45.44619922667187" lon="11.860141822358674"><ele>15.0</ele><time>2026-05-02T00:08:12Z</time></trkpt><trkpt lat="45.446284717748846" lon="11.859734841186343"><ele>13.0</ele><time>2026-05-02T00:08:13Z</time></trkpt><trkpt lat="45.44636334196721" lon="11.859326589117826"><ele>11.0</ele><time>2026-05-02T00:08:14Z</time></trkpt><trkpt lat="45.446438882570895" lon="11.858914526379095"><ele>11.0</ele><time>2026-05-02T00:08:15Z</time></trkpt><trkpt lat="45.44651361029422" lon="11.858501405813756"><ele>11.0</ele><time>2026-05-02T00:08:16Z</time></trkpt><trkpt lat="45.44659091808776" lon="11.858091675455547"><ele>11.5</ele><time>2026-05-02T00:08:17Z</time></trkpt><trkpt lat="45.4466702008254" lon="11.857677431331675"><ele>12.0</ele><time>2026-05-02T00:08:18Z</time></trkpt><trkpt lat="45.446748430440806" lon="11.857264969035784"><ele>12.0</ele><time>2026-05-02T00:08:19Z</time></trkpt><trkpt lat="45.44682804456967" lon="11.856853099915911"><ele>12.0</ele><time>2026-05-02T00:08:20Z</time></trkpt><trkpt lat="45.44690341079817" lon="11.856449190542605"><ele>11.5</ele><time>2026-05-02T00:08:21Z</time></trkpt><trkpt lat="45.446977355848816" lon="11.85604976792363"><ele>11.0</ele><time>2026-05-02T00:08:22Z</time></trkpt><trkpt lat="45.44705123236428" lon="11.855647932452746"><ele>11.5</ele><time>2026-05-02T00:08:23Z</time></trkpt><trkpt lat="45.44712569055415" lon="11.85525043037474"><ele>12.0</ele><time>2026-05-02T00:08:24Z</time></trkpt><trkpt lat="45.44719989279339" lon="11.854854353011458"><ele>12.0</ele><time>2026-05-02T00:08:25Z</time></trkpt><trkpt lat="45.44727378390791" lon="11.854456864249315"><ele>12.0</ele><time>2026-05-02T00:08:26Z</time></trkpt><trkpt lat="45.44734695760997" lon="11.854059756453713"><ele>12.5</ele><time>2026-05-02T00:08:27Z</time></trkpt><trkpt lat="45.44741951153561" lon="11.853664004606904"><ele>13.0</ele><time>2026-05-02T00:08:28Z</time></trkpt><trkpt lat="45.44749460996627" lon="11.853262265899213"><ele>13.0</ele><time>2026-05-02T00:08:29Z</time></trkpt><trkpt lat="45.4475696654511" lon="11.852862958872247"><ele>13.0</ele><time>2026-05-02T00:08:30Z</time></trkpt><trkpt lat="45.44764604044336" lon="11.852463872007876"><ele>13.0</ele><time>2026-05-02T00:08:31Z</time></trkpt><trkpt lat="45.44772032056786" lon="11.852064797396503"><ele>13.0</ele><time>2026-05-02T00:08:32Z</time></trkpt><trkpt lat="45.447796936721765" lon="11.851662123510172"><ele>12.5</ele><time>2026-05-02T00:08:33Z</time></trkpt><trkpt lat="45.447870630702425" lon="11.85126240677273"><ele>12.0</ele><time>2026-05-02T00:08:34Z</time></trkpt><trkpt lat="45.44794393205144" lon="11.850864528272739"><ele>13.0</ele><time>2026-05-02T00:08:35Z</time></trkpt><trkpt lat="45.448016048780374" lon="11.850467067099325"><ele>14.0</ele><time>2026-05-02T00:08:36Z</time></trkpt><trkpt lat="45.448089568818645" lon="11.85006822465967"><ele>14.5</ele><time>2026-05-02T00:08:37Z</time></trkpt><trkpt lat="45.44816038805062" lon="11.849673018693114"><ele>15.0</ele><time>2026-05-02T00:08:38Z</time></trkpt><trkpt lat="45.44822999333158" lon="11.849273004158043"><ele>15.0</ele><time>2026-05-02T00:08:39Z</time></trkpt><trkpt lat="45.44829217759821" lon="11.848875464031519"><ele>15.0</ele><time>2026-05-02T00:08:40Z</time></trkpt><trkpt lat="45.44835113596051" lon="11.848475667159123"><ele>14.5</ele><time>2026-05-02T00:08:41Z</time></trkpt><trkpt lat="45.44840766337273" lon="11.84807496317566"><ele>14.0</ele><time>2026-05-02T00:08:42Z</time></trkpt><trkpt lat="45.44846220754842" lon="11.847672647050622"><ele>14.0</ele><time>2026-05-02T00:08:43.001Z</time></trkpt><trkpt lat="45.44851565627958" lon="11.847270227767785"><ele>14.0</ele><time>2026-05-02T00:08:44.001Z</time></trkpt><trkpt lat="45.44856842023839" lon="11.846867180109049"><ele>14.0</ele><time>2026-05-02T00:08:45.001Z</time></trkpt><trkpt lat="45.44862195241472" lon="11.846462630092388"><ele>14.0</ele><time>2026-05-02T00:08:46.001Z</time></trkpt><trkpt lat="45.4486765319289" lon="11.846055775318508"><ele>14.5</ele><time>2026-05-02T00:08:47.001Z</time></trkpt><trkpt lat="45.44873117616088" lon="11.845657575454608"><ele>15.0</ele><time>2026-05-02T00:08:48.001Z</time></trkpt><trkpt lat="45.44878613935139" lon="11.845254321051513"><ele>16.0</ele><time>2026-05-02T00:08:49.001Z</time></trkpt><trkpt lat="45.44883973865923" lon="11.8448486555033"><ele>17.0</ele><time>2026-05-02T00:08:50.001Z</time></trkpt><trkpt lat="45.44889223100674" lon="11.844454172169854"><ele>16.0</ele><time>2026-05-02T00:08:51.001Z</time></trkpt><trkpt lat="45.44894531538202" lon="11.844050930078042"><ele>15.0</ele><time>2026-05-02T00:08:52.001Z</time></trkpt><trkpt lat="45.448999845320685" lon="11.843649609863911"><ele>14.5</ele><time>2026-05-02T00:08:53.001Z</time></trkpt><trkpt lat="45.44905392335786" lon="11.843250206895982"><ele>14.0</ele><time>2026-05-02T00:08:54.001Z</time></trkpt><trkpt lat="45.44910471782242" lon="11.842844190309593"><ele>14.0</ele><time>2026-05-02T00:08:55.001Z</time></trkpt><trkpt lat="45.449156813248365" lon="11.842439882112414"><ele>14.0</ele><time>2026-05-02T00:08:56.001Z</time></trkpt><trkpt lat="45.44920641033324" lon="11.84203534900631"><ele>13.5</ele><time>2026-05-02T00:08:57.001Z</time></trkpt><trkpt lat="45.44925492964972" lon="11.84162972568473"><ele>13.0</ele><time>2026-05-02T00:08:58.001Z</time></trkpt><trkpt lat="45.449306148421066" lon="11.841225408783137"><ele>13.5</ele><time>2026-05-02T00:08:59.001Z</time></trkpt><trkpt lat="45.449358894441126" lon="11.840817330955316"><ele>14.0</ele><time>2026-05-02T00:09:00.001Z</time></trkpt><trkpt lat="45.44941650165909" lon="11.840413004654861"><ele>14.0</ele><time>2026-05-02T00:09:01.001Z</time></trkpt><trkpt lat="45.449471706724786" lon="11.840005896551924"><ele>14.0</ele><time>2026-05-02T00:09:02.001Z</time></trkpt><trkpt lat="45.449525296446055" lon="11.839604855090831"><ele>13.5</ele><time>2026-05-02T00:09:03.001Z</time></trkpt><trkpt lat="45.44958247209954" lon="11.839203049724947"><ele>13.0</ele><time>2026-05-02T00:09:04.001Z</time></trkpt><trkpt lat="45.44964338468198" lon="11.838803081405677"><ele>13.0</ele><time>2026-05-02T00:09:05.001Z</time></trkpt><trkpt lat="45.449704963177986" lon="11.83840019199127"><ele>13.0</ele><time>2026-05-02T00:09:06.001Z</time></trkpt><trkpt lat="45.44977244131919" lon="11.838000721907042"><ele>14.0</ele><time>2026-05-02T00:09:07.001Z</time></trkpt><trkpt lat="45.44983983885372" lon="11.837599665236954"><ele>15.0</ele><time>2026-05-02T00:09:08.001Z</time></trkpt><trkpt lat="45.44990483705937" lon="11.837197321300087"><ele>14.5</ele><time>2026-05-02T00:09:09.001Z</time></trkpt><trkpt lat="45.449960937785576" lon="11.836791246077222"><ele>14.0</ele><time>2026-05-02T00:09:10.001Z</time></trkpt><trkpt lat="45.45000954507531" lon="11.836385271286373"><ele>14.0</ele><time>2026-05-02T00:09:11.001Z</time></trkpt><trkpt lat="45.4500620083055" lon="11.835972804399576"><ele>14.0</ele><time>2026-05-02T00:09:12.001Z</time></trkpt><trkpt lat="45.45011888494548" lon="11.835563709279802"><ele>14.0</ele><time>2026-05-02T00:09:13.001Z</time></trkpt><trkpt lat="45.450178040209444" lon="11.83515354932223"><ele>14.0</ele><time>2026-05-02T00:09:14.001Z</time></trkpt><trkpt lat="45.45023689915181" lon="11.834744852946814"><ele>15.0</ele><time>2026-05-02T00:09:15.001Z</time></trkpt><trkpt lat="45.45029510779226" lon="11.83433577232904"><ele>16.0</ele><time>2026-05-02T00:09:16.001Z</time></trkpt><trkpt lat="45.45035651166025" lon="11.833922402899669"><ele>16.5</ele><time>2026-05-02T00:09:17.001Z</time></trkpt><trkpt lat="45.450413681360686" lon="11.833510480122678"><ele>17.0</ele><time>2026-05-02T00:09:18.001Z</time></trkpt><trkpt lat="45.450464872490336" lon="11.833099672625638"><ele>17.0</ele><time>2026-05-02T00:09:19.001Z</time></trkpt><trkpt lat="45.45051718831993" lon="11.832690667109862"><ele>17.0</ele><time>2026-05-02T00:09:20.001Z</time></trkpt><trkpt lat="45.45057184866709" lon="11.832282245520906"><ele>17.0</ele><time>2026-05-02T00:09:21.001Z</time></trkpt><trkpt lat="45.45062692489372" lon="11.831872289475317"><ele>17.0</ele><time>2026-05-02T00:09:22.001Z</time></trkpt><trkpt lat="45.45068092066979" lon="11.831464980438442"><ele>18.0</ele><time>2026-05-02T00:09:23.001Z</time></trkpt><trkpt lat="45.45073426181668" lon="11.831062410952986"><ele>19.0</ele><time>2026-05-02T00:09:24.001Z</time></trkpt><trkpt lat="45.45078803209568" lon="11.830656452596191"><ele>19.0</ele><time>2026-05-02T00:09:25.001Z</time></trkpt><trkpt lat="45.45084193169039" lon="11.830247592339203"><ele>19.0</ele><time>2026-05-02T00:09:26.001Z</time></trkpt><trkpt lat="45.45089691970773" lon="11.829842726380356"><ele>18.5</ele><time>2026-05-02T00:09:27.001Z</time></trkpt><trkpt lat="45.45094898057566" lon="11.829454560694343"><ele>18.0</ele><time>2026-05-02T00:09:28.001Z</time></trkpt><trkpt lat="45.45100243453965" lon="11.82906374527824"><ele>17.5</ele><time>2026-05-02T00:09:29.001Z</time></trkpt><trkpt lat="45.45105554320496" lon="11.8286662594487"><ele>17.0</ele><time>2026-05-02T00:09:30.001Z</time></trkpt><trkpt lat="45.451113377691534" lon="11.828266534649176"><ele>16.5</ele><time>2026-05-02T00:09:31.001Z</time></trkpt><trkpt lat="45.451173654505" lon="11.82785671210603"><ele>16.0</ele><time>2026-05-02T00:09:32.001Z</time></trkpt><trkpt lat="45.4512374456864" lon="11.827448302809964"><ele>16.5</ele><time>2026-05-02T00:09:33.001Z</time></trkpt><trkpt lat="45.45130479553137" lon="11.827037030496085"><ele>17.0</ele><time>2026-05-02T00:09:34.001Z</time></trkpt><trkpt lat="45.45136958902157" lon="11.826625134347019"><ele>17.0</ele><time>2026-05-02T00:09:35.001Z</time></trkpt><trkpt lat="45.45143443294127" lon="11.826209229344311"><ele>17.0</ele><time>2026-05-02T00:09:36.001Z</time></trkpt><trkpt lat="45.451495729656756" lon="11.825791692098903"><ele>17.0</ele><time>2026-05-02T00:09:37.001Z</time></trkpt><trkpt lat="45.45155035280809" lon="11.825377586650323"><ele>17.0</ele><time>2026-05-02T00:09:38.001Z</time></trkpt><trkpt lat="45.451606466123515" lon="11.824957624216546"><ele>16.5</ele><time>2026-05-02T00:09:39.001Z</time></trkpt><trkpt lat="45.45166401305835" lon="11.82454221691056"><ele>16.0</ele><time>2026-05-02T00:09:40.001Z</time></trkpt><trkpt lat="45.45172241874525" lon="11.824136486386276"><ele>15.5</ele><time>2026-05-02T00:09:41.001Z</time></trkpt><trkpt lat="45.451777038148684" lon="11.823730885506345"><ele>15.0</ele><time>2026-05-02T00:09:42.001Z</time></trkpt><trkpt lat="45.451828148668504" lon="11.823329565765508"><ele>14.0</ele><time>2026-05-02T00:09:43.001Z</time></trkpt><trkpt lat="45.451879635178926" lon="11.822926267566624"><ele>13.0</ele><time>2026-05-02T00:09:44.001Z</time></trkpt><trkpt lat="45.451930854261846" lon="11.822526993120762"><ele>13.0</ele><time>2026-05-02T00:09:45.001Z</time></trkpt><trkpt lat="45.451984625082936" lon="11.822128593828431"><ele>13.0</ele><time>2026-05-02T00:09:46.001Z</time></trkpt><trkpt lat="45.452038515062505" lon="11.821720441083839"><ele>13.0</ele><time>2026-05-02T00:09:47.001Z</time></trkpt><trkpt lat="45.452092739771984" lon="11.821315485873741"><ele>13.0</ele><time>2026-05-02T00:09:48.001Z</time></trkpt><trkpt lat="45.452146102918775" lon="11.820913174696665"><ele>13.0</ele><time>2026-05-02T00:09:49.001Z</time></trkpt><trkpt lat="45.45220012559541" lon="11.820510367528195"><ele>13.0</ele><time>2026-05-02T00:09:50.001Z</time></trkpt><trkpt lat="45.452254824455345" lon="11.820104567547688"><ele>14.0</ele><time>2026-05-02T00:09:51.001Z</time></trkpt><trkpt lat="45.45230909428417" lon="11.81969712320766"><ele>15.0</ele><time>2026-05-02T00:09:52.001Z</time></trkpt><trkpt lat="45.45236483920393" lon="11.819288960582329"><ele>15.0</ele><time>2026-05-02T00:09:53.001Z</time></trkpt><trkpt lat="45.45242051240162" lon="11.818882541636894"><ele>15.0</ele><time>2026-05-02T00:09:54Z</time></trkpt><trkpt lat="45.4524774124523" lon="11.818478659105931"><ele>16.5</ele><time>2026-05-02T00:09:55Z</time></trkpt><trkpt lat="45.45253476703884" lon="11.818067422591866"><ele>18.0</ele><time>2026-05-02T00:09:56Z</time></trkpt><trkpt lat="45.45258938323237" lon="11.817655636024577"><ele>17.0</ele><time>2026-05-02T00:09:57Z</time></trkpt><trkpt lat="45.45264442686946" lon="11.817245109566906"><ele>16.0</ele><time>2026-05-02T00:09:58Z</time></trkpt><trkpt lat="45.45269770731342" lon="11.816838862563705"><ele>16.0</ele><time>2026-05-02T00:09:59Z</time></trkpt><trkpt lat="45.4527538738334" lon="11.816432285275317"><ele>16.0</ele><time>2026-05-02T00:10:00Z</time></trkpt><trkpt lat="45.45280915083748" lon="11.81602385456571"><ele>15.5</ele><time>2026-05-02T00:10:01Z</time></trkpt><trkpt lat="45.45286110254635" lon="11.81561333731763"><ele>15.0</ele><time>2026-05-02T00:10:02Z</time></trkpt><trkpt lat="45.45291190744313" lon="11.815209958423912"><ele>16.0</ele><time>2026-05-02T00:10:03Z</time></trkpt><trkpt lat="45.45296574836801" lon="11.814804113611276"><ele>17.0</ele><time>2026-05-02T00:10:04Z</time></trkpt><trkpt lat="45.45302007136782" lon="11.814398670418866"><ele>17.0</ele><time>2026-05-02T00:10:05Z</time></trkpt><trkpt lat="45.453070659691186" lon="11.813988165511356"><ele>17.0</ele><time>2026-05-02T00:10:06Z</time></trkpt><trkpt lat="45.45313208179572" lon="11.813584643588452"><ele>17.0</ele><time>2026-05-02T00:10:07Z</time></trkpt><trkpt lat="45.45318995289616" lon="11.813180393812864"><ele>17.0</ele><time>2026-05-02T00:10:08Z</time></trkpt><trkpt lat="45.45325090267353" lon="11.812772144852415"><ele>16.5</ele><time>2026-05-02T00:10:09Z</time></trkpt><trkpt lat="45.45331058499414" lon="11.812361061288241"><ele>16.0</ele><time>2026-05-02T00:10:10Z</time></trkpt><trkpt lat="45.4533640897496" lon="11.811952218599442"><ele>16.0</ele><time>2026-05-02T00:10:11Z</time></trkpt><trkpt lat="45.45341835637198" lon="11.811547305092544"><ele>16.0</ele><time>2026-05-02T00:10:12Z</time></trkpt><trkpt lat="45.453472800909324" lon="11.811141155911725"><ele>15.5</ele><time>2026-05-02T00:10:13Z</time></trkpt><trkpt lat="45.45352652645329" lon="11.810732894385138"><ele>15.0</ele><time>2026-05-02T00:10:14Z</time></trkpt><trkpt lat="45.453578792951" lon="11.810324303811038"><ele>15.0</ele><time>2026-05-02T00:10:15Z</time></trkpt><trkpt lat="45.45362807277938" lon="11.809920151321846"><ele>15.0</ele><time>2026-05-02T00:10:16Z</time></trkpt><trkpt lat="45.45367783154751" lon="11.809514675879248"><ele>15.5</ele><time>2026-05-02T00:10:17Z</time></trkpt><trkpt lat="45.45372725649154" lon="11.809108485092024"><ele>16.0</ele><time>2026-05-02T00:10:18Z</time></trkpt><trkpt lat="45.45378066087801" lon="11.808706294616853"><ele>15.5</ele><time>2026-05-02T00:10:19Z</time></trkpt><trkpt lat="45.45383325099311" lon="11.808304769017633"><ele>15.0</ele><time>2026-05-02T00:10:20Z</time></trkpt><trkpt lat="45.45388421806514" lon="11.807901648613862"><ele>15.0</ele><time>2026-05-02T00:10:21Z</time></trkpt><trkpt lat="45.45393942508495" lon="11.80750304818426"><ele>15.0</ele><time>2026-05-02T00:10:22Z</time></trkpt><trkpt lat="45.45399455976996" lon="11.807106413757175"><ele>15.5</ele><time>2026-05-02T00:10:23Z</time></trkpt><trkpt lat="45.454048059982036" lon="11.806708721480248"><ele>16.0</ele><time>2026-05-02T00:10:24Z</time></trkpt><trkpt lat="45.45410243437416" lon="11.806313915181823"><ele>16.0</ele><time>2026-05-02T00:10:25Z</time></trkpt><trkpt lat="45.45415768167342" lon="11.805919265051257"><ele>16.0</ele><time>2026-05-02T00:10:26Z</time></trkpt><trkpt lat="45.454218727070824" lon="11.805532503878819"><ele>16.0</ele><time>2026-05-02T00:10:27Z</time></trkpt><trkpt lat="45.45428642594401" lon="11.805144681100508"><ele>16.0</ele><time>2026-05-02T00:10:28Z</time></trkpt><trkpt lat="45.454347447666265" lon="11.804752219572292"><ele>16.0</ele><time>2026-05-02T00:10:29Z</time></trkpt><trkpt lat="45.454405263878435" lon="11.804358950118948"><ele>16.0</ele><time>2026-05-02T00:10:30Z</time></trkpt><trkpt lat="45.45445827287886" lon="11.803963058155846"><ele>16.5</ele><time>2026-05-02T00:10:31Z</time></trkpt><trkpt lat="45.454508157489876" lon="11.803567345139987"><ele>17.0</ele><time>2026-05-02T00:10:32Z</time></trkpt><trkpt lat="45.454561588909705" lon="11.803168869150445"><ele>17.0</ele><time>2026-05-02T00:10:33Z</time></trkpt><trkpt lat="45.45461724079103" lon="11.802767955429406"><ele>17.0</ele><time>2026-05-02T00:10:34Z</time></trkpt><trkpt lat="45.45466974595451" lon="11.80236447642838"><ele>17.0</ele><time>2026-05-02T00:10:35Z</time></trkpt><trkpt lat="45.45472503835392" lon="11.801962749987462"><ele>17.0</ele><time>2026-05-02T00:10:36Z</time></trkpt><trkpt lat="45.45478178073293" lon="11.801558567295215"><ele>17.0</ele><time>2026-05-02T00:10:37Z</time></trkpt><trkpt lat="45.45483796771675" lon="11.801152472810159"><ele>17.0</ele><time>2026-05-02T00:10:38Z</time></trkpt><trkpt lat="45.4548925619574" lon="11.800744121868675"><ele>16.5</ele><time>2026-05-02T00:10:39Z</time></trkpt><trkpt lat="45.45494976279986" lon="11.80033764904173"><ele>16.0</ele><time>2026-05-02T00:10:40Z</time></trkpt><trkpt lat="45.45500443936556" lon="11.799925810372006"><ele>16.0</ele><time>2026-05-02T00:10:41Z</time></trkpt><trkpt lat="45.4550576433264" lon="11.799513573355101"><ele>16.0</ele><time>2026-05-02T00:10:42Z</time></trkpt><trkpt lat="45.45510847167142" lon="11.799107256902566"><ele>16.5</ele><time>2026-05-02T00:10:43Z</time></trkpt><trkpt lat="45.455161667634066" lon="11.798694853413298"><ele>17.0</ele><time>2026-05-02T00:10:44Z</time></trkpt><trkpt lat="45.455219423608895" lon="11.798285864241143"><ele>17.0</ele><time>2026-05-02T00:10:45Z</time></trkpt><trkpt lat="45.45527918232676" lon="11.79787626041725"><ele>17.0</ele><time>2026-05-02T00:10:46Z</time></trkpt><trkpt lat="45.455337340334545" lon="11.797467963087161"><ele>17.0</ele><time>2026-05-02T00:10:47Z</time></trkpt><trkpt lat="45.45539517216004" lon="11.797058952765013"><ele>17.0</ele><time>2026-05-02T00:10:48Z</time></trkpt><trkpt lat="45.455452094234836" lon="11.79664829642636"><ele>17.0</ele><time>2026-05-02T00:10:49Z</time></trkpt><trkpt lat="45.45550863903844" lon="11.796238556346257"><ele>17.0</ele><time>2026-05-02T00:10:50Z</time></trkpt><trkpt lat="45.45556430718892" lon="11.795827132024533"><ele>16.0</ele><time>2026-05-02T00:10:51Z</time></trkpt><trkpt lat="45.45561927860467" lon="11.79541829067802"><ele>15.0</ele><time>2026-05-02T00:10:52Z</time></trkpt><trkpt lat="45.45567314276433" lon="11.795009597475268"><ele>15.0</ele><time>2026-05-02T00:10:53Z</time></trkpt><trkpt lat="45.455727704859854" lon="11.794598629919971"><ele>15.0</ele><time>2026-05-02T00:10:54Z</time></trkpt><trkpt lat="45.4557834248892" lon="11.794188305465312"><ele>15.0</ele><time>2026-05-02T00:10:55Z</time></trkpt><trkpt lat="45.455842659833465" lon="11.793778334377816"><ele>15.0</ele><time>2026-05-02T00:10:56Z</time></trkpt><trkpt lat="45.455905594267506" lon="11.793366866180097"><ele>15.0</ele><time>2026-05-02T00:10:57Z</time></trkpt><trkpt lat="45.455976672781624" lon="11.792957844063455"><ele>15.0</ele><time>2026-05-02T00:10:58Z</time></trkpt><trkpt lat="45.45605732972665" lon="11.79255478152093"><ele>15.0</ele><time>2026-05-02T00:10:59Z</time></trkpt><trkpt lat="45.45614207940759" lon="11.79214710870688"><ele>15.0</ele><time>2026-05-02T00:11:00Z</time></trkpt><trkpt lat="45.45623279621713" lon="11.791748027082846"><ele>16.5</ele><time>2026-05-02T00:11:01Z</time></trkpt><trkpt lat="45.45632080231194" lon="11.791343521034095"><ele>18.0</ele><time>2026-05-02T00:11:02Z</time></trkpt><trkpt lat="45.456411769674304" lon="11.790939232724883"><ele>19.0</ele><time>2026-05-02T00:11:03.001Z</time></trkpt><trkpt lat="45.456513310547884" lon="11.790539818975656"><ele>20.0</ele><time>2026-05-02T00:11:04.001Z</time></trkpt><trkpt lat="45.45661409758759" lon="11.790140915508047"><ele>18.0</ele><time>2026-05-02T00:11:05.001Z</time></trkpt><trkpt lat="45.45672196960149" lon="11.789743715877554"><ele>16.0</ele><time>2026-05-02T00:11:06.001Z</time></trkpt><trkpt lat="45.45683754325691" lon="11.78935063359947"><ele>16.0</ele><time>2026-05-02T00:11:07.001Z</time></trkpt><trkpt lat="45.45695784347328" lon="11.788956881003756"><ele>16.0</ele><time>2026-05-02T00:11:08.001Z</time></trkpt><trkpt lat="45.45707762807285" lon="11.788563725693303"><ele>15.5</ele><time>2026-05-02T00:11:09.001Z</time></trkpt><trkpt lat="45.457202918002956" lon="11.788170074564126"><ele>15.0</ele><time>2026-05-02T00:11:10.001Z</time></trkpt><trkpt lat="45.45731783288645" lon="11.78777111227998"><ele>15.5</ele><time>2026-05-02T00:11:11.001Z</time></trkpt><trkpt lat="45.45743224486799" lon="11.787376370253096"><ele>16.0</ele><time>2026-05-02T00:11:12.001Z</time></trkpt><trkpt lat="45.45755034953787" lon="11.786978449026503"><ele>17.0</ele><time>2026-05-02T00:11:13.001Z</time></trkpt><trkpt lat="45.45766911922303" lon="11.786583566938141"><ele>18.0</ele><time>2026-05-02T00:11:14.001Z</time></trkpt><trkpt lat="45.45778723610884" lon="11.786186574528676"><ele>17.0</ele><time>2026-05-02T00:11:15.001Z</time></trkpt><trkpt lat="45.45790396725744" lon="11.785790921939974"><ele>16.0</ele><time>2026-05-02T00:11:16.001Z</time></trkpt><trkpt lat="45.458024534064904" lon="11.78540002772785"><ele>15.5</ele><time>2026-05-02T00:11:17.001Z</time></trkpt><trkpt lat="45.45814439739607" lon="11.785010258908379"><ele>15.0</ele><time>2026-05-02T00:11:18.001Z</time></trkpt><trkpt lat="45.45826089497954" lon="11.78462124844247"><ele>16.0</ele><time>2026-05-02T00:11:19.001Z</time></trkpt><trkpt lat="45.458381437340364" lon="11.784230500458836"><ele>17.0</ele><time>2026-05-02T00:11:20.001Z</time></trkpt><trkpt lat="45.458502254360056" lon="11.783840738426607"><ele>16.5</ele><time>2026-05-02T00:11:21.001Z</time></trkpt><trkpt lat="45.458618628411074" lon="11.783450099090048"><ele>16.0</ele><time>2026-05-02T00:11:22.001Z</time></trkpt><trkpt lat="45.458730911013355" lon="11.783069146394201"><ele>16.0</ele><time>2026-05-02T00:11:23.001Z</time></trkpt><trkpt lat="45.45883552669261" lon="11.782699939275945"><ele>16.0</ele><time>2026-05-02T00:11:24.001Z</time></trkpt><trkpt lat="45.4589447486676" lon="11.782325408283919"><ele>16.5</ele><time>2026-05-02T00:11:25.001Z</time></trkpt><trkpt lat="45.45905564039427" lon="11.781946083587366"><ele>17.0</ele><time>2026-05-02T00:11:26.001Z</time></trkpt><trkpt lat="45.459171645309745" lon="11.781561417861449"><ele>17.0</ele><time>2026-05-02T00:11:27.001Z</time></trkpt><trkpt lat="45.45929099148321" lon="11.78117318724105"><ele>17.0</ele><time>2026-05-02T00:11:28.001Z</time></trkpt><trkpt lat="45.45941116237675" lon="11.780783505780168"><ele>17.0</ele><time>2026-05-02T00:11:29.001Z</time></trkpt><trkpt lat="45.45952695669986" lon="11.780394888580004"><ele>17.0</ele><time>2026-05-02T00:11:30.001Z</time></trkpt><trkpt lat="45.459645268252466" lon="11.779999977067947"><ele>17.0</ele><time>2026-05-02T00:11:31.001Z</time></trkpt><trkpt lat="45.45976340912289" lon="11.779608449061838"><ele>17.0</ele><time>2026-05-02T00:11:32.001Z</time></trkpt><trkpt lat="45.459881550094096" lon="11.77921617868577"><ele>17.0</ele><time>2026-05-02T00:11:33.001Z</time></trkpt><trkpt lat="45.46000060993797" lon="11.778827025019185"><ele>17.0</ele><time>2026-05-02T00:11:34.001Z</time></trkpt><trkpt lat="45.46011958131306" lon="11.77843684507234"><ele>17.5</ele><time>2026-05-02T00:11:35.001Z</time></trkpt><trkpt lat="45.46023710013991" lon="11.778045905318873"><ele>18.0</ele><time>2026-05-02T00:11:36.001Z</time></trkpt><trkpt lat="45.46035507878841" lon="11.777660798170828"><ele>19.0</ele><time>2026-05-02T00:11:37.001Z</time></trkpt><trkpt lat="45.46047342560694" lon="11.777272621241847"><ele>20.0</ele><time>2026-05-02T00:11:38.001Z</time></trkpt><trkpt lat="45.46059062154468" lon="11.77688919208555"><ele>20.0</ele><time>2026-05-02T00:11:39.001Z</time></trkpt><trkpt lat="45.460706829305025" lon="11.77650517477951"><ele>20.0</ele><time>2026-05-02T00:11:40.001Z</time></trkpt><trkpt lat="45.46082416048125" lon="11.776120697372349"><ele>19.0</ele><time>2026-05-02T00:11:41.001Z</time></trkpt><trkpt lat="45.46093950408244" lon="11.77574022032208"><ele>18.0</ele><time>2026-05-02T00:11:42.001Z</time></trkpt><trkpt lat="45.46105304579549" lon="11.775360416763329"><ele>17.0</ele><time>2026-05-02T00:11:43.001Z</time></trkpt><trkpt lat="45.46116613229966" lon="11.774983702758606"><ele>16.0</ele><time>2026-05-02T00:11:44.001Z</time></trkpt><trkpt lat="45.46127950652907" lon="11.774605703443672"><ele>17.0</ele><time>2026-05-02T00:11:45.001Z</time></trkpt><trkpt lat="45.46139240467814" lon="11.774229342375076"><ele>18.0</ele><time>2026-05-02T00:11:46.001Z</time></trkpt><trkpt lat="45.46150449258302" lon="11.773853259057448"><ele>18.0</ele><time>2026-05-02T00:11:47.001Z</time></trkpt><trkpt lat="45.461617961409964" lon="11.77347828889322"><ele>18.0</ele><time>2026-05-02T00:11:48.001Z</time></trkpt><trkpt lat="45.46173057359824" lon="11.773105998674227"><ele>18.0</ele><time>2026-05-02T00:11:49.001Z</time></trkpt><trkpt lat="45.46184380408459" lon="11.772731315073296"><ele>18.0</ele><time>2026-05-02T00:11:50.001Z</time></trkpt><trkpt lat="45.46195582152185" lon="11.772360001050407"><ele>18.0</ele><time>2026-05-02T00:11:51.001Z</time></trkpt><trkpt lat="45.462067605074" lon="11.771989583143919"><ele>18.0</ele><time>2026-05-02T00:11:52.001Z</time></trkpt><trkpt lat="45.46218129166863" lon="11.771614363472931"><ele>18.0</ele><time>2026-05-02T00:11:53.001Z</time></trkpt><trkpt lat="45.46229531062352" lon="11.771237762617254"><ele>18.0</ele><time>2026-05-02T00:11:54.001Z</time></trkpt><trkpt lat="45.46240912987698" lon="11.77085939049086"><ele>18.0</ele><time>2026-05-02T00:11:55.001Z</time></trkpt><trkpt lat="45.46252325419597" lon="11.770478517273569"><ele>18.0</ele><time>2026-05-02T00:11:56.001Z</time></trkpt><trkpt lat="45.462639075986424" lon="11.770096927573931"><ele>17.5</ele><time>2026-05-02T00:11:57.001Z</time></trkpt><trkpt lat="45.462754141933296" lon="11.769715067498156"><ele>17.0</ele><time>2026-05-02T00:11:58.001Z</time></trkpt><trkpt lat="45.462871110857215" lon="11.769331214460585"><ele>17.0</ele><time>2026-05-02T00:11:59.001Z</time></trkpt><trkpt lat="45.4629878277678" lon="11.768948568857471"><ele>17.0</ele><time>2026-05-02T00:12:00Z</time></trkpt><trkpt lat="45.463104877329265" lon="11.76856096771441"><ele>17.0</ele><time>2026-05-02T00:12:01Z</time></trkpt><trkpt lat="45.463222596117674" lon="11.76817185472243"><ele>17.0</ele><time>2026-05-02T00:12:02Z</time></trkpt><trkpt lat="45.4633407190599" lon="11.767780522629483"><ele>17.5</ele><time>2026-05-02T00:12:03Z</time></trkpt><trkpt lat="45.46346099131699" lon="11.767389143457713"><ele>18.0</ele><time>2026-05-02T00:12:04Z</time></trkpt><trkpt lat="45.46358060409043" lon="11.766999805759772"><ele>17.5</ele><time>2026-05-02T00:12:05Z</time></trkpt><trkpt lat="45.463699536401215" lon="11.766606204848486"><ele>17.0</ele><time>2026-05-02T00:12:06Z</time></trkpt><trkpt lat="45.46381719075698" lon="11.766212198584093"><ele>17.5</ele><time>2026-05-02T00:12:07Z</time></trkpt><trkpt lat="45.46392869392941" lon="11.765821559744612"><ele>18.0</ele><time>2026-05-02T00:12:08Z</time></trkpt><trkpt lat="45.464042723071856" lon="11.76542884548907"><ele>18.0</ele><time>2026-05-02T00:12:09Z</time></trkpt><trkpt lat="45.464153984862136" lon="11.765035580729045"><ele>18.0</ele><time>2026-05-02T00:12:10Z</time></trkpt><trkpt lat="45.46425532753404" lon="11.76463605000739"><ele>18.0</ele><time>2026-05-02T00:12:11Z</time></trkpt><trkpt lat="45.46434887289567" lon="11.764235978638725"><ele>18.0</ele><time>2026-05-02T00:12:12Z</time></trkpt><trkpt lat="45.46444233590563" lon="11.763832043935844"><ele>18.5</ele><time>2026-05-02T00:12:13Z</time></trkpt><trkpt lat="45.46452985589522" lon="11.763426676516115"><ele>19.0</ele><time>2026-05-02T00:12:14Z</time></trkpt><trkpt lat="45.46461171287552" lon="11.76301815575048"><ele>18.5</ele><time>2026-05-02T00:12:15Z</time></trkpt><trkpt lat="45.46468975866591" lon="11.762607746697604"><ele>18.0</ele><time>2026-05-02T00:12:16Z</time></trkpt><trkpt lat="45.464763351652806" lon="11.76219319087273"><ele>17.5</ele><time>2026-05-02T00:12:17Z</time></trkpt><trkpt lat="45.46483027971859" lon="11.761778694191126"><ele>17.0</ele><time>2026-05-02T00:12:18Z</time></trkpt><trkpt lat="45.46489634690797" lon="11.76136338792374"><ele>17.5</ele><time>2026-05-02T00:12:19Z</time></trkpt><trkpt lat="45.46496246212241" lon="11.760949503094418"><ele>18.0</ele><time>2026-05-02T00:12:20Z</time></trkpt><trkpt lat="45.46502625644572" lon="11.76053636201658"><ele>18.5</ele><time>2026-05-02T00:12:21Z</time></trkpt><trkpt lat="45.46509701229264" lon="11.760129188990156"><ele>19.0</ele><time>2026-05-02T00:12:22Z</time></trkpt><trkpt lat="45.4651625107094" lon="11.759718292623852"><ele>20.0</ele><time>2026-05-02T00:12:23Z</time></trkpt><trkpt lat="45.46523044503504" lon="11.759310894324896"><ele>21.0</ele><time>2026-05-02T00:12:24Z</time></trkpt><trkpt lat="45.46529663206586" lon="11.75890305570434"><ele>21.0</ele><time>2026-05-02T00:12:25Z</time></trkpt><trkpt lat="45.4653608084814" lon="11.75849596142524"><ele>21.0</ele><time>2026-05-02T00:12:26Z</time></trkpt><trkpt lat="45.465426317268005" lon="11.758087660177347"><ele>20.5</ele><time>2026-05-02T00:12:27Z</time></trkpt><trkpt lat="45.46549067001843" lon="11.757683719566565"><ele>20.0</ele><time>2026-05-02T00:12:28Z</time></trkpt><trkpt lat="45.46555623667974" lon="11.757276248393078"><ele>20.0</ele><time>2026-05-02T00:12:29Z</time></trkpt><trkpt lat="45.465621966683486" lon="11.756871171879737"><ele>20.0</ele><time>2026-05-02T00:12:30Z</time></trkpt><trkpt lat="45.46568811672191" lon="11.756462920478278"><ele>20.0</ele><time>2026-05-02T00:12:31Z</time></trkpt><trkpt lat="45.465755153372655" lon="11.756057020114826"><ele>20.0</ele><time>2026-05-02T00:12:32Z</time></trkpt><trkpt lat="45.4658204102442" lon="11.755647361050906"><ele>20.5</ele><time>2026-05-02T00:12:33Z</time></trkpt><trkpt lat="45.4658876285939" lon="11.75523909919213"><ele>21.0</ele><time>2026-05-02T00:12:34Z</time></trkpt><trkpt lat="45.46595448779462" lon="11.754827020858883"><ele>21.0</ele><time>2026-05-02T00:12:35Z</time></trkpt><trkpt lat="45.46601889935975" lon="11.754417445587272"><ele>21.0</ele><time>2026-05-02T00:12:36Z</time></trkpt><trkpt lat="45.46608381840086" lon="11.754007073469953"><ele>21.5</ele><time>2026-05-02T00:12:37Z</time></trkpt><trkpt lat="45.46615010718727" lon="11.753593883333796"><ele>22.0</ele><time>2026-05-02T00:12:38Z</time></trkpt><trkpt lat="45.46621564369487" lon="11.753177329336824"><ele>21.0</ele><time>2026-05-02T00:12:39Z</time></trkpt><trkpt lat="45.46628320060851" lon="11.752759588552184"><ele>20.0</ele><time>2026-05-02T00:12:40Z</time></trkpt><trkpt lat="45.46635482315173" lon="11.752341531606515"><ele>20.0</ele><time>2026-05-02T00:12:41Z</time></trkpt><trkpt lat="45.46642921999662" lon="11.751924976482613"><ele>20.0</ele><time>2026-05-02T00:12:42Z</time></trkpt><trkpt lat="45.46649555969264" lon="11.75150708288232"><ele>20.5</ele><time>2026-05-02T00:12:43Z</time></trkpt><trkpt lat="45.46656602688505" lon="11.751088128381957"><ele>21.0</ele><time>2026-05-02T00:12:44Z</time></trkpt><trkpt lat="45.4666347817828" lon="11.750668407745259"><ele>21.5</ele><time>2026-05-02T00:12:45Z</time></trkpt><trkpt lat="45.46670284058476" lon="11.75024623921826"><ele>22.0</ele><time>2026-05-02T00:12:46Z</time></trkpt><trkpt lat="45.46677171405527" lon="11.74982782039968"><ele>21.0</ele><time>2026-05-02T00:12:47Z</time></trkpt><trkpt lat="45.46684170249311" lon="11.749405028923913"><ele>20.0</ele><time>2026-05-02T00:12:48Z</time></trkpt><trkpt lat="45.46691203152534" lon="11.748985187973554"><ele>19.5</ele><time>2026-05-02T00:12:49Z</time></trkpt><trkpt lat="45.466981606517066" lon="11.748563301097036"><ele>19.0</ele><time>2026-05-02T00:12:50Z</time></trkpt><trkpt lat="45.467048070098656" lon="11.748142502673891"><ele>18.5</ele><time>2026-05-02T00:12:51Z</time></trkpt><trkpt lat="45.46711314573992" lon="11.747721874525865"><ele>18.0</ele><time>2026-05-02T00:12:52Z</time></trkpt><trkpt lat="45.467180285528634" lon="11.747300645575484"><ele>17.5</ele><time>2026-05-02T00:12:53Z</time></trkpt><trkpt lat="45.467247198443786" lon="11.7468826076621"><ele>17.0</ele><time>2026-05-02T00:12:54Z</time></trkpt><trkpt lat="45.46731504849465" lon="11.746464790106254"><ele>17.0</ele><time>2026-05-02T00:12:55Z</time></trkpt><trkpt lat="45.46738355598867" lon="11.746047128427138"><ele>17.0</ele><time>2026-05-02T00:12:56Z</time></trkpt><trkpt lat="45.4674526822827" lon="11.745631305811614"><ele>17.5</ele><time>2026-05-02T00:12:57Z</time></trkpt><trkpt lat="45.46752058571482" lon="11.745219392236136"><ele>18.0</ele><time>2026-05-02T00:12:58Z</time></trkpt><trkpt lat="45.46758995133427" lon="11.744803845046407"><ele>18.0</ele><time>2026-05-02T00:12:59Z</time></trkpt><trkpt lat="45.46765812248839" lon="11.74438715396261"><ele>18.0</ele><time>2026-05-02T00:13:00Z</time></trkpt><trkpt lat="45.467726061566374" lon="11.743968665358539"><ele>17.0</ele><time>2026-05-02T00:13:01Z</time></trkpt><trkpt lat="45.46779223046222" lon="11.743553731845807"><ele>16.0</ele><time>2026-05-02T00:13:02Z</time></trkpt><trkpt lat="45.467857595146114" lon="11.743136352355561"><ele>16.0</ele><time>2026-05-02T00:13:03Z</time></trkpt><trkpt lat="45.46792421230764" lon="11.742720575432825"><ele>16.0</ele><time>2026-05-02T00:13:04Z</time></trkpt><trkpt lat="45.46799062339758" lon="11.74230201316513"><ele>16.5</ele><time>2026-05-02T00:13:05Z</time></trkpt><trkpt lat="45.46805802887059" lon="11.741886643950847"><ele>17.0</ele><time>2026-05-02T00:13:06Z</time></trkpt><trkpt lat="45.468123972690705" lon="11.741465602521634"><ele>17.0</ele><time>2026-05-02T00:13:07Z</time></trkpt><trkpt lat="45.468191342017214" lon="11.741051946706868"><ele>17.0</ele><time>2026-05-02T00:13:08Z</time></trkpt><trkpt lat="45.468255198628206" lon="11.740645240605112"><ele>17.0</ele><time>2026-05-02T00:13:09Z</time></trkpt><trkpt lat="45.468318444355155" lon="11.740247088119178"><ele>17.0</ele><time>2026-05-02T00:13:10Z</time></trkpt><trkpt lat="45.468384293427405" lon="11.739835125736432"><ele>17.0</ele><time>2026-05-02T00:13:11Z</time></trkpt><trkpt lat="45.468452558407954" lon="11.73941563054204"><ele>17.0</ele><time>2026-05-02T00:13:12Z</time></trkpt><trkpt lat="45.46851958459991" lon="11.73899307871945"><ele>17.0</ele><time>2026-05-02T00:13:13.001Z</time></trkpt><trkpt lat="45.468594852266804" lon="11.738566670448582"><ele>17.0</ele><time>2026-05-02T00:13:14.001Z</time></trkpt><trkpt lat="45.46866074281015" lon="11.738144476623614"><ele>17.0</ele><time>2026-05-02T00:13:15.001Z</time></trkpt><trkpt lat="45.468730592444196" lon="11.737724617107084"><ele>17.0</ele><time>2026-05-02T00:13:16.001Z</time></trkpt><trkpt lat="45.4688058675384" lon="11.737311364297682"><ele>17.0</ele><time>2026-05-02T00:13:17.001Z</time></trkpt><trkpt lat="45.46888523621053" lon="11.73689821605028"><ele>17.0</ele><time>2026-05-02T00:13:18.001Z</time></trkpt><trkpt lat="45.46897160737205" lon="11.736492619203998"><ele>17.0</ele><time>2026-05-02T00:13:19.001Z</time></trkpt><trkpt lat="45.469064107882474" lon="11.736085824680636"><ele>17.0</ele><time>2026-05-02T00:13:20.001Z</time></trkpt><trkpt lat="45.46915922186389" lon="11.735678304526607"><ele>17.0</ele><time>2026-05-02T00:13:21.001Z</time></trkpt><trkpt lat="45.46925427290547" lon="11.735272074174862"><ele>17.0</ele><time>2026-05-02T00:13:22.001Z</time></trkpt><trkpt lat="45.469351806432186" lon="11.734861699138554"><ele>17.5</ele><time>2026-05-02T00:13:23.001Z</time></trkpt><trkpt lat="45.46945015400804" lon="11.734449891770602"><ele>18.0</ele><time>2026-05-02T00:13:24.001Z</time></trkpt><trkpt lat="45.469551376676385" lon="11.734038317890976"><ele>18.0</ele><time>2026-05-02T00:13:25.001Z</time></trkpt><trkpt lat="45.46966196044265" lon="11.733634785656715"><ele>18.0</ele><time>2026-05-02T00:13:26.001Z</time></trkpt><trkpt lat="45.46977938909859" lon="11.733232133005872"><ele>18.0</ele><time>2026-05-02T00:13:27.001Z</time></trkpt><trkpt lat="45.46990386533171" lon="11.732831404538503"><ele>18.0</ele><time>2026-05-02T00:13:28.001Z</time></trkpt><trkpt lat="45.47003359246715" lon="11.732438105233248"><ele>18.5</ele><time>2026-05-02T00:13:29.001Z</time></trkpt><trkpt lat="45.470164642967376" lon="11.73204265224345"><ele>19.0</ele><time>2026-05-02T00:13:30.001Z</time></trkpt><trkpt lat="45.47029252218271" lon="11.73164852894426"><ele>19.0</ele><time>2026-05-02T00:13:31.001Z</time></trkpt><trkpt lat="45.470418749909285" lon="11.731256149711887"><ele>19.0</ele><time>2026-05-02T00:13:32.001Z</time></trkpt><trkpt lat="45.470546383459" lon="11.730868877682434"><ele>18.5</ele><time>2026-05-02T00:13:33.001Z</time></trkpt><trkpt lat="45.47067569295902" lon="11.73048222550231"><ele>18.0</ele><time>2026-05-02T00:13:34.001Z</time></trkpt><trkpt lat="45.47080808544572" lon="11.73010016412884"><ele>18.0</ele><time>2026-05-02T00:13:35.001Z</time></trkpt><trkpt lat="45.47094402839151" lon="11.729719833505396"><ele>18.0</ele><time>2026-05-02T00:13:36.001Z</time></trkpt><trkpt lat="45.47108096422612" lon="11.729341767007485"><ele>18.0</ele><time>2026-05-02T00:13:37.001Z</time></trkpt><trkpt lat="45.4712197823881" lon="11.728963139455677"><ele>18.0</ele><time>2026-05-02T00:13:38.001Z</time></trkpt><trkpt lat="45.47135084840787" lon="11.728586586119299"><ele>17.5</ele><time>2026-05-02T00:13:39.001Z</time></trkpt><trkpt lat="45.471482617538996" lon="11.728209941054097"><ele>17.0</ele><time>2026-05-02T00:13:40.001Z</time></trkpt><trkpt lat="45.4716100403387" lon="11.727830784449432"><ele>18.0</ele><time>2026-05-02T00:13:41.001Z</time></trkpt><trkpt lat="45.47173297389973" lon="11.727447742567463"><ele>19.0</ele><time>2026-05-02T00:13:42.001Z</time></trkpt><trkpt lat="45.4718536929757" lon="11.727066768919407"><ele>19.0</ele><time>2026-05-02T00:13:43.001Z</time></trkpt><trkpt lat="45.47197668664869" lon="11.726679836703104"><ele>19.0</ele><time>2026-05-02T00:13:44.001Z</time></trkpt><trkpt lat="45.472100531406575" lon="11.726297796642575"><ele>19.0</ele><time>2026-05-02T00:13:45.001Z</time></trkpt><trkpt lat="45.4722237511835" lon="11.72591931639092"><ele>19.0</ele><time>2026-05-02T00:13:46.001Z</time></trkpt><trkpt lat="45.47234634296753" lon="11.72553808864365"><ele>18.5</ele><time>2026-05-02T00:13:47.001Z</time></trkpt><trkpt lat="45.47246986229273" lon="11.725156627827928"><ele>18.0</ele><time>2026-05-02T00:13:48.001Z</time></trkpt><trkpt lat="45.472592377555756" lon="11.724775094771323"><ele>18.5</ele><time>2026-05-02T00:13:49.001Z</time></trkpt><trkpt lat="45.47271550307941" lon="11.724392696740649"><ele>19.0</ele><time>2026-05-02T00:13:50.001Z</time></trkpt><trkpt lat="45.47283715418439" lon="11.724012830720191"><ele>18.5</ele><time>2026-05-02T00:13:51.001Z</time></trkpt><trkpt lat="45.47296124983075" lon="11.723627657687347"><ele>18.0</ele><time>2026-05-02T00:13:52.001Z</time></trkpt><trkpt lat="45.4730861176935" lon="11.72324437547114"><ele>18.0</ele><time>2026-05-02T00:13:53.001Z</time></trkpt><trkpt lat="45.47321220814705" lon="11.722860952512496"><ele>18.0</ele><time>2026-05-02T00:13:54.001Z</time></trkpt><trkpt lat="45.473336829409924" lon="11.72247436666048"><ele>18.5</ele><time>2026-05-02T00:13:55.001Z</time></trkpt><trkpt lat="45.47345873363411" lon="11.722091316008866"><ele>19.0</ele><time>2026-05-02T00:13:56.001Z</time></trkpt><trkpt lat="45.47358141393261" lon="11.72170925947624"><ele>18.5</ele><time>2026-05-02T00:13:57.001Z</time></trkpt><trkpt lat="45.47370680488802" lon="11.721332293598913"><ele>18.0</ele><time>2026-05-02T00:13:58.001Z</time></trkpt><trkpt lat="45.473831731665534" lon="11.720954107760418"><ele>18.0</ele><time>2026-05-02T00:13:59.001Z</time></trkpt><trkpt lat="45.47395673952182" lon="11.720573011984753"><ele>18.0</ele><time>2026-05-02T00:14:00.001Z</time></trkpt><trkpt lat="45.47408074979284" lon="11.720194082275594"><ele>18.5</ele><time>2026-05-02T00:14:01.001Z</time></trkpt><trkpt lat="45.4742052912178" lon="11.719814270411758"><ele>19.0</ele><time>2026-05-02T00:14:02.001Z</time></trkpt><trkpt lat="45.474328532057925" lon="11.719432598612656"><ele>19.5</ele><time>2026-05-02T00:14:03.001Z</time></trkpt><trkpt lat="45.474450556770854" lon="11.719054130654797"><ele>20.0</ele><time>2026-05-02T00:14:04.001Z</time></trkpt><trkpt lat="45.47457407795145" lon="11.718671425042936"><ele>19.5</ele><time>2026-05-02T00:14:05.001Z</time></trkpt><trkpt lat="45.4746980777776" lon="11.718287812863027"><ele>19.0</ele><time>2026-05-02T00:14:06Z</time></trkpt><trkpt lat="45.4748220712932" lon="11.717901905723641"><ele>19.0</ele><time>2026-05-02T00:14:07Z</time></trkpt><trkpt lat="45.47494423358961" lon="11.717515483108322"><ele>19.0</ele><time>2026-05-02T00:14:08Z</time></trkpt><trkpt lat="45.47507153818777" lon="11.717131742248744"><ele>19.5</ele><time>2026-05-02T00:14:09Z</time></trkpt><trkpt lat="45.475194495315876" lon="11.716746437625188"><ele>20.0</ele><time>2026-05-02T00:14:10Z</time></trkpt><trkpt lat="45.47532035566086" lon="11.716359172386026"><ele>21.0</ele><time>2026-05-02T00:14:11Z</time></trkpt><trkpt lat="45.47544371437733" lon="11.715970305439432"><ele>22.0</ele><time>2026-05-02T00:14:12Z</time></trkpt><trkpt lat="45.475567831986744" lon="11.715582969974127"><ele>22.0</ele><time>2026-05-02T00:14:13Z</time></trkpt><trkpt lat="45.47569217346936" lon="11.71519320874809"><ele>22.0</ele><time>2026-05-02T00:14:14Z</time></trkpt><trkpt lat="45.47581548327287" lon="11.7148057491041"><ele>22.0</ele><time>2026-05-02T00:14:15Z</time></trkpt><trkpt lat="45.47593998175752" lon="11.71441904693775"><ele>22.0</ele><time>2026-05-02T00:14:16Z</time></trkpt><trkpt lat="45.476066960939264" lon="11.714033629653526"><ele>21.5</ele><time>2026-05-02T00:14:17Z</time></trkpt><trkpt lat="45.476194670527235" lon="11.713650647392168"><ele>21.0</ele><time>2026-05-02T00:14:18Z</time></trkpt><trkpt lat="45.4763209129564" lon="11.713268206231481"><ele>21.0</ele><time>2026-05-02T00:14:19Z</time></trkpt><trkpt lat="45.476446961827676" lon="11.71288637506574"><ele>21.0</ele><time>2026-05-02T00:14:20Z</time></trkpt><trkpt lat="45.47657409857783" lon="11.712501231884461"><ele>21.0</ele><time>2026-05-02T00:14:21Z</time></trkpt><trkpt lat="45.47669800964497" lon="11.712118368616732"><ele>21.0</ele><time>2026-05-02T00:14:22Z</time></trkpt><trkpt lat="45.476820237475444" lon="11.711734874232736"><ele>21.0</ele><time>2026-05-02T00:14:23Z</time></trkpt><trkpt lat="45.476944379854544" lon="11.71135369660209"><ele>21.0</ele><time>2026-05-02T00:14:24Z</time></trkpt><trkpt lat="45.477066556681564" lon="11.710969947174586"><ele>21.0</ele><time>2026-05-02T00:14:25Z</time></trkpt><trkpt lat="45.47719116282083" lon="11.71058699011297"><ele>21.0</ele><time>2026-05-02T00:14:26Z</time></trkpt><trkpt lat="45.477315311169804" lon="11.710210707096087"><ele>21.0</ele><time>2026-05-02T00:14:27Z</time></trkpt><trkpt lat="45.477435616207075" lon="11.709827922282436"><ele>21.0</ele><time>2026-05-02T00:14:28Z</time></trkpt><trkpt lat="45.47755543124228" lon="11.709447006434301"><ele>22.0</ele><time>2026-05-02T00:14:29Z</time></trkpt><trkpt lat="45.47767442679409" lon="11.709063053208732"><ele>23.0</ele><time>2026-05-02T00:14:30Z</time></trkpt><trkpt lat="45.4777946058046" lon="11.708675474041282"><ele>22.5</ele><time>2026-05-02T00:14:31Z</time></trkpt><trkpt lat="45.47791358159317" lon="11.708286131681012"><ele>22.0</ele><time>2026-05-02T00:14:32Z</time></trkpt><trkpt lat="45.47803706667701" lon="11.707897997535948"><ele>22.0</ele><time>2026-05-02T00:14:33Z</time></trkpt><trkpt lat="45.47816204514828" lon="11.707509648043402"><ele>22.0</ele><time>2026-05-02T00:14:34Z</time></trkpt><trkpt lat="45.47828839580343" lon="11.70712367922399"><ele>22.5</ele><time>2026-05-02T00:14:35Z</time></trkpt><trkpt lat="45.478414099366255" lon="11.706731835800491"><ele>23.0</ele><time>2026-05-02T00:14:36Z</time></trkpt><trkpt lat="45.47853802191001" lon="11.706340521816001"><ele>23.0</ele><time>2026-05-02T00:14:37Z</time></trkpt><trkpt lat="45.47866115256602" lon="11.705952286644948"><ele>23.0</ele><time>2026-05-02T00:14:38Z</time></trkpt><trkpt lat="45.47878301644581" lon="11.705566036650085"><ele>23.0</ele><time>2026-05-02T00:14:39Z</time></trkpt><trkpt lat="45.47891030006581" lon="11.70518514586603"><ele>23.0</ele><time>2026-05-02T00:14:40Z</time></trkpt><trkpt lat="45.47904198438303" lon="11.70480954526215"><ele>23.0</ele><time>2026-05-02T00:14:41Z</time></trkpt><trkpt lat="45.47918107017722" lon="11.704444044692428"><ele>23.0</ele><time>2026-05-02T00:14:42Z</time></trkpt><trkpt lat="45.47931266788755" lon="11.704069058784041"><ele>23.5</ele><time>2026-05-02T00:14:43Z</time></trkpt><trkpt lat="45.47943777154661" lon="11.703691787844761"><ele>24.0</ele><time>2026-05-02T00:14:44Z</time></trkpt><trkpt lat="45.47955997927291" lon="11.703313718303491"><ele>24.5</ele><time>2026-05-02T00:14:45Z</time></trkpt><trkpt lat="45.47967943911473" lon="11.702932353066041"><ele>25.0</ele><time>2026-05-02T00:14:46Z</time></trkpt><trkpt lat="45.47980174083909" lon="11.702553119709732"><ele>23.5</ele><time>2026-05-02T00:14:47Z</time></trkpt><trkpt lat="45.4799231470906" lon="11.702171528290974"><ele>22.0</ele><time>2026-05-02T00:14:48Z</time></trkpt><trkpt lat="45.48004504501786" lon="11.701791899631916"><ele>21.5</ele><time>2026-05-02T00:14:49Z</time></trkpt><trkpt lat="45.48016453295306" lon="11.701422367758726"><ele>21.0</ele><time>2026-05-02T00:14:50Z</time></trkpt><trkpt lat="45.480282802311024" lon="11.701062941868571"><ele>21.5</ele><time>2026-05-02T00:14:51Z</time></trkpt><trkpt lat="45.48040188810337" lon="11.700690676128184"><ele>22.0</ele><time>2026-05-02T00:14:52Z</time></trkpt><trkpt lat="45.48052322154995" lon="11.700310218027704"><ele>21.5</ele><time>2026-05-02T00:14:53Z</time></trkpt><trkpt lat="45.48064817010099" lon="11.699928245671654"><ele>21.0</ele><time>2026-05-02T00:14:54Z</time></trkpt><trkpt lat="45.48077374888687" lon="11.699542555179345"><ele>21.0</ele><time>2026-05-02T00:14:55Z</time></trkpt><trkpt lat="45.480900558196204" lon="11.699155868373962"><ele>21.0</ele><time>2026-05-02T00:14:56Z</time></trkpt><trkpt lat="45.481028142588755" lon="11.69876660025251"><ele>21.0</ele><time>2026-05-02T00:14:57Z</time></trkpt><trkpt lat="45.48115634078712" lon="11.698377961874575"><ele>21.0</ele><time>2026-05-02T00:14:58Z</time></trkpt><trkpt lat="45.48128289714419" lon="11.697992077206917"><ele>21.5</ele><time>2026-05-02T00:14:59Z</time></trkpt><trkpt lat="45.48140960950422" lon="11.697602991049386"><ele>22.0</ele><time>2026-05-02T00:15:00Z</time></trkpt><trkpt lat="45.48153427646963" lon="11.697210896115553"><ele>21.5</ele><time>2026-05-02T00:15:01Z</time></trkpt><trkpt lat="45.48165853982931" lon="11.696821107932882"><ele>21.0</ele><time>2026-05-02T00:15:02Z</time></trkpt><trkpt lat="45.48178390859227" lon="11.696435403964426"><ele>21.0</ele><time>2026-05-02T00:15:03Z</time></trkpt><trkpt lat="45.48190877755844" lon="11.696046820231569"><ele>21.0</ele><time>2026-05-02T00:15:04Z</time></trkpt><trkpt lat="45.4820353070438" lon="11.69565875629778"><ele>21.0</ele><time>2026-05-02T00:15:05Z</time></trkpt><trkpt lat="45.482161542839364" lon="11.695273257773314"><ele>21.0</ele><time>2026-05-02T00:15:06Z</time></trkpt><trkpt lat="45.4822884385925" lon="11.694885194783199"><ele>21.5</ele><time>2026-05-02T00:15:07Z</time></trkpt><trkpt lat="45.48241358147329" lon="11.69450298922103"><ele>22.0</ele><time>2026-05-02T00:15:08Z</time></trkpt><trkpt lat="45.48253973610192" lon="11.694117178089824"><ele>22.0</ele><time>2026-05-02T00:15:09Z</time></trkpt><trkpt lat="45.48266634326694" lon="11.693727822981431"><ele>22.0</ele><time>2026-05-02T00:15:10Z</time></trkpt><trkpt lat="45.482791762666565" lon="11.693337069050887"><ele>22.0</ele><time>2026-05-02T00:15:11Z</time></trkpt><trkpt lat="45.482917612496784" lon="11.692943601102634"><ele>22.0</ele><time>2026-05-02T00:15:12Z</time></trkpt><trkpt lat="45.48304526473395" lon="11.692551620015552"><ele>22.0</ele><time>2026-05-02T00:15:13Z</time></trkpt><trkpt lat="45.483174547639805" lon="11.692162419409836"><ele>22.0</ele><time>2026-05-02T00:15:14Z</time></trkpt><trkpt lat="45.48330252663448" lon="11.691770579810633"><ele>21.5</ele><time>2026-05-02T00:15:15Z</time></trkpt><trkpt lat="45.48342818164226" lon="11.691377951470866"><ele>21.0</ele><time>2026-05-02T00:15:16Z</time></trkpt><trkpt lat="45.483557654084734" lon="11.690985956354966"><ele>21.0</ele><time>2026-05-02T00:15:17Z</time></trkpt><trkpt lat="45.483694921359515" lon="11.690596491263973"><ele>21.0</ele><time>2026-05-02T00:15:18Z</time></trkpt><trkpt lat="45.48383833195892" lon="11.690220628889618"><ele>21.0</ele><time>2026-05-02T00:15:19Z</time></trkpt><trkpt lat="45.48398115582866" lon="11.689839098961714"><ele>21.0</ele><time>2026-05-02T00:15:20Z</time></trkpt><trkpt lat="45.48412622805305" lon="11.689457137273859"><ele>21.5</ele><time>2026-05-02T00:15:21Z</time></trkpt><trkpt lat="45.48427239263459" lon="11.689074746636928"><ele>22.0</ele><time>2026-05-02T00:15:22Z</time></trkpt><trkpt lat="45.48441538936307" lon="11.68869319811022"><ele>22.0</ele><time>2026-05-02T00:15:23Z</time></trkpt><trkpt lat="45.48455299887296" lon="11.688314120903728"><ele>22.0</ele><time>2026-05-02T00:15:24Z</time></trkpt><trkpt lat="45.484692827355104" lon="11.68793629950966"><ele>21.5</ele><time>2026-05-02T00:15:25Z</time></trkpt><trkpt lat="45.48483328327208" lon="11.687561717524352"><ele>21.0</ele><time>2026-05-02T00:15:26Z</time></trkpt><trkpt lat="45.48497466201488" lon="11.687187390819657"><ele>21.5</ele><time>2026-05-02T00:15:27Z</time></trkpt><trkpt lat="45.4851174628469" lon="11.686813913366128"><ele>22.0</ele><time>2026-05-02T00:15:28Z</time></trkpt><trkpt lat="45.4852586967838" lon="11.686439976782415"><ele>22.0</ele><time>2026-05-02T00:15:29Z</time></trkpt><trkpt lat="45.48539712074408" lon="11.6860666284137"><ele>22.0</ele><time>2026-05-02T00:15:30.001Z</time></trkpt><trkpt lat="45.48553672114429" lon="11.685690533981377"><ele>22.0</ele><time>2026-05-02T00:15:31.001Z</time></trkpt><trkpt lat="45.485675800504154" lon="11.685311652950976"><ele>22.0</ele><time>2026-05-02T00:15:32.001Z</time></trkpt><trkpt lat="45.485817036236085" lon="11.684933866510613"><ele>22.5</ele><time>2026-05-02T00:15:33.001Z</time></trkpt><trkpt lat="45.485960466602926" lon="11.684561921406852"><ele>23.0</ele><time>2026-05-02T00:15:34.001Z</time></trkpt><trkpt lat="45.486102640951096" lon="11.684189334490588"><ele>23.0</ele><time>2026-05-02T00:15:35.001Z</time></trkpt><trkpt lat="45.486244297878585" lon="11.68381163669063"><ele>23.0</ele><time>2026-05-02T00:15:36.001Z</time></trkpt><trkpt lat="45.48638388262942" lon="11.683434141875027"><ele>23.5</ele><time>2026-05-02T00:15:37.001Z</time></trkpt><trkpt lat="45.48652324800845" lon="11.683058742858"><ele>24.0</ele><time>2026-05-02T00:15:38.001Z</time></trkpt><trkpt lat="45.486664201030756" lon="11.682682212259154"><ele>23.0</ele><time>2026-05-02T00:15:39.001Z</time></trkpt><trkpt lat="45.48680419161611" lon="11.682303323529348"><ele>22.0</ele><time>2026-05-02T00:15:40.001Z</time></trkpt><trkpt lat="45.48694434332828" lon="11.68192572352608"><ele>21.5</ele><time>2026-05-02T00:15:41.001Z</time></trkpt><trkpt lat="45.487083388010646" lon="11.681552597038714"><ele>21.0</ele><time>2026-05-02T00:15:42.001Z</time></trkpt><trkpt lat="45.48722264223473" lon="11.681175588794419"><ele>20.5</ele><time>2026-05-02T00:15:43.001Z</time></trkpt><trkpt lat="45.487360009642096" lon="11.680804959502348"><ele>20.0</ele><time>2026-05-02T00:15:44.001Z</time></trkpt><trkpt lat="45.48749639981998" lon="11.680433276108895"><ele>20.0</ele><time>2026-05-02T00:15:45.001Z</time></trkpt><trkpt lat="45.48763172276611" lon="11.680061904520734"><ele>20.0</ele><time>2026-05-02T00:15:46.001Z</time></trkpt><trkpt lat="45.487764095315015" lon="11.679687531899196"><ele>20.5</ele><time>2026-05-02T00:15:47.001Z</time></trkpt><trkpt lat="45.48789016182017" lon="11.679309808122053"><ele>21.0</ele><time>2026-05-02T00:15:48.001Z</time></trkpt><trkpt lat="45.488014371452984" lon="11.67892754371656"><ele>21.5</ele><time>2026-05-02T00:15:49.001Z</time></trkpt><trkpt lat="45.488130548937114" lon="11.678542166209084"><ele>22.0</ele><time>2026-05-02T00:15:50.001Z</time></trkpt><trkpt lat="45.48824145836876" lon="11.67815262483254"><ele>22.0</ele><time>2026-05-02T00:15:51.001Z</time></trkpt><trkpt lat="45.4883490165968" lon="11.677756366751458"><ele>22.0</ele><time>2026-05-02T00:15:52.001Z</time></trkpt><trkpt lat="45.488456240812155" lon="11.677360508333658"><ele>22.0</ele><time>2026-05-02T00:15:53.001Z</time></trkpt><trkpt lat="45.48856317148012" lon="11.676964449556749"><ele>22.0</ele><time>2026-05-02T00:15:54.001Z</time></trkpt><trkpt lat="45.488672677417355" lon="11.676567776488135"><ele>22.5</ele><time>2026-05-02T00:15:55.001Z</time></trkpt><trkpt lat="45.48878222955837" lon="11.67616878434753"><ele>23.0</ele><time>2026-05-02T00:15:56.001Z</time></trkpt><trkpt lat="45.48889408863155" lon="11.67577178080601"><ele>21.5</ele><time>2026-05-02T00:15:57.001Z</time></trkpt><trkpt lat="45.48900734960683" lon="11.675371674474166"><ele>20.0</ele><time>2026-05-02T00:15:58.001Z</time></trkpt><trkpt lat="45.489119776798795" lon="11.674970179366307"><ele>20.0</ele><time>2026-05-02T00:15:59.001Z</time></trkpt><trkpt lat="45.489229639248244" lon="11.674567996052403"><ele>20.0</ele><time>2026-05-02T00:16:00.001Z</time></trkpt><trkpt lat="45.48933720159727" lon="11.674165364914595"><ele>20.0</ele><time>2026-05-02T00:16:01.001Z</time></trkpt><trkpt lat="45.489446800820566" lon="11.673760458863482"><ele>20.0</ele><time>2026-05-02T00:16:02.001Z</time></trkpt><trkpt lat="45.48955617141267" lon="11.673355252823342"><ele>20.0</ele><time>2026-05-02T00:16:03.001Z</time></trkpt><trkpt lat="45.48966691397181" lon="11.672948646825155"><ele>20.0</ele><time>2026-05-02T00:16:04.001Z</time></trkpt><trkpt lat="45.489780607930776" lon="11.672548200323234"><ele>20.5</ele><time>2026-05-02T00:16:05.001Z</time></trkpt><trkpt lat="45.489890829760874" lon="11.672151686923613"><ele>21.0</ele><time>2026-05-02T00:16:06.001Z</time></trkpt><trkpt lat="45.48999917668575" lon="11.671754245450886"><ele>21.0</ele><time>2026-05-02T00:16:07.001Z</time></trkpt><trkpt lat="45.490107444161474" lon="11.671356040323154"><ele>21.0</ele><time>2026-05-02T00:16:08.001Z</time></trkpt><trkpt lat="45.49021596575956" lon="11.670958985040723"><ele>21.0</ele><time>2026-05-02T00:16:09.001Z</time></trkpt><trkpt lat="45.49032472165813" lon="11.670560051431107"><ele>21.0</ele><time>2026-05-02T00:16:10.001Z</time></trkpt><trkpt lat="45.490434811175305" lon="11.67016229962073"><ele>21.0</ele><time>2026-05-02T00:16:11.001Z</time></trkpt><trkpt lat="45.490547545717796" lon="11.669765944725201"><ele>21.0</ele><time>2026-05-02T00:16:12Z</time></trkpt><trkpt lat="45.49065833363883" lon="11.66937045836861"><ele>21.5</ele><time>2026-05-02T00:16:13Z</time></trkpt><trkpt lat="45.490770400695304" lon="11.668972243234698"><ele>22.0</ele><time>2026-05-02T00:16:14Z</time></trkpt><trkpt lat="45.49088148461018" lon="11.668574485109898"><ele>22.5</ele><time>2026-05-02T00:16:15Z</time></trkpt><trkpt lat="45.49099087789413" lon="11.668177230858443"><ele>23.0</ele><time>2026-05-02T00:16:16Z</time></trkpt><trkpt lat="45.49109605456741" lon="11.667786324477472"><ele>23.5</ele><time>2026-05-02T00:16:17Z</time></trkpt><trkpt lat="45.49120257152529" lon="11.667394428749605"><ele>24.0</ele><time>2026-05-02T00:16:18Z</time></trkpt><trkpt lat="45.491309131578696" lon="11.667003237644714"><ele>23.5</ele><time>2026-05-02T00:16:19Z</time></trkpt><trkpt lat="45.491414819323026" lon="11.666613388910594"><ele>23.0</ele><time>2026-05-02T00:16:20Z</time></trkpt><trkpt lat="45.49152235490315" lon="11.666221564453982"><ele>23.5</ele><time>2026-05-02T00:16:21Z</time></trkpt><trkpt lat="45.49162980854894" lon="11.665828234009387"><ele>24.0</ele><time>2026-05-02T00:16:22Z</time></trkpt><trkpt lat="45.49174179669567" lon="11.665435695086025"><ele>24.5</ele><time>2026-05-02T00:16:23Z</time></trkpt><trkpt lat="45.491851415550165" lon="11.665044196737647"><ele>25.0</ele><time>2026-05-02T00:16:24Z</time></trkpt><trkpt lat="45.491958203492366" lon="11.664648293216882"><ele>25.0</ele><time>2026-05-02T00:16:25Z</time></trkpt><trkpt lat="45.49206502860968" lon="11.664253106378709"><ele>25.0</ele><time>2026-05-02T00:16:26Z</time></trkpt><trkpt lat="45.49217239653416" lon="11.66385520916485"><ele>25.5</ele><time>2026-05-02T00:16:27Z</time></trkpt><trkpt lat="45.49227888184007" lon="11.663455835378087"><ele>26.0</ele><time>2026-05-02T00:16:28Z</time></trkpt><trkpt lat="45.49238524520826" lon="11.663059027459761"><ele>25.5</ele><time>2026-05-02T00:16:29Z</time></trkpt><trkpt lat="45.492493261853845" lon="11.662657308606228"><ele>25.0</ele><time>2026-05-02T00:16:30Z</time></trkpt><trkpt lat="45.49260238071672" lon="11.662261916829458"><ele>25.0</ele><time>2026-05-02T00:16:31Z</time></trkpt><trkpt lat="45.492713040715635" lon="11.661871339331125"><ele>25.0</ele><time>2026-05-02T00:16:32Z</time></trkpt><trkpt lat="45.492825249394286" lon="11.661481575509612"><ele>25.5</ele><time>2026-05-02T00:16:33Z</time></trkpt><trkpt lat="45.49293939770151" lon="11.661091848585125"><ele>26.0</ele><time>2026-05-02T00:16:34Z</time></trkpt><trkpt lat="45.49305812060597" lon="11.660704083672925"><ele>26.0</ele><time>2026-05-02T00:16:35Z</time></trkpt><trkpt lat="45.493183822770796" lon="11.660323858917382"><ele>26.0</ele><time>2026-05-02T00:16:36Z</time></trkpt><trkpt lat="45.49331300604134" lon="11.659941494632788"><ele>26.0</ele><time>2026-05-02T00:16:37Z</time></trkpt><trkpt lat="45.49344507080664" lon="11.659561428434642"><ele>26.0</ele><time>2026-05-02T00:16:38Z</time></trkpt><trkpt lat="45.493578421046045" lon="11.65918217003348"><ele>25.5</ele><time>2026-05-02T00:16:39Z</time></trkpt><trkpt lat="45.49371341344044" lon="11.65880204199533"><ele>25.0</ele><time>2026-05-02T00:16:40Z</time></trkpt><trkpt lat="45.49384703930992" lon="11.658420217741805"><ele>24.5</ele><time>2026-05-02T00:16:41Z</time></trkpt><trkpt lat="45.49397663393744" lon="11.658034705058142"><ele>24.0</ele><time>2026-05-02T00:16:42Z</time></trkpt><trkpt lat="45.49410954077986" lon="11.65765104025412"><ele>24.0</ele><time>2026-05-02T00:16:43Z</time></trkpt><trkpt lat="45.49424080297001" lon="11.657276986583181"><ele>24.0</ele><time>2026-05-02T00:16:44Z</time></trkpt><trkpt lat="45.49436679515895" lon="11.656914682247784"><ele>24.0</ele><time>2026-05-02T00:16:45Z</time></trkpt><trkpt lat="45.49449448052326" lon="11.656548710198155"><ele>24.0</ele><time>2026-05-02T00:16:46Z</time></trkpt><trkpt lat="45.49462388986289" lon="11.656175881401666"><ele>24.5</ele><time>2026-05-02T00:16:47Z</time></trkpt><trkpt lat="45.494754843888515" lon="11.655801719292"><ele>25.0</ele><time>2026-05-02T00:16:48Z</time></trkpt><trkpt lat="45.49488769638741" lon="11.65542416207275"><ele>26.0</ele><time>2026-05-02T00:16:49Z</time></trkpt><trkpt lat="45.49502232908917" lon="11.655043638269344"><ele>27.0</ele><time>2026-05-02T00:16:50Z</time></trkpt><trkpt lat="45.49515745061044" lon="11.654661021280274"><ele>27.0</ele><time>2026-05-02T00:16:51Z</time></trkpt><trkpt lat="45.495292265038024" lon="11.65427746068476"><ele>27.0</ele><time>2026-05-02T00:16:52Z</time></trkpt><trkpt lat="45.495426261430126" lon="11.653895610698305"><ele>27.0</ele><time>2026-05-02T00:16:53Z</time></trkpt><trkpt lat="45.49555872350082" lon="11.653519408791752"><ele>27.0</ele><time>2026-05-02T00:16:54Z</time></trkpt><trkpt lat="45.495690263033914" lon="11.653142249449482"><ele>27.0</ele><time>2026-05-02T00:16:55Z</time></trkpt><trkpt lat="45.49582264149192" lon="11.652762680294337"><ele>27.0</ele><time>2026-05-02T00:16:56Z</time></trkpt><trkpt lat="45.49595466366842" lon="11.65238569274274"><ele>27.0</ele><time>2026-05-02T00:16:57Z</time></trkpt><trkpt lat="45.49608501417022" lon="11.652011389115284"><ele>27.0</ele><time>2026-05-02T00:16:58Z</time></trkpt><trkpt lat="45.4962149400974" lon="11.651637653253538"><ele>27.0</ele><time>2026-05-02T00:16:59Z</time></trkpt><trkpt lat="45.49634743735144" lon="11.651263743764543"><ele>27.0</ele><time>2026-05-02T00:17:00Z</time></trkpt><trkpt lat="45.49647729951646" lon="11.650891683812924"><ele>27.0</ele><time>2026-05-02T00:17:01Z</time></trkpt><trkpt lat="45.49660635277656" lon="11.650516726987123"><ele>27.0</ele><time>2026-05-02T00:17:02Z</time></trkpt><trkpt lat="45.49673486555446" lon="11.65014161619104"><ele>27.0</ele><time>2026-05-02T00:17:03Z</time></trkpt><trkpt lat="45.496865960105104" lon="11.649762561025714"><ele>27.0</ele><time>2026-05-02T00:17:04Z</time></trkpt><trkpt lat="45.496995918550496" lon="11.649385236418945"><ele>27.0</ele><time>2026-05-02T00:17:05Z</time></trkpt><trkpt lat="45.49712485166084" lon="11.649005453629808"><ele>27.0</ele><time>2026-05-02T00:17:06Z</time></trkpt><trkpt lat="45.497251218753604" lon="11.648621015017824"><ele>26.0</ele><time>2026-05-02T00:17:07Z</time></trkpt><trkpt lat="45.497377931522585" lon="11.648231683602974"><ele>25.0</ele><time>2026-05-02T00:17:08Z</time></trkpt><trkpt lat="45.49750569517906" lon="11.647845050578368"><ele>25.0</ele><time>2026-05-02T00:17:09Z</time></trkpt><trkpt lat="45.49763577756975" lon="11.647456996786971"><ele>25.0</ele><time>2026-05-02T00:17:10Z</time></trkpt><trkpt lat="45.49776696939351" lon="11.647073738320081"><ele>25.0</ele><time>2026-05-02T00:17:11Z</time></trkpt><trkpt lat="45.497899166489475" lon="11.646688477764075"><ele>25.0</ele><time>2026-05-02T00:17:12Z</time></trkpt><trkpt lat="45.49803198228457" lon="11.646304955395065"><ele>26.0</ele><time>2026-05-02T00:17:13Z</time></trkpt><trkpt lat="45.49816716331911" lon="11.645919620557809"><ele>27.0</ele><time>2026-05-02T00:17:14Z</time></trkpt><trkpt lat="45.498297952462686" lon="11.645534784422345"><ele>26.5</ele><time>2026-05-02T00:17:15Z</time></trkpt><trkpt lat="45.498430216154674" lon="11.645150266614996"><ele>26.0</ele><time>2026-05-02T00:17:16Z</time></trkpt><trkpt lat="45.49856442081431" lon="11.644768317920413"><ele>26.0</ele><time>2026-05-02T00:17:17Z</time></trkpt><trkpt lat="45.49870013334786" lon="11.644391749344933"><ele>26.0</ele><time>2026-05-02T00:17:18Z</time></trkpt><trkpt lat="45.498835531816646" lon="11.644012877654916"><ele>26.0</ele><time>2026-05-02T00:17:19Z</time></trkpt><trkpt lat="45.49896980765426" lon="11.64364000995892"><ele>26.0</ele><time>2026-05-02T00:17:20Z</time></trkpt><trkpt lat="45.49910495271382" lon="11.643263570483594"><ele>26.5</ele><time>2026-05-02T00:17:21Z</time></trkpt><trkpt lat="45.49923726678977" lon="11.642885610720434"><ele>27.0</ele><time>2026-05-02T00:17:22Z</time></trkpt><trkpt lat="45.49937034594577" lon="11.642509225951024"><ele>26.5</ele><time>2026-05-02T00:17:23Z</time></trkpt><trkpt lat="45.499500152153615" lon="11.642134611148247"><ele>26.0</ele><time>2026-05-02T00:17:24Z</time></trkpt><trkpt lat="45.499630103019896" lon="11.641757185228032"><ele>26.0</ele><time>2026-05-02T00:17:25Z</time></trkpt><trkpt lat="45.49976029311589" lon="11.641378820801194"><ele>26.0</ele><time>2026-05-02T00:17:26Z</time></trkpt><trkpt lat="45.499891745381646" lon="11.640997792657394"><ele>25.5</ele><time>2026-05-02T00:17:27Z</time></trkpt><trkpt lat="45.50002407622242" lon="11.640617612385736"><ele>25.0</ele><time>2026-05-02T00:17:28Z</time></trkpt><trkpt lat="45.5001568897131" lon="11.640236238534015"><ele>25.0</ele><time>2026-05-02T00:17:29Z</time></trkpt><trkpt lat="45.50029319968972" lon="11.639852731261326"><ele>25.0</ele><time>2026-05-02T00:17:30Z</time></trkpt><trkpt lat="45.50043158223832" lon="11.639473172086861"><ele>25.0</ele><time>2026-05-02T00:17:31Z</time></trkpt><trkpt lat="45.50057237048642" lon="11.639092548911387"><ele>25.0</ele><time>2026-05-02T00:17:32Z</time></trkpt><trkpt lat="45.50071219633073" lon="11.638715517612264"><ele>25.0</ele><time>2026-05-02T00:17:33Z</time></trkpt><trkpt lat="45.50085275235711" lon="11.638332492523542"><ele>25.0</ele><time>2026-05-02T00:17:34Z</time></trkpt><trkpt lat="45.50099119242198" lon="11.637949324994358"><ele>25.0</ele><time>2026-05-02T00:17:35.001Z</time></trkpt><trkpt lat="45.501125750600565" lon="11.637563648543182"><ele>25.0</ele><time>2026-05-02T00:17:36.001Z</time></trkpt><trkpt lat="45.50125792133254" lon="11.637178559834169"><ele>26.0</ele><time>2026-05-02T00:17:37.001Z</time></trkpt><trkpt lat="45.50138947867327" lon="11.636792009867529"><ele>27.0</ele><time>2026-05-02T00:17:38.001Z</time></trkpt><trkpt lat="45.50151770969118" lon="11.636406136799886"><ele>27.0</ele><time>2026-05-02T00:17:39.001Z</time></trkpt><trkpt lat="45.501642724575944" lon="11.636017515984609"><ele>27.0</ele><time>2026-05-02T00:17:40.001Z</time></trkpt><trkpt lat="45.5017631839893" lon="11.635625557206508"><ele>27.5</ele><time>2026-05-02T00:17:41.001Z</time></trkpt><trkpt lat="45.501879596097815" lon="11.635231653149319"><ele>28.0</ele><time>2026-05-02T00:17:42.001Z</time></trkpt><trkpt lat="45.50199286786286" lon="11.63483404505376"><ele>26.5</ele><time>2026-05-02T00:17:43.001Z</time></trkpt><trkpt lat="45.50210578341128" lon="11.634438417360192"><ele>25.0</ele><time>2026-05-02T00:17:44.001Z</time></trkpt><trkpt lat="45.50222143906416" lon="11.634044980099171"><ele>25.0</ele><time>2026-05-02T00:17:45.001Z</time></trkpt><trkpt lat="45.50234126895057" lon="11.633654524285822"><ele>25.0</ele><time>2026-05-02T00:17:46.001Z</time></trkpt><trkpt lat="45.50245835584821" lon="11.63326441659091"><ele>25.5</ele><time>2026-05-02T00:17:47.001Z</time></trkpt><trkpt lat="45.50257655616851" lon="11.632877128814174"><ele>26.0</ele><time>2026-05-02T00:17:48.001Z</time></trkpt><trkpt lat="45.502688970048325" lon="11.632486617981403"><ele>26.0</ele><time>2026-05-02T00:17:49.001Z</time></trkpt><trkpt lat="45.50280594657283" lon="11.63209717392765"><ele>26.0</ele><time>2026-05-02T00:17:50.001Z</time></trkpt><trkpt lat="45.502918356586314" lon="11.631705069372462"><ele>26.0</ele><time>2026-05-02T00:17:51.001Z</time></trkpt><trkpt lat="45.50303041923437" lon="11.631317506250486"><ele>26.0</ele><time>2026-05-02T00:17:52.001Z</time></trkpt><trkpt lat="45.503143697804816" lon="11.63092820114208"><ele>27.0</ele><time>2026-05-02T00:17:53.001Z</time></trkpt><trkpt lat="45.50325851087007" lon="11.630542948494284"><ele>28.0</ele><time>2026-05-02T00:17:54.001Z</time></trkpt><trkpt lat="45.503367940885234" lon="11.630153560853326"><ele>28.0</ele><time>2026-05-02T00:17:55.001Z</time></trkpt><trkpt lat="45.50347986764883" lon="11.629764208159502"><ele>28.0</ele><time>2026-05-02T00:17:56.001Z</time></trkpt><trkpt lat="45.50358907482579" lon="11.629376315464441"><ele>28.0</ele><time>2026-05-02T00:17:57.001Z</time></trkpt><trkpt lat="45.503697246158495" lon="11.62898813673911"><ele>28.0</ele><time>2026-05-02T00:17:58.001Z</time></trkpt><trkpt lat="45.503806541918244" lon="11.628601601760865"><ele>26.5</ele><time>2026-05-02T00:17:59.001Z</time></trkpt><trkpt lat="45.50391302049734" lon="11.628219196393745"><ele>25.0</ele><time>2026-05-02T00:18:00.001Z</time></trkpt><trkpt lat="45.50402033188647" lon="11.62783387310091"><ele>26.0</ele><time>2026-05-02T00:18:01.001Z</time></trkpt><trkpt lat="45.50412430177678" lon="11.62745196443506"><ele>27.0</ele><time>2026-05-02T00:18:02.001Z</time></trkpt><trkpt lat="45.50422960023039" lon="11.62706552419263"><ele>27.0</ele><time>2026-05-02T00:18:03.001Z</time></trkpt><trkpt lat="45.504334715115796" lon="11.626686784273712"><ele>27.0</ele><time>2026-05-02T00:18:04.001Z</time></trkpt><trkpt lat="45.50443936361239" lon="11.626315651232952"><ele>27.0</ele><time>2026-05-02T00:18:05.001Z</time></trkpt><trkpt lat="45.504537156403316" lon="11.625955984353856"><ele>27.0</ele><time>2026-05-02T00:18:06.001Z</time></trkpt><trkpt lat="45.504642877994215" lon="11.625582654806195"><ele>27.0</ele><time>2026-05-02T00:18:07.001Z</time></trkpt><trkpt lat="45.504749781659385" lon="11.625201680451216"><ele>27.0</ele><time>2026-05-02T00:18:08.001Z</time></trkpt><trkpt lat="45.50486409071234" lon="11.624820106495587"><ele>27.5</ele><time>2026-05-02T00:18:09.001Z</time></trkpt><trkpt lat="45.50497657115216" lon="11.624432705532529"><ele>28.0</ele><time>2026-05-02T00:18:10.001Z</time></trkpt><trkpt lat="45.50509130430784" lon="11.62404041276663"><ele>28.0</ele><time>2026-05-02T00:18:11.001Z</time></trkpt><trkpt lat="45.505205473599624" lon="11.623649024760644"><ele>28.0</ele><time>2026-05-02T00:18:12.001Z</time></trkpt><trkpt lat="45.5053200598564" lon="11.623257356861929"><ele>26.0</ele><time>2026-05-02T00:18:13.001Z</time></trkpt><trkpt lat="45.50543071978638" lon="11.622870311847876"><ele>24.0</ele><time>2026-05-02T00:18:14.001Z</time></trkpt><trkpt lat="45.50554350408715" lon="11.622483797191313"><ele>24.0</ele><time>2026-05-02T00:18:15.001Z</time></trkpt><trkpt lat="45.50565743071627" lon="11.62209677920913"><ele>24.0</ele><time>2026-05-02T00:18:16.001Z</time></trkpt><trkpt lat="45.50576928536789" lon="11.621713822291209"><ele>24.5</ele><time>2026-05-02T00:18:17.001Z</time></trkpt><trkpt lat="45.505881809038854" lon="11.621332330189631"><ele>25.0</ele><time>2026-05-02T00:18:18Z</time></trkpt><trkpt lat="45.50599558205409" lon="11.620949143197015"><ele>25.5</ele><time>2026-05-02T00:18:19Z</time></trkpt><trkpt lat="45.50610753098884" lon="11.620568639492408"><ele>26.0</ele><time>2026-05-02T00:18:20Z</time></trkpt><trkpt lat="45.50621875756426" lon="11.62018917721571"><ele>26.5</ele><time>2026-05-02T00:18:21Z</time></trkpt><trkpt lat="45.50633210480495" lon="11.619811117312924"><ele>27.0</ele><time>2026-05-02T00:18:22Z</time></trkpt><trkpt lat="45.506444029455054" lon="11.619433190407145"><ele>27.0</ele><time>2026-05-02T00:18:23Z</time></trkpt><trkpt lat="45.50655376201501" lon="11.619054862049342"><ele>27.0</ele><time>2026-05-02T00:18:24Z</time></trkpt><trkpt lat="45.506663420859994" lon="11.618675755815936"><ele>26.0</ele><time>2026-05-02T00:18:25Z</time></trkpt><trkpt lat="45.50677219425719" lon="11.618295595637056"><ele>25.0</ele><time>2026-05-02T00:18:26Z</time></trkpt><trkpt lat="45.50688127432107" lon="11.61791813457655"><ele>24.0</ele><time>2026-05-02T00:18:27Z</time></trkpt><trkpt lat="45.506990340529704" lon="11.617536407797989"><ele>23.0</ele><time>2026-05-02T00:18:28Z</time></trkpt><trkpt lat="45.50710055796558" lon="11.617157065514942"><ele>25.5</ele><time>2026-05-02T00:18:29Z</time></trkpt><trkpt lat="45.507212761373076" lon="11.616773496830087"><ele>28.0</ele><time>2026-05-02T00:18:30Z</time></trkpt><trkpt lat="45.50732300953881" lon="11.616379876412914"><ele>28.0</ele><time>2026-05-02T00:18:31Z</time></trkpt><trkpt lat="45.507427688094516" lon="11.615991440424853"><ele>28.0</ele><time>2026-05-02T00:18:32Z</time></trkpt><trkpt lat="45.50752782027436" lon="11.615598187620993"><ele>27.5</ele><time>2026-05-02T00:18:33Z</time></trkpt><trkpt lat="45.50763312924988" lon="11.615202623101938"><ele>27.0</ele><time>2026-05-02T00:18:34Z</time></trkpt><trkpt lat="45.507740219995284" lon="11.614809208380978"><ele>27.0</ele><time>2026-05-02T00:18:35Z</time></trkpt><trkpt lat="45.507851749980524" lon="11.614417575655827"><ele>27.0</ele><time>2026-05-02T00:18:36Z</time></trkpt><trkpt lat="45.507966861317655" lon="11.614027609193103"><ele>27.0</ele><time>2026-05-02T00:18:37Z</time></trkpt><trkpt lat="45.50808357090858" lon="11.613635510612179"><ele>27.0</ele><time>2026-05-02T00:18:38Z</time></trkpt><trkpt lat="45.508199740015534" lon="11.61324216386019"><ele>27.0</ele><time>2026-05-02T00:18:39Z</time></trkpt><trkpt lat="45.50831500008469" lon="11.612847396600403"><ele>27.0</ele><time>2026-05-02T00:18:40Z</time></trkpt><trkpt lat="45.50842954087561" lon="11.612449432864503"><ele>27.5</ele><time>2026-05-02T00:18:41Z</time></trkpt><trkpt lat="45.50854668325785" lon="11.612050173398918"><ele>28.0</ele><time>2026-05-02T00:18:42Z</time></trkpt><trkpt lat="45.50866194861964" lon="11.611650322847751"><ele>27.5</ele><time>2026-05-02T00:18:43Z</time></trkpt><trkpt lat="45.508780790456704" lon="11.611249793842152"><ele>27.0</ele><time>2026-05-02T00:18:44Z</time></trkpt><trkpt lat="45.50890169482775" lon="11.61085053466208"><ele>27.0</ele><time>2026-05-02T00:18:45Z</time></trkpt><trkpt lat="45.509025487629174" lon="11.610455871865293"><ele>27.0</ele><time>2026-05-02T00:18:46Z</time></trkpt><trkpt lat="45.50914897613899" lon="11.610059314780901"><ele>27.0</ele><time>2026-05-02T00:18:47Z</time></trkpt><trkpt lat="45.50926795733377" lon="11.609662638928066"><ele>27.0</ele><time>2026-05-02T00:18:48Z</time></trkpt><trkpt lat="45.509385831518244" lon="11.609268587544214"><ele>27.0</ele><time>2026-05-02T00:18:49Z</time></trkpt><trkpt lat="45.509504041580506" lon="11.608876755662031"><ele>27.0</ele><time>2026-05-02T00:18:50Z</time></trkpt><trkpt lat="45.50962421678381" lon="11.608484072542145"><ele>27.0</ele><time>2026-05-02T00:18:51Z</time></trkpt><trkpt lat="45.50974289200724" lon="11.608092152299928"><ele>27.0</ele><time>2026-05-02T00:18:52Z</time></trkpt><trkpt lat="45.5098611393434" lon="11.60769893256255"><ele>27.0</ele><time>2026-05-02T00:18:53Z</time></trkpt><trkpt lat="45.5099777377274" lon="11.607306805082482"><ele>27.0</ele><time>2026-05-02T00:18:54Z</time></trkpt><trkpt lat="45.510092836364784" lon="11.606912304006675"><ele>27.0</ele><time>2026-05-02T00:18:55Z</time></trkpt><trkpt lat="45.5102053197506" lon="11.606520517114417"><ele>27.0</ele><time>2026-05-02T00:18:56Z</time></trkpt><trkpt lat="45.51031518952826" lon="11.606121916651704"><ele>27.0</ele><time>2026-05-02T00:18:57Z</time></trkpt><trkpt lat="45.510428785196005" lon="11.605730913720523"><ele>27.0</ele><time>2026-05-02T00:18:58Z</time></trkpt><trkpt lat="45.5105436975826" lon="11.605330813837133"><ele>27.0</ele><time>2026-05-02T00:18:59Z</time></trkpt><trkpt lat="45.51065641214279" lon="11.604939002395028"><ele>27.0</ele><time>2026-05-02T00:19:00Z</time></trkpt><trkpt lat="45.51077134236575" lon="11.604544309581016"><ele>27.5</ele><time>2026-05-02T00:19:01Z</time></trkpt><trkpt lat="45.51088715296491" lon="11.60414945877073"><ele>28.0</ele><time>2026-05-02T00:19:02Z</time></trkpt><trkpt lat="45.51100179924305" lon="11.603756387344855"><ele>28.5</ele><time>2026-05-02T00:19:03Z</time></trkpt><trkpt lat="45.51111759253804" lon="11.603363892454956"><ele>29.0</ele><time>2026-05-02T00:19:04Z</time></trkpt><trkpt lat="45.51123414955132" lon="11.602969435314893"><ele>28.5</ele><time>2026-05-02T00:19:05Z</time></trkpt><trkpt lat="45.51135292303948" lon="11.602577405720398"><ele>28.0</ele><time>2026-05-02T00:19:06Z</time></trkpt><trkpt lat="45.511471305967966" lon="11.602183174546468"><ele>29.0</ele><time>2026-05-02T00:19:07Z</time></trkpt><trkpt lat="45.51158647681834" lon="11.60178798709628"><ele>30.0</ele><time>2026-05-02T00:19:08Z</time></trkpt><trkpt lat="45.51170137529089" lon="11.601392164698723"><ele>29.5</ele><time>2026-05-02T00:19:09Z</time></trkpt><trkpt lat="45.511816463953906" lon="11.600993588415463"><ele>29.0</ele><time>2026-05-02T00:19:10Z</time></trkpt><trkpt lat="45.51193086595612" lon="11.600594721452625"><ele>29.0</ele><time>2026-05-02T00:19:11Z</time></trkpt><trkpt lat="45.51204413986472" lon="11.600193504968708"><ele>29.0</ele><time>2026-05-02T00:19:12Z</time></trkpt><trkpt lat="45.51215723884132" lon="11.599795361495133"><ele>29.0</ele><time>2026-05-02T00:19:13Z</time></trkpt><trkpt lat="45.512271316402" lon="11.599396317913268"><ele>29.0</ele><time>2026-05-02T00:19:14Z</time></trkpt><trkpt lat="45.51238717675855" lon="11.5989984900948"><ele>29.5</ele><time>2026-05-02T00:19:15Z</time></trkpt><trkpt lat="45.512502418268845" lon="11.598602664928992"><ele>30.0</ele><time>2026-05-02T00:19:16Z</time></trkpt><trkpt lat="45.51261743441263" lon="11.598207834680343"><ele>29.5</ele><time>2026-05-02T00:19:17Z</time></trkpt><trkpt lat="45.51273086536474" lon="11.597810090085652"><ele>29.0</ele><time>2026-05-02T00:19:18Z</time></trkpt><trkpt lat="45.51284534182193" lon="11.597415835502334"><ele>27.5</ele><time>2026-05-02T00:19:19Z</time></trkpt><trkpt lat="45.51296126218085" lon="11.597024098281217"><ele>26.0</ele><time>2026-05-02T00:19:20Z</time></trkpt><trkpt lat="45.51307741128907" lon="11.596632671265672"><ele>26.0</ele><time>2026-05-02T00:19:21Z</time></trkpt><trkpt lat="45.51319763414336" lon="11.596245521682144"><ele>26.0</ele><time>2026-05-02T00:19:22Z</time></trkpt><trkpt lat="45.51332402588149" lon="11.595859990953638"><ele>26.0</ele><time>2026-05-02T00:19:23Z</time></trkpt><trkpt lat="45.51344880170776" lon="11.595477340561972"><ele>26.0</ele><time>2026-05-02T00:19:24Z</time></trkpt><trkpt lat="45.51356830215007" lon="11.59508697187389"><ele>25.5</ele><time>2026-05-02T00:19:25Z</time></trkpt><trkpt lat="45.51368355956243" lon="11.594690780522289"><ele>25.0</ele><time>2026-05-02T00:19:26Z</time></trkpt><trkpt lat="45.513794493338295" lon="11.594294325675234"><ele>26.0</ele><time>2026-05-02T00:19:27Z</time></trkpt><trkpt lat="45.5139095132863" lon="11.593897369494483"><ele>27.0</ele><time>2026-05-02T00:19:28Z</time></trkpt><trkpt lat="45.514019624721136" lon="11.593500218979685"><ele>27.0</ele><time>2026-05-02T00:19:29Z</time></trkpt><trkpt lat="45.51413016448931" lon="11.593130327292638"><ele>27.0</ele><time>2026-05-02T00:19:30Z</time></trkpt><trkpt lat="45.5142406222186" lon="11.592754601867371"><ele>26.5</ele><time>2026-05-02T00:19:31Z</time></trkpt><trkpt lat="45.514351908555355" lon="11.592375759501454"><ele>26.0</ele><time>2026-05-02T00:19:32Z</time></trkpt><trkpt lat="45.514460603737945" lon="11.591992498812708"><ele>25.5</ele><time>2026-05-02T00:19:33Z</time></trkpt><trkpt lat="45.514572726592576" lon="11.591605080762083"><ele>25.0</ele><time>2026-05-02T00:19:34Z</time></trkpt><trkpt lat="45.5146860092899" lon="11.591213692098234"><ele>25.5</ele><time>2026-05-02T00:19:35Z</time></trkpt><trkpt lat="45.51480473795101" lon="11.59082240528487"><ele>26.0</ele><time>2026-05-02T00:19:36Z</time></trkpt><trkpt lat="45.514916046309764" lon="11.590428349873442"><ele>26.5</ele><time>2026-05-02T00:19:37Z</time></trkpt><trkpt lat="45.51502979746429" lon="11.59003440022088"><ele>27.0</ele><time>2026-05-02T00:19:38Z</time></trkpt><trkpt lat="45.5151459247261" lon="11.589636582862935"><ele>27.0</ele><time>2026-05-02T00:19:39Z</time></trkpt><trkpt lat="45.51525876928887" lon="11.589242120767615"><ele>27.0</ele><time>2026-05-02T00:19:40Z</time></trkpt><trkpt lat="45.51537302873037" lon="11.58884672923749"><ele>27.5</ele><time>2026-05-02T00:19:41Z</time></trkpt><trkpt lat="45.51548710127474" lon="11.588449212504155"><ele>28.0</ele><time>2026-05-02T00:19:42Z</time></trkpt><trkpt lat="45.51560106485345" lon="11.588052207741235"><ele>27.5</ele><time>2026-05-02T00:19:43Z</time></trkpt><trkpt lat="45.515715097763334" lon="11.58766057507117"><ele>27.0</ele><time>2026-05-02T00:19:44Z</time></trkpt><trkpt lat="45.51582932686197" lon="11.587273689934937"><ele>26.5</ele><time>2026-05-02T00:19:45Z</time></trkpt><trkpt lat="45.51594378773523" lon="11.586881232695857"><ele>26.0</ele><time>2026-05-02T00:19:46Z</time></trkpt><trkpt lat="45.51605979564385" lon="11.586494420948833"><ele>27.5</ele><time>2026-05-02T00:19:47.001Z</time></trkpt><trkpt lat="45.516175265903634" lon="11.58610497409295"><ele>29.0</ele><time>2026-05-02T00:19:48.001Z</time></trkpt><trkpt lat="45.5162885063077" lon="11.585715838466196"><ele>29.5</ele><time>2026-05-02T00:19:49.001Z</time></trkpt><trkpt lat="45.51639750090391" lon="11.585327081727439"><ele>30.0</ele><time>2026-05-02T00:19:50.001Z</time></trkpt><trkpt lat="45.51651263374017" lon="11.584941067581834"><ele>30.0</ele><time>2026-05-02T00:19:51.001Z</time></trkpt><trkpt lat="45.516618500809116" lon="11.584549624896937"><ele>30.0</ele><time>2026-05-02T00:19:52.001Z</time></trkpt><trkpt lat="45.516721357684965" lon="11.584154574111922"><ele>29.5</ele><time>2026-05-02T00:19:53.001Z</time></trkpt><trkpt lat="45.5168016392756" lon="11.583754149533858"><ele>29.0</ele><time>2026-05-02T00:19:54.001Z</time></trkpt><trkpt lat="45.51689214766656" lon="11.583348666330805"><ele>29.0</ele><time>2026-05-02T00:19:55.001Z</time></trkpt><trkpt lat="45.516966506950546" lon="11.582933454174729"><ele>29.0</ele><time>2026-05-02T00:19:56.001Z</time></trkpt><trkpt lat="45.517027867896445" lon="11.58251210449201"><ele>28.0</ele><time>2026-05-02T00:19:57.001Z</time></trkpt><trkpt lat="45.51707832870841" lon="11.582089021952521"><ele>27.0</ele><time>2026-05-02T00:19:58.001Z</time></trkpt><trkpt lat="45.51711980216524" lon="11.581661543539203"><ele>27.0</ele><time>2026-05-02T00:19:59.001Z</time></trkpt><trkpt lat="45.51715383080345" lon="11.581228888481736"><ele>27.0</ele><time>2026-05-02T00:20:00.001Z</time></trkpt><trkpt lat="45.51718186747895" lon="11.580800452480021"><ele>27.0</ele><time>2026-05-02T00:20:01.001Z</time></trkpt><trkpt lat="45.51719591463842" lon="11.580368338700792"><ele>27.0</ele><time>2026-05-02T00:20:02.001Z</time></trkpt><trkpt lat="45.51719742841969" lon="11.579938223395821"><ele>27.5</ele><time>2026-05-02T00:20:03.001Z</time></trkpt><trkpt lat="45.51719193061563" lon="11.579508361440547"><ele>28.0</ele><time>2026-05-02T00:20:04.001Z</time></trkpt><trkpt lat="45.51717480524064" lon="11.579078457333013"><ele>27.5</ele><time>2026-05-02T00:20:05.001Z</time></trkpt><trkpt lat="45.51714788985445" lon="11.578651007886988"><ele>27.0</ele><time>2026-05-02T00:20:06.001Z</time></trkpt><trkpt lat="45.517117122012756" lon="11.57821985966228"><ele>27.5</ele><time>2026-05-02T00:20:07.001Z</time></trkpt><trkpt lat="45.51708842337491" lon="11.57778932053483"><ele>28.0</ele><time>2026-05-02T00:20:08.001Z</time></trkpt><trkpt lat="45.517056597028066" lon="11.577358014979689"><ele>28.0</ele><time>2026-05-02T00:20:09.001Z</time></trkpt><trkpt lat="45.51702426098326" lon="11.576923723191651"><ele>28.0</ele><time>2026-05-02T00:20:10.001Z</time></trkpt><trkpt lat="45.5169961017385" lon="11.57649382310677"><ele>27.0</ele><time>2026-05-02T00:20:11.001Z</time></trkpt><trkpt lat="45.5169655911844" lon="11.576060677872114"><ele>26.0</ele><time>2026-05-02T00:20:12.001Z</time></trkpt><trkpt lat="45.5169345991214" lon="11.575630392421749"><ele>26.5</ele><time>2026-05-02T00:20:13.001Z</time></trkpt><trkpt lat="45.51690215191465" lon="11.575200157155473"><ele>27.0</ele><time>2026-05-02T00:20:14.001Z</time></trkpt><trkpt lat="45.51687172779277" lon="11.574771541413899"><ele>28.0</ele><time>2026-05-02T00:20:15.001Z</time></trkpt><trkpt lat="45.51684312894761" lon="11.574341730831515"><ele>29.0</ele><time>2026-05-02T00:20:16.001Z</time></trkpt><trkpt lat="45.51681366683787" lon="11.573911997706514"><ele>29.0</ele><time>2026-05-02T00:20:17.001Z</time></trkpt><trkpt lat="45.51678292790497" lon="11.573485012016478"><ele>29.0</ele><time>2026-05-02T00:20:18.001Z</time></trkpt><trkpt lat="45.516753408225256" lon="11.573060581134316"><ele>29.5</ele><time>2026-05-02T00:20:19.001Z</time></trkpt><trkpt lat="45.51672147615696" lon="11.572636569015547"><ele>30.0</ele><time>2026-05-02T00:20:20.001Z</time></trkpt><trkpt lat="45.51668877815709" lon="11.572213313655492"><ele>30.5</ele><time>2026-05-02T00:20:21.001Z</time></trkpt><trkpt lat="45.51665707719133" lon="11.571787629807663"><ele>31.0</ele><time>2026-05-02T00:20:22.001Z</time></trkpt><trkpt lat="45.51662802161983" lon="11.571361737346127"><ele>31.0</ele><time>2026-05-02T00:20:23Z</time></trkpt><trkpt lat="45.516594817573306" lon="11.57093339979294"><ele>31.0</ele><time>2026-05-02T00:20:24Z</time></trkpt><trkpt lat="45.51656101733582" lon="11.570496825378415"><ele>31.0</ele><time>2026-05-02T00:20:25Z</time></trkpt><trkpt lat="45.516526129890764" lon="11.570066584894462"><ele>31.0</ele><time>2026-05-02T00:20:26Z</time></trkpt><trkpt lat="45.51648788617694" lon="11.56963998534299"><ele>31.0</ele><time>2026-05-02T00:20:27Z</time></trkpt><trkpt lat="45.51644866688156" lon="11.569207072313615"><ele>31.0</ele><time>2026-05-02T00:20:28Z</time></trkpt><trkpt lat="45.51640195664277" lon="11.568779302811627"><ele>30.0</ele><time>2026-05-02T00:20:29Z</time></trkpt><trkpt lat="45.51635361619588" lon="11.568351829968192"><ele>29.0</ele><time>2026-05-02T00:20:30Z</time></trkpt><trkpt lat="45.516298632595635" lon="11.567923868096491"><ele>29.0</ele><time>2026-05-02T00:20:31Z</time></trkpt><trkpt lat="45.51624809526804" lon="11.567495560819847"><ele>29.0</ele><time>2026-05-02T00:20:32Z</time></trkpt><trkpt lat="45.51620378072447" lon="11.567065395291108"><ele>30.0</ele><time>2026-05-02T00:20:33Z</time></trkpt><trkpt lat="45.516160648535795" lon="11.56663432809408"><ele>31.0</ele><time>2026-05-02T00:20:34Z</time></trkpt><trkpt lat="45.51612280920396" lon="11.56620219984654"><ele>31.0</ele><time>2026-05-02T00:20:35Z</time></trkpt><trkpt lat="45.516091724257194" lon="11.565772751404603"><ele>31.0</ele><time>2026-05-02T00:20:36Z</time></trkpt><trkpt lat="45.516058566186246" lon="11.565341071292915"><ele>31.0</ele><time>2026-05-02T00:20:37Z</time></trkpt><trkpt lat="45.51602408750846" lon="11.56491440622667"><ele>31.0</ele><time>2026-05-02T00:20:38Z</time></trkpt><trkpt lat="45.51599326408001" lon="11.564488147286067"><ele>31.0</ele><time>2026-05-02T00:20:39Z</time></trkpt><trkpt lat="45.51596453176695" lon="11.564063945735539"><ele>31.0</ele><time>2026-05-02T00:20:40Z</time></trkpt><trkpt lat="45.51593891255623" lon="11.563640694565262"><ele>30.0</ele><time>2026-05-02T00:20:41Z</time></trkpt><trkpt lat="45.5159166953789" lon="11.563214201408087"><ele>29.0</ele><time>2026-05-02T00:20:42Z</time></trkpt><trkpt lat="45.51589776758856" lon="11.562792743712846"><ele>29.0</ele><time>2026-05-02T00:20:43Z</time></trkpt><trkpt lat="45.51587663629636" lon="11.562369243982086"><ele>29.0</ele><time>2026-05-02T00:20:44Z</time></trkpt><trkpt lat="45.51586010465104" lon="11.561945789249751"><ele>30.0</ele><time>2026-05-02T00:20:45Z</time></trkpt><trkpt lat="45.515839792475795" lon="11.561522979422888"><ele>31.0</ele><time>2026-05-02T00:20:46Z</time></trkpt><trkpt lat="45.51582086375026" lon="11.561098864069008"><ele>31.5</ele><time>2026-05-02T00:20:47Z</time></trkpt><trkpt lat="45.515802481620845" lon="11.560674964840068"><ele>32.0</ele><time>2026-05-02T00:20:48Z</time></trkpt><trkpt lat="45.515789361130274" lon="11.560253052022777"><ele>31.5</ele><time>2026-05-02T00:20:49Z</time></trkpt><trkpt lat="45.515777912269016" lon="11.559829176035635"><ele>31.0</ele><time>2026-05-02T00:20:50Z</time></trkpt><trkpt lat="45.51577916933077" lon="11.559405883472111"><ele>31.0</ele><time>2026-05-02T00:20:51Z</time></trkpt><trkpt lat="45.515790271523905" lon="11.55898055473954"><ele>31.0</ele><time>2026-05-02T00:20:52Z</time></trkpt><trkpt lat="45.51580768838412" lon="11.558557905039297"><ele>31.5</ele><time>2026-05-02T00:20:53Z</time></trkpt><trkpt lat="45.5158228777025" lon="11.558134248147732"><ele>32.0</ele><time>2026-05-02T00:20:54Z</time></trkpt><trkpt lat="45.51583669364572" lon="11.557712772845507"><ele>33.5</ele><time>2026-05-02T00:20:55Z</time></trkpt><trkpt lat="45.51585424236696" lon="11.557294676911097"><ele>35.0</ele><time>2026-05-02T00:20:56Z</time></trkpt><trkpt lat="45.51587206187136" lon="11.556877237403917"><ele>36.5</ele><time>2026-05-02T00:20:57Z</time></trkpt><trkpt lat="45.515888506265014" lon="11.5564589540549"><ele>38.0</ele><time>2026-05-02T00:20:58Z</time></trkpt><trkpt lat="45.51589784059098" lon="11.556041432026671"><ele>38.5</ele><time>2026-05-02T00:20:59Z</time></trkpt><trkpt lat="45.5158987375582" lon="11.55562533098726"><ele>39.0</ele><time>2026-05-02T00:21:00Z</time></trkpt><trkpt lat="45.51589366117951" lon="11.55521203601678"><ele>38.0</ele><time>2026-05-02T00:21:01Z</time></trkpt><trkpt lat="45.51588720443012" lon="11.554796260240225"><ele>37.0</ele><time>2026-05-02T00:21:02Z</time></trkpt><trkpt lat="45.51587525150371" lon="11.554384946817832"><ele>36.5</ele><time>2026-05-02T00:21:03Z</time></trkpt><trkpt lat="45.5158564037346" lon="11.553971497323962"><ele>36.0</ele><time>2026-05-02T00:21:04Z</time></trkpt><trkpt lat="45.5158350760596" lon="11.553556556443487"><ele>36.0</ele><time>2026-05-02T00:21:05Z</time></trkpt><trkpt lat="45.51581259718254" lon="11.553146653475842"><ele>36.0</ele><time>2026-05-02T00:21:06Z</time></trkpt><trkpt lat="45.5157927721189" lon="11.552754053254466"><ele>36.5</ele><time>2026-05-02T00:21:07Z</time></trkpt><trkpt lat="45.515783598981415" lon="11.55235664184788"><ele>37.0</ele><time>2026-05-02T00:21:08Z</time></trkpt><trkpt lat="45.515778050892735" lon="11.551951146549621"><ele>37.5</ele><time>2026-05-02T00:21:09Z</time></trkpt><trkpt lat="45.515778823052386" lon="11.551540859227472"><ele>38.0</ele><time>2026-05-02T00:21:10Z</time></trkpt><trkpt lat="45.51578778939872" lon="11.551127977073186"><ele>39.5</ele><time>2026-05-02T00:21:11Z</time></trkpt><trkpt lat="45.51579974397185" lon="11.550709145775041"><ele>41.0</ele><time>2026-05-02T00:21:12Z</time></trkpt><trkpt lat="45.515817369593236" lon="11.550286035975303"><ele>43.5</ele><time>2026-05-02T00:21:13Z</time></trkpt><trkpt lat="45.515841399268204" lon="11.549861143695262"><ele>46.0</ele><time>2026-05-02T00:21:14Z</time></trkpt><trkpt lat="45.515870245536775" lon="11.549438617312825"><ele>49.0</ele><time>2026-05-02T00:21:15Z</time></trkpt><trkpt lat="45.5159022215233" lon="11.549014921128979"><ele>52.0</ele><time>2026-05-02T00:21:16Z</time></trkpt><trkpt lat="45.51593465935806" lon="11.548593295202094"><ele>60.0</ele><time>2026-05-02T00:21:17Z</time></trkpt><trkpt lat="45.51596721907319" lon="11.548170523075136"><ele>68.0</ele><time>2026-05-02T00:21:18Z</time></trkpt><trkpt lat="45.51600013057852" lon="11.547746649365715"><ele>79.5</ele><time>2026-05-02T00:21:19Z</time></trkpt><trkpt lat="45.51603185203789" lon="11.54732215891317"><ele>91.0</ele><time>2026-05-02T00:21:20Z</time></trkpt><trkpt lat="45.51606283932452" lon="11.546895967906018"><ele>104.0</ele><time>2026-05-02T00:21:21Z</time></trkpt><trkpt lat="45.51609242303944" lon="11.546467340082534"><ele>117.0</ele><time>2026-05-02T00:21:22Z</time></trkpt><trkpt lat="45.51612220370753" lon="11.54603576639989"><ele>127.5</ele><time>2026-05-02T00:21:23Z</time></trkpt><trkpt lat="45.51615235330443" lon="11.54560092507738"><ele>138.0</ele><time>2026-05-02T00:21:24Z</time></trkpt><trkpt lat="45.516181109579236" lon="11.545162816267355"><ele>140.5</ele><time>2026-05-02T00:21:25Z</time></trkpt><trkpt lat="45.51621083095654" lon="11.544722406326713"><ele>143.0</ele><time>2026-05-02T00:21:26Z</time></trkpt><trkpt lat="45.516238885830994" lon="11.54427802068086"><ele>132.5</ele><time>2026-05-02T00:21:27Z</time></trkpt><trkpt lat="45.51626637458268" lon="11.543832767402327"><ele>122.0</ele><time>2026-05-02T00:21:28Z</time></trkpt><trkpt lat="45.51630656184429" lon="11.543479283847219"><ele>109.0</ele><time>2026-05-02T00:21:29Z</time></trkpt><trkpt lat="45.51633743905308" lon="11.54306053220651"><ele>96.0</ele><time>2026-05-02T00:21:30Z</time></trkpt><trkpt lat="45.51636563888739" lon="11.542644642486326"><ele>85.0</ele><time>2026-05-02T00:21:31Z</time></trkpt><trkpt lat="45.51639457646901" lon="11.542230277764892"><ele>74.0</ele><time>2026-05-02T00:21:32Z</time></trkpt><trkpt lat="45.51642214136849" lon="11.541819374636754"><ele>67.0</ele><time>2026-05-02T00:21:33Z</time></trkpt><trkpt lat="45.51644956927894" lon="11.541408398206697"><ele>60.0</ele><time>2026-05-02T00:21:34Z</time></trkpt><trkpt lat="45.516590998784956" lon="11.54084526875484"><ele>52.5</ele><time>2026-05-02T00:21:35Z</time></trkpt><trkpt lat="45.516588469212344" lon="11.540454157335656"><ele>45.0</ele><time>2026-05-02T00:21:36Z</time></trkpt><trkpt lat="45.51661265486181" lon="11.540043724911358"><ele>42.5</ele><time>2026-05-02T00:21:37Z</time></trkpt><trkpt lat="45.51663839524676" lon="11.539620635153879"><ele>40.0</ele><time>2026-05-02T00:21:38Z</time></trkpt><trkpt lat="45.51666697564933" lon="11.539201447317373"><ele>40.0</ele><time>2026-05-02T00:21:39Z</time></trkpt><trkpt lat="45.51669711820629" lon="11.538778610277069"><ele>40.0</ele><time>2026-05-02T00:21:40Z</time></trkpt><trkpt lat="45.51672894402225" lon="11.538357929789516"><ele>39.0</ele><time>2026-05-02T00:21:41Z</time></trkpt><trkpt lat="45.51676135816834" lon="11.537934935974953"><ele>38.0</ele><time>2026-05-02T00:21:42Z</time></trkpt><trkpt lat="45.51679354975947" lon="11.537511914355697"><ele>38.0</ele><time>2026-05-02T00:21:43Z</time></trkpt><trkpt lat="45.516826100421774" lon="11.537088602121221"><ele>38.0</ele><time>2026-05-02T00:21:44Z</time></trkpt><trkpt lat="45.5168605298675" lon="11.536668551776891"><ele>48.0</ele><time>2026-05-02T00:21:45Z</time></trkpt><trkpt lat="45.516893287893296" lon="11.536249820546683"><ele>58.0</ele><time>2026-05-02T00:21:46Z</time></trkpt><trkpt lat="45.5169251035872" lon="11.535829214620904"><ele>67.0</ele><time>2026-05-02T00:21:47Z</time></trkpt><trkpt lat="45.51695732853219" lon="11.535408983323354"><ele>76.0</ele><time>2026-05-02T00:21:48Z</time></trkpt><trkpt lat="45.51698910300392" lon="11.53498606546955"><ele>74.0</ele><time>2026-05-02T00:21:49Z</time></trkpt><trkpt lat="45.51702072885269" lon="11.534561834083396"><ele>72.0</ele><time>2026-05-02T00:21:50Z</time></trkpt><trkpt lat="45.51705248867902" lon="11.534138367649401"><ele>61.5</ele><time>2026-05-02T00:21:51Z</time></trkpt><trkpt lat="45.517083367737406" lon="11.533713416231096"><ele>51.0</ele><time>2026-05-02T00:21:52Z</time></trkpt><trkpt lat="45.51711565189403" lon="11.533288596901565"><ele>42.0</ele><time>2026-05-02T00:21:53Z</time></trkpt><trkpt lat="45.51714761841334" lon="11.53286667972815"><ele>33.0</ele><time>2026-05-02T00:21:54Z</time></trkpt><trkpt lat="45.517184648944834" lon="11.532463710297593"><ele>31.5</ele><time>2026-05-02T00:21:55Z</time></trkpt><trkpt lat="45.51721939010243" lon="11.532052094439344"><ele>30.0</ele><time>2026-05-02T00:21:56Z</time></trkpt><trkpt lat="45.51724615811016" lon="11.531627270989762"><ele>29.0</ele><time>2026-05-02T00:21:57Z</time></trkpt><trkpt lat="45.51728383290803" lon="11.531211489390074"><ele>28.0</ele><time>2026-05-02T00:21:58Z</time></trkpt><trkpt lat="45.51732630159137" lon="11.53079976774725"><ele>29.0</ele><time>2026-05-02T00:21:59Z</time></trkpt><trkpt lat="45.517370134207994" lon="11.530389179138984"><ele>30.0</ele><time>2026-05-02T00:22:00Z</time></trkpt><trkpt lat="45.51742140960093" lon="11.529979965453641"><ele>30.0</ele><time>2026-05-02T00:22:01.001Z</time></trkpt><trkpt lat="45.51748049229998" lon="11.529573818396376"><ele>30.0</ele><time>2026-05-02T00:22:02.001Z</time></trkpt><trkpt lat="45.51754320559773" lon="11.529163639731118"><ele>30.5</ele><time>2026-05-02T00:22:03.001Z</time></trkpt><trkpt lat="45.51760976605946" lon="11.528750267030063"><ele>31.0</ele><time>2026-05-02T00:22:04.001Z</time></trkpt><trkpt lat="45.51767934316586" lon="11.528335062089894"><ele>31.0</ele><time>2026-05-02T00:22:05.001Z</time></trkpt><trkpt lat="45.517746043838095" lon="11.527919644646975"><ele>31.0</ele><time>2026-05-02T00:22:06.001Z</time></trkpt><trkpt lat="45.51781162565891" lon="11.527504040869122"><ele>30.0</ele><time>2026-05-02T00:22:07.001Z</time></trkpt><trkpt lat="45.51787173353091" lon="11.52708645805764"><ele>29.0</ele><time>2026-05-02T00:22:08.001Z</time></trkpt><trkpt lat="45.517926147117926" lon="11.526665709152898"><ele>29.5</ele><time>2026-05-02T00:22:09.001Z</time></trkpt><trkpt lat="45.51797816159718" lon="11.526243927656322"><ele>30.0</ele><time>2026-05-02T00:22:10.001Z</time></trkpt><trkpt lat="45.51802198297584" lon="11.525819534382837"><ele>29.5</ele><time>2026-05-02T00:22:11.001Z</time></trkpt><trkpt lat="45.51805732212546" lon="11.525393140356131"><ele>29.0</ele><time>2026-05-02T00:22:12.001Z</time></trkpt><trkpt lat="45.51809086148391" lon="11.524967381303737"><ele>29.0</ele><time>2026-05-02T00:22:13.001Z</time></trkpt><trkpt lat="45.51812080825155" lon="11.524537800124259"><ele>29.0</ele><time>2026-05-02T00:22:14.001Z</time></trkpt><trkpt lat="45.51814438896559" lon="11.524104018171984"><ele>29.0</ele><time>2026-05-02T00:22:15.001Z</time></trkpt><trkpt lat="45.518160187825764" lon="11.523670481672582"><ele>29.0</ele><time>2026-05-02T00:22:16.001Z</time></trkpt><trkpt lat="45.51817190362682" lon="11.52323456027695"><ele>29.5</ele><time>2026-05-02T00:22:17.001Z</time></trkpt><trkpt lat="45.5181804747553" lon="11.522796936440006"><ele>30.0</ele><time>2026-05-02T00:22:18.001Z</time></trkpt><trkpt lat="45.51818326591334" lon="11.522357501256632"><ele>30.5</ele><time>2026-05-02T00:22:19.001Z</time></trkpt><trkpt lat="45.51818143134533" lon="11.521918584149457"><ele>31.0</ele><time>2026-05-02T00:22:20.001Z</time></trkpt><trkpt lat="45.51817727194232" lon="11.52148029597059"><ele>31.5</ele><time>2026-05-02T00:22:21.001Z</time></trkpt><trkpt lat="45.51817711749178" lon="11.52104648845344"><ele>32.0</ele><time>2026-05-02T00:22:22.001Z</time></trkpt><trkpt lat="45.51817184210696" lon="11.520613329904533"><ele>31.5</ele><time>2026-05-02T00:22:23.001Z</time></trkpt><trkpt lat="45.518168746482864" lon="11.520185656447874"><ele>31.0</ele><time>2026-05-02T00:22:24.001Z</time></trkpt><trkpt lat="45.5181664905911" lon="11.519763676621189"><ele>29.5</ele><time>2026-05-02T00:22:25.001Z</time></trkpt><trkpt lat="45.51816395026113" lon="11.519346517623115"><ele>28.0</ele><time>2026-05-02T00:22:26.001Z</time></trkpt><trkpt lat="45.51816113470682" lon="11.518928190095453"><ele>28.0</ele><time>2026-05-02T00:22:27.001Z</time></trkpt><trkpt lat="45.518157185352095" lon="11.518509931337704"><ele>28.0</ele><time>2026-05-02T00:22:28.001Z</time></trkpt><trkpt lat="45.518153535604355" lon="11.518090517953972"><ele>29.0</ele><time>2026-05-02T00:22:29Z</time></trkpt><trkpt lat="45.51814942577342" lon="11.517666635506524"><ele>30.0</ele><time>2026-05-02T00:22:30Z</time></trkpt><trkpt lat="45.518147233707474" lon="11.517245435198088"><ele>29.0</ele><time>2026-05-02T00:22:31Z</time></trkpt><trkpt lat="45.5181443096303" lon="11.516818437845666"><ele>28.0</ele><time>2026-05-02T00:22:32Z</time></trkpt><trkpt lat="45.518140673283575" lon="11.516394249419843"><ele>28.5</ele><time>2026-05-02T00:22:33Z</time></trkpt><trkpt lat="45.51813860720378" lon="11.515965888923189"><ele>29.0</ele><time>2026-05-02T00:22:34Z</time></trkpt><trkpt lat="45.518138248499675" lon="11.515540437143702"><ele>29.0</ele><time>2026-05-02T00:22:35Z</time></trkpt><trkpt lat="45.518134727304805" lon="11.515113136335078"><ele>29.0</ele><time>2026-05-02T00:22:36Z</time></trkpt><trkpt lat="45.518131866755695" lon="11.514690275182597"><ele>30.5</ele><time>2026-05-02T00:22:37Z</time></trkpt><trkpt lat="45.518129237531404" lon="11.514263431504762"><ele>32.0</ele><time>2026-05-02T00:22:38Z</time></trkpt><trkpt lat="45.518126575735124" lon="11.513839165336323"><ele>33.0</ele><time>2026-05-02T00:22:39Z</time></trkpt><trkpt lat="45.518124061469955" lon="11.513414879333544"><ele>34.0</ele><time>2026-05-02T00:22:40Z</time></trkpt><trkpt lat="45.51812133970114" lon="11.512991471829034"><ele>33.0</ele><time>2026-05-02T00:22:41Z</time></trkpt><trkpt lat="45.518120722056246" lon="11.512565246803002"><ele>32.0</ele><time>2026-05-02T00:22:42Z</time></trkpt><trkpt lat="45.51811979443887" lon="11.51214105936481"><ele>31.5</ele><time>2026-05-02T00:22:43Z</time></trkpt><trkpt lat="45.51811471077341" lon="11.511720432147635"><ele>31.0</ele><time>2026-05-02T00:22:44Z</time></trkpt><trkpt lat="45.51811080854962" lon="11.511294161054778"><ele>30.0</ele><time>2026-05-02T00:22:45Z</time></trkpt><trkpt lat="45.518103865882274" lon="11.510868078048135"><ele>29.0</ele><time>2026-05-02T00:22:46Z</time></trkpt><trkpt lat="45.51810253758842" lon="11.51043824149385"><ele>30.0</ele><time>2026-05-02T00:22:47Z</time></trkpt><trkpt lat="45.51809917617277" lon="11.510004774607374"><ele>31.0</ele><time>2026-05-02T00:22:48Z</time></trkpt><trkpt lat="45.51809573222329" lon="11.509569641737752"><ele>31.5</ele><time>2026-05-02T00:22:49Z</time></trkpt><trkpt lat="45.51809516494806" lon="11.509134031807616"><ele>32.0</ele><time>2026-05-02T00:22:50Z</time></trkpt><trkpt lat="45.51808859913779" lon="11.508697278323847"><ele>32.0</ele><time>2026-05-02T00:22:51Z</time></trkpt><trkpt lat="45.518081163264085" lon="11.50826068732755"><ele>32.0</ele><time>2026-05-02T00:22:52Z</time></trkpt><trkpt lat="45.51807306962775" lon="11.507824848166681"><ele>32.0</ele><time>2026-05-02T00:22:53Z</time></trkpt><trkpt lat="45.51806352931119" lon="11.507399051289626"><ele>32.0</ele><time>2026-05-02T00:22:54Z</time></trkpt><trkpt lat="45.51805182849221" lon="11.506988981854294"><ele>30.5</ele><time>2026-05-02T00:22:55Z</time></trkpt><trkpt lat="45.51804131296568" lon="11.506569119086956"><ele>29.0</ele><time>2026-05-02T00:22:56Z</time></trkpt><trkpt lat="45.5180348386807" lon="11.506143473075243"><ele>29.0</ele><time>2026-05-02T00:22:57Z</time></trkpt><trkpt lat="45.518022403834884" lon="11.505709794606307"><ele>29.0</ele><time>2026-05-02T00:22:58Z</time></trkpt><trkpt lat="45.51801058450228" lon="11.505273268053301"><ele>29.5</ele><time>2026-05-02T00:22:59Z</time></trkpt><trkpt lat="45.5180010172845" lon="11.504835913868916"><ele>30.0</ele><time>2026-05-02T00:23:00Z</time></trkpt><trkpt lat="45.517992847832026" lon="11.504400753234833"><ele>31.0</ele><time>2026-05-02T00:23:01Z</time></trkpt><trkpt lat="45.517984383184825" lon="11.503970251871442"><ele>32.0</ele><time>2026-05-02T00:23:02Z</time></trkpt><trkpt lat="45.517972064317576" lon="11.503538261971988"><ele>32.0</ele><time>2026-05-02T00:23:03Z</time></trkpt><trkpt lat="45.51795375685441" lon="11.503108919508676"><ele>32.0</ele><time>2026-05-02T00:23:04Z</time></trkpt><trkpt lat="45.517922807852464" lon="11.502685479429719"><ele>32.5</ele><time>2026-05-02T00:23:05Z</time></trkpt><trkpt lat="45.51788452064938" lon="11.502261544455617"><ele>33.0</ele><time>2026-05-02T00:23:06Z</time></trkpt><trkpt lat="45.517835101796855" lon="11.501841088908582"><ele>32.0</ele><time>2026-05-02T00:23:07Z</time></trkpt><trkpt lat="45.517774487168126" lon="11.501424611686035"><ele>31.0</ele><time>2026-05-02T00:23:08Z</time></trkpt><trkpt lat="45.51770398068342" lon="11.50100874977991"><ele>31.0</ele><time>2026-05-02T00:23:09Z</time></trkpt><trkpt lat="45.517623638721744" lon="11.500598906212446"><ele>31.0</ele><time>2026-05-02T00:23:10Z</time></trkpt><trkpt lat="45.517535974452215" lon="11.500192916233036"><ele>31.5</ele><time>2026-05-02T00:23:11Z</time></trkpt><trkpt lat="45.517438662712316" lon="11.499788278801145"><ele>32.0</ele><time>2026-05-02T00:23:12Z</time></trkpt><trkpt lat="45.517332477014854" lon="11.499387549165913"><ele>32.5</ele><time>2026-05-02T00:23:13Z</time></trkpt><trkpt lat="45.517215161194876" lon="11.498990937635364"><ele>33.0</ele><time>2026-05-02T00:23:14Z</time></trkpt><trkpt lat="45.517087534322954" lon="11.49859752432365"><ele>33.0</ele><time>2026-05-02T00:23:15Z</time></trkpt><trkpt lat="45.516951338504" lon="11.498208066907914"><ele>33.0</ele><time>2026-05-02T00:23:16Z</time></trkpt><trkpt lat="45.51681327006836" lon="11.497815820997747"><ele>33.0</ele><time>2026-05-02T00:23:17Z</time></trkpt><trkpt lat="45.51667630207381" lon="11.497423447281227"><ele>33.0</ele><time>2026-05-02T00:23:18Z</time></trkpt><trkpt lat="45.516541891322355" lon="11.497027210655391"><ele>34.0</ele><time>2026-05-02T00:23:19Z</time></trkpt><trkpt lat="45.51640862968678" lon="11.496634254827423"><ele>35.0</ele><time>2026-05-02T00:23:20Z</time></trkpt><trkpt lat="45.51627472177056" lon="11.496242823886105"><ele>33.5</ele><time>2026-05-02T00:23:21Z</time></trkpt><trkpt lat="45.51614173933394" lon="11.495856330298004"><ele>32.0</ele><time>2026-05-02T00:23:22Z</time></trkpt><trkpt lat="45.51601041622728" lon="11.495472093861896"><ele>32.5</ele><time>2026-05-02T00:23:23Z</time></trkpt><trkpt lat="45.51587889285705" lon="11.495086941097725"><ele>33.0</ele><time>2026-05-02T00:23:24Z</time></trkpt><trkpt lat="45.51574886621422" lon="11.494707066107862"><ele>33.5</ele><time>2026-05-02T00:23:25Z</time></trkpt><trkpt lat="45.51561816995216" lon="11.49432743831868"><ele>34.0</ele><time>2026-05-02T00:23:26Z</time></trkpt><trkpt lat="45.515488212165906" lon="11.493950007201331"><ele>32.5</ele><time>2026-05-02T00:23:27Z</time></trkpt><trkpt lat="45.5153582495878" lon="11.49357074710459"><ele>31.0</ele><time>2026-05-02T00:23:28Z</time></trkpt><trkpt lat="45.515228108861834" lon="11.493192500570144"><ele>33.0</ele><time>2026-05-02T00:23:29Z</time></trkpt><trkpt lat="45.51509680295759" lon="11.49281275855994"><ele>35.0</ele><time>2026-05-02T00:23:30Z</time></trkpt><trkpt lat="45.51496081613873" lon="11.492433060957529"><ele>35.0</ele><time>2026-05-02T00:23:31Z</time></trkpt><trkpt lat="45.51482280733928" lon="11.492053570085167"><ele>35.0</ele><time>2026-05-02T00:23:32Z</time></trkpt><trkpt lat="45.51468336985013" lon="11.491675677543759"><ele>33.5</ele><time>2026-05-02T00:23:33Z</time></trkpt><trkpt lat="45.51454337823516" lon="11.491294750079966"><ele>32.0</ele><time>2026-05-02T00:23:34Z</time></trkpt><trkpt lat="45.51440454155982" lon="11.49091060842806"><ele>32.0</ele><time>2026-05-02T00:23:35Z</time></trkpt><trkpt lat="45.51426630794059" lon="11.490525795378474"><ele>32.0</ele><time>2026-05-02T00:23:36Z</time></trkpt><trkpt lat="45.51412882502755" lon="11.490138090731097"><ele>32.5</ele><time>2026-05-02T00:23:37Z</time></trkpt><trkpt lat="45.51399200758104" lon="11.489753306538104"><ele>33.0</ele><time>2026-05-02T00:23:38Z</time></trkpt><trkpt lat="45.51385386375329" lon="11.489368145555787"><ele>33.5</ele><time>2026-05-02T00:23:39Z</time></trkpt><trkpt lat="45.5137158945519" lon="11.488983265189885"><ele>34.0</ele><time>2026-05-02T00:23:40Z</time></trkpt><trkpt lat="45.513577591294734" lon="11.488599471868824"><ele>34.0</ele><time>2026-05-02T00:23:41Z</time></trkpt><trkpt lat="45.51343888943453" lon="11.488215135307547"><ele>34.0</ele><time>2026-05-02T00:23:42Z</time></trkpt><trkpt lat="45.51330296777595" lon="11.487836499422784"><ele>33.5</ele><time>2026-05-02T00:23:43Z</time></trkpt><trkpt lat="45.51316610687233" lon="11.487457796146918"><ele>33.0</ele><time>2026-05-02T00:23:44Z</time></trkpt><trkpt lat="45.51303131381286" lon="11.487083138232206"><ele>30.5</ele><time>2026-05-02T00:23:45Z</time></trkpt><trkpt lat="45.51289643726127" lon="11.486709886096067"><ele>28.0</ele><time>2026-05-02T00:23:46Z</time></trkpt><trkpt lat="45.512761875772725" lon="11.486338942962368"><ele>30.0</ele><time>2026-05-02T00:23:47Z</time></trkpt><trkpt lat="45.51262716405854" lon="11.485971964100083"><ele>32.0</ele><time>2026-05-02T00:23:48Z</time></trkpt><trkpt lat="45.512494267367316" lon="11.485602432606727"><ele>32.0</ele><time>2026-05-02T00:23:49Z</time></trkpt><trkpt lat="45.51236152870473" lon="11.48523294073063"><ele>32.0</ele><time>2026-05-02T00:23:50Z</time></trkpt><trkpt lat="45.51223066637929" lon="11.484863448573856"><ele>32.5</ele><time>2026-05-02T00:23:51Z</time></trkpt><trkpt lat="45.512097316510705" lon="11.484492582104005"><ele>33.0</ele><time>2026-05-02T00:23:52Z</time></trkpt><trkpt lat="45.51196429782242" lon="11.484121464595937"><ele>33.5</ele><time>2026-05-02T00:23:53Z</time></trkpt><trkpt lat="45.51183474901621" lon="11.483742864252823"><ele>34.0</ele><time>2026-05-02T00:23:54Z</time></trkpt><trkpt lat="45.511698177772956" lon="11.483373825305703"><ele>34.0</ele><time>2026-05-02T00:23:55Z</time></trkpt><trkpt lat="45.51156398940658" lon="11.483003117480722"><ele>34.0</ele><time>2026-05-02T00:23:56Z</time></trkpt><trkpt lat="45.511430940049536" lon="11.482631214108865"><ele>35.5</ele><time>2026-05-02T00:23:57Z</time></trkpt><trkpt lat="45.51129725921415" lon="11.48225874718817"><ele>37.0</ele><time>2026-05-02T00:23:58Z</time></trkpt><trkpt lat="45.511162601545514" lon="11.481886135262592"><ele>37.0</ele><time>2026-05-02T00:23:59Z</time></trkpt><trkpt lat="45.51102913115126" lon="11.481508982070412"><ele>37.0</ele><time>2026-05-02T00:24:00Z</time></trkpt><trkpt lat="45.510893079687314" lon="11.481132468124148"><ele>37.0</ele><time>2026-05-02T00:24:01Z</time></trkpt><trkpt lat="45.51075683204368" lon="11.480755658848338"><ele>37.0</ele><time>2026-05-02T00:24:02Z</time></trkpt><trkpt lat="45.510624814236714" lon="11.480378740047511"><ele>37.0</ele><time>2026-05-02T00:24:03Z</time></trkpt><trkpt lat="45.51049436207437" lon="11.480000677506146"><ele>37.0</ele><time>2026-05-02T00:24:04Z</time></trkpt><trkpt lat="45.510359806524434" lon="11.479620985975478"><ele>36.0</ele><time>2026-05-02T00:24:05Z</time></trkpt><trkpt lat="45.510222133908" lon="11.479240651046972"><ele>35.0</ele><time>2026-05-02T00:24:06Z</time></trkpt><trkpt lat="45.5100833529183" lon="11.478864367151207"><ele>35.5</ele><time>2026-05-02T00:24:07Z</time></trkpt><trkpt lat="45.50994444478352" lon="11.47848349398716"><ele>36.0</ele><time>2026-05-02T00:24:08Z</time></trkpt><trkpt lat="45.50980310026065" lon="11.478104444283455"><ele>36.5</ele><time>2026-05-02T00:24:09Z</time></trkpt><trkpt lat="45.50966354314764" lon="11.477721991034691"><ele>37.0</ele><time>2026-05-02T00:24:10Z</time></trkpt><trkpt lat="45.50952634566095" lon="11.477341825462858"><ele>37.5</ele><time>2026-05-02T00:24:11Z</time></trkpt><trkpt lat="45.509388497802895" lon="11.47696059999609"><ele>38.0</ele><time>2026-05-02T00:24:12.001Z</time></trkpt><trkpt lat="45.50925354269332" lon="11.476579365568242"><ele>38.0</ele><time>2026-05-02T00:24:13.001Z</time></trkpt><trkpt lat="45.509119821790286" lon="11.476198249426021"><ele>38.0</ele><time>2026-05-02T00:24:14.001Z</time></trkpt><trkpt lat="45.50898729941739" lon="11.475816759045657"><ele>38.0</ele><time>2026-05-02T00:24:15.001Z</time></trkpt><trkpt lat="45.50885867079771" lon="11.475432845350582"><ele>38.0</ele><time>2026-05-02T00:24:16.001Z</time></trkpt><trkpt lat="45.50873251903265" lon="11.475046134736813"><ele>38.0</ele><time>2026-05-02T00:24:17.001Z</time></trkpt><trkpt lat="45.508606544338065" lon="11.474663334470167"><ele>38.0</ele><time>2026-05-02T00:24:18.001Z</time></trkpt><trkpt lat="45.50848208791172" lon="11.474285124055823"><ele>38.0</ele><time>2026-05-02T00:24:19.001Z</time></trkpt><trkpt lat="45.508357264455476" lon="11.473904311524615"><ele>38.0</ele><time>2026-05-02T00:24:20.001Z</time></trkpt><trkpt lat="45.50823112330682" lon="11.473525387937975"><ele>39.0</ele><time>2026-05-02T00:24:21.001Z</time></trkpt><trkpt lat="45.50810072582213" lon="11.473148290783968"><ele>40.0</ele><time>2026-05-02T00:24:22.001Z</time></trkpt><trkpt lat="45.50795818682228" lon="11.472782178824557"><ele>39.5</ele><time>2026-05-02T00:24:23.001Z</time></trkpt><trkpt lat="45.507823863213154" lon="11.472406468677711"><ele>39.0</ele><time>2026-05-02T00:24:24.001Z</time></trkpt><trkpt lat="45.507688774473834" lon="11.472031342703218"><ele>40.5</ele><time>2026-05-02T00:24:25.001Z</time></trkpt><trkpt lat="45.507555851666595" lon="11.471658086467441"><ele>42.0</ele><time>2026-05-02T00:24:26.001Z</time></trkpt><trkpt lat="45.50741725699566" lon="11.471288019969972"><ele>42.5</ele><time>2026-05-02T00:24:27.001Z</time></trkpt><trkpt lat="45.507289922893904" lon="11.470914591650189"><ele>43.0</ele><time>2026-05-02T00:24:28.001Z</time></trkpt><trkpt lat="45.50716094657386" lon="11.470556214554113"><ele>42.5</ele><time>2026-05-02T00:24:29.001Z</time></trkpt><trkpt lat="45.50703529950659" lon="11.470206648720131"><ele>42.0</ele><time>2026-05-02T00:24:30.001Z</time></trkpt><trkpt lat="45.50691014306071" lon="11.46984267342944"><ele>42.5</ele><time>2026-05-02T00:24:31.001Z</time></trkpt><trkpt lat="45.50678535704209" lon="11.46946979089713"><ele>43.0</ele><time>2026-05-02T00:24:32.001Z</time></trkpt><trkpt lat="45.50666269351954" lon="11.46908801118096"><ele>43.0</ele><time>2026-05-02T00:24:33.001Z</time></trkpt><trkpt lat="45.50654072556258" lon="11.468704120098744"><ele>43.0</ele><time>2026-05-02T00:24:34.001Z</time></trkpt><trkpt lat="45.50643096928723" lon="11.468310628167778"><ele>43.5</ele><time>2026-05-02T00:24:35Z</time></trkpt><trkpt lat="45.506324035950115" lon="11.467916896862421"><ele>44.0</ele><time>2026-05-02T00:24:36Z</time></trkpt><trkpt lat="45.50622283648165" lon="11.46753898422992"><ele>43.5</ele><time>2026-05-02T00:24:37Z</time></trkpt><trkpt lat="45.50612456845593" lon="11.467173278240493"><ele>43.0</ele><time>2026-05-02T00:24:38Z</time></trkpt><trkpt lat="45.50602261416649" lon="11.466794260525607"><ele>43.0</ele><time>2026-05-02T00:24:39Z</time></trkpt><trkpt lat="45.50592412360536" lon="11.4664005263522"><ele>43.0</ele><time>2026-05-02T00:24:40Z</time></trkpt><trkpt lat="45.50582855308949" lon="11.465995375872406"><ele>43.5</ele><time>2026-05-02T00:24:41Z</time></trkpt><trkpt lat="45.50573270477373" lon="11.465579517991328"><ele>44.0</ele><time>2026-05-02T00:24:42Z</time></trkpt><trkpt lat="45.50563613525996" lon="11.465162809366582"><ele>44.0</ele><time>2026-05-02T00:24:43Z</time></trkpt><trkpt lat="45.50554157874144" lon="11.464751569726007"><ele>44.0</ele><time>2026-05-02T00:24:44Z</time></trkpt><trkpt lat="45.50544981769233" lon="11.464341841534788"><ele>43.5</ele><time>2026-05-02T00:24:45Z</time></trkpt><trkpt lat="45.50535746764446" lon="11.463934301537698"><ele>43.0</ele><time>2026-05-02T00:24:46Z</time></trkpt><trkpt lat="45.50526536598224" lon="11.463530574289875"><ele>44.5</ele><time>2026-05-02T00:24:47Z</time></trkpt><trkpt lat="45.50516723624814" lon="11.463135874860185"><ele>46.0</ele><time>2026-05-02T00:24:48Z</time></trkpt><trkpt lat="45.505061575750595" lon="11.462747514608571"><ele>46.0</ele><time>2026-05-02T00:24:49Z</time></trkpt><trkpt lat="45.504953446763" lon="11.46235880689948"><ele>46.0</ele><time>2026-05-02T00:24:50Z</time></trkpt><trkpt lat="45.50483745771673" lon="11.461972728139918"><ele>45.5</ele><time>2026-05-02T00:24:51Z</time></trkpt><trkpt lat="45.504714295212885" lon="11.461590551920615"><ele>45.0</ele><time>2026-05-02T00:24:52Z</time></trkpt><trkpt lat="45.50458788028987" lon="11.461205685664101"><ele>48.0</ele><time>2026-05-02T00:24:53Z</time></trkpt><trkpt lat="45.50446447421621" lon="11.460822814825237"><ele>51.0</ele><time>2026-05-02T00:24:54Z</time></trkpt><trkpt lat="45.50433156095669" lon="11.460438499323962"><ele>51.0</ele><time>2026-05-02T00:24:55Z</time></trkpt><trkpt lat="45.50419894027997" lon="11.460055076951866"><ele>51.0</ele><time>2026-05-02T00:24:56Z</time></trkpt><trkpt lat="45.504063123357696" lon="11.459681155356732"><ele>49.0</ele><time>2026-05-02T00:24:57Z</time></trkpt><trkpt lat="45.50391780290352" lon="11.459300508870625"><ele>47.0</ele><time>2026-05-02T00:24:58Z</time></trkpt><trkpt lat="45.50376560773924" lon="11.458925888155049"><ele>49.0</ele><time>2026-05-02T00:24:59Z</time></trkpt><trkpt lat="45.50361068326499" lon="11.458553109530007"><ele>51.0</ele><time>2026-05-02T00:25:00Z</time></trkpt><trkpt lat="45.50345309295978" lon="11.458181582334525"><ele>49.0</ele><time>2026-05-02T00:25:01Z</time></trkpt><trkpt lat="45.5032929286491" lon="11.457813633071575"><ele>47.0</ele><time>2026-05-02T00:25:02Z</time></trkpt><trkpt lat="45.503121145801934" lon="11.45745388222564"><ele>45.5</ele><time>2026-05-02T00:25:03Z</time></trkpt><trkpt lat="45.50294461856511" lon="11.457100293167592"><ele>44.0</ele><time>2026-05-02T00:25:04Z</time></trkpt><trkpt lat="45.502763313528725" lon="11.456751196629511"><ele>45.5</ele><time>2026-05-02T00:25:05Z</time></trkpt><trkpt lat="45.502578422401555" lon="11.45640796857051"><ele>47.0</ele><time>2026-05-02T00:25:06Z</time></trkpt><trkpt lat="45.502386313510726" lon="11.456070140133969"><ele>47.0</ele><time>2026-05-02T00:25:07Z</time></trkpt><trkpt lat="45.502194385732224" lon="11.455736341809095"><ele>47.0</ele><time>2026-05-02T00:25:08Z</time></trkpt><trkpt lat="45.50199758795775" lon="11.455412399548555"><ele>49.0</ele><time>2026-05-02T00:25:09Z</time></trkpt><trkpt lat="45.50179739264891" lon="11.455087956003643"><ele>51.0</ele><time>2026-05-02T00:25:10Z</time></trkpt><trkpt lat="45.50159194186167" lon="11.454772643878941"><ele>50.5</ele><time>2026-05-02T00:25:11Z</time></trkpt><trkpt lat="45.501380593791446" lon="11.45446278623137"><ele>50.0</ele><time>2026-05-02T00:25:12Z</time></trkpt><trkpt lat="45.50116605353157" lon="11.454157151482509"><ele>50.5</ele><time>2026-05-02T00:25:13Z</time></trkpt><trkpt lat="45.500948325589555" lon="11.453859046408587"><ele>51.0</ele><time>2026-05-02T00:25:14Z</time></trkpt><trkpt lat="45.500725788680725" lon="11.453566354324296"><ele>51.0</ele><time>2026-05-02T00:25:15Z</time></trkpt><trkpt lat="45.50049948095511" lon="11.453280466675848"><ele>51.0</ele><time>2026-05-02T00:25:16Z</time></trkpt><trkpt lat="45.50026744876937" lon="11.453002269985202"><ele>50.5</ele><time>2026-05-02T00:25:17Z</time></trkpt><trkpt lat="45.500033736605204" lon="11.452728428202656"><ele>50.0</ele><time>2026-05-02T00:25:18Z</time></trkpt><trkpt lat="45.499797773718655" lon="11.452456881876586"><ele>50.0</ele><time>2026-05-02T00:25:19Z</time></trkpt><trkpt lat="45.49955664992151" lon="11.452190580605444"><ele>50.0</ele><time>2026-05-02T00:25:20Z</time></trkpt><trkpt lat="45.49931727755746" lon="11.451920497126727"><ele>50.0</ele><time>2026-05-02T00:25:21Z</time></trkpt><trkpt lat="45.499079355249094" lon="11.45165033459467"><ele>50.0</ele><time>2026-05-02T00:25:22Z</time></trkpt><trkpt lat="45.49883863967166" lon="11.451379922186208"><ele>50.5</ele><time>2026-05-02T00:25:23Z</time></trkpt><trkpt lat="45.49859893127718" lon="11.451109265558628"><ele>51.0</ele><time>2026-05-02T00:25:24Z</time></trkpt><trkpt lat="45.498360164430125" lon="11.45083796621115"><ele>51.0</ele><time>2026-05-02T00:25:25Z</time></trkpt><trkpt lat="45.49812211392641" lon="11.450564609025488"><ele>51.0</ele><time>2026-05-02T00:25:26Z</time></trkpt><trkpt lat="45.4978815152341" lon="11.450298159927126"><ele>51.5</ele><time>2026-05-02T00:25:27Z</time></trkpt><trkpt lat="45.49764151329389" lon="11.450034458877116"><ele>52.0</ele><time>2026-05-02T00:25:28Z</time></trkpt><trkpt lat="45.497401827718136" lon="11.44976585227221"><ele>52.0</ele><time>2026-05-02T00:25:29Z</time></trkpt><trkpt lat="45.497164267571605" lon="11.449498840556437"><ele>52.0</ele><time>2026-05-02T00:25:30Z</time></trkpt><trkpt lat="45.49692186031213" lon="11.449230832372285"><ele>52.5</ele><time>2026-05-02T00:25:31Z</time></trkpt><trkpt lat="45.49668232561451" lon="11.448960257690585"><ele>53.0</ele><time>2026-05-02T00:25:32Z</time></trkpt><trkpt lat="45.49644386732521" lon="11.448688156712619"><ele>53.5</ele><time>2026-05-02T00:25:33Z</time></trkpt><trkpt lat="45.49620446551616" lon="11.448417441498918"><ele>54.0</ele><time>2026-05-02T00:25:34Z</time></trkpt><trkpt lat="45.49596472914213" lon="11.448147089922081"><ele>53.0</ele><time>2026-05-02T00:25:35Z</time></trkpt><trkpt lat="45.49572358448404" lon="11.447883737565054"><ele>52.0</ele><time>2026-05-02T00:25:36Z</time></trkpt><trkpt lat="45.49548561283528" lon="11.447612913086276"><ele>52.5</ele><time>2026-05-02T00:25:37Z</time></trkpt><trkpt lat="45.49524631758089" lon="11.447343703149683"><ele>53.0</ele><time>2026-05-02T00:25:38Z</time></trkpt><trkpt lat="45.49500865105276" lon="11.44707105228026"><ele>53.0</ele><time>2026-05-02T00:25:39Z</time></trkpt><trkpt lat="45.49476775355363" lon="11.446803079948086"><ele>53.0</ele><time>2026-05-02T00:25:40Z</time></trkpt><trkpt lat="45.49452878525953" lon="11.446536060536005"><ele>51.5</ele><time>2026-05-02T00:25:41Z</time></trkpt><trkpt lat="45.49429077645201" lon="11.446267632756168"><ele>50.0</ele><time>2026-05-02T00:25:42Z</time></trkpt><trkpt lat="45.49405226802675" lon="11.445999543024284"><ele>50.0</ele><time>2026-05-02T00:25:43Z</time></trkpt><trkpt lat="45.49381424487943" lon="11.44573090374705"><ele>50.0</ele><time>2026-05-02T00:25:44Z</time></trkpt><trkpt lat="45.49357913529449" lon="11.44546237134013"><ele>51.5</ele><time>2026-05-02T00:25:45Z</time></trkpt><trkpt lat="45.49334425696768" lon="11.445199619184157"><ele>53.0</ele><time>2026-05-02T00:25:46Z</time></trkpt><trkpt lat="45.49310848296111" lon="11.444933953888057"><ele>53.0</ele><time>2026-05-02T00:25:47Z</time></trkpt><trkpt lat="45.49287531805782" lon="11.44466998034267"><ele>53.0</ele><time>2026-05-02T00:25:48Z</time></trkpt><trkpt lat="45.492640422118676" lon="11.444403937400645"><ele>53.5</ele><time>2026-05-02T00:25:49Z</time></trkpt><trkpt lat="45.492404842341024" lon="11.444141145379149"><ele>54.0</ele><time>2026-05-02T00:25:50Z</time></trkpt><trkpt lat="45.49217233445077" lon="11.443876082270055"><ele>53.0</ele><time>2026-05-02T00:25:51Z</time></trkpt><trkpt lat="45.49193872244515" lon="11.443613113638497"><ele>52.0</ele><time>2026-05-02T00:25:52Z</time></trkpt><trkpt lat="45.49170448064376" lon="11.443348510135177"><ele>52.0</ele><time>2026-05-02T00:25:53Z</time></trkpt><trkpt lat="45.491469078831145" lon="11.443082298229813"><ele>52.0</ele><time>2026-05-02T00:25:54Z</time></trkpt><trkpt lat="45.49123358568475" lon="11.442820006494964"><ele>53.0</ele><time>2026-05-02T00:25:55Z</time></trkpt><trkpt lat="45.49099710064779" lon="11.44255687838985"><ele>54.0</ele><time>2026-05-02T00:25:56Z</time></trkpt><trkpt lat="45.49076158787044" lon="11.442292707943256"><ele>53.5</ele><time>2026-05-02T00:25:57Z</time></trkpt><trkpt lat="45.49052427824277" lon="11.442030011352648"><ele>53.0</ele><time>2026-05-02T00:25:58Z</time></trkpt><trkpt lat="45.490287252346064" lon="11.441764108990318"><ele>52.5</ele><time>2026-05-02T00:25:59Z</time></trkpt><trkpt lat="45.49005111671629" lon="11.441499276776057"><ele>52.0</ele><time>2026-05-02T00:26:00Z</time></trkpt><trkpt lat="45.48981166410043" lon="11.441229502063292"><ele>52.5</ele><time>2026-05-02T00:26:01Z</time></trkpt><trkpt lat="45.489573550784584" lon="11.440963611909618"><ele>53.0</ele><time>2026-05-02T00:26:02Z</time></trkpt><trkpt lat="45.48933798756084" lon="11.440697376092105"><ele>53.0</ele><time>2026-05-02T00:26:03Z</time></trkpt><trkpt lat="45.48910489439772" lon="11.440428116477397"><ele>53.0</ele><time>2026-05-02T00:26:04Z</time></trkpt><trkpt lat="45.488868657296344" lon="11.440160102636659"><ele>53.0</ele><time>2026-05-02T00:26:05Z</time></trkpt><trkpt lat="45.48863307218076" lon="11.439893652775064"><ele>53.0</ele><time>2026-05-02T00:26:06Z</time></trkpt><trkpt lat="45.48839732720217" lon="11.439625823213849"><ele>53.0</ele><time>2026-05-02T00:26:07Z</time></trkpt><trkpt lat="45.488160390541786" lon="11.439362658805482"><ele>53.0</ele><time>2026-05-02T00:26:08Z</time></trkpt><trkpt lat="45.48792362634137" lon="11.43909362070614"><ele>52.5</ele><time>2026-05-02T00:26:09Z</time></trkpt><trkpt lat="45.48768581107208" lon="11.438831392917102"><ele>52.0</ele><time>2026-05-02T00:26:10Z</time></trkpt><trkpt lat="45.48744829415443" lon="11.438567551168479"><ele>52.0</ele><time>2026-05-02T00:26:11Z</time></trkpt><trkpt lat="45.487207692456714" lon="11.438301386277795"><ele>52.0</ele><time>2026-05-02T00:26:12Z</time></trkpt><trkpt lat="45.486970113864686" lon="11.438034615439058"><ele>52.5</ele><time>2026-05-02T00:26:13Z</time></trkpt><trkpt lat="45.48672987247182" lon="11.437769166731146"><ele>53.0</ele><time>2026-05-02T00:26:14Z</time></trkpt><trkpt lat="45.48649029144232" lon="11.437503797151853"><ele>52.5</ele><time>2026-05-02T00:26:15Z</time></trkpt><trkpt lat="45.486256068942026" lon="11.43724337305041"><ele>52.0</ele><time>2026-05-02T00:26:16Z</time></trkpt><trkpt lat="45.486036407141256" lon="11.436990906321556"><ele>52.0</ele><time>2026-05-02T00:26:17Z</time></trkpt><trkpt lat="45.48580933889605" lon="11.436732741207614"><ele>52.0</ele><time>2026-05-02T00:26:18Z</time></trkpt><trkpt lat="45.48557711320307" lon="11.436472772754433"><ele>51.5</ele><time>2026-05-02T00:26:19Z</time></trkpt><trkpt lat="45.48534173493072" lon="11.436211165951118"><ele>51.0</ele><time>2026-05-02T00:26:20Z</time></trkpt><trkpt lat="45.485105387562285" lon="11.435942121389996"><ele>51.0</ele><time>2026-05-02T00:26:21Z</time></trkpt><trkpt lat="45.4848686588617" lon="11.435674077741272"><ele>51.0</ele><time>2026-05-02T00:26:22Z</time></trkpt><trkpt lat="45.48463075824146" lon="11.435404680214395"><ele>52.0</ele><time>2026-05-02T00:26:23Z</time></trkpt><trkpt lat="45.484391648734444" lon="11.435136316444922"><ele>53.0</ele><time>2026-05-02T00:26:24Z</time></trkpt><trkpt lat="45.48415247413577" lon="11.43486888581595"><ele>52.5</ele><time>2026-05-02T00:26:25Z</time></trkpt><trkpt lat="45.483913557647995" lon="11.434600696588477"><ele>52.0</ele><time>2026-05-02T00:26:26Z</time></trkpt><trkpt lat="45.483676675878655" lon="11.434333188574238"><ele>52.0</ele><time>2026-05-02T00:26:27.001Z</time></trkpt><trkpt lat="45.483438393518384" lon="11.434066611277157"><ele>52.0</ele><time>2026-05-02T00:26:28.001Z</time></trkpt><trkpt lat="45.48320186870122" lon="11.433799703888022"><ele>52.0</ele><time>2026-05-02T00:26:29.001Z</time></trkpt><trkpt lat="45.48296634043091" lon="11.433527507484463"><ele>52.0</ele><time>2026-05-02T00:26:30.001Z</time></trkpt><trkpt lat="45.482728817851736" lon="11.433257391435559"><ele>52.0</ele><time>2026-05-02T00:26:31.001Z</time></trkpt><trkpt lat="45.48249372244128" lon="11.43299165885854"><ele>52.0</ele><time>2026-05-02T00:26:32.001Z</time></trkpt><trkpt lat="45.4822566805606" lon="11.432730768059654"><ele>51.0</ele><time>2026-05-02T00:26:33.001Z</time></trkpt><trkpt lat="45.48201780798129" lon="11.432466868570346"><ele>50.0</ele><time>2026-05-02T00:26:34.001Z</time></trkpt><trkpt lat="45.48178025310173" lon="11.43220437990357"><ele>50.5</ele><time>2026-05-02T00:26:35.001Z</time></trkpt><trkpt lat="45.48154722606782" lon="11.431938418363366"><ele>51.0</ele><time>2026-05-02T00:26:36.001Z</time></trkpt><trkpt lat="45.48131244589745" lon="11.431674392082943"><ele>50.0</ele><time>2026-05-02T00:26:37.001Z</time></trkpt><trkpt lat="45.48108220309617" lon="11.431408208692632"><ele>49.0</ele><time>2026-05-02T00:26:38.001Z</time></trkpt><trkpt lat="45.48085032938963" lon="11.431145964450394"><ele>48.5</ele><time>2026-05-02T00:26:39.001Z</time></trkpt><trkpt lat="45.48061626385133" lon="11.430882306176139"><ele>48.0</ele><time>2026-05-02T00:26:40.001Z</time></trkpt><trkpt lat="45.4803834698193" lon="11.430624973820356"><ele>49.0</ele><time>2026-05-02T00:26:41Z</time></trkpt><trkpt lat="45.480147556462796" lon="11.430360597943352"><ele>50.0</ele><time>2026-05-02T00:26:42Z</time></trkpt><trkpt lat="45.47991648428746" lon="11.430096803708853"><ele>50.0</ele><time>2026-05-02T00:26:43Z</time></trkpt><trkpt lat="45.47968560597089" lon="11.429832494448544"><ele>50.0</ele><time>2026-05-02T00:26:44Z</time></trkpt><trkpt lat="45.47945194722423" lon="11.429568564788257"><ele>50.5</ele><time>2026-05-02T00:26:45Z</time></trkpt><trkpt lat="45.47922044816081" lon="11.429306011462451"><ele>51.0</ele><time>2026-05-02T00:26:46Z</time></trkpt><trkpt lat="45.47899053399028" lon="11.429044808953666"><ele>51.0</ele><time>2026-05-02T00:26:47Z</time></trkpt><trkpt lat="45.47876029460865" lon="11.428785512482799"><ele>51.0</ele><time>2026-05-02T00:26:48Z</time></trkpt><trkpt lat="45.47852915433088" lon="11.4285276116211"><ele>51.0</ele><time>2026-05-02T00:26:49Z</time></trkpt><trkpt lat="45.47829710304905" lon="11.428270666422709"><ele>51.0</ele><time>2026-05-02T00:26:50Z</time></trkpt><trkpt lat="45.47806522361779" lon="11.42801063557409"><ele>51.0</ele><time>2026-05-02T00:26:51Z</time></trkpt><trkpt lat="45.47783079052638" lon="11.42775062414567"><ele>51.0</ele><time>2026-05-02T00:26:52Z</time></trkpt><trkpt lat="45.477599286998455" lon="11.427488927086413"><ele>51.0</ele><time>2026-05-02T00:26:53Z</time></trkpt><trkpt lat="45.47736572730669" lon="11.427230148402709"><ele>51.0</ele><time>2026-05-02T00:26:54Z</time></trkpt><trkpt lat="45.477132571576846" lon="11.426968158001674"><ele>54.0</ele><time>2026-05-02T00:26:55Z</time></trkpt><trkpt lat="45.47689798371359" lon="11.426704324632107"><ele>57.0</ele><time>2026-05-02T00:26:56Z</time></trkpt><trkpt lat="45.476664676120805" lon="11.426437769057872"><ele>57.5</ele><time>2026-05-02T00:26:57Z</time></trkpt><trkpt lat="45.47642913345525" lon="11.426168155523671"><ele>58.0</ele><time>2026-05-02T00:26:58Z</time></trkpt><trkpt lat="45.4761952010828" lon="11.425893562725875"><ele>58.0</ele><time>2026-05-02T00:26:59Z</time></trkpt><trkpt lat="45.475966687080856" lon="11.42561495922258"><ele>58.0</ele><time>2026-05-02T00:27:00Z</time></trkpt><trkpt lat="45.47573549366763" lon="11.4253285773668"><ele>55.5</ele><time>2026-05-02T00:27:01Z</time></trkpt><trkpt lat="45.475510043948525" lon="11.425036327572165"><ele>53.0</ele><time>2026-05-02T00:27:02Z</time></trkpt><trkpt lat="45.47529404392043" lon="11.424738322314987"><ele>53.0</ele><time>2026-05-02T00:27:03Z</time></trkpt><trkpt lat="45.47507789456129" lon="11.42443738621286"><ele>53.0</ele><time>2026-05-02T00:27:04Z</time></trkpt><trkpt lat="45.47486622579864" lon="11.42413355163772"><ele>53.0</ele><time>2026-05-02T00:27:05Z</time></trkpt><trkpt lat="45.474656989847674" lon="11.42382029918999"><ele>53.0</ele><time>2026-05-02T00:27:06Z</time></trkpt><trkpt lat="45.47444954439156" lon="11.423503264610568"><ele>53.0</ele><time>2026-05-02T00:27:07Z</time></trkpt><trkpt lat="45.474245298018374" lon="11.423181288425742"><ele>53.0</ele><time>2026-05-02T00:27:08Z</time></trkpt><trkpt lat="45.47404190193494" lon="11.422855269368332"><ele>53.5</ele><time>2026-05-02T00:27:09Z</time></trkpt><trkpt lat="45.47384268891291" lon="11.422529452413375"><ele>54.0</ele><time>2026-05-02T00:27:10Z</time></trkpt><trkpt lat="45.47364140565465" lon="11.422207549543982"><ele>55.0</ele><time>2026-05-02T00:27:11Z</time></trkpt><trkpt lat="45.473443308743654" lon="11.421878768864667"><ele>56.0</ele><time>2026-05-02T00:27:12Z</time></trkpt><trkpt lat="45.47324215587273" lon="11.42155269657653"><ele>56.0</ele><time>2026-05-02T00:27:13Z</time></trkpt><trkpt lat="45.47304085087351" lon="11.42123179559855"><ele>56.0</ele><time>2026-05-02T00:27:14Z</time></trkpt><trkpt lat="45.47283948418269" lon="11.42090245195333"><ele>56.0</ele><time>2026-05-02T00:27:15Z</time></trkpt><trkpt lat="45.47264079502341" lon="11.420574955727162"><ele>56.0</ele><time>2026-05-02T00:27:16Z</time></trkpt><trkpt lat="45.472439124156026" lon="11.420244234248642"><ele>56.0</ele><time>2026-05-02T00:27:17Z</time></trkpt><trkpt lat="45.472236788197435" lon="11.419913189120535"><ele>56.0</ele><time>2026-05-02T00:27:18Z</time></trkpt><trkpt lat="45.472034768582574" lon="11.419581190473233"><ele>56.0</ele><time>2026-05-02T00:27:19Z</time></trkpt><trkpt lat="45.47183357190262" lon="11.419258252029545"><ele>56.0</ele><time>2026-05-02T00:27:20Z</time></trkpt><trkpt lat="45.471630829673124" lon="11.418928847531761"><ele>55.0</ele><time>2026-05-02T00:27:21Z</time></trkpt><trkpt lat="45.47142947493755" lon="11.418600209882708"><ele>54.0</ele><time>2026-05-02T00:27:22Z</time></trkpt><trkpt lat="45.47123112373871" lon="11.418271472527577"><ele>53.0</ele><time>2026-05-02T00:27:23Z</time></trkpt><trkpt lat="45.47102998290136" lon="11.417947454330516"><ele>52.0</ele><time>2026-05-02T00:27:24Z</time></trkpt><trkpt lat="45.470825959109796" lon="11.417626410491902"><ele>52.0</ele><time>2026-05-02T00:27:25Z</time></trkpt><trkpt lat="45.47062257562955" lon="11.417303094262303"><ele>52.0</ele><time>2026-05-02T00:27:26Z</time></trkpt><trkpt lat="45.470417370823434" lon="11.416986986513056"><ele>51.5</ele><time>2026-05-02T00:27:27Z</time></trkpt><trkpt lat="45.470205581642695" lon="11.416674898320261"><ele>51.0</ele><time>2026-05-02T00:27:28Z</time></trkpt><trkpt lat="45.469989838959606" lon="11.416369031785083"><ele>51.0</ele><time>2026-05-02T00:27:29Z</time></trkpt><trkpt lat="45.469772837132936" lon="11.416063795874098"><ele>51.0</ele><time>2026-05-02T00:27:30Z</time></trkpt><trkpt lat="45.46955428664788" lon="11.415757050447775"><ele>49.5</ele><time>2026-05-02T00:27:31Z</time></trkpt><trkpt lat="45.46934248853636" lon="11.415443861987075"><ele>48.0</ele><time>2026-05-02T00:27:32Z</time></trkpt><trkpt lat="45.4691273037428" lon="11.415132245697324"><ele>48.0</ele><time>2026-05-02T00:27:33Z</time></trkpt><trkpt lat="45.468914997005314" lon="11.414819989861337"><ele>48.0</ele><time>2026-05-02T00:27:34Z</time></trkpt><trkpt lat="45.468700826416786" lon="11.414506092766764"><ele>48.0</ele><time>2026-05-02T00:27:35Z</time></trkpt><trkpt lat="45.46848480263915" lon="11.414193111807329"><ele>48.0</ele><time>2026-05-02T00:27:36Z</time></trkpt><trkpt lat="45.4682700331472" lon="11.413877875157407"><ele>48.5</ele><time>2026-05-02T00:27:37Z</time></trkpt><trkpt lat="45.468056356111305" lon="11.413563535081705"><ele>49.0</ele><time>2026-05-02T00:27:38Z</time></trkpt><trkpt lat="45.467840377101055" lon="11.413255384832052"><ele>49.0</ele><time>2026-05-02T00:27:39Z</time></trkpt><trkpt lat="45.46762550165202" lon="11.412941814204311"><ele>49.0</ele><time>2026-05-02T00:27:40Z</time></trkpt><trkpt lat="45.46740886353985" lon="11.412629997272075"><ele>49.0</ele><time>2026-05-02T00:27:41Z</time></trkpt><trkpt lat="45.46719492192734" lon="11.41232046797655"><ele>49.0</ele><time>2026-05-02T00:27:42Z</time></trkpt><trkpt lat="45.46697927216041" lon="11.412010169461205"><ele>51.0</ele><time>2026-05-02T00:27:43Z</time></trkpt><trkpt lat="45.46676566862789" lon="11.411698717648234"><ele>53.0</ele><time>2026-05-02T00:27:44Z</time></trkpt><trkpt lat="45.466553992442044" lon="11.411388967429094"><ele>52.0</ele><time>2026-05-02T00:27:45Z</time></trkpt><trkpt lat="45.46634275052125" lon="11.411082468055461"><ele>51.0</ele><time>2026-05-02T00:27:46Z</time></trkpt><trkpt lat="45.466135260287466" lon="11.410770326825808"><ele>51.0</ele><time>2026-05-02T00:27:47Z</time></trkpt><trkpt lat="45.465931073258666" lon="11.410452434763764"><ele>51.0</ele><time>2026-05-02T00:27:48Z</time></trkpt><trkpt lat="45.46572830642722" lon="11.410135229558186"><ele>51.0</ele><time>2026-05-02T00:27:49Z</time></trkpt><trkpt lat="45.46552224894826" lon="11.409815736982088"><ele>51.0</ele><time>2026-05-02T00:27:50Z</time></trkpt><trkpt lat="45.46531209410011" lon="11.409498819244774"><ele>50.5</ele><time>2026-05-02T00:27:51Z</time></trkpt><trkpt lat="45.465099269527684" lon="11.409179846011067"><ele>50.0</ele><time>2026-05-02T00:27:52Z</time></trkpt><trkpt lat="45.46488323047434" lon="11.408863539277405"><ele>50.5</ele><time>2026-05-02T00:27:53Z</time></trkpt><trkpt lat="45.464666587324864" lon="11.40854833119188"><ele>51.0</ele><time>2026-05-02T00:27:54Z</time></trkpt><trkpt lat="45.464451209711385" lon="11.408237888350378"><ele>51.5</ele><time>2026-05-02T00:27:55Z</time></trkpt><trkpt lat="45.46424648103324" lon="11.407943619079147"><ele>52.0</ele><time>2026-05-02T00:27:56Z</time></trkpt><trkpt lat="45.464038310726956" lon="11.407641974899006"><ele>52.0</ele><time>2026-05-02T00:27:57Z</time></trkpt><trkpt lat="45.463824336274826" lon="11.407335223233085"><ele>52.0</ele><time>2026-05-02T00:27:58Z</time></trkpt><trkpt lat="45.4636062304689" lon="11.407029787326415"><ele>53.0</ele><time>2026-05-02T00:27:59Z</time></trkpt><trkpt lat="45.4633854546313" lon="11.406721541810969"><ele>54.0</ele><time>2026-05-02T00:28:00Z</time></trkpt><trkpt lat="45.46315720914679" lon="11.406422589668754"><ele>54.0</ele><time>2026-05-02T00:28:01Z</time></trkpt><trkpt lat="45.46292255261929" lon="11.406121377348073"><ele>54.0</ele><time>2026-05-02T00:28:02Z</time></trkpt><trkpt lat="45.462682827873984" lon="11.405828621435232"><ele>54.0</ele><time>2026-05-02T00:28:03Z</time></trkpt><trkpt lat="45.46244461308209" lon="11.40553911755192"><ele>54.0</ele><time>2026-05-02T00:28:04Z</time></trkpt><trkpt lat="45.46220486726676" lon="11.405249491599472"><ele>54.0</ele><time>2026-05-02T00:28:05Z</time></trkpt><trkpt lat="45.4619634319595" lon="11.404958834436577"><ele>54.0</ele><time>2026-05-02T00:28:06Z</time></trkpt><trkpt lat="45.461724070406035" lon="11.404669310490386"><ele>54.5</ele><time>2026-05-02T00:28:07Z</time></trkpt><trkpt lat="45.461488000233636" lon="11.404381515379713"><ele>55.0</ele><time>2026-05-02T00:28:08Z</time></trkpt><trkpt lat="45.46124941587775" lon="11.40409257085118"><ele>55.5</ele><time>2026-05-02T00:28:09Z</time></trkpt><trkpt lat="45.4610099999609" lon="11.403805420370881"><ele>56.0</ele><time>2026-05-02T00:28:10Z</time></trkpt><trkpt lat="45.46077005893018" lon="11.403515460133763"><ele>56.0</ele><time>2026-05-02T00:28:11Z</time></trkpt><trkpt lat="45.46052874356369" lon="11.403230177091011"><ele>56.0</ele><time>2026-05-02T00:28:12Z</time></trkpt><trkpt lat="45.460288915749224" lon="11.402941332231805"><ele>56.0</ele><time>2026-05-02T00:28:13Z</time></trkpt><trkpt lat="45.46004506755871" lon="11.402654138459196"><ele>56.0</ele><time>2026-05-02T00:28:14Z</time></trkpt><trkpt lat="45.45980567483477" lon="11.402359065201994"><ele>56.0</ele><time>2026-05-02T00:28:15Z</time></trkpt><trkpt lat="45.45956247890387" lon="11.402068240910692"><ele>56.0</ele><time>2026-05-02T00:28:16Z</time></trkpt><trkpt lat="45.459319631480874" lon="11.401774951633815"><ele>56.0</ele><time>2026-05-02T00:28:17Z</time></trkpt><trkpt lat="45.45908169730927" lon="11.401484931438722"><ele>56.0</ele><time>2026-05-02T00:28:18Z</time></trkpt><trkpt lat="45.45885458412006" lon="11.401202564811141"><ele>57.5</ele><time>2026-05-02T00:28:19Z</time></trkpt><trkpt lat="45.45863349437933" lon="11.400936045418069"><ele>59.0</ele><time>2026-05-02T00:28:20Z</time></trkpt><trkpt lat="45.45841530502647" lon="11.400650978363188"><ele>57.5</ele><time>2026-05-02T00:28:21Z</time></trkpt><trkpt lat="45.45819808120451" lon="11.400358998035324"><ele>56.0</ele><time>2026-05-02T00:28:22Z</time></trkpt><trkpt lat="45.45798392598024" lon="11.400055633644891"><ele>56.5</ele><time>2026-05-02T00:28:23Z</time></trkpt><trkpt lat="45.45777202271733" lon="11.39974899974824"><ele>57.0</ele><time>2026-05-02T00:28:24Z</time></trkpt><trkpt lat="45.457563109103816" lon="11.399434687863762"><ele>56.0</ele><time>2026-05-02T00:28:25Z</time></trkpt><trkpt lat="45.4573549626905" lon="11.399113307780553"><ele>55.0</ele><time>2026-05-02T00:28:26Z</time></trkpt><trkpt lat="45.45715140657948" lon="11.39878599890298"><ele>54.0</ele><time>2026-05-02T00:28:27Z</time></trkpt><trkpt lat="45.456953303906516" lon="11.398453095372744"><ele>53.0</ele><time>2026-05-02T00:28:28Z</time></trkpt><trkpt lat="45.456759361933855" lon="11.3981129857689"><ele>52.5</ele><time>2026-05-02T00:28:29Z</time></trkpt><trkpt lat="45.45656825213902" lon="11.397767143286435"><ele>52.0</ele><time>2026-05-02T00:28:30Z</time></trkpt><trkpt lat="45.45637980353535" lon="11.397417872142945"><ele>53.0</ele><time>2026-05-02T00:28:31Z</time></trkpt><trkpt lat="45.456194799990435" lon="11.397065370696174"><ele>54.0</ele><time>2026-05-02T00:28:32Z</time></trkpt><trkpt lat="45.456015104756574" lon="11.396706020552685"><ele>54.0</ele><time>2026-05-02T00:28:33Z</time></trkpt><trkpt lat="45.455842295729646" lon="11.39634276776094"><ele>54.0</ele><time>2026-05-02T00:28:34Z</time></trkpt><trkpt lat="45.45567458162298" lon="11.39597202838355"><ele>53.5</ele><time>2026-05-02T00:28:35Z</time></trkpt><trkpt lat="45.455510610525906" lon="11.39559592352411"><ele>53.0</ele><time>2026-05-02T00:28:36Z</time></trkpt><trkpt lat="45.45535008967989" lon="11.395217792737345"><ele>51.5</ele><time>2026-05-02T00:28:37Z</time></trkpt><trkpt lat="45.45519417038946" lon="11.394835060615645"><ele>50.0</ele><time>2026-05-02T00:28:38Z</time></trkpt><trkpt lat="45.455039508487516" lon="11.39445296752473"><ele>50.0</ele><time>2026-05-02T00:28:39Z</time></trkpt><trkpt lat="45.45488472529152" lon="11.394077172385124"><ele>50.0</ele><time>2026-05-02T00:28:40Z</time></trkpt><trkpt lat="45.45473289053212" lon="11.39369720160805"><ele>50.0</ele><time>2026-05-02T00:28:41Z</time></trkpt><trkpt lat="45.454582257536494" lon="11.39331916258968"><ele>50.0</ele><time>2026-05-02T00:28:42Z</time></trkpt><trkpt lat="45.45443033128632" lon="11.39294656988499"><ele>50.0</ele><time>2026-05-02T00:28:43Z</time></trkpt><trkpt lat="45.45427863687566" lon="11.392569077786572"><ele>50.0</ele><time>2026-05-02T00:28:44Z</time></trkpt><trkpt lat="45.454123979202826" lon="11.392191703897188"><ele>51.0</ele><time>2026-05-02T00:28:45Z</time></trkpt><trkpt lat="45.45396452534363" lon="11.391817857452072"><ele>52.0</ele><time>2026-05-02T00:28:46Z</time></trkpt><trkpt lat="45.453801141238394" lon="11.391446926090577"><ele>51.5</ele><time>2026-05-02T00:28:47Z</time></trkpt><trkpt lat="45.453630302643965" lon="11.39108017830816"><ele>51.0</ele><time>2026-05-02T00:28:48Z</time></trkpt><trkpt lat="45.45345260757345" lon="11.390718972730188"><ele>50.5</ele><time>2026-05-02T00:28:49Z</time></trkpt><trkpt lat="45.45326820188448" lon="11.390366809325258"><ele>50.0</ele><time>2026-05-02T00:28:50Z</time></trkpt><trkpt lat="45.45307930311729" lon="11.390010412020676"><ele>49.5</ele><time>2026-05-02T00:28:51Z</time></trkpt><trkpt lat="45.452885712671126" lon="11.389658698649724"><ele>49.0</ele><time>2026-05-02T00:28:52Z</time></trkpt><trkpt lat="45.452687340540045" lon="11.389309708809213"><ele>49.0</ele><time>2026-05-02T00:28:53Z</time></trkpt><trkpt lat="45.45248580008066" lon="11.388962665735695"><ele>49.0</ele><time>2026-05-02T00:28:54Z</time></trkpt><trkpt lat="45.452279415500726" lon="11.388624834542886"><ele>48.5</ele><time>2026-05-02T00:28:55Z</time></trkpt><trkpt lat="45.45206541375972" lon="11.38829313466702"><ele>48.0</ele><time>2026-05-02T00:28:56Z</time></trkpt><trkpt lat="45.45184638347223" lon="11.387969056195018"><ele>47.5</ele><time>2026-05-02T00:28:57Z</time></trkpt><trkpt lat="45.45162263088978" lon="11.38765365095329"><ele>47.0</ele><time>2026-05-02T00:28:58Z</time></trkpt><trkpt lat="45.45139821576145" lon="11.387337305969476"><ele>47.0</ele><time>2026-05-02T00:28:59Z</time></trkpt><trkpt lat="45.45117044964057" lon="11.38702466784771"><ele>47.0</ele><time>2026-05-02T00:29:00Z</time></trkpt><trkpt lat="45.450944558712635" lon="11.38671929881247"><ele>47.0</ele><time>2026-05-02T00:29:01Z</time></trkpt><trkpt lat="45.450716625814216" lon="11.38642869097263"><ele>47.0</ele><time>2026-05-02T00:29:02Z</time></trkpt><trkpt lat="45.45048898123382" lon="11.386140188323457"><ele>47.0</ele><time>2026-05-02T00:29:03Z</time></trkpt><trkpt lat="45.450265232721925" lon="11.385855190444378"><ele>47.0</ele><time>2026-05-02T00:29:04Z</time></trkpt><trkpt lat="45.450046554482405" lon="11.385569412789977"><ele>46.5</ele><time>2026-05-02T00:29:05Z</time></trkpt><trkpt lat="45.44983380386566" lon="11.38527932014223"><ele>46.0</ele><time>2026-05-02T00:29:06Z</time></trkpt><trkpt lat="45.44961754330434" lon="11.384990259469799"><ele>46.5</ele><time>2026-05-02T00:29:07Z</time></trkpt><trkpt lat="45.44940493215579" lon="11.38469103893254"><ele>47.0</ele><time>2026-05-02T00:29:08Z</time></trkpt><trkpt lat="45.449192217556615" lon="11.384390565073344"><ele>47.0</ele><time>2026-05-02T00:29:09Z</time></trkpt><trkpt lat="45.4489774131932" lon="11.384102071275677"><ele>47.0</ele><time>2026-05-02T00:29:10Z</time></trkpt><trkpt lat="45.44876076284762" lon="11.383810345211902"><ele>46.5</ele><time>2026-05-02T00:29:11Z</time></trkpt><trkpt lat="45.44853924887465" lon="11.38352533209714"><ele>46.0</ele><time>2026-05-02T00:29:12Z</time></trkpt><trkpt lat="45.44832517480707" lon="11.383238481208375"><ele>46.0</ele><time>2026-05-02T00:29:13Z</time></trkpt><trkpt lat="45.44810807930407" lon="11.382953659881457"><ele>46.0</ele><time>2026-05-02T00:29:14Z</time></trkpt><trkpt lat="45.447896084276394" lon="11.382669526864587"><ele>46.0</ele><time>2026-05-02T00:29:15Z</time></trkpt><trkpt lat="45.44768468627094" lon="11.382386004578306"><ele>46.0</ele><time>2026-05-02T00:29:16Z</time></trkpt><trkpt lat="45.447471539136274" lon="11.382104260850003"><ele>46.0</ele><time>2026-05-02T00:29:17Z</time></trkpt><trkpt lat="45.44726187413345" lon="11.381826614376095"><ele>46.0</ele><time>2026-05-02T00:29:18Z</time></trkpt><trkpt lat="45.447054079818386" lon="11.381552733630784"><ele>46.0</ele><time>2026-05-02T00:29:19Z</time></trkpt><trkpt lat="45.446844867804145" lon="11.381275888224751"><ele>46.0</ele><time>2026-05-02T00:29:20Z</time></trkpt><trkpt lat="45.44663426395129" lon="11.38100006440081"><ele>46.0</ele><time>2026-05-02T00:29:21Z</time></trkpt><trkpt lat="45.4464248072525" lon="11.380719733807195"><ele>46.0</ele><time>2026-05-02T00:29:22Z</time></trkpt><trkpt lat="45.44621129850153" lon="11.380436976860619"><ele>45.5</ele><time>2026-05-02T00:29:23Z</time></trkpt><trkpt lat="45.44599889642069" lon="11.380151897765533"><ele>45.0</ele><time>2026-05-02T00:29:24Z</time></trkpt><trkpt lat="45.44578787736102" lon="11.379862424110009"><ele>45.0</ele><time>2026-05-02T00:29:25Z</time></trkpt><trkpt lat="45.44558292399693" lon="11.379568047360817"><ele>45.0</ele><time>2026-05-02T00:29:26Z</time></trkpt><trkpt lat="45.44537536121114" lon="11.379267050297301"><ele>44.0</ele><time>2026-05-02T00:29:27Z</time></trkpt><trkpt lat="45.44517351830238" lon="11.37896049991183"><ele>43.0</ele><time>2026-05-02T00:29:28Z</time></trkpt><trkpt lat="45.444984536074784" lon="11.378658084440332"><ele>43.0</ele><time>2026-05-02T00:29:29Z</time></trkpt><trkpt lat="45.444805521173194" lon="11.37835688490558"><ele>43.0</ele><time>2026-05-02T00:29:30Z</time></trkpt><trkpt lat="45.44462139653131" lon="11.378049559093922"><ele>44.0</ele><time>2026-05-02T00:29:31Z</time></trkpt><trkpt lat="45.444439319267936" lon="11.377738079428514"><ele>45.0</ele><time>2026-05-02T00:29:32Z</time></trkpt><trkpt lat="45.44425971814805" lon="11.37741665836896"><ele>45.0</ele><time>2026-05-02T00:29:33Z</time></trkpt><trkpt lat="45.44408308967482" lon="11.37708629796194"><ele>45.0</ele><time>2026-05-02T00:29:34Z</time></trkpt><trkpt lat="45.44390923014478" lon="11.376750090905091"><ele>44.5</ele><time>2026-05-02T00:29:35Z</time></trkpt><trkpt lat="45.443738285735066" lon="11.37640917840607"><ele>44.0</ele><time>2026-05-02T00:29:36Z</time></trkpt><trkpt lat="45.44356907957492" lon="11.376060366479942"><ele>44.0</ele><time>2026-05-02T00:29:37Z</time></trkpt><trkpt lat="45.443401724115574" lon="11.375708081577033"><ele>44.0</ele><time>2026-05-02T00:29:38Z</time></trkpt><trkpt lat="45.44323666696377" lon="11.375351925928982"><ele>44.0</ele><time>2026-05-02T00:29:39Z</time></trkpt><trkpt lat="45.44307654830897" lon="11.374991735669827"><ele>44.0</ele><time>2026-05-02T00:29:40Z</time></trkpt><trkpt lat="45.44292010126213" lon="11.37462540384554"><ele>43.5</ele><time>2026-05-02T00:29:41Z</time></trkpt><trkpt lat="45.44277211751465" lon="11.374256715486322"><ele>43.0</ele><time>2026-05-02T00:29:42Z</time></trkpt><trkpt lat="45.442627457548376" lon="11.373882439646167"><ele>43.5</ele><time>2026-05-02T00:29:43Z</time></trkpt><trkpt lat="45.44248677962971" lon="11.373504961734955"><ele>44.0</ele><time>2026-05-02T00:29:44Z</time></trkpt><trkpt lat="45.44234937444861" lon="11.373125136206196"><ele>44.0</ele><time>2026-05-02T00:29:45Z</time></trkpt><trkpt lat="45.44221469517451" lon="11.37274329975153"><ele>44.0</ele><time>2026-05-02T00:29:46Z</time></trkpt><trkpt lat="45.44208609488804" lon="11.372359944830166"><ele>42.5</ele><time>2026-05-02T00:29:47Z</time></trkpt><trkpt lat="45.44196228776767" lon="11.37197288155088"><ele>41.0</ele><time>2026-05-02T00:29:48Z</time></trkpt><trkpt lat="45.44184289084905" lon="11.371582468544068"><ele>42.0</ele><time>2026-05-02T00:29:49Z</time></trkpt><trkpt lat="45.441730997866365" lon="11.371190209747539"><ele>43.0</ele><time>2026-05-02T00:29:50Z</time></trkpt><trkpt lat="45.44162609920335" lon="11.37079769385901"><ele>42.5</ele><time>2026-05-02T00:29:51Z</time></trkpt><trkpt lat="45.44152506006845" lon="11.37040490621799"><ele>42.0</ele><time>2026-05-02T00:29:52Z</time></trkpt><trkpt lat="45.44142540209073" lon="11.3700099583278"><ele>41.5</ele><time>2026-05-02T00:29:53Z</time></trkpt><trkpt lat="45.44132450414024" lon="11.369611666200344"><ele>41.0</ele><time>2026-05-02T00:29:54Z</time></trkpt><trkpt lat="45.44122877117004" lon="11.369205283542103"><ele>41.5</ele><time>2026-05-02T00:29:55Z</time></trkpt><trkpt lat="45.44112784514937" lon="11.36880459010497"><ele>42.0</ele><time>2026-05-02T00:29:56Z</time></trkpt><trkpt lat="45.44102616779435" lon="11.368408645550426"><ele>42.5</ele><time>2026-05-02T00:29:57Z</time></trkpt><trkpt lat="45.440926591975675" lon="11.368010023844898"><ele>43.0</ele><time>2026-05-02T00:29:58Z</time></trkpt><trkpt lat="45.44082612856208" lon="11.367613146070514"><ele>43.0</ele><time>2026-05-02T00:29:59Z</time></trkpt><trkpt lat="45.440725949142475" lon="11.367216794590641"><ele>43.0</ele><time>2026-05-02T00:30:00Z</time></trkpt><trkpt lat="45.4406258884307" lon="11.36682190003873"><ele>42.5</ele><time>2026-05-02T00:30:01Z</time></trkpt><trkpt lat="45.44052330603887" lon="11.366421262413542"><ele>42.0</ele><time>2026-05-02T00:30:02Z</time></trkpt><trkpt lat="45.44042005519553" lon="11.366022862885181"><ele>41.5</ele><time>2026-05-02T00:30:03Z</time></trkpt><trkpt lat="45.44031398591545" lon="11.365629525753908"><ele>41.0</ele><time>2026-05-02T00:30:04Z</time></trkpt><trkpt lat="45.44019862496421" lon="11.365240659221836"><ele>41.0</ele><time>2026-05-02T00:30:05Z</time></trkpt><trkpt lat="45.44008057527833" lon="11.364850580587627"><ele>41.0</ele><time>2026-05-02T00:30:06Z</time></trkpt><trkpt lat="45.43995274241376" lon="11.364464435169658"><ele>41.0</ele><time>2026-05-02T00:30:07Z</time></trkpt><trkpt lat="45.43982256725143" lon="11.36408020338516"><ele>41.0</ele><time>2026-05-02T00:30:08Z</time></trkpt><trkpt lat="45.43968952241476" lon="11.363698048815024"><ele>39.5</ele><time>2026-05-02T00:30:09Z</time></trkpt><trkpt lat="45.439554285351164" lon="11.363318143565346"><ele>38.0</ele><time>2026-05-02T00:30:10Z</time></trkpt><trkpt lat="45.43941463463383" lon="11.362944114073585"><ele>38.0</ele><time>2026-05-02T00:30:11Z</time></trkpt><trkpt lat="45.43926886991321" lon="11.36257329961154"><ele>38.0</ele><time>2026-05-02T00:30:12Z</time></trkpt><trkpt lat="45.43911700678597" lon="11.362212089566388"><ele>38.5</ele><time>2026-05-02T00:30:13Z</time></trkpt><trkpt lat="45.438961799493654" lon="11.361852787813408"><ele>39.0</ele><time>2026-05-02T00:30:14Z</time></trkpt><trkpt lat="45.43880581171516" lon="11.361495122993173"><ele>39.5</ele><time>2026-05-02T00:30:15Z</time></trkpt><trkpt lat="45.438651179914785" lon="11.361136500558871"><ele>40.0</ele><time>2026-05-02T00:30:16Z</time></trkpt><trkpt lat="45.43848378248386" lon="11.360777925265612"><ele>39.0</ele><time>2026-05-02T00:30:17Z</time></trkpt><trkpt lat="45.43833849536413" lon="11.360409386514897"><ele>38.0</ele><time>2026-05-02T00:30:18Z</time></trkpt><trkpt lat="45.43818165973501" lon="11.360041675523957"><ele>38.0</ele><time>2026-05-02T00:30:19Z</time></trkpt><trkpt lat="45.43802564645624" lon="11.359676018755545"><ele>38.0</ele><time>2026-05-02T00:30:20Z</time></trkpt><trkpt lat="45.437867641049856" lon="11.35931110146706"><ele>38.0</ele><time>2026-05-02T00:30:21Z</time></trkpt><trkpt lat="45.437705908809164" lon="11.358949736341705"><ele>38.0</ele><time>2026-05-02T00:30:22Z</time></trkpt><trkpt lat="45.43754785076437" lon="11.35858425308632"><ele>38.0</ele><time>2026-05-02T00:30:23Z</time></trkpt><trkpt lat="45.437391846581704" lon="11.358226707742448"><ele>38.0</ele><time>2026-05-02T00:30:24Z</time></trkpt><trkpt lat="45.43723743244953" lon="11.357869034462675"><ele>38.0</ele><time>2026-05-02T00:30:25Z</time></trkpt><trkpt lat="45.43707761560756" lon="11.357507811386386"><ele>38.0</ele><time>2026-05-02T00:30:26Z</time></trkpt><trkpt lat="45.43692100100868" lon="11.357146511158648"><ele>38.0</ele><time>2026-05-02T00:30:27Z</time></trkpt><trkpt lat="45.43676290462634" lon="11.356782619299421"><ele>38.0</ele><time>2026-05-02T00:30:28Z</time></trkpt><trkpt lat="45.43660644933432" lon="11.356419609113651"><ele>37.5</ele><time>2026-05-02T00:30:29Z</time></trkpt><trkpt lat="45.43644751523922" lon="11.356051748737444"><ele>37.0</ele><time>2026-05-02T00:30:30Z</time></trkpt><trkpt lat="45.43629322463686" lon="11.355679655954109"><ele>38.5</ele><time>2026-05-02T00:30:31Z</time></trkpt><trkpt lat="45.436135392885134" lon="11.355311957419058"><ele>40.0</ele><time>2026-05-02T00:30:32Z</time></trkpt><trkpt lat="45.43597597007507" lon="11.354946060211551"><ele>38.5</ele><time>2026-05-02T00:30:33Z</time></trkpt><trkpt lat="45.43581708536724" lon="11.354578805496791"><ele>37.0</ele><time>2026-05-02T00:30:34Z</time></trkpt><trkpt lat="45.435660151493856" lon="11.35421279124869"><ele>37.5</ele><time>2026-05-02T00:30:35Z</time></trkpt><trkpt lat="45.4355015195683" lon="11.353847512797413"><ele>38.0</ele><time>2026-05-02T00:30:36Z</time></trkpt><trkpt lat="45.4353454977767" lon="11.353479534512795"><ele>38.5</ele><time>2026-05-02T00:30:37Z</time></trkpt><trkpt lat="45.435186484856494" lon="11.353110287189041"><ele>39.0</ele><time>2026-05-02T00:30:38Z</time></trkpt><trkpt lat="45.43503112699977" lon="11.352745058050955"><ele>39.0</ele><time>2026-05-02T00:30:39Z</time></trkpt><trkpt lat="45.43487568256324" lon="11.352376175359693"><ele>39.0</ele><time>2026-05-02T00:30:40Z</time></trkpt><trkpt lat="45.43471804215922" lon="11.352008963870189"><ele>38.0</ele><time>2026-05-02T00:30:41Z</time></trkpt><trkpt lat="45.434561210398904" lon="11.351638068474095"><ele>37.0</ele><time>2026-05-02T00:30:42Z</time></trkpt><trkpt lat="45.43440418980153" lon="11.35126828891286"><ele>37.0</ele><time>2026-05-02T00:30:43Z</time></trkpt><trkpt lat="45.43424932311318" lon="11.350902525809635"><ele>37.0</ele><time>2026-05-02T00:30:44Z</time></trkpt><trkpt lat="45.43409217726933" lon="11.350533119454138"><ele>37.0</ele><time>2026-05-02T00:30:45Z</time></trkpt><trkpt lat="45.433932471407374" lon="11.350160772030623"><ele>37.0</ele><time>2026-05-02T00:30:46Z</time></trkpt><trkpt lat="45.43377140296655" lon="11.3497907688342"><ele>37.5</ele><time>2026-05-02T00:30:47Z</time></trkpt><trkpt lat="45.43361110365779" lon="11.349419798740358"><ele>38.0</ele><time>2026-05-02T00:30:48Z</time></trkpt><trkpt lat="45.43345279571347" lon="11.349051536758633"><ele>37.5</ele><time>2026-05-02T00:30:49Z</time></trkpt><trkpt lat="45.433296468371566" lon="11.34868132814513"><ele>37.0</ele><time>2026-05-02T00:30:50.001Z</time></trkpt><trkpt lat="45.433138179877524" lon="11.34831542423321"><ele>36.5</ele><time>2026-05-02T00:30:51.001Z</time></trkpt><trkpt lat="45.432979448431" lon="11.347948610985366"><ele>36.0</ele><time>2026-05-02T00:30:52.001Z</time></trkpt><trkpt lat="45.43282309762208" lon="11.347576298359245"><ele>36.0</ele><time>2026-05-02T00:30:53Z</time></trkpt><trkpt lat="45.43266453985557" lon="11.347208601775192"><ele>36.0</ele><time>2026-05-02T00:30:54Z</time></trkpt><trkpt lat="45.43250767647569" lon="11.34683969060722"><ele>36.0</ele><time>2026-05-02T00:30:55Z</time></trkpt><trkpt lat="45.432349829472734" lon="11.3464683157246"><ele>36.0</ele><time>2026-05-02T00:30:56Z</time></trkpt><trkpt lat="45.43219311294724" lon="11.34609761224566"><ele>36.5</ele><time>2026-05-02T00:30:57Z</time></trkpt><trkpt lat="45.432036489663986" lon="11.3457292497919"><ele>37.0</ele><time>2026-05-02T00:30:58Z</time></trkpt><trkpt lat="45.43187898477628" lon="11.345360680822331"><ele>35.0</ele><time>2026-05-02T00:30:59Z</time></trkpt><trkpt lat="45.43172048449917" lon="11.344992349275284"><ele>33.0</ele><time>2026-05-02T00:31:00Z</time></trkpt><trkpt lat="45.431562099312416" lon="11.344622490756002"><ele>33.0</ele><time>2026-05-02T00:31:01Z</time></trkpt><trkpt lat="45.43140295299765" lon="11.344254304675049"><ele>33.0</ele><time>2026-05-02T00:31:02Z</time></trkpt><trkpt lat="45.43124944528453" lon="11.343898328420508"><ele>34.5</ele><time>2026-05-02T00:31:03Z</time></trkpt><trkpt lat="45.4311021311748" lon="11.34355558839435"><ele>36.0</ele><time>2026-05-02T00:31:04Z</time></trkpt><trkpt lat="45.430947610968474" lon="11.343199047732693"><ele>35.5</ele><time>2026-05-02T00:31:05Z</time></trkpt><trkpt lat="45.430793134545205" lon="11.34283367982886"><ele>35.0</ele><time>2026-05-02T00:31:06Z</time></trkpt><trkpt lat="45.43063464177575" lon="11.342461783244584"><ele>34.5</ele><time>2026-05-02T00:31:07Z</time></trkpt><trkpt lat="45.43047314390215" lon="11.34208545518308"><ele>34.0</ele><time>2026-05-02T00:31:08Z</time></trkpt><trkpt lat="45.430309049772575" lon="11.341701772056908"><ele>34.5</ele><time>2026-05-02T00:31:09Z</time></trkpt><trkpt lat="45.43014480357523" lon="11.341318749030393"><ele>35.0</ele><time>2026-05-02T00:31:10Z</time></trkpt><trkpt lat="45.429979121115274" lon="11.340931699808847"><ele>34.5</ele><time>2026-05-02T00:31:11Z</time></trkpt><trkpt lat="45.42981404913348" lon="11.340543010715011"><ele>34.0</ele><time>2026-05-02T00:31:12Z</time></trkpt><trkpt lat="45.42964908321557" lon="11.34015806332948"><ele>34.5</ele><time>2026-05-02T00:31:13Z</time></trkpt><trkpt lat="45.42948542724355" lon="11.339774077278863"><ele>35.0</ele><time>2026-05-02T00:31:14Z</time></trkpt><trkpt lat="45.42932085279286" lon="11.339388502625518"><ele>35.0</ele><time>2026-05-02T00:31:15Z</time></trkpt><trkpt lat="45.42915871557216" lon="11.339009795937242"><ele>35.0</ele><time>2026-05-02T00:31:16Z</time></trkpt><trkpt lat="45.42899793190827" lon="11.338632471978375"><ele>35.0</ele><time>2026-05-02T00:31:17Z</time></trkpt><trkpt lat="45.42883743416549" lon="11.338257508017342"><ele>35.0</ele><time>2026-05-02T00:31:18Z</time></trkpt><trkpt lat="45.42867649882174" lon="11.33788476296144"><ele>34.5</ele><time>2026-05-02T00:31:19Z</time></trkpt><trkpt lat="45.428517126842586" lon="11.337514764009246"><ele>34.0</ele><time>2026-05-02T00:31:20Z</time></trkpt><trkpt lat="45.42835890519902" lon="11.337147806679331"><ele>34.0</ele><time>2026-05-02T00:31:21Z</time></trkpt><trkpt lat="45.42820233500761" lon="11.3367817038196"><ele>34.0</ele><time>2026-05-02T00:31:22Z</time></trkpt><trkpt lat="45.428044763560784" lon="11.33641511048943"><ele>34.0</ele><time>2026-05-02T00:31:23Z</time></trkpt><trkpt lat="45.42788708935141" lon="11.336051267202164"><ele>34.0</ele><time>2026-05-02T00:31:24Z</time></trkpt><trkpt lat="45.42772877836273" lon="11.335688021570867"><ele>34.5</ele><time>2026-05-02T00:31:25Z</time></trkpt><trkpt lat="45.42757380216663" lon="11.335327201684828"><ele>35.0</ele><time>2026-05-02T00:31:26Z</time></trkpt><trkpt lat="45.42741931584717" lon="11.334965367347179"><ele>34.5</ele><time>2026-05-02T00:31:27Z</time></trkpt><trkpt lat="45.42726516227351" lon="11.334602299450934"><ele>34.0</ele><time>2026-05-02T00:31:28Z</time></trkpt><trkpt lat="45.42710953669066" lon="11.334235245749596"><ele>34.5</ele><time>2026-05-02T00:31:29Z</time></trkpt><trkpt lat="45.4269531024817" lon="11.333866912028816"><ele>35.0</ele><time>2026-05-02T00:31:30Z</time></trkpt><trkpt lat="45.426794243117776" lon="11.333497110120188"><ele>35.0</ele><time>2026-05-02T00:31:31Z</time></trkpt><trkpt lat="45.426635004983105" lon="11.333120254728275"><ele>35.0</ele><time>2026-05-02T00:31:32Z</time></trkpt><trkpt lat="45.42647120028648" lon="11.33275092661591"><ele>34.5</ele><time>2026-05-02T00:31:33Z</time></trkpt><trkpt lat="45.42630800025058" lon="11.332377881185993"><ele>34.0</ele><time>2026-05-02T00:31:34Z</time></trkpt><trkpt lat="45.42614182397237" lon="11.33200384244146"><ele>34.0</ele><time>2026-05-02T00:31:35Z</time></trkpt><trkpt lat="45.42597418688178" lon="11.331636849549184"><ele>34.0</ele><time>2026-05-02T00:31:36Z</time></trkpt><trkpt lat="45.42580723906181" lon="11.331264721920187"><ele>35.0</ele><time>2026-05-02T00:31:37Z</time></trkpt><trkpt lat="45.425640946745894" lon="11.33089006966097"><ele>36.0</ele><time>2026-05-02T00:31:38Z</time></trkpt><trkpt lat="45.42547549050415" lon="11.330513371072039"><ele>33.5</ele><time>2026-05-02T00:31:39Z</time></trkpt><trkpt lat="45.42531590239403" lon="11.330138338752478"><ele>31.0</ele><time>2026-05-02T00:31:40Z</time></trkpt><trkpt lat="45.425154588968596" lon="11.329766345838157"><ele>31.5</ele><time>2026-05-02T00:31:41Z</time></trkpt><trkpt lat="45.42499501252199" lon="11.32939245205412"><ele>32.0</ele><time>2026-05-02T00:31:42Z</time></trkpt><trkpt lat="45.42483366872428" lon="11.329024285558118"><ele>32.0</ele><time>2026-05-02T00:31:43Z</time></trkpt><trkpt lat="45.42467311117191" lon="11.328657843396275"><ele>32.0</ele><time>2026-05-02T00:31:44Z</time></trkpt><trkpt lat="45.42451371304953" lon="11.328290888960213"><ele>33.5</ele><time>2026-05-02T00:31:45Z</time></trkpt><trkpt lat="45.424357582781056" lon="11.327926567066939"><ele>35.0</ele><time>2026-05-02T00:31:46Z</time></trkpt><trkpt lat="45.42420103259116" lon="11.327562739371904"><ele>36.0</ele><time>2026-05-02T00:31:47Z</time></trkpt><trkpt lat="45.424046581694874" lon="11.32720039916142"><ele>37.0</ele><time>2026-05-02T00:31:48Z</time></trkpt><trkpt lat="45.423890011043255" lon="11.326834099508803"><ele>37.5</ele><time>2026-05-02T00:31:49Z</time></trkpt><trkpt lat="45.42373403834891" lon="11.326466289771503"><ele>38.0</ele><time>2026-05-02T00:31:50Z</time></trkpt><trkpt lat="45.42357880670242" lon="11.326096221829903"><ele>38.0</ele><time>2026-05-02T00:31:51Z</time></trkpt><trkpt lat="45.423425459310174" lon="11.325721620698841"><ele>38.0</ele><time>2026-05-02T00:31:52Z</time></trkpt><trkpt lat="45.423276501337554" lon="11.325344318227165"><ele>37.0</ele><time>2026-05-02T00:31:53Z</time></trkpt><trkpt lat="45.42312351997581" lon="11.324972824752335"><ele>36.0</ele><time>2026-05-02T00:31:54Z</time></trkpt><trkpt lat="45.42297181674562" lon="11.32460168521478"><ele>35.5</ele><time>2026-05-02T00:31:55Z</time></trkpt><trkpt lat="45.42281821790289" lon="11.324229923765937"><ele>35.0</ele><time>2026-05-02T00:31:56Z</time></trkpt><trkpt lat="45.4226654834606" lon="11.323853539681487"><ele>35.0</ele><time>2026-05-02T00:31:57Z</time></trkpt><trkpt lat="45.42250694401574" lon="11.323483925501575"><ele>35.0</ele><time>2026-05-02T00:31:58Z</time></trkpt><trkpt lat="45.422348942167" lon="11.323113981922429"><ele>34.5</ele><time>2026-05-02T00:31:59Z</time></trkpt><trkpt lat="45.42218976722012" lon="11.32274202964786"><ele>34.0</ele><time>2026-05-02T00:32:00Z</time></trkpt><trkpt lat="45.422026975963476" lon="11.322366838993242"><ele>34.0</ele><time>2026-05-02T00:32:01Z</time></trkpt><trkpt lat="45.421862951864135" lon="11.321995303190214"><ele>34.0</ele><time>2026-05-02T00:32:02Z</time></trkpt><trkpt lat="45.42170480319569" lon="11.321618874146838"><ele>33.5</ele><time>2026-05-02T00:32:03Z</time></trkpt><trkpt lat="45.421540572256184" lon="11.321245064147169"><ele>33.0</ele><time>2026-05-02T00:32:04Z</time></trkpt><trkpt lat="45.42138218863466" lon="11.320870601963957"><ele>32.5</ele><time>2026-05-02T00:32:05Z</time></trkpt><trkpt lat="45.42121935956247" lon="11.320497753273342"><ele>32.0</ele><time>2026-05-02T00:32:06Z</time></trkpt><trkpt lat="45.42105539170761" lon="11.320124700845076"><ele>32.0</ele><time>2026-05-02T00:32:07Z</time></trkpt><trkpt lat="45.42089497622289" lon="11.319755330619616"><ele>32.0</ele><time>2026-05-02T00:32:08Z</time></trkpt><trkpt lat="45.42074043148057" lon="11.319381411774222"><ele>32.0</ele><time>2026-05-02T00:32:09Z</time></trkpt><trkpt lat="45.42059643204623" lon="11.319006547925383"><ele>32.0</ele><time>2026-05-02T00:32:10Z</time></trkpt><trkpt lat="45.42044726234156" lon="11.318628196532146"><ele>31.5</ele><time>2026-05-02T00:32:11Z</time></trkpt><trkpt lat="45.42030628112163" lon="11.318243024809812"><ele>31.0</ele><time>2026-05-02T00:32:12Z</time></trkpt><trkpt lat="45.42017399087984" lon="11.31785266118207"><ele>32.0</ele><time>2026-05-02T00:32:13Z</time></trkpt><trkpt lat="45.42004533584631" lon="11.31745969998227"><ele>33.0</ele><time>2026-05-02T00:32:14Z</time></trkpt><trkpt lat="45.419919795407466" lon="11.317063212265099"><ele>33.0</ele><time>2026-05-02T00:32:15Z</time></trkpt><trkpt lat="45.419794006293124" lon="11.316667967285444"><ele>33.0</ele><time>2026-05-02T00:32:16Z</time></trkpt><trkpt lat="45.41967498457977" lon="11.316270790808803"><ele>32.0</ele><time>2026-05-02T00:32:17Z</time></trkpt><trkpt lat="45.419559987079765" lon="11.315868058912034"><ele>31.0</ele><time>2026-05-02T00:32:18Z</time></trkpt><trkpt lat="45.419450741845274" lon="11.31546386369647"><ele>31.0</ele><time>2026-05-02T00:32:19Z</time></trkpt><trkpt lat="45.41934704703611" lon="11.315058106197256"><ele>31.0</ele><time>2026-05-02T00:32:20Z</time></trkpt><trkpt lat="45.41924761635764" lon="11.314649974980577"><ele>31.0</ele><time>2026-05-02T00:32:21Z</time></trkpt><trkpt lat="45.419152511357446" lon="11.31423870842452"><ele>31.0</ele><time>2026-05-02T00:32:22Z</time></trkpt><trkpt lat="45.41905881426034" lon="11.313830435955422"><ele>30.5</ele><time>2026-05-02T00:32:23Z</time></trkpt><trkpt lat="45.418964448593066" lon="11.313421678798306"><ele>30.0</ele><time>2026-05-02T00:32:24Z</time></trkpt><trkpt lat="45.418869485598904" lon="11.313015404999312"><ele>30.5</ele><time>2026-05-02T00:32:25Z</time></trkpt><trkpt lat="45.418778151802805" lon="11.31260305775061"><ele>31.0</ele><time>2026-05-02T00:32:26Z</time></trkpt><trkpt lat="45.418683472798406" lon="11.312194050457109"><ele>30.0</ele><time>2026-05-02T00:32:27Z</time></trkpt><trkpt lat="45.418591457838374" lon="11.311801613936952"><ele>29.0</ele><time>2026-05-02T00:32:28Z</time></trkpt><trkpt lat="45.41849814990881" lon="11.311412645214764"><ele>29.5</ele><time>2026-05-02T00:32:29Z</time></trkpt><trkpt lat="45.418403063512336" lon="11.311009855884503"><ele>30.0</ele><time>2026-05-02T00:32:30Z</time></trkpt><trkpt lat="45.418309064133105" lon="11.31059591608435"><ele>30.0</ele><time>2026-05-02T00:32:31Z</time></trkpt><trkpt lat="45.41821011387659" lon="11.310178739522557"><ele>30.0</ele><time>2026-05-02T00:32:32Z</time></trkpt><trkpt lat="45.418108869667854" lon="11.309759791947586"><ele>30.0</ele><time>2026-05-02T00:32:33Z</time></trkpt><trkpt lat="45.41800836653626" lon="11.309340624180921"><ele>30.0</ele><time>2026-05-02T00:32:34Z</time></trkpt><trkpt lat="45.4179089388528" lon="11.308925770819704"><ele>30.5</ele><time>2026-05-02T00:32:35Z</time></trkpt><trkpt lat="45.41781107444751" lon="11.308509009814394"><ele>31.0</ele><time>2026-05-02T00:32:36Z</time></trkpt><trkpt lat="45.417713317638324" lon="11.30809615471676"><ele>31.0</ele><time>2026-05-02T00:32:37Z</time></trkpt><trkpt lat="45.41761360352017" lon="11.307679162791358"><ele>31.0</ele><time>2026-05-02T00:32:38Z</time></trkpt><trkpt lat="45.41751576444654" lon="11.307270561806348"><ele>32.0</ele><time>2026-05-02T00:32:39Z</time></trkpt><trkpt lat="45.41741773947134" lon="11.30685580079699"><ele>33.0</ele><time>2026-05-02T00:32:40Z</time></trkpt><trkpt lat="45.41732062350308" lon="11.306442710120532"><ele>33.0</ele><time>2026-05-02T00:32:41Z</time></trkpt><trkpt lat="45.417222079190964" lon="11.306030739461269"><ele>33.0</ele><time>2026-05-02T00:32:42Z</time></trkpt><trkpt lat="45.41712514594033" lon="11.305615437756192"><ele>32.0</ele><time>2026-05-02T00:32:43Z</time></trkpt><trkpt lat="45.41702871813994" lon="11.305203256951446"><ele>31.0</ele><time>2026-05-02T00:32:44Z</time></trkpt><trkpt lat="45.416930206159854" lon="11.304786247778933"><ele>30.5</ele><time>2026-05-02T00:32:45Z</time></trkpt><trkpt lat="45.41683506267082" lon="11.304376697942248"><ele>30.0</ele><time>2026-05-02T00:32:46Z</time></trkpt><trkpt lat="45.416738107185566" lon="11.30396881368604"><ele>30.0</ele><time>2026-05-02T00:32:47Z</time></trkpt><trkpt lat="45.41664155174477" lon="11.303562010629237"><ele>30.0</ele><time>2026-05-02T00:32:48Z</time></trkpt><trkpt lat="45.41654570231893" lon="11.303155262029412"><ele>30.5</ele><time>2026-05-02T00:32:49Z</time></trkpt><trkpt lat="45.41644826685524" lon="11.302744073459916"><ele>31.0</ele><time>2026-05-02T00:32:50Z</time></trkpt><trkpt lat="45.41635304401813" lon="11.302334295569423"><ele>31.0</ele><time>2026-05-02T00:32:51Z</time></trkpt><trkpt lat="45.41625589718226" lon="11.301927348733825"><ele>31.0</ele><time>2026-05-02T00:32:52Z</time></trkpt><trkpt lat="45.41616005068042" lon="11.301512506312323"><ele>32.0</ele><time>2026-05-02T00:32:53Z</time></trkpt><trkpt lat="45.41606384038345" lon="11.301103620918841"><ele>33.0</ele><time>2026-05-02T00:32:54Z</time></trkpt><trkpt lat="45.41596910540703" lon="11.300695672970914"><ele>32.5</ele><time>2026-05-02T00:32:55Z</time></trkpt><trkpt lat="45.41587457207678" lon="11.300287480546238"><ele>32.0</ele><time>2026-05-02T00:32:56Z</time></trkpt><trkpt lat="45.4157774364211" lon="11.299876881918605"><ele>32.0</ele><time>2026-05-02T00:32:57Z</time></trkpt><trkpt lat="45.41568075431702" lon="11.299466254749218"><ele>32.0</ele><time>2026-05-02T00:32:58Z</time></trkpt><trkpt lat="45.41558454657789" lon="11.299058884766625"><ele>32.5</ele><time>2026-05-02T00:32:59Z</time></trkpt><trkpt lat="45.41548832826433" lon="11.298649146945069"><ele>33.0</ele><time>2026-05-02T00:33:00Z</time></trkpt><trkpt lat="45.41539154836489" lon="11.298238363205522"><ele>33.0</ele><time>2026-05-02T00:33:01Z</time></trkpt><trkpt lat="45.415293980706366" lon="11.297829669034794"><ele>33.0</ele><time>2026-05-02T00:33:02Z</time></trkpt><trkpt lat="45.415195285894285" lon="11.29741851714294"><ele>33.5</ele><time>2026-05-02T00:33:03Z</time></trkpt><trkpt lat="45.41509671796024" lon="11.297004976173774"><ele>34.0</ele><time>2026-05-02T00:33:04Z</time></trkpt><trkpt lat="45.41499863280723" lon="11.296593379935905"><ele>33.5</ele><time>2026-05-02T00:33:05Z</time></trkpt><trkpt lat="45.41490079957726" lon="11.296176519233804"><ele>33.0</ele><time>2026-05-02T00:33:06Z</time></trkpt><trkpt lat="45.414802753072564" lon="11.29576255011043"><ele>33.0</ele><time>2026-05-02T00:33:07Z</time></trkpt><trkpt lat="45.41470634386144" lon="11.29534840943154"><ele>33.0</ele><time>2026-05-02T00:33:08Z</time></trkpt><trkpt lat="45.41460953281384" lon="11.294937322033899"><ele>31.5</ele><time>2026-05-02T00:33:09Z</time></trkpt><trkpt lat="45.41451413880517" lon="11.294526315124218"><ele>30.0</ele><time>2026-05-02T00:33:10Z</time></trkpt><trkpt lat="45.41441868142517" lon="11.294117288321662"><ele>30.5</ele><time>2026-05-02T00:33:11Z</time></trkpt><trkpt lat="45.4143212932325" lon="11.293713199195428"><ele>31.0</ele><time>2026-05-02T00:33:12Z</time></trkpt><trkpt lat="45.414228731875994" lon="11.293302560238727"><ele>31.0</ele><time>2026-05-02T00:33:13Z</time></trkpt><trkpt lat="45.4141311491682" lon="11.292897758751971"><ele>31.0</ele><time>2026-05-02T00:33:14Z</time></trkpt><trkpt lat="45.41403255743358" lon="11.29249272701771"><ele>30.5</ele><time>2026-05-02T00:33:15Z</time></trkpt><trkpt lat="45.413930003175835" lon="11.292094410408783"><ele>30.0</ele><time>2026-05-02T00:33:16Z</time></trkpt><trkpt lat="45.41382728918141" lon="11.291699555780449"><ele>30.0</ele><time>2026-05-02T00:33:17Z</time></trkpt><trkpt lat="45.413725335877615" lon="11.291297820864372"><ele>30.0</ele><time>2026-05-02T00:33:18Z</time></trkpt><trkpt lat="45.41362555530874" lon="11.290896336310412"><ele>31.0</ele><time>2026-05-02T00:33:19Z</time></trkpt><trkpt lat="45.41352778596891" lon="11.290494861086689"><ele>32.0</ele><time>2026-05-02T00:33:20Z</time></trkpt><trkpt lat="45.41343206844285" lon="11.290096027378658"><ele>32.0</ele><time>2026-05-02T00:33:21Z</time></trkpt><trkpt lat="45.41333512451033" lon="11.289695618517488"><ele>32.0</ele><time>2026-05-02T00:33:22Z</time></trkpt><trkpt lat="45.413234298931634" lon="11.28929807733205"><ele>30.0</ele><time>2026-05-02T00:33:23Z</time></trkpt><trkpt lat="45.4131370626433" lon="11.288899999647393"><ele>28.0</ele><time>2026-05-02T00:33:24Z</time></trkpt><trkpt lat="45.41304002856118" lon="11.288497981972236"><ele>29.5</ele><time>2026-05-02T00:33:25Z</time></trkpt><trkpt lat="45.41294639579442" lon="11.288098062840456"><ele>31.0</ele><time>2026-05-02T00:33:26Z</time></trkpt><trkpt lat="45.41285359184669" lon="11.287697166433704"><ele>31.5</ele><time>2026-05-02T00:33:27Z</time></trkpt><trkpt lat="45.412757219701746" lon="11.287296237808158"><ele>32.0</ele><time>2026-05-02T00:33:28Z</time></trkpt><trkpt lat="45.41266177637532" lon="11.28689272340377"><ele>32.5</ele><time>2026-05-02T00:33:29Z</time></trkpt><trkpt lat="45.41256900442291" lon="11.286487760774353"><ele>33.0</ele><time>2026-05-02T00:33:30Z</time></trkpt><trkpt lat="45.41247417830407" lon="11.286082047740129"><ele>33.5</ele><time>2026-05-02T00:33:31Z</time></trkpt><trkpt lat="45.412378229764606" lon="11.285675390132932"><ele>34.0</ele><time>2026-05-02T00:33:32Z</time></trkpt><trkpt lat="45.4122833755084" lon="11.285268628637448"><ele>34.0</ele><time>2026-05-02T00:33:33Z</time></trkpt><trkpt lat="45.412188799585934" lon="11.284865080668066"><ele>34.0</ele><time>2026-05-02T00:33:34Z</time></trkpt><trkpt lat="45.412093430636666" lon="11.284464922569757"><ele>33.0</ele><time>2026-05-02T00:33:35Z</time></trkpt><trkpt lat="45.41199815072127" lon="11.284060143295285"><ele>32.0</ele><time>2026-05-02T00:33:36Z</time></trkpt><trkpt lat="45.411902198151424" lon="11.283652642898772"><ele>31.0</ele><time>2026-05-02T00:33:37Z</time></trkpt><trkpt lat="45.41180609107101" lon="11.283246080822185"><ele>30.0</ele><time>2026-05-02T00:33:38Z</time></trkpt><trkpt lat="45.411710737075914" lon="11.282839571070093"><ele>29.5</ele><time>2026-05-02T00:33:39Z</time></trkpt><trkpt lat="45.41161376731082" lon="11.282434037988308"><ele>29.0</ele><time>2026-05-02T00:33:40Z</time></trkpt><trkpt lat="45.41151585641555" lon="11.282031094427005"><ele>29.5</ele><time>2026-05-02T00:33:41Z</time></trkpt><trkpt lat="45.41142273727412" lon="11.281624417187178"><ele>30.0</ele><time>2026-05-02T00:33:42Z</time></trkpt><trkpt lat="45.41133475205315" lon="11.281212425416255"><ele>30.0</ele><time>2026-05-02T00:33:43Z</time></trkpt><trkpt lat="45.41124882980573" lon="11.280797399071089"><ele>30.0</ele><time>2026-05-02T00:33:44Z</time></trkpt><trkpt lat="45.411161293368934" lon="11.280380751815756"><ele>30.0</ele><time>2026-05-02T00:33:45Z</time></trkpt><trkpt lat="45.41106575520867" lon="11.279969989918143"><ele>30.0</ele><time>2026-05-02T00:33:46Z</time></trkpt><trkpt lat="45.41097564761722" lon="11.279550379536259"><ele>30.0</ele><time>2026-05-02T00:33:47Z</time></trkpt><trkpt lat="45.41087891652128" lon="11.279134543615509"><ele>30.0</ele><time>2026-05-02T00:33:48Z</time></trkpt><trkpt lat="45.41078096658272" lon="11.278721935873312"><ele>31.0</ele><time>2026-05-02T00:33:49Z</time></trkpt><trkpt lat="45.41068498063904" lon="11.27831112430868"><ele>32.0</ele><time>2026-05-02T00:33:50Z</time></trkpt><trkpt lat="45.41059208066917" lon="11.27790519975062"><ele>32.5</ele><time>2026-05-02T00:33:51Z</time></trkpt><trkpt lat="45.41049685630184" lon="11.277499733030767"><ele>33.0</ele><time>2026-05-02T00:33:52Z</time></trkpt><trkpt lat="45.41040008716327" lon="11.277097355796476"><ele>31.5</ele><time>2026-05-02T00:33:53Z</time></trkpt><trkpt lat="45.410303708649515" lon="11.276694481165228"><ele>30.0</ele><time>2026-05-02T00:33:54Z</time></trkpt><trkpt lat="45.41020903872761" lon="11.276292011460518"><ele>29.5</ele><time>2026-05-02T00:33:55Z</time></trkpt><trkpt lat="45.410112872091666" lon="11.275889541205974"><ele>29.0</ele><time>2026-05-02T00:33:56Z</time></trkpt><trkpt lat="45.41001815140952" lon="11.275486581263559"><ele>29.0</ele><time>2026-05-02T00:33:57Z</time></trkpt><trkpt lat="45.40992581524245" lon="11.27508451917774"><ele>29.0</ele><time>2026-05-02T00:33:58Z</time></trkpt><trkpt lat="45.40983559359337" lon="11.274681517369576"><ele>29.0</ele><time>2026-05-02T00:33:59Z</time></trkpt><trkpt lat="45.4097470345979" lon="11.274277383422508"><ele>29.0</ele><time>2026-05-02T00:34:00Z</time></trkpt><trkpt lat="45.409660918933085" lon="11.273872175113665"><ele>29.0</ele><time>2026-05-02T00:34:01Z</time></trkpt><trkpt lat="45.40957883256883" lon="11.273468257805286"><ele>29.0</ele><time>2026-05-02T00:34:02Z</time></trkpt><trkpt lat="45.40950157206623" lon="11.27307153390086"><ele>29.0</ele><time>2026-05-02T00:34:03Z</time></trkpt><trkpt lat="45.409432644200095" lon="11.272684156622866"><ele>29.0</ele><time>2026-05-02T00:34:04Z</time></trkpt><trkpt lat="45.40936895732204" lon="11.27228473245581"><ele>29.0</ele><time>2026-05-02T00:34:05Z</time></trkpt><trkpt lat="45.409310918724714" lon="11.271873134845205"><ele>29.0</ele><time>2026-05-02T00:34:06Z</time></trkpt><trkpt lat="45.409255531836784" lon="11.27145793025798"><ele>28.5</ele><time>2026-05-02T00:34:07Z</time></trkpt><trkpt lat="45.40920239134426" lon="11.271042207291641"><ele>28.0</ele><time>2026-05-02T00:34:08Z</time></trkpt><trkpt lat="45.40915399236266" lon="11.270616461288052"><ele>28.5</ele><time>2026-05-02T00:34:09Z</time></trkpt><trkpt lat="45.40911020604958" lon="11.270191316749269"><ele>29.0</ele><time>2026-05-02T00:34:10Z</time></trkpt><trkpt lat="45.40907567102977" lon="11.269764702201009"><ele>28.5</ele><time>2026-05-02T00:34:11Z</time></trkpt><trkpt lat="45.40904828327051" lon="11.26934121707008"><ele>28.0</ele><time>2026-05-02T00:34:12Z</time></trkpt><trkpt lat="45.40902629690403" lon="11.268919810628462"><ele>28.0</ele><time>2026-05-02T00:34:13Z</time></trkpt><trkpt lat="45.40900666941156" lon="11.268497167431685"><ele>28.0</ele><time>2026-05-02T00:34:14Z</time></trkpt><trkpt lat="45.408986532904144" lon="11.268075689160648"><ele>28.0</ele><time>2026-05-02T00:34:15Z</time></trkpt><trkpt lat="45.408970918568166" lon="11.267650971114437"><ele>28.0</ele><time>2026-05-02T00:34:16Z</time></trkpt><trkpt lat="45.408957823585794" lon="11.267224462023767"><ele>28.0</ele><time>2026-05-02T00:34:17Z</time></trkpt><trkpt lat="45.40894816985538" lon="11.26679079896544"><ele>28.0</ele><time>2026-05-02T00:34:18Z</time></trkpt><trkpt lat="45.40893740977062" lon="11.26636255466977"><ele>28.0</ele><time>2026-05-02T00:34:19Z</time></trkpt><trkpt lat="45.40892585548011" lon="11.265930885692734"><ele>28.0</ele><time>2026-05-02T00:34:20Z</time></trkpt><trkpt lat="45.40891671977967" lon="11.265500098129841"><ele>28.0</ele><time>2026-05-02T00:34:21Z</time></trkpt><trkpt lat="45.408907074291385" lon="11.265071996822247"><ele>28.0</ele><time>2026-05-02T00:34:22Z</time></trkpt><trkpt lat="45.40889758423738" lon="11.264643116553401"><ele>28.0</ele><time>2026-05-02T00:34:23Z</time></trkpt><trkpt lat="45.40888965139289" lon="11.264217066021693"><ele>28.0</ele><time>2026-05-02T00:34:24Z</time></trkpt><trkpt lat="45.408881556371725" lon="11.263791484145479"><ele>28.0</ele><time>2026-05-02T00:34:25Z</time></trkpt><trkpt lat="45.408873488336425" lon="11.26336486145551"><ele>28.0</ele><time>2026-05-02T00:34:26Z</time></trkpt><trkpt lat="45.40886523740441" lon="11.262938837664517"><ele>28.0</ele><time>2026-05-02T00:34:27Z</time></trkpt><trkpt lat="45.40885713967076" lon="11.262509906954843"><ele>28.0</ele><time>2026-05-02T00:34:28Z</time></trkpt><trkpt lat="45.40884839786187" lon="11.262080615607186"><ele>29.5</ele><time>2026-05-02T00:34:29Z</time></trkpt><trkpt lat="45.40884002529638" lon="11.261655982341198"><ele>31.0</ele><time>2026-05-02T00:34:30Z</time></trkpt><trkpt lat="45.40883053015621" lon="11.26123176657466"><ele>31.5</ele><time>2026-05-02T00:34:31Z</time></trkpt><trkpt lat="45.40882203073549" lon="11.260806983918139"><ele>32.0</ele><time>2026-05-02T00:34:32Z</time></trkpt><trkpt lat="45.40881534156744" lon="11.260381960319172"><ele>32.0</ele><time>2026-05-02T00:34:33Z</time></trkpt><trkpt lat="45.408810605299976" lon="11.259958630455996"><ele>32.0</ele><time>2026-05-02T00:34:34Z</time></trkpt><trkpt lat="45.408808319728145" lon="11.259533869269015"><ele>31.5</ele><time>2026-05-02T00:34:35Z</time></trkpt><trkpt lat="45.40880983719833" lon="11.259106315423697"><ele>31.0</ele><time>2026-05-02T00:34:36Z</time></trkpt><trkpt lat="45.40881853943234" lon="11.258679698174694"><ele>30.0</ele><time>2026-05-02T00:34:37Z</time></trkpt><trkpt lat="45.40883324323435" lon="11.258249120793263"><ele>29.0</ele><time>2026-05-02T00:34:38Z</time></trkpt><trkpt lat="45.40885197790943" lon="11.257817050752102"><ele>29.0</ele><time>2026-05-02T00:34:39Z</time></trkpt><trkpt lat="45.408874144954424" lon="11.257387048850351"><ele>29.0</ele><time>2026-05-02T00:34:40Z</time></trkpt><trkpt lat="45.4089020610884" lon="11.256959484565732"><ele>28.5</ele><time>2026-05-02T00:34:41Z</time></trkpt><trkpt lat="45.40893491164534" lon="11.256534800402052"><ele>28.0</ele><time>2026-05-02T00:34:42Z</time></trkpt><trkpt lat="45.40897455599866" lon="11.256106801209995"><ele>28.0</ele><time>2026-05-02T00:34:43Z</time></trkpt><trkpt lat="45.4090165839335" lon="11.25567923120609"><ele>28.0</ele><time>2026-05-02T00:34:44Z</time></trkpt><trkpt lat="45.40906020676166" lon="11.25525203245756"><ele>28.5</ele><time>2026-05-02T00:34:45Z</time></trkpt><trkpt lat="45.40909981263428" lon="11.25482417594141"><ele>29.0</ele><time>2026-05-02T00:34:46Z</time></trkpt><trkpt lat="45.40914162913441" lon="11.254394548382656"><ele>29.0</ele><time>2026-05-02T00:34:47Z</time></trkpt><trkpt lat="45.409182893687294" lon="11.253962846596366"><ele>29.0</ele><time>2026-05-02T00:34:48Z</time></trkpt><trkpt lat="45.409223355794325" lon="11.253535652165857"><ele>30.0</ele><time>2026-05-02T00:34:49Z</time></trkpt><trkpt lat="45.409264811283926" lon="11.253104664282182"><ele>31.0</ele><time>2026-05-02T00:34:50Z</time></trkpt><trkpt lat="45.40930675551496" lon="11.252674560847105"><ele>30.5</ele><time>2026-05-02T00:34:51Z</time></trkpt><trkpt lat="45.409345217398666" lon="11.252247893256898"><ele>30.0</ele><time>2026-05-02T00:34:52Z</time></trkpt><trkpt lat="45.40938688071882" lon="11.251823290994885"><ele>30.5</ele><time>2026-05-02T00:34:53Z</time></trkpt><trkpt lat="45.40942659760205" lon="11.251404303143131"><ele>31.0</ele><time>2026-05-02T00:34:54Z</time></trkpt><trkpt lat="45.409466490412974" lon="11.250985389113437"><ele>31.5</ele><time>2026-05-02T00:34:55Z</time></trkpt><trkpt lat="45.40950565895131" lon="11.250567379260577"><ele>32.0</ele><time>2026-05-02T00:34:56Z</time></trkpt><trkpt lat="45.4095499838479" lon="11.250149453868932"><ele>32.0</ele><time>2026-05-02T00:34:57Z</time></trkpt><trkpt lat="45.40959332376152" lon="11.24973451966713"><ele>32.0</ele><time>2026-05-02T00:34:58Z</time></trkpt><trkpt lat="45.40963418034282" lon="11.249318053415996"><ele>31.5</ele><time>2026-05-02T00:34:59Z</time></trkpt><trkpt lat="45.4096756888475" lon="11.248901708497245"><ele>31.0</ele><time>2026-05-02T00:35:00Z</time></trkpt><trkpt lat="45.409716864195445" lon="11.248484410386855"><ele>30.5</ele><time>2026-05-02T00:35:01Z</time></trkpt><trkpt lat="45.4097569388112" lon="11.24806340663236"><ele>30.0</ele><time>2026-05-02T00:35:02Z</time></trkpt><trkpt lat="45.40979735905287" lon="11.247645165542133"><ele>29.5</ele><time>2026-05-02T00:35:03Z</time></trkpt><trkpt lat="45.409836513649985" lon="11.247228988262016"><ele>29.0</ele><time>2026-05-02T00:35:04Z</time></trkpt><trkpt lat="45.40987657461094" lon="11.246811234278907"><ele>28.5</ele><time>2026-05-02T00:35:05Z</time></trkpt><trkpt lat="45.40991588096738" lon="11.246391155332002"><ele>28.0</ele><time>2026-05-02T00:35:06Z</time></trkpt><trkpt lat="45.40995361009256" lon="11.245974695522877"><ele>29.0</ele><time>2026-05-02T00:35:07Z</time></trkpt><trkpt lat="45.410000047541175" lon="11.245557390182089"><ele>30.0</ele><time>2026-05-02T00:35:08Z</time></trkpt><trkpt lat="45.410044326502124" lon="11.24514108592672"><ele>30.0</ele><time>2026-05-02T00:35:09Z</time></trkpt><trkpt lat="45.41008713990828" lon="11.2447237946048"><ele>30.0</ele><time>2026-05-02T00:35:10Z</time></trkpt><trkpt lat="45.41013053122486" lon="11.2443043877255"><ele>29.5</ele><time>2026-05-02T00:35:11Z</time></trkpt><trkpt lat="45.41017302667981" lon="11.243881672505514"><ele>29.0</ele><time>2026-05-02T00:35:12Z</time></trkpt><trkpt lat="45.41021547152462" lon="11.243461602977778"><ele>28.0</ele><time>2026-05-02T00:35:13Z</time></trkpt><trkpt lat="45.41025552749156" lon="11.243039442686579"><ele>27.0</ele><time>2026-05-02T00:35:14Z</time></trkpt><trkpt lat="45.410295365858126" lon="11.2426207559621"><ele>28.0</ele><time>2026-05-02T00:35:15Z</time></trkpt><trkpt lat="45.41033350618415" lon="11.242213724031322"><ele>29.0</ele><time>2026-05-02T00:35:16Z</time></trkpt><trkpt lat="45.410372327324446" lon="11.2418224075005"><ele>29.5</ele><time>2026-05-02T00:35:17Z</time></trkpt><trkpt lat="45.410412281335965" lon="11.24142592593968"><ele>30.0</ele><time>2026-05-02T00:35:18Z</time></trkpt><trkpt lat="45.410451878299085" lon="11.24102380681441"><ele>29.0</ele><time>2026-05-02T00:35:19Z</time></trkpt><trkpt lat="45.41049176833714" lon="11.240615372319205"><ele>28.0</ele><time>2026-05-02T00:35:20Z</time></trkpt><trkpt lat="45.410531642243974" lon="11.240205375625079"><ele>28.0</ele><time>2026-05-02T00:35:21Z</time></trkpt><trkpt lat="45.41057246500346" lon="11.239790232860907"><ele>28.0</ele><time>2026-05-02T00:35:22Z</time></trkpt><trkpt lat="45.410611933251296" lon="11.23937081798319"><ele>28.0</ele><time>2026-05-02T00:35:23Z</time></trkpt><trkpt lat="45.41065028181082" lon="11.238953543290545"><ele>28.0</ele><time>2026-05-02T00:35:24Z</time></trkpt><trkpt lat="45.410685420808925" lon="11.238533271072816"><ele>27.5</ele><time>2026-05-02T00:35:25Z</time></trkpt><trkpt lat="45.41071804837708" lon="11.238113244436049"><ele>27.0</ele><time>2026-05-02T00:35:26Z</time></trkpt><trkpt lat="45.410749468270645" lon="11.237696351789628"><ele>27.0</ele><time>2026-05-02T00:35:27Z</time></trkpt><trkpt lat="45.4107839687452" lon="11.237276619552162"><ele>27.0</ele><time>2026-05-02T00:35:28Z</time></trkpt><trkpt lat="45.41081695476864" lon="11.236852913499378"><ele>27.5</ele><time>2026-05-02T00:35:29Z</time></trkpt><trkpt lat="45.410851231912844" lon="11.236428795216314"><ele>28.0</ele><time>2026-05-02T00:35:30Z</time></trkpt><trkpt lat="45.41089285782725" lon="11.23600649810412"><ele>29.5</ele><time>2026-05-02T00:35:31Z</time></trkpt><trkpt lat="45.41093535895209" lon="11.235588213245048"><ele>31.0</ele><time>2026-05-02T00:35:32Z</time></trkpt><trkpt lat="45.41097766411803" lon="11.235170976617203"><ele>31.0</ele><time>2026-05-02T00:35:33Z</time></trkpt><trkpt lat="45.4110205913464" lon="11.234748854532501"><ele>31.0</ele><time>2026-05-02T00:35:34Z</time></trkpt><trkpt lat="45.41106446975133" lon="11.234328657373924"><ele>31.5</ele><time>2026-05-02T00:35:35Z</time></trkpt><trkpt lat="45.411107744552346" lon="11.233906601281179"><ele>32.0</ele><time>2026-05-02T00:35:36Z</time></trkpt><trkpt lat="45.41114883718555" lon="11.23348760992888"><ele>31.5</ele><time>2026-05-02T00:35:37Z</time></trkpt><trkpt lat="45.41118952374441" lon="11.2330762789442"><ele>31.0</ele><time>2026-05-02T00:35:38Z</time></trkpt><trkpt lat="45.411231322273835" lon="11.232665484911307"><ele>30.5</ele><time>2026-05-02T00:35:39Z</time></trkpt><trkpt lat="45.41127133217001" lon="11.232250614187278"><ele>30.0</ele><time>2026-05-02T00:35:40Z</time></trkpt><trkpt lat="45.41131220540094" lon="11.231840415992048"><ele>30.0</ele><time>2026-05-02T00:35:41Z</time></trkpt><trkpt lat="45.411351622786896" lon="11.23142705685691"><ele>30.0</ele><time>2026-05-02T00:35:42Z</time></trkpt><trkpt lat="45.41139000547571" lon="11.231015600476063"><ele>29.0</ele><time>2026-05-02T00:35:43Z</time></trkpt><trkpt lat="45.41142988574835" lon="11.230599799662146"><ele>28.0</ele><time>2026-05-02T00:35:44Z</time></trkpt><trkpt lat="45.41147085171024" lon="11.230184577292862"><ele>27.5</ele><time>2026-05-02T00:35:45Z</time></trkpt><trkpt lat="45.41151116472763" lon="11.229769873835421"><ele>27.0</ele><time>2026-05-02T00:35:46Z</time></trkpt><trkpt lat="45.411549495532164" lon="11.229353310447348"><ele>27.5</ele><time>2026-05-02T00:35:47Z</time></trkpt><trkpt lat="45.411587996364524" lon="11.228931338144418"><ele>28.0</ele><time>2026-05-02T00:35:48Z</time></trkpt><trkpt lat="45.41162194266637" lon="11.228512293765704"><ele>28.0</ele><time>2026-05-02T00:35:49Z</time></trkpt><trkpt lat="45.411656687545964" lon="11.228094675206387"><ele>28.0</ele><time>2026-05-02T00:35:50Z</time></trkpt><trkpt lat="45.41168902233447" lon="11.22767302965984"><ele>28.5</ele><time>2026-05-02T00:35:51Z</time></trkpt><trkpt lat="45.4117260924939" lon="11.227254596759117"><ele>29.0</ele><time>2026-05-02T00:35:52Z</time></trkpt><trkpt lat="45.41176394230265" lon="11.22683440407735"><ele>30.5</ele><time>2026-05-02T00:35:53Z</time></trkpt><trkpt lat="45.41180376533666" lon="11.226413550989044"><ele>32.0</ele><time>2026-05-02T00:35:54Z</time></trkpt><trkpt lat="45.41184459396781" lon="11.22599632042709"><ele>31.5</ele><time>2026-05-02T00:35:55Z</time></trkpt><trkpt lat="45.41188449481417" lon="11.225577722609348"><ele>31.0</ele><time>2026-05-02T00:35:56Z</time></trkpt><trkpt lat="45.41192412784928" lon="11.225157938310804"><ele>30.5</ele><time>2026-05-02T00:35:57Z</time></trkpt><trkpt lat="45.411961000588796" lon="11.224741903279256"><ele>30.0</ele><time>2026-05-02T00:35:58Z</time></trkpt><trkpt lat="45.41200000649172" lon="11.22432673250307"><ele>30.5</ele><time>2026-05-02T00:35:59Z</time></trkpt><trkpt lat="45.41203991386653" lon="11.223909734935948"><ele>31.0</ele><time>2026-05-02T00:36:00Z</time></trkpt><trkpt lat="45.41208241497871" lon="11.223492392704781"><ele>30.0</ele><time>2026-05-02T00:36:01Z</time></trkpt><trkpt lat="45.41212363153775" lon="11.223075910017652"><ele>29.0</ele><time>2026-05-02T00:36:02Z</time></trkpt><trkpt lat="45.412164565475265" lon="11.222657207903621"><ele>29.5</ele><time>2026-05-02T00:36:03Z</time></trkpt><trkpt lat="45.41220609207868" lon="11.22223611787098"><ele>30.0</ele><time>2026-05-02T00:36:04Z</time></trkpt><trkpt lat="45.41224555756237" lon="11.22181429769797"><ele>31.0</ele><time>2026-05-02T00:36:05Z</time></trkpt><trkpt lat="45.41228908321642" lon="11.221397039480399"><ele>32.0</ele><time>2026-05-02T00:36:06Z</time></trkpt><trkpt lat="45.41232929038262" lon="11.22097461255995"><ele>32.0</ele><time>2026-05-02T00:36:07Z</time></trkpt><trkpt lat="45.41236998893745" lon="11.220553697680996"><ele>32.0</ele><time>2026-05-02T00:36:08Z</time></trkpt><trkpt lat="45.41241133564061" lon="11.220131175158826"><ele>31.5</ele><time>2026-05-02T00:36:09Z</time></trkpt><trkpt lat="45.41245260222661" lon="11.219707354567444"><ele>31.0</ele><time>2026-05-02T00:36:10Z</time></trkpt><trkpt lat="45.41249359161012" lon="11.219284226229185"><ele>30.5</ele><time>2026-05-02T00:36:11Z</time></trkpt><trkpt lat="45.412536768880884" lon="11.218863660177119"><ele>30.0</ele><time>2026-05-02T00:36:12Z</time></trkpt><trkpt lat="45.412578524768584" lon="11.218441268205305"><ele>30.5</ele><time>2026-05-02T00:36:13Z</time></trkpt><trkpt lat="45.41261965486284" lon="11.218021937487217"><ele>31.0</ele><time>2026-05-02T00:36:14Z</time></trkpt><trkpt lat="45.41266268965504" lon="11.217602092252942"><ele>30.5</ele><time>2026-05-02T00:36:15Z</time></trkpt><trkpt lat="45.41270596110959" lon="11.21717697910964"><ele>30.0</ele><time>2026-05-02T00:36:16Z</time></trkpt><trkpt lat="45.41274637636189" lon="11.216756185462495"><ele>29.5</ele><time>2026-05-02T00:36:17Z</time></trkpt><trkpt lat="45.41278718228747" lon="11.21633140341454"><ele>29.0</ele><time>2026-05-02T00:36:18Z</time></trkpt><trkpt lat="45.41282810675712" lon="11.21590976818901"><ele>29.5</ele><time>2026-05-02T00:36:19Z</time></trkpt><trkpt lat="45.4128721487109" lon="11.215488160447682"><ele>30.0</ele><time>2026-05-02T00:36:20Z</time></trkpt><trkpt lat="45.41291405798144" lon="11.215064886953297"><ele>30.5</ele><time>2026-05-02T00:36:21Z</time></trkpt><trkpt lat="45.412955384312" lon="11.214643260553407"><ele>31.0</ele><time>2026-05-02T00:36:22Z</time></trkpt><trkpt lat="45.41299285889737" lon="11.214221942285333"><ele>30.5</ele><time>2026-05-02T00:36:23Z</time></trkpt><trkpt lat="45.41303580485335" lon="11.213797297053524"><ele>30.0</ele><time>2026-05-02T00:36:24Z</time></trkpt><trkpt lat="45.413074074485024" lon="11.213373869429697"><ele>29.5</ele><time>2026-05-02T00:36:25Z</time></trkpt><trkpt lat="45.413114407458735" lon="11.212953579188802"><ele>29.0</ele><time>2026-05-02T00:36:26Z</time></trkpt><trkpt lat="45.413152802938484" lon="11.212531430302633"><ele>29.5</ele><time>2026-05-02T00:36:27Z</time></trkpt><trkpt lat="45.41319292815551" lon="11.212109325566857"><ele>30.0</ele><time>2026-05-02T00:36:28Z</time></trkpt><trkpt lat="45.41323423280582" lon="11.21168686882164"><ele>30.0</ele><time>2026-05-02T00:36:29Z</time></trkpt><trkpt lat="45.4132757135196" lon="11.2112633031488"><ele>30.0</ele><time>2026-05-02T00:36:30Z</time></trkpt><trkpt lat="45.413316571030386" lon="11.21084155559799"><ele>29.5</ele><time>2026-05-02T00:36:31Z</time></trkpt><trkpt lat="45.41336058346782" lon="11.210416524108634"><ele>29.0</ele><time>2026-05-02T00:36:32Z</time></trkpt><trkpt lat="45.41340176686319" lon="11.20999128564472"><ele>29.0</ele><time>2026-05-02T00:36:33Z</time></trkpt><trkpt lat="45.413444537225985" lon="11.20957062424368"><ele>29.0</ele><time>2026-05-02T00:36:34Z</time></trkpt><trkpt lat="45.41348405578264" lon="11.20916357103745"><ele>28.5</ele><time>2026-05-02T00:36:35Z</time></trkpt><trkpt lat="45.41352946764139" lon="11.208774156703173"><ele>28.0</ele><time>2026-05-02T00:36:36Z</time></trkpt><trkpt lat="45.41356768311038" lon="11.208371736062169"><ele>28.0</ele><time>2026-05-02T00:36:37Z</time></trkpt><trkpt lat="45.41361173848509" lon="11.207962124036591"><ele>28.0</ele><time>2026-05-02T00:36:38Z</time></trkpt><trkpt lat="45.41365532604545" lon="11.207547912732547"><ele>28.0</ele><time>2026-05-02T00:36:39Z</time></trkpt><trkpt lat="45.41369521535881" lon="11.207133834276199"><ele>28.0</ele><time>2026-05-02T00:36:40Z</time></trkpt><trkpt lat="45.41373809162872" lon="11.206716150539682"><ele>27.5</ele><time>2026-05-02T00:36:41Z</time></trkpt><trkpt lat="45.413779030933995" lon="11.206293630543811"><ele>27.0</ele><time>2026-05-02T00:36:42Z</time></trkpt><trkpt lat="45.413817969243226" lon="11.205867896326401"><ele>28.5</ele><time>2026-05-02T00:36:43Z</time></trkpt><trkpt lat="45.41385850985939" lon="11.205442063898921"><ele>30.0</ele><time>2026-05-02T00:36:44Z</time></trkpt><trkpt lat="45.41390148618268" lon="11.20502085489996"><ele>30.0</ele><time>2026-05-02T00:36:45Z</time></trkpt><trkpt lat="45.41394161265286" lon="11.204597160349033"><ele>30.0</ele><time>2026-05-02T00:36:46Z</time></trkpt><trkpt lat="45.41398196576333" lon="11.204174908693279"><ele>30.0</ele><time>2026-05-02T00:36:47Z</time></trkpt><trkpt lat="45.41402193791332" lon="11.203753321117285"><ele>30.0</ele><time>2026-05-02T00:36:48Z</time></trkpt><trkpt lat="45.41406083685153" lon="11.203333040693902"><ele>30.0</ele><time>2026-05-02T00:36:49Z</time></trkpt><trkpt lat="45.41410176844209" lon="11.202909130949854"><ele>30.0</ele><time>2026-05-02T00:36:50Z</time></trkpt><trkpt lat="45.414144825542955" lon="11.20248940397462"><ele>30.5</ele><time>2026-05-02T00:36:51Z</time></trkpt><trkpt lat="45.41418431942895" lon="11.202065877983731"><ele>31.0</ele><time>2026-05-02T00:36:52Z</time></trkpt><trkpt lat="45.41422775569158" lon="11.201643427733272"><ele>31.5</ele><time>2026-05-02T00:36:53Z</time></trkpt><trkpt lat="45.414272104159345" lon="11.201220027662139"><ele>32.0</ele><time>2026-05-02T00:36:54Z</time></trkpt><trkpt lat="45.41431153329855" lon="11.200800086821639"><ele>32.5</ele><time>2026-05-02T00:36:55Z</time></trkpt><trkpt lat="45.41435264619798" lon="11.200373125133286"><ele>33.0</ele><time>2026-05-02T00:36:56Z</time></trkpt><trkpt lat="45.414394246212346" lon="11.199946498136576"><ele>34.0</ele><time>2026-05-02T00:36:57Z</time></trkpt><trkpt lat="45.41443328527172" lon="11.19952205040287"><ele>35.0</ele><time>2026-05-02T00:36:58Z</time></trkpt><trkpt lat="45.41447353174263" lon="11.199096759369526"><ele>35.5</ele><time>2026-05-02T00:36:59Z</time></trkpt><trkpt lat="45.414514659379066" lon="11.198672619237291"><ele>36.0</ele><time>2026-05-02T00:37:00Z</time></trkpt><trkpt lat="45.414556657412376" lon="11.19824907639931"><ele>36.0</ele><time>2026-05-02T00:37:01Z</time></trkpt><trkpt lat="45.414602726046795" lon="11.197831197602929"><ele>36.0</ele><time>2026-05-02T00:37:02Z</time></trkpt><trkpt lat="45.4146450423856" lon="11.1974060210786"><ele>36.5</ele><time>2026-05-02T00:37:03Z</time></trkpt><trkpt lat="45.414688082734685" lon="11.196984788676483"><ele>37.0</ele><time>2026-05-02T00:37:04Z</time></trkpt><trkpt lat="45.41472544161485" lon="11.196563107286508"><ele>37.5</ele><time>2026-05-02T00:37:05Z</time></trkpt><trkpt lat="45.41476709693732" lon="11.196140792310858"><ele>38.0</ele><time>2026-05-02T00:37:06Z</time></trkpt><trkpt lat="45.41480877566581" lon="11.1957207670518"><ele>38.0</ele><time>2026-05-02T00:37:07Z</time></trkpt><trkpt lat="45.41485460315946" lon="11.195300397860107"><ele>38.0</ele><time>2026-05-02T00:37:08Z</time></trkpt><trkpt lat="45.41490242121555" lon="11.194880555102111"><ele>38.5</ele><time>2026-05-02T00:37:09Z</time></trkpt><trkpt lat="45.41495199378933" lon="11.194463981981729"><ele>39.0</ele><time>2026-05-02T00:37:10Z</time></trkpt><trkpt lat="45.4150045110115" lon="11.194044461175938"><ele>40.0</ele><time>2026-05-02T00:37:11Z</time></trkpt><trkpt lat="45.41506228343086" lon="11.19363049979953"><ele>41.0</ele><time>2026-05-02T00:37:12Z</time></trkpt><trkpt lat="45.41512505736906" lon="11.193223206169932"><ele>42.5</ele><time>2026-05-02T00:37:13Z</time></trkpt><trkpt lat="45.415188205385995" lon="11.19281485036619"><ele>44.0</ele><time>2026-05-02T00:37:14Z</time></trkpt><trkpt lat="45.41525222777829" lon="11.192409072496615"><ele>44.5</ele><time>2026-05-02T00:37:15Z</time></trkpt><trkpt lat="45.41531824676359" lon="11.192005777431875"><ele>45.0</ele><time>2026-05-02T00:37:16Z</time></trkpt><trkpt lat="45.41539208863733" lon="11.191602238463556"><ele>44.0</ele><time>2026-05-02T00:37:17Z</time></trkpt><trkpt lat="45.41546677118539" lon="11.19120051745533"><ele>43.0</ele><time>2026-05-02T00:37:18Z</time></trkpt><trkpt lat="45.41554182679165" lon="11.190800587660844"><ele>46.0</ele><time>2026-05-02T00:37:19Z</time></trkpt><trkpt lat="45.41562525395866" lon="11.190399513174775"><ele>49.0</ele><time>2026-05-02T00:37:20Z</time></trkpt><trkpt lat="45.41571014456479" lon="11.190000650535861"><ele>49.0</ele><time>2026-05-02T00:37:21Z</time></trkpt><trkpt lat="45.41579740209581" lon="11.189596763462557"><ele>49.0</ele><time>2026-05-02T00:37:22Z</time></trkpt><trkpt lat="45.41588832603269" lon="11.189195952950792"><ele>50.0</ele><time>2026-05-02T00:37:23Z</time></trkpt><trkpt lat="45.41598095049986" lon="11.188794108451745"><ele>51.0</ele><time>2026-05-02T00:37:24Z</time></trkpt><trkpt lat="45.41607087166496" lon="11.188392530570264"><ele>51.0</ele><time>2026-05-02T00:37:25Z</time></trkpt><trkpt lat="45.416165906648196" lon="11.18799217163994"><ele>51.0</ele><time>2026-05-02T00:37:26Z</time></trkpt><trkpt lat="45.41626090354349" lon="11.187588362851242"><ele>55.0</ele><time>2026-05-02T00:37:27Z</time></trkpt><trkpt lat="45.41635442072217" lon="11.187182051357963"><ele>59.0</ele><time>2026-05-02T00:37:28Z</time></trkpt><trkpt lat="45.41644765474574" lon="11.186773404660242"><ele>58.0</ele><time>2026-05-02T00:37:29Z</time></trkpt><trkpt lat="45.41654194053797" lon="11.186363341417433"><ele>57.0</ele><time>2026-05-02T00:37:30Z</time></trkpt><trkpt lat="45.41663752651067" lon="11.185957212225647"><ele>54.5</ele><time>2026-05-02T00:37:31Z</time></trkpt><trkpt lat="45.41673098787951" lon="11.185544919102695"><ele>52.0</ele><time>2026-05-02T00:37:32Z</time></trkpt><trkpt lat="45.41682390758236" lon="11.18513462987117"><ele>51.0</ele><time>2026-05-02T00:37:33Z</time></trkpt><trkpt lat="45.41691477522374" lon="11.184724630106796"><ele>50.0</ele><time>2026-05-02T00:37:34Z</time></trkpt><trkpt lat="45.41700579629626" lon="11.184318034877542"><ele>50.0</ele><time>2026-05-02T00:37:35Z</time></trkpt><trkpt lat="45.417096940804996" lon="11.183914262027926"><ele>50.0</ele><time>2026-05-02T00:37:36Z</time></trkpt><trkpt lat="45.4171874109972" lon="11.18351091186469"><ele>50.5</ele><time>2026-05-02T00:37:37Z</time></trkpt><trkpt lat="45.41727814708107" lon="11.18310698318383"><ele>51.0</ele><time>2026-05-02T00:37:38Z</time></trkpt><trkpt lat="45.417370140528845" lon="11.182703936240708"><ele>51.5</ele><time>2026-05-02T00:37:39Z</time></trkpt><trkpt lat="45.417460985738174" lon="11.18230311477826"><ele>52.0</ele><time>2026-05-02T00:37:40Z</time></trkpt><trkpt lat="45.41755397799094" lon="11.181898911740936"><ele>52.0</ele><time>2026-05-02T00:37:41Z</time></trkpt><trkpt lat="45.417648627074264" lon="11.181498640626916"><ele>52.0</ele><time>2026-05-02T00:37:42Z</time></trkpt><trkpt lat="45.41774066296191" lon="11.181096554137126"><ele>52.0</ele><time>2026-05-02T00:37:43Z</time></trkpt><trkpt lat="45.417830915108034" lon="11.180692483917774"><ele>52.0</ele><time>2026-05-02T00:37:44Z</time></trkpt><trkpt lat="45.41792470993101" lon="11.180290469955539"><ele>52.0</ele><time>2026-05-02T00:37:45Z</time></trkpt><trkpt lat="45.418018169999996" lon="11.17988779373831"><ele>52.0</ele><time>2026-05-02T00:37:46Z</time></trkpt><trkpt lat="45.418111028457595" lon="11.179482113843683"><ele>52.0</ele><time>2026-05-02T00:37:47Z</time></trkpt><trkpt lat="45.41819516693442" lon="11.179077828973316"><ele>52.0</ele><time>2026-05-02T00:37:48Z</time></trkpt><trkpt lat="45.418283935231884" lon="11.178673544214579"><ele>52.0</ele><time>2026-05-02T00:37:49Z</time></trkpt><trkpt lat="45.418373716787436" lon="11.178260374561122"><ele>52.0</ele><time>2026-05-02T00:37:50Z</time></trkpt><trkpt lat="45.41846284775928" lon="11.177849004582171"><ele>51.5</ele><time>2026-05-02T00:37:51Z</time></trkpt><trkpt lat="45.418553018500916" lon="11.177438059701666"><ele>51.0</ele><time>2026-05-02T00:37:52Z</time></trkpt><trkpt lat="45.41864371639442" lon="11.177026035027568"><ele>51.0</ele><time>2026-05-02T00:37:53Z</time></trkpt><trkpt lat="45.418731531023" lon="11.176613230272066"><ele>51.0</ele><time>2026-05-02T00:37:54Z</time></trkpt><trkpt lat="45.418815624700585" lon="11.17620098109639"><ele>51.0</ele><time>2026-05-02T00:37:55Z</time></trkpt><trkpt lat="45.418893834601604" lon="11.175788902421473"><ele>51.0</ele><time>2026-05-02T00:37:56Z</time></trkpt><trkpt lat="45.41896709022538" lon="11.17537803664318"><ele>51.0</ele><time>2026-05-02T00:37:57Z</time></trkpt><trkpt lat="45.419035789622555" lon="11.174966387546108"><ele>51.0</ele><time>2026-05-02T00:37:58Z</time></trkpt><trkpt lat="45.41910188352315" lon="11.174550801164006"><ele>51.0</ele><time>2026-05-02T00:37:59Z</time></trkpt><trkpt lat="45.41916521250194" lon="11.17413310762705"><ele>51.0</ele><time>2026-05-02T00:38:00Z</time></trkpt><trkpt lat="45.41922378527161" lon="11.173712897938145"><ele>51.5</ele><time>2026-05-02T00:38:01Z</time></trkpt><trkpt lat="45.41927690496164" lon="11.17329072544636"><ele>52.0</ele><time>2026-05-02T00:38:02Z</time></trkpt><trkpt lat="45.41932356554998" lon="11.172865839024078"><ele>52.5</ele><time>2026-05-02T00:38:03Z</time></trkpt><trkpt lat="45.419361973181125" lon="11.17243749935987"><ele>53.0</ele><time>2026-05-02T00:38:04Z</time></trkpt><trkpt lat="45.41940015502001" lon="11.172010294626633"><ele>52.0</ele><time>2026-05-02T00:38:05Z</time></trkpt><trkpt lat="45.419431996031015" lon="11.171581621322142"><ele>51.0</ele><time>2026-05-02T00:38:06Z</time></trkpt><trkpt lat="45.419457919641125" lon="11.171152994830756"><ele>50.0</ele><time>2026-05-02T00:38:07Z</time></trkpt><trkpt lat="45.419480398578514" lon="11.17072349082403"><ele>49.0</ele><time>2026-05-02T00:38:08Z</time></trkpt><trkpt lat="45.419500416549155" lon="11.170294627742392"><ele>48.5</ele><time>2026-05-02T00:38:09Z</time></trkpt><trkpt lat="45.41951995711293" lon="11.169867719580466"><ele>48.0</ele><time>2026-05-02T00:38:10Z</time></trkpt><trkpt lat="45.419543290608104" lon="11.16944250365925"><ele>47.5</ele><time>2026-05-02T00:38:11Z</time></trkpt><trkpt lat="45.419573047008434" lon="11.169020833094306"><ele>47.0</ele><time>2026-05-02T00:38:12Z</time></trkpt><trkpt lat="45.41960029936264" lon="11.16859782968566"><ele>47.5</ele><time>2026-05-02T00:38:13Z</time></trkpt><trkpt lat="45.419628662358626" lon="11.1681761093891"><ele>48.0</ele><time>2026-05-02T00:38:14Z</time></trkpt><trkpt lat="45.41964902207057" lon="11.167754324784825"><ele>48.0</ele><time>2026-05-02T00:38:15Z</time></trkpt><trkpt lat="45.41966553273534" lon="11.167334080581018"><ele>48.0</ele><time>2026-05-02T00:38:16Z</time></trkpt><trkpt lat="45.41968355441304" lon="11.166907830665336"><ele>49.0</ele><time>2026-05-02T00:38:17Z</time></trkpt><trkpt lat="45.4197015380467" lon="11.166482793621737"><ele>50.0</ele><time>2026-05-02T00:38:18Z</time></trkpt><trkpt lat="45.41972305905141" lon="11.16605809795071"><ele>50.5</ele><time>2026-05-02T00:38:19Z</time></trkpt><trkpt lat="45.41973758909545" lon="11.165632854330743"><ele>51.0</ele><time>2026-05-02T00:38:20Z</time></trkpt><trkpt lat="45.419763102269464" lon="11.165228281142475"><ele>51.5</ele><time>2026-05-02T00:38:21Z</time></trkpt><trkpt lat="45.41978736156191" lon="11.164828093756594"><ele>52.0</ele><time>2026-05-02T00:38:22Z</time></trkpt><trkpt lat="45.41980751353792" lon="11.164418921640552"><ele>51.5</ele><time>2026-05-02T00:38:23Z</time></trkpt><trkpt lat="45.41983121383991" lon="11.164004999773178"><ele>51.0</ele><time>2026-05-02T00:38:24Z</time></trkpt><trkpt lat="45.419853525868" lon="11.16358226847498"><ele>50.5</ele><time>2026-05-02T00:38:25Z</time></trkpt><trkpt lat="45.419876442161744" lon="11.16316091552127"><ele>50.0</ele><time>2026-05-02T00:38:26Z</time></trkpt><trkpt lat="45.4198981840421" lon="11.162734879653442"><ele>50.0</ele><time>2026-05-02T00:38:27Z</time></trkpt><trkpt lat="45.4199195887053" lon="11.162309592884025"><ele>50.0</ele><time>2026-05-02T00:38:28Z</time></trkpt><trkpt lat="45.419941241867356" lon="11.16187919717259"><ele>50.0</ele><time>2026-05-02T00:38:29Z</time></trkpt><trkpt lat="45.41996221527126" lon="11.16144787503503"><ele>50.0</ele><time>2026-05-02T00:38:30Z</time></trkpt><trkpt lat="45.41998305967111" lon="11.161015461048546"><ele>50.5</ele><time>2026-05-02T00:38:31Z</time></trkpt><trkpt lat="45.420003428220305" lon="11.160583420027416"><ele>51.0</ele><time>2026-05-02T00:38:32Z</time></trkpt><trkpt lat="45.42002407455062" lon="11.160151775377285"><ele>51.0</ele><time>2026-05-02T00:38:33Z</time></trkpt><trkpt lat="45.42004504124425" lon="11.159724194789565"><ele>51.0</ele><time>2026-05-02T00:38:34Z</time></trkpt><trkpt lat="45.42006625081734" lon="11.159293510473185"><ele>51.0</ele><time>2026-05-02T00:38:35Z</time></trkpt><trkpt lat="45.42008359575506" lon="11.15886954216186"><ele>51.0</ele><time>2026-05-02T00:38:36Z</time></trkpt><trkpt lat="45.42010438906718" lon="11.158443362125565"><ele>50.5</ele><time>2026-05-02T00:38:37Z</time></trkpt><trkpt lat="45.42012697008319" lon="11.158017290202483"><ele>50.0</ele><time>2026-05-02T00:38:38Z</time></trkpt><trkpt lat="45.42015789265445" lon="11.157596064693614"><ele>49.5</ele><time>2026-05-02T00:38:39Z</time></trkpt><trkpt lat="45.42019091562448" lon="11.157171965744599"><ele>49.0</ele><time>2026-05-02T00:38:40Z</time></trkpt><trkpt lat="45.42023157411677" lon="11.15675819886765"><ele>49.0</ele><time>2026-05-02T00:38:41Z</time></trkpt><trkpt lat="45.420268881688095" lon="11.15634055658617"><ele>49.0</ele><time>2026-05-02T00:38:42Z</time></trkpt><trkpt lat="45.42030874779744" lon="11.155923281266242"><ele>49.0</ele><time>2026-05-02T00:38:43Z</time></trkpt><trkpt lat="45.42034808494824" lon="11.155504565090299"><ele>49.0</ele><time>2026-05-02T00:38:44Z</time></trkpt><trkpt lat="45.420381128272766" lon="11.155082494304626"><ele>49.0</ele><time>2026-05-02T00:38:45Z</time></trkpt><trkpt lat="45.4204167210037" lon="11.154663349965276"><ele>49.0</ele><time>2026-05-02T00:38:46Z</time></trkpt><trkpt lat="45.42045349929056" lon="11.154248262591508"><ele>49.5</ele><time>2026-05-02T00:38:47Z</time></trkpt><trkpt lat="45.4204914385829" lon="11.153828714679731"><ele>50.0</ele><time>2026-05-02T00:38:48Z</time></trkpt><trkpt lat="45.42052327543522" lon="11.153405637556114"><ele>49.0</ele><time>2026-05-02T00:38:49Z</time></trkpt><trkpt lat="45.42055549767497" lon="11.152984354250734"><ele>48.0</ele><time>2026-05-02T00:38:50Z</time></trkpt><trkpt lat="45.42058815657418" lon="11.152561601443864"><ele>48.0</ele><time>2026-05-02T00:38:51Z</time></trkpt><trkpt lat="45.420621991360406" lon="11.152141605083605"><ele>48.0</ele><time>2026-05-02T00:38:52Z</time></trkpt><trkpt lat="45.4206514556724" lon="11.151718090121541"><ele>48.5</ele><time>2026-05-02T00:38:53Z</time></trkpt><trkpt lat="45.420685941032936" lon="11.151289794542839"><ele>49.0</ele><time>2026-05-02T00:38:54Z</time></trkpt><trkpt lat="45.42072198043604" lon="11.15086938770053"><ele>48.5</ele><time>2026-05-02T00:38:55Z</time></trkpt><trkpt lat="45.42075376747911" lon="11.1504404824838"><ele>48.0</ele><time>2026-05-02T00:38:56Z</time></trkpt><trkpt lat="45.42078680593987" lon="11.150012331823689"><ele>48.5</ele><time>2026-05-02T00:38:57Z</time></trkpt><trkpt lat="45.42081894356653" lon="11.14958204871294"><ele>49.0</ele><time>2026-05-02T00:38:58Z</time></trkpt><trkpt lat="45.42083773750682" lon="11.149154230459429"><ele>48.0</ele><time>2026-05-02T00:38:59Z</time></trkpt><trkpt lat="45.420863442774454" lon="11.148725246231203"><ele>47.0</ele><time>2026-05-02T00:39:00Z</time></trkpt><trkpt lat="45.42089630516111" lon="11.148297504257577"><ele>46.0</ele><time>2026-05-02T00:39:01Z</time></trkpt><trkpt lat="45.42092353768843" lon="11.147864776530811"><ele>45.0</ele><time>2026-05-02T00:39:02Z</time></trkpt><trkpt lat="45.42095321573759" lon="11.147430198929634"><ele>45.5</ele><time>2026-05-02T00:39:03Z</time></trkpt><trkpt lat="45.42098574804001" lon="11.146998202173647"><ele>46.0</ele><time>2026-05-02T00:39:04Z</time></trkpt><trkpt lat="45.42101907407929" lon="11.146566421683422"><ele>46.0</ele><time>2026-05-02T00:39:05Z</time></trkpt><trkpt lat="45.42105375147634" lon="11.14613823410683"><ele>46.0</ele><time>2026-05-02T00:39:06Z</time></trkpt><trkpt lat="45.42108733303116" lon="11.14571435142526"><ele>46.5</ele><time>2026-05-02T00:39:07Z</time></trkpt><trkpt lat="45.421120836793115" lon="11.145288433229755"><ele>47.0</ele><time>2026-05-02T00:39:08Z</time></trkpt><trkpt lat="45.42115524401317" lon="11.144865542426531"><ele>47.0</ele><time>2026-05-02T00:39:09Z</time></trkpt><trkpt lat="45.42119238490806" lon="11.144442522107433"><ele>47.0</ele><time>2026-05-02T00:39:10Z</time></trkpt><trkpt lat="45.42122752319836" lon="11.144017718669776"><ele>46.5</ele><time>2026-05-02T00:39:11Z</time></trkpt><trkpt lat="45.42126580653732" lon="11.143597003256954"><ele>46.0</ele><time>2026-05-02T00:39:12Z</time></trkpt><trkpt lat="45.42129704214605" lon="11.143176738605744"><ele>45.5</ele><time>2026-05-02T00:39:13Z</time></trkpt><trkpt lat="45.42133090862045" lon="11.142755972508311"><ele>45.0</ele><time>2026-05-02T00:39:14Z</time></trkpt><trkpt lat="45.42136143230025" lon="11.142333126689989"><ele>45.0</ele><time>2026-05-02T00:39:15Z</time></trkpt><trkpt lat="45.42139649659113" lon="11.141910828665013"><ele>45.0</ele><time>2026-05-02T00:39:16Z</time></trkpt><trkpt lat="45.42143231057883" lon="11.141488194882154"><ele>45.0</ele><time>2026-05-02T00:39:17Z</time></trkpt><trkpt lat="45.42146375274149" lon="11.141060035026781"><ele>45.0</ele><time>2026-05-02T00:39:18Z</time></trkpt><trkpt lat="45.421500988764954" lon="11.140634497925413"><ele>46.0</ele><time>2026-05-02T00:39:19Z</time></trkpt><trkpt lat="45.42153729764107" lon="11.140209042566983"><ele>47.0</ele><time>2026-05-02T00:39:20Z</time></trkpt><trkpt lat="45.421574180828216" lon="11.139783531072972"><ele>47.0</ele><time>2026-05-02T00:39:21Z</time></trkpt><trkpt lat="45.42160992256099" lon="11.139360175830353"><ele>47.0</ele><time>2026-05-02T00:39:22Z</time></trkpt><trkpt lat="45.42164447017387" lon="11.138934692575296"><ele>47.0</ele><time>2026-05-02T00:39:23Z</time></trkpt><trkpt lat="45.42167916890195" lon="11.138508162054942"><ele>47.0</ele><time>2026-05-02T00:39:24Z</time></trkpt><trkpt lat="45.42171263435902" lon="11.138081760961601"><ele>47.0</ele><time>2026-05-02T00:39:25Z</time></trkpt><trkpt lat="45.42174741709505" lon="11.137652606409263"><ele>47.0</ele><time>2026-05-02T00:39:26Z</time></trkpt><trkpt lat="45.421782686606555" lon="11.137222783504129"><ele>46.5</ele><time>2026-05-02T00:39:27Z</time></trkpt><trkpt lat="45.42181969323575" lon="11.136796936954632"><ele>46.0</ele><time>2026-05-02T00:39:28Z</time></trkpt><trkpt lat="45.421852576385774" lon="11.136372527464001"><ele>45.5</ele><time>2026-05-02T00:39:29Z</time></trkpt><trkpt lat="45.42189797242109" lon="11.135943688231015"><ele>45.0</ele><time>2026-05-02T00:39:30Z</time></trkpt><trkpt lat="45.42193822399329" lon="11.135515943185455"><ele>45.0</ele><time>2026-05-02T00:39:31Z</time></trkpt><trkpt lat="45.42198006172903" lon="11.135088943657369"><ele>45.0</ele><time>2026-05-02T00:39:32Z</time></trkpt><trkpt lat="45.42201640744815" lon="11.13466432355494"><ele>44.5</ele><time>2026-05-02T00:39:33Z</time></trkpt><trkpt lat="45.42205241143437" lon="11.134241495529478"><ele>44.0</ele><time>2026-05-02T00:39:34Z</time></trkpt><trkpt lat="45.422089626531964" lon="11.133813739763417"><ele>44.0</ele><time>2026-05-02T00:39:35Z</time></trkpt><trkpt lat="45.42210929794612" lon="11.133383586265664"><ele>44.0</ele><time>2026-05-02T00:39:36Z</time></trkpt><trkpt lat="45.422106583143645" lon="11.132947146732146"><ele>44.0</ele><time>2026-05-02T00:39:37Z</time></trkpt><trkpt lat="45.42210362637036" lon="11.132515805415112"><ele>44.0</ele><time>2026-05-02T00:39:38Z</time></trkpt><trkpt lat="45.42209805499867" lon="11.132086446757437"><ele>43.0</ele><time>2026-05-02T00:39:39Z</time></trkpt><trkpt lat="45.42208786887181" lon="11.131657346895441"><ele>42.0</ele><time>2026-05-02T00:39:40Z</time></trkpt><trkpt lat="45.42207248984788" lon="11.131225442766782"><ele>42.0</ele><time>2026-05-02T00:39:41Z</time></trkpt><trkpt lat="45.422054012963756" lon="11.130796950306753"><ele>42.0</ele><time>2026-05-02T00:39:42Z</time></trkpt><trkpt lat="45.42203192605605" lon="11.13037190477061"><ele>42.0</ele><time>2026-05-02T00:39:43Z</time></trkpt><trkpt lat="45.422002627326194" lon="11.129946869272697"><ele>42.0</ele><time>2026-05-02T00:39:44Z</time></trkpt><trkpt lat="45.42196552505061" lon="11.129522569941114"><ele>42.0</ele><time>2026-05-02T00:39:45Z</time></trkpt><trkpt lat="45.42192529393596" lon="11.129099171257518"><ele>42.0</ele><time>2026-05-02T00:39:46Z</time></trkpt><trkpt lat="45.42187898101574" lon="11.128676884741896"><ele>42.0</ele><time>2026-05-02T00:39:47Z</time></trkpt><trkpt lat="45.4218299306344" lon="11.128256438368672"><ele>42.0</ele><time>2026-05-02T00:39:48Z</time></trkpt><trkpt lat="45.42177183715878" lon="11.127836528642836"><ele>42.0</ele><time>2026-05-02T00:39:49Z</time></trkpt><trkpt lat="45.42171532772105" lon="11.127419434260789"><ele>42.0</ele><time>2026-05-02T00:39:50Z</time></trkpt><trkpt lat="45.42165158458677" lon="11.127002312267924"><ele>42.0</ele><time>2026-05-02T00:39:51Z</time></trkpt><trkpt lat="45.4215855970646" lon="11.12659299303687"><ele>42.0</ele><time>2026-05-02T00:39:52Z</time></trkpt><trkpt lat="45.42151481698803" lon="11.126189215342363"><ele>42.0</ele><time>2026-05-02T00:39:53Z</time></trkpt><trkpt lat="45.421438672884484" lon="11.125788620869823"><ele>42.0</ele><time>2026-05-02T00:39:54Z</time></trkpt><trkpt lat="45.42136185212473" lon="11.125381989847394"><ele>42.0</ele><time>2026-05-02T00:39:55Z</time></trkpt><trkpt lat="45.421275686593575" lon="11.124982535616159"><ele>42.0</ele><time>2026-05-02T00:39:56Z</time></trkpt><trkpt lat="45.42118435427431" lon="11.124581606156255"><ele>43.5</ele><time>2026-05-02T00:39:57Z</time></trkpt><trkpt lat="45.42108617271443" lon="11.12418140903833"><ele>45.0</ele><time>2026-05-02T00:39:58Z</time></trkpt><trkpt lat="45.420985171623585" lon="11.123779239703333"><ele>45.5</ele><time>2026-05-02T00:39:59Z</time></trkpt><trkpt lat="45.4208823503316" lon="11.123376737164659"><ele>46.0</ele><time>2026-05-02T00:40:00Z</time></trkpt><trkpt lat="45.420775240886506" lon="11.122976263479739"><ele>47.0</ele><time>2026-05-02T00:40:01Z</time></trkpt><trkpt lat="45.42066052454513" lon="11.122573205361732"><ele>48.0</ele><time>2026-05-02T00:40:02Z</time></trkpt><trkpt lat="45.42053581030318" lon="11.122177834663315"><ele>44.5</ele><time>2026-05-02T00:40:03Z</time></trkpt><trkpt lat="45.420402046542414" lon="11.12178968131421"><ele>41.0</ele><time>2026-05-02T00:40:04Z</time></trkpt><trkpt lat="45.42026757430208" lon="11.12139849512311"><ele>41.0</ele><time>2026-05-02T00:40:05Z</time></trkpt><trkpt lat="45.420130750556964" lon="11.121008635377972"><ele>41.0</ele><time>2026-05-02T00:40:06Z</time></trkpt><trkpt lat="45.419991553364326" lon="11.12061743793112"><ele>42.0</ele><time>2026-05-02T00:40:07Z</time></trkpt><trkpt lat="45.41986354400354" lon="11.120231000225536"><ele>43.0</ele><time>2026-05-02T00:40:08Z</time></trkpt><trkpt lat="45.41972960830939" lon="11.119859949480235"><ele>44.0</ele><time>2026-05-02T00:40:09Z</time></trkpt><trkpt lat="45.41959359631982" lon="11.119495999534497"><ele>45.0</ele><time>2026-05-02T00:40:10Z</time></trkpt><trkpt lat="45.41945807906766" lon="11.119121547527229"><ele>45.5</ele><time>2026-05-02T00:40:11Z</time></trkpt><trkpt lat="45.419316857929985" lon="11.1187475646455"><ele>46.0</ele><time>2026-05-02T00:40:12Z</time></trkpt><trkpt lat="45.4191732916772" lon="11.118370452843747"><ele>46.0</ele><time>2026-05-02T00:40:13Z</time></trkpt><trkpt lat="45.419029664083354" lon="11.117995475326268"><ele>46.0</ele><time>2026-05-02T00:40:14Z</time></trkpt><trkpt lat="45.41888618121499" lon="11.11761301986739"><ele>46.0</ele><time>2026-05-02T00:40:15Z</time></trkpt><trkpt lat="45.418745905968315" lon="11.117228113735433"><ele>46.0</ele><time>2026-05-02T00:40:16Z</time></trkpt><trkpt lat="45.4186070884595" lon="11.116843049511502"><ele>47.0</ele><time>2026-05-02T00:40:17Z</time></trkpt><trkpt lat="45.418473024247554" lon="11.116452569680732"><ele>48.0</ele><time>2026-05-02T00:40:18Z</time></trkpt><trkpt lat="45.418339205412394" lon="11.116062233338033"><ele>47.5</ele><time>2026-05-02T00:40:19Z</time></trkpt><trkpt lat="45.41820725072174" lon="11.115673550013106"><ele>47.0</ele><time>2026-05-02T00:40:20Z</time></trkpt><trkpt lat="45.41807339089183" lon="11.115288868588069"><ele>46.0</ele><time>2026-05-02T00:40:21Z</time></trkpt><trkpt lat="45.417935926460046" lon="11.114903027427648"><ele>45.0</ele><time>2026-05-02T00:40:22Z</time></trkpt><trkpt lat="45.417799267249386" lon="11.114517575323145"><ele>45.0</ele><time>2026-05-02T00:40:23Z</time></trkpt><trkpt lat="45.417664926834796" lon="11.114135946915878"><ele>45.0</ele><time>2026-05-02T00:40:24Z</time></trkpt><trkpt lat="45.41753202206937" lon="11.113750201707843"><ele>45.5</ele><time>2026-05-02T00:40:25Z</time></trkpt><trkpt lat="45.41739919183705" lon="11.113368294211055"><ele>46.0</ele><time>2026-05-02T00:40:26Z</time></trkpt><trkpt lat="45.4172656417135" lon="11.112987853873848"><ele>44.0</ele><time>2026-05-02T00:40:27Z</time></trkpt><trkpt lat="45.417132739689734" lon="11.112610167102009"><ele>42.0</ele><time>2026-05-02T00:40:28Z</time></trkpt><trkpt lat="45.41700062892475" lon="11.11223641661604"><ele>42.0</ele><time>2026-05-02T00:40:29Z</time></trkpt><trkpt lat="45.416869077948185" lon="11.111864703775948"><ele>42.0</ele><time>2026-05-02T00:40:30Z</time></trkpt><trkpt lat="45.41673816494726" lon="11.111496752118432"><ele>42.0</ele><time>2026-05-02T00:40:31Z</time></trkpt><trkpt lat="45.41660909391314" lon="11.111129665516318"><ele>42.0</ele><time>2026-05-02T00:40:32Z</time></trkpt><trkpt lat="45.416481033251884" lon="11.110764978792458"><ele>42.0</ele><time>2026-05-02T00:40:33Z</time></trkpt><trkpt lat="45.41635227174941" lon="11.110398591874366"><ele>42.0</ele><time>2026-05-02T00:40:34Z</time></trkpt><trkpt lat="45.41622366902307" lon="11.110032875740501"><ele>41.5</ele><time>2026-05-02T00:40:35Z</time></trkpt><trkpt lat="45.41609470938989" lon="11.109664256587218"><ele>41.0</ele><time>2026-05-02T00:40:36Z</time></trkpt><trkpt lat="45.41596910570517" lon="11.109293159472388"><ele>41.0</ele><time>2026-05-02T00:40:37Z</time></trkpt><trkpt lat="45.41585040449207" lon="11.108917637281197"><ele>41.0</ele><time>2026-05-02T00:40:38Z</time></trkpt><trkpt lat="45.415736373858564" lon="11.108543319972457"><ele>42.0</ele><time>2026-05-02T00:40:39Z</time></trkpt><trkpt lat="45.41562604579677" lon="11.1081647630578"><ele>43.0</ele><time>2026-05-02T00:40:40Z</time></trkpt><trkpt lat="45.41551705069203" lon="11.107784715988128"><ele>43.5</ele><time>2026-05-02T00:40:41Z</time></trkpt><trkpt lat="45.41540989809625" lon="11.107405687244635"><ele>44.0</ele><time>2026-05-02T00:40:42Z</time></trkpt><trkpt lat="45.415303766092165" lon="11.107025564808767"><ele>44.0</ele><time>2026-05-02T00:40:43Z</time></trkpt><trkpt lat="45.4151994868712" lon="11.106645481132093"><ele>44.0</ele><time>2026-05-02T00:40:44Z</time></trkpt><trkpt lat="45.41509762177258" lon="11.106262208076672"><ele>44.0</ele><time>2026-05-02T00:40:45Z</time></trkpt><trkpt lat="45.41499566906367" lon="11.105880300718459"><ele>44.0</ele><time>2026-05-02T00:40:46Z</time></trkpt><trkpt lat="45.414893687659955" lon="11.1054967859852"><ele>44.0</ele><time>2026-05-02T00:40:47Z</time></trkpt><trkpt lat="45.4147931875412" lon="11.10511723165869"><ele>44.0</ele><time>2026-05-02T00:40:48Z</time></trkpt><trkpt lat="45.41469201911862" lon="11.104733086722803"><ele>44.0</ele><time>2026-05-02T00:40:49Z</time></trkpt><trkpt lat="45.41458952606054" lon="11.104353455412813"><ele>44.0</ele><time>2026-05-02T00:40:50Z</time></trkpt><trkpt lat="45.41448711140744" lon="11.103973462449064"><ele>44.0</ele><time>2026-05-02T00:40:51Z</time></trkpt><trkpt lat="45.41438411919479" lon="11.103592219454637"><ele>44.0</ele><time>2026-05-02T00:40:52Z</time></trkpt><trkpt lat="45.41428155525271" lon="11.103212438843073"><ele>43.5</ele><time>2026-05-02T00:40:53Z</time></trkpt><trkpt lat="45.41418011551707" lon="11.102833265393134"><ele>43.0</ele><time>2026-05-02T00:40:54Z</time></trkpt><trkpt lat="45.414080734341866" lon="11.102455638681393"><ele>43.0</ele><time>2026-05-02T00:40:55Z</time></trkpt><trkpt lat="45.413980487331166" lon="11.102080101950868"><ele>43.0</ele><time>2026-05-02T00:40:56Z</time></trkpt><trkpt lat="45.413881919845394" lon="11.101714473702303"><ele>43.0</ele><time>2026-05-02T00:40:57Z</time></trkpt><trkpt lat="45.41379054276801" lon="11.101367731218163"><ele>43.0</ele><time>2026-05-02T00:40:58Z</time></trkpt><trkpt lat="45.41370325854141" lon="11.101041197231414"><ele>43.5</ele><time>2026-05-02T00:40:59Z</time></trkpt><trkpt lat="45.4136150488596" lon="11.100715066490386"><ele>44.0</ele><time>2026-05-02T00:41:00Z</time></trkpt><trkpt lat="45.413526350179254" lon="11.100385634975495"><ele>44.0</ele><time>2026-05-02T00:41:01Z</time></trkpt><trkpt lat="45.41343649239164" lon="11.100055119603791"><ele>44.0</ele><time>2026-05-02T00:41:02Z</time></trkpt><trkpt lat="45.41334524459493" lon="11.099722745480195"><ele>45.0</ele><time>2026-05-02T00:41:03Z</time></trkpt><trkpt lat="45.41326040407662" lon="11.099399984170013"><ele>46.0</ele><time>2026-05-02T00:41:04Z</time></trkpt><trkpt lat="45.41317715177233" lon="11.099088009142294"><ele>45.5</ele><time>2026-05-02T00:41:05Z</time></trkpt><trkpt lat="45.413094855655395" lon="11.098781502720366"><ele>45.0</ele><time>2026-05-02T00:41:06Z</time></trkpt><trkpt lat="45.41301092585556" lon="11.09847644833209"><ele>45.0</ele><time>2026-05-02T00:41:07Z</time></trkpt><trkpt lat="45.41293134916366" lon="11.098171092666616"><ele>45.0</ele><time>2026-05-02T00:41:08Z</time></trkpt><trkpt lat="45.412852612457506" lon="11.097866264935371"><ele>45.0</ele><time>2026-05-02T00:41:09Z</time></trkpt><trkpt lat="45.41277202455405" lon="11.09756304828958"><ele>45.0</ele><time>2026-05-02T00:41:10Z</time></trkpt><trkpt lat="45.41269124246416" lon="11.097259179431667"><ele>45.5</ele><time>2026-05-02T00:41:11Z</time></trkpt><trkpt lat="45.412609659052265" lon="11.096957895022353"><ele>46.0</ele><time>2026-05-02T00:41:12Z</time></trkpt><trkpt lat="45.41252935121182" lon="11.096653669730244"><ele>47.0</ele><time>2026-05-02T00:41:13Z</time></trkpt><trkpt lat="45.41244955369318" lon="11.09635013034587"><ele>48.0</ele><time>2026-05-02T00:41:14Z</time></trkpt><trkpt lat="45.4123687837719" lon="11.096044401847646"><ele>48.0</ele><time>2026-05-02T00:41:15Z</time></trkpt><trkpt lat="45.412289856329686" lon="11.095738479127487"><ele>48.0</ele><time>2026-05-02T00:41:16Z</time></trkpt><trkpt lat="45.41220650477347" lon="11.095435162324165"><ele>48.0</ele><time>2026-05-02T00:41:17Z</time></trkpt><trkpt lat="45.41212355032364" lon="11.095139474923549"><ele>48.0</ele><time>2026-05-02T00:41:18Z</time></trkpt><trkpt lat="45.41204044573755" lon="11.094837752201968"><ele>48.0</ele><time>2026-05-02T00:41:19Z</time></trkpt><trkpt lat="45.41195853827672" lon="11.094534475713472"><ele>48.0</ele><time>2026-05-02T00:41:20Z</time></trkpt><trkpt lat="45.41187705437205" lon="11.094229624944356"><ele>47.0</ele><time>2026-05-02T00:41:21Z</time></trkpt><trkpt lat="45.41179534383847" lon="11.093924906490019"><ele>46.0</ele><time>2026-05-02T00:41:22Z</time></trkpt><trkpt lat="45.41171338411649" lon="11.093621113342309"><ele>46.0</ele><time>2026-05-02T00:41:23Z</time></trkpt><trkpt lat="45.4116299054349" lon="11.093316087964265"><ele>46.0</ele><time>2026-05-02T00:41:24Z</time></trkpt><trkpt lat="45.411547706559155" lon="11.093013551979931"><ele>46.0</ele><time>2026-05-02T00:41:25Z</time></trkpt><trkpt lat="45.411465719824434" lon="11.092709169907323"><ele>46.0</ele><time>2026-05-02T00:41:26Z</time></trkpt><trkpt lat="45.41138408118653" lon="11.092407539117813"><ele>47.0</ele><time>2026-05-02T00:41:27Z</time></trkpt><trkpt lat="45.41130280995439" lon="11.09210957151088"><ele>48.0</ele><time>2026-05-02T00:41:28Z</time></trkpt><trkpt lat="45.411220924087445" lon="11.091808910199465"><ele>47.666666666666664</ele><time>2026-05-02T00:41:29Z</time></trkpt><trkpt lat="45.41113823398417" lon="11.09151251391577"><ele>47.33333333333333</ele><time>2026-05-02T00:41:30Z</time></trkpt><trkpt lat="45.41105728769689" lon="11.091213559996202"><ele>47.0</ele><time>2026-05-02T00:41:31Z</time></trkpt><trkpt lat="45.41097933934585" lon="11.090915860344852"><ele>46.0</ele><time>2026-05-02T00:41:32Z</time></trkpt><trkpt lat="45.41090130870643" lon="11.090618399940972"><ele>45.0</ele><time>2026-05-02T00:41:33Z</time></trkpt><trkpt lat="45.41082003859081" lon="11.09032204474025"><ele>44.0</ele><time>2026-05-02T00:41:34Z</time></trkpt><trkpt lat="45.41073982022301" lon="11.090028947582027"><ele>44.0</ele><time>2026-05-02T00:41:35Z</time></trkpt><trkpt lat="45.410661959265326" lon="11.089733292622153"><ele>44.0</ele><time>2026-05-02T00:41:36Z</time></trkpt><trkpt lat="45.410584267532556" lon="11.089439107882896"><ele>44.0</ele><time>2026-05-02T00:41:37Z</time></trkpt><trkpt lat="45.4105050350391" lon="11.089147478493864"><ele>44.0</ele><time>2026-05-02T00:41:38Z</time></trkpt><trkpt lat="45.41042896757196" lon="11.088856874954972"><ele>44.0</ele><time>2026-05-02T00:41:39Z</time></trkpt><trkpt lat="45.41035066749105" lon="11.088566735881452"><ele>44.0</ele><time>2026-05-02T00:41:40Z</time></trkpt><trkpt lat="45.41027102932478" lon="11.088277043337465"><ele>44.33333333333333</ele><time>2026-05-02T00:41:41Z</time></trkpt><trkpt lat="45.410197041586564" lon="11.08798803890076"><ele>44.666666666666664</ele><time>2026-05-02T00:41:42Z</time></trkpt><trkpt lat="45.41012061891783" lon="11.087698043793011"><ele>45.0</ele><time>2026-05-02T00:41:43Z</time></trkpt><trkpt lat="45.410047698160675" lon="11.08740923997108"><ele>45.0</ele><time>2026-05-02T00:41:44Z</time></trkpt><trkpt lat="45.40997275212987" lon="11.08712248894132"><ele>45.0</ele><time>2026-05-02T00:41:45Z</time></trkpt><trkpt lat="45.40989915510816" lon="11.08683163028404"><ele>45.0</ele><time>2026-05-02T00:41:46Z</time></trkpt><trkpt lat="45.40982369222477" lon="11.086541114536624"><ele>45.0</ele><time>2026-05-02T00:41:47Z</time></trkpt><trkpt lat="45.40974650828853" lon="11.086245474962384"><ele>45.0</ele><time>2026-05-02T00:41:48Z</time></trkpt><trkpt lat="45.40966595993646" lon="11.085935084685687"><ele>44.5</ele><time>2026-05-02T00:41:49Z</time></trkpt><trkpt lat="45.40958043769979" lon="11.085606181055175"><ele>44.0</ele><time>2026-05-02T00:41:50Z</time></trkpt><trkpt lat="45.40948945893731" lon="11.085261881771837"><ele>44.0</ele><time>2026-05-02T00:41:51Z</time></trkpt><trkpt lat="45.40939516501054" lon="11.084913190483228"><ele>44.0</ele><time>2026-05-02T00:41:52Z</time></trkpt><trkpt lat="45.409298409821794" lon="11.084555908038041"><ele>44.0</ele><time>2026-05-02T00:41:53Z</time></trkpt><trkpt lat="45.409199586504776" lon="11.084191409513071"><ele>44.0</ele><time>2026-05-02T00:41:54Z</time></trkpt><trkpt lat="45.409103348616625" lon="11.0838263383122"><ele>44.0</ele><time>2026-05-02T00:41:55Z</time></trkpt><trkpt lat="45.40900760624097" lon="11.083460912808926"><ele>44.0</ele><time>2026-05-02T00:41:56Z</time></trkpt><trkpt lat="45.40891292499786" lon="11.083089835231148"><ele>44.5</ele><time>2026-05-02T00:41:57Z</time></trkpt><trkpt lat="45.40881851756312" lon="11.082721351838659"><ele>45.0</ele><time>2026-05-02T00:41:58Z</time></trkpt><trkpt lat="45.4087260950691" lon="11.082350887575643"><ele>44.0</ele><time>2026-05-02T00:41:59Z</time></trkpt><trkpt lat="45.408626342035895" lon="11.081975879372301"><ele>43.0</ele><time>2026-05-02T00:42:00Z</time></trkpt><trkpt lat="45.40852483332305" lon="11.081601957139814"><ele>43.5</ele><time>2026-05-02T00:42:01Z</time></trkpt><trkpt lat="45.40842168304756" lon="11.081224653761959"><ele>44.0</ele><time>2026-05-02T00:42:02Z</time></trkpt><trkpt lat="45.40831753360938" lon="11.080837049320364"><ele>43.5</ele><time>2026-05-02T00:42:03Z</time></trkpt><trkpt lat="45.40821054401207" lon="11.080451100888844"><ele>43.0</ele><time>2026-05-02T00:42:04Z</time></trkpt><trkpt lat="45.40810599359614" lon="11.08006317430637"><ele>43.5</ele><time>2026-05-02T00:42:05Z</time></trkpt><trkpt lat="45.40799574345674" lon="11.07966966833943"><ele>44.0</ele><time>2026-05-02T00:42:06Z</time></trkpt><trkpt lat="45.40788873060472" lon="11.079277426873096"><ele>43.5</ele><time>2026-05-02T00:42:07Z</time></trkpt><trkpt lat="45.40778206714333" lon="11.078883915892105"><ele>43.0</ele><time>2026-05-02T00:42:08Z</time></trkpt><trkpt lat="45.40767740976218" lon="11.078488290029421"><ele>43.5</ele><time>2026-05-02T00:42:09Z</time></trkpt><trkpt lat="45.40757195401906" lon="11.078093623410409"><ele>44.0</ele><time>2026-05-02T00:42:10Z</time></trkpt><trkpt lat="45.407462690373336" lon="11.077700689473339"><ele>43.5</ele><time>2026-05-02T00:42:11Z</time></trkpt><trkpt lat="45.407355397642455" lon="11.077309743668078"><ele>43.0</ele><time>2026-05-02T00:42:12Z</time></trkpt><trkpt lat="45.407248765745166" lon="11.076912733720562"><ele>43.0</ele><time>2026-05-02T00:42:13Z</time></trkpt><trkpt lat="45.40714395206944" lon="11.07651743585669"><ele>43.0</ele><time>2026-05-02T00:42:14Z</time></trkpt><trkpt lat="45.40703969545772" lon="11.076120250412927"><ele>42.0</ele><time>2026-05-02T00:42:15Z</time></trkpt><trkpt lat="45.406934591723704" lon="11.075727895691687"><ele>41.0</ele><time>2026-05-02T00:42:16Z</time></trkpt><trkpt lat="45.406831004272924" lon="11.075327547454393"><ele>41.0</ele><time>2026-05-02T00:42:17Z</time></trkpt><trkpt lat="45.40672576885492" lon="11.074930237683274"><ele>41.0</ele><time>2026-05-02T00:42:18Z</time></trkpt><trkpt lat="45.406620629023735" lon="11.074530334013497"><ele>41.0</ele><time>2026-05-02T00:42:19Z</time></trkpt><trkpt lat="45.40651774158723" lon="11.074131101084722"><ele>41.0</ele><time>2026-05-02T00:42:20Z</time></trkpt><trkpt lat="45.406415817976836" lon="11.073731272449649"><ele>41.0</ele><time>2026-05-02T00:42:21Z</time></trkpt><trkpt lat="45.4063178199186" lon="11.07333065304556"><ele>41.0</ele><time>2026-05-02T00:42:22Z</time></trkpt><trkpt lat="45.40622001080365" lon="11.072926368573654"><ele>41.0</ele><time>2026-05-02T00:42:23Z</time></trkpt><trkpt lat="45.406130369889155" lon="11.072520537091876"><ele>41.0</ele><time>2026-05-02T00:42:24Z</time></trkpt><trkpt lat="45.40604382937371" lon="11.07211280062868"><ele>41.0</ele><time>2026-05-02T00:42:25Z</time></trkpt><trkpt lat="45.40596074854399" lon="11.071701098545338"><ele>41.0</ele><time>2026-05-02T00:42:26Z</time></trkpt><trkpt lat="45.405885966594425" lon="11.071284839649977"><ele>40.5</ele><time>2026-05-02T00:42:27Z</time></trkpt><trkpt lat="45.40581855271723" lon="11.070863477363357"><ele>40.0</ele><time>2026-05-02T00:42:28Z</time></trkpt><trkpt lat="45.40575267064206" lon="11.070444902192333"><ele>40.0</ele><time>2026-05-02T00:42:29Z</time></trkpt><trkpt lat="45.4056948822721" lon="11.0700186197253"><ele>40.0</ele><time>2026-05-02T00:42:30Z</time></trkpt><trkpt lat="45.405638053735316" lon="11.069597632452155"><ele>39.5</ele><time>2026-05-02T00:42:31Z</time></trkpt><trkpt lat="45.4055860316794" lon="11.069178342959153"><ele>39.0</ele><time>2026-05-02T00:42:32Z</time></trkpt><trkpt lat="45.405539770398946" lon="11.068754351681882"><ele>38.0</ele><time>2026-05-02T00:42:33Z</time></trkpt><trkpt lat="45.405501487708854" lon="11.068330781260508"><ele>37.0</ele><time>2026-05-02T00:42:34Z</time></trkpt><trkpt lat="45.40546905882682" lon="11.067909566767636"><ele>37.0</ele><time>2026-05-02T00:42:35Z</time></trkpt><trkpt lat="45.405436444682806" lon="11.067489039180819"><ele>37.0</ele><time>2026-05-02T00:42:36Z</time></trkpt><trkpt lat="45.40540633171853" lon="11.067067128409239"><ele>37.0</ele><time>2026-05-02T00:42:37Z</time></trkpt><trkpt lat="45.40537774601955" lon="11.066641913109544"><ele>37.0</ele><time>2026-05-02T00:42:38Z</time></trkpt><trkpt lat="45.405342012268406" lon="11.06621754071459"><ele>37.0</ele><time>2026-05-02T00:42:39Z</time></trkpt><trkpt lat="45.405303570310714" lon="11.065792541901208"><ele>37.0</ele><time>2026-05-02T00:42:40Z</time></trkpt><trkpt lat="45.405265989002366" lon="11.065368148070181"><ele>36.5</ele><time>2026-05-02T00:42:41Z</time></trkpt><trkpt lat="45.405230147966684" lon="11.064943070906363"><ele>36.0</ele><time>2026-05-02T00:42:42Z</time></trkpt><trkpt lat="45.40519198292899" lon="11.064513980523522"><ele>36.5</ele><time>2026-05-02T00:42:43Z</time></trkpt><trkpt lat="45.40515647426747" lon="11.064086756266601"><ele>37.0</ele><time>2026-05-02T00:42:44Z</time></trkpt><trkpt lat="45.40511825572523" lon="11.06365839483475"><ele>36.5</ele><time>2026-05-02T00:42:45Z</time></trkpt><trkpt lat="45.40508209152233" lon="11.0632303976273"><ele>36.0</ele><time>2026-05-02T00:42:46Z</time></trkpt><trkpt lat="45.40504539153963" lon="11.062802942390624"><ele>37.0</ele><time>2026-05-02T00:42:47Z</time></trkpt><trkpt lat="45.40500995491514" lon="11.062378429033716"><ele>38.0</ele><time>2026-05-02T00:42:48Z</time></trkpt><trkpt lat="45.404975289741394" lon="11.061949936455465"><ele>38.0</ele><time>2026-05-02T00:42:49Z</time></trkpt><trkpt lat="45.40494557285469" lon="11.061526255071682"><ele>38.0</ele><time>2026-05-02T00:42:50Z</time></trkpt><trkpt lat="45.40491444103996" lon="11.061106065268222"><ele>37.5</ele><time>2026-05-02T00:42:51Z</time></trkpt><trkpt lat="45.404880195936286" lon="11.060685066022113"><ele>37.0</ele><time>2026-05-02T00:42:52Z</time></trkpt><trkpt lat="45.40484807936465" lon="11.060259395090615"><ele>36.0</ele><time>2026-05-02T00:42:53Z</time></trkpt><trkpt lat="45.40481486268414" lon="11.059837518898394"><ele>35.0</ele><time>2026-05-02T00:42:54Z</time></trkpt><trkpt lat="45.40478021657469" lon="11.059413673741192"><ele>35.5</ele><time>2026-05-02T00:42:55Z</time></trkpt><trkpt lat="45.40474425343767" lon="11.05899174156413"><ele>36.0</ele><time>2026-05-02T00:42:56Z</time></trkpt><trkpt lat="45.404707694876834" lon="11.05857212826746"><ele>35.5</ele><time>2026-05-02T00:42:57Z</time></trkpt><trkpt lat="45.40467204625916" lon="11.05815323050803"><ele>35.0</ele><time>2026-05-02T00:42:58Z</time></trkpt><trkpt lat="45.40463571396713" lon="11.057733879759915"><ele>36.5</ele><time>2026-05-02T00:42:59Z</time></trkpt><trkpt lat="45.40459981902304" lon="11.057314960984893"><ele>38.0</ele><time>2026-05-02T00:43:00Z</time></trkpt><trkpt lat="45.40456447962541" lon="11.056897630047517"><ele>38.5</ele><time>2026-05-02T00:43:01Z</time></trkpt><trkpt lat="45.40453026007787" lon="11.056481757146434"><ele>39.0</ele><time>2026-05-02T00:43:02Z</time></trkpt><trkpt lat="45.404496509752214" lon="11.056064495229101"><ele>37.5</ele><time>2026-05-02T00:43:03Z</time></trkpt><trkpt lat="45.40446297437296" lon="11.055647051128986"><ele>36.0</ele><time>2026-05-02T00:43:04Z</time></trkpt><trkpt lat="45.404429545587085" lon="11.055229771987948"><ele>36.5</ele><time>2026-05-02T00:43:05Z</time></trkpt><trkpt lat="45.40439291643584" lon="11.054814939753806"><ele>37.0</ele><time>2026-05-02T00:43:06Z</time></trkpt><trkpt lat="45.4043563230355" lon="11.054399106206638"><ele>37.5</ele><time>2026-05-02T00:43:07Z</time></trkpt><trkpt lat="45.40432107363143" lon="11.053982118327266"><ele>38.0</ele><time>2026-05-02T00:43:08Z</time></trkpt><trkpt lat="45.40428319249566" lon="11.053565270566999"><ele>38.0</ele><time>2026-05-02T00:43:09Z</time></trkpt><trkpt lat="45.404244169864796" lon="11.053149209945003"><ele>38.0</ele><time>2026-05-02T00:43:10Z</time></trkpt><trkpt lat="45.40420363928047" lon="11.05273557820814"><ele>37.5</ele><time>2026-05-02T00:43:11Z</time></trkpt><trkpt lat="45.40416363013378" lon="11.052319347916677"><ele>37.0</ele><time>2026-05-02T00:43:12Z</time></trkpt><trkpt lat="45.404121459974576" lon="11.051905135221563"><ele>37.5</ele><time>2026-05-02T00:43:13Z</time></trkpt><trkpt lat="45.404081710479424" lon="11.051494768067833"><ele>38.0</ele><time>2026-05-02T00:43:14Z</time></trkpt><trkpt lat="45.40404212657313" lon="11.051091370708853"><ele>38.0</ele><time>2026-05-02T00:43:15Z</time></trkpt><trkpt lat="45.40400483962172" lon="11.050707368824746"><ele>38.0</ele><time>2026-05-02T00:43:16Z</time></trkpt><trkpt lat="45.40396302724002" lon="11.050309667528134"><ele>38.5</ele><time>2026-05-02T00:43:17Z</time></trkpt><trkpt lat="45.40392304629085" lon="11.049905746804418"><ele>39.0</ele><time>2026-05-02T00:43:18Z</time></trkpt><trkpt lat="45.40387987238182" lon="11.04949350069433"><ele>38.0</ele><time>2026-05-02T00:43:19Z</time></trkpt><trkpt lat="45.40383623449851" lon="11.04907674516334"><ele>37.0</ele><time>2026-05-02T00:43:20Z</time></trkpt><trkpt lat="45.4037948394413" lon="11.048654100014424"><ele>37.0</ele><time>2026-05-02T00:43:21Z</time></trkpt><trkpt lat="45.403754339440475" lon="11.048227343971055"><ele>37.0</ele><time>2026-05-02T00:43:22Z</time></trkpt><trkpt lat="45.40371288526039" lon="11.04780427613961"><ele>37.0</ele><time>2026-05-02T00:43:23Z</time></trkpt><trkpt lat="45.40366845405361" lon="11.04737887909703"><ele>37.0</ele><time>2026-05-02T00:43:24Z</time></trkpt><trkpt lat="45.403626376553575" lon="11.046954049370871"><ele>38.0</ele><time>2026-05-02T00:43:25Z</time></trkpt><trkpt lat="45.40358279487983" lon="11.04652939248142"><ele>39.0</ele><time>2026-05-02T00:43:26Z</time></trkpt><trkpt lat="45.40354182635153" lon="11.046106767431612"><ele>40.0</ele><time>2026-05-02T00:43:27Z</time></trkpt><trkpt lat="45.40350194264133" lon="11.045686743434523"><ele>41.0</ele><time>2026-05-02T00:43:28Z</time></trkpt><trkpt lat="45.40346163591432" lon="11.045271212732843"><ele>40.0</ele><time>2026-05-02T00:43:29Z</time></trkpt><trkpt lat="45.403421572065895" lon="11.04485555631998"><ele>39.0</ele><time>2026-05-02T00:43:30Z</time></trkpt><trkpt lat="45.403378469109" lon="11.044443107301987"><ele>37.5</ele><time>2026-05-02T00:43:31Z</time></trkpt><trkpt lat="45.403335789939845" lon="11.044029268248925"><ele>36.0</ele><time>2026-05-02T00:43:32Z</time></trkpt><trkpt lat="45.403294245590416" lon="11.043617427794064"><ele>37.0</ele><time>2026-05-02T00:43:33Z</time></trkpt><trkpt lat="45.40325347947084" lon="11.04320597241741"><ele>38.0</ele><time>2026-05-02T00:43:34Z</time></trkpt><trkpt lat="45.40321375385573" lon="11.042792803938276"><ele>38.0</ele><time>2026-05-02T00:43:35Z</time></trkpt><trkpt lat="45.40317404328087" lon="11.042379796848474"><ele>38.0</ele><time>2026-05-02T00:43:36Z</time></trkpt><trkpt lat="45.4031329984017" lon="11.041966716796798"><ele>38.0</ele><time>2026-05-02T00:43:37Z</time></trkpt><trkpt lat="45.40309377675244" lon="11.04155404280051"><ele>38.0</ele><time>2026-05-02T00:43:38Z</time></trkpt><trkpt lat="45.40305246161365" lon="11.041138050318876"><ele>38.5</ele><time>2026-05-02T00:43:39Z</time></trkpt><trkpt lat="45.40301006952667" lon="11.040725348554068"><ele>39.0</ele><time>2026-05-02T00:43:40Z</time></trkpt><trkpt lat="45.40296716665635" lon="11.040315402277239"><ele>40.5</ele><time>2026-05-02T00:43:41Z</time></trkpt><trkpt lat="45.40292578587475" lon="11.039898244028867"><ele>42.0</ele><time>2026-05-02T00:43:42Z</time></trkpt><trkpt lat="45.40288309842284" lon="11.039477663506473"><ele>43.0</ele><time>2026-05-02T00:43:43Z</time></trkpt><trkpt lat="45.40284758148365" lon="11.039058150101685"><ele>44.0</ele><time>2026-05-02T00:43:44Z</time></trkpt><trkpt lat="45.40280976633189" lon="11.03863793758486"><ele>43.0</ele><time>2026-05-02T00:43:45Z</time></trkpt><trkpt lat="45.402773849100946" lon="11.03821721209203"><ele>42.0</ele><time>2026-05-02T00:43:46Z</time></trkpt><trkpt lat="45.402739439708355" lon="11.037792036120088"><ele>41.5</ele><time>2026-05-02T00:43:47Z</time></trkpt><trkpt lat="45.40271478600007" lon="11.037366322311646"><ele>41.0</ele><time>2026-05-02T00:43:48Z</time></trkpt><trkpt lat="45.402691329890196" lon="11.036941536045862"><ele>40.0</ele><time>2026-05-02T00:43:49Z</time></trkpt><trkpt lat="45.402673794421084" lon="11.036517493165904"><ele>39.0</ele><time>2026-05-02T00:43:50Z</time></trkpt><trkpt lat="45.40265596757072" lon="11.036094232298623"><ele>39.5</ele><time>2026-05-02T00:43:51Z</time></trkpt><trkpt lat="45.40263563864898" lon="11.035669670287554"><ele>40.0</ele><time>2026-05-02T00:43:52Z</time></trkpt><trkpt lat="45.4026082041372" lon="11.035246637172984"><ele>40.5</ele><time>2026-05-02T00:43:53Z</time></trkpt><trkpt lat="45.402572114360524" lon="11.034822267144785"><ele>41.0</ele><time>2026-05-02T00:43:54Z</time></trkpt><trkpt lat="45.402534241334905" lon="11.03439579168953"><ele>41.5</ele><time>2026-05-02T00:43:55Z</time></trkpt><trkpt lat="45.4024963922241" lon="11.033967894136737"><ele>42.0</ele><time>2026-05-02T00:43:56Z</time></trkpt><trkpt lat="45.40245430115831" lon="11.033538759201328"><ele>41.5</ele><time>2026-05-02T00:43:57Z</time></trkpt><trkpt lat="45.40241155372463" lon="11.033111251843827"><ele>41.0</ele><time>2026-05-02T00:43:58Z</time></trkpt><trkpt lat="45.40237087468548" lon="11.032685962392458"><ele>40.5</ele><time>2026-05-02T00:43:59Z</time></trkpt><trkpt lat="45.40233273573226" lon="11.032267704458505"><ele>40.0</ele><time>2026-05-02T00:44:00Z</time></trkpt><trkpt lat="45.40229226374608" lon="11.03184637825758"><ele>41.0</ele><time>2026-05-02T00:44:01Z</time></trkpt><trkpt lat="45.40225194246235" lon="11.03142692692439"><ele>42.0</ele><time>2026-05-02T00:44:02Z</time></trkpt><trkpt lat="45.40221168678434" lon="11.031008250646583"><ele>42.5</ele><time>2026-05-02T00:44:03Z</time></trkpt><trkpt lat="45.40217056749743" lon="11.030590461369252"><ele>43.0</ele><time>2026-05-02T00:44:04Z</time></trkpt><trkpt lat="45.40212867659706" lon="11.030170228666535"><ele>44.5</ele><time>2026-05-02T00:44:05Z</time></trkpt><trkpt lat="45.40208608310596" lon="11.029752196393451"><ele>46.0</ele><time>2026-05-02T00:44:06Z</time></trkpt><trkpt lat="45.40204496979963" lon="11.029333237656013"><ele>47.5</ele><time>2026-05-02T00:44:07Z</time></trkpt><trkpt lat="45.40200288102399" lon="11.028910995541388"><ele>49.0</ele><time>2026-05-02T00:44:08Z</time></trkpt><trkpt lat="45.40196077931515" lon="11.028490019203403"><ele>49.5</ele><time>2026-05-02T00:44:09Z</time></trkpt><trkpt lat="45.401922046977" lon="11.028070165090064"><ele>50.0</ele><time>2026-05-02T00:44:10Z</time></trkpt><trkpt lat="45.401879899879084" lon="11.027657925763144"><ele>51.0</ele><time>2026-05-02T00:44:11Z</time></trkpt><trkpt lat="45.40183711550959" lon="11.027248020670749"><ele>52.0</ele><time>2026-05-02T00:44:12Z</time></trkpt><trkpt lat="45.40178383514967" lon="11.02684832304557"><ele>51.5</ele><time>2026-05-02T00:44:13Z</time></trkpt><trkpt lat="45.401729263713314" lon="11.026452195830815"><ele>51.0</ele><time>2026-05-02T00:44:14Z</time></trkpt><trkpt lat="45.401672329252676" lon="11.02605789401739"><ele>50.0</ele><time>2026-05-02T00:44:15Z</time></trkpt><trkpt lat="45.40161117588285" lon="11.025661626777858"><ele>49.0</ele><time>2026-05-02T00:44:16Z</time></trkpt><trkpt lat="45.40155201632257" lon="11.025267790521596"><ele>49.0</ele><time>2026-05-02T00:44:17Z</time></trkpt><trkpt lat="45.401494888756766" lon="11.02487256904995"><ele>49.0</ele><time>2026-05-02T00:44:18Z</time></trkpt><trkpt lat="45.40144011199568" lon="11.024477903734779"><ele>50.0</ele><time>2026-05-02T00:44:19Z</time></trkpt><trkpt lat="45.401389221871185" lon="11.024082164691418"><ele>51.0</ele><time>2026-05-02T00:44:20Z</time></trkpt><trkpt lat="45.4013401756771" lon="11.023686158288085"><ele>51.5</ele><time>2026-05-02T00:44:21Z</time></trkpt><trkpt lat="45.401292085719376" lon="11.023285871532064"><ele>52.0</ele><time>2026-05-02T00:44:22Z</time></trkpt><trkpt lat="45.40124814034901" lon="11.022883829190857"><ele>51.5</ele><time>2026-05-02T00:44:23Z</time></trkpt><trkpt lat="45.40120835950031" lon="11.022476081658208"><ele>51.0</ele><time>2026-05-02T00:44:24Z</time></trkpt><trkpt lat="45.40117460171347" lon="11.02206615626324"><ele>51.0</ele><time>2026-05-02T00:44:25Z</time></trkpt><trkpt lat="45.40114113348052" lon="11.02165279382292"><ele>51.0</ele><time>2026-05-02T00:44:26Z</time></trkpt><trkpt lat="45.40110688507591" lon="11.021236960707649"><ele>51.0</ele><time>2026-05-02T00:44:27Z</time></trkpt><trkpt lat="45.40107288061861" lon="11.020817864616657"><ele>51.0</ele><time>2026-05-02T00:44:28Z</time></trkpt><trkpt lat="45.40103835694137" lon="11.020394612258228"><ele>52.5</ele><time>2026-05-02T00:44:29Z</time></trkpt><trkpt lat="45.40099932183973" lon="11.019973261007138"><ele>54.0</ele><time>2026-05-02T00:44:30Z</time></trkpt><trkpt lat="45.40095924405389" lon="11.019551827062438"><ele>55.0</ele><time>2026-05-02T00:44:31Z</time></trkpt><trkpt lat="45.40091538064632" lon="11.019132305518934"><ele>56.0</ele><time>2026-05-02T00:44:32Z</time></trkpt><trkpt lat="45.40087288720854" lon="11.018710995070252"><ele>56.0</ele><time>2026-05-02T00:44:33Z</time></trkpt><trkpt lat="45.400832250599706" lon="11.018290297440961"><ele>56.0</ele><time>2026-05-02T00:44:34Z</time></trkpt><trkpt lat="45.40079409925899" lon="11.017869770236421"><ele>54.5</ele><time>2026-05-02T00:44:35Z</time></trkpt><trkpt lat="45.40075318765691" lon="11.017449258106241"><ele>53.0</ele><time>2026-05-02T00:44:36Z</time></trkpt><trkpt lat="45.40071277613583" lon="11.017030045984413"><ele>53.5</ele><time>2026-05-02T00:44:37Z</time></trkpt><trkpt lat="45.40067086076701" lon="11.016607360422613"><ele>54.0</ele><time>2026-05-02T00:44:38Z</time></trkpt><trkpt lat="45.40062726435146" lon="11.016187139537882"><ele>54.0</ele><time>2026-05-02T00:44:39Z</time></trkpt><trkpt lat="45.4005860084456" lon="11.015764371948995"><ele>54.0</ele><time>2026-05-02T00:44:40Z</time></trkpt><trkpt lat="45.40054895210273" lon="11.01534905411182"><ele>54.5</ele><time>2026-05-02T00:44:41Z</time></trkpt><trkpt lat="45.40050873660313" lon="11.014934482479813"><ele>55.0</ele><time>2026-05-02T00:44:42Z</time></trkpt><trkpt lat="45.4004647484587" lon="11.014519196116112"><ele>51.5</ele><time>2026-05-02T00:44:43Z</time></trkpt><trkpt lat="45.40042406614732" lon="11.014102748855962"><ele>48.0</ele><time>2026-05-02T00:44:44Z</time></trkpt><trkpt lat="45.40037933183961" lon="11.013688568478113"><ele>47.5</ele><time>2026-05-02T00:44:45Z</time></trkpt><trkpt lat="45.40033836888581" lon="11.013273471310386"><ele>47.0</ele><time>2026-05-02T00:44:46Z</time></trkpt><trkpt lat="45.40029867812737" lon="11.012853920196951"><ele>48.5</ele><time>2026-05-02T00:44:47Z</time></trkpt><trkpt lat="45.400260482408854" lon="11.01243640090261"><ele>50.0</ele><time>2026-05-02T00:44:48Z</time></trkpt><trkpt lat="45.40021865030623" lon="11.01201779045186"><ele>51.5</ele><time>2026-05-02T00:44:49Z</time></trkpt><trkpt lat="45.400178956938475" lon="11.011597268064602"><ele>53.0</ele><time>2026-05-02T00:44:50Z</time></trkpt><trkpt lat="45.40013875852885" lon="11.011177811436637"><ele>53.0</ele><time>2026-05-02T00:44:51Z</time></trkpt><trkpt lat="45.40009846665419" lon="11.010757330984873"><ele>53.0</ele><time>2026-05-02T00:44:52Z</time></trkpt><trkpt lat="45.40005260714476" lon="11.010337356413931"><ele>52.5</ele><time>2026-05-02T00:44:53Z</time></trkpt><trkpt lat="45.40000889786948" lon="11.00991703523787"><ele>52.0</ele><time>2026-05-02T00:44:54Z</time></trkpt><trkpt lat="45.399970585657485" lon="11.009499492530407"><ele>52.0</ele><time>2026-05-02T00:44:55Z</time></trkpt><trkpt lat="45.39993146543088" lon="11.009084110907477"><ele>52.0</ele><time>2026-05-02T00:44:56Z</time></trkpt><trkpt lat="45.39988896207417" lon="11.008667159969495"><ele>52.5</ele><time>2026-05-02T00:44:57Z</time></trkpt><trkpt lat="45.39984302959254" lon="11.008243827728128"><ele>53.0</ele><time>2026-05-02T00:44:58Z</time></trkpt><trkpt lat="45.399797742379796" lon="11.007824605740515"><ele>51.5</ele><time>2026-05-02T00:44:59Z</time></trkpt><trkpt lat="45.39975235262682" lon="11.007402359327235"><ele>50.0</ele><time>2026-05-02T00:45:00Z</time></trkpt><trkpt lat="45.39971111018752" lon="11.006980231912513"><ele>50.5</ele><time>2026-05-02T00:45:01Z</time></trkpt><trkpt lat="45.399671135671746" lon="11.006557038702923"><ele>51.0</ele><time>2026-05-02T00:45:02Z</time></trkpt><trkpt lat="45.39963005813868" lon="11.006129721129959"><ele>51.0</ele><time>2026-05-02T00:45:03Z</time></trkpt><trkpt lat="45.39958618742485" lon="11.0057035906308"><ele>51.0</ele><time>2026-05-02T00:45:04Z</time></trkpt><trkpt lat="45.39953927406021" lon="11.005280341406243"><ele>51.5</ele><time>2026-05-02T00:45:05Z</time></trkpt><trkpt lat="45.39949635181637" lon="11.004852302643815"><ele>52.0</ele><time>2026-05-02T00:45:06Z</time></trkpt><trkpt lat="45.39945486106299" lon="11.004426565656425"><ele>51.5</ele><time>2026-05-02T00:45:07Z</time></trkpt><trkpt lat="45.39941073268636" lon="11.003999118919715"><ele>51.0</ele><time>2026-05-02T00:45:08Z</time></trkpt><trkpt lat="45.399365647465814" lon="11.003569169422162"><ele>52.0</ele><time>2026-05-02T00:45:09Z</time></trkpt><trkpt lat="45.39931703259845" lon="11.003144700883233"><ele>53.0</ele><time>2026-05-02T00:45:10Z</time></trkpt><trkpt lat="45.399270682806154" lon="11.002714316929557"><ele>52.0</ele><time>2026-05-02T00:45:11Z</time></trkpt><trkpt lat="45.39922325677781" lon="11.002285563176676"><ele>51.0</ele><time>2026-05-02T00:45:12Z</time></trkpt><trkpt lat="45.39917867517312" lon="11.001858348514535"><ele>49.0</ele><time>2026-05-02T00:45:13Z</time></trkpt><trkpt lat="45.3991328888501" lon="11.001431775956558"><ele>47.0</ele><time>2026-05-02T00:45:14Z</time></trkpt><trkpt lat="45.39908710101533" lon="11.001004287110169"><ele>48.0</ele><time>2026-05-02T00:45:15Z</time></trkpt><trkpt lat="45.399044152423166" lon="11.000578297085639"><ele>49.0</ele><time>2026-05-02T00:45:16Z</time></trkpt><trkpt lat="45.39900714909421" lon="11.000153551005356"><ele>49.0</ele><time>2026-05-02T00:45:17Z</time></trkpt><trkpt lat="45.39897472766736" lon="10.999729957396385"><ele>49.0</ele><time>2026-05-02T00:45:18Z</time></trkpt><trkpt lat="45.39894335690715" lon="10.999303934891834"><ele>50.5</ele><time>2026-05-02T00:45:19Z</time></trkpt><trkpt lat="45.39891426589714" lon="10.998880623118776"><ele>52.0</ele><time>2026-05-02T00:45:20Z</time></trkpt><trkpt lat="45.39888682687871" lon="10.998456582945204"><ele>51.0</ele><time>2026-05-02T00:45:21Z</time></trkpt><trkpt lat="45.398860432909146" lon="10.998029813107197"><ele>50.0</ele><time>2026-05-02T00:45:22Z</time></trkpt><trkpt lat="45.39883292427807" lon="10.997602295122423"><ele>51.0</ele><time>2026-05-02T00:45:23Z</time></trkpt><trkpt lat="45.39880285950413" lon="10.997176827103074"><ele>52.0</ele><time>2026-05-02T00:45:24Z</time></trkpt><trkpt lat="45.39877395517439" lon="10.99675065173017"><ele>53.5</ele><time>2026-05-02T00:45:25Z</time></trkpt><trkpt lat="45.39874662381936" lon="10.996322247307834"><ele>55.0</ele><time>2026-05-02T00:45:26Z</time></trkpt><trkpt lat="45.39871943921179" lon="10.995898508644643"><ele>55.0</ele><time>2026-05-02T00:45:27Z</time></trkpt><trkpt lat="45.398687798865666" lon="10.995472260487839"><ele>55.0</ele><time>2026-05-02T00:45:28Z</time></trkpt><trkpt lat="45.39865440167271" lon="10.995048457901015"><ele>55.0</ele><time>2026-05-02T00:45:29Z</time></trkpt><trkpt lat="45.39861787042194" lon="10.994622342115315"><ele>55.0</ele><time>2026-05-02T00:45:30Z</time></trkpt><trkpt lat="45.39857149875584" lon="10.994198155225503"><ele>55.0</ele><time>2026-05-02T00:45:31Z</time></trkpt><trkpt lat="45.398526675848935" lon="10.993774891014171"><ele>55.0</ele><time>2026-05-02T00:45:32Z</time></trkpt><trkpt lat="45.398478823713425" lon="10.993347631113176"><ele>55.0</ele><time>2026-05-02T00:45:33Z</time></trkpt><trkpt lat="45.398440835902576" lon="10.992920270538677"><ele>55.0</ele><time>2026-05-02T00:45:34Z</time></trkpt><trkpt lat="45.39840310703566" lon="10.992499034120229"><ele>55.5</ele><time>2026-05-02T00:45:35Z</time></trkpt><trkpt lat="45.39836329300746" lon="10.992085283260879"><ele>56.0</ele><time>2026-05-02T00:45:36Z</time></trkpt><trkpt lat="45.39832374454828" lon="10.991691621993953"><ele>55.5</ele><time>2026-05-02T00:45:37Z</time></trkpt><trkpt lat="45.398276201639824" lon="10.991295273029223"><ele>55.0</ele><time>2026-05-02T00:45:38Z</time></trkpt><trkpt lat="45.39822901547072" lon="10.990891646499"><ele>55.5</ele><time>2026-05-02T00:45:39Z</time></trkpt><trkpt lat="45.39817409479499" lon="10.990485021622412"><ele>56.0</ele><time>2026-05-02T00:45:40Z</time></trkpt><trkpt lat="45.39811621921021" lon="10.990072833400081"><ele>54.5</ele><time>2026-05-02T00:45:41Z</time></trkpt><trkpt lat="45.398059827808844" lon="10.989657397138837"><ele>53.0</ele><time>2026-05-02T00:45:42Z</time></trkpt><trkpt lat="45.39800059492922" lon="10.989243363172275"><ele>53.5</ele><time>2026-05-02T00:45:43Z</time></trkpt><trkpt lat="45.39793853539343" lon="10.988828547969266"><ele>54.0</ele><time>2026-05-02T00:45:44Z</time></trkpt><trkpt lat="45.397876957204865" lon="10.988415217469264"><ele>55.0</ele><time>2026-05-02T00:45:45Z</time></trkpt><trkpt lat="45.39781507815058" lon="10.98799937944174"><ele>56.0</ele><time>2026-05-02T00:45:46Z</time></trkpt><trkpt lat="45.397752980099305" lon="10.987580167649323"><ele>56.5</ele><time>2026-05-02T00:45:47Z</time></trkpt><trkpt lat="45.397690177914555" lon="10.987161762384195"><ele>57.0</ele><time>2026-05-02T00:45:48Z</time></trkpt><trkpt lat="45.39762637589758" lon="10.986743255622413"><ele>57.5</ele><time>2026-05-02T00:45:49Z</time></trkpt><trkpt lat="45.39756058626123" lon="10.986323802319038"><ele>58.0</ele><time>2026-05-02T00:45:50Z</time></trkpt><trkpt lat="45.39749526756415" lon="10.985904698576173"><ele>57.5</ele><time>2026-05-02T00:45:51Z</time></trkpt><trkpt lat="45.397432402572434" lon="10.985488542121422"><ele>57.0</ele><time>2026-05-02T00:45:52Z</time></trkpt><trkpt lat="45.39737237036913" lon="10.985067090706462"><ele>57.0</ele><time>2026-05-02T00:45:53Z</time></trkpt><trkpt lat="45.39732183455271" lon="10.984646782077439"><ele>57.0</ele><time>2026-05-02T00:45:54Z</time></trkpt><trkpt lat="45.397274882999675" lon="10.984223980413413"><ele>57.0</ele><time>2026-05-02T00:45:55Z</time></trkpt><trkpt lat="45.39723324902793" lon="10.983801128237147"><ele>57.0</ele><time>2026-05-02T00:45:56Z</time></trkpt><trkpt lat="45.3971960349655" lon="10.983377293262949"><ele>54.5</ele><time>2026-05-02T00:45:57Z</time></trkpt><trkpt lat="45.39716247043702" lon="10.982953621148411"><ele>52.0</ele><time>2026-05-02T00:45:58Z</time></trkpt><trkpt lat="45.39713331799255" lon="10.982531729009485"><ele>51.0</ele><time>2026-05-02T00:45:59Z</time></trkpt><trkpt lat="45.397109183674964" lon="10.982111911190065"><ele>50.0</ele><time>2026-05-02T00:46:00Z</time></trkpt><trkpt lat="45.397091248100665" lon="10.981691794720222"><ele>50.0</ele><time>2026-05-02T00:46:01Z</time></trkpt><trkpt lat="45.39708363655253" lon="10.981273059091269"><ele>50.0</ele><time>2026-05-02T00:46:02Z</time></trkpt><trkpt lat="45.397080012064805" lon="10.980845592582977"><ele>50.0</ele><time>2026-05-02T00:46:03Z</time></trkpt><trkpt lat="45.39707885610131" lon="10.980419899473857"><ele>50.0</ele><time>2026-05-02T00:46:04Z</time></trkpt><trkpt lat="45.39707785317975" lon="10.97999217286037"><ele>50.0</ele><time>2026-05-02T00:46:05Z</time></trkpt><trkpt lat="45.397078160132985" lon="10.97956535562098"><ele>50.0</ele><time>2026-05-02T00:46:06Z</time></trkpt><trkpt lat="45.397078218231435" lon="10.979139462583868"><ele>50.5</ele><time>2026-05-02T00:46:07Z</time></trkpt><trkpt lat="45.39708485334043" lon="10.97871005196787"><ele>51.0</ele><time>2026-05-02T00:46:08Z</time></trkpt><trkpt lat="45.39709354900881" lon="10.978283932931328"><ele>51.0</ele><time>2026-05-02T00:46:09Z</time></trkpt><trkpt lat="45.397108782084814" lon="10.977855811480486"><ele>51.0</ele><time>2026-05-02T00:46:10Z</time></trkpt><trkpt lat="45.39713300766928" lon="10.977434511628338"><ele>51.0</ele><time>2026-05-02T00:46:11Z</time></trkpt><trkpt lat="45.39715216241635" lon="10.977016112072109"><ele>51.0</ele><time>2026-05-02T00:46:12Z</time></trkpt><trkpt lat="45.39717269829898" lon="10.97659440432678"><ele>51.0</ele><time>2026-05-02T00:46:13Z</time></trkpt><trkpt lat="45.39718878474481" lon="10.976178051921188"><ele>51.0</ele><time>2026-05-02T00:46:14Z</time></trkpt><trkpt lat="45.39720439908642" lon="10.975764774821762"><ele>53.5</ele><time>2026-05-02T00:46:15Z</time></trkpt><trkpt lat="45.397222392233765" lon="10.97535071754607"><ele>56.0</ele><time>2026-05-02T00:46:16Z</time></trkpt><trkpt lat="45.39723970713865" lon="10.97493962582341"><ele>56.0</ele><time>2026-05-02T00:46:17Z</time></trkpt><trkpt lat="45.39725878984564" lon="10.9745266006832"><ele>56.0</ele><time>2026-05-02T00:46:18Z</time></trkpt><trkpt lat="45.3972791534899" lon="10.974114384890973"><ele>56.0</ele><time>2026-05-02T00:46:19Z</time></trkpt><trkpt lat="45.39729751217854" lon="10.973700955488106"><ele>56.0</ele><time>2026-05-02T00:46:20Z</time></trkpt><trkpt lat="45.397314530765215" lon="10.973293375491785"><ele>55.5</ele><time>2026-05-02T00:46:21Z</time></trkpt><trkpt lat="45.39733062872307" lon="10.972887234587938"><ele>55.0</ele><time>2026-05-02T00:46:22Z</time></trkpt><trkpt lat="45.39734465735077" lon="10.972486390021084"><ele>55.0</ele><time>2026-05-02T00:46:23Z</time></trkpt><trkpt lat="45.397357886913134" lon="10.972087886571796"><ele>55.0</ele><time>2026-05-02T00:46:24Z</time></trkpt><trkpt lat="45.39737532176308" lon="10.971690422791818"><ele>55.0</ele><time>2026-05-02T00:46:25Z</time></trkpt><trkpt lat="45.39739017891328" lon="10.971290272686971"><ele>55.0</ele><time>2026-05-02T00:46:26Z</time></trkpt><trkpt lat="45.39740432028345" lon="10.970889709196783"><ele>56.5</ele><time>2026-05-02T00:46:27Z</time></trkpt><trkpt lat="45.397423707841654" lon="10.970493158757572"><ele>58.0</ele><time>2026-05-02T00:46:28Z</time></trkpt><trkpt lat="45.397440182533614" lon="10.97009535062527"><ele>57.5</ele><time>2026-05-02T00:46:29Z</time></trkpt><trkpt lat="45.39746027310202" lon="10.969695008483681"><ele>57.0</ele><time>2026-05-02T00:46:30Z</time></trkpt><trkpt lat="45.39747276756264" lon="10.969287321215468"><ele>55.5</ele><time>2026-05-02T00:46:31Z</time></trkpt><trkpt lat="45.3974913875581" lon="10.968886475614578"><ele>54.0</ele><time>2026-05-02T00:46:32Z</time></trkpt><trkpt lat="45.39750709440572" lon="10.968484420270011"><ele>53.5</ele><time>2026-05-02T00:46:33Z</time></trkpt><trkpt lat="45.397525822434424" lon="10.96808634706522"><ele>53.0</ele><time>2026-05-02T00:46:34Z</time></trkpt><trkpt lat="45.39754388438838" lon="10.967685297627098"><ele>55.5</ele><time>2026-05-02T00:46:35Z</time></trkpt><trkpt lat="45.39755877197131" lon="10.967285772536087"><ele>58.0</ele><time>2026-05-02T00:46:36Z</time></trkpt><trkpt lat="45.39757631065705" lon="10.966886290401236"><ele>57.0</ele><time>2026-05-02T00:46:37Z</time></trkpt><trkpt lat="45.39759222058419" lon="10.966486694417577"><ele>56.0</ele><time>2026-05-02T00:46:38Z</time></trkpt><trkpt lat="45.39760860116852" lon="10.966090522970433"><ele>56.5</ele><time>2026-05-02T00:46:39Z</time></trkpt><trkpt lat="45.39762259416335" lon="10.965691168846377"><ele>57.0</ele><time>2026-05-02T00:46:40Z</time></trkpt><trkpt lat="45.39764137982868" lon="10.965290025551992"><ele>57.5</ele><time>2026-05-02T00:46:41Z</time></trkpt><trkpt lat="45.39765760103644" lon="10.964885861338772"><ele>58.0</ele><time>2026-05-02T00:46:42Z</time></trkpt><trkpt lat="45.397675450298145" lon="10.964483359946101"><ele>58.0</ele><time>2026-05-02T00:46:43Z</time></trkpt><trkpt lat="45.397693103314616" lon="10.964079089524"><ele>58.0</ele><time>2026-05-02T00:46:44Z</time></trkpt><trkpt lat="45.397706700782116" lon="10.963678666107258"><ele>58.0</ele><time>2026-05-02T00:46:45Z</time></trkpt><trkpt lat="45.397720438101615" lon="10.963279027165248"><ele>58.0</ele><time>2026-05-02T00:46:46Z</time></trkpt><trkpt lat="45.39773665300025" lon="10.962879117424027"><ele>58.0</ele><time>2026-05-02T00:46:47Z</time></trkpt><trkpt lat="45.39775867444982" lon="10.962475438590282"><ele>58.0</ele><time>2026-05-02T00:46:48Z</time></trkpt><trkpt lat="45.3977867597834" lon="10.962072114737463"><ele>59.0</ele><time>2026-05-02T00:46:49Z</time></trkpt><trkpt lat="45.397816790987235" lon="10.961666418830488"><ele>60.0</ele><time>2026-05-02T00:46:50Z</time></trkpt><trkpt lat="45.397855450822526" lon="10.96126171840974"><ele>60.0</ele><time>2026-05-02T00:46:51Z</time></trkpt><trkpt lat="45.39789183523013" lon="10.960855464196642"><ele>60.0</ele><time>2026-05-02T00:46:52Z</time></trkpt><trkpt lat="45.39793583091797" lon="10.9604487972797"><ele>60.0</ele><time>2026-05-02T00:46:53Z</time></trkpt><trkpt lat="45.39798617294521" lon="10.96004294534086"><ele>60.0</ele><time>2026-05-02T00:46:54Z</time></trkpt><trkpt lat="45.398039083572385" lon="10.959634445831393"><ele>59.5</ele><time>2026-05-02T00:46:55Z</time></trkpt><trkpt lat="45.398083416169" lon="10.95922376728775"><ele>59.0</ele><time>2026-05-02T00:46:56Z</time></trkpt><trkpt lat="45.398127733904346" lon="10.95881126364281"><ele>59.0</ele><time>2026-05-02T00:46:57Z</time></trkpt><trkpt lat="45.3981713230957" lon="10.95840514683531"><ele>59.0</ele><time>2026-05-02T00:46:58Z</time></trkpt><trkpt lat="45.398218313468796" lon="10.958003460516304"><ele>59.5</ele><time>2026-05-02T00:46:59Z</time></trkpt><trkpt lat="45.39827065913208" lon="10.957603353879609"><ele>60.0</ele><time>2026-05-02T00:47:00Z</time></trkpt><trkpt lat="45.3983254917431" lon="10.957197733483131"><ele>60.0</ele><time>2026-05-02T00:47:01Z</time></trkpt><trkpt lat="45.398380086734655" lon="10.95679354528065"><ele>60.0</ele><time>2026-05-02T00:47:02Z</time></trkpt><trkpt lat="45.39843728763579" lon="10.956391048939023"><ele>60.0</ele><time>2026-05-02T00:47:03Z</time></trkpt><trkpt lat="45.39850008927986" lon="10.955988855349673"><ele>60.0</ele><time>2026-05-02T00:47:04Z</time></trkpt><trkpt lat="45.39856851418714" lon="10.955587533209487"><ele>61.0</ele><time>2026-05-02T00:47:05Z</time></trkpt><trkpt lat="45.39864141542454" lon="10.955184012391676"><ele>62.0</ele><time>2026-05-02T00:47:06Z</time></trkpt><trkpt lat="45.39871735284571" lon="10.954783472980253"><ele>62.5</ele><time>2026-05-02T00:47:07Z</time></trkpt><trkpt lat="45.3987978839485" lon="10.954380762794504"><ele>63.0</ele><time>2026-05-02T00:47:08Z</time></trkpt><trkpt lat="45.39887961311003" lon="10.953977778006331"><ele>61.5</ele><time>2026-05-02T00:47:09Z</time></trkpt><trkpt lat="45.39896234600101" lon="10.953573717655242"><ele>60.0</ele><time>2026-05-02T00:47:10Z</time></trkpt><trkpt lat="45.39904455445122" lon="10.953163245603585"><ele>60.0</ele><time>2026-05-02T00:47:11Z</time></trkpt><trkpt lat="45.39912891484335" lon="10.952753049369138"><ele>60.0</ele><time>2026-05-02T00:47:12Z</time></trkpt><trkpt lat="45.399214338828905" lon="10.952340337460821"><ele>60.5</ele><time>2026-05-02T00:47:13Z</time></trkpt><trkpt lat="45.39929780284313" lon="10.951934029408385"><ele>61.0</ele><time>2026-05-02T00:47:14Z</time></trkpt><trkpt lat="45.399378006655596" lon="10.951528311729827"><ele>61.0</ele><time>2026-05-02T00:47:15Z</time></trkpt><trkpt lat="45.39945910827547" lon="10.951120399840828"><ele>61.0</ele><time>2026-05-02T00:47:16Z</time></trkpt><trkpt lat="45.39954011452918" lon="10.950714193509114"><ele>60.5</ele><time>2026-05-02T00:47:17Z</time></trkpt><trkpt lat="45.39962293096004" lon="10.950308021872276"><ele>60.0</ele><time>2026-05-02T00:47:18Z</time></trkpt><trkpt lat="45.39970279478087" lon="10.949900683861111"><ele>59.5</ele><time>2026-05-02T00:47:19Z</time></trkpt><trkpt lat="45.39978275738773" lon="10.94948984855387"><ele>59.0</ele><time>2026-05-02T00:47:20Z</time></trkpt><trkpt lat="45.39986344906394" lon="10.949082440267567"><ele>59.0</ele><time>2026-05-02T00:47:21Z</time></trkpt><trkpt lat="45.39994710921595" lon="10.948674578105443"><ele>59.0</ele><time>2026-05-02T00:47:22Z</time></trkpt><trkpt lat="45.40003127181754" lon="10.948267103550362"><ele>59.0</ele><time>2026-05-02T00:47:23Z</time></trkpt><trkpt lat="45.40011589998727" lon="10.947858973289696"><ele>59.0</ele><time>2026-05-02T00:47:24Z</time></trkpt><trkpt lat="45.40019839864846" lon="10.947453265163558"><ele>59.0</ele><time>2026-05-02T00:47:25Z</time></trkpt><trkpt lat="45.40027971934201" lon="10.947055417522526"><ele>59.0</ele><time>2026-05-02T00:47:26Z</time></trkpt><trkpt lat="45.40035765119476" lon="10.94667734653073"><ele>60.0</ele><time>2026-05-02T00:47:27Z</time></trkpt><trkpt lat="45.400439685591856" lon="10.94629098169433"><ele>61.0</ele><time>2026-05-02T00:47:28Z</time></trkpt><trkpt lat="45.40051935548194" lon="10.945897034564693"><ele>60.5</ele><time>2026-05-02T00:47:29Z</time></trkpt><trkpt lat="45.400596996488055" lon="10.94549529688846"><ele>60.0</ele><time>2026-05-02T00:47:30Z</time></trkpt><trkpt lat="45.400679694901534" lon="10.945091879601268"><ele>59.5</ele><time>2026-05-02T00:47:31Z</time></trkpt><trkpt lat="45.400762572584426" lon="10.944686701241237"><ele>59.0</ele><time>2026-05-02T00:47:32Z</time></trkpt><trkpt lat="45.40084470278342" lon="10.944282662733398"><ele>59.5</ele><time>2026-05-02T00:47:33Z</time></trkpt><trkpt lat="45.400925770052744" lon="10.943876471923215"><ele>60.0</ele><time>2026-05-02T00:47:34Z</time></trkpt><trkpt lat="45.401007007940926" lon="10.943474267165195"><ele>59.5</ele><time>2026-05-02T00:47:35Z</time></trkpt><trkpt lat="45.40108753270073" lon="10.943075831910246"><ele>59.0</ele><time>2026-05-02T00:47:36Z</time></trkpt><trkpt lat="45.40116762063936" lon="10.94267816075881"><ele>60.0</ele><time>2026-05-02T00:47:37Z</time></trkpt><trkpt lat="45.40124848013017" lon="10.942277437011898"><ele>61.0</ele><time>2026-05-02T00:47:38Z</time></trkpt><trkpt lat="45.40132979781102" lon="10.941872517261375"><ele>61.5</ele><time>2026-05-02T00:47:39Z</time></trkpt><trkpt lat="45.401411640142584" lon="10.941466873364897"><ele>62.0</ele><time>2026-05-02T00:47:40Z</time></trkpt><trkpt lat="45.40149428707251" lon="10.941061093150491"><ele>61.5</ele><time>2026-05-02T00:47:41Z</time></trkpt><trkpt lat="45.40157518931451" lon="10.94065252519125"><ele>61.0</ele><time>2026-05-02T00:47:42Z</time></trkpt><trkpt lat="45.40165532293046" lon="10.940243470514648"><ele>60.0</ele><time>2026-05-02T00:47:43Z</time></trkpt><trkpt lat="45.40173762570099" lon="10.939831627298407"><ele>59.0</ele><time>2026-05-02T00:47:44Z</time></trkpt><trkpt lat="45.40181767834877" lon="10.939418742575464"><ele>60.0</ele><time>2026-05-02T00:47:45Z</time></trkpt><trkpt lat="45.401901309659436" lon="10.93900400608248"><ele>61.0</ele><time>2026-05-02T00:47:46Z</time></trkpt><trkpt lat="45.40198434433604" lon="10.938587631227072"><ele>61.5</ele><time>2026-05-02T00:47:47Z</time></trkpt><trkpt lat="45.40206694372298" lon="10.938171108250122"><ele>62.0</ele><time>2026-05-02T00:47:48Z</time></trkpt><trkpt lat="45.40215021113873" lon="10.937753738961682"><ele>62.0</ele><time>2026-05-02T00:47:49Z</time></trkpt><trkpt lat="45.40223538269167" lon="10.937337841948942"><ele>62.0</ele><time>2026-05-02T00:47:50Z</time></trkpt><trkpt lat="45.402320925995" lon="10.936922344911547"><ele>63.0</ele><time>2026-05-02T00:47:51Z</time></trkpt><trkpt lat="45.402405565414206" lon="10.936506079927641"><ele>64.0</ele><time>2026-05-02T00:47:52Z</time></trkpt><trkpt lat="45.40248757128075" lon="10.936090405527596"><ele>64.5</ele><time>2026-05-02T00:47:53Z</time></trkpt><trkpt lat="45.4025703191366" lon="10.935674153588751"><ele>65.0</ele><time>2026-05-02T00:47:54Z</time></trkpt><trkpt lat="45.40265328783153" lon="10.93525659060455"><ele>64.5</ele><time>2026-05-02T00:47:55Z</time></trkpt><trkpt lat="45.402737581163294" lon="10.934837514165421"><ele>64.0</ele><time>2026-05-02T00:47:56Z</time></trkpt><trkpt lat="45.40282293402416" lon="10.934421737510206"><ele>64.0</ele><time>2026-05-02T00:47:57Z</time></trkpt><trkpt lat="45.40291137357051" lon="10.934005979454337"><ele>64.0</ele><time>2026-05-02T00:47:58Z</time></trkpt><trkpt lat="45.40299828572453" lon="10.93359003663536"><ele>64.0</ele><time>2026-05-02T00:47:59Z</time></trkpt><trkpt lat="45.40308381570946" lon="10.933170663746923"><ele>64.0</ele><time>2026-05-02T00:48:00Z</time></trkpt><trkpt lat="45.40317188984167" lon="10.932750730797789"><ele>64.5</ele><time>2026-05-02T00:48:01Z</time></trkpt><trkpt lat="45.40325736830422" lon="10.932330685023134"><ele>65.0</ele><time>2026-05-02T00:48:02Z</time></trkpt><trkpt lat="45.40334357801591" lon="10.931908535031507"><ele>66.5</ele><time>2026-05-02T00:48:03Z</time></trkpt><trkpt lat="45.40342831508758" lon="10.93148335362904"><ele>68.0</ele><time>2026-05-02T00:48:04Z</time></trkpt><trkpt lat="45.40351787926973" lon="10.931065198567758"><ele>68.5</ele><time>2026-05-02T00:48:05Z</time></trkpt><trkpt lat="45.40360321814521" lon="10.930644895668678"><ele>69.0</ele><time>2026-05-02T00:48:06Z</time></trkpt><trkpt lat="45.403687518854746" lon="10.930228982856441"><ele>69.0</ele><time>2026-05-02T00:48:07Z</time></trkpt><trkpt lat="45.40377557791504" lon="10.929817305346564"><ele>69.0</ele><time>2026-05-02T00:48:08Z</time></trkpt><trkpt lat="45.40385682644625" lon="10.92940390959174"><ele>67.5</ele><time>2026-05-02T00:48:09Z</time></trkpt><trkpt lat="45.40394164593152" lon="10.92899038057216"><ele>66.0</ele><time>2026-05-02T00:48:10Z</time></trkpt><trkpt lat="45.40402774579006" lon="10.928579427914674"><ele>66.0</ele><time>2026-05-02T00:48:11Z</time></trkpt><trkpt lat="45.40411324667197" lon="10.928168986814319"><ele>66.0</ele><time>2026-05-02T00:48:12Z</time></trkpt><trkpt lat="45.40419483177636" lon="10.927752591962694"><ele>66.0</ele><time>2026-05-02T00:48:13Z</time></trkpt><trkpt lat="45.40428141273726" lon="10.9273413881225"><ele>66.0</ele><time>2026-05-02T00:48:14Z</time></trkpt><trkpt lat="45.404371767346554" lon="10.926929898160427"><ele>67.0</ele><time>2026-05-02T00:48:15Z</time></trkpt><trkpt lat="45.404472479468566" lon="10.926525825332883"><ele>68.0</ele><time>2026-05-02T00:48:16Z</time></trkpt><trkpt lat="45.404570392702965" lon="10.926114269615567"><ele>67.5</ele><time>2026-05-02T00:48:17Z</time></trkpt><trkpt lat="45.40464400848661" lon="10.925705565406579"><ele>67.0</ele><time>2026-05-02T00:48:18Z</time></trkpt><trkpt lat="45.40475374964522" lon="10.925306267485684"><ele>65.5</ele><time>2026-05-02T00:48:19Z</time></trkpt><trkpt lat="45.4048590452915" lon="10.924906641528107"><ele>64.0</ele><time>2026-05-02T00:48:20Z</time></trkpt><trkpt lat="45.40496123233063" lon="10.924506733612857"><ele>64.0</ele><time>2026-05-02T00:48:21Z</time></trkpt><trkpt lat="45.40506203180019" lon="10.924108680082034"><ele>64.0</ele><time>2026-05-02T00:48:22Z</time></trkpt><trkpt lat="45.405164001303966" lon="10.923715365082765"><ele>64.5</ele><time>2026-05-02T00:48:23Z</time></trkpt><trkpt lat="45.40526878214191" lon="10.92332070987901"><ele>65.0</ele><time>2026-05-02T00:48:24Z</time></trkpt><trkpt lat="45.40537281399418" lon="10.922925553286897"><ele>66.0</ele><time>2026-05-02T00:48:25Z</time></trkpt><trkpt lat="45.40548213535811" lon="10.922535746985169"><ele>67.0</ele><time>2026-05-02T00:48:26Z</time></trkpt><trkpt lat="45.4055943463743" lon="10.922153535361158"><ele>67.0</ele><time>2026-05-02T00:48:27Z</time></trkpt><trkpt lat="45.40570534224874" lon="10.921769584061074"><ele>67.0</ele><time>2026-05-02T00:48:28Z</time></trkpt><trkpt lat="45.405810260750016" lon="10.921377204679748"><ele>66.5</ele><time>2026-05-02T00:48:29Z</time></trkpt><trkpt lat="45.40592299865968" lon="10.92099389468377"><ele>66.0</ele><time>2026-05-02T00:48:30Z</time></trkpt><trkpt lat="45.40604299927879" lon="10.920617907313321"><ele>66.0</ele><time>2026-05-02T00:48:31Z</time></trkpt><trkpt lat="45.40615562051169" lon="10.92023086746757"><ele>66.0</ele><time>2026-05-02T00:48:32Z</time></trkpt><trkpt lat="45.40626578241611" lon="10.919845857100738"><ele>66.5</ele><time>2026-05-02T00:48:33Z</time></trkpt><trkpt lat="45.40637295278668" lon="10.919452526327552"><ele>67.0</ele><time>2026-05-02T00:48:34Z</time></trkpt><trkpt lat="45.40647892702969" lon="10.919055950306078"><ele>68.0</ele><time>2026-05-02T00:48:35Z</time></trkpt><trkpt lat="45.406584229046054" lon="10.91865902232623"><ele>69.0</ele><time>2026-05-02T00:48:36Z</time></trkpt><trkpt lat="45.4066914439451" lon="10.918256567505717"><ele>69.0</ele><time>2026-05-02T00:48:37Z</time></trkpt><trkpt lat="45.40679927628032" lon="10.917870319032726"><ele>69.0</ele><time>2026-05-02T00:48:38Z</time></trkpt><trkpt lat="45.40690977326793" lon="10.917479890759438"><ele>69.0</ele><time>2026-05-02T00:48:39Z</time></trkpt><trkpt lat="45.4070177246756" lon="10.91708953141519"><ele>69.0</ele><time>2026-05-02T00:48:40Z</time></trkpt><trkpt lat="45.40712656448785" lon="10.916692798891582"><ele>69.5</ele><time>2026-05-02T00:48:41Z</time></trkpt><trkpt lat="45.407233236356475" lon="10.9162968923206"><ele>70.0</ele><time>2026-05-02T00:48:42Z</time></trkpt><trkpt lat="45.40734073104685" lon="10.915897604809093"><ele>70.5</ele><time>2026-05-02T00:48:43Z</time></trkpt><trkpt lat="45.40744989034801" lon="10.91550511215777"><ele>71.0</ele><time>2026-05-02T00:48:44Z</time></trkpt><trkpt lat="45.40755979668842" lon="10.915102078841109"><ele>71.0</ele><time>2026-05-02T00:48:45Z</time></trkpt><trkpt lat="45.407667318830256" lon="10.914697947792769"><ele>71.0</ele><time>2026-05-02T00:48:46Z</time></trkpt><trkpt lat="45.407772992135605" lon="10.914303957800783"><ele>71.5</ele><time>2026-05-02T00:48:47Z</time></trkpt><trkpt lat="45.40788277850759" lon="10.913898665921579"><ele>72.0</ele><time>2026-05-02T00:48:48Z</time></trkpt><trkpt lat="45.407996002831204" lon="10.913499878924473"><ele>71.0</ele><time>2026-05-02T00:48:49Z</time></trkpt><trkpt lat="45.40810782967551" lon="10.913094336609667"><ele>70.0</ele><time>2026-05-02T00:48:50Z</time></trkpt><trkpt lat="45.40821892277064" lon="10.912692917263088"><ele>69.5</ele><time>2026-05-02T00:48:51Z</time></trkpt><trkpt lat="45.40833769615274" lon="10.912297054417637"><ele>69.0</ele><time>2026-05-02T00:48:52Z</time></trkpt><trkpt lat="45.40843378175185" lon="10.911887493506537"><ele>69.5</ele><time>2026-05-02T00:48:53Z</time></trkpt><trkpt lat="45.40854592894285" lon="10.911485424364624"><ele>70.0</ele><time>2026-05-02T00:48:54Z</time></trkpt><trkpt lat="45.4086555236132" lon="10.911085505652903"><ele>70.5</ele><time>2026-05-02T00:48:55Z</time></trkpt><trkpt lat="45.408762168806824" lon="10.91068456221631"><ele>71.0</ele><time>2026-05-02T00:48:56Z</time></trkpt><trkpt lat="45.40887116217681" lon="10.910286738899538"><ele>72.5</ele><time>2026-05-02T00:48:57Z</time></trkpt><trkpt lat="45.40897709676962" lon="10.909894992216277"><ele>74.0</ele><time>2026-05-02T00:48:58Z</time></trkpt><trkpt lat="45.40908011289799" lon="10.909506176120821"><ele>73.0</ele><time>2026-05-02T00:48:59Z</time></trkpt><trkpt lat="45.4091818186906" lon="10.909129488782217"><ele>72.0</ele><time>2026-05-02T00:49:00Z</time></trkpt><trkpt lat="45.409292576067116" lon="10.908737728289857"><ele>73.0</ele><time>2026-05-02T00:49:01Z</time></trkpt><trkpt lat="45.409400924057316" lon="10.908340578572652"><ele>74.0</ele><time>2026-05-02T00:49:02Z</time></trkpt><trkpt lat="45.40951033079286" lon="10.90794224584153"><ele>73.0</ele><time>2026-05-02T00:49:03Z</time></trkpt><trkpt lat="45.40961792381188" lon="10.907545293034751"><ele>72.0</ele><time>2026-05-02T00:49:04Z</time></trkpt><trkpt lat="45.409726877443084" lon="10.907147440811627"><ele>72.0</ele><time>2026-05-02T00:49:05Z</time></trkpt><trkpt lat="45.40983217583366" lon="10.906754067938495"><ele>72.0</ele><time>2026-05-02T00:49:06Z</time></trkpt><trkpt lat="45.40993908946056" lon="10.906363316828601"><ele>72.0</ele><time>2026-05-02T00:49:07Z</time></trkpt><trkpt lat="45.41004460624181" lon="10.90597853867869"><ele>72.0</ele><time>2026-05-02T00:49:08Z</time></trkpt><trkpt lat="45.41015028357381" lon="10.905597680211867"><ele>72.5</ele><time>2026-05-02T00:49:09Z</time></trkpt><trkpt lat="45.41025081460422" lon="10.905213555966307"><ele>73.0</ele><time>2026-05-02T00:49:10Z</time></trkpt><trkpt lat="45.41034401018993" lon="10.904831617394803"><ele>73.0</ele><time>2026-05-02T00:49:11Z</time></trkpt><trkpt lat="45.410426963634386" lon="10.904437804181793"><ele>73.0</ele><time>2026-05-02T00:49:12Z</time></trkpt><trkpt lat="45.410516160909566" lon="10.904036061992606"><ele>73.5</ele><time>2026-05-02T00:49:13Z</time></trkpt><trkpt lat="45.410614873532595" lon="10.903635896960775"><ele>74.0</ele><time>2026-05-02T00:49:14Z</time></trkpt><trkpt lat="45.41072349026428" lon="10.903235742492054"><ele>74.5</ele><time>2026-05-02T00:49:15Z</time></trkpt><trkpt lat="45.410835761477934" lon="10.902833844364022"><ele>75.0</ele><time>2026-05-02T00:49:16Z</time></trkpt><trkpt lat="45.41095202023493" lon="10.90242543137709"><ele>75.0</ele><time>2026-05-02T00:49:17Z</time></trkpt><trkpt lat="45.41107168079226" lon="10.902017066784163"><ele>75.0</ele><time>2026-05-02T00:49:18Z</time></trkpt><trkpt lat="45.411197619677516" lon="10.901608332042397"><ele>76.0</ele><time>2026-05-02T00:49:19Z</time></trkpt><trkpt lat="45.41132914928634" lon="10.901201288189247"><ele>77.0</ele><time>2026-05-02T00:49:20Z</time></trkpt><trkpt lat="45.41145486643916" lon="10.900796308806369"><ele>77.0</ele><time>2026-05-02T00:49:21Z</time></trkpt><trkpt lat="45.41157462937829" lon="10.90038749808396"><ele>77.0</ele><time>2026-05-02T00:49:22Z</time></trkpt><trkpt lat="45.411688568274116" lon="10.899977280374515"><ele>76.5</ele><time>2026-05-02T00:49:23Z</time></trkpt><trkpt lat="45.41179789627263" lon="10.899568597405526"><ele>76.0</ele><time>2026-05-02T00:49:24Z</time></trkpt><trkpt lat="45.41190457387927" lon="10.899159925104522"><ele>76.0</ele><time>2026-05-02T00:49:25Z</time></trkpt><trkpt lat="45.41200659880328" lon="10.898757809098347"><ele>76.0</ele><time>2026-05-02T00:49:26Z</time></trkpt><trkpt lat="45.41210923820914" lon="10.898351628059428"><ele>76.5</ele><time>2026-05-02T00:49:27Z</time></trkpt><trkpt lat="45.412210555327285" lon="10.89794188405215"><ele>77.0</ele><time>2026-05-02T00:49:28Z</time></trkpt><trkpt lat="45.41230390780643" lon="10.897536189492273"><ele>77.0</ele><time>2026-05-02T00:49:29Z</time></trkpt><trkpt lat="45.41239433964041" lon="10.897121925994036"><ele>77.0</ele><time>2026-05-02T00:49:30Z</time></trkpt><trkpt lat="45.41247744136148" lon="10.896706619480025"><ele>77.0</ele><time>2026-05-02T00:49:31Z</time></trkpt><trkpt lat="45.41255870657764" lon="10.896290785220415"><ele>77.0</ele><time>2026-05-02T00:49:32Z</time></trkpt><trkpt lat="45.412637241801384" lon="10.895871248170502"><ele>77.0</ele><time>2026-05-02T00:49:33Z</time></trkpt><trkpt lat="45.41271396243645" lon="10.89544743777096"><ele>77.0</ele><time>2026-05-02T00:49:34Z</time></trkpt><trkpt lat="45.412786714047705" lon="10.895024126925286"><ele>77.0</ele><time>2026-05-02T00:49:35Z</time></trkpt><trkpt lat="45.41285853987828" lon="10.894600878887825"><ele>77.0</ele><time>2026-05-02T00:49:36Z</time></trkpt><trkpt lat="45.41292528049253" lon="10.894177990717738"><ele>77.0</ele><time>2026-05-02T00:49:37Z</time></trkpt><trkpt lat="45.41298923098159" lon="10.893746421980621"><ele>77.0</ele><time>2026-05-02T00:49:38Z</time></trkpt><trkpt lat="45.413048349247035" lon="10.893318590132706"><ele>77.0</ele><time>2026-05-02T00:49:39Z</time></trkpt><trkpt lat="45.413103159671" lon="10.892889115242427"><ele>77.0</ele><time>2026-05-02T00:49:40Z</time></trkpt><trkpt lat="45.41315587785148" lon="10.892458091422348"><ele>77.5</ele><time>2026-05-02T00:49:41Z</time></trkpt><trkpt lat="45.413203836596146" lon="10.892029713889986"><ele>78.0</ele><time>2026-05-02T00:49:42Z</time></trkpt><trkpt lat="45.413246019327836" lon="10.891598257866445"><ele>78.0</ele><time>2026-05-02T00:49:43Z</time></trkpt><trkpt lat="45.413287380002075" lon="10.891168081661817"><ele>78.0</ele><time>2026-05-02T00:49:44Z</time></trkpt><trkpt lat="45.41332831406588" lon="10.890733131409036"><ele>77.5</ele><time>2026-05-02T00:49:45Z</time></trkpt><trkpt lat="45.413365874978695" lon="10.890306824405364"><ele>77.0</ele><time>2026-05-02T00:49:46Z</time></trkpt><trkpt lat="45.413399400383646" lon="10.889876809874394"><ele>78.0</ele><time>2026-05-02T00:49:47Z</time></trkpt><trkpt lat="45.41342924616603" lon="10.88944571835886"><ele>79.0</ele><time>2026-05-02T00:49:48Z</time></trkpt><trkpt lat="45.41345628463106" lon="10.88900550120189"><ele>79.0</ele><time>2026-05-02T00:49:49Z</time></trkpt><trkpt lat="45.413481126362775" lon="10.888564999409486"><ele>79.0</ele><time>2026-05-02T00:49:50Z</time></trkpt><trkpt lat="45.413503985810586" lon="10.888132528572365"><ele>79.5</ele><time>2026-05-02T00:49:51Z</time></trkpt><trkpt lat="45.41352798626701" lon="10.887690253298077"><ele>80.0</ele><time>2026-05-02T00:49:52Z</time></trkpt><trkpt lat="45.41355359869637" lon="10.887250082839563"><ele>80.0</ele><time>2026-05-02T00:49:53Z</time></trkpt><trkpt lat="45.41357815659615" lon="10.886821191558047"><ele>80.0</ele><time>2026-05-02T00:49:54Z</time></trkpt><trkpt lat="45.413603282504575" lon="10.88638284200067"><ele>80.0</ele><time>2026-05-02T00:49:55Z</time></trkpt><trkpt lat="45.413627967107715" lon="10.885946404298807"><ele>80.0</ele><time>2026-05-02T00:49:56Z</time></trkpt><trkpt lat="45.41365278407108" lon="10.885512891957534"><ele>79.5</ele><time>2026-05-02T00:49:57Z</time></trkpt><trkpt lat="45.413674730708905" lon="10.885080009181586"><ele>79.0</ele><time>2026-05-02T00:49:58Z</time></trkpt><trkpt lat="45.4136932030169" lon="10.884650231240565"><ele>80.0</ele><time>2026-05-02T00:49:59Z</time></trkpt><trkpt lat="45.41371121981547" lon="10.884215780835934"><ele>81.0</ele><time>2026-05-02T00:50:00Z</time></trkpt><trkpt lat="45.41372966010016" lon="10.883786835765155"><ele>80.5</ele><time>2026-05-02T00:50:01Z</time></trkpt><trkpt lat="45.413747934348216" lon="10.88336085440161"><ele>80.0</ele><time>2026-05-02T00:50:02Z</time></trkpt><trkpt lat="45.41377572761049" lon="10.882926503630651"><ele>80.5</ele><time>2026-05-02T00:50:03Z</time></trkpt><trkpt lat="45.4137956364478" lon="10.882506106884488"><ele>81.0</ele><time>2026-05-02T00:50:04Z</time></trkpt><trkpt lat="45.41381834110488" lon="10.88207847505"><ele>81.0</ele><time>2026-05-02T00:50:05Z</time></trkpt><trkpt lat="45.413838054761875" lon="10.881652526308814"><ele>81.0</ele><time>2026-05-02T00:50:06Z</time></trkpt><trkpt lat="45.41385878228189" lon="10.881236768227794"><ele>80.5</ele><time>2026-05-02T00:50:07Z</time></trkpt><trkpt lat="45.413883782828655" lon="10.880812789919833"><ele>80.0</ele><time>2026-05-02T00:50:08Z</time></trkpt><trkpt lat="45.41390768141615" lon="10.88040292255857"><ele>80.0</ele><time>2026-05-02T00:50:09Z</time></trkpt><trkpt lat="45.413933079227824" lon="10.879983469596853"><ele>80.0</ele><time>2026-05-02T00:50:10Z</time></trkpt><trkpt lat="45.41395702112375" lon="10.879572062502817"><ele>81.0</ele><time>2026-05-02T00:50:11Z</time></trkpt><trkpt lat="45.413982379061665" lon="10.879151561675513"><ele>82.0</ele><time>2026-05-02T00:50:12Z</time></trkpt><trkpt lat="45.414009648610765" lon="10.878744044956425"><ele>81.5</ele><time>2026-05-02T00:50:13Z</time></trkpt><trkpt lat="45.41403996301706" lon="10.878323055860127"><ele>81.0</ele><time>2026-05-02T00:50:14Z</time></trkpt><trkpt lat="45.414071633119384" lon="10.877903869692055"><ele>81.0</ele><time>2026-05-02T00:50:15Z</time></trkpt><trkpt lat="45.414101586026625" lon="10.877487124107857"><ele>81.0</ele><time>2026-05-02T00:50:16Z</time></trkpt><trkpt lat="45.414131079616276" lon="10.877072131436632"><ele>81.0</ele><time>2026-05-02T00:50:17Z</time></trkpt><trkpt lat="45.41416015105381" lon="10.876648089632113"><ele>81.0</ele><time>2026-05-02T00:50:18Z</time></trkpt><trkpt lat="45.414185601415724" lon="10.876238751482237"><ele>82.5</ele><time>2026-05-02T00:50:19Z</time></trkpt><trkpt lat="45.414212746822756" lon="10.875819805959788"><ele>84.0</ele><time>2026-05-02T00:50:20Z</time></trkpt><trkpt lat="45.41423980139876" lon="10.875398705866443"><ele>83.0</ele><time>2026-05-02T00:50:21Z</time></trkpt><trkpt lat="45.41426384324474" lon="10.874981615261216"><ele>82.0</ele><time>2026-05-02T00:50:22Z</time></trkpt><trkpt lat="45.414289554742666" lon="10.874560842237958"><ele>81.0</ele><time>2026-05-02T00:50:23Z</time></trkpt><trkpt lat="45.414313805365396" lon="10.87414324241581"><ele>80.0</ele><time>2026-05-02T00:50:24Z</time></trkpt><trkpt lat="45.41433561043611" lon="10.873720370540832"><ele>80.5</ele><time>2026-05-02T00:50:25Z</time></trkpt><trkpt lat="45.414358852596266" lon="10.873296652844088"><ele>81.0</ele><time>2026-05-02T00:50:26Z</time></trkpt><trkpt lat="45.41438217880299" lon="10.872875338302094"><ele>80.5</ele><time>2026-05-02T00:50:27Z</time></trkpt><trkpt lat="45.414407215560345" lon="10.872454036465964"><ele>80.0</ele><time>2026-05-02T00:50:28Z</time></trkpt><trkpt lat="45.41443249599231" lon="10.872032272679121"><ele>81.0</ele><time>2026-05-02T00:50:29Z</time></trkpt><trkpt lat="45.41445873684835" lon="10.871611326735858"><ele>82.0</ele><time>2026-05-02T00:50:30Z</time></trkpt><trkpt lat="45.414482170238216" lon="10.871186098293741"><ele>82.5</ele><time>2026-05-02T00:50:31Z</time></trkpt><trkpt lat="45.41450566885686" lon="10.87076635942095"><ele>83.0</ele><time>2026-05-02T00:50:32Z</time></trkpt><trkpt lat="45.41452779831535" lon="10.870338718401982"><ele>83.0</ele><time>2026-05-02T00:50:33Z</time></trkpt><trkpt lat="45.41455364804404" lon="10.86991627183968"><ele>83.0</ele><time>2026-05-02T00:50:34Z</time></trkpt><trkpt lat="45.41457980911157" lon="10.869487963380472"><ele>82.5</ele><time>2026-05-02T00:50:35Z</time></trkpt><trkpt lat="45.41460431667715" lon="10.869061876755527"><ele>82.0</ele><time>2026-05-02T00:50:36Z</time></trkpt><trkpt lat="45.4146280086265" lon="10.868636288875768"><ele>82.0</ele><time>2026-05-02T00:50:37Z</time></trkpt><trkpt lat="45.41465113476431" lon="10.868204779542403"><ele>82.0</ele><time>2026-05-02T00:50:38Z</time></trkpt><trkpt lat="45.41467590511411" lon="10.867781546779307"><ele>82.0</ele><time>2026-05-02T00:50:39Z</time></trkpt><trkpt lat="45.41470020543274" lon="10.867349560151538"><ele>82.0</ele><time>2026-05-02T00:50:40Z</time></trkpt><trkpt lat="45.41472623442762" lon="10.866917772692878"><ele>82.5</ele><time>2026-05-02T00:50:41Z</time></trkpt><trkpt lat="45.41475270273238" lon="10.866492863054162"><ele>83.0</ele><time>2026-05-02T00:50:42Z</time></trkpt><trkpt lat="45.414776733086754" lon="10.866062779362212"><ele>83.0</ele><time>2026-05-02T00:50:43Z</time></trkpt><trkpt lat="45.41480386073173" lon="10.865631893922478"><ele>83.0</ele><time>2026-05-02T00:50:44Z</time></trkpt><trkpt lat="45.414829844875285" lon="10.865205313159946"><ele>82.5</ele><time>2026-05-02T00:50:45Z</time></trkpt><trkpt lat="45.414857359625046" lon="10.864779192043166"><ele>82.0</ele><time>2026-05-02T00:50:46Z</time></trkpt><trkpt lat="45.41488083794114" lon="10.864352078578431"><ele>82.0</ele><time>2026-05-02T00:50:47Z</time></trkpt><trkpt lat="45.41490604974871" lon="10.863931901296546"><ele>82.0</ele><time>2026-05-02T00:50:48Z</time></trkpt><trkpt lat="45.41493170927596" lon="10.863524907239732"><ele>82.5</ele><time>2026-05-02T00:50:49Z</time></trkpt><trkpt lat="45.41494881364134" lon="10.86312391377936"><ele>83.0</ele><time>2026-05-02T00:50:50Z</time></trkpt><trkpt lat="45.41497353344777" lon="10.862715325960476"><ele>83.0</ele><time>2026-05-02T00:50:51Z</time></trkpt><trkpt lat="45.41499812249357" lon="10.862301520479981"><ele>83.0</ele><time>2026-05-02T00:50:52Z</time></trkpt><trkpt lat="45.415025154553575" lon="10.861877695683692"><ele>83.0</ele><time>2026-05-02T00:50:53Z</time></trkpt><trkpt lat="45.415053696443266" lon="10.861458668118061"><ele>83.0</ele><time>2026-05-02T00:50:54Z</time></trkpt><trkpt lat="45.41508584127111" lon="10.861037904061902"><ele>83.5</ele><time>2026-05-02T00:50:55Z</time></trkpt><trkpt lat="45.415122719406654" lon="10.860617320316841"><ele>84.0</ele><time>2026-05-02T00:50:56Z</time></trkpt><trkpt lat="45.415166220739906" lon="10.860194853413704"><ele>85.0</ele><time>2026-05-02T00:50:57Z</time></trkpt><trkpt lat="45.415213255355546" lon="10.859769607945944"><ele>86.0</ele><time>2026-05-02T00:50:58Z</time></trkpt><trkpt lat="45.4152606975126" lon="10.859344978324774"><ele>86.0</ele><time>2026-05-02T00:50:59Z</time></trkpt><trkpt lat="45.415312226816" lon="10.858921647642694"><ele>86.0</ele><time>2026-05-02T00:51:00Z</time></trkpt><trkpt lat="45.41536594524848" lon="10.858497473170862"><ele>86.5</ele><time>2026-05-02T00:51:01Z</time></trkpt><trkpt lat="45.41542358578788" lon="10.858073610104835"><ele>87.0</ele><time>2026-05-02T00:51:02Z</time></trkpt><trkpt lat="45.41548399681329" lon="10.857655667697511"><ele>87.5</ele><time>2026-05-02T00:51:03Z</time></trkpt><trkpt lat="45.41554704982986" lon="10.857237327126144"><ele>88.0</ele><time>2026-05-02T00:51:04Z</time></trkpt><trkpt lat="45.41561405455348" lon="10.856822762170982"><ele>88.0</ele><time>2026-05-02T00:51:05Z</time></trkpt><trkpt lat="45.415684064634455" lon="10.856411916761216"><ele>88.0</ele><time>2026-05-02T00:51:06Z</time></trkpt><trkpt lat="45.41575437480605" lon="10.856001290509395"><ele>89.0</ele><time>2026-05-02T00:51:07Z</time></trkpt><trkpt lat="45.41582487967371" lon="10.855591804807565"><ele>90.0</ele><time>2026-05-02T00:51:08Z</time></trkpt><trkpt lat="45.415898730186996" lon="10.855180595613856"><ele>89.5</ele><time>2026-05-02T00:51:09Z</time></trkpt><trkpt lat="45.41597174360836" lon="10.854769299729126"><ele>89.0</ele><time>2026-05-02T00:51:10Z</time></trkpt><trkpt lat="45.41604329668857" lon="10.854360709234815"><ele>89.0</ele><time>2026-05-02T00:51:11Z</time></trkpt><trkpt lat="45.41611559676184" lon="10.853953440293242"><ele>89.0</ele><time>2026-05-02T00:51:12Z</time></trkpt><trkpt lat="45.41619109513557" lon="10.853545299959691"><ele>89.5</ele><time>2026-05-02T00:51:13Z</time></trkpt><trkpt lat="45.416267882745494" lon="10.853135356483511"><ele>90.0</ele><time>2026-05-02T00:51:14Z</time></trkpt><trkpt lat="45.41634216604266" lon="10.852728772969025"><ele>91.0</ele><time>2026-05-02T00:51:15Z</time></trkpt><trkpt lat="45.416414650877584" lon="10.85232105189788"><ele>92.0</ele><time>2026-05-02T00:51:16Z</time></trkpt><trkpt lat="45.41648474458046" lon="10.851917087963127"><ele>92.0</ele><time>2026-05-02T00:51:17Z</time></trkpt><trkpt lat="45.4165540591116" lon="10.851511971732753"><ele>92.0</ele><time>2026-05-02T00:51:18Z</time></trkpt><trkpt lat="45.416621806790225" lon="10.851103668701342"><ele>93.0</ele><time>2026-05-02T00:51:19Z</time></trkpt><trkpt lat="45.41669213196427" lon="10.850692067684417"><ele>94.0</ele><time>2026-05-02T00:51:20Z</time></trkpt><trkpt lat="45.4167628745451" lon="10.850282501045067"><ele>94.5</ele><time>2026-05-02T00:51:21Z</time></trkpt><trkpt lat="45.41683534037056" lon="10.849873869066027"><ele>95.0</ele><time>2026-05-02T00:51:22Z</time></trkpt><trkpt lat="45.41690887320933" lon="10.849460198575978"><ele>95.5</ele><time>2026-05-02T00:51:23Z</time></trkpt><trkpt lat="45.41698161873754" lon="10.849048095287712"><ele>96.0</ele><time>2026-05-02T00:51:24Z</time></trkpt><trkpt lat="45.41705460750454" lon="10.848636025960417"><ele>96.5</ele><time>2026-05-02T00:51:25Z</time></trkpt><trkpt lat="45.41712567889707" lon="10.84822597396817"><ele>97.0</ele><time>2026-05-02T00:51:26Z</time></trkpt><trkpt lat="45.41719694658068" lon="10.847813630282497"><ele>99.0</ele><time>2026-05-02T00:51:27Z</time></trkpt><trkpt lat="45.417268849450316" lon="10.8473996654094"><ele>101.0</ele><time>2026-05-02T00:51:28Z</time></trkpt><trkpt lat="45.41733953692253" lon="10.846990090938002"><ele>101.5</ele><time>2026-05-02T00:51:29Z</time></trkpt><trkpt lat="45.417408346744" lon="10.846578991029709"><ele>102.0</ele><time>2026-05-02T00:51:30Z</time></trkpt><trkpt lat="45.41747187431593" lon="10.846168513207239"><ele>103.0</ele><time>2026-05-02T00:51:31Z</time></trkpt><trkpt lat="45.4175277724102" lon="10.845757311804526"><ele>104.0</ele><time>2026-05-02T00:51:32Z</time></trkpt><trkpt lat="45.417577616011286" lon="10.845347207819755"><ele>106.0</ele><time>2026-05-02T00:51:33Z</time></trkpt><trkpt lat="45.41762649156548" lon="10.844930835165616"><ele>108.0</ele><time>2026-05-02T00:51:34Z</time></trkpt><trkpt lat="45.41767306019332" lon="10.844515860564314"><ele>107.5</ele><time>2026-05-02T00:51:35Z</time></trkpt><trkpt lat="45.41771936815144" lon="10.844099313872523"><ele>107.0</ele><time>2026-05-02T00:51:36Z</time></trkpt><trkpt lat="45.41776508472765" lon="10.84367816527364"><ele>109.0</ele><time>2026-05-02T00:51:37Z</time></trkpt><trkpt lat="45.41780600992598" lon="10.843258113671489"><ele>111.0</ele><time>2026-05-02T00:51:38Z</time></trkpt><trkpt lat="45.41784382191074" lon="10.842837124672549"><ele>113.0</ele><time>2026-05-02T00:51:39Z</time></trkpt><trkpt lat="45.4178763762545" lon="10.842417930932116"><ele>115.0</ele><time>2026-05-02T00:51:40Z</time></trkpt><trkpt lat="45.41790533571087" lon="10.84199443884904"><ele>115.5</ele><time>2026-05-02T00:51:41Z</time></trkpt><trkpt lat="45.41793157547478" lon="10.841572683369913"><ele>116.0</ele><time>2026-05-02T00:51:42Z</time></trkpt><trkpt lat="45.41795411054893" lon="10.841149731812296"><ele>116.0</ele><time>2026-05-02T00:51:43Z</time></trkpt><trkpt lat="45.41797451252054" lon="10.840724112754526"><ele>116.0</ele><time>2026-05-02T00:51:44Z</time></trkpt><trkpt lat="45.41799330971646" lon="10.840297058329913"><ele>116.5</ele><time>2026-05-02T00:51:45Z</time></trkpt><trkpt lat="45.41801005056475" lon="10.83987085816767"><ele>117.0</ele><time>2026-05-02T00:51:46Z</time></trkpt><trkpt lat="45.41802091928912" lon="10.839445134503428"><ele>117.0</ele><time>2026-05-02T00:51:47Z</time></trkpt><trkpt lat="45.418024947131286" lon="10.83901543734404"><ele>117.0</ele><time>2026-05-02T00:51:48Z</time></trkpt><trkpt lat="45.41802566777801" lon="10.838585629695107"><ele>116.0</ele><time>2026-05-02T00:51:49Z</time></trkpt><trkpt lat="45.41802462703579" lon="10.838150531735113"><ele>115.0</ele><time>2026-05-02T00:51:50Z</time></trkpt><trkpt lat="45.41801957437296" lon="10.837718058701142"><ele>115.5</ele><time>2026-05-02T00:51:51Z</time></trkpt><trkpt lat="45.418012537285215" lon="10.83728373266817"><ele>116.0</ele><time>2026-05-02T00:51:52Z</time></trkpt><trkpt lat="45.41800185073009" lon="10.836851566421052"><ele>116.5</ele><time>2026-05-02T00:51:53Z</time></trkpt><trkpt lat="45.41798809395355" lon="10.836416817930902"><ele>117.0</ele><time>2026-05-02T00:51:54Z</time></trkpt><trkpt lat="45.41797016479429" lon="10.835983862362252"><ele>115.0</ele><time>2026-05-02T00:51:55Z</time></trkpt><trkpt lat="45.417948114183105" lon="10.835549646240093"><ele>113.0</ele><time>2026-05-02T00:51:56Z</time></trkpt><trkpt lat="45.4179248064734" lon="10.83511480141737"><ele>113.0</ele><time>2026-05-02T00:51:57Z</time></trkpt><trkpt lat="45.417896611835594" lon="10.834678102005357"><ele>113.0</ele><time>2026-05-02T00:51:58Z</time></trkpt><trkpt lat="45.41786498002953" lon="10.834236236112979"><ele>112.0</ele><time>2026-05-02T00:51:59Z</time></trkpt><trkpt lat="45.41783172386753" lon="10.833796241587907"><ele>111.0</ele><time>2026-05-02T00:52:00Z</time></trkpt><trkpt lat="45.41779811782142" lon="10.833366829376768"><ele>111.0</ele><time>2026-05-02T00:52:01Z</time></trkpt><trkpt lat="45.417766701045544" lon="10.832934954836148"><ele>111.0</ele><time>2026-05-02T00:52:02Z</time></trkpt><trkpt lat="45.41773686724241" lon="10.83250598378043"><ele>109.5</ele><time>2026-05-02T00:52:03Z</time></trkpt><trkpt lat="45.417707219153044" lon="10.832077531369567"><ele>108.0</ele><time>2026-05-02T00:52:04Z</time></trkpt><trkpt lat="45.41767642326055" lon="10.83164709227633"><ele>106.5</ele><time>2026-05-02T00:52:05Z</time></trkpt><trkpt lat="45.417645089112504" lon="10.83122235164729"><ele>105.0</ele><time>2026-05-02T00:52:06Z</time></trkpt><trkpt lat="45.417614321459986" lon="10.830791706276777"><ele>105.0</ele><time>2026-05-02T00:52:07Z</time></trkpt><trkpt lat="45.41758274394556" lon="10.83036128703657"><ele>105.0</ele><time>2026-05-02T00:52:08Z</time></trkpt><trkpt lat="45.41755147916273" lon="10.829932755737694"><ele>104.5</ele><time>2026-05-02T00:52:09Z</time></trkpt><trkpt lat="45.41751991811947" lon="10.82951568710411"><ele>104.0</ele><time>2026-05-02T00:52:10Z</time></trkpt><trkpt lat="45.41748744581319" lon="10.829093672795628"><ele>104.0</ele><time>2026-05-02T00:52:11Z</time></trkpt><trkpt lat="45.4174544314142" lon="10.828678774728262"><ele>104.0</ele><time>2026-05-02T00:52:12Z</time></trkpt><trkpt lat="45.417422220492625" lon="10.828266882285346"><ele>104.5</ele><time>2026-05-02T00:52:13Z</time></trkpt><trkpt lat="45.417392477559225" lon="10.827855262363126"><ele>105.0</ele><time>2026-05-02T00:52:14Z</time></trkpt><trkpt lat="45.4173647510445" lon="10.827442330553126"><ele>105.0</ele><time>2026-05-02T00:52:15Z</time></trkpt><trkpt lat="45.417336335905084" lon="10.827028120926409"><ele>105.0</ele><time>2026-05-02T00:52:16Z</time></trkpt><trkpt lat="45.41730605274289" lon="10.826614143628246"><ele>105.0</ele><time>2026-05-02T00:52:17Z</time></trkpt><trkpt lat="45.41727533930406" lon="10.826199988268582"><ele>105.0</ele><time>2026-05-02T00:52:18Z</time></trkpt><trkpt lat="45.41724417840517" lon="10.82578513712295"><ele>105.5</ele><time>2026-05-02T00:52:19Z</time></trkpt><trkpt lat="45.41721197779372" lon="10.825369665202306"><ele>106.0</ele><time>2026-05-02T00:52:20Z</time></trkpt><trkpt lat="45.41717942577119" lon="10.824957012173677"><ele>107.0</ele><time>2026-05-02T00:52:21Z</time></trkpt><trkpt lat="45.41714739332041" lon="10.824543166369693"><ele>108.0</ele><time>2026-05-02T00:52:22Z</time></trkpt><trkpt lat="45.417115789740755" lon="10.824132710897224"><ele>108.0</ele><time>2026-05-02T00:52:23Z</time></trkpt><trkpt lat="45.417087220199676" lon="10.82372882096822"><ele>108.0</ele><time>2026-05-02T00:52:24Z</time></trkpt><trkpt lat="45.417060833696425" lon="10.82332673916163"><ele>107.0</ele><time>2026-05-02T00:52:25Z</time></trkpt><trkpt lat="45.417036358985015" lon="10.82294408397749"><ele>106.0</ele><time>2026-05-02T00:52:26Z</time></trkpt><trkpt lat="45.417008830484825" lon="10.822551447589474"><ele>106.0</ele><time>2026-05-02T00:52:27Z</time></trkpt><trkpt lat="45.416978752006486" lon="10.82214689966258"><ele>106.0</ele><time>2026-05-02T00:52:28Z</time></trkpt><trkpt lat="45.41694940448454" lon="10.821739109649771"><ele>107.0</ele><time>2026-05-02T00:52:29Z</time></trkpt><trkpt lat="45.41691907831076" lon="10.821325137015371"><ele>108.0</ele><time>2026-05-02T00:52:30Z</time></trkpt><trkpt lat="45.41688733800887" lon="10.820900271357337"><ele>108.5</ele><time>2026-05-02T00:52:31Z</time></trkpt><trkpt lat="45.41685487075311" lon="10.820474395467127"><ele>109.0</ele><time>2026-05-02T00:52:32Z</time></trkpt><trkpt lat="45.41682311391841" lon="10.820045833837337"><ele>110.0</ele><time>2026-05-02T00:52:33Z</time></trkpt><trkpt lat="45.416790380141606" lon="10.8196205613921"><ele>111.0</ele><time>2026-05-02T00:52:34Z</time></trkpt><trkpt lat="45.416758027931145" lon="10.819193775294266"><ele>111.5</ele><time>2026-05-02T00:52:35Z</time></trkpt><trkpt lat="45.416726668017475" lon="10.818766672110673"><ele>112.0</ele><time>2026-05-02T00:52:36Z</time></trkpt><trkpt lat="45.41669712508567" lon="10.818341806765162"><ele>113.0</ele><time>2026-05-02T00:52:37Z</time></trkpt><trkpt lat="45.41666710044416" lon="10.817914274708473"><ele>114.0</ele><time>2026-05-02T00:52:38Z</time></trkpt><trkpt lat="45.41663412438205" lon="10.817488296669216"><ele>115.5</ele><time>2026-05-02T00:52:39Z</time></trkpt><trkpt lat="45.41659688679665" lon="10.817069911283577"><ele>117.0</ele><time>2026-05-02T00:52:40Z</time></trkpt><trkpt lat="45.416556701672015" lon="10.816643644907357"><ele>118.0</ele><time>2026-05-02T00:52:41Z</time></trkpt><trkpt lat="45.41651841675946" lon="10.81621451409833"><ele>119.0</ele><time>2026-05-02T00:52:42Z</time></trkpt><trkpt lat="45.41648264816901" lon="10.81578398158661"><ele>119.0</ele><time>2026-05-02T00:52:43Z</time></trkpt><trkpt lat="45.416450272027326" lon="10.81535502226202"><ele>119.0</ele><time>2026-05-02T00:52:44Z</time></trkpt><trkpt lat="45.416419400595515" lon="10.81492317553395"><ele>119.0</ele><time>2026-05-02T00:52:45Z</time></trkpt><trkpt lat="45.41638826390543" lon="10.814494301515749"><ele>119.0</ele><time>2026-05-02T00:52:46Z</time></trkpt><trkpt lat="45.416360654630296" lon="10.814065958668696"><ele>119.5</ele><time>2026-05-02T00:52:47Z</time></trkpt><trkpt lat="45.416338360709716" lon="10.81363323448652"><ele>120.0</ele><time>2026-05-02T00:52:48Z</time></trkpt><trkpt lat="45.416322927887244" lon="10.81320234001518"><ele>120.0</ele><time>2026-05-02T00:52:49Z</time></trkpt><trkpt lat="45.41631492532313" lon="10.812771877006464"><ele>120.0</ele><time>2026-05-02T00:52:50Z</time></trkpt><trkpt lat="45.41631080326415" lon="10.812341197608617"><ele>120.0</ele><time>2026-05-02T00:52:51Z</time></trkpt><trkpt lat="45.41631009886438" lon="10.81190734423536"><ele>120.0</ele><time>2026-05-02T00:52:52Z</time></trkpt><trkpt lat="45.416315861375296" lon="10.811471272618459"><ele>120.0</ele><time>2026-05-02T00:52:53Z</time></trkpt><trkpt lat="45.416328418318415" lon="10.811034883408599"><ele>120.0</ele><time>2026-05-02T00:52:54Z</time></trkpt><trkpt lat="45.416349969965545" lon="10.810600165696489"><ele>120.0</ele><time>2026-05-02T00:52:55Z</time></trkpt><trkpt lat="45.416376684498566" lon="10.810164935586739"><ele>120.0</ele><time>2026-05-02T00:52:56Z</time></trkpt><trkpt lat="45.41640737280931" lon="10.809724526594453"><ele>118.0</ele><time>2026-05-02T00:52:57Z</time></trkpt><trkpt lat="45.41643944065047" lon="10.809290130631314"><ele>116.0</ele><time>2026-05-02T00:52:58Z</time></trkpt><trkpt lat="45.416476618536244" lon="10.808852402591626"><ele>115.5</ele><time>2026-05-02T00:52:59Z</time></trkpt><trkpt lat="45.4165188126592" lon="10.808419508448752"><ele>115.0</ele><time>2026-05-02T00:53:00Z</time></trkpt><trkpt lat="45.41656420702276" lon="10.807986215542345"><ele>115.0</ele><time>2026-05-02T00:53:01Z</time></trkpt><trkpt lat="45.416611274323316" lon="10.807561209843646"><ele>115.0</ele><time>2026-05-02T00:53:02Z</time></trkpt><trkpt lat="45.41665986999645" lon="10.807137123169582"><ele>116.0</ele><time>2026-05-02T00:53:03Z</time></trkpt><trkpt lat="45.4167045896108" lon="10.80671230437899"><ele>117.0</ele><time>2026-05-02T00:53:04Z</time></trkpt><trkpt lat="45.41674759879688" lon="10.806288328837818"><ele>116.0</ele><time>2026-05-02T00:53:05Z</time></trkpt><trkpt lat="45.416789891162196" lon="10.80585987362016"><ele>115.0</ele><time>2026-05-02T00:53:06Z</time></trkpt><trkpt lat="45.4168345000706" lon="10.805434407282112"><ele>114.0</ele><time>2026-05-02T00:53:07Z</time></trkpt><trkpt lat="45.416880923811185" lon="10.805010303058793"><ele>113.0</ele><time>2026-05-02T00:53:08Z</time></trkpt><trkpt lat="45.41692716842159" lon="10.80458600860938"><ele>113.0</ele><time>2026-05-02T00:53:09Z</time></trkpt><trkpt lat="45.41697313677731" lon="10.804160646816726"><ele>113.0</ele><time>2026-05-02T00:53:10Z</time></trkpt><trkpt lat="45.41701835507622" lon="10.803733520474937"><ele>113.5</ele><time>2026-05-02T00:53:11Z</time></trkpt><trkpt lat="45.41706283426033" lon="10.803308687482891"><ele>114.0</ele><time>2026-05-02T00:53:12Z</time></trkpt><trkpt lat="45.41710746013463" lon="10.802886551997025"><ele>114.5</ele><time>2026-05-02T00:53:13Z</time></trkpt><trkpt lat="45.41715204074704" lon="10.802463475965542"><ele>115.0</ele><time>2026-05-02T00:53:14Z</time></trkpt><trkpt lat="45.41719526945658" lon="10.80204365202012"><ele>114.0</ele><time>2026-05-02T00:53:15Z</time></trkpt><trkpt lat="45.417238531835174" lon="10.801624183662602"><ele>113.0</ele><time>2026-05-02T00:53:16Z</time></trkpt><trkpt lat="45.41728169154151" lon="10.80120432046156"><ele>114.0</ele><time>2026-05-02T00:53:17Z</time></trkpt><trkpt lat="45.41732511403506" lon="10.800786147856813"><ele>115.0</ele><time>2026-05-02T00:53:18Z</time></trkpt><trkpt lat="45.41737006510021" lon="10.800369971709715"><ele>116.5</ele><time>2026-05-02T00:53:19Z</time></trkpt><trkpt lat="45.41741456115665" lon="10.799954289840402"><ele>118.0</ele><time>2026-05-02T00:53:20Z</time></trkpt><trkpt lat="45.41745972654529" lon="10.799538106619835"><ele>119.5</ele><time>2026-05-02T00:53:21Z</time></trkpt><trkpt lat="45.41750444498718" lon="10.799125711976654"><ele>121.0</ele><time>2026-05-02T00:53:22Z</time></trkpt><trkpt lat="45.41754845651921" lon="10.798710247187797"><ele>120.0</ele><time>2026-05-02T00:53:23Z</time></trkpt><trkpt lat="45.41759370901766" lon="10.798294795815735"><ele>119.0</ele><time>2026-05-02T00:53:24Z</time></trkpt><trkpt lat="45.41763853742073" lon="10.797879696252412"><ele>118.5</ele><time>2026-05-02T00:53:25Z</time></trkpt><trkpt lat="45.417685093258726" lon="10.797463475722228"><ele>118.0</ele><time>2026-05-02T00:53:26Z</time></trkpt><trkpt lat="45.417731157576874" lon="10.79704289782633"><ele>118.0</ele><time>2026-05-02T00:53:27Z</time></trkpt><trkpt lat="45.41778129384913" lon="10.796624084863366"><ele>118.0</ele><time>2026-05-02T00:53:28Z</time></trkpt><trkpt lat="45.41783743716112" lon="10.796206685338712"><ele>118.0</ele><time>2026-05-02T00:53:29Z</time></trkpt><trkpt lat="45.41789679983823" lon="10.79578986512405"><ele>118.0</ele><time>2026-05-02T00:53:30Z</time></trkpt><trkpt lat="45.41795777654032" lon="10.795370178839326"><ele>118.0</ele><time>2026-05-02T00:53:31Z</time></trkpt><trkpt lat="45.41801958306705" lon="10.794952279426512"><ele>118.0</ele><time>2026-05-02T00:53:32Z</time></trkpt><trkpt lat="45.4180832954124" lon="10.794534980329596"><ele>119.5</ele><time>2026-05-02T00:53:33Z</time></trkpt><trkpt lat="45.418151768903456" lon="10.794118853218817"><ele>121.0</ele><time>2026-05-02T00:53:34Z</time></trkpt><trkpt lat="45.41822404428421" lon="10.793705660027124"><ele>123.0</ele><time>2026-05-02T00:53:35Z</time></trkpt><trkpt lat="45.41830034984787" lon="10.79329022580704"><ele>125.0</ele><time>2026-05-02T00:53:36Z</time></trkpt><trkpt lat="45.418376917469025" lon="10.792876651825518"><ele>125.0</ele><time>2026-05-02T00:53:37Z</time></trkpt><trkpt lat="45.41845339413305" lon="10.79247100037076"><ele>125.0</ele><time>2026-05-02T00:53:38Z</time></trkpt><trkpt lat="45.4185312150045" lon="10.792062549134448"><ele>125.5</ele><time>2026-05-02T00:53:39Z</time></trkpt><trkpt lat="45.41861101524391" lon="10.791660039151452"><ele>126.0</ele><time>2026-05-02T00:53:40Z</time></trkpt><trkpt lat="45.41869289665038" lon="10.791262592833455"><ele>126.5</ele><time>2026-05-02T00:53:41Z</time></trkpt><trkpt lat="45.41877818808041" lon="10.790861385351894"><ele>127.0</ele><time>2026-05-02T00:53:42Z</time></trkpt><trkpt lat="45.41886763632889" lon="10.790461337751223"><ele>127.5</ele><time>2026-05-02T00:53:43Z</time></trkpt><trkpt lat="45.418959742479984" lon="10.790061167247114"><ele>128.0</ele><time>2026-05-02T00:53:44Z</time></trkpt><trkpt lat="45.41905458167466" lon="10.789658439728095"><ele>125.5</ele><time>2026-05-02T00:53:45Z</time></trkpt><trkpt lat="45.41914988801351" lon="10.789258028308913"><ele>123.0</ele><time>2026-05-02T00:53:46Z</time></trkpt><trkpt lat="45.41924602064064" lon="10.788862735096881"><ele>122.0</ele><time>2026-05-02T00:53:47Z</time></trkpt><trkpt lat="45.419346315157384" lon="10.788458798399958"><ele>121.0</ele><time>2026-05-02T00:53:48Z</time></trkpt><trkpt lat="45.41944990405839" lon="10.78806352438681"><ele>122.0</ele><time>2026-05-02T00:53:49Z</time></trkpt><trkpt lat="45.419554807688" lon="10.787665880773499"><ele>123.0</ele><time>2026-05-02T00:53:50Z</time></trkpt><trkpt lat="45.41966073921242" lon="10.787275718680377"><ele>124.0</ele><time>2026-05-02T00:53:51Z</time></trkpt><trkpt lat="45.419762966143345" lon="10.786907847056872"><ele>125.0</ele><time>2026-05-02T00:53:52Z</time></trkpt><trkpt lat="45.41986886389698" lon="10.786530982762436"><ele>125.0</ele><time>2026-05-02T00:53:53Z</time></trkpt><trkpt lat="45.41997650385533" lon="10.786148447022011"><ele>125.0</ele><time>2026-05-02T00:53:54Z</time></trkpt><trkpt lat="45.420089531931886" lon="10.785763255690856"><ele>125.0</ele><time>2026-05-02T00:53:55Z</time></trkpt><trkpt lat="45.420208051715235" lon="10.785377277374328"><ele>125.0</ele><time>2026-05-02T00:53:56Z</time></trkpt><trkpt lat="45.42033106820558" lon="10.784991767488185"><ele>124.5</ele><time>2026-05-02T00:53:57Z</time></trkpt><trkpt lat="45.42045651736238" lon="10.78460797171163"><ele>124.0</ele><time>2026-05-02T00:53:58Z</time></trkpt><trkpt lat="45.42058360063315" lon="10.784220422164383"><ele>124.0</ele><time>2026-05-02T00:53:59Z</time></trkpt><trkpt lat="45.420711190613495" lon="10.783832784972553"><ele>124.0</ele><time>2026-05-02T00:54:00Z</time></trkpt><trkpt lat="45.420840706178836" lon="10.78344560131217"><ele>124.5</ele><time>2026-05-02T00:54:01Z</time></trkpt><trkpt lat="45.4209734304673" lon="10.7830580089989"><ele>125.0</ele><time>2026-05-02T00:54:02Z</time></trkpt><trkpt lat="45.42110935645758" lon="10.782671561518182"><ele>124.5</ele><time>2026-05-02T00:54:03Z</time></trkpt><trkpt lat="45.42124706888809" lon="10.78229082941277"><ele>124.0</ele><time>2026-05-02T00:54:04Z</time></trkpt><trkpt lat="45.42138800465593" lon="10.781907636126764"><ele>124.0</ele><time>2026-05-02T00:54:05Z</time></trkpt><trkpt lat="45.42153047256041" lon="10.781521602063403"><ele>124.0</ele><time>2026-05-02T00:54:06Z</time></trkpt><trkpt lat="45.421675595138126" lon="10.781136634407604"><ele>124.5</ele><time>2026-05-02T00:54:07Z</time></trkpt><trkpt lat="45.421822482096886" lon="10.780753795633942"><ele>125.0</ele><time>2026-05-02T00:54:08Z</time></trkpt><trkpt lat="45.4219711497916" lon="10.78037313455284"><ele>125.0</ele><time>2026-05-02T00:54:09Z</time></trkpt><trkpt lat="45.422123647212324" lon="10.779993574127829"><ele>125.0</ele><time>2026-05-02T00:54:10Z</time></trkpt><trkpt lat="45.422276967135545" lon="10.779619148579734"><ele>126.0</ele><time>2026-05-02T00:54:11Z</time></trkpt><trkpt lat="45.42242891043659" lon="10.779241118819964"><ele>127.0</ele><time>2026-05-02T00:54:12Z</time></trkpt><trkpt lat="45.42257777681455" lon="10.778864087520112"><ele>126.0</ele><time>2026-05-02T00:54:13Z</time></trkpt><trkpt lat="45.42272566346897" lon="10.77848478381256"><ele>125.0</ele><time>2026-05-02T00:54:14Z</time></trkpt><trkpt lat="45.422873875005244" lon="10.778106440754087"><ele>125.5</ele><time>2026-05-02T00:54:15Z</time></trkpt><trkpt lat="45.42302159087515" lon="10.777729113082577"><ele>126.0</ele><time>2026-05-02T00:54:16Z</time></trkpt><trkpt lat="45.42317280047647" lon="10.777352114703755"><ele>123.5</ele><time>2026-05-02T00:54:17Z</time></trkpt><trkpt lat="45.42332427136319" lon="10.776972244343437"><ele>121.0</ele><time>2026-05-02T00:54:18Z</time></trkpt><trkpt lat="45.42347385264439" lon="10.776596522054357"><ele>119.5</ele><time>2026-05-02T00:54:19Z</time></trkpt><trkpt lat="45.42362005452678" lon="10.776220282372034"><ele>118.0</ele><time>2026-05-02T00:54:20Z</time></trkpt><trkpt lat="45.4237639474978" lon="10.77583902258865"><ele>115.0</ele><time>2026-05-02T00:54:21Z</time></trkpt><trkpt lat="45.42390356538707" lon="10.775459050274602"><ele>112.0</ele><time>2026-05-02T00:54:22Z</time></trkpt><trkpt lat="45.42403638206335" lon="10.775072700655667"><ele>110.0</ele><time>2026-05-02T00:54:23Z</time></trkpt><trkpt lat="45.42416311187557" lon="10.77468376909919"><ele>108.0</ele><time>2026-05-02T00:54:24Z</time></trkpt><trkpt lat="45.42428626813183" lon="10.774289028934087"><ele>107.0</ele><time>2026-05-02T00:54:25Z</time></trkpt><trkpt lat="45.42440244802033" lon="10.773888009847079"><ele>106.0</ele><time>2026-05-02T00:54:26Z</time></trkpt><trkpt lat="45.42451555605768" lon="10.773485881138692"><ele>105.0</ele><time>2026-05-02T00:54:27Z</time></trkpt><trkpt lat="45.42462382672714" lon="10.77307423817558"><ele>104.0</ele><time>2026-05-02T00:54:28Z</time></trkpt><trkpt lat="45.42473228918382" lon="10.7726676711018"><ele>104.0</ele><time>2026-05-02T00:54:29Z</time></trkpt><trkpt lat="45.42483582330324" lon="10.772259150758115"><ele>104.0</ele><time>2026-05-02T00:54:30Z</time></trkpt><trkpt lat="45.42493342560826" lon="10.771847406208506"><ele>104.5</ele><time>2026-05-02T00:54:31Z</time></trkpt><trkpt lat="45.42502477800454" lon="10.771437107134508"><ele>105.0</ele><time>2026-05-02T00:54:32Z</time></trkpt><trkpt lat="45.42511058847854" lon="10.771020919302261"><ele>104.0</ele><time>2026-05-02T00:54:33Z</time></trkpt><trkpt lat="45.42518880050148" lon="10.770604357329871"><ele>103.0</ele><time>2026-05-02T00:54:34Z</time></trkpt><trkpt lat="45.42526224915385" lon="10.77018692511617"><ele>103.0</ele><time>2026-05-02T00:54:35Z</time></trkpt><trkpt lat="45.425331497101276" lon="10.769769671135434"><ele>103.0</ele><time>2026-05-02T00:54:36Z</time></trkpt><trkpt lat="45.42539609802046" lon="10.769350220499467"><ele>103.5</ele><time>2026-05-02T00:54:37Z</time></trkpt><trkpt lat="45.42545734147705" lon="10.768933122728711"><ele>104.0</ele><time>2026-05-02T00:54:38Z</time></trkpt><trkpt lat="45.42551099020907" lon="10.768512604635392"><ele>103.5</ele><time>2026-05-02T00:54:39Z</time></trkpt><trkpt lat="45.42556128137227" lon="10.768090640202225"><ele>103.0</ele><time>2026-05-02T00:54:40Z</time></trkpt><trkpt lat="45.42560597946287" lon="10.76766767951717"><ele>103.0</ele><time>2026-05-02T00:54:41Z</time></trkpt><trkpt lat="45.42564803845006" lon="10.767241452987534"><ele>103.0</ele><time>2026-05-02T00:54:42Z</time></trkpt><trkpt lat="45.42569033851097" lon="10.766817298855134"><ele>101.5</ele><time>2026-05-02T00:54:43Z</time></trkpt><trkpt lat="45.42573772858277" lon="10.766394451438751"><ele>100.0</ele><time>2026-05-02T00:54:44Z</time></trkpt><trkpt lat="45.425789181243424" lon="10.765978018142887"><ele>99.5</ele><time>2026-05-02T00:54:45Z</time></trkpt><trkpt lat="45.425833704080496" lon="10.765553804835474"><ele>99.0</ele><time>2026-05-02T00:54:46Z</time></trkpt><trkpt lat="45.42587856183681" lon="10.7651286056358"><ele>99.0</ele><time>2026-05-02T00:54:47Z</time></trkpt><trkpt lat="45.42592080945056" lon="10.764704305342391"><ele>99.0</ele><time>2026-05-02T00:54:48Z</time></trkpt><trkpt lat="45.42596469712003" lon="10.764279841654353"><ele>100.0</ele><time>2026-05-02T00:54:49Z</time></trkpt><trkpt lat="45.42601023457748" lon="10.763852052919802"><ele>101.0</ele><time>2026-05-02T00:54:50Z</time></trkpt><trkpt lat="45.42605043526947" lon="10.763429523878886"><ele>102.0</ele><time>2026-05-02T00:54:51Z</time></trkpt><trkpt lat="45.42609265809632" lon="10.763004609752672"><ele>103.0</ele><time>2026-05-02T00:54:52Z</time></trkpt><trkpt lat="45.426135032771825" lon="10.76258009002962"><ele>103.0</ele><time>2026-05-02T00:54:53Z</time></trkpt><trkpt lat="45.42617922609685" lon="10.762155352429343"><ele>103.0</ele><time>2026-05-02T00:54:54Z</time></trkpt><trkpt lat="45.42622041375439" lon="10.761733103938866"><ele>102.5</ele><time>2026-05-02T00:54:55Z</time></trkpt><trkpt lat="45.42626437773789" lon="10.76130572194019"><ele>102.0</ele><time>2026-05-02T00:54:56Z</time></trkpt><trkpt lat="45.42630972148559" lon="10.76087822368523"><ele>102.0</ele><time>2026-05-02T00:54:57Z</time></trkpt><trkpt lat="45.42635313029204" lon="10.760451403745567"><ele>102.0</ele><time>2026-05-02T00:54:58Z</time></trkpt><trkpt lat="45.426396244715384" lon="10.760023106125225"><ele>102.0</ele><time>2026-05-02T00:54:59Z</time></trkpt><trkpt lat="45.4264370383835" lon="10.759596131568893"><ele>102.0</ele><time>2026-05-02T00:55:00Z</time></trkpt><trkpt lat="45.42647971918508" lon="10.759166797687213"><ele>102.0</ele><time>2026-05-02T00:55:01Z</time></trkpt><trkpt lat="45.42652421553368" lon="10.758735925777472"><ele>102.0</ele><time>2026-05-02T00:55:02Z</time></trkpt><trkpt lat="45.42656714162235" lon="10.758303261840998"><ele>102.0</ele><time>2026-05-02T00:55:03Z</time></trkpt><trkpt lat="45.42661521784311" lon="10.7578762666671"><ele>102.0</ele><time>2026-05-02T00:55:04Z</time></trkpt><trkpt lat="45.42665916618816" lon="10.757449743614066"><ele>101.5</ele><time>2026-05-02T00:55:05Z</time></trkpt><trkpt lat="45.42670768712519" lon="10.757019658004316"><ele>101.0</ele><time>2026-05-02T00:55:06Z</time></trkpt><trkpt lat="45.42674698705388" lon="10.756588659913527"><ele>101.0</ele><time>2026-05-02T00:55:07Z</time></trkpt><trkpt lat="45.426786119035455" lon="10.75615828716019"><ele>101.0</ele><time>2026-05-02T00:55:08Z</time></trkpt><trkpt lat="45.42682322945802" lon="10.755728069735088"><ele>101.0</ele><time>2026-05-02T00:55:09Z</time></trkpt><trkpt lat="45.4268663960277" lon="10.755302714163715"><ele>101.0</ele><time>2026-05-02T00:55:10Z</time></trkpt><trkpt lat="45.42689904830561" lon="10.7548694608017"><ele>101.0</ele><time>2026-05-02T00:55:11Z</time></trkpt><trkpt lat="45.426937264632826" lon="10.75444318899011"><ele>101.0</ele><time>2026-05-02T00:55:12Z</time></trkpt><trkpt lat="45.42697752011307" lon="10.754015557845955"><ele>101.0</ele><time>2026-05-02T00:55:13Z</time></trkpt><trkpt lat="45.42702226491049" lon="10.753590955229622"><ele>101.0</ele><time>2026-05-02T00:55:14Z</time></trkpt><trkpt lat="45.42707294212353" lon="10.7531749058481"><ele>101.0</ele><time>2026-05-02T00:55:15Z</time></trkpt><trkpt lat="45.427120283401074" lon="10.752754310756323"><ele>101.0</ele><time>2026-05-02T00:55:16Z</time></trkpt><trkpt lat="45.4271730299837" lon="10.752337858217691"><ele>102.0</ele><time>2026-05-02T00:55:17Z</time></trkpt><trkpt lat="45.427219607279355" lon="10.75191913445334"><ele>103.0</ele><time>2026-05-02T00:55:18Z</time></trkpt><trkpt lat="45.42726290452213" lon="10.751497309081238"><ele>103.0</ele><time>2026-05-02T00:55:19Z</time></trkpt><trkpt lat="45.42731309270858" lon="10.751078511500463"><ele>103.0</ele><time>2026-05-02T00:55:20Z</time></trkpt><trkpt lat="45.42735292138354" lon="10.750658017894763"><ele>103.0</ele><time>2026-05-02T00:55:21Z</time></trkpt><trkpt lat="45.42739372526076" lon="10.750234504500568"><ele>103.0</ele><time>2026-05-02T00:55:22Z</time></trkpt><trkpt lat="45.42744019063756" lon="10.749812610008963"><ele>103.0</ele><time>2026-05-02T00:55:23Z</time></trkpt><trkpt lat="45.42748174406389" lon="10.749388595715493"><ele>103.0</ele><time>2026-05-02T00:55:24Z</time></trkpt><trkpt lat="45.42752356676234" lon="10.748965462269126"><ele>102.0</ele><time>2026-05-02T00:55:25Z</time></trkpt><trkpt lat="45.427565131263094" lon="10.748545259564112"><ele>101.0</ele><time>2026-05-02T00:55:26Z</time></trkpt><trkpt lat="45.42760765103564" lon="10.748123693768225"><ele>99.5</ele><time>2026-05-02T00:55:27Z</time></trkpt><trkpt lat="45.427652972327174" lon="10.747710454052855"><ele>98.0</ele><time>2026-05-02T00:55:28Z</time></trkpt><trkpt lat="45.427693926544016" lon="10.747295801620883"><ele>97.5</ele><time>2026-05-02T00:55:29Z</time></trkpt><trkpt lat="45.42773871982516" lon="10.74688317698547"><ele>97.0</ele><time>2026-05-02T00:55:30Z</time></trkpt><trkpt lat="45.42778045313707" lon="10.746477984387056"><ele>96.0</ele><time>2026-05-02T00:55:31Z</time></trkpt><trkpt lat="45.427819566093554" lon="10.746086193892554"><ele>95.0</ele><time>2026-05-02T00:55:32Z</time></trkpt><trkpt lat="45.427859814564485" lon="10.745682082771799"><ele>94.5</ele><time>2026-05-02T00:55:33Z</time></trkpt><trkpt lat="45.42789866886975" lon="10.745274000130436"><ele>94.0</ele><time>2026-05-02T00:55:34Z</time></trkpt><trkpt lat="45.42794011044102" lon="10.7448591821158"><ele>94.5</ele><time>2026-05-02T00:55:35Z</time></trkpt><trkpt lat="45.427981694592134" lon="10.744438394376116"><ele>95.0</ele><time>2026-05-02T00:55:36Z</time></trkpt><trkpt lat="45.42802600669039" lon="10.744011591039666"><ele>95.0</ele><time>2026-05-02T00:55:37Z</time></trkpt><trkpt lat="45.42807095461693" lon="10.743585286792284"><ele>95.0</ele><time>2026-05-02T00:55:38Z</time></trkpt><trkpt lat="45.428114047999266" lon="10.74316542882801"><ele>94.5</ele><time>2026-05-02T00:55:39Z</time></trkpt><trkpt lat="45.42815756269254" lon="10.742740215840458"><ele>94.0</ele><time>2026-05-02T00:55:40Z</time></trkpt><trkpt lat="45.428199488080395" lon="10.74231971529982"><ele>95.5</ele><time>2026-05-02T00:55:41Z</time></trkpt><trkpt lat="45.42824103652703" lon="10.741894432958095"><ele>97.0</ele><time>2026-05-02T00:55:42Z</time></trkpt><trkpt lat="45.428283744813456" lon="10.741469080817053"><ele>97.0</ele><time>2026-05-02T00:55:43Z</time></trkpt><trkpt lat="45.42832594857329" lon="10.741049840915762"><ele>97.0</ele><time>2026-05-02T00:55:44Z</time></trkpt><trkpt lat="45.428368032518506" lon="10.74062647981791"><ele>96.5</ele><time>2026-05-02T00:55:45Z</time></trkpt><trkpt lat="45.42841093832068" lon="10.740203239126558"><ele>96.0</ele><time>2026-05-02T00:55:46Z</time></trkpt><trkpt lat="45.42845462115978" lon="10.739779062610674"><ele>96.0</ele><time>2026-05-02T00:55:47Z</time></trkpt><trkpt lat="45.4284989887574" lon="10.739350425143664"><ele>96.0</ele><time>2026-05-02T00:55:48Z</time></trkpt><trkpt lat="45.42854491362557" lon="10.738928607421128"><ele>96.5</ele><time>2026-05-02T00:55:49Z</time></trkpt><trkpt lat="45.4285916325251" lon="10.738505428091667"><ele>97.0</ele><time>2026-05-02T00:55:50Z</time></trkpt><trkpt lat="45.42863597769273" lon="10.738082663416883"><ele>97.0</ele><time>2026-05-02T00:55:51Z</time></trkpt><trkpt lat="45.42868060758973" lon="10.73765858751849"><ele>97.0</ele><time>2026-05-02T00:55:52Z</time></trkpt><trkpt lat="45.42872488270165" lon="10.737234312771783"><ele>98.5</ele><time>2026-05-02T00:55:53Z</time></trkpt><trkpt lat="45.428768108145" lon="10.736815692720757"><ele>100.0</ele><time>2026-05-02T00:55:54Z</time></trkpt><trkpt lat="45.428810490492644" lon="10.736389741668392"><ele>100.5</ele><time>2026-05-02T00:55:55Z</time></trkpt><trkpt lat="45.42885377107762" lon="10.735967823616269"><ele>101.0</ele><time>2026-05-02T00:55:56Z</time></trkpt><trkpt lat="45.42889647560667" lon="10.735540382774927"><ele>100.5</ele><time>2026-05-02T00:55:57Z</time></trkpt><trkpt lat="45.42893898776816" lon="10.735115412896509"><ele>100.0</ele><time>2026-05-02T00:55:58Z</time></trkpt><trkpt lat="45.42898265963488" lon="10.734689309969148"><ele>99.5</ele><time>2026-05-02T00:55:59Z</time></trkpt><trkpt lat="45.42902623004392" lon="10.734267048631576"><ele>99.0</ele><time>2026-05-02T00:56:00Z</time></trkpt><trkpt lat="45.42907222997346" lon="10.733849324626062"><ele>101.5</ele><time>2026-05-02T00:56:01Z</time></trkpt><trkpt lat="45.42911673943969" lon="10.733427390103524"><ele>104.0</ele><time>2026-05-02T00:56:02Z</time></trkpt><trkpt lat="45.42916318837513" lon="10.733005134493094"><ele>103.5</ele><time>2026-05-02T00:56:03Z</time></trkpt><trkpt lat="45.429206611117756" lon="10.732581432709289"><ele>103.0</ele><time>2026-05-02T00:56:04Z</time></trkpt><trkpt lat="45.429245021016555" lon="10.732162539361907"><ele>103.0</ele><time>2026-05-02T00:56:05Z</time></trkpt><trkpt lat="45.42928550051221" lon="10.731740650602386"><ele>103.0</ele><time>2026-05-02T00:56:06Z</time></trkpt><trkpt lat="45.42931772505177" lon="10.731319952608832"><ele>102.5</ele><time>2026-05-02T00:56:07Z</time></trkpt><trkpt lat="45.42934903962594" lon="10.730897795603639"><ele>102.0</ele><time>2026-05-02T00:56:08Z</time></trkpt><trkpt lat="45.429379334940506" lon="10.730475590199198"><ele>102.0</ele><time>2026-05-02T00:56:09Z</time></trkpt><trkpt lat="45.429408531564285" lon="10.730058786823305"><ele>102.0</ele><time>2026-05-02T00:56:10Z</time></trkpt><trkpt lat="45.42943438246475" lon="10.72963600938331"><ele>102.0</ele><time>2026-05-02T00:56:11Z</time></trkpt><trkpt lat="45.4294600856293" lon="10.729214102590495"><ele>102.0</ele><time>2026-05-02T00:56:12Z</time></trkpt><trkpt lat="45.42948460003672" lon="10.728796364110993"><ele>104.0</ele><time>2026-05-02T00:56:13Z</time></trkpt><trkpt lat="45.42950426649922" lon="10.728373194115548"><ele>106.0</ele><time>2026-05-02T00:56:14Z</time></trkpt><trkpt lat="45.429520957895264" lon="10.727956033493086"><ele>108.0</ele><time>2026-05-02T00:56:15Z</time></trkpt><trkpt lat="45.42953668287608" lon="10.72753645232003"><ele>110.0</ele><time>2026-05-02T00:56:16Z</time></trkpt><trkpt lat="45.42954848702709" lon="10.72711631697873"><ele>111.5</ele><time>2026-05-02T00:56:17Z</time></trkpt><trkpt lat="45.42955736790539" lon="10.726692353659638"><ele>113.0</ele><time>2026-05-02T00:56:18Z</time></trkpt><trkpt lat="45.42956400219331" lon="10.7262678065525"><ele>111.0</ele><time>2026-05-02T00:56:19Z</time></trkpt><trkpt lat="45.42956725713265" lon="10.725838304581924"><ele>109.0</ele><time>2026-05-02T00:56:20Z</time></trkpt><trkpt lat="45.429572350288915" lon="10.725410995532803"><ele>108.5</ele><time>2026-05-02T00:56:21Z</time></trkpt><trkpt lat="45.42957243810407" lon="10.724986147361882"><ele>108.0</ele><time>2026-05-02T00:56:22Z</time></trkpt><trkpt lat="45.42956962279636" lon="10.724555119638424"><ele>107.0</ele><time>2026-05-02T00:56:23Z</time></trkpt><trkpt lat="45.42956740543553" lon="10.724127073736398"><ele>106.0</ele><time>2026-05-02T00:56:24Z</time></trkpt><trkpt lat="45.42956254158265" lon="10.723694694437564"><ele>105.5</ele><time>2026-05-02T00:56:25Z</time></trkpt><trkpt lat="45.42955671548897" lon="10.723262216932465"><ele>105.0</ele><time>2026-05-02T00:56:26Z</time></trkpt><trkpt lat="45.429550930045764" lon="10.722827690085039"><ele>104.0</ele><time>2026-05-02T00:56:27Z</time></trkpt><trkpt lat="45.429550389928785" lon="10.722399086528702"><ele>103.0</ele><time>2026-05-02T00:56:28Z</time></trkpt><trkpt lat="45.42954925673903" lon="10.721972190207124"><ele>102.0</ele><time>2026-05-02T00:56:29Z</time></trkpt><trkpt lat="45.42954633291691" lon="10.721549800746093"><ele>101.0</ele><time>2026-05-02T00:56:30Z</time></trkpt><trkpt lat="45.429542509977985" lon="10.72113181660419"><ele>100.5</ele><time>2026-05-02T00:56:31Z</time></trkpt><trkpt lat="45.429536066882214" lon="10.720719558585339"><ele>100.0</ele><time>2026-05-02T00:56:32Z</time></trkpt><trkpt lat="45.42953462717747" lon="10.720316689378096"><ele>100.0</ele><time>2026-05-02T00:56:33Z</time></trkpt><trkpt lat="45.42953021895663" lon="10.71991575490276"><ele>100.0</ele><time>2026-05-02T00:56:34Z</time></trkpt><trkpt lat="45.42952482383098" lon="10.719518484193506"><ele>99.5</ele><time>2026-05-02T00:56:35Z</time></trkpt><trkpt lat="45.42952115482919" lon="10.719129007506504"><ele>99.0</ele><time>2026-05-02T00:56:36Z</time></trkpt><trkpt lat="45.429517975952784" lon="10.718739292810774"><ele>98.5</ele><time>2026-05-02T00:56:37Z</time></trkpt><trkpt lat="45.42951499152491" lon="10.718347999211154"><ele>98.0</ele><time>2026-05-02T00:56:38Z</time></trkpt><trkpt lat="45.429514120653145" lon="10.717956687125099"><ele>98.0</ele><time>2026-05-02T00:56:39Z</time></trkpt><trkpt lat="45.429512224649606" lon="10.717563519704527"><ele>98.0</ele><time>2026-05-02T00:56:40Z</time></trkpt><trkpt lat="45.4295070813681" lon="10.717177309264963"><ele>98.5</ele><time>2026-05-02T00:56:41Z</time></trkpt><trkpt lat="45.4295048538492" lon="10.716789854724752"><ele>99.0</ele><time>2026-05-02T00:56:42Z</time></trkpt><trkpt lat="45.429502160909024" lon="10.71639944092759"><ele>99.0</ele><time>2026-05-02T00:56:43Z</time></trkpt><trkpt lat="45.42949957258443" lon="10.716011051641855"><ele>99.0</ele><time>2026-05-02T00:56:44Z</time></trkpt><trkpt lat="45.429496393843614" lon="10.715626239191712"><ele>99.0</ele><time>2026-05-02T00:56:45Z</time></trkpt><trkpt lat="45.429494933558146" lon="10.715237999466448"><ele>99.0</ele><time>2026-05-02T00:56:46Z</time></trkpt><trkpt lat="45.42949440188179" lon="10.714850925714027"><ele>100.0</ele><time>2026-05-02T00:56:47Z</time></trkpt><trkpt lat="45.4294915210173" lon="10.714458471195577"><ele>101.0</ele><time>2026-05-02T00:56:48Z</time></trkpt><trkpt lat="45.42949102148455" lon="10.714066732288567"><ele>100.5</ele><time>2026-05-02T00:56:49Z</time></trkpt><trkpt lat="45.42948713666353" lon="10.713675856855714"><ele>100.0</ele><time>2026-05-02T00:56:50Z</time></trkpt><trkpt lat="45.42948268497274" lon="10.713284363352637"><ele>100.0</ele><time>2026-05-02T00:56:51Z</time></trkpt><trkpt lat="45.429479764839634" lon="10.712894460964037"><ele>100.0</ele><time>2026-05-02T00:56:52Z</time></trkpt><trkpt lat="45.429476306163096" lon="10.712500205487224"><ele>99.5</ele><time>2026-05-02T00:56:53Z</time></trkpt><trkpt lat="45.42947374853693" lon="10.71210800535678"><ele>99.0</ele><time>2026-05-02T00:56:54Z</time></trkpt><trkpt lat="45.42947055836039" lon="10.711713254215347"><ele>98.0</ele><time>2026-05-02T00:56:55Z</time></trkpt><trkpt lat="45.429471776470436" lon="10.711326404887672"><ele>97.0</ele><time>2026-05-02T00:56:56Z</time></trkpt><trkpt lat="45.429472069433494" lon="10.71094589134556"><ele>95.0</ele><time>2026-05-02T00:56:57Z</time></trkpt><trkpt lat="45.429472580435046" lon="10.710585474747647"><ele>93.0</ele><time>2026-05-02T00:56:58Z</time></trkpt><trkpt lat="45.429472971447446" lon="10.710241420159495"><ele>91.5</ele><time>2026-05-02T00:56:59Z</time></trkpt><trkpt lat="45.42947798554235" lon="10.709898753435464"><ele>90.0</ele><time>2026-05-02T00:57:00Z</time></trkpt><trkpt lat="45.42947977004076" lon="10.709557783621152"><ele>88.5</ele><time>2026-05-02T00:57:01Z</time></trkpt><trkpt lat="45.42947878920127" lon="10.709219247782624"><ele>87.0</ele><time>2026-05-02T00:57:02Z</time></trkpt><trkpt lat="45.42947743099078" lon="10.708885382403226"><ele>86.33333333333333</ele><time>2026-05-02T00:57:03Z</time></trkpt><trkpt lat="45.42947426862052" lon="10.708566660753542"><ele>85.66666666666666</ele><time>2026-05-02T00:57:04Z</time></trkpt><trkpt lat="45.429471364241856" lon="10.708261750711145"><ele>85.0</ele><time>2026-05-02T00:57:05Z</time></trkpt><trkpt lat="45.429467369738184" lon="10.707970368685803"><ele>84.66666666666666</ele><time>2026-05-02T00:57:06Z</time></trkpt><trkpt lat="45.4294669591697" lon="10.707691588278246"><ele>84.33333333333333</ele><time>2026-05-02T00:57:07Z</time></trkpt><trkpt lat="45.429464017032494" lon="10.70742422602598"><ele>84.0</ele><time>2026-05-02T00:57:08Z</time></trkpt><trkpt lat="45.42946492097112" lon="10.707164633814688"><ele>84.0</ele><time>2026-05-02T00:57:09Z</time></trkpt><trkpt lat="45.429466597173004" lon="10.706911933266834"><ele>84.0</ele><time>2026-05-02T00:57:10Z</time></trkpt><trkpt lat="45.42946582520353" lon="10.706666485991729"><ele>84.0</ele><time>2026-05-02T00:57:11Z</time></trkpt><trkpt lat="45.42946695808575" lon="10.706435567626986"><ele>83.75</ele><time>2026-05-02T00:57:12Z</time></trkpt><trkpt lat="45.42946956385893" lon="10.70621911531184"><ele>83.5</ele><time>2026-05-02T00:57:13Z</time></trkpt><trkpt lat="45.42947323391066" lon="10.70601139312184"><ele>83.25</ele><time>2026-05-02T00:57:14Z</time></trkpt><trkpt lat="45.42948679822908" lon="10.705813358530719"><ele>83.0</ele><time>2026-05-02T00:57:15Z</time></trkpt><trkpt lat="45.42951001109823" lon="10.705626235496684"><ele>83.0</ele><time>2026-05-02T00:57:16Z</time></trkpt><trkpt lat="45.429549749218836" lon="10.705457693039818"><ele>83.0</ele><time>2026-05-02T00:57:17Z</time></trkpt><trkpt lat="45.429612029948274" lon="10.705321056369971"><ele>83.0</ele><time>2026-05-02T00:57:18Z</time></trkpt><trkpt lat="45.4296936067207" lon="10.705208021961285"><ele>83.0</ele><time>2026-05-02T00:57:19Z</time></trkpt><trkpt lat="45.429793028267234" lon="10.705126577665817"><ele>81.0</ele><time>2026-05-02T00:57:20Z</time></trkpt><trkpt lat="45.429904732780074" lon="10.705082733614795"><ele>79.0</ele><time>2026-05-02T00:57:21Z</time></trkpt><trkpt lat="45.43002082869716" lon="10.705076597259358"><ele>77.0</ele><time>2026-05-02T00:57:22Z</time></trkpt><trkpt lat="45.43013550270975" lon="10.70510942975445"><ele>75.0</ele><time>2026-05-02T00:57:23Z</time></trkpt><trkpt lat="45.430242807173784" lon="10.7051821848906"><ele>76.25</ele><time>2026-05-02T00:57:24Z</time></trkpt><trkpt lat="45.43033763664113" lon="10.70528864366076"><ele>77.5</ele><time>2026-05-02T00:57:25Z</time></trkpt><trkpt lat="45.43041821067945" lon="10.705419580277269"><ele>78.75</ele><time>2026-05-02T00:57:26Z</time></trkpt><trkpt lat="45.43047417743841" lon="10.705570516821837"><ele>80.0</ele><time>2026-05-02T00:57:27Z</time></trkpt><trkpt lat="45.43050226468381" lon="10.705733562599063"><ele>80.5</ele><time>2026-05-02T00:57:28Z</time></trkpt><trkpt lat="45.43050469747107" lon="10.705899403411635"><ele>81.0</ele><time>2026-05-02T00:57:29Z</time></trkpt><trkpt lat="45.43048068960486" lon="10.706065127511417"><ele>81.5</ele><time>2026-05-02T00:57:30Z</time></trkpt><trkpt lat="45.430430398632325" lon="10.706221425356723"><ele>82.0</ele><time>2026-05-02T00:57:31Z</time></trkpt><trkpt lat="45.43035952314077" lon="10.706360553640968"><ele>82.0</ele><time>2026-05-02T00:57:32Z</time></trkpt><trkpt lat="45.43026887806211" lon="10.70647261365817"><ele>82.0</ele><time>2026-05-02T00:57:33Z</time></trkpt><trkpt lat="45.4301616752384" lon="10.706553736375717"><ele>82.0</ele><time>2026-05-02T00:57:34Z</time></trkpt><trkpt lat="45.4300453980388" lon="10.706603672890724"><ele>82.0</ele><time>2026-05-02T00:57:35Z</time></trkpt><trkpt lat="45.429919911311565" lon="10.706619972285521"><ele>82.0</ele><time>2026-05-02T00:57:36Z</time></trkpt><trkpt lat="45.429788879872305" lon="10.70661955512578"><ele>82.0</ele><time>2026-05-02T00:57:37Z</time></trkpt><trkpt lat="45.42965411316055" lon="10.706612705284057"><ele>82.0</ele><time>2026-05-02T00:57:38Z</time></trkpt><trkpt lat="45.429515381026015" lon="10.706610043966474"><ele>82.0</ele><time>2026-05-02T00:57:39Z</time></trkpt><trkpt lat="45.4293707822974" lon="10.706610820884991"><ele>82.0</ele><time>2026-05-02T00:57:40Z</time></trkpt><trkpt lat="45.42922617292024" lon="10.70661529203044"><ele>82.0</ele><time>2026-05-02T00:57:41Z</time></trkpt><trkpt lat="45.42907965869795" lon="10.70661922216119"><ele>82.0</ele><time>2026-05-02T00:57:42Z</time></trkpt><trkpt lat="45.42893510502179" lon="10.706619511123336"><ele>82.0</ele><time>2026-05-02T00:57:43Z</time></trkpt><trkpt lat="45.428800372328276" lon="10.706621497418203"><ele>82.0</ele><time>2026-05-02T00:57:44Z</time></trkpt><trkpt lat="45.428652271481724" lon="10.70662221883861"><ele>82.0</ele><time>2026-05-02T00:57:45Z</time></trkpt><trkpt lat="45.42851033747096" lon="10.706613202262274"><ele>82.0</ele><time>2026-05-02T00:57:46Z</time></trkpt><trkpt lat="45.42837295722962" lon="10.706589600028904"><ele>82.0</ele><time>2026-05-02T00:57:47Z</time></trkpt><trkpt lat="45.428237591087345" lon="10.706540663362748"><ele>82.0</ele><time>2026-05-02T00:57:48Z</time></trkpt><trkpt lat="45.42811099734547" lon="10.706456360716967"><ele>82.0</ele><time>2026-05-02T00:57:49Z</time></trkpt><trkpt lat="45.42799581132637" lon="10.706347009832582"><ele>82.0</ele><time>2026-05-02T00:57:50Z</time></trkpt><trkpt lat="45.42789674097721" lon="10.706209856752247"><ele>82.0</ele><time>2026-05-02T00:57:51Z</time></trkpt><trkpt lat="45.4278115151594" lon="10.706055948346007"><ele>81.5</ele><time>2026-05-02T00:57:52Z</time></trkpt><trkpt lat="45.42774581723997" lon="10.705880200107428"><ele>81.0</ele><time>2026-05-02T00:57:53Z</time></trkpt><trkpt lat="45.42770155159748" lon="10.705689874536452"><ele>80.5</ele><time>2026-05-02T00:57:54Z</time></trkpt><trkpt lat="45.4276751034846" lon="10.705491668153757"><ele>80.0</ele><time>2026-05-02T00:57:55Z</time></trkpt><trkpt lat="45.42766848934449" lon="10.70528633184576"><ele>79.66666666666667</ele><time>2026-05-02T00:57:56Z</time></trkpt><trkpt lat="45.42767873788841" lon="10.705078534588004"><ele>79.33333333333333</ele><time>2026-05-02T00:57:57Z</time></trkpt><trkpt lat="45.427699384998164" lon="10.704866045952983"><ele>79.0</ele><time>2026-05-02T00:57:58Z</time></trkpt><trkpt lat="45.42773121984334" lon="10.704652454585363"><ele>79.0</ele><time>2026-05-02T00:57:59Z</time></trkpt><trkpt lat="45.42776394128175" lon="10.70443627874323"><ele>79.0</ele><time>2026-05-02T00:58:00Z</time></trkpt><trkpt lat="45.42779500618898" lon="10.704221099260561"><ele>79.0</ele><time>2026-05-02T00:58:01Z</time></trkpt><trkpt lat="45.42782273299902" lon="10.703997100090955"><ele>78.33333333333333</ele><time>2026-05-02T00:58:02Z</time></trkpt><trkpt lat="45.427848482806695" lon="10.703765844314754"><ele>77.66666666666667</ele><time>2026-05-02T00:58:03Z</time></trkpt><trkpt lat="45.42787240694173" lon="10.703530294772179"><ele>77.0</ele><time>2026-05-02T00:58:04Z</time></trkpt><trkpt lat="45.427895906838415" lon="10.703295008745199"><ele>75.66666666666667</ele><time>2026-05-02T00:58:05Z</time></trkpt><trkpt lat="45.42791883483083" lon="10.70307162266812"><ele>74.33333333333333</ele><time>2026-05-02T00:58:06Z</time></trkpt><trkpt lat="45.42794116540417" lon="10.702853407440418"><ele>73.0</ele><time>2026-05-02T00:58:07Z</time></trkpt><trkpt lat="45.427959848035975" lon="10.702650608426007"><ele>72.0</ele><time>2026-05-02T00:58:08Z</time></trkpt><trkpt lat="45.427976984133494" lon="10.702463445318314"><ele>71.0</ele><time>2026-05-02T00:58:09Z</time></trkpt><trkpt lat="45.428000026564185" lon="10.702297949926017"><ele>70.0</ele><time>2026-05-02T00:58:10Z</time></trkpt><trkpt lat="45.42803965699674" lon="10.702156335589894"><ele>69.0</ele><time>2026-05-02T00:58:11Z</time></trkpt><trkpt lat="45.42809762439332" lon="10.70203071838697"><ele>68.5</ele><time>2026-05-02T00:58:12Z</time></trkpt><trkpt lat="45.42817434616393" lon="10.701913996617554"><ele>68.0</ele><time>2026-05-02T00:58:13Z</time></trkpt><trkpt lat="45.42827091594767" lon="10.701824313311974"><ele>67.5</ele><time>2026-05-02T00:58:14Z</time></trkpt><trkpt lat="45.42838109402049" lon="10.70176607046115"><ele>67.0</ele><time>2026-05-02T00:58:15Z</time></trkpt><trkpt lat="45.428499246517376" lon="10.701739255331372"><ele>67.0</ele><time>2026-05-02T00:58:16Z</time></trkpt><trkpt lat="45.42862261553337" lon="10.701728674626578"><ele>67.0</ele><time>2026-05-02T00:58:17Z</time></trkpt><trkpt lat="45.42874811166137" lon="10.701724353655806"><ele>67.0</ele><time>2026-05-02T00:58:18Z</time></trkpt><trkpt lat="45.42887959496936" lon="10.701721975606214"><ele>67.0</ele><time>2026-05-02T00:58:19Z</time></trkpt><trkpt lat="45.429005698671865" lon="10.701720946350866"><ele>66.75</ele><time>2026-05-02T00:58:20Z</time></trkpt><trkpt lat="45.42913131430219" lon="10.701718943292931"><ele>66.5</ele><time>2026-05-02T00:58:21Z</time></trkpt><trkpt lat="45.42926161525655" lon="10.701722981645219"><ele>66.25</ele><time>2026-05-02T00:58:22Z</time></trkpt><trkpt lat="45.42937987662959" lon="10.701724829245933"><ele>66.0</ele><time>2026-05-02T00:58:23Z</time></trkpt><trkpt lat="45.429490680136084" lon="10.701732012646803"><ele>66.0</ele><time>2026-05-02T00:58:24Z</time></trkpt><trkpt lat="45.42959244089459" lon="10.701753459424822"><ele>66.0</ele><time>2026-05-02T00:58:25Z</time></trkpt><trkpt lat="45.42969553033004" lon="10.701769227392482"><ele>66.0</ele><time>2026-05-02T00:58:26Z</time></trkpt><trkpt lat="45.42978873634765" lon="10.701792837121472"><ele>66.0</ele><time>2026-05-02T00:58:27Z</time></trkpt><trkpt lat="45.429868019714085" lon="10.701822097661793"><ele>66.0</ele><time>2026-05-02T00:58:28Z</time></trkpt><trkpt lat="45.42993906862403" lon="10.701851884287732"><ele>66.0</ele><time>2026-05-02T00:58:29Z</time></trkpt><trkpt lat="45.43000209895926" lon="10.70188008841708"><ele>66.0</ele><time>2026-05-02T00:58:30Z</time></trkpt><trkpt lat="45.43010170059628" lon="10.701950396575686"><ele>66.0</ele><time>2026-05-02T00:58:32Z</time></trkpt><trkpt lat="45.43018082220824" lon="10.701987444381516"><ele>66.0</ele><time>2026-05-02T00:58:34Z</time></trkpt><trkpt lat="45.43025188260676" lon="10.702019786175008"><ele>66.0</ele><time>2026-05-02T00:58:37Z</time></trkpt><trkpt lat="45.430284816638185" lon="10.702097611527362"><ele>66.0</ele><time>2026-05-02T01:00:17Z</time></trkpt><trkpt lat="45.430379293795156" lon="10.702098663758047"><ele>66.0</ele><time>2026-05-02T01:01:27Z</time></trkpt><trkpt lat="45.4304542065635" lon="10.702137819978633"><ele>66.0</ele><time>2026-05-02T01:02:19Z</time></trkpt><trkpt lat="45.43054581492522" lon="10.702189662287477"><ele>66.0</ele><time>2026-05-02T01:02:20.999Z</time></trkpt><trkpt lat="45.43066079227642" lon="10.702239877955277"><ele>66.0</ele><time>2026-05-02T01:02:22.999Z</time></trkpt><trkpt lat="45.430712589950886" lon="10.702299996684705"><ele>66.0</ele><time>2026-05-02T01:02:23.999Z</time></trkpt><trkpt lat="45.430771191306526" lon="10.702342593275715"><ele>66.0</ele><time>2026-05-02T01:02:24.999Z</time></trkpt><trkpt lat="45.43082607769057" lon="10.70238872766234"><ele>66.66666666666667</ele><time>2026-05-02T01:02:25.999Z</time></trkpt><trkpt lat="45.43091495222986" lon="10.702474492082956"><ele>67.33333333333333</ele><time>2026-05-02T01:02:27.999Z</time></trkpt><trkpt lat="45.43096305743827" lon="10.702533026955843"><ele>68.0</ele><time>2026-05-02T01:02:30Z</time></trkpt><trkpt lat="45.4310079052256" lon="10.702603163566197"><ele>68.66666666666666</ele><time>2026-05-02T01:02:34Z</time></trkpt><trkpt lat="45.43109330758054" lon="10.70250015463425"><ele>69.33333333333333</ele><time>2026-05-02T01:04:13Z</time></trkpt><trkpt lat="45.431050049582865" lon="10.702586645287775"><ele>70.0</ele><time>2026-05-02T01:06:14.001Z</time></trkpt><trkpt lat="45.43107070559654" lon="10.702687391477905"><ele>70.0</ele><time>2026-05-02T01:06:17.001Z</time></trkpt><trkpt lat="45.43114192792956" lon="10.702763795709513"><ele>70.0</ele><time>2026-05-02T01:06:20.001Z</time></trkpt><trkpt lat="45.43121458137181" lon="10.70281189017312"><ele>70.0</ele><time>2026-05-02T01:06:22.001Z</time></trkpt><trkpt lat="45.431282709610194" lon="10.702840210709184"><ele>70.0</ele><time>2026-05-02T01:06:24.001Z</time></trkpt><trkpt lat="45.43136882509971" lon="10.702874503601194"><ele>70.0</ele><time>2026-05-02T01:06:26.001Z</time></trkpt><trkpt lat="45.43146475315434" lon="10.702905977790659"><ele>70.0</ele><time>2026-05-02T01:06:28.001Z</time></trkpt><trkpt lat="45.43153714175509" lon="10.702962014935757"><ele>70.0</ele><time>2026-05-02T01:06:30.001Z</time></trkpt><trkpt lat="45.43163362654853" lon="10.703018245200374"><ele>70.0</ele><time>2026-05-02T01:06:32.001Z</time></trkpt><trkpt lat="45.43169926139255" lon="10.703101192471317"><ele>70.0</ele><time>2026-05-02T01:06:34.001Z</time></trkpt><trkpt lat="45.43177325227251" lon="10.703224652886036"><ele>70.0</ele><time>2026-05-02T01:06:36.001Z</time></trkpt><trkpt lat="45.43183828360516" lon="10.703370913247602"><ele>70.0</ele><time>2026-05-02T01:06:38.001Z</time></trkpt><trkpt lat="45.431903250398754" lon="10.703515059500306"><ele>70.0</ele><time>2026-05-02T01:06:40.001Z</time></trkpt><trkpt lat="45.43194265112408" lon="10.70360326871021"><ele>70.0</ele><time>2026-05-02T01:06:41.001Z</time></trkpt><trkpt lat="45.43198210104413" lon="10.70369355970097"><ele>70.0</ele><time>2026-05-02T01:06:42.001Z</time></trkpt><trkpt lat="45.43201883481798" lon="10.70377700581252"><ele>70.0</ele><time>2026-05-02T01:06:43.001Z</time></trkpt><trkpt lat="45.432058449949416" lon="10.703868328892414"><ele>70.0</ele><time>2026-05-02T01:06:44.001Z</time></trkpt><trkpt lat="45.43209966038369" lon="10.703967241398109"><ele>70.0</ele><time>2026-05-02T01:06:45.001Z</time></trkpt><trkpt lat="45.432144520243114" lon="10.704071814464633"><ele>69.83333333333333</ele><time>2026-05-02T01:06:46.001Z</time></trkpt><trkpt lat="45.43219277328563" lon="10.704182771539447"><ele>69.66666666666666</ele><time>2026-05-02T01:06:47.001Z</time></trkpt><trkpt lat="45.43224079268641" lon="10.704293724377889"><ele>69.5</ele><time>2026-05-02T01:06:48.001Z</time></trkpt><trkpt lat="45.432287859106225" lon="10.704403545002275"><ele>69.33333333333333</ele><time>2026-05-02T01:06:49.001Z</time></trkpt><trkpt lat="45.432333119195455" lon="10.704504882156469"><ele>69.16666666666667</ele><time>2026-05-02T01:06:50.001Z</time></trkpt><trkpt lat="45.43237474039664" lon="10.7045984474729"><ele>69.0</ele><time>2026-05-02T01:06:51.001Z</time></trkpt><trkpt lat="45.432415248926766" lon="10.70468757113856"><ele>69.0</ele><time>2026-05-02T01:06:52.001Z</time></trkpt><trkpt lat="45.43245630552163" lon="10.704777571983312"><ele>69.0</ele><time>2026-05-02T01:06:53.001Z</time></trkpt><trkpt lat="45.43249735952152" lon="10.704868457701776"><ele>69.0</ele><time>2026-05-02T01:06:54.001Z</time></trkpt><trkpt lat="45.43253990856324" lon="10.704965021901076"><ele>69.0</ele><time>2026-05-02T01:06:55.001Z</time></trkpt><trkpt lat="45.43258075727032" lon="10.70506104979189"><ele>69.0</ele><time>2026-05-02T01:06:56.001Z</time></trkpt><trkpt lat="45.43261694829964" lon="10.705156937559012"><ele>69.0</ele><time>2026-05-02T01:06:57.001Z</time></trkpt><trkpt lat="45.432642963331595" lon="10.705247651084992"><ele>69.16666666666667</ele><time>2026-05-02T01:06:58.001Z</time></trkpt><trkpt lat="45.4326631439051" lon="10.705417720826254"><ele>69.33333333333333</ele><time>2026-05-02T01:07:00.001Z</time></trkpt><trkpt lat="45.432637352279926" lon="10.705579632667368"><ele>69.5</ele><time>2026-05-02T01:07:02.001Z</time></trkpt><trkpt lat="45.43260636346509" lon="10.705659841370927"><ele>69.66666666666666</ele><time>2026-05-02T01:07:03.001Z</time></trkpt><trkpt lat="45.43256073144129" lon="10.705733930329748"><ele>69.83333333333333</ele><time>2026-05-02T01:07:04.001Z</time></trkpt><trkpt lat="45.43250310849223" lon="10.705794358986433"><ele>70.0</ele><time>2026-05-02T01:07:05.001Z</time></trkpt><trkpt lat="45.43243709834003" lon="10.705841363969684"><ele>70.0</ele><time>2026-05-02T01:07:06.001Z</time></trkpt><trkpt lat="45.4323657538422" lon="10.705866402020137"><ele>70.0</ele><time>2026-05-02T01:07:07.001Z</time></trkpt><trkpt lat="45.43229333327578" lon="10.705868751741727"><ele>70.0</ele><time>2026-05-02T01:07:08.001Z</time></trkpt><trkpt lat="45.43222170337547" lon="10.705843220411797"><ele>70.0</ele><time>2026-05-02T01:07:09.001Z</time></trkpt><trkpt lat="45.43215168310291" lon="10.705793906699828"><ele>70.0</ele><time>2026-05-02T01:07:10.001Z</time></trkpt><trkpt lat="45.43208390912574" lon="10.705736183299111"><ele>70.0</ele><time>2026-05-02T01:07:11.001Z</time></trkpt><trkpt lat="45.43201147361131" lon="10.705674196792122"><ele>69.83333333333333</ele><time>2026-05-02T01:07:12.001Z</time></trkpt><trkpt lat="45.43193520192024" lon="10.70561988187792"><ele>69.66666666666666</ele><time>2026-05-02T01:07:13.001Z</time></trkpt><trkpt lat="45.431852610309186" lon="10.705581870016807"><ele>69.5</ele><time>2026-05-02T01:07:14.001Z</time></trkpt><trkpt lat="45.43177692828605" lon="10.705574545649698"><ele>69.33333333333333</ele><time>2026-05-02T01:07:15.001Z</time></trkpt><trkpt lat="45.431699717628504" lon="10.705572934791531"><ele>69.16666666666667</ele><time>2026-05-02T01:07:16.001Z</time></trkpt><trkpt lat="45.4316108668681" lon="10.705600565845378"><ele>69.0</ele><time>2026-05-02T01:07:17.001Z</time></trkpt><trkpt lat="45.43155580933266" lon="10.705658064502305"><ele>69.0</ele><time>2026-05-02T01:07:18.001Z</time></trkpt><trkpt lat="45.43149078174293" lon="10.705712913466275"><ele>69.0</ele><time>2026-05-02T01:07:19.001Z</time></trkpt><trkpt lat="45.43143130891635" lon="10.7057769639079"><ele>69.0</ele><time>2026-05-02T01:07:20.001Z</time></trkpt><trkpt lat="45.43137875473878" lon="10.705853282115942"><ele>69.0</ele><time>2026-05-02T01:07:21.001Z</time></trkpt><trkpt lat="45.43133486972297" lon="10.705944172528234"><ele>69.0</ele><time>2026-05-02T01:07:22.001Z</time></trkpt><trkpt lat="45.43130113674605" lon="10.706041721717087"><ele>69.0</ele><time>2026-05-02T01:07:23.001Z</time></trkpt><trkpt lat="45.431273388088904" lon="10.706143242317713"><ele>69.83333333333333</ele><time>2026-05-02T01:07:24.001Z</time></trkpt><trkpt lat="45.43125215839498" lon="10.706249134190406"><ele>70.66666666666667</ele><time>2026-05-02T01:07:25.001Z</time></trkpt><trkpt lat="45.431232306314115" lon="10.70635539007816"><ele>71.5</ele><time>2026-05-02T01:07:26.001Z</time></trkpt><trkpt lat="45.43121656764039" lon="10.706462965209678"><ele>72.33333333333334</ele><time>2026-05-02T01:07:27.001Z</time></trkpt><trkpt lat="45.43120807928813" lon="10.706573000301642"><ele>73.16666666666667</ele><time>2026-05-02T01:07:28.001Z</time></trkpt><trkpt lat="45.43121282803066" lon="10.706689625935091"><ele>74.0</ele><time>2026-05-02T01:07:29.001Z</time></trkpt><trkpt lat="45.43122916820344" lon="10.706810602417198"><ele>74.0</ele><time>2026-05-02T01:07:30.001Z</time></trkpt><trkpt lat="45.43126255009078" lon="10.706931719006702"><ele>74.0</ele><time>2026-05-02T01:07:31.001Z</time></trkpt><trkpt lat="45.431315574628016" lon="10.707039908853872"><ele>74.0</ele><time>2026-05-02T01:07:32.001Z</time></trkpt><trkpt lat="45.43138661909738" lon="10.707129563331874"><ele>74.0</ele><time>2026-05-02T01:07:33.001Z</time></trkpt><trkpt lat="45.43146566975933" lon="10.707206717228173"><ele>74.0</ele><time>2026-05-02T01:07:34.001Z</time></trkpt><trkpt lat="45.43155507342463" lon="10.7072612060775"><ele>74.0</ele><time>2026-05-02T01:07:35.001Z</time></trkpt><trkpt lat="45.43164972650317" lon="10.707308317085939"><ele>74.0</ele><time>2026-05-02T01:07:36.001Z</time></trkpt><trkpt lat="45.43175406343169" lon="10.707312913739884"><ele>74.0</ele><time>2026-05-02T01:07:37.001Z</time></trkpt><trkpt lat="45.4318559251639" lon="10.707288412672431"><ele>74.0</ele><time>2026-05-02T01:07:38.001Z</time></trkpt><trkpt lat="45.431957244453734" lon="10.707246772742424"><ele>74.0</ele><time>2026-05-02T01:07:39.001Z</time></trkpt><trkpt lat="45.432061870261315" lon="10.707205349659716"><ele>73.0</ele><time>2026-05-02T01:07:40.001Z</time></trkpt><trkpt lat="45.43216296692808" lon="10.707182068523428"><ele>72.0</ele><time>2026-05-02T01:07:41.001Z</time></trkpt><trkpt lat="45.432270724542484" lon="10.70718452914006"><ele>71.0</ele><time>2026-05-02T01:07:42.001Z</time></trkpt><trkpt lat="45.43237605808642" lon="10.707233265110588"><ele>70.0</ele><time>2026-05-02T01:07:43.001Z</time></trkpt><trkpt lat="45.4324761893722" lon="10.70730055803617"><ele>69.0</ele><time>2026-05-02T01:07:44.001Z</time></trkpt><trkpt lat="45.43257035112339" lon="10.707386308473009"><ele>69.0</ele><time>2026-05-02T01:07:45.001Z</time></trkpt><trkpt lat="45.432662772965024" lon="10.707489241983017"><ele>69.0</ele><time>2026-05-02T01:07:46.001Z</time></trkpt><trkpt lat="45.432751890331204" lon="10.7075979349226"><ele>69.0</ele><time>2026-05-02T01:07:47.001Z</time></trkpt><trkpt lat="45.432838730098034" lon="10.707707035487397"><ele>69.0</ele><time>2026-05-02T01:07:48.001Z</time></trkpt><trkpt lat="45.43292578525049" lon="10.707810048374764"><ele>69.4</ele><time>2026-05-02T01:07:49.001Z</time></trkpt><trkpt lat="45.433013002760205" lon="10.707910644988122"><ele>69.80000000000001</ele><time>2026-05-02T01:07:50.001Z</time></trkpt><trkpt lat="45.433100495141105" lon="10.708010964975932"><ele>70.19999999999999</ele><time>2026-05-02T01:07:51.001Z</time></trkpt><trkpt lat="45.43318649095252" lon="10.708111410244477"><ele>70.6</ele><time>2026-05-02T01:07:52.001Z</time></trkpt><trkpt lat="45.43327039770798" lon="10.708210716979208"><ele>71.0</ele><time>2026-05-02T01:07:53.001Z</time></trkpt><trkpt lat="45.433356540637554" lon="10.708308842160674"><ele>71.0</ele><time>2026-05-02T01:07:54.001Z</time></trkpt><trkpt lat="45.43344761031371" lon="10.708405227796174"><ele>71.0</ele><time>2026-05-02T01:07:55.001Z</time></trkpt><trkpt lat="45.4335414008745" lon="10.708497149102197"><ele>71.0</ele><time>2026-05-02T01:07:56.001Z</time></trkpt><trkpt lat="45.43363772188413" lon="10.708584633637994"><ele>71.0</ele><time>2026-05-02T01:07:57.001Z</time></trkpt><trkpt lat="45.43373548099549" lon="10.708668749143575"><ele>71.2</ele><time>2026-05-02T01:07:58.001Z</time></trkpt><trkpt lat="45.43383129311513" lon="10.708748175034824"><ele>71.39999999999999</ele><time>2026-05-02T01:07:59.001Z</time></trkpt><trkpt lat="45.43392350063408" lon="10.708826478107177"><ele>71.6</ele><time>2026-05-02T01:08:00.001Z</time></trkpt><trkpt lat="45.43400662416843" lon="10.70889690364916"><ele>71.8</ele><time>2026-05-02T01:08:01.001Z</time></trkpt><trkpt lat="45.43407848198345" lon="10.708968667724568"><ele>72.0</ele><time>2026-05-02T01:08:02.001Z</time></trkpt><trkpt lat="45.43413829005485" lon="10.709057275262005"><ele>72.0</ele><time>2026-05-02T01:08:03.001Z</time></trkpt><trkpt lat="45.43419813236617" lon="10.709143389473741"><ele>72.0</ele><time>2026-05-02T01:08:04.001Z</time></trkpt><trkpt lat="45.43426294171824" lon="10.709212962013977"><ele>72.0</ele><time>2026-05-02T01:08:05.001Z</time></trkpt><trkpt lat="45.43434347969382" lon="10.70926488835443"><ele>72.0</ele><time>2026-05-02T01:08:06.001Z</time></trkpt><trkpt lat="45.43443109551721" lon="10.709293560755912"><ele>72.0</ele><time>2026-05-02T01:08:07.001Z</time></trkpt><trkpt lat="45.43452137893904" lon="10.709321578097807"><ele>72.0</ele><time>2026-05-02T01:08:08.001Z</time></trkpt><trkpt lat="45.43461670329201" lon="10.709357970795205"><ele>72.4</ele><time>2026-05-02T01:08:09.001Z</time></trkpt><trkpt lat="45.434711706857925" lon="10.709407240969915"><ele>72.80000000000001</ele><time>2026-05-02T01:08:10.001Z</time></trkpt><trkpt lat="45.43481023992264" lon="10.709455363398947"><ele>73.2</ele><time>2026-05-02T01:08:11.001Z</time></trkpt><trkpt lat="45.43491042741398" lon="10.709498656117017"><ele>73.60000000000001</ele><time>2026-05-02T01:08:12.001Z</time></trkpt><trkpt lat="45.43501315767285" lon="10.709542587573187"><ele>74.0</ele><time>2026-05-02T01:08:13.001Z</time></trkpt><trkpt lat="45.43511745953688" lon="10.709591813551214"><ele>74.0</ele><time>2026-05-02T01:08:14.001Z</time></trkpt><trkpt lat="45.435224397210554" lon="10.709645019940098"><ele>74.0</ele><time>2026-05-02T01:08:15.001Z</time></trkpt><trkpt lat="45.43533387633516" lon="10.709702205726042"><ele>74.0</ele><time>2026-05-02T01:08:16.001Z</time></trkpt><trkpt lat="45.43544431556404" lon="10.70976214115499"><ele>74.0</ele><time>2026-05-02T01:08:17.001Z</time></trkpt><trkpt lat="45.43555186571671" lon="10.709822658615195"><ele>73.8</ele><time>2026-05-02T01:08:18.001Z</time></trkpt><trkpt lat="45.43565545074544" lon="10.70987973435277"><ele>73.60000000000001</ele><time>2026-05-02T01:08:19.001Z</time></trkpt><trkpt lat="45.435748789340145" lon="10.70993008979731"><ele>73.4</ele><time>2026-05-02T01:08:20.001Z</time></trkpt><trkpt lat="45.43582900537379" lon="10.709974988445817"><ele>73.2</ele><time>2026-05-02T01:08:21.001Z</time></trkpt><trkpt lat="45.43589068999544" lon="10.710013874086187"><ele>73.0</ele><time>2026-05-02T01:08:22.001Z</time></trkpt><trkpt lat="45.43596526231441" lon="10.71013168456808"><ele>73.0</ele><time>2026-05-02T01:08:24.001Z</time></trkpt><trkpt lat="45.436008089651445" lon="10.710258803762555"><ele>73.0</ele><time>2026-05-02T01:08:26.001Z</time></trkpt><trkpt lat="45.43607861654246" lon="10.710136276831655"><ele>73.0</ele><time>2026-05-02T01:08:27.001Z</time></trkpt><trkpt lat="45.436080548718124" lon="10.710342850474898"><ele>73.0</ele><time>2026-05-02T01:08:29.001Z</time></trkpt></trkseg></trk></gpx>